<?xml version="1.0" encoding="UTF-8"?>
<gpx version="1.1" creator="https://www.youtrack.es" xsi:schemaLocation="http://www.topografix.com/GPX/1/1 http://www.topografix.com/GPX/1/1/gpx.xsd http://www.garmin.com/xmlschemas/GpxExtensions/v3 http://www.garmin.com/xmlschemas/GpxExtensionsv3.xsd http://www.garmin.com/xmlschemas/TrackPointExtension/v1 http://www.garmin.com/xmlschemas/TrackPointExtensionv1.xsd" xmlns:gpxtpx="http://www.garmin.com/xmlschemas/TrackPointExtension/v1" xmlns:gpxx="http://www.garmin.com/xmlschemas/GpxExtensions/v3" xmlns:xsi="http://www.w3.org/2001/XMLSchema-instance">
  <metadata>
    <link href="https://www.youtrack.es">
      <text>YouTrack.es</text>
    </link>
    <time>2026-05-08T06:58:11Z</time>
  </metadata>
  <trk>
    <src>https://www.youtrack.es</src>
    <link href="https://www.youtrack.es/ruta/15189-camino-de-santiago-por-la-via-de-la-plata-con-el-sanabres">
      <text>YouTrack.es</text>
    </link>
    <trkseg>
      <trkpt lat="37.2749262303" lon="-5.9325995017">
        <ele>44.36</ele>
        <time>2020-07-09T05:12:57Z</time>
      </trkpt>
      <trkpt lat="37.2751910985" lon="-5.9327663854">
        <ele>40.03</ele>
        <time>2020-07-09T05:13:05Z</time>
      </trkpt>
      <trkpt lat="37.2755456530" lon="-5.9330149088">
        <ele>41.47</ele>
        <time>2020-07-09T05:13:14Z</time>
      </trkpt>
      <trkpt lat="37.2758999560" lon="-5.9332913440">
        <ele>38.59</ele>
        <time>2020-07-09T05:13:23Z</time>
      </trkpt>
      <trkpt lat="37.2763245832" lon="-5.9335461538">
        <ele>39.55</ele>
        <time>2020-07-09T05:13:32Z</time>
      </trkpt>
      <trkpt lat="37.2768264078" lon="-5.9338819329">
        <ele>40.03</ele>
        <time>2020-07-09T05:13:43Z</time>
      </trkpt>
      <trkpt lat="37.2772648651" lon="-5.9342122637">
        <ele>39.55</ele>
        <time>2020-07-09T05:13:52Z</time>
      </trkpt>
      <trkpt lat="37.2776267957" lon="-5.9345295187">
        <ele>39.55</ele>
        <time>2020-07-09T05:14:00Z</time>
      </trkpt>
      <trkpt lat="37.2780370060" lon="-5.9348964784">
        <ele>39.55</ele>
        <time>2020-07-09T05:14:10Z</time>
      </trkpt>
      <trkpt lat="37.2784132697" lon="-5.9352191817">
        <ele>41.47</ele>
        <time>2020-07-09T05:14:20Z</time>
      </trkpt>
      <trkpt lat="37.2784314584" lon="-5.9352535475">
        <ele>41.47</ele>
        <time>2020-07-09T05:14:21Z</time>
      </trkpt>
      <trkpt lat="37.2785907146" lon="-5.9355396219">
        <ele>40.51</ele>
        <time>2020-07-09T05:14:29Z</time>
      </trkpt>
      <trkpt lat="37.2787048761" lon="-5.9357185755">
        <ele>39.55</ele>
        <time>2020-07-09T05:14:34Z</time>
      </trkpt>
      <trkpt lat="37.2788022738" lon="-5.9356550407">
        <ele>39.55</ele>
        <time>2020-07-09T05:14:37Z</time>
      </trkpt>
      <trkpt lat="37.2788247373" lon="-5.9356420487">
        <ele>39.55</ele>
        <time>2020-07-09T05:14:38Z</time>
      </trkpt>
      <trkpt lat="37.2788572591" lon="-5.9356312361">
        <ele>39.55</ele>
        <time>2020-07-09T05:14:39Z</time>
      </trkpt>
      <trkpt lat="37.2788965702" lon="-5.9356245305">
        <ele>39.55</ele>
        <time>2020-07-09T05:14:40Z</time>
      </trkpt>
      <trkpt lat="37.2789359652" lon="-5.9356239438">
        <ele>39.55</ele>
        <time>2020-07-09T05:14:41Z</time>
      </trkpt>
      <trkpt lat="37.2789824009" lon="-5.9356263746">
        <ele>39.55</ele>
        <time>2020-07-09T05:14:43Z</time>
      </trkpt>
      <trkpt lat="37.2790810559" lon="-5.9356916696">
        <ele>39.55</ele>
        <time>2020-07-09T05:14:46Z</time>
      </trkpt>
      <trkpt lat="37.2791122366" lon="-5.9356878139">
        <ele>39.55</ele>
        <time>2020-07-09T05:14:47Z</time>
      </trkpt>
      <trkpt lat="37.2791309282" lon="-5.9356863052">
        <ele>39.55</ele>
        <time>2020-07-09T05:14:48Z</time>
      </trkpt>
      <trkpt lat="37.2791543975" lon="-5.9356837068">
        <ele>39.55</ele>
        <time>2020-07-09T05:14:49Z</time>
      </trkpt>
      <trkpt lat="37.2791763581" lon="-5.9356723912">
        <ele>39.55</ele>
        <time>2020-07-09T05:14:50Z</time>
      </trkpt>
      <trkpt lat="37.2791955527" lon="-5.9356502630">
        <ele>39.55</ele>
        <time>2020-07-09T05:14:51Z</time>
      </trkpt>
      <trkpt lat="37.2792147473" lon="-5.9356186632">
        <ele>39.55</ele>
        <time>2020-07-09T05:14:52Z</time>
      </trkpt>
      <trkpt lat="37.2793101333" lon="-5.9354593232">
        <ele>39.55</ele>
        <time>2020-07-09T05:14:57Z</time>
      </trkpt>
      <trkpt lat="37.2793370392" lon="-5.9354554676">
        <ele>39.55</ele>
        <time>2020-07-09T05:14:58Z</time>
      </trkpt>
      <trkpt lat="37.2793645319" lon="-5.9354694653">
        <ele>39.55</ele>
        <time>2020-07-09T05:14:59Z</time>
      </trkpt>
      <trkpt lat="37.2793942876" lon="-5.9354950301">
        <ele>39.55</ele>
        <time>2020-07-09T05:15:00Z</time>
      </trkpt>
      <trkpt lat="37.2794237081" lon="-5.9355213493">
        <ele>39.55</ele>
        <time>2020-07-09T05:15:01Z</time>
      </trkpt>
      <trkpt lat="37.2794542182" lon="-5.9355540387">
        <ele>40.03</ele>
        <time>2020-07-09T05:15:02Z</time>
      </trkpt>
      <trkpt lat="37.2798235249" lon="-5.9358830284">
        <ele>39.55</ele>
        <time>2020-07-09T05:15:13Z</time>
      </trkpt>
      <trkpt lat="37.2802459728" lon="-5.9362524189">
        <ele>38.11</ele>
        <time>2020-07-09T05:15:25Z</time>
      </trkpt>
      <trkpt lat="37.2806373239" lon="-5.9366073925">
        <ele>38.11</ele>
        <time>2020-07-09T05:15:36Z</time>
      </trkpt>
      <trkpt lat="37.2810655553" lon="-5.9369918704">
        <ele>37.63</ele>
        <time>2020-07-09T05:15:48Z</time>
      </trkpt>
      <trkpt lat="37.2814891767" lon="-5.9373662062">
        <ele>38.59</ele>
        <time>2020-07-09T05:16:00Z</time>
      </trkpt>
      <trkpt lat="37.2818402108" lon="-5.9376785159">
        <ele>38.11</ele>
        <time>2020-07-09T05:16:11Z</time>
      </trkpt>
      <trkpt lat="37.2820301447" lon="-5.9378956910">
        <ele>37.63</ele>
        <time>2020-07-09T05:16:18Z</time>
      </trkpt>
      <trkpt lat="37.2823033109" lon="-5.9381296299">
        <ele>36.67</ele>
        <time>2020-07-09T05:16:25Z</time>
      </trkpt>
      <trkpt lat="37.2823473159" lon="-5.9381394368">
        <ele>36.67</ele>
        <time>2020-07-09T05:16:26Z</time>
      </trkpt>
      <trkpt lat="37.2823950928" lon="-5.9381322283">
        <ele>36.67</ele>
        <time>2020-07-09T05:16:27Z</time>
      </trkpt>
      <trkpt lat="37.2824576218" lon="-5.9381012991">
        <ele>36.67</ele>
        <time>2020-07-09T05:16:29Z</time>
      </trkpt>
      <trkpt lat="37.2825076617" lon="-5.9380246047">
        <ele>36.67</ele>
        <time>2020-07-09T05:16:30Z</time>
      </trkpt>
      <trkpt lat="37.2825205699" lon="-5.9379862994">
        <ele>36.67</ele>
        <time>2020-07-09T05:16:31Z</time>
      </trkpt>
      <trkpt lat="37.2825362440" lon="-5.9379284643">
        <ele>36.67</ele>
        <time>2020-07-09T05:16:32Z</time>
      </trkpt>
      <trkpt lat="37.2826493997" lon="-5.9373956267">
        <ele>36.67</ele>
        <time>2020-07-09T05:16:41Z</time>
      </trkpt>
      <trkpt lat="37.2827516589" lon="-5.9369879309">
        <ele>36.67</ele>
        <time>2020-07-09T05:16:48Z</time>
      </trkpt>
      <trkpt lat="37.2828380764" lon="-5.9366581868">
        <ele>36.19</ele>
        <time>2020-07-09T05:16:54Z</time>
      </trkpt>
      <trkpt lat="37.2828459553" lon="-5.9366075601">
        <ele>36.19</ele>
        <time>2020-07-09T05:16:55Z</time>
      </trkpt>
      <trkpt lat="37.2828497272" lon="-5.9365493059">
        <ele>36.67</ele>
        <time>2020-07-09T05:16:56Z</time>
      </trkpt>
      <trkpt lat="37.2828462068" lon="-5.9365084022">
        <ele>36.19</ele>
        <time>2020-07-09T05:16:57Z</time>
      </trkpt>
      <trkpt lat="37.2828392498" lon="-5.9364593681">
        <ele>36.67</ele>
        <time>2020-07-09T05:16:58Z</time>
      </trkpt>
      <trkpt lat="37.2828289401" lon="-5.9364087414">
        <ele>36.67</ele>
        <time>2020-07-09T05:16:59Z</time>
      </trkpt>
      <trkpt lat="37.2828016989" lon="-5.9362312127">
        <ele>37.15</ele>
        <time>2020-07-09T05:17:02Z</time>
      </trkpt>
      <trkpt lat="37.2828186303" lon="-5.9361629002">
        <ele>37.15</ele>
        <time>2020-07-09T05:17:04Z</time>
      </trkpt>
      <trkpt lat="37.2828628030" lon="-5.9361028019">
        <ele>37.15</ele>
        <time>2020-07-09T05:17:05Z</time>
      </trkpt>
      <trkpt lat="37.2829128429" lon="-5.9360692743">
        <ele>36.67</ele>
        <time>2020-07-09T05:17:06Z</time>
      </trkpt>
      <trkpt lat="37.2829543334" lon="-5.9360624850">
        <ele>36.67</ele>
        <time>2020-07-09T05:17:07Z</time>
      </trkpt>
      <trkpt lat="37.2829959076" lon="-5.9360692743">
        <ele>36.67</ele>
        <time>2020-07-09T05:17:08Z</time>
      </trkpt>
      <trkpt lat="37.2830493003" lon="-5.9360960964">
        <ele>36.67</ele>
        <time>2020-07-09T05:17:09Z</time>
      </trkpt>
      <trkpt lat="37.2830892820" lon="-5.9361290373">
        <ele>36.67</ele>
        <time>2020-07-09T05:17:10Z</time>
      </trkpt>
      <trkpt lat="37.2831385676" lon="-5.9361843579">
        <ele>36.67</ele>
        <time>2020-07-09T05:17:11Z</time>
      </trkpt>
      <trkpt lat="37.2831746936" lon="-5.9362297039">
        <ele>36.67</ele>
        <time>2020-07-09T05:17:12Z</time>
      </trkpt>
      <trkpt lat="37.2832181118" lon="-5.9362665843">
        <ele>36.67</ele>
        <time>2020-07-09T05:17:13Z</time>
      </trkpt>
      <trkpt lat="37.2832599375" lon="-5.9362841025">
        <ele>36.67</ele>
        <time>2020-07-09T05:17:14Z</time>
      </trkpt>
      <trkpt lat="37.2833062056" lon="-5.9362975135">
        <ele>36.67</ele>
        <time>2020-07-09T05:17:15Z</time>
      </trkpt>
      <trkpt lat="37.2838552203" lon="-5.9364364017">
        <ele>37.15</ele>
        <time>2020-07-09T05:17:25Z</time>
      </trkpt>
      <trkpt lat="37.2844277881" lon="-5.9365730267">
        <ele>37.63</ele>
        <time>2020-07-09T05:17:35Z</time>
      </trkpt>
      <trkpt lat="37.2849644814" lon="-5.9366197139">
        <ele>38.59</ele>
        <time>2020-07-09T05:17:45Z</time>
      </trkpt>
      <trkpt lat="37.2854961455" lon="-5.9365767147">
        <ele>40.03</ele>
        <time>2020-07-09T05:17:56Z</time>
      </trkpt>
      <trkpt lat="37.2858652845" lon="-5.9365013614">
        <ele>42.44</ele>
        <time>2020-07-09T05:18:03Z</time>
      </trkpt>
      <trkpt lat="37.2859124746" lon="-5.9364573564">
        <ele>42.92</ele>
        <time>2020-07-09T05:18:04Z</time>
      </trkpt>
      <trkpt lat="37.2859421466" lon="-5.9364177100">
        <ele>42.92</ele>
        <time>2020-07-09T05:18:05Z</time>
      </trkpt>
      <trkpt lat="37.2860254627" lon="-5.9363074880">
        <ele>43.40</ele>
        <time>2020-07-09T05:18:07Z</time>
      </trkpt>
      <trkpt lat="37.2860809509" lon="-5.9362682607">
        <ele>43.40</ele>
        <time>2020-07-09T05:18:08Z</time>
      </trkpt>
      <trkpt lat="37.2861137241" lon="-5.9362615552">
        <ele>42.92</ele>
        <time>2020-07-09T05:18:09Z</time>
      </trkpt>
      <trkpt lat="37.2861660272" lon="-5.9362621419">
        <ele>42.92</ele>
        <time>2020-07-09T05:18:10Z</time>
      </trkpt>
      <trkpt lat="37.2862221859" lon="-5.9362835158">
        <ele>42.44</ele>
        <time>2020-07-09T05:18:11Z</time>
      </trkpt>
      <trkpt lat="37.2862701304" lon="-5.9363211505">
        <ele>42.44</ele>
        <time>2020-07-09T05:18:12Z</time>
      </trkpt>
      <trkpt lat="37.2863122076" lon="-5.9363688435">
        <ele>42.44</ele>
        <time>2020-07-09T05:18:13Z</time>
      </trkpt>
      <trkpt lat="37.2863536142" lon="-5.9364317078">
        <ele>42.44</ele>
        <time>2020-07-09T05:18:14Z</time>
      </trkpt>
      <trkpt lat="37.2863882314" lon="-5.9365050495">
        <ele>42.44</ele>
        <time>2020-07-09T05:18:15Z</time>
      </trkpt>
      <trkpt lat="37.2864084318" lon="-5.9365488030">
        <ele>42.44</ele>
        <time>2020-07-09T05:18:16Z</time>
      </trkpt>
      <trkpt lat="37.2865198273" lon="-5.9368039481">
        <ele>41.47</ele>
        <time>2020-07-09T05:18:20Z</time>
      </trkpt>
      <trkpt lat="37.2865543608" lon="-5.9368601907">
        <ele>41.47</ele>
        <time>2020-07-09T05:18:21Z</time>
      </trkpt>
      <trkpt lat="37.2869698517" lon="-5.9374484327">
        <ele>38.59</ele>
        <time>2020-07-09T05:18:31Z</time>
      </trkpt>
      <trkpt lat="37.2874186188" lon="-5.9380855411">
        <ele>35.71</ele>
        <time>2020-07-09T05:18:41Z</time>
      </trkpt>
      <trkpt lat="37.2876629513" lon="-5.9384250082">
        <ele>34.26</ele>
        <time>2020-07-09T05:18:46Z</time>
      </trkpt>
      <trkpt lat="37.2877189424" lon="-5.9384861961">
        <ele>34.26</ele>
        <time>2020-07-09T05:18:47Z</time>
      </trkpt>
      <trkpt lat="37.2877816390" lon="-5.9385359846">
        <ele>33.78</ele>
        <time>2020-07-09T05:18:48Z</time>
      </trkpt>
      <trkpt lat="37.2878518794" lon="-5.9385810792">
        <ele>33.78</ele>
        <time>2020-07-09T05:18:49Z</time>
      </trkpt>
      <trkpt lat="37.2879134864" lon="-5.9386201389">
        <ele>33.78</ele>
        <time>2020-07-09T05:18:50Z</time>
      </trkpt>
      <trkpt lat="37.2879780270" lon="-5.9386727773">
        <ele>33.78</ele>
        <time>2020-07-09T05:18:51Z</time>
      </trkpt>
      <trkpt lat="37.2880265582" lon="-5.9387333784">
        <ele>33.78</ele>
        <time>2020-07-09T05:18:52Z</time>
      </trkpt>
      <trkpt lat="37.2880682163" lon="-5.9388108272">
        <ele>33.78</ele>
        <time>2020-07-09T05:18:53Z</time>
      </trkpt>
      <trkpt lat="37.2881000675" lon="-5.9389021061">
        <ele>33.30</ele>
        <time>2020-07-09T05:18:54Z</time>
      </trkpt>
      <trkpt lat="37.2881185915" lon="-5.9389856737">
        <ele>32.82</ele>
        <time>2020-07-09T05:18:55Z</time>
      </trkpt>
      <trkpt lat="37.2881315835" lon="-5.9390480351">
        <ele>32.34</ele>
        <time>2020-07-09T05:18:56Z</time>
      </trkpt>
      <trkpt lat="37.2881731577" lon="-5.9392044414">
        <ele>31.86</ele>
        <time>2020-07-09T05:18:58Z</time>
      </trkpt>
      <trkpt lat="37.2882037517" lon="-5.9392733406">
        <ele>31.86</ele>
        <time>2020-07-09T05:18:59Z</time>
      </trkpt>
      <trkpt lat="37.2885264549" lon="-5.9398811962">
        <ele>31.38</ele>
        <time>2020-07-09T05:19:08Z</time>
      </trkpt>
      <trkpt lat="37.2888938338" lon="-5.9405785706">
        <ele>30.42</ele>
        <time>2020-07-09T05:19:19Z</time>
      </trkpt>
      <trkpt lat="37.2892249189" lon="-5.9412022680">
        <ele>28.02</ele>
        <time>2020-07-09T05:19:29Z</time>
      </trkpt>
      <trkpt lat="37.2895143460" lon="-5.9417573176">
        <ele>28.02</ele>
        <time>2020-07-09T05:19:38Z</time>
      </trkpt>
      <trkpt lat="37.2898398992" lon="-5.9423652571">
        <ele>27.53</ele>
        <time>2020-07-09T05:19:48Z</time>
      </trkpt>
      <trkpt lat="37.2901413124" lon="-5.9429514036">
        <ele>27.53</ele>
        <time>2020-07-09T05:19:58Z</time>
      </trkpt>
      <trkpt lat="37.2902534623" lon="-5.9431751166">
        <ele>27.05</ele>
        <time>2020-07-09T05:20:02Z</time>
      </trkpt>
      <trkpt lat="37.2903022449" lon="-5.9432679880">
        <ele>27.53</ele>
        <time>2020-07-09T05:20:04Z</time>
      </trkpt>
      <trkpt lat="37.2903262172" lon="-5.9433203749">
        <ele>27.05</ele>
        <time>2020-07-09T05:20:05Z</time>
      </trkpt>
      <trkpt lat="37.2903494351" lon="-5.9433584288">
        <ele>27.53</ele>
        <time>2020-07-09T05:20:06Z</time>
      </trkpt>
      <trkpt lat="37.2903760895" lon="-5.9433837421">
        <ele>27.53</ele>
        <time>2020-07-09T05:20:07Z</time>
      </trkpt>
      <trkpt lat="37.2903994750" lon="-5.9434036072">
        <ele>27.53</ele>
        <time>2020-07-09T05:20:08Z</time>
      </trkpt>
      <trkpt lat="37.2904212680" lon="-5.9434314352">
        <ele>28.50</ele>
        <time>2020-07-09T05:20:09Z</time>
      </trkpt>
      <trkpt lat="37.2904413007" lon="-5.9434591793">
        <ele>28.50</ele>
        <time>2020-07-09T05:20:10Z</time>
      </trkpt>
      <trkpt lat="37.2906018142" lon="-5.9435820580">
        <ele>30.42</ele>
        <time>2020-07-09T05:20:17Z</time>
      </trkpt>
      <trkpt lat="37.2907599807" lon="-5.9435050283">
        <ele>31.38</ele>
        <time>2020-07-09T05:20:23Z</time>
      </trkpt>
      <trkpt lat="37.2908437997" lon="-5.9433801379">
        <ele>31.38</ele>
        <time>2020-07-09T05:20:28Z</time>
      </trkpt>
      <trkpt lat="37.2908688616" lon="-5.9433802217">
        <ele>31.38</ele>
        <time>2020-07-09T05:20:29Z</time>
      </trkpt>
      <trkpt lat="37.2908989526" lon="-5.9433973208">
        <ele>31.38</ele>
        <time>2020-07-09T05:20:30Z</time>
      </trkpt>
      <trkpt lat="37.2909129504" lon="-5.9434222989">
        <ele>31.38</ele>
        <time>2020-07-09T05:20:31Z</time>
      </trkpt>
      <trkpt lat="37.2909168061" lon="-5.9434512164">
        <ele>31.38</ele>
        <time>2020-07-09T05:20:32Z</time>
      </trkpt>
      <trkpt lat="37.2909178119" lon="-5.9434884321">
        <ele>30.90</ele>
        <time>2020-07-09T05:20:33Z</time>
      </trkpt>
      <trkpt lat="37.2909842804" lon="-5.9436058626">
        <ele>30.90</ele>
        <time>2020-07-09T05:20:37Z</time>
      </trkpt>
      <trkpt lat="37.2910186462" lon="-5.9436144959">
        <ele>31.38</ele>
        <time>2020-07-09T05:20:38Z</time>
      </trkpt>
      <trkpt lat="37.2910357453" lon="-5.9436158370">
        <ele>31.38</ele>
        <time>2020-07-09T05:20:39Z</time>
      </trkpt>
      <trkpt lat="37.2910606395" lon="-5.9436145797">
        <ele>31.86</ele>
        <time>2020-07-09T05:20:40Z</time>
      </trkpt>
      <trkpt lat="37.2910929099" lon="-5.9436098021">
        <ele>32.34</ele>
        <time>2020-07-09T05:20:41Z</time>
      </trkpt>
      <trkpt lat="37.2911133617" lon="-5.9436028451">
        <ele>32.82</ele>
        <time>2020-07-09T05:20:42Z</time>
      </trkpt>
      <trkpt lat="37.2911291197" lon="-5.9435962234">
        <ele>33.30</ele>
        <time>2020-07-09T05:20:43Z</time>
      </trkpt>
      <trkpt lat="37.2912778985" lon="-5.9434510488">
        <ele>35.71</ele>
        <time>2020-07-09T05:20:50Z</time>
      </trkpt>
      <trkpt lat="37.2914981749" lon="-5.9431827441">
        <ele>38.59</ele>
        <time>2020-07-09T05:21:01Z</time>
      </trkpt>
      <trkpt lat="37.2916882765" lon="-5.9429177083">
        <ele>40.03</ele>
        <time>2020-07-09T05:21:11Z</time>
      </trkpt>
      <trkpt lat="37.2918539867" lon="-5.9426593781">
        <ele>40.99</ele>
        <time>2020-07-09T05:21:20Z</time>
      </trkpt>
      <trkpt lat="37.2921047732" lon="-5.9422740620">
        <ele>41.47</ele>
        <time>2020-07-09T05:21:33Z</time>
      </trkpt>
      <trkpt lat="37.2923203558" lon="-5.9419711400">
        <ele>40.99</ele>
        <time>2020-07-09T05:21:44Z</time>
      </trkpt>
      <trkpt lat="37.2925729025" lon="-5.9415868297">
        <ele>40.99</ele>
        <time>2020-07-09T05:21:56Z</time>
      </trkpt>
      <trkpt lat="37.2927834559" lon="-5.9412607737">
        <ele>40.03</ele>
        <time>2020-07-09T05:22:04Z</time>
      </trkpt>
      <trkpt lat="37.2930618189" lon="-5.9408257529">
        <ele>38.59</ele>
        <time>2020-07-09T05:22:14Z</time>
      </trkpt>
      <trkpt lat="37.2931375913" lon="-5.9406869486">
        <ele>38.11</ele>
        <time>2020-07-09T05:22:17Z</time>
      </trkpt>
      <trkpt lat="37.2931491584" lon="-5.9406447038">
        <ele>38.11</ele>
        <time>2020-07-09T05:22:18Z</time>
      </trkpt>
      <trkpt lat="37.2931419499" lon="-5.9404566977">
        <ele>38.11</ele>
        <time>2020-07-09T05:22:23Z</time>
      </trkpt>
      <trkpt lat="37.2931232583" lon="-5.9404421970">
        <ele>38.11</ele>
        <time>2020-07-09T05:22:24Z</time>
      </trkpt>
      <trkpt lat="37.2931070812" lon="-5.9404432867">
        <ele>37.63</ele>
        <time>2020-07-09T05:22:25Z</time>
      </trkpt>
      <trkpt lat="37.2930900659" lon="-5.9404627327">
        <ele>36.67</ele>
        <time>2020-07-09T05:22:26Z</time>
      </trkpt>
      <trkpt lat="37.2930757329" lon="-5.9404974338">
        <ele>36.19</ele>
        <time>2020-07-09T05:22:27Z</time>
      </trkpt>
      <trkpt lat="37.2930673510" lon="-5.9405284468">
        <ele>35.71</ele>
        <time>2020-07-09T05:22:28Z</time>
      </trkpt>
      <trkpt lat="37.2930604778" lon="-5.9405708592">
        <ele>35.23</ele>
        <time>2020-07-09T05:22:30Z</time>
      </trkpt>
      <trkpt lat="37.2930571251" lon="-5.9406250063">
        <ele>34.26</ele>
        <time>2020-07-09T05:22:31Z</time>
      </trkpt>
      <trkpt lat="37.2930444684" lon="-5.9406518284">
        <ele>34.26</ele>
        <time>2020-07-09T05:22:32Z</time>
      </trkpt>
      <trkpt lat="37.2930273693" lon="-5.9406852722">
        <ele>34.26</ele>
        <time>2020-07-09T05:22:33Z</time>
      </trkpt>
      <trkpt lat="37.2930124495" lon="-5.9407205600">
        <ele>34.26</ele>
        <time>2020-07-09T05:22:34Z</time>
      </trkpt>
      <trkpt lat="37.2929916624" lon="-5.9407558478">
        <ele>34.26</ele>
        <time>2020-07-09T05:22:35Z</time>
      </trkpt>
      <trkpt lat="37.2929674387" lon="-5.9407832567">
        <ele>34.74</ele>
        <time>2020-07-09T05:22:36Z</time>
      </trkpt>
      <trkpt lat="37.2929432150" lon="-5.9408110008">
        <ele>35.23</ele>
        <time>2020-07-09T05:22:37Z</time>
      </trkpt>
      <trkpt lat="37.2929177340" lon="-5.9408432711">
        <ele>35.23</ele>
        <time>2020-07-09T05:22:38Z</time>
      </trkpt>
      <trkpt lat="37.2927164007" lon="-5.9410805628">
        <ele>35.23</ele>
        <time>2020-07-09T05:22:45Z</time>
      </trkpt>
      <trkpt lat="37.2926291451" lon="-5.9412399027">
        <ele>35.23</ele>
        <time>2020-07-09T05:22:51Z</time>
      </trkpt>
      <trkpt lat="37.2926359344" lon="-5.9412804712">
        <ele>35.71</ele>
        <time>2020-07-09T05:22:56Z</time>
      </trkpt>
      <trkpt lat="37.2926842980" lon="-5.9413212910">
        <ele>36.19</ele>
        <time>2020-07-09T05:23:03Z</time>
      </trkpt>
      <trkpt lat="37.2928518523" lon="-5.9415384661">
        <ele>37.15</ele>
        <time>2020-07-09T05:23:09Z</time>
      </trkpt>
      <trkpt lat="37.2931335680" lon="-5.9418948647">
        <ele>38.11</ele>
        <time>2020-07-09T05:23:17Z</time>
      </trkpt>
      <trkpt lat="37.2935674991" lon="-5.9423417039">
        <ele>37.63</ele>
        <time>2020-07-09T05:23:28Z</time>
      </trkpt>
      <trkpt lat="37.2940629534" lon="-5.9428492282">
        <ele>37.15</ele>
        <time>2020-07-09T05:23:41Z</time>
      </trkpt>
      <trkpt lat="37.2944916878" lon="-5.9432882722">
        <ele>36.67</ele>
        <time>2020-07-09T05:23:52Z</time>
      </trkpt>
      <trkpt lat="37.2949367668" lon="-5.9437421523">
        <ele>35.23</ele>
        <time>2020-07-09T05:24:03Z</time>
      </trkpt>
      <trkpt lat="37.2955229972" lon="-5.9443464037">
        <ele>33.30</ele>
        <time>2020-07-09T05:24:17Z</time>
      </trkpt>
      <trkpt lat="37.2961133346" lon="-5.9449646529">
        <ele>32.34</ele>
        <time>2020-07-09T05:24:31Z</time>
      </trkpt>
      <trkpt lat="37.2966137342" lon="-5.9454799723">
        <ele>33.30</ele>
        <time>2020-07-09T05:24:43Z</time>
      </trkpt>
      <trkpt lat="37.2970911674" lon="-5.9459820483">
        <ele>34.26</ele>
        <time>2020-07-09T05:24:55Z</time>
      </trkpt>
      <trkpt lat="37.2976380028" lon="-5.9465433005">
        <ele>33.30</ele>
        <time>2020-07-09T05:25:08Z</time>
      </trkpt>
      <trkpt lat="37.2980629653" lon="-5.9468986094">
        <ele>31.86</ele>
        <time>2020-07-09T05:25:16Z</time>
      </trkpt>
      <trkpt lat="37.2984505445" lon="-5.9470300376">
        <ele>30.90</ele>
        <time>2020-07-09T05:25:22Z</time>
      </trkpt>
      <trkpt lat="37.2988164145" lon="-5.9471551795">
        <ele>29.46</ele>
        <time>2020-07-09T05:25:28Z</time>
      </trkpt>
      <trkpt lat="37.2988708131" lon="-5.9471908025">
        <ele>28.98</ele>
        <time>2020-07-09T05:25:29Z</time>
      </trkpt>
      <trkpt lat="37.2989769280" lon="-5.9472743701">
        <ele>28.50</ele>
        <time>2020-07-09T05:25:31Z</time>
      </trkpt>
      <trkpt lat="37.2990271356" lon="-5.9473249968">
        <ele>28.02</ele>
        <time>2020-07-09T05:25:32Z</time>
      </trkpt>
      <trkpt lat="37.2993899044" lon="-5.9477259871">
        <ele>25.13</ele>
        <time>2020-07-09T05:25:40Z</time>
      </trkpt>
      <trkpt lat="37.2997259349" lon="-5.9481219482">
        <ele>25.13</ele>
        <time>2020-07-09T05:25:49Z</time>
      </trkpt>
      <trkpt lat="37.3000748735" lon="-5.9484676179">
        <ele>25.61</ele>
        <time>2020-07-09T05:25:58Z</time>
      </trkpt>
      <trkpt lat="37.3001244105" lon="-5.9484914225">
        <ele>25.61</ele>
        <time>2020-07-09T05:25:59Z</time>
      </trkpt>
      <trkpt lat="37.3001704272" lon="-5.9485050011">
        <ele>25.61</ele>
        <time>2020-07-09T05:26:00Z</time>
      </trkpt>
      <trkpt lat="37.3003169429" lon="-5.9485290572">
        <ele>25.61</ele>
        <time>2020-07-09T05:26:03Z</time>
      </trkpt>
      <trkpt lat="37.3003637977" lon="-5.9485465754">
        <ele>25.61</ele>
        <time>2020-07-09T05:26:04Z</time>
      </trkpt>
      <trkpt lat="37.3004082218" lon="-5.9485739004">
        <ele>25.61</ele>
        <time>2020-07-09T05:26:05Z</time>
      </trkpt>
      <trkpt lat="37.3004475329" lon="-5.9486116190">
        <ele>25.61</ele>
        <time>2020-07-09T05:26:06Z</time>
      </trkpt>
      <trkpt lat="37.3004811443" lon="-5.9486642573">
        <ele>25.61</ele>
        <time>2020-07-09T05:26:07Z</time>
      </trkpt>
      <trkpt lat="37.3005028535" lon="-5.9487181529">
        <ele>25.61</ele>
        <time>2020-07-09T05:26:08Z</time>
      </trkpt>
      <trkpt lat="37.3005212937" lon="-5.9487845376">
        <ele>25.61</ele>
        <time>2020-07-09T05:26:09Z</time>
      </trkpt>
      <trkpt lat="37.3005376384" lon="-5.9488531016">
        <ele>25.13</ele>
        <time>2020-07-09T05:26:10Z</time>
      </trkpt>
      <trkpt lat="37.3005924560" lon="-5.9490389284">
        <ele>24.17</ele>
        <time>2020-07-09T05:26:13Z</time>
      </trkpt>
      <trkpt lat="37.3006207868" lon="-5.9490929917">
        <ele>24.17</ele>
        <time>2020-07-09T05:26:14Z</time>
      </trkpt>
      <trkpt lat="37.3006616067" lon="-5.9491477255">
        <ele>24.17</ele>
        <time>2020-07-09T05:26:15Z</time>
      </trkpt>
      <trkpt lat="37.3010491859" lon="-5.9495560918">
        <ele>24.65</ele>
        <time>2020-07-09T05:26:24Z</time>
      </trkpt>
      <trkpt lat="37.3015189916" lon="-5.9500766080">
        <ele>26.57</ele>
        <time>2020-07-09T05:26:36Z</time>
      </trkpt>
      <trkpt lat="37.3019659147" lon="-5.9505677875">
        <ele>28.02</ele>
        <time>2020-07-09T05:26:48Z</time>
      </trkpt>
      <trkpt lat="37.3022775538" lon="-5.9509234317">
        <ele>28.50</ele>
        <time>2020-07-09T05:26:57Z</time>
      </trkpt>
      <trkpt lat="37.3026920389" lon="-5.9513872862">
        <ele>29.94</ele>
        <time>2020-07-09T05:27:10Z</time>
      </trkpt>
      <trkpt lat="37.3029794544" lon="-5.9517090674">
        <ele>30.42</ele>
        <time>2020-07-09T05:27:19Z</time>
      </trkpt>
      <trkpt lat="37.3032241222" lon="-5.9519748576">
        <ele>31.38</ele>
        <time>2020-07-09T05:27:27Z</time>
      </trkpt>
      <trkpt lat="37.3035221826" lon="-5.9522953816">
        <ele>32.82</ele>
        <time>2020-07-09T05:27:37Z</time>
      </trkpt>
      <trkpt lat="37.3038824368" lon="-5.9526864812">
        <ele>34.26</ele>
        <time>2020-07-09T05:27:49Z</time>
      </trkpt>
      <trkpt lat="37.3041635659" lon="-5.9530141298">
        <ele>35.23</ele>
        <time>2020-07-09T05:27:59Z</time>
      </trkpt>
      <trkpt lat="37.3044433538" lon="-5.9533327259">
        <ele>35.23</ele>
        <time>2020-07-09T05:28:09Z</time>
      </trkpt>
      <trkpt lat="37.3047497962" lon="-5.9536688402">
        <ele>36.67</ele>
        <time>2020-07-09T05:28:20Z</time>
      </trkpt>
      <trkpt lat="37.3050381336" lon="-5.9539825749">
        <ele>38.11</ele>
        <time>2020-07-09T05:28:30Z</time>
      </trkpt>
      <trkpt lat="37.3051578272" lon="-5.9541206248">
        <ele>38.11</ele>
        <time>2020-07-09T05:28:34Z</time>
      </trkpt>
      <trkpt lat="37.3055117112" lon="-5.9545057733">
        <ele>39.07</ele>
        <time>2020-07-09T05:28:45Z</time>
      </trkpt>
      <trkpt lat="37.3058545310" lon="-5.9548281413">
        <ele>39.07</ele>
        <time>2020-07-09T05:28:54Z</time>
      </trkpt>
      <trkpt lat="37.3063328024" lon="-5.9552937560">
        <ele>38.59</ele>
        <time>2020-07-09T05:29:06Z</time>
      </trkpt>
      <trkpt lat="37.3067768756" lon="-5.9555826802">
        <ele>39.07</ele>
        <time>2020-07-09T05:29:16Z</time>
      </trkpt>
      <trkpt lat="37.3073542211" lon="-5.9559063893">
        <ele>39.55</ele>
        <time>2020-07-09T05:29:29Z</time>
      </trkpt>
      <trkpt lat="37.3079903238" lon="-5.9562078863">
        <ele>40.51</ele>
        <time>2020-07-09T05:29:43Z</time>
      </trkpt>
      <trkpt lat="37.3084369954" lon="-5.9564430825">
        <ele>41.95</ele>
        <time>2020-07-09T05:29:54Z</time>
      </trkpt>
      <trkpt lat="37.3085761350" lon="-5.9564989060">
        <ele>42.44</ele>
        <time>2020-07-09T05:30:00Z</time>
      </trkpt>
      <trkpt lat="37.3085677531" lon="-5.9565037675">
        <ele>42.44</ele>
        <time>2020-07-09T05:30:07Z</time>
      </trkpt>
      <trkpt lat="37.3085706867" lon="-5.9565068688">
        <ele>41.95</ele>
        <time>2020-07-09T05:30:24Z</time>
      </trkpt>
      <trkpt lat="37.3085711896" lon="-5.9565068688">
        <ele>41.95</ele>
        <time>2020-07-09T05:30:37Z</time>
      </trkpt>
      <trkpt lat="37.3085756321" lon="-5.9565017559">
        <ele>40.51</ele>
        <time>2020-07-09T05:30:53Z</time>
      </trkpt>
      <trkpt lat="37.3085732013" lon="-5.9565054439">
        <ele>41.47</ele>
        <time>2020-07-09T05:31:07Z</time>
      </trkpt>
      <trkpt lat="37.3086060584" lon="-5.9565471858">
        <ele>42.44</ele>
        <time>2020-07-09T05:31:18Z</time>
      </trkpt>
      <trkpt lat="37.3086934816" lon="-5.9566586651">
        <ele>42.44</ele>
        <time>2020-07-09T05:31:23Z</time>
      </trkpt>
      <trkpt lat="37.3088567611" lon="-5.9568262193">
        <ele>42.92</ele>
        <time>2020-07-09T05:31:31Z</time>
      </trkpt>
      <trkpt lat="37.3090539873" lon="-5.9570437297">
        <ele>42.92</ele>
        <time>2020-07-09T05:31:38Z</time>
      </trkpt>
      <trkpt lat="37.3094348609" lon="-5.9574573766">
        <ele>43.40</ele>
        <time>2020-07-09T05:31:49Z</time>
      </trkpt>
      <trkpt lat="37.3098575603" lon="-5.9579205606">
        <ele>44.36</ele>
        <time>2020-07-09T05:32:01Z</time>
      </trkpt>
      <trkpt lat="37.3101929203" lon="-5.9582817368">
        <ele>44.84</ele>
        <time>2020-07-09T05:32:11Z</time>
      </trkpt>
      <trkpt lat="37.3105320521" lon="-5.9586570784">
        <ele>44.84</ele>
        <time>2020-07-09T05:32:21Z</time>
      </trkpt>
      <trkpt lat="37.3109388258" lon="-5.9591005649">
        <ele>45.80</ele>
        <time>2020-07-09T05:32:33Z</time>
      </trkpt>
      <trkpt lat="37.3113481980" lon="-5.9594767448">
        <ele>46.28</ele>
        <time>2020-07-09T05:32:44Z</time>
      </trkpt>
      <trkpt lat="37.3115129024" lon="-5.9595769923">
        <ele>46.28</ele>
        <time>2020-07-09T05:32:48Z</time>
      </trkpt>
      <trkpt lat="37.3119024094" lon="-5.9597740509">
        <ele>47.72</ele>
        <time>2020-07-09T05:32:57Z</time>
      </trkpt>
      <trkpt lat="37.3123000469" lon="-5.9601151943">
        <ele>47.72</ele>
        <time>2020-07-09T05:33:07Z</time>
      </trkpt>
      <trkpt lat="37.3127625603" lon="-5.9605948906">
        <ele>46.76</ele>
        <time>2020-07-09T05:33:19Z</time>
      </trkpt>
      <trkpt lat="37.3131907079" lon="-5.9610388801">
        <ele>44.84</ele>
        <time>2020-07-09T05:33:30Z</time>
      </trkpt>
      <trkpt lat="37.3135790415" lon="-5.9614555445">
        <ele>42.44</ele>
        <time>2020-07-09T05:33:38Z</time>
      </trkpt>
      <trkpt lat="37.3141133878" lon="-5.9620141145">
        <ele>39.07</ele>
        <time>2020-07-09T05:33:47Z</time>
      </trkpt>
      <trkpt lat="37.3146403581" lon="-5.9624774661">
        <ele>36.67</ele>
        <time>2020-07-09T05:33:55Z</time>
      </trkpt>
      <trkpt lat="37.3147225846" lon="-5.9625152685">
        <ele>36.19</ele>
        <time>2020-07-09T05:33:56Z</time>
      </trkpt>
      <trkpt lat="37.3148082476" lon="-5.9625420067">
        <ele>36.19</ele>
        <time>2020-07-09T05:33:57Z</time>
      </trkpt>
      <trkpt lat="37.3149028793" lon="-5.9625608660">
        <ele>35.71</ele>
        <time>2020-07-09T05:33:58Z</time>
      </trkpt>
      <trkpt lat="37.3157616891" lon="-5.9626457747">
        <ele>32.82</ele>
        <time>2020-07-09T05:34:07Z</time>
      </trkpt>
      <trkpt lat="37.3165367637" lon="-5.9627306834">
        <ele>30.90</ele>
        <time>2020-07-09T05:34:16Z</time>
      </trkpt>
      <trkpt lat="37.3171879537" lon="-5.9628084674">
        <ele>30.90</ele>
        <time>2020-07-09T05:34:25Z</time>
      </trkpt>
      <trkpt lat="37.3177851643" lon="-5.9628786240">
        <ele>31.38</ele>
        <time>2020-07-09T05:34:35Z</time>
      </trkpt>
      <trkpt lat="37.3183501046" lon="-5.9629445057">
        <ele>30.90</ele>
        <time>2020-07-09T05:34:45Z</time>
      </trkpt>
      <trkpt lat="37.3191523366" lon="-5.9630384669">
        <ele>30.90</ele>
        <time>2020-07-09T05:35:00Z</time>
      </trkpt>
      <trkpt lat="37.3196851742" lon="-5.9631020855">
        <ele>29.94</ele>
        <time>2020-07-09T05:35:10Z</time>
      </trkpt>
      <trkpt lat="37.3203304131" lon="-5.9631776903">
        <ele>29.46</ele>
        <time>2020-07-09T05:35:22Z</time>
      </trkpt>
      <trkpt lat="37.3209364247" lon="-5.9632376209">
        <ele>28.98</ele>
        <time>2020-07-09T05:35:33Z</time>
      </trkpt>
      <trkpt lat="37.3212908115" lon="-5.9632611740">
        <ele>28.02</ele>
        <time>2020-07-09T05:35:42Z</time>
      </trkpt>
      <trkpt lat="37.3213189747" lon="-5.9632442426">
        <ele>27.53</ele>
        <time>2020-07-09T05:35:44Z</time>
      </trkpt>
      <trkpt lat="37.3213323858" lon="-5.9632378723">
        <ele>28.02</ele>
        <time>2020-07-09T05:35:45Z</time>
      </trkpt>
      <trkpt lat="37.3214787338" lon="-5.9631574061">
        <ele>27.05</ele>
        <time>2020-07-09T05:35:50Z</time>
      </trkpt>
      <trkpt lat="37.3215238284" lon="-5.9631493594">
        <ele>27.05</ele>
        <time>2020-07-09T05:35:51Z</time>
      </trkpt>
      <trkpt lat="37.3215683363" lon="-5.9631548915">
        <ele>27.05</ele>
        <time>2020-07-09T05:35:52Z</time>
      </trkpt>
      <trkpt lat="37.3216139339" lon="-5.9631749243">
        <ele>27.05</ele>
        <time>2020-07-09T05:35:53Z</time>
      </trkpt>
      <trkpt lat="37.3216544185" lon="-5.9632052667">
        <ele>27.05</ele>
        <time>2020-07-09T05:35:54Z</time>
      </trkpt>
      <trkpt lat="37.3216942325" lon="-5.9632428177">
        <ele>27.53</ele>
        <time>2020-07-09T05:35:55Z</time>
      </trkpt>
      <trkpt lat="37.3217353877" lon="-5.9632807877">
        <ele>27.53</ele>
        <time>2020-07-09T05:35:56Z</time>
      </trkpt>
      <trkpt lat="37.3217975814" lon="-5.9633206017">
        <ele>27.53</ele>
        <time>2020-07-09T05:35:57Z</time>
      </trkpt>
      <trkpt lat="37.3218620382" lon="-5.9633344319">
        <ele>27.53</ele>
        <time>2020-07-09T05:35:58Z</time>
      </trkpt>
      <trkpt lat="37.3219036125" lon="-5.9633358568">
        <ele>27.53</ele>
        <time>2020-07-09T05:35:59Z</time>
      </trkpt>
      <trkpt lat="37.3219632916" lon="-5.9633409698">
        <ele>27.53</ele>
        <time>2020-07-09T05:36:00Z</time>
      </trkpt>
      <trkpt lat="37.3224875797" lon="-5.9634081926">
        <ele>26.57</ele>
        <time>2020-07-09T05:36:10Z</time>
      </trkpt>
      <trkpt lat="37.3230339121" lon="-5.9634941071">
        <ele>23.21</ele>
        <time>2020-07-09T05:36:18Z</time>
      </trkpt>
      <trkpt lat="37.3234841041" lon="-5.9636770841">
        <ele>20.81</ele>
        <time>2020-07-09T05:36:24Z</time>
      </trkpt>
      <trkpt lat="37.3240699992" lon="-5.9640779905">
        <ele>16.96</ele>
        <time>2020-07-09T05:36:31Z</time>
      </trkpt>
      <trkpt lat="37.3244404793" lon="-5.9643575270">
        <ele>15.04</ele>
        <time>2020-07-09T05:36:36Z</time>
      </trkpt>
      <trkpt lat="37.3247097060" lon="-5.9645925555">
        <ele>16.96</ele>
        <time>2020-07-09T05:36:41Z</time>
      </trkpt>
      <trkpt lat="37.3250059225" lon="-5.9648513887">
        <ele>20.81</ele>
        <time>2020-07-09T05:36:50Z</time>
      </trkpt>
      <trkpt lat="37.3252682760" lon="-5.9650443401">
        <ele>24.65</ele>
        <time>2020-07-09T05:36:58Z</time>
      </trkpt>
      <trkpt lat="37.3255950864" lon="-5.9652615152">
        <ele>28.02</ele>
        <time>2020-07-09T05:37:07Z</time>
      </trkpt>
      <trkpt lat="37.3258874472" lon="-5.9655448236">
        <ele>28.98</ele>
        <time>2020-07-09T05:37:15Z</time>
      </trkpt>
      <trkpt lat="37.3261529859" lon="-5.9657896589">
        <ele>29.46</ele>
        <time>2020-07-09T05:37:24Z</time>
      </trkpt>
      <trkpt lat="37.3262986634" lon="-5.9659045748">
        <ele>31.38</ele>
        <time>2020-07-09T05:37:31Z</time>
      </trkpt>
      <trkpt lat="37.3264211230" lon="-5.9660096001">
        <ele>32.34</ele>
        <time>2020-07-09T05:37:41Z</time>
      </trkpt>
      <trkpt lat="37.3264628649" lon="-5.9660314769">
        <ele>32.82</ele>
        <time>2020-07-09T05:37:48Z</time>
      </trkpt>
      <trkpt lat="37.3264561594" lon="-5.9660175629">
        <ele>29.94</ele>
        <time>2020-07-09T05:38:04Z</time>
      </trkpt>
      <trkpt lat="37.3264968116" lon="-5.9660522640">
        <ele>29.46</ele>
        <time>2020-07-09T05:38:15Z</time>
      </trkpt>
      <trkpt lat="37.3265087139" lon="-5.9660583828">
        <ele>29.46</ele>
        <time>2020-07-09T05:38:16Z</time>
      </trkpt>
      <trkpt lat="37.3265205324" lon="-5.9660656750">
        <ele>29.46</ele>
        <time>2020-07-09T05:38:17Z</time>
      </trkpt>
      <trkpt lat="37.3265304230" lon="-5.9660759009">
        <ele>29.94</ele>
        <time>2020-07-09T05:38:18Z</time>
      </trkpt>
      <trkpt lat="37.3265491147" lon="-5.9660933353">
        <ele>30.42</ele>
        <time>2020-07-09T05:38:25Z</time>
      </trkpt>
      <trkpt lat="37.3265567422" lon="-5.9660986997">
        <ele>30.90</ele>
        <time>2020-07-09T05:38:26Z</time>
      </trkpt>
      <trkpt lat="37.3265653756" lon="-5.9661032259">
        <ele>30.90</ele>
        <time>2020-07-09T05:38:27Z</time>
      </trkpt>
      <trkpt lat="37.3265782837" lon="-5.9661113564">
        <ele>30.90</ele>
        <time>2020-07-09T05:38:28Z</time>
      </trkpt>
      <trkpt lat="37.3265952989" lon="-5.9661228396">
        <ele>31.38</ele>
        <time>2020-07-09T05:38:29Z</time>
      </trkpt>
      <trkpt lat="37.3266123142" lon="-5.9661338199">
        <ele>31.38</ele>
        <time>2020-07-09T05:38:30Z</time>
      </trkpt>
      <trkpt lat="37.3266322631" lon="-5.9661473148">
        <ele>31.38</ele>
        <time>2020-07-09T05:38:31Z</time>
      </trkpt>
      <trkpt lat="37.3266540561" lon="-5.9661613125">
        <ele>31.38</ele>
        <time>2020-07-09T05:38:32Z</time>
      </trkpt>
      <trkpt lat="37.3268638551" lon="-5.9663134441">
        <ele>31.38</ele>
        <time>2020-07-09T05:38:40Z</time>
      </trkpt>
      <trkpt lat="37.3271472473" lon="-5.9665228240">
        <ele>30.42</ele>
        <time>2020-07-09T05:38:48Z</time>
      </trkpt>
      <trkpt lat="37.3275644984" lon="-5.9668542445">
        <ele>29.94</ele>
        <time>2020-07-09T05:38:58Z</time>
      </trkpt>
      <trkpt lat="37.3279535864" lon="-5.9670706652">
        <ele>30.42</ele>
        <time>2020-07-09T05:39:06Z</time>
      </trkpt>
      <trkpt lat="37.3282926343" lon="-5.9671984054">
        <ele>28.98</ele>
        <time>2020-07-09T05:39:13Z</time>
      </trkpt>
      <trkpt lat="37.3285347037" lon="-5.9672893491">
        <ele>28.02</ele>
        <time>2020-07-09T05:39:18Z</time>
      </trkpt>
      <trkpt lat="37.3290756717" lon="-5.9676045924">
        <ele>25.13</ele>
        <time>2020-07-09T05:39:28Z</time>
      </trkpt>
      <trkpt lat="37.3291965388" lon="-5.9676675405">
        <ele>24.65</ele>
        <time>2020-07-09T05:39:30Z</time>
      </trkpt>
      <trkpt lat="37.3292589840" lon="-5.9676828794">
        <ele>24.17</ele>
        <time>2020-07-09T05:39:31Z</time>
      </trkpt>
      <trkpt lat="37.3293747380" lon="-5.9676931892">
        <ele>24.17</ele>
        <time>2020-07-09T05:39:33Z</time>
      </trkpt>
      <trkpt lat="37.3294512648" lon="-5.9676848911">
        <ele>24.17</ele>
        <time>2020-07-09T05:39:34Z</time>
      </trkpt>
      <trkpt lat="37.3296789173" lon="-5.9676869866">
        <ele>24.17</ele>
        <time>2020-07-09T05:39:38Z</time>
      </trkpt>
      <trkpt lat="37.3297361657" lon="-5.9677066002">
        <ele>24.17</ele>
        <time>2020-07-09T05:39:39Z</time>
      </trkpt>
      <trkpt lat="37.3298044782" lon="-5.9677444864">
        <ele>24.17</ele>
        <time>2020-07-09T05:39:40Z</time>
      </trkpt>
      <trkpt lat="37.3298652470" lon="-5.9677914251">
        <ele>23.69</ele>
        <time>2020-07-09T05:39:41Z</time>
      </trkpt>
      <trkpt lat="37.3298910633" lon="-5.9678115416">
        <ele>23.69</ele>
        <time>2020-07-09T05:39:42Z</time>
      </trkpt>
      <trkpt lat="37.3301047180" lon="-5.9679896571">
        <ele>23.21</ele>
        <time>2020-07-09T05:39:47Z</time>
      </trkpt>
      <trkpt lat="37.3301430233" lon="-5.9680085164">
        <ele>23.21</ele>
        <time>2020-07-09T05:39:48Z</time>
      </trkpt>
      <trkpt lat="37.3302928917" lon="-5.9680321533">
        <ele>22.25</ele>
        <time>2020-07-09T05:39:54Z</time>
      </trkpt>
      <trkpt lat="37.3302983399" lon="-5.9680218436">
        <ele>22.25</ele>
        <time>2020-07-09T05:39:55Z</time>
      </trkpt>
      <trkpt lat="37.3303037044" lon="-5.9680206701">
        <ele>21.29</ele>
        <time>2020-07-09T05:39:59Z</time>
      </trkpt>
      <trkpt lat="37.3303048778" lon="-5.9680314828">
        <ele>20.32</ele>
        <time>2020-07-09T05:40:07Z</time>
      </trkpt>
      <trkpt lat="37.3303235695" lon="-5.9680336621">
        <ele>18.88</ele>
        <time>2020-07-09T05:40:20Z</time>
      </trkpt>
      <trkpt lat="37.3303256650" lon="-5.9680316504">
        <ele>18.40</ele>
        <time>2020-07-09T05:40:28Z</time>
      </trkpt>
      <trkpt lat="37.3303263355" lon="-5.9680280462">
        <ele>18.88</ele>
        <time>2020-07-09T05:40:44Z</time>
      </trkpt>
      <trkpt lat="37.3303280957" lon="-5.9680289682">
        <ele>19.36</ele>
        <time>2020-07-09T05:40:59Z</time>
      </trkpt>
      <trkpt lat="37.3303353041" lon="-5.9680139646">
        <ele>18.40</ele>
        <time>2020-07-09T05:41:22Z</time>
      </trkpt>
      <trkpt lat="37.3303482123" lon="-5.9680202510">
        <ele>16.96</ele>
        <time>2020-07-09T05:41:40Z</time>
      </trkpt>
      <trkpt lat="37.3303283472" lon="-5.9682054073">
        <ele>18.88</ele>
        <time>2020-07-09T05:41:51Z</time>
      </trkpt>
      <trkpt lat="37.3303458653" lon="-5.9682880528">
        <ele>20.81</ele>
        <time>2020-07-09T05:41:59Z</time>
      </trkpt>
      <trkpt lat="37.3303513136" lon="-5.9682922438">
        <ele>22.73</ele>
        <time>2020-07-09T05:42:03Z</time>
      </trkpt>
      <trkpt lat="37.3303949833" lon="-5.9682921600">
        <ele>22.73</ele>
        <time>2020-07-09T05:42:06Z</time>
      </trkpt>
      <trkpt lat="37.3304255772" lon="-5.9682888072">
        <ele>22.73</ele>
        <time>2020-07-09T05:42:07Z</time>
      </trkpt>
      <trkpt lat="37.3304534890" lon="-5.9682920761">
        <ele>23.21</ele>
        <time>2020-07-09T05:42:08Z</time>
      </trkpt>
      <trkpt lat="37.3304917943" lon="-5.9682992008">
        <ele>23.21</ele>
        <time>2020-07-09T05:42:09Z</time>
      </trkpt>
      <trkpt lat="37.3308204487" lon="-5.9683586285">
        <ele>23.21</ele>
        <time>2020-07-09T05:42:17Z</time>
      </trkpt>
      <trkpt lat="37.3311471753" lon="-5.9684287012">
        <ele>23.21</ele>
        <time>2020-07-09T05:42:25Z</time>
      </trkpt>
      <trkpt lat="37.3314790986" lon="-5.9685172141">
        <ele>21.77</ele>
        <time>2020-07-09T05:42:34Z</time>
      </trkpt>
      <trkpt lat="37.3317188211" lon="-5.9685837664">
        <ele>21.29</ele>
        <time>2020-07-09T05:42:40Z</time>
      </trkpt>
      <trkpt lat="37.3318463098" lon="-5.9686333872">
        <ele>21.77</ele>
        <time>2020-07-09T05:42:43Z</time>
      </trkpt>
      <trkpt lat="37.3322447017" lon="-5.9687564336">
        <ele>23.69</ele>
        <time>2020-07-09T05:42:52Z</time>
      </trkpt>
      <trkpt lat="37.3325510602" lon="-5.9688624647">
        <ele>26.57</ele>
        <time>2020-07-09T05:42:59Z</time>
      </trkpt>
      <trkpt lat="37.3327208776" lon="-5.9689162765">
        <ele>27.53</ele>
        <time>2020-07-09T05:43:03Z</time>
      </trkpt>
      <trkpt lat="37.3330496997" lon="-5.9690335393">
        <ele>28.98</ele>
        <time>2020-07-09T05:43:11Z</time>
      </trkpt>
      <trkpt lat="37.3334225267" lon="-5.9691710863">
        <ele>28.50</ele>
        <time>2020-07-09T05:43:20Z</time>
      </trkpt>
      <trkpt lat="37.3338520154" lon="-5.9693283308">
        <ele>26.09</ele>
        <time>2020-07-09T05:43:30Z</time>
      </trkpt>
      <trkpt lat="37.3343013693" lon="-5.9695031773">
        <ele>23.69</ele>
        <time>2020-07-09T05:43:40Z</time>
      </trkpt>
      <trkpt lat="37.3345963284" lon="-5.9696138185">
        <ele>22.73</ele>
        <time>2020-07-09T05:43:48Z</time>
      </trkpt>
      <trkpt lat="37.3346384894" lon="-5.9696341865">
        <ele>22.25</ele>
        <time>2020-07-09T05:43:50Z</time>
      </trkpt>
      <trkpt lat="37.3346491344" lon="-5.9696455859">
        <ele>22.25</ele>
        <time>2020-07-09T05:43:51Z</time>
      </trkpt>
      <trkpt lat="37.3346571811" lon="-5.9696631879">
        <ele>21.29</ele>
        <time>2020-07-09T05:43:52Z</time>
      </trkpt>
      <trkpt lat="37.3346605338" lon="-5.9696866572">
        <ele>20.81</ele>
        <time>2020-07-09T05:43:53Z</time>
      </trkpt>
      <trkpt lat="37.3346660659" lon="-5.9697182570">
        <ele>19.84</ele>
        <time>2020-07-09T05:43:54Z</time>
      </trkpt>
      <trkpt lat="37.3346772976" lon="-5.9697499406">
        <ele>19.36</ele>
        <time>2020-07-09T05:43:55Z</time>
      </trkpt>
      <trkpt lat="37.3346973304" lon="-5.9697679617">
        <ele>18.88</ele>
        <time>2020-07-09T05:43:56Z</time>
      </trkpt>
      <trkpt lat="37.3347215541" lon="-5.9697750863">
        <ele>18.40</ele>
        <time>2020-07-09T05:43:57Z</time>
      </trkpt>
      <trkpt lat="37.3347494658" lon="-5.9697827976">
        <ele>18.88</ele>
        <time>2020-07-09T05:43:58Z</time>
      </trkpt>
      <trkpt lat="37.3347736895" lon="-5.9697972983">
        <ele>18.88</ele>
        <time>2020-07-09T05:43:59Z</time>
      </trkpt>
      <trkpt lat="37.3347982485" lon="-5.9698177502">
        <ele>18.88</ele>
        <time>2020-07-09T05:44:00Z</time>
      </trkpt>
      <trkpt lat="37.3348213825" lon="-5.9698437341">
        <ele>18.88</ele>
        <time>2020-07-09T05:44:01Z</time>
      </trkpt>
      <trkpt lat="37.3348409124" lon="-5.9698728193">
        <ele>18.88</ele>
        <time>2020-07-09T05:44:02Z</time>
      </trkpt>
      <trkpt lat="37.3348535690" lon="-5.9698954504">
        <ele>18.88</ele>
        <time>2020-07-09T05:44:03Z</time>
      </trkpt>
      <trkpt lat="37.3348788824" lon="-5.9699465800">
        <ele>17.92</ele>
        <time>2020-07-09T05:44:09Z</time>
      </trkpt>
      <trkpt lat="37.3348896112" lon="-5.9699525312">
        <ele>16.48</ele>
        <time>2020-07-09T05:44:21Z</time>
      </trkpt>
      <trkpt lat="37.3348904494" lon="-5.9699485917">
        <ele>18.40</ele>
        <time>2020-07-09T05:44:36Z</time>
      </trkpt>
      <trkpt lat="37.3349052016" lon="-5.9699792694">
        <ele>18.88</ele>
        <time>2020-07-09T05:44:47Z</time>
      </trkpt>
      <trkpt lat="37.3350212071" lon="-5.9700214304">
        <ele>18.88</ele>
        <time>2020-07-09T05:44:52Z</time>
      </trkpt>
      <trkpt lat="37.3351287469" lon="-5.9699555486">
        <ele>18.88</ele>
        <time>2020-07-09T05:44:57Z</time>
      </trkpt>
      <trkpt lat="37.3352961335" lon="-5.9699051734">
        <ele>19.36</ele>
        <time>2020-07-09T05:45:04Z</time>
      </trkpt>
      <trkpt lat="37.3353601713" lon="-5.9698738251">
        <ele>19.84</ele>
        <time>2020-07-09T05:45:10Z</time>
      </trkpt>
      <trkpt lat="37.3353775218" lon="-5.9698703047">
        <ele>19.36</ele>
        <time>2020-07-09T05:45:23Z</time>
      </trkpt>
      <trkpt lat="37.3353824671" lon="-5.9698486794">
        <ele>18.40</ele>
        <time>2020-07-09T05:45:37Z</time>
      </trkpt>
      <trkpt lat="37.3353683855" lon="-5.9698642697">
        <ele>17.44</ele>
        <time>2020-07-09T05:45:56Z</time>
      </trkpt>
      <trkpt lat="37.3353786115" lon="-5.9698411357">
        <ele>16.96</ele>
        <time>2020-07-09T05:46:08Z</time>
      </trkpt>
      <trkpt lat="37.3353925254" lon="-5.9697852284">
        <ele>16.96</ele>
        <time>2020-07-09T05:46:11Z</time>
      </trkpt>
      <trkpt lat="37.3354525398" lon="-5.9695409797">
        <ele>16.48</ele>
        <time>2020-07-09T05:46:19Z</time>
      </trkpt>
      <trkpt lat="37.3354622629" lon="-5.9695072006">
        <ele>16.48</ele>
        <time>2020-07-09T05:46:20Z</time>
      </trkpt>
      <trkpt lat="37.3355900869" lon="-5.9695205279">
        <ele>16.00</ele>
        <time>2020-07-09T05:46:25Z</time>
      </trkpt>
      <trkpt lat="37.3356293980" lon="-5.9695401415">
        <ele>16.48</ele>
        <time>2020-07-09T05:46:26Z</time>
      </trkpt>
      <trkpt lat="37.3356674518" lon="-5.9695589170">
        <ele>16.48</ele>
        <time>2020-07-09T05:46:27Z</time>
      </trkpt>
      <trkpt lat="37.3356967885" lon="-5.9695704840">
        <ele>16.48</ele>
        <time>2020-07-09T05:46:28Z</time>
      </trkpt>
      <trkpt lat="37.3357302323" lon="-5.9695774410">
        <ele>16.48</ele>
        <time>2020-07-09T05:46:29Z</time>
      </trkpt>
      <trkpt lat="37.3357604071" lon="-5.9695828892">
        <ele>16.48</ele>
        <time>2020-07-09T05:46:30Z</time>
      </trkpt>
      <trkpt lat="37.3357874807" lon="-5.9695921093">
        <ele>16.96</ele>
        <time>2020-07-09T05:46:31Z</time>
      </trkpt>
      <trkpt lat="37.3358129617" lon="-5.9696045145">
        <ele>16.96</ele>
        <time>2020-07-09T05:46:32Z</time>
      </trkpt>
      <trkpt lat="37.3358415440" lon="-5.9696204402">
        <ele>16.96</ele>
        <time>2020-07-09T05:46:33Z</time>
      </trkpt>
      <trkpt lat="37.3358725570" lon="-5.9696337674">
        <ele>17.44</ele>
        <time>2020-07-09T05:46:34Z</time>
      </trkpt>
      <trkpt lat="37.3359031510" lon="-5.9696444962">
        <ele>17.44</ele>
        <time>2020-07-09T05:46:35Z</time>
      </trkpt>
      <trkpt lat="37.3361420352" lon="-5.9697361104">
        <ele>18.40</ele>
        <time>2020-07-09T05:46:43Z</time>
      </trkpt>
      <trkpt lat="37.3364515789" lon="-5.9698415548">
        <ele>18.88</ele>
        <time>2020-07-09T05:46:52Z</time>
      </trkpt>
      <trkpt lat="37.3368159402" lon="-5.9699704684">
        <ele>18.40</ele>
        <time>2020-07-09T05:47:03Z</time>
      </trkpt>
      <trkpt lat="37.3371075466" lon="-5.9701079316">
        <ele>18.40</ele>
        <time>2020-07-09T05:47:11Z</time>
      </trkpt>
      <trkpt lat="37.3374976404" lon="-5.9702464007">
        <ele>17.92</ele>
        <time>2020-07-09T05:47:20Z</time>
      </trkpt>
      <trkpt lat="37.3378600739" lon="-5.9703647532">
        <ele>17.92</ele>
        <time>2020-07-09T05:47:28Z</time>
      </trkpt>
      <trkpt lat="37.3382323980" lon="-5.9704962652">
        <ele>17.44</ele>
        <time>2020-07-09T05:47:37Z</time>
      </trkpt>
      <trkpt lat="37.3384556919" lon="-5.9705706965">
        <ele>18.40</ele>
        <time>2020-07-09T05:47:44Z</time>
      </trkpt>
      <trkpt lat="37.3385432828" lon="-5.9705771506">
        <ele>18.40</ele>
        <time>2020-07-09T05:47:50Z</time>
      </trkpt>
      <trkpt lat="37.3385729548" lon="-5.9705945011">
        <ele>16.48</ele>
        <time>2020-07-09T05:47:58Z</time>
      </trkpt>
      <trkpt lat="37.3385642376" lon="-5.9705986921">
        <ele>17.44</ele>
        <time>2020-07-09T05:48:17Z</time>
      </trkpt>
      <trkpt lat="37.3385716975" lon="-5.9706012905">
        <ele>16.96</ele>
        <time>2020-07-09T05:48:31Z</time>
      </trkpt>
      <trkpt lat="37.3385747988" lon="-5.9706100915">
        <ele>16.48</ele>
        <time>2020-07-09T05:48:39Z</time>
      </trkpt>
      <trkpt lat="37.3385793250" lon="-5.9706013743">
        <ele>16.48</ele>
        <time>2020-07-09T05:48:48Z</time>
      </trkpt>
      <trkpt lat="37.3385834321" lon="-5.9706157912">
        <ele>15.52</ele>
        <time>2020-07-09T05:49:01Z</time>
      </trkpt>
      <trkpt lat="37.3385836836" lon="-5.9706323873">
        <ele>15.52</ele>
        <time>2020-07-09T05:49:02Z</time>
      </trkpt>
      <trkpt lat="37.3385797441" lon="-5.9706551023">
        <ele>15.04</ele>
        <time>2020-07-09T05:49:03Z</time>
      </trkpt>
      <trkpt lat="37.3385726195" lon="-5.9706833493">
        <ele>15.04</ele>
        <time>2020-07-09T05:49:04Z</time>
      </trkpt>
      <trkpt lat="37.3385635670" lon="-5.9707088303">
        <ele>15.04</ele>
        <time>2020-07-09T05:49:05Z</time>
      </trkpt>
      <trkpt lat="37.3385556042" lon="-5.9707289468">
        <ele>15.04</ele>
        <time>2020-07-09T05:49:06Z</time>
      </trkpt>
      <trkpt lat="37.3385452945" lon="-5.9707610495">
        <ele>15.04</ele>
        <time>2020-07-09T05:49:07Z</time>
      </trkpt>
      <trkpt lat="37.3385348171" lon="-5.9708372410">
        <ele>14.56</ele>
        <time>2020-07-09T05:49:10Z</time>
      </trkpt>
      <trkpt lat="37.3385517485" lon="-5.9708514903">
        <ele>14.56</ele>
        <time>2020-07-09T05:49:11Z</time>
      </trkpt>
      <trkpt lat="37.3387869447" lon="-5.9709578566">
        <ele>15.52</ele>
        <time>2020-07-09T05:49:19Z</time>
      </trkpt>
      <trkpt lat="37.3391656391" lon="-5.9711539932">
        <ele>16.96</ele>
        <time>2020-07-09T05:49:31Z</time>
      </trkpt>
      <trkpt lat="37.3394620232" lon="-5.9713194519">
        <ele>17.92</ele>
        <time>2020-07-09T05:49:40Z</time>
      </trkpt>
      <trkpt lat="37.3398181703" lon="-5.9715326875">
        <ele>17.92</ele>
        <time>2020-07-09T05:49:51Z</time>
      </trkpt>
      <trkpt lat="37.3401593976" lon="-5.9717411455">
        <ele>17.44</ele>
        <time>2020-07-09T05:50:01Z</time>
      </trkpt>
      <trkpt lat="37.3405622318" lon="-5.9719874058">
        <ele>16.96</ele>
        <time>2020-07-09T05:50:12Z</time>
      </trkpt>
      <trkpt lat="37.3410464544" lon="-5.9722840413">
        <ele>16.00</ele>
        <time>2020-07-09T05:50:24Z</time>
      </trkpt>
      <trkpt lat="37.3415015079" lon="-5.9725604765">
        <ele>15.04</ele>
        <time>2020-07-09T05:50:34Z</time>
      </trkpt>
      <trkpt lat="37.3421437293" lon="-5.9729552642">
        <ele>13.12</ele>
        <time>2020-07-09T05:50:46Z</time>
      </trkpt>
      <trkpt lat="37.3426610604" lon="-5.9732705075">
        <ele>13.12</ele>
        <time>2020-07-09T05:50:57Z</time>
      </trkpt>
      <trkpt lat="37.3432695866" lon="-5.9736495372">
        <ele>13.60</ele>
        <time>2020-07-09T05:51:11Z</time>
      </trkpt>
      <trkpt lat="37.3437471036" lon="-5.9739373717">
        <ele>14.08</ele>
        <time>2020-07-09T05:51:22Z</time>
      </trkpt>
      <trkpt lat="37.3437620234" lon="-5.9740797803">
        <ele>13.60</ele>
        <time>2020-07-09T05:51:27Z</time>
      </trkpt>
      <trkpt lat="37.3437538091" lon="-5.9741071891">
        <ele>13.60</ele>
        <time>2020-07-09T05:51:28Z</time>
      </trkpt>
      <trkpt lat="37.3438312579" lon="-5.9742318280">
        <ele>14.08</ele>
        <time>2020-07-09T05:51:33Z</time>
      </trkpt>
      <trkpt lat="37.3438160866" lon="-5.9743834566">
        <ele>13.60</ele>
        <time>2020-07-09T05:51:37Z</time>
      </trkpt>
      <trkpt lat="37.3437471036" lon="-5.9745015576">
        <ele>13.12</ele>
        <time>2020-07-09T05:51:41Z</time>
      </trkpt>
      <trkpt lat="37.3437415715" lon="-5.9745668527">
        <ele>12.63</ele>
        <time>2020-07-09T05:51:44Z</time>
      </trkpt>
      <trkpt lat="37.3438329343" lon="-5.9746089298">
        <ele>13.12</ele>
        <time>2020-07-09T05:51:49Z</time>
      </trkpt>
      <trkpt lat="37.3441169970" lon="-5.9747120272">
        <ele>14.08</ele>
        <time>2020-07-09T05:51:58Z</time>
      </trkpt>
      <trkpt lat="37.3442636803" lon="-5.9747625701">
        <ele>15.04</ele>
        <time>2020-07-09T05:52:03Z</time>
      </trkpt>
      <trkpt lat="37.3443717230" lon="-5.9747945052">
        <ele>16.00</ele>
        <time>2020-07-09T05:52:07Z</time>
      </trkpt>
      <trkpt lat="37.3444759101" lon="-5.9746736381">
        <ele>16.00</ele>
        <time>2020-07-09T05:52:12Z</time>
      </trkpt>
      <trkpt lat="37.3446023092" lon="-5.9747084230">
        <ele>15.04</ele>
        <time>2020-07-09T05:52:16Z</time>
      </trkpt>
      <trkpt lat="37.3449188937" lon="-5.9748964291">
        <ele>16.00</ele>
        <time>2020-07-09T05:52:25Z</time>
      </trkpt>
      <trkpt lat="37.3451333866" lon="-5.9750115126">
        <ele>16.96</ele>
        <time>2020-07-09T05:52:31Z</time>
      </trkpt>
      <trkpt lat="37.3452338856" lon="-5.9750728682">
        <ele>17.44</ele>
        <time>2020-07-09T05:52:34Z</time>
      </trkpt>
      <trkpt lat="37.3455240671" lon="-5.9752316214">
        <ele>20.32</ele>
        <time>2020-07-09T05:52:42Z</time>
      </trkpt>
      <trkpt lat="37.3458223790" lon="-5.9754012711">
        <ele>21.29</ele>
        <time>2020-07-09T05:52:50Z</time>
      </trkpt>
      <trkpt lat="37.3459696490" lon="-5.9756048676">
        <ele>21.77</ele>
        <time>2020-07-09T05:52:56Z</time>
      </trkpt>
      <trkpt lat="37.3460601736" lon="-5.9758699033">
        <ele>19.84</ele>
        <time>2020-07-09T05:53:02Z</time>
      </trkpt>
      <trkpt lat="37.3461068608" lon="-5.9759342764">
        <ele>20.32</ele>
        <time>2020-07-09T05:53:04Z</time>
      </trkpt>
      <trkpt lat="37.3461232893" lon="-5.9761289880">
        <ele>19.84</ele>
        <time>2020-07-09T05:53:09Z</time>
      </trkpt>
      <trkpt lat="37.3461143207" lon="-5.9761814587">
        <ele>19.36</ele>
        <time>2020-07-09T05:53:11Z</time>
      </trkpt>
      <trkpt lat="37.3462070245" lon="-5.9762334265">
        <ele>21.29</ele>
        <time>2020-07-09T05:53:17Z</time>
      </trkpt>
      <trkpt lat="37.3462713975" lon="-5.9762465861">
        <ele>22.73</ele>
        <time>2020-07-09T05:53:24Z</time>
      </trkpt>
      <trkpt lat="37.3462800309" lon="-5.9762589913">
        <ele>25.13</ele>
        <time>2020-07-09T05:53:41Z</time>
      </trkpt>
      <trkpt lat="37.3462819587" lon="-5.9762651101">
        <ele>21.77</ele>
        <time>2020-07-09T05:53:59Z</time>
      </trkpt>
      <trkpt lat="37.3463334236" lon="-5.9762709774">
        <ele>21.29</ele>
        <time>2020-07-09T05:54:09Z</time>
      </trkpt>
      <trkpt lat="37.3463889118" lon="-5.9761501104">
        <ele>21.29</ele>
        <time>2020-07-09T05:54:14Z</time>
      </trkpt>
      <trkpt lat="37.3465065099" lon="-5.9759597573">
        <ele>20.81</ele>
        <time>2020-07-09T05:54:20Z</time>
      </trkpt>
      <trkpt lat="37.3466665205" lon="-5.9759457596">
        <ele>21.77</ele>
        <time>2020-07-09T05:54:25Z</time>
      </trkpt>
      <trkpt lat="37.3469984438" lon="-5.9760957956">
        <ele>24.17</ele>
        <time>2020-07-09T05:54:34Z</time>
      </trkpt>
      <trkpt lat="37.3472858593" lon="-5.9762269724">
        <ele>26.09</ele>
        <time>2020-07-09T05:54:41Z</time>
      </trkpt>
      <trkpt lat="37.3476580158" lon="-5.9763539582">
        <ele>26.09</ele>
        <time>2020-07-09T05:54:50Z</time>
      </trkpt>
      <trkpt lat="37.3480551504" lon="-5.9764632583">
        <ele>26.57</ele>
        <time>2020-07-09T05:54:59Z</time>
      </trkpt>
      <trkpt lat="37.3485477548" lon="-5.9765273798">
        <ele>25.61</ele>
        <time>2020-07-09T05:55:10Z</time>
      </trkpt>
      <trkpt lat="37.3488563765" lon="-5.9765728097">
        <ele>24.65</ele>
        <time>2020-07-09T05:55:18Z</time>
      </trkpt>
      <trkpt lat="37.3489621561" lon="-5.9766587242">
        <ele>24.17</ele>
        <time>2020-07-09T05:55:24Z</time>
      </trkpt>
      <trkpt lat="37.3490774073" lon="-5.9766197484">
        <ele>24.17</ele>
        <time>2020-07-09T05:55:28Z</time>
      </trkpt>
      <trkpt lat="37.3491562810" lon="-5.9766306449">
        <ele>24.17</ele>
        <time>2020-07-09T05:55:30Z</time>
      </trkpt>
      <trkpt lat="37.3496013600" lon="-5.9766916651">
        <ele>23.21</ele>
        <time>2020-07-09T05:55:40Z</time>
      </trkpt>
      <trkpt lat="37.3500022665" lon="-5.9767564572">
        <ele>21.77</ele>
        <time>2020-07-09T05:55:49Z</time>
      </trkpt>
      <trkpt lat="37.3502954654" lon="-5.9768169746">
        <ele>20.81</ele>
        <time>2020-07-09T05:55:56Z</time>
      </trkpt>
      <trkpt lat="37.3505843896" lon="-5.9768951777">
        <ele>20.81</ele>
        <time>2020-07-09T05:56:03Z</time>
      </trkpt>
      <trkpt lat="37.3508562986" lon="-5.9770174697">
        <ele>19.36</ele>
        <time>2020-07-09T05:56:10Z</time>
      </trkpt>
      <trkpt lat="37.3508578073" lon="-5.9772649035">
        <ele>16.96</ele>
        <time>2020-07-09T05:56:16Z</time>
      </trkpt>
      <trkpt lat="37.3508501798" lon="-5.9773097467">
        <ele>16.48</ele>
        <time>2020-07-09T05:56:17Z</time>
      </trkpt>
      <trkpt lat="37.3508210108" lon="-5.9775413387">
        <ele>15.52</ele>
        <time>2020-07-09T05:56:22Z</time>
      </trkpt>
      <trkpt lat="37.3509142175" lon="-5.9776399098">
        <ele>15.04</ele>
        <time>2020-07-09T05:56:26Z</time>
      </trkpt>
      <trkpt lat="37.3510275409" lon="-5.9776633792">
        <ele>15.52</ele>
        <time>2020-07-09T05:56:29Z</time>
      </trkpt>
      <trkpt lat="37.3514321353" lon="-5.9777784627">
        <ele>16.00</ele>
        <time>2020-07-09T05:56:40Z</time>
      </trkpt>
      <trkpt lat="37.3515358195" lon="-5.9778357111">
        <ele>16.48</ele>
        <time>2020-07-09T05:56:45Z</time>
      </trkpt>
      <trkpt lat="37.3515564390" lon="-5.9778342862">
        <ele>16.48</ele>
        <time>2020-07-09T05:56:46Z</time>
      </trkpt>
      <trkpt lat="37.3515949957" lon="-5.9777318593">
        <ele>16.48</ele>
        <time>2020-07-09T05:56:50Z</time>
      </trkpt>
      <trkpt lat="37.3517092410" lon="-5.9775358904">
        <ele>16.00</ele>
        <time>2020-07-09T05:56:56Z</time>
      </trkpt>
      <trkpt lat="37.3518687487" lon="-5.9775524866">
        <ele>17.92</ele>
        <time>2020-07-09T05:57:01Z</time>
      </trkpt>
      <trkpt lat="37.3520964850" lon="-5.9776898660">
        <ele>20.32</ele>
        <time>2020-07-09T05:57:08Z</time>
      </trkpt>
      <trkpt lat="37.3524463456" lon="-5.9778852481">
        <ele>21.29</ele>
        <time>2020-07-09T05:57:17Z</time>
      </trkpt>
      <trkpt lat="37.3528952803" lon="-5.9781218693">
        <ele>21.77</ele>
        <time>2020-07-09T05:57:28Z</time>
      </trkpt>
      <trkpt lat="37.3533842806" lon="-5.9784255456">
        <ele>20.32</ele>
        <time>2020-07-09T05:57:40Z</time>
      </trkpt>
      <trkpt lat="37.3535991088" lon="-5.9786246996">
        <ele>19.84</ele>
        <time>2020-07-09T05:57:47Z</time>
      </trkpt>
      <trkpt lat="37.3538875300" lon="-5.9787968639">
        <ele>19.84</ele>
        <time>2020-07-09T05:57:54Z</time>
      </trkpt>
      <trkpt lat="37.3541746102" lon="-5.9789640829">
        <ele>20.81</ele>
        <time>2020-07-09T05:58:01Z</time>
      </trkpt>
      <trkpt lat="37.3545984831" lon="-5.9792307112">
        <ele>19.84</ele>
        <time>2020-07-09T05:58:11Z</time>
      </trkpt>
      <trkpt lat="37.3547152430" lon="-5.9793033823">
        <ele>19.36</ele>
        <time>2020-07-09T05:58:14Z</time>
      </trkpt>
      <trkpt lat="37.3549494334" lon="-5.9794427734">
        <ele>18.40</ele>
        <time>2020-07-09T05:58:20Z</time>
      </trkpt>
      <trkpt lat="37.3552448116" lon="-5.9796056338">
        <ele>18.40</ele>
        <time>2020-07-09T05:58:28Z</time>
      </trkpt>
      <trkpt lat="37.3553542793" lon="-5.9796771314">
        <ele>18.88</ele>
        <time>2020-07-09T05:58:31Z</time>
      </trkpt>
      <trkpt lat="37.3555793334" lon="-5.9798118286">
        <ele>19.36</ele>
        <time>2020-07-09T05:58:38Z</time>
      </trkpt>
      <trkpt lat="37.3556375876" lon="-5.9798312746">
        <ele>20.32</ele>
        <time>2020-07-09T05:58:43Z</time>
      </trkpt>
      <trkpt lat="37.3556287866" lon="-5.9798246529">
        <ele>18.88</ele>
        <time>2020-07-09T05:58:57Z</time>
      </trkpt>
      <trkpt lat="37.3556235898" lon="-5.9798560012">
        <ele>19.36</ele>
        <time>2020-07-09T05:59:08Z</time>
      </trkpt>
      <trkpt lat="37.3556446284" lon="-5.9798658080">
        <ele>19.84</ele>
        <time>2020-07-09T05:59:13Z</time>
      </trkpt>
      <trkpt lat="37.3557277769" lon="-5.9799689893">
        <ele>19.84</ele>
        <time>2020-07-09T05:59:19Z</time>
      </trkpt>
      <trkpt lat="37.3558350652" lon="-5.9802818857">
        <ele>17.92</ele>
        <time>2020-07-09T05:59:30Z</time>
      </trkpt>
      <trkpt lat="37.3558576126" lon="-5.9803075343">
        <ele>17.92</ele>
        <time>2020-07-09T05:59:35Z</time>
      </trkpt>
      <trkpt lat="37.3559634760" lon="-5.9803481027">
        <ele>18.40</ele>
        <time>2020-07-09T05:59:40Z</time>
      </trkpt>
      <trkpt lat="37.3560006078" lon="-5.9803209454">
        <ele>19.36</ele>
        <time>2020-07-09T05:59:47Z</time>
      </trkpt>
      <trkpt lat="37.3559986800" lon="-5.9803336021">
        <ele>18.88</ele>
        <time>2020-07-09T06:00:04Z</time>
      </trkpt>
      <trkpt lat="37.3560033739" lon="-5.9803170897">
        <ele>18.40</ele>
        <time>2020-07-09T06:00:23Z</time>
      </trkpt>
      <trkpt lat="37.3560190480" lon="-5.9803540539">
        <ele>20.32</ele>
        <time>2020-07-09T06:00:41Z</time>
      </trkpt>
      <trkpt lat="37.3559853528" lon="-5.9803347755">
        <ele>20.32</ele>
        <time>2020-07-09T06:01:01Z</time>
      </trkpt>
      <trkpt lat="37.3559892084" lon="-5.9803211130">
        <ele>19.36</ele>
        <time>2020-07-09T06:01:13Z</time>
      </trkpt>
      <trkpt lat="37.3559731152" lon="-5.9803138208">
        <ele>19.84</ele>
        <time>2020-07-09T06:01:25Z</time>
      </trkpt>
      <trkpt lat="37.3560592812" lon="-5.9803197719">
        <ele>18.88</ele>
        <time>2020-07-09T06:01:31Z</time>
      </trkpt>
      <trkpt lat="37.3562419228" lon="-5.9803410619">
        <ele>17.92</ele>
        <time>2020-07-09T06:01:38Z</time>
      </trkpt>
      <trkpt lat="37.3564238939" lon="-5.9804332629">
        <ele>16.48</ele>
        <time>2020-07-09T06:01:45Z</time>
      </trkpt>
      <trkpt lat="37.3565944657" lon="-5.9806138929">
        <ele>15.52</ele>
        <time>2020-07-09T06:01:52Z</time>
      </trkpt>
      <trkpt lat="37.3567970563" lon="-5.9807471652">
        <ele>15.04</ele>
        <time>2020-07-09T06:01:58Z</time>
      </trkpt>
      <trkpt lat="37.3570667021" lon="-5.9808642603">
        <ele>18.88</ele>
        <time>2020-07-09T06:02:06Z</time>
      </trkpt>
      <trkpt lat="37.3572736513" lon="-5.9808772523">
        <ele>22.73</ele>
        <time>2020-07-09T06:02:13Z</time>
      </trkpt>
      <trkpt lat="37.3572920077" lon="-5.9808598179">
        <ele>27.53</ele>
        <time>2020-07-09T06:02:20Z</time>
      </trkpt>
      <trkpt lat="37.3572982941" lon="-5.9809048288">
        <ele>31.38</ele>
        <time>2020-07-09T06:02:32Z</time>
      </trkpt>
      <trkpt lat="37.3573336657" lon="-5.9808476642">
        <ele>31.38</ele>
        <time>2020-07-09T06:02:35Z</time>
      </trkpt>
      <trkpt lat="37.3574315663" lon="-5.9806107078">
        <ele>29.46</ele>
        <time>2020-07-09T06:02:43Z</time>
      </trkpt>
      <trkpt lat="37.3575827759" lon="-5.9806312434">
        <ele>28.98</ele>
        <time>2020-07-09T06:02:50Z</time>
      </trkpt>
      <trkpt lat="37.3576635774" lon="-5.9806796070">
        <ele>28.98</ele>
        <time>2020-07-09T06:02:53Z</time>
      </trkpt>
      <trkpt lat="37.3580249213" lon="-5.9808951896">
        <ele>27.53</ele>
        <time>2020-07-09T06:03:03Z</time>
      </trkpt>
      <trkpt lat="37.3583220597" lon="-5.9810614865">
        <ele>27.53</ele>
        <time>2020-07-09T06:03:11Z</time>
      </trkpt>
      <trkpt lat="37.3585799709" lon="-5.9811965190">
        <ele>26.09</ele>
        <time>2020-07-09T06:03:19Z</time>
      </trkpt>
      <trkpt lat="37.3589319270" lon="-5.9814001992">
        <ele>24.65</ele>
        <time>2020-07-09T06:03:29Z</time>
      </trkpt>
      <trkpt lat="37.3589714896" lon="-5.9814224951">
        <ele>24.65</ele>
        <time>2020-07-09T06:03:30Z</time>
      </trkpt>
      <trkpt lat="37.3593262956" lon="-5.9816453699">
        <ele>25.13</ele>
        <time>2020-07-09T06:03:39Z</time>
      </trkpt>
      <trkpt lat="37.3596389405" lon="-5.9818371478">
        <ele>24.17</ele>
        <time>2020-07-09T06:03:47Z</time>
      </trkpt>
      <trkpt lat="37.3599643260" lon="-5.9820233937">
        <ele>24.17</ele>
        <time>2020-07-09T06:03:56Z</time>
      </trkpt>
      <trkpt lat="37.3599921539" lon="-5.9820359666">
        <ele>24.17</ele>
        <time>2020-07-09T06:03:57Z</time>
      </trkpt>
      <trkpt lat="37.3601121828" lon="-5.9820264112">
        <ele>23.21</ele>
        <time>2020-07-09T06:04:04Z</time>
      </trkpt>
      <trkpt lat="37.3601409327" lon="-5.9820421692">
        <ele>21.77</ele>
        <time>2020-07-09T06:04:18Z</time>
      </trkpt>
      <trkpt lat="37.3602182977" lon="-5.9820790496">
        <ele>21.77</ele>
        <time>2020-07-09T06:04:22Z</time>
      </trkpt>
      <trkpt lat="37.3603618797" lon="-5.9822577517">
        <ele>20.81</ele>
        <time>2020-07-09T06:04:28Z</time>
      </trkpt>
      <trkpt lat="37.3606530670" lon="-5.9824288264">
        <ele>19.84</ele>
        <time>2020-07-09T06:04:36Z</time>
      </trkpt>
      <trkpt lat="37.3609557375" lon="-5.9826060198">
        <ele>19.84</ele>
        <time>2020-07-09T06:04:45Z</time>
      </trkpt>
      <trkpt lat="37.3612905107" lon="-5.9828045871">
        <ele>19.84</ele>
        <time>2020-07-09T06:04:55Z</time>
      </trkpt>
      <trkpt lat="37.3615621682" lon="-5.9829671960">
        <ele>18.40</ele>
        <time>2020-07-09T06:05:03Z</time>
      </trkpt>
      <trkpt lat="37.3618928343" lon="-5.9831656795">
        <ele>17.44</ele>
        <time>2020-07-09T06:05:12Z</time>
      </trkpt>
      <trkpt lat="37.3622347321" lon="-5.9833597206">
        <ele>16.48</ele>
        <time>2020-07-09T06:05:21Z</time>
      </trkpt>
      <trkpt lat="37.3625562619" lon="-5.9835622273">
        <ele>16.96</ele>
        <time>2020-07-09T06:05:30Z</time>
      </trkpt>
      <trkpt lat="37.3627034482" lon="-5.9836478066">
        <ele>16.96</ele>
        <time>2020-07-09T06:05:34Z</time>
      </trkpt>
      <trkpt lat="37.3631288297" lon="-5.9839012753">
        <ele>17.44</ele>
        <time>2020-07-09T06:05:45Z</time>
      </trkpt>
      <trkpt lat="37.3633972183" lon="-5.9840433486">
        <ele>16.48</ele>
        <time>2020-07-09T06:05:54Z</time>
      </trkpt>
      <trkpt lat="37.3634696379" lon="-5.9840412531">
        <ele>15.52</ele>
        <time>2020-07-09T06:06:00Z</time>
      </trkpt>
      <trkpt lat="37.3634536285" lon="-5.9840501379">
        <ele>12.63</ele>
        <time>2020-07-09T06:06:14Z</time>
      </trkpt>
      <trkpt lat="37.3636038322" lon="-5.9841418359">
        <ele>12.15</ele>
        <time>2020-07-09T06:06:21Z</time>
      </trkpt>
      <trkpt lat="37.3637332488" lon="-5.9842705820">
        <ele>11.19</ele>
        <time>2020-07-09T06:06:26Z</time>
      </trkpt>
      <trkpt lat="37.3640267830" lon="-5.9844460152">
        <ele>12.15</ele>
        <time>2020-07-09T06:06:34Z</time>
      </trkpt>
      <trkpt lat="37.3642145377" lon="-5.9845658764">
        <ele>12.15</ele>
        <time>2020-07-09T06:06:39Z</time>
      </trkpt>
      <trkpt lat="37.3646013625" lon="-5.9847947862">
        <ele>13.12</ele>
        <time>2020-07-09T06:06:49Z</time>
      </trkpt>
      <trkpt lat="37.3650176916" lon="-5.9850379452">
        <ele>13.60</ele>
        <time>2020-07-09T06:07:00Z</time>
      </trkpt>
      <trkpt lat="37.3653397243" lon="-5.9852372669">
        <ele>15.52</ele>
        <time>2020-07-09T06:07:07Z</time>
      </trkpt>
      <trkpt lat="37.3658469971" lon="-5.9855411947">
        <ele>15.04</ele>
        <time>2020-07-09T06:07:18Z</time>
      </trkpt>
      <trkpt lat="37.3661977798" lon="-5.9857501555">
        <ele>16.48</ele>
        <time>2020-07-09T06:07:26Z</time>
      </trkpt>
      <trkpt lat="37.3664752208" lon="-5.9859202243">
        <ele>16.00</ele>
        <time>2020-07-09T06:07:33Z</time>
      </trkpt>
      <trkpt lat="37.3667147756" lon="-5.9860654827">
        <ele>14.08</ele>
        <time>2020-07-09T06:07:39Z</time>
      </trkpt>
      <trkpt lat="37.3670840822" lon="-5.9862888604">
        <ele>12.63</ele>
        <time>2020-07-09T06:07:48Z</time>
      </trkpt>
      <trkpt lat="37.3675063625" lon="-5.9865263198">
        <ele>14.08</ele>
        <time>2020-07-09T06:07:58Z</time>
      </trkpt>
      <trkpt lat="37.3676914349" lon="-5.9866352007">
        <ele>15.04</ele>
        <time>2020-07-09T06:08:05Z</time>
      </trkpt>
      <trkpt lat="37.3676970508" lon="-5.9866471030">
        <ele>15.04</ele>
        <time>2020-07-09T06:08:13Z</time>
      </trkpt>
      <trkpt lat="37.3677035887" lon="-5.9866541438">
        <ele>16.48</ele>
        <time>2020-07-09T06:08:30Z</time>
      </trkpt>
      <trkpt lat="37.3677035887" lon="-5.9866519645">
        <ele>16.96</ele>
        <time>2020-07-09T06:08:42Z</time>
      </trkpt>
      <trkpt lat="37.3677010741" lon="-5.9866517968">
        <ele>16.96</ele>
        <time>2020-07-09T06:08:54Z</time>
      </trkpt>
      <trkpt lat="37.3677767627" lon="-5.9866866656">
        <ele>16.48</ele>
        <time>2020-07-09T06:09:03Z</time>
      </trkpt>
      <trkpt lat="37.3679895792" lon="-5.9868223686">
        <ele>16.96</ele>
        <time>2020-07-09T06:09:11Z</time>
      </trkpt>
      <trkpt lat="37.3682141304" lon="-5.9869792778">
        <ele>16.48</ele>
        <time>2020-07-09T06:09:18Z</time>
      </trkpt>
      <trkpt lat="37.3685111851" lon="-5.9871507715">
        <ele>15.52</ele>
        <time>2020-07-09T06:09:26Z</time>
      </trkpt>
      <trkpt lat="37.3688181303" lon="-5.9873277135">
        <ele>14.56</ele>
        <time>2020-07-09T06:09:34Z</time>
      </trkpt>
      <trkpt lat="37.3690029513" lon="-5.9874280449">
        <ele>14.56</ele>
        <time>2020-07-09T06:09:39Z</time>
      </trkpt>
      <trkpt lat="37.3691311106" lon="-5.9873230197">
        <ele>15.04</ele>
        <time>2020-07-09T06:09:44Z</time>
      </trkpt>
      <trkpt lat="37.3691567592" lon="-5.9873040766">
        <ele>15.04</ele>
        <time>2020-07-09T06:09:50Z</time>
      </trkpt>
      <trkpt lat="37.3691787198" lon="-5.9872950241">
        <ele>14.56</ele>
        <time>2020-07-09T06:10:01Z</time>
      </trkpt>
      <trkpt lat="37.3692005966" lon="-5.9872786794">
        <ele>15.04</ele>
        <time>2020-07-09T06:10:10Z</time>
      </trkpt>
      <trkpt lat="37.3692030273" lon="-5.9872790147">
        <ele>13.60</ele>
        <time>2020-07-09T06:10:21Z</time>
      </trkpt>
      <trkpt lat="37.3692355491" lon="-5.9873190802">
        <ele>12.15</ele>
        <time>2020-07-09T06:10:41Z</time>
      </trkpt>
      <trkpt lat="37.3692488763" lon="-5.9873087704">
        <ele>12.63</ele>
        <time>2020-07-09T06:10:55Z</time>
      </trkpt>
      <trkpt lat="37.3693891894" lon="-5.9874292184">
        <ele>15.04</ele>
        <time>2020-07-09T06:11:03Z</time>
      </trkpt>
      <trkpt lat="37.3694503773" lon="-5.9875124507">
        <ele>15.52</ele>
        <time>2020-07-09T06:11:06Z</time>
      </trkpt>
      <trkpt lat="37.3694779538" lon="-5.9876277018">
        <ele>15.04</ele>
        <time>2020-07-09T06:11:10Z</time>
      </trkpt>
      <trkpt lat="37.3694899399" lon="-5.9877014626">
        <ele>15.04</ele>
        <time>2020-07-09T06:11:12Z</time>
      </trkpt>
      <trkpt lat="37.3695385549" lon="-5.9877572861">
        <ele>14.08</ele>
        <time>2020-07-09T06:11:18Z</time>
      </trkpt>
      <trkpt lat="37.3695327714" lon="-5.9877607226">
        <ele>13.60</ele>
        <time>2020-07-09T06:11:30Z</time>
      </trkpt>
      <trkpt lat="37.3695259821" lon="-5.9877681825">
        <ele>13.60</ele>
        <time>2020-07-09T06:11:42Z</time>
      </trkpt>
      <trkpt lat="37.3695437517" lon="-5.9877824318">
        <ele>14.08</ele>
        <time>2020-07-09T06:11:55Z</time>
      </trkpt>
      <trkpt lat="37.3695317656" lon="-5.9877594654">
        <ele>14.08</ele>
        <time>2020-07-09T06:12:07Z</time>
      </trkpt>
      <trkpt lat="37.3695446737" lon="-5.9877534304">
        <ele>14.08</ele>
        <time>2020-07-09T06:12:18Z</time>
      </trkpt>
      <trkpt lat="37.3695480265" lon="-5.9877628181">
        <ele>14.56</ele>
        <time>2020-07-09T06:12:26Z</time>
      </trkpt>
      <trkpt lat="37.3695668019" lon="-5.9877874609">
        <ele>14.56</ele>
        <time>2020-07-09T06:12:28Z</time>
      </trkpt>
      <trkpt lat="37.3697114736" lon="-5.9878736269">
        <ele>14.08</ele>
        <time>2020-07-09T06:12:36Z</time>
      </trkpt>
      <trkpt lat="37.3698627669" lon="-5.9879514109">
        <ele>14.56</ele>
        <time>2020-07-09T06:12:43Z</time>
      </trkpt>
      <trkpt lat="37.3698857334" lon="-5.9879989363">
        <ele>14.08</ele>
        <time>2020-07-09T06:12:49Z</time>
      </trkpt>
      <trkpt lat="37.3698828835" lon="-5.9879994392">
        <ele>14.08</ele>
        <time>2020-07-09T06:12:59Z</time>
      </trkpt>
      <trkpt lat="37.3698781058" lon="-5.9880282730">
        <ele>13.12</ele>
        <time>2020-07-09T06:13:13Z</time>
      </trkpt>
      <trkpt lat="37.3698661197" lon="-5.9880164545">
        <ele>15.04</ele>
        <time>2020-07-09T06:13:25Z</time>
      </trkpt>
      <trkpt lat="37.3698666226" lon="-5.9880158678">
        <ele>15.04</ele>
        <time>2020-07-09T06:13:35Z</time>
      </trkpt>
      <trkpt lat="37.3698768485" lon="-5.9880240820">
        <ele>14.08</ele>
        <time>2020-07-09T06:13:41Z</time>
      </trkpt>
      <trkpt lat="37.3698047642" lon="-5.9881929774">
        <ele>14.08</ele>
        <time>2020-07-09T06:13:49Z</time>
      </trkpt>
      <trkpt lat="37.3697848152" lon="-5.9882462025">
        <ele>14.08</ele>
        <time>2020-07-09T06:13:51Z</time>
      </trkpt>
      <trkpt lat="37.3698477633" lon="-5.9883535746">
        <ele>14.08</ele>
        <time>2020-07-09T06:13:56Z</time>
      </trkpt>
      <trkpt lat="37.3700194247" lon="-5.9884422552">
        <ele>13.60</ele>
        <time>2020-07-09T06:14:02Z</time>
      </trkpt>
      <trkpt lat="37.3701330833" lon="-5.9884571750">
        <ele>13.60</ele>
        <time>2020-07-09T06:14:06Z</time>
      </trkpt>
      <trkpt lat="37.3705053236" lon="-5.9886766132">
        <ele>14.56</ele>
        <time>2020-07-09T06:14:16Z</time>
      </trkpt>
      <trkpt lat="37.3708956689" lon="-5.9889000747">
        <ele>15.52</ele>
        <time>2020-07-09T06:14:26Z</time>
      </trkpt>
      <trkpt lat="37.3711683322" lon="-5.9890632704">
        <ele>16.96</ele>
        <time>2020-07-09T06:14:34Z</time>
      </trkpt>
      <trkpt lat="37.3711847607" lon="-5.9890719038">
        <ele>16.48</ele>
        <time>2020-07-09T06:14:35Z</time>
      </trkpt>
      <trkpt lat="37.3712643888" lon="-5.9891464189">
        <ele>16.00</ele>
        <time>2020-07-09T06:14:42Z</time>
      </trkpt>
      <trkpt lat="37.3713316116" lon="-5.9892119654">
        <ele>16.00</ele>
        <time>2020-07-09T06:14:48Z</time>
      </trkpt>
      <trkpt lat="37.3714410793" lon="-5.9892359376">
        <ele>17.44</ele>
        <time>2020-07-09T06:14:54Z</time>
      </trkpt>
      <trkpt lat="37.3716176022" lon="-5.9893402923">
        <ele>17.44</ele>
        <time>2020-07-09T06:15:01Z</time>
      </trkpt>
      <trkpt lat="37.3719282355" lon="-5.9895196650">
        <ele>17.44</ele>
        <time>2020-07-09T06:15:10Z</time>
      </trkpt>
      <trkpt lat="37.3722235300" lon="-5.9897048213">
        <ele>16.96</ele>
        <time>2020-07-09T06:15:18Z</time>
      </trkpt>
      <trkpt lat="37.3726029787" lon="-5.9899359103">
        <ele>16.96</ele>
        <time>2020-07-09T06:15:28Z</time>
      </trkpt>
      <trkpt lat="37.3729608022" lon="-5.9901622217">
        <ele>17.44</ele>
        <time>2020-07-09T06:15:38Z</time>
      </trkpt>
      <trkpt lat="37.3734052107" lon="-5.9904323705">
        <ele>16.00</ele>
        <time>2020-07-09T06:15:49Z</time>
      </trkpt>
      <trkpt lat="37.3737602681" lon="-5.9906464443">
        <ele>15.52</ele>
        <time>2020-07-09T06:15:58Z</time>
      </trkpt>
      <trkpt lat="37.3740566522" lon="-5.9908230510">
        <ele>16.00</ele>
        <time>2020-07-09T06:16:06Z</time>
      </trkpt>
      <trkpt lat="37.3741650302" lon="-5.9908896871">
        <ele>16.00</ele>
        <time>2020-07-09T06:16:09Z</time>
      </trkpt>
      <trkpt lat="37.3742589913" lon="-5.9910055250">
        <ele>16.00</ele>
        <time>2020-07-09T06:16:13Z</time>
      </trkpt>
      <trkpt lat="37.3744674493" lon="-5.9910879191">
        <ele>15.52</ele>
        <time>2020-07-09T06:16:20Z</time>
      </trkpt>
      <trkpt lat="37.3745530285" lon="-5.9911128972">
        <ele>15.52</ele>
        <time>2020-07-09T06:16:26Z</time>
      </trkpt>
      <trkpt lat="37.3745713849" lon="-5.9911306668">
        <ele>15.52</ele>
        <time>2020-07-09T06:16:35Z</time>
      </trkpt>
      <trkpt lat="37.3746803496" lon="-5.9912121389">
        <ele>15.52</ele>
        <time>2020-07-09T06:16:41Z</time>
      </trkpt>
      <trkpt lat="37.3748049885" lon="-5.9913174156">
        <ele>15.04</ele>
        <time>2020-07-09T06:16:49Z</time>
      </trkpt>
      <trkpt lat="37.3748200759" lon="-5.9913252946">
        <ele>15.04</ele>
        <time>2020-07-09T06:16:50Z</time>
      </trkpt>
      <trkpt lat="37.3748541903" lon="-5.9913180862">
        <ele>13.60</ele>
        <time>2020-07-09T06:16:57Z</time>
      </trkpt>
      <trkpt lat="37.3748311400" lon="-5.9913263842">
        <ele>12.63</ele>
        <time>2020-07-09T06:17:09Z</time>
      </trkpt>
      <trkpt lat="37.3748360854" lon="-5.9913154040">
        <ele>11.67</ele>
        <time>2020-07-09T06:17:18Z</time>
      </trkpt>
      <trkpt lat="37.3749114387" lon="-5.9911403060">
        <ele>11.19</ele>
        <time>2020-07-09T06:17:25Z</time>
      </trkpt>
      <trkpt lat="37.3749240115" lon="-5.9911112208">
        <ele>11.19</ele>
        <time>2020-07-09T06:17:26Z</time>
      </trkpt>
      <trkpt lat="37.3749971017" lon="-5.9911103826">
        <ele>11.19</ele>
        <time>2020-07-09T06:17:30Z</time>
      </trkpt>
      <trkpt lat="37.3751358222" lon="-5.9911687206">
        <ele>12.15</ele>
        <time>2020-07-09T06:17:37Z</time>
      </trkpt>
      <trkpt lat="37.3752699327" lon="-5.9910426568">
        <ele>11.19</ele>
        <time>2020-07-09T06:17:45Z</time>
      </trkpt>
      <trkpt lat="37.3754816595" lon="-5.9909397271">
        <ele>10.71</ele>
        <time>2020-07-09T06:17:53Z</time>
      </trkpt>
      <trkpt lat="37.3755083978" lon="-5.9909246396">
        <ele>10.71</ele>
        <time>2020-07-09T06:17:54Z</time>
      </trkpt>
      <trkpt lat="37.3756030295" lon="-5.9906844143">
        <ele>10.23</ele>
        <time>2020-07-09T06:18:01Z</time>
      </trkpt>
      <trkpt lat="37.3757896107" lon="-5.9902404249">
        <ele>9.27</ele>
        <time>2020-07-09T06:18:11Z</time>
      </trkpt>
      <trkpt lat="37.3760425765" lon="-5.9896046575">
        <ele>8.31</ele>
        <time>2020-07-09T06:18:24Z</time>
      </trkpt>
      <trkpt lat="37.3761838954" lon="-5.9892298188">
        <ele>8.31</ele>
        <time>2020-07-09T06:18:32Z</time>
      </trkpt>
      <trkpt lat="37.3762857355" lon="-5.9889913537">
        <ele>8.31</ele>
        <time>2020-07-09T06:18:37Z</time>
      </trkpt>
      <trkpt lat="37.3764855601" lon="-5.9884600248">
        <ele>7.83</ele>
        <time>2020-07-09T06:18:49Z</time>
      </trkpt>
      <trkpt lat="37.3766044993" lon="-5.9881640598">
        <ele>7.35</ele>
        <time>2020-07-09T06:18:57Z</time>
      </trkpt>
      <trkpt lat="37.3766790982" lon="-5.9879297018">
        <ele>7.83</ele>
        <time>2020-07-09T06:19:05Z</time>
      </trkpt>
      <trkpt lat="37.3766814452" lon="-5.9878327232">
        <ele>7.83</ele>
        <time>2020-07-09T06:19:09Z</time>
      </trkpt>
      <trkpt lat="37.3767218459" lon="-5.9878185578">
        <ele>8.31</ele>
        <time>2020-07-09T06:19:13Z</time>
      </trkpt>
      <trkpt lat="37.3767459020" lon="-5.9879443701">
        <ele>8.31</ele>
        <time>2020-07-09T06:19:19Z</time>
      </trkpt>
      <trkpt lat="37.3766169045" lon="-5.9882557578">
        <ele>8.79</ele>
        <time>2020-07-09T06:19:30Z</time>
      </trkpt>
      <trkpt lat="37.3765749112" lon="-5.9882573504">
        <ele>9.27</ele>
        <time>2020-07-09T06:19:36Z</time>
      </trkpt>
      <trkpt lat="37.3765598238" lon="-5.9882651456">
        <ele>8.31</ele>
        <time>2020-07-09T06:19:43Z</time>
      </trkpt>
      <trkpt lat="37.3765982967" lon="-5.9883059654">
        <ele>7.83</ele>
        <time>2020-07-09T06:20:01Z</time>
      </trkpt>
      <trkpt lat="37.3765811138" lon="-5.9882692527">
        <ele>12.15</ele>
        <time>2020-07-09T06:20:16Z</time>
      </trkpt>
      <trkpt lat="37.3765764199" lon="-5.9882533271">
        <ele>16.48</ele>
        <time>2020-07-09T06:20:35Z</time>
      </trkpt>
      <trkpt lat="37.3766051698" lon="-5.9882728569">
        <ele>15.52</ele>
        <time>2020-07-09T06:20:50Z</time>
      </trkpt>
      <trkpt lat="37.3766091093" lon="-5.9882943984">
        <ele>14.08</ele>
        <time>2020-07-09T06:21:08Z</time>
      </trkpt>
      <trkpt lat="37.3765891604" lon="-5.9882922191">
        <ele>12.15</ele>
        <time>2020-07-09T06:21:25Z</time>
      </trkpt>
      <trkpt lat="37.3765655234" lon="-5.9882748686">
        <ele>16.96</ele>
        <time>2020-07-09T06:21:48Z</time>
      </trkpt>
      <trkpt lat="37.3765912559" lon="-5.9882768802">
        <ele>13.60</ele>
        <time>2020-07-09T06:22:06Z</time>
      </trkpt>
      <trkpt lat="37.3765765037" lon="-5.9882812388">
        <ele>14.08</ele>
        <time>2020-07-09T06:22:25Z</time>
      </trkpt>
      <trkpt lat="37.3765558843" lon="-5.9882889502">
        <ele>15.04</ele>
        <time>2020-07-09T06:22:42Z</time>
      </trkpt>
      <trkpt lat="37.3765623383" lon="-5.9882958233">
        <ele>15.52</ele>
        <time>2020-07-09T06:23:00Z</time>
      </trkpt>
      <trkpt lat="37.3765598238" lon="-5.9882944822">
        <ele>17.92</ele>
        <time>2020-07-09T06:23:18Z</time>
      </trkpt>
      <trkpt lat="37.3765719775" lon="-5.9882816579">
        <ele>17.44</ele>
        <time>2020-07-09T06:23:29Z</time>
      </trkpt>
      <trkpt lat="37.3765734863" lon="-5.9882783052">
        <ele>16.00</ele>
        <time>2020-07-09T06:23:34Z</time>
      </trkpt>
      <trkpt lat="37.3765899148" lon="-5.9881855175">
        <ele>14.56</ele>
        <time>2020-07-09T06:23:39Z</time>
      </trkpt>
      <trkpt lat="37.3766635917" lon="-5.9879617207">
        <ele>13.12</ele>
        <time>2020-07-09T06:23:48Z</time>
      </trkpt>
      <trkpt lat="37.3766802717" lon="-5.9878443740">
        <ele>13.12</ele>
        <time>2020-07-09T06:23:52Z</time>
      </trkpt>
      <trkpt lat="37.3767670244" lon="-5.9876310546">
        <ele>12.63</ele>
        <time>2020-07-09T06:24:00Z</time>
      </trkpt>
      <trkpt lat="37.3768865503" lon="-5.9874035697">
        <ele>13.12</ele>
        <time>2020-07-09T06:24:09Z</time>
      </trkpt>
      <trkpt lat="37.3768084310" lon="-5.9872583952">
        <ele>11.19</ele>
        <time>2020-07-09T06:24:16Z</time>
      </trkpt>
      <trkpt lat="37.3767250311" lon="-5.9871334210">
        <ele>11.67</ele>
        <time>2020-07-09T06:24:24Z</time>
      </trkpt>
      <trkpt lat="37.3765630089" lon="-5.9869050141">
        <ele>11.67</ele>
        <time>2020-07-09T06:24:34Z</time>
      </trkpt>
      <trkpt lat="37.3765635118" lon="-5.9866537247">
        <ele>12.15</ele>
        <time>2020-07-09T06:24:40Z</time>
      </trkpt>
      <trkpt lat="37.3766648490" lon="-5.9865388088">
        <ele>12.15</ele>
        <time>2020-07-09T06:24:45Z</time>
      </trkpt>
      <trkpt lat="37.3768179864" lon="-5.9865966439">
        <ele>12.63</ele>
        <time>2020-07-09T06:24:51Z</time>
      </trkpt>
      <trkpt lat="37.3770626541" lon="-5.9867161699">
        <ele>11.67</ele>
        <time>2020-07-09T06:25:01Z</time>
      </trkpt>
      <trkpt lat="37.3772059847" lon="-5.9868089575">
        <ele>11.67</ele>
        <time>2020-07-09T06:25:07Z</time>
      </trkpt>
      <trkpt lat="37.3772569466" lon="-5.9870580677">
        <ele>11.19</ele>
        <time>2020-07-09T06:25:14Z</time>
      </trkpt>
      <trkpt lat="37.3773944099" lon="-5.9873375203">
        <ele>10.71</ele>
        <time>2020-07-09T06:25:24Z</time>
      </trkpt>
      <trkpt lat="37.3774408456" lon="-5.9873679467">
        <ele>10.23</ele>
        <time>2020-07-09T06:25:27Z</time>
      </trkpt>
      <trkpt lat="37.3774716072" lon="-5.9873821959">
        <ele>10.71</ele>
        <time>2020-07-09T06:25:32Z</time>
      </trkpt>
      <trkpt lat="37.3774874490" lon="-5.9873863030">
        <ele>9.27</ele>
        <time>2020-07-09T06:25:42Z</time>
      </trkpt>
      <trkpt lat="37.3774861917" lon="-5.9874022286">
        <ele>8.79</ele>
        <time>2020-07-09T06:25:58Z</time>
      </trkpt>
      <trkpt lat="37.3774897121" lon="-5.9873782564">
        <ele>10.23</ele>
        <time>2020-07-09T06:26:15Z</time>
      </trkpt>
      <trkpt lat="37.3774858564" lon="-5.9873785917">
        <ele>9.75</ele>
        <time>2020-07-09T06:26:38Z</time>
      </trkpt>
      <trkpt lat="37.3774578609" lon="-5.9874028154">
        <ele>9.75</ele>
        <time>2020-07-09T06:26:55Z</time>
      </trkpt>
      <trkpt lat="37.3774599563" lon="-5.9873813577">
        <ele>9.75</ele>
        <time>2020-07-09T06:27:15Z</time>
      </trkpt>
      <trkpt lat="37.3774710204" lon="-5.9873906616">
        <ele>10.71</ele>
        <time>2020-07-09T06:27:36Z</time>
      </trkpt>
      <trkpt lat="37.3774908856" lon="-5.9873731434">
        <ele>10.23</ele>
        <time>2020-07-09T06:27:57Z</time>
      </trkpt>
      <trkpt lat="37.3774819169" lon="-5.9873821121">
        <ele>8.31</ele>
        <time>2020-07-09T06:28:08Z</time>
      </trkpt>
      <trkpt lat="37.3774833418" lon="-5.9873823635">
        <ele>8.31</ele>
        <time>2020-07-09T06:28:09Z</time>
      </trkpt>
      <trkpt lat="37.3774785642" lon="-5.9872827027">
        <ele>8.79</ele>
        <time>2020-07-09T06:28:16Z</time>
      </trkpt>
      <trkpt lat="37.3773332220" lon="-5.9870931040">
        <ele>8.31</ele>
        <time>2020-07-09T06:28:26Z</time>
      </trkpt>
      <trkpt lat="37.3772768117" lon="-5.9869010746">
        <ele>8.79</ele>
        <time>2020-07-09T06:28:34Z</time>
      </trkpt>
      <trkpt lat="37.3772088345" lon="-5.9867596719">
        <ele>9.27</ele>
        <time>2020-07-09T06:28:41Z</time>
      </trkpt>
      <trkpt lat="37.3771982733" lon="-5.9867160860">
        <ele>9.27</ele>
        <time>2020-07-09T06:28:48Z</time>
      </trkpt>
      <trkpt lat="37.3771847785" lon="-5.9866986517">
        <ele>13.12</ele>
        <time>2020-07-09T06:29:01Z</time>
      </trkpt>
      <trkpt lat="37.3771690205" lon="-5.9867107216">
        <ele>9.27</ele>
        <time>2020-07-09T06:29:20Z</time>
      </trkpt>
      <trkpt lat="37.3771936633" lon="-5.9866880067">
        <ele>8.31</ele>
        <time>2020-07-09T06:29:36Z</time>
      </trkpt>
      <trkpt lat="37.3771960940" lon="-5.9867030103">
        <ele>10.23</ele>
        <time>2020-07-09T06:30:00Z</time>
      </trkpt>
      <trkpt lat="37.3772148695" lon="-5.9867003281">
        <ele>10.23</ele>
        <time>2020-07-09T06:30:17Z</time>
      </trkpt>
      <trkpt lat="37.3772248439" lon="-5.9866912756">
        <ele>12.15</ele>
        <time>2020-07-09T06:30:38Z</time>
      </trkpt>
      <trkpt lat="37.3772104271" lon="-5.9867168404">
        <ele>12.15</ele>
        <time>2020-07-09T06:30:49Z</time>
      </trkpt>
      <trkpt lat="37.3771960102" lon="-5.9867175110">
        <ele>12.63</ele>
        <time>2020-07-09T06:31:08Z</time>
      </trkpt>
      <trkpt lat="37.3772142828" lon="-5.9866928682">
        <ele>12.15</ele>
        <time>2020-07-09T06:31:28Z</time>
      </trkpt>
      <trkpt lat="37.3771858681" lon="-5.9866798762">
        <ele>10.23</ele>
        <time>2020-07-09T06:31:48Z</time>
      </trkpt>
      <trkpt lat="37.3771981057" lon="-5.9867129847">
        <ele>9.75</ele>
        <time>2020-07-09T06:32:06Z</time>
      </trkpt>
      <trkpt lat="37.3771917354" lon="-5.9867157508">
        <ele>10.23</ele>
        <time>2020-07-09T06:32:22Z</time>
      </trkpt>
      <trkpt lat="37.3772161268" lon="-5.9867005795">
        <ele>11.67</ele>
        <time>2020-07-09T06:32:41Z</time>
      </trkpt>
      <trkpt lat="37.3771965131" lon="-5.9867056925">
        <ele>10.23</ele>
        <time>2020-07-09T06:33:04Z</time>
      </trkpt>
      <trkpt lat="37.3771774862" lon="-5.9867188521">
        <ele>10.23</ele>
        <time>2020-07-09T06:33:25Z</time>
      </trkpt>
      <trkpt lat="37.3771983571" lon="-5.9867091291">
        <ele>10.71</ele>
        <time>2020-07-09T06:33:42Z</time>
      </trkpt>
      <trkpt lat="37.3771727085" lon="-5.9867227077">
        <ele>9.75</ele>
        <time>2020-07-09T06:34:05Z</time>
      </trkpt>
      <trkpt lat="37.3771934956" lon="-5.9867295809">
        <ele>9.75</ele>
        <time>2020-07-09T06:34:26Z</time>
      </trkpt>
      <trkpt lat="37.3771895561" lon="-5.9867066145">
        <ele>9.27</ele>
        <time>2020-07-09T06:34:46Z</time>
      </trkpt>
      <trkpt lat="37.3771778215" lon="-5.9867094643">
        <ele>11.19</ele>
        <time>2020-07-09T06:35:06Z</time>
      </trkpt>
      <trkpt lat="37.3771938309" lon="-5.9867310058">
        <ele>9.75</ele>
        <time>2020-07-09T06:35:25Z</time>
      </trkpt>
      <trkpt lat="37.3771779053" lon="-5.9867393039">
        <ele>8.79</ele>
        <time>2020-07-09T06:35:40Z</time>
      </trkpt>
      <trkpt lat="37.3771775700" lon="-5.9867261443">
        <ele>10.23</ele>
        <time>2020-07-09T06:35:56Z</time>
      </trkpt>
      <trkpt lat="37.3772100918" lon="-5.9867148288">
        <ele>12.15</ele>
        <time>2020-07-09T06:36:10Z</time>
      </trkpt>
      <trkpt lat="37.3772125226" lon="-5.9867278207">
        <ele>11.19</ele>
        <time>2020-07-09T06:36:30Z</time>
      </trkpt>
      <trkpt lat="37.3772022966" lon="-5.9866870847">
        <ele>11.67</ele>
        <time>2020-07-09T06:36:48Z</time>
      </trkpt>
      <trkpt lat="37.3771894723" lon="-5.9867253900">
        <ele>9.27</ele>
        <time>2020-07-09T06:37:03Z</time>
      </trkpt>
      <trkpt lat="37.3772011232" lon="-5.9866964724">
        <ele>9.75</ele>
        <time>2020-07-09T06:37:19Z</time>
      </trkpt>
      <trkpt lat="37.3772028834" lon="-5.9867047705">
        <ele>7.83</ele>
        <time>2020-07-09T06:37:33Z</time>
      </trkpt>
      <trkpt lat="37.3772048112" lon="-5.9866985679">
        <ele>7.83</ele>
        <time>2020-07-09T06:37:46Z</time>
      </trkpt>
      <trkpt lat="37.3772105947" lon="-5.9867221210">
        <ele>8.31</ele>
        <time>2020-07-09T06:38:05Z</time>
      </trkpt>
      <trkpt lat="37.3771784920" lon="-5.9867221210">
        <ele>10.71</ele>
        <time>2020-07-09T06:38:21Z</time>
      </trkpt>
      <trkpt lat="37.3771745525" lon="-5.9867090452">
        <ele>10.71</ele>
        <time>2020-07-09T06:38:28Z</time>
      </trkpt>
      <trkpt lat="37.3771864548" lon="-5.9866894316">
        <ele>10.71</ele>
        <time>2020-07-09T06:38:39Z</time>
      </trkpt>
      <trkpt lat="37.3771870416" lon="-5.9866696503">
        <ele>10.71</ele>
        <time>2020-07-09T06:38:40Z</time>
      </trkpt>
      <trkpt lat="37.3772561923" lon="-5.9866780322">
        <ele>10.71</ele>
        <time>2020-07-09T06:38:46Z</time>
      </trkpt>
      <trkpt lat="37.3772633169" lon="-5.9866978973">
        <ele>10.71</ele>
        <time>2020-07-09T06:38:47Z</time>
      </trkpt>
      <trkpt lat="37.3772461340" lon="-5.9868677985">
        <ele>10.23</ele>
        <time>2020-07-09T06:38:54Z</time>
      </trkpt>
      <trkpt lat="37.3771478981" lon="-5.9870759211">
        <ele>9.75</ele>
        <time>2020-07-09T06:39:02Z</time>
      </trkpt>
      <trkpt lat="37.3769446369" lon="-5.9873781726">
        <ele>8.79</ele>
        <time>2020-07-09T06:39:13Z</time>
      </trkpt>
      <trkpt lat="37.3768641707" lon="-5.9876692761">
        <ele>8.31</ele>
        <time>2020-07-09T06:39:22Z</time>
      </trkpt>
      <trkpt lat="37.3768090177" lon="-5.9878641553">
        <ele>8.31</ele>
        <time>2020-07-09T06:39:29Z</time>
      </trkpt>
      <trkpt lat="37.3766850494" lon="-5.9880773071">
        <ele>8.31</ele>
        <time>2020-07-09T06:39:37Z</time>
      </trkpt>
      <trkpt lat="37.3765620030" lon="-5.9883590229">
        <ele>7.35</ele>
        <time>2020-07-09T06:39:45Z</time>
      </trkpt>
      <trkpt lat="37.3764477577" lon="-5.9886403196">
        <ele>6.39</ele>
        <time>2020-07-09T06:39:52Z</time>
      </trkpt>
      <trkpt lat="37.3763333447" lon="-5.9889240470">
        <ele>5.91</ele>
        <time>2020-07-09T06:40:00Z</time>
      </trkpt>
      <trkpt lat="37.3762398865" lon="-5.9891440719">
        <ele>4.94</ele>
        <time>2020-07-09T06:40:07Z</time>
      </trkpt>
      <trkpt lat="37.3761025071" lon="-5.9894785937">
        <ele>4.46</ele>
        <time>2020-07-09T06:40:16Z</time>
      </trkpt>
      <trkpt lat="37.3759621941" lon="-5.9898545220">
        <ele>3.98</ele>
        <time>2020-07-09T06:40:25Z</time>
      </trkpt>
      <trkpt lat="37.3757741880" lon="-5.9903217293">
        <ele>3.98</ele>
        <time>2020-07-09T06:40:36Z</time>
      </trkpt>
      <trkpt lat="37.3756231461" lon="-5.9907023516">
        <ele>3.50</ele>
        <time>2020-07-09T06:40:45Z</time>
      </trkpt>
      <trkpt lat="37.3755467869" lon="-5.9908493701">
        <ele>3.98</ele>
        <time>2020-07-09T06:40:50Z</time>
      </trkpt>
      <trkpt lat="37.3756192904" lon="-5.9909269027">
        <ele>5.91</ele>
        <time>2020-07-09T06:40:56Z</time>
      </trkpt>
      <trkpt lat="37.3757272493" lon="-5.9910081234">
        <ele>6.39</ele>
        <time>2020-07-09T06:41:02Z</time>
      </trkpt>
      <trkpt lat="37.3758486193" lon="-5.9911812097">
        <ele>6.39</ele>
        <time>2020-07-09T06:41:09Z</time>
      </trkpt>
      <trkpt lat="37.3759006709" lon="-5.9911771864">
        <ele>4.46</ele>
        <time>2020-07-09T06:41:14Z</time>
      </trkpt>
      <trkpt lat="37.3759175185" lon="-5.9911790304">
        <ele>3.50</ele>
        <time>2020-07-09T06:41:16Z</time>
      </trkpt>
      <trkpt lat="37.3759308457" lon="-5.9912081994">
        <ele>2.06</ele>
        <time>2020-07-09T06:41:24Z</time>
      </trkpt>
      <trkpt lat="37.3759438377" lon="-5.9912301600">
        <ele>3.98</ele>
        <time>2020-07-09T06:41:38Z</time>
      </trkpt>
      <trkpt lat="37.3759419937" lon="-5.9912506118">
        <ele>5.42</ele>
        <time>2020-07-09T06:41:52Z</time>
      </trkpt>
      <trkpt lat="37.3759492859" lon="-5.9912434034">
        <ele>9.75</ele>
        <time>2020-07-09T06:42:07Z</time>
      </trkpt>
      <trkpt lat="37.3759549856" lon="-5.9912342671">
        <ele>9.27</ele>
        <time>2020-07-09T06:42:26Z</time>
      </trkpt>
      <trkpt lat="37.3759663012" lon="-5.9912694711">
        <ele>9.75</ele>
        <time>2020-07-09T06:42:40Z</time>
      </trkpt>
      <trkpt lat="37.3759807181" lon="-5.9914227761">
        <ele>10.71</ele>
        <time>2020-07-09T06:42:48Z</time>
      </trkpt>
      <trkpt lat="37.3759060353" lon="-5.9915463254">
        <ele>10.23</ele>
        <time>2020-07-09T06:42:55Z</time>
      </trkpt>
      <trkpt lat="37.3759447597" lon="-5.9916442260">
        <ele>10.23</ele>
        <time>2020-07-09T06:43:01Z</time>
      </trkpt>
      <trkpt lat="37.3759579193" lon="-5.9916564636">
        <ele>10.23</ele>
        <time>2020-07-09T06:43:02Z</time>
      </trkpt>
      <trkpt lat="37.3759787064" lon="-5.9917054977">
        <ele>10.23</ele>
        <time>2020-07-09T06:43:10Z</time>
      </trkpt>
      <trkpt lat="37.3759687319" lon="-5.9916975349">
        <ele>10.71</ele>
        <time>2020-07-09T06:43:24Z</time>
      </trkpt>
      <trkpt lat="37.3759735934" lon="-5.9917043243">
        <ele>10.71</ele>
        <time>2020-07-09T06:43:28Z</time>
      </trkpt>
      <trkpt lat="37.3759483639" lon="-5.9917739779">
        <ele>10.71</ele>
        <time>2020-07-09T06:43:32Z</time>
      </trkpt>
      <trkpt lat="37.3759182729" lon="-5.9918797575">
        <ele>11.19</ele>
        <time>2020-07-09T06:43:36Z</time>
      </trkpt>
      <trkpt lat="37.3759682290" lon="-5.9919803403">
        <ele>11.19</ele>
        <time>2020-07-09T06:43:40Z</time>
      </trkpt>
      <trkpt lat="37.3762672953" lon="-5.9921631496">
        <ele>11.19</ele>
        <time>2020-07-09T06:43:49Z</time>
      </trkpt>
      <trkpt lat="37.3767281324" lon="-5.9924498107">
        <ele>10.71</ele>
        <time>2020-07-09T06:44:01Z</time>
      </trkpt>
      <trkpt lat="37.3771453835" lon="-5.9926995914">
        <ele>9.75</ele>
        <time>2020-07-09T06:44:11Z</time>
      </trkpt>
      <trkpt lat="37.3775971681" lon="-5.9929688182">
        <ele>9.75</ele>
        <time>2020-07-09T06:44:22Z</time>
      </trkpt>
      <trkpt lat="37.3778893612" lon="-5.9931490291">
        <ele>9.27</ele>
        <time>2020-07-09T06:44:29Z</time>
      </trkpt>
      <trkpt lat="37.3784661200" lon="-5.9934996441">
        <ele>9.75</ele>
        <time>2020-07-09T06:44:42Z</time>
      </trkpt>
      <trkpt lat="37.3789226823" lon="-5.9937847964">
        <ele>9.75</ele>
        <time>2020-07-09T06:44:53Z</time>
      </trkpt>
      <trkpt lat="37.3793086689" lon="-5.9940379299">
        <ele>9.27</ele>
        <time>2020-07-09T06:45:03Z</time>
      </trkpt>
      <trkpt lat="37.3796681687" lon="-5.9942434542">
        <ele>9.27</ele>
        <time>2020-07-09T06:45:13Z</time>
      </trkpt>
      <trkpt lat="37.3799161892" lon="-5.9943908919">
        <ele>9.27</ele>
        <time>2020-07-09T06:45:21Z</time>
      </trkpt>
      <trkpt lat="37.3802500404" lon="-5.9945594519">
        <ele>9.27</ele>
        <time>2020-07-09T06:45:31Z</time>
      </trkpt>
      <trkpt lat="37.3803383857" lon="-5.9945934825">
        <ele>8.79</ele>
        <time>2020-07-09T06:45:38Z</time>
      </trkpt>
      <trkpt lat="37.3803199455" lon="-5.9945889562">
        <ele>9.75</ele>
        <time>2020-07-09T06:45:53Z</time>
      </trkpt>
      <trkpt lat="37.3803155031" lon="-5.9945919737">
        <ele>7.83</ele>
        <time>2020-07-09T06:46:11Z</time>
      </trkpt>
      <trkpt lat="37.3803333566" lon="-5.9946016129">
        <ele>7.83</ele>
        <time>2020-07-09T06:46:14Z</time>
      </trkpt>
      <trkpt lat="37.3803980649" lon="-5.9945657384">
        <ele>8.31</ele>
        <time>2020-07-09T06:46:18Z</time>
      </trkpt>
      <trkpt lat="37.3805139866" lon="-5.9944965877">
        <ele>9.27</ele>
        <time>2020-07-09T06:46:23Z</time>
      </trkpt>
      <trkpt lat="37.3804934509" lon="-5.9944018722">
        <ele>9.75</ele>
        <time>2020-07-09T06:46:28Z</time>
      </trkpt>
      <trkpt lat="37.3803579155" lon="-5.9943136945">
        <ele>9.75</ele>
        <time>2020-07-09T06:46:35Z</time>
      </trkpt>
      <trkpt lat="37.3803454265" lon="-5.9942737129">
        <ele>9.75</ele>
        <time>2020-07-09T06:46:37Z</time>
      </trkpt>
      <trkpt lat="37.3803456780" lon="-5.9941561148">
        <ele>9.27</ele>
        <time>2020-07-09T06:46:46Z</time>
      </trkpt>
      <trkpt lat="37.3803395592" lon="-5.9941470623">
        <ele>8.31</ele>
        <time>2020-07-09T06:46:58Z</time>
      </trkpt>
      <trkpt lat="37.3803416546" lon="-5.9941214975">
        <ele>7.83</ele>
        <time>2020-07-09T06:47:14Z</time>
      </trkpt>
      <trkpt lat="37.3803584184" lon="-5.9941150434">
        <ele>7.83</ele>
        <time>2020-07-09T06:47:16Z</time>
      </trkpt>
      <trkpt lat="37.3803825583" lon="-5.9941421170">
        <ele>7.35</ele>
        <time>2020-07-09T06:47:19Z</time>
      </trkpt>
      <trkpt lat="37.3803175148" lon="-5.9942155425">
        <ele>8.31</ele>
        <time>2020-07-09T06:47:25Z</time>
      </trkpt>
      <trkpt lat="37.3803798761" lon="-5.9942473099">
        <ele>7.83</ele>
        <time>2020-07-09T06:47:29Z</time>
      </trkpt>
      <trkpt lat="37.3805886693" lon="-5.9944437817">
        <ele>9.27</ele>
        <time>2020-07-09T06:47:39Z</time>
      </trkpt>
      <trkpt lat="37.3807905894" lon="-5.9943799116">
        <ele>9.75</ele>
        <time>2020-07-09T06:47:48Z</time>
      </trkpt>
      <trkpt lat="37.3810064234" lon="-5.9942958411">
        <ele>11.19</ele>
        <time>2020-07-09T06:47:56Z</time>
      </trkpt>
      <trkpt lat="37.3811321519" lon="-5.9942544345">
        <ele>11.67</ele>
        <time>2020-07-09T06:48:03Z</time>
      </trkpt>
      <trkpt lat="37.3811689485" lon="-5.9942577872">
        <ele>13.60</ele>
        <time>2020-07-09T06:48:13Z</time>
      </trkpt>
      <trkpt lat="37.3813571222" lon="-5.9942015447">
        <ele>14.56</ele>
        <time>2020-07-09T06:48:23Z</time>
      </trkpt>
      <trkpt lat="37.3815295380" lon="-5.9941242635">
        <ele>14.56</ele>
        <time>2020-07-09T06:48:32Z</time>
      </trkpt>
      <trkpt lat="37.3815577850" lon="-5.9941099305">
        <ele>15.52</ele>
        <time>2020-07-09T06:48:38Z</time>
      </trkpt>
      <trkpt lat="37.3815707769" lon="-5.9941041470">
        <ele>16.00</ele>
        <time>2020-07-09T06:48:51Z</time>
      </trkpt>
      <trkpt lat="37.3817317095" lon="-5.9940522630">
        <ele>16.00</ele>
        <time>2020-07-09T06:49:00Z</time>
      </trkpt>
      <trkpt lat="37.3819229007" lon="-5.9939796757">
        <ele>15.52</ele>
        <time>2020-07-09T06:49:07Z</time>
      </trkpt>
      <trkpt lat="37.3821007647" lon="-5.9938741475">
        <ele>15.04</ele>
        <time>2020-07-09T06:49:14Z</time>
      </trkpt>
      <trkpt lat="37.3822150938" lon="-5.9937614948">
        <ele>14.56</ele>
        <time>2020-07-09T06:49:20Z</time>
      </trkpt>
      <trkpt lat="37.3823900241" lon="-5.9936153982">
        <ele>13.60</ele>
        <time>2020-07-09T06:49:29Z</time>
      </trkpt>
      <trkpt lat="37.3825285770" lon="-5.9935782664">
        <ele>13.60</ele>
        <time>2020-07-09T06:49:35Z</time>
      </trkpt>
      <trkpt lat="37.3827284016" lon="-5.9935354348">
        <ele>14.08</ele>
        <time>2020-07-09T06:49:43Z</time>
      </trkpt>
      <trkpt lat="37.3830412142" lon="-5.9935707226">
        <ele>12.63</ele>
        <time>2020-07-09T06:49:53Z</time>
      </trkpt>
      <trkpt lat="37.3833380174" lon="-5.9935804456">
        <ele>11.19</ele>
        <time>2020-07-09T06:50:02Z</time>
      </trkpt>
      <trkpt lat="37.3836038914" lon="-5.9936102852">
        <ele>12.15</ele>
        <time>2020-07-09T06:50:10Z</time>
      </trkpt>
      <trkpt lat="37.3838636465" lon="-5.9936796036">
        <ele>12.63</ele>
        <time>2020-07-09T06:50:19Z</time>
      </trkpt>
      <trkpt lat="37.3840302788" lon="-5.9937257878">
        <ele>13.60</ele>
        <time>2020-07-09T06:50:27Z</time>
      </trkpt>
      <trkpt lat="37.3842415866" lon="-5.9937798511">
        <ele>15.52</ele>
        <time>2020-07-09T06:50:37Z</time>
      </trkpt>
      <trkpt lat="37.3842722643" lon="-5.9937913343">
        <ele>15.52</ele>
        <time>2020-07-09T06:50:43Z</time>
      </trkpt>
      <trkpt lat="37.3842624575" lon="-5.9937873948">
        <ele>16.48</ele>
        <time>2020-07-09T06:50:54Z</time>
      </trkpt>
      <trkpt lat="37.3843109049" lon="-5.9937764145">
        <ele>18.40</ele>
        <time>2020-07-09T06:50:59Z</time>
      </trkpt>
      <trkpt lat="37.3844828177" lon="-5.9937859699">
        <ele>18.88</ele>
        <time>2020-07-09T06:51:08Z</time>
      </trkpt>
      <trkpt lat="37.3846870847" lon="-5.9938234370">
        <ele>19.36</ele>
        <time>2020-07-09T06:51:17Z</time>
      </trkpt>
      <trkpt lat="37.3848793656" lon="-5.9938480798">
        <ele>19.36</ele>
        <time>2020-07-09T06:51:25Z</time>
      </trkpt>
      <trkpt lat="37.3850689642" lon="-5.9938772488">
        <ele>18.88</ele>
        <time>2020-07-09T06:51:33Z</time>
      </trkpt>
      <trkpt lat="37.3853046633" lon="-5.9939534403">
        <ele>19.36</ele>
        <time>2020-07-09T06:51:43Z</time>
      </trkpt>
      <trkpt lat="37.3854414560" lon="-5.9939510096">
        <ele>19.84</ele>
        <time>2020-07-09T06:51:50Z</time>
      </trkpt>
      <trkpt lat="37.3854448926" lon="-5.9939444717">
        <ele>20.32</ele>
        <time>2020-07-09T06:51:55Z</time>
      </trkpt>
      <trkpt lat="37.3854604829" lon="-5.9939189069">
        <ele>20.81</ele>
        <time>2020-07-09T06:52:04Z</time>
      </trkpt>
      <trkpt lat="37.3854737263" lon="-5.9938597307">
        <ele>20.81</ele>
        <time>2020-07-09T06:52:17Z</time>
      </trkpt>
      <trkpt lat="37.3854237702" lon="-5.9938006382">
        <ele>20.32</ele>
        <time>2020-07-09T06:52:35Z</time>
      </trkpt>
      <trkpt lat="37.3854205012" lon="-5.9937315714">
        <ele>19.36</ele>
        <time>2020-07-09T06:52:51Z</time>
      </trkpt>
      <trkpt lat="37.3853971995" lon="-5.9937358461">
        <ele>18.40</ele>
        <time>2020-07-09T06:53:06Z</time>
      </trkpt>
      <trkpt lat="37.3853539489" lon="-5.9937603213">
        <ele>18.40</ele>
        <time>2020-07-09T06:53:22Z</time>
      </trkpt>
      <trkpt lat="37.3853572179" lon="-5.9937568009">
        <ele>16.96</ele>
        <time>2020-07-09T06:53:40Z</time>
      </trkpt>
      <trkpt lat="37.3853733949" lon="-5.9937276319">
        <ele>16.96</ele>
        <time>2020-07-09T06:53:55Z</time>
      </trkpt>
      <trkpt lat="37.3853418790" lon="-5.9938306455">
        <ele>18.40</ele>
        <time>2020-07-09T06:54:20Z</time>
      </trkpt>
      <trkpt lat="37.3853509314" lon="-5.9937792644">
        <ele>21.29</ele>
        <time>2020-07-09T06:54:37Z</time>
      </trkpt>
      <trkpt lat="37.3853897396" lon="-5.9937929269">
        <ele>24.65</ele>
        <time>2020-07-09T06:54:48Z</time>
      </trkpt>
      <trkpt lat="37.3853700422" lon="-5.9938096907">
        <ele>28.02</ele>
        <time>2020-07-09T06:54:54Z</time>
      </trkpt>
      <trkpt lat="37.3854436353" lon="-5.9939755686">
        <ele>23.69</ele>
        <time>2020-07-09T06:55:03Z</time>
      </trkpt>
      <trkpt lat="37.3854504246" lon="-5.9939914104">
        <ele>20.32</ele>
        <time>2020-07-09T06:55:14Z</time>
      </trkpt>
      <trkpt lat="37.3853666056" lon="-5.9939887282">
        <ele>21.77</ele>
        <time>2020-07-09T06:55:20Z</time>
      </trkpt>
      <trkpt lat="37.3852525279" lon="-5.9939658456">
        <ele>20.81</ele>
        <time>2020-07-09T06:55:27Z</time>
      </trkpt>
      <trkpt lat="37.3851620872" lon="-5.9938906599">
        <ele>19.36</ele>
        <time>2020-07-09T06:55:32Z</time>
      </trkpt>
      <trkpt lat="37.3850763403" lon="-5.9937218484">
        <ele>17.92</ele>
        <time>2020-07-09T06:55:39Z</time>
      </trkpt>
      <trkpt lat="37.3850801960" lon="-5.9935091995">
        <ele>16.00</ele>
        <time>2020-07-09T06:55:45Z</time>
      </trkpt>
      <trkpt lat="37.3851199262" lon="-5.9932009131">
        <ele>14.08</ele>
        <time>2020-07-09T06:55:54Z</time>
      </trkpt>
      <trkpt lat="37.3851325829" lon="-5.9930627793">
        <ele>13.60</ele>
        <time>2020-07-09T06:55:59Z</time>
      </trkpt>
      <trkpt lat="37.3852110375" lon="-5.9930100571">
        <ele>12.63</ele>
        <time>2020-07-09T06:56:06Z</time>
      </trkpt>
      <trkpt lat="37.3851950280" lon="-5.9929986577">
        <ele>12.63</ele>
        <time>2020-07-09T06:56:15Z</time>
      </trkpt>
      <trkpt lat="37.3851717263" lon="-5.9930089675">
        <ele>11.67</ele>
        <time>2020-07-09T06:56:32Z</time>
      </trkpt>
      <trkpt lat="37.3851470836" lon="-5.9930016752">
        <ele>9.75</ele>
        <time>2020-07-09T06:56:47Z</time>
      </trkpt>
      <trkpt lat="37.3851489276" lon="-5.9930098895">
        <ele>10.71</ele>
        <time>2020-07-09T06:57:00Z</time>
      </trkpt>
      <trkpt lat="37.3851377796" lon="-5.9929867554">
        <ele>10.71</ele>
        <time>2020-07-09T06:57:13Z</time>
      </trkpt>
      <trkpt lat="37.3851437308" lon="-5.9930036869">
        <ele>13.12</ele>
        <time>2020-07-09T06:57:30Z</time>
      </trkpt>
      <trkpt lat="37.3851520289" lon="-5.9930028487">
        <ele>16.96</ele>
        <time>2020-07-09T06:57:42Z</time>
      </trkpt>
      <trkpt lat="37.3851338401" lon="-5.9929804690">
        <ele>16.48</ele>
        <time>2020-07-09T06:57:57Z</time>
      </trkpt>
      <trkpt lat="37.3851288948" lon="-5.9929897729">
        <ele>16.48</ele>
        <time>2020-07-09T06:58:12Z</time>
      </trkpt>
      <trkpt lat="37.3851024080" lon="-5.9930041060">
        <ele>16.96</ele>
        <time>2020-07-09T06:58:25Z</time>
      </trkpt>
      <trkpt lat="37.3850889131" lon="-5.9929818101">
        <ele>17.44</ele>
        <time>2020-07-09T06:58:33Z</time>
      </trkpt>
      <trkpt lat="37.3851119634" lon="-5.9929353744">
        <ele>17.92</ele>
        <time>2020-07-09T06:58:40Z</time>
      </trkpt>
      <trkpt lat="37.3851200100" lon="-5.9929509647">
        <ele>17.92</ele>
        <time>2020-07-09T06:58:48Z</time>
      </trkpt>
      <trkpt lat="37.3851250391" lon="-5.9929384757">
        <ele>17.92</ele>
        <time>2020-07-09T06:58:55Z</time>
      </trkpt>
      <trkpt lat="37.3851137236" lon="-5.9928435087">
        <ele>16.00</ele>
        <time>2020-07-09T06:59:04Z</time>
      </trkpt>
      <trkpt lat="37.3851138912" lon="-5.9928075504">
        <ele>14.56</ele>
        <time>2020-07-09T06:59:11Z</time>
      </trkpt>
      <trkpt lat="37.3850775138" lon="-5.9927145112">
        <ele>15.52</ele>
        <time>2020-07-09T06:59:22Z</time>
      </trkpt>
      <trkpt lat="37.3850263841" lon="-5.9926681593">
        <ele>16.00</ele>
        <time>2020-07-09T06:59:29Z</time>
      </trkpt>
      <trkpt lat="37.3849138152" lon="-5.9925836697">
        <ele>16.48</ele>
        <time>2020-07-09T06:59:41Z</time>
      </trkpt>
      <trkpt lat="37.3848975543" lon="-5.9925555065">
        <ele>16.48</ele>
        <time>2020-07-09T06:59:48Z</time>
      </trkpt>
      <trkpt lat="37.3849035893" lon="-5.9925301932">
        <ele>16.00</ele>
        <time>2020-07-09T07:00:02Z</time>
      </trkpt>
      <trkpt lat="37.3848973028" lon="-5.9924853500">
        <ele>16.00</ele>
        <time>2020-07-09T07:00:10Z</time>
      </trkpt>
      <trkpt lat="37.3848797847" lon="-5.9923996869">
        <ele>16.96</ele>
        <time>2020-07-09T07:00:19Z</time>
      </trkpt>
      <trkpt lat="37.3848950397" lon="-5.9923401754">
        <ele>15.52</ele>
        <time>2020-07-09T07:00:25Z</time>
      </trkpt>
      <trkpt lat="37.3849240411" lon="-5.9922717791">
        <ele>16.00</ele>
        <time>2020-07-09T07:00:34Z</time>
      </trkpt>
      <trkpt lat="37.3849631846" lon="-5.9921891335">
        <ele>16.00</ele>
        <time>2020-07-09T07:00:41Z</time>
      </trkpt>
      <trkpt lat="37.3850369453" lon="-5.9920515865">
        <ele>16.48</ele>
        <time>2020-07-09T07:00:52Z</time>
      </trkpt>
      <trkpt lat="37.3850572295" lon="-5.9920468088">
        <ele>16.00</ele>
        <time>2020-07-09T07:00:58Z</time>
      </trkpt>
      <trkpt lat="37.3850859795" lon="-5.9920295421">
        <ele>15.04</ele>
        <time>2020-07-09T07:01:07Z</time>
      </trkpt>
      <trkpt lat="37.3851567227" lon="-5.9920024686">
        <ele>16.00</ele>
        <time>2020-07-09T07:01:15Z</time>
      </trkpt>
      <trkpt lat="37.3851883225" lon="-5.9919676837">
        <ele>15.52</ele>
        <time>2020-07-09T07:01:22Z</time>
      </trkpt>
      <trkpt lat="37.3851892445" lon="-5.9919441305">
        <ele>17.92</ele>
        <time>2020-07-09T07:01:35Z</time>
      </trkpt>
      <trkpt lat="37.3851770069" lon="-5.9919285402">
        <ele>18.40</ele>
        <time>2020-07-09T07:01:42Z</time>
      </trkpt>
      <trkpt lat="37.3851875681" lon="-5.9919257741">
        <ele>18.88</ele>
        <time>2020-07-09T07:01:49Z</time>
      </trkpt>
      <trkpt lat="37.3852956947" lon="-5.9920086712">
        <ele>18.40</ele>
        <time>2020-07-09T07:01:56Z</time>
      </trkpt>
      <trkpt lat="37.3854991235" lon="-5.9921473078">
        <ele>16.96</ele>
        <time>2020-07-09T07:02:06Z</time>
      </trkpt>
      <trkpt lat="37.3856431246" lon="-5.9922280256">
        <ele>16.00</ele>
        <time>2020-07-09T07:02:15Z</time>
      </trkpt>
      <trkpt lat="37.3858087510" lon="-5.9922265168">
        <ele>15.04</ele>
        <time>2020-07-09T07:02:23Z</time>
      </trkpt>
      <trkpt lat="37.3859802447" lon="-5.9923128504">
        <ele>15.04</ele>
        <time>2020-07-09T07:02:32Z</time>
      </trkpt>
      <trkpt lat="37.3860226572" lon="-5.9923243336">
        <ele>14.56</ele>
        <time>2020-07-09T07:02:35Z</time>
      </trkpt>
      <trkpt lat="37.3860955797" lon="-5.9923813306">
        <ele>14.08</ele>
        <time>2020-07-09T07:02:42Z</time>
      </trkpt>
      <trkpt lat="37.3861346394" lon="-5.9923877008">
        <ele>15.04</ele>
        <time>2020-07-09T07:02:48Z</time>
      </trkpt>
      <trkpt lat="37.3861510679" lon="-5.9923869465">
        <ele>15.52</ele>
        <time>2020-07-09T07:02:57Z</time>
      </trkpt>
      <trkpt lat="37.3861688375" lon="-5.9923469648">
        <ele>19.36</ele>
        <time>2020-07-09T07:03:10Z</time>
      </trkpt>
      <trkpt lat="37.3861649819" lon="-5.9923334699">
        <ele>22.73</ele>
        <time>2020-07-09T07:03:22Z</time>
      </trkpt>
      <trkpt lat="37.3861338850" lon="-5.9923397563">
        <ele>22.73</ele>
        <time>2020-07-09T07:03:39Z</time>
      </trkpt>
      <trkpt lat="37.3861289397" lon="-5.9923493955">
        <ele>21.29</ele>
        <time>2020-07-09T07:03:48Z</time>
      </trkpt>
      <trkpt lat="37.3861262575" lon="-5.9923419356">
        <ele>22.73</ele>
        <time>2020-07-09T07:04:01Z</time>
      </trkpt>
      <trkpt lat="37.3861306161" lon="-5.9923400078">
        <ele>22.73</ele>
        <time>2020-07-09T07:04:14Z</time>
      </trkpt>
      <trkpt lat="37.3861389980" lon="-5.9923302848">
        <ele>25.13</ele>
        <time>2020-07-09T07:04:27Z</time>
      </trkpt>
      <trkpt lat="37.3861242458" lon="-5.9923388343">
        <ele>23.69</ele>
        <time>2020-07-09T07:04:41Z</time>
      </trkpt>
      <trkpt lat="37.3861115053" lon="-5.9923100006">
        <ele>24.65</ele>
        <time>2020-07-09T07:04:56Z</time>
      </trkpt>
      <trkpt lat="37.3861192167" lon="-5.9923192207">
        <ele>23.69</ele>
        <time>2020-07-09T07:05:09Z</time>
      </trkpt>
      <trkpt lat="37.3861083202" lon="-5.9923374094">
        <ele>23.21</ele>
        <time>2020-07-09T07:05:26Z</time>
      </trkpt>
      <trkpt lat="37.3861614615" lon="-5.9923522454">
        <ele>21.77</ele>
        <time>2020-07-09T07:05:31Z</time>
      </trkpt>
      <trkpt lat="37.3862732761" lon="-5.9924488887">
        <ele>19.36</ele>
        <time>2020-07-09T07:05:37Z</time>
      </trkpt>
      <trkpt lat="37.3864187021" lon="-5.9925558418">
        <ele>17.44</ele>
        <time>2020-07-09T07:05:44Z</time>
      </trkpt>
      <trkpt lat="37.3865321930" lon="-5.9925778862">
        <ele>18.40</ele>
        <time>2020-07-09T07:05:51Z</time>
      </trkpt>
      <trkpt lat="37.3865113221" lon="-5.9925720189">
        <ele>17.92</ele>
        <time>2020-07-09T07:05:57Z</time>
      </trkpt>
      <trkpt lat="37.3864990845" lon="-5.9925506450">
        <ele>18.88</ele>
        <time>2020-07-09T07:06:03Z</time>
      </trkpt>
      <trkpt lat="37.3865014315" lon="-5.9925455321">
        <ele>17.92</ele>
        <time>2020-07-09T07:06:12Z</time>
      </trkpt>
      <trkpt lat="37.3864881881" lon="-5.9925623797">
        <ele>16.96</ele>
        <time>2020-07-09T07:06:25Z</time>
      </trkpt>
      <trkpt lat="37.3864991684" lon="-5.9926083125">
        <ele>18.88</ele>
        <time>2020-07-09T07:06:38Z</time>
      </trkpt>
      <trkpt lat="37.3864924628" lon="-5.9926534910">
        <ele>16.96</ele>
        <time>2020-07-09T07:06:55Z</time>
      </trkpt>
      <trkpt lat="37.3865173571" lon="-5.9926469531">
        <ele>15.04</ele>
        <time>2020-07-09T07:07:07Z</time>
      </trkpt>
      <trkpt lat="37.3864998389" lon="-5.9926317818">
        <ele>16.00</ele>
        <time>2020-07-09T07:07:23Z</time>
      </trkpt>
      <trkpt lat="37.3864616174" lon="-5.9925605357">
        <ele>16.48</ele>
        <time>2020-07-09T07:07:39Z</time>
      </trkpt>
      <trkpt lat="37.3864335380" lon="-5.9925089870">
        <ele>19.36</ele>
        <time>2020-07-09T07:07:51Z</time>
      </trkpt>
      <trkpt lat="37.3864025250" lon="-5.9925166145">
        <ele>23.69</ele>
        <time>2020-07-09T07:08:07Z</time>
      </trkpt>
      <trkpt lat="37.3863918800" lon="-5.9925086517">
        <ele>22.73</ele>
        <time>2020-07-09T07:08:18Z</time>
      </trkpt>
      <trkpt lat="37.3863959033" lon="-5.9925020300">
        <ele>22.73</ele>
        <time>2020-07-09T07:08:29Z</time>
      </trkpt>
      <trkpt lat="37.3863910418" lon="-5.9924921393">
        <ele>24.17</ele>
        <time>2020-07-09T07:08:47Z</time>
      </trkpt>
      <trkpt lat="37.3864093982" lon="-5.9924993478">
        <ele>26.09</ele>
        <time>2020-07-09T07:08:57Z</time>
      </trkpt>
      <trkpt lat="37.3864183668" lon="-5.9925130941">
        <ele>26.09</ele>
        <time>2020-07-09T07:09:13Z</time>
      </trkpt>
      <trkpt lat="37.3864100687" lon="-5.9925381560">
        <ele>22.25</ele>
        <time>2020-07-09T07:09:28Z</time>
      </trkpt>
      <trkpt lat="37.3864373937" lon="-5.9925516509">
        <ele>21.29</ele>
        <time>2020-07-09T07:09:41Z</time>
      </trkpt>
      <trkpt lat="37.3864452727" lon="-5.9925586078">
        <ele>20.81</ele>
        <time>2020-07-09T07:09:50Z</time>
      </trkpt>
      <trkpt lat="37.3864323646" lon="-5.9925591107">
        <ele>20.32</ele>
        <time>2020-07-09T07:10:05Z</time>
      </trkpt>
      <trkpt lat="37.3863858450" lon="-5.9925074782">
        <ele>24.17</ele>
        <time>2020-07-09T07:10:20Z</time>
      </trkpt>
      <trkpt lat="37.3863619566" lon="-5.9924918879">
        <ele>25.13</ele>
        <time>2020-07-09T07:10:29Z</time>
      </trkpt>
      <trkpt lat="37.3863425944" lon="-5.9924564324">
        <ele>27.05</ele>
        <time>2020-07-09T07:10:46Z</time>
      </trkpt>
      <trkpt lat="37.3863524850" lon="-5.9924467094">
        <ele>28.98</ele>
        <time>2020-07-09T07:10:58Z</time>
      </trkpt>
      <trkpt lat="37.3863524012" lon="-5.9924593661">
        <ele>30.42</ele>
        <time>2020-07-09T07:11:11Z</time>
      </trkpt>
      <trkpt lat="37.3863730207" lon="-5.9924866911">
        <ele>29.46</ele>
        <time>2020-07-09T07:11:23Z</time>
      </trkpt>
      <trkpt lat="37.3863867670" lon="-5.9924970847">
        <ele>29.94</ele>
        <time>2020-07-09T07:11:33Z</time>
      </trkpt>
      <trkpt lat="37.3863910418" lon="-5.9924828354">
        <ele>29.46</ele>
        <time>2020-07-09T07:11:35Z</time>
      </trkpt>
      <trkpt lat="37.3863008525" lon="-5.9925042093">
        <ele>28.50</ele>
        <time>2020-07-09T07:11:43Z</time>
      </trkpt>
      <trkpt lat="37.3862309474" lon="-5.9924885351">
        <ele>28.02</ele>
        <time>2020-07-09T07:11:47Z</time>
      </trkpt>
      <trkpt lat="37.3862285167" lon="-5.9924581088">
        <ele>25.61</ele>
        <time>2020-07-09T07:11:53Z</time>
      </trkpt>
      <trkpt lat="37.3863244057" lon="-5.9924566839">
        <ele>23.69</ele>
        <time>2020-07-09T07:11:58Z</time>
      </trkpt>
      <trkpt lat="37.3863811512" lon="-5.9924799018">
        <ele>21.77</ele>
        <time>2020-07-09T07:12:06Z</time>
      </trkpt>
      <trkpt lat="37.3863839172" lon="-5.9924825840">
        <ele>21.77</ele>
        <time>2020-07-09T07:12:07Z</time>
      </trkpt>
      <trkpt lat="37.3864009324" lon="-5.9924966656">
        <ele>22.25</ele>
        <time>2020-07-09T07:12:09Z</time>
      </trkpt>
      <trkpt lat="37.3863514792" lon="-5.9925343003">
        <ele>22.25</ele>
        <time>2020-07-09T07:12:15Z</time>
      </trkpt>
      <trkpt lat="37.3862954043" lon="-5.9924661554">
        <ele>21.77</ele>
        <time>2020-07-09T07:12:20Z</time>
      </trkpt>
      <trkpt lat="37.3861498106" lon="-5.9923633095">
        <ele>20.32</ele>
        <time>2020-07-09T07:12:29Z</time>
      </trkpt>
      <trkpt lat="37.3859573621" lon="-5.9922873694">
        <ele>18.88</ele>
        <time>2020-07-09T07:12:38Z</time>
      </trkpt>
      <trkpt lat="37.3857621476" lon="-5.9922585357">
        <ele>17.92</ele>
        <time>2020-07-09T07:12:46Z</time>
      </trkpt>
      <trkpt lat="37.3855230119" lon="-5.9922631457">
        <ele>17.44</ele>
        <time>2020-07-09T07:12:56Z</time>
      </trkpt>
      <trkpt lat="37.3852762487" lon="-5.9922484774">
        <ele>16.48</ele>
        <time>2020-07-09T07:13:06Z</time>
      </trkpt>
      <trkpt lat="37.3851679545" lon="-5.9923824202">
        <ele>15.04</ele>
        <time>2020-07-09T07:13:12Z</time>
      </trkpt>
      <trkpt lat="37.3851532023" lon="-5.9925699234">
        <ele>14.08</ele>
        <time>2020-07-09T07:13:18Z</time>
      </trkpt>
      <trkpt lat="37.3851565551" lon="-5.9927024413">
        <ele>12.63</ele>
        <time>2020-07-09T07:13:22Z</time>
      </trkpt>
      <trkpt lat="37.3850765079" lon="-5.9927317780">
        <ele>12.63</ele>
        <time>2020-07-09T07:13:27Z</time>
      </trkpt>
      <trkpt lat="37.3850346822" lon="-5.9926995914">
        <ele>13.12</ele>
        <time>2020-07-09T07:13:29Z</time>
      </trkpt>
      <trkpt lat="37.3847770225" lon="-5.9925627150">
        <ele>16.00</ele>
        <time>2020-07-09T07:13:39Z</time>
      </trkpt>
      <trkpt lat="37.3847280722" lon="-5.9925442748">
        <ele>16.48</ele>
        <time>2020-07-09T07:13:41Z</time>
      </trkpt>
      <trkpt lat="37.3846466839" lon="-5.9925130103">
        <ele>16.96</ele>
        <time>2020-07-09T07:13:47Z</time>
      </trkpt>
      <trkpt lat="37.3846318480" lon="-5.9925097413">
        <ele>16.00</ele>
        <time>2020-07-09T07:13:55Z</time>
      </trkpt>
      <trkpt lat="37.3846170958" lon="-5.9924884513">
        <ele>15.04</ele>
        <time>2020-07-09T07:14:14Z</time>
      </trkpt>
      <trkpt lat="37.3846202809" lon="-5.9924860206">
        <ele>15.52</ele>
        <time>2020-07-09T07:14:29Z</time>
      </trkpt>
      <trkpt lat="37.3846311774" lon="-5.9924876131">
        <ele>15.52</ele>
        <time>2020-07-09T07:14:46Z</time>
      </trkpt>
      <trkpt lat="37.3846381344" lon="-5.9924850147">
        <ele>15.04</ele>
        <time>2020-07-09T07:15:02Z</time>
      </trkpt>
      <trkpt lat="37.3846279085" lon="-5.9925016947">
        <ele>16.00</ele>
        <time>2020-07-09T07:15:14Z</time>
      </trkpt>
      <trkpt lat="37.3846551497" lon="-5.9925409220">
        <ele>15.52</ele>
        <time>2020-07-09T07:15:18Z</time>
      </trkpt>
      <trkpt lat="37.3847719934" lon="-5.9926288482">
        <ele>14.08</ele>
        <time>2020-07-09T07:15:28Z</time>
      </trkpt>
      <trkpt lat="37.3849131446" lon="-5.9926926345">
        <ele>16.00</ele>
        <time>2020-07-09T07:15:37Z</time>
      </trkpt>
      <trkpt lat="37.3850625101" lon="-5.9927806444">
        <ele>15.52</ele>
        <time>2020-07-09T07:15:46Z</time>
      </trkpt>
      <trkpt lat="37.3851199262" lon="-5.9928706661">
        <ele>14.56</ele>
        <time>2020-07-09T07:15:50Z</time>
      </trkpt>
      <trkpt lat="37.3851014022" lon="-5.9931331873">
        <ele>14.08</ele>
        <time>2020-07-09T07:15:58Z</time>
      </trkpt>
      <trkpt lat="37.3850674555" lon="-5.9934702236">
        <ele>11.67</ele>
        <time>2020-07-09T07:16:07Z</time>
      </trkpt>
      <trkpt lat="37.3850858957" lon="-5.9937071800">
        <ele>10.71</ele>
        <time>2020-07-09T07:16:14Z</time>
      </trkpt>
      <trkpt lat="37.3850459140" lon="-5.9938443918">
        <ele>10.71</ele>
        <time>2020-07-09T07:16:21Z</time>
      </trkpt>
      <trkpt lat="37.3850012384" lon="-5.9939129557">
        <ele>10.23</ele>
        <time>2020-07-09T07:16:24Z</time>
      </trkpt>
      <trkpt lat="37.3847942892" lon="-5.9939034842">
        <ele>10.71</ele>
        <time>2020-07-09T07:16:31Z</time>
      </trkpt>
      <trkpt lat="37.3845191114" lon="-5.9938598983">
        <ele>10.71</ele>
        <time>2020-07-09T07:16:39Z</time>
      </trkpt>
      <trkpt lat="37.3842210509" lon="-5.9938283823">
        <ele>9.75</ele>
        <time>2020-07-09T07:16:47Z</time>
      </trkpt>
      <trkpt lat="37.3839255050" lon="-5.9937823657">
        <ele>12.15</ele>
        <time>2020-07-09T07:16:55Z</time>
      </trkpt>
      <trkpt lat="37.3835815955" lon="-5.9936987143">
        <ele>14.08</ele>
        <time>2020-07-09T07:17:04Z</time>
      </trkpt>
      <trkpt lat="37.3835433740" lon="-5.9936894942">
        <ele>14.56</ele>
        <time>2020-07-09T07:17:05Z</time>
      </trkpt>
      <trkpt lat="37.3831849638" lon="-5.9936283063">
        <ele>16.00</ele>
        <time>2020-07-09T07:17:14Z</time>
      </trkpt>
      <trkpt lat="37.3828897532" lon="-5.9935436491">
        <ele>16.48</ele>
        <time>2020-07-09T07:17:22Z</time>
      </trkpt>
      <trkpt lat="37.3827239592" lon="-5.9935798589">
        <ele>16.48</ele>
        <time>2020-07-09T07:17:27Z</time>
      </trkpt>
      <trkpt lat="37.3823906109" lon="-5.9937018156">
        <ele>16.48</ele>
        <time>2020-07-09T07:17:37Z</time>
      </trkpt>
      <trkpt lat="37.3823259026" lon="-5.9937290568">
        <ele>16.48</ele>
        <time>2020-07-09T07:17:39Z</time>
      </trkpt>
      <trkpt lat="37.3822268285" lon="-5.9938583896">
        <ele>15.04</ele>
        <time>2020-07-09T07:17:45Z</time>
      </trkpt>
      <trkpt lat="37.3822119087" lon="-5.9940040670">
        <ele>13.60</ele>
        <time>2020-07-09T07:17:50Z</time>
      </trkpt>
      <trkpt lat="37.3822499625" lon="-5.9943360742">
        <ele>13.12</ele>
        <time>2020-07-09T07:17:59Z</time>
      </trkpt>
      <trkpt lat="37.3822958115" lon="-5.9946851805">
        <ele>11.67</ele>
        <time>2020-07-09T07:18:08Z</time>
      </trkpt>
      <trkpt lat="37.3823190294" lon="-5.9949079715">
        <ele>11.19</ele>
        <time>2020-07-09T07:18:16Z</time>
      </trkpt>
      <trkpt lat="37.3823416606" lon="-5.9951196145">
        <ele>10.23</ele>
        <time>2020-07-09T07:18:23Z</time>
      </trkpt>
      <trkpt lat="37.3823693208" lon="-5.9954235423">
        <ele>9.75</ele>
        <time>2020-07-09T07:18:32Z</time>
      </trkpt>
      <trkpt lat="37.3823670577" lon="-5.9954892565">
        <ele>9.75</ele>
        <time>2020-07-09T07:18:34Z</time>
      </trkpt>
      <trkpt lat="37.3822220508" lon="-5.9956354368">
        <ele>11.19</ele>
        <time>2020-07-09T07:18:42Z</time>
      </trkpt>
      <trkpt lat="37.3821872659" lon="-5.9956657793">
        <ele>11.67</ele>
        <time>2020-07-09T07:18:48Z</time>
      </trkpt>
      <trkpt lat="37.3821929656" lon="-5.9956678748">
        <ele>14.08</ele>
        <time>2020-07-09T07:19:04Z</time>
      </trkpt>
      <trkpt lat="37.3821984977" lon="-5.9956513625">
        <ele>15.04</ele>
        <time>2020-07-09T07:19:19Z</time>
      </trkpt>
      <trkpt lat="37.3821942229" lon="-5.9956478421">
        <ele>15.52</ele>
        <time>2020-07-09T07:19:32Z</time>
      </trkpt>
      <trkpt lat="37.3821945582" lon="-5.9956604987">
        <ele>16.00</ele>
        <time>2020-07-09T07:19:42Z</time>
      </trkpt>
      <trkpt lat="37.3821543250" lon="-5.9957380313">
        <ele>15.04</ele>
        <time>2020-07-09T07:19:48Z</time>
      </trkpt>
      <trkpt lat="37.3820855096" lon="-5.9958288912">
        <ele>15.04</ele>
        <time>2020-07-09T07:19:52Z</time>
      </trkpt>
      <trkpt lat="37.3819410894" lon="-5.9957729001">
        <ele>15.04</ele>
        <time>2020-07-09T07:19:59Z</time>
      </trkpt>
      <trkpt lat="37.3818572704" lon="-5.9957208484">
        <ele>15.04</ele>
        <time>2020-07-09T07:20:03Z</time>
      </trkpt>
      <trkpt lat="37.3816888779" lon="-5.9956580680">
        <ele>15.52</ele>
        <time>2020-07-09T07:20:10Z</time>
      </trkpt>
      <trkpt lat="37.3814446293" lon="-5.9954955429">
        <ele>16.48</ele>
        <time>2020-07-09T07:20:20Z</time>
      </trkpt>
      <trkpt lat="37.3814227525" lon="-5.9954864066">
        <ele>16.48</ele>
        <time>2020-07-09T07:20:21Z</time>
      </trkpt>
      <trkpt lat="37.3813902307" lon="-5.9955439065">
        <ele>15.52</ele>
        <time>2020-07-09T07:20:26Z</time>
      </trkpt>
      <trkpt lat="37.3813819326" lon="-5.9955376200">
        <ele>16.00</ele>
        <time>2020-07-09T07:20:31Z</time>
      </trkpt>
      <trkpt lat="37.3814763129" lon="-5.9956314135">
        <ele>14.08</ele>
        <time>2020-07-09T07:20:37Z</time>
      </trkpt>
      <trkpt lat="37.3817433603" lon="-5.9958665259">
        <ele>11.19</ele>
        <time>2020-07-09T07:20:47Z</time>
      </trkpt>
      <trkpt lat="37.3819960747" lon="-5.9962013829">
        <ele>9.27</ele>
        <time>2020-07-09T07:20:57Z</time>
      </trkpt>
      <trkpt lat="37.3821393214" lon="-5.9963166341">
        <ele>7.83</ele>
        <time>2020-07-09T07:21:03Z</time>
      </trkpt>
      <trkpt lat="37.3821615335" lon="-5.9963308834">
        <ele>7.83</ele>
        <time>2020-07-09T07:21:08Z</time>
      </trkpt>
      <trkpt lat="37.3821617011" lon="-5.9963315539">
        <ele>8.31</ele>
        <time>2020-07-09T07:21:16Z</time>
      </trkpt>
      <trkpt lat="37.3821504693" lon="-5.9963432048">
        <ele>9.27</ele>
        <time>2020-07-09T07:21:39Z</time>
      </trkpt>
      <trkpt lat="37.3821417522" lon="-5.9963296261">
        <ele>10.71</ele>
        <time>2020-07-09T07:21:54Z</time>
      </trkpt>
      <trkpt lat="37.3821479548" lon="-5.9963410255">
        <ele>8.79</ele>
        <time>2020-07-09T07:22:16Z</time>
      </trkpt>
      <trkpt lat="37.3821503017" lon="-5.9963578731">
        <ele>5.42</ele>
        <time>2020-07-09T07:22:36Z</time>
      </trkpt>
      <trkpt lat="37.3821546603" lon="-5.9963380918">
        <ele>4.94</ele>
        <time>2020-07-09T07:22:47Z</time>
      </trkpt>
      <trkpt lat="37.3821553309" lon="-5.9963344038">
        <ele>5.42</ele>
        <time>2020-07-09T07:22:53Z</time>
      </trkpt>
      <trkpt lat="37.3822047003" lon="-5.9964478947">
        <ele>6.87</ele>
        <time>2020-07-09T07:22:59Z</time>
      </trkpt>
      <trkpt lat="37.3824328557" lon="-5.9966717754">
        <ele>6.87</ele>
        <time>2020-07-09T07:23:08Z</time>
      </trkpt>
      <trkpt lat="37.3827801179" lon="-5.9970042016">
        <ele>6.87</ele>
        <time>2020-07-09T07:23:19Z</time>
      </trkpt>
      <trkpt lat="37.3830803577" lon="-5.9972913656">
        <ele>6.39</ele>
        <time>2020-07-09T07:23:29Z</time>
      </trkpt>
      <trkpt lat="37.3834167235" lon="-5.9976426512">
        <ele>5.91</ele>
        <time>2020-07-09T07:23:40Z</time>
      </trkpt>
      <trkpt lat="37.3835534323" lon="-5.9977992252">
        <ele>6.39</ele>
        <time>2020-07-09T07:23:47Z</time>
      </trkpt>
      <trkpt lat="37.3835621495" lon="-5.9978052601">
        <ele>6.39</ele>
        <time>2020-07-09T07:23:48Z</time>
      </trkpt>
      <trkpt lat="37.3835966829" lon="-5.9978257958">
        <ele>6.39</ele>
        <time>2020-07-09T07:23:56Z</time>
      </trkpt>
      <trkpt lat="37.3836461361" lon="-5.9978907555">
        <ele>6.39</ele>
        <time>2020-07-09T07:24:03Z</time>
      </trkpt>
      <trkpt lat="37.3838159535" lon="-5.9980722237">
        <ele>6.39</ele>
        <time>2020-07-09T07:24:12Z</time>
      </trkpt>
      <trkpt lat="37.3840517364" lon="-5.9983307216">
        <ele>6.39</ele>
        <time>2020-07-09T07:24:23Z</time>
      </trkpt>
      <trkpt lat="37.3841899540" lon="-5.9985629003">
        <ele>5.91</ele>
        <time>2020-07-09T07:24:32Z</time>
      </trkpt>
      <trkpt lat="37.3842536565" lon="-5.9987077396">
        <ele>4.46</ele>
        <time>2020-07-09T07:24:39Z</time>
      </trkpt>
      <trkpt lat="37.3843275011" lon="-5.9988074005">
        <ele>4.94</ele>
        <time>2020-07-09T07:24:48Z</time>
      </trkpt>
      <trkpt lat="37.3844476976" lon="-5.9988119267">
        <ele>7.83</ele>
        <time>2020-07-09T07:24:57Z</time>
      </trkpt>
      <trkpt lat="37.3844804708" lon="-5.9988300316">
        <ele>8.31</ele>
        <time>2020-07-09T07:24:59Z</time>
      </trkpt>
      <trkpt lat="37.3847220372" lon="-5.9990798961">
        <ele>8.31</ele>
        <time>2020-07-09T07:25:10Z</time>
      </trkpt>
      <trkpt lat="37.3850509431" lon="-5.9994498733">
        <ele>7.83</ele>
        <time>2020-07-09T07:25:22Z</time>
      </trkpt>
      <trkpt lat="37.3852997180" lon="-5.9997253027">
        <ele>7.35</ele>
        <time>2020-07-09T07:25:30Z</time>
      </trkpt>
      <trkpt lat="37.3854837846" lon="-5.9999312460">
        <ele>7.35</ele>
        <time>2020-07-09T07:25:37Z</time>
      </trkpt>
      <trkpt lat="37.3855644185" lon="-6.0000020731">
        <ele>7.35</ele>
        <time>2020-07-09T07:25:40Z</time>
      </trkpt>
      <trkpt lat="37.3856385984" lon="-5.9999302402">
        <ele>7.83</ele>
        <time>2020-07-09T07:25:45Z</time>
      </trkpt>
      <trkpt lat="37.3856134526" lon="-5.9998192638">
        <ele>7.35</ele>
        <time>2020-07-09T07:25:49Z</time>
      </trkpt>
      <trkpt lat="37.3855215870" lon="-5.9996887576">
        <ele>8.31</ele>
        <time>2020-07-09T07:25:56Z</time>
      </trkpt>
      <trkpt lat="37.3855179828" lon="-5.9996919427">
        <ele>8.79</ele>
        <time>2020-07-09T07:26:06Z</time>
      </trkpt>
      <trkpt lat="37.3855149653" lon="-5.9996709041">
        <ele>13.12</ele>
        <time>2020-07-09T07:26:33Z</time>
      </trkpt>
      <trkpt lat="37.3855167255" lon="-5.9996859916">
        <ele>13.60</ele>
        <time>2020-07-09T07:26:55Z</time>
      </trkpt>
      <trkpt lat="37.3855006322" lon="-5.9997351095">
        <ele>13.60</ele>
        <time>2020-07-09T07:27:01Z</time>
      </trkpt>
      <trkpt lat="37.3855018057" lon="-5.9997448325">
        <ele>14.08</ele>
        <time>2020-07-09T07:27:02Z</time>
      </trkpt>
      <trkpt lat="37.3856169730" lon="-5.9999096207">
        <ele>15.52</ele>
        <time>2020-07-09T07:27:12Z</time>
      </trkpt>
      <trkpt lat="37.3855947610" lon="-6.0000186693">
        <ele>14.56</ele>
        <time>2020-07-09T07:27:18Z</time>
      </trkpt>
      <trkpt lat="37.3856199067" lon="-6.0001280531">
        <ele>13.60</ele>
        <time>2020-07-09T07:27:23Z</time>
      </trkpt>
      <trkpt lat="37.3856596369" lon="-6.0002495069">
        <ele>13.12</ele>
        <time>2020-07-09T07:27:31Z</time>
      </trkpt>
      <trkpt lat="37.3856695276" lon="-6.0002570506">
        <ele>12.15</ele>
        <time>2020-07-09T07:27:53Z</time>
      </trkpt>
      <trkpt lat="37.3856652528" lon="-6.0002568830">
        <ele>11.19</ele>
        <time>2020-07-09T07:28:04Z</time>
      </trkpt>
      <trkpt lat="37.3856598884" lon="-6.0002711322">
        <ele>11.67</ele>
        <time>2020-07-09T07:28:18Z</time>
      </trkpt>
      <trkpt lat="37.3856628221" lon="-6.0002810229">
        <ele>12.15</ele>
        <time>2020-07-09T07:28:29Z</time>
      </trkpt>
      <trkpt lat="37.3856633250" lon="-6.0002759099">
        <ele>11.67</ele>
        <time>2020-07-09T07:28:44Z</time>
      </trkpt>
      <trkpt lat="37.3856736347" lon="-6.0002676118">
        <ele>10.71</ele>
        <time>2020-07-09T07:28:58Z</time>
      </trkpt>
      <trkpt lat="37.3856683541" lon="-6.0002622474">
        <ele>9.75</ele>
        <time>2020-07-09T07:29:13Z</time>
      </trkpt>
      <trkpt lat="37.3856701143" lon="-6.0002548713">
        <ele>9.75</ele>
        <time>2020-07-09T07:29:19Z</time>
      </trkpt>
      <trkpt lat="37.3857126944" lon="-6.0002738144">
        <ele>9.27</ele>
        <time>2020-07-09T07:29:23Z</time>
      </trkpt>
      <trkpt lat="37.3858646583" lon="-6.0003170650">
        <ele>8.79</ele>
        <time>2020-07-09T07:29:30Z</time>
      </trkpt>
      <trkpt lat="37.3861102480" lon="-6.0005960986">
        <ele>8.79</ele>
        <time>2020-07-09T07:29:40Z</time>
      </trkpt>
      <trkpt lat="37.3862590268" lon="-6.0007583722">
        <ele>8.79</ele>
        <time>2020-07-09T07:29:47Z</time>
      </trkpt>
      <trkpt lat="37.3863524850" lon="-6.0006967653">
        <ele>8.79</ele>
        <time>2020-07-09T07:29:53Z</time>
      </trkpt>
      <trkpt lat="37.3863622081" lon="-6.0005761497">
        <ele>9.75</ele>
        <time>2020-07-09T07:29:58Z</time>
      </trkpt>
      <trkpt lat="37.3861793149" lon="-6.0003702901">
        <ele>12.63</ele>
        <time>2020-07-09T07:30:07Z</time>
      </trkpt>
      <trkpt lat="37.3860232439" lon="-6.0001676157">
        <ele>13.60</ele>
        <time>2020-07-09T07:30:15Z</time>
      </trkpt>
      <trkpt lat="37.3860182986" lon="-6.0001248680">
        <ele>14.08</ele>
        <time>2020-07-09T07:30:17Z</time>
      </trkpt>
      <trkpt lat="37.3860829230" lon="-6.0001362674">
        <ele>13.60</ele>
        <time>2020-07-09T07:30:22Z</time>
      </trkpt>
      <trkpt lat="37.3863015231" lon="-6.0003939271">
        <ele>14.08</ele>
        <time>2020-07-09T07:30:31Z</time>
      </trkpt>
      <trkpt lat="37.3865365516" lon="-6.0006432887">
        <ele>14.56</ele>
        <time>2020-07-09T07:30:40Z</time>
      </trkpt>
      <trkpt lat="37.3867728375" lon="-6.0009059776">
        <ele>14.56</ele>
        <time>2020-07-09T07:30:50Z</time>
      </trkpt>
      <trkpt lat="37.3869444989" lon="-6.0010854341">
        <ele>14.08</ele>
        <time>2020-07-09T07:30:57Z</time>
      </trkpt>
      <trkpt lat="37.3870469257" lon="-6.0012813192">
        <ele>15.04</ele>
        <time>2020-07-09T07:31:04Z</time>
      </trkpt>
      <trkpt lat="37.3871368635" lon="-6.0014575906">
        <ele>16.48</ele>
        <time>2020-07-09T07:31:11Z</time>
      </trkpt>
      <trkpt lat="37.3871532083" lon="-6.0014985781">
        <ele>16.48</ele>
        <time>2020-07-09T07:31:17Z</time>
      </trkpt>
      <trkpt lat="37.3871774320" lon="-6.0015597660">
        <ele>17.44</ele>
        <time>2020-07-09T07:31:27Z</time>
      </trkpt>
      <trkpt lat="37.3872065172" lon="-6.0016028490">
        <ele>16.96</ele>
        <time>2020-07-09T07:31:29Z</time>
      </trkpt>
      <trkpt lat="37.3871468380" lon="-6.0017014202">
        <ele>17.92</ele>
        <time>2020-07-09T07:31:34Z</time>
      </trkpt>
      <trkpt lat="37.3869188502" lon="-6.0018972214">
        <ele>17.44</ele>
        <time>2020-07-09T07:31:43Z</time>
      </trkpt>
      <trkpt lat="37.3866494559" lon="-6.0021281429">
        <ele>16.96</ele>
        <time>2020-07-09T07:31:52Z</time>
      </trkpt>
      <trkpt lat="37.3862902913" lon="-6.0024334956">
        <ele>16.48</ele>
        <time>2020-07-09T07:32:04Z</time>
      </trkpt>
      <trkpt lat="37.3859913927" lon="-6.0027031414">
        <ele>15.52</ele>
        <time>2020-07-09T07:32:14Z</time>
      </trkpt>
      <trkpt lat="37.3855298012" lon="-6.0031084903">
        <ele>16.00</ele>
        <time>2020-07-09T07:32:29Z</time>
      </trkpt>
      <trkpt lat="37.3852512706" lon="-6.0033662338">
        <ele>13.60</ele>
        <time>2020-07-09T07:32:38Z</time>
      </trkpt>
      <trkpt lat="37.3850350175" lon="-6.0035298485">
        <ele>12.15</ele>
        <time>2020-07-09T07:32:46Z</time>
      </trkpt>
      <trkpt lat="37.3848572373" lon="-6.0036823153">
        <ele>10.23</ele>
        <time>2020-07-09T07:32:52Z</time>
      </trkpt>
      <trkpt lat="37.3844986595" lon="-6.0040236264">
        <ele>9.27</ele>
        <time>2020-07-09T07:33:04Z</time>
      </trkpt>
      <trkpt lat="37.3842467833" lon="-6.0042734072">
        <ele>9.75</ele>
        <time>2020-07-09T07:33:13Z</time>
      </trkpt>
      <trkpt lat="37.3840386607" lon="-6.0045697074">
        <ele>9.75</ele>
        <time>2020-07-09T07:33:21Z</time>
      </trkpt>
      <trkpt lat="37.3840115033" lon="-6.0046059173">
        <ele>9.75</ele>
        <time>2020-07-09T07:33:22Z</time>
      </trkpt>
      <trkpt lat="37.3837530054" lon="-6.0049820971">
        <ele>11.19</ele>
        <time>2020-07-09T07:33:32Z</time>
      </trkpt>
      <trkpt lat="37.3837582022" lon="-6.0051068198">
        <ele>11.19</ele>
        <time>2020-07-09T07:33:36Z</time>
      </trkpt>
      <trkpt lat="37.3838593718" lon="-6.0052293632">
        <ele>9.27</ele>
        <time>2020-07-09T07:33:40Z</time>
      </trkpt>
      <trkpt lat="37.3841930553" lon="-6.0055062175">
        <ele>7.35</ele>
        <time>2020-07-09T07:33:50Z</time>
      </trkpt>
      <trkpt lat="37.3844968155" lon="-6.0057640448">
        <ele>8.31</ele>
        <time>2020-07-09T07:33:59Z</time>
      </trkpt>
      <trkpt lat="37.3847531341" lon="-6.0060005821">
        <ele>11.19</ele>
        <time>2020-07-09T07:34:08Z</time>
      </trkpt>
      <trkpt lat="37.3849832173" lon="-6.0062737484">
        <ele>13.60</ele>
        <time>2020-07-09T07:34:16Z</time>
      </trkpt>
      <trkpt lat="37.3852156475" lon="-6.0066310689">
        <ele>15.52</ele>
        <time>2020-07-09T07:34:25Z</time>
      </trkpt>
      <trkpt lat="37.3854601476" lon="-6.0070271138">
        <ele>16.48</ele>
        <time>2020-07-09T07:34:35Z</time>
      </trkpt>
      <trkpt lat="37.3855064157" lon="-6.0071074963">
        <ele>16.48</ele>
        <time>2020-07-09T07:34:37Z</time>
      </trkpt>
      <trkpt lat="37.3857439589" lon="-6.0075024515">
        <ele>17.44</ele>
        <time>2020-07-09T07:34:47Z</time>
      </trkpt>
      <trkpt lat="37.3858135287" lon="-6.0076695029">
        <ele>15.52</ele>
        <time>2020-07-09T07:34:54Z</time>
      </trkpt>
      <trkpt lat="37.3858593777" lon="-6.0077716783">
        <ele>16.00</ele>
        <time>2020-07-09T07:34:59Z</time>
      </trkpt>
      <trkpt lat="37.3860172927" lon="-6.0077994224">
        <ele>20.32</ele>
        <time>2020-07-09T07:35:05Z</time>
      </trkpt>
      <trkpt lat="37.3863775469" lon="-6.0077964049">
        <ele>22.25</ele>
        <time>2020-07-09T07:35:14Z</time>
      </trkpt>
      <trkpt lat="37.3866534792" lon="-6.0078062117">
        <ele>19.84</ele>
        <time>2020-07-09T07:35:22Z</time>
      </trkpt>
      <trkpt lat="37.3867169302" lon="-6.0078000929">
        <ele>17.92</ele>
        <time>2020-07-09T07:35:28Z</time>
      </trkpt>
      <trkpt lat="37.3867721669" lon="-6.0077863466">
        <ele>17.44</ele>
        <time>2020-07-09T07:35:38Z</time>
      </trkpt>
      <trkpt lat="37.3869305849" lon="-6.0077571776">
        <ele>18.40</ele>
        <time>2020-07-09T07:35:45Z</time>
      </trkpt>
      <trkpt lat="37.3871451616" lon="-6.0077614523">
        <ele>19.36</ele>
        <time>2020-07-09T07:35:52Z</time>
      </trkpt>
      <trkpt lat="37.3873808607" lon="-6.0078109894">
        <ele>19.84</ele>
        <time>2020-07-09T07:35:59Z</time>
      </trkpt>
      <trkpt lat="37.3874217644" lon="-6.0078217182">
        <ele>19.84</ele>
        <time>2020-07-09T07:36:00Z</time>
      </trkpt>
      <trkpt lat="37.3878336512" lon="-6.0078670643">
        <ele>25.13</ele>
        <time>2020-07-09T07:36:10Z</time>
      </trkpt>
      <trkpt lat="37.3880547658" lon="-6.0078573413">
        <ele>25.13</ele>
        <time>2020-07-09T07:36:16Z</time>
      </trkpt>
      <trkpt lat="37.3883702606" lon="-6.0077268351">
        <ele>26.09</ele>
        <time>2020-07-09T07:36:24Z</time>
      </trkpt>
      <trkpt lat="37.3884586897" lon="-6.0076567624">
        <ele>25.13</ele>
        <time>2020-07-09T07:36:30Z</time>
      </trkpt>
      <trkpt lat="37.3884726036" lon="-6.0076470394">
        <ele>24.65</ele>
        <time>2020-07-09T07:36:31Z</time>
      </trkpt>
      <trkpt lat="37.3885619547" lon="-6.0077592731">
        <ele>23.21</ele>
        <time>2020-07-09T07:36:37Z</time>
      </trkpt>
      <trkpt lat="37.3886598554" lon="-6.0081818048">
        <ele>21.29</ele>
        <time>2020-07-09T07:36:47Z</time>
      </trkpt>
      <trkpt lat="37.3887761123" lon="-6.0085411370">
        <ele>20.32</ele>
        <time>2020-07-09T07:36:55Z</time>
      </trkpt>
      <trkpt lat="37.3888994101" lon="-6.0089961905">
        <ele>17.44</ele>
        <time>2020-07-09T07:37:05Z</time>
      </trkpt>
      <trkpt lat="37.3890243843" lon="-6.0094263498">
        <ele>17.44</ele>
        <time>2020-07-09T07:37:14Z</time>
      </trkpt>
      <trkpt lat="37.3891532142" lon="-6.0098330397">
        <ele>17.92</ele>
        <time>2020-07-09T07:37:23Z</time>
      </trkpt>
      <trkpt lat="37.3892408051" lon="-6.0101865046">
        <ele>17.44</ele>
        <time>2020-07-09T07:37:32Z</time>
      </trkpt>
      <trkpt lat="37.3892795295" lon="-6.0102857463">
        <ele>16.96</ele>
        <time>2020-07-09T07:37:38Z</time>
      </trkpt>
      <trkpt lat="37.3892877437" lon="-6.0102668870">
        <ele>17.44</ele>
        <time>2020-07-09T07:37:43Z</time>
      </trkpt>
      <trkpt lat="37.3894568067" lon="-6.0102160089">
        <ele>17.44</ele>
        <time>2020-07-09T07:37:52Z</time>
      </trkpt>
      <trkpt lat="37.3896220140" lon="-6.0101709981">
        <ele>19.36</ele>
        <time>2020-07-09T07:37:58Z</time>
      </trkpt>
      <trkpt lat="37.3896660190" lon="-6.0102882609">
        <ele>20.81</ele>
        <time>2020-07-09T07:38:03Z</time>
      </trkpt>
      <trkpt lat="37.3896419629" lon="-6.0104173422">
        <ele>21.29</ele>
        <time>2020-07-09T07:38:08Z</time>
      </trkpt>
      <trkpt lat="37.3894533701" lon="-6.0104256403">
        <ele>20.32</ele>
        <time>2020-07-09T07:38:14Z</time>
      </trkpt>
      <trkpt lat="37.3893532064" lon="-6.0104530491">
        <ele>19.36</ele>
        <time>2020-07-09T07:38:17Z</time>
      </trkpt>
      <trkpt lat="37.3893338442" lon="-6.0105879139">
        <ele>18.88</ele>
        <time>2020-07-09T07:38:21Z</time>
      </trkpt>
      <trkpt lat="37.3893211875" lon="-6.0108442325">
        <ele>19.36</ele>
        <time>2020-07-09T07:38:29Z</time>
      </trkpt>
      <trkpt lat="37.3893109616" lon="-6.0109997168">
        <ele>19.84</ele>
        <time>2020-07-09T07:38:36Z</time>
      </trkpt>
      <trkpt lat="37.3893279769" lon="-6.0112259444">
        <ele>20.32</ele>
        <time>2020-07-09T07:38:43Z</time>
      </trkpt>
      <trkpt lat="37.3893273063" lon="-6.0115204006">
        <ele>20.81</ele>
        <time>2020-07-09T07:38:51Z</time>
      </trkpt>
      <trkpt lat="37.3893174157" lon="-6.0117948242">
        <ele>20.81</ele>
        <time>2020-07-09T07:38:58Z</time>
      </trkpt>
      <trkpt lat="37.3892918508" lon="-6.0120876040">
        <ele>20.81</ele>
        <time>2020-07-09T07:39:05Z</time>
      </trkpt>
      <trkpt lat="37.3892911803" lon="-6.0123977344">
        <ele>20.81</ele>
        <time>2020-07-09T07:39:12Z</time>
      </trkpt>
      <trkpt lat="37.3892790265" lon="-6.0126327630">
        <ele>20.32</ele>
        <time>2020-07-09T07:39:19Z</time>
      </trkpt>
      <trkpt lat="37.3892918508" lon="-6.0127686337">
        <ele>18.88</ele>
        <time>2020-07-09T07:39:27Z</time>
      </trkpt>
      <trkpt lat="37.3893040884" lon="-6.0127829667">
        <ele>17.44</ele>
        <time>2020-07-09T07:39:34Z</time>
      </trkpt>
      <trkpt lat="37.3893081117" lon="-6.0127808712">
        <ele>16.48</ele>
        <time>2020-07-09T07:39:41Z</time>
      </trkpt>
      <trkpt lat="37.3893075250" lon="-6.0127890017">
        <ele>12.15</ele>
        <time>2020-07-09T07:40:02Z</time>
      </trkpt>
      <trkpt lat="37.3893159907" lon="-6.0127937794">
        <ele>9.75</ele>
        <time>2020-07-09T07:40:21Z</time>
      </trkpt>
      <trkpt lat="37.3893084470" lon="-6.0127807874">
        <ele>13.12</ele>
        <time>2020-07-09T07:40:39Z</time>
      </trkpt>
      <trkpt lat="37.3893342633" lon="-6.0127785243">
        <ele>12.63</ele>
        <time>2020-07-09T07:40:59Z</time>
      </trkpt>
      <trkpt lat="37.3893303238" lon="-6.0127880797">
        <ele>11.67</ele>
        <time>2020-07-09T07:41:15Z</time>
      </trkpt>
      <trkpt lat="37.3893291503" lon="-6.0127822123">
        <ele>12.63</ele>
        <time>2020-07-09T07:41:33Z</time>
      </trkpt>
      <trkpt lat="37.3893166613" lon="-6.0127735790">
        <ele>13.12</ele>
        <time>2020-07-09T07:41:41Z</time>
      </trkpt>
      <trkpt lat="37.3893131409" lon="-6.0127654485">
        <ele>13.60</ele>
        <time>2020-07-09T07:41:49Z</time>
      </trkpt>
      <trkpt lat="37.3893176671" lon="-6.0127781890">
        <ele>14.08</ele>
        <time>2020-07-09T07:42:00Z</time>
      </trkpt>
      <trkpt lat="37.3893161584" lon="-6.0127831344">
        <ele>13.60</ele>
        <time>2020-07-09T07:42:09Z</time>
      </trkpt>
      <trkpt lat="37.3893281445" lon="-6.0126817971">
        <ele>13.12</ele>
        <time>2020-07-09T07:42:14Z</time>
      </trkpt>
      <trkpt lat="37.3893869016" lon="-6.0123539809">
        <ele>13.12</ele>
        <time>2020-07-09T07:42:22Z</time>
      </trkpt>
      <trkpt lat="37.3894340079" lon="-6.0120881069">
        <ele>13.12</ele>
        <time>2020-07-09T07:42:29Z</time>
      </trkpt>
      <trkpt lat="37.3894475866" lon="-6.0120553337">
        <ele>13.12</ele>
        <time>2020-07-09T07:42:30Z</time>
      </trkpt>
      <trkpt lat="37.3893942777" lon="-6.0119255818">
        <ele>14.08</ele>
        <time>2020-07-09T07:42:35Z</time>
      </trkpt>
      <trkpt lat="37.3894112930" lon="-6.0118925571">
        <ele>14.08</ele>
        <time>2020-07-09T07:42:39Z</time>
      </trkpt>
      <trkpt lat="37.3894411325" lon="-6.0119287670">
        <ele>15.04</ele>
        <time>2020-07-09T07:42:41Z</time>
      </trkpt>
      <trkpt lat="37.3895243648" lon="-6.0120303556">
        <ele>16.96</ele>
        <time>2020-07-09T07:42:46Z</time>
      </trkpt>
      <trkpt lat="37.3895750754" lon="-6.0120042879">
        <ele>16.96</ele>
        <time>2020-07-09T07:42:49Z</time>
      </trkpt>
      <trkpt lat="37.3895844631" lon="-6.0119707603">
        <ele>17.44</ele>
        <time>2020-07-09T07:42:50Z</time>
      </trkpt>
      <trkpt lat="37.3895911686" lon="-6.0119265039">
        <ele>16.96</ele>
        <time>2020-07-09T07:42:51Z</time>
      </trkpt>
      <trkpt lat="37.3895947728" lon="-6.0118848458">
        <ele>16.96</ele>
        <time>2020-07-09T07:42:52Z</time>
      </trkpt>
      <trkpt lat="37.3896538652" lon="-6.0114691872">
        <ele>16.96</ele>
        <time>2020-07-09T07:43:01Z</time>
      </trkpt>
      <trkpt lat="37.3896908294" lon="-6.0111822747">
        <ele>16.96</ele>
        <time>2020-07-09T07:43:07Z</time>
      </trkpt>
      <trkpt lat="37.3897396121" lon="-6.0107720643">
        <ele>16.00</ele>
        <time>2020-07-09T07:43:15Z</time>
      </trkpt>
      <trkpt lat="37.3897496704" lon="-6.0107281432">
        <ele>15.52</ele>
        <time>2020-07-09T07:43:17Z</time>
      </trkpt>
      <trkpt lat="37.3897604831" lon="-6.0107245389">
        <ele>15.52</ele>
        <time>2020-07-09T07:43:22Z</time>
      </trkpt>
      <trkpt lat="37.3897391092" lon="-6.0107209347">
        <ele>16.48</ele>
        <time>2020-07-09T07:43:33Z</time>
      </trkpt>
      <trkpt lat="37.3897272907" lon="-6.0107127205">
        <ele>18.40</ele>
        <time>2020-07-09T07:43:48Z</time>
      </trkpt>
      <trkpt lat="37.3897225969" lon="-6.0107255448">
        <ele>20.32</ele>
        <time>2020-07-09T07:44:14Z</time>
      </trkpt>
      <trkpt lat="37.3897298891" lon="-6.0107238684">
        <ele>20.32</ele>
        <time>2020-07-09T07:44:20Z</time>
      </trkpt>
      <trkpt lat="37.3898082599" lon="-6.0107413866">
        <ele>20.32</ele>
        <time>2020-07-09T07:44:24Z</time>
      </trkpt>
      <trkpt lat="37.3899979424" lon="-6.0107652750">
        <ele>19.84</ele>
        <time>2020-07-09T07:44:31Z</time>
      </trkpt>
      <trkpt lat="37.3900144547" lon="-6.0107408836">
        <ele>19.36</ele>
        <time>2020-07-09T07:44:32Z</time>
      </trkpt>
      <trkpt lat="37.3900298774" lon="-6.0107108764">
        <ele>18.88</ele>
        <time>2020-07-09T07:44:33Z</time>
      </trkpt>
      <trkpt lat="37.3900545202" lon="-6.0106831323">
        <ele>18.40</ele>
        <time>2020-07-09T07:44:34Z</time>
      </trkpt>
      <trkpt lat="37.3901947495" lon="-6.0106783547">
        <ele>17.92</ele>
        <time>2020-07-09T07:44:38Z</time>
      </trkpt>
      <trkpt lat="37.3902732041" lon="-6.0107165761">
        <ele>17.92</ele>
        <time>2020-07-09T07:44:40Z</time>
      </trkpt>
      <trkpt lat="37.3906171136" lon="-6.0109070130">
        <ele>18.40</ele>
        <time>2020-07-09T07:44:50Z</time>
      </trkpt>
      <trkpt lat="37.3908787966" lon="-6.0110521875">
        <ele>18.40</ele>
        <time>2020-07-09T07:44:58Z</time>
      </trkpt>
      <trkpt lat="37.3911189381" lon="-6.0112061631">
        <ele>18.88</ele>
        <time>2020-07-09T07:45:06Z</time>
      </trkpt>
      <trkpt lat="37.3911423236" lon="-6.0112333205">
        <ele>18.88</ele>
        <time>2020-07-09T07:45:07Z</time>
      </trkpt>
      <trkpt lat="37.3912642803" lon="-6.0112256091">
        <ele>20.32</ele>
        <time>2020-07-09T07:45:12Z</time>
      </trkpt>
      <trkpt lat="37.3914320022" lon="-6.0110951867">
        <ele>20.32</ele>
        <time>2020-07-09T07:45:18Z</time>
      </trkpt>
      <trkpt lat="37.3915848881" lon="-6.0110234376">
        <ele>22.73</ele>
        <time>2020-07-09T07:45:24Z</time>
      </trkpt>
      <trkpt lat="37.3918285500" lon="-6.0109472461">
        <ele>25.61</ele>
        <time>2020-07-09T07:45:31Z</time>
      </trkpt>
      <trkpt lat="37.3920034803" lon="-6.0108769219">
        <ele>29.46</ele>
        <time>2020-07-09T07:45:37Z</time>
      </trkpt>
      <trkpt lat="37.3921277002" lon="-6.0110766627">
        <ele>31.86</ele>
        <time>2020-07-09T07:45:43Z</time>
      </trkpt>
      <trkpt lat="37.3922338150" lon="-6.0115018766">
        <ele>31.86</ele>
        <time>2020-07-09T07:45:52Z</time>
      </trkpt>
      <trkpt lat="37.3923263513" lon="-6.0119334608">
        <ele>31.86</ele>
        <time>2020-07-09T07:46:01Z</time>
      </trkpt>
      <trkpt lat="37.3923978489" lon="-6.0122451838">
        <ele>30.90</ele>
        <time>2020-07-09T07:46:08Z</time>
      </trkpt>
      <trkpt lat="37.3924811650" lon="-6.0123487003">
        <ele>29.46</ele>
        <time>2020-07-09T07:46:12Z</time>
      </trkpt>
      <trkpt lat="37.3925554287" lon="-6.0127145704">
        <ele>27.05</ele>
        <time>2020-07-09T07:46:20Z</time>
      </trkpt>
      <trkpt lat="37.3926306143" lon="-6.0131264571">
        <ele>23.69</ele>
        <time>2020-07-09T07:46:25Z</time>
      </trkpt>
      <trkpt lat="37.3926960770" lon="-6.0135847796">
        <ele>22.25</ele>
        <time>2020-07-09T07:46:30Z</time>
      </trkpt>
      <trkpt lat="37.3927514814" lon="-6.0138628911">
        <ele>22.73</ele>
        <time>2020-07-09T07:46:34Z</time>
      </trkpt>
      <trkpt lat="37.3926459532" lon="-6.0139491409">
        <ele>20.81</ele>
        <time>2020-07-09T07:46:39Z</time>
      </trkpt>
      <trkpt lat="37.3925725278" lon="-6.0139685031">
        <ele>19.84</ele>
        <time>2020-07-09T07:46:41Z</time>
      </trkpt>
      <trkpt lat="37.3925058916" lon="-6.0141353030">
        <ele>17.92</ele>
        <time>2020-07-09T07:46:46Z</time>
      </trkpt>
      <trkpt lat="37.3924555164" lon="-6.0141919646">
        <ele>17.44</ele>
        <time>2020-07-09T07:46:48Z</time>
      </trkpt>
      <trkpt lat="37.3923802469" lon="-6.0142375622">
        <ele>16.96</ele>
        <time>2020-07-09T07:46:50Z</time>
      </trkpt>
      <trkpt lat="37.3922685999" lon="-6.0143121611">
        <ele>16.48</ele>
        <time>2020-07-09T07:46:53Z</time>
      </trkpt>
      <trkpt lat="37.3921162169" lon="-6.0144818109">
        <ele>15.52</ele>
        <time>2020-07-09T07:46:58Z</time>
      </trkpt>
      <trkpt lat="37.3919742275" lon="-6.0147582460">
        <ele>16.00</ele>
        <time>2020-07-09T07:47:06Z</time>
      </trkpt>
      <trkpt lat="37.3919289652" lon="-6.0150215216">
        <ele>16.48</ele>
        <time>2020-07-09T07:47:13Z</time>
      </trkpt>
      <trkpt lat="37.3919578828" lon="-6.0153657664">
        <ele>18.40</ele>
        <time>2020-07-09T07:47:22Z</time>
      </trkpt>
      <trkpt lat="37.3920270335" lon="-6.0156292934">
        <ele>18.88</ele>
        <time>2020-07-09T07:47:31Z</time>
      </trkpt>
      <trkpt lat="37.3920766544" lon="-6.0158637352">
        <ele>19.36</ele>
        <time>2020-07-09T07:47:37Z</time>
      </trkpt>
      <trkpt lat="37.3921795003" lon="-6.0163357202">
        <ele>18.88</ele>
        <time>2020-07-09T07:47:47Z</time>
      </trkpt>
      <trkpt lat="37.3922876269" lon="-6.0168066155">
        <ele>18.88</ele>
        <time>2020-07-09T07:47:57Z</time>
      </trkpt>
      <trkpt lat="37.3923958372" lon="-6.0173076857">
        <ele>17.92</ele>
        <time>2020-07-09T07:48:07Z</time>
      </trkpt>
      <trkpt lat="37.3925114237" lon="-6.0178323090">
        <ele>17.44</ele>
        <time>2020-07-09T07:48:17Z</time>
      </trkpt>
      <trkpt lat="37.3926279321" lon="-6.0183560941">
        <ele>17.44</ele>
        <time>2020-07-09T07:48:28Z</time>
      </trkpt>
      <trkpt lat="37.3927420937" lon="-6.0188279115">
        <ele>16.96</ele>
        <time>2020-07-09T07:48:38Z</time>
      </trkpt>
      <trkpt lat="37.3927654792" lon="-6.0189286619">
        <ele>16.48</ele>
        <time>2020-07-09T07:48:40Z</time>
      </trkpt>
      <trkpt lat="37.3928724322" lon="-6.0194907524">
        <ele>15.04</ele>
        <time>2020-07-09T07:48:49Z</time>
      </trkpt>
      <trkpt lat="37.3929749429" lon="-6.0199577082">
        <ele>14.08</ele>
        <time>2020-07-09T07:48:57Z</time>
      </trkpt>
      <trkpt lat="37.3929984123" lon="-6.0200213268">
        <ele>14.08</ele>
        <time>2020-07-09T07:48:59Z</time>
      </trkpt>
      <trkpt lat="37.3930111527" lon="-6.0200313851">
        <ele>14.08</ele>
        <time>2020-07-09T07:49:00Z</time>
      </trkpt>
      <trkpt lat="37.3930865061" lon="-6.0199801717">
        <ele>13.60</ele>
        <time>2020-07-09T07:49:04Z</time>
      </trkpt>
      <trkpt lat="37.3931108974" lon="-6.0199436266">
        <ele>13.60</ele>
        <time>2020-07-09T07:49:05Z</time>
      </trkpt>
      <trkpt lat="37.3931251466" lon="-6.0199064948">
        <ele>13.60</ele>
        <time>2020-07-09T07:49:06Z</time>
      </trkpt>
      <trkpt lat="37.3931341153" lon="-6.0198633280">
        <ele>13.60</ele>
        <time>2020-07-09T07:49:07Z</time>
      </trkpt>
      <trkpt lat="37.3931378871" lon="-6.0198181495">
        <ele>13.12</ele>
        <time>2020-07-09T07:49:08Z</time>
      </trkpt>
      <trkpt lat="37.3931373004" lon="-6.0197739769">
        <ele>13.12</ele>
        <time>2020-07-09T07:49:09Z</time>
      </trkpt>
      <trkpt lat="37.3931326065" lon="-6.0197311454">
        <ele>13.12</ele>
        <time>2020-07-09T07:49:10Z</time>
      </trkpt>
      <trkpt lat="37.3931261525" lon="-6.0196864698">
        <ele>13.12</ele>
        <time>2020-07-09T07:49:11Z</time>
      </trkpt>
      <trkpt lat="37.3930834886" lon="-6.0194008984">
        <ele>13.60</ele>
        <time>2020-07-09T07:49:19Z</time>
      </trkpt>
      <trkpt lat="37.3930596840" lon="-6.0192380380">
        <ele>13.60</ele>
        <time>2020-07-09T07:49:28Z</time>
      </trkpt>
      <trkpt lat="37.3930238094" lon="-6.0189621057">
        <ele>13.12</ele>
        <time>2020-07-09T07:49:39Z</time>
      </trkpt>
      <trkpt lat="37.3930056207" lon="-6.0187908635">
        <ele>13.12</ele>
        <time>2020-07-09T07:49:47Z</time>
      </trkpt>
      <trkpt lat="37.3930030223" lon="-6.0185856745">
        <ele>13.12</ele>
        <time>2020-07-09T07:49:55Z</time>
      </trkpt>
      <trkpt lat="37.3930860031" lon="-6.0184187908">
        <ele>12.63</ele>
        <time>2020-07-09T07:50:03Z</time>
      </trkpt>
      <trkpt lat="37.3930927925" lon="-6.0184223112">
        <ele>12.15</ele>
        <time>2020-07-09T07:50:08Z</time>
      </trkpt>
      <trkpt lat="37.3931471910" lon="-6.0183930583">
        <ele>12.15</ele>
        <time>2020-07-09T07:50:12Z</time>
      </trkpt>
      <trkpt lat="37.3932244722" lon="-6.0183488019">
        <ele>12.15</ele>
        <time>2020-07-09T07:50:19Z</time>
      </trkpt>
      <trkpt lat="37.3932575807" lon="-6.0182401724">
        <ele>11.19</ele>
        <time>2020-07-09T07:50:23Z</time>
      </trkpt>
      <trkpt lat="37.3932795413" lon="-6.0181951616">
        <ele>11.19</ele>
        <time>2020-07-09T07:50:24Z</time>
      </trkpt>
      <trkpt lat="37.3932985682" lon="-6.0181659926">
        <ele>11.19</ele>
        <time>2020-07-09T07:50:25Z</time>
      </trkpt>
      <trkpt lat="37.3933240492" lon="-6.0181310400">
        <ele>11.19</ele>
        <time>2020-07-09T07:50:26Z</time>
      </trkpt>
      <trkpt lat="37.3933517095" lon="-6.0180954169">
        <ele>11.67</ele>
        <time>2020-07-09T07:50:27Z</time>
      </trkpt>
      <trkpt lat="37.3935293220" lon="-6.0179592110">
        <ele>11.67</ele>
        <time>2020-07-09T07:50:33Z</time>
      </trkpt>
      <trkpt lat="37.3938197549" lon="-6.0178376734">
        <ele>11.67</ele>
        <time>2020-07-09T07:50:42Z</time>
      </trkpt>
      <trkpt lat="37.3942099325" lon="-6.0177269485">
        <ele>12.15</ele>
        <time>2020-07-09T07:50:52Z</time>
      </trkpt>
      <trkpt lat="37.3943252675" lon="-6.0176828597">
        <ele>12.15</ele>
        <time>2020-07-09T07:50:55Z</time>
      </trkpt>
      <trkpt lat="37.3943639081" lon="-6.0176708736">
        <ele>12.15</ele>
        <time>2020-07-09T07:50:56Z</time>
      </trkpt>
      <trkpt lat="37.3946911376" lon="-6.0175651778">
        <ele>11.67</ele>
        <time>2020-07-09T07:51:04Z</time>
      </trkpt>
      <trkpt lat="37.3950617015" lon="-6.0174657684">
        <ele>11.67</ele>
        <time>2020-07-09T07:51:13Z</time>
      </trkpt>
      <trkpt lat="37.3953925353" lon="-6.0173609946">
        <ele>11.67</ele>
        <time>2020-07-09T07:51:22Z</time>
      </trkpt>
      <trkpt lat="37.3957063537" lon="-6.0172677040">
        <ele>12.15</ele>
        <time>2020-07-09T07:51:31Z</time>
      </trkpt>
      <trkpt lat="37.3960380256" lon="-6.0171841364">
        <ele>12.63</ele>
        <time>2020-07-09T07:51:40Z</time>
      </trkpt>
      <trkpt lat="37.3964249343" lon="-6.0170548875">
        <ele>12.15</ele>
        <time>2020-07-09T07:51:50Z</time>
      </trkpt>
      <trkpt lat="37.3967524990" lon="-6.0169515386">
        <ele>11.67</ele>
        <time>2020-07-09T07:51:59Z</time>
      </trkpt>
      <trkpt lat="37.3969483841" lon="-6.0169337690">
        <ele>11.67</ele>
        <time>2020-07-09T07:52:05Z</time>
      </trkpt>
      <trkpt lat="37.3972808104" lon="-6.0168108065">
        <ele>11.19</ele>
        <time>2020-07-09T07:52:14Z</time>
      </trkpt>
      <trkpt lat="37.3976136558" lon="-6.0167005006">
        <ele>11.67</ele>
        <time>2020-07-09T07:52:23Z</time>
      </trkpt>
      <trkpt lat="37.3979264684" lon="-6.0166037735">
        <ele>12.15</ele>
        <time>2020-07-09T07:52:32Z</time>
      </trkpt>
      <trkpt lat="37.3979870696" lon="-6.0165831540">
        <ele>12.63</ele>
        <time>2020-07-09T07:52:38Z</time>
      </trkpt>
      <trkpt lat="37.3979886621" lon="-6.0165918712">
        <ele>12.63</ele>
        <time>2020-07-09T07:52:46Z</time>
      </trkpt>
      <trkpt lat="37.3979903385" lon="-6.0165851656">
        <ele>12.15</ele>
        <time>2020-07-09T07:52:57Z</time>
      </trkpt>
      <trkpt lat="37.3979878239" lon="-6.0165839922">
        <ele>11.67</ele>
        <time>2020-07-09T07:53:10Z</time>
      </trkpt>
      <trkpt lat="37.3980012350" lon="-6.0165891051">
        <ele>12.63</ele>
        <time>2020-07-09T07:53:26Z</time>
      </trkpt>
      <trkpt lat="37.3980003130" lon="-6.0165956430">
        <ele>12.63</ele>
        <time>2020-07-09T07:53:41Z</time>
      </trkpt>
      <trkpt lat="37.3980093654" lon="-6.0165935475">
        <ele>10.71</ele>
        <time>2020-07-09T07:53:56Z</time>
      </trkpt>
      <trkpt lat="37.3980157357" lon="-6.0165842436">
        <ele>10.23</ele>
        <time>2020-07-09T07:54:08Z</time>
      </trkpt>
      <trkpt lat="37.3981393687" lon="-6.0165666416">
        <ele>10.23</ele>
        <time>2020-07-09T07:54:14Z</time>
      </trkpt>
      <trkpt lat="37.3984127864" lon="-6.0165001731">
        <ele>10.71</ele>
        <time>2020-07-09T07:54:22Z</time>
      </trkpt>
      <trkpt lat="37.3987619765" lon="-6.0163411684">
        <ele>11.19</ele>
        <time>2020-07-09T07:54:31Z</time>
      </trkpt>
      <trkpt lat="37.3990760464" lon="-6.0162369814">
        <ele>11.19</ele>
        <time>2020-07-09T07:54:39Z</time>
      </trkpt>
      <trkpt lat="37.3994258232" lon="-6.0161419306">
        <ele>12.15</ele>
        <time>2020-07-09T07:54:48Z</time>
      </trkpt>
      <trkpt lat="37.3998393863" lon="-6.0160385817">
        <ele>12.15</ele>
        <time>2020-07-09T07:54:58Z</time>
      </trkpt>
      <trkpt lat="37.4002236966" lon="-6.0159330536">
        <ele>12.63</ele>
        <time>2020-07-09T07:55:07Z</time>
      </trkpt>
      <trkpt lat="37.4006606452" lon="-6.0158328060">
        <ele>12.15</ele>
        <time>2020-07-09T07:55:17Z</time>
      </trkpt>
      <trkpt lat="37.4010899663" lon="-6.0157089215">
        <ele>11.67</ele>
        <time>2020-07-09T07:55:27Z</time>
      </trkpt>
      <trkpt lat="37.4011312053" lon="-6.0156995337">
        <ele>11.67</ele>
        <time>2020-07-09T07:55:28Z</time>
      </trkpt>
      <trkpt lat="37.4014835805" lon="-6.0156136192">
        <ele>11.67</ele>
        <time>2020-07-09T07:55:37Z</time>
      </trkpt>
      <trkpt lat="37.4018546473" lon="-6.0155408643">
        <ele>11.19</ele>
        <time>2020-07-09T07:55:46Z</time>
      </trkpt>
      <trkpt lat="37.4020952079" lon="-6.0154644214">
        <ele>11.19</ele>
        <time>2020-07-09T07:55:52Z</time>
      </trkpt>
      <trkpt lat="37.4021356087" lon="-6.0154468194">
        <ele>11.19</ele>
        <time>2020-07-09T07:55:53Z</time>
      </trkpt>
      <trkpt lat="37.4025184941" lon="-6.0153361782">
        <ele>11.67</ele>
        <time>2020-07-09T07:56:02Z</time>
      </trkpt>
      <trkpt lat="37.4028803408" lon="-6.0152335837">
        <ele>11.67</ele>
        <time>2020-07-09T07:56:11Z</time>
      </trkpt>
      <trkpt lat="37.4032628071" lon="-6.0151314083">
        <ele>11.67</ele>
        <time>2020-07-09T07:56:21Z</time>
      </trkpt>
      <trkpt lat="37.4034870230" lon="-6.0150774289">
        <ele>11.19</ele>
        <time>2020-07-09T07:56:28Z</time>
      </trkpt>
      <trkpt lat="37.4037282541" lon="-6.0150690470">
        <ele>11.67</ele>
        <time>2020-07-09T07:56:36Z</time>
      </trkpt>
      <trkpt lat="37.4037452694" lon="-6.0150964558">
        <ele>11.67</ele>
        <time>2020-07-09T07:56:37Z</time>
      </trkpt>
      <trkpt lat="37.4037616979" lon="-6.0151225235">
        <ele>11.67</ele>
        <time>2020-07-09T07:56:38Z</time>
      </trkpt>
      <trkpt lat="37.4037792999" lon="-6.0151470825">
        <ele>11.67</ele>
        <time>2020-07-09T07:56:39Z</time>
      </trkpt>
      <trkpt lat="37.4037988298" lon="-6.0151731502">
        <ele>11.67</ele>
        <time>2020-07-09T07:56:40Z</time>
      </trkpt>
      <trkpt lat="37.4038191140" lon="-6.0151989665">
        <ele>12.15</ele>
        <time>2020-07-09T07:56:41Z</time>
      </trkpt>
      <trkpt lat="37.4039011728" lon="-6.0153518524">
        <ele>15.04</ele>
        <time>2020-07-09T07:56:48Z</time>
      </trkpt>
      <trkpt lat="37.4040291645" lon="-6.0154942609">
        <ele>15.52</ele>
        <time>2020-07-09T07:56:55Z</time>
      </trkpt>
      <trkpt lat="37.4042176735" lon="-6.0155080073">
        <ele>15.04</ele>
        <time>2020-07-09T07:57:02Z</time>
      </trkpt>
      <trkpt lat="37.4044466671" lon="-6.0155164730">
        <ele>14.08</ele>
        <time>2020-07-09T07:57:10Z</time>
      </trkpt>
      <trkpt lat="37.4047229346" lon="-6.0155993700">
        <ele>14.08</ele>
        <time>2020-07-09T07:57:18Z</time>
      </trkpt>
      <trkpt lat="37.4050152954" lon="-6.0157089215">
        <ele>14.08</ele>
        <time>2020-07-09T07:57:26Z</time>
      </trkpt>
      <trkpt lat="37.4052834325" lon="-6.0158998612">
        <ele>14.56</ele>
        <time>2020-07-09T07:57:34Z</time>
      </trkpt>
      <trkpt lat="37.4055941496" lon="-6.0162087344">
        <ele>13.60</ele>
        <time>2020-07-09T07:57:44Z</time>
      </trkpt>
      <trkpt lat="37.4058626220" lon="-6.0164860915">
        <ele>14.56</ele>
        <time>2020-07-09T07:57:53Z</time>
      </trkpt>
      <trkpt lat="37.4060543999" lon="-6.0167473555">
        <ele>15.04</ele>
        <time>2020-07-09T07:58:01Z</time>
      </trkpt>
      <trkpt lat="37.4063080363" lon="-6.0170993954">
        <ele>15.04</ele>
        <time>2020-07-09T07:58:11Z</time>
      </trkpt>
      <trkpt lat="37.4066341761" lon="-6.0175669380">
        <ele>15.52</ele>
        <time>2020-07-09T07:58:23Z</time>
      </trkpt>
      <trkpt lat="37.4068878964" lon="-6.0179356579">
        <ele>15.52</ele>
        <time>2020-07-09T07:58:33Z</time>
      </trkpt>
      <trkpt lat="37.4070752319" lon="-6.0182505660">
        <ele>15.52</ele>
        <time>2020-07-09T07:58:41Z</time>
      </trkpt>
      <trkpt lat="37.4072882161" lon="-6.0185912065">
        <ele>15.52</ele>
        <time>2020-07-09T07:58:50Z</time>
      </trkpt>
      <trkpt lat="37.4075432774" lon="-6.0189812165">
        <ele>16.00</ele>
        <time>2020-07-09T07:59:00Z</time>
      </trkpt>
      <trkpt lat="37.4078349676" lon="-6.0193560552">
        <ele>16.00</ele>
        <time>2020-07-09T07:59:10Z</time>
      </trkpt>
      <trkpt lat="37.4081578385" lon="-6.0196962766">
        <ele>16.00</ele>
        <time>2020-07-09T07:59:20Z</time>
      </trkpt>
      <trkpt lat="37.4085084535" lon="-6.0200811736">
        <ele>16.48</ele>
        <time>2020-07-09T07:59:31Z</time>
      </trkpt>
      <trkpt lat="37.4088127166" lon="-6.0204749554">
        <ele>16.48</ele>
        <time>2020-07-09T07:59:42Z</time>
      </trkpt>
      <trkpt lat="37.4090082664" lon="-6.0207509715">
        <ele>16.96</ele>
        <time>2020-07-09T07:59:50Z</time>
      </trkpt>
      <trkpt lat="37.4092837796" lon="-6.0211507883">
        <ele>17.44</ele>
        <time>2020-07-09T08:00:01Z</time>
      </trkpt>
      <trkpt lat="37.4095090013" lon="-6.0214974638">
        <ele>16.96</ele>
        <time>2020-07-09T08:00:10Z</time>
      </trkpt>
      <trkpt lat="37.4097086582" lon="-6.0217944346">
        <ele>16.96</ele>
        <time>2020-07-09T08:00:19Z</time>
      </trkpt>
      <trkpt lat="37.4099097401" lon="-6.0220916569">
        <ele>17.92</ele>
        <time>2020-07-09T08:00:28Z</time>
      </trkpt>
      <trkpt lat="37.4101330340" lon="-6.0224202275">
        <ele>17.92</ele>
        <time>2020-07-09T08:00:37Z</time>
      </trkpt>
      <trkpt lat="37.4103582557" lon="-6.0227764584">
        <ele>17.92</ele>
        <time>2020-07-09T08:00:46Z</time>
      </trkpt>
      <trkpt lat="37.4106078688" lon="-6.0231706593">
        <ele>17.92</ele>
        <time>2020-07-09T08:00:56Z</time>
      </trkpt>
      <trkpt lat="37.4108289834" lon="-6.0235451628">
        <ele>18.88</ele>
        <time>2020-07-09T08:01:06Z</time>
      </trkpt>
      <trkpt lat="37.4110841285" lon="-6.0238465760">
        <ele>18.40</ele>
        <time>2020-07-09T08:01:15Z</time>
      </trkpt>
      <trkpt lat="37.4113982823" lon="-6.0240667686">
        <ele>17.92</ele>
        <time>2020-07-09T08:01:24Z</time>
      </trkpt>
      <trkpt lat="37.4117540102" lon="-6.0243701097">
        <ele>18.40</ele>
        <time>2020-07-09T08:01:35Z</time>
      </trkpt>
      <trkpt lat="37.4120393302" lon="-6.0246871132">
        <ele>18.40</ele>
        <time>2020-07-09T08:01:45Z</time>
      </trkpt>
      <trkpt lat="37.4122407474" lon="-6.0249782167">
        <ele>18.40</ele>
        <time>2020-07-09T08:01:54Z</time>
      </trkpt>
      <trkpt lat="37.4124568328" lon="-6.0251985770">
        <ele>17.92</ele>
        <time>2020-07-09T08:02:01Z</time>
      </trkpt>
      <trkpt lat="37.4127697293" lon="-6.0255071986">
        <ele>17.92</ele>
        <time>2020-07-09T08:02:11Z</time>
      </trkpt>
      <trkpt lat="37.4130392075" lon="-6.0257335100">
        <ele>18.40</ele>
        <time>2020-07-09T08:02:20Z</time>
      </trkpt>
      <trkpt lat="37.4133891519" lon="-6.0259694606">
        <ele>18.88</ele>
        <time>2020-07-09T08:02:31Z</time>
      </trkpt>
      <trkpt lat="37.4137237575" lon="-6.0261661001">
        <ele>19.36</ele>
        <time>2020-07-09T08:02:41Z</time>
      </trkpt>
      <trkpt lat="37.4139255099" lon="-6.0261833668">
        <ele>18.88</ele>
        <time>2020-07-09T08:02:47Z</time>
      </trkpt>
      <trkpt lat="37.4142661504" lon="-6.0261857975">
        <ele>17.92</ele>
        <time>2020-07-09T08:02:56Z</time>
      </trkpt>
      <trkpt lat="37.4147281609" lon="-6.0261393618">
        <ele>16.48</ele>
        <time>2020-07-09T08:03:08Z</time>
      </trkpt>
      <trkpt lat="37.4149879999" lon="-6.0260608234">
        <ele>16.48</ele>
        <time>2020-07-09T08:03:15Z</time>
      </trkpt>
      <trkpt lat="37.4153759982" lon="-6.0259258747">
        <ele>16.48</ele>
        <time>2020-07-09T08:03:25Z</time>
      </trkpt>
      <trkpt lat="37.4157183990" lon="-6.0258241184">
        <ele>16.00</ele>
        <time>2020-07-09T08:03:34Z</time>
      </trkpt>
      <trkpt lat="37.4160355702" lon="-6.0258366074">
        <ele>15.52</ele>
        <time>2020-07-09T08:03:42Z</time>
      </trkpt>
      <trkpt lat="37.4164112471" lon="-6.0259100329">
        <ele>15.04</ele>
        <time>2020-07-09T08:03:51Z</time>
      </trkpt>
      <trkpt lat="37.4167261552" lon="-6.0259405430">
        <ele>15.52</ele>
        <time>2020-07-09T08:03:59Z</time>
      </trkpt>
      <trkpt lat="37.4167672265" lon="-6.0259355139">
        <ele>15.52</ele>
        <time>2020-07-09T08:04:00Z</time>
      </trkpt>
      <trkpt lat="37.4168087170" lon="-6.0259381123">
        <ele>15.52</ele>
        <time>2020-07-09T08:04:01Z</time>
      </trkpt>
      <trkpt lat="37.4169717450" lon="-6.0259426385">
        <ele>16.00</ele>
        <time>2020-07-09T08:04:05Z</time>
      </trkpt>
      <trkpt lat="37.4172434025" lon="-6.0260159802">
        <ele>16.96</ele>
        <time>2020-07-09T08:04:12Z</time>
      </trkpt>
      <trkpt lat="37.4175566342" lon="-6.0261283815">
        <ele>17.44</ele>
        <time>2020-07-09T08:04:20Z</time>
      </trkpt>
      <trkpt lat="37.4180597160" lon="-6.0262671020">
        <ele>17.92</ele>
        <time>2020-07-09T08:04:32Z</time>
      </trkpt>
      <trkpt lat="37.4185121711" lon="-6.0263987817">
        <ele>17.44</ele>
        <time>2020-07-09T08:04:43Z</time>
      </trkpt>
      <trkpt lat="37.4187110737" lon="-6.0264691059">
        <ele>16.96</ele>
        <time>2020-07-09T08:04:48Z</time>
      </trkpt>
      <trkpt lat="37.4190260656" lon="-6.0266255122">
        <ele>16.48</ele>
        <time>2020-07-09T08:04:56Z</time>
      </trkpt>
      <trkpt lat="37.4193646107" lon="-6.0268619657">
        <ele>16.96</ele>
        <time>2020-07-09T08:05:05Z</time>
      </trkpt>
      <trkpt lat="37.4197129626" lon="-6.0271135904">
        <ele>16.48</ele>
        <time>2020-07-09T08:05:14Z</time>
      </trkpt>
      <trkpt lat="37.4200068321" lon="-6.0273025185">
        <ele>16.96</ele>
        <time>2020-07-09T08:05:22Z</time>
      </trkpt>
      <trkpt lat="37.4203697685" lon="-6.0275305063">
        <ele>16.96</ele>
        <time>2020-07-09T08:05:31Z</time>
      </trkpt>
      <trkpt lat="37.4207164440" lon="-6.0277262237">
        <ele>16.96</ele>
        <time>2020-07-09T08:05:40Z</time>
      </trkpt>
      <trkpt lat="37.4212050252" lon="-6.0279568098">
        <ele>16.96</ele>
        <time>2020-07-09T08:05:52Z</time>
      </trkpt>
      <trkpt lat="37.4214885011" lon="-6.0280893277">
        <ele>17.44</ele>
        <time>2020-07-09T08:05:59Z</time>
      </trkpt>
      <trkpt lat="37.4216254614" lon="-6.0281115398">
        <ele>17.44</ele>
        <time>2020-07-09T08:06:02Z</time>
      </trkpt>
      <trkpt lat="37.4218492582" lon="-6.0281093605">
        <ele>17.44</ele>
        <time>2020-07-09T08:06:07Z</time>
      </trkpt>
      <trkpt lat="37.4222811777" lon="-6.0280770063">
        <ele>16.48</ele>
        <time>2020-07-09T08:06:17Z</time>
      </trkpt>
      <trkpt lat="37.4226765521" lon="-6.0280866455">
        <ele>16.00</ele>
        <time>2020-07-09T08:06:26Z</time>
      </trkpt>
      <trkpt lat="37.4228174519" lon="-6.0280862264">
        <ele>15.52</ele>
        <time>2020-07-09T08:06:29Z</time>
      </trkpt>
      <trkpt lat="37.4229116645" lon="-6.0281033255">
        <ele>15.52</ele>
        <time>2020-07-09T08:06:31Z</time>
      </trkpt>
      <trkpt lat="37.4231456034" lon="-6.0281461570">
        <ele>15.04</ele>
        <time>2020-07-09T08:06:36Z</time>
      </trkpt>
      <trkpt lat="37.4234373774" lon="-6.0283219256">
        <ele>16.96</ele>
        <time>2020-07-09T08:06:44Z</time>
      </trkpt>
      <trkpt lat="37.4234803766" lon="-6.0284105223">
        <ele>16.96</ele>
        <time>2020-07-09T08:06:46Z</time>
      </trkpt>
      <trkpt lat="37.4235002417" lon="-6.0284681898">
        <ele>16.96</ele>
        <time>2020-07-09T08:06:47Z</time>
      </trkpt>
      <trkpt lat="37.4235166702" lon="-6.0285285395">
        <ele>16.96</ele>
        <time>2020-07-09T08:06:48Z</time>
      </trkpt>
      <trkpt lat="37.4235299975" lon="-6.0285928287">
        <ele>16.96</ele>
        <time>2020-07-09T08:06:49Z</time>
      </trkpt>
      <trkpt lat="37.4235408939" lon="-6.0286655836">
        <ele>16.48</ele>
        <time>2020-07-09T08:06:50Z</time>
      </trkpt>
      <trkpt lat="37.4235503655" lon="-6.0287349857">
        <ele>16.48</ele>
        <time>2020-07-09T08:06:51Z</time>
      </trkpt>
      <trkpt lat="37.4235558137" lon="-6.0288033821">
        <ele>16.00</ele>
        <time>2020-07-09T08:06:52Z</time>
      </trkpt>
      <trkpt lat="37.4235936999" lon="-6.0292429291">
        <ele>16.48</ele>
        <time>2020-07-09T08:06:59Z</time>
      </trkpt>
      <trkpt lat="37.4236827996" lon="-6.0296865832">
        <ele>16.48</ele>
        <time>2020-07-09T08:07:07Z</time>
      </trkpt>
      <trkpt lat="37.4236967135" lon="-6.0297437478">
        <ele>16.48</ele>
        <time>2020-07-09T08:07:08Z</time>
      </trkpt>
      <trkpt lat="37.4237159919" lon="-6.0297955479">
        <ele>16.00</ele>
        <time>2020-07-09T08:07:09Z</time>
      </trkpt>
      <trkpt lat="37.4237453286" lon="-6.0298439115">
        <ele>16.00</ele>
        <time>2020-07-09T08:07:10Z</time>
      </trkpt>
      <trkpt lat="37.4237753358" lon="-6.0298760142">
        <ele>16.00</ele>
        <time>2020-07-09T08:07:11Z</time>
      </trkpt>
      <trkpt lat="37.4238097854" lon="-6.0299093742">
        <ele>16.00</ele>
        <time>2020-07-09T08:07:12Z</time>
      </trkpt>
      <trkpt lat="37.4238465820" lon="-6.0299414769">
        <ele>16.00</ele>
        <time>2020-07-09T08:07:13Z</time>
      </trkpt>
      <trkpt lat="37.4238854740" lon="-6.0299719032">
        <ele>16.00</ele>
        <time>2020-07-09T08:07:14Z</time>
      </trkpt>
      <trkpt lat="37.4243294634" lon="-6.0303199198">
        <ele>16.48</ele>
        <time>2020-07-09T08:07:26Z</time>
      </trkpt>
      <trkpt lat="37.4247715250" lon="-6.0306240991">
        <ele>16.96</ele>
        <time>2020-07-09T08:07:37Z</time>
      </trkpt>
      <trkpt lat="37.4252175260" lon="-6.0309452098">
        <ele>17.44</ele>
        <time>2020-07-09T08:07:48Z</time>
      </trkpt>
      <trkpt lat="37.4255596753" lon="-6.0312144365">
        <ele>17.44</ele>
        <time>2020-07-09T08:07:57Z</time>
      </trkpt>
      <trkpt lat="37.4259942770" lon="-6.0315606929">
        <ele>17.92</ele>
        <time>2020-07-09T08:08:08Z</time>
      </trkpt>
      <trkpt lat="37.4263981171" lon="-6.0318502877">
        <ele>17.92</ele>
        <time>2020-07-09T08:08:18Z</time>
      </trkpt>
      <trkpt lat="37.4268293660" lon="-6.0321463365">
        <ele>17.44</ele>
        <time>2020-07-09T08:08:29Z</time>
      </trkpt>
      <trkpt lat="37.4272484612" lon="-6.0324039962">
        <ele>17.44</ele>
        <time>2020-07-09T08:08:39Z</time>
      </trkpt>
      <trkpt lat="37.4276229646" lon="-6.0326486640">
        <ele>17.44</ele>
        <time>2020-07-09T08:08:48Z</time>
      </trkpt>
      <trkpt lat="37.4279890023" lon="-6.0329319723">
        <ele>16.96</ele>
        <time>2020-07-09T08:08:57Z</time>
      </trkpt>
      <trkpt lat="37.4282629229" lon="-6.0331618041">
        <ele>16.96</ele>
        <time>2020-07-09T08:09:05Z</time>
      </trkpt>
      <trkpt lat="37.4285100214" lon="-6.0333471280">
        <ele>17.44</ele>
        <time>2020-07-09T08:09:12Z</time>
      </trkpt>
      <trkpt lat="37.4289675895" lon="-6.0336530674">
        <ele>17.44</ele>
        <time>2020-07-09T08:09:23Z</time>
      </trkpt>
      <trkpt lat="37.4292752054" lon="-6.0338279139">
        <ele>16.48</ele>
        <time>2020-07-09T08:09:31Z</time>
      </trkpt>
      <trkpt lat="37.4294700008" lon="-6.0339407343">
        <ele>16.00</ele>
        <time>2020-07-09T08:09:36Z</time>
      </trkpt>
      <trkpt lat="37.4295093119" lon="-6.0339704063">
        <ele>16.00</ele>
        <time>2020-07-09T08:09:37Z</time>
      </trkpt>
      <trkpt lat="37.4298421573" lon="-6.0341410618">
        <ele>16.00</ele>
        <time>2020-07-09T08:09:45Z</time>
      </trkpt>
      <trkpt lat="37.4300548062" lon="-6.0342457518">
        <ele>17.44</ele>
        <time>2020-07-09T08:09:52Z</time>
      </trkpt>
      <trkpt lat="37.4303050898" lon="-6.0343594104">
        <ele>15.52</ele>
        <time>2020-07-09T08:09:59Z</time>
      </trkpt>
      <trkpt lat="37.4304851331" lon="-6.0344231967">
        <ele>15.52</ele>
        <time>2020-07-09T08:10:05Z</time>
      </trkpt>
      <trkpt lat="37.4305885658" lon="-6.0345870629">
        <ele>16.00</ele>
        <time>2020-07-09T08:10:10Z</time>
      </trkpt>
      <trkpt lat="37.4305862188" lon="-6.0346775874">
        <ele>15.52</ele>
        <time>2020-07-09T08:10:12Z</time>
      </trkpt>
      <trkpt lat="37.4304350093" lon="-6.0350720398">
        <ele>14.56</ele>
        <time>2020-07-09T08:10:20Z</time>
      </trkpt>
      <trkpt lat="37.4304200895" lon="-6.0351376701">
        <ele>14.56</ele>
        <time>2020-07-09T08:10:21Z</time>
      </trkpt>
      <trkpt lat="37.4304143060" lon="-6.0351779032">
        <ele>14.56</ele>
        <time>2020-07-09T08:10:22Z</time>
      </trkpt>
      <trkpt lat="37.4303936027" lon="-6.0353308730">
        <ele>15.04</ele>
        <time>2020-07-09T08:10:25Z</time>
      </trkpt>
      <trkpt lat="37.4303593207" lon="-6.0355468746">
        <ele>16.00</ele>
        <time>2020-07-09T08:10:29Z</time>
      </trkpt>
      <trkpt lat="37.4303345941" lon="-6.0361356195">
        <ele>16.96</ele>
        <time>2020-07-09T08:10:39Z</time>
      </trkpt>
      <trkpt lat="37.4303407129" lon="-6.0361722484">
        <ele>16.48</ele>
        <time>2020-07-09T08:10:43Z</time>
      </trkpt>
      <trkpt lat="37.4303450715" lon="-6.0361798760">
        <ele>16.48</ele>
        <time>2020-07-09T08:10:57Z</time>
      </trkpt>
      <trkpt lat="37.4303394556" lon="-6.0361841507">
        <ele>16.00</ele>
        <time>2020-07-09T08:10:58Z</time>
      </trkpt>
      <trkpt lat="37.4303336721" lon="-6.0361943766">
        <ele>16.00</ele>
        <time>2020-07-09T08:10:59Z</time>
      </trkpt>
      <trkpt lat="37.4303331692" lon="-6.0362083744">
        <ele>16.00</ele>
        <time>2020-07-09T08:11:00Z</time>
      </trkpt>
      <trkpt lat="37.4303262960" lon="-6.0363682173">
        <ele>16.48</ele>
        <time>2020-07-09T08:11:08Z</time>
      </trkpt>
      <trkpt lat="37.4303060956" lon="-6.0365636833">
        <ele>16.48</ele>
        <time>2020-07-09T08:11:15Z</time>
      </trkpt>
      <trkpt lat="37.4302782677" lon="-6.0368931759">
        <ele>16.96</ele>
        <time>2020-07-09T08:11:25Z</time>
      </trkpt>
      <trkpt lat="37.4302485958" lon="-6.0372421145">
        <ele>18.88</ele>
        <time>2020-07-09T08:11:36Z</time>
      </trkpt>
      <trkpt lat="37.4302173313" lon="-6.0375482216">
        <ele>19.36</ele>
        <time>2020-07-09T08:11:45Z</time>
      </trkpt>
      <trkpt lat="37.4301812053" lon="-6.0378854256">
        <ele>20.32</ele>
        <time>2020-07-09T08:11:55Z</time>
      </trkpt>
      <trkpt lat="37.4301910121" lon="-6.0381724220">
        <ele>21.77</ele>
        <time>2020-07-09T08:12:04Z</time>
      </trkpt>
      <trkpt lat="37.4302869849" lon="-6.0383301694">
        <ele>22.25</ele>
        <time>2020-07-09T08:12:11Z</time>
      </trkpt>
      <trkpt lat="37.4304338358" lon="-6.0384550598">
        <ele>23.21</ele>
        <time>2020-07-09T08:12:19Z</time>
      </trkpt>
      <trkpt lat="37.4306903221" lon="-6.0385201033">
        <ele>24.65</ele>
        <time>2020-07-09T08:12:28Z</time>
      </trkpt>
      <trkpt lat="37.4310841039" lon="-6.0385998152">
        <ele>26.09</ele>
        <time>2020-07-09T08:12:39Z</time>
      </trkpt>
      <trkpt lat="37.4312839285" lon="-6.0387136415">
        <ele>27.05</ele>
        <time>2020-07-09T08:12:46Z</time>
      </trkpt>
      <trkpt lat="37.4313300289" lon="-6.0388153140">
        <ele>27.53</ele>
        <time>2020-07-09T08:12:49Z</time>
      </trkpt>
      <trkpt lat="37.4313571863" lon="-6.0388336703">
        <ele>27.53</ele>
        <time>2020-07-09T08:12:50Z</time>
      </trkpt>
      <trkpt lat="37.4313889537" lon="-6.0388410464">
        <ele>28.02</ele>
        <time>2020-07-09T08:12:51Z</time>
      </trkpt>
      <trkpt lat="37.4314215593" lon="-6.0388481710">
        <ele>28.02</ele>
        <time>2020-07-09T08:12:52Z</time>
      </trkpt>
      <trkpt lat="37.4314568471" lon="-6.0388531163">
        <ele>28.50</ele>
        <time>2020-07-09T08:12:53Z</time>
      </trkpt>
      <trkpt lat="37.4317034427" lon="-6.0389132984">
        <ele>28.98</ele>
        <time>2020-07-09T08:13:01Z</time>
      </trkpt>
      <trkpt lat="37.4318688177" lon="-6.0389363486">
        <ele>28.98</ele>
        <time>2020-07-09T08:13:07Z</time>
      </trkpt>
      <trkpt lat="37.4319467694" lon="-6.0389110353">
        <ele>28.02</ele>
        <time>2020-07-09T08:13:11Z</time>
      </trkpt>
      <trkpt lat="37.4319599289" lon="-6.0388981272">
        <ele>28.02</ele>
        <time>2020-07-09T08:13:12Z</time>
      </trkpt>
      <trkpt lat="37.4319963064" lon="-6.0387875699">
        <ele>26.57</ele>
        <time>2020-07-09T08:13:17Z</time>
      </trkpt>
      <trkpt lat="37.4320187699" lon="-6.0387330875">
        <ele>27.05</ele>
        <time>2020-07-09T08:13:19Z</time>
      </trkpt>
      <trkpt lat="37.4320484418" lon="-6.0387247894">
        <ele>27.05</ele>
        <time>2020-07-09T08:13:20Z</time>
      </trkpt>
      <trkpt lat="37.4320714921" lon="-6.0387263820">
        <ele>27.05</ele>
        <time>2020-07-09T08:13:21Z</time>
      </trkpt>
      <trkpt lat="37.4321017507" lon="-6.0387315787">
        <ele>27.05</ele>
        <time>2020-07-09T08:13:22Z</time>
      </trkpt>
      <trkpt lat="37.4323666189" lon="-6.0387780983">
        <ele>27.05</ele>
        <time>2020-07-09T08:13:30Z</time>
      </trkpt>
      <trkpt lat="37.4326784257" lon="-6.0388279706">
        <ele>26.09</ele>
        <time>2020-07-09T08:13:39Z</time>
      </trkpt>
      <trkpt lat="37.4329421204" lon="-6.0388432257">
        <ele>25.13</ele>
        <time>2020-07-09T08:13:47Z</time>
      </trkpt>
      <trkpt lat="37.4329582136" lon="-6.0388539545">
        <ele>25.13</ele>
        <time>2020-07-09T08:13:48Z</time>
      </trkpt>
      <trkpt lat="37.4329690263" lon="-6.0388678685">
        <ele>25.13</ele>
        <time>2020-07-09T08:13:49Z</time>
      </trkpt>
      <trkpt lat="37.4329782464" lon="-6.0388756637">
        <ele>26.09</ele>
        <time>2020-07-09T08:13:55Z</time>
      </trkpt>
      <trkpt lat="37.4330163840" lon="-6.0388885718">
        <ele>25.13</ele>
        <time>2020-07-09T08:14:03Z</time>
      </trkpt>
      <trkpt lat="37.4330398533" lon="-6.0388557147">
        <ele>22.73</ele>
        <time>2020-07-09T08:14:10Z</time>
      </trkpt>
      <trkpt lat="37.4330449663" lon="-6.0388512723">
        <ele>22.73</ele>
        <time>2020-07-09T08:14:11Z</time>
      </trkpt>
      <trkpt lat="37.4330580421" lon="-6.0388435610">
        <ele>23.21</ele>
        <time>2020-07-09T08:14:12Z</time>
      </trkpt>
      <trkpt lat="37.4330778234" lon="-6.0388383642">
        <ele>23.69</ele>
        <time>2020-07-09T08:14:13Z</time>
      </trkpt>
      <trkpt lat="37.4331007898" lon="-6.0388402920">
        <ele>24.17</ele>
        <time>2020-07-09T08:14:14Z</time>
      </trkpt>
      <trkpt lat="37.4331301264" lon="-6.0388434771">
        <ele>24.65</ele>
        <time>2020-07-09T08:14:15Z</time>
      </trkpt>
      <trkpt lat="37.4331603013" lon="-6.0388447344">
        <ele>24.65</ele>
        <time>2020-07-09T08:14:16Z</time>
      </trkpt>
      <trkpt lat="37.4331935775" lon="-6.0388470814">
        <ele>25.13</ele>
        <time>2020-07-09T08:14:17Z</time>
      </trkpt>
      <trkpt lat="37.4335981719" lon="-6.0388498474">
        <ele>25.61</ele>
        <time>2020-07-09T08:14:29Z</time>
      </trkpt>
      <trkpt lat="37.4338423368" lon="-6.0388474166">
        <ele>26.09</ele>
        <time>2020-07-09T08:14:37Z</time>
      </trkpt>
      <trkpt lat="37.4340035208" lon="-6.0388369393">
        <ele>27.53</ele>
        <time>2020-07-09T08:14:44Z</time>
      </trkpt>
      <trkpt lat="37.4340059515" lon="-6.0388265457">
        <ele>28.02</ele>
        <time>2020-07-09T08:14:48Z</time>
      </trkpt>
      <trkpt lat="37.4340088852" lon="-6.0388331674">
        <ele>28.02</ele>
        <time>2020-07-09T08:14:59Z</time>
      </trkpt>
      <trkpt lat="37.4341201130" lon="-6.0388509370">
        <ele>28.50</ele>
        <time>2020-07-09T08:15:05Z</time>
      </trkpt>
      <trkpt lat="37.4343615118" lon="-6.0388606600">
        <ele>28.98</ele>
        <time>2020-07-09T08:15:13Z</time>
      </trkpt>
      <trkpt lat="37.4345993903" lon="-6.0387505218">
        <ele>27.53</ele>
        <time>2020-07-09T08:15:20Z</time>
      </trkpt>
      <trkpt lat="37.4347671121" lon="-6.0385864042">
        <ele>27.53</ele>
        <time>2020-07-09T08:15:26Z</time>
      </trkpt>
      <trkpt lat="37.4348364305" lon="-6.0384028405">
        <ele>27.05</ele>
        <time>2020-07-09T08:15:30Z</time>
      </trkpt>
      <trkpt lat="37.4348505959" lon="-6.0383506212">
        <ele>27.05</ele>
        <time>2020-07-09T08:15:31Z</time>
      </trkpt>
      <trkpt lat="37.4348627497" lon="-6.0383048560">
        <ele>27.05</ele>
        <time>2020-07-09T08:15:32Z</time>
      </trkpt>
      <trkpt lat="37.4350040685" lon="-6.0378828272">
        <ele>26.09</ele>
        <time>2020-07-09T08:15:40Z</time>
      </trkpt>
      <trkpt lat="37.4350284599" lon="-6.0377779696">
        <ele>26.09</ele>
        <time>2020-07-09T08:15:42Z</time>
      </trkpt>
      <trkpt lat="37.4350344948" lon="-6.0377264209">
        <ele>25.61</ele>
        <time>2020-07-09T08:15:43Z</time>
      </trkpt>
      <trkpt lat="37.4350458942" lon="-6.0376735311">
        <ele>26.09</ele>
        <time>2020-07-09T08:15:44Z</time>
      </trkpt>
      <trkpt lat="37.4350751471" lon="-6.0375722777">
        <ele>26.09</ele>
        <time>2020-07-09T08:15:46Z</time>
      </trkpt>
      <trkpt lat="37.4350818526" lon="-6.0375200585">
        <ele>26.09</ele>
        <time>2020-07-09T08:15:47Z</time>
      </trkpt>
      <trkpt lat="37.4351076689" lon="-6.0372023005">
        <ele>25.61</ele>
        <time>2020-07-09T08:15:54Z</time>
      </trkpt>
      <trkpt lat="37.4351453874" lon="-6.0367363505">
        <ele>23.69</ele>
        <time>2020-07-09T08:16:04Z</time>
      </trkpt>
      <trkpt lat="37.4351638276" lon="-6.0365793575">
        <ele>23.69</ele>
        <time>2020-07-09T08:16:10Z</time>
      </trkpt>
      <trkpt lat="37.4351588823" lon="-6.0365577321">
        <ele>22.73</ele>
        <time>2020-07-09T08:16:12Z</time>
      </trkpt>
      <trkpt lat="37.4350557849" lon="-6.0365098715">
        <ele>22.73</ele>
        <time>2020-07-09T08:16:18Z</time>
      </trkpt>
      <trkpt lat="37.4348310661" lon="-6.0364649445">
        <ele>24.65</ele>
        <time>2020-07-09T08:16:26Z</time>
      </trkpt>
      <trkpt lat="37.4346253742" lon="-6.0364499409">
        <ele>26.09</ele>
        <time>2020-07-09T08:16:34Z</time>
      </trkpt>
      <trkpt lat="37.4345782679" lon="-6.0364356916">
        <ele>26.57</ele>
        <time>2020-07-09T08:16:40Z</time>
      </trkpt>
      <trkpt lat="37.4345455784" lon="-6.0364392120">
        <ele>27.05</ele>
        <time>2020-07-09T08:16:44Z</time>
      </trkpt>
      <trkpt lat="37.4345028307" lon="-6.0364237893">
        <ele>26.57</ele>
        <time>2020-07-09T08:16:48Z</time>
      </trkpt>
      <trkpt lat="37.4344109651" lon="-6.0363956261">
        <ele>27.05</ele>
        <time>2020-07-09T08:16:53Z</time>
      </trkpt>
      <trkpt lat="37.4342275690" lon="-6.0363890883">
        <ele>27.05</ele>
        <time>2020-07-09T08:17:01Z</time>
      </trkpt>
      <trkpt lat="37.4342102185" lon="-6.0363864899">
        <ele>27.05</ele>
        <time>2020-07-09T08:17:02Z</time>
      </trkpt>
      <trkpt lat="37.4341566581" lon="-6.0363153275">
        <ele>27.05</ele>
        <time>2020-07-09T08:17:09Z</time>
      </trkpt>
      <trkpt lat="37.4342165049" lon="-6.0363647807">
        <ele>26.09</ele>
        <time>2020-07-09T08:17:14Z</time>
      </trkpt>
      <trkpt lat="37.4342875835" lon="-6.0363800358">
        <ele>26.57</ele>
        <time>2020-07-09T08:17:18Z</time>
      </trkpt>
      <trkpt lat="37.4343124777" lon="-6.0363771860">
        <ele>26.57</ele>
        <time>2020-07-09T08:17:19Z</time>
      </trkpt>
      <trkpt lat="37.4343328457" lon="-6.0363772698">
        <ele>26.57</ele>
        <time>2020-07-09T08:17:20Z</time>
      </trkpt>
      <trkpt lat="37.4343552254" lon="-6.0363812931">
        <ele>26.57</ele>
        <time>2020-07-09T08:17:21Z</time>
      </trkpt>
      <trkpt lat="37.4343782756" lon="-6.0363883339">
        <ele>26.57</ele>
        <time>2020-07-09T08:17:22Z</time>
      </trkpt>
      <trkpt lat="37.4345190078" lon="-6.0364232864">
        <ele>25.13</ele>
        <time>2020-07-09T08:17:29Z</time>
      </trkpt>
      <trkpt lat="37.4345434830" lon="-6.0364439897">
        <ele>25.61</ele>
        <time>2020-07-09T08:17:31Z</time>
      </trkpt>
      <trkpt lat="37.4345424771" lon="-6.0364973824">
        <ele>26.57</ele>
        <time>2020-07-09T08:17:34Z</time>
      </trkpt>
      <trkpt lat="37.4345387053" lon="-6.0367351770">
        <ele>30.42</ele>
        <time>2020-07-09T08:17:42Z</time>
      </trkpt>
      <trkpt lat="37.4344006553" lon="-6.0367334168">
        <ele>32.34</ele>
        <time>2020-07-09T08:17:51Z</time>
      </trkpt>
      <trkpt lat="37.4342575762" lon="-6.0367003083">
        <ele>33.78</ele>
        <time>2020-07-09T08:17:58Z</time>
      </trkpt>
      <trkpt lat="37.4340899382" lon="-6.0366647691">
        <ele>34.26</ele>
        <time>2020-07-09T08:18:06Z</time>
      </trkpt>
      <trkpt lat="37.4340840708" lon="-6.0366668645">
        <ele>36.67</ele>
        <time>2020-07-09T08:18:10Z</time>
      </trkpt>
      <trkpt lat="37.4341262318" lon="-6.0366501007">
        <ele>39.55</ele>
        <time>2020-07-09T08:18:15Z</time>
      </trkpt>
      <trkpt lat="37.4341537245" lon="-6.0366330855">
        <ele>41.47</ele>
        <time>2020-07-09T08:18:20Z</time>
      </trkpt>
      <trkpt lat="37.4341346975" lon="-6.0366350971">
        <ele>43.88</ele>
        <time>2020-07-09T08:18:26Z</time>
      </trkpt>
      <trkpt lat="37.4341083784" lon="-6.0366568062">
        <ele>43.88</ele>
        <time>2020-07-09T08:18:34Z</time>
      </trkpt>
      <trkpt lat="37.4341171794" lon="-6.0366455745">
        <ele>43.40</ele>
        <time>2020-07-09T08:18:50Z</time>
      </trkpt>
      <trkpt lat="37.4341203645" lon="-6.0366267990">
        <ele>41.47</ele>
        <time>2020-07-09T08:19:02Z</time>
      </trkpt>
      <trkpt lat="37.4341253098" lon="-6.0366130527">
        <ele>41.95</ele>
        <time>2020-07-09T08:19:17Z</time>
      </trkpt>
      <trkpt lat="37.4341154192" lon="-6.0366021562">
        <ele>38.59</ele>
        <time>2020-07-09T08:19:26Z</time>
      </trkpt>
      <trkpt lat="37.4341080431" lon="-6.0366189200">
        <ele>38.11</ele>
        <time>2020-07-09T08:19:35Z</time>
      </trkpt>
      <trkpt lat="37.4341573287" lon="-6.0366288945">
        <ele>37.15</ele>
        <time>2020-07-09T08:19:40Z</time>
      </trkpt>
      <trkpt lat="37.4341678899" lon="-6.0366434790">
        <ele>36.67</ele>
        <time>2020-07-09T08:19:41Z</time>
      </trkpt>
      <trkpt lat="37.4341837317" lon="-6.0366570577">
        <ele>36.19</ele>
        <time>2020-07-09T08:19:42Z</time>
      </trkpt>
      <trkpt lat="37.4342009984" lon="-6.0366668645">
        <ele>36.19</ele>
        <time>2020-07-09T08:19:43Z</time>
      </trkpt>
      <trkpt lat="37.4342209473" lon="-6.0366732348">
        <ele>36.19</ele>
        <time>2020-07-09T08:19:44Z</time>
      </trkpt>
      <trkpt lat="37.4342419859" lon="-6.0366780125">
        <ele>35.71</ele>
        <time>2020-07-09T08:19:45Z</time>
      </trkpt>
      <trkpt lat="37.4342613481" lon="-6.0366850533">
        <ele>35.71</ele>
        <time>2020-07-09T08:19:46Z</time>
      </trkpt>
      <trkpt lat="37.4342817161" lon="-6.0366891604">
        <ele>35.71</ele>
        <time>2020-07-09T08:19:47Z</time>
      </trkpt>
      <trkpt lat="37.4343017489" lon="-6.0366904177">
        <ele>35.71</ele>
        <time>2020-07-09T08:19:48Z</time>
      </trkpt>
      <trkpt lat="37.4343207758" lon="-6.0366923455">
        <ele>34.74</ele>
        <time>2020-07-09T08:19:49Z</time>
      </trkpt>
      <trkpt lat="37.4343402218" lon="-6.0366961174">
        <ele>34.74</ele>
        <time>2020-07-09T08:19:50Z</time>
      </trkpt>
      <trkpt lat="37.4344768468" lon="-6.0367510188">
        <ele>32.82</ele>
        <time>2020-07-09T08:19:57Z</time>
      </trkpt>
      <trkpt lat="37.4345146492" lon="-6.0367397871">
        <ele>32.34</ele>
        <time>2020-07-09T08:19:59Z</time>
      </trkpt>
      <trkpt lat="37.4345267192" lon="-6.0367214307">
        <ele>32.34</ele>
        <time>2020-07-09T08:20:00Z</time>
      </trkpt>
      <trkpt lat="37.4345383700" lon="-6.0366938543">
        <ele>31.86</ele>
        <time>2020-07-09T08:20:01Z</time>
      </trkpt>
      <trkpt lat="37.4345441535" lon="-6.0366694629">
        <ele>31.86</ele>
        <time>2020-07-09T08:20:02Z</time>
      </trkpt>
      <trkpt lat="37.4345492665" lon="-6.0366380308">
        <ele>31.86</ele>
        <time>2020-07-09T08:20:03Z</time>
      </trkpt>
      <trkpt lat="37.4345768429" lon="-6.0364362784">
        <ele>31.38</ele>
        <time>2020-07-09T08:20:10Z</time>
      </trkpt>
      <trkpt lat="37.4346153159" lon="-6.0364269745">
        <ele>29.94</ele>
        <time>2020-07-09T08:20:12Z</time>
      </trkpt>
      <trkpt lat="37.4346382823" lon="-6.0364310816">
        <ele>29.46</ele>
        <time>2020-07-09T08:20:13Z</time>
      </trkpt>
      <trkpt lat="37.4346579798" lon="-6.0364311654">
        <ele>28.98</ele>
        <time>2020-07-09T08:20:14Z</time>
      </trkpt>
      <trkpt lat="37.4349080957" lon="-6.0364589095">
        <ele>27.53</ele>
        <time>2020-07-09T08:20:22Z</time>
      </trkpt>
      <trkpt lat="37.4350593053" lon="-6.0364773497">
        <ele>27.53</ele>
        <time>2020-07-09T08:20:26Z</time>
      </trkpt>
      <trkpt lat="37.4351401906" lon="-6.0365255456">
        <ele>27.53</ele>
        <time>2020-07-09T08:20:29Z</time>
      </trkpt>
      <trkpt lat="37.4351510871" lon="-6.0367004760">
        <ele>26.57</ele>
        <time>2020-07-09T08:20:34Z</time>
      </trkpt>
      <trkpt lat="37.4351269472" lon="-6.0369463172">
        <ele>27.53</ele>
        <time>2020-07-09T08:20:40Z</time>
      </trkpt>
      <trkpt lat="37.4350749794" lon="-6.0373819247">
        <ele>28.98</ele>
        <time>2020-07-09T08:20:50Z</time>
      </trkpt>
      <trkpt lat="37.4350746442" lon="-6.0374223255">
        <ele>28.98</ele>
        <time>2020-07-09T08:20:51Z</time>
      </trkpt>
      <trkpt lat="37.4351153802" lon="-6.0374604631">
        <ele>28.02</ele>
        <time>2020-07-09T08:20:54Z</time>
      </trkpt>
      <trkpt lat="37.4351420347" lon="-6.0374358203">
        <ele>28.02</ele>
        <time>2020-07-09T08:20:55Z</time>
      </trkpt>
      <trkpt lat="37.4351596367" lon="-6.0374153685">
        <ele>28.02</ele>
        <time>2020-07-09T08:20:56Z</time>
      </trkpt>
      <trkpt lat="37.4351860397" lon="-6.0373819247">
        <ele>28.02</ele>
        <time>2020-07-09T08:20:57Z</time>
      </trkpt>
      <trkpt lat="37.4353131093" lon="-6.0372568667">
        <ele>27.05</ele>
        <time>2020-07-09T08:21:01Z</time>
      </trkpt>
      <trkpt lat="37.4353492353" lon="-6.0372336488">
        <ele>26.57</ele>
        <time>2020-07-09T08:21:02Z</time>
      </trkpt>
      <trkpt lat="37.4353886303" lon="-6.0372119397">
        <ele>26.57</ele>
        <time>2020-07-09T08:21:03Z</time>
      </trkpt>
      <trkpt lat="37.4354330543" lon="-6.0371930804">
        <ele>26.57</ele>
        <time>2020-07-09T08:21:04Z</time>
      </trkpt>
      <trkpt lat="37.4354727846" lon="-6.0371797532">
        <ele>26.57</ele>
        <time>2020-07-09T08:21:05Z</time>
      </trkpt>
      <trkpt lat="37.4355954118" lon="-6.0371562839">
        <ele>26.57</ele>
        <time>2020-07-09T08:21:10Z</time>
      </trkpt>
      <trkpt lat="37.4356511515" lon="-6.0371343233">
        <ele>23.21</ele>
        <time>2020-07-09T08:21:17Z</time>
      </trkpt>
      <trkpt lat="37.4356649816" lon="-6.0371372569">
        <ele>23.21</ele>
        <time>2020-07-09T08:21:18Z</time>
      </trkpt>
      <trkpt lat="37.4356804043" lon="-6.0371429566">
        <ele>23.21</ele>
        <time>2020-07-09T08:21:19Z</time>
      </trkpt>
      <trkpt lat="37.4356931448" lon="-6.0371556133">
        <ele>23.21</ele>
        <time>2020-07-09T08:21:20Z</time>
      </trkpt>
      <trkpt lat="37.4358303566" lon="-6.0372571182">
        <ele>22.73</ele>
        <time>2020-07-09T08:21:26Z</time>
      </trkpt>
      <trkpt lat="37.4359031953" lon="-6.0372983571">
        <ele>22.25</ele>
        <time>2020-07-09T08:21:28Z</time>
      </trkpt>
      <trkpt lat="37.4362624437" lon="-6.0375395883">
        <ele>20.81</ele>
        <time>2020-07-09T08:21:36Z</time>
      </trkpt>
      <trkpt lat="37.4366591591" lon="-6.0379059613">
        <ele>20.81</ele>
        <time>2020-07-09T08:21:45Z</time>
      </trkpt>
      <trkpt lat="37.4368084408" lon="-6.0380482022">
        <ele>21.29</ele>
        <time>2020-07-09T08:21:49Z</time>
      </trkpt>
      <trkpt lat="37.4368472490" lon="-6.0380667262">
        <ele>21.29</ele>
        <time>2020-07-09T08:21:50Z</time>
      </trkpt>
      <trkpt lat="37.4368886556" lon="-6.0380746052">
        <ele>21.29</ele>
        <time>2020-07-09T08:21:51Z</time>
      </trkpt>
      <trkpt lat="37.4369293917" lon="-6.0380860884">
        <ele>21.29</ele>
        <time>2020-07-09T08:21:52Z</time>
      </trkpt>
      <trkpt lat="37.4369654339" lon="-6.0381075460">
        <ele>21.29</ele>
        <time>2020-07-09T08:21:53Z</time>
      </trkpt>
      <trkpt lat="37.4370017275" lon="-6.0381397326">
        <ele>21.29</ele>
        <time>2020-07-09T08:21:54Z</time>
      </trkpt>
      <trkpt lat="37.4370302260" lon="-6.0381723382">
        <ele>21.77</ele>
        <time>2020-07-09T08:21:55Z</time>
      </trkpt>
      <trkpt lat="37.4370553717" lon="-6.0382109787">
        <ele>21.77</ele>
        <time>2020-07-09T08:21:56Z</time>
      </trkpt>
      <trkpt lat="37.4370764941" lon="-6.0382504575">
        <ele>22.25</ele>
        <time>2020-07-09T08:21:57Z</time>
      </trkpt>
      <trkpt lat="37.4371956009" lon="-6.0385050997">
        <ele>23.69</ele>
        <time>2020-07-09T08:22:04Z</time>
      </trkpt>
      <trkpt lat="37.4372597225" lon="-6.0387721471">
        <ele>26.09</ele>
        <time>2020-07-09T08:22:12Z</time>
      </trkpt>
      <trkpt lat="37.4372685235" lon="-6.0391587205">
        <ele>29.46</ele>
        <time>2020-07-09T08:22:22Z</time>
      </trkpt>
      <trkpt lat="37.4373574555" lon="-6.0394475609">
        <ele>30.42</ele>
        <time>2020-07-09T08:22:30Z</time>
      </trkpt>
      <trkpt lat="37.4375359062" lon="-6.0396984313">
        <ele>29.94</ele>
        <time>2020-07-09T08:22:38Z</time>
      </trkpt>
      <trkpt lat="37.4377735332" lon="-6.0400139261">
        <ele>28.98</ele>
        <time>2020-07-09T08:22:47Z</time>
      </trkpt>
      <trkpt lat="37.4379996769" lon="-6.0402240604">
        <ele>29.46</ele>
        <time>2020-07-09T08:22:55Z</time>
      </trkpt>
      <trkpt lat="37.4381567538" lon="-6.0403324384">
        <ele>29.94</ele>
        <time>2020-07-09T08:23:02Z</time>
      </trkpt>
      <trkpt lat="37.4383831490" lon="-6.0404538084">
        <ele>30.42</ele>
        <time>2020-07-09T08:23:09Z</time>
      </trkpt>
      <trkpt lat="37.4384052772" lon="-6.0404553171">
        <ele>30.42</ele>
        <time>2020-07-09T08:23:10Z</time>
      </trkpt>
      <trkpt lat="37.4384219572" lon="-6.0404518805">
        <ele>30.42</ele>
        <time>2020-07-09T08:23:11Z</time>
      </trkpt>
      <trkpt lat="37.4384364579" lon="-6.0404421575">
        <ele>30.42</ele>
        <time>2020-07-09T08:23:12Z</time>
      </trkpt>
      <trkpt lat="37.4384414032" lon="-6.0404274892">
        <ele>30.42</ele>
        <time>2020-07-09T08:23:17Z</time>
      </trkpt>
      <trkpt lat="37.4384439178" lon="-6.0404383019">
        <ele>28.50</ele>
        <time>2020-07-09T08:23:32Z</time>
      </trkpt>
      <trkpt lat="37.4384424929" lon="-6.0404347815">
        <ele>28.98</ele>
        <time>2020-07-09T08:23:47Z</time>
      </trkpt>
      <trkpt lat="37.4384328537" lon="-6.0404342785">
        <ele>30.90</ele>
        <time>2020-07-09T08:23:59Z</time>
      </trkpt>
      <trkpt lat="37.4384343624" lon="-6.0404258128">
        <ele>32.82</ele>
        <time>2020-07-09T08:24:11Z</time>
      </trkpt>
      <trkpt lat="37.4384454265" lon="-6.0403990746">
        <ele>33.30</ele>
        <time>2020-07-09T08:24:36Z</time>
      </trkpt>
      <trkpt lat="37.4384480249" lon="-6.0404134914">
        <ele>30.42</ele>
        <time>2020-07-09T08:24:52Z</time>
      </trkpt>
      <trkpt lat="37.4384614360" lon="-6.0404189397">
        <ele>30.90</ele>
        <time>2020-07-09T08:25:11Z</time>
      </trkpt>
      <trkpt lat="37.4384424090" lon="-6.0404244717">
        <ele>32.34</ele>
        <time>2020-07-09T08:25:33Z</time>
      </trkpt>
      <trkpt lat="37.4384445045" lon="-6.0404616874">
        <ele>32.82</ele>
        <time>2020-07-09T08:26:01Z</time>
      </trkpt>
      <trkpt lat="37.4384525511" lon="-6.0404487792">
        <ele>33.78</ele>
        <time>2020-07-09T08:26:27Z</time>
      </trkpt>
      <trkpt lat="37.4384538922" lon="-6.0404477734">
        <ele>32.82</ele>
        <time>2020-07-09T08:26:49Z</time>
      </trkpt>
      <trkpt lat="37.4384396430" lon="-6.0404339433">
        <ele>31.86</ele>
        <time>2020-07-09T08:27:12Z</time>
      </trkpt>
      <trkpt lat="37.4384382181" lon="-6.0404327698">
        <ele>30.90</ele>
        <time>2020-07-09T08:27:27Z</time>
      </trkpt>
      <trkpt lat="37.4384391401" lon="-6.0404265672">
        <ele>30.42</ele>
        <time>2020-07-09T08:27:39Z</time>
      </trkpt>
      <trkpt lat="37.4384420738" lon="-6.0404155031">
        <ele>31.38</ele>
        <time>2020-07-09T08:27:59Z</time>
      </trkpt>
      <trkpt lat="37.4384657945" lon="-6.0404275730">
        <ele>30.42</ele>
        <time>2020-07-09T08:28:08Z</time>
      </trkpt>
      <trkpt lat="37.4384673033" lon="-6.0404417384">
        <ele>30.42</ele>
        <time>2020-07-09T08:28:09Z</time>
      </trkpt>
      <trkpt lat="37.4384616874" lon="-6.0404747631">
        <ele>30.42</ele>
        <time>2020-07-09T08:28:13Z</time>
      </trkpt>
      <trkpt lat="37.4384699855" lon="-6.0404936224">
        <ele>30.42</ele>
        <time>2020-07-09T08:28:14Z</time>
      </trkpt>
      <trkpt lat="37.4384821393" lon="-6.0405084584">
        <ele>30.42</ele>
        <time>2020-07-09T08:28:15Z</time>
      </trkpt>
      <trkpt lat="37.4384989031" lon="-6.0405204445">
        <ele>30.42</ele>
        <time>2020-07-09T08:28:16Z</time>
      </trkpt>
      <trkpt lat="37.4385202769" lon="-6.0405308381">
        <ele>30.42</ele>
        <time>2020-07-09T08:28:17Z</time>
      </trkpt>
      <trkpt lat="37.4385459255" lon="-6.0405398905">
        <ele>30.42</ele>
        <time>2020-07-09T08:28:18Z</time>
      </trkpt>
      <trkpt lat="37.4385735020" lon="-6.0405506194">
        <ele>30.42</ele>
        <time>2020-07-09T08:28:19Z</time>
      </trkpt>
      <trkpt lat="37.4386039283" lon="-6.0405618511">
        <ele>30.42</ele>
        <time>2020-07-09T08:28:20Z</time>
      </trkpt>
      <trkpt lat="37.4386336841" lon="-6.0405716579">
        <ele>30.42</ele>
        <time>2020-07-09T08:28:21Z</time>
      </trkpt>
      <trkpt lat="37.4388666172" lon="-6.0406708997">
        <ele>31.38</ele>
        <time>2020-07-09T08:28:28Z</time>
      </trkpt>
      <trkpt lat="37.4392126221" lon="-6.0407852288">
        <ele>30.90</ele>
        <time>2020-07-09T08:28:37Z</time>
      </trkpt>
      <trkpt lat="37.4394219182" lon="-6.0408376995">
        <ele>30.42</ele>
        <time>2020-07-09T08:28:42Z</time>
      </trkpt>
      <trkpt lat="37.4397630617" lon="-6.0407603346">
        <ele>28.50</ele>
        <time>2020-07-09T08:28:49Z</time>
      </trkpt>
      <trkpt lat="37.4399941508" lon="-6.0406266432">
        <ele>25.61</ele>
        <time>2020-07-09T08:28:53Z</time>
      </trkpt>
      <trkpt lat="37.4400647264" lon="-6.0405970551">
        <ele>25.13</ele>
        <time>2020-07-09T08:28:54Z</time>
      </trkpt>
      <trkpt lat="37.4401456956" lon="-6.0405729152">
        <ele>24.17</ele>
        <time>2020-07-09T08:28:55Z</time>
      </trkpt>
      <trkpt lat="37.4402374774" lon="-6.0405638628">
        <ele>23.69</ele>
        <time>2020-07-09T08:28:56Z</time>
      </trkpt>
      <trkpt lat="37.4402978271" lon="-6.0405634437">
        <ele>23.21</ele>
        <time>2020-07-09T08:28:57Z</time>
      </trkpt>
      <trkpt lat="37.4403870944" lon="-6.0405765194">
        <ele>22.73</ele>
        <time>2020-07-09T08:28:58Z</time>
      </trkpt>
      <trkpt lat="37.4404713325" lon="-6.0405994020">
        <ele>21.77</ele>
        <time>2020-07-09T08:28:59Z</time>
      </trkpt>
      <trkpt lat="37.4405588396" lon="-6.0406294093">
        <ele>21.29</ele>
        <time>2020-07-09T08:29:00Z</time>
      </trkpt>
      <trkpt lat="37.4411218520" lon="-6.0409099516">
        <ele>19.36</ele>
        <time>2020-07-09T08:29:07Z</time>
      </trkpt>
      <trkpt lat="37.4418201484" lon="-6.0413988680">
        <ele>18.88</ele>
        <time>2020-07-09T08:29:17Z</time>
      </trkpt>
      <trkpt lat="37.4423996732" lon="-6.0418985970">
        <ele>18.88</ele>
        <time>2020-07-09T08:29:27Z</time>
      </trkpt>
      <trkpt lat="37.4428367056" lon="-6.0424207058">
        <ele>17.44</ele>
        <time>2020-07-09T08:29:35Z</time>
      </trkpt>
      <trkpt lat="37.4430304114" lon="-6.0426755156">
        <ele>17.44</ele>
        <time>2020-07-09T08:29:40Z</time>
      </trkpt>
      <trkpt lat="37.4430711474" lon="-6.0427149106">
        <ele>17.44</ele>
        <time>2020-07-09T08:29:44Z</time>
      </trkpt>
      <trkpt lat="37.4430772662" lon="-6.0427241307">
        <ele>17.92</ele>
        <time>2020-07-09T08:29:51Z</time>
      </trkpt>
      <trkpt lat="37.4430848937" lon="-6.0427416489">
        <ele>17.92</ele>
        <time>2020-07-09T08:29:52Z</time>
      </trkpt>
      <trkpt lat="37.4430971313" lon="-6.0427622683">
        <ele>17.92</ele>
        <time>2020-07-09T08:29:53Z</time>
      </trkpt>
      <trkpt lat="37.4431149010" lon="-6.0427811276">
        <ele>17.44</ele>
        <time>2020-07-09T08:29:54Z</time>
      </trkpt>
      <trkpt lat="37.4431374483" lon="-6.0428031720">
        <ele>17.44</ele>
        <time>2020-07-09T08:29:55Z</time>
      </trkpt>
      <trkpt lat="37.4431589060" lon="-6.0428284016">
        <ele>17.44</ele>
        <time>2020-07-09T08:29:56Z</time>
      </trkpt>
      <trkpt lat="37.4431806151" lon="-6.0428591631">
        <ele>17.44</ele>
        <time>2020-07-09T08:29:57Z</time>
      </trkpt>
      <trkpt lat="37.4432031624" lon="-6.0428942833">
        <ele>17.44</ele>
        <time>2020-07-09T08:29:58Z</time>
      </trkpt>
      <trkpt lat="37.4433865584" lon="-6.0431542061">
        <ele>17.44</ele>
        <time>2020-07-09T08:30:05Z</time>
      </trkpt>
      <trkpt lat="37.4436103553" lon="-6.0434983671">
        <ele>16.48</ele>
        <time>2020-07-09T08:30:14Z</time>
      </trkpt>
      <trkpt lat="37.4438845273" lon="-6.0439403448">
        <ele>16.48</ele>
        <time>2020-07-09T08:30:23Z</time>
      </trkpt>
      <trkpt lat="37.4439586233" lon="-6.0440605413">
        <ele>16.48</ele>
        <time>2020-07-09T08:30:26Z</time>
      </trkpt>
      <trkpt lat="37.4441669136" lon="-6.0442778841">
        <ele>16.96</ele>
        <time>2020-07-09T08:30:33Z</time>
      </trkpt>
      <trkpt lat="37.4442943186" lon="-6.0443764552">
        <ele>17.44</ele>
        <time>2020-07-09T08:30:40Z</time>
      </trkpt>
      <trkpt lat="37.4442975037" lon="-6.0443958174">
        <ele>17.44</ele>
        <time>2020-07-09T08:30:41Z</time>
      </trkpt>
      <trkpt lat="37.4442940671" lon="-6.0444153473">
        <ele>17.44</ele>
        <time>2020-07-09T08:30:42Z</time>
      </trkpt>
      <trkpt lat="37.4442860205" lon="-6.0444275849">
        <ele>17.44</ele>
        <time>2020-07-09T08:30:43Z</time>
      </trkpt>
      <trkpt lat="37.4442736991" lon="-6.0444370564">
        <ele>16.96</ele>
        <time>2020-07-09T08:30:44Z</time>
      </trkpt>
      <trkpt lat="37.4442519899" lon="-6.0444398224">
        <ele>16.96</ele>
        <time>2020-07-09T08:30:45Z</time>
      </trkpt>
      <trkpt lat="37.4442312028" lon="-6.0444306023">
        <ele>16.48</ele>
        <time>2020-07-09T08:30:46Z</time>
      </trkpt>
      <trkpt lat="37.4442177080" lon="-6.0444198735">
        <ele>16.48</ele>
        <time>2020-07-09T08:30:47Z</time>
      </trkpt>
      <trkpt lat="37.4441998545" lon="-6.0444073845">
        <ele>16.48</ele>
        <time>2020-07-09T08:30:48Z</time>
      </trkpt>
      <trkpt lat="37.4441822525" lon="-6.0444026906">
        <ele>16.00</ele>
        <time>2020-07-09T08:30:49Z</time>
      </trkpt>
      <trkpt lat="37.4441636447" lon="-6.0444118269">
        <ele>16.48</ele>
        <time>2020-07-09T08:30:50Z</time>
      </trkpt>
      <trkpt lat="37.4441454560" lon="-6.0444226395">
        <ele>16.96</ele>
        <time>2020-07-09T08:30:51Z</time>
      </trkpt>
      <trkpt lat="37.4441274349" lon="-6.0444306023">
        <ele>17.44</ele>
        <time>2020-07-09T08:30:52Z</time>
      </trkpt>
      <trkpt lat="37.4441105872" lon="-6.0444391519">
        <ele>17.92</ele>
        <time>2020-07-09T08:30:53Z</time>
      </trkpt>
      <trkpt lat="37.4440981820" lon="-6.0444503836">
        <ele>18.40</ele>
        <time>2020-07-09T08:30:54Z</time>
      </trkpt>
      <trkpt lat="37.4440922309" lon="-6.0444659740">
        <ele>18.88</ele>
        <time>2020-07-09T08:30:55Z</time>
      </trkpt>
      <trkpt lat="37.4440887105" lon="-6.0444880184">
        <ele>19.36</ele>
        <time>2020-07-09T08:30:56Z</time>
      </trkpt>
      <trkpt lat="37.4440849386" lon="-6.0445079673">
        <ele>19.84</ele>
        <time>2020-07-09T08:30:57Z</time>
      </trkpt>
      <trkpt lat="37.4440775625" lon="-6.0445317719">
        <ele>20.32</ele>
        <time>2020-07-09T08:30:58Z</time>
      </trkpt>
      <trkpt lat="37.4440648220" lon="-6.0445528943">
        <ele>20.81</ele>
        <time>2020-07-09T08:30:59Z</time>
      </trkpt>
      <trkpt lat="37.4440530874" lon="-6.0445689037">
        <ele>20.81</ele>
        <time>2020-07-09T08:31:00Z</time>
      </trkpt>
      <trkpt lat="37.4440351501" lon="-6.0445861705">
        <ele>22.25</ele>
        <time>2020-07-09T08:31:06Z</time>
      </trkpt>
      <trkpt lat="37.4440345634" lon="-6.0445769504">
        <ele>22.73</ele>
        <time>2020-07-09T08:31:16Z</time>
      </trkpt>
      <trkpt lat="37.4440351501" lon="-6.0445731785">
        <ele>21.29</ele>
        <time>2020-07-09T08:31:26Z</time>
      </trkpt>
      <trkpt lat="37.4440363236" lon="-6.0445875116">
        <ele>20.81</ele>
        <time>2020-07-09T08:31:38Z</time>
      </trkpt>
      <trkpt lat="37.4440380000" lon="-6.0445948876">
        <ele>19.84</ele>
        <time>2020-07-09T08:31:49Z</time>
      </trkpt>
      <trkpt lat="37.4440207332" lon="-6.0445912834">
        <ele>17.44</ele>
        <time>2020-07-09T08:32:04Z</time>
      </trkpt>
      <trkpt lat="37.4440205656" lon="-6.0445923731">
        <ele>16.00</ele>
        <time>2020-07-09T08:32:14Z</time>
      </trkpt>
      <trkpt lat="37.4440203980" lon="-6.0445870087">
        <ele>15.52</ele>
        <time>2020-07-09T08:32:28Z</time>
      </trkpt>
      <trkpt lat="37.4440283608" lon="-6.0445859190">
        <ele>17.92</ele>
        <time>2020-07-09T08:32:42Z</time>
      </trkpt>
      <trkpt lat="37.4440142792" lon="-6.0445718374">
        <ele>20.32</ele>
        <time>2020-07-09T08:33:01Z</time>
      </trkpt>
      <trkpt lat="37.4440238345" lon="-6.0445450153">
        <ele>20.32</ele>
        <time>2020-07-09T08:33:15Z</time>
      </trkpt>
      <trkpt lat="37.4440364912" lon="-6.0445416626">
        <ele>18.88</ele>
        <time>2020-07-09T08:33:28Z</time>
      </trkpt>
      <trkpt lat="37.4440214038" lon="-6.0445920378">
        <ele>15.04</ele>
        <time>2020-07-09T08:33:49Z</time>
      </trkpt>
      <trkpt lat="37.4440331385" lon="-6.0445889365">
        <ele>17.92</ele>
        <time>2020-07-09T08:34:05Z</time>
      </trkpt>
      <trkpt lat="37.4440482259" lon="-6.0446079634">
        <ele>18.88</ele>
        <time>2020-07-09T08:34:28Z</time>
      </trkpt>
      <trkpt lat="37.4440498184" lon="-6.0445791297">
        <ele>18.40</ele>
        <time>2020-07-09T08:34:35Z</time>
      </trkpt>
      <trkpt lat="37.4440535903" lon="-6.0445419978">
        <ele>17.92</ele>
        <time>2020-07-09T08:34:39Z</time>
      </trkpt>
      <trkpt lat="37.4440589547" lon="-6.0445265751">
        <ele>17.92</ele>
        <time>2020-07-09T08:34:40Z</time>
      </trkpt>
      <trkpt lat="37.4440853577" lon="-6.0444265790">
        <ele>17.44</ele>
        <time>2020-07-09T08:34:49Z</time>
      </trkpt>
      <trkpt lat="37.4440839328" lon="-6.0444015171">
        <ele>16.96</ele>
        <time>2020-07-09T08:35:02Z</time>
      </trkpt>
      <trkpt lat="37.4440929852" lon="-6.0443918779">
        <ele>17.92</ele>
        <time>2020-07-09T08:35:23Z</time>
      </trkpt>
      <trkpt lat="37.4440830108" lon="-6.0443964880">
        <ele>17.92</ele>
        <time>2020-07-09T08:35:37Z</time>
      </trkpt>
      <trkpt lat="37.4440732040" lon="-6.0444059595">
        <ele>15.04</ele>
        <time>2020-07-09T08:36:03Z</time>
      </trkpt>
      <trkpt lat="37.4440664146" lon="-6.0443924647">
        <ele>14.56</ele>
        <time>2020-07-09T08:36:23Z</time>
      </trkpt>
      <trkpt lat="37.4440989364" lon="-6.0444000922">
        <ele>16.96</ele>
        <time>2020-07-09T08:36:45Z</time>
      </trkpt>
      <trkpt lat="37.4440633971" lon="-6.0444007628">
        <ele>13.60</ele>
        <time>2020-07-09T08:37:10Z</time>
      </trkpt>
      <trkpt lat="37.4440911412" lon="-6.0444121622">
        <ele>15.52</ele>
        <time>2020-07-09T08:37:33Z</time>
      </trkpt>
      <trkpt lat="37.4440817535" lon="-6.0444250703">
        <ele>12.63</ele>
        <time>2020-07-09T08:37:57Z</time>
      </trkpt>
      <trkpt lat="37.4440905545" lon="-6.0444095638">
        <ele>14.56</ele>
        <time>2020-07-09T08:38:16Z</time>
      </trkpt>
      <trkpt lat="37.4440940749" lon="-6.0444416665">
        <ele>15.52</ele>
        <time>2020-07-09T08:38:34Z</time>
      </trkpt>
      <trkpt lat="37.4441048875" lon="-6.0444610287">
        <ele>18.40</ele>
        <time>2020-07-09T08:38:59Z</time>
      </trkpt>
      <trkpt lat="37.4441197235" lon="-6.0444086418">
        <ele>18.40</ele>
        <time>2020-07-09T08:39:19Z</time>
      </trkpt>
      <trkpt lat="37.4441038817" lon="-6.0444055405">
        <ele>17.92</ele>
        <time>2020-07-09T08:39:43Z</time>
      </trkpt>
      <trkpt lat="37.4440879561" lon="-6.0444337875">
        <ele>15.52</ele>
        <time>2020-07-09T08:40:06Z</time>
      </trkpt>
      <trkpt lat="37.4441035464" lon="-6.0444403253">
        <ele>16.48</ele>
        <time>2020-07-09T08:40:36Z</time>
      </trkpt>
      <trkpt lat="37.4441159517" lon="-6.0444802232">
        <ele>17.44</ele>
        <time>2020-07-09T08:41:06Z</time>
      </trkpt>
      <trkpt lat="37.4441420194" lon="-6.0444080550">
        <ele>18.40</ele>
        <time>2020-07-09T08:41:32Z</time>
      </trkpt>
      <trkpt lat="37.4441453721" lon="-6.0443888605">
        <ele>18.40</ele>
        <time>2020-07-09T08:41:58Z</time>
      </trkpt>
      <trkpt lat="37.4441255070" lon="-6.0444156826">
        <ele>19.36</ele>
        <time>2020-07-09T08:42:33Z</time>
      </trkpt>
      <trkpt lat="37.4441141076" lon="-6.0444150120">
        <ele>22.73</ele>
        <time>2020-07-09T08:42:57Z</time>
      </trkpt>
      <trkpt lat="37.4441227410" lon="-6.0444352124">
        <ele>22.73</ele>
        <time>2020-07-09T08:43:22Z</time>
      </trkpt>
      <trkpt lat="37.4440958351" lon="-6.0444142576">
        <ele>19.84</ele>
        <time>2020-07-09T08:43:56Z</time>
      </trkpt>
      <trkpt lat="37.4440942425" lon="-6.0444198735">
        <ele>19.36</ele>
        <time>2020-07-09T08:44:15Z</time>
      </trkpt>
      <trkpt lat="37.4440927338" lon="-6.0444550775">
        <ele>18.88</ele>
        <time>2020-07-09T08:44:37Z</time>
      </trkpt>
      <trkpt lat="37.4440913089" lon="-6.0444351286">
        <ele>19.36</ele>
        <time>2020-07-09T08:44:55Z</time>
      </trkpt>
      <trkpt lat="37.4441029597" lon="-6.0444454383">
        <ele>18.88</ele>
        <time>2020-07-09T08:45:11Z</time>
      </trkpt>
      <trkpt lat="37.4440944102" lon="-6.0444826540">
        <ele>18.40</ele>
        <time>2020-07-09T08:45:26Z</time>
      </trkpt>
      <trkpt lat="37.4441015348" lon="-6.0444663092">
        <ele>18.40</ele>
        <time>2020-07-09T08:45:48Z</time>
      </trkpt>
      <trkpt lat="37.4440902192" lon="-6.0444363020">
        <ele>18.40</ele>
        <time>2020-07-09T08:46:12Z</time>
      </trkpt>
      <trkpt lat="37.4440939911" lon="-6.0444058757">
        <ele>16.48</ele>
        <time>2020-07-09T08:46:31Z</time>
      </trkpt>
      <trkpt lat="37.4440649059" lon="-6.0444358829">
        <ele>15.52</ele>
        <time>2020-07-09T08:46:51Z</time>
      </trkpt>
      <trkpt lat="37.4440736230" lon="-6.0444476176">
        <ele>14.56</ele>
        <time>2020-07-09T08:47:16Z</time>
      </trkpt>
      <trkpt lat="37.4440923985" lon="-6.0444455221">
        <ele>17.92</ele>
        <time>2020-07-09T08:47:44Z</time>
      </trkpt>
      <trkpt lat="37.4440938234" lon="-6.0443972424">
        <ele>17.44</ele>
        <time>2020-07-09T08:48:05Z</time>
      </trkpt>
      <trkpt lat="37.4440787360" lon="-6.0443858430">
        <ele>14.08</ele>
        <time>2020-07-09T08:48:33Z</time>
      </trkpt>
      <trkpt lat="37.4440742936" lon="-6.0443836637">
        <ele>15.52</ele>
        <time>2020-07-09T08:48:53Z</time>
      </trkpt>
      <trkpt lat="37.4441051390" lon="-6.0444231424">
        <ele>17.44</ele>
        <time>2020-07-09T08:49:15Z</time>
      </trkpt>
      <trkpt lat="37.4441031273" lon="-6.0444321111">
        <ele>18.88</ele>
        <time>2020-07-09T08:49:33Z</time>
      </trkpt>
      <trkpt lat="37.4441029597" lon="-6.0443913750">
        <ele>18.40</ele>
        <time>2020-07-09T08:49:52Z</time>
      </trkpt>
      <trkpt lat="37.4440925661" lon="-6.0443727672">
        <ele>19.36</ele>
        <time>2020-07-09T08:50:17Z</time>
      </trkpt>
      <trkpt lat="37.4440909736" lon="-6.0443559196">
        <ele>19.84</ele>
        <time>2020-07-09T08:50:37Z</time>
      </trkpt>
      <trkpt lat="37.4441249203" lon="-6.0443700012">
        <ele>19.84</ele>
        <time>2020-07-09T08:50:58Z</time>
      </trkpt>
      <trkpt lat="37.4441337213" lon="-6.0443813168">
        <ele>21.29</ele>
        <time>2020-07-09T08:51:17Z</time>
      </trkpt>
      <trkpt lat="37.4441208970" lon="-6.0443556681">
        <ele>21.29</ele>
        <time>2020-07-09T08:51:36Z</time>
      </trkpt>
      <trkpt lat="37.4441062286" lon="-6.0443959851">
        <ele>18.40</ele>
        <time>2020-07-09T08:51:53Z</time>
      </trkpt>
      <trkpt lat="37.4440839328" lon="-6.0444231424">
        <ele>14.56</ele>
        <time>2020-07-09T08:52:12Z</time>
      </trkpt>
      <trkpt lat="37.4440930691" lon="-6.0444006789">
        <ele>14.56</ele>
        <time>2020-07-09T08:52:18Z</time>
      </trkpt>
      <trkpt lat="37.4441338889" lon="-6.0443572607">
        <ele>13.60</ele>
        <time>2020-07-09T08:52:27Z</time>
      </trkpt>
      <trkpt lat="37.4441483896" lon="-6.0443409160">
        <ele>13.60</ele>
        <time>2020-07-09T08:52:29Z</time>
      </trkpt>
      <trkpt lat="37.4441598728" lon="-6.0443285108">
        <ele>13.60</ele>
        <time>2020-07-09T08:52:30Z</time>
      </trkpt>
      <trkpt lat="37.4441736192" lon="-6.0443197936">
        <ele>13.60</ele>
        <time>2020-07-09T08:52:31Z</time>
      </trkpt>
      <trkpt lat="37.4441893771" lon="-6.0443155188">
        <ele>14.08</ele>
        <time>2020-07-09T08:52:32Z</time>
      </trkpt>
      <trkpt lat="37.4442033749" lon="-6.0443186201">
        <ele>14.08</ele>
        <time>2020-07-09T08:52:33Z</time>
      </trkpt>
      <trkpt lat="37.4442186300" lon="-6.0443294328">
        <ele>14.56</ele>
        <time>2020-07-09T08:52:34Z</time>
      </trkpt>
      <trkpt lat="37.4442363158" lon="-6.0443469509">
        <ele>14.08</ele>
        <time>2020-07-09T08:52:35Z</time>
      </trkpt>
      <trkpt lat="37.4442547560" lon="-6.0443661455">
        <ele>14.56</ele>
        <time>2020-07-09T08:52:36Z</time>
      </trkpt>
      <trkpt lat="37.4442781415" lon="-6.0443867650">
        <ele>14.56</ele>
        <time>2020-07-09T08:52:37Z</time>
      </trkpt>
      <trkpt lat="37.4443022814" lon="-6.0444065463">
        <ele>14.56</ele>
        <time>2020-07-09T08:52:38Z</time>
      </trkpt>
      <trkpt lat="37.4445176963" lon="-6.0446086340">
        <ele>15.04</ele>
        <time>2020-07-09T08:52:46Z</time>
      </trkpt>
      <trkpt lat="37.4448189419" lon="-6.0448687244">
        <ele>15.52</ele>
        <time>2020-07-09T08:52:56Z</time>
      </trkpt>
      <trkpt lat="37.4451669585" lon="-6.0451482609">
        <ele>16.48</ele>
        <time>2020-07-09T08:53:07Z</time>
      </trkpt>
      <trkpt lat="37.4454801902" lon="-6.0453780927">
        <ele>17.44</ele>
        <time>2020-07-09T08:53:16Z</time>
      </trkpt>
      <trkpt lat="37.4458810128" lon="-6.0456853732">
        <ele>16.96</ele>
        <time>2020-07-09T08:53:27Z</time>
      </trkpt>
      <trkpt lat="37.4462918937" lon="-6.0460035503">
        <ele>17.44</ele>
        <time>2020-07-09T08:53:37Z</time>
      </trkpt>
      <trkpt lat="37.4467092287" lon="-6.0462984256">
        <ele>17.92</ele>
        <time>2020-07-09T08:53:47Z</time>
      </trkpt>
      <trkpt lat="37.4471382145" lon="-6.0465730168">
        <ele>17.44</ele>
        <time>2020-07-09T08:53:57Z</time>
      </trkpt>
      <trkpt lat="37.4475749955" lon="-6.0468316823">
        <ele>16.96</ele>
        <time>2020-07-09T08:54:07Z</time>
      </trkpt>
      <trkpt lat="37.4479843676" lon="-6.0470231250">
        <ele>15.52</ele>
        <time>2020-07-09T08:54:16Z</time>
      </trkpt>
      <trkpt lat="37.4483510759" lon="-6.0470918566">
        <ele>15.04</ele>
        <time>2020-07-09T08:54:23Z</time>
      </trkpt>
      <trkpt lat="37.4487294350" lon="-6.0470347758">
        <ele>15.04</ele>
        <time>2020-07-09T08:54:30Z</time>
      </trkpt>
      <trkpt lat="37.4493096303" lon="-6.0469231289">
        <ele>15.04</ele>
        <time>2020-07-09T08:54:40Z</time>
      </trkpt>
      <trkpt lat="37.4500533566" lon="-6.0467766132">
        <ele>15.04</ele>
        <time>2020-07-09T08:54:53Z</time>
      </trkpt>
      <trkpt lat="37.4507855996" lon="-6.0466323607">
        <ele>15.52</ele>
        <time>2020-07-09T08:55:06Z</time>
      </trkpt>
      <trkpt lat="37.4513904378" lon="-6.0465250723">
        <ele>15.52</ele>
        <time>2020-07-09T08:55:17Z</time>
      </trkpt>
      <trkpt lat="37.4520023167" lon="-6.0464157723">
        <ele>15.04</ele>
        <time>2020-07-09T08:55:28Z</time>
      </trkpt>
      <trkpt lat="37.4525763094" lon="-6.0463034548">
        <ele>14.56</ele>
        <time>2020-07-09T08:55:39Z</time>
      </trkpt>
      <trkpt lat="37.4531566724" lon="-6.0461865272">
        <ele>15.52</ele>
        <time>2020-07-09T08:55:50Z</time>
      </trkpt>
      <trkpt lat="37.4537244625" lon="-6.0461017862">
        <ele>18.40</ele>
        <time>2020-07-09T08:56:00Z</time>
      </trkpt>
      <trkpt lat="37.4543137942" lon="-6.0461585317">
        <ele>18.88</ele>
        <time>2020-07-09T08:56:10Z</time>
      </trkpt>
      <trkpt lat="37.4546315521" lon="-6.0462241620">
        <ele>18.40</ele>
        <time>2020-07-09T08:56:16Z</time>
      </trkpt>
      <trkpt lat="37.4546732940" lon="-6.0462190490">
        <ele>18.40</ele>
        <time>2020-07-09T08:56:17Z</time>
      </trkpt>
      <trkpt lat="37.4547112640" lon="-6.0461987648">
        <ele>18.40</ele>
        <time>2020-07-09T08:56:18Z</time>
      </trkpt>
      <trkpt lat="37.4547479767" lon="-6.0461702663">
        <ele>18.40</ele>
        <time>2020-07-09T08:56:19Z</time>
      </trkpt>
      <trkpt lat="37.4547800794" lon="-6.0461290274">
        <ele>18.40</ele>
        <time>2020-07-09T08:56:20Z</time>
      </trkpt>
      <trkpt lat="37.4548003636" lon="-6.0460898839">
        <ele>18.40</ele>
        <time>2020-07-09T08:56:21Z</time>
      </trkpt>
      <trkpt lat="37.4548188876" lon="-6.0460442863">
        <ele>17.92</ele>
        <time>2020-07-09T08:56:22Z</time>
      </trkpt>
      <trkpt lat="37.4548395909" lon="-6.0459922347">
        <ele>17.92</ele>
        <time>2020-07-09T08:56:23Z</time>
      </trkpt>
      <trkpt lat="37.4548627250" lon="-6.0459444579">
        <ele>17.92</ele>
        <time>2020-07-09T08:56:24Z</time>
      </trkpt>
      <trkpt lat="37.4548908882" lon="-6.0459002014">
        <ele>17.92</ele>
        <time>2020-07-09T08:56:25Z</time>
      </trkpt>
      <trkpt lat="37.4549282715" lon="-6.0458595492">
        <ele>17.44</ele>
        <time>2020-07-09T08:56:26Z</time>
      </trkpt>
      <trkpt lat="37.4549691752" lon="-6.0458321404">
        <ele>17.44</ele>
        <time>2020-07-09T08:56:27Z</time>
      </trkpt>
      <trkpt lat="37.4550144374" lon="-6.0458090063">
        <ele>17.44</ele>
        <time>2020-07-09T08:56:28Z</time>
      </trkpt>
      <trkpt lat="37.4550583586" lon="-6.0457901470">
        <ele>17.44</ele>
        <time>2020-07-09T08:56:29Z</time>
      </trkpt>
      <trkpt lat="37.4551031180" lon="-6.0457765684">
        <ele>17.44</ele>
        <time>2020-07-09T08:56:30Z</time>
      </trkpt>
      <trkpt lat="37.4551513139" lon="-6.0457650013">
        <ele>16.96</ele>
        <time>2020-07-09T08:56:31Z</time>
      </trkpt>
      <trkpt lat="37.4553339556" lon="-6.0457259417">
        <ele>16.96</ele>
        <time>2020-07-09T08:56:35Z</time>
      </trkpt>
      <trkpt lat="37.4553765357" lon="-6.0457113571">
        <ele>16.96</ele>
        <time>2020-07-09T08:56:36Z</time>
      </trkpt>
      <trkpt lat="37.4555507116" lon="-6.0456132889">
        <ele>16.00</ele>
        <time>2020-07-09T08:56:40Z</time>
      </trkpt>
      <trkpt lat="37.4559225328" lon="-6.0452773422">
        <ele>15.04</ele>
        <time>2020-07-09T08:56:49Z</time>
      </trkpt>
      <trkpt lat="37.4562679511" lon="-6.0449659545">
        <ele>14.56</ele>
        <time>2020-07-09T08:56:57Z</time>
      </trkpt>
      <trkpt lat="37.4567437917" lon="-6.0445290897">
        <ele>14.08</ele>
        <time>2020-07-09T08:57:07Z</time>
      </trkpt>
      <trkpt lat="37.4568798300" lon="-6.0444031935">
        <ele>13.60</ele>
        <time>2020-07-09T08:57:10Z</time>
      </trkpt>
      <trkpt lat="37.4569268525" lon="-6.0443720128">
        <ele>13.60</ele>
        <time>2020-07-09T08:57:11Z</time>
      </trkpt>
      <trkpt lat="37.4570181314" lon="-6.0443038680">
        <ele>13.12</ele>
        <time>2020-07-09T08:57:13Z</time>
      </trkpt>
      <trkpt lat="37.4574724305" lon="-6.0438846890">
        <ele>14.08</ele>
        <time>2020-07-09T08:57:23Z</time>
      </trkpt>
      <trkpt lat="37.4575150944" lon="-6.0438390914">
        <ele>14.08</ele>
        <time>2020-07-09T08:57:24Z</time>
      </trkpt>
      <trkpt lat="37.4578472693" lon="-6.0435162205">
        <ele>14.08</ele>
        <time>2020-07-09T08:57:32Z</time>
      </trkpt>
      <trkpt lat="37.4580020830" lon="-6.0433577187">
        <ele>14.08</ele>
        <time>2020-07-09T08:57:38Z</time>
      </trkpt>
      <trkpt lat="37.4580804538" lon="-6.0432935972">
        <ele>14.08</ele>
        <time>2020-07-09T08:57:42Z</time>
      </trkpt>
      <trkpt lat="37.4581103772" lon="-6.0432910826">
        <ele>14.08</ele>
        <time>2020-07-09T08:57:43Z</time>
      </trkpt>
      <trkpt lat="37.4581340142" lon="-6.0432936810">
        <ele>14.08</ele>
        <time>2020-07-09T08:57:44Z</time>
      </trkpt>
      <trkpt lat="37.4581616744" lon="-6.0432969499">
        <ele>14.08</ele>
        <time>2020-07-09T08:57:45Z</time>
      </trkpt>
      <trkpt lat="37.4581897538" lon="-6.0432955250">
        <ele>14.08</ele>
        <time>2020-07-09T08:57:46Z</time>
      </trkpt>
      <trkpt lat="37.4582200125" lon="-6.0432886519">
        <ele>14.08</ele>
        <time>2020-07-09T08:57:47Z</time>
      </trkpt>
      <trkpt lat="37.4584267940" lon="-6.0431961156">
        <ele>13.60</ele>
        <time>2020-07-09T08:57:53Z</time>
      </trkpt>
      <trkpt lat="37.4586432986" lon="-6.0430828761">
        <ele>13.60</ele>
        <time>2020-07-09T08:58:01Z</time>
      </trkpt>
      <trkpt lat="37.4587836955" lon="-6.0429845564">
        <ele>14.08</ele>
        <time>2020-07-09T08:58:08Z</time>
      </trkpt>
      <trkpt lat="37.4587917421" lon="-6.0429692175">
        <ele>14.08</ele>
        <time>2020-07-09T08:58:09Z</time>
      </trkpt>
      <trkpt lat="37.4587977771" lon="-6.0429610033">
        <ele>13.60</ele>
        <time>2020-07-09T08:58:14Z</time>
      </trkpt>
      <trkpt lat="37.4588062428" lon="-6.0429615900">
        <ele>14.08</ele>
        <time>2020-07-09T08:58:25Z</time>
      </trkpt>
      <trkpt lat="37.4588152114" lon="-6.0429743305">
        <ele>14.08</ele>
        <time>2020-07-09T08:58:54Z</time>
      </trkpt>
      <trkpt lat="37.4588160496" lon="-6.0429742467">
        <ele>15.04</ele>
        <time>2020-07-09T08:59:21Z</time>
      </trkpt>
      <trkpt lat="37.4588139541" lon="-6.0429780185">
        <ele>16.00</ele>
        <time>2020-07-09T08:59:37Z</time>
      </trkpt>
      <trkpt lat="37.4588406924" lon="-6.0429573152">
        <ele>16.00</ele>
        <time>2020-07-09T08:59:44Z</time>
      </trkpt>
      <trkpt lat="37.4588520080" lon="-6.0429446585">
        <ele>16.00</ele>
        <time>2020-07-09T08:59:45Z</time>
      </trkpt>
      <trkpt lat="37.4588600546" lon="-6.0429314151">
        <ele>16.00</ele>
        <time>2020-07-09T08:59:46Z</time>
      </trkpt>
      <trkpt lat="37.4589359108" lon="-6.0427984782">
        <ele>16.48</ele>
        <time>2020-07-09T08:59:54Z</time>
      </trkpt>
      <trkpt lat="37.4589862861" lon="-6.0426169261">
        <ele>16.96</ele>
        <time>2020-07-09T09:00:01Z</time>
      </trkpt>
      <trkpt lat="37.4590601306" lon="-6.0424037743">
        <ele>18.40</ele>
        <time>2020-07-09T09:00:09Z</time>
      </trkpt>
      <trkpt lat="37.4592330493" lon="-6.0423658043">
        <ele>17.92</ele>
        <time>2020-07-09T09:00:15Z</time>
      </trkpt>
      <trkpt lat="37.4595396593" lon="-6.0424195323">
        <ele>16.00</ele>
        <time>2020-07-09T09:00:21Z</time>
      </trkpt>
      <trkpt lat="37.4597411603" lon="-6.0424454324">
        <ele>16.00</ele>
        <time>2020-07-09T09:00:26Z</time>
      </trkpt>
      <trkpt lat="37.4601444136" lon="-6.0424988251">
        <ele>15.04</ele>
        <time>2020-07-09T09:00:36Z</time>
      </trkpt>
      <trkpt lat="37.4604770914" lon="-6.0425477754">
        <ele>14.56</ele>
        <time>2020-07-09T09:00:44Z</time>
      </trkpt>
      <trkpt lat="37.4610181432" lon="-6.0426522139">
        <ele>14.08</ele>
        <time>2020-07-09T09:00:55Z</time>
      </trkpt>
      <trkpt lat="37.4616455287" lon="-6.0427795351">
        <ele>13.60</ele>
        <time>2020-07-09T09:01:07Z</time>
      </trkpt>
      <trkpt lat="37.4622641131" lon="-6.0428999830">
        <ele>13.12</ele>
        <time>2020-07-09T09:01:19Z</time>
      </trkpt>
      <trkpt lat="37.4628254492" lon="-6.0430082772">
        <ele>13.12</ele>
        <time>2020-07-09T09:01:30Z</time>
      </trkpt>
      <trkpt lat="37.4631686881" lon="-6.0430715606">
        <ele>12.63</ele>
        <time>2020-07-09T09:01:37Z</time>
      </trkpt>
      <trkpt lat="37.4635465443" lon="-6.0431410465">
        <ele>12.15</ele>
        <time>2020-07-09T09:01:45Z</time>
      </trkpt>
      <trkpt lat="37.4639977422" lon="-6.0432285536">
        <ele>12.15</ele>
        <time>2020-07-09T09:01:55Z</time>
      </trkpt>
      <trkpt lat="37.4645264726" lon="-6.0433325730">
        <ele>12.15</ele>
        <time>2020-07-09T09:02:07Z</time>
      </trkpt>
      <trkpt lat="37.4648910854" lon="-6.0434013046">
        <ele>13.12</ele>
        <time>2020-07-09T09:02:16Z</time>
      </trkpt>
      <trkpt lat="37.4652178958" lon="-6.0434740596">
        <ele>13.60</ele>
        <time>2020-07-09T09:02:26Z</time>
      </trkpt>
      <trkpt lat="37.4654179718" lon="-6.0435147956">
        <ele>14.56</ele>
        <time>2020-07-09T09:02:34Z</time>
      </trkpt>
      <trkpt lat="37.4656208139" lon="-6.0435539391">
        <ele>16.00</ele>
        <time>2020-07-09T09:02:43Z</time>
      </trkpt>
      <trkpt lat="37.4658269249" lon="-6.0435945075">
        <ele>17.44</ele>
        <time>2020-07-09T09:02:51Z</time>
      </trkpt>
      <trkpt lat="37.4660470337" lon="-6.0436323937">
        <ele>17.44</ele>
        <time>2020-07-09T09:02:59Z</time>
      </trkpt>
      <trkpt lat="37.4663058668" lon="-6.0436811764">
        <ele>16.00</ele>
        <time>2020-07-09T09:03:06Z</time>
      </trkpt>
      <trkpt lat="37.4666465074" lon="-6.0437300429">
        <ele>13.60</ele>
        <time>2020-07-09T09:03:13Z</time>
      </trkpt>
      <trkpt lat="37.4671237729" lon="-6.0438155383">
        <ele>12.15</ele>
        <time>2020-07-09T09:03:22Z</time>
      </trkpt>
      <trkpt lat="37.4674997851" lon="-6.0438836832">
        <ele>12.15</ele>
        <time>2020-07-09T09:03:31Z</time>
      </trkpt>
      <trkpt lat="37.4679858517" lon="-6.0439799074">
        <ele>12.63</ele>
        <time>2020-07-09T09:03:42Z</time>
      </trkpt>
      <trkpt lat="37.4683851656" lon="-6.0440617986">
        <ele>13.12</ele>
        <time>2020-07-09T09:03:52Z</time>
      </trkpt>
      <trkpt lat="37.4686182663" lon="-6.0440971702">
        <ele>13.12</ele>
        <time>2020-07-09T09:03:58Z</time>
      </trkpt>
      <trkpt lat="37.4690677039" lon="-6.0441841744">
        <ele>13.60</ele>
        <time>2020-07-09T09:04:10Z</time>
      </trkpt>
      <trkpt lat="37.4694026448" lon="-6.0442454461">
        <ele>15.04</ele>
        <time>2020-07-09T09:04:20Z</time>
      </trkpt>
      <trkpt lat="37.4697059020" lon="-6.0443190392">
        <ele>16.48</ele>
        <time>2020-07-09T09:04:29Z</time>
      </trkpt>
      <trkpt lat="37.4699552637" lon="-6.0443596914">
        <ele>16.96</ele>
        <time>2020-07-09T09:04:37Z</time>
      </trkpt>
      <trkpt lat="37.4702576827" lon="-6.0444154311">
        <ele>16.00</ele>
        <time>2020-07-09T09:04:45Z</time>
      </trkpt>
      <trkpt lat="37.4703031965" lon="-6.0444233101">
        <ele>15.52</ele>
        <time>2020-07-09T09:04:46Z</time>
      </trkpt>
      <trkpt lat="37.4707181007" lon="-6.0445061233">
        <ele>15.04</ele>
        <time>2020-07-09T09:04:55Z</time>
      </trkpt>
      <trkpt lat="37.4709904287" lon="-6.0445513856">
        <ele>15.52</ele>
        <time>2020-07-09T09:05:03Z</time>
      </trkpt>
      <trkpt lat="37.4712267984" lon="-6.0446025152">
        <ele>16.00</ele>
        <time>2020-07-09T09:05:10Z</time>
      </trkpt>
      <trkpt lat="37.4715919141" lon="-6.0446687322">
        <ele>16.48</ele>
        <time>2020-07-09T09:05:20Z</time>
      </trkpt>
      <trkpt lat="37.4719534256" lon="-6.0447442532">
        <ele>17.44</ele>
        <time>2020-07-09T09:05:31Z</time>
      </trkpt>
      <trkpt lat="37.4722485524" lon="-6.0448051058">
        <ele>18.88</ele>
        <time>2020-07-09T09:05:42Z</time>
      </trkpt>
      <trkpt lat="37.4725520611" lon="-6.0448701493">
        <ele>20.81</ele>
        <time>2020-07-09T09:05:56Z</time>
      </trkpt>
      <trkpt lat="37.4727035221" lon="-6.0448987316">
        <ele>21.77</ele>
        <time>2020-07-09T09:06:05Z</time>
      </trkpt>
      <trkpt lat="37.4728796259" lon="-6.0449449159">
        <ele>22.73</ele>
        <time>2020-07-09T09:06:15Z</time>
      </trkpt>
      <trkpt lat="37.4730472639" lon="-6.0449692234">
        <ele>24.17</ele>
        <time>2020-07-09T09:06:25Z</time>
      </trkpt>
      <trkpt lat="37.4732048437" lon="-6.0449874122">
        <ele>25.61</ele>
        <time>2020-07-09T09:06:34Z</time>
      </trkpt>
      <trkpt lat="37.4734329991" lon="-6.0450258013">
        <ele>26.57</ele>
        <time>2020-07-09T09:06:45Z</time>
      </trkpt>
      <trkpt lat="37.4735962786" lon="-6.0450465884">
        <ele>27.53</ele>
        <time>2020-07-09T09:06:52Z</time>
      </trkpt>
      <trkpt lat="37.4738346599" lon="-6.0450890847">
        <ele>28.50</ele>
        <time>2020-07-09T09:07:03Z</time>
      </trkpt>
      <trkpt lat="37.4740883801" lon="-6.0451314971">
        <ele>28.02</ele>
        <time>2020-07-09T09:07:13Z</time>
      </trkpt>
      <trkpt lat="37.4743164517" lon="-6.0451802798">
        <ele>27.05</ele>
        <time>2020-07-09T09:07:21Z</time>
      </trkpt>
      <trkpt lat="37.4745863490" lon="-6.0452270508">
        <ele>25.13</ele>
        <time>2020-07-09T09:07:28Z</time>
      </trkpt>
      <trkpt lat="37.4749093875" lon="-6.0452897474">
        <ele>22.25</ele>
        <time>2020-07-09T09:07:36Z</time>
      </trkpt>
      <trkpt lat="37.4750644527" lon="-6.0453324951">
        <ele>20.81</ele>
        <time>2020-07-09T09:07:39Z</time>
      </trkpt>
      <trkpt lat="37.4751194380" lon="-6.0453377757">
        <ele>20.81</ele>
        <time>2020-07-09T09:07:40Z</time>
      </trkpt>
      <trkpt lat="37.4751746748" lon="-6.0453440621">
        <ele>20.32</ele>
        <time>2020-07-09T09:07:41Z</time>
      </trkpt>
      <trkpt lat="37.4753761757" lon="-6.0453765001">
        <ele>21.29</ele>
        <time>2020-07-09T09:07:46Z</time>
      </trkpt>
      <trkpt lat="37.4756157305" lon="-6.0454276297">
        <ele>23.69</ele>
        <time>2020-07-09T09:07:55Z</time>
      </trkpt>
      <trkpt lat="37.4758738931" lon="-6.0454746522">
        <ele>25.13</ele>
        <time>2020-07-09T09:08:04Z</time>
      </trkpt>
      <trkpt lat="37.4761230033" lon="-6.0455230158">
        <ele>25.13</ele>
        <time>2020-07-09T09:08:13Z</time>
      </trkpt>
      <trkpt lat="37.4763888773" lon="-6.0455692001">
        <ele>24.17</ele>
        <time>2020-07-09T09:08:21Z</time>
      </trkpt>
      <trkpt lat="37.4767816532" lon="-6.0456318129">
        <ele>24.17</ele>
        <time>2020-07-09T09:08:31Z</time>
      </trkpt>
      <trkpt lat="37.4770861678" lon="-6.0456937551">
        <ele>23.69</ele>
        <time>2020-07-09T09:08:39Z</time>
      </trkpt>
      <trkpt lat="37.4774978030" lon="-6.0457731318">
        <ele>22.25</ele>
        <time>2020-07-09T09:08:48Z</time>
      </trkpt>
      <trkpt lat="37.4778302293" lon="-6.0458396003">
        <ele>22.25</ele>
        <time>2020-07-09T09:08:56Z</time>
      </trkpt>
      <trkpt lat="37.4781102687" lon="-6.0458896402">
        <ele>22.73</ele>
        <time>2020-07-09T09:09:05Z</time>
      </trkpt>
      <trkpt lat="37.4783499911" lon="-6.0459435359">
        <ele>22.25</ele>
        <time>2020-07-09T09:09:13Z</time>
      </trkpt>
      <trkpt lat="37.4787037913" lon="-6.0460117646">
        <ele>23.21</ele>
        <time>2020-07-09T09:09:25Z</time>
      </trkpt>
      <trkpt lat="37.4789530691" lon="-6.0460554343">
        <ele>25.13</ele>
        <time>2020-07-09T09:09:35Z</time>
      </trkpt>
      <trkpt lat="37.4791259877" lon="-6.0460873693">
        <ele>26.57</ele>
        <time>2020-07-09T09:09:43Z</time>
      </trkpt>
      <trkpt lat="37.4792757723" lon="-6.0461188853">
        <ele>27.53</ele>
        <time>2020-07-09T09:09:50Z</time>
      </trkpt>
      <trkpt lat="37.4794635270" lon="-6.0461559333">
        <ele>28.50</ele>
        <time>2020-07-09T09:09:58Z</time>
      </trkpt>
      <trkpt lat="37.4797099549" lon="-6.0461934004">
        <ele>28.50</ele>
        <time>2020-07-09T09:10:07Z</time>
      </trkpt>
      <trkpt lat="37.4799431395" lon="-6.0462431051">
        <ele>27.53</ele>
        <time>2020-07-09T09:10:15Z</time>
      </trkpt>
      <trkpt lat="37.4803298805" lon="-6.0463096574">
        <ele>26.57</ele>
        <time>2020-07-09T09:10:26Z</time>
      </trkpt>
      <trkpt lat="37.4806967564" lon="-6.0463726893">
        <ele>26.09</ele>
        <time>2020-07-09T09:10:36Z</time>
      </trkpt>
      <trkpt lat="37.4809746165" lon="-6.0464236513">
        <ele>26.09</ele>
        <time>2020-07-09T09:10:43Z</time>
      </trkpt>
      <trkpt lat="37.4813584238" lon="-6.0465052072">
        <ele>27.05</ele>
        <time>2020-07-09T09:10:52Z</time>
      </trkpt>
      <trkpt lat="37.4816066958" lon="-6.0465492960">
        <ele>28.02</ele>
        <time>2020-07-09T09:10:59Z</time>
      </trkpt>
      <trkpt lat="37.4818894174" lon="-6.0465969052">
        <ele>29.94</ele>
        <time>2020-07-09T09:11:08Z</time>
      </trkpt>
      <trkpt lat="37.4822171498" lon="-6.0466549080">
        <ele>30.90</ele>
        <time>2020-07-09T09:11:18Z</time>
      </trkpt>
      <trkpt lat="37.4824790005" lon="-6.0467080493">
        <ele>30.42</ele>
        <time>2020-07-09T09:11:26Z</time>
      </trkpt>
      <trkpt lat="37.4826257676" lon="-6.0467269085">
        <ele>29.46</ele>
        <time>2020-07-09T09:11:32Z</time>
      </trkpt>
      <trkpt lat="37.4826390110" lon="-6.0467296746">
        <ele>28.98</ele>
        <time>2020-07-09T09:11:39Z</time>
      </trkpt>
      <trkpt lat="37.4826411065" lon="-6.0467317700">
        <ele>28.02</ele>
        <time>2020-07-09T09:11:58Z</time>
      </trkpt>
      <trkpt lat="37.4826353230" lon="-6.0467338655">
        <ele>28.50</ele>
        <time>2020-07-09T09:12:05Z</time>
      </trkpt>
      <trkpt lat="37.4826797470" lon="-6.0467547365">
        <ele>28.50</ele>
        <time>2020-07-09T09:12:15Z</time>
      </trkpt>
      <trkpt lat="37.4828878697" lon="-6.0467918683">
        <ele>28.02</ele>
        <time>2020-07-09T09:12:23Z</time>
      </trkpt>
      <trkpt lat="37.4832447711" lon="-6.0468651261">
        <ele>26.57</ele>
        <time>2020-07-09T09:12:33Z</time>
      </trkpt>
      <trkpt lat="37.4836463481" lon="-6.0469301697">
        <ele>26.09</ele>
        <time>2020-07-09T09:12:43Z</time>
      </trkpt>
      <trkpt lat="37.4839143176" lon="-6.0469908547">
        <ele>25.61</ele>
        <time>2020-07-09T09:12:51Z</time>
      </trkpt>
      <trkpt lat="37.4841853883" lon="-6.0470385477">
        <ele>25.13</ele>
        <time>2020-07-09T09:13:00Z</time>
      </trkpt>
      <trkpt lat="37.4844733067" lon="-6.0470807925">
        <ele>24.65</ele>
        <time>2020-07-09T09:13:09Z</time>
      </trkpt>
      <trkpt lat="37.4847216625" lon="-6.0471356940">
        <ele>24.65</ele>
        <time>2020-07-09T09:13:18Z</time>
      </trkpt>
      <trkpt lat="37.4849523325" lon="-6.0471778549">
        <ele>25.61</ele>
        <time>2020-07-09T09:13:27Z</time>
      </trkpt>
      <trkpt lat="37.4852109980" lon="-6.0472203512">
        <ele>26.09</ele>
        <time>2020-07-09T09:13:36Z</time>
      </trkpt>
      <trkpt lat="37.4855001736" lon="-6.0472701397">
        <ele>26.57</ele>
        <time>2020-07-09T09:13:45Z</time>
      </trkpt>
      <trkpt lat="37.4857982341" lon="-6.0473229457">
        <ele>26.09</ele>
        <time>2020-07-09T09:13:54Z</time>
      </trkpt>
      <trkpt lat="37.4860579893" lon="-6.0473849718">
        <ele>25.61</ele>
        <time>2020-07-09T09:14:02Z</time>
      </trkpt>
      <trkpt lat="37.4863698799" lon="-6.0474381130">
        <ele>25.61</ele>
        <time>2020-07-09T09:14:11Z</time>
      </trkpt>
      <trkpt lat="37.4866210017" lon="-6.0474889912">
        <ele>25.61</ele>
        <time>2020-07-09T09:14:19Z</time>
      </trkpt>
      <trkpt lat="37.4869210739" lon="-6.0475542024">
        <ele>25.61</ele>
        <time>2020-07-09T09:14:29Z</time>
      </trkpt>
      <trkpt lat="37.4871830922" lon="-6.0476053320">
        <ele>25.13</ele>
        <time>2020-07-09T09:14:38Z</time>
      </trkpt>
      <trkpt lat="37.4874335434" lon="-6.0476567969">
        <ele>23.69</ele>
        <time>2020-07-09T09:14:44Z</time>
      </trkpt>
      <trkpt lat="37.4878605176" lon="-6.0477481596">
        <ele>20.81</ele>
        <time>2020-07-09T09:14:53Z</time>
      </trkpt>
      <trkpt lat="37.4883754179" lon="-6.0478469823">
        <ele>16.96</ele>
        <time>2020-07-09T09:15:02Z</time>
      </trkpt>
      <trkpt lat="37.4889437109" lon="-6.0479526781">
        <ele>15.04</ele>
        <time>2020-07-09T09:15:11Z</time>
      </trkpt>
      <trkpt lat="37.4892857764" lon="-6.0480056517">
        <ele>14.56</ele>
        <time>2020-07-09T09:15:17Z</time>
      </trkpt>
      <trkpt lat="37.4894503970" lon="-6.0480340663">
        <ele>15.04</ele>
        <time>2020-07-09T09:15:23Z</time>
      </trkpt>
      <trkpt lat="37.4897063803" lon="-6.0480779037">
        <ele>15.04</ele>
        <time>2020-07-09T09:15:31Z</time>
      </trkpt>
      <trkpt lat="37.4899962265" lon="-6.0481290333">
        <ele>14.56</ele>
        <time>2020-07-09T09:15:39Z</time>
      </trkpt>
      <trkpt lat="37.4903348554" lon="-6.0481921490">
        <ele>13.12</ele>
        <time>2020-07-09T09:15:48Z</time>
      </trkpt>
      <trkpt lat="37.4907598179" lon="-6.0482711904">
        <ele>12.63</ele>
        <time>2020-07-09T09:15:59Z</time>
      </trkpt>
      <trkpt lat="37.4911218323" lon="-6.0483327135">
        <ele>12.63</ele>
        <time>2020-07-09T09:16:09Z</time>
      </trkpt>
      <trkpt lat="37.4914628919" lon="-6.0483908840">
        <ele>12.15</ele>
        <time>2020-07-09T09:16:18Z</time>
      </trkpt>
      <trkpt lat="37.4918785505" lon="-6.0484788939">
        <ele>13.12</ele>
        <time>2020-07-09T09:16:29Z</time>
      </trkpt>
      <trkpt lat="37.4921958055" lon="-6.0485375673">
        <ele>13.60</ele>
        <time>2020-07-09T09:16:37Z</time>
      </trkpt>
      <trkpt lat="37.4924610928" lon="-6.0485938936">
        <ele>12.63</ele>
        <time>2020-07-09T09:16:44Z</time>
      </trkpt>
      <trkpt lat="37.4926607497" lon="-6.0486102384">
        <ele>13.12</ele>
        <time>2020-07-09T09:16:51Z</time>
      </trkpt>
      <trkpt lat="37.4926725682" lon="-6.0486118309">
        <ele>13.12</ele>
        <time>2020-07-09T09:16:56Z</time>
      </trkpt>
      <trkpt lat="37.4926563073" lon="-6.0486242361">
        <ele>12.63</ele>
        <time>2020-07-09T09:17:02Z</time>
      </trkpt>
      <trkpt lat="37.4926413037" lon="-6.0486228950">
        <ele>12.63</ele>
        <time>2020-07-09T09:17:04Z</time>
      </trkpt>
      <trkpt lat="37.4926310778" lon="-6.0486235656">
        <ele>12.63</ele>
        <time>2020-07-09T09:17:05Z</time>
      </trkpt>
      <trkpt lat="37.4925191794" lon="-6.0486256611">
        <ele>12.15</ele>
        <time>2020-07-09T09:17:15Z</time>
      </trkpt>
      <trkpt lat="37.4925012421" lon="-6.0486133397">
        <ele>12.15</ele>
        <time>2020-07-09T09:17:21Z</time>
      </trkpt>
      <trkpt lat="37.4924952909" lon="-6.0486003477">
        <ele>13.12</ele>
        <time>2020-07-09T09:17:37Z</time>
      </trkpt>
      <trkpt lat="37.4924886692" lon="-6.0486068856">
        <ele>13.60</ele>
        <time>2020-07-09T09:17:45Z</time>
      </trkpt>
      <trkpt lat="37.4924905971" lon="-6.0486156866">
        <ele>12.15</ele>
        <time>2020-07-09T09:17:53Z</time>
      </trkpt>
      <trkpt lat="37.4924935307" lon="-6.0486197099">
        <ele>11.67</ele>
        <time>2020-07-09T09:18:08Z</time>
      </trkpt>
      <trkpt lat="37.4925117195" lon="-6.0486174468">
        <ele>12.15</ele>
        <time>2020-07-09T09:18:15Z</time>
      </trkpt>
      <trkpt lat="37.4925292376" lon="-6.0486190394">
        <ele>12.15</ele>
        <time>2020-07-09T09:18:16Z</time>
      </trkpt>
      <trkpt lat="37.4925455824" lon="-6.0486223083">
        <ele>12.15</ele>
        <time>2020-07-09T09:18:17Z</time>
      </trkpt>
      <trkpt lat="37.4925672077" lon="-6.0486249905">
        <ele>12.15</ele>
        <time>2020-07-09T09:18:18Z</time>
      </trkpt>
      <trkpt lat="37.4925944488" lon="-6.0486275889">
        <ele>12.15</ele>
        <time>2020-07-09T09:18:19Z</time>
      </trkpt>
      <trkpt lat="37.4928616639" lon="-6.0486762878">
        <ele>12.15</ele>
        <time>2020-07-09T09:18:26Z</time>
      </trkpt>
      <trkpt lat="37.4931455590" lon="-6.0487212148">
        <ele>12.63</ele>
        <time>2020-07-09T09:18:35Z</time>
      </trkpt>
      <trkpt lat="37.4931412004" lon="-6.0487409960">
        <ele>12.63</ele>
        <time>2020-07-09T09:18:41Z</time>
      </trkpt>
      <trkpt lat="37.4931270350" lon="-6.0487461928">
        <ele>12.63</ele>
        <time>2020-07-09T09:18:42Z</time>
      </trkpt>
      <trkpt lat="37.4931142107" lon="-6.0487439297">
        <ele>12.63</ele>
        <time>2020-07-09T09:18:43Z</time>
      </trkpt>
      <trkpt lat="37.4930980336" lon="-6.0487389844">
        <ele>12.63</ele>
        <time>2020-07-09T09:18:44Z</time>
      </trkpt>
      <trkpt lat="37.4930783361" lon="-6.0487308539">
        <ele>12.63</ele>
        <time>2020-07-09T09:18:45Z</time>
      </trkpt>
      <trkpt lat="37.4930546992" lon="-6.0487186164">
        <ele>12.63</ele>
        <time>2020-07-09T09:18:46Z</time>
      </trkpt>
      <trkpt lat="37.4927998893" lon="-6.0486748628">
        <ele>13.12</ele>
        <time>2020-07-09T09:18:53Z</time>
      </trkpt>
      <trkpt lat="37.4926157389" lon="-6.0486275051">
        <ele>12.63</ele>
        <time>2020-07-09T09:18:59Z</time>
      </trkpt>
      <trkpt lat="37.4926346820" lon="-6.0486094002">
        <ele>12.15</ele>
        <time>2020-07-09T09:19:03Z</time>
      </trkpt>
      <trkpt lat="37.4926385377" lon="-6.0486083943">
        <ele>12.15</ele>
        <time>2020-07-09T09:19:15Z</time>
      </trkpt>
      <trkpt lat="37.4927901663" lon="-6.0486476216">
        <ele>12.15</ele>
        <time>2020-07-09T09:19:23Z</time>
      </trkpt>
      <trkpt lat="37.4931193236" lon="-6.0487188678">
        <ele>12.15</ele>
        <time>2020-07-09T09:19:32Z</time>
      </trkpt>
      <trkpt lat="37.4934448767" lon="-6.0487814806">
        <ele>12.15</ele>
        <time>2020-07-09T09:19:41Z</time>
      </trkpt>
      <trkpt lat="37.4937716033" lon="-6.0488536488">
        <ele>11.67</ele>
        <time>2020-07-09T09:19:51Z</time>
      </trkpt>
      <trkpt lat="37.4940738548" lon="-6.0488944687">
        <ele>11.67</ele>
        <time>2020-07-09T09:20:00Z</time>
      </trkpt>
      <trkpt lat="37.4942676444" lon="-6.0489377193">
        <ele>11.19</ele>
        <time>2020-07-09T09:20:07Z</time>
      </trkpt>
      <trkpt lat="37.4944421556" lon="-6.0489601828">
        <ele>10.23</ele>
        <time>2020-07-09T09:20:12Z</time>
      </trkpt>
      <trkpt lat="37.4946533795" lon="-6.0490038525">
        <ele>10.71</ele>
        <time>2020-07-09T09:20:20Z</time>
      </trkpt>
      <trkpt lat="37.4948379491" lon="-6.0490262322">
        <ele>13.12</ele>
        <time>2020-07-09T09:20:28Z</time>
      </trkpt>
      <trkpt lat="37.4951205030" lon="-6.0490808822">
        <ele>13.12</ele>
        <time>2020-07-09T09:20:37Z</time>
      </trkpt>
      <trkpt lat="37.4954823498" lon="-6.0491655394">
        <ele>13.12</ele>
        <time>2020-07-09T09:20:48Z</time>
      </trkpt>
      <trkpt lat="37.4957478046" lon="-6.0492160823">
        <ele>15.04</ele>
        <time>2020-07-09T09:20:58Z</time>
      </trkpt>
      <trkpt lat="37.4960045423" lon="-6.0492610931">
        <ele>16.96</ele>
        <time>2020-07-09T09:21:09Z</time>
      </trkpt>
      <trkpt lat="37.4962461088" lon="-6.0493097082">
        <ele>17.44</ele>
        <time>2020-07-09T09:21:18Z</time>
      </trkpt>
      <trkpt lat="37.4964637030" lon="-6.0493408050">
        <ele>19.36</ele>
        <time>2020-07-09T09:21:27Z</time>
      </trkpt>
      <trkpt lat="37.4966341071" lon="-6.0493789427">
        <ele>19.84</ele>
        <time>2020-07-09T09:21:34Z</time>
      </trkpt>
      <trkpt lat="37.4968667049" lon="-6.0494190920">
        <ele>19.36</ele>
        <time>2020-07-09T09:21:43Z</time>
      </trkpt>
      <trkpt lat="37.4971316569" lon="-6.0494614206">
        <ele>18.40</ele>
        <time>2020-07-09T09:21:52Z</time>
      </trkpt>
      <trkpt lat="37.4973469879" lon="-6.0495059285">
        <ele>17.92</ele>
        <time>2020-07-09T09:21:59Z</time>
      </trkpt>
      <trkpt lat="37.4976209924" lon="-6.0495750792">
        <ele>18.40</ele>
        <time>2020-07-09T09:22:08Z</time>
      </trkpt>
      <trkpt lat="37.4979276862" lon="-6.0496356804">
        <ele>18.88</ele>
        <time>2020-07-09T09:22:18Z</time>
      </trkpt>
      <trkpt lat="37.4982073065" lon="-6.0496946052">
        <ele>19.84</ele>
        <time>2020-07-09T09:22:28Z</time>
      </trkpt>
      <trkpt lat="37.4984976556" lon="-6.0497561283">
        <ele>20.81</ele>
        <time>2020-07-09T09:22:40Z</time>
      </trkpt>
      <trkpt lat="37.4986823928" lon="-6.0497760773">
        <ele>22.25</ele>
        <time>2020-07-09T09:22:48Z</time>
      </trkpt>
      <trkpt lat="37.4988711532" lon="-6.0498146340">
        <ele>22.73</ele>
        <time>2020-07-09T09:22:56Z</time>
      </trkpt>
      <trkpt lat="37.4990944471" lon="-6.0498535261">
        <ele>23.69</ele>
        <time>2020-07-09T09:23:05Z</time>
      </trkpt>
      <trkpt lat="37.4994198326" lon="-6.0499115288">
        <ele>25.13</ele>
        <time>2020-07-09T09:23:18Z</time>
      </trkpt>
      <trkpt lat="37.4997071642" lon="-6.0499712080">
        <ele>26.57</ele>
        <time>2020-07-09T09:23:30Z</time>
      </trkpt>
      <trkpt lat="37.4999377504" lon="-6.0500100162">
        <ele>27.53</ele>
        <time>2020-07-09T09:23:40Z</time>
      </trkpt>
      <trkpt lat="37.5001678336" lon="-6.0500608105">
        <ele>28.02</ele>
        <time>2020-07-09T09:23:50Z</time>
      </trkpt>
      <trkpt lat="37.5003917143" lon="-6.0501207411">
        <ele>27.53</ele>
        <time>2020-07-09T09:23:59Z</time>
      </trkpt>
      <trkpt lat="37.5005829055" lon="-6.0501562804">
        <ele>28.02</ele>
        <time>2020-07-09T09:24:06Z</time>
      </trkpt>
      <trkpt lat="37.5008114800" lon="-6.0501966812">
        <ele>27.53</ele>
        <time>2020-07-09T09:24:14Z</time>
      </trkpt>
      <trkpt lat="37.5011351891" lon="-6.0502519179">
        <ele>27.53</ele>
        <time>2020-07-09T09:24:25Z</time>
      </trkpt>
      <trkpt lat="37.5014174916" lon="-6.0503036343">
        <ele>28.02</ele>
        <time>2020-07-09T09:24:34Z</time>
      </trkpt>
      <trkpt lat="37.5017593894" lon="-6.0503723659">
        <ele>28.50</ele>
        <time>2020-07-09T09:24:45Z</time>
      </trkpt>
      <trkpt lat="37.5020134449" lon="-6.0504195560">
        <ele>28.02</ele>
        <time>2020-07-09T09:24:54Z</time>
      </trkpt>
      <trkpt lat="37.5022359844" lon="-6.0504441150">
        <ele>27.53</ele>
        <time>2020-07-09T09:25:01Z</time>
      </trkpt>
      <trkpt lat="37.5025113299" lon="-6.0504751280">
        <ele>25.61</ele>
        <time>2020-07-09T09:25:09Z</time>
      </trkpt>
      <trkpt lat="37.5027843285" lon="-6.0505162831">
        <ele>21.29</ele>
        <time>2020-07-09T09:25:18Z</time>
      </trkpt>
      <trkpt lat="37.5028580055" lon="-6.0505182110">
        <ele>20.32</ele>
        <time>2020-07-09T09:25:20Z</time>
      </trkpt>
      <trkpt lat="37.5029015075" lon="-6.0505257547">
        <ele>19.84</ele>
        <time>2020-07-09T09:25:21Z</time>
      </trkpt>
      <trkpt lat="37.5033003185" lon="-6.0506316181">
        <ele>16.96</ele>
        <time>2020-07-09T09:25:28Z</time>
      </trkpt>
      <trkpt lat="37.5038154703" lon="-6.0507282615">
        <ele>15.52</ele>
        <time>2020-07-09T09:25:36Z</time>
      </trkpt>
      <trkpt lat="37.5038735569" lon="-6.0507454444">
        <ele>16.00</ele>
        <time>2020-07-09T09:25:37Z</time>
      </trkpt>
      <trkpt lat="37.5041255169" lon="-6.0508082248">
        <ele>17.44</ele>
        <time>2020-07-09T09:25:43Z</time>
      </trkpt>
      <trkpt lat="37.5043234136" lon="-6.0508394055">
        <ele>19.36</ele>
        <time>2020-07-09T09:25:51Z</time>
      </trkpt>
      <trkpt lat="37.5045040436" lon="-6.0508805607">
        <ele>21.77</ele>
        <time>2020-07-09T09:25:59Z</time>
      </trkpt>
      <trkpt lat="37.5046881940" lon="-6.0509156808">
        <ele>23.69</ele>
        <time>2020-07-09T09:26:08Z</time>
      </trkpt>
      <trkpt lat="37.5048801396" lon="-6.0509471968">
        <ele>25.61</ele>
        <time>2020-07-09T09:26:17Z</time>
      </trkpt>
      <trkpt lat="37.5051090494" lon="-6.0509932134">
        <ele>27.53</ele>
        <time>2020-07-09T09:26:27Z</time>
      </trkpt>
      <trkpt lat="37.5053028390" lon="-6.0510361288">
        <ele>28.98</ele>
        <time>2020-07-09T09:26:35Z</time>
      </trkpt>
      <trkpt lat="37.5054998975" lon="-6.0510572512">
        <ele>28.98</ele>
        <time>2020-07-09T09:26:43Z</time>
      </trkpt>
      <trkpt lat="37.5057452358" lon="-6.0511088837">
        <ele>29.46</ele>
        <time>2020-07-09T09:26:53Z</time>
      </trkpt>
      <trkpt lat="37.5059983693" lon="-6.0511614382">
        <ele>30.42</ele>
        <time>2020-07-09T09:27:03Z</time>
      </trkpt>
      <trkpt lat="37.5061873812" lon="-6.0511917807">
        <ele>30.42</ele>
        <time>2020-07-09T09:27:13Z</time>
      </trkpt>
      <trkpt lat="37.5061829388" lon="-6.0511792079">
        <ele>30.42</ele>
        <time>2020-07-09T09:27:25Z</time>
      </trkpt>
      <trkpt lat="37.5061821844" lon="-6.0511815548">
        <ele>29.46</ele>
        <time>2020-07-09T09:27:38Z</time>
      </trkpt>
      <trkpt lat="37.5061798375" lon="-6.0511875898">
        <ele>28.50</ele>
        <time>2020-07-09T09:27:50Z</time>
      </trkpt>
      <trkpt lat="37.5061761495" lon="-6.0511879250">
        <ele>27.53</ele>
        <time>2020-07-09T09:28:06Z</time>
      </trkpt>
      <trkpt lat="37.5061827712" lon="-6.0511893500">
        <ele>28.02</ele>
        <time>2020-07-09T09:28:22Z</time>
      </trkpt>
      <trkpt lat="37.5062553585" lon="-6.0512038507">
        <ele>28.50</ele>
        <time>2020-07-09T09:28:28Z</time>
      </trkpt>
      <trkpt lat="37.5063839369" lon="-6.0512414854">
        <ele>28.50</ele>
        <time>2020-07-09T09:28:36Z</time>
      </trkpt>
      <trkpt lat="37.5066196360" lon="-6.0512808803">
        <ele>27.53</ele>
        <time>2020-07-09T09:28:44Z</time>
      </trkpt>
      <trkpt lat="37.5069445185" lon="-6.0513503663">
        <ele>26.09</ele>
        <time>2020-07-09T09:28:51Z</time>
      </trkpt>
      <trkpt lat="37.5073071197" lon="-6.0514227860">
        <ele>23.21</ele>
        <time>2020-07-09T09:28:58Z</time>
      </trkpt>
      <trkpt lat="37.5075269770" lon="-6.0514416452">
        <ele>21.29</ele>
        <time>2020-07-09T09:29:04Z</time>
      </trkpt>
      <trkpt lat="37.5078500994" lon="-6.0515126400">
        <ele>19.36</ele>
        <time>2020-07-09T09:29:11Z</time>
      </trkpt>
      <trkpt lat="37.5084723718" lon="-6.0516391229">
        <ele>16.96</ele>
        <time>2020-07-09T09:29:22Z</time>
      </trkpt>
      <trkpt lat="37.5088206399" lon="-6.0516976286">
        <ele>16.48</ele>
        <time>2020-07-09T09:29:28Z</time>
      </trkpt>
      <trkpt lat="37.5088751223" lon="-6.0517121293">
        <ele>16.48</ele>
        <time>2020-07-09T09:29:29Z</time>
      </trkpt>
      <trkpt lat="37.5089286827" lon="-6.0517216008">
        <ele>16.48</ele>
        <time>2020-07-09T09:29:30Z</time>
      </trkpt>
      <trkpt lat="37.5089812372" lon="-6.0517309047">
        <ele>16.48</ele>
        <time>2020-07-09T09:29:31Z</time>
      </trkpt>
      <trkpt lat="37.5090325344" lon="-6.0517416336">
        <ele>16.48</ele>
        <time>2020-07-09T09:29:32Z</time>
      </trkpt>
      <trkpt lat="37.5094369613" lon="-6.0518081859">
        <ele>16.00</ele>
        <time>2020-07-09T09:29:41Z</time>
      </trkpt>
      <trkpt lat="37.5096726604" lon="-6.0518504307">
        <ele>16.48</ele>
        <time>2020-07-09T09:29:48Z</time>
      </trkpt>
      <trkpt lat="37.5099342596" lon="-6.0518873949">
        <ele>16.96</ele>
        <time>2020-07-09T09:29:58Z</time>
      </trkpt>
      <trkpt lat="37.5101870578" lon="-6.0519402009">
        <ele>16.96</ele>
        <time>2020-07-09T09:30:06Z</time>
      </trkpt>
      <trkpt lat="37.5105123594" lon="-6.0519986227">
        <ele>17.44</ele>
        <time>2020-07-09T09:30:15Z</time>
      </trkpt>
      <trkpt lat="37.5107804127" lon="-6.0520469025">
        <ele>17.44</ele>
        <time>2020-07-09T09:30:22Z</time>
      </trkpt>
      <trkpt lat="37.5110604521" lon="-6.0520994570">
        <ele>17.44</ele>
        <time>2020-07-09T09:30:30Z</time>
      </trkpt>
      <trkpt lat="37.5113756116" lon="-6.0521627404">
        <ele>17.44</ele>
        <time>2020-07-09T09:30:39Z</time>
      </trkpt>
      <trkpt lat="37.5118332636" lon="-6.0522526782">
        <ele>17.44</ele>
        <time>2020-07-09T09:30:50Z</time>
      </trkpt>
      <trkpt lat="37.5119906757" lon="-6.0522818472">
        <ele>17.44</ele>
        <time>2020-07-09T09:30:54Z</time>
      </trkpt>
      <trkpt lat="37.5120313279" lon="-6.0522916541">
        <ele>17.44</ele>
        <time>2020-07-09T09:30:55Z</time>
      </trkpt>
      <trkpt lat="37.5124268699" lon="-6.0523710307">
        <ele>17.44</ele>
        <time>2020-07-09T09:31:04Z</time>
      </trkpt>
      <trkpt lat="37.5127184764" lon="-6.0524205677">
        <ele>17.44</ele>
        <time>2020-07-09T09:31:11Z</time>
      </trkpt>
      <trkpt lat="37.5128070731" lon="-6.0524364095">
        <ele>17.44</ele>
        <time>2020-07-09T09:31:13Z</time>
      </trkpt>
      <trkpt lat="37.5131303631" lon="-6.0525002796">
        <ele>17.44</ele>
        <time>2020-07-09T09:31:21Z</time>
      </trkpt>
      <trkpt lat="37.5132464524" lon="-6.0525136068">
        <ele>17.44</ele>
        <time>2020-07-09T09:31:24Z</time>
      </trkpt>
      <trkpt lat="37.5136454310" lon="-6.0525823385">
        <ele>16.96</ele>
        <time>2020-07-09T09:31:35Z</time>
      </trkpt>
      <trkpt lat="37.5139750075" lon="-6.0526503157">
        <ele>16.96</ele>
        <time>2020-07-09T09:31:44Z</time>
      </trkpt>
      <trkpt lat="37.5142511912" lon="-6.0527009424">
        <ele>16.96</ele>
        <time>2020-07-09T09:31:52Z</time>
      </trkpt>
      <trkpt lat="37.5145699549" lon="-6.0527558438">
        <ele>17.44</ele>
        <time>2020-07-09T09:32:01Z</time>
      </trkpt>
      <trkpt lat="37.5149841048" lon="-6.0528425127">
        <ele>17.92</ele>
        <time>2020-07-09T09:32:12Z</time>
      </trkpt>
      <trkpt lat="37.5152911339" lon="-6.0529072210">
        <ele>17.92</ele>
        <time>2020-07-09T09:32:20Z</time>
      </trkpt>
      <trkpt lat="37.5156444311" lon="-6.0529750306">
        <ele>17.44</ele>
        <time>2020-07-09T09:32:29Z</time>
      </trkpt>
      <trkpt lat="37.5159849040" lon="-6.0530274175">
        <ele>17.44</ele>
        <time>2020-07-09T09:32:39Z</time>
      </trkpt>
      <trkpt lat="37.5163050089" lon="-6.0530912876">
        <ele>17.92</ele>
        <time>2020-07-09T09:32:48Z</time>
      </trkpt>
      <trkpt lat="37.5165717211" lon="-6.0531412438">
        <ele>17.92</ele>
        <time>2020-07-09T09:32:55Z</time>
      </trkpt>
      <trkpt lat="37.5168556161" lon="-6.0531953909">
        <ele>17.92</ele>
        <time>2020-07-09T09:33:02Z</time>
      </trkpt>
      <trkpt lat="37.5172623061" lon="-6.0532765277">
        <ele>17.92</ele>
        <time>2020-07-09T09:33:12Z</time>
      </trkpt>
      <trkpt lat="37.5177287590" lon="-6.0533735063">
        <ele>17.44</ele>
        <time>2020-07-09T09:33:23Z</time>
      </trkpt>
      <trkpt lat="37.5180425774" lon="-6.0534403101">
        <ele>16.96</ele>
        <time>2020-07-09T09:33:31Z</time>
      </trkpt>
      <trkpt lat="37.5183019135" lon="-6.0534869973">
        <ele>16.48</ele>
        <time>2020-07-09T09:33:39Z</time>
      </trkpt>
      <trkpt lat="37.5185697991" lon="-6.0535258055">
        <ele>16.48</ele>
        <time>2020-07-09T09:33:49Z</time>
      </trkpt>
      <trkpt lat="37.5188249443" lon="-6.0535677150">
        <ele>16.48</ele>
        <time>2020-07-09T09:33:58Z</time>
      </trkpt>
      <trkpt lat="37.5191200711" lon="-6.0536146536">
        <ele>16.48</ele>
        <time>2020-07-09T09:34:06Z</time>
      </trkpt>
      <trkpt lat="37.5194741227" lon="-6.0536825471">
        <ele>16.00</ele>
        <time>2020-07-09T09:34:15Z</time>
      </trkpt>
      <trkpt lat="37.5198959839" lon="-6.0537690483">
        <ele>16.00</ele>
        <time>2020-07-09T09:34:26Z</time>
      </trkpt>
      <trkpt lat="37.5203145761" lon="-6.0538492631">
        <ele>16.00</ele>
        <time>2020-07-09T09:34:37Z</time>
      </trkpt>
      <trkpt lat="37.5207159016" lon="-6.0539219342">
        <ele>16.00</ele>
        <time>2020-07-09T09:34:47Z</time>
      </trkpt>
      <trkpt lat="37.5210859627" lon="-6.0539920069">
        <ele>16.48</ele>
        <time>2020-07-09T09:34:57Z</time>
      </trkpt>
      <trkpt lat="37.5215127692" lon="-6.0540796816">
        <ele>16.48</ele>
        <time>2020-07-09T09:35:08Z</time>
      </trkpt>
      <trkpt lat="37.5218231510" lon="-6.0541330744">
        <ele>16.00</ele>
        <time>2020-07-09T09:35:16Z</time>
      </trkpt>
      <trkpt lat="37.5222003367" lon="-6.0542168096">
        <ele>15.52</ele>
        <time>2020-07-09T09:35:26Z</time>
      </trkpt>
      <trkpt lat="37.5224789511" lon="-6.0542696994">
        <ele>15.52</ele>
        <time>2020-07-09T09:35:34Z</time>
      </trkpt>
      <trkpt lat="37.5227742456" lon="-6.0543197393">
        <ele>15.04</ele>
        <time>2020-07-09T09:35:42Z</time>
      </trkpt>
      <trkpt lat="37.5230683666" lon="-6.0543827713">
        <ele>15.04</ele>
        <time>2020-07-09T09:35:51Z</time>
      </trkpt>
      <trkpt lat="37.5232065842" lon="-6.0544094257">
        <ele>15.52</ele>
        <time>2020-07-09T09:35:58Z</time>
      </trkpt>
      <trkpt lat="37.5232163072" lon="-6.0543945897">
        <ele>15.52</ele>
        <time>2020-07-09T09:35:59Z</time>
      </trkpt>
      <trkpt lat="37.5232222583" lon="-6.0543732159">
        <ele>15.52</ele>
        <time>2020-07-09T09:36:00Z</time>
      </trkpt>
      <trkpt lat="37.5232284609" lon="-6.0543453880">
        <ele>16.00</ele>
        <time>2020-07-09T09:36:01Z</time>
      </trkpt>
      <trkpt lat="37.5232309755" lon="-6.0543139558">
        <ele>16.00</ele>
        <time>2020-07-09T09:36:02Z</time>
      </trkpt>
      <trkpt lat="37.5232296344" lon="-6.0542797577">
        <ele>16.00</ele>
        <time>2020-07-09T09:36:03Z</time>
      </trkpt>
      <trkpt lat="37.5232261978" lon="-6.0542430449">
        <ele>16.00</ele>
        <time>2020-07-09T09:36:04Z</time>
      </trkpt>
      <trkpt lat="37.5232211687" lon="-6.0539126303">
        <ele>15.52</ele>
        <time>2020-07-09T09:36:12Z</time>
      </trkpt>
      <trkpt lat="37.5232250243" lon="-6.0533820558">
        <ele>15.04</ele>
        <time>2020-07-09T09:36:24Z</time>
      </trkpt>
      <trkpt lat="37.5232269522" lon="-6.0528789740">
        <ele>15.04</ele>
        <time>2020-07-09T09:36:35Z</time>
      </trkpt>
      <trkpt lat="37.5232340768" lon="-6.0524192266">
        <ele>15.04</ele>
        <time>2020-07-09T09:36:45Z</time>
      </trkpt>
      <trkpt lat="37.5232394412" lon="-6.0518174898">
        <ele>14.08</ele>
        <time>2020-07-09T09:36:58Z</time>
      </trkpt>
      <trkpt lat="37.5232531875" lon="-6.0512245540">
        <ele>14.08</ele>
        <time>2020-07-09T09:37:11Z</time>
      </trkpt>
      <trkpt lat="37.5232678559" lon="-6.0507140122">
        <ele>14.08</ele>
        <time>2020-07-09T09:37:22Z</time>
      </trkpt>
      <trkpt lat="37.5232868828" lon="-6.0502153728">
        <ele>13.60</ele>
        <time>2020-07-09T09:37:33Z</time>
      </trkpt>
      <trkpt lat="37.5233047362" lon="-6.0498031508">
        <ele>13.60</ele>
        <time>2020-07-09T09:37:42Z</time>
      </trkpt>
      <trkpt lat="37.5233064964" lon="-6.0494010709">
        <ele>13.60</ele>
        <time>2020-07-09T09:37:51Z</time>
      </trkpt>
      <trkpt lat="37.5232981145" lon="-6.0488454346">
        <ele>12.63</ele>
        <time>2020-07-09T09:38:03Z</time>
      </trkpt>
      <trkpt lat="37.5232367590" lon="-6.0485663172">
        <ele>12.63</ele>
        <time>2020-07-09T09:38:11Z</time>
      </trkpt>
      <trkpt lat="37.5232494157" lon="-6.0485342145">
        <ele>12.63</ele>
        <time>2020-07-09T09:38:13Z</time>
      </trkpt>
      <trkpt lat="37.5232610665" lon="-6.0485236533">
        <ele>12.63</ele>
        <time>2020-07-09T09:38:14Z</time>
      </trkpt>
      <trkpt lat="37.5233945064" lon="-6.0484441090">
        <ele>12.15</ele>
        <time>2020-07-09T09:38:20Z</time>
      </trkpt>
      <trkpt lat="37.5236754678" lon="-6.0484075639">
        <ele>12.15</ele>
        <time>2020-07-09T09:38:29Z</time>
      </trkpt>
      <trkpt lat="37.5240301900" lon="-6.0483655706">
        <ele>12.15</ele>
        <time>2020-07-09T09:38:40Z</time>
      </trkpt>
      <trkpt lat="37.5243480317" lon="-6.0483147763">
        <ele>11.67</ele>
        <time>2020-07-09T09:38:50Z</time>
      </trkpt>
      <trkpt lat="37.5247477647" lon="-6.0482562706">
        <ele>11.67</ele>
        <time>2020-07-09T09:39:02Z</time>
      </trkpt>
      <trkpt lat="37.5252395310" lon="-6.0481823422">
        <ele>11.67</ele>
        <time>2020-07-09T09:39:16Z</time>
      </trkpt>
      <trkpt lat="37.5256659184" lon="-6.0481098387">
        <ele>11.67</ele>
        <time>2020-07-09T09:39:28Z</time>
      </trkpt>
      <trkpt lat="37.5261208881" lon="-6.0480033886">
        <ele>11.67</ele>
        <time>2020-07-09T09:39:41Z</time>
      </trkpt>
      <trkpt lat="37.5264738500" lon="-6.0479225870">
        <ele>11.67</ele>
        <time>2020-07-09T09:39:52Z</time>
      </trkpt>
      <trkpt lat="37.5267603435" lon="-6.0478437971">
        <ele>11.19</ele>
        <time>2020-07-09T09:40:01Z</time>
      </trkpt>
      <trkpt lat="37.5270704739" lon="-6.0477717966">
        <ele>10.71</ele>
        <time>2020-07-09T09:40:10Z</time>
      </trkpt>
      <trkpt lat="37.5274090189" lon="-6.0477113631">
        <ele>11.19</ele>
        <time>2020-07-09T09:40:20Z</time>
      </trkpt>
      <trkpt lat="37.5277120247" lon="-6.0476328246">
        <ele>11.19</ele>
        <time>2020-07-09T09:40:29Z</time>
      </trkpt>
      <trkpt lat="37.5282217283" lon="-6.0475423001">
        <ele>11.67</ele>
        <time>2020-07-09T09:40:42Z</time>
      </trkpt>
      <trkpt lat="37.5285775401" lon="-6.0474827886">
        <ele>12.15</ele>
        <time>2020-07-09T09:40:52Z</time>
      </trkpt>
      <trkpt lat="37.5289301667" lon="-6.0474065132">
        <ele>12.15</ele>
        <time>2020-07-09T09:41:02Z</time>
      </trkpt>
      <trkpt lat="37.5292029139" lon="-6.0473620892">
        <ele>12.15</ele>
        <time>2020-07-09T09:41:10Z</time>
      </trkpt>
      <trkpt lat="37.5295992102" lon="-6.0473811161">
        <ele>12.15</ele>
        <time>2020-07-09T09:41:20Z</time>
      </trkpt>
      <trkpt lat="37.5300541800" lon="-6.0474741552">
        <ele>13.12</ele>
        <time>2020-07-09T09:41:31Z</time>
      </trkpt>
      <trkpt lat="37.5303355604" lon="-6.0475946870">
        <ele>12.15</ele>
        <time>2020-07-09T09:41:40Z</time>
      </trkpt>
      <trkpt lat="37.5304648094" lon="-6.0477329046">
        <ele>12.63</ele>
        <time>2020-07-09T09:41:46Z</time>
      </trkpt>
      <trkpt lat="37.5305596087" lon="-6.0479958449">
        <ele>13.12</ele>
        <time>2020-07-09T09:41:54Z</time>
      </trkpt>
      <trkpt lat="37.5306239817" lon="-6.0481343977">
        <ele>13.12</ele>
        <time>2020-07-09T09:42:00Z</time>
      </trkpt>
      <trkpt lat="37.5306287594" lon="-6.0481548496">
        <ele>13.12</ele>
        <time>2020-07-09T09:42:01Z</time>
      </trkpt>
      <trkpt lat="37.5306425896" lon="-6.0481809173">
        <ele>13.12</ele>
        <time>2020-07-09T09:42:07Z</time>
      </trkpt>
      <trkpt lat="37.5306366384" lon="-6.0481693503">
        <ele>13.12</ele>
        <time>2020-07-09T09:42:14Z</time>
      </trkpt>
      <trkpt lat="37.5306283403" lon="-6.0481609683">
        <ele>13.12</ele>
        <time>2020-07-09T09:42:16Z</time>
      </trkpt>
      <trkpt lat="37.5306217186" lon="-6.0481457971">
        <ele>13.12</ele>
        <time>2020-07-09T09:42:17Z</time>
      </trkpt>
      <trkpt lat="37.5305549148" lon="-6.0479767341">
        <ele>12.63</ele>
        <time>2020-07-09T09:42:23Z</time>
      </trkpt>
      <trkpt lat="37.5304556731" lon="-6.0477241036">
        <ele>12.63</ele>
        <time>2020-07-09T09:42:31Z</time>
      </trkpt>
      <trkpt lat="37.5304358918" lon="-6.0476608202">
        <ele>12.63</ele>
        <time>2020-07-09T09:42:37Z</time>
      </trkpt>
      <trkpt lat="37.5304339640" lon="-6.0476841219">
        <ele>13.12</ele>
        <time>2020-07-09T09:42:44Z</time>
      </trkpt>
      <trkpt lat="37.5304376520" lon="-6.0477014724">
        <ele>13.12</ele>
        <time>2020-07-09T09:42:45Z</time>
      </trkpt>
      <trkpt lat="37.5304457825" lon="-6.0477189068">
        <ele>13.12</ele>
        <time>2020-07-09T09:42:46Z</time>
      </trkpt>
      <trkpt lat="37.5304559246" lon="-6.0477380175">
        <ele>13.12</ele>
        <time>2020-07-09T09:42:47Z</time>
      </trkpt>
      <trkpt lat="37.5304660667" lon="-6.0477621574">
        <ele>13.12</ele>
        <time>2020-07-09T09:42:48Z</time>
      </trkpt>
      <trkpt lat="37.5304757897" lon="-6.0477895662">
        <ele>13.12</ele>
        <time>2020-07-09T09:42:49Z</time>
      </trkpt>
      <trkpt lat="37.5305441860" lon="-6.0479710344">
        <ele>13.60</ele>
        <time>2020-07-09T09:42:55Z</time>
      </trkpt>
      <trkpt lat="37.5306410808" lon="-6.0481901374">
        <ele>13.60</ele>
        <time>2020-07-09T09:43:02Z</time>
      </trkpt>
      <trkpt lat="37.5307525601" lon="-6.0485059675">
        <ele>14.08</ele>
        <time>2020-07-09T09:43:10Z</time>
      </trkpt>
      <trkpt lat="37.5308105629" lon="-6.0487930477">
        <ele>14.08</ele>
        <time>2020-07-09T09:43:17Z</time>
      </trkpt>
      <trkpt lat="37.5309838168" lon="-6.0489707440">
        <ele>14.56</ele>
        <time>2020-07-09T09:43:24Z</time>
      </trkpt>
      <trkpt lat="37.5312468410" lon="-6.0492344387">
        <ele>15.52</ele>
        <time>2020-07-09T09:43:34Z</time>
      </trkpt>
      <trkpt lat="37.5314500183" lon="-6.0493186768">
        <ele>14.08</ele>
        <time>2020-07-09T09:43:40Z</time>
      </trkpt>
      <trkpt lat="37.5316192489" lon="-6.0494848900">
        <ele>14.08</ele>
        <time>2020-07-09T09:43:46Z</time>
      </trkpt>
      <trkpt lat="37.5317692012" lon="-6.0497791786">
        <ele>14.56</ele>
        <time>2020-07-09T09:43:54Z</time>
      </trkpt>
      <trkpt lat="37.5318518467" lon="-6.0501234233">
        <ele>14.56</ele>
        <time>2020-07-09T09:44:02Z</time>
      </trkpt>
      <trkpt lat="37.5318462308" lon="-6.0504281893">
        <ele>14.56</ele>
        <time>2020-07-09T09:44:10Z</time>
      </trkpt>
      <trkpt lat="37.5319159683" lon="-6.0506151058">
        <ele>14.56</ele>
        <time>2020-07-09T09:44:16Z</time>
      </trkpt>
      <trkpt lat="37.5321271084" lon="-6.0508413333">
        <ele>14.56</ele>
        <time>2020-07-09T09:44:25Z</time>
      </trkpt>
      <trkpt lat="37.5324542541" lon="-6.0511313472">
        <ele>13.60</ele>
        <time>2020-07-09T09:44:37Z</time>
      </trkpt>
      <trkpt lat="37.5327492971" lon="-6.0513036791">
        <ele>13.12</ele>
        <time>2020-07-09T09:44:47Z</time>
      </trkpt>
      <trkpt lat="37.5329663046" lon="-6.0514792800">
        <ele>13.60</ele>
        <time>2020-07-09T09:44:55Z</time>
      </trkpt>
      <trkpt lat="37.5332314242" lon="-6.0516477562">
        <ele>13.60</ele>
        <time>2020-07-09T09:45:04Z</time>
      </trkpt>
      <trkpt lat="37.5334873237" lon="-6.0518223513">
        <ele>13.60</ele>
        <time>2020-07-09T09:45:12Z</time>
      </trkpt>
      <trkpt lat="37.5336933509" lon="-6.0519811884">
        <ele>13.60</ele>
        <time>2020-07-09T09:45:19Z</time>
      </trkpt>
      <trkpt lat="37.5339358393" lon="-6.0521033965">
        <ele>14.08</ele>
        <time>2020-07-09T09:45:28Z</time>
      </trkpt>
      <trkpt lat="37.5340992864" lon="-6.0521868803">
        <ele>15.04</ele>
        <time>2020-07-09T09:45:35Z</time>
      </trkpt>
      <trkpt lat="37.5343652442" lon="-6.0523349047">
        <ele>15.04</ele>
        <time>2020-07-09T09:45:44Z</time>
      </trkpt>
      <trkpt lat="37.5346203055" lon="-6.0525202285">
        <ele>15.04</ele>
        <time>2020-07-09T09:45:53Z</time>
      </trkpt>
      <trkpt lat="37.5348306075" lon="-6.0526990145">
        <ele>15.52</ele>
        <time>2020-07-09T09:46:01Z</time>
      </trkpt>
      <trkpt lat="37.5350739341" lon="-6.0529405810">
        <ele>16.00</ele>
        <time>2020-07-09T09:46:10Z</time>
      </trkpt>
      <trkpt lat="37.5352995750" lon="-6.0531944688">
        <ele>16.48</ele>
        <time>2020-07-09T09:46:20Z</time>
      </trkpt>
      <trkpt lat="37.5354434084" lon="-6.0533925332">
        <ele>16.48</ele>
        <time>2020-07-09T09:46:28Z</time>
      </trkpt>
      <trkpt lat="37.5355563965" lon="-6.0536237061">
        <ele>16.48</ele>
        <time>2020-07-09T09:46:36Z</time>
      </trkpt>
      <trkpt lat="37.5355874095" lon="-6.0537926015">
        <ele>16.00</ele>
        <time>2020-07-09T09:46:43Z</time>
      </trkpt>
      <trkpt lat="37.5355890021" lon="-6.0537895001">
        <ele>15.52</ele>
        <time>2020-07-09T09:46:52Z</time>
      </trkpt>
      <trkpt lat="37.5355947018" lon="-6.0537881590">
        <ele>15.04</ele>
        <time>2020-07-09T09:47:02Z</time>
      </trkpt>
      <trkpt lat="37.5355880801" lon="-6.0537859797">
        <ele>16.00</ele>
        <time>2020-07-09T09:47:12Z</time>
      </trkpt>
      <trkpt lat="37.5356086995" lon="-6.0537806153">
        <ele>16.00</ele>
        <time>2020-07-09T09:47:17Z</time>
      </trkpt>
      <trkpt lat="37.5356208533" lon="-6.0537853092">
        <ele>16.00</ele>
        <time>2020-07-09T09:47:18Z</time>
      </trkpt>
      <trkpt lat="37.5356618408" lon="-6.0538040847">
        <ele>16.00</ele>
        <time>2020-07-09T09:47:25Z</time>
      </trkpt>
      <trkpt lat="37.5356756710" lon="-6.0538267996">
        <ele>15.52</ele>
        <time>2020-07-09T09:47:34Z</time>
      </trkpt>
      <trkpt lat="37.5356909260" lon="-6.0538445693">
        <ele>15.52</ele>
        <time>2020-07-09T09:47:39Z</time>
      </trkpt>
      <trkpt lat="37.5357361883" lon="-6.0538823716">
        <ele>15.04</ele>
        <time>2020-07-09T09:47:44Z</time>
      </trkpt>
      <trkpt lat="37.5357513595" lon="-6.0539126303">
        <ele>15.04</ele>
        <time>2020-07-09T09:47:45Z</time>
      </trkpt>
      <trkpt lat="37.5357622560" lon="-6.0539381113">
        <ele>15.04</ele>
        <time>2020-07-09T09:47:46Z</time>
      </trkpt>
      <trkpt lat="37.5358516071" lon="-6.0541268717">
        <ele>15.52</ele>
        <time>2020-07-09T09:47:53Z</time>
      </trkpt>
      <trkpt lat="37.5358981267" lon="-6.0542997904">
        <ele>15.52</ele>
        <time>2020-07-09T09:48:00Z</time>
      </trkpt>
      <trkpt lat="37.5359336659" lon="-6.0543256905">
        <ele>15.04</ele>
        <time>2020-07-09T09:48:08Z</time>
      </trkpt>
      <trkpt lat="37.5359599851" lon="-6.0543883871">
        <ele>16.48</ele>
        <time>2020-07-09T09:48:16Z</time>
      </trkpt>
      <trkpt lat="37.5359562133" lon="-6.0544369183">
        <ele>17.92</ele>
        <time>2020-07-09T09:48:20Z</time>
      </trkpt>
      <trkpt lat="37.5359501783" lon="-6.0544520896">
        <ele>17.92</ele>
        <time>2020-07-09T09:48:21Z</time>
      </trkpt>
      <trkpt lat="37.5359386951" lon="-6.0544658359">
        <ele>17.92</ele>
        <time>2020-07-09T09:48:22Z</time>
      </trkpt>
      <trkpt lat="37.5359273795" lon="-6.0544717871">
        <ele>17.92</ele>
        <time>2020-07-09T09:48:23Z</time>
      </trkpt>
      <trkpt lat="37.5359145552" lon="-6.0544758942">
        <ele>18.40</ele>
        <time>2020-07-09T09:48:24Z</time>
      </trkpt>
      <trkpt lat="37.5359032396" lon="-6.0544780735">
        <ele>18.40</ele>
        <time>2020-07-09T09:48:25Z</time>
      </trkpt>
      <trkpt lat="37.5358894933" lon="-6.0544800851">
        <ele>18.40</ele>
        <time>2020-07-09T09:48:26Z</time>
      </trkpt>
      <trkpt lat="37.5358734839" lon="-6.0544801690">
        <ele>18.40</ele>
        <time>2020-07-09T09:48:27Z</time>
      </trkpt>
      <trkpt lat="37.5358604081" lon="-6.0544780735">
        <ele>18.40</ele>
        <time>2020-07-09T09:48:28Z</time>
      </trkpt>
      <trkpt lat="37.5358463265" lon="-6.0544724576">
        <ele>18.88</ele>
        <time>2020-07-09T09:48:29Z</time>
      </trkpt>
      <trkpt lat="37.5358360168" lon="-6.0544679314">
        <ele>18.88</ele>
        <time>2020-07-09T09:48:30Z</time>
      </trkpt>
      <trkpt lat="37.5358211808" lon="-6.0544614773">
        <ele>18.88</ele>
        <time>2020-07-09T09:48:31Z</time>
      </trkpt>
      <trkpt lat="37.5358112063" lon="-6.0544561129">
        <ele>18.88</ele>
        <time>2020-07-09T09:48:32Z</time>
      </trkpt>
      <trkpt lat="37.5357309915" lon="-6.0544092581">
        <ele>19.36</ele>
        <time>2020-07-09T09:48:41Z</time>
      </trkpt>
      <trkpt lat="37.5357132219" lon="-6.0544115212">
        <ele>19.36</ele>
        <time>2020-07-09T09:48:43Z</time>
      </trkpt>
      <trkpt lat="37.5356192607" lon="-6.0543963499">
        <ele>19.36</ele>
        <time>2020-07-09T09:48:50Z</time>
      </trkpt>
      <trkpt lat="37.5356091186" lon="-6.0543875489">
        <ele>18.88</ele>
        <time>2020-07-09T09:48:51Z</time>
      </trkpt>
      <trkpt lat="37.5355816260" lon="-6.0543811787">
        <ele>19.84</ele>
        <time>2020-07-09T09:48:55Z</time>
      </trkpt>
      <trkpt lat="37.5355706457" lon="-6.0543872975">
        <ele>19.84</ele>
        <time>2020-07-09T09:48:56Z</time>
      </trkpt>
      <trkpt lat="37.5355584919" lon="-6.0543961823">
        <ele>19.84</ele>
        <time>2020-07-09T09:48:57Z</time>
      </trkpt>
      <trkpt lat="37.5353742577" lon="-6.0545027163">
        <ele>20.32</ele>
        <time>2020-07-09T09:49:11Z</time>
      </trkpt>
      <trkpt lat="37.5352476072" lon="-6.0545479786">
        <ele>20.81</ele>
        <time>2020-07-09T09:49:20Z</time>
      </trkpt>
      <trkpt lat="37.5352011714" lon="-6.0545229167">
        <ele>19.84</ele>
        <time>2020-07-09T09:49:27Z</time>
      </trkpt>
      <trkpt lat="37.5352085475" lon="-6.0545196477">
        <ele>19.36</ele>
        <time>2020-07-09T09:49:44Z</time>
      </trkpt>
      <trkpt lat="37.5352188572" lon="-6.0545176361">
        <ele>18.88</ele>
        <time>2020-07-09T09:50:01Z</time>
      </trkpt>
      <trkpt lat="37.5352092180" lon="-6.0545188095">
        <ele>18.40</ele>
        <time>2020-07-09T09:50:15Z</time>
      </trkpt>
      <trkpt lat="37.5352113973" lon="-6.0545148700">
        <ele>18.88</ele>
        <time>2020-07-09T09:50:27Z</time>
      </trkpt>
      <trkpt lat="37.5352081284" lon="-6.0545117687">
        <ele>17.44</ele>
        <time>2020-07-09T09:50:48Z</time>
      </trkpt>
      <trkpt lat="37.5352082122" lon="-6.0545171332">
        <ele>16.96</ele>
        <time>2020-07-09T09:51:04Z</time>
      </trkpt>
      <trkpt lat="37.5352068711" lon="-6.0545099247">
        <ele>16.00</ele>
        <time>2020-07-09T09:51:19Z</time>
      </trkpt>
      <trkpt lat="37.5351966452" lon="-6.0545173008">
        <ele>16.00</ele>
        <time>2020-07-09T09:51:36Z</time>
      </trkpt>
      <trkpt lat="37.5351940468" lon="-6.0545223299">
        <ele>16.48</ele>
        <time>2020-07-09T09:51:55Z</time>
      </trkpt>
      <trkpt lat="37.5352014229" lon="-6.0545267724">
        <ele>16.00</ele>
        <time>2020-07-09T09:52:15Z</time>
      </trkpt>
      <trkpt lat="37.5351999979" lon="-6.0545195639">
        <ele>15.04</ele>
        <time>2020-07-09T09:52:32Z</time>
      </trkpt>
      <trkpt lat="37.5351989083" lon="-6.0545270238">
        <ele>13.60</ele>
        <time>2020-07-09T09:52:48Z</time>
      </trkpt>
      <trkpt lat="37.5352033507" lon="-6.0545245931">
        <ele>16.48</ele>
        <time>2020-07-09T09:53:11Z</time>
      </trkpt>
      <trkpt lat="37.5351951364" lon="-6.0545273591">
        <ele>16.48</ele>
        <time>2020-07-09T09:53:21Z</time>
      </trkpt>
      <trkpt lat="37.5352120679" lon="-6.0545406863">
        <ele>16.48</ele>
        <time>2020-07-09T09:53:28Z</time>
      </trkpt>
      <trkpt lat="37.5352276582" lon="-6.0545467213">
        <ele>16.00</ele>
        <time>2020-07-09T09:53:32Z</time>
      </trkpt>
      <trkpt lat="37.5352378003" lon="-6.0545504931">
        <ele>16.48</ele>
        <time>2020-07-09T09:53:33Z</time>
      </trkpt>
      <trkpt lat="37.5352507923" lon="-6.0545528401">
        <ele>16.48</ele>
        <time>2020-07-09T09:53:34Z</time>
      </trkpt>
      <trkpt lat="37.5352644548" lon="-6.0545525048">
        <ele>16.48</ele>
        <time>2020-07-09T09:53:35Z</time>
      </trkpt>
      <trkpt lat="37.5352787878" lon="-6.0545545164">
        <ele>16.48</ele>
        <time>2020-07-09T09:53:36Z</time>
      </trkpt>
      <trkpt lat="37.5352918636" lon="-6.0545546841">
        <ele>16.48</ele>
        <time>2020-07-09T09:53:37Z</time>
      </trkpt>
      <trkpt lat="37.5353091303" lon="-6.0545490682">
        <ele>16.48</ele>
        <time>2020-07-09T09:53:38Z</time>
      </trkpt>
      <trkpt lat="37.5353253912" lon="-6.0545416921">
        <ele>16.48</ele>
        <time>2020-07-09T09:53:39Z</time>
      </trkpt>
      <trkpt lat="37.5353406463" lon="-6.0545318853">
        <ele>16.00</ele>
        <time>2020-07-09T09:53:40Z</time>
      </trkpt>
      <trkpt lat="37.5353559013" lon="-6.0545177199">
        <ele>16.00</ele>
        <time>2020-07-09T09:53:41Z</time>
      </trkpt>
      <trkpt lat="37.5353703182" lon="-6.0545073263">
        <ele>16.00</ele>
        <time>2020-07-09T09:53:42Z</time>
      </trkpt>
      <trkpt lat="37.5353875849" lon="-6.0544967651">
        <ele>16.48</ele>
        <time>2020-07-09T09:53:43Z</time>
      </trkpt>
      <trkpt lat="37.5354045164" lon="-6.0544877965">
        <ele>16.48</ele>
        <time>2020-07-09T09:53:44Z</time>
      </trkpt>
      <trkpt lat="37.5355656166" lon="-6.0543909855">
        <ele>16.96</ele>
        <time>2020-07-09T09:53:53Z</time>
      </trkpt>
      <trkpt lat="37.5357350148" lon="-6.0543064959">
        <ele>16.96</ele>
        <time>2020-07-09T09:54:03Z</time>
      </trkpt>
      <trkpt lat="37.5359554589" lon="-6.0541735590">
        <ele>17.44</ele>
        <time>2020-07-09T09:54:13Z</time>
      </trkpt>
      <trkpt lat="37.5361888949" lon="-6.0540241096">
        <ele>16.96</ele>
        <time>2020-07-09T09:54:23Z</time>
      </trkpt>
      <trkpt lat="37.5364114344" lon="-6.0538867302">
        <ele>16.00</ele>
        <time>2020-07-09T09:54:33Z</time>
      </trkpt>
      <trkpt lat="37.5364806689" lon="-6.0538152326">
        <ele>16.00</ele>
        <time>2020-07-09T09:54:40Z</time>
      </trkpt>
      <trkpt lat="37.5364841055" lon="-6.0538188368">
        <ele>16.96</ele>
        <time>2020-07-09T09:54:52Z</time>
      </trkpt>
      <trkpt lat="37.5365082454" lon="-6.0538149811">
        <ele>17.44</ele>
        <time>2020-07-09T09:54:55Z</time>
      </trkpt>
      <trkpt lat="37.5366484746" lon="-6.0537541285">
        <ele>17.92</ele>
        <time>2020-07-09T09:55:01Z</time>
      </trkpt>
      <trkpt lat="37.5368091557" lon="-6.0536356084">
        <ele>16.48</ele>
        <time>2020-07-09T09:55:07Z</time>
      </trkpt>
      <trkpt lat="37.5368193816" lon="-6.0536004882">
        <ele>16.48</ele>
        <time>2020-07-09T09:55:08Z</time>
      </trkpt>
      <trkpt lat="37.5368163642" lon="-6.0535604227">
        <ele>16.00</ele>
        <time>2020-07-09T09:55:09Z</time>
      </trkpt>
      <trkpt lat="37.5367370714" lon="-6.0532601830">
        <ele>15.04</ele>
        <time>2020-07-09T09:55:17Z</time>
      </trkpt>
      <trkpt lat="37.5366667472" lon="-6.0529653914">
        <ele>15.04</ele>
        <time>2020-07-09T09:55:24Z</time>
      </trkpt>
      <trkpt lat="37.5367329642" lon="-6.0528447758">
        <ele>16.00</ele>
        <time>2020-07-09T09:55:28Z</time>
      </trkpt>
      <trkpt lat="37.5369709264" lon="-6.0527220648">
        <ele>16.48</ele>
        <time>2020-07-09T09:55:37Z</time>
      </trkpt>
      <trkpt lat="37.5369697530" lon="-6.0526804905">
        <ele>16.48</ele>
        <time>2020-07-09T09:55:38Z</time>
      </trkpt>
      <trkpt lat="37.5369630475" lon="-6.0526463762">
        <ele>16.96</ele>
        <time>2020-07-09T09:55:39Z</time>
      </trkpt>
      <trkpt lat="37.5368150230" lon="-6.0523550212">
        <ele>17.92</ele>
        <time>2020-07-09T09:55:47Z</time>
      </trkpt>
      <trkpt lat="37.5365706068" lon="-6.0519870557">
        <ele>17.44</ele>
        <time>2020-07-09T09:55:57Z</time>
      </trkpt>
      <trkpt lat="37.5363733806" lon="-6.0517175775">
        <ele>17.44</ele>
        <time>2020-07-09T09:56:06Z</time>
      </trkpt>
      <trkpt lat="37.5363272801" lon="-6.0515048448">
        <ele>16.96</ele>
        <time>2020-07-09T09:56:12Z</time>
      </trkpt>
      <trkpt lat="37.5364722032" lon="-6.0511182714">
        <ele>16.00</ele>
        <time>2020-07-09T09:56:22Z</time>
      </trkpt>
      <trkpt lat="37.5365583692" lon="-6.0509180278">
        <ele>16.48</ele>
        <time>2020-07-09T09:56:29Z</time>
      </trkpt>
      <trkpt lat="37.5366094988" lon="-6.0508301016">
        <ele>16.00</ele>
        <time>2020-07-09T09:56:33Z</time>
      </trkpt>
      <trkpt lat="37.5366760511" lon="-6.0507871863">
        <ele>16.00</ele>
        <time>2020-07-09T09:56:40Z</time>
      </trkpt>
      <trkpt lat="37.5365989376" lon="-6.0507653933">
        <ele>17.44</ele>
        <time>2020-07-09T09:56:44Z</time>
      </trkpt>
      <trkpt lat="37.5365588721" lon="-6.0507420078">
        <ele>17.44</ele>
        <time>2020-07-09T09:56:46Z</time>
      </trkpt>
      <trkpt lat="37.5365190580" lon="-6.0507176165">
        <ele>17.44</ele>
        <time>2020-07-09T09:56:48Z</time>
      </trkpt>
      <trkpt lat="37.5365655776" lon="-6.0506559256">
        <ele>16.96</ele>
        <time>2020-07-09T09:56:53Z</time>
      </trkpt>
      <trkpt lat="37.5365850236" lon="-6.0506579373">
        <ele>16.96</ele>
        <time>2020-07-09T09:56:54Z</time>
      </trkpt>
      <trkpt lat="37.5367120933" lon="-6.0506695043">
        <ele>16.48</ele>
        <time>2020-07-09T09:57:00Z</time>
      </trkpt>
      <trkpt lat="37.5367415138" lon="-6.0505858529">
        <ele>16.48</ele>
        <time>2020-07-09T09:57:06Z</time>
      </trkpt>
      <trkpt lat="37.5368089043" lon="-6.0505420156">
        <ele>16.00</ele>
        <time>2020-07-09T09:57:11Z</time>
      </trkpt>
      <trkpt lat="37.5368451979" lon="-6.0505281016">
        <ele>16.48</ele>
        <time>2020-07-09T09:57:13Z</time>
      </trkpt>
      <trkpt lat="37.5370507222" lon="-6.0504860245">
        <ele>17.44</ele>
        <time>2020-07-09T09:57:23Z</time>
      </trkpt>
      <trkpt lat="37.5372093916" lon="-6.0504540894">
        <ele>18.88</ele>
        <time>2020-07-09T09:57:30Z</time>
      </trkpt>
      <trkpt lat="37.5373987388" lon="-6.0504263453">
        <ele>19.36</ele>
        <time>2020-07-09T09:57:38Z</time>
      </trkpt>
      <trkpt lat="37.5376170035" lon="-6.0504033789">
        <ele>19.84</ele>
        <time>2020-07-09T09:57:46Z</time>
      </trkpt>
      <trkpt lat="37.5379128847" lon="-6.0504412651">
        <ele>19.84</ele>
        <time>2020-07-09T09:57:57Z</time>
      </trkpt>
      <trkpt lat="37.5381497573" lon="-6.0505318735">
        <ele>19.84</ele>
        <time>2020-07-09T09:58:05Z</time>
      </trkpt>
      <trkpt lat="37.5383837800" lon="-6.0506104957">
        <ele>21.29</ele>
        <time>2020-07-09T09:58:13Z</time>
      </trkpt>
      <trkpt lat="37.5387093332" lon="-6.0507369787">
        <ele>20.81</ele>
        <time>2020-07-09T09:58:24Z</time>
      </trkpt>
      <trkpt lat="37.5388807431" lon="-6.0507935565">
        <ele>20.81</ele>
        <time>2020-07-09T09:58:30Z</time>
      </trkpt>
      <trkpt lat="37.5388845988" lon="-6.0508834943">
        <ele>22.73</ele>
        <time>2020-07-09T09:58:36Z</time>
      </trkpt>
      <trkpt lat="37.5389584433" lon="-6.0508031957">
        <ele>23.21</ele>
        <time>2020-07-09T09:58:41Z</time>
      </trkpt>
      <trkpt lat="37.5389883667" lon="-6.0508073028">
        <ele>23.21</ele>
        <time>2020-07-09T09:58:42Z</time>
      </trkpt>
      <trkpt lat="37.5392297655" lon="-6.0508745257">
        <ele>22.25</ele>
        <time>2020-07-09T09:58:51Z</time>
      </trkpt>
      <trkpt lat="37.5392659754" lon="-6.0510183591">
        <ele>24.17</ele>
        <time>2020-07-09T09:58:57Z</time>
      </trkpt>
      <trkpt lat="37.5391967408" lon="-6.0511978995">
        <ele>26.57</ele>
        <time>2020-07-09T09:59:05Z</time>
      </trkpt>
      <trkpt lat="37.5391537417" lon="-6.0514156613">
        <ele>28.02</ele>
        <time>2020-07-09T09:59:14Z</time>
      </trkpt>
      <trkpt lat="37.5391026959" lon="-6.0516440682">
        <ele>28.50</ele>
        <time>2020-07-09T09:59:23Z</time>
      </trkpt>
      <trkpt lat="37.5390222296" lon="-6.0518573038">
        <ele>26.57</ele>
        <time>2020-07-09T09:59:31Z</time>
      </trkpt>
      <trkpt lat="37.5389857683" lon="-6.0519605689">
        <ele>24.17</ele>
        <time>2020-07-09T09:59:36Z</time>
      </trkpt>
      <trkpt lat="37.5390515663" lon="-6.0520722158">
        <ele>25.61</ele>
        <time>2020-07-09T09:59:41Z</time>
      </trkpt>
      <trkpt lat="37.5392215513" lon="-6.0522228386">
        <ele>26.09</ele>
        <time>2020-07-09T09:59:50Z</time>
      </trkpt>
      <trkpt lat="37.5393718388" lon="-6.0522749741">
        <ele>27.05</ele>
        <time>2020-07-09T09:59:58Z</time>
      </trkpt>
      <trkpt lat="37.5394111499" lon="-6.0522660054">
        <ele>27.53</ele>
        <time>2020-07-09T10:00:00Z</time>
      </trkpt>
      <trkpt lat="37.5395003334" lon="-6.0522670951">
        <ele>27.05</ele>
        <time>2020-07-09T10:00:04Z</time>
      </trkpt>
      <trkpt lat="37.5396796223" lon="-6.0523146205">
        <ele>26.09</ele>
        <time>2020-07-09T10:00:12Z</time>
      </trkpt>
      <trkpt lat="37.5399496034" lon="-6.0523836873">
        <ele>24.65</ele>
        <time>2020-07-09T10:00:22Z</time>
      </trkpt>
      <trkpt lat="37.5401055906" lon="-6.0523397662">
        <ele>24.65</ele>
        <time>2020-07-09T10:00:28Z</time>
      </trkpt>
      <trkpt lat="37.5402428862" lon="-6.0523259360">
        <ele>22.25</ele>
        <time>2020-07-09T10:00:33Z</time>
      </trkpt>
      <trkpt lat="37.5402681157" lon="-6.0523037240">
        <ele>21.77</ele>
        <time>2020-07-09T10:00:42Z</time>
      </trkpt>
      <trkpt lat="37.5402714685" lon="-6.0523043107">
        <ele>21.29</ele>
        <time>2020-07-09T10:00:54Z</time>
      </trkpt>
      <trkpt lat="37.5402738992" lon="-6.0523052327">
        <ele>22.25</ele>
        <time>2020-07-09T10:01:02Z</time>
      </trkpt>
      <trkpt lat="37.5403226819" lon="-6.0523170512">
        <ele>22.73</ele>
        <time>2020-07-09T10:01:06Z</time>
      </trkpt>
      <trkpt lat="37.5403502584" lon="-6.0523215774">
        <ele>22.73</ele>
        <time>2020-07-09T10:01:07Z</time>
      </trkpt>
      <trkpt lat="37.5403714646" lon="-6.0523233376">
        <ele>23.21</ele>
        <time>2020-07-09T10:01:08Z</time>
      </trkpt>
      <trkpt lat="37.5406350754" lon="-6.0523318034">
        <ele>22.73</ele>
        <time>2020-07-09T10:01:14Z</time>
      </trkpt>
      <trkpt lat="37.5410107523" lon="-6.0522283707">
        <ele>20.32</ele>
        <time>2020-07-09T10:01:20Z</time>
      </trkpt>
      <trkpt lat="37.5414348766" lon="-6.0521761514">
        <ele>19.84</ele>
        <time>2020-07-09T10:01:27Z</time>
      </trkpt>
      <trkpt lat="37.5418104697" lon="-6.0521959327">
        <ele>18.88</ele>
        <time>2020-07-09T10:01:35Z</time>
      </trkpt>
      <trkpt lat="37.5422445685" lon="-6.0522080865">
        <ele>18.88</ele>
        <time>2020-07-09T10:01:44Z</time>
      </trkpt>
      <trkpt lat="37.5428958423" lon="-6.0522328969">
        <ele>18.88</ele>
        <time>2020-07-09T10:01:57Z</time>
      </trkpt>
      <trkpt lat="37.5433715992" lon="-6.0522472300">
        <ele>18.88</ele>
        <time>2020-07-09T10:02:07Z</time>
      </trkpt>
      <trkpt lat="37.5437923707" lon="-6.0522504151">
        <ele>18.88</ele>
        <time>2020-07-09T10:02:16Z</time>
      </trkpt>
      <trkpt lat="37.5443165749" lon="-6.0522687715">
        <ele>18.40</ele>
        <time>2020-07-09T10:02:27Z</time>
      </trkpt>
      <trkpt lat="37.5448795035" lon="-6.0522815958">
        <ele>18.40</ele>
        <time>2020-07-09T10:02:39Z</time>
      </trkpt>
      <trkpt lat="37.5453853514" lon="-6.0522995330">
        <ele>18.40</ele>
        <time>2020-07-09T10:02:50Z</time>
      </trkpt>
      <trkpt lat="37.5454299431" lon="-6.0522991978">
        <ele>18.40</ele>
        <time>2020-07-09T10:02:51Z</time>
      </trkpt>
      <trkpt lat="37.5456160214" lon="-6.0523336474">
        <ele>18.40</ele>
        <time>2020-07-09T10:02:57Z</time>
      </trkpt>
      <trkpt lat="37.5458166841" lon="-6.0524119344">
        <ele>18.40</ele>
        <time>2020-07-09T10:03:04Z</time>
      </trkpt>
      <trkpt lat="37.5458466914" lon="-6.0523993615">
        <ele>18.40</ele>
        <time>2020-07-09T10:03:05Z</time>
      </trkpt>
      <trkpt lat="37.5458704121" lon="-6.0523667559">
        <ele>18.40</ele>
        <time>2020-07-09T10:03:06Z</time>
      </trkpt>
      <trkpt lat="37.5458843261" lon="-6.0523307975">
        <ele>18.40</ele>
        <time>2020-07-09T10:03:07Z</time>
      </trkpt>
      <trkpt lat="37.5458966475" lon="-6.0522881337">
        <ele>18.40</ele>
        <time>2020-07-09T10:03:08Z</time>
      </trkpt>
      <trkpt lat="37.5459839869" lon="-6.0520020593">
        <ele>17.92</ele>
        <time>2020-07-09T10:03:14Z</time>
      </trkpt>
      <trkpt lat="37.5461424049" lon="-6.0515039228">
        <ele>17.44</ele>
        <time>2020-07-09T10:03:24Z</time>
      </trkpt>
      <trkpt lat="37.5461881701" lon="-6.0513521265">
        <ele>17.44</ele>
        <time>2020-07-09T10:03:27Z</time>
      </trkpt>
      <trkpt lat="37.5462878309" lon="-6.0511380527">
        <ele>16.96</ele>
        <time>2020-07-09T10:03:33Z</time>
      </trkpt>
      <trkpt lat="37.5463467557" lon="-6.0509907827">
        <ele>17.44</ele>
        <time>2020-07-09T10:03:39Z</time>
      </trkpt>
      <trkpt lat="37.5464015733" lon="-6.0507940594">
        <ele>17.92</ele>
        <time>2020-07-09T10:03:47Z</time>
      </trkpt>
      <trkpt lat="37.5465316605" lon="-6.0506923869">
        <ele>16.96</ele>
        <time>2020-07-09T10:03:55Z</time>
      </trkpt>
      <trkpt lat="37.5467373524" lon="-6.0506800655">
        <ele>16.00</ele>
        <time>2020-07-09T10:04:03Z</time>
      </trkpt>
      <trkpt lat="37.5469608139" lon="-6.0507603642">
        <ele>14.56</ele>
        <time>2020-07-09T10:04:12Z</time>
      </trkpt>
      <trkpt lat="37.5471151248" lon="-6.0507483780">
        <ele>13.12</ele>
        <time>2020-07-09T10:04:18Z</time>
      </trkpt>
      <trkpt lat="37.5471815094" lon="-6.0506039578">
        <ele>11.67</ele>
        <time>2020-07-09T10:04:23Z</time>
      </trkpt>
      <trkpt lat="37.5472170487" lon="-6.0503452923">
        <ele>9.75</ele>
        <time>2020-07-09T10:04:30Z</time>
      </trkpt>
      <trkpt lat="37.5472082477" lon="-6.0502636526">
        <ele>9.75</ele>
        <time>2020-07-09T10:04:35Z</time>
      </trkpt>
      <trkpt lat="37.5471634883" lon="-6.0501512513">
        <ele>8.79</ele>
        <time>2020-07-09T10:04:41Z</time>
      </trkpt>
      <trkpt lat="37.5471012108" lon="-6.0500433762">
        <ele>7.83</ele>
        <time>2020-07-09T10:04:48Z</time>
      </trkpt>
      <trkpt lat="37.5470759813" lon="-6.0499849543">
        <ele>7.83</ele>
        <time>2020-07-09T10:04:55Z</time>
      </trkpt>
      <trkpt lat="37.5470642466" lon="-6.0499457270">
        <ele>7.35</ele>
        <time>2020-07-09T10:05:01Z</time>
      </trkpt>
      <trkpt lat="37.5470535178" lon="-6.0499046557">
        <ele>7.83</ele>
        <time>2020-07-09T10:05:05Z</time>
      </trkpt>
      <trkpt lat="37.5470203254" lon="-6.0497981217">
        <ele>7.83</ele>
        <time>2020-07-09T10:05:14Z</time>
      </trkpt>
      <trkpt lat="37.5470119435" lon="-6.0497776698">
        <ele>8.31</ele>
        <time>2020-07-09T10:05:19Z</time>
      </trkpt>
      <trkpt lat="37.5469831098" lon="-6.0496107023">
        <ele>9.27</ele>
        <time>2020-07-09T10:05:31Z</time>
      </trkpt>
      <trkpt lat="37.5469774101" lon="-6.0495801084">
        <ele>9.27</ele>
        <time>2020-07-09T10:05:37Z</time>
      </trkpt>
      <trkpt lat="37.5469877198" lon="-6.0495572258">
        <ele>9.27</ele>
        <time>2020-07-09T10:05:44Z</time>
      </trkpt>
      <trkpt lat="37.5469909050" lon="-6.0495702177">
        <ele>8.79</ele>
        <time>2020-07-09T10:05:50Z</time>
      </trkpt>
      <trkpt lat="37.5469811819" lon="-6.0495430604">
        <ele>11.19</ele>
        <time>2020-07-09T10:06:06Z</time>
      </trkpt>
      <trkpt lat="37.5469835289" lon="-6.0495398752">
        <ele>10.71</ele>
        <time>2020-07-09T10:06:14Z</time>
      </trkpt>
      <trkpt lat="37.5469876360" lon="-6.0494268034">
        <ele>9.75</ele>
        <time>2020-07-09T10:06:21Z</time>
      </trkpt>
      <trkpt lat="37.5469885580" lon="-6.0494273063">
        <ele>9.75</ele>
        <time>2020-07-09T10:06:29Z</time>
      </trkpt>
      <trkpt lat="37.5469950121" lon="-6.0494315811">
        <ele>6.87</ele>
        <time>2020-07-09T10:06:38Z</time>
      </trkpt>
      <trkpt lat="37.5470022205" lon="-6.0494195111">
        <ele>6.87</ele>
        <time>2020-07-09T10:07:02Z</time>
      </trkpt>
      <trkpt lat="37.5469981134" lon="-6.0494269710">
        <ele>5.91</ele>
        <time>2020-07-09T10:07:13Z</time>
      </trkpt>
      <trkpt lat="37.5469875522" lon="-6.0493387096">
        <ele>6.39</ele>
        <time>2020-07-09T10:07:19Z</time>
      </trkpt>
      <trkpt lat="37.5469761528" lon="-6.0492251348">
        <ele>6.87</ele>
        <time>2020-07-09T10:07:26Z</time>
      </trkpt>
      <trkpt lat="37.5469111092" lon="-6.0490933713">
        <ele>7.35</ele>
        <time>2020-07-09T10:07:33Z</time>
      </trkpt>
      <trkpt lat="37.5467653479" lon="-6.0489526391">
        <ele>8.31</ele>
        <time>2020-07-09T10:07:40Z</time>
      </trkpt>
      <trkpt lat="37.5464503560" lon="-6.0486984160">
        <ele>8.79</ele>
        <time>2020-07-09T10:07:53Z</time>
      </trkpt>
      <trkpt lat="37.5463683810" lon="-6.0485027824">
        <ele>9.27</ele>
        <time>2020-07-09T10:08:00Z</time>
      </trkpt>
      <trkpt lat="37.5464439020" lon="-6.0484148562">
        <ele>10.23</ele>
        <time>2020-07-09T10:08:06Z</time>
      </trkpt>
      <trkpt lat="37.5465139747" lon="-6.0484120902">
        <ele>10.23</ele>
        <time>2020-07-09T10:08:10Z</time>
      </trkpt>
      <trkpt lat="37.5465355162" lon="-6.0484208912">
        <ele>10.23</ele>
        <time>2020-07-09T10:08:11Z</time>
      </trkpt>
      <trkpt lat="37.5467143860" lon="-6.0484986752">
        <ele>12.63</ele>
        <time>2020-07-09T10:08:21Z</time>
      </trkpt>
      <trkpt lat="37.5468888134" lon="-6.0485793930">
        <ele>14.08</ele>
        <time>2020-07-09T10:08:30Z</time>
      </trkpt>
      <trkpt lat="37.5470494945" lon="-6.0486858431">
        <ele>14.08</ele>
        <time>2020-07-09T10:08:39Z</time>
      </trkpt>
      <trkpt lat="37.5471416116" lon="-6.0487738531">
        <ele>14.56</ele>
        <time>2020-07-09T10:08:45Z</time>
      </trkpt>
      <trkpt lat="37.5473787356" lon="-6.0489818919">
        <ele>15.52</ele>
        <time>2020-07-09T10:08:55Z</time>
      </trkpt>
      <trkpt lat="37.5475439429" lon="-6.0491409805">
        <ele>15.52</ele>
        <time>2020-07-09T10:09:04Z</time>
      </trkpt>
      <trkpt lat="37.5476430170" lon="-6.0492497776">
        <ele>15.52</ele>
        <time>2020-07-09T10:09:12Z</time>
      </trkpt>
      <trkpt lat="37.5478051230" lon="-6.0493772663">
        <ele>15.52</ele>
        <time>2020-07-09T10:09:20Z</time>
      </trkpt>
      <trkpt lat="37.5479229726" lon="-6.0494698025">
        <ele>15.52</ele>
        <time>2020-07-09T10:09:27Z</time>
      </trkpt>
      <trkpt lat="37.5481106434" lon="-6.0495444853">
        <ele>16.00</ele>
        <time>2020-07-09T10:09:36Z</time>
      </trkpt>
      <trkpt lat="37.5483190175" lon="-6.0494726524">
        <ele>15.52</ele>
        <time>2020-07-09T10:09:45Z</time>
      </trkpt>
      <trkpt lat="37.5485491846" lon="-6.0493437387">
        <ele>16.00</ele>
        <time>2020-07-09T10:09:55Z</time>
      </trkpt>
      <trkpt lat="37.5487076025" lon="-6.0492485203">
        <ele>16.00</ele>
        <time>2020-07-09T10:10:03Z</time>
      </trkpt>
      <trkpt lat="37.5488538668" lon="-6.0490599275">
        <ele>16.48</ele>
        <time>2020-07-09T10:10:11Z</time>
      </trkpt>
      <trkpt lat="37.5489445589" lon="-6.0488311853">
        <ele>17.44</ele>
        <time>2020-07-09T10:10:20Z</time>
      </trkpt>
      <trkpt lat="37.5489993766" lon="-6.0486354679">
        <ele>19.36</ele>
        <time>2020-07-09T10:10:27Z</time>
      </trkpt>
      <trkpt lat="37.5490856264" lon="-6.0483757127">
        <ele>19.36</ele>
        <time>2020-07-09T10:10:36Z</time>
      </trkpt>
      <trkpt lat="37.5491319783" lon="-6.0481339786">
        <ele>19.36</ele>
        <time>2020-07-09T10:10:44Z</time>
      </trkpt>
      <trkpt lat="37.5491375942" lon="-6.0478180647">
        <ele>19.36</ele>
        <time>2020-07-09T10:10:54Z</time>
      </trkpt>
      <trkpt lat="37.5491577107" lon="-6.0475479160">
        <ele>19.84</ele>
        <time>2020-07-09T10:11:03Z</time>
      </trkpt>
      <trkpt lat="37.5491772406" lon="-6.0473758355">
        <ele>20.32</ele>
        <time>2020-07-09T10:11:10Z</time>
      </trkpt>
      <trkpt lat="37.5492063258" lon="-6.0471717361">
        <ele>21.29</ele>
        <time>2020-07-09T10:11:18Z</time>
      </trkpt>
      <trkpt lat="37.5492710341" lon="-6.0469424911">
        <ele>22.25</ele>
        <time>2020-07-09T10:11:27Z</time>
      </trkpt>
      <trkpt lat="37.5493028853" lon="-6.0467243940">
        <ele>22.73</ele>
        <time>2020-07-09T10:11:35Z</time>
      </trkpt>
      <trkpt lat="37.5493360776" lon="-6.0465250723">
        <ele>23.21</ele>
        <time>2020-07-09T10:11:42Z</time>
      </trkpt>
      <trkpt lat="37.5493894704" lon="-6.0462500621">
        <ele>23.69</ele>
        <time>2020-07-09T10:11:50Z</time>
      </trkpt>
      <trkpt lat="37.5494504068" lon="-6.0459403507">
        <ele>23.69</ele>
        <time>2020-07-09T10:11:59Z</time>
      </trkpt>
      <trkpt lat="37.5495063979" lon="-6.0456604790">
        <ele>23.69</ele>
        <time>2020-07-09T10:12:07Z</time>
      </trkpt>
      <trkpt lat="37.5495764706" lon="-6.0453045834">
        <ele>24.17</ele>
        <time>2020-07-09T10:12:17Z</time>
      </trkpt>
      <trkpt lat="37.5496805739" lon="-6.0450079478">
        <ele>24.17</ele>
        <time>2020-07-09T10:12:26Z</time>
      </trkpt>
      <trkpt lat="37.5498011056" lon="-6.0447201971">
        <ele>24.65</ele>
        <time>2020-07-09T10:12:35Z</time>
      </trkpt>
      <trkpt lat="37.5499225594" lon="-6.0444448516">
        <ele>24.65</ele>
        <time>2020-07-09T10:12:44Z</time>
      </trkpt>
      <trkpt lat="37.5500046182" lon="-6.0441880301">
        <ele>25.13</ele>
        <time>2020-07-09T10:12:53Z</time>
      </trkpt>
      <trkpt lat="37.5501206238" lon="-6.0438960046">
        <ele>26.09</ele>
        <time>2020-07-09T10:13:03Z</time>
      </trkpt>
      <trkpt lat="37.5502382219" lon="-6.0436396860">
        <ele>26.57</ele>
        <time>2020-07-09T10:13:12Z</time>
      </trkpt>
      <trkpt lat="37.5503518805" lon="-6.0433944315">
        <ele>27.05</ele>
        <time>2020-07-09T10:13:22Z</time>
      </trkpt>
      <trkpt lat="37.5505030900" lon="-6.0431074351">
        <ele>27.53</ele>
        <time>2020-07-09T10:13:33Z</time>
      </trkpt>
      <trkpt lat="37.5506225321" lon="-6.0429115500">
        <ele>28.50</ele>
        <time>2020-07-09T10:13:41Z</time>
      </trkpt>
      <trkpt lat="37.5507543795" lon="-6.0427304171">
        <ele>28.98</ele>
        <time>2020-07-09T10:13:49Z</time>
      </trkpt>
      <trkpt lat="37.5509019848" lon="-6.0425460991">
        <ele>29.46</ele>
        <time>2020-07-09T10:13:57Z</time>
      </trkpt>
      <trkpt lat="37.5510806032" lon="-6.0423135012">
        <ele>29.94</ele>
        <time>2020-07-09T10:14:07Z</time>
      </trkpt>
      <trkpt lat="37.5512707047" lon="-6.0420631338">
        <ele>29.94</ele>
        <time>2020-07-09T10:14:17Z</time>
      </trkpt>
      <trkpt lat="37.5514485687" lon="-6.0418241657">
        <ele>29.94</ele>
        <time>2020-07-09T10:14:27Z</time>
      </trkpt>
      <trkpt lat="37.5515887979" lon="-6.0416290350">
        <ele>30.90</ele>
        <time>2020-07-09T10:14:35Z</time>
      </trkpt>
      <trkpt lat="37.5517579447" lon="-6.0414370894">
        <ele>32.34</ele>
        <time>2020-07-09T10:14:44Z</time>
      </trkpt>
      <trkpt lat="37.5519138481" lon="-6.0412518494">
        <ele>32.34</ele>
        <time>2020-07-09T10:14:52Z</time>
      </trkpt>
      <trkpt lat="37.5521052070" lon="-6.0410091933">
        <ele>32.34</ele>
        <time>2020-07-09T10:15:02Z</time>
      </trkpt>
      <trkpt lat="37.5522436760" lon="-6.0407995619">
        <ele>32.34</ele>
        <time>2020-07-09T10:15:10Z</time>
      </trkpt>
      <trkpt lat="37.5523094740" lon="-6.0406890046">
        <ele>32.34</ele>
        <time>2020-07-09T10:15:15Z</time>
      </trkpt>
      <trkpt lat="37.5522984937" lon="-6.0406919383">
        <ele>32.34</ele>
        <time>2020-07-09T10:15:22Z</time>
      </trkpt>
      <trkpt lat="37.5523006730" lon="-6.0406979732">
        <ele>32.34</ele>
        <time>2020-07-09T10:15:39Z</time>
      </trkpt>
      <trkpt lat="37.5522978231" lon="-6.0406855680">
        <ele>32.82</ele>
        <time>2020-07-09T10:15:48Z</time>
      </trkpt>
      <trkpt lat="37.5522961468" lon="-6.0406900942">
        <ele>31.86</ele>
        <time>2020-07-09T10:16:09Z</time>
      </trkpt>
      <trkpt lat="37.5522906985" lon="-6.0406864900">
        <ele>32.82</ele>
        <time>2020-07-09T10:16:31Z</time>
      </trkpt>
      <trkpt lat="37.5522916205" lon="-6.0406865738">
        <ele>32.82</ele>
        <time>2020-07-09T10:16:50Z</time>
      </trkpt>
      <trkpt lat="37.5522937998" lon="-6.0406978894">
        <ele>32.34</ele>
        <time>2020-07-09T10:17:10Z</time>
      </trkpt>
      <trkpt lat="37.5522849988" lon="-6.0406909324">
        <ele>33.30</ele>
        <time>2020-07-09T10:17:33Z</time>
      </trkpt>
      <trkpt lat="37.5522848312" lon="-6.0406950396">
        <ele>33.30</ele>
        <time>2020-07-09T10:17:58Z</time>
      </trkpt>
      <trkpt lat="37.5522915367" lon="-6.0406896751">
        <ele>33.30</ele>
        <time>2020-07-09T10:18:06Z</time>
      </trkpt>
      <trkpt lat="37.5523073785" lon="-6.0406685527">
        <ele>33.30</ele>
        <time>2020-07-09T10:18:11Z</time>
      </trkpt>
      <trkpt lat="37.5523194484" lon="-6.0406574048">
        <ele>33.30</ele>
        <time>2020-07-09T10:18:12Z</time>
      </trkpt>
      <trkpt lat="37.5523312669" lon="-6.0406411439">
        <ele>33.30</ele>
        <time>2020-07-09T10:18:13Z</time>
      </trkpt>
      <trkpt lat="37.5523440912" lon="-6.0406222846">
        <ele>33.30</ele>
        <time>2020-07-09T10:18:14Z</time>
      </trkpt>
      <trkpt lat="37.5523593463" lon="-6.0406049341">
        <ele>33.30</ele>
        <time>2020-07-09T10:18:15Z</time>
      </trkpt>
      <trkpt lat="37.5523758586" lon="-6.0405884217">
        <ele>33.30</ele>
        <time>2020-07-09T10:18:16Z</time>
      </trkpt>
      <trkpt lat="37.5525539741" lon="-6.0403902736">
        <ele>33.78</ele>
        <time>2020-07-09T10:18:26Z</time>
      </trkpt>
      <trkpt lat="37.5527553912" lon="-6.0401587654">
        <ele>33.78</ele>
        <time>2020-07-09T10:18:36Z</time>
      </trkpt>
      <trkpt lat="37.5528663676" lon="-6.0399790574">
        <ele>33.30</ele>
        <time>2020-07-09T10:18:43Z</time>
      </trkpt>
      <trkpt lat="37.5529698003" lon="-6.0397485550">
        <ele>33.30</ele>
        <time>2020-07-09T10:18:50Z</time>
      </trkpt>
      <trkpt lat="37.5530865602" lon="-6.0394172184">
        <ele>32.82</ele>
        <time>2020-07-09T10:18:59Z</time>
      </trkpt>
      <trkpt lat="37.5531961955" lon="-6.0390935093">
        <ele>32.82</ele>
        <time>2020-07-09T10:19:08Z</time>
      </trkpt>
      <trkpt lat="37.5533154700" lon="-6.0387079418">
        <ele>33.30</ele>
        <time>2020-07-09T10:19:18Z</time>
      </trkpt>
      <trkpt lat="37.5534215011" lon="-6.0383432452">
        <ele>33.78</ele>
        <time>2020-07-09T10:19:27Z</time>
      </trkpt>
      <trkpt lat="37.5535558630" lon="-6.0378922988">
        <ele>34.26</ele>
        <time>2020-07-09T10:19:38Z</time>
      </trkpt>
      <trkpt lat="37.5536631513" lon="-6.0374993552">
        <ele>34.74</ele>
        <time>2020-07-09T10:19:48Z</time>
      </trkpt>
      <trkpt lat="37.5537683442" lon="-6.0371551942">
        <ele>34.74</ele>
        <time>2020-07-09T10:19:57Z</time>
      </trkpt>
      <trkpt lat="37.5538894627" lon="-6.0368189123">
        <ele>34.74</ele>
        <time>2020-07-09T10:20:06Z</time>
      </trkpt>
      <trkpt lat="37.5539854355" lon="-6.0365749989">
        <ele>34.74</ele>
        <time>2020-07-09T10:20:14Z</time>
      </trkpt>
      <trkpt lat="37.5539770536" lon="-6.0365712270">
        <ele>34.74</ele>
        <time>2020-07-09T10:20:20Z</time>
      </trkpt>
      <trkpt lat="37.5539808255" lon="-6.0365769267">
        <ele>35.23</ele>
        <time>2020-07-09T10:20:32Z</time>
      </trkpt>
      <trkpt lat="37.5539726950" lon="-6.0365669522">
        <ele>34.74</ele>
        <time>2020-07-09T10:20:40Z</time>
      </trkpt>
      <trkpt lat="37.5539681688" lon="-6.0365572292">
        <ele>33.78</ele>
        <time>2020-07-09T10:20:55Z</time>
      </trkpt>
      <trkpt lat="37.5539790653" lon="-6.0365547985">
        <ele>34.26</ele>
        <time>2020-07-09T10:21:05Z</time>
      </trkpt>
      <trkpt lat="37.5539878663" lon="-6.0365552176">
        <ele>34.74</ele>
        <time>2020-07-09T10:21:20Z</time>
      </trkpt>
      <trkpt lat="37.5539946556" lon="-6.0365468357">
        <ele>34.74</ele>
        <time>2020-07-09T10:21:22Z</time>
      </trkpt>
      <trkpt lat="37.5540027861" lon="-6.0365350172">
        <ele>34.74</ele>
        <time>2020-07-09T10:21:23Z</time>
      </trkpt>
      <trkpt lat="37.5540096592" lon="-6.0365233663">
        <ele>34.74</ele>
        <time>2020-07-09T10:21:24Z</time>
      </trkpt>
      <trkpt lat="37.5540171191" lon="-6.0365137272">
        <ele>34.74</ele>
        <time>2020-07-09T10:21:25Z</time>
      </trkpt>
      <trkpt lat="37.5540239085" lon="-6.0365009028">
        <ele>34.74</ele>
        <time>2020-07-09T10:21:26Z</time>
      </trkpt>
      <trkpt lat="37.5540275127" lon="-6.0364864860">
        <ele>34.74</ele>
        <time>2020-07-09T10:21:27Z</time>
      </trkpt>
      <trkpt lat="37.5540315360" lon="-6.0364702251">
        <ele>35.23</ele>
        <time>2020-07-09T10:21:28Z</time>
      </trkpt>
      <trkpt lat="37.5540353917" lon="-6.0364542995">
        <ele>35.23</ele>
        <time>2020-07-09T10:21:29Z</time>
      </trkpt>
      <trkpt lat="37.5540383253" lon="-6.0364372842">
        <ele>35.23</ele>
        <time>2020-07-09T10:21:30Z</time>
      </trkpt>
      <trkpt lat="37.5540362298" lon="-6.0364155751">
        <ele>35.23</ele>
        <time>2020-07-09T10:21:31Z</time>
      </trkpt>
      <trkpt lat="37.5540286023" lon="-6.0363892559">
        <ele>35.23</ele>
        <time>2020-07-09T10:21:32Z</time>
      </trkpt>
      <trkpt lat="37.5540219806" lon="-6.0363560636">
        <ele>35.23</ele>
        <time>2020-07-09T10:21:33Z</time>
      </trkpt>
      <trkpt lat="37.5540234055" lon="-6.0363223683">
        <ele>35.23</ele>
        <time>2020-07-09T10:21:34Z</time>
      </trkpt>
      <trkpt lat="37.5540302787" lon="-6.0362881701">
        <ele>35.23</ele>
        <time>2020-07-09T10:21:35Z</time>
      </trkpt>
      <trkpt lat="37.5540411752" lon="-6.0362525471">
        <ele>35.23</ele>
        <time>2020-07-09T10:21:36Z</time>
      </trkpt>
      <trkpt lat="37.5540724397" lon="-6.0361948796">
        <ele>35.23</ele>
        <time>2020-07-09T10:21:38Z</time>
      </trkpt>
      <trkpt lat="37.5540932268" lon="-6.0361706559">
        <ele>35.71</ele>
        <time>2020-07-09T10:21:39Z</time>
      </trkpt>
      <trkpt lat="37.5541081466" lon="-6.0361493658">
        <ele>35.71</ele>
        <time>2020-07-09T10:21:40Z</time>
      </trkpt>
      <trkpt lat="37.5541265029" lon="-6.0361227114">
        <ele>35.23</ele>
        <time>2020-07-09T10:21:41Z</time>
      </trkpt>
      <trkpt lat="37.5541482121" lon="-6.0360984039">
        <ele>35.71</ele>
        <time>2020-07-09T10:21:42Z</time>
      </trkpt>
      <trkpt lat="37.5541719329" lon="-6.0360773653">
        <ele>35.71</ele>
        <time>2020-07-09T10:21:43Z</time>
      </trkpt>
      <trkpt lat="37.5543202925" lon="-6.0360478610">
        <ele>36.67</ele>
        <time>2020-07-09T10:21:49Z</time>
      </trkpt>
      <trkpt lat="37.5545033533" lon="-6.0361748468">
        <ele>37.15</ele>
        <time>2020-07-09T10:21:58Z</time>
      </trkpt>
      <trkpt lat="37.5547419023" lon="-6.0363112204">
        <ele>38.59</ele>
        <time>2020-07-09T10:22:08Z</time>
      </trkpt>
      <trkpt lat="37.5549419783" lon="-6.0363886692">
        <ele>38.59</ele>
        <time>2020-07-09T10:22:15Z</time>
      </trkpt>
      <trkpt lat="37.5551210996" lon="-6.0364577360">
        <ele>39.55</ele>
        <time>2020-07-09T10:22:22Z</time>
      </trkpt>
      <trkpt lat="37.5553890690" lon="-6.0365615040">
        <ele>40.03</ele>
        <time>2020-07-09T10:22:30Z</time>
      </trkpt>
      <trkpt lat="37.5556436274" lon="-6.0366430599">
        <ele>40.03</ele>
        <time>2020-07-09T10:22:38Z</time>
      </trkpt>
      <trkpt lat="37.5558176357" lon="-6.0366984643">
        <ele>40.03</ele>
        <time>2020-07-09T10:22:44Z</time>
      </trkpt>
      <trkpt lat="37.5560116768" lon="-6.0364788584">
        <ele>40.99</ele>
        <time>2020-07-09T10:22:52Z</time>
      </trkpt>
      <trkpt lat="37.5561594497" lon="-6.0361834802">
        <ele>43.40</ele>
        <time>2020-07-09T10:23:01Z</time>
      </trkpt>
      <trkpt lat="37.5562612060" lon="-6.0359535646">
        <ele>46.28</ele>
        <time>2020-07-09T10:23:08Z</time>
      </trkpt>
      <trkpt lat="37.5564031955" lon="-6.0356569290">
        <ele>47.24</ele>
        <time>2020-07-09T10:23:17Z</time>
      </trkpt>
      <trkpt lat="37.5565732643" lon="-6.0354035441">
        <ele>45.80</ele>
        <time>2020-07-09T10:23:26Z</time>
      </trkpt>
      <trkpt lat="37.5566991605" lon="-6.0353068169">
        <ele>45.32</ele>
        <time>2020-07-09T10:23:33Z</time>
      </trkpt>
      <trkpt lat="37.5567857455" lon="-6.0353507381">
        <ele>44.36</ele>
        <time>2020-07-09T10:23:40Z</time>
      </trkpt>
      <trkpt lat="37.5569230411" lon="-6.0353708547">
        <ele>44.36</ele>
        <time>2020-07-09T10:23:46Z</time>
      </trkpt>
      <trkpt lat="37.5571005698" lon="-6.0353095829">
        <ele>43.88</ele>
        <time>2020-07-09T10:23:53Z</time>
      </trkpt>
      <trkpt lat="37.5573682040" lon="-6.0352128558">
        <ele>43.88</ele>
        <time>2020-07-09T10:24:02Z</time>
      </trkpt>
      <trkpt lat="37.5575850438" lon="-6.0351458844">
        <ele>43.40</ele>
        <time>2020-07-09T10:24:10Z</time>
      </trkpt>
      <trkpt lat="37.5579310488" lon="-6.0350548569">
        <ele>43.88</ele>
        <time>2020-07-09T10:24:21Z</time>
      </trkpt>
      <trkpt lat="37.5582716055" lon="-6.0349806771">
        <ele>44.36</ele>
        <time>2020-07-09T10:24:32Z</time>
      </trkpt>
      <trkpt lat="37.5585375633" lon="-6.0349198245">
        <ele>44.84</ele>
        <time>2020-07-09T10:24:41Z</time>
      </trkpt>
      <trkpt lat="37.5588935427" lon="-6.0348461475">
        <ele>45.80</ele>
        <time>2020-07-09T10:24:53Z</time>
      </trkpt>
      <trkpt lat="37.5592140667" lon="-6.0347847920">
        <ele>46.28</ele>
        <time>2020-07-09T10:25:04Z</time>
      </trkpt>
      <trkpt lat="37.5594789349" lon="-6.0347009730">
        <ele>46.76</ele>
        <time>2020-07-09T10:25:14Z</time>
      </trkpt>
      <trkpt lat="37.5596978702" lon="-6.0346403718">
        <ele>46.76</ele>
        <time>2020-07-09T10:25:22Z</time>
      </trkpt>
      <trkpt lat="37.5600555260" lon="-6.0345468298">
        <ele>47.72</ele>
        <time>2020-07-09T10:25:35Z</time>
      </trkpt>
      <trkpt lat="37.5603307039" lon="-6.0345192533">
        <ele>48.68</ele>
        <time>2020-07-09T10:25:45Z</time>
      </trkpt>
      <trkpt lat="37.5606523175" lon="-6.0344846360">
        <ele>49.65</ele>
        <time>2020-07-09T10:25:57Z</time>
      </trkpt>
      <trkpt lat="37.5608388148" lon="-6.0344646033">
        <ele>49.65</ele>
        <time>2020-07-09T10:26:05Z</time>
      </trkpt>
      <trkpt lat="37.5610503741" lon="-6.0344467498">
        <ele>50.61</ele>
        <time>2020-07-09T10:26:15Z</time>
      </trkpt>
      <trkpt lat="37.5611874182" lon="-6.0344424751">
        <ele>51.09</ele>
        <time>2020-07-09T10:26:22Z</time>
      </trkpt>
      <trkpt lat="37.5613162480" lon="-6.0344341770">
        <ele>51.09</ele>
        <time>2020-07-09T10:26:30Z</time>
      </trkpt>
      <trkpt lat="37.5614628475" lon="-6.0344459955">
        <ele>52.05</ele>
        <time>2020-07-09T10:26:38Z</time>
      </trkpt>
      <trkpt lat="37.5615829602" lon="-6.0344356857">
        <ele>52.53</ele>
        <time>2020-07-09T10:26:45Z</time>
      </trkpt>
      <trkpt lat="37.5617516041" lon="-6.0344021581">
        <ele>52.53</ele>
        <time>2020-07-09T10:26:55Z</time>
      </trkpt>
      <trkpt lat="37.5618867204" lon="-6.0343742464">
        <ele>53.49</ele>
        <time>2020-07-09T10:27:03Z</time>
      </trkpt>
      <trkpt lat="37.5620782468" lon="-6.0343195964">
        <ele>53.49</ele>
        <time>2020-07-09T10:27:14Z</time>
      </trkpt>
      <trkpt lat="37.5622876268" lon="-6.0342662036">
        <ele>53.49</ele>
        <time>2020-07-09T10:27:25Z</time>
      </trkpt>
      <trkpt lat="37.5624519121" lon="-6.0342283174">
        <ele>53.49</ele>
        <time>2020-07-09T10:27:34Z</time>
      </trkpt>
      <trkpt lat="37.5626089051" lon="-6.0342016630">
        <ele>53.97</ele>
        <time>2020-07-09T10:27:42Z</time>
      </trkpt>
      <trkpt lat="37.5627555884" lon="-6.0341662914">
        <ele>54.45</ele>
        <time>2020-07-09T10:27:50Z</time>
      </trkpt>
      <trkpt lat="37.5629378948" lon="-6.0341268126">
        <ele>53.97</ele>
        <time>2020-07-09T10:28:00Z</time>
      </trkpt>
      <trkpt lat="37.5631221291" lon="-6.0340835620">
        <ele>53.97</ele>
        <time>2020-07-09T10:28:10Z</time>
      </trkpt>
      <trkpt lat="37.5632755179" lon="-6.0340600088">
        <ele>54.45</ele>
        <time>2020-07-09T10:28:18Z</time>
      </trkpt>
      <trkpt lat="37.5634372048" lon="-6.0340303369">
        <ele>54.93</ele>
        <time>2020-07-09T10:28:27Z</time>
      </trkpt>
      <trkpt lat="37.5635709800" lon="-6.0339921154">
        <ele>55.89</ele>
        <time>2020-07-09T10:28:35Z</time>
      </trkpt>
      <trkpt lat="37.5637518615" lon="-6.0339473560">
        <ele>56.37</ele>
        <time>2020-07-09T10:28:44Z</time>
      </trkpt>
      <trkpt lat="37.5639183261" lon="-6.0339063685">
        <ele>56.86</ele>
        <time>2020-07-09T10:28:53Z</time>
      </trkpt>
      <trkpt lat="37.5640637521" lon="-6.0338704940">
        <ele>57.34</ele>
        <time>2020-07-09T10:29:02Z</time>
      </trkpt>
      <trkpt lat="37.5642240979" lon="-6.0338376369">
        <ele>57.82</ele>
        <time>2020-07-09T10:29:11Z</time>
      </trkpt>
      <trkpt lat="37.5644752197" lon="-6.0337697435">
        <ele>58.30</ele>
        <time>2020-07-09T10:29:23Z</time>
      </trkpt>
      <trkpt lat="37.5646570232" lon="-6.0337251518">
        <ele>58.30</ele>
        <time>2020-07-09T10:29:32Z</time>
      </trkpt>
      <trkpt lat="37.5647936482" lon="-6.0336933844">
        <ele>58.30</ele>
        <time>2020-07-09T10:29:40Z</time>
      </trkpt>
      <trkpt lat="37.5649270881" lon="-6.0336648859">
        <ele>58.30</ele>
        <time>2020-07-09T10:29:48Z</time>
      </trkpt>
      <trkpt lat="37.5650835782" lon="-6.0336277541">
        <ele>58.78</ele>
        <time>2020-07-09T10:29:56Z</time>
      </trkpt>
      <trkpt lat="37.5652223825" lon="-6.0335881077">
        <ele>59.74</ele>
        <time>2020-07-09T10:30:04Z</time>
      </trkpt>
      <trkpt lat="37.5654077902" lon="-6.0335325357">
        <ele>59.74</ele>
        <time>2020-07-09T10:30:14Z</time>
      </trkpt>
      <trkpt lat="37.5655542221" lon="-6.0335109103">
        <ele>60.22</ele>
        <time>2020-07-09T10:30:22Z</time>
      </trkpt>
      <trkpt lat="37.5657371152" lon="-6.0334644746">
        <ele>61.18</ele>
        <time>2020-07-09T10:30:32Z</time>
      </trkpt>
      <trkpt lat="37.5658650231" lon="-6.0334393289">
        <ele>62.62</ele>
        <time>2020-07-09T10:30:40Z</time>
      </trkpt>
      <trkpt lat="37.5659801904" lon="-6.0334119201">
        <ele>62.62</ele>
        <time>2020-07-09T10:30:48Z</time>
      </trkpt>
      <trkpt lat="37.5661153905" lon="-6.0333924741">
        <ele>63.10</ele>
        <time>2020-07-09T10:30:56Z</time>
      </trkpt>
      <trkpt lat="37.5662365090" lon="-6.0333654843">
        <ele>64.07</ele>
        <time>2020-07-09T10:31:04Z</time>
      </trkpt>
      <trkpt lat="37.5662946794" lon="-6.0333581083">
        <ele>64.55</ele>
        <time>2020-07-09T10:31:09Z</time>
      </trkpt>
      <trkpt lat="37.5663081743" lon="-6.0333534982">
        <ele>64.55</ele>
        <time>2020-07-09T10:31:10Z</time>
      </trkpt>
      <trkpt lat="37.5663197413" lon="-6.0333524924">
        <ele>64.55</ele>
        <time>2020-07-09T10:31:11Z</time>
      </trkpt>
      <trkpt lat="37.5663301349" lon="-6.0333491396">
        <ele>64.55</ele>
        <time>2020-07-09T10:31:12Z</time>
      </trkpt>
      <trkpt lat="37.5663435459" lon="-6.0333461221">
        <ele>65.03</ele>
        <time>2020-07-09T10:31:13Z</time>
      </trkpt>
      <trkpt lat="37.5663607288" lon="-6.0333447810">
        <ele>65.03</ele>
        <time>2020-07-09T10:31:14Z</time>
      </trkpt>
      <trkpt lat="37.5663779117" lon="-6.0333393328">
        <ele>65.03</ele>
        <time>2020-07-09T10:31:15Z</time>
      </trkpt>
      <trkpt lat="37.5663953461" lon="-6.0333327111">
        <ele>65.03</ele>
        <time>2020-07-09T10:31:16Z</time>
      </trkpt>
      <trkpt lat="37.5664142892" lon="-6.0333279334">
        <ele>65.03</ele>
        <time>2020-07-09T10:31:17Z</time>
      </trkpt>
      <trkpt lat="37.5665585417" lon="-6.0332892928">
        <ele>65.99</ele>
        <time>2020-07-09T10:31:26Z</time>
      </trkpt>
      <trkpt lat="37.5667373277" lon="-6.0332486406">
        <ele>66.47</ele>
        <time>2020-07-09T10:31:37Z</time>
      </trkpt>
      <trkpt lat="37.5669060554" lon="-6.0332135204">
        <ele>67.43</ele>
        <time>2020-07-09T10:31:47Z</time>
      </trkpt>
      <trkpt lat="37.5670180377" lon="-6.0331890453">
        <ele>67.91</ele>
        <time>2020-07-09T10:31:54Z</time>
      </trkpt>
      <trkpt lat="37.5671633799" lon="-6.0331741255">
        <ele>69.35</ele>
        <time>2020-07-09T10:32:02Z</time>
      </trkpt>
      <trkpt lat="37.5673223846" lon="-6.0331408493">
        <ele>69.83</ele>
        <time>2020-07-09T10:32:11Z</time>
      </trkpt>
      <trkpt lat="37.5674635358" lon="-6.0331255943">
        <ele>69.83</ele>
        <time>2020-07-09T10:32:19Z</time>
      </trkpt>
      <trkpt lat="37.5676051900" lon="-6.0331037175">
        <ele>70.31</ele>
        <time>2020-07-09T10:32:26Z</time>
      </trkpt>
      <trkpt lat="37.5677838922" lon="-6.0330546834">
        <ele>70.31</ele>
        <time>2020-07-09T10:32:35Z</time>
      </trkpt>
      <trkpt lat="37.5678058527" lon="-6.0330459662">
        <ele>70.31</ele>
        <time>2020-07-09T10:32:41Z</time>
      </trkpt>
      <trkpt lat="37.5678113848" lon="-6.0330499057">
        <ele>70.79</ele>
        <time>2020-07-09T10:32:53Z</time>
      </trkpt>
      <trkpt lat="37.5678003207" lon="-6.0330458824">
        <ele>69.83</ele>
        <time>2020-07-09T10:33:10Z</time>
      </trkpt>
      <trkpt lat="37.5678086188" lon="-6.0330466367">
        <ele>69.83</ele>
        <time>2020-07-09T10:33:22Z</time>
      </trkpt>
      <trkpt lat="37.5678062718" lon="-6.0330505762">
        <ele>70.31</ele>
        <time>2020-07-09T10:33:42Z</time>
      </trkpt>
      <trkpt lat="37.5677996501" lon="-6.0330505762">
        <ele>70.31</ele>
        <time>2020-07-09T10:33:54Z</time>
      </trkpt>
      <trkpt lat="37.5678108819" lon="-6.0330528393">
        <ele>70.31</ele>
        <time>2020-07-09T10:34:09Z</time>
      </trkpt>
      <trkpt lat="37.5678694714" lon="-6.0330479778">
        <ele>70.79</ele>
        <time>2020-07-09T10:34:17Z</time>
      </trkpt>
      <trkpt lat="37.5680438988" lon="-6.0330129415">
        <ele>71.76</ele>
        <time>2020-07-09T10:34:26Z</time>
      </trkpt>
      <trkpt lat="37.5682572182" lon="-6.0329742171">
        <ele>71.27</ele>
        <time>2020-07-09T10:34:34Z</time>
      </trkpt>
      <trkpt lat="37.5684546120" lon="-6.0329504963">
        <ele>71.27</ele>
        <time>2020-07-09T10:34:43Z</time>
      </trkpt>
      <trkpt lat="37.5686445460" lon="-6.0329169687">
        <ele>71.27</ele>
        <time>2020-07-09T10:34:52Z</time>
      </trkpt>
      <trkpt lat="37.5688363239" lon="-6.0328824352">
        <ele>71.27</ele>
        <time>2020-07-09T10:35:01Z</time>
      </trkpt>
      <trkpt lat="37.5690224860" lon="-6.0328579601">
        <ele>71.76</ele>
        <time>2020-07-09T10:35:10Z</time>
      </trkpt>
      <trkpt lat="37.5692254957" lon="-6.0328110214">
        <ele>72.24</ele>
        <time>2020-07-09T10:35:20Z</time>
      </trkpt>
      <trkpt lat="37.5692427624" lon="-6.0328085907">
        <ele>72.24</ele>
        <time>2020-07-09T10:35:21Z</time>
      </trkpt>
      <trkpt lat="37.5692592748" lon="-6.0328037292">
        <ele>72.24</ele>
        <time>2020-07-09T10:35:22Z</time>
      </trkpt>
      <trkpt lat="37.5692757871" lon="-6.0327990353">
        <ele>72.72</ele>
        <time>2020-07-09T10:35:23Z</time>
      </trkpt>
      <trkpt lat="37.5692938082" lon="-6.0327957664">
        <ele>72.72</ele>
        <time>2020-07-09T10:35:24Z</time>
      </trkpt>
      <trkpt lat="37.5693124160" lon="-6.0327934194">
        <ele>72.72</ele>
        <time>2020-07-09T10:35:25Z</time>
      </trkpt>
      <trkpt lat="37.5693316944" lon="-6.0327915754">
        <ele>72.72</ele>
        <time>2020-07-09T10:35:26Z</time>
      </trkpt>
      <trkpt lat="37.5693516433" lon="-6.0327898152">
        <ele>73.20</ele>
        <time>2020-07-09T10:35:27Z</time>
      </trkpt>
      <trkpt lat="37.5693713408" lon="-6.0327857919">
        <ele>73.20</ele>
        <time>2020-07-09T10:35:28Z</time>
      </trkpt>
      <trkpt lat="37.5693881884" lon="-6.0327803437">
        <ele>73.20</ele>
        <time>2020-07-09T10:35:29Z</time>
      </trkpt>
      <trkpt lat="37.5694039464" lon="-6.0327743087">
        <ele>73.20</ele>
        <time>2020-07-09T10:35:30Z</time>
      </trkpt>
      <trkpt lat="37.5694195367" lon="-6.0327720456">
        <ele>73.68</ele>
        <time>2020-07-09T10:35:31Z</time>
      </trkpt>
      <trkpt lat="37.5694362167" lon="-6.0327716265">
        <ele>73.68</ele>
        <time>2020-07-09T10:35:32Z</time>
      </trkpt>
      <trkpt lat="37.5694546569" lon="-6.0327671841">
        <ele>73.68</ele>
        <time>2020-07-09T10:35:33Z</time>
      </trkpt>
      <trkpt lat="37.5695717521" lon="-6.0327375121">
        <ele>75.12</ele>
        <time>2020-07-09T10:35:40Z</time>
      </trkpt>
      <trkpt lat="37.5696913619" lon="-6.0327014700">
        <ele>75.60</ele>
        <time>2020-07-09T10:35:48Z</time>
      </trkpt>
      <trkpt lat="37.5698236283" lon="-6.0326696187">
        <ele>76.56</ele>
        <time>2020-07-09T10:35:57Z</time>
      </trkpt>
      <trkpt lat="37.5698364526" lon="-6.0326698702">
        <ele>76.56</ele>
        <time>2020-07-09T10:35:58Z</time>
      </trkpt>
      <trkpt lat="37.5698506180" lon="-6.0326723848">
        <ele>76.56</ele>
        <time>2020-07-09T10:35:59Z</time>
      </trkpt>
      <trkpt lat="37.5698657054" lon="-6.0326724686">
        <ele>76.56</ele>
        <time>2020-07-09T10:36:00Z</time>
      </trkpt>
      <trkpt lat="37.5699914340" lon="-6.0326348338">
        <ele>77.04</ele>
        <time>2020-07-09T10:36:08Z</time>
      </trkpt>
      <trkpt lat="37.5701625086" lon="-6.0325869732">
        <ele>78.97</ele>
        <time>2020-07-09T10:36:19Z</time>
      </trkpt>
      <trkpt lat="37.5702972058" lon="-6.0325523559">
        <ele>79.93</ele>
        <time>2020-07-09T10:36:28Z</time>
      </trkpt>
      <trkpt lat="37.5703226868" lon="-6.0325469915">
        <ele>80.41</ele>
        <time>2020-07-09T10:36:30Z</time>
      </trkpt>
      <trkpt lat="37.5704023149" lon="-6.0325288866">
        <ele>80.89</ele>
        <time>2020-07-09T10:36:37Z</time>
      </trkpt>
      <trkpt lat="37.5705152191" lon="-6.0325027350">
        <ele>81.37</ele>
        <time>2020-07-09T10:36:45Z</time>
      </trkpt>
      <trkpt lat="37.5706182327" lon="-6.0324819479">
        <ele>81.85</ele>
        <time>2020-07-09T10:36:52Z</time>
      </trkpt>
      <trkpt lat="37.5706308056" lon="-6.0324787628">
        <ele>81.85</ele>
        <time>2020-07-09T10:36:53Z</time>
      </trkpt>
      <trkpt lat="37.5706437975" lon="-6.0324764997">
        <ele>82.33</ele>
        <time>2020-07-09T10:36:54Z</time>
      </trkpt>
      <trkpt lat="37.5706573762" lon="-6.0324737336">
        <ele>82.33</ele>
        <time>2020-07-09T10:36:55Z</time>
      </trkpt>
      <trkpt lat="37.5706686918" lon="-6.0324692912">
        <ele>82.33</ele>
        <time>2020-07-09T10:36:56Z</time>
      </trkpt>
      <trkpt lat="37.5706807617" lon="-6.0324660223">
        <ele>82.81</ele>
        <time>2020-07-09T10:36:57Z</time>
      </trkpt>
      <trkpt lat="37.5708092563" lon="-6.0324454866">
        <ele>83.77</ele>
        <time>2020-07-09T10:37:06Z</time>
      </trkpt>
      <trkpt lat="37.5709099229" lon="-6.0324221849">
        <ele>84.25</ele>
        <time>2020-07-09T10:37:14Z</time>
      </trkpt>
      <trkpt lat="37.5710245036" lon="-6.0323966201">
        <ele>85.21</ele>
        <time>2020-07-09T10:37:22Z</time>
      </trkpt>
      <trkpt lat="37.5711405091" lon="-6.0323713068">
        <ele>86.66</ele>
        <time>2020-07-09T10:37:31Z</time>
      </trkpt>
      <trkpt lat="37.5712075643" lon="-6.0323531181">
        <ele>86.66</ele>
        <time>2020-07-09T10:37:39Z</time>
      </trkpt>
      <trkpt lat="37.5712103304" lon="-6.0323544592">
        <ele>86.18</ele>
        <time>2020-07-09T10:37:44Z</time>
      </trkpt>
      <trkpt lat="37.5712290220" lon="-6.0323802754">
        <ele>86.18</ele>
        <time>2020-07-09T10:37:49Z</time>
      </trkpt>
      <trkpt lat="37.5712503958" lon="-6.0323973745">
        <ele>86.18</ele>
        <time>2020-07-09T10:37:56Z</time>
      </trkpt>
      <trkpt lat="37.5712567661" lon="-6.0324014816">
        <ele>86.18</ele>
        <time>2020-07-09T10:37:58Z</time>
      </trkpt>
      <trkpt lat="37.5712761283" lon="-6.0324114561">
        <ele>86.18</ele>
        <time>2020-07-09T10:38:00Z</time>
      </trkpt>
      <trkpt lat="37.5712889526" lon="-6.0324182454">
        <ele>86.18</ele>
        <time>2020-07-09T10:38:01Z</time>
      </trkpt>
      <trkpt lat="37.5713369809" lon="-6.0324278008">
        <ele>86.66</ele>
        <time>2020-07-09T10:38:04Z</time>
      </trkpt>
      <trkpt lat="37.5713555049" lon="-6.0324210953">
        <ele>86.66</ele>
        <time>2020-07-09T10:38:05Z</time>
      </trkpt>
      <trkpt lat="37.5713696703" lon="-6.0324179940">
        <ele>86.66</ele>
        <time>2020-07-09T10:38:06Z</time>
      </trkpt>
      <trkpt lat="37.5713844225" lon="-6.0324131325">
        <ele>87.14</ele>
        <time>2020-07-09T10:38:07Z</time>
      </trkpt>
      <trkpt lat="37.5713992584" lon="-6.0324049182">
        <ele>87.14</ele>
        <time>2020-07-09T10:38:08Z</time>
      </trkpt>
      <trkpt lat="37.5715286750" lon="-6.0323569737">
        <ele>88.10</ele>
        <time>2020-07-09T10:38:16Z</time>
      </trkpt>
      <trkpt lat="37.5716769509" lon="-6.0322925169">
        <ele>90.02</ele>
        <time>2020-07-09T10:38:25Z</time>
      </trkpt>
      <trkpt lat="37.5717908610" lon="-6.0322441533">
        <ele>90.98</ele>
        <time>2020-07-09T10:38:32Z</time>
      </trkpt>
      <trkpt lat="37.5719346944" lon="-6.0321896710">
        <ele>91.94</ele>
        <time>2020-07-09T10:38:41Z</time>
      </trkpt>
      <trkpt lat="37.5721190963" lon="-6.0321984719">
        <ele>92.90</ele>
        <time>2020-07-09T10:38:51Z</time>
      </trkpt>
      <trkpt lat="37.5722268876" lon="-6.0321527068">
        <ele>93.87</ele>
        <time>2020-07-09T10:38:58Z</time>
      </trkpt>
      <trkpt lat="37.5723710563" lon="-6.0320905130">
        <ele>94.83</ele>
        <time>2020-07-09T10:39:08Z</time>
      </trkpt>
      <trkpt lat="37.5725051668" lon="-6.0320423171">
        <ele>95.79</ele>
        <time>2020-07-09T10:39:17Z</time>
      </trkpt>
      <trkpt lat="37.5725615770" lon="-6.0320294928">
        <ele>96.27</ele>
        <time>2020-07-09T10:39:21Z</time>
      </trkpt>
      <trkpt lat="37.5725736469" lon="-6.0320366174">
        <ele>96.27</ele>
        <time>2020-07-09T10:39:22Z</time>
      </trkpt>
      <trkpt lat="37.5725861359" lon="-6.0320442449">
        <ele>95.79</ele>
        <time>2020-07-09T10:39:23Z</time>
      </trkpt>
      <trkpt lat="37.5727030635" lon="-6.0320332646">
        <ele>95.79</ele>
        <time>2020-07-09T10:39:30Z</time>
      </trkpt>
      <trkpt lat="37.5727359205" lon="-6.0320127290">
        <ele>95.31</ele>
        <time>2020-07-09T10:39:37Z</time>
      </trkpt>
      <trkpt lat="37.5727472361" lon="-6.0320033412">
        <ele>95.31</ele>
        <time>2020-07-09T10:39:49Z</time>
      </trkpt>
      <trkpt lat="37.5727709569" lon="-6.0320118908">
        <ele>95.31</ele>
        <time>2020-07-09T10:39:58Z</time>
      </trkpt>
      <trkpt lat="37.5729072466" lon="-6.0319827218">
        <ele>96.75</ele>
        <time>2020-07-09T10:40:06Z</time>
      </trkpt>
      <trkpt lat="37.5730589591" lon="-6.0320336837">
        <ele>96.75</ele>
        <time>2020-07-09T10:40:14Z</time>
      </trkpt>
      <trkpt lat="37.5731600448" lon="-6.0320364498">
        <ele>96.75</ele>
        <time>2020-07-09T10:40:19Z</time>
      </trkpt>
      <trkpt lat="37.5733105838" lon="-6.0319900140">
        <ele>97.71</ele>
        <time>2020-07-09T10:40:28Z</time>
      </trkpt>
      <trkpt lat="37.5734598655" lon="-6.0319294967">
        <ele>98.67</ele>
        <time>2020-07-09T10:40:36Z</time>
      </trkpt>
      <trkpt lat="37.5735264178" lon="-6.0318958014">
        <ele>100.11</ele>
        <time>2020-07-09T10:40:43Z</time>
      </trkpt>
      <trkpt lat="37.5735349674" lon="-6.0319020879">
        <ele>100.60</ele>
        <time>2020-07-09T10:40:54Z</time>
      </trkpt>
      <trkpt lat="37.5735347997" lon="-6.0318881739">
        <ele>100.60</ele>
        <time>2020-07-09T10:41:08Z</time>
      </trkpt>
      <trkpt lat="37.5735414214" lon="-6.0318848211">
        <ele>99.63</ele>
        <time>2020-07-09T10:41:16Z</time>
      </trkpt>
      <trkpt lat="37.5735439360" lon="-6.0318819713">
        <ele>98.67</ele>
        <time>2020-07-09T10:41:31Z</time>
      </trkpt>
      <trkpt lat="37.5735461991" lon="-6.0318785347">
        <ele>98.19</ele>
        <time>2020-07-09T10:41:45Z</time>
      </trkpt>
      <trkpt lat="37.5735482108" lon="-6.0318904370">
        <ele>98.19</ele>
        <time>2020-07-09T10:42:03Z</time>
      </trkpt>
      <trkpt lat="37.5735390745" lon="-6.0318881739">
        <ele>98.67</ele>
        <time>2020-07-09T10:42:27Z</time>
      </trkpt>
      <trkpt lat="37.5735357217" lon="-6.0318785347">
        <ele>97.71</ele>
        <time>2020-07-09T10:42:41Z</time>
      </trkpt>
      <trkpt lat="37.5735430978" lon="-6.0318818036">
        <ele>97.71</ele>
        <time>2020-07-09T10:43:04Z</time>
      </trkpt>
      <trkpt lat="37.5735373143" lon="-6.0318779480">
        <ele>99.63</ele>
        <time>2020-07-09T10:43:24Z</time>
      </trkpt>
      <trkpt lat="37.5735378172" lon="-6.0318678059">
        <ele>99.63</ele>
        <time>2020-07-09T10:43:40Z</time>
      </trkpt>
      <trkpt lat="37.5735465344" lon="-6.0318781994">
        <ele>99.15</ele>
        <time>2020-07-09T10:43:59Z</time>
      </trkpt>
      <trkpt lat="37.5735454448" lon="-6.0318893474">
        <ele>102.04</ele>
        <time>2020-07-09T10:44:22Z</time>
      </trkpt>
      <trkpt lat="37.5735424273" lon="-6.0318942089">
        <ele>101.08</ele>
        <time>2020-07-09T10:44:38Z</time>
      </trkpt>
      <trkpt lat="37.5735391583" lon="-6.0319015011">
        <ele>99.63</ele>
        <time>2020-07-09T10:44:58Z</time>
      </trkpt>
      <trkpt lat="37.5735454448" lon="-6.0318928678">
        <ele>99.15</ele>
        <time>2020-07-09T10:45:05Z</time>
      </trkpt>
      <trkpt lat="37.5735682435" lon="-6.0318979807">
        <ele>98.67</ele>
        <time>2020-07-09T10:45:08Z</time>
      </trkpt>
      <trkpt lat="37.5735908747" lon="-6.0318878386">
        <ele>98.67</ele>
        <time>2020-07-09T10:45:10Z</time>
      </trkpt>
      <trkpt lat="37.5736029446" lon="-6.0318771098">
        <ele>98.67</ele>
        <time>2020-07-09T10:45:11Z</time>
      </trkpt>
      <trkpt lat="37.5737452693" lon="-6.0318118986">
        <ele>100.11</ele>
        <time>2020-07-09T10:45:19Z</time>
      </trkpt>
      <trkpt lat="37.5739230495" lon="-6.0317613557">
        <ele>101.08</ele>
        <time>2020-07-09T10:45:28Z</time>
      </trkpt>
      <trkpt lat="37.5740542263" lon="-6.0316979885">
        <ele>101.56</ele>
        <time>2020-07-09T10:45:36Z</time>
      </trkpt>
      <trkpt lat="37.5741641130" lon="-6.0316623654">
        <ele>101.56</ele>
        <time>2020-07-09T10:45:42Z</time>
      </trkpt>
      <trkpt lat="37.5743310805" lon="-6.0315992497">
        <ele>102.52</ele>
        <time>2020-07-09T10:45:52Z</time>
      </trkpt>
      <trkpt lat="37.5744563062" lon="-6.0316028539">
        <ele>102.52</ele>
        <time>2020-07-09T10:45:59Z</time>
      </trkpt>
      <trkpt lat="37.5745787658" lon="-6.0315580107">
        <ele>103.00</ele>
        <time>2020-07-09T10:46:06Z</time>
      </trkpt>
      <trkpt lat="37.5746955257" lon="-6.0315040313">
        <ele>103.00</ele>
        <time>2020-07-09T10:46:13Z</time>
      </trkpt>
      <trkpt lat="37.5748561230" lon="-6.0314415023">
        <ele>103.00</ele>
        <time>2020-07-09T10:46:22Z</time>
      </trkpt>
      <trkpt lat="37.5749961846" lon="-6.0313867684">
        <ele>103.48</ele>
        <time>2020-07-09T10:46:30Z</time>
      </trkpt>
      <trkpt lat="37.5750708673" lon="-6.0313171148">
        <ele>103.96</ele>
        <time>2020-07-09T10:46:36Z</time>
      </trkpt>
      <trkpt lat="37.5751642417" lon="-6.0312503949">
        <ele>103.96</ele>
        <time>2020-07-09T10:46:42Z</time>
      </trkpt>
      <trkpt lat="37.5752542634" lon="-6.0311566852">
        <ele>105.88</ele>
        <time>2020-07-09T10:46:49Z</time>
      </trkpt>
      <trkpt lat="37.5753955822" lon="-6.0310988501">
        <ele>106.84</ele>
        <time>2020-07-09T10:46:57Z</time>
      </trkpt>
      <trkpt lat="37.5755688362" lon="-6.0310528334">
        <ele>107.81</ele>
        <time>2020-07-09T10:47:06Z</time>
      </trkpt>
      <trkpt lat="37.5757770427" lon="-6.0309892148">
        <ele>107.81</ele>
        <time>2020-07-09T10:47:16Z</time>
      </trkpt>
      <trkpt lat="37.5759924576" lon="-6.0309070721">
        <ele>108.77</ele>
        <time>2020-07-09T10:47:27Z</time>
      </trkpt>
      <trkpt lat="37.5761729199" lon="-6.0308452975">
        <ele>108.77</ele>
        <time>2020-07-09T10:47:37Z</time>
      </trkpt>
      <trkpt lat="37.5763620995" lon="-6.0307770688">
        <ele>110.21</ele>
        <time>2020-07-09T10:47:47Z</time>
      </trkpt>
      <trkpt lat="37.5765372813" lon="-6.0307217482">
        <ele>110.69</ele>
        <time>2020-07-09T10:47:57Z</time>
      </trkpt>
      <trkpt lat="37.5766913407" lon="-6.0306671821">
        <ele>111.65</ele>
        <time>2020-07-09T10:48:06Z</time>
      </trkpt>
      <trkpt lat="37.5768479146" lon="-6.0305989534">
        <ele>112.13</ele>
        <time>2020-07-09T10:48:15Z</time>
      </trkpt>
      <trkpt lat="37.5770054944" lon="-6.0305506736">
        <ele>112.61</ele>
        <time>2020-07-09T10:48:24Z</time>
      </trkpt>
      <trkpt lat="37.5771606434" lon="-6.0304907430">
        <ele>113.57</ele>
        <time>2020-07-09T10:48:33Z</time>
      </trkpt>
      <trkpt lat="37.5773015432" lon="-6.0304070916">
        <ele>114.53</ele>
        <time>2020-07-09T10:48:42Z</time>
      </trkpt>
      <trkpt lat="37.5774686784" lon="-6.0303345043">
        <ele>115.50</ele>
        <time>2020-07-09T10:48:52Z</time>
      </trkpt>
      <trkpt lat="37.5776080694" lon="-6.0302682035">
        <ele>115.98</ele>
        <time>2020-07-09T10:49:01Z</time>
      </trkpt>
      <trkpt lat="37.5777307805" lon="-6.0302202590">
        <ele>116.94</ele>
        <time>2020-07-09T10:49:08Z</time>
      </trkpt>
      <trkpt lat="37.5778915454" lon="-6.0301552992">
        <ele>117.42</ele>
        <time>2020-07-09T10:49:16Z</time>
      </trkpt>
      <trkpt lat="37.5780675653" lon="-6.0300853103">
        <ele>117.90</ele>
        <time>2020-07-09T10:49:25Z</time>
      </trkpt>
      <trkpt lat="37.5781868398" lon="-6.0300254636">
        <ele>118.38</ele>
        <time>2020-07-09T10:49:32Z</time>
      </trkpt>
      <trkpt lat="37.5783256441" lon="-6.0299675446">
        <ele>118.86</ele>
        <time>2020-07-09T10:49:40Z</time>
      </trkpt>
      <trkpt lat="37.5784497801" lon="-6.0299679637">
        <ele>119.34</ele>
        <time>2020-07-09T10:49:48Z</time>
      </trkpt>
      <trkpt lat="37.5785668753" lon="-6.0299363639">
        <ele>120.30</ele>
        <time>2020-07-09T10:49:56Z</time>
      </trkpt>
      <trkpt lat="37.5786112994" lon="-6.0299189296">
        <ele>120.30</ele>
        <time>2020-07-09T10:50:03Z</time>
      </trkpt>
      <trkpt lat="37.5786128920" lon="-6.0299171694">
        <ele>119.82</ele>
        <time>2020-07-09T10:50:16Z</time>
      </trkpt>
      <trkpt lat="37.5786081143" lon="-6.0299139004">
        <ele>119.34</ele>
        <time>2020-07-09T10:50:31Z</time>
      </trkpt>
      <trkpt lat="37.5786025822" lon="-6.0299136490">
        <ele>120.30</ele>
        <time>2020-07-09T10:50:51Z</time>
      </trkpt>
      <trkpt lat="37.5786145683" lon="-6.0299227852">
        <ele>119.82</ele>
        <time>2020-07-09T10:51:06Z</time>
      </trkpt>
      <trkpt lat="37.5786214415" lon="-6.0299225338">
        <ele>119.82</ele>
        <time>2020-07-09T10:51:18Z</time>
      </trkpt>
      <trkpt lat="37.5786611717" lon="-6.0298982263">
        <ele>119.82</ele>
        <time>2020-07-09T10:51:24Z</time>
      </trkpt>
      <trkpt lat="37.5786798634" lon="-6.0298848990">
        <ele>119.82</ele>
        <time>2020-07-09T10:51:26Z</time>
      </trkpt>
      <trkpt lat="37.5786905084" lon="-6.0298753437">
        <ele>119.82</ele>
        <time>2020-07-09T10:51:27Z</time>
      </trkpt>
      <trkpt lat="37.5787046738" lon="-6.0298646148">
        <ele>119.82</ele>
        <time>2020-07-09T10:51:28Z</time>
      </trkpt>
      <trkpt lat="37.5788694620" lon="-6.0297577456">
        <ele>120.30</ele>
        <time>2020-07-09T10:51:37Z</time>
      </trkpt>
      <trkpt lat="37.5790754054" lon="-6.0296298377">
        <ele>119.82</ele>
        <time>2020-07-09T10:51:48Z</time>
      </trkpt>
      <trkpt lat="37.5792308059" lon="-6.0295425821">
        <ele>119.82</ele>
        <time>2020-07-09T10:51:56Z</time>
      </trkpt>
      <trkpt lat="37.5793852005" lon="-6.0294005927">
        <ele>119.82</ele>
        <time>2020-07-09T10:52:05Z</time>
      </trkpt>
      <trkpt lat="37.5795566943" lon="-6.0292788874">
        <ele>119.34</ele>
        <time>2020-07-09T10:52:14Z</time>
      </trkpt>
      <trkpt lat="37.5797563512" lon="-6.0291374009">
        <ele>119.34</ele>
        <time>2020-07-09T10:52:24Z</time>
      </trkpt>
      <trkpt lat="37.5799842551" lon="-6.0289578605">
        <ele>119.82</ele>
        <time>2020-07-09T10:52:36Z</time>
      </trkpt>
      <trkpt lat="37.5801313575" lon="-6.0288268514">
        <ele>120.30</ele>
        <time>2020-07-09T10:52:45Z</time>
      </trkpt>
      <trkpt lat="37.5801440142" lon="-6.0288172960">
        <ele>120.30</ele>
        <time>2020-07-09T10:52:46Z</time>
      </trkpt>
      <trkpt lat="37.5801601913" lon="-6.0288112611">
        <ele>120.30</ele>
        <time>2020-07-09T10:52:47Z</time>
      </trkpt>
      <trkpt lat="37.5801777933" lon="-6.0288038012">
        <ele>120.78</ele>
        <time>2020-07-09T10:52:48Z</time>
      </trkpt>
      <trkpt lat="37.5801953953" lon="-6.0287948325">
        <ele>120.78</ele>
        <time>2020-07-09T10:52:49Z</time>
      </trkpt>
      <trkpt lat="37.5803661346" lon="-6.0286848620">
        <ele>121.74</ele>
        <time>2020-07-09T10:52:59Z</time>
      </trkpt>
      <trkpt lat="37.5805191882" lon="-6.0285916552">
        <ele>122.22</ele>
        <time>2020-07-09T10:53:08Z</time>
      </trkpt>
      <trkpt lat="37.5806664582" lon="-6.0285074171">
        <ele>123.19</ele>
        <time>2020-07-09T10:53:17Z</time>
      </trkpt>
      <trkpt lat="37.5808088668" lon="-6.0284446366">
        <ele>125.11</ele>
        <time>2020-07-09T10:53:26Z</time>
      </trkpt>
      <trkpt lat="37.5809440669" lon="-6.0283544473">
        <ele>126.55</ele>
        <time>2020-07-09T10:53:36Z</time>
      </trkpt>
      <trkpt lat="37.5810120441" lon="-6.0283144657">
        <ele>127.03</ele>
        <time>2020-07-09T10:53:41Z</time>
      </trkpt>
      <trkpt lat="37.5811355095" lon="-6.0282501765">
        <ele>127.51</ele>
        <time>2020-07-09T10:53:49Z</time>
      </trkpt>
      <trkpt lat="37.5812872220" lon="-6.0281704646">
        <ele>127.99</ele>
        <time>2020-07-09T10:53:59Z</time>
      </trkpt>
      <trkpt lat="37.5814700313" lon="-6.0280558839">
        <ele>128.47</ele>
        <time>2020-07-09T10:54:11Z</time>
      </trkpt>
      <trkpt lat="37.5816246774" lon="-6.0279680416">
        <ele>129.43</ele>
        <time>2020-07-09T10:54:20Z</time>
      </trkpt>
      <trkpt lat="37.5817903038" lon="-6.0278702248">
        <ele>128.95</ele>
        <time>2020-07-09T10:54:30Z</time>
      </trkpt>
      <trkpt lat="37.5818997715" lon="-6.0277948715">
        <ele>129.43</ele>
        <time>2020-07-09T10:54:37Z</time>
      </trkpt>
      <trkpt lat="37.5820419285" lon="-6.0277165845">
        <ele>130.88</ele>
        <time>2020-07-09T10:54:46Z</time>
      </trkpt>
      <trkpt lat="37.5821834989" lon="-6.0276289936">
        <ele>131.36</ele>
        <time>2020-07-09T10:54:55Z</time>
      </trkpt>
      <trkpt lat="37.5823246501" lon="-6.0275467671">
        <ele>131.84</ele>
        <time>2020-07-09T10:55:04Z</time>
      </trkpt>
      <trkpt lat="37.5824609399" lon="-6.0274633672">
        <ele>132.80</ele>
        <time>2020-07-09T10:55:13Z</time>
      </trkpt>
      <trkpt lat="37.5826407317" lon="-6.0273575876">
        <ele>133.28</ele>
        <time>2020-07-09T10:55:25Z</time>
      </trkpt>
      <trkpt lat="37.5827849843" lon="-6.0272794683">
        <ele>134.72</ele>
        <time>2020-07-09T10:55:35Z</time>
      </trkpt>
      <trkpt lat="37.5829561427" lon="-6.0271926317">
        <ele>135.20</ele>
        <time>2020-07-09T10:55:46Z</time>
      </trkpt>
      <trkpt lat="37.5830967072" lon="-6.0271587688">
        <ele>136.16</ele>
        <time>2020-07-09T10:55:55Z</time>
      </trkpt>
      <trkpt lat="37.5832947716" lon="-6.0271698330">
        <ele>136.64</ele>
        <time>2020-07-09T10:56:06Z</time>
      </trkpt>
      <trkpt lat="37.5834786706" lon="-6.0272490419">
        <ele>137.13</ele>
        <time>2020-07-09T10:56:16Z</time>
      </trkpt>
      <trkpt lat="37.5836971030" lon="-6.0274010058">
        <ele>137.13</ele>
        <time>2020-07-09T10:56:27Z</time>
      </trkpt>
      <trkpt lat="37.5838697702" lon="-6.0274984874">
        <ele>136.64</ele>
        <time>2020-07-09T10:56:36Z</time>
      </trkpt>
      <trkpt lat="37.5840809103" lon="-6.0276018362">
        <ele>138.09</ele>
        <time>2020-07-09T10:56:47Z</time>
      </trkpt>
      <trkpt lat="37.5842700060" lon="-6.0275556520">
        <ele>139.53</ele>
        <time>2020-07-09T10:56:56Z</time>
      </trkpt>
      <trkpt lat="37.5844263285" lon="-6.0274901893">
        <ele>140.49</ele>
        <time>2020-07-09T10:57:04Z</time>
      </trkpt>
      <trkpt lat="37.5845646299" lon="-6.0274141654">
        <ele>140.49</ele>
        <time>2020-07-09T10:57:11Z</time>
      </trkpt>
      <trkpt lat="37.5847264845" lon="-6.0273350403">
        <ele>140.97</ele>
        <time>2020-07-09T10:57:19Z</time>
      </trkpt>
      <trkpt lat="37.5849155802" lon="-6.0272546578">
        <ele>141.93</ele>
        <time>2020-07-09T10:57:28Z</time>
      </trkpt>
      <trkpt lat="37.5850925222" lon="-6.0271245707">
        <ele>142.89</ele>
        <time>2020-07-09T10:57:38Z</time>
      </trkpt>
      <trkpt lat="37.5852278061" lon="-6.0269735288">
        <ele>144.34</ele>
        <time>2020-07-09T10:57:47Z</time>
      </trkpt>
      <trkpt lat="37.5853759144" lon="-6.0268194694">
        <ele>144.82</ele>
        <time>2020-07-09T10:57:57Z</time>
      </trkpt>
      <trkpt lat="37.5855201669" lon="-6.0266892985">
        <ele>144.82</ele>
        <time>2020-07-09T10:58:05Z</time>
      </trkpt>
      <trkpt lat="37.5856971089" lon="-6.0265557747">
        <ele>145.30</ele>
        <time>2020-07-09T10:58:15Z</time>
      </trkpt>
      <trkpt lat="37.5858684350" lon="-6.0264156293">
        <ele>145.78</ele>
        <time>2020-07-09T10:58:25Z</time>
      </trkpt>
      <trkpt lat="37.5860070717" lon="-6.0262935888">
        <ele>145.30</ele>
        <time>2020-07-09T10:58:33Z</time>
      </trkpt>
      <trkpt lat="37.5861881208" lon="-6.0261417087">
        <ele>143.85</ele>
        <time>2020-07-09T10:58:38Z</time>
      </trkpt>
      <trkpt lat="37.5866451021" lon="-6.0257672053">
        <ele>141.45</ele>
        <time>2020-07-09T10:58:48Z</time>
      </trkpt>
      <trkpt lat="37.5868052803" lon="-6.0256487690">
        <ele>140.49</ele>
        <time>2020-07-09T10:58:51Z</time>
      </trkpt>
      <trkpt lat="37.5868526381" lon="-6.0256027523">
        <ele>140.49</ele>
        <time>2020-07-09T10:58:52Z</time>
      </trkpt>
      <trkpt lat="37.5869827252" lon="-6.0254711565">
        <ele>140.01</ele>
        <time>2020-07-09T10:58:55Z</time>
      </trkpt>
      <trkpt lat="37.5871579908" lon="-6.0252811387">
        <ele>141.45</ele>
        <time>2020-07-09T10:59:01Z</time>
      </trkpt>
      <trkpt lat="37.5872762594" lon="-6.0251570027">
        <ele>142.89</ele>
        <time>2020-07-09T10:59:08Z</time>
      </trkpt>
      <trkpt lat="37.5874812808" lon="-6.0249533225">
        <ele>145.30</ele>
        <time>2020-07-09T10:59:20Z</time>
      </trkpt>
      <trkpt lat="37.5876779202" lon="-6.0247420147">
        <ele>147.22</ele>
        <time>2020-07-09T10:59:32Z</time>
      </trkpt>
      <trkpt lat="37.5878388528" lon="-6.0245769750">
        <ele>149.62</ele>
        <time>2020-07-09T10:59:42Z</time>
      </trkpt>
      <trkpt lat="37.5879902299" lon="-6.0244138632">
        <ele>151.54</ele>
        <time>2020-07-09T10:59:52Z</time>
      </trkpt>
      <trkpt lat="37.5880269427" lon="-6.0243605543">
        <ele>151.54</ele>
        <time>2020-07-09T10:59:56Z</time>
      </trkpt>
      <trkpt lat="37.5880355760" lon="-6.0243532620">
        <ele>151.54</ele>
        <time>2020-07-09T10:59:57Z</time>
      </trkpt>
      <trkpt lat="37.5880703609" lon="-6.0243039764">
        <ele>150.58</ele>
        <time>2020-07-09T11:00:05Z</time>
      </trkpt>
      <trkpt lat="37.5880629849" lon="-6.0242962651">
        <ele>150.10</ele>
        <time>2020-07-09T11:00:14Z</time>
      </trkpt>
      <trkpt lat="37.5880655833" lon="-6.0242899787">
        <ele>151.06</ele>
        <time>2020-07-09T11:00:35Z</time>
      </trkpt>
      <trkpt lat="37.5880631525" lon="-6.0242919065">
        <ele>151.06</ele>
        <time>2020-07-09T11:00:50Z</time>
      </trkpt>
      <trkpt lat="37.5880524237" lon="-6.0243012104">
        <ele>150.58</ele>
        <time>2020-07-09T11:01:07Z</time>
      </trkpt>
      <trkpt lat="37.5880610570" lon="-6.0243113525">
        <ele>150.58</ele>
        <time>2020-07-09T11:01:25Z</time>
      </trkpt>
      <trkpt lat="37.5880613085" lon="-6.0243146215">
        <ele>151.54</ele>
        <time>2020-07-09T11:01:46Z</time>
      </trkpt>
      <trkpt lat="37.5880633201" lon="-6.0243204888">
        <ele>152.03</ele>
        <time>2020-07-09T11:02:04Z</time>
      </trkpt>
      <trkpt lat="37.5880527589" lon="-6.0243291222">
        <ele>151.06</ele>
        <time>2020-07-09T11:02:26Z</time>
      </trkpt>
      <trkpt lat="37.5880534295" lon="-6.0243353248">
        <ele>152.51</ele>
        <time>2020-07-09T11:02:44Z</time>
      </trkpt>
      <trkpt lat="37.5880639069" lon="-6.0243358277">
        <ele>151.54</ele>
        <time>2020-07-09T11:03:01Z</time>
      </trkpt>
      <trkpt lat="37.5880749710" lon="-6.0243324749">
        <ele>151.54</ele>
        <time>2020-07-09T11:03:19Z</time>
      </trkpt>
      <trkpt lat="37.5880699418" lon="-6.0243235063">
        <ele>151.54</ele>
        <time>2020-07-09T11:03:36Z</time>
      </trkpt>
      <trkpt lat="37.5880742166" lon="-6.0243205726">
        <ele>152.03</ele>
        <time>2020-07-09T11:03:53Z</time>
      </trkpt>
      <trkpt lat="37.5880756415" lon="-6.0243203212">
        <ele>151.54</ele>
        <time>2020-07-09T11:04:09Z</time>
      </trkpt>
      <trkpt lat="37.5880678464" lon="-6.0242902301">
        <ele>150.58</ele>
        <time>2020-07-09T11:04:29Z</time>
      </trkpt>
      <trkpt lat="37.5880610570" lon="-6.0243017972">
        <ele>150.58</ele>
        <time>2020-07-09T11:04:51Z</time>
      </trkpt>
      <trkpt lat="37.5880605541" lon="-6.0243199021">
        <ele>151.54</ele>
        <time>2020-07-09T11:05:18Z</time>
      </trkpt>
      <trkpt lat="37.5880615599" lon="-6.0243294574">
        <ele>152.51</ele>
        <time>2020-07-09T11:05:36Z</time>
      </trkpt>
      <trkpt lat="37.5880735461" lon="-6.0243225843">
        <ele>152.99</ele>
        <time>2020-07-09T11:05:57Z</time>
      </trkpt>
      <trkpt lat="37.5880568661" lon="-6.0243079998">
        <ele>151.54</ele>
        <time>2020-07-09T11:06:19Z</time>
      </trkpt>
      <trkpt lat="37.5880417787" lon="-6.0243147053">
        <ele>151.06</ele>
        <time>2020-07-09T11:06:42Z</time>
      </trkpt>
      <trkpt lat="37.5880707800" lon="-6.0243272781">
        <ele>151.54</ele>
        <time>2020-07-09T11:07:02Z</time>
      </trkpt>
      <trkpt lat="37.5880667567" lon="-6.0243235901">
        <ele>151.54</ele>
        <time>2020-07-09T11:07:19Z</time>
      </trkpt>
      <trkpt lat="37.5880565308" lon="-6.0243042279">
        <ele>151.54</ele>
        <time>2020-07-09T11:07:35Z</time>
      </trkpt>
      <trkpt lat="37.5880617276" lon="-6.0243245959">
        <ele>152.03</ele>
        <time>2020-07-09T11:07:52Z</time>
      </trkpt>
      <trkpt lat="37.5880596321" lon="-6.0243139509">
        <ele>151.54</ele>
        <time>2020-07-09T11:08:13Z</time>
      </trkpt>
      <trkpt lat="37.5880619790" lon="-6.0243250988">
        <ele>151.54</ele>
        <time>2020-07-09T11:08:30Z</time>
      </trkpt>
      <trkpt lat="37.5881237537" lon="-6.0242693592">
        <ele>152.03</ele>
        <time>2020-07-09T11:08:39Z</time>
      </trkpt>
      <trkpt lat="37.5883039646" lon="-6.0240769107">
        <ele>151.54</ele>
        <time>2020-07-09T11:08:47Z</time>
      </trkpt>
      <trkpt lat="37.5884089898" lon="-6.0239665210">
        <ele>152.51</ele>
        <time>2020-07-09T11:08:53Z</time>
      </trkpt>
      <trkpt lat="37.5885411724" lon="-6.0238180775">
        <ele>152.99</ele>
        <time>2020-07-09T11:09:00Z</time>
      </trkpt>
      <trkpt lat="37.5886957347" lon="-6.0236672871">
        <ele>150.58</ele>
        <time>2020-07-09T11:09:07Z</time>
      </trkpt>
      <trkpt lat="37.5889355410" lon="-6.0234263912">
        <ele>147.70</ele>
        <time>2020-07-09T11:09:14Z</time>
      </trkpt>
      <trkpt lat="37.5892547239" lon="-6.0230788775">
        <ele>145.30</ele>
        <time>2020-07-09T11:09:21Z</time>
      </trkpt>
      <trkpt lat="37.5895027444" lon="-6.0228334554">
        <ele>144.82</ele>
        <time>2020-07-09T11:09:28Z</time>
      </trkpt>
      <trkpt lat="37.5896843802" lon="-6.0226450302">
        <ele>142.41</ele>
        <time>2020-07-09T11:09:33Z</time>
      </trkpt>
      <trkpt lat="37.5899097696" lon="-6.0224454571">
        <ele>143.37</ele>
        <time>2020-07-09T11:09:39Z</time>
      </trkpt>
      <trkpt lat="37.5901069958" lon="-6.0222303774">
        <ele>143.85</ele>
        <time>2020-07-09T11:09:49Z</time>
      </trkpt>
      <trkpt lat="37.5903163757" lon="-6.0220038984">
        <ele>142.41</ele>
        <time>2020-07-09T11:09:57Z</time>
      </trkpt>
      <trkpt lat="37.5906834193" lon="-6.0216192529">
        <ele>140.97</ele>
        <time>2020-07-09T11:10:08Z</time>
      </trkpt>
      <trkpt lat="37.5909464434" lon="-6.0213566478">
        <ele>140.97</ele>
        <time>2020-07-09T11:10:16Z</time>
      </trkpt>
      <trkpt lat="37.5910797156" lon="-6.0212095454">
        <ele>141.45</ele>
        <time>2020-07-09T11:10:22Z</time>
      </trkpt>
      <trkpt lat="37.5912320148" lon="-6.0209636204">
        <ele>141.45</ele>
        <time>2020-07-09T11:10:29Z</time>
      </trkpt>
      <trkpt lat="37.5913979765" lon="-6.0207092296">
        <ele>140.49</ele>
        <time>2020-07-09T11:10:35Z</time>
      </trkpt>
      <trkpt lat="37.5914263073" lon="-6.0206681583">
        <ele>140.49</ele>
        <time>2020-07-09T11:10:36Z</time>
      </trkpt>
      <trkpt lat="37.5914564822" lon="-6.0206249915">
        <ele>140.01</ele>
        <time>2020-07-09T11:10:37Z</time>
      </trkpt>
      <trkpt lat="37.5916419737" lon="-6.0202385858">
        <ele>140.49</ele>
        <time>2020-07-09T11:10:46Z</time>
      </trkpt>
      <trkpt lat="37.5917402096" lon="-6.0199261084">
        <ele>141.45</ele>
        <time>2020-07-09T11:10:54Z</time>
      </trkpt>
      <trkpt lat="37.5918463245" lon="-6.0196153913">
        <ele>141.45</ele>
        <time>2020-07-09T11:11:02Z</time>
      </trkpt>
      <trkpt lat="37.5919598993" lon="-6.0193401296">
        <ele>141.93</ele>
        <time>2020-07-09T11:11:11Z</time>
      </trkpt>
      <trkpt lat="37.5920576323" lon="-6.0192013253">
        <ele>141.45</ele>
        <time>2020-07-09T11:11:18Z</time>
      </trkpt>
      <trkpt lat="37.5922466442" lon="-6.0191091243">
        <ele>140.97</ele>
        <time>2020-07-09T11:11:26Z</time>
      </trkpt>
      <trkpt lat="37.5924562756" lon="-6.0189770255">
        <ele>141.93</ele>
        <time>2020-07-09T11:11:34Z</time>
      </trkpt>
      <trkpt lat="37.5926406775" lon="-6.0188275762">
        <ele>142.41</ele>
        <time>2020-07-09T11:11:42Z</time>
      </trkpt>
      <trkpt lat="37.5928296894" lon="-6.0187155101">
        <ele>142.89</ele>
        <time>2020-07-09T11:11:50Z</time>
      </trkpt>
      <trkpt lat="37.5928808190" lon="-6.0186917894">
        <ele>142.89</ele>
        <time>2020-07-09T11:11:53Z</time>
      </trkpt>
      <trkpt lat="37.5929180346" lon="-6.0186905321">
        <ele>143.37</ele>
        <time>2020-07-09T11:11:55Z</time>
      </trkpt>
      <trkpt lat="37.5930129178" lon="-6.0186166875">
        <ele>143.37</ele>
        <time>2020-07-09T11:12:00Z</time>
      </trkpt>
      <trkpt lat="37.5932041090" lon="-6.0184286814">
        <ele>143.85</ele>
        <time>2020-07-09T11:12:10Z</time>
      </trkpt>
      <trkpt lat="37.5933288317" lon="-6.0183182079">
        <ele>144.82</ele>
        <time>2020-07-09T11:12:17Z</time>
      </trkpt>
      <trkpt lat="37.5935104676" lon="-6.0181865282">
        <ele>145.78</ele>
        <time>2020-07-09T11:12:26Z</time>
      </trkpt>
      <trkpt lat="37.5936577376" lon="-6.0180709418">
        <ele>145.78</ele>
        <time>2020-07-09T11:12:35Z</time>
      </trkpt>
      <trkpt lat="37.5937890820" lon="-6.0179604683">
        <ele>147.22</ele>
        <time>2020-07-09T11:12:45Z</time>
      </trkpt>
      <trkpt lat="37.5939011481" lon="-6.0178809240">
        <ele>148.18</ele>
        <time>2020-07-09T11:12:53Z</time>
      </trkpt>
      <trkpt lat="37.5939929299" lon="-6.0178763140">
        <ele>147.70</ele>
        <time>2020-07-09T11:12:59Z</time>
      </trkpt>
      <trkpt lat="37.5940609071" lon="-6.0178568680">
        <ele>147.70</ele>
        <time>2020-07-09T11:13:03Z</time>
      </trkpt>
      <trkpt lat="37.5941138808" lon="-6.0178171378">
        <ele>147.22</ele>
        <time>2020-07-09T11:13:07Z</time>
      </trkpt>
      <trkpt lat="37.5942788366" lon="-6.0177473165">
        <ele>148.18</ele>
        <time>2020-07-09T11:13:18Z</time>
      </trkpt>
      <trkpt lat="37.5944037270" lon="-6.0176970251">
        <ele>148.66</ele>
        <time>2020-07-09T11:13:26Z</time>
      </trkpt>
      <trkpt lat="37.5944649149" lon="-6.0176703706">
        <ele>148.66</ele>
        <time>2020-07-09T11:13:30Z</time>
      </trkpt>
      <trkpt lat="37.5945923198" lon="-6.0175605677">
        <ele>147.22</ele>
        <time>2020-07-09T11:13:38Z</time>
      </trkpt>
      <trkpt lat="37.5947149470" lon="-6.0174490884">
        <ele>146.26</ele>
        <time>2020-07-09T11:13:45Z</time>
      </trkpt>
      <trkpt lat="37.5948306173" lon="-6.0173039138">
        <ele>146.26</ele>
        <time>2020-07-09T11:13:53Z</time>
      </trkpt>
      <trkpt lat="37.5949656498" lon="-6.0171906743">
        <ele>144.82</ele>
        <time>2020-07-09T11:13:59Z</time>
      </trkpt>
      <trkpt lat="37.5950814877" lon="-6.0170203540">
        <ele>142.41</ele>
        <time>2020-07-09T11:14:06Z</time>
      </trkpt>
      <trkpt lat="37.5951914582" lon="-6.0167646222">
        <ele>141.45</ele>
        <time>2020-07-09T11:14:15Z</time>
      </trkpt>
      <trkpt lat="37.5953311007" lon="-6.0165337846">
        <ele>140.01</ele>
        <time>2020-07-09T11:14:22Z</time>
      </trkpt>
      <trkpt lat="37.5953867566" lon="-6.0164731834">
        <ele>139.53</ele>
        <time>2020-07-09T11:14:24Z</time>
      </trkpt>
      <trkpt lat="37.5955755170" lon="-6.0161283519">
        <ele>137.61</ele>
        <time>2020-07-09T11:14:32Z</time>
      </trkpt>
      <trkpt lat="37.5956553966" lon="-6.0159012862">
        <ele>137.13</ele>
        <time>2020-07-09T11:14:37Z</time>
      </trkpt>
      <trkpt lat="37.5957281515" lon="-6.0157279484">
        <ele>136.64</ele>
        <time>2020-07-09T11:14:41Z</time>
      </trkpt>
      <trkpt lat="37.5958247948" lon="-6.0153482482">
        <ele>136.16</ele>
        <time>2020-07-09T11:14:49Z</time>
      </trkpt>
      <trkpt lat="37.5959133077" lon="-6.0150608327">
        <ele>136.16</ele>
        <time>2020-07-09T11:14:56Z</time>
      </trkpt>
      <trkpt lat="37.5960760005" lon="-6.0148754250">
        <ele>134.72</ele>
        <time>2020-07-09T11:15:02Z</time>
      </trkpt>
      <trkpt lat="37.5962029863" lon="-6.0147398058">
        <ele>133.76</ele>
        <time>2020-07-09T11:15:09Z</time>
      </trkpt>
      <trkpt lat="37.5963000488" lon="-6.0146604292">
        <ele>134.24</ele>
        <time>2020-07-09T11:15:14Z</time>
      </trkpt>
      <trkpt lat="37.5964350812" lon="-6.0145305097">
        <ele>135.20</ele>
        <time>2020-07-09T11:15:21Z</time>
      </trkpt>
      <trkpt lat="37.5966387615" lon="-6.0143461917">
        <ele>134.72</ele>
        <time>2020-07-09T11:15:29Z</time>
      </trkpt>
      <trkpt lat="37.5968604628" lon="-6.0143093113">
        <ele>135.20</ele>
        <time>2020-07-09T11:15:37Z</time>
      </trkpt>
      <trkpt lat="37.5971184578" lon="-6.0143456887">
        <ele>136.16</ele>
        <time>2020-07-09T11:15:45Z</time>
      </trkpt>
      <trkpt lat="37.5972740259" lon="-6.0144026019">
        <ele>136.64</ele>
        <time>2020-07-09T11:15:52Z</time>
      </trkpt>
      <trkpt lat="37.5974140037" lon="-6.0144644603">
        <ele>136.64</ele>
        <time>2020-07-09T11:16:02Z</time>
      </trkpt>
      <trkpt lat="37.5975176040" lon="-6.0144954734">
        <ele>137.13</ele>
        <time>2020-07-09T11:16:10Z</time>
      </trkpt>
      <trkpt lat="37.5976968929" lon="-6.0145660490">
        <ele>137.61</ele>
        <time>2020-07-09T11:16:19Z</time>
      </trkpt>
      <trkpt lat="37.5977997389" lon="-6.0145961400">
        <ele>138.57</ele>
        <time>2020-07-09T11:16:27Z</time>
      </trkpt>
      <trkpt lat="37.5977963023" lon="-6.0145995766">
        <ele>138.09</ele>
        <time>2020-07-09T11:16:39Z</time>
      </trkpt>
      <trkpt lat="37.5977992360" lon="-6.0146010853">
        <ele>138.09</ele>
        <time>2020-07-09T11:16:51Z</time>
      </trkpt>
      <trkpt lat="37.5979277305" lon="-6.0146535560">
        <ele>139.05</ele>
        <time>2020-07-09T11:16:58Z</time>
      </trkpt>
      <trkpt lat="37.5981832948" lon="-6.0147368722">
        <ele>139.05</ele>
        <time>2020-07-09T11:17:07Z</time>
      </trkpt>
      <trkpt lat="37.5984303933" lon="-6.0148870759">
        <ele>140.49</ele>
        <time>2020-07-09T11:17:17Z</time>
      </trkpt>
      <trkpt lat="37.5986551959" lon="-6.0150635149">
        <ele>140.49</ele>
        <time>2020-07-09T11:17:26Z</time>
      </trkpt>
      <trkpt lat="37.5988597143" lon="-6.0151775088">
        <ele>140.97</ele>
        <time>2020-07-09T11:17:35Z</time>
      </trkpt>
      <trkpt lat="37.5990856066" lon="-6.0152999684">
        <ele>140.97</ele>
        <time>2020-07-09T11:17:45Z</time>
      </trkpt>
      <trkpt lat="37.5993599463" lon="-6.0153869726">
        <ele>141.45</ele>
        <time>2020-07-09T11:17:56Z</time>
      </trkpt>
      <trkpt lat="37.5994912907" lon="-6.0155064147">
        <ele>141.93</ele>
        <time>2020-07-09T11:18:03Z</time>
      </trkpt>
      <trkpt lat="37.5996835716" lon="-6.0155491624">
        <ele>141.45</ele>
        <time>2020-07-09T11:18:11Z</time>
      </trkpt>
      <trkpt lat="37.5998995733" lon="-6.0156271141">
        <ele>140.97</ele>
        <time>2020-07-09T11:18:19Z</time>
      </trkpt>
      <trkpt lat="37.6000053529" lon="-6.0156757291">
        <ele>140.97</ele>
        <time>2020-07-09T11:18:25Z</time>
      </trkpt>
      <trkpt lat="37.6000135671" lon="-6.0156819317">
        <ele>140.97</ele>
        <time>2020-07-09T11:18:26Z</time>
      </trkpt>
      <trkpt lat="37.6000216976" lon="-6.0156905651">
        <ele>140.49</ele>
        <time>2020-07-09T11:18:27Z</time>
      </trkpt>
      <trkpt lat="37.6000500284" lon="-6.0157097597">
        <ele>140.49</ele>
        <time>2020-07-09T11:18:30Z</time>
      </trkpt>
      <trkpt lat="37.6000485197" lon="-6.0157176387">
        <ele>141.45</ele>
        <time>2020-07-09T11:18:37Z</time>
      </trkpt>
      <trkpt lat="37.6000527944" lon="-6.0157344025">
        <ele>140.01</ele>
        <time>2020-07-09T11:18:55Z</time>
      </trkpt>
      <trkpt lat="37.6000633556" lon="-6.0157314688">
        <ele>140.49</ele>
        <time>2020-07-09T11:19:15Z</time>
      </trkpt>
      <trkpt lat="37.6000510342" lon="-6.0157276969">
        <ele>141.45</ele>
        <time>2020-07-09T11:19:37Z</time>
      </trkpt>
      <trkpt lat="37.6000426523" lon="-6.0157302115">
        <ele>140.97</ele>
        <time>2020-07-09T11:19:55Z</time>
      </trkpt>
      <trkpt lat="37.6000605896" lon="-6.0157388449">
        <ele>142.41</ele>
        <time>2020-07-09T11:20:14Z</time>
      </trkpt>
      <trkpt lat="37.6001647767" lon="-6.0157779045">
        <ele>142.41</ele>
        <time>2020-07-09T11:20:20Z</time>
      </trkpt>
      <trkpt lat="37.6003147289" lon="-6.0158758052">
        <ele>141.93</ele>
        <time>2020-07-09T11:20:27Z</time>
      </trkpt>
      <trkpt lat="37.6005212590" lon="-6.0160891246">
        <ele>141.93</ele>
        <time>2020-07-09T11:20:37Z</time>
      </trkpt>
      <trkpt lat="37.6007279567" lon="-6.0162650608">
        <ele>141.93</ele>
        <time>2020-07-09T11:20:47Z</time>
      </trkpt>
      <trkpt lat="37.6008350775" lon="-6.0163390730">
        <ele>142.89</ele>
        <time>2020-07-09T11:20:54Z</time>
      </trkpt>
      <trkpt lat="37.6009535976" lon="-6.0164161026">
        <ele>141.93</ele>
        <time>2020-07-09T11:21:00Z</time>
      </trkpt>
      <trkpt lat="37.6012232434" lon="-6.0165368859">
        <ele>138.57</ele>
        <time>2020-07-09T11:21:09Z</time>
      </trkpt>
      <trkpt lat="37.6015010197" lon="-6.0166482814">
        <ele>137.13</ele>
        <time>2020-07-09T11:21:16Z</time>
      </trkpt>
      <trkpt lat="37.6018377207" lon="-6.0166823957">
        <ele>136.64</ele>
        <time>2020-07-09T11:21:25Z</time>
      </trkpt>
      <trkpt lat="37.6020890940" lon="-6.0166649614">
        <ele>134.72</ele>
        <time>2020-07-09T11:21:33Z</time>
      </trkpt>
      <trkpt lat="37.6022519544" lon="-6.0166243091">
        <ele>134.24</ele>
        <time>2020-07-09T11:21:40Z</time>
      </trkpt>
      <trkpt lat="37.6024765056" lon="-6.0165724251">
        <ele>133.28</ele>
        <time>2020-07-09T11:21:48Z</time>
      </trkpt>
      <trkpt lat="37.6026817784" lon="-6.0165361315">
        <ele>132.80</ele>
        <time>2020-07-09T11:21:56Z</time>
      </trkpt>
      <trkpt lat="37.6028869674" lon="-6.0164420027">
        <ele>132.32</ele>
        <time>2020-07-09T11:22:04Z</time>
      </trkpt>
      <trkpt lat="37.6031086687" lon="-6.0162961576">
        <ele>131.84</ele>
        <time>2020-07-09T11:22:13Z</time>
      </trkpt>
      <trkpt lat="37.6032909751" lon="-6.0161300283">
        <ele>131.84</ele>
        <time>2020-07-09T11:22:21Z</time>
      </trkpt>
      <trkpt lat="37.6034530811" lon="-6.0160701815">
        <ele>131.84</ele>
        <time>2020-07-09T11:22:27Z</time>
      </trkpt>
      <trkpt lat="37.6035983395" lon="-6.0159480572">
        <ele>131.84</ele>
        <time>2020-07-09T11:22:33Z</time>
      </trkpt>
      <trkpt lat="37.6037630439" lon="-6.0157846939">
        <ele>132.80</ele>
        <time>2020-07-09T11:22:41Z</time>
      </trkpt>
      <trkpt lat="37.6038969867" lon="-6.0155531857">
        <ele>134.24</ele>
        <time>2020-07-09T11:22:51Z</time>
      </trkpt>
      <trkpt lat="37.6039855834" lon="-6.0154790059">
        <ele>133.76</ele>
        <time>2020-07-09T11:22:58Z</time>
      </trkpt>
      <trkpt lat="37.6040465198" lon="-6.0154579673">
        <ele>133.28</ele>
        <time>2020-07-09T11:23:02Z</time>
      </trkpt>
      <trkpt lat="37.6041021757" lon="-6.0154728033">
        <ele>134.24</ele>
        <time>2020-07-09T11:23:09Z</time>
      </trkpt>
      <trkpt lat="37.6041021757" lon="-6.0154758207">
        <ele>135.20</ele>
        <time>2020-07-09T11:23:22Z</time>
      </trkpt>
      <trkpt lat="37.6040896028" lon="-6.0154794250">
        <ele>135.68</ele>
        <time>2020-07-09T11:23:37Z</time>
      </trkpt>
      <trkpt lat="37.6040912792" lon="-6.0154711269">
        <ele>136.64</ele>
        <time>2020-07-09T11:23:49Z</time>
      </trkpt>
      <trkpt lat="37.6040964760" lon="-6.0154717136">
        <ele>137.13</ele>
        <time>2020-07-09T11:23:52Z</time>
      </trkpt>
      <trkpt lat="37.6041087136" lon="-6.0154808499">
        <ele>137.13</ele>
        <time>2020-07-09T11:23:53Z</time>
      </trkpt>
      <trkpt lat="37.6041647885" lon="-6.0155544430">
        <ele>138.57</ele>
        <time>2020-07-09T11:24:00Z</time>
      </trkpt>
      <trkpt lat="37.6041678898" lon="-6.0155657586">
        <ele>138.57</ele>
        <time>2020-07-09T11:24:05Z</time>
      </trkpt>
      <trkpt lat="37.6042170078" lon="-6.0156788304">
        <ele>140.01</ele>
        <time>2020-07-09T11:24:16Z</time>
      </trkpt>
      <trkpt lat="37.6042535529" lon="-6.0157557763">
        <ele>139.05</ele>
        <time>2020-07-09T11:24:25Z</time>
      </trkpt>
      <trkpt lat="37.6042994857" lon="-6.0158365779">
        <ele>138.09</ele>
        <time>2020-07-09T11:24:33Z</time>
      </trkpt>
      <trkpt lat="37.6043809578" lon="-6.0159097519">
        <ele>138.09</ele>
        <time>2020-07-09T11:24:43Z</time>
      </trkpt>
      <trkpt lat="37.6044451632" lon="-6.0159521643">
        <ele>139.53</ele>
        <time>2020-07-09T11:24:51Z</time>
      </trkpt>
      <trkpt lat="37.6044628490" lon="-6.0159573611">
        <ele>140.01</ele>
        <time>2020-07-09T11:24:58Z</time>
      </trkpt>
      <trkpt lat="37.6044826303" lon="-6.0159509908">
        <ele>138.57</ele>
        <time>2020-07-09T11:25:10Z</time>
      </trkpt>
      <trkpt lat="37.6044907607" lon="-6.0159496497">
        <ele>138.57</ele>
        <time>2020-07-09T11:25:11Z</time>
      </trkpt>
      <trkpt lat="37.6045023277" lon="-6.0159485601">
        <ele>139.05</ele>
        <time>2020-07-09T11:25:12Z</time>
      </trkpt>
      <trkpt lat="37.6045151521" lon="-6.0159532540">
        <ele>138.57</ele>
        <time>2020-07-09T11:25:13Z</time>
      </trkpt>
      <trkpt lat="37.6046527829" lon="-6.0160079040">
        <ele>138.09</ele>
        <time>2020-07-09T11:25:21Z</time>
      </trkpt>
      <trkpt lat="37.6048260368" lon="-6.0160389170">
        <ele>138.09</ele>
        <time>2020-07-09T11:25:29Z</time>
      </trkpt>
      <trkpt lat="37.6050585508" lon="-6.0160887893">
        <ele>138.57</ele>
        <time>2020-07-09T11:25:39Z</time>
      </trkpt>
      <trkpt lat="37.6052366663" lon="-6.0161581915">
        <ele>140.01</ele>
        <time>2020-07-09T11:25:47Z</time>
      </trkpt>
      <trkpt lat="37.6054093335" lon="-6.0161636397">
        <ele>142.41</ele>
        <time>2020-07-09T11:25:57Z</time>
      </trkpt>
      <trkpt lat="37.6055384986" lon="-6.0161604546">
        <ele>143.85</ele>
        <time>2020-07-09T11:26:05Z</time>
      </trkpt>
      <trkpt lat="37.6056744531" lon="-6.0162550863">
        <ele>146.74</ele>
        <time>2020-07-09T11:26:15Z</time>
      </trkpt>
      <trkpt lat="37.6057651453" lon="-6.0163088143">
        <ele>147.70</ele>
        <time>2020-07-09T11:26:22Z</time>
      </trkpt>
      <trkpt lat="37.6059005968" lon="-6.0163184535">
        <ele>147.70</ele>
        <time>2020-07-09T11:26:29Z</time>
      </trkpt>
      <trkpt lat="37.6061278302" lon="-6.0163259134">
        <ele>145.30</ele>
        <time>2020-07-09T11:26:37Z</time>
      </trkpt>
      <trkpt lat="37.6064648665" lon="-6.0163066350">
        <ele>141.93</ele>
        <time>2020-07-09T11:26:48Z</time>
      </trkpt>
      <trkpt lat="37.6067207661" lon="-6.0164055414">
        <ele>140.49</ele>
        <time>2020-07-09T11:26:57Z</time>
      </trkpt>
      <trkpt lat="37.6068730652" lon="-6.0164750274">
        <ele>140.97</ele>
        <time>2020-07-09T11:27:04Z</time>
      </trkpt>
      <trkpt lat="37.6070008893" lon="-6.0164539889">
        <ele>141.45</ele>
        <time>2020-07-09T11:27:11Z</time>
      </trkpt>
      <trkpt lat="37.6071120333" lon="-6.0164106544">
        <ele>141.45</ele>
        <time>2020-07-09T11:27:17Z</time>
      </trkpt>
      <trkpt lat="37.6072333194" lon="-6.0164031945">
        <ele>141.45</ele>
        <time>2020-07-09T11:27:24Z</time>
      </trkpt>
      <trkpt lat="37.6072490774" lon="-6.0164009314">
        <ele>141.93</ele>
        <time>2020-07-09T11:27:30Z</time>
      </trkpt>
      <trkpt lat="37.6073034760" lon="-6.0163818207">
        <ele>142.41</ele>
        <time>2020-07-09T11:27:38Z</time>
      </trkpt>
      <trkpt lat="37.6074163802" lon="-6.0163093172">
        <ele>142.89</ele>
        <time>2020-07-09T11:27:50Z</time>
      </trkpt>
      <trkpt lat="37.6075086650" lon="-6.0162432678">
        <ele>143.85</ele>
        <time>2020-07-09T11:28:01Z</time>
      </trkpt>
      <trkpt lat="37.6075746305" lon="-6.0161872767">
        <ele>144.34</ele>
        <time>2020-07-09T11:28:12Z</time>
      </trkpt>
      <trkpt lat="37.6076425239" lon="-6.0161503125">
        <ele>144.82</ele>
        <time>2020-07-09T11:28:21Z</time>
      </trkpt>
      <trkpt lat="37.6077174582" lon="-6.0161099117">
        <ele>144.82</ele>
        <time>2020-07-09T11:28:31Z</time>
      </trkpt>
      <trkpt lat="37.6077472139" lon="-6.0160754621">
        <ele>145.30</ele>
        <time>2020-07-09T11:28:40Z</time>
      </trkpt>
      <trkpt lat="37.6077815797" lon="-6.0160524119">
        <ele>145.78</ele>
        <time>2020-07-09T11:28:48Z</time>
      </trkpt>
      <trkpt lat="37.6078163646" lon="-6.0160123464">
        <ele>146.26</ele>
        <time>2020-07-09T11:28:55Z</time>
      </trkpt>
      <trkpt lat="37.6078471262" lon="-6.0159690958">
        <ele>146.74</ele>
        <time>2020-07-09T11:29:03Z</time>
      </trkpt>
      <trkpt lat="37.6078619622" lon="-6.0159425251">
        <ele>146.74</ele>
        <time>2020-07-09T11:29:09Z</time>
      </trkpt>
      <trkpt lat="37.6078571845" lon="-6.0159404296">
        <ele>147.22</ele>
        <time>2020-07-09T11:29:14Z</time>
      </trkpt>
      <trkpt lat="37.6078678295" lon="-6.0159255099">
        <ele>147.22</ele>
        <time>2020-07-09T11:29:15Z</time>
      </trkpt>
      <trkpt lat="37.6078788936" lon="-6.0159090813">
        <ele>147.22</ele>
        <time>2020-07-09T11:29:16Z</time>
      </trkpt>
      <trkpt lat="37.6078926399" lon="-6.0158896353">
        <ele>146.74</ele>
        <time>2020-07-09T11:29:17Z</time>
      </trkpt>
      <trkpt lat="37.6079062186" lon="-6.0158712789">
        <ele>146.74</ele>
        <time>2020-07-09T11:29:18Z</time>
      </trkpt>
      <trkpt lat="37.6079203840" lon="-6.0158518329">
        <ele>146.74</ele>
        <time>2020-07-09T11:29:19Z</time>
      </trkpt>
      <trkpt lat="37.6080394071" lon="-6.0157686844">
        <ele>146.26</ele>
        <time>2020-07-09T11:29:26Z</time>
      </trkpt>
      <trkpt lat="37.6081917062" lon="-6.0157372523">
        <ele>146.26</ele>
        <time>2020-07-09T11:29:34Z</time>
      </trkpt>
      <trkpt lat="37.6083202846" lon="-6.0157209914">
        <ele>146.74</ele>
        <time>2020-07-09T11:29:41Z</time>
      </trkpt>
      <trkpt lat="37.6084982324" lon="-6.0156915709">
        <ele>146.74</ele>
        <time>2020-07-09T11:29:50Z</time>
      </trkpt>
      <trkpt lat="37.6085590851" lon="-6.0156276170">
        <ele>147.22</ele>
        <time>2020-07-09T11:29:56Z</time>
      </trkpt>
      <trkpt lat="37.6085741725" lon="-6.0156091768">
        <ele>147.22</ele>
        <time>2020-07-09T11:30:01Z</time>
      </trkpt>
      <trkpt lat="37.6086125616" lon="-6.0155823547">
        <ele>147.70</ele>
        <time>2020-07-09T11:30:08Z</time>
      </trkpt>
      <trkpt lat="37.6086498611" lon="-6.0155464802">
        <ele>148.18</ele>
        <time>2020-07-09T11:30:15Z</time>
      </trkpt>
      <trkpt lat="37.6086926926" lon="-6.0155106056">
        <ele>148.18</ele>
        <time>2020-07-09T11:30:23Z</time>
      </trkpt>
      <trkpt lat="37.6087212749" lon="-6.0154270381">
        <ele>148.66</ele>
        <time>2020-07-09T11:30:31Z</time>
      </trkpt>
      <trkpt lat="37.6088078599" lon="-6.0153990425">
        <ele>148.18</ele>
        <time>2020-07-09T11:30:40Z</time>
      </trkpt>
      <trkpt lat="37.6088677067" lon="-6.0153751541">
        <ele>148.18</ele>
        <time>2020-07-09T11:30:47Z</time>
      </trkpt>
      <trkpt lat="37.6088760886" lon="-6.0153686162">
        <ele>148.66</ele>
        <time>2020-07-09T11:30:48Z</time>
      </trkpt>
      <trkpt lat="37.6088861469" lon="-6.0153638385">
        <ele>148.66</ele>
        <time>2020-07-09T11:30:49Z</time>
      </trkpt>
      <trkpt lat="37.6089657750" lon="-6.0153452307">
        <ele>149.14</ele>
        <time>2020-07-09T11:30:58Z</time>
      </trkpt>
      <trkpt lat="37.6089756656" lon="-6.0153467394">
        <ele>149.14</ele>
        <time>2020-07-09T11:30:59Z</time>
      </trkpt>
      <trkpt lat="37.6090185810" lon="-6.0153516848">
        <ele>148.66</ele>
        <time>2020-07-09T11:31:05Z</time>
      </trkpt>
      <trkpt lat="37.6090283040" lon="-6.0153508466">
        <ele>148.66</ele>
        <time>2020-07-09T11:31:06Z</time>
      </trkpt>
      <trkpt lat="37.6090752427" lon="-6.0153443925">
        <ele>148.66</ele>
        <time>2020-07-09T11:31:14Z</time>
      </trkpt>
      <trkpt lat="37.6091425493" lon="-6.0153393634">
        <ele>149.62</ele>
        <time>2020-07-09T11:31:22Z</time>
      </trkpt>
      <trkpt lat="37.6091725565" lon="-6.0153451469">
        <ele>149.62</ele>
        <time>2020-07-09T11:31:25Z</time>
      </trkpt>
      <trkpt lat="37.6092678588" lon="-6.0153170675">
        <ele>150.10</ele>
        <time>2020-07-09T11:31:35Z</time>
      </trkpt>
      <trkpt lat="37.6093281247" lon="-6.0153151397">
        <ele>151.06</ele>
        <time>2020-07-09T11:31:43Z</time>
      </trkpt>
      <trkpt lat="37.6094460580" lon="-6.0153088532">
        <ele>153.47</ele>
        <time>2020-07-09T11:31:55Z</time>
      </trkpt>
      <trkpt lat="37.6095755585" lon="-6.0152786784">
        <ele>154.43</ele>
        <time>2020-07-09T11:32:08Z</time>
      </trkpt>
      <trkpt lat="37.6096602157" lon="-6.0152595676">
        <ele>153.95</ele>
        <time>2020-07-09T11:32:17Z</time>
      </trkpt>
      <trkpt lat="37.6097246725" lon="-6.0152122099">
        <ele>153.47</ele>
        <time>2020-07-09T11:32:26Z</time>
      </trkpt>
      <trkpt lat="37.6097501535" lon="-6.0151977092">
        <ele>152.51</ele>
        <time>2020-07-09T11:32:35Z</time>
      </trkpt>
      <trkpt lat="37.6097557694" lon="-6.0151879024">
        <ele>152.51</ele>
        <time>2020-07-09T11:32:36Z</time>
      </trkpt>
      <trkpt lat="37.6097610500" lon="-6.0151056759">
        <ele>152.99</ele>
        <time>2020-07-09T11:32:43Z</time>
      </trkpt>
      <trkpt lat="37.6097815856" lon="-6.0150001477">
        <ele>152.51</ele>
        <time>2020-07-09T11:32:51Z</time>
      </trkpt>
      <trkpt lat="37.6097253431" lon="-6.0148922727">
        <ele>152.03</ele>
        <time>2020-07-09T11:33:01Z</time>
      </trkpt>
      <trkpt lat="37.6096939109" lon="-6.0148460884">
        <ele>152.03</ele>
        <time>2020-07-09T11:33:06Z</time>
      </trkpt>
      <trkpt lat="37.6097155362" lon="-6.0147730820">
        <ele>151.54</ele>
        <time>2020-07-09T11:33:13Z</time>
      </trkpt>
      <trkpt lat="37.6097066514" lon="-6.0147667956">
        <ele>151.06</ele>
        <time>2020-07-09T11:33:21Z</time>
      </trkpt>
      <trkpt lat="37.6096972637" lon="-6.0147594195">
        <ele>150.58</ele>
        <time>2020-07-09T11:33:31Z</time>
      </trkpt>
      <trkpt lat="37.6096937433" lon="-6.0147596709">
        <ele>150.58</ele>
        <time>2020-07-09T11:33:52Z</time>
      </trkpt>
      <trkpt lat="37.6096950006" lon="-6.0147593357">
        <ele>149.62</ele>
        <time>2020-07-09T11:34:16Z</time>
      </trkpt>
      <trkpt lat="37.6097014546" lon="-6.0147692263">
        <ele>149.14</ele>
        <time>2020-07-09T11:34:43Z</time>
      </trkpt>
      <trkpt lat="37.6096897200" lon="-6.0147709865">
        <ele>148.66</ele>
        <time>2020-07-09T11:35:08Z</time>
      </trkpt>
      <trkpt lat="37.6097014546" lon="-6.0147678014">
        <ele>149.62</ele>
        <time>2020-07-09T11:35:31Z</time>
      </trkpt>
      <trkpt lat="37.6097106747" lon="-6.0147522110">
        <ele>150.58</ele>
        <time>2020-07-09T11:35:57Z</time>
      </trkpt>
      <trkpt lat="37.6096945815" lon="-6.0147561505">
        <ele>148.18</ele>
        <time>2020-07-09T11:36:18Z</time>
      </trkpt>
      <trkpt lat="37.6096934918" lon="-6.0147535522">
        <ele>147.70</ele>
        <time>2020-07-09T11:36:40Z</time>
      </trkpt>
      <trkpt lat="37.6097012032" lon="-6.0147635266">
        <ele>149.14</ele>
        <time>2020-07-09T11:36:58Z</time>
      </trkpt>
      <trkpt lat="37.6096917316" lon="-6.0147457570">
        <ele>147.22</ele>
        <time>2020-07-09T11:37:23Z</time>
      </trkpt>
      <trkpt lat="37.6096775662" lon="-6.0147522949">
        <ele>147.70</ele>
        <time>2020-07-09T11:37:37Z</time>
      </trkpt>
      <trkpt lat="37.6096718665" lon="-6.0147507861">
        <ele>148.18</ele>
        <time>2020-07-09T11:38:02Z</time>
      </trkpt>
      <trkpt lat="37.6096773986" lon="-6.0147594195">
        <ele>149.14</ele>
        <time>2020-07-09T11:38:22Z</time>
      </trkpt>
      <trkpt lat="37.6096789073" lon="-6.0147523787">
        <ele>151.06</ele>
        <time>2020-07-09T11:38:43Z</time>
      </trkpt>
      <trkpt lat="37.6096869539" lon="-6.0147496127">
        <ele>151.06</ele>
        <time>2020-07-09T11:39:00Z</time>
      </trkpt>
      <trkpt lat="37.6096734591" lon="-6.0147554800">
        <ele>150.10</ele>
        <time>2020-07-09T11:39:25Z</time>
      </trkpt>
      <trkpt lat="37.6096806675" lon="-6.0147735011">
        <ele>148.66</ele>
        <time>2020-07-09T11:39:48Z</time>
      </trkpt>
      <trkpt lat="37.6096773148" lon="-6.0147611797">
        <ele>148.66</ele>
        <time>2020-07-09T11:40:06Z</time>
      </trkpt>
      <trkpt lat="37.6096819248" lon="-6.0147497803">
        <ele>149.62</ele>
        <time>2020-07-09T11:40:27Z</time>
      </trkpt>
      <trkpt lat="37.6096761413" lon="-6.0147543903">
        <ele>149.14</ele>
        <time>2020-07-09T11:40:55Z</time>
      </trkpt>
      <trkpt lat="37.6096781529" lon="-6.0147559829">
        <ele>148.66</ele>
        <time>2020-07-09T11:41:19Z</time>
      </trkpt>
      <trkpt lat="37.6096745487" lon="-6.0147496965">
        <ele>150.10</ele>
        <time>2020-07-09T11:41:27Z</time>
      </trkpt>
      <trkpt lat="37.6096739620" lon="-6.0147604253">
        <ele>151.06</ele>
        <time>2020-07-09T11:41:51Z</time>
      </trkpt>
      <trkpt lat="37.6096782368" lon="-6.0147539712">
        <ele>153.95</ele>
        <time>2020-07-09T11:42:21Z</time>
      </trkpt>
      <trkpt lat="37.6096684299" lon="-6.0147564020">
        <ele>152.99</ele>
        <time>2020-07-09T11:42:47Z</time>
      </trkpt>
      <trkpt lat="37.6096773986" lon="-6.0147570726">
        <ele>152.51</ele>
        <time>2020-07-09T11:43:17Z</time>
      </trkpt>
      <trkpt lat="37.6096806675" lon="-6.0147652868">
        <ele>152.51</ele>
        <time>2020-07-09T11:43:39Z</time>
      </trkpt>
      <trkpt lat="37.6096734591" lon="-6.0147395544">
        <ele>152.03</ele>
        <time>2020-07-09T11:44:03Z</time>
      </trkpt>
      <trkpt lat="37.6096748840" lon="-6.0147544742">
        <ele>151.54</ele>
        <time>2020-07-09T11:44:37Z</time>
      </trkpt>
      <trkpt lat="37.6096767280" lon="-6.0147601739">
        <ele>152.99</ele>
        <time>2020-07-09T11:45:02Z</time>
      </trkpt>
      <trkpt lat="37.6096594613" lon="-6.0147558153">
        <ele>152.51</ele>
        <time>2020-07-09T11:45:27Z</time>
      </trkpt>
      <trkpt lat="37.6096717827" lon="-6.0147575755">
        <ele>151.54</ele>
        <time>2020-07-09T11:45:47Z</time>
      </trkpt>
      <trkpt lat="37.6096577849" lon="-6.0147550609">
        <ele>150.10</ele>
        <time>2020-07-09T11:46:15Z</time>
      </trkpt>
      <trkpt lat="37.6096608024" lon="-6.0147568211">
        <ele>150.58</ele>
        <time>2020-07-09T11:46:39Z</time>
      </trkpt>
      <trkpt lat="37.6096697710" lon="-6.0147556476">
        <ele>152.03</ele>
        <time>2020-07-09T11:46:59Z</time>
      </trkpt>
      <trkpt lat="37.6096716151" lon="-6.0147579946">
        <ele>153.95</ele>
        <time>2020-07-09T11:47:25Z</time>
      </trkpt>
      <trkpt lat="37.6096737105" lon="-6.0147468466">
        <ele>154.43</ele>
        <time>2020-07-09T11:47:47Z</time>
      </trkpt>
      <trkpt lat="37.6096668374" lon="-6.0147480201">
        <ele>152.99</ele>
        <time>2020-07-09T11:48:08Z</time>
      </trkpt>
      <trkpt lat="37.6096704416" lon="-6.0147381295">
        <ele>151.54</ele>
        <time>2020-07-09T11:48:30Z</time>
      </trkpt>
      <trkpt lat="37.6096727047" lon="-6.0147380456">
        <ele>150.10</ele>
        <time>2020-07-09T11:48:54Z</time>
      </trkpt>
      <trkpt lat="37.6096780691" lon="-6.0147549771">
        <ele>151.06</ele>
        <time>2020-07-09T11:49:19Z</time>
      </trkpt>
      <trkpt lat="37.6096755546" lon="-6.0147503670">
        <ele>151.54</ele>
        <time>2020-07-09T11:49:37Z</time>
      </trkpt>
      <trkpt lat="37.6096804999" lon="-6.0147496127">
        <ele>149.14</ele>
        <time>2020-07-09T11:50:00Z</time>
      </trkpt>
      <trkpt lat="37.6096803322" lon="-6.0147600900">
        <ele>150.10</ele>
        <time>2020-07-09T11:50:20Z</time>
      </trkpt>
      <trkpt lat="37.6096782368" lon="-6.0147490259">
        <ele>152.03</ele>
        <time>2020-07-09T11:50:44Z</time>
      </trkpt>
      <trkpt lat="37.6096686814" lon="-6.0147657897">
        <ele>152.99</ele>
        <time>2020-07-09T11:51:06Z</time>
      </trkpt>
      <trkpt lat="37.6096695196" lon="-6.0147594195">
        <ele>152.51</ele>
        <time>2020-07-09T11:51:27Z</time>
      </trkpt>
      <trkpt lat="37.6096605510" lon="-6.0147582460">
        <ele>151.54</ele>
        <time>2020-07-09T11:51:50Z</time>
      </trkpt>
      <trkpt lat="37.6096588746" lon="-6.0147708189">
        <ele>151.54</ele>
        <time>2020-07-09T11:52:08Z</time>
      </trkpt>
      <trkpt lat="37.6096634008" lon="-6.0147722438">
        <ele>152.51</ele>
        <time>2020-07-09T11:52:29Z</time>
      </trkpt>
      <trkpt lat="37.6096670050" lon="-6.0147477686">
        <ele>151.06</ele>
        <time>2020-07-09T11:52:47Z</time>
      </trkpt>
      <trkpt lat="37.6096714474" lon="-6.0147527140">
        <ele>151.54</ele>
        <time>2020-07-09T11:53:08Z</time>
      </trkpt>
      <trkpt lat="37.6096675079" lon="-6.0147574916">
        <ele>152.03</ele>
        <time>2020-07-09T11:53:28Z</time>
      </trkpt>
      <trkpt lat="37.6096779853" lon="-6.0147666279">
        <ele>152.03</ele>
        <time>2020-07-09T11:53:49Z</time>
      </trkpt>
      <trkpt lat="37.6096765604" lon="-6.0147667117">
        <ele>152.99</ele>
        <time>2020-07-09T11:54:10Z</time>
      </trkpt>
      <trkpt lat="37.6096847747" lon="-6.0147578269">
        <ele>152.03</ele>
        <time>2020-07-09T11:54:34Z</time>
      </trkpt>
      <trkpt lat="37.6096798293" lon="-6.0147510376">
        <ele>152.99</ele>
        <time>2020-07-09T11:55:00Z</time>
      </trkpt>
      <trkpt lat="37.6096678432" lon="-6.0147568211">
        <ele>152.51</ele>
        <time>2020-07-09T11:55:28Z</time>
      </trkpt>
      <trkpt lat="37.6096618082" lon="-6.0147464275">
        <ele>151.06</ele>
        <time>2020-07-09T11:55:57Z</time>
      </trkpt>
      <trkpt lat="37.6096815057" lon="-6.0147612635">
        <ele>151.54</ele>
        <time>2020-07-09T11:56:20Z</time>
      </trkpt>
      <trkpt lat="37.6096796617" lon="-6.0147709865">
        <ele>153.95</ele>
        <time>2020-07-09T11:56:52Z</time>
      </trkpt>
      <trkpt lat="37.6096748840" lon="-6.0147631075">
        <ele>152.99</ele>
        <time>2020-07-09T11:57:17Z</time>
      </trkpt>
      <trkpt lat="37.6096757222" lon="-6.0147619341">
        <ele>151.54</ele>
        <time>2020-07-09T11:57:45Z</time>
      </trkpt>
      <trkpt lat="37.6096623950" lon="-6.0147650354">
        <ele>153.47</ele>
        <time>2020-07-09T11:58:14Z</time>
      </trkpt>
      <trkpt lat="37.6096711960" lon="-6.0147562344">
        <ele>151.54</ele>
        <time>2020-07-09T11:58:44Z</time>
      </trkpt>
      <trkpt lat="37.6096743811" lon="-6.0147635266">
        <ele>151.06</ele>
        <time>2020-07-09T11:59:12Z</time>
      </trkpt>
      <trkpt lat="37.6096765604" lon="-6.0147557314">
        <ele>151.54</ele>
        <time>2020-07-09T11:59:37Z</time>
      </trkpt>
      <trkpt lat="37.6096706931" lon="-6.0147460923">
        <ele>151.54</ele>
        <time>2020-07-09T12:00:06Z</time>
      </trkpt>
      <trkpt lat="37.6096690167" lon="-6.0147536360">
        <ele>149.62</ele>
        <time>2020-07-09T12:00:38Z</time>
      </trkpt>
      <trkpt lat="37.6096713636" lon="-6.0147560667">
        <ele>151.06</ele>
        <time>2020-07-09T12:00:59Z</time>
      </trkpt>
      <trkpt lat="37.6096647419" lon="-6.0147490259">
        <ele>150.10</ele>
        <time>2020-07-09T12:01:24Z</time>
      </trkpt>
      <trkpt lat="37.6096755546" lon="-6.0147548933">
        <ele>150.58</ele>
        <time>2020-07-09T12:01:51Z</time>
      </trkpt>
      <trkpt lat="37.6096791588" lon="-6.0147690587">
        <ele>151.06</ele>
        <time>2020-07-09T12:02:23Z</time>
      </trkpt>
      <trkpt lat="37.6096771471" lon="-6.0147615988">
        <ele>152.99</ele>
        <time>2020-07-09T12:02:48Z</time>
      </trkpt>
      <trkpt lat="37.6096782368" lon="-6.0147610120">
        <ele>152.99</ele>
        <time>2020-07-09T12:03:17Z</time>
      </trkpt>
      <trkpt lat="37.6096690167" lon="-6.0147529654">
        <ele>149.62</ele>
        <time>2020-07-09T12:03:47Z</time>
      </trkpt>
      <trkpt lat="37.6096856967" lon="-6.0147387162">
        <ele>147.70</ele>
        <time>2020-07-09T12:04:11Z</time>
      </trkpt>
      <trkpt lat="37.6096745487" lon="-6.0147415660">
        <ele>148.66</ele>
        <time>2020-07-09T12:04:35Z</time>
      </trkpt>
      <trkpt lat="37.6096657477" lon="-6.0147532169">
        <ele>150.10</ele>
        <time>2020-07-09T12:05:05Z</time>
      </trkpt>
      <trkpt lat="37.6096787397" lon="-6.0147564858">
        <ele>149.14</ele>
        <time>2020-07-09T12:05:29Z</time>
      </trkpt>
      <trkpt lat="37.6096697710" lon="-6.0147664603">
        <ele>150.10</ele>
        <time>2020-07-09T12:05:57Z</time>
      </trkpt>
      <trkpt lat="37.6096578687" lon="-6.0147677176">
        <ele>150.58</ele>
        <time>2020-07-09T12:06:19Z</time>
      </trkpt>
      <trkpt lat="37.6096746325" lon="-6.0147483554">
        <ele>148.66</ele>
        <time>2020-07-09T12:06:42Z</time>
      </trkpt>
      <trkpt lat="37.6096756384" lon="-6.0147514567">
        <ele>151.06</ele>
        <time>2020-07-09T12:07:00Z</time>
      </trkpt>
      <trkpt lat="37.6096766442" lon="-6.0147586651">
        <ele>149.62</ele>
        <time>2020-07-09T12:07:26Z</time>
      </trkpt>
      <trkpt lat="37.6096772309" lon="-6.0147611797">
        <ele>150.58</ele>
        <time>2020-07-09T12:07:47Z</time>
      </trkpt>
      <trkpt lat="37.6096706092" lon="-6.0147608444">
        <ele>151.06</ele>
        <time>2020-07-09T12:08:12Z</time>
      </trkpt>
      <trkpt lat="37.6096697710" lon="-6.0147428233">
        <ele>149.14</ele>
        <time>2020-07-09T12:08:33Z</time>
      </trkpt>
      <trkpt lat="37.6096605510" lon="-6.0147496965">
        <ele>150.10</ele>
        <time>2020-07-09T12:08:58Z</time>
      </trkpt>
      <trkpt lat="37.6096640714" lon="-6.0147567373">
        <ele>149.14</ele>
        <time>2020-07-09T12:09:25Z</time>
      </trkpt>
      <trkpt lat="37.6096659154" lon="-6.0147537198">
        <ele>149.62</ele>
        <time>2020-07-09T12:09:45Z</time>
      </trkpt>
      <trkpt lat="37.6096602995" lon="-6.0147471819">
        <ele>151.06</ele>
        <time>2020-07-09T12:10:12Z</time>
      </trkpt>
      <trkpt lat="37.6096667536" lon="-6.0147413146">
        <ele>148.18</ele>
        <time>2020-07-09T12:10:34Z</time>
      </trkpt>
      <trkpt lat="37.6096478943" lon="-6.0147429910">
        <ele>149.62</ele>
        <time>2020-07-09T12:11:06Z</time>
      </trkpt>
      <trkpt lat="37.6096528396" lon="-6.0147402249">
        <ele>149.62</ele>
        <time>2020-07-09T12:11:32Z</time>
      </trkpt>
      <trkpt lat="37.6096586231" lon="-6.0147544742">
        <ele>150.58</ele>
        <time>2020-07-09T12:11:58Z</time>
      </trkpt>
      <trkpt lat="37.6096733753" lon="-6.0147485230">
        <ele>151.06</ele>
        <time>2020-07-09T12:12:25Z</time>
      </trkpt>
      <trkpt lat="37.6096634846" lon="-6.0147460923">
        <ele>151.06</ele>
        <time>2020-07-09T12:12:46Z</time>
      </trkpt>
      <trkpt lat="37.6096758060" lon="-6.0147517081">
        <ele>151.54</ele>
        <time>2020-07-09T12:13:11Z</time>
      </trkpt>
      <trkpt lat="37.6096716989" lon="-6.0147560667">
        <ele>150.58</ele>
        <time>2020-07-09T12:13:32Z</time>
      </trkpt>
      <trkpt lat="37.6096744649" lon="-6.0147521272">
        <ele>149.14</ele>
        <time>2020-07-09T12:13:55Z</time>
      </trkpt>
      <trkpt lat="37.6096746325" lon="-6.0147537198">
        <ele>150.58</ele>
        <time>2020-07-09T12:14:23Z</time>
      </trkpt>
      <trkpt lat="37.6096749678" lon="-6.0147595871">
        <ele>152.03</ele>
        <time>2020-07-09T12:14:40Z</time>
      </trkpt>
      <trkpt lat="37.6096685138" lon="-6.0147621017">
        <ele>152.03</ele>
        <time>2020-07-09T12:15:04Z</time>
      </trkpt>
      <trkpt lat="37.6096706931" lon="-6.0147594195">
        <ele>152.51</ele>
        <time>2020-07-09T12:15:29Z</time>
      </trkpt>
      <trkpt lat="37.6096644066" lon="-6.0147633590">
        <ele>151.54</ele>
        <time>2020-07-09T12:15:51Z</time>
      </trkpt>
      <trkpt lat="37.6096644904" lon="-6.0147606768">
        <ele>153.47</ele>
        <time>2020-07-09T12:16:22Z</time>
      </trkpt>
      <trkpt lat="37.6096697710" lon="-6.0147598386">
        <ele>153.47</ele>
        <time>2020-07-09T12:16:44Z</time>
      </trkpt>
      <trkpt lat="37.6096723694" lon="-6.0147572402">
        <ele>150.58</ele>
        <time>2020-07-09T12:17:12Z</time>
      </trkpt>
      <trkpt lat="37.6096772309" lon="-6.0147530492">
        <ele>151.54</ele>
        <time>2020-07-09T12:17:40Z</time>
      </trkpt>
      <trkpt lat="37.6096702740" lon="-6.0147669632">
        <ele>153.47</ele>
        <time>2020-07-09T12:18:01Z</time>
      </trkpt>
      <trkpt lat="37.6096720342" lon="-6.0147624370">
        <ele>154.43</ele>
        <time>2020-07-09T12:18:23Z</time>
      </trkpt>
      <trkpt lat="37.6096665021" lon="-6.0147578269">
        <ele>152.51</ele>
        <time>2020-07-09T12:18:53Z</time>
      </trkpt>
      <trkpt lat="37.6096635684" lon="-6.0147461761">
        <ele>152.51</ele>
        <time>2020-07-09T12:19:21Z</time>
      </trkpt>
      <trkpt lat="37.6096604671" lon="-6.0147471819">
        <ele>151.54</ele>
        <time>2020-07-09T12:19:42Z</time>
      </trkpt>
      <trkpt lat="37.6096869539" lon="-6.0147608444">
        <ele>151.06</ele>
        <time>2020-07-09T12:20:09Z</time>
      </trkpt>
      <trkpt lat="37.6096778177" lon="-6.0147512890">
        <ele>150.58</ele>
        <time>2020-07-09T12:20:37Z</time>
      </trkpt>
      <trkpt lat="37.6096821763" lon="-6.0147522110">
        <ele>150.58</ele>
        <time>2020-07-09T12:21:09Z</time>
      </trkpt>
      <trkpt lat="37.6096759737" lon="-6.0147499479">
        <ele>150.10</ele>
        <time>2020-07-09T12:21:35Z</time>
      </trkpt>
      <trkpt lat="37.6096716989" lon="-6.0147556476">
        <ele>150.58</ele>
        <time>2020-07-09T12:21:56Z</time>
      </trkpt>
      <trkpt lat="37.6096814219" lon="-6.0147547256">
        <ele>151.54</ele>
        <time>2020-07-09T12:22:22Z</time>
      </trkpt>
      <trkpt lat="37.6096685976" lon="-6.0147531331">
        <ele>152.51</ele>
        <time>2020-07-09T12:22:47Z</time>
      </trkpt>
      <trkpt lat="37.6096799970" lon="-6.0147627722">
        <ele>152.03</ele>
        <time>2020-07-09T12:23:12Z</time>
      </trkpt>
      <trkpt lat="37.6096779853" lon="-6.0147522949">
        <ele>151.06</ele>
        <time>2020-07-09T12:23:42Z</time>
      </trkpt>
      <trkpt lat="37.6096755546" lon="-6.0147407278">
        <ele>151.06</ele>
        <time>2020-07-09T12:23:57Z</time>
      </trkpt>
      <trkpt lat="37.6096659154" lon="-6.0147423204">
        <ele>151.06</ele>
        <time>2020-07-09T12:24:24Z</time>
      </trkpt>
      <trkpt lat="37.6096703578" lon="-6.0147393029">
        <ele>150.10</ele>
        <time>2020-07-09T12:24:50Z</time>
      </trkpt>
      <trkpt lat="37.6096735429" lon="-6.0147393867">
        <ele>150.10</ele>
        <time>2020-07-09T12:25:15Z</time>
      </trkpt>
      <trkpt lat="37.6096642390" lon="-6.0147385485">
        <ele>150.10</ele>
        <time>2020-07-09T12:25:39Z</time>
      </trkpt>
      <trkpt lat="37.6096607186" lon="-6.0147330165">
        <ele>149.62</ele>
        <time>2020-07-09T12:26:05Z</time>
      </trkpt>
      <trkpt lat="37.6096708607" lon="-6.0147404764">
        <ele>150.10</ele>
        <time>2020-07-09T12:26:34Z</time>
      </trkpt>
      <trkpt lat="37.6096580364" lon="-6.0147538036">
        <ele>151.06</ele>
        <time>2020-07-09T12:26:56Z</time>
      </trkpt>
      <trkpt lat="37.6096700225" lon="-6.0147520434">
        <ele>149.62</ele>
        <time>2020-07-09T12:27:21Z</time>
      </trkpt>
      <trkpt lat="37.6096733753" lon="-6.0147406440">
        <ele>148.66</ele>
        <time>2020-07-09T12:27:48Z</time>
      </trkpt>
      <trkpt lat="37.6096597128" lon="-6.0147460084">
        <ele>150.58</ele>
        <time>2020-07-09T12:28:14Z</time>
      </trkpt>
      <trkpt lat="37.6096651610" lon="-6.0147455055">
        <ele>151.06</ele>
        <time>2020-07-09T12:28:37Z</time>
      </trkpt>
      <trkpt lat="37.6096676756" lon="-6.0147479363">
        <ele>149.62</ele>
        <time>2020-07-09T12:29:01Z</time>
      </trkpt>
      <trkpt lat="37.6096700225" lon="-6.0147419013">
        <ele>151.06</ele>
        <time>2020-07-09T12:29:28Z</time>
      </trkpt>
      <trkpt lat="37.6096714474" lon="-6.0147564020">
        <ele>150.10</ele>
        <time>2020-07-09T12:29:52Z</time>
      </trkpt>
      <trkpt lat="37.6096755546" lon="-6.0147507023">
        <ele>148.66</ele>
        <time>2020-07-09T12:30:14Z</time>
      </trkpt>
      <trkpt lat="37.6096597128" lon="-6.0147556476">
        <ele>150.58</ele>
        <time>2020-07-09T12:30:41Z</time>
      </trkpt>
      <trkpt lat="37.6096753031" lon="-6.0147543065">
        <ele>151.54</ele>
        <time>2020-07-09T12:31:10Z</time>
      </trkpt>
      <trkpt lat="37.6096636523" lon="-6.0147471819">
        <ele>150.58</ele>
        <time>2020-07-09T12:31:33Z</time>
      </trkpt>
      <trkpt lat="37.6096641552" lon="-6.0147419851">
        <ele>149.62</ele>
        <time>2020-07-09T12:31:53Z</time>
      </trkpt>
      <trkpt lat="37.6096689329" lon="-6.0147592518">
        <ele>149.62</ele>
        <time>2020-07-09T12:32:19Z</time>
      </trkpt>
      <trkpt lat="37.6096685138" lon="-6.0147551447">
        <ele>148.66</ele>
        <time>2020-07-09T12:32:40Z</time>
      </trkpt>
      <trkpt lat="37.6096786559" lon="-6.0147541389">
        <ele>150.10</ele>
        <time>2020-07-09T12:32:59Z</time>
      </trkpt>
      <trkpt lat="37.6096698549" lon="-6.0147607606">
        <ele>148.18</ele>
        <time>2020-07-09T12:33:18Z</time>
      </trkpt>
      <trkpt lat="37.6096693520" lon="-6.0147634428">
        <ele>149.14</ele>
        <time>2020-07-09T12:33:45Z</time>
      </trkpt>
      <trkpt lat="37.6096771471" lon="-6.0147605091">
        <ele>148.66</ele>
        <time>2020-07-09T12:34:01Z</time>
      </trkpt>
      <trkpt lat="37.6096665859" lon="-6.0147590842">
        <ele>149.14</ele>
        <time>2020-07-09T12:34:20Z</time>
      </trkpt>
      <trkpt lat="37.6096874569" lon="-6.0147522949">
        <ele>149.14</ele>
        <time>2020-07-09T12:34:46Z</time>
      </trkpt>
      <trkpt lat="37.6096748002" lon="-6.0147521272">
        <ele>148.66</ele>
        <time>2020-07-09T12:35:09Z</time>
      </trkpt>
      <trkpt lat="37.6096738782" lon="-6.0147533845">
        <ele>148.18</ele>
        <time>2020-07-09T12:35:32Z</time>
      </trkpt>
      <trkpt lat="37.6096744649" lon="-6.0147490259">
        <ele>146.26</ele>
        <time>2020-07-09T12:35:58Z</time>
      </trkpt>
      <trkpt lat="37.6096682623" lon="-6.0147561505">
        <ele>146.74</ele>
        <time>2020-07-09T12:36:22Z</time>
      </trkpt>
      <trkpt lat="37.6096755546" lon="-6.0147480201">
        <ele>145.78</ele>
        <time>2020-07-09T12:36:44Z</time>
      </trkpt>
      <trkpt lat="37.6096761413" lon="-6.0147388838">
        <ele>147.22</ele>
        <time>2020-07-09T12:37:08Z</time>
      </trkpt>
      <trkpt lat="37.6096743811" lon="-6.0147391353">
        <ele>147.22</ele>
        <time>2020-07-09T12:37:29Z</time>
      </trkpt>
      <trkpt lat="37.6096658316" lon="-6.0147522949">
        <ele>148.18</ele>
        <time>2020-07-09T12:37:52Z</time>
      </trkpt>
      <trkpt lat="37.6096658316" lon="-6.0147366207">
        <ele>146.26</ele>
        <time>2020-07-09T12:38:17Z</time>
      </trkpt>
      <trkpt lat="37.6096726209" lon="-6.0147444997">
        <ele>147.22</ele>
        <time>2020-07-09T12:38:37Z</time>
      </trkpt>
      <trkpt lat="37.6096711960" lon="-6.0147292446">
        <ele>147.70</ele>
        <time>2020-07-09T12:39:00Z</time>
      </trkpt>
      <trkpt lat="37.6096647419" lon="-6.0147258081">
        <ele>147.70</ele>
        <time>2020-07-09T12:39:18Z</time>
      </trkpt>
      <trkpt lat="37.6096701901" lon="-6.0147237126">
        <ele>147.70</ele>
        <time>2020-07-09T12:39:39Z</time>
      </trkpt>
      <trkpt lat="37.6096689329" lon="-6.0147352796">
        <ele>147.22</ele>
        <time>2020-07-09T12:40:01Z</time>
      </trkpt>
      <trkpt lat="37.6096671727" lon="-6.0147494450">
        <ele>148.18</ele>
        <time>2020-07-09T12:40:23Z</time>
      </trkpt>
      <trkpt lat="37.6096634008" lon="-6.0147355311">
        <ele>148.18</ele>
        <time>2020-07-09T12:40:50Z</time>
      </trkpt>
      <trkpt lat="37.6096565276" lon="-6.0147526301">
        <ele>148.66</ele>
        <time>2020-07-09T12:41:16Z</time>
      </trkpt>
      <trkpt lat="37.6096599642" lon="-6.0147538874">
        <ele>149.62</ele>
        <time>2020-07-09T12:41:37Z</time>
      </trkpt>
      <trkpt lat="37.6096750516" lon="-6.0147385485">
        <ele>150.10</ele>
        <time>2020-07-09T12:42:04Z</time>
      </trkpt>
      <trkpt lat="37.6096745487" lon="-6.0147388000">
        <ele>149.62</ele>
        <time>2020-07-09T12:42:24Z</time>
      </trkpt>
      <trkpt lat="37.6096797455" lon="-6.0147372074">
        <ele>149.14</ele>
        <time>2020-07-09T12:42:52Z</time>
      </trkpt>
      <trkpt lat="37.6096789911" lon="-6.0147476010">
        <ele>149.14</ele>
        <time>2020-07-09T12:43:14Z</time>
      </trkpt>
      <trkpt lat="37.6096712798" lon="-6.0147327650">
        <ele>149.14</ele>
        <time>2020-07-09T12:43:43Z</time>
      </trkpt>
      <trkpt lat="37.6096786559" lon="-6.0147417337">
        <ele>150.10</ele>
        <time>2020-07-09T12:44:05Z</time>
      </trkpt>
      <trkpt lat="37.6096681785" lon="-6.0147548094">
        <ele>149.62</ele>
        <time>2020-07-09T12:44:32Z</time>
      </trkpt>
      <trkpt lat="37.6096738782" lon="-6.0147621855">
        <ele>148.66</ele>
        <time>2020-07-09T12:44:59Z</time>
      </trkpt>
      <trkpt lat="37.6096742973" lon="-6.0147530492">
        <ele>151.06</ele>
        <time>2020-07-09T12:45:22Z</time>
      </trkpt>
      <trkpt lat="37.6096777339" lon="-6.0147456732">
        <ele>149.14</ele>
        <time>2020-07-09T12:45:55Z</time>
      </trkpt>
      <trkpt lat="37.6096799970" lon="-6.0147453379">
        <ele>149.62</ele>
        <time>2020-07-09T12:46:21Z</time>
      </trkpt>
      <trkpt lat="37.6096732076" lon="-6.0147491097">
        <ele>149.14</ele>
        <time>2020-07-09T12:46:44Z</time>
      </trkpt>
      <trkpt lat="37.6096705254" lon="-6.0147460084">
        <ele>149.14</ele>
        <time>2020-07-09T12:47:11Z</time>
      </trkpt>
      <trkpt lat="37.6096794941" lon="-6.0147408955">
        <ele>148.66</ele>
        <time>2020-07-09T12:47:39Z</time>
      </trkpt>
      <trkpt lat="37.6096819248" lon="-6.0147361178">
        <ele>149.14</ele>
        <time>2020-07-09T12:48:01Z</time>
      </trkpt>
      <trkpt lat="37.6096724533" lon="-6.0147312563">
        <ele>149.62</ele>
        <time>2020-07-09T12:48:29Z</time>
      </trkpt>
      <trkpt lat="37.6096711121" lon="-6.0147437453">
        <ele>148.66</ele>
        <time>2020-07-09T12:48:56Z</time>
      </trkpt>
      <trkpt lat="37.6096782368" lon="-6.0147370398">
        <ele>148.66</ele>
        <time>2020-07-09T12:49:19Z</time>
      </trkpt>
      <trkpt lat="37.6096713636" lon="-6.0147509538">
        <ele>148.18</ele>
        <time>2020-07-09T12:49:43Z</time>
      </trkpt>
      <trkpt lat="37.6096680108" lon="-6.0147555638">
        <ele>148.18</ele>
        <time>2020-07-09T12:50:10Z</time>
      </trkpt>
      <trkpt lat="37.6096700225" lon="-6.0147454217">
        <ele>148.66</ele>
        <time>2020-07-09T12:50:35Z</time>
      </trkpt>
      <trkpt lat="37.6096680108" lon="-6.0147487745">
        <ele>148.18</ele>
        <time>2020-07-09T12:50:56Z</time>
      </trkpt>
      <trkpt lat="37.6096670050" lon="-6.0147470981">
        <ele>149.14</ele>
        <time>2020-07-09T12:51:17Z</time>
      </trkpt>
      <trkpt lat="37.6096587908" lon="-6.0147471819">
        <ele>148.66</ele>
        <time>2020-07-09T12:51:43Z</time>
      </trkpt>
      <trkpt lat="37.6096681785" lon="-6.0147511214">
        <ele>148.66</ele>
        <time>2020-07-09T12:52:04Z</time>
      </trkpt>
      <trkpt lat="37.6096706092" lon="-6.0147282388">
        <ele>148.18</ele>
        <time>2020-07-09T12:52:26Z</time>
      </trkpt>
      <trkpt lat="37.6096687652" lon="-6.0147393029">
        <ele>148.66</ele>
        <time>2020-07-09T12:52:44Z</time>
      </trkpt>
      <trkpt lat="37.6096795779" lon="-6.0147412308">
        <ele>147.22</ele>
        <time>2020-07-09T12:53:06Z</time>
      </trkpt>
      <trkpt lat="37.6096834335" lon="-6.0147348605">
        <ele>147.70</ele>
        <time>2020-07-09T12:53:24Z</time>
      </trkpt>
      <trkpt lat="37.6096863672" lon="-6.0147341061">
        <ele>147.22</ele>
        <time>2020-07-09T12:53:38Z</time>
      </trkpt>
      <trkpt lat="37.6096798293" lon="-6.0147345252">
        <ele>148.18</ele>
        <time>2020-07-09T12:53:56Z</time>
      </trkpt>
      <trkpt lat="37.6096770633" lon="-6.0147290770">
        <ele>148.66</ele>
        <time>2020-07-09T12:54:11Z</time>
      </trkpt>
      <trkpt lat="37.6096842717" lon="-6.0147351120">
        <ele>150.10</ele>
        <time>2020-07-09T12:54:33Z</time>
      </trkpt>
      <trkpt lat="37.6096891332" lon="-6.0147470981">
        <ele>147.70</ele>
        <time>2020-07-09T12:54:55Z</time>
      </trkpt>
      <trkpt lat="37.6096870378" lon="-6.0147561505">
        <ele>146.26</ele>
        <time>2020-07-09T12:55:18Z</time>
      </trkpt>
      <trkpt lat="37.6096831821" lon="-6.0147433262">
        <ele>149.62</ele>
        <time>2020-07-09T12:55:47Z</time>
      </trkpt>
      <trkpt lat="37.6096673403" lon="-6.0147294123">
        <ele>149.62</ele>
        <time>2020-07-09T12:56:16Z</time>
      </trkpt>
      <trkpt lat="37.6096896362" lon="-6.0147475172">
        <ele>149.14</ele>
        <time>2020-07-09T12:56:48Z</time>
      </trkpt>
      <trkpt lat="37.6096882112" lon="-6.0147408117">
        <ele>148.18</ele>
        <time>2020-07-09T12:57:19Z</time>
      </trkpt>
      <trkpt lat="37.6096863672" lon="-6.0147354472">
        <ele>147.70</ele>
        <time>2020-07-09T12:57:42Z</time>
      </trkpt>
      <trkpt lat="37.6096910611" lon="-6.0147403926">
        <ele>149.14</ele>
        <time>2020-07-09T12:58:08Z</time>
      </trkpt>
      <trkpt lat="37.6096886303" lon="-6.0147352796">
        <ele>150.58</ele>
        <time>2020-07-09T12:58:32Z</time>
      </trkpt>
      <trkpt lat="37.6096720342" lon="-6.0147329327">
        <ele>149.14</ele>
        <time>2020-07-09T12:58:57Z</time>
      </trkpt>
      <trkpt lat="37.6096799131" lon="-6.0147399735">
        <ele>149.62</ele>
        <time>2020-07-09T12:59:20Z</time>
      </trkpt>
      <trkpt lat="37.6096964255" lon="-6.0147373751">
        <ele>149.14</ele>
        <time>2020-07-09T12:59:40Z</time>
      </trkpt>
      <trkpt lat="37.6096856967" lon="-6.0147512052">
        <ele>148.18</ele>
        <time>2020-07-09T13:00:07Z</time>
      </trkpt>
      <trkpt lat="37.6096813381" lon="-6.0147364531">
        <ele>148.66</ele>
        <time>2020-07-09T13:00:28Z</time>
      </trkpt>
      <trkpt lat="37.6096811704" lon="-6.0147444159">
        <ele>148.66</ele>
        <time>2020-07-09T13:00:53Z</time>
      </trkpt>
      <trkpt lat="37.6096990239" lon="-6.0147595033">
        <ele>148.66</ele>
        <time>2020-07-09T13:00:59Z</time>
      </trkpt>
      <trkpt lat="37.6096830983" lon="-6.0148364492">
        <ele>147.70</ele>
        <time>2020-07-09T13:01:06Z</time>
      </trkpt>
      <trkpt lat="37.6096904743" lon="-6.0148675460">
        <ele>148.18</ele>
        <time>2020-07-09T13:01:10Z</time>
      </trkpt>
      <trkpt lat="37.6097690966" lon="-6.0149677098">
        <ele>149.14</ele>
        <time>2020-07-09T13:01:22Z</time>
      </trkpt>
      <trkpt lat="37.6097850222" lon="-6.0149908438">
        <ele>149.62</ele>
        <time>2020-07-09T13:01:25Z</time>
      </trkpt>
      <trkpt lat="37.6097872853" lon="-6.0150160734">
        <ele>150.10</ele>
        <time>2020-07-09T13:01:27Z</time>
      </trkpt>
      <trkpt lat="37.6097617205" lon="-6.0151594039">
        <ele>151.06</ele>
        <time>2020-07-09T13:01:39Z</time>
      </trkpt>
      <trkpt lat="37.6097543444" lon="-6.0151773412">
        <ele>151.06</ele>
        <time>2020-07-09T13:01:41Z</time>
      </trkpt>
      <trkpt lat="37.6097415201" lon="-6.0151995532">
        <ele>150.58</ele>
        <time>2020-07-09T13:01:43Z</time>
      </trkpt>
      <trkpt lat="37.6096897200" lon="-6.0152902454">
        <ele>152.03</ele>
        <time>2020-07-09T13:01:53Z</time>
      </trkpt>
      <trkpt lat="37.6096960064" lon="-6.0153127089">
        <ele>152.03</ele>
        <time>2020-07-09T13:01:55Z</time>
      </trkpt>
      <trkpt lat="37.6097266842" lon="-6.0153508466">
        <ele>151.54</ele>
        <time>2020-07-09T13:02:05Z</time>
      </trkpt>
      <trkpt lat="37.6097400952" lon="-6.0153596476">
        <ele>151.54</ele>
        <time>2020-07-09T13:02:09Z</time>
      </trkpt>
      <trkpt lat="37.6098939031" lon="-6.0153728910">
        <ele>152.99</ele>
        <time>2020-07-09T13:02:18Z</time>
      </trkpt>
      <trkpt lat="37.6100525726" lon="-6.0153622460">
        <ele>153.95</ele>
        <time>2020-07-09T13:02:26Z</time>
      </trkpt>
      <trkpt lat="37.6101847552" lon="-6.0153772496">
        <ele>154.43</ele>
        <time>2020-07-09T13:02:33Z</time>
      </trkpt>
      <trkpt lat="37.6103814784" lon="-6.0154300556">
        <ele>153.95</ele>
        <time>2020-07-09T13:02:41Z</time>
      </trkpt>
      <trkpt lat="37.6105551515" lon="-6.0154645890">
        <ele>154.43</ele>
        <time>2020-07-09T13:02:49Z</time>
      </trkpt>
      <trkpt lat="37.6106968056" lon="-6.0153902415">
        <ele>154.91</ele>
        <time>2020-07-09T13:02:55Z</time>
      </trkpt>
      <trkpt lat="37.6108516194" lon="-6.0153650958">
        <ele>154.91</ele>
        <time>2020-07-09T13:03:03Z</time>
      </trkpt>
      <trkpt lat="37.6109097898" lon="-6.0153634194">
        <ele>154.91</ele>
        <time>2020-07-09T13:03:06Z</time>
      </trkpt>
      <trkpt lat="37.6109281462" lon="-6.0153720528">
        <ele>154.91</ele>
        <time>2020-07-09T13:03:07Z</time>
      </trkpt>
      <trkpt lat="37.6109456643" lon="-6.0153787583">
        <ele>154.91</ele>
        <time>2020-07-09T13:03:08Z</time>
      </trkpt>
      <trkpt lat="37.6109642722" lon="-6.0153834522">
        <ele>154.91</ele>
        <time>2020-07-09T13:03:09Z</time>
      </trkpt>
      <trkpt lat="37.6109828800" lon="-6.0153870564">
        <ele>154.91</ele>
        <time>2020-07-09T13:03:10Z</time>
      </trkpt>
      <trkpt lat="37.6109972969" lon="-6.0153909121">
        <ele>154.91</ele>
        <time>2020-07-09T13:03:11Z</time>
      </trkpt>
      <trkpt lat="37.6110121328" lon="-6.0153936781">
        <ele>154.91</ele>
        <time>2020-07-09T13:03:12Z</time>
      </trkpt>
      <trkpt lat="37.6110293996" lon="-6.0153985396">
        <ele>154.91</ele>
        <time>2020-07-09T13:03:13Z</time>
      </trkpt>
      <trkpt lat="37.6110490970" lon="-6.0154040717">
        <ele>154.91</ele>
        <time>2020-07-09T13:03:14Z</time>
      </trkpt>
      <trkpt lat="37.6110713091" lon="-6.0154071730">
        <ele>154.91</ele>
        <time>2020-07-09T13:03:15Z</time>
      </trkpt>
      <trkpt lat="37.6110952813" lon="-6.0154092684">
        <ele>154.91</ele>
        <time>2020-07-09T13:03:16Z</time>
      </trkpt>
      <trkpt lat="37.6112524420" lon="-6.0154556204">
        <ele>154.43</ele>
        <time>2020-07-09T13:03:23Z</time>
      </trkpt>
      <trkpt lat="37.6113943476" lon="-6.0155006312">
        <ele>154.91</ele>
        <time>2020-07-09T13:03:30Z</time>
      </trkpt>
      <trkpt lat="37.6115939207" lon="-6.0155446362">
        <ele>154.91</ele>
        <time>2020-07-09T13:03:39Z</time>
      </trkpt>
      <trkpt lat="37.6117864531" lon="-6.0155826062">
        <ele>154.43</ele>
        <time>2020-07-09T13:03:48Z</time>
      </trkpt>
      <trkpt lat="37.6119083259" lon="-6.0156062432">
        <ele>155.87</ele>
        <time>2020-07-09T13:03:54Z</time>
      </trkpt>
      <trkpt lat="37.6119384170" lon="-6.0155981127">
        <ele>156.35</ele>
        <time>2020-07-09T13:03:59Z</time>
      </trkpt>
      <trkpt lat="37.6119870320" lon="-6.0155992862">
        <ele>156.35</ele>
        <time>2020-07-09T13:04:05Z</time>
      </trkpt>
      <trkpt lat="37.6120491419" lon="-6.0156015493">
        <ele>157.79</ele>
        <time>2020-07-09T13:04:15Z</time>
      </trkpt>
      <trkpt lat="37.6120854355" lon="-6.0156206600">
        <ele>157.79</ele>
        <time>2020-07-09T13:04:22Z</time>
      </trkpt>
      <trkpt lat="37.6121544186" lon="-6.0156358313">
        <ele>158.75</ele>
        <time>2020-07-09T13:04:31Z</time>
      </trkpt>
      <trkpt lat="37.6122033689" lon="-6.0156804230">
        <ele>158.75</ele>
        <time>2020-07-09T13:04:39Z</time>
      </trkpt>
      <trkpt lat="37.6122763753" lon="-6.0157444607">
        <ele>159.24</ele>
        <time>2020-07-09T13:04:50Z</time>
      </trkpt>
      <trkpt lat="37.6123560034" lon="-6.0157864541">
        <ele>160.20</ele>
        <time>2020-07-09T13:05:00Z</time>
      </trkpt>
      <trkpt lat="37.6124262437" lon="-6.0158255138">
        <ele>161.16</ele>
        <time>2020-07-09T13:05:09Z</time>
      </trkpt>
      <trkpt lat="37.6124441810" lon="-6.0158324707">
        <ele>161.16</ele>
        <time>2020-07-09T13:05:11Z</time>
      </trkpt>
      <trkpt lat="37.6125038601" lon="-6.0158335604">
        <ele>161.64</ele>
        <time>2020-07-09T13:05:18Z</time>
      </trkpt>
      <trkpt lat="37.6125484519" lon="-6.0158642381">
        <ele>162.60</ele>
        <time>2020-07-09T13:05:25Z</time>
      </trkpt>
      <trkpt lat="37.6125964802" lon="-6.0159027111">
        <ele>162.60</ele>
        <time>2020-07-09T13:05:34Z</time>
      </trkpt>
      <trkpt lat="37.6126704924" lon="-6.0159117635">
        <ele>164.04</ele>
        <time>2020-07-09T13:05:43Z</time>
      </trkpt>
      <trkpt lat="37.6127322670" lon="-6.0159649886">
        <ele>165.48</ele>
        <time>2020-07-09T13:05:52Z</time>
      </trkpt>
      <trkpt lat="37.6127974782" lon="-6.0160027072">
        <ele>165.48</ele>
        <time>2020-07-09T13:06:01Z</time>
      </trkpt>
      <trkpt lat="37.6128566545" lon="-6.0160448682">
        <ele>165.48</ele>
        <time>2020-07-09T13:06:08Z</time>
      </trkpt>
      <trkpt lat="37.6130057685" lon="-6.0161457863">
        <ele>166.45</ele>
        <time>2020-07-09T13:06:17Z</time>
      </trkpt>
      <trkpt lat="37.6130783558" lon="-6.0161650646">
        <ele>166.45</ele>
        <time>2020-07-09T13:06:24Z</time>
      </trkpt>
      <trkpt lat="37.6130988076" lon="-6.0161720216">
        <ele>166.93</ele>
        <time>2020-07-09T13:06:30Z</time>
      </trkpt>
      <trkpt lat="37.6132300682" lon="-6.0161756258">
        <ele>167.89</ele>
        <time>2020-07-09T13:06:39Z</time>
      </trkpt>
      <trkpt lat="37.6134033222" lon="-6.0161966644">
        <ele>168.37</ele>
        <time>2020-07-09T13:06:48Z</time>
      </trkpt>
      <trkpt lat="37.6135735586" lon="-6.0162120871">
        <ele>168.85</ele>
        <time>2020-07-09T13:06:56Z</time>
      </trkpt>
      <trkpt lat="37.6137091778" lon="-6.0162481293">
        <ele>170.29</ele>
        <time>2020-07-09T13:07:04Z</time>
      </trkpt>
      <trkpt lat="37.6138318889" lon="-6.0162996780">
        <ele>171.25</ele>
        <time>2020-07-09T13:07:11Z</time>
      </trkpt>
      <trkpt lat="37.6140108425" lon="-6.0163896158">
        <ele>172.21</ele>
        <time>2020-07-09T13:07:21Z</time>
      </trkpt>
      <trkpt lat="37.6141690090" lon="-6.0164115764">
        <ele>172.21</ele>
        <time>2020-07-09T13:07:29Z</time>
      </trkpt>
      <trkpt lat="37.6143488009" lon="-6.0163864307">
        <ele>171.73</ele>
        <time>2020-07-09T13:07:38Z</time>
      </trkpt>
      <trkpt lat="37.6144984178" lon="-6.0163601954">
        <ele>171.73</ele>
        <time>2020-07-09T13:07:45Z</time>
      </trkpt>
      <trkpt lat="37.6145250723" lon="-6.0163412523">
        <ele>172.21</ele>
        <time>2020-07-09T13:07:47Z</time>
      </trkpt>
      <trkpt lat="37.6145347953" lon="-6.0163276736">
        <ele>172.21</ele>
        <time>2020-07-09T13:07:48Z</time>
      </trkpt>
      <trkpt lat="37.6145459432" lon="-6.0163093172">
        <ele>172.21</ele>
        <time>2020-07-09T13:07:49Z</time>
      </trkpt>
      <trkpt lat="37.6145545766" lon="-6.0162902065">
        <ele>171.73</ele>
        <time>2020-07-09T13:07:50Z</time>
      </trkpt>
      <trkpt lat="37.6145617012" lon="-6.0162710119">
        <ele>171.73</ele>
        <time>2020-07-09T13:07:51Z</time>
      </trkpt>
      <trkpt lat="37.6145792194" lon="-6.0162209719">
        <ele>170.77</ele>
        <time>2020-07-09T13:07:54Z</time>
      </trkpt>
      <trkpt lat="37.6145886909" lon="-6.0162032861">
        <ele>170.77</ele>
        <time>2020-07-09T13:07:55Z</time>
      </trkpt>
      <trkpt lat="37.6146005932" lon="-6.0161818285">
        <ele>170.29</ele>
        <time>2020-07-09T13:07:56Z</time>
      </trkpt>
      <trkpt lat="37.6146181114" lon="-6.0161593650">
        <ele>169.81</ele>
        <time>2020-07-09T13:07:57Z</time>
      </trkpt>
      <trkpt lat="37.6146383956" lon="-6.0161362309">
        <ele>169.81</ele>
        <time>2020-07-09T13:07:58Z</time>
      </trkpt>
      <trkpt lat="37.6147859171" lon="-6.0160723608">
        <ele>169.81</ele>
        <time>2020-07-09T13:08:04Z</time>
      </trkpt>
      <trkpt lat="37.6149352826" lon="-6.0160311218">
        <ele>168.85</ele>
        <time>2020-07-09T13:08:12Z</time>
      </trkpt>
      <trkpt lat="37.6151073631" lon="-6.0159453750">
        <ele>168.85</ele>
        <time>2020-07-09T13:08:20Z</time>
      </trkpt>
      <trkpt lat="37.6152769290" lon="-6.0158953350">
        <ele>168.85</ele>
        <time>2020-07-09T13:08:27Z</time>
      </trkpt>
      <trkpt lat="37.6155148074" lon="-6.0158159584">
        <ele>169.33</ele>
        <time>2020-07-09T13:08:35Z</time>
      </trkpt>
      <trkpt lat="37.6157416217" lon="-6.0157407727">
        <ele>169.33</ele>
        <time>2020-07-09T13:08:43Z</time>
      </trkpt>
      <trkpt lat="37.6159380935" lon="-6.0157560278">
        <ele>169.81</ele>
        <time>2020-07-09T13:08:50Z</time>
      </trkpt>
      <trkpt lat="37.6161390916" lon="-6.0157872085">
        <ele>169.81</ele>
        <time>2020-07-09T13:08:58Z</time>
      </trkpt>
      <trkpt lat="37.6163459569" lon="-6.0157627333">
        <ele>170.77</ele>
        <time>2020-07-09T13:09:06Z</time>
      </trkpt>
      <trkpt lat="37.6165285148" lon="-6.0157268587">
        <ele>171.25</ele>
        <time>2020-07-09T13:09:13Z</time>
      </trkpt>
      <trkpt lat="37.6166797243" lon="-6.0157442093">
        <ele>171.73</ele>
        <time>2020-07-09T13:09:19Z</time>
      </trkpt>
      <trkpt lat="37.6168699935" lon="-6.0157558601">
        <ele>172.21</ele>
        <time>2020-07-09T13:09:27Z</time>
      </trkpt>
      <trkpt lat="37.6170117315" lon="-6.0158081632">
        <ele>172.21</ele>
        <time>2020-07-09T13:09:33Z</time>
      </trkpt>
      <trkpt lat="37.6171290781" lon="-6.0158059839">
        <ele>173.17</ele>
        <time>2020-07-09T13:09:40Z</time>
      </trkpt>
      <trkpt lat="37.6173123904" lon="-6.0157984402">
        <ele>174.14</ele>
        <time>2020-07-09T13:09:48Z</time>
      </trkpt>
      <trkpt lat="37.6175181661" lon="-6.0158571135">
        <ele>173.66</ele>
        <time>2020-07-09T13:09:56Z</time>
      </trkpt>
      <trkpt lat="37.6177961938" lon="-6.0159763880">
        <ele>173.66</ele>
        <time>2020-07-09T13:10:07Z</time>
      </trkpt>
      <trkpt lat="37.6179339923" lon="-6.0160232428">
        <ele>174.62</ele>
        <time>2020-07-09T13:10:14Z</time>
      </trkpt>
      <trkpt lat="37.6181046478" lon="-6.0160524957">
        <ele>175.58</ele>
        <time>2020-07-09T13:10:22Z</time>
      </trkpt>
      <trkpt lat="37.6182426978" lon="-6.0160367377">
        <ele>176.54</ele>
        <time>2020-07-09T13:10:30Z</time>
      </trkpt>
      <trkpt lat="37.6183864474" lon="-6.0160041321">
        <ele>177.50</ele>
        <time>2020-07-09T13:10:38Z</time>
      </trkpt>
      <trkpt lat="37.6184997708" lon="-6.0160271823">
        <ele>178.46</ele>
        <time>2020-07-09T13:10:45Z</time>
      </trkpt>
      <trkpt lat="37.6185763814" lon="-6.0160762165">
        <ele>178.94</ele>
        <time>2020-07-09T13:10:52Z</time>
      </trkpt>
      <trkpt lat="37.6185881998" lon="-6.0160804912">
        <ele>179.42</ele>
        <time>2020-07-09T13:10:53Z</time>
      </trkpt>
      <trkpt lat="37.6186015271" lon="-6.0160840116">
        <ele>179.42</ele>
        <time>2020-07-09T13:10:54Z</time>
      </trkpt>
      <trkpt lat="37.6186163630" lon="-6.0160830896">
        <ele>179.42</ele>
        <time>2020-07-09T13:10:55Z</time>
      </trkpt>
      <trkpt lat="37.6186296903" lon="-6.0160839278">
        <ele>179.90</ele>
        <time>2020-07-09T13:10:56Z</time>
      </trkpt>
      <trkpt lat="37.6186433528" lon="-6.0160887055">
        <ele>179.90</ele>
        <time>2020-07-09T13:10:57Z</time>
      </trkpt>
      <trkpt lat="37.6186598651" lon="-6.0160925612">
        <ele>179.90</ele>
        <time>2020-07-09T13:10:58Z</time>
      </trkpt>
      <trkpt lat="37.6186771318" lon="-6.0160940699">
        <ele>179.90</ele>
        <time>2020-07-09T13:10:59Z</time>
      </trkpt>
      <trkpt lat="37.6186942309" lon="-6.0160966683">
        <ele>180.38</ele>
        <time>2020-07-09T13:11:00Z</time>
      </trkpt>
      <trkpt lat="37.6187101565" lon="-6.0161003564">
        <ele>180.38</ele>
        <time>2020-07-09T13:11:01Z</time>
      </trkpt>
      <trkpt lat="37.6187237352" lon="-6.0161081515">
        <ele>180.38</ele>
        <time>2020-07-09T13:11:02Z</time>
      </trkpt>
      <trkpt lat="37.6187402476" lon="-6.0161178745">
        <ele>179.90</ele>
        <time>2020-07-09T13:11:03Z</time>
      </trkpt>
      <trkpt lat="37.6187555026" lon="-6.0161228199">
        <ele>179.90</ele>
        <time>2020-07-09T13:11:04Z</time>
      </trkpt>
      <trkpt lat="37.6187638007" lon="-6.0161283519">
        <ele>179.90</ele>
        <time>2020-07-09T13:11:09Z</time>
      </trkpt>
      <trkpt lat="37.6187959034" lon="-6.0161356442">
        <ele>180.38</ele>
        <time>2020-07-09T13:11:17Z</time>
      </trkpt>
      <trkpt lat="37.6188741904" lon="-6.0161487199">
        <ele>181.83</ele>
        <time>2020-07-09T13:11:26Z</time>
      </trkpt>
      <trkpt lat="37.6188924629" lon="-6.0161597840">
        <ele>181.83</ele>
        <time>2020-07-09T13:11:28Z</time>
      </trkpt>
      <trkpt lat="37.6189026050" lon="-6.0161657352">
        <ele>181.83</ele>
        <time>2020-07-09T13:11:29Z</time>
      </trkpt>
      <trkpt lat="37.6189722586" lon="-6.0161765479">
        <ele>182.31</ele>
        <time>2020-07-09T13:11:38Z</time>
      </trkpt>
      <trkpt lat="37.6189836580" lon="-6.0161690041">
        <ele>182.79</ele>
        <time>2020-07-09T13:11:43Z</time>
      </trkpt>
      <trkpt lat="37.6190659683" lon="-6.0161757935">
        <ele>183.27</ele>
        <time>2020-07-09T13:11:53Z</time>
      </trkpt>
      <trkpt lat="37.6191652939" lon="-6.0162037890">
        <ele>184.23</ele>
        <time>2020-07-09T13:12:03Z</time>
      </trkpt>
      <trkpt lat="37.6192345284" lon="-6.0162336286">
        <ele>184.23</ele>
        <time>2020-07-09T13:12:12Z</time>
      </trkpt>
      <trkpt lat="37.6193092111" lon="-6.0162705090">
        <ele>184.71</ele>
        <time>2020-07-09T13:12:21Z</time>
      </trkpt>
      <trkpt lat="37.6194163319" lon="-6.0163283441">
        <ele>185.67</ele>
        <time>2020-07-09T13:12:33Z</time>
      </trkpt>
      <trkpt lat="37.6194982231" lon="-6.0163672362">
        <ele>187.59</ele>
        <time>2020-07-09T13:12:43Z</time>
      </trkpt>
      <trkpt lat="37.6195896696" lon="-6.0164376441">
        <ele>187.59</ele>
        <time>2020-07-09T13:12:53Z</time>
      </trkpt>
      <trkpt lat="37.6196106244" lon="-6.0164399911">
        <ele>187.11</ele>
        <time>2020-07-09T13:13:00Z</time>
      </trkpt>
      <trkpt lat="37.6197068486" lon="-6.0165305156">
        <ele>186.63</ele>
        <time>2020-07-09T13:13:06Z</time>
      </trkpt>
      <trkpt lat="37.6198841259" lon="-6.0166549869">
        <ele>186.63</ele>
        <time>2020-07-09T13:13:14Z</time>
      </trkpt>
      <trkpt lat="37.6200479083" lon="-6.0167709086">
        <ele>186.15</ele>
        <time>2020-07-09T13:13:22Z</time>
      </trkpt>
      <trkpt lat="37.6202895585" lon="-6.0169113055">
        <ele>185.19</ele>
        <time>2020-07-09T13:13:31Z</time>
      </trkpt>
      <trkpt lat="37.6205523312" lon="-6.0170278139">
        <ele>185.67</ele>
        <time>2020-07-09T13:13:40Z</time>
      </trkpt>
      <trkpt lat="37.6208470389" lon="-6.0172065999">
        <ele>184.71</ele>
        <time>2020-07-09T13:13:51Z</time>
      </trkpt>
      <trkpt lat="37.6210218854" lon="-6.0173034109">
        <ele>185.19</ele>
        <time>2020-07-09T13:13:58Z</time>
      </trkpt>
      <trkpt lat="37.6212259009" lon="-6.0174130462">
        <ele>185.67</ele>
        <time>2020-07-09T13:14:06Z</time>
      </trkpt>
      <trkpt lat="37.6212860830" lon="-6.0174909979">
        <ele>185.67</ele>
        <time>2020-07-09T13:14:09Z</time>
      </trkpt>
      <trkpt lat="37.6213106420" lon="-6.0175043251">
        <ele>185.67</ele>
        <time>2020-07-09T13:14:10Z</time>
      </trkpt>
      <trkpt lat="37.6213367097" lon="-6.0175124556">
        <ele>186.15</ele>
        <time>2020-07-09T13:14:11Z</time>
      </trkpt>
      <trkpt lat="37.6213602629" lon="-6.0175192449">
        <ele>186.15</ele>
        <time>2020-07-09T13:14:12Z</time>
      </trkpt>
      <trkpt lat="37.6213809662" lon="-6.0175298899">
        <ele>186.15</ele>
        <time>2020-07-09T13:14:13Z</time>
      </trkpt>
      <trkpt lat="37.6214014180" lon="-6.0175421275">
        <ele>186.63</ele>
        <time>2020-07-09T13:14:14Z</time>
      </trkpt>
      <trkpt lat="37.6214220375" lon="-6.0175530240">
        <ele>186.63</ele>
        <time>2020-07-09T13:14:15Z</time>
      </trkpt>
      <trkpt lat="37.6215962972" lon="-6.0175946821">
        <ele>187.59</ele>
        <time>2020-07-09T13:14:23Z</time>
      </trkpt>
      <trkpt lat="37.6216113009" lon="-6.0176063329">
        <ele>187.59</ele>
        <time>2020-07-09T13:14:24Z</time>
      </trkpt>
      <trkpt lat="37.6217230316" lon="-6.0176783334">
        <ele>188.08</ele>
        <time>2020-07-09T13:14:32Z</time>
      </trkpt>
      <trkpt lat="37.6219432242" lon="-6.0176607314">
        <ele>188.08</ele>
        <time>2020-07-09T13:14:42Z</time>
      </trkpt>
      <trkpt lat="37.6221909095" lon="-6.0176192410">
        <ele>189.04</ele>
        <time>2020-07-09T13:14:53Z</time>
      </trkpt>
      <trkpt lat="37.6222935040" lon="-6.0175863001">
        <ele>190.48</ele>
        <time>2020-07-09T13:14:59Z</time>
      </trkpt>
      <trkpt lat="37.6224629022" lon="-6.0175303090">
        <ele>191.92</ele>
        <time>2020-07-09T13:15:08Z</time>
      </trkpt>
      <trkpt lat="37.6226172131" lon="-6.0174903274">
        <ele>192.88</ele>
        <time>2020-07-09T13:15:17Z</time>
      </trkpt>
      <trkpt lat="37.6227797382" lon="-6.0174979549">
        <ele>193.36</ele>
        <time>2020-07-09T13:15:25Z</time>
      </trkpt>
      <trkpt lat="37.6228843443" lon="-6.0175423790">
        <ele>193.36</ele>
        <time>2020-07-09T13:15:31Z</time>
      </trkpt>
      <trkpt lat="37.6229972485" lon="-6.0175811872">
        <ele>193.36</ele>
        <time>2020-07-09T13:15:38Z</time>
      </trkpt>
      <trkpt lat="37.6231137570" lon="-6.0175671056">
        <ele>194.32</ele>
        <time>2020-07-09T13:15:45Z</time>
      </trkpt>
      <trkpt lat="37.6231279224" lon="-6.0175638366">
        <ele>193.84</ele>
        <time>2020-07-09T13:15:46Z</time>
      </trkpt>
      <trkpt lat="37.6231432613" lon="-6.0175676923">
        <ele>193.84</ele>
        <time>2020-07-09T13:15:47Z</time>
      </trkpt>
      <trkpt lat="37.6231590193" lon="-6.0175711289">
        <ele>193.84</ele>
        <time>2020-07-09T13:15:48Z</time>
      </trkpt>
      <trkpt lat="37.6231766213" lon="-6.0175734758">
        <ele>193.84</ele>
        <time>2020-07-09T13:15:49Z</time>
      </trkpt>
      <trkpt lat="37.6232062932" lon="-6.0175748169">
        <ele>193.84</ele>
        <time>2020-07-09T13:15:51Z</time>
      </trkpt>
      <trkpt lat="37.6232212968" lon="-6.0175676085">
        <ele>193.84</ele>
        <time>2020-07-09T13:15:52Z</time>
      </trkpt>
      <trkpt lat="37.6232422516" lon="-6.0175603162">
        <ele>193.84</ele>
        <time>2020-07-09T13:15:53Z</time>
      </trkpt>
      <trkpt lat="37.6232636254" lon="-6.0175531916">
        <ele>193.84</ele>
        <time>2020-07-09T13:15:54Z</time>
      </trkpt>
      <trkpt lat="37.6232843287" lon="-6.0175466537">
        <ele>193.84</ele>
        <time>2020-07-09T13:15:55Z</time>
      </trkpt>
      <trkpt lat="37.6233076304" lon="-6.0175408702">
        <ele>194.32</ele>
        <time>2020-07-09T13:15:56Z</time>
      </trkpt>
      <trkpt lat="37.6233292557" lon="-6.0175338294">
        <ele>194.32</ele>
        <time>2020-07-09T13:15:57Z</time>
      </trkpt>
      <trkpt lat="37.6233496238" lon="-6.0175277945">
        <ele>194.32</ele>
        <time>2020-07-09T13:15:58Z</time>
      </trkpt>
      <trkpt lat="37.6233710814" lon="-6.0175224300">
        <ele>194.32</ele>
        <time>2020-07-09T13:15:59Z</time>
      </trkpt>
      <trkpt lat="37.6235888433" lon="-6.0174911655">
        <ele>193.36</ele>
        <time>2020-07-09T13:16:08Z</time>
      </trkpt>
      <trkpt lat="37.6237560622" lon="-6.0174990445">
        <ele>193.36</ele>
        <time>2020-07-09T13:16:15Z</time>
      </trkpt>
      <trkpt lat="37.6238558069" lon="-6.0175606515">
        <ele>193.84</ele>
        <time>2020-07-09T13:16:22Z</time>
      </trkpt>
      <trkpt lat="37.6239573117" lon="-6.0175933409">
        <ele>193.84</ele>
        <time>2020-07-09T13:16:28Z</time>
      </trkpt>
      <trkpt lat="37.6240563020" lon="-6.0176350828">
        <ele>193.84</ele>
        <time>2020-07-09T13:16:34Z</time>
      </trkpt>
      <trkpt lat="37.6240687910" lon="-6.0176488291">
        <ele>193.84</ele>
        <time>2020-07-09T13:16:35Z</time>
      </trkpt>
      <trkpt lat="37.6241005585" lon="-6.0176751483">
        <ele>193.84</ele>
        <time>2020-07-09T13:16:41Z</time>
      </trkpt>
      <trkpt lat="37.6241040789" lon="-6.0176798422">
        <ele>194.32</ele>
        <time>2020-07-09T13:16:46Z</time>
      </trkpt>
      <trkpt lat="37.6241631713" lon="-6.0176923312">
        <ele>193.84</ele>
        <time>2020-07-09T13:16:55Z</time>
      </trkpt>
      <trkpt lat="37.6242282148" lon="-6.0177501664">
        <ele>194.80</ele>
        <time>2020-07-09T13:17:03Z</time>
      </trkpt>
      <trkpt lat="37.6242557075" lon="-6.0177711211">
        <ele>194.80</ele>
        <time>2020-07-09T13:17:11Z</time>
      </trkpt>
      <trkpt lat="37.6242750697" lon="-6.0177907348">
        <ele>194.80</ele>
        <time>2020-07-09T13:17:18Z</time>
      </trkpt>
      <trkpt lat="37.6242857147" lon="-6.0177935846">
        <ele>194.80</ele>
        <time>2020-07-09T13:17:26Z</time>
      </trkpt>
      <trkpt lat="37.6242978685" lon="-6.0178097617">
        <ele>194.80</ele>
        <time>2020-07-09T13:17:38Z</time>
      </trkpt>
      <trkpt lat="37.6243320666" lon="-6.0178416967">
        <ele>194.80</ele>
        <time>2020-07-09T13:17:47Z</time>
      </trkpt>
      <trkpt lat="37.6243510097" lon="-6.0178388469">
        <ele>195.28</ele>
        <time>2020-07-09T13:17:54Z</time>
      </trkpt>
      <trkpt lat="37.6243919134" lon="-6.0178572871">
        <ele>196.25</ele>
        <time>2020-07-09T13:18:02Z</time>
      </trkpt>
      <trkpt lat="37.6244447194" lon="-6.0179039743">
        <ele>197.21</ele>
        <time>2020-07-09T13:18:11Z</time>
      </trkpt>
      <trkpt lat="37.6244832762" lon="-6.0179489013">
        <ele>197.21</ele>
        <time>2020-07-09T13:18:19Z</time>
      </trkpt>
      <trkpt lat="37.6244973578" lon="-6.0179579537">
        <ele>197.21</ele>
        <time>2020-07-09T13:18:30Z</time>
      </trkpt>
      <trkpt lat="37.6245104335" lon="-6.0179735441">
        <ele>197.21</ele>
        <time>2020-07-09T13:18:39Z</time>
      </trkpt>
      <trkpt lat="37.6245336514" lon="-6.0179955885">
        <ele>197.69</ele>
        <time>2020-07-09T13:18:47Z</time>
      </trkpt>
      <trkpt lat="37.6245372556" lon="-6.0179973487">
        <ele>197.69</ele>
        <time>2020-07-09T13:18:57Z</time>
      </trkpt>
      <trkpt lat="37.6245612279" lon="-6.0180284455">
        <ele>198.65</ele>
        <time>2020-07-09T13:19:06Z</time>
      </trkpt>
      <trkpt lat="37.6245705318" lon="-6.0180291999">
        <ele>198.65</ele>
        <time>2020-07-09T13:19:07Z</time>
      </trkpt>
      <trkpt lat="37.6246032212" lon="-6.0180316307">
        <ele>199.13</ele>
        <time>2020-07-09T13:19:13Z</time>
      </trkpt>
      <trkpt lat="37.6246318035" lon="-6.0179830994">
        <ele>199.61</ele>
        <time>2020-07-09T13:19:21Z</time>
      </trkpt>
      <trkpt lat="37.6246358268" lon="-6.0179795790">
        <ele>199.61</ele>
        <time>2020-07-09T13:19:29Z</time>
      </trkpt>
      <trkpt lat="37.6246406045" lon="-6.0179812554">
        <ele>200.57</ele>
        <time>2020-07-09T13:19:47Z</time>
      </trkpt>
      <trkpt lat="37.6246491540" lon="-6.0179846920">
        <ele>200.57</ele>
        <time>2020-07-09T13:20:18Z</time>
      </trkpt>
      <trkpt lat="37.6246486511" lon="-6.0179828480">
        <ele>199.13</ele>
        <time>2020-07-09T13:20:39Z</time>
      </trkpt>
      <trkpt lat="37.6246329769" lon="-6.0179825965">
        <ele>200.09</ele>
        <time>2020-07-09T13:20:59Z</time>
      </trkpt>
      <trkpt lat="37.6246193983" lon="-6.0179872066">
        <ele>202.49</ele>
        <time>2020-07-09T13:21:26Z</time>
      </trkpt>
      <trkpt lat="37.6246173866" lon="-6.0179792438">
        <ele>201.05</ele>
        <time>2020-07-09T13:21:49Z</time>
      </trkpt>
      <trkpt lat="37.6246162970" lon="-6.0179860331">
        <ele>202.01</ele>
        <time>2020-07-09T13:22:06Z</time>
      </trkpt>
      <trkpt lat="37.6246204041" lon="-6.0179836024">
        <ele>201.05</ele>
        <time>2020-07-09T13:22:32Z</time>
      </trkpt>
      <trkpt lat="37.6246188115" lon="-6.0179902241">
        <ele>202.49</ele>
        <time>2020-07-09T13:22:49Z</time>
      </trkpt>
      <trkpt lat="37.6246178057" lon="-6.0179815069">
        <ele>202.98</ele>
        <time>2020-07-09T13:23:12Z</time>
      </trkpt>
      <trkpt lat="37.6246157102" lon="-6.0179842729">
        <ele>203.46</ele>
        <time>2020-07-09T13:23:33Z</time>
      </trkpt>
      <trkpt lat="37.6246157102" lon="-6.0179727897">
        <ele>202.98</ele>
        <time>2020-07-09T13:23:55Z</time>
      </trkpt>
      <trkpt lat="37.6246279478" lon="-6.0179756396">
        <ele>201.53</ele>
        <time>2020-07-09T13:24:18Z</time>
      </trkpt>
      <trkpt lat="37.6246359106" lon="-6.0179799981">
        <ele>200.57</ele>
        <time>2020-07-09T13:24:38Z</time>
      </trkpt>
      <trkpt lat="37.6246334799" lon="-6.0179775674">
        <ele>200.09</ele>
        <time>2020-07-09T13:24:56Z</time>
      </trkpt>
      <trkpt lat="37.6246268582" lon="-6.0179862846">
        <ele>199.13</ele>
        <time>2020-07-09T13:25:18Z</time>
      </trkpt>
      <trkpt lat="37.6246270258" lon="-6.0179866198">
        <ele>199.61</ele>
        <time>2020-07-09T13:25:41Z</time>
      </trkpt>
      <trkpt lat="37.6246255171" lon="-6.0179830156">
        <ele>199.61</ele>
        <time>2020-07-09T13:25:58Z</time>
      </trkpt>
      <trkpt lat="37.6246172190" lon="-6.0179729573">
        <ele>201.05</ele>
        <time>2020-07-09T13:26:18Z</time>
      </trkpt>
      <trkpt lat="37.6246224158" lon="-6.0179789085">
        <ele>202.98</ele>
        <time>2020-07-09T13:26:49Z</time>
      </trkpt>
      <trkpt lat="37.6246219128" lon="-6.0179942474">
        <ele>202.49</ele>
        <time>2020-07-09T13:27:13Z</time>
      </trkpt>
      <trkpt lat="37.6246245112" lon="-6.0179913975">
        <ele>202.49</ele>
        <time>2020-07-09T13:27:33Z</time>
      </trkpt>
      <trkpt lat="37.6246274449" lon="-6.0179957561">
        <ele>202.49</ele>
        <time>2020-07-09T13:28:04Z</time>
      </trkpt>
      <trkpt lat="37.6246288698" lon="-6.0179860331">
        <ele>201.53</ele>
        <time>2020-07-09T13:28:33Z</time>
      </trkpt>
      <trkpt lat="37.6246272773" lon="-6.0179824289">
        <ele>202.49</ele>
        <time>2020-07-09T13:28:51Z</time>
      </trkpt>
      <trkpt lat="37.6246470585" lon="-6.0179915652">
        <ele>201.53</ele>
        <time>2020-07-09T13:28:59Z</time>
      </trkpt>
      <trkpt lat="37.6246944163" lon="-6.0180246737">
        <ele>201.53</ele>
        <time>2020-07-09T13:29:07Z</time>
      </trkpt>
      <trkpt lat="37.6247079950" lon="-6.0180243384">
        <ele>201.05</ele>
        <time>2020-07-09T13:29:15Z</time>
      </trkpt>
      <trkpt lat="37.6247184724" lon="-6.0180234164">
        <ele>200.57</ele>
        <time>2020-07-09T13:29:27Z</time>
      </trkpt>
      <trkpt lat="37.6247352362" lon="-6.0180081613">
        <ele>201.53</ele>
        <time>2020-07-09T13:29:34Z</time>
      </trkpt>
      <trkpt lat="37.6247564424" lon="-6.0180341452">
        <ele>201.05</ele>
        <time>2020-07-09T13:29:38Z</time>
      </trkpt>
      <trkpt lat="37.6248308737" lon="-6.0180993564">
        <ele>200.57</ele>
        <time>2020-07-09T13:29:48Z</time>
      </trkpt>
      <trkpt lat="37.6249415148" lon="-6.0181165393">
        <ele>201.53</ele>
        <time>2020-07-09T13:29:58Z</time>
      </trkpt>
      <trkpt lat="37.6249663252" lon="-6.0181076545">
        <ele>202.01</ele>
        <time>2020-07-09T13:30:06Z</time>
      </trkpt>
      <trkpt lat="37.6250246633" lon="-6.0180810001">
        <ele>202.49</ele>
        <time>2020-07-09T13:30:15Z</time>
      </trkpt>
      <trkpt lat="37.6251551695" lon="-6.0180644877">
        <ele>203.46</ele>
        <time>2020-07-09T13:30:26Z</time>
      </trkpt>
      <trkpt lat="37.6252504718" lon="-6.0180381685">
        <ele>203.94</ele>
        <time>2020-07-09T13:30:35Z</time>
      </trkpt>
      <trkpt lat="37.6253760327" lon="-6.0179878771">
        <ele>204.90</ele>
        <time>2020-07-09T13:30:46Z</time>
      </trkpt>
      <trkpt lat="37.6254872605" lon="-6.0179730412">
        <ele>204.42</ele>
        <time>2020-07-09T13:30:56Z</time>
      </trkpt>
      <trkpt lat="37.6256093848" lon="-6.0179266892">
        <ele>204.90</ele>
        <time>2020-07-09T13:31:07Z</time>
      </trkpt>
      <trkpt lat="37.6256969757" lon="-6.0178644117">
        <ele>206.34</ele>
        <time>2020-07-09T13:31:16Z</time>
      </trkpt>
      <trkpt lat="37.6257098000" lon="-6.0178642441">
        <ele>206.82</ele>
        <time>2020-07-09T13:31:17Z</time>
      </trkpt>
      <trkpt lat="37.6257231273" lon="-6.0178673454">
        <ele>206.82</ele>
        <time>2020-07-09T13:31:18Z</time>
      </trkpt>
      <trkpt lat="37.6257352810" lon="-6.0178706981">
        <ele>206.82</ele>
        <time>2020-07-09T13:31:19Z</time>
      </trkpt>
      <trkpt lat="37.6258414797" lon="-6.0179461353">
        <ele>207.30</ele>
        <time>2020-07-09T13:31:29Z</time>
      </trkpt>
      <trkpt lat="37.6259457506" lon="-6.0179782379">
        <ele>208.26</ele>
        <time>2020-07-09T13:31:41Z</time>
      </trkpt>
      <trkpt lat="37.6260117162" lon="-6.0179762263">
        <ele>207.78</ele>
        <time>2020-07-09T13:31:48Z</time>
      </trkpt>
      <trkpt lat="37.6261215191" lon="-6.0179526731">
        <ele>208.26</ele>
        <time>2020-07-09T13:32:00Z</time>
      </trkpt>
      <trkpt lat="37.6261557173" lon="-6.0179330595">
        <ele>208.74</ele>
        <time>2020-07-09T13:32:04Z</time>
      </trkpt>
      <trkpt lat="37.6262047514" lon="-6.0179136973">
        <ele>209.70</ele>
        <time>2020-07-09T13:32:11Z</time>
      </trkpt>
      <trkpt lat="37.6262509357" lon="-6.0178865399">
        <ele>209.70</ele>
        <time>2020-07-09T13:32:17Z</time>
      </trkpt>
      <trkpt lat="37.6263266243" lon="-6.0179040581">
        <ele>209.70</ele>
        <time>2020-07-09T13:32:26Z</time>
      </trkpt>
      <trkpt lat="37.6263897400" lon="-6.0179112665">
        <ele>209.70</ele>
        <time>2020-07-09T13:32:34Z</time>
      </trkpt>
      <trkpt lat="37.6264710445" lon="-6.0179241747">
        <ele>209.70</ele>
        <time>2020-07-09T13:32:43Z</time>
      </trkpt>
      <trkpt lat="37.6264815219" lon="-6.0179245099">
        <ele>209.70</ele>
        <time>2020-07-09T13:32:44Z</time>
      </trkpt>
      <trkpt lat="37.6265867986" lon="-6.0179318022">
        <ele>210.67</ele>
        <time>2020-07-09T13:32:54Z</time>
      </trkpt>
      <trkpt lat="37.6266197395" lon="-6.0179529246">
        <ele>210.67</ele>
        <time>2020-07-09T13:32:58Z</time>
      </trkpt>
      <trkpt lat="37.6266679354" lon="-6.0179746337">
        <ele>210.19</ele>
        <time>2020-07-09T13:33:05Z</time>
      </trkpt>
      <trkpt lat="37.6267265249" lon="-6.0179686826">
        <ele>211.15</ele>
        <time>2020-07-09T13:33:13Z</time>
      </trkpt>
      <trkpt lat="37.6267758105" lon="-6.0179691017">
        <ele>212.11</ele>
        <time>2020-07-09T13:33:20Z</time>
      </trkpt>
      <trkpt lat="37.6268525049" lon="-6.0180303734">
        <ele>212.59</ele>
        <time>2020-07-09T13:33:29Z</time>
      </trkpt>
      <trkpt lat="37.6269708574" lon="-6.0180885438">
        <ele>212.11</ele>
        <time>2020-07-09T13:33:40Z</time>
      </trkpt>
      <trkpt lat="37.6270519942" lon="-6.0181114264">
        <ele>213.07</ele>
        <time>2020-07-09T13:33:48Z</time>
      </trkpt>
      <trkpt lat="37.6271022856" lon="-6.0181778949">
        <ele>213.07</ele>
        <time>2020-07-09T13:33:57Z</time>
      </trkpt>
      <trkpt lat="37.6271454524" lon="-6.0182123445">
        <ele>213.55</ele>
        <time>2020-07-09T13:34:05Z</time>
      </trkpt>
      <trkpt lat="37.6271614619" lon="-6.0182400886">
        <ele>214.03</ele>
        <time>2020-07-09T13:34:12Z</time>
      </trkpt>
      <trkpt lat="37.6271657366" lon="-6.0182473809">
        <ele>214.03</ele>
        <time>2020-07-09T13:34:26Z</time>
      </trkpt>
      <trkpt lat="37.6271688379" lon="-6.0182465427">
        <ele>213.55</ele>
        <time>2020-07-09T13:34:45Z</time>
      </trkpt>
      <trkpt lat="37.6271775551" lon="-6.0182618815">
        <ele>214.51</ele>
        <time>2020-07-09T13:34:58Z</time>
      </trkpt>
      <trkpt lat="37.6272096578" lon="-6.0183004383">
        <ele>213.55</ele>
        <time>2020-07-09T13:35:05Z</time>
      </trkpt>
      <trkpt lat="37.6272414252" lon="-6.0182934813">
        <ele>214.03</ele>
        <time>2020-07-09T13:35:11Z</time>
      </trkpt>
      <trkpt lat="37.6272741146" lon="-6.0182334669">
        <ele>214.99</ele>
        <time>2020-07-09T13:35:19Z</time>
      </trkpt>
      <trkpt lat="37.6273234002" lon="-6.0182338022">
        <ele>215.95</ele>
        <time>2020-07-09T13:35:25Z</time>
      </trkpt>
      <trkpt lat="37.6273319498" lon="-6.0182437766">
        <ele>216.43</ele>
        <time>2020-07-09T13:35:26Z</time>
      </trkpt>
      <trkpt lat="37.6273399964" lon="-6.0182546731">
        <ele>216.43</ele>
        <time>2020-07-09T13:35:27Z</time>
      </trkpt>
      <trkpt lat="37.6274099853" lon="-6.0182854347">
        <ele>217.40</ele>
        <time>2020-07-09T13:35:36Z</time>
      </trkpt>
      <trkpt lat="37.6275186148" lon="-6.0182681680">
        <ele>218.84</ele>
        <time>2020-07-09T13:35:49Z</time>
      </trkpt>
      <trkpt lat="37.6275868434" lon="-6.0182899609">
        <ele>219.32</ele>
        <time>2020-07-09T13:35:59Z</time>
      </trkpt>
      <trkpt lat="37.6275983267" lon="-6.0182920564">
        <ele>220.28</ele>
        <time>2020-07-09T13:36:06Z</time>
      </trkpt>
      <trkpt lat="37.6276106481" lon="-6.0182892065">
        <ele>220.28</ele>
        <time>2020-07-09T13:36:07Z</time>
      </trkpt>
      <trkpt lat="37.6277471054" lon="-6.0182555951">
        <ele>222.20</ele>
        <time>2020-07-09T13:36:15Z</time>
      </trkpt>
      <trkpt lat="37.6278801262" lon="-6.0181965865">
        <ele>224.12</ele>
        <time>2020-07-09T13:36:23Z</time>
      </trkpt>
      <trkpt lat="37.6280539669" lon="-6.0181690939">
        <ele>225.09</ele>
        <time>2020-07-09T13:36:32Z</time>
      </trkpt>
      <trkpt lat="37.6281398814" lon="-6.0181742068">
        <ele>225.57</ele>
        <time>2020-07-09T13:36:39Z</time>
      </trkpt>
      <trkpt lat="37.6281395461" lon="-6.0181721114">
        <ele>224.61</ele>
        <time>2020-07-09T13:36:46Z</time>
      </trkpt>
      <trkpt lat="37.6281799469" lon="-6.0181550123">
        <ele>224.12</ele>
        <time>2020-07-09T13:36:59Z</time>
      </trkpt>
      <trkpt lat="37.6281929389" lon="-6.0181474686">
        <ele>224.12</ele>
        <time>2020-07-09T13:37:00Z</time>
      </trkpt>
      <trkpt lat="37.6282074396" lon="-6.0181443673">
        <ele>224.12</ele>
        <time>2020-07-09T13:37:01Z</time>
      </trkpt>
      <trkpt lat="37.6282240357" lon="-6.0181473009">
        <ele>224.12</ele>
        <time>2020-07-09T13:37:02Z</time>
      </trkpt>
      <trkpt lat="37.6282409672" lon="-6.0181506537">
        <ele>224.12</ele>
        <time>2020-07-09T13:37:03Z</time>
      </trkpt>
      <trkpt lat="37.6282583177" lon="-6.0181537550">
        <ele>224.12</ele>
        <time>2020-07-09T13:37:04Z</time>
      </trkpt>
      <trkpt lat="37.6282740757" lon="-6.0181592871">
        <ele>224.12</ele>
        <time>2020-07-09T13:37:05Z</time>
      </trkpt>
      <trkpt lat="37.6282920968" lon="-6.0181675013">
        <ele>224.12</ele>
        <time>2020-07-09T13:37:06Z</time>
      </trkpt>
      <trkpt lat="37.6283101179" lon="-6.0181766376">
        <ele>224.12</ele>
        <time>2020-07-09T13:37:07Z</time>
      </trkpt>
      <trkpt lat="37.6284366008" lon="-6.0181746259">
        <ele>225.09</ele>
        <time>2020-07-09T13:37:14Z</time>
      </trkpt>
      <trkpt lat="37.6285645925" lon="-6.0180853587">
        <ele>226.53</ele>
        <time>2020-07-09T13:37:23Z</time>
      </trkpt>
      <trkpt lat="37.6287091803" lon="-6.0180908907">
        <ele>227.01</ele>
        <time>2020-07-09T13:37:30Z</time>
      </trkpt>
      <trkpt lat="37.6288599707" lon="-6.0180832632">
        <ele>227.01</ele>
        <time>2020-07-09T13:37:38Z</time>
      </trkpt>
      <trkpt lat="37.6290215738" lon="-6.0180413537">
        <ele>227.01</ele>
        <time>2020-07-09T13:37:46Z</time>
      </trkpt>
      <trkpt lat="37.6291517448" lon="-6.0180178005">
        <ele>227.49</ele>
        <time>2020-07-09T13:37:53Z</time>
      </trkpt>
      <trkpt lat="37.6292906329" lon="-6.0180497356">
        <ele>227.97</ele>
        <time>2020-07-09T13:38:00Z</time>
      </trkpt>
      <trkpt lat="37.6295015216" lon="-6.0179934930">
        <ele>230.37</ele>
        <time>2020-07-09T13:38:11Z</time>
      </trkpt>
      <trkpt lat="37.6295962371" lon="-6.0179674253">
        <ele>230.85</ele>
        <time>2020-07-09T13:38:17Z</time>
      </trkpt>
      <trkpt lat="37.6296132524" lon="-6.0179725382">
        <ele>230.85</ele>
        <time>2020-07-09T13:38:18Z</time>
      </trkpt>
      <trkpt lat="37.6298051141" lon="-6.0180652421">
        <ele>231.33</ele>
        <time>2020-07-09T13:38:29Z</time>
      </trkpt>
      <trkpt lat="37.6299393922" lon="-6.0180803295">
        <ele>232.78</ele>
        <time>2020-07-09T13:38:38Z</time>
      </trkpt>
      <trkpt lat="37.6299816370" lon="-6.0180697683">
        <ele>233.26</ele>
        <time>2020-07-09T13:38:41Z</time>
      </trkpt>
      <trkpt lat="37.6299962215" lon="-6.0180691816">
        <ele>233.26</ele>
        <time>2020-07-09T13:38:42Z</time>
      </trkpt>
      <trkpt lat="37.6300106384" lon="-6.0180677567">
        <ele>233.74</ele>
        <time>2020-07-09T13:38:43Z</time>
      </trkpt>
      <trkpt lat="37.6300237980" lon="-6.0180675890">
        <ele>233.74</ele>
        <time>2020-07-09T13:38:44Z</time>
      </trkpt>
      <trkpt lat="37.6300361194" lon="-6.0180680081">
        <ele>233.74</ele>
        <time>2020-07-09T13:38:45Z</time>
      </trkpt>
      <trkpt lat="37.6301636919" lon="-6.0180895496">
        <ele>233.26</ele>
        <time>2020-07-09T13:38:55Z</time>
      </trkpt>
      <trkpt lat="37.6302755903" lon="-6.0181535035">
        <ele>233.74</ele>
        <time>2020-07-09T13:39:03Z</time>
      </trkpt>
      <trkpt lat="37.6304630935" lon="-6.0182014480">
        <ele>233.26</ele>
        <time>2020-07-09T13:39:12Z</time>
      </trkpt>
      <trkpt lat="37.6306728087" lon="-6.0182105005">
        <ele>233.26</ele>
        <time>2020-07-09T13:39:22Z</time>
      </trkpt>
      <trkpt lat="37.6308473200" lon="-6.0181809124">
        <ele>234.22</ele>
        <time>2020-07-09T13:39:31Z</time>
      </trkpt>
      <trkpt lat="37.6310433727" lon="-6.0182737000">
        <ele>235.66</ele>
        <time>2020-07-09T13:39:41Z</time>
      </trkpt>
      <trkpt lat="37.6312272716" lon="-6.0183321219">
        <ele>236.62</ele>
        <time>2020-07-09T13:39:50Z</time>
      </trkpt>
      <trkpt lat="37.6314032078" lon="-6.0184536595">
        <ele>236.62</ele>
        <time>2020-07-09T13:39:59Z</time>
      </trkpt>
      <trkpt lat="37.6315871067" lon="-6.0186096467">
        <ele>235.66</ele>
        <time>2020-07-09T13:40:08Z</time>
      </trkpt>
      <trkpt lat="37.6317529846" lon="-6.0186154302">
        <ele>236.14</ele>
        <time>2020-07-09T13:40:16Z</time>
      </trkpt>
      <trkpt lat="37.6318063773" lon="-6.0186202079">
        <ele>236.14</ele>
        <time>2020-07-09T13:40:22Z</time>
      </trkpt>
      <trkpt lat="37.6318023540" lon="-6.0186145920">
        <ele>235.66</ele>
        <time>2020-07-09T13:40:35Z</time>
      </trkpt>
      <trkpt lat="37.6318056230" lon="-6.0186226387">
        <ele>236.14</ele>
        <time>2020-07-09T13:40:48Z</time>
      </trkpt>
      <trkpt lat="37.6318152621" lon="-6.0186162684">
        <ele>236.14</ele>
        <time>2020-07-09T13:41:03Z</time>
      </trkpt>
      <trkpt lat="37.6318242308" lon="-6.0186137538">
        <ele>237.10</ele>
        <time>2020-07-09T13:41:15Z</time>
      </trkpt>
      <trkpt lat="37.6318260748" lon="-6.0186130833">
        <ele>237.58</ele>
        <time>2020-07-09T13:41:48Z</time>
      </trkpt>
      <trkpt lat="37.6318263263" lon="-6.0186186992">
        <ele>236.14</ele>
        <time>2020-07-09T13:42:06Z</time>
      </trkpt>
      <trkpt lat="37.6318268292" lon="-6.0186222196">
        <ele>236.14</ele>
        <time>2020-07-09T13:42:16Z</time>
      </trkpt>
      <trkpt lat="37.6319225505" lon="-6.0186539032">
        <ele>236.14</ele>
        <time>2020-07-09T13:42:23Z</time>
      </trkpt>
      <trkpt lat="37.6321092993" lon="-6.0187089723">
        <ele>238.06</ele>
        <time>2020-07-09T13:42:32Z</time>
      </trkpt>
      <trkpt lat="37.6322874986" lon="-6.0187264904">
        <ele>239.02</ele>
        <time>2020-07-09T13:42:40Z</time>
      </trkpt>
      <trkpt lat="37.6324437372" lon="-6.0187429190">
        <ele>239.99</ele>
        <time>2020-07-09T13:42:48Z</time>
      </trkpt>
      <trkpt lat="37.6326377783" lon="-6.0187433381">
        <ele>241.43</ele>
        <time>2020-07-09T13:42:58Z</time>
      </trkpt>
      <trkpt lat="37.6328257844" lon="-6.0187754408">
        <ele>241.91</ele>
        <time>2020-07-09T13:43:07Z</time>
      </trkpt>
      <trkpt lat="37.6328754053" lon="-6.0187882651">
        <ele>241.91</ele>
        <time>2020-07-09T13:43:11Z</time>
      </trkpt>
      <trkpt lat="37.6330355834" lon="-6.0188725032">
        <ele>241.91</ele>
        <time>2020-07-09T13:43:20Z</time>
      </trkpt>
      <trkpt lat="37.6332006231" lon="-6.0189577471">
        <ele>243.83</ele>
        <time>2020-07-09T13:43:29Z</time>
      </trkpt>
      <trkpt lat="37.6333500724" lon="-6.0190316755">
        <ele>243.83</ele>
        <time>2020-07-09T13:43:37Z</time>
      </trkpt>
      <trkpt lat="37.6334904693" lon="-6.0191267263">
        <ele>244.31</ele>
        <time>2020-07-09T13:43:45Z</time>
      </trkpt>
      <trkpt lat="37.6336185448" lon="-6.0191869084">
        <ele>244.79</ele>
        <time>2020-07-09T13:43:52Z</time>
      </trkpt>
      <trkpt lat="37.6337935589" lon="-6.0192880780">
        <ele>245.27</ele>
        <time>2020-07-09T13:44:00Z</time>
      </trkpt>
      <trkpt lat="37.6339339558" lon="-6.0193793569">
        <ele>245.27</ele>
        <time>2020-07-09T13:44:08Z</time>
      </trkpt>
      <trkpt lat="37.6340466924" lon="-6.0194444004">
        <ele>245.27</ele>
        <time>2020-07-09T13:44:16Z</time>
      </trkpt>
      <trkpt lat="37.6342269033" lon="-6.0195454862">
        <ele>244.31</ele>
        <time>2020-07-09T13:44:27Z</time>
      </trkpt>
      <trkpt lat="37.6344224531" lon="-6.0196536966">
        <ele>243.35</ele>
        <time>2020-07-09T13:44:37Z</time>
      </trkpt>
      <trkpt lat="37.6346137282" lon="-6.0197719652">
        <ele>242.39</ele>
        <time>2020-07-09T13:44:44Z</time>
      </trkpt>
      <trkpt lat="37.6348601561" lon="-6.0199304670">
        <ele>241.91</ele>
        <time>2020-07-09T13:44:54Z</time>
      </trkpt>
      <trkpt lat="37.6350660995" lon="-6.0199893918">
        <ele>242.87</ele>
        <time>2020-07-09T13:45:02Z</time>
      </trkpt>
      <trkpt lat="37.6352508366" lon="-6.0199979413">
        <ele>243.83</ele>
        <time>2020-07-09T13:45:09Z</time>
      </trkpt>
      <trkpt lat="37.6354741305" lon="-6.0200167168">
        <ele>244.31</ele>
        <time>2020-07-09T13:45:18Z</time>
      </trkpt>
      <trkpt lat="37.6357156970" lon="-6.0199753102">
        <ele>245.27</ele>
        <time>2020-07-09T13:45:27Z</time>
      </trkpt>
      <trkpt lat="37.6359105762" lon="-6.0199527629">
        <ele>246.23</ele>
        <time>2020-07-09T13:45:35Z</time>
      </trkpt>
      <trkpt lat="37.6361899450" lon="-6.0200015455">
        <ele>246.23</ele>
        <time>2020-07-09T13:45:46Z</time>
      </trkpt>
      <trkpt lat="37.6363486145" lon="-6.0199283715">
        <ele>246.72</ele>
        <time>2020-07-09T13:45:53Z</time>
      </trkpt>
      <trkpt lat="37.6366443280" lon="-6.0197467357">
        <ele>247.20</ele>
        <time>2020-07-09T13:46:05Z</time>
      </trkpt>
      <trkpt lat="37.6369015686" lon="-6.0195377748">
        <ele>247.20</ele>
        <time>2020-07-09T13:46:16Z</time>
      </trkpt>
      <trkpt lat="37.6370668598" lon="-6.0195145570">
        <ele>247.20</ele>
        <time>2020-07-09T13:46:22Z</time>
      </trkpt>
      <trkpt lat="37.6372525189" lon="-6.0195427202">
        <ele>246.72</ele>
        <time>2020-07-09T13:46:28Z</time>
      </trkpt>
      <trkpt lat="37.6374020521" lon="-6.0195676144">
        <ele>245.75</ele>
        <time>2020-07-09T13:46:34Z</time>
      </trkpt>
      <trkpt lat="37.6375816762" lon="-6.0195295606">
        <ele>245.27</ele>
        <time>2020-07-09T13:46:41Z</time>
      </trkpt>
      <trkpt lat="37.6377461292" lon="-6.0193765070">
        <ele>244.79</ele>
        <time>2020-07-09T13:46:50Z</time>
      </trkpt>
      <trkpt lat="37.6378847659" lon="-6.0192920174">
        <ele>245.27</ele>
        <time>2020-07-09T13:46:58Z</time>
      </trkpt>
      <trkpt lat="37.6380146854" lon="-6.0191615112">
        <ele>245.27</ele>
        <time>2020-07-09T13:47:05Z</time>
      </trkpt>
      <trkpt lat="37.6381917950" lon="-6.0190310050">
        <ele>244.79</ele>
        <time>2020-07-09T13:47:14Z</time>
      </trkpt>
      <trkpt lat="37.6383771189" lon="-6.0188584216">
        <ele>245.27</ele>
        <time>2020-07-09T13:47:24Z</time>
      </trkpt>
      <trkpt lat="37.6385424938" lon="-6.0187242273">
        <ele>244.79</ele>
        <time>2020-07-09T13:47:33Z</time>
      </trkpt>
      <trkpt lat="37.6386895124" lon="-6.0186110716">
        <ele>245.27</ele>
        <time>2020-07-09T13:47:40Z</time>
      </trkpt>
      <trkpt lat="37.6388927735" lon="-6.0184759554">
        <ele>245.27</ele>
        <time>2020-07-09T13:47:49Z</time>
      </trkpt>
      <trkpt lat="37.6391314901" lon="-6.0183437727">
        <ele>246.23</ele>
        <time>2020-07-09T13:47:59Z</time>
      </trkpt>
      <trkpt lat="37.6393490005" lon="-6.0182257555">
        <ele>246.72</ele>
        <time>2020-07-09T13:48:08Z</time>
      </trkpt>
      <trkpt lat="37.6395161357" lon="-6.0181188025">
        <ele>247.20</ele>
        <time>2020-07-09T13:48:16Z</time>
      </trkpt>
      <trkpt lat="37.6396851148" lon="-6.0180518311">
        <ele>247.68</ele>
        <time>2020-07-09T13:48:23Z</time>
      </trkpt>
      <trkpt lat="37.6398940757" lon="-6.0179402679">
        <ele>247.68</ele>
        <time>2020-07-09T13:48:32Z</time>
      </trkpt>
      <trkpt lat="37.6400578581" lon="-6.0178551916">
        <ele>247.68</ele>
        <time>2020-07-09T13:48:39Z</time>
      </trkpt>
      <trkpt lat="37.6402420923" lon="-6.0177724622">
        <ele>248.16</ele>
        <time>2020-07-09T13:48:48Z</time>
      </trkpt>
      <trkpt lat="37.6402663160" lon="-6.0177619848">
        <ele>248.16</ele>
        <time>2020-07-09T13:48:54Z</time>
      </trkpt>
      <trkpt lat="37.6402683277" lon="-6.0177566204">
        <ele>248.16</ele>
        <time>2020-07-09T13:49:15Z</time>
      </trkpt>
      <trkpt lat="37.6402647234" lon="-6.0177587997">
        <ele>247.68</ele>
        <time>2020-07-09T13:49:31Z</time>
      </trkpt>
      <trkpt lat="37.6402662322" lon="-6.0177645832">
        <ele>248.16</ele>
        <time>2020-07-09T13:49:38Z</time>
      </trkpt>
      <trkpt lat="37.6402541623" lon="-6.0177725460">
        <ele>248.64</ele>
        <time>2020-07-09T13:49:58Z</time>
      </trkpt>
      <trkpt lat="37.6402526535" lon="-6.0177826881">
        <ele>247.20</ele>
        <time>2020-07-09T13:50:26Z</time>
      </trkpt>
      <trkpt lat="37.6402501389" lon="-6.0177720431">
        <ele>246.72</ele>
        <time>2020-07-09T13:50:59Z</time>
      </trkpt>
      <trkpt lat="37.6402524859" lon="-6.0177632421">
        <ele>245.75</ele>
        <time>2020-07-09T13:51:31Z</time>
      </trkpt>
      <trkpt lat="37.6402510609" lon="-6.0177762341">
        <ele>247.20</ele>
        <time>2020-07-09T13:52:00Z</time>
      </trkpt>
      <trkpt lat="37.6402579341" lon="-6.0177653376">
        <ele>247.20</ele>
        <time>2020-07-09T13:52:22Z</time>
      </trkpt>
      <trkpt lat="37.6402575150" lon="-6.0177808441">
        <ele>247.68</ele>
        <time>2020-07-09T13:52:47Z</time>
      </trkpt>
      <trkpt lat="37.6402648073" lon="-6.0177992005">
        <ele>248.64</ele>
        <time>2020-07-09T13:53:08Z</time>
      </trkpt>
      <trkpt lat="37.6402702555" lon="-6.0177872982">
        <ele>245.75</ele>
        <time>2020-07-09T13:53:40Z</time>
      </trkpt>
      <trkpt lat="37.6402496360" lon="-6.0177883040">
        <ele>247.68</ele>
        <time>2020-07-09T13:54:10Z</time>
      </trkpt>
      <trkpt lat="37.6402557548" lon="-6.0177606437">
        <ele>248.16</ele>
        <time>2020-07-09T13:54:37Z</time>
      </trkpt>
      <trkpt lat="37.6402590238" lon="-6.0177720431">
        <ele>250.56</ele>
        <time>2020-07-09T13:55:10Z</time>
      </trkpt>
      <trkpt lat="37.6402622927" lon="-6.0177864600">
        <ele>249.12</ele>
        <time>2020-07-09T13:55:31Z</time>
      </trkpt>
      <trkpt lat="37.6402554195" lon="-6.0177790001">
        <ele>249.60</ele>
        <time>2020-07-09T13:55:50Z</time>
      </trkpt>
      <trkpt lat="37.6402606163" lon="-6.0178020503">
        <ele>248.64</ele>
        <time>2020-07-09T13:56:22Z</time>
      </trkpt>
      <trkpt lat="37.6402715128" lon="-6.0177608114">
        <ele>246.23</ele>
        <time>2020-07-09T13:56:46Z</time>
      </trkpt>
      <trkpt lat="37.6402620412" lon="-6.0177644994">
        <ele>247.68</ele>
        <time>2020-07-09T13:57:11Z</time>
      </trkpt>
      <trkpt lat="37.6402637176" lon="-6.0177681874">
        <ele>246.23</ele>
        <time>2020-07-09T13:57:37Z</time>
      </trkpt>
      <trkpt lat="37.6402623765" lon="-6.0177795030">
        <ele>244.79</ele>
        <time>2020-07-09T13:57:58Z</time>
      </trkpt>
      <trkpt lat="37.6402712613" lon="-6.0177823529">
        <ele>246.23</ele>
        <time>2020-07-09T13:58:23Z</time>
      </trkpt>
      <trkpt lat="37.6402607840" lon="-6.0177615657">
        <ele>245.75</ele>
        <time>2020-07-09T13:58:45Z</time>
      </trkpt>
      <trkpt lat="37.6402558386" lon="-6.0177823529">
        <ele>246.23</ele>
        <time>2020-07-09T13:59:13Z</time>
      </trkpt>
      <trkpt lat="37.6402628794" lon="-6.0177691933">
        <ele>247.20</ele>
        <time>2020-07-09T13:59:37Z</time>
      </trkpt>
      <trkpt lat="37.6402730215" lon="-6.0177659243">
        <ele>247.68</ele>
        <time>2020-07-09T13:59:56Z</time>
      </trkpt>
      <trkpt lat="37.6402673218" lon="-6.0177640803">
        <ele>247.68</ele>
        <time>2020-07-09T14:00:09Z</time>
      </trkpt>
      <trkpt lat="37.6402598619" lon="-6.0177671816">
        <ele>247.68</ele>
        <time>2020-07-09T14:00:22Z</time>
      </trkpt>
      <trkpt lat="37.6402765419" lon="-6.0177542735">
        <ele>246.72</ele>
        <time>2020-07-09T14:00:36Z</time>
      </trkpt>
      <trkpt lat="37.6402856782" lon="-6.0177432932">
        <ele>246.72</ele>
        <time>2020-07-09T14:00:37Z</time>
      </trkpt>
      <trkpt lat="37.6404209621" lon="-6.0176399443">
        <ele>247.68</ele>
        <time>2020-07-09T14:00:46Z</time>
      </trkpt>
      <trkpt lat="37.6405738480" lon="-6.0174581409">
        <ele>248.16</ele>
        <time>2020-07-09T14:00:57Z</time>
      </trkpt>
      <trkpt lat="37.6407344453" lon="-6.0172892455">
        <ele>249.12</ele>
        <time>2020-07-09T14:01:07Z</time>
      </trkpt>
      <trkpt lat="37.6409227867" lon="-6.0171029158">
        <ele>250.56</ele>
        <time>2020-07-09T14:01:18Z</time>
      </trkpt>
      <trkpt lat="37.6410802826" lon="-6.0169433244">
        <ele>251.52</ele>
        <time>2020-07-09T14:01:27Z</time>
      </trkpt>
      <trkpt lat="37.6412339229" lon="-6.0167745966">
        <ele>252.00</ele>
        <time>2020-07-09T14:01:37Z</time>
      </trkpt>
      <trkpt lat="37.6413651835" lon="-6.0166285839">
        <ele>252.96</ele>
        <time>2020-07-09T14:01:46Z</time>
      </trkpt>
      <trkpt lat="37.6414987072" lon="-6.0165041965">
        <ele>253.44</ele>
        <time>2020-07-09T14:01:54Z</time>
      </trkpt>
      <trkpt lat="37.6416695304" lon="-6.0163908731">
        <ele>254.41</ele>
        <time>2020-07-09T14:02:03Z</time>
      </trkpt>
      <trkpt lat="37.6418168843" lon="-6.0163317807">
        <ele>254.89</ele>
        <time>2020-07-09T14:02:10Z</time>
      </trkpt>
      <trkpt lat="37.6420498174" lon="-6.0162563436">
        <ele>255.37</ele>
        <time>2020-07-09T14:02:20Z</time>
      </trkpt>
      <trkpt lat="37.6422502287" lon="-6.0161948204">
        <ele>255.37</ele>
        <time>2020-07-09T14:02:28Z</time>
      </trkpt>
      <trkpt lat="37.6424016897" lon="-6.0161303636">
        <ele>255.37</ele>
        <time>2020-07-09T14:02:36Z</time>
      </trkpt>
      <trkpt lat="37.6425738540" lon="-6.0160588659">
        <ele>255.37</ele>
        <time>2020-07-09T14:02:46Z</time>
      </trkpt>
      <trkpt lat="37.6428027637" lon="-6.0159613006">
        <ele>255.85</ele>
        <time>2020-07-09T14:02:57Z</time>
      </trkpt>
      <trkpt lat="37.6430071145" lon="-6.0158944968">
        <ele>256.81</ele>
        <time>2020-07-09T14:03:06Z</time>
      </trkpt>
      <trkpt lat="37.6432378683" lon="-6.0158001166">
        <ele>257.29</ele>
        <time>2020-07-09T14:03:16Z</time>
      </trkpt>
      <trkpt lat="37.6434011478" lon="-6.0156590492">
        <ele>257.77</ele>
        <time>2020-07-09T14:03:25Z</time>
      </trkpt>
      <trkpt lat="37.6435049996" lon="-6.0154986195">
        <ele>258.25</ele>
        <time>2020-07-09T14:03:35Z</time>
      </trkpt>
      <trkpt lat="37.6435808558" lon="-6.0153639223">
        <ele>258.73</ele>
        <time>2020-07-09T14:03:42Z</time>
      </trkpt>
      <trkpt lat="37.6436635852" lon="-6.0151949432">
        <ele>259.69</ele>
        <time>2020-07-09T14:03:50Z</time>
      </trkpt>
      <trkpt lat="37.6437297184" lon="-6.0150449909">
        <ele>260.17</ele>
        <time>2020-07-09T14:03:57Z</time>
      </trkpt>
      <trkpt lat="37.6438147109" lon="-6.0148663726">
        <ele>260.65</ele>
        <time>2020-07-09T14:04:06Z</time>
      </trkpt>
      <trkpt lat="37.6438914053" lon="-6.0147041827">
        <ele>262.10</ele>
        <time>2020-07-09T14:04:14Z</time>
      </trkpt>
      <trkpt lat="37.6439654175" lon="-6.0145474412">
        <ele>262.10</ele>
        <time>2020-07-09T14:04:22Z</time>
      </trkpt>
      <trkpt lat="37.6439712849" lon="-6.0145326890">
        <ele>262.10</ele>
        <time>2020-07-09T14:04:23Z</time>
      </trkpt>
      <trkpt lat="37.6439802535" lon="-6.0145244747">
        <ele>262.58</ele>
        <time>2020-07-09T14:04:29Z</time>
      </trkpt>
      <trkpt lat="37.6439832710" lon="-6.0145228822">
        <ele>262.58</ele>
        <time>2020-07-09T14:04:44Z</time>
      </trkpt>
      <trkpt lat="37.6439803373" lon="-6.0145159252">
        <ele>263.54</ele>
        <time>2020-07-09T14:04:59Z</time>
      </trkpt>
      <trkpt lat="37.6439862046" lon="-6.0145129915">
        <ele>263.06</ele>
        <time>2020-07-09T14:05:14Z</time>
      </trkpt>
      <trkpt lat="37.6440377533" lon="-6.0144573357">
        <ele>263.06</ele>
        <time>2020-07-09T14:05:20Z</time>
      </trkpt>
      <trkpt lat="37.6441223267" lon="-6.0143245663">
        <ele>264.02</ele>
        <time>2020-07-09T14:05:29Z</time>
      </trkpt>
      <trkpt lat="37.6441301219" lon="-6.0143086407">
        <ele>264.50</ele>
        <time>2020-07-09T14:05:38Z</time>
      </trkpt>
      <trkpt lat="37.6441856101" lon="-6.0142291803">
        <ele>264.02</ele>
        <time>2020-07-09T14:05:44Z</time>
      </trkpt>
      <trkpt lat="37.6441874541" lon="-6.0142099857">
        <ele>264.02</ele>
        <time>2020-07-09T14:05:45Z</time>
      </trkpt>
      <trkpt lat="37.6441867836" lon="-6.0141911265">
        <ele>264.02</ele>
        <time>2020-07-09T14:05:46Z</time>
      </trkpt>
      <trkpt lat="37.6441856101" lon="-6.0141747817">
        <ele>263.54</ele>
        <time>2020-07-09T14:05:47Z</time>
      </trkpt>
      <trkpt lat="37.6441893820" lon="-6.0140845925">
        <ele>263.54</ele>
        <time>2020-07-09T14:05:52Z</time>
      </trkpt>
      <trkpt lat="37.6442084089" lon="-6.0140704270">
        <ele>263.54</ele>
        <time>2020-07-09T14:05:53Z</time>
      </trkpt>
      <trkpt lat="37.6442271844" lon="-6.0140575189">
        <ele>263.54</ele>
        <time>2020-07-09T14:05:54Z</time>
      </trkpt>
      <trkpt lat="37.6442434452" lon="-6.0140506458">
        <ele>263.54</ele>
        <time>2020-07-09T14:05:55Z</time>
      </trkpt>
      <trkpt lat="37.6442596223" lon="-6.0140470415">
        <ele>263.54</ele>
        <time>2020-07-09T14:05:56Z</time>
      </trkpt>
      <trkpt lat="37.6442732848" lon="-6.0140420124">
        <ele>264.02</ele>
        <time>2020-07-09T14:05:57Z</time>
      </trkpt>
      <trkpt lat="37.6443977561" lon="-6.0140169505">
        <ele>264.50</ele>
        <time>2020-07-09T14:06:04Z</time>
      </trkpt>
      <trkpt lat="37.6445998438" lon="-6.0139734484">
        <ele>264.98</ele>
        <time>2020-07-09T14:06:12Z</time>
      </trkpt>
      <trkpt lat="37.6449030172" lon="-6.0139117576">
        <ele>265.94</ele>
        <time>2020-07-09T14:06:24Z</time>
      </trkpt>
      <trkpt lat="37.6452228706" lon="-6.0138385836">
        <ele>267.38</ele>
        <time>2020-07-09T14:06:36Z</time>
      </trkpt>
      <trkpt lat="37.6455711387" lon="-6.0137579497">
        <ele>268.35</ele>
        <time>2020-07-09T14:06:48Z</time>
      </trkpt>
      <trkpt lat="37.6458345819" lon="-6.0136895534">
        <ele>268.35</ele>
        <time>2020-07-09T14:06:57Z</time>
      </trkpt>
      <trkpt lat="37.6461340673" lon="-6.0135996155">
        <ele>269.31</ele>
        <time>2020-07-09T14:07:08Z</time>
      </trkpt>
      <trkpt lat="37.6462862827" lon="-6.0135398526">
        <ele>269.31</ele>
        <time>2020-07-09T14:07:15Z</time>
      </trkpt>
      <trkpt lat="37.6465465408" lon="-6.0134226736">
        <ele>269.79</ele>
        <time>2020-07-09T14:07:25Z</time>
      </trkpt>
      <trkpt lat="37.6465824991" lon="-6.0134019703">
        <ele>270.27</ele>
        <time>2020-07-09T14:07:31Z</time>
      </trkpt>
      <trkpt lat="37.6465913001" lon="-6.0134027246">
        <ele>270.27</ele>
        <time>2020-07-09T14:07:42Z</time>
      </trkpt>
      <trkpt lat="37.6466278452" lon="-6.0133774951">
        <ele>270.27</ele>
        <time>2020-07-09T14:07:53Z</time>
      </trkpt>
      <trkpt lat="37.6467813179" lon="-6.0132973641">
        <ele>270.75</ele>
        <time>2020-07-09T14:08:00Z</time>
      </trkpt>
      <trkpt lat="37.6470824797" lon="-6.0131149739">
        <ele>271.23</ele>
        <time>2020-07-09T14:08:12Z</time>
      </trkpt>
      <trkpt lat="37.6474041771" lon="-6.0129179992">
        <ele>271.71</ele>
        <time>2020-07-09T14:08:24Z</time>
      </trkpt>
      <trkpt lat="37.6476134732" lon="-6.0127795301">
        <ele>272.19</ele>
        <time>2020-07-09T14:08:32Z</time>
      </trkpt>
      <trkpt lat="37.6478542015" lon="-6.0126242973">
        <ele>272.67</ele>
        <time>2020-07-09T14:08:41Z</time>
      </trkpt>
      <trkpt lat="37.6481192373" lon="-6.0124588385">
        <ele>273.15</ele>
        <time>2020-07-09T14:08:51Z</time>
      </trkpt>
      <trkpt lat="37.6483159605" lon="-6.0123393964">
        <ele>273.63</ele>
        <time>2020-07-09T14:08:59Z</time>
      </trkpt>
      <trkpt lat="37.6485650707" lon="-6.0121799726">
        <ele>274.59</ele>
        <time>2020-07-09T14:09:09Z</time>
      </trkpt>
      <trkpt lat="37.6488414221" lon="-6.0119985882">
        <ele>275.56</ele>
        <time>2020-07-09T14:09:20Z</time>
      </trkpt>
      <trkpt lat="37.6490430068" lon="-6.0118693393">
        <ele>276.04</ele>
        <time>2020-07-09T14:09:29Z</time>
      </trkpt>
      <trkpt lat="37.6492852438" lon="-6.0117192194">
        <ele>277.00</ele>
        <time>2020-07-09T14:09:40Z</time>
      </trkpt>
      <trkpt lat="37.6494658738" lon="-6.0116048064">
        <ele>277.00</ele>
        <time>2020-07-09T14:09:48Z</time>
      </trkpt>
      <trkpt lat="37.6496832166" lon="-6.0114650801">
        <ele>277.96</ele>
        <time>2020-07-09T14:09:58Z</time>
      </trkpt>
      <trkpt lat="37.6498829573" lon="-6.0113319755">
        <ele>278.92</ele>
        <time>2020-07-09T14:10:08Z</time>
      </trkpt>
      <trkpt lat="37.6500497572" lon="-6.0111998767">
        <ele>279.88</ele>
        <time>2020-07-09T14:10:17Z</time>
      </trkpt>
      <trkpt lat="37.6502254419" lon="-6.0110770818">
        <ele>280.36</ele>
        <time>2020-07-09T14:10:26Z</time>
      </trkpt>
      <trkpt lat="37.6504242606" lon="-6.0109324940">
        <ele>281.32</ele>
        <time>2020-07-09T14:10:36Z</time>
      </trkpt>
      <trkpt lat="37.6505940780" lon="-6.0108115431">
        <ele>282.28</ele>
        <time>2020-07-09T14:10:45Z</time>
      </trkpt>
      <trkpt lat="37.6507607941" lon="-6.0106860660">
        <ele>283.25</ele>
        <time>2020-07-09T14:10:54Z</time>
      </trkpt>
      <trkpt lat="37.6509570982" lon="-6.0105392151">
        <ele>283.73</ele>
        <time>2020-07-09T14:11:04Z</time>
      </trkpt>
      <trkpt lat="37.6511333697" lon="-6.0104092956">
        <ele>284.69</ele>
        <time>2020-07-09T14:11:13Z</time>
      </trkpt>
      <trkpt lat="37.6513662189" lon="-6.0102341138">
        <ele>285.17</ele>
        <time>2020-07-09T14:11:25Z</time>
      </trkpt>
      <trkpt lat="37.6515242178" lon="-6.0101204552">
        <ele>285.65</ele>
        <time>2020-07-09T14:11:33Z</time>
      </trkpt>
      <trkpt lat="37.6517159957" lon="-6.0099767055">
        <ele>285.65</ele>
        <time>2020-07-09T14:11:43Z</time>
      </trkpt>
      <trkpt lat="37.6519044209" lon="-6.0098409187">
        <ele>287.09</ele>
        <time>2020-07-09T14:11:53Z</time>
      </trkpt>
      <trkpt lat="37.6519826241" lon="-6.0097630508">
        <ele>287.09</ele>
        <time>2020-07-09T14:12:00Z</time>
      </trkpt>
      <trkpt lat="37.6519821212" lon="-6.0097662359">
        <ele>287.57</ele>
        <time>2020-07-09T14:12:10Z</time>
      </trkpt>
      <trkpt lat="37.6519854739" lon="-6.0097577702">
        <ele>287.09</ele>
        <time>2020-07-09T14:12:27Z</time>
      </trkpt>
      <trkpt lat="37.6520133857" lon="-6.0097442754">
        <ele>286.61</ele>
        <time>2020-07-09T14:12:36Z</time>
      </trkpt>
      <trkpt lat="37.6521549560" lon="-6.0096362326">
        <ele>287.57</ele>
        <time>2020-07-09T14:12:44Z</time>
      </trkpt>
      <trkpt lat="37.6522956043" lon="-6.0095075704">
        <ele>288.05</ele>
        <time>2020-07-09T14:12:51Z</time>
      </trkpt>
      <trkpt lat="37.6524821017" lon="-6.0093127750">
        <ele>289.01</ele>
        <time>2020-07-09T14:13:01Z</time>
      </trkpt>
      <trkpt lat="37.6526706945" lon="-6.0090704542">
        <ele>289.49</ele>
        <time>2020-07-09T14:13:12Z</time>
      </trkpt>
      <trkpt lat="37.6528338902" lon="-6.0088229366">
        <ele>289.97</ele>
        <time>2020-07-09T14:13:23Z</time>
      </trkpt>
      <trkpt lat="37.6529732812" lon="-6.0085735749">
        <ele>290.46</ele>
        <time>2020-07-09T14:13:34Z</time>
      </trkpt>
      <trkpt lat="37.6530748699" lon="-6.0083779413">
        <ele>290.46</ele>
        <time>2020-07-09T14:13:42Z</time>
      </trkpt>
      <trkpt lat="37.6531992573" lon="-6.0081297532">
        <ele>290.94</ele>
        <time>2020-07-09T14:13:52Z</time>
      </trkpt>
      <trkpt lat="37.6533244830" lon="-6.0078819003">
        <ele>290.94</ele>
        <time>2020-07-09T14:14:02Z</time>
      </trkpt>
      <trkpt lat="37.6534348726" lon="-6.0076634679">
        <ele>291.90</ele>
        <time>2020-07-09T14:14:11Z</time>
      </trkpt>
      <trkpt lat="37.6535867527" lon="-6.0073597077">
        <ele>293.82</ele>
        <time>2020-07-09T14:14:23Z</time>
      </trkpt>
      <trkpt lat="37.6537093800" lon="-6.0071047302">
        <ele>294.30</ele>
        <time>2020-07-09T14:14:33Z</time>
      </trkpt>
      <trkpt lat="37.6538695581" lon="-6.0067732260">
        <ele>294.78</ele>
        <time>2020-07-09T14:14:45Z</time>
      </trkpt>
      <trkpt lat="37.6540102065" lon="-6.0065098666">
        <ele>294.78</ele>
        <time>2020-07-09T14:14:55Z</time>
      </trkpt>
      <trkpt lat="37.6541776769" lon="-6.0062197689">
        <ele>295.26</ele>
        <time>2020-07-09T14:15:06Z</time>
      </trkpt>
      <trkpt lat="37.6543205045" lon="-6.0059976485">
        <ele>295.74</ele>
        <time>2020-07-09T14:15:15Z</time>
      </trkpt>
      <trkpt lat="37.6545207482" lon="-6.0057448503">
        <ele>296.22</ele>
        <time>2020-07-09T14:15:26Z</time>
      </trkpt>
      <trkpt lat="37.6547670923" lon="-6.0054901242">
        <ele>297.67</ele>
        <time>2020-07-09T14:15:38Z</time>
      </trkpt>
      <trkpt lat="37.6549132727" lon="-6.0053400043">
        <ele>298.15</ele>
        <time>2020-07-09T14:15:46Z</time>
      </trkpt>
      <trkpt lat="37.6550934836" lon="-6.0051499028">
        <ele>299.11</ele>
        <time>2020-07-09T14:15:55Z</time>
      </trkpt>
      <trkpt lat="37.6553191245" lon="-6.0049197357">
        <ele>299.59</ele>
        <time>2020-07-09T14:16:06Z</time>
      </trkpt>
      <trkpt lat="37.6555283368" lon="-6.0047011357">
        <ele>300.55</ele>
        <time>2020-07-09T14:16:16Z</time>
      </trkpt>
      <trkpt lat="37.6557283290" lon="-6.0044940189">
        <ele>301.03</ele>
        <time>2020-07-09T14:16:26Z</time>
      </trkpt>
      <trkpt lat="37.6559320930" lon="-6.0042847227">
        <ele>301.51</ele>
        <time>2020-07-09T14:16:36Z</time>
      </trkpt>
      <trkpt lat="37.6561140642" lon="-6.0040897597">
        <ele>302.47</ele>
        <time>2020-07-09T14:16:46Z</time>
      </trkpt>
      <trkpt lat="37.6563212648" lon="-6.0038802121">
        <ele>302.95</ele>
        <time>2020-07-09T14:16:57Z</time>
      </trkpt>
      <trkpt lat="37.6564883161" lon="-6.0037041921">
        <ele>302.95</ele>
        <time>2020-07-09T14:17:06Z</time>
      </trkpt>
      <trkpt lat="37.6567080058" lon="-6.0034750309">
        <ele>304.39</ele>
        <time>2020-07-09T14:17:18Z</time>
      </trkpt>
      <trkpt lat="37.6568866242" lon="-6.0032925569">
        <ele>304.39</ele>
        <time>2020-07-09T14:17:28Z</time>
      </trkpt>
      <trkpt lat="37.6570563577" lon="-6.0031136870">
        <ele>305.36</ele>
        <time>2020-07-09T14:17:38Z</time>
      </trkpt>
      <trkpt lat="37.6572120935" lon="-6.0029592086">
        <ele>305.36</ele>
        <time>2020-07-09T14:17:47Z</time>
      </trkpt>
      <trkpt lat="37.6573338825" lon="-6.0028316360">
        <ele>305.84</ele>
        <time>2020-07-09T14:17:55Z</time>
      </trkpt>
      <trkpt lat="37.6575129200" lon="-6.0026452225">
        <ele>306.32</ele>
        <time>2020-07-09T14:18:06Z</time>
      </trkpt>
      <trkpt lat="37.6576808933" lon="-6.0024681967">
        <ele>307.28</ele>
        <time>2020-07-09T14:18:16Z</time>
      </trkpt>
      <trkpt lat="37.6578234695" lon="-6.0023155622">
        <ele>308.24</ele>
        <time>2020-07-09T14:18:25Z</time>
      </trkpt>
      <trkpt lat="37.6579357870" lon="-6.0021979641">
        <ele>308.72</ele>
        <time>2020-07-09T14:18:33Z</time>
      </trkpt>
      <trkpt lat="37.6581167523" lon="-6.0020132270">
        <ele>309.68</ele>
        <time>2020-07-09T14:18:43Z</time>
      </trkpt>
      <trkpt lat="37.6582905930" lon="-6.0018272325">
        <ele>311.12</ele>
        <time>2020-07-09T14:18:53Z</time>
      </trkpt>
      <trkpt lat="37.6584785990" lon="-6.0016440880">
        <ele>311.60</ele>
        <time>2020-07-09T14:19:04Z</time>
      </trkpt>
      <trkpt lat="37.6586322393" lon="-6.0014854185">
        <ele>312.09</ele>
        <time>2020-07-09T14:19:15Z</time>
      </trkpt>
      <trkpt lat="37.6586347539" lon="-6.0014808923">
        <ele>312.09</ele>
        <time>2020-07-09T14:19:21Z</time>
      </trkpt>
      <trkpt lat="37.6586438902" lon="-6.0014861729">
        <ele>313.05</ele>
        <time>2020-07-09T14:19:35Z</time>
      </trkpt>
      <trkpt lat="37.6586384419" lon="-6.0014810599">
        <ele>311.60</ele>
        <time>2020-07-09T14:19:53Z</time>
      </trkpt>
      <trkpt lat="37.6587457303" lon="-6.0013742745">
        <ele>311.12</ele>
        <time>2020-07-09T14:20:00Z</time>
      </trkpt>
      <trkpt lat="37.6589567028" lon="-6.0011631344">
        <ele>312.09</ele>
        <time>2020-07-09T14:20:10Z</time>
      </trkpt>
      <trkpt lat="37.6591475587" lon="-6.0009877849">
        <ele>313.53</ele>
        <time>2020-07-09T14:20:19Z</time>
      </trkpt>
      <trkpt lat="37.6594290230" lon="-6.0007338133">
        <ele>314.01</ele>
        <time>2020-07-09T14:20:31Z</time>
      </trkpt>
      <trkpt lat="37.6597037818" lon="-6.0005077533">
        <ele>315.45</ele>
        <time>2020-07-09T14:20:44Z</time>
      </trkpt>
      <trkpt lat="37.6598715875" lon="-6.0003720503">
        <ele>316.41</ele>
        <time>2020-07-09T14:20:53Z</time>
      </trkpt>
      <trkpt lat="37.6600372139" lon="-6.0002453998">
        <ele>316.89</ele>
        <time>2020-07-09T14:21:02Z</time>
      </trkpt>
      <trkpt lat="37.6601985656" lon="-6.0001218505">
        <ele>316.89</ele>
        <time>2020-07-09T14:21:12Z</time>
      </trkpt>
      <trkpt lat="37.6603486016" lon="-5.9999919310">
        <ele>318.33</ele>
        <time>2020-07-09T14:21:22Z</time>
      </trkpt>
      <trkpt lat="37.6604838017" lon="-5.9998595808">
        <ele>319.30</ele>
        <time>2020-07-09T14:21:32Z</time>
      </trkpt>
      <trkpt lat="37.6605978794" lon="-5.9997235425">
        <ele>320.74</ele>
        <time>2020-07-09T14:21:41Z</time>
      </trkpt>
      <trkpt lat="37.6607096940" lon="-5.9995927010">
        <ele>321.70</ele>
        <time>2020-07-09T14:21:50Z</time>
      </trkpt>
      <trkpt lat="37.6608405355" lon="-5.9994942136">
        <ele>322.66</ele>
        <time>2020-07-09T14:22:00Z</time>
      </trkpt>
      <trkpt lat="37.6609469019" lon="-5.9994272422">
        <ele>323.62</ele>
        <time>2020-07-09T14:22:08Z</time>
      </trkpt>
      <trkpt lat="37.6610343251" lon="-5.9993711673">
        <ele>324.58</ele>
        <time>2020-07-09T14:22:15Z</time>
      </trkpt>
      <trkpt lat="37.6610639133" lon="-5.9993242286">
        <ele>324.58</ele>
        <time>2020-07-09T14:22:21Z</time>
      </trkpt>
      <trkpt lat="37.6610531844" lon="-5.9993330296">
        <ele>323.62</ele>
        <time>2020-07-09T14:22:32Z</time>
      </trkpt>
      <trkpt lat="37.6610520948" lon="-5.9993484523">
        <ele>323.14</ele>
        <time>2020-07-09T14:22:52Z</time>
      </trkpt>
      <trkpt lat="37.6610468980" lon="-5.9993275814">
        <ele>323.62</ele>
        <time>2020-07-09T14:23:09Z</time>
      </trkpt>
      <trkpt lat="37.6610466465" lon="-5.9993239772">
        <ele>321.70</ele>
        <time>2020-07-09T14:23:31Z</time>
      </trkpt>
      <trkpt lat="37.6610355824" lon="-5.9993246477">
        <ele>320.74</ele>
        <time>2020-07-09T14:23:51Z</time>
      </trkpt>
      <trkpt lat="37.6610477362" lon="-5.9993336163">
        <ele>321.70</ele>
        <time>2020-07-09T14:24:14Z</time>
      </trkpt>
      <trkpt lat="37.6610572077" lon="-5.9993253183">
        <ele>321.22</ele>
        <time>2020-07-09T14:24:30Z</time>
      </trkpt>
      <trkpt lat="37.6610417012" lon="-5.9993337840">
        <ele>320.74</ele>
        <time>2020-07-09T14:24:51Z</time>
      </trkpt>
      <trkpt lat="37.6610369235" lon="-5.9993345384">
        <ele>319.78</ele>
        <time>2020-07-09T14:25:07Z</time>
      </trkpt>
      <trkpt lat="37.6610598061" lon="-5.9993217979">
        <ele>321.70</ele>
        <time>2020-07-09T14:25:25Z</time>
      </trkpt>
      <trkpt lat="37.6610554475" lon="-5.9993225522">
        <ele>324.58</ele>
        <time>2020-07-09T14:25:44Z</time>
      </trkpt>
      <trkpt lat="37.6610597223" lon="-5.9993357118">
        <ele>324.58</ele>
        <time>2020-07-09T14:26:03Z</time>
      </trkpt>
      <trkpt lat="37.6610469818" lon="-5.9993347898">
        <ele>323.62</ele>
        <time>2020-07-09T14:26:22Z</time>
      </trkpt>
      <trkpt lat="37.6610520110" lon="-5.9993285034">
        <ele>323.62</ele>
        <time>2020-07-09T14:26:38Z</time>
      </trkpt>
      <trkpt lat="37.6610505022" lon="-5.9993180260">
        <ele>322.18</ele>
        <time>2020-07-09T14:26:59Z</time>
      </trkpt>
      <trkpt lat="37.6610591356" lon="-5.9993159305">
        <ele>323.62</ele>
        <time>2020-07-09T14:27:17Z</time>
      </trkpt>
      <trkpt lat="37.6610680204" lon="-5.9993087221">
        <ele>322.66</ele>
        <time>2020-07-09T14:27:45Z</time>
      </trkpt>
      <trkpt lat="37.6610521786" lon="-5.9993291739">
        <ele>322.66</ele>
        <time>2020-07-09T14:28:13Z</time>
      </trkpt>
      <trkpt lat="37.6610453054" lon="-5.9993472788">
        <ele>323.14</ele>
        <time>2020-07-09T14:28:40Z</time>
      </trkpt>
      <trkpt lat="37.6610571239" lon="-5.9993288387">
        <ele>323.14</ele>
        <time>2020-07-09T14:29:05Z</time>
      </trkpt>
      <trkpt lat="37.6610634942" lon="-5.9993159305">
        <ele>324.58</ele>
        <time>2020-07-09T14:29:24Z</time>
      </trkpt>
      <trkpt lat="37.6610584650" lon="-5.9993241448">
        <ele>323.14</ele>
        <time>2020-07-09T14:29:43Z</time>
      </trkpt>
      <trkpt lat="37.6610427070" lon="-5.9993277490">
        <ele>322.66</ele>
        <time>2020-07-09T14:30:00Z</time>
      </trkpt>
      <trkpt lat="37.6610581297" lon="-5.9993164334">
        <ele>318.81</ele>
        <time>2020-07-09T14:30:18Z</time>
      </trkpt>
      <trkpt lat="37.6610552799" lon="-5.9993205406">
        <ele>317.85</ele>
        <time>2020-07-09T14:30:36Z</time>
      </trkpt>
      <trkpt lat="37.6610570401" lon="-5.9993154276">
        <ele>317.85</ele>
        <time>2020-07-09T14:30:49Z</time>
      </trkpt>
      <trkpt lat="37.6610584650" lon="-5.9993192833">
        <ele>317.37</ele>
        <time>2020-07-09T14:31:05Z</time>
      </trkpt>
      <trkpt lat="37.6610729657" lon="-5.9993090574">
        <ele>318.81</ele>
        <time>2020-07-09T14:31:22Z</time>
      </trkpt>
      <trkpt lat="37.6610575430" lon="-5.9993473627">
        <ele>320.74</ele>
        <time>2020-07-09T14:31:45Z</time>
      </trkpt>
      <trkpt lat="37.6610504184" lon="-5.9993563313">
        <ele>320.74</ele>
        <time>2020-07-09T14:32:05Z</time>
      </trkpt>
      <trkpt lat="37.6610467304" lon="-5.9993322752">
        <ele>320.74</ele>
        <time>2020-07-09T14:32:27Z</time>
      </trkpt>
      <trkpt lat="37.6610507537" lon="-5.9993326105">
        <ele>319.78</ele>
        <time>2020-07-09T14:32:53Z</time>
      </trkpt>
      <trkpt lat="37.6610864606" lon="-5.9993190318">
        <ele>319.30</ele>
        <time>2020-07-09T14:33:14Z</time>
      </trkpt>
      <trkpt lat="37.6610793360" lon="-5.9993417468">
        <ele>319.78</ele>
        <time>2020-07-09T14:33:34Z</time>
      </trkpt>
      <trkpt lat="37.6610740554" lon="-5.9993398190">
        <ele>320.74</ele>
        <time>2020-07-09T14:33:57Z</time>
      </trkpt>
      <trkpt lat="37.6610782463" lon="-5.9993424173">
        <ele>320.74</ele>
        <time>2020-07-09T14:34:13Z</time>
      </trkpt>
      <trkpt lat="37.6610656735" lon="-5.9993476979">
        <ele>323.62</ele>
        <time>2020-07-09T14:34:38Z</time>
      </trkpt>
      <trkpt lat="37.6610432100" lon="-5.9993532300">
        <ele>323.62</ele>
        <time>2020-07-09T14:35:04Z</time>
      </trkpt>
      <trkpt lat="37.6610404439" lon="-5.9993466921">
        <ele>321.70</ele>
        <time>2020-07-09T14:35:27Z</time>
      </trkpt>
      <trkpt lat="37.6610657573" lon="-5.9993520565">
        <ele>322.18</ele>
        <time>2020-07-09T14:35:47Z</time>
      </trkpt>
      <trkpt lat="37.6610572077" lon="-5.9993233066">
        <ele>323.62</ele>
        <time>2020-07-09T14:36:04Z</time>
      </trkpt>
      <trkpt lat="37.6610489096" lon="-5.9993347898">
        <ele>321.70</ele>
        <time>2020-07-09T14:36:22Z</time>
      </trkpt>
      <trkpt lat="37.6610408630" lon="-5.9993309341">
        <ele>321.22</ele>
        <time>2020-07-09T14:36:42Z</time>
      </trkpt>
      <trkpt lat="37.6610443834" lon="-5.9993053693">
        <ele>320.74</ele>
        <time>2020-07-09T14:37:00Z</time>
      </trkpt>
      <trkpt lat="37.6610515919" lon="-5.9993070457">
        <ele>322.18</ele>
        <time>2020-07-09T14:37:13Z</time>
      </trkpt>
      <trkpt lat="37.6610617340" lon="-5.9993385617">
        <ele>322.66</ele>
        <time>2020-07-09T14:37:22Z</time>
      </trkpt>
      <trkpt lat="37.6610696130" lon="-5.9993374720">
        <ele>321.70</ele>
        <time>2020-07-09T14:37:28Z</time>
      </trkpt>
      <trkpt lat="37.6610896457" lon="-5.9993517213">
        <ele>321.70</ele>
        <time>2020-07-09T14:37:37Z</time>
      </trkpt>
      <trkpt lat="37.6611038949" lon="-5.9993510507">
        <ele>321.70</ele>
        <time>2020-07-09T14:37:38Z</time>
      </trkpt>
      <trkpt lat="37.6611200720" lon="-5.9993491229">
        <ele>321.70</ele>
        <time>2020-07-09T14:37:39Z</time>
      </trkpt>
      <trkpt lat="37.6612551883" lon="-5.9992660582">
        <ele>322.66</ele>
        <time>2020-07-09T14:37:46Z</time>
      </trkpt>
      <trkpt lat="37.6614907198" lon="-5.9990756214">
        <ele>324.58</ele>
        <time>2020-07-09T14:37:58Z</time>
      </trkpt>
      <trkpt lat="37.6617349684" lon="-5.9988846816">
        <ele>326.02</ele>
        <time>2020-07-09T14:38:09Z</time>
      </trkpt>
      <trkpt lat="37.6619395707" lon="-5.9987181332">
        <ele>326.99</ele>
        <time>2020-07-09T14:38:18Z</time>
      </trkpt>
      <trkpt lat="37.6621020958" lon="-5.9985912312">
        <ele>328.43</ele>
        <time>2020-07-09T14:38:27Z</time>
      </trkpt>
      <trkpt lat="37.6622962207" lon="-5.9984269459">
        <ele>329.39</ele>
        <time>2020-07-09T14:38:39Z</time>
      </trkpt>
      <trkpt lat="37.6624892559" lon="-5.9982705396">
        <ele>330.35</ele>
        <time>2020-07-09T14:38:49Z</time>
      </trkpt>
      <trkpt lat="37.6626793575" lon="-5.9980957769">
        <ele>330.83</ele>
        <time>2020-07-09T14:38:59Z</time>
      </trkpt>
      <trkpt lat="37.6628762484" lon="-5.9979159012">
        <ele>331.79</ele>
        <time>2020-07-09T14:39:09Z</time>
      </trkpt>
      <trkpt lat="37.6630809344" lon="-5.9977171663">
        <ele>331.79</ele>
        <time>2020-07-09T14:39:19Z</time>
      </trkpt>
      <trkpt lat="37.6633116044" lon="-5.9974691458">
        <ele>331.79</ele>
        <time>2020-07-09T14:39:30Z</time>
      </trkpt>
      <trkpt lat="37.6635245048" lon="-5.9972410742">
        <ele>332.27</ele>
        <time>2020-07-09T14:39:40Z</time>
      </trkpt>
      <trkpt lat="37.6637205575" lon="-5.9970275871">
        <ele>332.75</ele>
        <time>2020-07-09T14:39:49Z</time>
      </trkpt>
      <trkpt lat="37.6639318652" lon="-5.9967910498">
        <ele>332.27</ele>
        <time>2020-07-09T14:39:59Z</time>
      </trkpt>
      <trkpt lat="37.6641404070" lon="-5.9965678398">
        <ele>333.23</ele>
        <time>2020-07-09T14:40:09Z</time>
      </trkpt>
      <trkpt lat="37.6643134933" lon="-5.9963623155">
        <ele>333.71</ele>
        <time>2020-07-09T14:40:18Z</time>
      </trkpt>
      <trkpt lat="37.6644657925" lon="-5.9962012991">
        <ele>334.20</ele>
        <time>2020-07-09T14:40:26Z</time>
      </trkpt>
      <trkpt lat="37.6646299101" lon="-5.9960165620">
        <ele>334.68</ele>
        <time>2020-07-09T14:40:35Z</time>
      </trkpt>
      <trkpt lat="37.6648071036" lon="-5.9958248679">
        <ele>335.16</ele>
        <time>2020-07-09T14:40:45Z</time>
      </trkpt>
      <trkpt lat="37.6649344247" lon="-5.9956760891">
        <ele>336.12</ele>
        <time>2020-07-09T14:40:54Z</time>
      </trkpt>
      <trkpt lat="37.6650915854" lon="-5.9954984765">
        <ele>337.56</ele>
        <time>2020-07-09T14:41:05Z</time>
      </trkpt>
      <trkpt lat="37.6652321499" lon="-5.9953469317">
        <ele>338.52</ele>
        <time>2020-07-09T14:41:16Z</time>
      </trkpt>
      <trkpt lat="37.6653627399" lon="-5.9951946326">
        <ele>339.96</ele>
        <time>2020-07-09T14:41:26Z</time>
      </trkpt>
      <trkpt lat="37.6655010413" lon="-5.9950477816">
        <ele>340.92</ele>
        <time>2020-07-09T14:41:37Z</time>
      </trkpt>
      <trkpt lat="37.6656383369" lon="-5.9948910400">
        <ele>342.37</ele>
        <time>2020-07-09T14:41:49Z</time>
      </trkpt>
      <trkpt lat="37.6657637302" lon="-5.9947543312">
        <ele>343.33</ele>
        <time>2020-07-09T14:41:59Z</time>
      </trkpt>
      <trkpt lat="37.6658484712" lon="-5.9946503956">
        <ele>343.81</ele>
        <time>2020-07-09T14:42:07Z</time>
      </trkpt>
      <trkpt lat="37.6659413427" lon="-5.9945540875">
        <ele>343.81</ele>
        <time>2020-07-09T14:42:15Z</time>
      </trkpt>
      <trkpt lat="37.6660647243" lon="-5.9944131039">
        <ele>344.29</ele>
        <time>2020-07-09T14:42:25Z</time>
      </trkpt>
      <trkpt lat="37.6661942247" lon="-5.9942700248">
        <ele>344.77</ele>
        <time>2020-07-09T14:42:35Z</time>
      </trkpt>
      <trkpt lat="37.6663142536" lon="-5.9941226710">
        <ele>344.77</ele>
        <time>2020-07-09T14:42:45Z</time>
      </trkpt>
      <trkpt lat="37.6664129086" lon="-5.9939923324">
        <ele>345.25</ele>
        <time>2020-07-09T14:42:53Z</time>
      </trkpt>
      <trkpt lat="37.6665478572" lon="-5.9938034881">
        <ele>345.25</ele>
        <time>2020-07-09T14:43:03Z</time>
      </trkpt>
      <trkpt lat="37.6666952949" lon="-5.9935725667">
        <ele>345.25</ele>
        <time>2020-07-09T14:43:13Z</time>
      </trkpt>
      <trkpt lat="37.6668314170" lon="-5.9933208581">
        <ele>346.21</ele>
        <time>2020-07-09T14:43:22Z</time>
      </trkpt>
      <trkpt lat="37.6669279765" lon="-5.9930489492">
        <ele>348.13</ele>
        <time>2020-07-09T14:43:31Z</time>
      </trkpt>
      <trkpt lat="37.6670843828" lon="-5.9928010963">
        <ele>348.62</ele>
        <time>2020-07-09T14:43:40Z</time>
      </trkpt>
      <trkpt lat="37.6672834530" lon="-5.9925132617">
        <ele>348.62</ele>
        <time>2020-07-09T14:43:49Z</time>
      </trkpt>
      <trkpt lat="37.6674926654" lon="-5.9921658318">
        <ele>348.13</ele>
        <time>2020-07-09T14:43:59Z</time>
      </trkpt>
      <trkpt lat="37.6676700264" lon="-5.9918720461">
        <ele>348.13</ele>
        <time>2020-07-09T14:44:08Z</time>
      </trkpt>
      <trkpt lat="37.6679062285" lon="-5.9914666973">
        <ele>347.65</ele>
        <time>2020-07-09T14:44:19Z</time>
      </trkpt>
      <trkpt lat="37.6680995151" lon="-5.9911336005">
        <ele>348.62</ele>
        <time>2020-07-09T14:44:29Z</time>
      </trkpt>
      <trkpt lat="37.6682718471" lon="-5.9910777770">
        <ele>349.58</ele>
        <time>2020-07-09T14:44:35Z</time>
      </trkpt>
      <trkpt lat="37.6684921235" lon="-5.9910994023">
        <ele>350.06</ele>
        <time>2020-07-09T14:44:43Z</time>
      </trkpt>
      <trkpt lat="37.6687051915" lon="-5.9910581633">
        <ele>349.10</ele>
        <time>2020-07-09T14:44:50Z</time>
      </trkpt>
      <trkpt lat="37.6689984743" lon="-5.9909967240">
        <ele>348.13</ele>
        <time>2020-07-09T14:44:58Z</time>
      </trkpt>
      <trkpt lat="37.6694629993" lon="-5.9909747634">
        <ele>348.62</ele>
        <time>2020-07-09T14:45:09Z</time>
      </trkpt>
      <trkpt lat="37.6699014567" lon="-5.9909416549">
        <ele>349.58</ele>
        <time>2020-07-09T14:45:20Z</time>
      </trkpt>
      <trkpt lat="37.6703877747" lon="-5.9907854162">
        <ele>350.06</ele>
        <time>2020-07-09T14:45:31Z</time>
      </trkpt>
      <trkpt lat="37.6708012540" lon="-5.9906373080">
        <ele>349.58</ele>
        <time>2020-07-09T14:45:41Z</time>
      </trkpt>
      <trkpt lat="37.6711635198" lon="-5.9905472025">
        <ele>350.06</ele>
        <time>2020-07-09T14:45:51Z</time>
      </trkpt>
      <trkpt lat="37.6713990513" lon="-5.9904462006">
        <ele>349.58</ele>
        <time>2020-07-09T14:45:59Z</time>
      </trkpt>
      <trkpt lat="37.6716135442" lon="-5.9904386569">
        <ele>348.62</ele>
        <time>2020-07-09T14:46:05Z</time>
      </trkpt>
      <trkpt lat="37.6716572139" lon="-5.9904478770">
        <ele>348.62</ele>
        <time>2020-07-09T14:46:06Z</time>
      </trkpt>
      <trkpt lat="37.6717528515" lon="-5.9904665686">
        <ele>348.13</ele>
        <time>2020-07-09T14:46:08Z</time>
      </trkpt>
      <trkpt lat="37.6718088426" lon="-5.9904657304">
        <ele>347.65</ele>
        <time>2020-07-09T14:46:09Z</time>
      </trkpt>
      <trkpt lat="37.6718648337" lon="-5.9904576000">
        <ele>347.65</ele>
        <time>2020-07-09T14:46:10Z</time>
      </trkpt>
      <trkpt lat="37.6719162986" lon="-5.9904433507">
        <ele>347.17</ele>
        <time>2020-07-09T14:46:11Z</time>
      </trkpt>
      <trkpt lat="37.6719655003" lon="-5.9904233180">
        <ele>347.17</ele>
        <time>2020-07-09T14:46:12Z</time>
      </trkpt>
      <trkpt lat="37.6723130979" lon="-5.9902626369">
        <ele>344.29</ele>
        <time>2020-07-09T14:46:19Z</time>
      </trkpt>
      <trkpt lat="37.6728030201" lon="-5.9900286142">
        <ele>339.96</ele>
        <time>2020-07-09T14:46:28Z</time>
      </trkpt>
      <trkpt lat="37.6730018388" lon="-5.9899256844">
        <ele>338.52</ele>
        <time>2020-07-09T14:46:33Z</time>
      </trkpt>
      <trkpt lat="37.6732942834" lon="-5.9897588007">
        <ele>335.64</ele>
        <time>2020-07-09T14:46:41Z</time>
      </trkpt>
      <trkpt lat="37.6735309884" lon="-5.9896142129">
        <ele>334.20</ele>
        <time>2020-07-09T14:46:49Z</time>
      </trkpt>
      <trkpt lat="37.6737190783" lon="-5.9895298071">
        <ele>334.68</ele>
        <time>2020-07-09T14:46:56Z</time>
      </trkpt>
      <trkpt lat="37.6739588846" lon="-5.9893682040">
        <ele>333.71</ele>
        <time>2020-07-09T14:47:05Z</time>
      </trkpt>
      <trkpt lat="37.6742465515" lon="-5.9891734924">
        <ele>331.31</ele>
        <time>2020-07-09T14:47:16Z</time>
      </trkpt>
      <trkpt lat="37.6744713541" lon="-5.9890211094">
        <ele>331.79</ele>
        <time>2020-07-09T14:47:25Z</time>
      </trkpt>
      <trkpt lat="37.6746596955" lon="-5.9889011644">
        <ele>330.83</ele>
        <time>2020-07-09T14:47:33Z</time>
      </trkpt>
      <trkpt lat="37.6748098154" lon="-5.9887999110">
        <ele>329.39</ele>
        <time>2020-07-09T14:47:40Z</time>
      </trkpt>
      <trkpt lat="37.6750077121" lon="-5.9886872582">
        <ele>326.99</ele>
        <time>2020-07-09T14:47:49Z</time>
      </trkpt>
      <trkpt lat="37.6751558203" lon="-5.9886010084">
        <ele>324.58</ele>
        <time>2020-07-09T14:47:58Z</time>
      </trkpt>
      <trkpt lat="37.6753516216" lon="-5.9884749446">
        <ele>322.66</ele>
        <time>2020-07-09T14:48:07Z</time>
      </trkpt>
      <trkpt lat="37.6755268034" lon="-5.9883527365">
        <ele>322.18</ele>
        <time>2020-07-09T14:48:16Z</time>
      </trkpt>
      <trkpt lat="37.6755377837" lon="-5.9883422591">
        <ele>322.66</ele>
        <time>2020-07-09T14:48:23Z</time>
      </trkpt>
      <trkpt lat="37.6755297370" lon="-5.9883469529">
        <ele>321.22</ele>
        <time>2020-07-09T14:48:37Z</time>
      </trkpt>
      <trkpt lat="37.6755371131" lon="-5.9883433487">
        <ele>320.26</ele>
        <time>2020-07-09T14:48:52Z</time>
      </trkpt>
      <trkpt lat="37.6755284797" lon="-5.9883585200">
        <ele>319.78</ele>
        <time>2020-07-09T14:49:05Z</time>
      </trkpt>
      <trkpt lat="37.6755319163" lon="-5.9883677401">
        <ele>320.26</ele>
        <time>2020-07-09T14:49:15Z</time>
      </trkpt>
      <trkpt lat="37.6755475067" lon="-5.9883548319">
        <ele>320.26</ele>
        <time>2020-07-09T14:49:24Z</time>
      </trkpt>
      <trkpt lat="37.6755536254" lon="-5.9883502219">
        <ele>319.78</ele>
        <time>2020-07-09T14:49:32Z</time>
      </trkpt>
      <trkpt lat="37.6755657792" lon="-5.9883575980">
        <ele>320.26</ele>
        <time>2020-07-09T14:49:52Z</time>
      </trkpt>
      <trkpt lat="37.6755641866" lon="-5.9883375652">
        <ele>320.26</ele>
        <time>2020-07-09T14:50:08Z</time>
      </trkpt>
      <trkpt lat="37.6755610853" lon="-5.9883379843">
        <ele>318.81</ele>
        <time>2020-07-09T14:50:28Z</time>
      </trkpt>
      <trkpt lat="37.6755537093" lon="-5.9883378167">
        <ele>319.78</ele>
        <time>2020-07-09T14:50:50Z</time>
      </trkpt>
      <trkpt lat="37.6755661983" lon="-5.9883498028">
        <ele>320.26</ele>
        <time>2020-07-09T14:51:12Z</time>
      </trkpt>
      <trkpt lat="37.6755627617" lon="-5.9883123357">
        <ele>318.81</ele>
        <time>2020-07-09T14:51:37Z</time>
      </trkpt>
      <trkpt lat="37.6755288988" lon="-5.9883394931">
        <ele>318.81</ele>
        <time>2020-07-09T14:51:44Z</time>
      </trkpt>
      <trkpt lat="37.6755204331" lon="-5.9883469529">
        <ele>318.81</ele>
        <time>2020-07-09T14:51:45Z</time>
      </trkpt>
      <trkpt lat="37.6754664537" lon="-5.9883415885">
        <ele>320.74</ele>
        <time>2020-07-09T14:51:52Z</time>
      </trkpt>
      <trkpt lat="37.6754677109" lon="-5.9883244894">
        <ele>320.74</ele>
        <time>2020-07-09T14:52:00Z</time>
      </trkpt>
      <trkpt lat="37.6754749194" lon="-5.9882907942">
        <ele>320.26</ele>
        <time>2020-07-09T14:52:16Z</time>
      </trkpt>
      <trkpt lat="37.6754411403" lon="-5.9881755430">
        <ele>320.26</ele>
        <time>2020-07-09T14:52:31Z</time>
      </trkpt>
      <trkpt lat="37.6754016615" lon="-5.9881513193">
        <ele>321.22</ele>
        <time>2020-07-09T14:52:48Z</time>
      </trkpt>
      <trkpt lat="37.6754142344" lon="-5.9881562646">
        <ele>321.70</ele>
        <time>2020-07-09T14:53:07Z</time>
      </trkpt>
      <trkpt lat="37.6753958780" lon="-5.9881681670">
        <ele>323.62</ele>
        <time>2020-07-09T14:53:30Z</time>
      </trkpt>
      <trkpt lat="37.6754128933" lon="-5.9881591145">
        <ele>324.58</ele>
        <time>2020-07-09T14:53:54Z</time>
      </trkpt>
      <trkpt lat="37.6754214428" lon="-5.9881577734">
        <ele>324.10</ele>
        <time>2020-07-09T14:54:24Z</time>
      </trkpt>
      <trkpt lat="37.6754344348" lon="-5.9881473798">
        <ele>324.10</ele>
        <time>2020-07-09T14:54:52Z</time>
      </trkpt>
      <trkpt lat="37.6754360273" lon="-5.9881639760">
        <ele>325.54</ele>
        <time>2020-07-09T14:55:13Z</time>
      </trkpt>
      <trkpt lat="37.6754335128" lon="-5.9881731123">
        <ele>325.06</ele>
        <time>2020-07-09T14:55:32Z</time>
      </trkpt>
      <trkpt lat="37.6754494384" lon="-5.9881724417">
        <ele>325.06</ele>
        <time>2020-07-09T14:55:49Z</time>
      </trkpt>
      <trkpt lat="37.6754313335" lon="-5.9882149380">
        <ele>321.22</ele>
        <time>2020-07-09T14:56:05Z</time>
      </trkpt>
      <trkpt lat="37.6754427329" lon="-5.9881985094">
        <ele>319.78</ele>
        <time>2020-07-09T14:56:23Z</time>
      </trkpt>
      <trkpt lat="37.6754204370" lon="-5.9881870262">
        <ele>321.70</ele>
        <time>2020-07-09T14:56:40Z</time>
      </trkpt>
      <trkpt lat="37.6753967162" lon="-5.9883517306">
        <ele>314.49</ele>
        <time>2020-07-10T05:14:53Z</time>
      </trkpt>
      <trkpt lat="37.6754050143" lon="-5.9883569274">
        <ele>322.18</ele>
        <time>2020-07-10T05:15:05Z</time>
      </trkpt>
      <trkpt lat="37.6755258814" lon="-5.9882721025">
        <ele>337.08</ele>
        <time>2020-07-10T05:15:18Z</time>
      </trkpt>
      <trkpt lat="37.6754435711" lon="-5.9883379843">
        <ele>331.31</ele>
        <time>2020-07-10T05:15:30Z</time>
      </trkpt>
      <trkpt lat="37.6754417270" lon="-5.9883017745">
        <ele>330.83</ele>
        <time>2020-07-10T05:15:48Z</time>
      </trkpt>
      <trkpt lat="37.6754224487" lon="-5.9883536585">
        <ele>342.85</ele>
        <time>2020-07-10T05:16:02Z</time>
      </trkpt>
      <trkpt lat="37.6753957942" lon="-5.9883492161">
        <ele>340.92</ele>
        <time>2020-07-10T05:16:18Z</time>
      </trkpt>
      <trkpt lat="37.6753889211" lon="-5.9883534908">
        <ele>340.92</ele>
        <time>2020-07-10T05:16:19Z</time>
      </trkpt>
      <trkpt lat="37.6753374562" lon="-5.9884047043">
        <ele>339.96</ele>
        <time>2020-07-10T05:16:28Z</time>
      </trkpt>
      <trkpt lat="37.6752901822" lon="-5.9884435125">
        <ele>338.52</ele>
        <time>2020-07-10T05:16:35Z</time>
      </trkpt>
      <trkpt lat="37.6751046907" lon="-5.9885509685">
        <ele>337.56</ele>
        <time>2020-07-10T05:16:44Z</time>
      </trkpt>
      <trkpt lat="37.6748926286" lon="-5.9886868391">
        <ele>338.52</ele>
        <time>2020-07-10T05:16:52Z</time>
      </trkpt>
      <trkpt lat="37.6747479569" lon="-5.9888082929">
        <ele>338.04</ele>
        <time>2020-07-10T05:16:59Z</time>
      </trkpt>
      <trkpt lat="37.6746050455" lon="-5.9889077861">
        <ele>339.48</ele>
        <time>2020-07-10T05:17:05Z</time>
      </trkpt>
      <trkpt lat="37.6744503155" lon="-5.9890189301">
        <ele>341.41</ele>
        <time>2020-07-10T05:17:11Z</time>
      </trkpt>
      <trkpt lat="37.6744603738" lon="-5.9891301580">
        <ele>341.89</ele>
        <time>2020-07-10T05:17:15Z</time>
      </trkpt>
      <trkpt lat="37.6746178698" lon="-5.9894214291">
        <ele>341.89</ele>
        <time>2020-07-10T05:17:25Z</time>
      </trkpt>
      <trkpt lat="37.6746957377" lon="-5.9895311482">
        <ele>340.92</ele>
        <time>2020-07-10T05:17:32Z</time>
      </trkpt>
      <trkpt lat="37.6747069694" lon="-5.9895348363">
        <ele>340.92</ele>
        <time>2020-07-10T05:17:33Z</time>
      </trkpt>
      <trkpt lat="37.6747461967" lon="-5.9895411227">
        <ele>340.92</ele>
        <time>2020-07-10T05:17:36Z</time>
      </trkpt>
      <trkpt lat="37.6748672314" lon="-5.9894773364">
        <ele>340.92</ele>
        <time>2020-07-10T05:17:45Z</time>
      </trkpt>
      <trkpt lat="37.6749023516" lon="-5.9895054158">
        <ele>340.44</ele>
        <time>2020-07-10T05:17:51Z</time>
      </trkpt>
      <trkpt lat="37.6749083865" lon="-5.9894987941">
        <ele>340.44</ele>
        <time>2020-07-10T05:17:58Z</time>
      </trkpt>
      <trkpt lat="37.6748732664" lon="-5.9894387797">
        <ele>341.89</ele>
        <time>2020-07-10T05:18:12Z</time>
      </trkpt>
      <trkpt lat="37.6748499647" lon="-5.9893967025">
        <ele>346.69</ele>
        <time>2020-07-10T05:18:37Z</time>
      </trkpt>
      <trkpt lat="37.6748181134" lon="-5.9894092754">
        <ele>354.86</ele>
        <time>2020-07-10T05:18:54Z</time>
      </trkpt>
      <trkpt lat="37.6748228073" lon="-5.9893663600">
        <ele>363.04</ele>
        <time>2020-07-10T05:19:13Z</time>
      </trkpt>
      <trkpt lat="37.6748337876" lon="-5.9893543739">
        <ele>363.52</ele>
        <time>2020-07-10T05:19:27Z</time>
      </trkpt>
      <trkpt lat="37.6748223882" lon="-5.9893860575">
        <ele>362.07</ele>
        <time>2020-07-10T05:19:46Z</time>
      </trkpt>
      <trkpt lat="37.6748073846" lon="-5.9893927630">
        <ele>367.36</ele>
        <time>2020-07-10T05:20:08Z</time>
      </trkpt>
      <trkpt lat="37.6747885253" lon="-5.9893857222">
        <ele>372.65</ele>
        <time>2020-07-10T05:20:37Z</time>
      </trkpt>
      <trkpt lat="37.6748249866" lon="-5.9894034080">
        <ele>373.13</ele>
        <time>2020-07-10T05:20:59Z</time>
      </trkpt>
      <trkpt lat="37.6748017687" lon="-5.9893924277">
        <ele>376.97</ele>
        <time>2020-07-10T05:21:23Z</time>
      </trkpt>
      <trkpt lat="37.6748122461" lon="-5.9894364327">
        <ele>378.42</ele>
        <time>2020-07-10T05:21:44Z</time>
      </trkpt>
      <trkpt lat="37.6748352963" lon="-5.9894065093">
        <ele>375.05</ele>
        <time>2020-07-10T05:21:52Z</time>
      </trkpt>
      <trkpt lat="37.6749015134" lon="-5.9893609118">
        <ele>373.61</ele>
        <time>2020-07-10T05:21:57Z</time>
      </trkpt>
      <trkpt lat="37.6748727635" lon="-5.9893230256">
        <ele>370.73</ele>
        <time>2020-07-10T05:22:01Z</time>
      </trkpt>
      <trkpt lat="37.6747908723" lon="-5.9891687147">
        <ele>364.00</ele>
        <time>2020-07-10T05:22:09Z</time>
      </trkpt>
      <trkpt lat="37.6747741923" lon="-5.9890816268">
        <ele>360.15</ele>
        <time>2020-07-10T05:22:16Z</time>
      </trkpt>
      <trkpt lat="37.6747888606" lon="-5.9890515357">
        <ele>355.34</ele>
        <time>2020-07-10T05:22:27Z</time>
      </trkpt>
      <trkpt lat="37.6747494657" lon="-5.9889428224">
        <ele>351.50</ele>
        <time>2020-07-10T05:22:32Z</time>
      </trkpt>
      <trkpt lat="37.6748394873" lon="-5.9887800459">
        <ele>343.81</ele>
        <time>2020-07-10T05:22:39Z</time>
      </trkpt>
      <trkpt lat="37.6748777088" lon="-5.9887500387">
        <ele>343.33</ele>
        <time>2020-07-10T05:22:41Z</time>
      </trkpt>
      <trkpt lat="37.6750525553" lon="-5.9886217117">
        <ele>342.37</ele>
        <time>2020-07-10T05:22:50Z</time>
      </trkpt>
      <trkpt lat="37.6752493624" lon="-5.9884713404">
        <ele>341.41</ele>
        <time>2020-07-10T05:22:59Z</time>
      </trkpt>
      <trkpt lat="37.6755009033" lon="-5.9883007687">
        <ele>340.92</ele>
        <time>2020-07-10T05:23:09Z</time>
      </trkpt>
      <trkpt lat="37.6756842155" lon="-5.9881700948">
        <ele>341.41</ele>
        <time>2020-07-10T05:23:17Z</time>
      </trkpt>
      <trkpt lat="37.6758583914" lon="-5.9880454559">
        <ele>341.89</ele>
        <time>2020-07-10T05:23:25Z</time>
      </trkpt>
      <trkpt lat="37.6760733873" lon="-5.9879247565">
        <ele>342.85</ele>
        <time>2020-07-10T05:23:34Z</time>
      </trkpt>
      <trkpt lat="37.6762841083" lon="-5.9878650773">
        <ele>339.96</ele>
        <time>2020-07-10T05:23:42Z</time>
      </trkpt>
      <trkpt lat="37.6764949132" lon="-5.9877977706">
        <ele>338.04</ele>
        <time>2020-07-10T05:23:50Z</time>
      </trkpt>
      <trkpt lat="37.6767265052" lon="-5.9877430368">
        <ele>334.68</ele>
        <time>2020-07-10T05:23:58Z</time>
      </trkpt>
      <trkpt lat="37.6769688260" lon="-5.9876801725">
        <ele>330.83</ele>
        <time>2020-07-10T05:24:04Z</time>
      </trkpt>
      <trkpt lat="37.6771695726" lon="-5.9876125306">
        <ele>326.50</ele>
        <time>2020-07-10T05:24:09Z</time>
      </trkpt>
      <trkpt lat="37.6774469297" lon="-5.9875234310">
        <ele>327.47</ele>
        <time>2020-07-10T05:24:15Z</time>
      </trkpt>
      <trkpt lat="37.6776792761" lon="-5.9874386899">
        <ele>328.43</ele>
        <time>2020-07-10T05:24:22Z</time>
      </trkpt>
      <trkpt lat="37.6778275520" lon="-5.9874511790">
        <ele>329.39</ele>
        <time>2020-07-10T05:24:28Z</time>
      </trkpt>
      <trkpt lat="37.6780424640" lon="-5.9874744806">
        <ele>328.43</ele>
        <time>2020-07-10T05:24:35Z</time>
      </trkpt>
      <trkpt lat="37.6784750540" lon="-5.9873354249">
        <ele>324.58</ele>
        <time>2020-07-10T05:24:44Z</time>
      </trkpt>
      <trkpt lat="37.6789530739" lon="-5.9870843869">
        <ele>322.66</ele>
        <time>2020-07-10T05:24:52Z</time>
      </trkpt>
      <trkpt lat="37.6792858355" lon="-5.9868712351">
        <ele>318.33</ele>
        <time>2020-07-10T05:24:59Z</time>
      </trkpt>
      <trkpt lat="37.6796209440" lon="-5.9866768587">
        <ele>316.41</ele>
        <time>2020-07-10T05:25:08Z</time>
      </trkpt>
      <trkpt lat="37.6798721496" lon="-5.9864799678">
        <ele>314.49</ele>
        <time>2020-07-10T05:25:17Z</time>
      </trkpt>
      <trkpt lat="37.6800190005" lon="-5.9863221366">
        <ele>313.53</ele>
        <time>2020-07-10T05:25:24Z</time>
      </trkpt>
      <trkpt lat="37.6801116206" lon="-5.9862542432">
        <ele>312.57</ele>
        <time>2020-07-10T05:25:31Z</time>
      </trkpt>
      <trkpt lat="37.6801491715" lon="-5.9862750303">
        <ele>310.16</ele>
        <time>2020-07-10T05:25:39Z</time>
      </trkpt>
      <trkpt lat="37.6801432204" lon="-5.9862851724">
        <ele>309.20</ele>
        <time>2020-07-10T05:25:53Z</time>
      </trkpt>
      <trkpt lat="37.6801483333" lon="-5.9862738568">
        <ele>307.28</ele>
        <time>2020-07-10T05:26:12Z</time>
      </trkpt>
      <trkpt lat="37.6802060846" lon="-5.9863207117">
        <ele>307.28</ele>
        <time>2020-07-10T05:26:22Z</time>
      </trkpt>
      <trkpt lat="37.6804332342" lon="-5.9864474460">
        <ele>307.28</ele>
        <time>2020-07-10T05:26:30Z</time>
      </trkpt>
      <trkpt lat="37.6807804964" lon="-5.9866203647">
        <ele>306.32</ele>
        <time>2020-07-10T05:26:38Z</time>
      </trkpt>
      <trkpt lat="37.6813373901" lon="-5.9868589975">
        <ele>307.28</ele>
        <time>2020-07-10T05:26:50Z</time>
      </trkpt>
      <trkpt lat="37.6818071119" lon="-5.9870662820">
        <ele>306.32</ele>
        <time>2020-07-10T05:27:02Z</time>
      </trkpt>
      <trkpt lat="37.6819564775" lon="-5.9871499334">
        <ele>305.84</ele>
        <time>2020-07-10T05:27:09Z</time>
      </trkpt>
      <trkpt lat="37.6822476648" lon="-5.9873481654">
        <ele>304.39</ele>
        <time>2020-07-10T05:27:17Z</time>
      </trkpt>
      <trkpt lat="37.6827204879" lon="-5.9876662586">
        <ele>303.43</ele>
        <time>2020-07-10T05:27:28Z</time>
      </trkpt>
      <trkpt lat="37.6832461171" lon="-5.9880020376">
        <ele>303.91</ele>
        <time>2020-07-10T05:27:40Z</time>
      </trkpt>
      <trkpt lat="37.6834093127" lon="-5.9880563524">
        <ele>304.88</ele>
        <time>2020-07-10T05:27:44Z</time>
      </trkpt>
      <trkpt lat="37.6836938784" lon="-5.9880488925">
        <ele>306.32</ele>
        <time>2020-07-10T05:27:52Z</time>
      </trkpt>
      <trkpt lat="37.6840138156" lon="-5.9880055580">
        <ele>307.28</ele>
        <time>2020-07-10T05:28:02Z</time>
      </trkpt>
      <trkpt lat="37.6842731517" lon="-5.9879757185">
        <ele>308.24</ele>
        <time>2020-07-10T05:28:10Z</time>
      </trkpt>
      <trkpt lat="37.6847131178" lon="-5.9879852738">
        <ele>308.24</ele>
        <time>2020-07-10T05:28:23Z</time>
      </trkpt>
      <trkpt lat="37.6849955879" lon="-5.9879847709">
        <ele>310.64</ele>
        <time>2020-07-10T05:28:33Z</time>
      </trkpt>
      <trkpt lat="37.6852734480" lon="-5.9879939072">
        <ele>311.60</ele>
        <time>2020-07-10T05:28:43Z</time>
      </trkpt>
      <trkpt lat="37.6854974125" lon="-5.9880015347">
        <ele>314.49</ele>
        <time>2020-07-10T05:28:53Z</time>
      </trkpt>
      <trkpt lat="37.6856763661" lon="-5.9880170412">
        <ele>315.45</ele>
        <time>2020-07-10T05:29:01Z</time>
      </trkpt>
      <trkpt lat="37.6858671382" lon="-5.9880228247">
        <ele>315.93</ele>
        <time>2020-07-10T05:29:10Z</time>
      </trkpt>
      <trkpt lat="37.6861143205" lon="-5.9880410973">
        <ele>316.89</ele>
        <time>2020-07-10T05:29:21Z</time>
      </trkpt>
      <trkpt lat="37.6863473374" lon="-5.9880451206">
        <ele>318.33</ele>
        <time>2020-07-10T05:29:32Z</time>
      </trkpt>
      <trkpt lat="37.6865089405" lon="-5.9880511556">
        <ele>318.81</ele>
        <time>2020-07-10T05:29:40Z</time>
      </trkpt>
      <trkpt lat="37.6867189910" lon="-5.9880585317">
        <ele>320.26</ele>
        <time>2020-07-10T05:29:51Z</time>
      </trkpt>
      <trkpt lat="37.6868986152" lon="-5.9880683385">
        <ele>321.22</ele>
        <time>2020-07-10T05:30:00Z</time>
      </trkpt>
      <trkpt lat="37.6871131081" lon="-5.9880726971">
        <ele>322.66</ele>
        <time>2020-07-10T05:30:10Z</time>
      </trkpt>
      <trkpt lat="37.6873532496" lon="-5.9880719427">
        <ele>324.58</ele>
        <time>2020-07-10T05:30:22Z</time>
      </trkpt>
      <trkpt lat="37.6875125896" lon="-5.9880652372">
        <ele>326.02</ele>
        <time>2020-07-10T05:30:31Z</time>
      </trkpt>
      <trkpt lat="37.6877146773" lon="-5.9880304523">
        <ele>326.50</ele>
        <time>2020-07-10T05:30:41Z</time>
      </trkpt>
      <trkpt lat="37.6879409887" lon="-5.9879679233">
        <ele>328.43</ele>
        <time>2020-07-10T05:30:53Z</time>
      </trkpt>
      <trkpt lat="37.6880988199" lon="-5.9879112616">
        <ele>329.39</ele>
        <time>2020-07-10T05:31:02Z</time>
      </trkpt>
      <trkpt lat="37.6883479301" lon="-5.9878200665">
        <ele>330.35</ele>
        <time>2020-07-10T05:31:15Z</time>
      </trkpt>
      <trkpt lat="37.6885543764" lon="-5.9877266921">
        <ele>330.83</ele>
        <time>2020-07-10T05:31:25Z</time>
      </trkpt>
      <trkpt lat="37.6887668576" lon="-5.9876292106">
        <ele>331.31</ele>
        <time>2020-07-10T05:31:35Z</time>
      </trkpt>
      <trkpt lat="37.6889683586" lon="-5.9875082597">
        <ele>332.27</ele>
        <time>2020-07-10T05:31:45Z</time>
      </trkpt>
      <trkpt lat="37.6891777385" lon="-5.9873743169">
        <ele>332.27</ele>
        <time>2020-07-10T05:31:55Z</time>
      </trkpt>
      <trkpt lat="37.6894099172" lon="-5.9871775936">
        <ele>332.75</ele>
        <time>2020-07-10T05:32:06Z</time>
      </trkpt>
      <trkpt lat="37.6896622125" lon="-5.9869472589">
        <ele>333.71</ele>
        <time>2020-07-10T05:32:17Z</time>
      </trkpt>
      <trkpt lat="37.6899157651" lon="-5.9867279045">
        <ele>333.71</ele>
        <time>2020-07-10T05:32:26Z</time>
      </trkpt>
      <trkpt lat="37.6901357900" lon="-5.9865937941">
        <ele>333.23</ele>
        <time>2020-07-10T05:32:33Z</time>
      </trkpt>
      <trkpt lat="37.6904124767" lon="-5.9864807222">
        <ele>333.23</ele>
        <time>2020-07-10T05:32:42Z</time>
      </trkpt>
      <trkpt lat="37.6906498522" lon="-5.9863884374">
        <ele>332.75</ele>
        <time>2020-07-10T05:32:49Z</time>
      </trkpt>
      <trkpt lat="37.6908710506" lon="-5.9863000922">
        <ele>332.27</ele>
        <time>2020-07-10T05:32:55Z</time>
      </trkpt>
      <trkpt lat="37.6913216617" lon="-5.9861352202">
        <ele>332.27</ele>
        <time>2020-07-10T05:33:07Z</time>
      </trkpt>
      <trkpt lat="37.6917659026" lon="-5.9859798197">
        <ele>330.35</ele>
        <time>2020-07-10T05:33:17Z</time>
      </trkpt>
      <trkpt lat="37.6922380552" lon="-5.9859187156">
        <ele>329.39</ele>
        <time>2020-07-10T05:33:26Z</time>
      </trkpt>
      <trkpt lat="37.6926949527" lon="-5.9859716892">
        <ele>328.43</ele>
        <time>2020-07-10T05:33:34Z</time>
      </trkpt>
      <trkpt lat="37.6932382677" lon="-5.9860352241">
        <ele>326.50</ele>
        <time>2020-07-10T05:33:43Z</time>
      </trkpt>
      <trkpt lat="37.6939350553" lon="-5.9861182049">
        <ele>325.06</ele>
        <time>2020-07-10T05:33:54Z</time>
      </trkpt>
      <trkpt lat="37.6944457646" lon="-5.9861670714">
        <ele>325.06</ele>
        <time>2020-07-10T05:34:03Z</time>
      </trkpt>
      <trkpt lat="37.6949157380" lon="-5.9862151835">
        <ele>325.06</ele>
        <time>2020-07-10T05:34:13Z</time>
      </trkpt>
      <trkpt lat="37.6952157263" lon="-5.9862459451">
        <ele>326.50</ele>
        <time>2020-07-10T05:34:21Z</time>
      </trkpt>
      <trkpt lat="37.6955152117" lon="-5.9862731863">
        <ele>327.47</ele>
        <time>2020-07-10T05:34:30Z</time>
      </trkpt>
      <trkpt lat="37.6958628092" lon="-5.9863073844">
        <ele>329.87</ele>
        <time>2020-07-10T05:34:41Z</time>
      </trkpt>
      <trkpt lat="37.6961581036" lon="-5.9863384813">
        <ele>330.35</ele>
        <time>2020-07-10T05:34:50Z</time>
      </trkpt>
      <trkpt lat="37.6965324394" lon="-5.9863815643">
        <ele>329.39</ele>
        <time>2020-07-10T05:35:00Z</time>
      </trkpt>
      <trkpt lat="37.6967367064" lon="-5.9864207916">
        <ele>328.91</ele>
        <time>2020-07-10T05:35:05Z</time>
      </trkpt>
      <trkpt lat="37.6971178316" lon="-5.9865931235">
        <ele>328.43</ele>
        <time>2020-07-10T05:35:15Z</time>
      </trkpt>
      <trkpt lat="37.6975005493" lon="-5.9868677147">
        <ele>328.43</ele>
        <time>2020-07-10T05:35:26Z</time>
      </trkpt>
      <trkpt lat="37.6977649983" lon="-5.9870946966">
        <ele>329.39</ele>
        <time>2020-07-10T05:35:35Z</time>
      </trkpt>
      <trkpt lat="37.6979701873" lon="-5.9872938506">
        <ele>330.35</ele>
        <time>2020-07-10T05:35:44Z</time>
      </trkpt>
      <trkpt lat="37.6981625520" lon="-5.9874800965">
        <ele>332.27</ele>
        <time>2020-07-10T05:35:54Z</time>
      </trkpt>
      <trkpt lat="37.6982832514" lon="-5.9876003768">
        <ele>333.23</ele>
        <time>2020-07-10T05:36:01Z</time>
      </trkpt>
      <trkpt lat="37.6984839980" lon="-5.9878019616">
        <ele>335.16</ele>
        <time>2020-07-10T05:36:12Z</time>
      </trkpt>
      <trkpt lat="37.6986667234" lon="-5.9879954997">
        <ele>336.60</ele>
        <time>2020-07-10T05:36:22Z</time>
      </trkpt>
      <trkpt lat="37.6988621894" lon="-5.9882233199">
        <ele>338.04</ele>
        <time>2020-07-10T05:36:32Z</time>
      </trkpt>
      <trkpt lat="37.6990764309" lon="-5.9885450173">
        <ele>338.52</ele>
        <time>2020-07-10T05:36:42Z</time>
      </trkpt>
      <trkpt lat="37.6993298996" lon="-5.9888802096">
        <ele>338.52</ele>
        <time>2020-07-10T05:36:52Z</time>
      </trkpt>
      <trkpt lat="37.6996212546" lon="-5.9891535435">
        <ele>338.52</ele>
        <time>2020-07-10T05:37:02Z</time>
      </trkpt>
      <trkpt lat="37.6999479812" lon="-5.9894247819">
        <ele>338.52</ele>
        <time>2020-07-10T05:37:13Z</time>
      </trkpt>
      <trkpt lat="37.7002462931" lon="-5.9896848723">
        <ele>339.48</ele>
        <time>2020-07-10T05:37:24Z</time>
      </trkpt>
      <trkpt lat="37.7003912162" lon="-5.9898307174">
        <ele>339.96</ele>
        <time>2020-07-10T05:37:31Z</time>
      </trkpt>
      <trkpt lat="37.7006165218" lon="-5.9900787380">
        <ele>341.41</ele>
        <time>2020-07-10T05:37:42Z</time>
      </trkpt>
      <trkpt lat="37.7008010074" lon="-5.9902796522">
        <ele>342.85</ele>
        <time>2020-07-10T05:37:52Z</time>
      </trkpt>
      <trkpt lat="37.7009607665" lon="-5.9904710110">
        <ele>343.33</ele>
        <time>2020-07-10T05:38:01Z</time>
      </trkpt>
      <trkpt lat="37.7011710685" lon="-5.9907145891">
        <ele>344.77</ele>
        <time>2020-07-10T05:38:13Z</time>
      </trkpt>
      <trkpt lat="37.7013428137" lon="-5.9908841550">
        <ele>345.73</ele>
        <time>2020-07-10T05:38:22Z</time>
      </trkpt>
      <trkpt lat="37.7015405428" lon="-5.9910416510">
        <ele>344.77</ele>
        <time>2020-07-10T05:38:30Z</time>
      </trkpt>
      <trkpt lat="37.7018710412" lon="-5.9912810382">
        <ele>343.33</ele>
        <time>2020-07-10T05:38:39Z</time>
      </trkpt>
      <trkpt lat="37.7023234963" lon="-5.9916335810">
        <ele>341.41</ele>
        <time>2020-07-10T05:38:50Z</time>
      </trkpt>
      <trkpt lat="37.7026700042" lon="-5.9920040611">
        <ele>340.44</ele>
        <time>2020-07-10T05:38:59Z</time>
      </trkpt>
      <trkpt lat="37.7030386403" lon="-5.9924757108">
        <ele>339.00</ele>
        <time>2020-07-10T05:39:09Z</time>
      </trkpt>
      <trkpt lat="37.7032522112" lon="-5.9927727655">
        <ele>339.00</ele>
        <time>2020-07-10T05:39:16Z</time>
      </trkpt>
      <trkpt lat="37.7034395467" lon="-5.9929952212">
        <ele>338.04</ele>
        <time>2020-07-10T05:39:24Z</time>
      </trkpt>
      <trkpt lat="37.7037190832" lon="-5.9933389630">
        <ele>337.56</ele>
        <time>2020-07-10T05:39:32Z</time>
      </trkpt>
      <trkpt lat="37.7041156311" lon="-5.9937645961">
        <ele>336.60</ele>
        <time>2020-07-10T05:39:42Z</time>
      </trkpt>
      <trkpt lat="37.7043936588" lon="-5.9939936735">
        <ele>336.60</ele>
        <time>2020-07-10T05:39:49Z</time>
      </trkpt>
      <trkpt lat="37.7047236543" lon="-5.9942012932">
        <ele>337.08</ele>
        <time>2020-07-10T05:39:58Z</time>
      </trkpt>
      <trkpt lat="37.7051102277" lon="-5.9944731183">
        <ele>336.60</ele>
        <time>2020-07-10T05:40:09Z</time>
      </trkpt>
      <trkpt lat="37.7053674683" lon="-5.9947248269">
        <ele>335.64</ele>
        <time>2020-07-10T05:40:17Z</time>
      </trkpt>
      <trkpt lat="37.7056893334" lon="-5.9950696584">
        <ele>332.27</ele>
        <time>2020-07-10T05:40:25Z</time>
      </trkpt>
      <trkpt lat="37.7060321532" lon="-5.9953423217">
        <ele>329.39</ele>
        <time>2020-07-10T05:40:32Z</time>
      </trkpt>
      <trkpt lat="37.7064392623" lon="-5.9956231155">
        <ele>326.02</ele>
        <time>2020-07-10T05:40:39Z</time>
      </trkpt>
      <trkpt lat="37.7069284301" lon="-5.9959024005">
        <ele>323.62</ele>
        <time>2020-07-10T05:40:46Z</time>
      </trkpt>
      <trkpt lat="37.7074447554" lon="-5.9960732237">
        <ele>322.66</ele>
        <time>2020-07-10T05:40:54Z</time>
      </trkpt>
      <trkpt lat="37.7079456579" lon="-5.9961639158">
        <ele>321.70</ele>
        <time>2020-07-10T05:41:02Z</time>
      </trkpt>
      <trkpt lat="37.7086533420" lon="-5.9962722939">
        <ele>321.22</ele>
        <time>2020-07-10T05:41:13Z</time>
      </trkpt>
      <trkpt lat="37.7090757061" lon="-5.9964148700">
        <ele>320.74</ele>
        <time>2020-07-10T05:41:21Z</time>
      </trkpt>
      <trkpt lat="37.7094490360" lon="-5.9966115095">
        <ele>319.78</ele>
        <time>2020-07-10T05:41:29Z</time>
      </trkpt>
      <trkpt lat="37.7100346796" lon="-5.9969657287">
        <ele>319.30</ele>
        <time>2020-07-10T05:41:43Z</time>
      </trkpt>
      <trkpt lat="37.7104404476" lon="-5.9971627034">
        <ele>318.81</ele>
        <time>2020-07-10T05:41:53Z</time>
      </trkpt>
      <trkpt lat="37.7109568566" lon="-5.9973489493">
        <ele>319.30</ele>
        <time>2020-07-10T05:42:04Z</time>
      </trkpt>
      <trkpt lat="37.7113597747" lon="-5.9974379651">
        <ele>319.78</ele>
        <time>2020-07-10T05:42:13Z</time>
      </trkpt>
      <trkpt lat="37.7117944602" lon="-5.9974938724">
        <ele>320.74</ele>
        <time>2020-07-10T05:42:24Z</time>
      </trkpt>
      <trkpt lat="37.7121504396" lon="-5.9975418169">
        <ele>321.70</ele>
        <time>2020-07-10T05:42:34Z</time>
      </trkpt>
      <trkpt lat="37.7125925850" lon="-5.9975995682">
        <ele>323.14</ele>
        <time>2020-07-10T05:42:47Z</time>
      </trkpt>
      <trkpt lat="37.7128716186" lon="-5.9976436570">
        <ele>324.58</ele>
        <time>2020-07-10T05:42:57Z</time>
      </trkpt>
      <trkpt lat="37.7130511589" lon="-5.9976739157">
        <ele>326.02</ele>
        <time>2020-07-10T05:43:05Z</time>
      </trkpt>
      <trkpt lat="37.7133028675" lon="-5.9977036715">
        <ele>326.99</ele>
        <time>2020-07-10T05:43:15Z</time>
      </trkpt>
      <trkpt lat="37.7135528997" lon="-5.9977382887">
        <ele>325.54</ele>
        <time>2020-07-10T05:43:21Z</time>
      </trkpt>
      <trkpt lat="37.7140129823" lon="-5.9978262987">
        <ele>325.06</ele>
        <time>2020-07-10T05:43:31Z</time>
      </trkpt>
      <trkpt lat="37.7143303212" lon="-5.9979340062">
        <ele>326.02</ele>
        <time>2020-07-10T05:43:40Z</time>
      </trkpt>
      <trkpt lat="37.7145900764" lon="-5.9980707150">
        <ele>327.47</ele>
        <time>2020-07-10T05:43:49Z</time>
      </trkpt>
      <trkpt lat="37.7148440480" lon="-5.9982423764">
        <ele>327.47</ele>
        <time>2020-07-10T05:43:58Z</time>
      </trkpt>
      <trkpt lat="37.7151059825" lon="-5.9984659217">
        <ele>325.54</ele>
        <time>2020-07-10T05:44:06Z</time>
      </trkpt>
      <trkpt lat="37.7153316233" lon="-5.9987146128">
        <ele>324.58</ele>
        <time>2020-07-10T05:44:12Z</time>
      </trkpt>
      <trkpt lat="37.7153681684" lon="-5.9987651557">
        <ele>324.58</ele>
        <time>2020-07-10T05:44:13Z</time>
      </trkpt>
      <trkpt lat="37.7156563383" lon="-5.9992584307">
        <ele>324.58</ele>
        <time>2020-07-10T05:44:23Z</time>
      </trkpt>
      <trkpt lat="37.7157499641" lon="-5.9994512983">
        <ele>324.58</ele>
        <time>2020-07-10T05:44:27Z</time>
      </trkpt>
      <trkpt lat="37.7157709189" lon="-5.9995007515">
        <ele>324.58</ele>
        <time>2020-07-10T05:44:28Z</time>
      </trkpt>
      <trkpt lat="37.7159313485" lon="-5.9998289868">
        <ele>324.10</ele>
        <time>2020-07-10T05:44:35Z</time>
      </trkpt>
      <trkpt lat="37.7162409760" lon="-6.0002689529">
        <ele>322.66</ele>
        <time>2020-07-10T05:44:45Z</time>
      </trkpt>
      <trkpt lat="37.7165839635" lon="-6.0006758105">
        <ele>322.18</ele>
        <time>2020-07-10T05:44:55Z</time>
      </trkpt>
      <trkpt lat="37.7169105224" lon="-6.0010818299">
        <ele>323.14</ele>
        <time>2020-07-10T05:45:05Z</time>
      </trkpt>
      <trkpt lat="37.7170909848" lon="-6.0013329517">
        <ele>325.06</ele>
        <time>2020-07-10T05:45:13Z</time>
      </trkpt>
      <trkpt lat="37.7172732074" lon="-6.0016621929">
        <ele>327.95</ele>
        <time>2020-07-10T05:45:23Z</time>
      </trkpt>
      <trkpt lat="37.7174291108" lon="-6.0019807052">
        <ele>326.50</ele>
        <time>2020-07-10T05:45:31Z</time>
      </trkpt>
      <trkpt lat="37.7176722698" lon="-6.0025435500">
        <ele>324.58</ele>
        <time>2020-07-10T05:45:40Z</time>
      </trkpt>
      <trkpt lat="37.7178319450" lon="-6.0029509105">
        <ele>325.06</ele>
        <time>2020-07-10T05:45:48Z</time>
      </trkpt>
      <trkpt lat="37.7180141676" lon="-6.0033236537">
        <ele>326.02</ele>
        <time>2020-07-10T05:45:58Z</time>
      </trkpt>
      <trkpt lat="37.7181998268" lon="-6.0036311857">
        <ele>327.95</ele>
        <time>2020-07-10T05:46:08Z</time>
      </trkpt>
      <trkpt lat="37.7183987293" lon="-6.0038942099">
        <ele>327.47</ele>
        <time>2020-07-10T05:46:18Z</time>
      </trkpt>
      <trkpt lat="37.7186651900" lon="-6.0041593295">
        <ele>326.02</ele>
        <time>2020-07-10T05:46:25Z</time>
      </trkpt>
      <trkpt lat="37.7190537751" lon="-6.0044522770">
        <ele>321.70</ele>
        <time>2020-07-10T05:46:31Z</time>
      </trkpt>
      <trkpt lat="37.7197318710" lon="-6.0049214959">
        <ele>319.30</ele>
        <time>2020-07-10T05:46:40Z</time>
      </trkpt>
      <trkpt lat="37.7199638821" lon="-6.0051362403">
        <ele>320.26</ele>
        <time>2020-07-10T05:46:45Z</time>
      </trkpt>
      <trkpt lat="37.7200585976" lon="-6.0052400082">
        <ele>321.70</ele>
        <time>2020-07-10T05:46:50Z</time>
      </trkpt>
      <trkpt lat="37.7202021796" lon="-6.0054301098">
        <ele>323.62</ele>
        <time>2020-07-10T05:46:59Z</time>
      </trkpt>
      <trkpt lat="37.7203041874" lon="-6.0055740271">
        <ele>326.02</ele>
        <time>2020-07-10T05:47:07Z</time>
      </trkpt>
      <trkpt lat="37.7203970589" lon="-6.0057014320">
        <ele>327.95</ele>
        <time>2020-07-10T05:47:15Z</time>
      </trkpt>
      <trkpt lat="37.7204978932" lon="-6.0058432538">
        <ele>328.91</ele>
        <time>2020-07-10T05:47:24Z</time>
      </trkpt>
      <trkpt lat="37.7206299920" lon="-6.0060279910">
        <ele>331.31</ele>
        <time>2020-07-10T05:47:36Z</time>
      </trkpt>
      <trkpt lat="37.7207368612" lon="-6.0061599221">
        <ele>331.79</ele>
        <time>2020-07-10T05:47:46Z</time>
      </trkpt>
      <trkpt lat="37.7208293136" lon="-6.0062869079">
        <ele>333.23</ele>
        <time>2020-07-10T05:47:55Z</time>
      </trkpt>
      <trkpt lat="37.7209269628" lon="-6.0063818749">
        <ele>333.71</ele>
        <time>2020-07-10T05:48:04Z</time>
      </trkpt>
      <trkpt lat="37.7210363466" lon="-6.0065005627">
        <ele>335.16</ele>
        <time>2020-07-10T05:48:14Z</time>
      </trkpt>
      <trkpt lat="37.7211270388" lon="-6.0065789334">
        <ele>336.12</ele>
        <time>2020-07-10T05:48:23Z</time>
      </trkpt>
      <trkpt lat="37.7212302200" lon="-6.0066619981">
        <ele>337.08</ele>
        <time>2020-07-10T05:48:31Z</time>
      </trkpt>
      <trkpt lat="37.7212478220" lon="-6.0066816118">
        <ele>337.56</ele>
        <time>2020-07-10T05:48:37Z</time>
      </trkpt>
      <trkpt lat="37.7212550305" lon="-6.0066952743">
        <ele>339.00</ele>
        <time>2020-07-10T05:48:56Z</time>
      </trkpt>
      <trkpt lat="37.7212477382" lon="-6.0066852998">
        <ele>338.04</ele>
        <time>2020-07-10T05:49:13Z</time>
      </trkpt>
      <trkpt lat="37.7212480735" lon="-6.0066723078">
        <ele>336.60</ele>
        <time>2020-07-10T05:49:36Z</time>
      </trkpt>
      <trkpt lat="37.7213149611" lon="-6.0067381058">
        <ele>337.08</ele>
        <time>2020-07-10T05:49:42Z</time>
      </trkpt>
      <trkpt lat="37.7214224171" lon="-6.0068330728">
        <ele>337.08</ele>
        <time>2020-07-10T05:49:49Z</time>
      </trkpt>
      <trkpt lat="37.7216066513" lon="-6.0070007946">
        <ele>337.56</ele>
        <time>2020-07-10T05:49:59Z</time>
      </trkpt>
      <trkpt lat="37.7218297776" lon="-6.0071979370">
        <ele>339.00</ele>
        <time>2020-07-10T05:50:11Z</time>
      </trkpt>
      <trkpt lat="37.7219824120" lon="-6.0073305387">
        <ele>339.96</ele>
        <time>2020-07-10T05:50:20Z</time>
      </trkpt>
      <trkpt lat="37.7221699152" lon="-6.0075001046">
        <ele>342.37</ele>
        <time>2020-07-10T05:50:31Z</time>
      </trkpt>
      <trkpt lat="37.7223354578" lon="-6.0076336283">
        <ele>343.81</ele>
        <time>2020-07-10T05:50:41Z</time>
      </trkpt>
      <trkpt lat="37.7225162555" lon="-6.0077813175">
        <ele>345.25</ele>
        <time>2020-07-10T05:50:52Z</time>
      </trkpt>
      <trkpt lat="37.7227047645" lon="-6.0079194512">
        <ele>345.73</ele>
        <time>2020-07-10T05:51:03Z</time>
      </trkpt>
      <trkpt lat="37.7228705585" lon="-6.0080429167">
        <ele>345.25</ele>
        <time>2020-07-10T05:51:13Z</time>
      </trkpt>
      <trkpt lat="37.7230714727" lon="-6.0081864987">
        <ele>344.77</ele>
        <time>2020-07-10T05:51:20Z</time>
      </trkpt>
      <trkpt lat="37.7233277075" lon="-6.0083603393">
        <ele>342.37</ele>
        <time>2020-07-10T05:51:25Z</time>
      </trkpt>
      <trkpt lat="37.7237117663" lon="-6.0086197592">
        <ele>338.04</ele>
        <time>2020-07-10T05:51:30Z</time>
      </trkpt>
      <trkpt lat="37.7243424207" lon="-6.0091524292">
        <ele>335.16</ele>
        <time>2020-07-10T05:51:38Z</time>
      </trkpt>
      <trkpt lat="37.7246196941" lon="-6.0094302893">
        <ele>336.12</ele>
        <time>2020-07-10T05:51:43Z</time>
      </trkpt>
      <trkpt lat="37.7247680537" lon="-6.0095751286">
        <ele>337.56</ele>
        <time>2020-07-10T05:51:48Z</time>
      </trkpt>
      <trkpt lat="37.7249553893" lon="-6.0097615421">
        <ele>340.44</ele>
        <time>2020-07-10T05:51:59Z</time>
      </trkpt>
      <trkpt lat="37.7250801958" lon="-6.0098851752">
        <ele>342.85</ele>
        <time>2020-07-10T05:52:07Z</time>
      </trkpt>
      <trkpt lat="37.7252107859" lon="-6.0100153461">
        <ele>344.77</ele>
        <time>2020-07-10T05:52:16Z</time>
      </trkpt>
      <trkpt lat="37.7253395319" lon="-6.0101498757">
        <ele>346.69</ele>
        <time>2020-07-10T05:52:25Z</time>
      </trkpt>
      <trkpt lat="37.7254706249" lon="-6.0102896858">
        <ele>347.17</ele>
        <time>2020-07-10T05:52:34Z</time>
      </trkpt>
      <trkpt lat="37.7256116923" lon="-6.0104471818">
        <ele>347.17</ele>
        <time>2020-07-10T05:52:43Z</time>
      </trkpt>
      <trkpt lat="37.7257890534" lon="-6.0106609203">
        <ele>347.17</ele>
        <time>2020-07-10T05:52:54Z</time>
      </trkpt>
      <trkpt lat="37.7259421069" lon="-6.0108407959">
        <ele>347.65</ele>
        <time>2020-07-10T05:53:04Z</time>
      </trkpt>
      <trkpt lat="37.7260224055" lon="-6.0109521914">
        <ele>347.17</ele>
        <time>2020-07-10T05:53:11Z</time>
      </trkpt>
      <trkpt lat="37.7261570189" lon="-6.0111121181">
        <ele>347.17</ele>
        <time>2020-07-10T05:53:20Z</time>
      </trkpt>
      <trkpt lat="37.7263177000" lon="-6.0113053210">
        <ele>348.62</ele>
        <time>2020-07-10T05:53:30Z</time>
      </trkpt>
      <trkpt lat="37.7264467813" lon="-6.0114623979">
        <ele>349.10</ele>
        <time>2020-07-10T05:53:38Z</time>
      </trkpt>
      <trkpt lat="37.7265839092" lon="-6.0116303712">
        <ele>350.06</ele>
        <time>2020-07-10T05:53:47Z</time>
      </trkpt>
      <trkpt lat="37.7267105598" lon="-6.0117974225">
        <ele>351.50</ele>
        <time>2020-07-10T05:53:57Z</time>
      </trkpt>
      <trkpt lat="37.7268227097" lon="-6.0119337123">
        <ele>352.94</ele>
        <time>2020-07-10T05:54:05Z</time>
      </trkpt>
      <trkpt lat="37.7269772720" lon="-6.0121181142">
        <ele>354.86</ele>
        <time>2020-07-10T05:54:17Z</time>
      </trkpt>
      <trkpt lat="37.7271058504" lon="-6.0122803040">
        <ele>356.31</ele>
        <time>2020-07-10T05:54:27Z</time>
      </trkpt>
      <trkpt lat="37.7272086963" lon="-6.0124107264">
        <ele>357.75</ele>
        <time>2020-07-10T05:54:36Z</time>
      </trkpt>
      <trkpt lat="37.7273163199" lon="-6.0125388019">
        <ele>358.23</ele>
        <time>2020-07-10T05:54:45Z</time>
      </trkpt>
      <trkpt lat="37.7273287252" lon="-6.0125544760">
        <ele>358.71</ele>
        <time>2020-07-10T05:54:46Z</time>
      </trkpt>
      <trkpt lat="37.7273426391" lon="-6.0125680547">
        <ele>358.71</ele>
        <time>2020-07-10T05:54:47Z</time>
      </trkpt>
      <trkpt lat="37.7274795994" lon="-6.0127263889">
        <ele>360.15</ele>
        <time>2020-07-10T05:54:58Z</time>
      </trkpt>
      <trkpt lat="37.7276211698" lon="-6.0128765926">
        <ele>360.63</ele>
        <time>2020-07-10T05:55:08Z</time>
      </trkpt>
      <trkpt lat="37.7277731337" lon="-6.0130250361">
        <ele>361.11</ele>
        <time>2020-07-10T05:55:18Z</time>
      </trkpt>
      <trkpt lat="37.7279448789" lon="-6.0131804366">
        <ele>360.63</ele>
        <time>2020-07-10T05:55:29Z</time>
      </trkpt>
      <trkpt lat="37.7281069849" lon="-6.0133224260">
        <ele>361.59</ele>
        <time>2020-07-10T05:55:40Z</time>
      </trkpt>
      <trkpt lat="37.7282760479" lon="-6.0134805087">
        <ele>362.55</ele>
        <time>2020-07-10T05:55:51Z</time>
      </trkpt>
      <trkpt lat="37.7284420095" lon="-6.0136192292">
        <ele>363.04</ele>
        <time>2020-07-10T05:56:02Z</time>
      </trkpt>
      <trkpt lat="37.7285781316" lon="-6.0137390066">
        <ele>363.52</ele>
        <time>2020-07-10T05:56:11Z</time>
      </trkpt>
      <trkpt lat="37.7287610248" lon="-6.0139034595">
        <ele>364.96</ele>
        <time>2020-07-10T05:56:22Z</time>
      </trkpt>
      <trkpt lat="37.7289595082" lon="-6.0141050443">
        <ele>365.44</ele>
        <time>2020-07-10T05:56:34Z</time>
      </trkpt>
      <trkpt lat="37.7291328460" lon="-6.0143073834">
        <ele>364.00</ele>
        <time>2020-07-10T05:56:41Z</time>
      </trkpt>
      <trkpt lat="37.7294750791" lon="-6.0147189349">
        <ele>362.55</ele>
        <time>2020-07-10T05:56:51Z</time>
      </trkpt>
      <trkpt lat="37.7296798490" lon="-6.0149298236">
        <ele>363.52</ele>
        <time>2020-07-10T05:56:58Z</time>
      </trkpt>
      <trkpt lat="37.7298960183" lon="-6.0151159856">
        <ele>364.96</ele>
        <time>2020-07-10T05:57:07Z</time>
      </trkpt>
      <trkpt lat="37.7301473916" lon="-6.0153311491">
        <ele>366.40</ele>
        <time>2020-07-10T05:57:18Z</time>
      </trkpt>
      <trkpt lat="37.7303897962" lon="-6.0155494977">
        <ele>366.88</ele>
        <time>2020-07-10T05:57:29Z</time>
      </trkpt>
      <trkpt lat="37.7305659000" lon="-6.0157460533">
        <ele>366.40</ele>
        <time>2020-07-10T05:57:37Z</time>
      </trkpt>
      <trkpt lat="37.7307264134" lon="-6.0159911402">
        <ele>366.88</ele>
        <time>2020-07-10T05:57:45Z</time>
      </trkpt>
      <trkpt lat="37.7308810595" lon="-6.0164425056">
        <ele>366.88</ele>
        <time>2020-07-10T05:57:56Z</time>
      </trkpt>
      <trkpt lat="37.7310026810" lon="-6.0169326793">
        <ele>366.88</ele>
        <time>2020-07-10T05:58:07Z</time>
      </trkpt>
      <trkpt lat="37.7310692333" lon="-6.0172179155">
        <ele>368.32</ele>
        <time>2020-07-10T05:58:15Z</time>
      </trkpt>
      <trkpt lat="37.7311417367" lon="-6.0175561253">
        <ele>370.24</ele>
        <time>2020-07-10T05:58:25Z</time>
      </trkpt>
      <trkpt lat="37.7312110551" lon="-6.0178376734">
        <ele>371.21</ele>
        <time>2020-07-10T05:58:33Z</time>
      </trkpt>
      <trkpt lat="37.7312849835" lon="-6.0180915613">
        <ele>371.69</ele>
        <time>2020-07-10T05:58:41Z</time>
      </trkpt>
      <trkpt lat="37.7313657850" lon="-6.0183334630">
        <ele>372.65</ele>
        <time>2020-07-10T05:58:49Z</time>
      </trkpt>
      <trkpt lat="37.7314760070" lon="-6.0186076351">
        <ele>371.69</ele>
        <time>2020-07-10T05:58:57Z</time>
      </trkpt>
      <trkpt lat="37.7316694614" lon="-6.0189503711">
        <ele>369.28</ele>
        <time>2020-07-10T05:59:04Z</time>
      </trkpt>
      <trkpt lat="37.7320173103" lon="-6.0194253735">
        <ele>366.88</ele>
        <time>2020-07-10T05:59:12Z</time>
      </trkpt>
      <trkpt lat="37.7322630677" lon="-6.0196906608">
        <ele>366.88</ele>
        <time>2020-07-10T05:59:17Z</time>
      </trkpt>
      <trkpt lat="37.7325633075" lon="-6.0199052375">
        <ele>367.84</ele>
        <time>2020-07-10T05:59:24Z</time>
      </trkpt>
      <trkpt lat="37.7327495534" lon="-6.0200364143">
        <ele>368.80</ele>
        <time>2020-07-10T05:59:31Z</time>
      </trkpt>
      <trkpt lat="37.7330322750" lon="-6.0202417709">
        <ele>370.73</ele>
        <time>2020-07-10T05:59:43Z</time>
      </trkpt>
      <trkpt lat="37.7332362067" lon="-6.0203908011">
        <ele>372.17</ele>
        <time>2020-07-10T05:59:54Z</time>
      </trkpt>
      <trkpt lat="37.7334242966" lon="-6.0205358919">
        <ele>373.61</ele>
        <time>2020-07-10T06:00:05Z</time>
      </trkpt>
      <trkpt lat="37.7335914318" lon="-6.0206549987">
        <ele>375.53</ele>
        <time>2020-07-10T06:00:14Z</time>
      </trkpt>
      <trkpt lat="37.7337590698" lon="-6.0207609460">
        <ele>376.01</ele>
        <time>2020-07-10T06:00:22Z</time>
      </trkpt>
      <trkpt lat="37.7339935955" lon="-6.0208851658">
        <ele>376.97</ele>
        <time>2020-07-10T06:00:33Z</time>
      </trkpt>
      <trkpt lat="37.7342927456" lon="-6.0210250597">
        <ele>378.90</ele>
        <time>2020-07-10T06:00:46Z</time>
      </trkpt>
      <trkpt lat="37.7345333900" lon="-6.0211429931">
        <ele>378.90</ele>
        <time>2020-07-10T06:00:55Z</time>
      </trkpt>
      <trkpt lat="37.7348207217" lon="-6.0212971363">
        <ele>379.86</ele>
        <time>2020-07-10T06:01:05Z</time>
      </trkpt>
      <trkpt lat="37.7350792196" lon="-6.0214568116">
        <ele>378.90</ele>
        <time>2020-07-10T06:01:15Z</time>
      </trkpt>
      <trkpt lat="37.7353151701" lon="-6.0216442309">
        <ele>378.90</ele>
        <time>2020-07-10T06:01:24Z</time>
      </trkpt>
      <trkpt lat="37.7355910186" lon="-6.0218983702">
        <ele>380.34</ele>
        <time>2020-07-10T06:01:35Z</time>
      </trkpt>
      <trkpt lat="37.7357627638" lon="-6.0220660921">
        <ele>380.34</ele>
        <time>2020-07-10T06:01:43Z</time>
      </trkpt>
      <trkpt lat="37.7359910868" lon="-6.0222958401">
        <ele>383.22</ele>
        <time>2020-07-10T06:01:54Z</time>
      </trkpt>
      <trkpt lat="37.7361592278" lon="-6.0225105006">
        <ele>382.26</ele>
        <time>2020-07-10T06:02:03Z</time>
      </trkpt>
      <trkpt lat="37.7363387682" lon="-6.0228353832">
        <ele>380.34</ele>
        <time>2020-07-10T06:02:11Z</time>
      </trkpt>
      <trkpt lat="37.7365540992" lon="-6.0233121458">
        <ele>378.90</ele>
        <time>2020-07-10T06:02:19Z</time>
      </trkpt>
      <trkpt lat="37.7367608808" lon="-6.0239655152">
        <ele>377.45</ele>
        <time>2020-07-10T06:02:27Z</time>
      </trkpt>
      <trkpt lat="37.7368497290" lon="-6.0245553497">
        <ele>376.97</ele>
        <time>2020-07-10T06:02:34Z</time>
      </trkpt>
      <trkpt lat="37.7369481325" lon="-6.0253798775">
        <ele>374.57</ele>
        <time>2020-07-10T06:02:44Z</time>
      </trkpt>
      <trkpt lat="37.7371149324" lon="-6.0258572269">
        <ele>371.21</ele>
        <time>2020-07-10T06:02:49Z</time>
      </trkpt>
      <trkpt lat="37.7373963129" lon="-6.0263671819">
        <ele>366.40</ele>
        <time>2020-07-10T06:02:54Z</time>
      </trkpt>
      <trkpt lat="37.7378573176" lon="-6.0269039590">
        <ele>361.59</ele>
        <time>2020-07-10T06:03:00Z</time>
      </trkpt>
      <trkpt lat="37.7384598926" lon="-6.0274440888">
        <ele>358.23</ele>
        <time>2020-07-10T06:03:07Z</time>
      </trkpt>
      <trkpt lat="37.7387006208" lon="-6.0276484396">
        <ele>360.15</ele>
        <time>2020-07-10T06:03:11Z</time>
      </trkpt>
      <trkpt lat="37.7388418559" lon="-6.0277675465">
        <ele>362.55</ele>
        <time>2020-07-10T06:03:16Z</time>
      </trkpt>
      <trkpt lat="37.7390217315" lon="-6.0279397108">
        <ele>364.48</ele>
        <time>2020-07-10T06:03:24Z</time>
      </trkpt>
      <trkpt lat="37.7392347157" lon="-6.0281610768">
        <ele>365.92</ele>
        <time>2020-07-10T06:03:34Z</time>
      </trkpt>
      <trkpt lat="37.7394559979" lon="-6.0284125339">
        <ele>365.92</ele>
        <time>2020-07-10T06:03:44Z</time>
      </trkpt>
      <trkpt lat="37.7396662161" lon="-6.0286529269">
        <ele>364.48</ele>
        <time>2020-07-10T06:03:50Z</time>
      </trkpt>
      <trkpt lat="37.7400602493" lon="-6.0290915519">
        <ele>362.07</ele>
        <time>2020-07-10T06:03:58Z</time>
      </trkpt>
      <trkpt lat="37.7406386007" lon="-6.0297388025">
        <ele>359.19</ele>
        <time>2020-07-10T06:04:08Z</time>
      </trkpt>
      <trkpt lat="37.7410088293" lon="-6.0301568080">
        <ele>358.23</ele>
        <time>2020-07-10T06:04:16Z</time>
      </trkpt>
      <trkpt lat="37.7413401660" lon="-6.0305218399">
        <ele>355.83</ele>
        <time>2020-07-10T06:04:22Z</time>
      </trkpt>
      <trkpt lat="37.7417886816" lon="-6.0310218204">
        <ele>350.54</ele>
        <time>2020-07-10T06:04:28Z</time>
      </trkpt>
      <trkpt lat="37.7423169091" lon="-6.0315135866">
        <ele>347.17</ele>
        <time>2020-07-10T06:04:34Z</time>
      </trkpt>
      <trkpt lat="37.7425814420" lon="-6.0317049455">
        <ele>349.58</ele>
        <time>2020-07-10T06:04:38Z</time>
      </trkpt>
      <trkpt lat="37.7427177317" lon="-6.0318043549">
        <ele>351.50</ele>
        <time>2020-07-10T06:04:42Z</time>
      </trkpt>
      <trkpt lat="37.7429247648" lon="-6.0319579113">
        <ele>354.38</ele>
        <time>2020-07-10T06:04:51Z</time>
      </trkpt>
      <trkpt lat="37.7431580331" lon="-6.0321417265">
        <ele>354.86</ele>
        <time>2020-07-10T06:05:01Z</time>
      </trkpt>
      <trkpt lat="37.7433883678" lon="-6.0323214345">
        <ele>355.83</ele>
        <time>2020-07-10T06:05:12Z</time>
      </trkpt>
      <trkpt lat="37.7435797267" lon="-6.0324586462">
        <ele>357.27</ele>
        <time>2020-07-10T06:05:21Z</time>
      </trkpt>
      <trkpt lat="37.7437826525" lon="-6.0326225124">
        <ele>358.23</ele>
        <time>2020-07-10T06:05:31Z</time>
      </trkpt>
      <trkpt lat="37.7439766098" lon="-6.0328443814">
        <ele>359.67</ele>
        <time>2020-07-10T06:05:42Z</time>
      </trkpt>
      <trkpt lat="37.7441146597" lon="-6.0330190603">
        <ele>361.11</ele>
        <time>2020-07-10T06:05:51Z</time>
      </trkpt>
      <trkpt lat="37.7442510333" lon="-6.0332306195">
        <ele>361.59</ele>
        <time>2020-07-10T06:06:01Z</time>
      </trkpt>
      <trkpt lat="37.7444025781" lon="-6.0334738623">
        <ele>363.04</ele>
        <time>2020-07-10T06:06:13Z</time>
      </trkpt>
      <trkpt lat="37.7445008140" lon="-6.0336211324">
        <ele>364.00</ele>
        <time>2020-07-10T06:06:21Z</time>
      </trkpt>
      <trkpt lat="37.7445806935" lon="-6.0337518901">
        <ele>364.96</ele>
        <time>2020-07-10T06:06:28Z</time>
      </trkpt>
      <trkpt lat="37.7445958648" lon="-6.0337706655">
        <ele>364.96</ele>
        <time>2020-07-10T06:06:29Z</time>
      </trkpt>
      <trkpt lat="37.7446082700" lon="-6.0337904468">
        <ele>364.96</ele>
        <time>2020-07-10T06:06:30Z</time>
      </trkpt>
      <trkpt lat="37.7446214296" lon="-6.0338113178">
        <ele>365.44</ele>
        <time>2020-07-10T06:06:31Z</time>
      </trkpt>
      <trkpt lat="37.7446354274" lon="-6.0338290036">
        <ele>365.44</ele>
        <time>2020-07-10T06:06:32Z</time>
      </trkpt>
      <trkpt lat="37.7446495928" lon="-6.0338490363">
        <ele>365.44</ele>
        <time>2020-07-10T06:06:33Z</time>
      </trkpt>
      <trkpt lat="37.7446619142" lon="-6.0338660516">
        <ele>365.92</ele>
        <time>2020-07-10T06:06:34Z</time>
      </trkpt>
      <trkpt lat="37.7446766663" lon="-6.0338827316">
        <ele>365.92</ele>
        <time>2020-07-10T06:06:35Z</time>
      </trkpt>
      <trkpt lat="37.7446909156" lon="-6.0339003336">
        <ele>365.92</ele>
        <time>2020-07-10T06:06:36Z</time>
      </trkpt>
      <trkpt lat="37.7447066735" lon="-6.0339200310">
        <ele>365.92</ele>
        <time>2020-07-10T06:06:37Z</time>
      </trkpt>
      <trkpt lat="37.7447214257" lon="-6.0339389741">
        <ele>366.40</ele>
        <time>2020-07-10T06:06:38Z</time>
      </trkpt>
      <trkpt lat="37.7449051570" lon="-6.0341592506">
        <ele>366.40</ele>
        <time>2020-07-10T06:06:49Z</time>
      </trkpt>
      <trkpt lat="37.7450536005" lon="-6.0343218595">
        <ele>366.40</ele>
        <time>2020-07-10T06:06:57Z</time>
      </trkpt>
      <trkpt lat="37.7452618908" lon="-6.0345126316">
        <ele>365.92</ele>
        <time>2020-07-10T06:07:07Z</time>
      </trkpt>
      <trkpt lat="37.7454757132" lon="-6.0346987098">
        <ele>365.44</ele>
        <time>2020-07-10T06:07:17Z</time>
      </trkpt>
      <trkpt lat="37.7456899546" lon="-6.0348885600">
        <ele>365.44</ele>
        <time>2020-07-10T06:07:26Z</time>
      </trkpt>
      <trkpt lat="37.7458818164" lon="-6.0350712854">
        <ele>365.92</ele>
        <time>2020-07-10T06:07:34Z</time>
      </trkpt>
      <trkpt lat="37.7461213712" lon="-6.0354003590">
        <ele>364.96</ele>
        <time>2020-07-10T06:07:44Z</time>
      </trkpt>
      <trkpt lat="37.7463741694" lon="-6.0357777961">
        <ele>364.96</ele>
        <time>2020-07-10T06:07:54Z</time>
      </trkpt>
      <trkpt lat="37.7467535343" lon="-6.0363284033">
        <ele>366.40</ele>
        <time>2020-07-10T06:08:08Z</time>
      </trkpt>
      <trkpt lat="37.7469756547" lon="-6.0366524477">
        <ele>367.84</ele>
        <time>2020-07-10T06:08:18Z</time>
      </trkpt>
      <trkpt lat="37.7471593022" lon="-6.0368583910">
        <ele>368.32</ele>
        <time>2020-07-10T06:08:26Z</time>
      </trkpt>
      <trkpt lat="37.7473836858" lon="-6.0370185692">
        <ele>367.84</ele>
        <time>2020-07-10T06:08:33Z</time>
      </trkpt>
      <trkpt lat="37.7477452811" lon="-6.0372463055">
        <ele>365.92</ele>
        <time>2020-07-10T06:08:41Z</time>
      </trkpt>
      <trkpt lat="37.7482524700" lon="-6.0376041289">
        <ele>363.04</ele>
        <time>2020-07-10T06:08:50Z</time>
      </trkpt>
      <trkpt lat="37.7486221120" lon="-6.0379778780">
        <ele>362.07</ele>
        <time>2020-07-10T06:08:57Z</time>
      </trkpt>
      <trkpt lat="37.7488270495" lon="-6.0382146668">
        <ele>363.52</ele>
        <time>2020-07-10T06:09:03Z</time>
      </trkpt>
      <trkpt lat="37.7490349207" lon="-6.0384572390">
        <ele>364.48</ele>
        <time>2020-07-10T06:09:11Z</time>
      </trkpt>
      <trkpt lat="37.7492812648" lon="-6.0387542099">
        <ele>365.44</ele>
        <time>2020-07-10T06:09:21Z</time>
      </trkpt>
      <trkpt lat="37.7495343983" lon="-6.0390349198">
        <ele>365.92</ele>
        <time>2020-07-10T06:09:31Z</time>
      </trkpt>
      <trkpt lat="37.7498328779" lon="-6.0393708665">
        <ele>364.48</ele>
        <time>2020-07-10T06:09:42Z</time>
      </trkpt>
      <trkpt lat="37.7501581796" lon="-6.0397287738">
        <ele>364.00</ele>
        <time>2020-07-10T06:09:53Z</time>
      </trkpt>
      <trkpt lat="37.7504533902" lon="-6.0400590207">
        <ele>364.48</ele>
        <time>2020-07-10T06:10:04Z</time>
      </trkpt>
      <trkpt lat="37.7507003210" lon="-6.0403502081">
        <ele>365.44</ele>
        <time>2020-07-10T06:10:14Z</time>
      </trkpt>
      <trkpt lat="37.7508946974" lon="-6.0406502802">
        <ele>366.88</ele>
        <time>2020-07-10T06:10:25Z</time>
      </trkpt>
      <trkpt lat="37.7510365192" lon="-6.0409467481">
        <ele>367.84</ele>
        <time>2020-07-10T06:10:35Z</time>
      </trkpt>
      <trkpt lat="37.7511769999" lon="-6.0413370933">
        <ele>369.76</ele>
        <time>2020-07-10T06:10:47Z</time>
      </trkpt>
      <trkpt lat="37.7512282133" lon="-6.0415020492">
        <ele>371.69</ele>
        <time>2020-07-10T06:10:54Z</time>
      </trkpt>
      <trkpt lat="37.7512986213" lon="-6.0417066514">
        <ele>372.65</ele>
        <time>2020-07-10T06:11:03Z</time>
      </trkpt>
      <trkpt lat="37.7513507567" lon="-6.0418502335">
        <ele>373.61</ele>
        <time>2020-07-10T06:11:10Z</time>
      </trkpt>
      <trkpt lat="37.7513983659" lon="-6.0420179553">
        <ele>375.05</ele>
        <time>2020-07-10T06:11:18Z</time>
      </trkpt>
      <trkpt lat="37.7514844481" lon="-6.0422549956">
        <ele>376.97</ele>
        <time>2020-07-10T06:11:30Z</time>
      </trkpt>
      <trkpt lat="37.7515316382" lon="-6.0423969850">
        <ele>377.94</ele>
        <time>2020-07-10T06:11:38Z</time>
      </trkpt>
      <trkpt lat="37.7515844442" lon="-6.0425277427">
        <ele>378.90</ele>
        <time>2020-07-10T06:11:46Z</time>
      </trkpt>
      <trkpt lat="37.7516471408" lon="-6.0426428262">
        <ele>379.86</ele>
        <time>2020-07-10T06:11:54Z</time>
      </trkpt>
      <trkpt lat="37.7516841050" lon="-6.0427312553">
        <ele>380.82</ele>
        <time>2020-07-10T06:12:00Z</time>
      </trkpt>
      <trkpt lat="37.7517477237" lon="-6.0428553913">
        <ele>381.30</ele>
        <time>2020-07-10T06:12:09Z</time>
      </trkpt>
      <trkpt lat="37.7517671697" lon="-6.0428980552">
        <ele>381.78</ele>
        <time>2020-07-10T06:12:12Z</time>
      </trkpt>
      <trkpt lat="37.7518352307" lon="-6.0430134740">
        <ele>382.74</ele>
        <time>2020-07-10T06:12:21Z</time>
      </trkpt>
      <trkpt lat="37.7519011125" lon="-6.0431341734">
        <ele>383.22</ele>
        <time>2020-07-10T06:12:30Z</time>
      </trkpt>
      <trkpt lat="37.7519628033" lon="-6.0432334151">
        <ele>384.18</ele>
        <time>2020-07-10T06:12:38Z</time>
      </trkpt>
      <trkpt lat="37.7520128433" lon="-6.0433153063">
        <ele>384.66</ele>
        <time>2020-07-10T06:12:44Z</time>
      </trkpt>
      <trkpt lat="37.7520637214" lon="-6.0434029810">
        <ele>385.63</ele>
        <time>2020-07-10T06:12:51Z</time>
      </trkpt>
      <trkpt lat="37.7521361411" lon="-6.0435192380">
        <ele>386.11</ele>
        <time>2020-07-10T06:13:00Z</time>
      </trkpt>
      <trkpt lat="37.7521985862" lon="-6.0436208267">
        <ele>387.07</ele>
        <time>2020-07-10T06:13:08Z</time>
      </trkpt>
      <trkpt lat="37.7522270847" lon="-6.0436732974">
        <ele>387.07</ele>
        <time>2020-07-10T06:13:12Z</time>
      </trkpt>
      <trkpt lat="37.7522368077" lon="-6.0436846968">
        <ele>387.07</ele>
        <time>2020-07-10T06:13:13Z</time>
      </trkpt>
      <trkpt lat="37.7523021866" lon="-6.0437819269">
        <ele>388.51</ele>
        <time>2020-07-10T06:13:21Z</time>
      </trkpt>
      <trkpt lat="37.7523917891" lon="-6.0439353995">
        <ele>389.95</ele>
        <time>2020-07-10T06:13:32Z</time>
      </trkpt>
      <trkpt lat="37.7525020111" lon="-6.0441115033">
        <ele>390.91</ele>
        <time>2020-07-10T06:13:43Z</time>
      </trkpt>
      <trkpt lat="37.7525900211" lon="-6.0442494694">
        <ele>390.91</ele>
        <time>2020-07-10T06:13:51Z</time>
      </trkpt>
      <trkpt lat="37.7527444996" lon="-6.0444781277">
        <ele>389.47</ele>
        <time>2020-07-10T06:14:00Z</time>
      </trkpt>
      <trkpt lat="37.7527446672" lon="-6.0444871802">
        <ele>389.47</ele>
        <time>2020-07-10T06:14:05Z</time>
      </trkpt>
      <trkpt lat="37.7527460083" lon="-6.0444872640">
        <ele>389.47</ele>
        <time>2020-07-10T06:14:20Z</time>
      </trkpt>
      <trkpt lat="37.7527447511" lon="-6.0444850847">
        <ele>389.95</ele>
        <time>2020-07-10T06:14:31Z</time>
      </trkpt>
      <trkpt lat="37.7527400572" lon="-6.0444787983">
        <ele>389.47</ele>
        <time>2020-07-10T06:14:43Z</time>
      </trkpt>
      <trkpt lat="37.7527510375" lon="-6.0444927961">
        <ele>388.03</ele>
        <time>2020-07-10T06:15:08Z</time>
      </trkpt>
      <trkpt lat="37.7528429870" lon="-6.0446472745">
        <ele>388.03</ele>
        <time>2020-07-10T06:15:15Z</time>
      </trkpt>
      <trkpt lat="37.7530402131" lon="-6.0449536331">
        <ele>388.03</ele>
        <time>2020-07-10T06:15:24Z</time>
      </trkpt>
      <trkpt lat="37.7532635909" lon="-6.0452440660">
        <ele>388.03</ele>
        <time>2020-07-10T06:15:34Z</time>
      </trkpt>
      <trkpt lat="37.7535270341" lon="-6.0454989597">
        <ele>388.03</ele>
        <time>2020-07-10T06:15:45Z</time>
      </trkpt>
      <trkpt lat="37.7537110168" lon="-6.0456334054">
        <ele>388.51</ele>
        <time>2020-07-10T06:15:53Z</time>
      </trkpt>
      <trkpt lat="37.7538815048" lon="-6.0457427893">
        <ele>389.95</ele>
        <time>2020-07-10T06:16:02Z</time>
      </trkpt>
      <trkpt lat="37.7540316246" lon="-6.0458429530">
        <ele>391.87</ele>
        <time>2020-07-10T06:16:11Z</time>
      </trkpt>
      <trkpt lat="37.7540798206" lon="-6.0458755586">
        <ele>392.36</ele>
        <time>2020-07-10T06:16:14Z</time>
      </trkpt>
      <trkpt lat="37.7540937345" lon="-6.0458883829">
        <ele>392.36</ele>
        <time>2020-07-10T06:16:15Z</time>
      </trkpt>
      <trkpt lat="37.7541093249" lon="-6.0458982736">
        <ele>392.36</ele>
        <time>2020-07-10T06:16:16Z</time>
      </trkpt>
      <trkpt lat="37.7542404179" lon="-6.0459802486">
        <ele>393.32</ele>
        <time>2020-07-10T06:16:25Z</time>
      </trkpt>
      <trkpt lat="37.7543429285" lon="-6.0460555181">
        <ele>394.76</ele>
        <time>2020-07-10T06:16:33Z</time>
      </trkpt>
      <trkpt lat="37.7544493787" lon="-6.0461377446">
        <ele>395.72</ele>
        <time>2020-07-10T06:16:41Z</time>
      </trkpt>
      <trkpt lat="37.7545746882" lon="-6.0462410096">
        <ele>396.68</ele>
        <time>2020-07-10T06:16:51Z</time>
      </trkpt>
      <trkpt lat="37.7546720859" lon="-6.0463360604">
        <ele>397.64</ele>
        <time>2020-07-10T06:17:00Z</time>
      </trkpt>
      <trkpt lat="37.7547761053" lon="-6.0464452766">
        <ele>398.60</ele>
        <time>2020-07-10T06:17:09Z</time>
      </trkpt>
      <trkpt lat="37.7548953798" lon="-6.0465603601">
        <ele>399.57</ele>
        <time>2020-07-10T06:17:19Z</time>
      </trkpt>
      <trkpt lat="37.7549979743" lon="-6.0466662236">
        <ele>401.01</ele>
        <time>2020-07-10T06:17:29Z</time>
      </trkpt>
      <trkpt lat="37.7550087869" lon="-6.0466808081">
        <ele>401.01</ele>
        <time>2020-07-10T06:17:30Z</time>
      </trkpt>
      <trkpt lat="37.7550193481" lon="-6.0466937162">
        <ele>401.01</ele>
        <time>2020-07-10T06:17:31Z</time>
      </trkpt>
      <trkpt lat="37.7550298255" lon="-6.0467036068">
        <ele>401.01</ele>
        <time>2020-07-10T06:17:32Z</time>
      </trkpt>
      <trkpt lat="37.7550838050" lon="-6.0467604361">
        <ele>401.97</ele>
        <time>2020-07-10T06:17:38Z</time>
      </trkpt>
      <trkpt lat="37.7551636845" lon="-6.0468383878">
        <ele>403.41</ele>
        <time>2020-07-10T06:17:46Z</time>
      </trkpt>
      <trkpt lat="37.7552548796" lon="-6.0469243024">
        <ele>403.89</ele>
        <time>2020-07-10T06:17:54Z</time>
      </trkpt>
      <trkpt lat="37.7552872337" lon="-6.0469561536">
        <ele>404.37</ele>
        <time>2020-07-10T06:17:57Z</time>
      </trkpt>
      <trkpt lat="37.7552989684" lon="-6.0469662119">
        <ele>404.85</ele>
        <time>2020-07-10T06:17:58Z</time>
      </trkpt>
      <trkpt lat="37.7554174885" lon="-6.0470903479">
        <ele>405.81</ele>
        <time>2020-07-10T06:18:07Z</time>
      </trkpt>
      <trkpt lat="37.7555363439" lon="-6.0472051799">
        <ele>406.29</ele>
        <time>2020-07-10T06:18:15Z</time>
      </trkpt>
      <trkpt lat="37.7556598093" lon="-6.0473380331">
        <ele>406.77</ele>
        <time>2020-07-10T06:18:24Z</time>
      </trkpt>
      <trkpt lat="37.7558083367" lon="-6.0474939365">
        <ele>407.74</ele>
        <time>2020-07-10T06:18:35Z</time>
      </trkpt>
      <trkpt lat="37.7559461351" lon="-6.0476422962">
        <ele>408.70</ele>
        <time>2020-07-10T06:18:45Z</time>
      </trkpt>
      <trkpt lat="37.7561237477" lon="-6.0478258599">
        <ele>409.66</ele>
        <time>2020-07-10T06:18:58Z</time>
      </trkpt>
      <trkpt lat="37.7562435251" lon="-6.0479477327">
        <ele>410.62</ele>
        <time>2020-07-10T06:19:07Z</time>
      </trkpt>
      <trkpt lat="37.7563454490" lon="-6.0480620619">
        <ele>411.10</ele>
        <time>2020-07-10T06:19:15Z</time>
      </trkpt>
      <trkpt lat="37.7564777993" lon="-6.0482226592">
        <ele>410.62</ele>
        <time>2020-07-10T06:19:25Z</time>
      </trkpt>
      <trkpt lat="37.7566465270" lon="-6.0484275967">
        <ele>410.14</ele>
        <time>2020-07-10T06:19:35Z</time>
      </trkpt>
      <trkpt lat="37.7568817232" lon="-6.0487275012">
        <ele>409.66</ele>
        <time>2020-07-10T06:19:45Z</time>
      </trkpt>
      <trkpt lat="37.7569817193" lon="-6.0488684010">
        <ele>410.14</ele>
        <time>2020-07-10T06:19:51Z</time>
      </trkpt>
      <trkpt lat="37.7571394667" lon="-6.0490833130">
        <ele>412.06</ele>
        <time>2020-07-10T06:20:02Z</time>
      </trkpt>
      <trkpt lat="37.7572487667" lon="-6.0492398869">
        <ele>413.50</ele>
        <time>2020-07-10T06:20:11Z</time>
      </trkpt>
      <trkpt lat="37.7573839668" lon="-6.0494405497">
        <ele>414.95</ele>
        <time>2020-07-10T06:20:23Z</time>
      </trkpt>
      <trkpt lat="37.7575033251" lon="-6.0496152285">
        <ele>416.39</ele>
        <time>2020-07-10T06:20:33Z</time>
      </trkpt>
      <trkpt lat="37.7576140501" lon="-6.0497894045">
        <ele>416.87</ele>
        <time>2020-07-10T06:20:43Z</time>
      </trkpt>
      <trkpt lat="37.7577223442" lon="-6.0499735549">
        <ele>415.91</ele>
        <time>2020-07-10T06:20:52Z</time>
      </trkpt>
      <trkpt lat="37.7578763198" lon="-6.0502191447">
        <ele>413.98</ele>
        <time>2020-07-10T06:20:57Z</time>
      </trkpt>
      <trkpt lat="37.7581775654" lon="-6.0506784730">
        <ele>413.02</ele>
        <time>2020-07-10T06:21:04Z</time>
      </trkpt>
      <trkpt lat="37.7583333850" lon="-6.0508441832">
        <ele>414.95</ele>
        <time>2020-07-10T06:21:09Z</time>
      </trkpt>
      <trkpt lat="37.7584881149" lon="-6.0509745218">
        <ele>417.35</ele>
        <time>2020-07-10T06:21:18Z</time>
      </trkpt>
      <trkpt lat="37.7586052939" lon="-6.0510684829">
        <ele>419.27</ele>
        <time>2020-07-10T06:21:26Z</time>
      </trkpt>
      <trkpt lat="37.7587227244" lon="-6.0511719156">
        <ele>420.71</ele>
        <time>2020-07-10T06:21:36Z</time>
      </trkpt>
      <trkpt lat="37.7588281687" lon="-6.0512503702">
        <ele>421.19</ele>
        <time>2020-07-10T06:21:45Z</time>
      </trkpt>
      <trkpt lat="37.7589251474" lon="-6.0513263103">
        <ele>422.16</ele>
        <time>2020-07-10T06:21:54Z</time>
      </trkpt>
      <trkpt lat="37.7589593455" lon="-6.0513576586">
        <ele>422.64</ele>
        <time>2020-07-10T06:21:57Z</time>
      </trkpt>
      <trkpt lat="37.7589691523" lon="-6.0513683036">
        <ele>422.64</ele>
        <time>2020-07-10T06:21:58Z</time>
      </trkpt>
      <trkpt lat="37.7589816414" lon="-6.0513768531">
        <ele>423.12</ele>
        <time>2020-07-10T06:21:59Z</time>
      </trkpt>
      <trkpt lat="37.7590999100" lon="-6.0514915176">
        <ele>424.08</ele>
        <time>2020-07-10T06:22:10Z</time>
      </trkpt>
      <trkpt lat="37.7591983974" lon="-6.0516154021">
        <ele>425.52</ele>
        <time>2020-07-10T06:22:20Z</time>
      </trkpt>
      <trkpt lat="37.7592905145" lon="-6.0517477524">
        <ele>426.96</ele>
        <time>2020-07-10T06:22:30Z</time>
      </trkpt>
      <trkpt lat="37.7593610901" lon="-6.0518577229">
        <ele>427.92</ele>
        <time>2020-07-10T06:22:38Z</time>
      </trkpt>
      <trkpt lat="37.7594311628" lon="-6.0519567132">
        <ele>428.40</ele>
        <time>2020-07-10T06:22:46Z</time>
      </trkpt>
      <trkpt lat="37.7594899200" lon="-6.0520405322">
        <ele>429.37</ele>
        <time>2020-07-10T06:22:54Z</time>
      </trkpt>
      <trkpt lat="37.7595428098" lon="-6.0521319788">
        <ele>430.33</ele>
        <time>2020-07-10T06:23:01Z</time>
      </trkpt>
      <trkpt lat="37.7595519461" lon="-6.0521432944">
        <ele>430.33</ele>
        <time>2020-07-10T06:23:02Z</time>
      </trkpt>
      <trkpt lat="37.7596269641" lon="-6.0522604734">
        <ele>431.77</ele>
        <time>2020-07-10T06:23:11Z</time>
      </trkpt>
      <trkpt lat="37.7596776746" lon="-6.0523488186">
        <ele>433.21</ele>
        <time>2020-07-10T06:23:19Z</time>
      </trkpt>
      <trkpt lat="37.7596842125" lon="-6.0523611400">
        <ele>433.21</ele>
        <time>2020-07-10T06:23:20Z</time>
      </trkpt>
      <trkpt lat="37.7597365994" lon="-6.0524432827">
        <ele>433.69</ele>
        <time>2020-07-10T06:23:28Z</time>
      </trkpt>
      <trkpt lat="37.7597900759" lon="-6.0525439493">
        <ele>434.65</ele>
        <time>2020-07-10T06:23:37Z</time>
      </trkpt>
      <trkpt lat="37.7597963624" lon="-6.0525557678">
        <ele>434.65</ele>
        <time>2020-07-10T06:23:38Z</time>
      </trkpt>
      <trkpt lat="37.7598044090" lon="-6.0525666643">
        <ele>434.65</ele>
        <time>2020-07-10T06:23:39Z</time>
      </trkpt>
      <trkpt lat="37.7598120365" lon="-6.0525763035">
        <ele>435.13</ele>
        <time>2020-07-10T06:23:40Z</time>
      </trkpt>
      <trkpt lat="37.7598183230" lon="-6.0525877029">
        <ele>435.13</ele>
        <time>2020-07-10T06:23:41Z</time>
      </trkpt>
      <trkpt lat="37.7598241903" lon="-6.0526003595">
        <ele>435.13</ele>
        <time>2020-07-10T06:23:42Z</time>
      </trkpt>
      <trkpt lat="37.7598327398" lon="-6.0526111722">
        <ele>435.13</ele>
        <time>2020-07-10T06:23:43Z</time>
      </trkpt>
      <trkpt lat="37.7598404512" lon="-6.0526213143">
        <ele>435.13</ele>
        <time>2020-07-10T06:23:44Z</time>
      </trkpt>
      <trkpt lat="37.7599067520" lon="-6.0527215619">
        <ele>436.58</ele>
        <time>2020-07-10T06:23:54Z</time>
      </trkpt>
      <trkpt lat="37.7599225938" lon="-6.0527443606">
        <ele>437.06</ele>
        <time>2020-07-10T06:23:56Z</time>
      </trkpt>
      <trkpt lat="37.7599267010" lon="-6.0527596157">
        <ele>437.06</ele>
        <time>2020-07-10T06:23:57Z</time>
      </trkpt>
      <trkpt lat="37.7599354181" lon="-6.0527712665">
        <ele>437.06</ele>
        <time>2020-07-10T06:23:58Z</time>
      </trkpt>
      <trkpt lat="37.7599462308" lon="-6.0527800675">
        <ele>437.06</ele>
        <time>2020-07-10T06:23:59Z</time>
      </trkpt>
      <trkpt lat="37.7599562891" lon="-6.0527933948">
        <ele>437.06</ele>
        <time>2020-07-10T06:24:00Z</time>
      </trkpt>
      <trkpt lat="37.7599612344" lon="-6.0528058838">
        <ele>437.54</ele>
        <time>2020-07-10T06:24:01Z</time>
      </trkpt>
      <trkpt lat="37.7599644195" lon="-6.0528227314">
        <ele>437.54</ele>
        <time>2020-07-10T06:24:02Z</time>
      </trkpt>
      <trkpt lat="37.7599681076" lon="-6.0528379865">
        <ele>437.54</ele>
        <time>2020-07-10T06:24:03Z</time>
      </trkpt>
      <trkpt lat="37.7599756513" lon="-6.0528503917">
        <ele>437.54</ele>
        <time>2020-07-10T06:24:04Z</time>
      </trkpt>
      <trkpt lat="37.7599853743" lon="-6.0528592765">
        <ele>437.54</ele>
        <time>2020-07-10T06:24:05Z</time>
      </trkpt>
      <trkpt lat="37.7599951811" lon="-6.0528669041">
        <ele>437.54</ele>
        <time>2020-07-10T06:24:06Z</time>
      </trkpt>
      <trkpt lat="37.7600033116" lon="-6.0528782196">
        <ele>437.54</ele>
        <time>2020-07-10T06:24:07Z</time>
      </trkpt>
      <trkpt lat="37.7600079216" lon="-6.0528938938">
        <ele>437.54</ele>
        <time>2020-07-10T06:24:08Z</time>
      </trkpt>
      <trkpt lat="37.7600106876" lon="-6.0529101547">
        <ele>438.02</ele>
        <time>2020-07-10T06:24:09Z</time>
      </trkpt>
      <trkpt lat="37.7600158006" lon="-6.0529239010">
        <ele>437.54</ele>
        <time>2020-07-10T06:24:10Z</time>
      </trkpt>
      <trkpt lat="37.7600698639" lon="-6.0530031938">
        <ele>438.98</ele>
        <time>2020-07-10T06:24:18Z</time>
      </trkpt>
      <trkpt lat="37.7601432893" lon="-6.0531327780">
        <ele>440.42</ele>
        <time>2020-07-10T06:24:28Z</time>
      </trkpt>
      <trkpt lat="37.7602314670" lon="-6.0533072054">
        <ele>442.34</ele>
        <time>2020-07-10T06:24:39Z</time>
      </trkpt>
      <trkpt lat="37.7603173815" lon="-6.0534876678">
        <ele>444.27</ele>
        <time>2020-07-10T06:24:50Z</time>
      </trkpt>
      <trkpt lat="37.7604245860" lon="-6.0536548030">
        <ele>446.19</ele>
        <time>2020-07-10T06:25:01Z</time>
      </trkpt>
      <trkpt lat="37.7605068963" lon="-6.0537760053">
        <ele>447.63</ele>
        <time>2020-07-10T06:25:10Z</time>
      </trkpt>
      <trkpt lat="37.7606161125" lon="-6.0539093614">
        <ele>449.07</ele>
        <time>2020-07-10T06:25:20Z</time>
      </trkpt>
      <trkpt lat="37.7607043739" lon="-6.0540246964">
        <ele>450.03</ele>
        <time>2020-07-10T06:25:28Z</time>
      </trkpt>
      <trkpt lat="37.7608375624" lon="-6.0542006325">
        <ele>452.44</ele>
        <time>2020-07-10T06:25:40Z</time>
      </trkpt>
      <trkpt lat="37.7609366365" lon="-6.0543546919">
        <ele>454.36</ele>
        <time>2020-07-10T06:25:50Z</time>
      </trkpt>
      <trkpt lat="37.7610137500" lon="-6.0544772353">
        <ele>455.32</ele>
        <time>2020-07-10T06:25:59Z</time>
      </trkpt>
      <trkpt lat="37.7610652987" lon="-6.0545769800">
        <ele>456.28</ele>
        <time>2020-07-10T06:26:06Z</time>
      </trkpt>
      <trkpt lat="37.7611523028" lon="-6.0547621362">
        <ele>457.72</ele>
        <time>2020-07-10T06:26:17Z</time>
      </trkpt>
      <trkpt lat="37.7612211183" lon="-6.0549192969">
        <ele>458.21</ele>
        <time>2020-07-10T06:26:26Z</time>
      </trkpt>
      <trkpt lat="37.7612938732" lon="-6.0550761223">
        <ele>459.65</ele>
        <time>2020-07-10T06:26:35Z</time>
      </trkpt>
      <trkpt lat="37.7613744233" lon="-6.0552364681">
        <ele>461.09</ele>
        <time>2020-07-10T06:26:44Z</time>
      </trkpt>
      <trkpt lat="37.7614530455" lon="-6.0554073751">
        <ele>463.01</ele>
        <time>2020-07-10T06:26:53Z</time>
      </trkpt>
      <trkpt lat="37.7615514491" lon="-6.0556139890">
        <ele>463.97</ele>
        <time>2020-07-10T06:27:04Z</time>
      </trkpt>
      <trkpt lat="37.7616309095" lon="-6.0557806212">
        <ele>465.42</ele>
        <time>2020-07-10T06:27:13Z</time>
      </trkpt>
      <trkpt lat="37.7617286425" lon="-6.0560174100">
        <ele>465.90</ele>
        <time>2020-07-10T06:27:25Z</time>
      </trkpt>
      <trkpt lat="37.7618172392" lon="-6.0562097747">
        <ele>467.34</ele>
        <time>2020-07-10T06:27:35Z</time>
      </trkpt>
      <trkpt lat="37.7619168162" lon="-6.0564396903">
        <ele>468.78</ele>
        <time>2020-07-10T06:27:46Z</time>
      </trkpt>
      <trkpt lat="37.7620059159" lon="-6.0566471424">
        <ele>470.22</ele>
        <time>2020-07-10T06:27:56Z</time>
      </trkpt>
      <trkpt lat="37.7620774135" lon="-6.0568057280">
        <ele>471.66</ele>
        <time>2020-07-10T06:28:04Z</time>
      </trkpt>
      <trkpt lat="37.7621480729" lon="-6.0569610447">
        <ele>472.14</ele>
        <time>2020-07-10T06:28:12Z</time>
      </trkpt>
      <trkpt lat="37.7622277848" lon="-6.0571353044">
        <ele>474.07</ele>
        <time>2020-07-10T06:28:21Z</time>
      </trkpt>
      <trkpt lat="37.7622781601" lon="-6.0572460294">
        <ele>474.07</ele>
        <time>2020-07-10T06:28:28Z</time>
      </trkpt>
      <trkpt lat="37.7623771504" lon="-6.0574360471">
        <ele>475.51</ele>
        <time>2020-07-10T06:28:39Z</time>
      </trkpt>
      <trkpt lat="37.7624370810" lon="-6.0575519688">
        <ele>476.95</ele>
        <time>2020-07-10T06:28:47Z</time>
      </trkpt>
      <trkpt lat="37.7625432797" lon="-6.0577377956">
        <ele>477.91</ele>
        <time>2020-07-10T06:28:57Z</time>
      </trkpt>
      <trkpt lat="37.7626619674" lon="-6.0579496901">
        <ele>480.32</ele>
        <time>2020-07-10T06:29:08Z</time>
      </trkpt>
      <trkpt lat="37.7627499774" lon="-6.0580886621">
        <ele>480.80</ele>
        <time>2020-07-10T06:29:15Z</time>
      </trkpt>
      <trkpt lat="37.7629245725" lon="-6.0583588108">
        <ele>481.76</ele>
        <time>2020-07-10T06:29:29Z</time>
      </trkpt>
      <trkpt lat="37.7630477864" lon="-6.0585313104">
        <ele>482.24</ele>
        <time>2020-07-10T06:29:39Z</time>
      </trkpt>
      <trkpt lat="37.7631555777" lon="-6.0586841963">
        <ele>482.72</ele>
        <time>2020-07-10T06:29:48Z</time>
      </trkpt>
      <trkpt lat="37.7633173484" lon="-6.0589113459">
        <ele>483.20</ele>
        <time>2020-07-10T06:30:00Z</time>
      </trkpt>
      <trkpt lat="37.7634466812" lon="-6.0590919759">
        <ele>483.68</ele>
        <time>2020-07-10T06:30:10Z</time>
      </trkpt>
      <trkpt lat="37.7635505330" lon="-6.0592436045">
        <ele>484.16</ele>
        <time>2020-07-10T06:30:19Z</time>
      </trkpt>
      <trkpt lat="37.7636784408" lon="-6.0594244022">
        <ele>484.64</ele>
        <time>2020-07-10T06:30:29Z</time>
      </trkpt>
      <trkpt lat="37.7638308238" lon="-6.0596341174">
        <ele>485.60</ele>
        <time>2020-07-10T06:30:40Z</time>
      </trkpt>
      <trkpt lat="37.7639789321" lon="-6.0598515440">
        <ele>486.56</ele>
        <time>2020-07-10T06:30:51Z</time>
      </trkpt>
      <trkpt lat="37.7641296387" lon="-6.0600571521">
        <ele>488.01</ele>
        <time>2020-07-10T06:31:02Z</time>
      </trkpt>
      <trkpt lat="37.7642748132" lon="-6.0602616705">
        <ele>488.97</ele>
        <time>2020-07-10T06:31:13Z</time>
      </trkpt>
      <trkpt lat="37.7644113544" lon="-6.0604599863">
        <ele>489.93</ele>
        <time>2020-07-10T06:31:24Z</time>
      </trkpt>
      <trkpt lat="37.7645837702" lon="-6.0606956016">
        <ele>490.89</ele>
        <time>2020-07-10T06:31:37Z</time>
      </trkpt>
      <trkpt lat="37.7646984346" lon="-6.0608655028">
        <ele>491.85</ele>
        <time>2020-07-10T06:31:46Z</time>
      </trkpt>
      <trkpt lat="37.7648545057" lon="-6.0610711109">
        <ele>493.29</ele>
        <time>2020-07-10T06:31:57Z</time>
      </trkpt>
      <trkpt lat="37.7649747860" lon="-6.0612440296">
        <ele>493.77</ele>
        <time>2020-07-10T06:32:07Z</time>
      </trkpt>
      <trkpt lat="37.7650587726" lon="-6.0613860190">
        <ele>493.77</ele>
        <time>2020-07-10T06:32:16Z</time>
      </trkpt>
      <trkpt lat="37.7650966588" lon="-6.0614513140">
        <ele>492.81</ele>
        <time>2020-07-10T06:32:22Z</time>
      </trkpt>
      <trkpt lat="37.7650917973" lon="-6.0614512302">
        <ele>493.29</ele>
        <time>2020-07-10T06:32:34Z</time>
      </trkpt>
      <trkpt lat="37.7650940605" lon="-6.0614437703">
        <ele>492.81</ele>
        <time>2020-07-10T06:32:54Z</time>
      </trkpt>
      <trkpt lat="37.7650983352" lon="-6.0614372324">
        <ele>493.77</ele>
        <time>2020-07-10T06:33:10Z</time>
      </trkpt>
      <trkpt lat="37.7650945634" lon="-6.0614445247">
        <ele>493.29</ele>
        <time>2020-07-10T06:33:29Z</time>
      </trkpt>
      <trkpt lat="37.7651080582" lon="-6.0614440218">
        <ele>492.81</ele>
        <time>2020-07-10T06:33:42Z</time>
      </trkpt>
      <trkpt lat="37.7650936414" lon="-6.0614432674">
        <ele>492.81</ele>
        <time>2020-07-10T06:33:55Z</time>
      </trkpt>
      <trkpt lat="37.7651033644" lon="-6.0614435188">
        <ele>492.33</ele>
        <time>2020-07-10T06:34:07Z</time>
      </trkpt>
      <trkpt lat="37.7651030291" lon="-6.0614379868">
        <ele>491.85</ele>
        <time>2020-07-10T06:34:28Z</time>
      </trkpt>
      <trkpt lat="37.7651228104" lon="-6.0614801478">
        <ele>491.37</ele>
        <time>2020-07-10T06:34:34Z</time>
      </trkpt>
      <trkpt lat="37.7651337069" lon="-6.0614957381">
        <ele>491.37</ele>
        <time>2020-07-10T06:34:35Z</time>
      </trkpt>
      <trkpt lat="37.7651464473" lon="-6.0615142621">
        <ele>491.37</ele>
        <time>2020-07-10T06:34:36Z</time>
      </trkpt>
      <trkpt lat="37.7651610319" lon="-6.0615368932">
        <ele>491.37</ele>
        <time>2020-07-10T06:34:37Z</time>
      </trkpt>
      <trkpt lat="37.7651755325" lon="-6.0615627095">
        <ele>491.37</ele>
        <time>2020-07-10T06:34:38Z</time>
      </trkpt>
      <trkpt lat="37.7653221320" lon="-6.0618133284">
        <ele>490.89</ele>
        <time>2020-07-10T06:34:45Z</time>
      </trkpt>
      <trkpt lat="37.7655795403" lon="-6.0622318368">
        <ele>488.97</ele>
        <time>2020-07-10T06:34:53Z</time>
      </trkpt>
      <trkpt lat="37.7659478411" lon="-6.0628028959">
        <ele>488.01</ele>
        <time>2020-07-10T06:35:02Z</time>
      </trkpt>
      <trkpt lat="37.7661788464" lon="-6.0631100927">
        <ele>489.45</ele>
        <time>2020-07-10T06:35:09Z</time>
      </trkpt>
      <trkpt lat="37.7663652599" lon="-6.0633131023">
        <ele>490.41</ele>
        <time>2020-07-10T06:35:17Z</time>
      </trkpt>
      <trkpt lat="37.7666541841" lon="-6.0635964945">
        <ele>491.85</ele>
        <time>2020-07-10T06:35:29Z</time>
      </trkpt>
      <trkpt lat="37.7668692637" lon="-6.0637948103">
        <ele>493.29</ele>
        <time>2020-07-10T06:35:39Z</time>
      </trkpt>
      <trkpt lat="37.7670915518" lon="-6.0640359577">
        <ele>495.22</ele>
        <time>2020-07-10T06:35:50Z</time>
      </trkpt>
      <trkpt lat="37.7673073020" lon="-6.0643315874">
        <ele>495.70</ele>
        <time>2020-07-10T06:36:03Z</time>
      </trkpt>
      <trkpt lat="37.7675103955" lon="-6.0646589845">
        <ele>496.66</ele>
        <time>2020-07-10T06:36:15Z</time>
      </trkpt>
      <trkpt lat="37.7676899359" lon="-6.0649330728">
        <ele>497.62</ele>
        <time>2020-07-10T06:36:25Z</time>
      </trkpt>
      <trkpt lat="37.7678747568" lon="-6.0651698615">
        <ele>498.58</ele>
        <time>2020-07-10T06:36:35Z</time>
      </trkpt>
      <trkpt lat="37.7681227773" lon="-6.0654645693">
        <ele>499.06</ele>
        <time>2020-07-10T06:36:47Z</time>
      </trkpt>
      <trkpt lat="37.7683718875" lon="-6.0657880269">
        <ele>500.02</ele>
        <time>2020-07-10T06:36:59Z</time>
      </trkpt>
      <trkpt lat="37.7685566247" lon="-6.0660615284">
        <ele>500.02</ele>
        <time>2020-07-10T06:37:08Z</time>
      </trkpt>
      <trkpt lat="37.7687213290" lon="-6.0663161706">
        <ele>500.50</ele>
        <time>2020-07-10T06:37:17Z</time>
      </trkpt>
      <trkpt lat="37.7689111792" lon="-6.0666293185">
        <ele>500.98</ele>
        <time>2020-07-10T06:37:28Z</time>
      </trkpt>
      <trkpt lat="37.7691120096" lon="-6.0669508483">
        <ele>501.46</ele>
        <time>2020-07-10T06:37:39Z</time>
      </trkpt>
      <trkpt lat="37.7692892030" lon="-6.0672366712">
        <ele>501.95</ele>
        <time>2020-07-10T06:37:49Z</time>
      </trkpt>
      <trkpt lat="37.7694836631" lon="-6.0675435327">
        <ele>502.91</ele>
        <time>2020-07-10T06:38:00Z</time>
      </trkpt>
      <trkpt lat="37.7696689870" lon="-6.0678674933">
        <ele>502.91</ele>
        <time>2020-07-10T06:38:11Z</time>
      </trkpt>
      <trkpt lat="37.7698682249" lon="-6.0683791246">
        <ele>503.39</ele>
        <time>2020-07-10T06:38:27Z</time>
      </trkpt>
      <trkpt lat="37.7699543908" lon="-6.0687498562">
        <ele>503.87</ele>
        <time>2020-07-10T06:38:38Z</time>
      </trkpt>
      <trkpt lat="37.7700376231" lon="-6.0691811051">
        <ele>504.35</ele>
        <time>2020-07-10T06:38:50Z</time>
      </trkpt>
      <trkpt lat="37.7700652834" lon="-6.0695775691">
        <ele>504.83</ele>
        <time>2020-07-10T06:39:00Z</time>
      </trkpt>
      <trkpt lat="37.7700765152" lon="-6.0699576046">
        <ele>506.27</ele>
        <time>2020-07-10T06:39:10Z</time>
      </trkpt>
      <trkpt lat="37.7700901777" lon="-6.0703565832">
        <ele>506.75</ele>
        <time>2020-07-10T06:39:21Z</time>
      </trkpt>
      <trkpt lat="37.7701103780" lon="-6.0707036778">
        <ele>506.27</ele>
        <time>2020-07-10T06:39:30Z</time>
      </trkpt>
      <trkpt lat="37.7701854799" lon="-6.0711946897">
        <ele>505.31</ele>
        <time>2020-07-10T06:39:43Z</time>
      </trkpt>
      <trkpt lat="37.7702578157" lon="-6.0716314707">
        <ele>504.83</ele>
        <time>2020-07-10T06:39:53Z</time>
      </trkpt>
      <trkpt lat="37.7703714743" lon="-6.0720996000">
        <ele>504.35</ele>
        <time>2020-07-10T06:40:03Z</time>
      </trkpt>
      <trkpt lat="37.7705186605" lon="-6.0726030171">
        <ele>505.31</ele>
        <time>2020-07-10T06:40:14Z</time>
      </trkpt>
      <trkpt lat="37.7706515137" lon="-6.0730363615">
        <ele>505.79</ele>
        <time>2020-07-10T06:40:24Z</time>
      </trkpt>
      <trkpt lat="37.7707990352" lon="-6.0734978691">
        <ele>506.75</ele>
        <time>2020-07-10T06:40:35Z</time>
      </trkpt>
      <trkpt lat="37.7709510829" lon="-6.0739389248">
        <ele>507.71</ele>
        <time>2020-07-10T06:40:46Z</time>
      </trkpt>
      <trkpt lat="37.7711499017" lon="-6.0743251629">
        <ele>508.19</ele>
        <time>2020-07-10T06:40:56Z</time>
      </trkpt>
      <trkpt lat="37.7713812422" lon="-6.0746367183">
        <ele>509.16</ele>
        <time>2020-07-10T06:41:06Z</time>
      </trkpt>
      <trkpt lat="37.7716316096" lon="-6.0748890135">
        <ele>509.16</ele>
        <time>2020-07-10T06:41:15Z</time>
      </trkpt>
      <trkpt lat="37.7719100565" lon="-6.0751545522">
        <ele>509.64</ele>
        <time>2020-07-10T06:41:25Z</time>
      </trkpt>
      <trkpt lat="37.7721005771" lon="-6.0753226094">
        <ele>510.60</ele>
        <time>2020-07-10T06:41:34Z</time>
      </trkpt>
      <trkpt lat="37.7723053470" lon="-6.0755091906">
        <ele>512.52</ele>
        <time>2020-07-10T06:41:45Z</time>
      </trkpt>
      <trkpt lat="37.7724440675" lon="-6.0756462347">
        <ele>514.44</ele>
        <time>2020-07-10T06:41:54Z</time>
      </trkpt>
      <trkpt lat="37.7725939360" lon="-6.0757924989">
        <ele>514.92</ele>
        <time>2020-07-10T06:42:04Z</time>
      </trkpt>
      <trkpt lat="37.7727264538" lon="-6.0759507492">
        <ele>516.85</ele>
        <time>2020-07-10T06:42:13Z</time>
      </trkpt>
      <trkpt lat="37.7728504222" lon="-6.0761120170">
        <ele>516.85</ele>
        <time>2020-07-10T06:42:21Z</time>
      </trkpt>
      <trkpt lat="37.7729337383" lon="-6.0762356501">
        <ele>517.81</ele>
        <time>2020-07-10T06:42:28Z</time>
      </trkpt>
      <trkpt lat="37.7730899770" lon="-6.0764653981">
        <ele>518.29</ele>
        <time>2020-07-10T06:42:39Z</time>
      </trkpt>
      <trkpt lat="37.7732555196" lon="-6.0767142568">
        <ele>518.77</ele>
        <time>2020-07-10T06:42:50Z</time>
      </trkpt>
      <trkpt lat="37.7734099142" lon="-6.0769469384">
        <ele>519.73</ele>
        <time>2020-07-10T06:43:00Z</time>
      </trkpt>
      <trkpt lat="37.7736137621" lon="-6.0772388801">
        <ele>520.21</ele>
        <time>2020-07-10T06:43:12Z</time>
      </trkpt>
      <trkpt lat="37.7738042828" lon="-6.0774855595">
        <ele>519.25</ele>
        <time>2020-07-10T06:43:21Z</time>
      </trkpt>
      <trkpt lat="37.7740953024" lon="-6.0777849611">
        <ele>517.81</ele>
        <time>2020-07-10T06:43:31Z</time>
      </trkpt>
      <trkpt lat="37.7744352724" lon="-6.0781053174">
        <ele>516.37</ele>
        <time>2020-07-10T06:43:41Z</time>
      </trkpt>
      <trkpt lat="37.7746480890" lon="-6.0783051420">
        <ele>515.88</ele>
        <time>2020-07-10T06:43:47Z</time>
      </trkpt>
      <trkpt lat="37.7746838797" lon="-6.0783358198">
        <ele>515.88</ele>
        <time>2020-07-10T06:43:48Z</time>
      </trkpt>
      <trkpt lat="37.7750660107" lon="-6.0787007678">
        <ele>514.44</ele>
        <time>2020-07-10T06:43:58Z</time>
      </trkpt>
      <trkpt lat="37.7755256742" lon="-6.0791406501">
        <ele>512.04</ele>
        <time>2020-07-10T06:44:09Z</time>
      </trkpt>
      <trkpt lat="37.7759056259" lon="-6.0794984736">
        <ele>510.60</ele>
        <time>2020-07-10T06:44:18Z</time>
      </trkpt>
      <trkpt lat="37.7763143275" lon="-6.0798876453">
        <ele>510.12</ele>
        <time>2020-07-10T06:44:27Z</time>
      </trkpt>
      <trkpt lat="37.7767472528" lon="-6.0803309642">
        <ele>507.71</ele>
        <time>2020-07-10T06:44:36Z</time>
      </trkpt>
      <trkpt lat="37.7772151306" lon="-6.0808564257">
        <ele>503.87</ele>
        <time>2020-07-10T06:44:44Z</time>
      </trkpt>
      <trkpt lat="37.7775144484" lon="-6.0814012494">
        <ele>501.46</ele>
        <time>2020-07-10T06:44:50Z</time>
      </trkpt>
      <trkpt lat="37.7778866887" lon="-6.0822973587">
        <ele>499.54</ele>
        <time>2020-07-10T06:44:59Z</time>
      </trkpt>
      <trkpt lat="37.7781414986" lon="-6.0827499814">
        <ele>499.54</ele>
        <time>2020-07-10T06:45:05Z</time>
      </trkpt>
      <trkpt lat="37.7783808857" lon="-6.0830279253">
        <ele>499.06</ele>
        <time>2020-07-10T06:45:11Z</time>
      </trkpt>
      <trkpt lat="37.7783980686" lon="-6.0830491316">
        <ele>499.06</ele>
        <time>2020-07-10T06:45:15Z</time>
      </trkpt>
      <trkpt lat="37.7783901058" lon="-6.0830461979">
        <ele>499.54</ele>
        <time>2020-07-10T06:45:27Z</time>
      </trkpt>
      <trkpt lat="37.7783924527" lon="-6.0830420908">
        <ele>499.54</ele>
        <time>2020-07-10T06:45:42Z</time>
      </trkpt>
      <trkpt lat="37.7783966437" lon="-6.0830411687">
        <ele>499.54</ele>
        <time>2020-07-10T06:45:58Z</time>
      </trkpt>
      <trkpt lat="37.7784378827" lon="-6.0830821563">
        <ele>498.58</ele>
        <time>2020-07-10T06:46:12Z</time>
      </trkpt>
      <trkpt lat="37.7785931155" lon="-6.0832580086">
        <ele>499.06</ele>
        <time>2020-07-10T06:46:20Z</time>
      </trkpt>
      <trkpt lat="37.7788027469" lon="-6.0834665503">
        <ele>499.06</ele>
        <time>2020-07-10T06:46:29Z</time>
      </trkpt>
      <trkpt lat="37.7788185049" lon="-6.0834808834">
        <ele>499.54</ele>
        <time>2020-07-10T06:46:34Z</time>
      </trkpt>
      <trkpt lat="37.7788148168" lon="-6.0834934562">
        <ele>499.54</ele>
        <time>2020-07-10T06:46:54Z</time>
      </trkpt>
      <trkpt lat="37.7788218576" lon="-6.0835059453">
        <ele>499.54</ele>
        <time>2020-07-10T06:46:55Z</time>
      </trkpt>
      <trkpt lat="37.7788335085" lon="-6.0835160036">
        <ele>499.54</ele>
        <time>2020-07-10T06:46:56Z</time>
      </trkpt>
      <trkpt lat="37.7788483445" lon="-6.0835257266">
        <ele>499.54</ele>
        <time>2020-07-10T06:46:57Z</time>
      </trkpt>
      <trkpt lat="37.7788663656" lon="-6.0835388862">
        <ele>500.02</ele>
        <time>2020-07-10T06:46:58Z</time>
      </trkpt>
      <trkpt lat="37.7788862307" lon="-6.0835548118">
        <ele>499.54</ele>
        <time>2020-07-10T06:46:59Z</time>
      </trkpt>
      <trkpt lat="37.7789010666" lon="-6.0835700668">
        <ele>499.54</ele>
        <time>2020-07-10T06:47:00Z</time>
      </trkpt>
      <trkpt lat="37.7789173275" lon="-6.0835874174">
        <ele>500.02</ele>
        <time>2020-07-10T06:47:01Z</time>
      </trkpt>
      <trkpt lat="37.7790410444" lon="-6.0837092903">
        <ele>500.50</ele>
        <time>2020-07-10T06:47:09Z</time>
      </trkpt>
      <trkpt lat="37.7792101074" lon="-6.0838826280">
        <ele>501.46</ele>
        <time>2020-07-10T06:47:19Z</time>
      </trkpt>
      <trkpt lat="37.7794158831" lon="-6.0840892419">
        <ele>502.91</ele>
        <time>2020-07-10T06:47:30Z</time>
      </trkpt>
      <trkpt lat="37.7796719503" lon="-6.0843331553">
        <ele>504.35</ele>
        <time>2020-07-10T06:47:42Z</time>
      </trkpt>
      <trkpt lat="37.7798319608" lon="-6.0844650865">
        <ele>504.83</ele>
        <time>2020-07-10T06:47:51Z</time>
      </trkpt>
      <trkpt lat="37.7800189611" lon="-6.0846063215">
        <ele>504.35</ele>
        <time>2020-07-10T06:48:02Z</time>
      </trkpt>
      <trkpt lat="37.7801505569" lon="-6.0846976005">
        <ele>504.35</ele>
        <time>2020-07-10T06:48:11Z</time>
      </trkpt>
      <trkpt lat="37.7803067118" lon="-6.0848139413">
        <ele>505.31</ele>
        <time>2020-07-10T06:48:20Z</time>
      </trkpt>
      <trkpt lat="37.7805095538" lon="-6.0849557631">
        <ele>505.31</ele>
        <time>2020-07-10T06:48:28Z</time>
      </trkpt>
      <trkpt lat="37.7807697281" lon="-6.0851296876">
        <ele>505.31</ele>
        <time>2020-07-10T06:48:37Z</time>
      </trkpt>
      <trkpt lat="37.7811467461" lon="-6.0854157619">
        <ele>506.27</ele>
        <time>2020-07-10T06:48:50Z</time>
      </trkpt>
      <trkpt lat="37.7813872229" lon="-6.0856180172">
        <ele>507.23</ele>
        <time>2020-07-10T06:48:59Z</time>
      </trkpt>
      <trkpt lat="37.7817302104" lon="-6.0859144013">
        <ele>507.71</ele>
        <time>2020-07-10T06:49:12Z</time>
      </trkpt>
      <trkpt lat="37.7820244990" lon="-6.0861828737">
        <ele>508.67</ele>
        <time>2020-07-10T06:49:23Z</time>
      </trkpt>
      <trkpt lat="37.7822550852" lon="-6.0863120388">
        <ele>509.64</ele>
        <time>2020-07-10T06:49:32Z</time>
      </trkpt>
      <trkpt lat="37.7824086417" lon="-6.0863265395">
        <ele>510.60</ele>
        <time>2020-07-10T06:49:39Z</time>
      </trkpt>
      <trkpt lat="37.7824623697" lon="-6.0863157269">
        <ele>511.08</ele>
        <time>2020-07-10T06:49:43Z</time>
      </trkpt>
      <trkpt lat="37.7824723441" lon="-6.0863218457">
        <ele>511.56</ele>
        <time>2020-07-10T06:49:44Z</time>
      </trkpt>
      <trkpt lat="37.7824478690" lon="-6.0863466561">
        <ele>511.08</ele>
        <time>2020-07-10T06:49:48Z</time>
      </trkpt>
      <trkpt lat="37.7824330330" lon="-6.0863464046">
        <ele>511.56</ele>
        <time>2020-07-10T06:49:49Z</time>
      </trkpt>
      <trkpt lat="37.7824195381" lon="-6.0863462370">
        <ele>511.56</ele>
        <time>2020-07-10T06:49:50Z</time>
      </trkpt>
      <trkpt lat="37.7824067138" lon="-6.0863567982">
        <ele>511.56</ele>
        <time>2020-07-10T06:49:51Z</time>
      </trkpt>
      <trkpt lat="37.7824030258" lon="-6.0863707960">
        <ele>511.56</ele>
        <time>2020-07-10T06:49:52Z</time>
      </trkpt>
      <trkpt lat="37.7824015170" lon="-6.0863852128">
        <ele>511.56</ele>
        <time>2020-07-10T06:49:58Z</time>
      </trkpt>
      <trkpt lat="37.7824088093" lon="-6.0863829497">
        <ele>512.52</ele>
        <time>2020-07-10T06:50:08Z</time>
      </trkpt>
      <trkpt lat="37.7824126650" lon="-6.0864009708">
        <ele>512.04</ele>
        <time>2020-07-10T06:50:24Z</time>
      </trkpt>
      <trkpt lat="37.7823995892" lon="-6.0863906611">
        <ele>512.52</ele>
        <time>2020-07-10T06:50:43Z</time>
      </trkpt>
      <trkpt lat="37.7824108209" lon="-6.0863971151">
        <ele>511.08</ele>
        <time>2020-07-10T06:51:07Z</time>
      </trkpt>
      <trkpt lat="37.7824026067" lon="-6.0864049941">
        <ele>514.44</ele>
        <time>2020-07-10T06:51:33Z</time>
      </trkpt>
      <trkpt lat="37.7824083902" lon="-6.0863883141">
        <ele>515.40</ele>
        <time>2020-07-10T06:51:54Z</time>
      </trkpt>
      <trkpt lat="37.7823949791" lon="-6.0863937624">
        <ele>513.48</ele>
        <time>2020-07-10T06:52:14Z</time>
      </trkpt>
      <trkpt lat="37.7824160177" lon="-6.0863777529">
        <ele>511.08</ele>
        <time>2020-07-10T06:52:40Z</time>
      </trkpt>
      <trkpt lat="37.7824159339" lon="-6.0863825306">
        <ele>511.08</ele>
        <time>2020-07-10T06:52:53Z</time>
      </trkpt>
      <trkpt lat="37.7824223880" lon="-6.0864063352">
        <ele>509.16</ele>
        <time>2020-07-10T06:53:19Z</time>
      </trkpt>
      <trkpt lat="37.7824228071" lon="-6.0863931756">
        <ele>509.16</ele>
        <time>2020-07-10T06:53:42Z</time>
      </trkpt>
      <trkpt lat="37.7824142575" lon="-6.0863978695">
        <ele>508.67</ele>
        <time>2020-07-10T06:53:59Z</time>
      </trkpt>
      <trkpt lat="37.7824196219" lon="-6.0864041559">
        <ele>509.16</ele>
        <time>2020-07-10T06:54:19Z</time>
      </trkpt>
      <trkpt lat="37.7824089769" lon="-6.0864030663">
        <ele>511.56</ele>
        <time>2020-07-10T06:54:44Z</time>
      </trkpt>
      <trkpt lat="37.7824052051" lon="-6.0863990430">
        <ele>511.08</ele>
        <time>2020-07-10T06:55:00Z</time>
      </trkpt>
      <trkpt lat="37.7823989186" lon="-6.0863913316">
        <ele>513.00</ele>
        <time>2020-07-10T06:55:16Z</time>
      </trkpt>
      <trkpt lat="37.7823988348" lon="-6.0863916669">
        <ele>513.48</ele>
        <time>2020-07-10T06:55:32Z</time>
      </trkpt>
      <trkpt lat="37.7824063785" lon="-6.0863881465">
        <ele>513.00</ele>
        <time>2020-07-10T06:55:46Z</time>
      </trkpt>
      <trkpt lat="37.7824117430" lon="-6.0863793455">
        <ele>512.52</ele>
        <time>2020-07-10T06:56:04Z</time>
      </trkpt>
      <trkpt lat="37.7824135032" lon="-6.0863897391">
        <ele>513.48</ele>
        <time>2020-07-10T06:56:22Z</time>
      </trkpt>
      <trkpt lat="37.7824140899" lon="-6.0863822792">
        <ele>512.52</ele>
        <time>2020-07-10T06:56:40Z</time>
      </trkpt>
      <trkpt lat="37.7824159339" lon="-6.0863914993">
        <ele>513.48</ele>
        <time>2020-07-10T06:56:55Z</time>
      </trkpt>
      <trkpt lat="37.7824254055" lon="-6.0864238534">
        <ele>512.52</ele>
        <time>2020-07-10T06:57:12Z</time>
      </trkpt>
      <trkpt lat="37.7824207116" lon="-6.0864147171">
        <ele>512.52</ele>
        <time>2020-07-10T06:57:28Z</time>
      </trkpt>
      <trkpt lat="37.7824168559" lon="-6.0863832850">
        <ele>510.60</ele>
        <time>2020-07-10T06:57:45Z</time>
      </trkpt>
      <trkpt lat="37.7824070491" lon="-6.0863818601">
        <ele>511.56</ele>
        <time>2020-07-10T06:58:00Z</time>
      </trkpt>
      <trkpt lat="37.7824249864" lon="-6.0863811895">
        <ele>511.08</ele>
        <time>2020-07-10T06:58:17Z</time>
      </trkpt>
      <trkpt lat="37.7824130002" lon="-6.0863792617">
        <ele>510.12</ele>
        <time>2020-07-10T06:58:31Z</time>
      </trkpt>
      <trkpt lat="37.7824156824" lon="-6.0863832850">
        <ele>511.08</ele>
        <time>2020-07-10T06:58:47Z</time>
      </trkpt>
      <trkpt lat="37.7824128326" lon="-6.0863868054">
        <ele>512.04</ele>
        <time>2020-07-10T06:59:02Z</time>
      </trkpt>
      <trkpt lat="37.7824138384" lon="-6.0863792617">
        <ele>511.56</ele>
        <time>2020-07-10T06:59:13Z</time>
      </trkpt>
      <trkpt lat="37.7824223042" lon="-6.0863913316">
        <ele>511.56</ele>
        <time>2020-07-10T06:59:26Z</time>
      </trkpt>
      <trkpt lat="37.7824136708" lon="-6.0863757413">
        <ele>511.08</ele>
        <time>2020-07-10T06:59:42Z</time>
      </trkpt>
      <trkpt lat="37.7824154310" lon="-6.0863593966">
        <ele>507.23</ele>
        <time>2020-07-10T07:00:04Z</time>
      </trkpt>
      <trkpt lat="37.7824107371" lon="-6.0863577202">
        <ele>508.19</ele>
        <time>2020-07-10T07:00:19Z</time>
      </trkpt>
      <trkpt lat="37.7824176103" lon="-6.0863648448">
        <ele>508.19</ele>
        <time>2020-07-10T07:00:33Z</time>
      </trkpt>
      <trkpt lat="37.7824049536" lon="-6.0863779206">
        <ele>509.16</ele>
        <time>2020-07-10T07:00:47Z</time>
      </trkpt>
      <trkpt lat="37.7824140061" lon="-6.0863781720">
        <ele>509.16</ele>
        <time>2020-07-10T07:01:04Z</time>
      </trkpt>
      <trkpt lat="37.7824008465" lon="-6.0863601509">
        <ele>509.64</ele>
        <time>2020-07-10T07:01:14Z</time>
      </trkpt>
      <trkpt lat="37.7823973261" lon="-6.0863690358">
        <ele>509.16</ele>
        <time>2020-07-10T07:01:21Z</time>
      </trkpt>
      <trkpt lat="37.7823907044" lon="-6.0863843746">
        <ele>509.16</ele>
        <time>2020-07-10T07:01:49Z</time>
      </trkpt>
      <trkpt lat="37.7823993377" lon="-6.0863688681">
        <ele>509.16</ele>
        <time>2020-07-10T07:01:54Z</time>
      </trkpt>
      <trkpt lat="37.7823239844" lon="-6.0863226838">
        <ele>508.19</ele>
        <time>2020-07-10T07:02:00Z</time>
      </trkpt>
      <trkpt lat="37.7823065501" lon="-6.0863360111">
        <ele>508.19</ele>
        <time>2020-07-10T07:02:02Z</time>
      </trkpt>
      <trkpt lat="37.7823781315" lon="-6.0863397829">
        <ele>508.19</ele>
        <time>2020-07-10T07:02:07Z</time>
      </trkpt>
      <trkpt lat="37.7825831529" lon="-6.0862776730">
        <ele>509.16</ele>
        <time>2020-07-10T07:02:16Z</time>
      </trkpt>
      <trkpt lat="37.7827258967" lon="-6.0861955304">
        <ele>510.60</ele>
        <time>2020-07-10T07:02:23Z</time>
      </trkpt>
      <trkpt lat="37.7827585023" lon="-6.0861890763">
        <ele>510.12</ele>
        <time>2020-07-10T07:02:28Z</time>
      </trkpt>
      <trkpt lat="37.7827509586" lon="-6.0861975420">
        <ele>510.12</ele>
        <time>2020-07-10T07:02:29Z</time>
      </trkpt>
      <trkpt lat="37.7827372123" lon="-6.0862066783">
        <ele>510.12</ele>
        <time>2020-07-10T07:02:30Z</time>
      </trkpt>
      <trkpt lat="37.7825722564" lon="-6.0862922575">
        <ele>509.64</ele>
        <time>2020-07-10T07:02:37Z</time>
      </trkpt>
      <trkpt lat="37.7824491262" lon="-6.0863651801">
        <ele>509.16</ele>
        <time>2020-07-10T07:02:43Z</time>
      </trkpt>
      <trkpt lat="37.7824434265" lon="-6.0863525234">
        <ele>510.60</ele>
        <time>2020-07-10T07:02:55Z</time>
      </trkpt>
      <trkpt lat="37.7824272495" lon="-6.0863329098">
        <ele>509.64</ele>
        <time>2020-07-10T07:03:01Z</time>
      </trkpt>
      <trkpt lat="37.7824113239" lon="-6.0863397829">
        <ele>510.12</ele>
        <time>2020-07-10T07:03:02Z</time>
      </trkpt>
      <trkpt lat="37.7823943924" lon="-6.0863537807">
        <ele>510.12</ele>
        <time>2020-07-10T07:03:03Z</time>
      </trkpt>
      <trkpt lat="37.7823803946" lon="-6.0863647610">
        <ele>510.12</ele>
        <time>2020-07-10T07:03:04Z</time>
      </trkpt>
      <trkpt lat="37.7823666483" lon="-6.0863697063">
        <ele>509.64</ele>
        <time>2020-07-10T07:03:05Z</time>
      </trkpt>
      <trkpt lat="37.7823512256" lon="-6.0863664374">
        <ele>509.64</ele>
        <time>2020-07-10T07:03:06Z</time>
      </trkpt>
      <trkpt lat="37.7823393233" lon="-6.0863604024">
        <ele>509.64</ele>
        <time>2020-07-10T07:03:07Z</time>
      </trkpt>
      <trkpt lat="37.7823335398" lon="-6.0863386095">
        <ele>509.16</ele>
        <time>2020-07-10T07:03:09Z</time>
      </trkpt>
      <trkpt lat="37.7823420893" lon="-6.0863287188">
        <ele>509.16</ele>
        <time>2020-07-10T07:03:10Z</time>
      </trkpt>
      <trkpt lat="37.7823566739" lon="-6.0863248631">
        <ele>509.16</ele>
        <time>2020-07-10T07:03:11Z</time>
      </trkpt>
      <trkpt lat="37.7823744435" lon="-6.0863250308">
        <ele>509.16</ele>
        <time>2020-07-10T07:03:12Z</time>
      </trkpt>
      <trkpt lat="37.7823919617" lon="-6.0863246955">
        <ele>509.16</ele>
        <time>2020-07-10T07:03:13Z</time>
      </trkpt>
      <trkpt lat="37.7824131679" lon="-6.0863226000">
        <ele>509.16</ele>
        <time>2020-07-10T07:03:14Z</time>
      </trkpt>
      <trkpt lat="37.7826253138" lon="-6.0862552095">
        <ele>509.16</ele>
        <time>2020-07-10T07:03:23Z</time>
      </trkpt>
      <trkpt lat="37.7828494459" lon="-6.0861139745">
        <ele>509.64</ele>
        <time>2020-07-10T07:03:33Z</time>
      </trkpt>
      <trkpt lat="37.7831145655" lon="-6.0859491862">
        <ele>510.12</ele>
        <time>2020-07-10T07:03:43Z</time>
      </trkpt>
      <trkpt lat="37.7834562957" lon="-6.0856900178">
        <ele>509.64</ele>
        <time>2020-07-10T07:03:54Z</time>
      </trkpt>
      <trkpt lat="37.7837836929" lon="-6.0853318591">
        <ele>508.67</ele>
        <time>2020-07-10T07:04:05Z</time>
      </trkpt>
      <trkpt lat="37.7841143589" lon="-6.0849632230">
        <ele>507.71</ele>
        <time>2020-07-10T07:04:16Z</time>
      </trkpt>
      <trkpt lat="37.7843429334" lon="-6.0847092513">
        <ele>507.23</ele>
        <time>2020-07-10T07:04:24Z</time>
      </trkpt>
      <trkpt lat="37.7846000902" lon="-6.0844175611">
        <ele>506.75</ele>
        <time>2020-07-10T07:04:31Z</time>
      </trkpt>
      <trkpt lat="37.7849564049" lon="-6.0840275511">
        <ele>505.79</ele>
        <time>2020-07-10T07:04:41Z</time>
      </trkpt>
      <trkpt lat="37.7849862445" lon="-6.0839929339">
        <ele>505.79</ele>
        <time>2020-07-10T07:04:42Z</time>
      </trkpt>
      <trkpt lat="37.7852534596" lon="-6.0836890899">
        <ele>505.31</ele>
        <time>2020-07-10T07:04:51Z</time>
      </trkpt>
      <trkpt lat="37.7855431382" lon="-6.0833000019">
        <ele>503.87</ele>
        <time>2020-07-10T07:05:01Z</time>
      </trkpt>
      <trkpt lat="37.7857654262" lon="-6.0829527397">
        <ele>503.87</ele>
        <time>2020-07-10T07:05:10Z</time>
      </trkpt>
      <trkpt lat="37.7858085092" lon="-6.0828817450">
        <ele>503.39</ele>
        <time>2020-07-10T07:05:15Z</time>
      </trkpt>
      <trkpt lat="37.7858075034" lon="-6.0828915518">
        <ele>505.79</ele>
        <time>2020-07-10T07:05:23Z</time>
      </trkpt>
      <trkpt lat="37.7858056594" lon="-6.0828937311">
        <ele>506.75</ele>
        <time>2020-07-10T07:05:38Z</time>
      </trkpt>
      <trkpt lat="37.7857967746" lon="-6.0828923900">
        <ele>506.75</ele>
        <time>2020-07-10T07:05:57Z</time>
      </trkpt>
      <trkpt lat="37.7857971936" lon="-6.0828984249">
        <ele>506.75</ele>
        <time>2020-07-10T07:06:11Z</time>
      </trkpt>
      <trkpt lat="37.7857917454" lon="-6.0829031188">
        <ele>506.27</ele>
        <time>2020-07-10T07:06:26Z</time>
      </trkpt>
      <trkpt lat="37.7857961040" lon="-6.0829028673">
        <ele>505.31</ele>
        <time>2020-07-10T07:06:46Z</time>
      </trkpt>
      <trkpt lat="37.7858639974" lon="-6.0828242451">
        <ele>505.31</ele>
        <time>2020-07-10T07:06:53Z</time>
      </trkpt>
      <trkpt lat="37.7860090043" lon="-6.0825587064">
        <ele>503.87</ele>
        <time>2020-07-10T07:07:00Z</time>
      </trkpt>
      <trkpt lat="37.7861537598" lon="-6.0821733065">
        <ele>501.95</ele>
        <time>2020-07-10T07:07:06Z</time>
      </trkpt>
      <trkpt lat="37.7863531653" lon="-6.0815765150">
        <ele>499.06</ele>
        <time>2020-07-10T07:07:14Z</time>
      </trkpt>
      <trkpt lat="37.7866369765" lon="-6.0807992611">
        <ele>495.22</ele>
        <time>2020-07-10T07:07:24Z</time>
      </trkpt>
      <trkpt lat="37.7868562471" lon="-6.0801686067">
        <ele>491.85</ele>
        <time>2020-07-10T07:07:33Z</time>
      </trkpt>
      <trkpt lat="37.7870653756" lon="-6.0795765091">
        <ele>489.93</ele>
        <time>2020-07-10T07:07:42Z</time>
      </trkpt>
      <trkpt lat="37.7872392163" lon="-6.0791590065">
        <ele>488.49</ele>
        <time>2020-07-10T07:07:50Z</time>
      </trkpt>
      <trkpt lat="37.7874905895" lon="-6.0788480379">
        <ele>486.08</ele>
        <time>2020-07-10T07:07:57Z</time>
      </trkpt>
      <trkpt lat="37.7879007999" lon="-6.0784640629">
        <ele>482.72</ele>
        <time>2020-07-10T07:08:05Z</time>
      </trkpt>
      <trkpt lat="37.7883791551" lon="-6.0780210793">
        <ele>478.39</ele>
        <time>2020-07-10T07:08:14Z</time>
      </trkpt>
      <trkpt lat="37.7888535708" lon="-6.0775800236">
        <ele>474.55</ele>
        <time>2020-07-10T07:08:23Z</time>
      </trkpt>
      <trkpt lat="37.7892835625" lon="-6.0771816317">
        <ele>471.66</ele>
        <time>2020-07-10T07:08:32Z</time>
      </trkpt>
      <trkpt lat="37.7897045854" lon="-6.0767952260">
        <ele>469.74</ele>
        <time>2020-07-10T07:08:40Z</time>
      </trkpt>
      <trkpt lat="37.7898749057" lon="-6.0766132548">
        <ele>468.78</ele>
        <time>2020-07-10T07:08:44Z</time>
      </trkpt>
      <trkpt lat="37.7899083495" lon="-6.0765632987">
        <ele>468.78</ele>
        <time>2020-07-10T07:08:45Z</time>
      </trkpt>
      <trkpt lat="37.7899381891" lon="-6.0765109118">
        <ele>468.30</ele>
        <time>2020-07-10T07:08:46Z</time>
      </trkpt>
      <trkpt lat="37.7899666876" lon="-6.0764525738">
        <ele>467.82</ele>
        <time>2020-07-10T07:08:47Z</time>
      </trkpt>
      <trkpt lat="37.7899962757" lon="-6.0763827525">
        <ele>467.34</ele>
        <time>2020-07-10T07:08:48Z</time>
      </trkpt>
      <trkpt lat="37.7901570406" lon="-6.0758783296">
        <ele>464.45</ele>
        <time>2020-07-10T07:08:55Z</time>
      </trkpt>
      <trkpt lat="37.7902309690" lon="-6.0756396130">
        <ele>463.01</ele>
        <time>2020-07-10T07:09:01Z</time>
      </trkpt>
      <trkpt lat="37.7903087530" lon="-6.0753629263">
        <ele>461.57</ele>
        <time>2020-07-10T07:09:09Z</time>
      </trkpt>
      <trkpt lat="37.7904135268" lon="-6.0751447454">
        <ele>460.13</ele>
        <time>2020-07-10T07:09:18Z</time>
      </trkpt>
      <trkpt lat="37.7905392554" lon="-6.0750650335">
        <ele>459.17</ele>
        <time>2020-07-10T07:09:23Z</time>
      </trkpt>
      <trkpt lat="37.7907099109" lon="-6.0750428215">
        <ele>457.72</ele>
        <time>2020-07-10T07:09:27Z</time>
      </trkpt>
      <trkpt lat="37.7907504793" lon="-6.0750495270">
        <ele>457.72</ele>
        <time>2020-07-10T07:09:28Z</time>
      </trkpt>
      <trkpt lat="37.7907831687" lon="-6.0750582442">
        <ele>457.72</ele>
        <time>2020-07-10T07:09:29Z</time>
      </trkpt>
      <trkpt lat="37.7909150999" lon="-6.0751372017">
        <ele>456.76</ele>
        <time>2020-07-10T07:09:35Z</time>
      </trkpt>
      <trkpt lat="37.7909401618" lon="-6.0751562286">
        <ele>456.76</ele>
        <time>2020-07-10T07:09:37Z</time>
      </trkpt>
      <trkpt lat="37.7909558360" lon="-6.0751601681">
        <ele>456.28</ele>
        <time>2020-07-10T07:09:38Z</time>
      </trkpt>
      <trkpt lat="37.7909740247" lon="-6.0751629341">
        <ele>455.80</ele>
        <time>2020-07-10T07:09:39Z</time>
      </trkpt>
      <trkpt lat="37.7910683211" lon="-6.0751781892">
        <ele>454.84</ele>
        <time>2020-07-10T07:09:45Z</time>
      </trkpt>
      <trkpt lat="37.7910786308" lon="-6.0751893371">
        <ele>454.36</ele>
        <time>2020-07-10T07:09:46Z</time>
      </trkpt>
      <trkpt lat="37.7910881024" lon="-6.0752029158">
        <ele>454.36</ele>
        <time>2020-07-10T07:09:47Z</time>
      </trkpt>
      <trkpt lat="37.7910964005" lon="-6.0752187576">
        <ele>454.36</ele>
        <time>2020-07-10T07:09:48Z</time>
      </trkpt>
      <trkpt lat="37.7911021840" lon="-6.0752381198">
        <ele>454.36</ele>
        <time>2020-07-10T07:09:49Z</time>
      </trkpt>
      <trkpt lat="37.7911410760" lon="-6.0754013993">
        <ele>454.84</ele>
        <time>2020-07-10T07:09:55Z</time>
      </trkpt>
      <trkpt lat="37.7911919542" lon="-6.0755563807">
        <ele>454.36</ele>
        <time>2020-07-10T07:10:01Z</time>
      </trkpt>
      <trkpt lat="37.7913174313" lon="-6.0757722147">
        <ele>453.40</ele>
        <time>2020-07-10T07:10:09Z</time>
      </trkpt>
      <trkpt lat="37.7914381307" lon="-6.0759660881">
        <ele>452.92</ele>
        <time>2020-07-10T07:10:17Z</time>
      </trkpt>
      <trkpt lat="37.7915667091" lon="-6.0761785693">
        <ele>451.96</ele>
        <time>2020-07-10T07:10:25Z</time>
      </trkpt>
      <trkpt lat="37.7916897554" lon="-6.0763128474">
        <ele>450.52</ele>
        <time>2020-07-10T07:10:32Z</time>
      </trkpt>
      <trkpt lat="37.7918627579" lon="-6.0763501469">
        <ele>449.55</ele>
        <time>2020-07-10T07:10:38Z</time>
      </trkpt>
      <trkpt lat="37.7922142111" lon="-6.0763551760">
        <ele>446.67</ele>
        <time>2020-07-10T07:10:48Z</time>
      </trkpt>
      <trkpt lat="37.7925854456" lon="-6.0763788130">
        <ele>442.82</ele>
        <time>2020-07-10T07:10:57Z</time>
      </trkpt>
      <trkpt lat="37.7929881122" lon="-6.0763962474">
        <ele>438.98</ele>
        <time>2020-07-10T07:11:06Z</time>
      </trkpt>
      <trkpt lat="37.7932684869" lon="-6.0764918011">
        <ele>436.10</ele>
        <time>2020-07-10T07:11:13Z</time>
      </trkpt>
      <trkpt lat="37.7935502026" lon="-6.0767354630">
        <ele>431.77</ele>
        <time>2020-07-10T07:11:21Z</time>
      </trkpt>
      <trkpt lat="37.7938870713" lon="-6.0770384688">
        <ele>427.44</ele>
        <time>2020-07-10T07:11:30Z</time>
      </trkpt>
      <trkpt lat="37.7939490974" lon="-6.0771080386">
        <ele>426.48</ele>
        <time>2020-07-10T07:11:32Z</time>
      </trkpt>
      <trkpt lat="37.7942024823" lon="-6.0774595756">
        <ele>422.64</ele>
        <time>2020-07-10T07:11:41Z</time>
      </trkpt>
      <trkpt lat="37.7944802586" lon="-6.0778495856">
        <ele>418.31</ele>
        <time>2020-07-10T07:11:50Z</time>
      </trkpt>
      <trkpt lat="37.7947501559" lon="-6.0782326385">
        <ele>414.47</ele>
        <time>2020-07-10T07:11:59Z</time>
      </trkpt>
      <trkpt lat="37.7949253377" lon="-6.0783346463">
        <ele>413.98</ele>
        <time>2020-07-10T07:12:05Z</time>
      </trkpt>
      <trkpt lat="37.7950971667" lon="-6.0783103388">
        <ele>413.02</ele>
        <time>2020-07-10T07:12:11Z</time>
      </trkpt>
      <trkpt lat="37.7954511344" lon="-6.0782398470">
        <ele>409.66</ele>
        <time>2020-07-10T07:12:20Z</time>
      </trkpt>
      <trkpt lat="37.7958781924" lon="-6.0781577043">
        <ele>406.29</ele>
        <time>2020-07-10T07:12:28Z</time>
      </trkpt>
      <trkpt lat="37.7961895801" lon="-6.0781001206">
        <ele>404.37</ele>
        <time>2020-07-10T07:12:33Z</time>
      </trkpt>
      <trkpt lat="37.7962475829" lon="-6.0780747235">
        <ele>404.37</ele>
        <time>2020-07-10T07:12:34Z</time>
      </trkpt>
      <trkpt lat="37.7964447252" lon="-6.0779665969">
        <ele>405.33</ele>
        <time>2020-07-10T07:12:39Z</time>
      </trkpt>
      <trkpt lat="37.7967084199" lon="-6.0777931754">
        <ele>406.77</ele>
        <time>2020-07-10T07:12:48Z</time>
      </trkpt>
      <trkpt lat="37.7969491482" lon="-6.0776555445">
        <ele>406.29</ele>
        <time>2020-07-10T07:12:56Z</time>
      </trkpt>
      <trkpt lat="37.7972073108" lon="-6.0775962006">
        <ele>405.81</ele>
        <time>2020-07-10T07:13:05Z</time>
      </trkpt>
      <trkpt lat="37.7974753641" lon="-6.0774834640">
        <ele>404.37</ele>
        <time>2020-07-10T07:13:11Z</time>
      </trkpt>
      <trkpt lat="37.7978341933" lon="-6.0772052687">
        <ele>401.97</ele>
        <time>2020-07-10T07:13:19Z</time>
      </trkpt>
      <trkpt lat="37.7978755161" lon="-6.0771522950">
        <ele>401.97</ele>
        <time>2020-07-10T07:13:20Z</time>
      </trkpt>
      <trkpt lat="37.7979105525" lon="-6.0770966392">
        <ele>401.49</ele>
        <time>2020-07-10T07:13:21Z</time>
      </trkpt>
      <trkpt lat="37.7979379613" lon="-6.0770412348">
        <ele>401.49</ele>
        <time>2020-07-10T07:13:22Z</time>
      </trkpt>
      <trkpt lat="37.7979585808" lon="-6.0769951344">
        <ele>401.49</ele>
        <time>2020-07-10T07:13:23Z</time>
      </trkpt>
      <trkpt lat="37.7980714012" lon="-6.0766741913">
        <ele>402.93</ele>
        <time>2020-07-10T07:13:31Z</time>
      </trkpt>
      <trkpt lat="37.7982405480" lon="-6.0763507336">
        <ele>401.97</ele>
        <time>2020-07-10T07:13:39Z</time>
      </trkpt>
      <trkpt lat="37.7983493451" lon="-6.0761815868">
        <ele>401.01</ele>
        <time>2020-07-10T07:13:43Z</time>
      </trkpt>
      <trkpt lat="37.7985664364" lon="-6.0759410262">
        <ele>398.12</ele>
        <time>2020-07-10T07:13:51Z</time>
      </trkpt>
      <trkpt lat="37.7987888083" lon="-6.0757475719">
        <ele>396.20</ele>
        <time>2020-07-10T07:13:59Z</time>
      </trkpt>
      <trkpt lat="37.7990767267" lon="-6.0755137168">
        <ele>393.80</ele>
        <time>2020-07-10T07:14:07Z</time>
      </trkpt>
      <trkpt lat="37.7993724402" lon="-6.0752670374">
        <ele>389.95</ele>
        <time>2020-07-10T07:14:16Z</time>
      </trkpt>
      <trkpt lat="37.7995400783" lon="-6.0751226172">
        <ele>388.03</ele>
        <time>2020-07-10T07:14:23Z</time>
      </trkpt>
      <trkpt lat="37.7997180261" lon="-6.0749625228">
        <ele>388.51</ele>
        <time>2020-07-10T07:14:31Z</time>
      </trkpt>
      <trkpt lat="37.7998445090" lon="-6.0747957230">
        <ele>390.43</ele>
        <time>2020-07-10T07:14:39Z</time>
      </trkpt>
      <trkpt lat="37.7999752667" lon="-6.0745323636">
        <ele>391.87</ele>
        <time>2020-07-10T07:14:50Z</time>
      </trkpt>
      <trkpt lat="37.8000714071" lon="-6.0742900427">
        <ele>392.84</ele>
        <time>2020-07-10T07:14:59Z</time>
      </trkpt>
      <trkpt lat="37.8001826350" lon="-6.0740059800">
        <ele>394.76</ele>
        <time>2020-07-10T07:15:09Z</time>
      </trkpt>
      <trkpt lat="37.8002613410" lon="-6.0737927444">
        <ele>395.24</ele>
        <time>2020-07-10T07:15:16Z</time>
      </trkpt>
      <trkpt lat="37.8004243691" lon="-6.0735110287">
        <ele>396.20</ele>
        <time>2020-07-10T07:15:26Z</time>
      </trkpt>
      <trkpt lat="37.8006594814" lon="-6.0731983837">
        <ele>394.76</ele>
        <time>2020-07-10T07:15:38Z</time>
      </trkpt>
      <trkpt lat="37.8008585516" lon="-6.0729201883">
        <ele>395.72</ele>
        <time>2020-07-10T07:15:49Z</time>
      </trkpt>
      <trkpt lat="37.8010318056" lon="-6.0726778675">
        <ele>397.16</ele>
        <time>2020-07-10T07:16:00Z</time>
      </trkpt>
      <trkpt lat="37.8011753876" lon="-6.0725268256">
        <ele>398.12</ele>
        <time>2020-07-10T07:16:09Z</time>
      </trkpt>
      <trkpt lat="37.8012777306" lon="-6.0724767856">
        <ele>399.08</ele>
        <time>2020-07-10T07:16:16Z</time>
      </trkpt>
      <trkpt lat="37.8014054708" lon="-6.0724575911">
        <ele>400.53</ele>
        <time>2020-07-10T07:16:24Z</time>
      </trkpt>
      <trkpt lat="37.8014736157" lon="-6.0724516399">
        <ele>401.49</ele>
        <time>2020-07-10T07:16:28Z</time>
      </trkpt>
      <trkpt lat="37.8014905471" lon="-6.0724482033">
        <ele>401.49</ele>
        <time>2020-07-10T07:16:29Z</time>
      </trkpt>
      <trkpt lat="37.8015377373" lon="-6.0724505503">
        <ele>401.49</ele>
        <time>2020-07-10T07:16:32Z</time>
      </trkpt>
      <trkpt lat="37.8015531600" lon="-6.0724594351">
        <ele>401.49</ele>
        <time>2020-07-10T07:16:33Z</time>
      </trkpt>
      <trkpt lat="37.8017261624" lon="-6.0725657176">
        <ele>402.45</ele>
        <time>2020-07-10T07:16:44Z</time>
      </trkpt>
      <trkpt lat="37.8018482029" lon="-6.0727378819">
        <ele>401.97</ele>
        <time>2020-07-10T07:16:54Z</time>
      </trkpt>
      <trkpt lat="37.8019339498" lon="-6.0728949588">
        <ele>401.97</ele>
        <time>2020-07-10T07:17:03Z</time>
      </trkpt>
      <trkpt lat="37.8020181879" lon="-6.0730674583">
        <ele>402.45</ele>
        <time>2020-07-10T07:17:13Z</time>
      </trkpt>
      <trkpt lat="37.8021158371" lon="-6.0732596554">
        <ele>403.41</ele>
        <time>2020-07-10T07:17:24Z</time>
      </trkpt>
      <trkpt lat="37.8021508735" lon="-6.0733362660">
        <ele>402.93</ele>
        <time>2020-07-10T07:17:29Z</time>
      </trkpt>
      <trkpt lat="37.8021636978" lon="-6.0733480006">
        <ele>403.41</ele>
        <time>2020-07-10T07:17:35Z</time>
      </trkpt>
      <trkpt lat="37.8021568246" lon="-6.0733522754">
        <ele>403.89</ele>
        <time>2020-07-10T07:17:49Z</time>
      </trkpt>
      <trkpt lat="37.8021589201" lon="-6.0733501799">
        <ele>402.45</ele>
        <time>2020-07-10T07:18:02Z</time>
      </trkpt>
      <trkpt lat="37.8021762706" lon="-6.0733707156">
        <ele>402.45</ele>
        <time>2020-07-10T07:18:17Z</time>
      </trkpt>
      <trkpt lat="37.8022511210" lon="-6.0735359229">
        <ele>403.41</ele>
        <time>2020-07-10T07:18:26Z</time>
      </trkpt>
      <trkpt lat="37.8022886720" lon="-6.0736202449">
        <ele>404.37</ele>
        <time>2020-07-10T07:18:34Z</time>
      </trkpt>
      <trkpt lat="37.8022793680" lon="-6.0736055765">
        <ele>405.81</ele>
        <time>2020-07-10T07:18:46Z</time>
      </trkpt>
      <trkpt lat="37.8022906836" lon="-6.0736132879">
        <ele>405.81</ele>
        <time>2020-07-10T07:18:59Z</time>
      </trkpt>
      <trkpt lat="37.8022871632" lon="-6.0736405291">
        <ele>403.41</ele>
        <time>2020-07-10T07:19:16Z</time>
      </trkpt>
      <trkpt lat="37.8022921085" lon="-6.0736444686">
        <ele>403.41</ele>
        <time>2020-07-10T07:19:36Z</time>
      </trkpt>
      <trkpt lat="37.8022940364" lon="-6.0736189038">
        <ele>405.33</ele>
        <time>2020-07-10T07:19:51Z</time>
      </trkpt>
      <trkpt lat="37.8023113869" lon="-6.0736491624">
        <ele>403.89</ele>
        <time>2020-07-10T07:20:03Z</time>
      </trkpt>
      <trkpt lat="37.8023575712" lon="-6.0737657547">
        <ele>403.89</ele>
        <time>2020-07-10T07:20:12Z</time>
      </trkpt>
      <trkpt lat="37.8024255484" lon="-6.0739159584">
        <ele>402.93</ele>
        <time>2020-07-10T07:20:20Z</time>
      </trkpt>
      <trkpt lat="37.8025445715" lon="-6.0741683375">
        <ele>401.01</ele>
        <time>2020-07-10T07:20:28Z</time>
      </trkpt>
      <trkpt lat="37.8027298115" lon="-6.0744900350">
        <ele>399.08</ele>
        <time>2020-07-10T07:20:36Z</time>
      </trkpt>
      <trkpt lat="37.8030755650" lon="-6.0750306677">
        <ele>396.20</ele>
        <time>2020-07-10T07:20:47Z</time>
      </trkpt>
      <trkpt lat="37.8032404371" lon="-6.0752728209">
        <ele>394.76</ele>
        <time>2020-07-10T07:20:53Z</time>
      </trkpt>
      <trkpt lat="37.8034416866" lon="-6.0755205061">
        <ele>394.76</ele>
        <time>2020-07-10T07:21:01Z</time>
      </trkpt>
      <trkpt lat="37.8036902100" lon="-6.0757872183">
        <ele>394.28</ele>
        <time>2020-07-10T07:21:12Z</time>
      </trkpt>
      <trkpt lat="37.8039478697" lon="-6.0760304611">
        <ele>392.84</ele>
        <time>2020-07-10T07:21:21Z</time>
      </trkpt>
      <trkpt lat="37.8043277375" lon="-6.0762757156">
        <ele>392.36</ele>
        <time>2020-07-10T07:21:29Z</time>
      </trkpt>
      <trkpt lat="37.8048239462" lon="-6.0764863528">
        <ele>390.91</ele>
        <time>2020-07-10T07:21:39Z</time>
      </trkpt>
      <trkpt lat="37.8052052390" lon="-6.0766359698">
        <ele>388.99</ele>
        <time>2020-07-10T07:21:46Z</time>
      </trkpt>
      <trkpt lat="37.8055907227" lon="-6.0767036956">
        <ele>388.51</ele>
        <time>2020-07-10T07:21:53Z</time>
      </trkpt>
      <trkpt lat="37.8059702553" lon="-6.0766653065">
        <ele>387.07</ele>
        <time>2020-07-10T07:22:01Z</time>
      </trkpt>
      <trkpt lat="37.8060134221" lon="-6.0766685754">
        <ele>386.59</ele>
        <time>2020-07-10T07:22:02Z</time>
      </trkpt>
      <trkpt lat="37.8061454371" lon="-6.0766955651">
        <ele>385.63</ele>
        <time>2020-07-10T07:22:05Z</time>
      </trkpt>
      <trkpt lat="37.8062411584" lon="-6.0767347924">
        <ele>384.66</ele>
        <time>2020-07-10T07:22:07Z</time>
      </trkpt>
      <trkpt lat="37.8062928747" lon="-6.0767666437">
        <ele>384.18</ele>
        <time>2020-07-10T07:22:08Z</time>
      </trkpt>
      <trkpt lat="37.8066216968" lon="-6.0770583339">
        <ele>381.78</ele>
        <time>2020-07-10T07:22:15Z</time>
      </trkpt>
      <trkpt lat="37.8069087770" lon="-6.0773259681">
        <ele>380.82</ele>
        <time>2020-07-10T07:22:23Z</time>
      </trkpt>
      <trkpt lat="37.8071604855" lon="-6.0776207596">
        <ele>378.90</ele>
        <time>2020-07-10T07:22:32Z</time>
      </trkpt>
      <trkpt lat="37.8072960209" lon="-6.0778938420">
        <ele>377.45</ele>
        <time>2020-07-10T07:22:39Z</time>
      </trkpt>
      <trkpt lat="37.8074397705" lon="-6.0781140346">
        <ele>376.01</ele>
        <time>2020-07-10T07:22:45Z</time>
      </trkpt>
      <trkpt lat="37.8076022118" lon="-6.0781139508">
        <ele>375.05</ele>
        <time>2020-07-10T07:22:50Z</time>
      </trkpt>
      <trkpt lat="37.8077464644" lon="-6.0780422855">
        <ele>373.61</ele>
        <time>2020-07-10T07:22:54Z</time>
      </trkpt>
      <trkpt lat="37.8077810816" lon="-6.0780098476">
        <ele>373.13</ele>
        <time>2020-07-10T07:22:55Z</time>
      </trkpt>
      <trkpt lat="37.8080619592" lon="-6.0777008906">
        <ele>369.28</ele>
        <time>2020-07-10T07:23:03Z</time>
      </trkpt>
      <trkpt lat="37.8081315290" lon="-6.0776330810">
        <ele>368.80</ele>
        <time>2020-07-10T07:23:05Z</time>
      </trkpt>
      <trkpt lat="37.8085217066" lon="-6.0773694701">
        <ele>366.88</ele>
        <time>2020-07-10T07:23:15Z</time>
      </trkpt>
      <trkpt lat="37.8088710643" lon="-6.0770915262">
        <ele>364.96</ele>
        <time>2020-07-10T07:23:24Z</time>
      </trkpt>
      <trkpt lat="37.8092143033" lon="-6.0767421685">
        <ele>362.07</ele>
        <time>2020-07-10T07:23:33Z</time>
      </trkpt>
      <trkpt lat="37.8095476516" lon="-6.0762534197">
        <ele>358.23</ele>
        <time>2020-07-10T07:23:43Z</time>
      </trkpt>
      <trkpt lat="37.8098242544" lon="-6.0756769963">
        <ele>355.83</ele>
        <time>2020-07-10T07:23:53Z</time>
      </trkpt>
      <trkpt lat="37.8099966701" lon="-6.0753402114">
        <ele>354.86</ele>
        <time>2020-07-10T07:24:00Z</time>
      </trkpt>
      <trkpt lat="37.8101848438" lon="-6.0750429891">
        <ele>353.90</ele>
        <time>2020-07-10T07:24:07Z</time>
      </trkpt>
      <trkpt lat="37.8103325330" lon="-6.0748075414">
        <ele>353.90</ele>
        <time>2020-07-10T07:24:14Z</time>
      </trkpt>
      <trkpt lat="37.8104820661" lon="-6.0746124946">
        <ele>353.42</ele>
        <time>2020-07-10T07:24:21Z</time>
      </trkpt>
      <trkpt lat="37.8106632829" lon="-6.0743234865">
        <ele>353.42</ele>
        <time>2020-07-10T07:24:29Z</time>
      </trkpt>
      <trkpt lat="37.8109227866" lon="-6.0739647411">
        <ele>353.90</ele>
        <time>2020-07-10T07:24:40Z</time>
      </trkpt>
      <trkpt lat="37.8112410475" lon="-6.0737081710">
        <ele>352.94</ele>
        <time>2020-07-10T07:24:49Z</time>
      </trkpt>
      <trkpt lat="37.8114482481" lon="-6.0735602304">
        <ele>354.38</ele>
        <time>2020-07-10T07:24:57Z</time>
      </trkpt>
      <trkpt lat="37.8117060754" lon="-6.0734625813">
        <ele>355.83</ele>
        <time>2020-07-10T07:25:06Z</time>
      </trkpt>
      <trkpt lat="37.8119085822" lon="-6.0734277964">
        <ele>356.79</ele>
        <time>2020-07-10T07:25:14Z</time>
      </trkpt>
      <trkpt lat="37.8121172078" lon="-6.0734078474">
        <ele>358.23</ele>
        <time>2020-07-10T07:25:22Z</time>
      </trkpt>
      <trkpt lat="37.8123072255" lon="-6.0733694583">
        <ele>358.23</ele>
        <time>2020-07-10T07:25:29Z</time>
      </trkpt>
      <trkpt lat="37.8125289269" lon="-6.0732827056">
        <ele>358.71</ele>
        <time>2020-07-10T07:25:38Z</time>
      </trkpt>
      <trkpt lat="37.8127755225" lon="-6.0731031653">
        <ele>358.23</ele>
        <time>2020-07-10T07:25:47Z</time>
      </trkpt>
      <trkpt lat="37.8130432405" lon="-6.0729221161">
        <ele>357.27</ele>
        <time>2020-07-10T07:25:56Z</time>
      </trkpt>
      <trkpt lat="37.8133418038" lon="-6.0727214534">
        <ele>356.31</ele>
        <time>2020-07-10T07:26:05Z</time>
      </trkpt>
      <trkpt lat="37.8135894891" lon="-6.0725870915">
        <ele>355.83</ele>
        <time>2020-07-10T07:26:12Z</time>
      </trkpt>
      <trkpt lat="37.8137038182" lon="-6.0724673141">
        <ele>355.34</ele>
        <time>2020-07-10T07:26:17Z</time>
      </trkpt>
      <trkpt lat="37.8138587158" lon="-6.0723127518">
        <ele>354.86</ele>
        <time>2020-07-10T07:26:23Z</time>
      </trkpt>
      <trkpt lat="37.8140683472" lon="-6.0722727701">
        <ele>355.34</ele>
        <time>2020-07-10T07:26:31Z</time>
      </trkpt>
      <trkpt lat="37.8142554313" lon="-6.0722709261">
        <ele>357.27</ele>
        <time>2020-07-10T07:26:39Z</time>
      </trkpt>
      <trkpt lat="37.8144408390" lon="-6.0723119136">
        <ele>357.75</ele>
        <time>2020-07-10T07:26:47Z</time>
      </trkpt>
      <trkpt lat="37.8146071360" lon="-6.0723674856">
        <ele>359.19</ele>
        <time>2020-07-10T07:26:55Z</time>
      </trkpt>
      <trkpt lat="37.8146828245" lon="-6.0723992530">
        <ele>359.19</ele>
        <time>2020-07-10T07:26:59Z</time>
      </trkpt>
      <trkpt lat="37.8146979120" lon="-6.0724113230">
        <ele>359.19</ele>
        <time>2020-07-10T07:27:00Z</time>
      </trkpt>
      <trkpt lat="37.8147156816" lon="-6.0724206269">
        <ele>359.19</ele>
        <time>2020-07-10T07:27:01Z</time>
      </trkpt>
      <trkpt lat="37.8147352114" lon="-6.0724254884">
        <ele>359.67</ele>
        <time>2020-07-10T07:27:02Z</time>
      </trkpt>
      <trkpt lat="37.8147562500" lon="-6.0724283382">
        <ele>360.15</ele>
        <time>2020-07-10T07:27:03Z</time>
      </trkpt>
      <trkpt lat="37.8147774562" lon="-6.0724339541">
        <ele>360.15</ele>
        <time>2020-07-10T07:27:04Z</time>
      </trkpt>
      <trkpt lat="37.8150160890" lon="-6.0724570882">
        <ele>361.11</ele>
        <time>2020-07-10T07:27:14Z</time>
      </trkpt>
      <trkpt lat="37.8152665403" lon="-6.0724123288">
        <ele>362.07</ele>
        <time>2020-07-10T07:27:25Z</time>
      </trkpt>
      <trkpt lat="37.8155065142" lon="-6.0723316111">
        <ele>362.55</ele>
        <time>2020-07-10T07:27:35Z</time>
      </trkpt>
      <trkpt lat="37.8157446440" lon="-6.0722388234">
        <ele>361.59</ele>
        <time>2020-07-10T07:27:44Z</time>
      </trkpt>
      <trkpt lat="37.8159722127" lon="-6.0721435212">
        <ele>361.59</ele>
        <time>2020-07-10T07:27:53Z</time>
      </trkpt>
      <trkpt lat="37.8162342310" lon="-6.0720216483">
        <ele>361.11</ele>
        <time>2020-07-10T07:28:03Z</time>
      </trkpt>
      <trkpt lat="37.8165036254" lon="-6.0718949977">
        <ele>361.59</ele>
        <time>2020-07-10T07:28:12Z</time>
      </trkpt>
      <trkpt lat="37.8167772945" lon="-6.0717509128">
        <ele>361.11</ele>
        <time>2020-07-10T07:28:21Z</time>
      </trkpt>
      <trkpt lat="37.8171315137" lon="-6.0715168901">
        <ele>361.11</ele>
        <time>2020-07-10T07:28:32Z</time>
      </trkpt>
      <trkpt lat="37.8173678834" lon="-6.0713567957">
        <ele>360.15</ele>
        <time>2020-07-10T07:28:38Z</time>
      </trkpt>
      <trkpt lat="37.8174097929" lon="-6.0713376012">
        <ele>360.15</ele>
        <time>2020-07-10T07:28:39Z</time>
      </trkpt>
      <trkpt lat="37.8174512833" lon="-6.0713274591">
        <ele>360.15</ele>
        <time>2020-07-10T07:28:40Z</time>
      </trkpt>
      <trkpt lat="37.8176729847" lon="-6.0713504255">
        <ele>361.11</ele>
        <time>2020-07-10T07:28:47Z</time>
      </trkpt>
      <trkpt lat="37.8179522697" lon="-6.0713865515">
        <ele>361.11</ele>
        <time>2020-07-10T07:28:57Z</time>
      </trkpt>
      <trkpt lat="37.8181838617" lon="-6.0713853780">
        <ele>360.63</ele>
        <time>2020-07-10T07:29:05Z</time>
      </trkpt>
      <trkpt lat="37.8185281064" lon="-6.0713724699">
        <ele>361.59</ele>
        <time>2020-07-10T07:29:17Z</time>
      </trkpt>
      <trkpt lat="37.8188006021" lon="-6.0713751521">
        <ele>362.07</ele>
        <time>2020-07-10T07:29:27Z</time>
      </trkpt>
      <trkpt lat="37.8190544061" lon="-6.0714557022">
        <ele>363.04</ele>
        <time>2020-07-10T07:29:37Z</time>
      </trkpt>
      <trkpt lat="37.8193318471" lon="-6.0715722106">
        <ele>362.55</ele>
        <time>2020-07-10T07:29:47Z</time>
      </trkpt>
      <trkpt lat="37.8196158260" lon="-6.0716805048">
        <ele>362.07</ele>
        <time>2020-07-10T07:29:56Z</time>
      </trkpt>
      <trkpt lat="37.8198433947" lon="-6.0717301257">
        <ele>363.04</ele>
        <time>2020-07-10T07:30:04Z</time>
      </trkpt>
      <trkpt lat="37.8200863022" lon="-6.0716156289">
        <ele>364.00</ele>
        <time>2020-07-10T07:30:13Z</time>
      </trkpt>
      <trkpt lat="37.8204156272" lon="-6.0714150500">
        <ele>364.00</ele>
        <time>2020-07-10T07:30:25Z</time>
      </trkpt>
      <trkpt lat="37.8205206525" lon="-6.0713557899">
        <ele>364.48</ele>
        <time>2020-07-10T07:30:31Z</time>
      </trkpt>
      <trkpt lat="37.8207473829" lon="-6.0712229367">
        <ele>364.48</ele>
        <time>2020-07-10T07:30:40Z</time>
      </trkpt>
      <trkpt lat="37.8210031148" lon="-6.0710687935">
        <ele>364.48</ele>
        <time>2020-07-10T07:30:50Z</time>
      </trkpt>
      <trkpt lat="37.8212783765" lon="-6.0708949529">
        <ele>364.48</ele>
        <time>2020-07-10T07:31:01Z</time>
      </trkpt>
      <trkpt lat="37.8214704897" lon="-6.0707670450">
        <ele>364.96</ele>
        <time>2020-07-10T07:31:10Z</time>
      </trkpt>
      <trkpt lat="37.8215522971" lon="-6.0707217827">
        <ele>364.96</ele>
        <time>2020-07-10T07:31:14Z</time>
      </trkpt>
      <trkpt lat="37.8215712402" lon="-6.0707233753">
        <ele>364.96</ele>
        <time>2020-07-10T07:31:15Z</time>
      </trkpt>
      <trkpt lat="37.8217196837" lon="-6.0708090384">
        <ele>364.00</ele>
        <time>2020-07-10T07:31:21Z</time>
      </trkpt>
      <trkpt lat="37.8219537064" lon="-6.0710927658">
        <ele>363.04</ele>
        <time>2020-07-10T07:31:29Z</time>
      </trkpt>
      <trkpt lat="37.8220967017" lon="-6.0711412132">
        <ele>363.04</ele>
        <time>2020-07-10T07:31:35Z</time>
      </trkpt>
      <trkpt lat="37.8221987095" lon="-6.0711429734">
        <ele>363.52</ele>
        <time>2020-07-10T07:31:41Z</time>
      </trkpt>
      <trkpt lat="37.8222101927" lon="-6.0711405426">
        <ele>363.52</ele>
        <time>2020-07-10T07:31:49Z</time>
      </trkpt>
      <trkpt lat="37.8222210053" lon="-6.0711219348">
        <ele>364.00</ele>
        <time>2020-07-10T07:31:58Z</time>
      </trkpt>
      <trkpt lat="37.8222216759" lon="-6.0711214319">
        <ele>363.04</ele>
        <time>2020-07-10T07:32:10Z</time>
      </trkpt>
      <trkpt lat="37.8222184908" lon="-6.0711192526">
        <ele>363.04</ele>
        <time>2020-07-10T07:32:27Z</time>
      </trkpt>
      <trkpt lat="37.8222268727" lon="-6.0711350106">
        <ele>362.07</ele>
        <time>2020-07-10T07:32:40Z</time>
      </trkpt>
      <trkpt lat="37.8222178202" lon="-6.0711417161">
        <ele>362.55</ele>
        <time>2020-07-10T07:33:00Z</time>
      </trkpt>
      <trkpt lat="37.8222215921" lon="-6.0711407103">
        <ele>363.04</ele>
        <time>2020-07-10T07:33:19Z</time>
      </trkpt>
      <trkpt lat="37.8222172335" lon="-6.0711372737">
        <ele>363.04</ele>
        <time>2020-07-10T07:33:41Z</time>
      </trkpt>
      <trkpt lat="37.8222168144" lon="-6.0711469967">
        <ele>362.07</ele>
        <time>2020-07-10T07:34:01Z</time>
      </trkpt>
      <trkpt lat="37.8222167306" lon="-6.0711324122">
        <ele>360.63</ele>
        <time>2020-07-10T07:34:18Z</time>
      </trkpt>
      <trkpt lat="37.8222178202" lon="-6.0711155646">
        <ele>362.55</ele>
        <time>2020-07-10T07:34:42Z</time>
      </trkpt>
      <trkpt lat="37.8222318180" lon="-6.0711283050">
        <ele>363.04</ele>
        <time>2020-07-10T07:35:03Z</time>
      </trkpt>
      <trkpt lat="37.8222237714" lon="-6.0711394530">
        <ele>362.07</ele>
        <time>2020-07-10T07:35:19Z</time>
      </trkpt>
      <trkpt lat="37.8222251963" lon="-6.0711265448">
        <ele>361.59</ele>
        <time>2020-07-10T07:35:36Z</time>
      </trkpt>
      <trkpt lat="37.8222267050" lon="-6.0711184144">
        <ele>362.07</ele>
        <time>2020-07-10T07:35:56Z</time>
      </trkpt>
      <trkpt lat="37.8222165629" lon="-6.0711298976">
        <ele>364.00</ele>
        <time>2020-07-10T07:36:17Z</time>
      </trkpt>
      <trkpt lat="37.8222193290" lon="-6.0711259581">
        <ele>364.96</ele>
        <time>2020-07-10T07:36:40Z</time>
      </trkpt>
      <trkpt lat="37.8222236875" lon="-6.0711341724">
        <ele>364.48</ele>
        <time>2020-07-10T07:37:00Z</time>
      </trkpt>
      <trkpt lat="37.8222268727" lon="-6.0711307358">
        <ele>364.48</ele>
        <time>2020-07-10T07:37:19Z</time>
      </trkpt>
      <trkpt lat="37.8222190775" lon="-6.0711303167">
        <ele>365.44</ele>
        <time>2020-07-10T07:37:32Z</time>
      </trkpt>
      <trkpt lat="37.8222191613" lon="-6.0711374413">
        <ele>366.40</ele>
        <time>2020-07-10T07:37:57Z</time>
      </trkpt>
      <trkpt lat="37.8222245257" lon="-6.0711452365">
        <ele>365.92</ele>
        <time>2020-07-10T07:38:20Z</time>
      </trkpt>
      <trkpt lat="37.8222221788" lon="-6.0711464938">
        <ele>363.52</ele>
        <time>2020-07-10T07:38:41Z</time>
      </trkpt>
      <trkpt lat="37.8222251963" lon="-6.0711508524">
        <ele>361.11</ele>
        <time>2020-07-10T07:39:03Z</time>
      </trkpt>
      <trkpt lat="37.8222310636" lon="-6.0711428057">
        <ele>362.07</ele>
        <time>2020-07-10T07:39:24Z</time>
      </trkpt>
      <trkpt lat="37.8222154733" lon="-6.0711631738">
        <ele>364.48</ele>
        <time>2020-07-10T07:39:47Z</time>
      </trkpt>
      <trkpt lat="37.8222240228" lon="-6.0711614974">
        <ele>362.07</ele>
        <time>2020-07-10T07:40:06Z</time>
      </trkpt>
      <trkpt lat="37.8222198319" lon="-6.0711647663">
        <ele>362.07</ele>
        <time>2020-07-10T07:40:24Z</time>
      </trkpt>
      <trkpt lat="37.8222206701" lon="-6.0711558815">
        <ele>362.55</ele>
        <time>2020-07-10T07:40:47Z</time>
      </trkpt>
      <trkpt lat="37.8222168144" lon="-6.0711605754">
        <ele>361.59</ele>
        <time>2020-07-10T07:41:06Z</time>
      </trkpt>
      <trkpt lat="37.8222194966" lon="-6.0711527802">
        <ele>362.07</ele>
        <time>2020-07-10T07:41:28Z</time>
      </trkpt>
      <trkpt lat="37.8222155571" lon="-6.0711502656">
        <ele>363.04</ele>
        <time>2020-07-10T07:41:48Z</time>
      </trkpt>
      <trkpt lat="37.8222409543" lon="-6.0711599048">
        <ele>363.04</ele>
        <time>2020-07-10T07:42:01Z</time>
      </trkpt>
      <trkpt lat="37.8223439679" lon="-6.0711789317">
        <ele>363.04</ele>
        <time>2020-07-10T07:42:08Z</time>
      </trkpt>
      <trkpt lat="37.8225018829" lon="-6.0712231882">
        <ele>364.00</ele>
        <time>2020-07-10T07:42:17Z</time>
      </trkpt>
      <trkpt lat="37.8226426989" lon="-6.0712797660">
        <ele>365.44</ele>
        <time>2020-07-10T07:42:26Z</time>
      </trkpt>
      <trkpt lat="37.8227224946" lon="-6.0713193286">
        <ele>366.88</ele>
        <time>2020-07-10T07:42:32Z</time>
      </trkpt>
      <trkpt lat="37.8227348998" lon="-6.0713254474">
        <ele>366.88</ele>
        <time>2020-07-10T07:42:33Z</time>
      </trkpt>
      <trkpt lat="37.8228558507" lon="-6.0713919997">
        <ele>367.84</ele>
        <time>2020-07-10T07:42:41Z</time>
      </trkpt>
      <trkpt lat="37.8230151907" lon="-6.0715085082">
        <ele>369.76</ele>
        <time>2020-07-10T07:42:51Z</time>
      </trkpt>
      <trkpt lat="37.8231507260" lon="-6.0716511682">
        <ele>371.21</ele>
        <time>2020-07-10T07:43:01Z</time>
      </trkpt>
      <trkpt lat="37.8232519794" lon="-6.0718280263">
        <ele>372.65</ele>
        <time>2020-07-10T07:43:11Z</time>
      </trkpt>
      <trkpt lat="37.8233307693" lon="-6.0719825886">
        <ele>373.13</ele>
        <time>2020-07-10T07:43:20Z</time>
      </trkpt>
      <trkpt lat="37.8234268259" lon="-6.0721741989">
        <ele>374.09</ele>
        <time>2020-07-10T07:43:29Z</time>
      </trkpt>
      <trkpt lat="37.8235640377" lon="-6.0723358020">
        <ele>374.57</ele>
        <time>2020-07-10T07:43:39Z</time>
      </trkpt>
      <trkpt lat="37.8237486910" lon="-6.0724323615">
        <ele>375.05</ele>
        <time>2020-07-10T07:43:49Z</time>
      </trkpt>
      <trkpt lat="37.8239396308" lon="-6.0724563338">
        <ele>375.05</ele>
        <time>2020-07-10T07:43:59Z</time>
      </trkpt>
      <trkpt lat="37.8241153993" lon="-6.0724377260">
        <ele>376.97</ele>
        <time>2020-07-10T07:44:08Z</time>
      </trkpt>
      <trkpt lat="37.8242781758" lon="-6.0724005941">
        <ele>379.86</ele>
        <time>2020-07-10T07:44:17Z</time>
      </trkpt>
      <trkpt lat="37.8244172316" lon="-6.0723745264">
        <ele>381.30</ele>
        <time>2020-07-10T07:44:26Z</time>
      </trkpt>
      <trkpt lat="37.8244848736" lon="-6.0723576788">
        <ele>382.26</ele>
        <time>2020-07-10T07:44:31Z</time>
      </trkpt>
      <trkpt lat="37.8244960215" lon="-6.0723592713">
        <ele>382.26</ele>
        <time>2020-07-10T07:44:32Z</time>
      </trkpt>
      <trkpt lat="37.8245992865" lon="-6.0723151825">
        <ele>382.74</ele>
        <time>2020-07-10T07:44:40Z</time>
      </trkpt>
      <trkpt lat="37.8247510828" lon="-6.0722457804">
        <ele>382.74</ele>
        <time>2020-07-10T07:44:50Z</time>
      </trkpt>
      <trkpt lat="37.8249405976" lon="-6.0721716844">
        <ele>381.30</ele>
        <time>2020-07-10T07:44:59Z</time>
      </trkpt>
      <trkpt lat="37.8251876961" lon="-6.0721804854">
        <ele>381.30</ele>
        <time>2020-07-10T07:45:08Z</time>
      </trkpt>
      <trkpt lat="37.8253670689" lon="-6.0722612869">
        <ele>381.30</ele>
        <time>2020-07-10T07:45:16Z</time>
      </trkpt>
      <trkpt lat="37.8256856650" lon="-6.0723996721">
        <ele>380.82</ele>
        <time>2020-07-10T07:45:28Z</time>
      </trkpt>
      <trkpt lat="37.8259506170" lon="-6.0724708345">
        <ele>381.78</ele>
        <time>2020-07-10T07:45:38Z</time>
      </trkpt>
      <trkpt lat="37.8261941951" lon="-6.0725342855">
        <ele>382.26</ele>
        <time>2020-07-10T07:45:47Z</time>
      </trkpt>
      <trkpt lat="37.8264342528" lon="-6.0726113990">
        <ele>381.78</ele>
        <time>2020-07-10T07:45:56Z</time>
      </trkpt>
      <trkpt lat="37.8266466502" lon="-6.0726901889">
        <ele>381.78</ele>
        <time>2020-07-10T07:46:04Z</time>
      </trkpt>
      <trkpt lat="37.8268768173" lon="-6.0727760196">
        <ele>383.22</ele>
        <time>2020-07-10T07:46:13Z</time>
      </trkpt>
      <trkpt lat="37.8270938247" lon="-6.0728557315">
        <ele>383.70</ele>
        <time>2020-07-10T07:46:23Z</time>
      </trkpt>
      <trkpt lat="37.8273025341" lon="-6.0729615949">
        <ele>382.26</ele>
        <time>2020-07-10T07:46:28Z</time>
      </trkpt>
      <trkpt lat="37.8277846612" lon="-6.0732108727">
        <ele>381.30</ele>
        <time>2020-07-10T07:46:37Z</time>
      </trkpt>
      <trkpt lat="37.8279256448" lon="-6.0732589010">
        <ele>381.30</ele>
        <time>2020-07-10T07:46:40Z</time>
      </trkpt>
      <trkpt lat="37.8281128127" lon="-6.0733019840">
        <ele>382.26</ele>
        <time>2020-07-10T07:46:46Z</time>
      </trkpt>
      <trkpt lat="37.8283283114" lon="-6.0733728111">
        <ele>384.18</ele>
        <time>2020-07-10T07:46:55Z</time>
      </trkpt>
      <trkpt lat="37.8285386134" lon="-6.0734904930">
        <ele>384.66</ele>
        <time>2020-07-10T07:47:04Z</time>
      </trkpt>
      <trkpt lat="37.8288298007" lon="-6.0736733023">
        <ele>385.63</ele>
        <time>2020-07-10T07:47:16Z</time>
      </trkpt>
      <trkpt lat="37.8290620632" lon="-6.0738181416">
        <ele>386.59</ele>
        <time>2020-07-10T07:47:26Z</time>
      </trkpt>
      <trkpt lat="37.8292567749" lon="-6.0739038885">
        <ele>387.55</ele>
        <time>2020-07-10T07:47:34Z</time>
      </trkpt>
      <trkpt lat="37.8294801526" lon="-6.0739599634">
        <ele>388.03</ele>
        <time>2020-07-10T07:47:44Z</time>
      </trkpt>
      <trkpt lat="37.8296710923" lon="-6.0739764757">
        <ele>388.51</ele>
        <time>2020-07-10T07:47:52Z</time>
      </trkpt>
      <trkpt lat="37.8300131578" lon="-6.0739731230">
        <ele>388.51</ele>
        <time>2020-07-10T07:48:04Z</time>
      </trkpt>
      <trkpt lat="37.8302393854" lon="-6.0739687644">
        <ele>389.95</ele>
        <time>2020-07-10T07:48:13Z</time>
      </trkpt>
      <trkpt lat="37.8304592427" lon="-6.0739605501">
        <ele>391.39</ele>
        <time>2020-07-10T07:48:22Z</time>
      </trkpt>
      <trkpt lat="37.8306280542" lon="-6.0739688482">
        <ele>390.91</ele>
        <time>2020-07-10T07:48:29Z</time>
      </trkpt>
      <trkpt lat="37.8308230173" lon="-6.0739753861">
        <ele>390.43</ele>
        <time>2020-07-10T07:48:38Z</time>
      </trkpt>
      <trkpt lat="37.8311158810" lon="-6.0739797447">
        <ele>389.47</ele>
        <time>2020-07-10T07:48:48Z</time>
      </trkpt>
      <trkpt lat="37.8314429428" lon="-6.0739851929">
        <ele>388.99</ele>
        <time>2020-07-10T07:48:56Z</time>
      </trkpt>
      <trkpt lat="37.8316401690" lon="-6.0740018729">
        <ele>389.95</ele>
        <time>2020-07-10T07:49:03Z</time>
      </trkpt>
      <trkpt lat="37.8319276683" lon="-6.0740407649">
        <ele>389.47</ele>
        <time>2020-07-10T07:49:13Z</time>
      </trkpt>
      <trkpt lat="37.8322017565" lon="-6.0740847699">
        <ele>389.95</ele>
        <time>2020-07-10T07:49:22Z</time>
      </trkpt>
      <trkpt lat="37.8324617632" lon="-6.0741367377">
        <ele>390.91</ele>
        <time>2020-07-10T07:49:31Z</time>
      </trkpt>
      <trkpt lat="37.8326762561" lon="-6.0741739534">
        <ele>391.39</ele>
        <time>2020-07-10T07:49:39Z</time>
      </trkpt>
      <trkpt lat="37.8328268789" lon="-6.0741955787">
        <ele>391.39</ele>
        <time>2020-07-10T07:49:46Z</time>
      </trkpt>
      <trkpt lat="37.8329821117" lon="-6.0742077325">
        <ele>391.87</ele>
        <time>2020-07-10T07:49:54Z</time>
      </trkpt>
      <trkpt lat="37.8331462294" lon="-6.0741850175">
        <ele>393.32</ele>
        <time>2020-07-10T07:50:03Z</time>
      </trkpt>
      <trkpt lat="37.8332830220" lon="-6.0741582792">
        <ele>395.24</ele>
        <time>2020-07-10T07:50:12Z</time>
      </trkpt>
      <trkpt lat="37.8333042283" lon="-6.0741413478">
        <ele>395.72</ele>
        <time>2020-07-10T07:50:14Z</time>
      </trkpt>
      <trkpt lat="37.8333184775" lon="-6.0741398390">
        <ele>395.72</ele>
        <time>2020-07-10T07:50:15Z</time>
      </trkpt>
      <trkpt lat="37.8333322238" lon="-6.0741377436">
        <ele>396.20</ele>
        <time>2020-07-10T07:50:16Z</time>
      </trkpt>
      <trkpt lat="37.8333463054" lon="-6.0741353966">
        <ele>396.20</ele>
        <time>2020-07-10T07:50:17Z</time>
      </trkpt>
      <trkpt lat="37.8333599679" lon="-6.0741327144">
        <ele>396.20</ele>
        <time>2020-07-10T07:50:18Z</time>
      </trkpt>
      <trkpt lat="37.8334411047" lon="-6.0741090775">
        <ele>398.12</ele>
        <time>2020-07-10T07:50:25Z</time>
      </trkpt>
      <trkpt lat="37.8334864508" lon="-6.0740952473">
        <ele>399.57</ele>
        <time>2020-07-10T07:50:29Z</time>
      </trkpt>
      <trkpt lat="37.8334962577" lon="-6.0740822554">
        <ele>400.05</ele>
        <time>2020-07-10T07:50:30Z</time>
      </trkpt>
      <trkpt lat="37.8335056454" lon="-6.0740667488">
        <ele>400.53</ele>
        <time>2020-07-10T07:50:31Z</time>
      </trkpt>
      <trkpt lat="37.8335152846" lon="-6.0740555171">
        <ele>400.53</ele>
        <time>2020-07-10T07:50:32Z</time>
      </trkpt>
      <trkpt lat="37.8335255105" lon="-6.0740463808">
        <ele>401.01</ele>
        <time>2020-07-10T07:50:33Z</time>
      </trkpt>
      <trkpt lat="37.8335355688" lon="-6.0740381666">
        <ele>401.01</ele>
        <time>2020-07-10T07:50:34Z</time>
      </trkpt>
      <trkpt lat="37.8336248361" lon="-6.0739779845">
        <ele>402.93</ele>
        <time>2020-07-10T07:50:44Z</time>
      </trkpt>
      <trkpt lat="37.8336331341" lon="-6.0739695188">
        <ele>402.93</ele>
        <time>2020-07-10T07:50:45Z</time>
      </trkpt>
      <trkpt lat="37.8336421866" lon="-6.0739580356">
        <ele>402.93</ele>
        <time>2020-07-10T07:50:46Z</time>
      </trkpt>
      <trkpt lat="37.8336514905" lon="-6.0739490669">
        <ele>402.93</ele>
        <time>2020-07-10T07:50:47Z</time>
      </trkpt>
      <trkpt lat="37.8336622193" lon="-6.0739419423">
        <ele>402.93</ele>
        <time>2020-07-10T07:50:48Z</time>
      </trkpt>
      <trkpt lat="37.8336747084" lon="-6.0739385895">
        <ele>402.93</ele>
        <time>2020-07-10T07:50:49Z</time>
      </trkpt>
      <trkpt lat="37.8336870298" lon="-6.0739346500">
        <ele>402.93</ele>
        <time>2020-07-10T07:50:50Z</time>
      </trkpt>
      <trkpt lat="37.8336985968" lon="-6.0739311296">
        <ele>402.93</ele>
        <time>2020-07-10T07:50:51Z</time>
      </trkpt>
      <trkpt lat="37.8337100800" lon="-6.0739272740">
        <ele>402.93</ele>
        <time>2020-07-10T07:50:52Z</time>
      </trkpt>
      <trkpt lat="37.8337474633" lon="-6.0739122704">
        <ele>402.93</ele>
        <time>2020-07-10T07:50:55Z</time>
      </trkpt>
      <trkpt lat="37.8337975033" lon="-6.0738997813">
        <ele>402.93</ele>
        <time>2020-07-10T07:50:59Z</time>
      </trkpt>
      <trkpt lat="37.8339446057" lon="-6.0739154555">
        <ele>402.93</ele>
        <time>2020-07-10T07:51:11Z</time>
      </trkpt>
      <trkpt lat="37.8340445179" lon="-6.0739137791">
        <ele>403.41</ele>
        <time>2020-07-10T07:51:19Z</time>
      </trkpt>
      <trkpt lat="37.8341712523" lon="-6.0738934111">
        <ele>405.33</ele>
        <time>2020-07-10T07:51:28Z</time>
      </trkpt>
      <trkpt lat="37.8343018424" lon="-6.0738562793">
        <ele>407.26</ele>
        <time>2020-07-10T07:51:37Z</time>
      </trkpt>
      <trkpt lat="37.8343299218" lon="-6.0738423653">
        <ele>407.74</ele>
        <time>2020-07-10T07:51:43Z</time>
      </trkpt>
      <trkpt lat="37.8343336098" lon="-6.0738357436">
        <ele>408.70</ele>
        <time>2020-07-10T07:51:55Z</time>
      </trkpt>
      <trkpt lat="37.8343336936" lon="-6.0738338158">
        <ele>409.18</ele>
        <time>2020-07-10T07:52:10Z</time>
      </trkpt>
      <trkpt lat="37.8343390580" lon="-6.0738102626">
        <ele>408.70</ele>
        <time>2020-07-10T07:52:25Z</time>
      </trkpt>
      <trkpt lat="37.8343315143" lon="-6.0738225002">
        <ele>409.18</ele>
        <time>2020-07-10T07:52:36Z</time>
      </trkpt>
      <trkpt lat="37.8344181832" lon="-6.0738427006">
        <ele>408.22</ele>
        <time>2020-07-10T07:52:42Z</time>
      </trkpt>
      <trkpt lat="37.8346011601" lon="-6.0738360789">
        <ele>406.77</ele>
        <time>2020-07-10T07:52:47Z</time>
      </trkpt>
      <trkpt lat="37.8346417286" lon="-6.0738309659">
        <ele>406.29</ele>
        <time>2020-07-10T07:52:48Z</time>
      </trkpt>
      <trkpt lat="37.8349995520" lon="-6.0738685168">
        <ele>404.37</ele>
        <time>2020-07-10T07:52:55Z</time>
      </trkpt>
      <trkpt lat="37.8350489214" lon="-6.0738875438">
        <ele>404.37</ele>
        <time>2020-07-10T07:52:56Z</time>
      </trkpt>
      <trkpt lat="37.8352190740" lon="-6.0739848576">
        <ele>402.93</ele>
        <time>2020-07-10T07:53:00Z</time>
      </trkpt>
      <trkpt lat="37.8352526017" lon="-6.0740126017">
        <ele>402.45</ele>
        <time>2020-07-10T07:53:01Z</time>
      </trkpt>
      <trkpt lat="37.8354596347" lon="-6.0742421821">
        <ele>399.08</ele>
        <time>2020-07-10T07:53:06Z</time>
      </trkpt>
      <trkpt lat="37.8357201442" lon="-6.0745853372">
        <ele>394.76</ele>
        <time>2020-07-10T07:53:11Z</time>
      </trkpt>
      <trkpt lat="37.8359878622" lon="-6.0748378839">
        <ele>395.72</ele>
        <time>2020-07-10T07:53:16Z</time>
      </trkpt>
      <trkpt lat="37.8361871000" lon="-6.0751703102">
        <ele>394.76</ele>
        <time>2020-07-10T07:53:23Z</time>
      </trkpt>
      <trkpt lat="37.8362710029" lon="-6.0753278900">
        <ele>394.28</ele>
        <time>2020-07-10T07:53:26Z</time>
      </trkpt>
      <trkpt lat="37.8363132477" lon="-6.0753834620">
        <ele>393.80</ele>
        <time>2020-07-10T07:53:27Z</time>
      </trkpt>
      <trkpt lat="37.8363621142" lon="-6.0754357651">
        <ele>393.80</ele>
        <time>2020-07-10T07:53:28Z</time>
      </trkpt>
      <trkpt lat="37.8365269024" lon="-6.0755728930">
        <ele>392.84</ele>
        <time>2020-07-10T07:53:31Z</time>
      </trkpt>
      <trkpt lat="37.8366510384" lon="-6.0756391101">
        <ele>391.87</ele>
        <time>2020-07-10T07:53:33Z</time>
      </trkpt>
      <trkpt lat="37.8369511943" lon="-6.0757051595">
        <ele>390.91</ele>
        <time>2020-07-10T07:53:38Z</time>
      </trkpt>
      <trkpt lat="37.8370081913" lon="-6.0756982863">
        <ele>390.91</ele>
        <time>2020-07-10T07:53:39Z</time>
      </trkpt>
      <trkpt lat="37.8370582312" lon="-6.0756811034">
        <ele>390.91</ele>
        <time>2020-07-10T07:53:40Z</time>
      </trkpt>
      <trkpt lat="37.8371035773" lon="-6.0756524373">
        <ele>390.91</ele>
        <time>2020-07-10T07:53:41Z</time>
      </trkpt>
      <trkpt lat="37.8371433914" lon="-6.0756158084">
        <ele>390.91</ele>
        <time>2020-07-10T07:53:42Z</time>
      </trkpt>
      <trkpt lat="37.8371803556" lon="-6.0755733121">
        <ele>390.91</ele>
        <time>2020-07-10T07:53:43Z</time>
      </trkpt>
      <trkpt lat="37.8372104466" lon="-6.0755301453">
        <ele>390.91</ele>
        <time>2020-07-10T07:53:44Z</time>
      </trkpt>
      <trkpt lat="37.8372407053" lon="-6.0754850507">
        <ele>390.43</ele>
        <time>2020-07-10T07:53:45Z</time>
      </trkpt>
      <trkpt lat="37.8374437150" lon="-6.0751439072">
        <ele>390.91</ele>
        <time>2020-07-10T07:53:53Z</time>
      </trkpt>
      <trkpt lat="37.8375934996" lon="-6.0749885906">
        <ele>391.87</ele>
        <time>2020-07-10T07:54:00Z</time>
      </trkpt>
      <trkpt lat="37.8377456311" lon="-6.0749367066">
        <ele>393.32</ele>
        <time>2020-07-10T07:54:08Z</time>
      </trkpt>
      <trkpt lat="37.8379511554" lon="-6.0749094654">
        <ele>395.72</ele>
        <time>2020-07-10T07:54:20Z</time>
      </trkpt>
      <trkpt lat="37.8381410893" lon="-6.0749123152">
        <ele>396.68</ele>
        <time>2020-07-10T07:54:30Z</time>
      </trkpt>
      <trkpt lat="37.8382275905" lon="-6.0749328509">
        <ele>397.16</ele>
        <time>2020-07-10T07:54:36Z</time>
      </trkpt>
      <trkpt lat="37.8382425942" lon="-6.0749346949">
        <ele>397.16</ele>
        <time>2020-07-10T07:54:37Z</time>
      </trkpt>
      <trkpt lat="37.8384075500" lon="-6.0749968048">
        <ele>397.16</ele>
        <time>2020-07-10T07:54:49Z</time>
      </trkpt>
      <trkpt lat="37.8385541495" lon="-6.0750576574">
        <ele>397.16</ele>
        <time>2020-07-10T07:55:00Z</time>
      </trkpt>
      <trkpt lat="37.8386704903" lon="-6.0751079489">
        <ele>398.12</ele>
        <time>2020-07-10T07:55:09Z</time>
      </trkpt>
      <trkpt lat="37.8388456721" lon="-6.0751679633">
        <ele>400.05</ele>
        <time>2020-07-10T07:55:20Z</time>
      </trkpt>
      <trkpt lat="37.8390075266" lon="-6.0752220266">
        <ele>402.45</ele>
        <time>2020-07-10T07:55:30Z</time>
      </trkpt>
      <trkpt lat="37.8391172457" lon="-6.0752690490">
        <ele>403.89</ele>
        <time>2020-07-10T07:55:38Z</time>
      </trkpt>
      <trkpt lat="37.8391855583" lon="-6.0753041692">
        <ele>404.37</ele>
        <time>2020-07-10T07:55:46Z</time>
      </trkpt>
      <trkpt lat="37.8392532002" lon="-6.0753398761">
        <ele>404.37</ele>
        <time>2020-07-10T07:55:53Z</time>
      </trkpt>
      <trkpt lat="37.8392640129" lon="-6.0753491800">
        <ele>404.85</ele>
        <time>2020-07-10T07:55:54Z</time>
      </trkpt>
      <trkpt lat="37.8392744903" lon="-6.0753581487">
        <ele>404.85</ele>
        <time>2020-07-10T07:55:55Z</time>
      </trkpt>
      <trkpt lat="37.8392855544" lon="-6.0753650218">
        <ele>404.85</ele>
        <time>2020-07-10T07:55:56Z</time>
      </trkpt>
      <trkpt lat="37.8392962832" lon="-6.0753697995">
        <ele>404.85</ele>
        <time>2020-07-10T07:55:57Z</time>
      </trkpt>
      <trkpt lat="37.8393086046" lon="-6.0753732361">
        <ele>404.85</ele>
        <time>2020-07-10T07:55:58Z</time>
      </trkpt>
      <trkpt lat="37.8393206745" lon="-6.0753791872">
        <ele>405.33</ele>
        <time>2020-07-10T07:55:59Z</time>
      </trkpt>
      <trkpt lat="37.8393311519" lon="-6.0753854737">
        <ele>405.33</ele>
        <time>2020-07-10T07:56:00Z</time>
      </trkpt>
      <trkpt lat="37.8393435571" lon="-6.0753886588">
        <ele>405.33</ele>
        <time>2020-07-10T07:56:01Z</time>
      </trkpt>
      <trkpt lat="37.8393557109" lon="-6.0753915086">
        <ele>405.33</ele>
        <time>2020-07-10T07:56:02Z</time>
      </trkpt>
      <trkpt lat="37.8394819424" lon="-6.0754492600">
        <ele>406.77</ele>
        <time>2020-07-10T07:56:12Z</time>
      </trkpt>
      <trkpt lat="37.8395900689" lon="-6.0755167343">
        <ele>407.74</ele>
        <time>2020-07-10T07:56:21Z</time>
      </trkpt>
      <trkpt lat="37.8397396021" lon="-6.0756207537">
        <ele>407.26</ele>
        <time>2020-07-10T07:56:31Z</time>
      </trkpt>
      <trkpt lat="37.8398755565" lon="-6.0757075902">
        <ele>407.74</ele>
        <time>2020-07-10T07:56:39Z</time>
      </trkpt>
      <trkpt lat="37.8400744591" lon="-6.0757752322">
        <ele>408.22</ele>
        <time>2020-07-10T07:56:49Z</time>
      </trkpt>
      <trkpt lat="37.8402101621" lon="-6.0757044889">
        <ele>410.14</ele>
        <time>2020-07-10T07:56:56Z</time>
      </trkpt>
      <trkpt lat="37.8403975815" lon="-6.0756771639">
        <ele>410.14</ele>
        <time>2020-07-10T07:57:06Z</time>
      </trkpt>
      <trkpt lat="37.8405737691" lon="-6.0757346638">
        <ele>409.66</ele>
        <time>2020-07-10T07:57:15Z</time>
      </trkpt>
      <trkpt lat="37.8407046944" lon="-6.0758080054">
        <ele>409.66</ele>
        <time>2020-07-10T07:57:23Z</time>
      </trkpt>
      <trkpt lat="37.8408908565" lon="-6.0759590473">
        <ele>409.66</ele>
        <time>2020-07-10T07:57:32Z</time>
      </trkpt>
      <trkpt lat="37.8411811218" lon="-6.0761833470">
        <ele>409.18</ele>
        <time>2020-07-10T07:57:44Z</time>
      </trkpt>
      <trkpt lat="37.8413534537" lon="-6.0762885399">
        <ele>409.18</ele>
        <time>2020-07-10T07:57:52Z</time>
      </trkpt>
      <trkpt lat="37.8413561359" lon="-6.0762884561">
        <ele>409.66</ele>
        <time>2020-07-10T07:57:59Z</time>
      </trkpt>
      <trkpt lat="37.8413542081" lon="-6.0762973409">
        <ele>408.22</ele>
        <time>2020-07-10T07:58:16Z</time>
      </trkpt>
      <trkpt lat="37.8413596563" lon="-6.0763025377">
        <ele>408.22</ele>
        <time>2020-07-10T07:58:30Z</time>
      </trkpt>
      <trkpt lat="37.8413679544" lon="-6.0763069801">
        <ele>408.22</ele>
        <time>2020-07-10T07:58:31Z</time>
      </trkpt>
      <trkpt lat="37.8413791023" lon="-6.0763141047">
        <ele>408.70</ele>
        <time>2020-07-10T07:58:32Z</time>
      </trkpt>
      <trkpt lat="37.8415056691" lon="-6.0763821658">
        <ele>408.70</ele>
        <time>2020-07-10T07:58:38Z</time>
      </trkpt>
      <trkpt lat="37.8416860476" lon="-6.0764282662">
        <ele>408.70</ele>
        <time>2020-07-10T07:58:45Z</time>
      </trkpt>
      <trkpt lat="37.8418675158" lon="-6.0763923917">
        <ele>409.66</ele>
        <time>2020-07-10T07:58:53Z</time>
      </trkpt>
      <trkpt lat="37.8420932405" lon="-6.0762959160">
        <ele>412.06</ele>
        <time>2020-07-10T07:59:04Z</time>
      </trkpt>
      <trkpt lat="37.8422778938" lon="-6.0762182157">
        <ele>413.98</ele>
        <time>2020-07-10T07:59:14Z</time>
      </trkpt>
      <trkpt lat="37.8423193842" lon="-6.0761927348">
        <ele>414.47</ele>
        <time>2020-07-10T07:59:17Z</time>
      </trkpt>
      <trkpt lat="37.8423363995" lon="-6.0761877056">
        <ele>414.95</ele>
        <time>2020-07-10T07:59:18Z</time>
      </trkpt>
      <trkpt lat="37.8425204661" lon="-6.0761425272">
        <ele>414.47</ele>
        <time>2020-07-10T07:59:27Z</time>
      </trkpt>
      <trkpt lat="37.8426943067" lon="-6.0761673376">
        <ele>413.98</ele>
        <time>2020-07-10T07:59:36Z</time>
      </trkpt>
      <trkpt lat="37.8428823967" lon="-6.0762595385">
        <ele>413.98</ele>
        <time>2020-07-10T07:59:45Z</time>
      </trkpt>
      <trkpt lat="37.8431163356" lon="-6.0763901286">
        <ele>414.95</ele>
        <time>2020-07-10T07:59:56Z</time>
      </trkpt>
      <trkpt lat="37.8432700597" lon="-6.0764498077">
        <ele>415.43</ele>
        <time>2020-07-10T08:00:04Z</time>
      </trkpt>
      <trkpt lat="37.8434089478" lon="-6.0764451139">
        <ele>415.43</ele>
        <time>2020-07-10T08:00:11Z</time>
      </trkpt>
      <trkpt lat="37.8436314035" lon="-6.0763626359">
        <ele>417.35</ele>
        <time>2020-07-10T08:00:22Z</time>
      </trkpt>
      <trkpt lat="37.8437927552" lon="-6.0762936529">
        <ele>418.31</ele>
        <time>2020-07-10T08:00:31Z</time>
      </trkpt>
      <trkpt lat="37.8439909033" lon="-6.0762228258">
        <ele>419.75</ele>
        <time>2020-07-10T08:00:42Z</time>
      </trkpt>
      <trkpt lat="37.8441553563" lon="-6.0761736240">
        <ele>420.71</ele>
        <time>2020-07-10T08:00:52Z</time>
      </trkpt>
      <trkpt lat="37.8442872874" lon="-6.0761214048">
        <ele>421.68</ele>
        <time>2020-07-10T08:01:00Z</time>
      </trkpt>
      <trkpt lat="37.8444614634" lon="-6.0759797506">
        <ele>423.12</ele>
        <time>2020-07-10T08:01:11Z</time>
      </trkpt>
      <trkpt lat="37.8445397504" lon="-6.0758039821">
        <ele>424.56</ele>
        <time>2020-07-10T08:01:19Z</time>
      </trkpt>
      <trkpt lat="37.8446183726" lon="-6.0756045766">
        <ele>424.56</ele>
        <time>2020-07-10T08:01:28Z</time>
      </trkpt>
      <trkpt lat="37.8446859308" lon="-6.0753295664">
        <ele>424.08</ele>
        <time>2020-07-10T08:01:36Z</time>
      </trkpt>
      <trkpt lat="37.8447815683" lon="-6.0750057735">
        <ele>424.08</ele>
        <time>2020-07-10T08:01:45Z</time>
      </trkpt>
      <trkpt lat="37.8449487872" lon="-6.0748252273">
        <ele>424.08</ele>
        <time>2020-07-10T08:01:54Z</time>
      </trkpt>
      <trkpt lat="37.8451232985" lon="-6.0748134088">
        <ele>422.64</ele>
        <time>2020-07-10T08:02:01Z</time>
      </trkpt>
      <trkpt lat="37.8452104703" lon="-6.0746844113">
        <ele>421.68</ele>
        <time>2020-07-10T08:02:05Z</time>
      </trkpt>
      <trkpt lat="37.8453736659" lon="-6.0743498057">
        <ele>418.31</ele>
        <time>2020-07-10T08:02:13Z</time>
      </trkpt>
      <trkpt lat="37.8456862271" lon="-6.0740688443">
        <ele>413.98</ele>
        <time>2020-07-10T08:02:22Z</time>
      </trkpt>
      <trkpt lat="37.8457432240" lon="-6.0739843547">
        <ele>413.02</ele>
        <time>2020-07-10T08:02:24Z</time>
      </trkpt>
      <trkpt lat="37.8457669448" lon="-6.0739347339">
        <ele>413.02</ele>
        <time>2020-07-10T08:02:25Z</time>
      </trkpt>
      <trkpt lat="37.8458018135" lon="-6.0738365818">
        <ele>412.54</ele>
        <time>2020-07-10T08:02:27Z</time>
      </trkpt>
      <trkpt lat="37.8458895721" lon="-6.0734442249">
        <ele>412.54</ele>
        <time>2020-07-10T08:02:35Z</time>
      </trkpt>
      <trkpt lat="37.8459375165" lon="-6.0733511858">
        <ele>413.50</ele>
        <time>2020-07-10T08:02:40Z</time>
      </trkpt>
      <trkpt lat="37.8459650092" lon="-6.0733361822">
        <ele>414.47</ele>
        <time>2020-07-10T08:02:46Z</time>
      </trkpt>
      <trkpt lat="37.8459635843" lon="-6.0733396187">
        <ele>413.98</ele>
        <time>2020-07-10T08:02:59Z</time>
      </trkpt>
      <trkpt lat="37.8459822759" lon="-6.0733537842">
        <ele>414.47</ele>
        <time>2020-07-10T08:03:10Z</time>
      </trkpt>
      <trkpt lat="37.8460058291" lon="-6.0733597353">
        <ele>414.47</ele>
        <time>2020-07-10T08:03:17Z</time>
      </trkpt>
      <trkpt lat="37.8460346628" lon="-6.0733577237">
        <ele>415.43</ele>
        <time>2020-07-10T08:03:28Z</time>
      </trkpt>
      <trkpt lat="37.8460662626" lon="-6.0733495094">
        <ele>415.91</ele>
        <time>2020-07-10T08:03:38Z</time>
      </trkpt>
      <trkpt lat="37.8460770752" lon="-6.0733495932">
        <ele>415.91</ele>
        <time>2020-07-10T08:03:39Z</time>
      </trkpt>
      <trkpt lat="37.8460876364" lon="-6.0733491741">
        <ele>415.91</ele>
        <time>2020-07-10T08:03:40Z</time>
      </trkpt>
      <trkpt lat="37.8461911529" lon="-6.0733645130">
        <ele>414.95</ele>
        <time>2020-07-10T08:03:48Z</time>
      </trkpt>
      <trkpt lat="37.8463379201" lon="-6.0733664408">
        <ele>414.47</ele>
        <time>2020-07-10T08:03:57Z</time>
      </trkpt>
      <trkpt lat="37.8464685101" lon="-6.0733696260">
        <ele>414.47</ele>
        <time>2020-07-10T08:04:05Z</time>
      </trkpt>
      <trkpt lat="37.8466246650" lon="-6.0733802710">
        <ele>414.95</ele>
        <time>2020-07-10T08:04:14Z</time>
      </trkpt>
      <trkpt lat="37.8467916325" lon="-6.0733942688">
        <ele>414.47</ele>
        <time>2020-07-10T08:04:22Z</time>
      </trkpt>
      <trkpt lat="37.8470010124" lon="-6.0734214261">
        <ele>414.95</ele>
        <time>2020-07-10T08:04:31Z</time>
      </trkpt>
      <trkpt lat="37.8471352905" lon="-6.0734921694">
        <ele>415.91</ele>
        <time>2020-07-10T08:04:38Z</time>
      </trkpt>
      <trkpt lat="37.8472364601" lon="-6.0736087617">
        <ele>415.91</ele>
        <time>2020-07-10T08:04:45Z</time>
      </trkpt>
      <trkpt lat="37.8473731689" lon="-6.0737987794">
        <ele>416.87</ele>
        <time>2020-07-10T08:04:55Z</time>
      </trkpt>
      <trkpt lat="37.8474361170" lon="-6.0739699379">
        <ele>417.35</ele>
        <time>2020-07-10T08:05:03Z</time>
      </trkpt>
      <trkpt lat="37.8475241270" lon="-6.0741506517">
        <ele>416.87</ele>
        <time>2020-07-10T08:05:11Z</time>
      </trkpt>
      <trkpt lat="37.8477094509" lon="-6.0743112490">
        <ele>416.39</ele>
        <time>2020-07-10T08:05:19Z</time>
      </trkpt>
      <trkpt lat="37.8479874786" lon="-6.0744968243">
        <ele>416.39</ele>
        <time>2020-07-10T08:05:29Z</time>
      </trkpt>
      <trkpt lat="37.8481040709" lon="-6.0745119955">
        <ele>416.39</ele>
        <time>2020-07-10T08:05:35Z</time>
      </trkpt>
      <trkpt lat="37.8482542746" lon="-6.0745067149">
        <ele>416.39</ele>
        <time>2020-07-10T08:05:43Z</time>
      </trkpt>
      <trkpt lat="37.8484518360" lon="-6.0745238140">
        <ele>417.83</ele>
        <time>2020-07-10T08:05:52Z</time>
      </trkpt>
      <trkpt lat="37.8486297838" lon="-6.0745049547">
        <ele>418.79</ele>
        <time>2020-07-10T08:06:00Z</time>
      </trkpt>
      <trkpt lat="37.8488171194" lon="-6.0744793899">
        <ele>419.27</ele>
        <time>2020-07-10T08:06:08Z</time>
      </trkpt>
      <trkpt lat="37.8490495495" lon="-6.0745005123">
        <ele>419.75</ele>
        <time>2020-07-10T08:06:18Z</time>
      </trkpt>
      <trkpt lat="37.8492660541" lon="-6.0745542403">
        <ele>420.23</ele>
        <time>2020-07-10T08:06:27Z</time>
      </trkpt>
      <trkpt lat="37.8494022600" lon="-6.0745820682">
        <ele>421.19</ele>
        <time>2020-07-10T08:06:33Z</time>
      </trkpt>
      <trkpt lat="37.8495535534" lon="-6.0745872650">
        <ele>421.68</ele>
        <time>2020-07-10T08:06:41Z</time>
      </trkpt>
      <trkpt lat="37.8497562278" lon="-6.0746217147">
        <ele>424.56</ele>
        <time>2020-07-10T08:06:52Z</time>
      </trkpt>
      <trkpt lat="37.8499548789" lon="-6.0746974871">
        <ele>425.52</ele>
        <time>2020-07-10T08:07:02Z</time>
      </trkpt>
      <trkpt lat="37.8501049150" lon="-6.0747673083">
        <ele>426.00</ele>
        <time>2020-07-10T08:07:10Z</time>
      </trkpt>
      <trkpt lat="37.8502680268" lon="-6.0748353694">
        <ele>426.48</ele>
        <time>2020-07-10T08:07:18Z</time>
      </trkpt>
      <trkpt lat="37.8504277021" lon="-6.0748410691">
        <ele>426.48</ele>
        <time>2020-07-10T08:07:26Z</time>
      </trkpt>
      <trkpt lat="37.8506057337" lon="-6.0748194437">
        <ele>425.52</ele>
        <time>2020-07-10T08:07:34Z</time>
      </trkpt>
      <trkpt lat="37.8507528361" lon="-6.0748507082">
        <ele>427.44</ele>
        <time>2020-07-10T08:07:40Z</time>
      </trkpt>
      <trkpt lat="37.8509032913" lon="-6.0748768598">
        <ele>427.92</ele>
        <time>2020-07-10T08:07:47Z</time>
      </trkpt>
      <trkpt lat="37.8510384914" lon="-6.0748861637">
        <ele>427.44</ele>
        <time>2020-07-10T08:07:54Z</time>
      </trkpt>
      <trkpt lat="37.8512280062" lon="-6.0749660432">
        <ele>427.92</ele>
        <time>2020-07-10T08:08:03Z</time>
      </trkpt>
      <trkpt lat="37.8513779584" lon="-6.0750380438">
        <ele>428.89</ele>
        <time>2020-07-10T08:08:11Z</time>
      </trkpt>
      <trkpt lat="37.8515634499" lon="-6.0750768520">
        <ele>428.89</ele>
        <time>2020-07-10T08:08:20Z</time>
      </trkpt>
      <trkpt lat="37.8515823931" lon="-6.0750811268">
        <ele>428.89</ele>
        <time>2020-07-10T08:08:21Z</time>
      </trkpt>
      <trkpt lat="37.8516010009" lon="-6.0750888381">
        <ele>428.89</ele>
        <time>2020-07-10T08:08:22Z</time>
      </trkpt>
      <trkpt lat="37.8517702315" lon="-6.0751591623">
        <ele>430.33</ele>
        <time>2020-07-10T08:08:31Z</time>
      </trkpt>
      <trkpt lat="37.8519641887" lon="-6.0752540454">
        <ele>430.33</ele>
        <time>2020-07-10T08:08:41Z</time>
      </trkpt>
      <trkpt lat="37.8521331679" lon="-6.0753247049">
        <ele>429.85</ele>
        <time>2020-07-10T08:08:50Z</time>
      </trkpt>
      <trkpt lat="37.8523008060" lon="-6.0753970407">
        <ele>429.85</ele>
        <time>2020-07-10T08:08:59Z</time>
      </trkpt>
      <trkpt lat="37.8523394465" lon="-6.0754174087">
        <ele>429.37</ele>
        <time>2020-07-10T08:09:01Z</time>
      </trkpt>
      <trkpt lat="37.8523883130" lon="-6.0754686221">
        <ele>428.89</ele>
        <time>2020-07-10T08:09:05Z</time>
      </trkpt>
      <trkpt lat="37.8524005506" lon="-6.0754754115">
        <ele>428.89</ele>
        <time>2020-07-10T08:09:06Z</time>
      </trkpt>
      <trkpt lat="37.8525243513" lon="-6.0755674448">
        <ele>429.37</ele>
        <time>2020-07-10T08:09:14Z</time>
      </trkpt>
      <trkpt lat="37.8526329808" lon="-6.0757076740">
        <ele>430.33</ele>
        <time>2020-07-10T08:09:22Z</time>
      </trkpt>
      <trkpt lat="37.8527899738" lon="-6.0758850351">
        <ele>432.73</ele>
        <time>2020-07-10T08:09:32Z</time>
      </trkpt>
      <trkpt lat="37.8529120144" lon="-6.0760240909">
        <ele>432.73</ele>
        <time>2020-07-10T08:09:40Z</time>
      </trkpt>
      <trkpt lat="37.8530151956" lon="-6.0761374980">
        <ele>432.73</ele>
        <time>2020-07-10T08:09:47Z</time>
      </trkpt>
      <trkpt lat="37.8532001004" lon="-6.0762687586">
        <ele>434.17</ele>
        <time>2020-07-10T08:09:57Z</time>
      </trkpt>
      <trkpt lat="37.8533919621" lon="-6.0763824172">
        <ele>434.65</ele>
        <time>2020-07-10T08:10:07Z</time>
      </trkpt>
      <trkpt lat="37.8535798844" lon="-6.0764918849">
        <ele>435.61</ele>
        <time>2020-07-10T08:10:17Z</time>
      </trkpt>
      <trkpt lat="37.8537018411" lon="-6.0765530728">
        <ele>436.10</ele>
        <time>2020-07-10T08:10:24Z</time>
      </trkpt>
      <trkpt lat="37.8538127337" lon="-6.0765917134">
        <ele>435.61</ele>
        <time>2020-07-10T08:10:31Z</time>
      </trkpt>
      <trkpt lat="37.8539965488" lon="-6.0766073037">
        <ele>434.65</ele>
        <time>2020-07-10T08:10:40Z</time>
      </trkpt>
      <trkpt lat="37.8541504405" lon="-6.0766398255">
        <ele>434.17</ele>
        <time>2020-07-10T08:10:47Z</time>
      </trkpt>
      <trkpt lat="37.8543173242" lon="-6.0767104011">
        <ele>433.69</ele>
        <time>2020-07-10T08:10:55Z</time>
      </trkpt>
      <trkpt lat="37.8545218427" lon="-6.0768090561">
        <ele>434.65</ele>
        <time>2020-07-10T08:11:05Z</time>
      </trkpt>
      <trkpt lat="37.8546420392" lon="-6.0768746864">
        <ele>435.13</ele>
        <time>2020-07-10T08:11:11Z</time>
      </trkpt>
      <trkpt lat="37.8547988646" lon="-6.0769518837">
        <ele>436.10</ele>
        <time>2020-07-10T08:11:19Z</time>
      </trkpt>
      <trkpt lat="37.8550208174" lon="-6.0769356228">
        <ele>437.54</ele>
        <time>2020-07-10T08:11:30Z</time>
      </trkpt>
      <trkpt lat="37.8552002739" lon="-6.0769635346">
        <ele>437.54</ele>
        <time>2020-07-10T08:11:39Z</time>
      </trkpt>
      <trkpt lat="37.8553405870" lon="-6.0769833997">
        <ele>437.54</ele>
        <time>2020-07-10T08:11:46Z</time>
      </trkpt>
      <trkpt lat="37.8554920480" lon="-6.0770436656">
        <ele>438.50</ele>
        <time>2020-07-10T08:11:54Z</time>
      </trkpt>
      <trkpt lat="37.8556491248" lon="-6.0771159176">
        <ele>438.98</ele>
        <time>2020-07-10T08:12:02Z</time>
      </trkpt>
      <trkpt lat="37.8558372986" lon="-6.0771882534">
        <ele>439.94</ele>
        <time>2020-07-10T08:12:11Z</time>
      </trkpt>
      <trkpt lat="37.8559766896" lon="-6.0772351921">
        <ele>440.90</ele>
        <time>2020-07-10T08:12:19Z</time>
      </trkpt>
      <trkpt lat="37.8561702278" lon="-6.0772926081">
        <ele>441.38</ele>
        <time>2020-07-10T08:12:29Z</time>
      </trkpt>
      <trkpt lat="37.8563200124" lon="-6.0773208551">
        <ele>440.42</ele>
        <time>2020-07-10T08:12:36Z</time>
      </trkpt>
      <trkpt lat="37.8565105330" lon="-6.0773466714">
        <ele>441.86</ele>
        <time>2020-07-10T08:12:46Z</time>
      </trkpt>
      <trkpt lat="37.8567116987" lon="-6.0774027463">
        <ele>442.82</ele>
        <time>2020-07-10T08:12:56Z</time>
      </trkpt>
      <trkpt lat="37.8569068294" lon="-6.0774210189">
        <ele>443.31</ele>
        <time>2020-07-10T08:13:06Z</time>
      </trkpt>
      <trkpt lat="37.8570924886" lon="-6.0774723999">
        <ele>443.31</ele>
        <time>2020-07-10T08:13:16Z</time>
      </trkpt>
      <trkpt lat="37.8573006950" lon="-6.0775338393">
        <ele>444.27</ele>
        <time>2020-07-10T08:13:27Z</time>
      </trkpt>
      <trkpt lat="37.8574358113" lon="-6.0775734857">
        <ele>444.75</ele>
        <time>2020-07-10T08:13:35Z</time>
      </trkpt>
      <trkpt lat="37.8576231468" lon="-6.0776454024">
        <ele>446.19</ele>
        <time>2020-07-10T08:13:46Z</time>
      </trkpt>
      <trkpt lat="37.8577725124" lon="-6.0776693746">
        <ele>446.67</ele>
        <time>2020-07-10T08:13:55Z</time>
      </trkpt>
      <trkpt lat="37.8579362947" lon="-6.0776474979">
        <ele>447.15</ele>
        <time>2020-07-10T08:14:04Z</time>
      </trkpt>
      <trkpt lat="37.8581307549" lon="-6.0775698815">
        <ele>447.15</ele>
        <time>2020-07-10T08:14:15Z</time>
      </trkpt>
      <trkpt lat="37.8582825512" lon="-6.0774908401">
        <ele>447.63</ele>
        <time>2020-07-10T08:14:24Z</time>
      </trkpt>
      <trkpt lat="37.8584629297" lon="-6.0774072725">
        <ele>448.11</ele>
        <time>2020-07-10T08:14:35Z</time>
      </trkpt>
      <trkpt lat="37.8585748281" lon="-6.0773565620">
        <ele>448.11</ele>
        <time>2020-07-10T08:14:42Z</time>
      </trkpt>
      <trkpt lat="37.8587070946" lon="-6.0773063544">
        <ele>448.59</ele>
        <time>2020-07-10T08:14:50Z</time>
      </trkpt>
      <trkpt lat="37.8588198312" lon="-6.0773502756">
        <ele>448.11</ele>
        <time>2020-07-10T08:14:58Z</time>
      </trkpt>
      <trkpt lat="37.8589564562" lon="-6.0774195939">
        <ele>449.55</ele>
        <time>2020-07-10T08:15:06Z</time>
      </trkpt>
      <trkpt lat="37.8591256030" lon="-6.0774958692">
        <ele>451.48</ele>
        <time>2020-07-10T08:15:16Z</time>
      </trkpt>
      <trkpt lat="37.8592628147" lon="-6.0775728989">
        <ele>452.92</ele>
        <time>2020-07-10T08:15:25Z</time>
      </trkpt>
      <trkpt lat="37.8593614697" lon="-6.0776251182">
        <ele>454.84</ele>
        <time>2020-07-10T08:15:34Z</time>
      </trkpt>
      <trkpt lat="37.8594580293" lon="-6.0776514374">
        <ele>456.76</ele>
        <time>2020-07-10T08:15:42Z</time>
      </trkpt>
      <trkpt lat="37.8595159482" lon="-6.0776697099">
        <ele>457.72</ele>
        <time>2020-07-10T08:15:47Z</time>
      </trkpt>
      <trkpt lat="37.8595263418" lon="-6.0776691232">
        <ele>457.72</ele>
        <time>2020-07-10T08:15:48Z</time>
      </trkpt>
      <trkpt lat="37.8595370706" lon="-6.0776717216">
        <ele>457.72</ele>
        <time>2020-07-10T08:15:49Z</time>
      </trkpt>
      <trkpt lat="37.8595485538" lon="-6.0776742361">
        <ele>457.72</ele>
        <time>2020-07-10T08:15:50Z</time>
      </trkpt>
      <trkpt lat="37.8595599532" lon="-6.0776713025">
        <ele>457.72</ele>
        <time>2020-07-10T08:15:51Z</time>
      </trkpt>
      <trkpt lat="37.8595713526" lon="-6.0776656866">
        <ele>458.21</ele>
        <time>2020-07-10T08:15:52Z</time>
      </trkpt>
      <trkpt lat="37.8596921358" lon="-6.0776427202">
        <ele>459.65</ele>
        <time>2020-07-10T08:16:01Z</time>
      </trkpt>
      <trkpt lat="37.8598075546" lon="-6.0776411276">
        <ele>461.09</ele>
        <time>2020-07-10T08:16:10Z</time>
      </trkpt>
      <trkpt lat="37.8599433415" lon="-6.0776413791">
        <ele>462.05</ele>
        <time>2020-07-10T08:16:20Z</time>
      </trkpt>
      <trkpt lat="37.8600326926" lon="-6.0776568856">
        <ele>462.53</ele>
        <time>2020-07-10T08:16:28Z</time>
      </trkpt>
      <trkpt lat="37.8601953853" lon="-6.0776963644">
        <ele>463.01</ele>
        <time>2020-07-10T08:16:38Z</time>
      </trkpt>
      <trkpt lat="37.8603517078" lon="-6.0777043272">
        <ele>463.49</ele>
        <time>2020-07-10T08:16:47Z</time>
      </trkpt>
      <trkpt lat="37.8605017439" lon="-6.0777357593">
        <ele>463.97</ele>
        <time>2020-07-10T08:16:55Z</time>
      </trkpt>
      <trkpt lat="37.8605989739" lon="-6.0777506791">
        <ele>463.97</ele>
        <time>2020-07-10T08:17:02Z</time>
      </trkpt>
      <trkpt lat="37.8606240358" lon="-6.0777381901">
        <ele>464.93</ele>
        <time>2020-07-10T08:17:09Z</time>
      </trkpt>
      <trkpt lat="37.8606452420" lon="-6.0777364299">
        <ele>465.90</ele>
        <time>2020-07-10T08:17:22Z</time>
      </trkpt>
      <trkpt lat="37.8606400453" lon="-6.0777162295">
        <ele>466.38</ele>
        <time>2020-07-10T08:17:35Z</time>
      </trkpt>
      <trkpt lat="37.8606172465" lon="-6.0777099431">
        <ele>467.34</ele>
        <time>2020-07-10T08:17:46Z</time>
      </trkpt>
      <trkpt lat="37.8606053442" lon="-6.0777350888">
        <ele>468.30</ele>
        <time>2020-07-10T08:18:07Z</time>
      </trkpt>
      <trkpt lat="37.8606195934" lon="-6.0777158942">
        <ele>466.86</ele>
        <time>2020-07-10T08:18:30Z</time>
      </trkpt>
      <trkpt lat="37.8606247902" lon="-6.0777277127">
        <ele>464.93</ele>
        <time>2020-07-10T08:18:53Z</time>
      </trkpt>
      <trkpt lat="37.8606050089" lon="-6.0777205043">
        <ele>469.74</ele>
        <time>2020-07-10T08:19:15Z</time>
      </trkpt>
      <trkpt lat="37.8606086969" lon="-6.0777200852">
        <ele>471.18</ele>
        <time>2020-07-10T08:19:32Z</time>
      </trkpt>
      <trkpt lat="37.8606231976" lon="-6.0777187441">
        <ele>471.18</ele>
        <time>2020-07-10T08:19:55Z</time>
      </trkpt>
      <trkpt lat="37.8606037516" lon="-6.0777122062">
        <ele>468.78</ele>
        <time>2020-07-10T08:20:25Z</time>
      </trkpt>
      <trkpt lat="37.8606050927" lon="-6.0776995495">
        <ele>467.82</ele>
        <time>2020-07-10T08:20:49Z</time>
      </trkpt>
      <trkpt lat="37.8606268857" lon="-6.0777072608">
        <ele>469.74</ele>
        <time>2020-07-10T08:21:09Z</time>
      </trkpt>
      <trkpt lat="37.8606221080" lon="-6.0777128767">
        <ele>469.74</ele>
        <time>2020-07-10T08:21:27Z</time>
      </trkpt>
      <trkpt lat="37.8606122173" lon="-6.0776910000">
        <ele>471.18</ele>
        <time>2020-07-10T08:21:51Z</time>
      </trkpt>
      <trkpt lat="37.8606253769" lon="-6.0777084343">
        <ele>472.14</ele>
        <time>2020-07-10T08:22:09Z</time>
      </trkpt>
      <trkpt lat="37.8606330883" lon="-6.0777094401">
        <ele>471.66</ele>
        <time>2020-07-10T08:22:34Z</time>
      </trkpt>
      <trkpt lat="37.8606400453" lon="-6.0777134635">
        <ele>470.22</ele>
        <time>2020-07-10T08:22:46Z</time>
      </trkpt>
      <trkpt lat="37.8606252931" lon="-6.0777096078">
        <ele>469.26</ele>
        <time>2020-07-10T08:23:03Z</time>
      </trkpt>
      <trkpt lat="37.8605973814" lon="-6.0776902456">
        <ele>468.30</ele>
        <time>2020-07-10T08:23:25Z</time>
      </trkpt>
      <trkpt lat="37.8605764266" lon="-6.0777034052">
        <ele>469.26</ele>
        <time>2020-07-10T08:23:51Z</time>
      </trkpt>
      <trkpt lat="37.8606036678" lon="-6.0777085181">
        <ele>468.78</ele>
        <time>2020-07-10T08:24:09Z</time>
      </trkpt>
      <trkpt lat="37.8605970461" lon="-6.0777111165">
        <ele>469.74</ele>
        <time>2020-07-10T08:24:31Z</time>
      </trkpt>
      <trkpt lat="37.8606454935" lon="-6.0777277127">
        <ele>470.22</ele>
        <time>2020-07-10T08:24:48Z</time>
      </trkpt>
      <trkpt lat="37.8607694618" lon="-6.0777464882">
        <ele>471.66</ele>
        <time>2020-07-10T08:25:00Z</time>
      </trkpt>
      <trkpt lat="37.8609208390" lon="-6.0777590610">
        <ele>473.11</ele>
        <time>2020-07-10T08:25:14Z</time>
      </trkpt>
      <trkpt lat="37.8610876389" lon="-6.0777697060">
        <ele>474.07</ele>
        <time>2020-07-10T08:25:29Z</time>
      </trkpt>
      <trkpt lat="37.8612634074" lon="-6.0777994618">
        <ele>475.03</ele>
        <time>2020-07-10T08:25:43Z</time>
      </trkpt>
      <trkpt lat="37.8613879625" lon="-6.0778301395">
        <ele>475.99</ele>
        <time>2020-07-10T08:25:54Z</time>
      </trkpt>
      <trkpt lat="37.8615048062" lon="-6.0778357554">
        <ele>477.91</ele>
        <time>2020-07-10T08:26:06Z</time>
      </trkpt>
      <trkpt lat="37.8616086580" lon="-6.0778493341">
        <ele>478.87</ele>
        <time>2020-07-10T08:26:17Z</time>
      </trkpt>
      <trkpt lat="37.8617329616" lon="-6.0778925847">
        <ele>479.35</ele>
        <time>2020-07-10T08:26:30Z</time>
      </trkpt>
      <trkpt lat="37.8618438542" lon="-6.0779353324">
        <ele>479.84</ele>
        <time>2020-07-10T08:26:41Z</time>
      </trkpt>
      <trkpt lat="37.8619276732" lon="-6.0779363383">
        <ele>480.80</ele>
        <time>2020-07-10T08:26:50Z</time>
      </trkpt>
      <trkpt lat="37.8619982488" lon="-6.0779246036">
        <ele>482.24</ele>
        <time>2020-07-10T08:26:59Z</time>
      </trkpt>
      <trkpt lat="37.8620109893" lon="-6.0779235978">
        <ele>481.76</ele>
        <time>2020-07-10T08:27:08Z</time>
      </trkpt>
      <trkpt lat="37.8620860074" lon="-6.0779010504">
        <ele>482.72</ele>
        <time>2020-07-10T08:27:19Z</time>
      </trkpt>
      <trkpt lat="37.8620863426" lon="-6.0779044870">
        <ele>483.20</ele>
        <time>2020-07-10T08:27:31Z</time>
      </trkpt>
      <trkpt lat="37.8621239774" lon="-6.0778955184">
        <ele>483.68</ele>
        <time>2020-07-10T08:27:39Z</time>
      </trkpt>
      <trkpt lat="37.8621406574" lon="-6.0778805986">
        <ele>485.60</ele>
        <time>2020-07-10T08:27:51Z</time>
      </trkpt>
      <trkpt lat="37.8621824831" lon="-6.0778703727">
        <ele>486.08</ele>
        <time>2020-07-10T08:28:00Z</time>
      </trkpt>
      <trkpt lat="37.8621851653" lon="-6.0778950993">
        <ele>487.05</ele>
        <time>2020-07-10T08:28:14Z</time>
      </trkpt>
      <trkpt lat="37.8622321878" lon="-6.0778970271">
        <ele>487.05</ele>
        <time>2020-07-10T08:28:24Z</time>
      </trkpt>
      <trkpt lat="37.8622230515" lon="-6.0779033974">
        <ele>487.53</ele>
        <time>2020-07-10T08:28:40Z</time>
      </trkpt>
      <trkpt lat="37.8622540645" lon="-6.0779019725">
        <ele>487.53</ele>
        <time>2020-07-10T08:28:48Z</time>
      </trkpt>
      <trkpt lat="37.8623231314" lon="-6.0778869689">
        <ele>488.49</ele>
        <time>2020-07-10T08:28:58Z</time>
      </trkpt>
      <trkpt lat="37.8623524681" lon="-6.0778769944">
        <ele>488.97</ele>
        <time>2020-07-10T08:29:07Z</time>
      </trkpt>
      <trkpt lat="37.8623609338" lon="-6.0778864659">
        <ele>489.45</ele>
        <time>2020-07-10T08:29:18Z</time>
      </trkpt>
      <trkpt lat="37.8624148294" lon="-6.0778758209">
        <ele>489.45</ele>
        <time>2020-07-10T08:29:28Z</time>
      </trkpt>
      <trkpt lat="37.8624321800" lon="-6.0778780002">
        <ele>490.89</ele>
        <time>2020-07-10T08:29:37Z</time>
      </trkpt>
      <trkpt lat="37.8624551464" lon="-6.0778869689">
        <ele>490.41</ele>
        <time>2020-07-10T08:29:49Z</time>
      </trkpt>
      <trkpt lat="37.8624964692" lon="-6.0778895672">
        <ele>491.37</ele>
        <time>2020-07-10T08:29:59Z</time>
      </trkpt>
      <trkpt lat="37.8625574894" lon="-6.0778835323">
        <ele>493.29</ele>
        <time>2020-07-10T08:30:10Z</time>
      </trkpt>
      <trkpt lat="37.8625623509" lon="-6.0778886452">
        <ele>494.26</ele>
        <time>2020-07-10T08:30:19Z</time>
      </trkpt>
      <trkpt lat="37.8625740856" lon="-6.0779010504">
        <ele>494.74</ele>
        <time>2020-07-10T08:30:31Z</time>
      </trkpt>
      <trkpt lat="37.8626004886" lon="-6.0778883100">
        <ele>494.74</ele>
        <time>2020-07-10T08:30:44Z</time>
      </trkpt>
      <trkpt lat="37.8626518697" lon="-6.0778655950">
        <ele>496.18</ele>
        <time>2020-07-10T08:30:54Z</time>
      </trkpt>
      <trkpt lat="37.8627144825" lon="-6.0778350849">
        <ele>498.10</ele>
        <time>2020-07-10T08:31:04Z</time>
      </trkpt>
      <trkpt lat="37.8627238702" lon="-6.0778468195">
        <ele>499.06</ele>
        <time>2020-07-10T08:31:18Z</time>
      </trkpt>
      <trkpt lat="37.8627339285" lon="-6.0778458975">
        <ele>499.06</ele>
        <time>2020-07-10T08:31:32Z</time>
      </trkpt>
      <trkpt lat="37.8627931047" lon="-6.0778291337">
        <ele>499.54</ele>
        <time>2020-07-10T08:31:43Z</time>
      </trkpt>
      <trkpt lat="37.8627964575" lon="-6.0778273735">
        <ele>499.54</ele>
        <time>2020-07-10T08:31:52Z</time>
      </trkpt>
      <trkpt lat="37.8628142271" lon="-6.0778283793">
        <ele>499.54</ele>
        <time>2020-07-10T08:32:02Z</time>
      </trkpt>
      <trkpt lat="37.8628378641" lon="-6.0778229311">
        <ele>500.02</ele>
        <time>2020-07-10T08:32:12Z</time>
      </trkpt>
      <trkpt lat="37.8628499340" lon="-6.0778210033">
        <ele>499.54</ele>
        <time>2020-07-10T08:32:20Z</time>
      </trkpt>
      <trkpt lat="37.8628840484" lon="-6.0778135434">
        <ele>501.46</ele>
        <time>2020-07-10T08:32:30Z</time>
      </trkpt>
      <trkpt lat="37.8628790192" lon="-6.0778180696">
        <ele>500.50</ele>
        <time>2020-07-10T08:32:44Z</time>
      </trkpt>
      <trkpt lat="37.8628925979" lon="-6.0778199974">
        <ele>501.46</ele>
        <time>2020-07-10T08:32:54Z</time>
      </trkpt>
      <trkpt lat="37.8629293945" lon="-6.0778085981">
        <ele>500.98</ele>
        <time>2020-07-10T08:33:04Z</time>
      </trkpt>
      <trkpt lat="37.8629516065" lon="-6.0778042395">
        <ele>502.91</ele>
        <time>2020-07-10T08:33:13Z</time>
      </trkpt>
      <trkpt lat="37.8629395366" lon="-6.0778244399">
        <ele>503.39</ele>
        <time>2020-07-10T08:33:27Z</time>
      </trkpt>
      <trkpt lat="37.8629441466" lon="-6.0778221767">
        <ele>501.46</ele>
        <time>2020-07-10T08:33:40Z</time>
      </trkpt>
      <trkpt lat="37.8629671969" lon="-6.0778100230">
        <ele>502.43</ele>
        <time>2020-07-10T08:33:47Z</time>
      </trkpt>
      <trkpt lat="37.8629788477" lon="-6.0778015573">
        <ele>502.91</ele>
        <time>2020-07-10T08:33:57Z</time>
      </trkpt>
      <trkpt lat="37.8629941028" lon="-6.0777956061">
        <ele>504.35</ele>
        <time>2020-07-10T08:34:05Z</time>
      </trkpt>
      <trkpt lat="37.8630152252" lon="-6.0777935944">
        <ele>505.31</ele>
        <time>2020-07-10T08:34:12Z</time>
      </trkpt>
      <trkpt lat="37.8629964497" lon="-6.0777933430">
        <ele>505.31</ele>
        <time>2020-07-10T08:34:25Z</time>
      </trkpt>
      <trkpt lat="37.8630153928" lon="-6.0777969472">
        <ele>504.83</ele>
        <time>2020-07-10T08:34:34Z</time>
      </trkpt>
      <trkpt lat="37.8630304802" lon="-6.0777791776">
        <ele>505.31</ele>
        <time>2020-07-10T08:34:43Z</time>
      </trkpt>
      <trkpt lat="37.8630098607" lon="-6.0777902417">
        <ele>507.23</ele>
        <time>2020-07-10T08:34:53Z</time>
      </trkpt>
      <trkpt lat="37.8630021494" lon="-6.0777951032">
        <ele>508.19</ele>
        <time>2020-07-10T08:35:07Z</time>
      </trkpt>
      <trkpt lat="37.8630191647" lon="-6.0777887329">
        <ele>508.19</ele>
        <time>2020-07-10T08:35:19Z</time>
      </trkpt>
      <trkpt lat="37.8630255349" lon="-6.0777875595">
        <ele>507.23</ele>
        <time>2020-07-10T08:35:30Z</time>
      </trkpt>
      <trkpt lat="37.8630345035" lon="-6.0777822789">
        <ele>507.71</ele>
        <time>2020-07-10T08:35:41Z</time>
      </trkpt>
      <trkpt lat="37.8630428854" lon="-6.0777700413">
        <ele>509.16</ele>
        <time>2020-07-10T08:35:53Z</time>
      </trkpt>
      <trkpt lat="37.8630593978" lon="-6.0777882300">
        <ele>509.16</ele>
        <time>2020-07-10T08:36:04Z</time>
      </trkpt>
      <trkpt lat="37.8630801011" lon="-6.0777829494">
        <ele>507.71</ele>
        <time>2020-07-10T08:36:12Z</time>
      </trkpt>
      <trkpt lat="37.8630793467" lon="-6.0777838714">
        <ele>507.71</ele>
        <time>2020-07-10T08:36:24Z</time>
      </trkpt>
      <trkpt lat="37.8630865552" lon="-6.0777738970">
        <ele>507.23</ele>
        <time>2020-07-10T08:36:36Z</time>
      </trkpt>
      <trkpt lat="37.8630638402" lon="-6.0777650960">
        <ele>509.16</ele>
        <time>2020-07-10T08:36:47Z</time>
      </trkpt>
      <trkpt lat="37.8630532790" lon="-6.0777982045">
        <ele>511.08</ele>
        <time>2020-07-10T08:37:12Z</time>
      </trkpt>
      <trkpt lat="37.8630664386" lon="-6.0778085981">
        <ele>513.00</ele>
        <time>2020-07-10T08:37:29Z</time>
      </trkpt>
      <trkpt lat="37.8630903270" lon="-6.0778064188">
        <ele>512.52</ele>
        <time>2020-07-10T08:37:38Z</time>
      </trkpt>
      <trkpt lat="37.8631134611" lon="-6.0778403655">
        <ele>513.00</ele>
        <time>2020-07-10T08:37:46Z</time>
      </trkpt>
      <trkpt lat="37.8631092701" lon="-6.0778445564">
        <ele>513.96</ele>
        <time>2020-07-10T08:37:53Z</time>
      </trkpt>
      <trkpt lat="37.8630971164" lon="-6.0778850410">
        <ele>510.60</ele>
        <time>2020-07-10T08:38:10Z</time>
      </trkpt>
      <trkpt lat="37.8631120361" lon="-6.0778854601">
        <ele>508.19</ele>
        <time>2020-07-10T08:38:24Z</time>
      </trkpt>
      <trkpt lat="37.8631550353" lon="-6.0778715461">
        <ele>510.60</ele>
        <time>2020-07-10T08:38:34Z</time>
      </trkpt>
      <trkpt lat="37.8631644230" lon="-6.0778594762">
        <ele>511.08</ele>
        <time>2020-07-10T08:38:52Z</time>
      </trkpt>
      <trkpt lat="37.8631648421" lon="-6.0778597277">
        <ele>511.08</ele>
        <time>2020-07-10T08:39:04Z</time>
      </trkpt>
      <trkpt lat="37.8631782532" lon="-6.0778599791">
        <ele>512.04</ele>
        <time>2020-07-10T08:39:10Z</time>
      </trkpt>
      <trkpt lat="37.8631860483" lon="-6.0778670199">
        <ele>511.56</ele>
        <time>2020-07-10T08:39:18Z</time>
      </trkpt>
      <trkpt lat="37.8631935921" lon="-6.0779085942">
        <ele>506.27</ele>
        <time>2020-07-10T08:39:37Z</time>
      </trkpt>
      <trkpt lat="37.8632081766" lon="-6.0779055767">
        <ele>506.75</ele>
        <time>2020-07-10T08:39:44Z</time>
      </trkpt>
      <trkpt lat="37.8632160556" lon="-6.0778883100">
        <ele>506.75</ele>
        <time>2020-07-10T08:39:52Z</time>
      </trkpt>
      <trkpt lat="37.8632370103" lon="-6.0778860468">
        <ele>508.19</ele>
        <time>2020-07-10T08:40:00Z</time>
      </trkpt>
      <trkpt lat="37.8632491641" lon="-6.0778795928">
        <ele>508.67</ele>
        <time>2020-07-10T08:40:07Z</time>
      </trkpt>
      <trkpt lat="37.8632457275" lon="-6.0778622422">
        <ele>510.12</ele>
        <time>2020-07-10T08:40:16Z</time>
      </trkpt>
      <trkpt lat="37.8632599767" lon="-6.0778464004">
        <ele>511.56</ele>
        <time>2020-07-10T08:40:26Z</time>
      </trkpt>
      <trkpt lat="37.8632916603" lon="-6.0778522678">
        <ele>513.48</ele>
        <time>2020-07-10T08:40:34Z</time>
      </trkpt>
      <trkpt lat="37.8633419517" lon="-6.0778623261">
        <ele>516.37</ele>
        <time>2020-07-10T08:40:44Z</time>
      </trkpt>
      <trkpt lat="37.8633515071" lon="-6.0778788384">
        <ele>517.81</ele>
        <time>2020-07-10T08:40:52Z</time>
      </trkpt>
      <trkpt lat="37.8633676842" lon="-6.0778936744">
        <ele>517.33</ele>
        <time>2020-07-10T08:41:04Z</time>
      </trkpt>
      <trkpt lat="37.8633762337" lon="-6.0779019725">
        <ele>517.33</ele>
        <time>2020-07-10T08:41:12Z</time>
      </trkpt>
      <trkpt lat="37.8633882198" lon="-6.0779207479">
        <ele>514.92</ele>
        <time>2020-07-10T08:41:24Z</time>
      </trkpt>
      <trkpt lat="37.8634023853" lon="-6.0779413674">
        <ele>515.40</ele>
        <time>2020-07-10T08:41:34Z</time>
      </trkpt>
      <trkpt lat="37.8633971885" lon="-6.0779375955">
        <ele>515.88</ele>
        <time>2020-07-10T08:41:41Z</time>
      </trkpt>
      <trkpt lat="37.8634040616" lon="-6.0779522639">
        <ele>514.92</ele>
        <time>2020-07-10T08:41:48Z</time>
      </trkpt>
      <trkpt lat="37.8634176403" lon="-6.0779643338">
        <ele>514.44</ele>
        <time>2020-07-10T08:41:56Z</time>
      </trkpt>
      <trkpt lat="37.8634222504" lon="-6.0779660940">
        <ele>515.40</ele>
        <time>2020-07-10T08:42:04Z</time>
      </trkpt>
      <trkpt lat="37.8634385951" lon="-6.0779855400">
        <ele>515.88</ele>
        <time>2020-07-10T08:42:12Z</time>
      </trkpt>
      <trkpt lat="37.8634675127" lon="-6.0780230071">
        <ele>516.37</ele>
        <time>2020-07-10T08:42:22Z</time>
      </trkpt>
      <trkpt lat="37.8634729609" lon="-6.0780199897">
        <ele>517.33</ele>
        <time>2020-07-10T08:42:36Z</time>
      </trkpt>
      <trkpt lat="37.8634939995" lon="-6.0780448839">
        <ele>518.29</ele>
        <time>2020-07-10T08:42:47Z</time>
      </trkpt>
      <trkpt lat="37.8635230009" lon="-6.0780790821">
        <ele>519.25</ele>
        <time>2020-07-10T08:42:55Z</time>
      </trkpt>
      <trkpt lat="37.8635278624" lon="-6.0780824348">
        <ele>519.73</ele>
        <time>2020-07-10T08:43:08Z</time>
      </trkpt>
      <trkpt lat="37.8635510802" lon="-6.0781199019">
        <ele>520.69</ele>
        <time>2020-07-10T08:43:19Z</time>
      </trkpt>
      <trkpt lat="37.8635659162" lon="-6.0781493224">
        <ele>523.09</ele>
        <time>2020-07-10T08:43:30Z</time>
      </trkpt>
      <trkpt lat="37.8635735437" lon="-6.0781606380">
        <ele>524.06</ele>
        <time>2020-07-10T08:43:40Z</time>
      </trkpt>
      <trkpt lat="37.8635852784" lon="-6.0782028828">
        <ele>524.54</ele>
        <time>2020-07-10T08:43:52Z</time>
      </trkpt>
      <trkpt lat="37.8635944985" lon="-6.0781838559">
        <ele>524.54</ele>
        <time>2020-07-10T08:44:14Z</time>
      </trkpt>
      <trkpt lat="37.8636102565" lon="-6.0781977698">
        <ele>524.54</ele>
        <time>2020-07-10T08:44:27Z</time>
      </trkpt>
      <trkpt lat="37.8636595421" lon="-6.0782488156">
        <ele>526.46</ele>
        <time>2020-07-10T08:44:39Z</time>
      </trkpt>
      <trkpt lat="37.8637088276" lon="-6.0783316288">
        <ele>529.34</ele>
        <time>2020-07-10T08:44:50Z</time>
      </trkpt>
      <trkpt lat="37.8637115937" lon="-6.0783486441">
        <ele>530.30</ele>
        <time>2020-07-10T08:44:59Z</time>
      </trkpt>
      <trkpt lat="37.8637122642" lon="-6.0783645697">
        <ele>528.38</ele>
        <time>2020-07-10T08:45:12Z</time>
      </trkpt>
      <trkpt lat="37.8637405112" lon="-6.0784059763">
        <ele>528.86</ele>
        <time>2020-07-10T08:45:21Z</time>
      </trkpt>
      <trkpt lat="37.8637840133" lon="-6.0784550104">
        <ele>530.79</ele>
        <time>2020-07-10T08:45:31Z</time>
      </trkpt>
      <trkpt lat="37.8637783136" lon="-6.0784731992">
        <ele>532.23</ele>
        <time>2020-07-10T08:45:39Z</time>
      </trkpt>
      <trkpt lat="37.8637925629" lon="-6.0785024520">
        <ele>533.19</ele>
        <time>2020-07-10T08:45:54Z</time>
      </trkpt>
      <trkpt lat="37.8638401721" lon="-6.0785717703">
        <ele>534.15</ele>
        <time>2020-07-10T08:46:04Z</time>
      </trkpt>
      <trkpt lat="37.8638221510" lon="-6.0785674956">
        <ele>535.59</ele>
        <time>2020-07-10T08:46:20Z</time>
      </trkpt>
      <trkpt lat="37.8638380766" lon="-6.0785936471">
        <ele>534.15</ele>
        <time>2020-07-10T08:46:31Z</time>
      </trkpt>
      <trkpt lat="37.8639069758" lon="-6.0787116643">
        <ele>538.48</ele>
        <time>2020-07-10T08:46:45Z</time>
      </trkpt>
      <trkpt lat="37.8639284335" lon="-6.0787615366">
        <ele>538.96</ele>
        <time>2020-07-10T08:46:50Z</time>
      </trkpt>
      <trkpt lat="37.8639470413" lon="-6.0788287595">
        <ele>539.44</ele>
        <time>2020-07-10T08:47:00Z</time>
      </trkpt>
      <trkpt lat="37.8639448620" lon="-6.0788337886">
        <ele>539.44</ele>
        <time>2020-07-10T08:47:14Z</time>
      </trkpt>
      <trkpt lat="37.8639668226" lon="-6.0788858403">
        <ele>540.40</ele>
        <time>2020-07-10T08:47:23Z</time>
      </trkpt>
      <trkpt lat="37.8639938962" lon="-6.0789592657">
        <ele>541.84</ele>
        <time>2020-07-10T08:47:33Z</time>
      </trkpt>
      <trkpt lat="37.8640040383" lon="-6.0789950565">
        <ele>543.28</ele>
        <time>2020-07-10T08:47:41Z</time>
      </trkpt>
      <trkpt lat="37.8640091512" lon="-6.0790177714">
        <ele>542.32</ele>
        <time>2020-07-10T08:47:56Z</time>
      </trkpt>
      <trkpt lat="37.8640021104" lon="-6.0789953917">
        <ele>541.36</ele>
        <time>2020-07-10T08:48:11Z</time>
      </trkpt>
      <trkpt lat="37.8640430979" lon="-6.0790704098">
        <ele>543.28</ele>
        <time>2020-07-10T08:48:22Z</time>
      </trkpt>
      <trkpt lat="37.8640650585" lon="-6.0791543964">
        <ele>544.24</ele>
        <time>2020-07-10T08:48:32Z</time>
      </trkpt>
      <trkpt lat="37.8641000111" lon="-6.0792812984">
        <ele>545.20</ele>
        <time>2020-07-10T08:48:43Z</time>
      </trkpt>
      <trkpt lat="37.8641431779" lon="-6.0793625191">
        <ele>547.13</ele>
        <time>2020-07-10T08:48:52Z</time>
      </trkpt>
      <trkpt lat="37.8641481232" lon="-6.0793881677">
        <ele>547.61</ele>
        <time>2020-07-10T08:49:00Z</time>
      </trkpt>
      <trkpt lat="37.8641597740" lon="-6.0794358607">
        <ele>548.09</ele>
        <time>2020-07-10T08:49:10Z</time>
      </trkpt>
      <trkpt lat="37.8641788010" lon="-6.0794722382">
        <ele>549.53</ele>
        <time>2020-07-10T08:49:19Z</time>
      </trkpt>
      <trkpt lat="37.8641819861" lon="-6.0794943664">
        <ele>549.53</ele>
        <time>2020-07-10T08:49:31Z</time>
      </trkpt>
      <trkpt lat="37.8642098140" lon="-6.0795391258">
        <ele>550.01</ele>
        <time>2020-07-10T08:49:39Z</time>
      </trkpt>
      <trkpt lat="37.8642522264" lon="-6.0795582365">
        <ele>551.45</ele>
        <time>2020-07-10T08:49:48Z</time>
      </trkpt>
      <trkpt lat="37.8642844968" lon="-6.0795102082">
        <ele>552.41</ele>
        <time>2020-07-10T08:49:57Z</time>
      </trkpt>
      <trkpt lat="37.8642767854" lon="-6.0795126390">
        <ele>551.45</ele>
        <time>2020-07-10T08:50:11Z</time>
      </trkpt>
      <trkpt lat="37.8642886039" lon="-6.0795031674">
        <ele>551.93</ele>
        <time>2020-07-10T08:50:27Z</time>
      </trkpt>
      <trkpt lat="37.8643202875" lon="-6.0793755949">
        <ele>553.86</ele>
        <time>2020-07-10T08:50:39Z</time>
      </trkpt>
      <trkpt lat="37.8643418290" lon="-6.0793036781">
        <ele>555.30</ele>
        <time>2020-07-10T08:50:48Z</time>
      </trkpt>
      <trkpt lat="37.8643437568" lon="-6.0792887583">
        <ele>555.30</ele>
        <time>2020-07-10T08:51:02Z</time>
      </trkpt>
      <trkpt lat="37.8643926233" lon="-6.0792165902">
        <ele>557.70</ele>
        <time>2020-07-10T08:51:13Z</time>
      </trkpt>
      <trkpt lat="37.8643937130" lon="-6.0792132374">
        <ele>557.22</ele>
        <time>2020-07-10T08:51:23Z</time>
      </trkpt>
      <trkpt lat="37.8643967304" lon="-6.0791950487">
        <ele>557.22</ele>
        <time>2020-07-10T08:51:41Z</time>
      </trkpt>
      <trkpt lat="37.8644150030" lon="-6.0791678913">
        <ele>558.18</ele>
        <time>2020-07-10T08:51:55Z</time>
      </trkpt>
      <trkpt lat="37.8644219600" lon="-6.0791495349">
        <ele>558.66</ele>
        <time>2020-07-10T08:52:04Z</time>
      </trkpt>
      <trkpt lat="37.8644155059" lon="-6.0791475233">
        <ele>559.62</ele>
        <time>2020-07-10T08:52:21Z</time>
      </trkpt>
      <trkpt lat="37.8644700721" lon="-6.0790963937">
        <ele>560.59</ele>
        <time>2020-07-10T08:52:34Z</time>
      </trkpt>
      <trkpt lat="37.8645408154" lon="-6.0790225491">
        <ele>562.03</ele>
        <time>2020-07-10T08:52:45Z</time>
      </trkpt>
      <trkpt lat="37.8645631112" lon="-6.0790021811">
        <ele>562.99</ele>
        <time>2020-07-10T08:52:48Z</time>
      </trkpt>
      <trkpt lat="37.8646100499" lon="-6.0789260734">
        <ele>563.95</ele>
        <time>2020-07-10T08:52:57Z</time>
      </trkpt>
      <trkpt lat="37.8645947948" lon="-6.0789254028">
        <ele>563.95</ele>
        <time>2020-07-10T08:53:08Z</time>
      </trkpt>
      <trkpt lat="37.8645932022" lon="-6.0789259057">
        <ele>564.43</ele>
        <time>2020-07-10T08:53:25Z</time>
      </trkpt>
      <trkpt lat="37.8645838145" lon="-6.0789322760">
        <ele>564.91</ele>
        <time>2020-07-10T08:53:49Z</time>
      </trkpt>
      <trkpt lat="37.8645902686" lon="-6.0789399873">
        <ele>566.35</ele>
        <time>2020-07-10T08:54:19Z</time>
      </trkpt>
      <trkpt lat="37.8645991534" lon="-6.0789239779">
        <ele>564.43</ele>
        <time>2020-07-10T08:54:45Z</time>
      </trkpt>
      <trkpt lat="37.8645895142" lon="-6.0789184459">
        <ele>564.43</ele>
        <time>2020-07-10T08:55:16Z</time>
      </trkpt>
      <trkpt lat="37.8645896818" lon="-6.0789281689">
        <ele>562.51</ele>
        <time>2020-07-10T08:55:43Z</time>
      </trkpt>
      <trkpt lat="37.8645988181" lon="-6.0789175238">
        <ele>563.95</ele>
        <time>2020-07-10T08:56:07Z</time>
      </trkpt>
      <trkpt lat="37.8645922802" lon="-6.0789184459">
        <ele>563.47</ele>
        <time>2020-07-10T08:56:38Z</time>
      </trkpt>
      <trkpt lat="37.8645864129" lon="-6.0789096449">
        <ele>563.47</ele>
        <time>2020-07-10T08:57:04Z</time>
      </trkpt>
      <trkpt lat="37.8645860776" lon="-6.0789262410">
        <ele>562.51</ele>
        <time>2020-07-10T08:57:33Z</time>
      </trkpt>
      <trkpt lat="37.8645978961" lon="-6.0789337009">
        <ele>563.95</ele>
        <time>2020-07-10T08:57:58Z</time>
      </trkpt>
      <trkpt lat="37.8645960521" lon="-6.0789227206">
        <ele>562.51</ele>
        <time>2020-07-10T08:58:27Z</time>
      </trkpt>
      <trkpt lat="37.8645926993" lon="-6.0789316893">
        <ele>562.99</ele>
        <time>2020-07-10T08:58:49Z</time>
      </trkpt>
      <trkpt lat="37.8645834792" lon="-6.0789275821">
        <ele>561.55</ele>
        <time>2020-07-10T08:59:22Z</time>
      </trkpt>
      <trkpt lat="37.8645903524" lon="-6.0789277498">
        <ele>562.03</ele>
        <time>2020-07-10T08:59:45Z</time>
      </trkpt>
      <trkpt lat="37.8645941243" lon="-6.0789247323">
        <ele>560.59</ele>
        <time>2020-07-10T09:00:10Z</time>
      </trkpt>
      <trkpt lat="37.8645996563" lon="-6.0789259896">
        <ele>560.11</ele>
        <time>2020-07-10T09:00:38Z</time>
      </trkpt>
      <trkpt lat="37.8646009136" lon="-6.0789337847">
        <ele>561.55</ele>
        <time>2020-07-10T09:01:03Z</time>
      </trkpt>
      <trkpt lat="37.8645895980" lon="-6.0789451003">
        <ele>562.03</ele>
        <time>2020-07-10T09:01:26Z</time>
      </trkpt>
      <trkpt lat="37.8645888437" lon="-6.0789293423">
        <ele>562.51</ele>
        <time>2020-07-10T09:01:43Z</time>
      </trkpt>
      <trkpt lat="37.8645880893" lon="-6.0789272469">
        <ele>562.03</ele>
        <time>2020-07-10T09:02:04Z</time>
      </trkpt>
      <trkpt lat="37.8645825572" lon="-6.0789271630">
        <ele>562.03</ele>
        <time>2020-07-10T09:02:25Z</time>
      </trkpt>
      <trkpt lat="37.8645862453" lon="-6.0789264087">
        <ele>562.51</ele>
        <time>2020-07-10T09:02:44Z</time>
      </trkpt>
      <trkpt lat="37.8645852394" lon="-6.0789273307">
        <ele>562.03</ele>
        <time>2020-07-10T09:03:04Z</time>
      </trkpt>
      <trkpt lat="37.8645851556" lon="-6.0789294261">
        <ele>562.51</ele>
        <time>2020-07-10T09:03:23Z</time>
      </trkpt>
      <trkpt lat="37.8645823058" lon="-6.0789255705">
        <ele>563.95</ele>
        <time>2020-07-10T09:03:38Z</time>
      </trkpt>
      <trkpt lat="37.8645852394" lon="-6.0789212119">
        <ele>562.99</ele>
        <time>2020-07-10T09:03:49Z</time>
      </trkpt>
      <trkpt lat="37.8646149952" lon="-6.0788958985">
        <ele>563.95</ele>
        <time>2020-07-10T09:03:57Z</time>
      </trkpt>
      <trkpt lat="37.8646688908" lon="-6.0787818208">
        <ele>563.95</ele>
        <time>2020-07-10T09:04:05Z</time>
      </trkpt>
      <trkpt lat="37.8646788653" lon="-6.0787673201">
        <ele>563.95</ele>
        <time>2020-07-10T09:04:11Z</time>
      </trkpt>
      <trkpt lat="37.8646735847" lon="-6.0787781328">
        <ele>563.47</ele>
        <time>2020-07-10T09:04:25Z</time>
      </trkpt>
      <trkpt lat="37.8646791168" lon="-6.0787710920">
        <ele>564.43</ele>
        <time>2020-07-10T09:04:37Z</time>
      </trkpt>
      <trkpt lat="37.8646972217" lon="-6.0787692480">
        <ele>564.91</ele>
        <time>2020-07-10T09:04:57Z</time>
      </trkpt>
      <trkpt lat="37.8647429030" lon="-6.0787821561">
        <ele>563.95</ele>
        <time>2020-07-10T09:05:00Z</time>
      </trkpt>
      <trkpt lat="37.8648832161" lon="-6.0787816532">
        <ele>559.62</ele>
        <time>2020-07-10T09:05:07Z</time>
      </trkpt>
      <trkpt lat="37.8650346771" lon="-6.0787430126">
        <ele>556.74</ele>
        <time>2020-07-10T09:05:13Z</time>
      </trkpt>
      <trkpt lat="37.8652738128" lon="-6.0787522327">
        <ele>552.41</ele>
        <time>2020-07-10T09:05:22Z</time>
      </trkpt>
      <trkpt lat="37.8655214980" lon="-6.0788935516">
        <ele>549.05</ele>
        <time>2020-07-10T09:05:30Z</time>
      </trkpt>
      <trkpt lat="37.8657317162" lon="-6.0789802205">
        <ele>545.69</ele>
        <time>2020-07-10T09:05:36Z</time>
      </trkpt>
      <trkpt lat="37.8659582790" lon="-6.0790986568">
        <ele>541.36</ele>
        <time>2020-07-10T09:05:43Z</time>
      </trkpt>
      <trkpt lat="37.8660872765" lon="-6.0792826395">
        <ele>539.44</ele>
        <time>2020-07-10T09:05:49Z</time>
      </trkpt>
      <trkpt lat="37.8661714308" lon="-6.0793740023">
        <ele>537.99</ele>
        <time>2020-07-10T09:05:52Z</time>
      </trkpt>
      <trkpt lat="37.8662512265" lon="-6.0794476792">
        <ele>536.07</ele>
        <time>2020-07-10T09:05:54Z</time>
      </trkpt>
      <trkpt lat="37.8662858438" lon="-6.0794919357">
        <ele>535.59</ele>
        <time>2020-07-10T09:05:55Z</time>
      </trkpt>
      <trkpt lat="37.8663152643" lon="-6.0795387067">
        <ele>534.63</ele>
        <time>2020-07-10T09:05:56Z</time>
      </trkpt>
      <trkpt lat="37.8663444333" lon="-6.0795899201">
        <ele>534.15</ele>
        <time>2020-07-10T09:05:57Z</time>
      </trkpt>
      <trkpt lat="37.8663697466" lon="-6.0796355177">
        <ele>533.19</ele>
        <time>2020-07-10T09:05:58Z</time>
      </trkpt>
      <trkpt lat="37.8665630333" lon="-6.0799790919">
        <ele>528.38</ele>
        <time>2020-07-10T09:06:07Z</time>
      </trkpt>
      <trkpt lat="37.8666355368" lon="-6.0800378490">
        <ele>527.90</ele>
        <time>2020-07-10T09:06:10Z</time>
      </trkpt>
      <trkpt lat="37.8666595928" lon="-6.0800360050">
        <ele>527.90</ele>
        <time>2020-07-10T09:06:11Z</time>
      </trkpt>
      <trkpt lat="37.8666824754" lon="-6.0800283775">
        <ele>528.38</ele>
        <time>2020-07-10T09:06:12Z</time>
      </trkpt>
      <trkpt lat="37.8667009156" lon="-6.0800194088">
        <ele>528.38</ele>
        <time>2020-07-10T09:06:13Z</time>
      </trkpt>
      <trkpt lat="37.8667175118" lon="-6.0800033994">
        <ele>528.38</ele>
        <time>2020-07-10T09:06:14Z</time>
      </trkpt>
      <trkpt lat="37.8667320125" lon="-6.0799878091">
        <ele>528.38</ele>
        <time>2020-07-10T09:06:15Z</time>
      </trkpt>
      <trkpt lat="37.8668963816" lon="-6.0798125435">
        <ele>529.82</ele>
        <time>2020-07-10T09:06:24Z</time>
      </trkpt>
      <trkpt lat="37.8671340086" lon="-6.0795880761">
        <ele>530.79</ele>
        <time>2020-07-10T09:06:35Z</time>
      </trkpt>
      <trkpt lat="37.8671792708" lon="-6.0795506928">
        <ele>531.27</ele>
        <time>2020-07-10T09:06:42Z</time>
      </trkpt>
      <trkpt lat="37.8671786841" lon="-6.0795503575">
        <ele>530.30</ele>
        <time>2020-07-10T09:06:55Z</time>
      </trkpt>
      <trkpt lat="37.8671666142" lon="-6.0795485135">
        <ele>529.82</ele>
        <time>2020-07-10T09:07:11Z</time>
      </trkpt>
      <trkpt lat="37.8671879042" lon="-6.0795691330">
        <ele>530.30</ele>
        <time>2020-07-10T09:07:18Z</time>
      </trkpt>
      <trkpt lat="37.8672136366" lon="-6.0796224419">
        <ele>530.79</ele>
        <time>2020-07-10T09:07:26Z</time>
      </trkpt>
      <trkpt lat="37.8672721423" lon="-6.0796708055">
        <ele>532.23</ele>
        <time>2020-07-10T09:07:36Z</time>
      </trkpt>
      <trkpt lat="37.8672664426" lon="-6.0796713922">
        <ele>531.27</ele>
        <time>2020-07-10T09:07:46Z</time>
      </trkpt>
      <trkpt lat="37.8672702983" lon="-6.0796631780">
        <ele>531.27</ele>
        <time>2020-07-10T09:07:56Z</time>
      </trkpt>
      <trkpt lat="37.8672862239" lon="-6.0796668660">
        <ele>531.27</ele>
        <time>2020-07-10T09:07:57Z</time>
      </trkpt>
      <trkpt lat="37.8673050832" lon="-6.0796706378">
        <ele>530.79</ele>
        <time>2020-07-10T09:07:58Z</time>
      </trkpt>
      <trkpt lat="37.8674888983" lon="-6.0796848033">
        <ele>526.46</ele>
        <time>2020-07-10T09:08:04Z</time>
      </trkpt>
      <trkpt lat="37.8677432053" lon="-6.0797174089">
        <ele>519.73</ele>
        <time>2020-07-10T09:08:14Z</time>
      </trkpt>
      <trkpt lat="37.8679363243" lon="-6.0797506012">
        <ele>514.92</ele>
        <time>2020-07-10T09:08:22Z</time>
      </trkpt>
      <trkpt lat="37.8680874500" lon="-6.0797673650">
        <ele>511.56</ele>
        <time>2020-07-10T09:08:30Z</time>
      </trkpt>
      <trkpt lat="37.8682404198" lon="-6.0797775909">
        <ele>507.71</ele>
        <time>2020-07-10T09:08:38Z</time>
      </trkpt>
      <trkpt lat="37.8684359696" lon="-6.0798583087">
        <ele>502.91</ele>
        <time>2020-07-10T09:08:45Z</time>
      </trkpt>
      <trkpt lat="37.8685672302" lon="-6.0799253639">
        <ele>500.50</ele>
        <time>2020-07-10T09:08:51Z</time>
      </trkpt>
      <trkpt lat="37.8687770292" lon="-6.0800306406">
        <ele>497.14</ele>
        <time>2020-07-10T09:08:59Z</time>
      </trkpt>
      <trkpt lat="37.8690491058" lon="-6.0801608954">
        <ele>491.85</ele>
        <time>2020-07-10T09:09:09Z</time>
      </trkpt>
      <trkpt lat="37.8693513572" lon="-6.0803192295">
        <ele>486.08</ele>
        <time>2020-07-10T09:09:20Z</time>
      </trkpt>
      <trkpt lat="37.8693876509" lon="-6.0803390108">
        <ele>485.12</ele>
        <time>2020-07-10T09:09:25Z</time>
      </trkpt>
      <trkpt lat="37.8694141377" lon="-6.0803553555">
        <ele>484.64</ele>
        <time>2020-07-10T09:09:36Z</time>
      </trkpt>
      <trkpt lat="37.8695486672" lon="-6.0804495681">
        <ele>482.72</ele>
        <time>2020-07-10T09:09:44Z</time>
      </trkpt>
      <trkpt lat="37.8696950991" lon="-6.0805571917">
        <ele>480.32</ele>
        <time>2020-07-10T09:09:53Z</time>
      </trkpt>
      <trkpt lat="37.8697543591" lon="-6.0805982631">
        <ele>478.87</ele>
        <time>2020-07-10T09:09:59Z</time>
      </trkpt>
      <trkpt lat="37.8697717935" lon="-6.0805854388">
        <ele>479.35</ele>
        <time>2020-07-10T09:10:11Z</time>
      </trkpt>
      <trkpt lat="37.8697871324" lon="-6.0805746261">
        <ele>479.35</ele>
        <time>2020-07-10T09:10:12Z</time>
      </trkpt>
      <trkpt lat="37.8698018845" lon="-6.0805576947">
        <ele>478.87</ele>
        <time>2020-07-10T09:10:13Z</time>
      </trkpt>
      <trkpt lat="37.8699004557" lon="-6.0804285295">
        <ele>476.95</ele>
        <time>2020-07-10T09:10:18Z</time>
      </trkpt>
      <trkpt lat="37.8701063152" lon="-6.0803396814">
        <ele>472.63</ele>
        <time>2020-07-10T09:10:24Z</time>
      </trkpt>
      <trkpt lat="37.8703626338" lon="-6.0802894738">
        <ele>469.74</ele>
        <time>2020-07-10T09:10:30Z</time>
      </trkpt>
      <trkpt lat="37.8706585988" lon="-6.0802420322">
        <ele>467.82</ele>
        <time>2020-07-10T09:10:38Z</time>
      </trkpt>
      <trkpt lat="37.8709167615" lon="-6.0802652501">
        <ele>465.42</ele>
        <time>2020-07-10T09:10:45Z</time>
      </trkpt>
      <trkpt lat="37.8711657878" lon="-6.0803054832">
        <ele>461.09</ele>
        <time>2020-07-10T09:10:52Z</time>
      </trkpt>
      <trkpt lat="37.8711924423" lon="-6.0803138651">
        <ele>460.61</ele>
        <time>2020-07-10T09:10:54Z</time>
      </trkpt>
      <trkpt lat="37.8711951245" lon="-6.0803302098">
        <ele>460.13</ele>
        <time>2020-07-10T09:10:55Z</time>
      </trkpt>
      <trkpt lat="37.8711979743" lon="-6.0803562775">
        <ele>460.13</ele>
        <time>2020-07-10T09:11:01Z</time>
      </trkpt>
      <trkpt lat="37.8712032549" lon="-6.0803680122">
        <ele>460.61</ele>
        <time>2020-07-10T09:11:06Z</time>
      </trkpt>
      <trkpt lat="37.8712168336" lon="-6.0803762265">
        <ele>460.61</ele>
        <time>2020-07-10T09:11:07Z</time>
      </trkpt>
      <trkpt lat="37.8712382913" lon="-6.0803769808">
        <ele>460.61</ele>
        <time>2020-07-10T09:11:08Z</time>
      </trkpt>
      <trkpt lat="37.8712662868" lon="-6.0803707782">
        <ele>461.57</ele>
        <time>2020-07-10T09:11:09Z</time>
      </trkpt>
      <trkpt lat="37.8712998983" lon="-6.0803565290">
        <ele>462.53</ele>
        <time>2020-07-10T09:11:10Z</time>
      </trkpt>
      <trkpt lat="37.8713426460" lon="-6.0803350713">
        <ele>462.53</ele>
        <time>2020-07-10T09:11:11Z</time>
      </trkpt>
      <trkpt lat="37.8713877406" lon="-6.0803163797">
        <ele>463.01</ele>
        <time>2020-07-10T09:11:12Z</time>
      </trkpt>
      <trkpt lat="37.8716496751" lon="-6.0802449659">
        <ele>461.09</ele>
        <time>2020-07-10T09:11:17Z</time>
      </trkpt>
      <trkpt lat="37.8717625793" lon="-6.0802282020">
        <ele>459.65</ele>
        <time>2020-07-10T09:11:22Z</time>
      </trkpt>
      <trkpt lat="37.8717702907" lon="-6.0802458040">
        <ele>459.17</ele>
        <time>2020-07-10T09:11:28Z</time>
      </trkpt>
      <trkpt lat="37.8717681952" lon="-6.0802671779">
        <ele>460.13</ele>
        <time>2020-07-10T09:11:40Z</time>
      </trkpt>
      <trkpt lat="37.8717647586" lon="-6.0802825168">
        <ele>462.53</ele>
        <time>2020-07-10T09:11:55Z</time>
      </trkpt>
      <trkpt lat="37.8717591427" lon="-6.0802894738">
        <ele>463.01</ele>
        <time>2020-07-10T09:12:14Z</time>
      </trkpt>
      <trkpt lat="37.8717602324" lon="-6.0803044774">
        <ele>463.97</ele>
        <time>2020-07-10T09:12:30Z</time>
      </trkpt>
      <trkpt lat="37.8717646748" lon="-6.0802831873">
        <ele>464.93</ele>
        <time>2020-07-10T09:12:45Z</time>
      </trkpt>
      <trkpt lat="37.8717548680" lon="-6.0802261904">
        <ele>463.97</ele>
        <time>2020-07-10T09:12:53Z</time>
      </trkpt>
      <trkpt lat="37.8717521857" lon="-6.0801997036">
        <ele>462.53</ele>
        <time>2020-07-10T09:13:10Z</time>
      </trkpt>
      <trkpt lat="37.8717538621" lon="-6.0801878851">
        <ele>462.05</ele>
        <time>2020-07-10T09:13:20Z</time>
      </trkpt>
      <trkpt lat="37.8717606515" lon="-6.0801533516">
        <ele>461.09</ele>
        <time>2020-07-10T09:13:28Z</time>
      </trkpt>
      <trkpt lat="37.8717687819" lon="-6.0801355820">
        <ele>461.09</ele>
        <time>2020-07-10T09:13:29Z</time>
      </trkpt>
      <trkpt lat="37.8717826121" lon="-6.0801220872">
        <ele>461.09</ele>
        <time>2020-07-10T09:13:30Z</time>
      </trkpt>
      <trkpt lat="37.8717994597" lon="-6.0801214166">
        <ele>460.61</ele>
        <time>2020-07-10T09:13:31Z</time>
      </trkpt>
      <trkpt lat="37.8718223423" lon="-6.0801207460">
        <ele>460.61</ele>
        <time>2020-07-10T09:13:32Z</time>
      </trkpt>
      <trkpt lat="37.8718495835" lon="-6.0801187344">
        <ele>460.61</ele>
        <time>2020-07-10T09:13:33Z</time>
      </trkpt>
      <trkpt lat="37.8720235080" lon="-6.0800950136">
        <ele>461.57</ele>
        <time>2020-07-10T09:13:41Z</time>
      </trkpt>
      <trkpt lat="37.8722355701" lon="-6.0800836142">
        <ele>464.45</ele>
        <time>2020-07-10T09:13:50Z</time>
      </trkpt>
      <trkpt lat="37.8724329639" lon="-6.0800681077">
        <ele>466.86</ele>
        <time>2020-07-10T09:13:58Z</time>
      </trkpt>
      <trkpt lat="37.8726224788" lon="-6.0800521821">
        <ele>471.18</ele>
        <time>2020-07-10T09:14:08Z</time>
      </trkpt>
      <trkpt lat="37.8726845887" lon="-6.0800641682">
        <ele>471.66</ele>
        <time>2020-07-10T09:14:12Z</time>
      </trkpt>
      <trkpt lat="37.8727012686" lon="-6.0800599772">
        <ele>471.66</ele>
        <time>2020-07-10T09:14:13Z</time>
      </trkpt>
      <trkpt lat="37.8727200441" lon="-6.0800573789">
        <ele>472.14</ele>
        <time>2020-07-10T09:14:14Z</time>
      </trkpt>
      <trkpt lat="37.8727384843" lon="-6.0800482426">
        <ele>472.63</ele>
        <time>2020-07-10T09:14:15Z</time>
      </trkpt>
      <trkpt lat="37.8727562539" lon="-6.0800377652">
        <ele>472.63</ele>
        <time>2020-07-10T09:14:16Z</time>
      </trkpt>
      <trkpt lat="37.8727715090" lon="-6.0800282937">
        <ele>472.14</ele>
        <time>2020-07-10T09:14:17Z</time>
      </trkpt>
      <trkpt lat="37.8727863450" lon="-6.0800174810">
        <ele>472.14</ele>
        <time>2020-07-10T09:14:18Z</time>
      </trkpt>
      <trkpt lat="37.8728400730" lon="-6.0799691174">
        <ele>470.70</ele>
        <time>2020-07-10T09:14:22Z</time>
      </trkpt>
      <trkpt lat="37.8728517238" lon="-6.0799536947">
        <ele>470.22</ele>
        <time>2020-07-10T09:14:23Z</time>
      </trkpt>
      <trkpt lat="37.8728658892" lon="-6.0799366795">
        <ele>469.26</ele>
        <time>2020-07-10T09:14:24Z</time>
      </trkpt>
      <trkpt lat="37.8728786297" lon="-6.0799182393">
        <ele>468.78</ele>
        <time>2020-07-10T09:14:25Z</time>
      </trkpt>
      <trkpt lat="37.8728898615" lon="-6.0799018107">
        <ele>468.78</ele>
        <time>2020-07-10T09:14:26Z</time>
      </trkpt>
      <trkpt lat="37.8729979880" lon="-6.0797363520">
        <ele>467.82</ele>
        <time>2020-07-10T09:14:35Z</time>
      </trkpt>
      <trkpt lat="37.8730947990" lon="-6.0795127228">
        <ele>465.90</ele>
        <time>2020-07-10T09:14:44Z</time>
      </trkpt>
      <trkpt lat="37.8732044343" lon="-6.0793178435">
        <ele>464.45</ele>
        <time>2020-07-10T09:14:51Z</time>
      </trkpt>
      <trkpt lat="37.8733637743" lon="-6.0792775266">
        <ele>464.93</ele>
        <time>2020-07-10T09:14:58Z</time>
      </trkpt>
      <trkpt lat="37.8735855594" lon="-6.0792142432">
        <ele>464.93</ele>
        <time>2020-07-10T09:15:07Z</time>
      </trkpt>
      <trkpt lat="37.8736366052" lon="-6.0791969765">
        <ele>465.42</ele>
        <time>2020-07-10T09:15:09Z</time>
      </trkpt>
      <trkpt lat="37.8737275489" lon="-6.0793225374">
        <ele>466.38</ele>
        <time>2020-07-10T09:15:15Z</time>
      </trkpt>
      <trkpt lat="37.8737518564" lon="-6.0794016626">
        <ele>466.86</ele>
        <time>2020-07-10T09:15:18Z</time>
      </trkpt>
      <trkpt lat="37.8738025669" lon="-6.0796120483">
        <ele>467.34</ele>
        <time>2020-07-10T09:15:27Z</time>
      </trkpt>
      <trkpt lat="37.8738169838" lon="-6.0796493478">
        <ele>469.26</ele>
        <time>2020-07-10T09:15:41Z</time>
      </trkpt>
      <trkpt lat="37.8738010582" lon="-6.0797772557">
        <ele>470.22</ele>
        <time>2020-07-10T09:15:49Z</time>
      </trkpt>
      <trkpt lat="37.8737667762" lon="-6.0798360966">
        <ele>470.70</ele>
        <time>2020-07-10T09:15:55Z</time>
      </trkpt>
      <trkpt lat="37.8737157304" lon="-6.0798536986">
        <ele>469.74</ele>
        <time>2020-07-10T09:15:59Z</time>
      </trkpt>
      <trkpt lat="37.8737178259" lon="-6.0799903236">
        <ele>468.78</ele>
        <time>2020-07-10T09:16:07Z</time>
      </trkpt>
      <trkpt lat="37.8737810254" lon="-6.0801971052">
        <ele>467.34</ele>
        <time>2020-07-10T09:16:16Z</time>
      </trkpt>
      <trkpt lat="37.8738389444" lon="-6.0804614704">
        <ele>466.38</ele>
        <time>2020-07-10T09:16:27Z</time>
      </trkpt>
      <trkpt lat="37.8738663532" lon="-6.0805500671">
        <ele>466.86</ele>
        <time>2020-07-10T09:16:31Z</time>
      </trkpt>
      <trkpt lat="37.8739083465" lon="-6.0805833433">
        <ele>467.34</ele>
        <time>2020-07-10T09:16:37Z</time>
      </trkpt>
      <trkpt lat="37.8739084303" lon="-6.0805593710">
        <ele>466.86</ele>
        <time>2020-07-10T09:16:45Z</time>
      </trkpt>
      <trkpt lat="37.8739117831" lon="-6.0805550124">
        <ele>465.42</ele>
        <time>2020-07-10T09:16:54Z</time>
      </trkpt>
      <trkpt lat="37.8739042394" lon="-6.0805369075">
        <ele>463.97</ele>
        <time>2020-07-10T09:17:07Z</time>
      </trkpt>
      <trkpt lat="37.8738954384" lon="-6.0804650746">
        <ele>463.49</ele>
        <time>2020-07-10T09:17:15Z</time>
      </trkpt>
      <trkpt lat="37.8738946002" lon="-6.0804748815">
        <ele>462.53</ele>
        <time>2020-07-10T09:17:23Z</time>
      </trkpt>
      <trkpt lat="37.8738909122" lon="-6.0804975126">
        <ele>463.97</ele>
        <time>2020-07-10T09:17:42Z</time>
      </trkpt>
      <trkpt lat="37.8738959413" lon="-6.0804989375">
        <ele>464.45</ele>
        <time>2020-07-10T09:18:06Z</time>
      </trkpt>
      <trkpt lat="37.8738904931" lon="-6.0805005301">
        <ele>465.90</ele>
        <time>2020-07-10T09:18:32Z</time>
      </trkpt>
      <trkpt lat="37.8738732263" lon="-6.0804999433">
        <ele>468.30</ele>
        <time>2020-07-10T09:19:03Z</time>
      </trkpt>
      <trkpt lat="37.8738723882" lon="-6.0804954171">
        <ele>468.30</ele>
        <time>2020-07-10T09:19:21Z</time>
      </trkpt>
      <trkpt lat="37.8738769144" lon="-6.0805051401">
        <ele>469.74</ele>
        <time>2020-07-10T09:19:53Z</time>
      </trkpt>
      <trkpt lat="37.8738774173" lon="-6.0805110075">
        <ele>469.26</ele>
        <time>2020-07-10T09:20:21Z</time>
      </trkpt>
      <trkpt lat="37.8738862183" lon="-6.0804898012">
        <ele>468.30</ele>
        <time>2020-07-10T09:20:56Z</time>
      </trkpt>
      <trkpt lat="37.8738906607" lon="-6.0804906394">
        <ele>467.82</ele>
        <time>2020-07-10T09:21:24Z</time>
      </trkpt>
      <trkpt lat="37.8739053290" lon="-6.0805023741">
        <ele>466.86</ele>
        <time>2020-07-10T09:21:49Z</time>
      </trkpt>
      <trkpt lat="37.8738995455" lon="-6.0805048887">
        <ele>466.38</ele>
        <time>2020-07-10T09:22:14Z</time>
      </trkpt>
      <trkpt lat="37.8738959413" lon="-6.0805193055">
        <ele>466.86</ele>
        <time>2020-07-10T09:22:45Z</time>
      </trkpt>
      <trkpt lat="37.8738890681" lon="-6.0805121809">
        <ele>466.38</ele>
        <time>2020-07-10T09:23:16Z</time>
      </trkpt>
      <trkpt lat="37.8738891520" lon="-6.0804985184">
        <ele>466.86</ele>
        <time>2020-07-10T09:23:44Z</time>
      </trkpt>
      <trkpt lat="37.8738883138" lon="-6.0804992728">
        <ele>466.86</ele>
        <time>2020-07-10T09:24:00Z</time>
      </trkpt>
      <trkpt lat="37.8739056643" lon="-6.0805225745">
        <ele>466.38</ele>
        <time>2020-07-10T09:24:04Z</time>
      </trkpt>
      <trkpt lat="37.8739384376" lon="-6.0806853510">
        <ele>465.42</ele>
        <time>2020-07-10T09:24:16Z</time>
      </trkpt>
      <trkpt lat="37.8739595599" lon="-6.0808194615">
        <ele>465.90</ele>
        <time>2020-07-10T09:24:25Z</time>
      </trkpt>
      <trkpt lat="37.8739735577" lon="-6.0809539910">
        <ele>466.86</ele>
        <time>2020-07-10T09:24:37Z</time>
      </trkpt>
      <trkpt lat="37.8739745636" lon="-6.0809458606">
        <ele>468.30</ele>
        <time>2020-07-10T09:24:49Z</time>
      </trkpt>
      <trkpt lat="37.8739680257" lon="-6.0809316952">
        <ele>465.90</ele>
        <time>2020-07-10T09:25:02Z</time>
      </trkpt>
      <trkpt lat="37.8739650082" lon="-6.0809338745">
        <ele>466.38</ele>
        <time>2020-07-10T09:25:13Z</time>
      </trkpt>
      <trkpt lat="37.8739689477" lon="-6.0809463635">
        <ele>466.38</ele>
        <time>2020-07-10T09:25:26Z</time>
      </trkpt>
      <trkpt lat="37.8739604820" lon="-6.0809463635">
        <ele>465.90</ele>
        <time>2020-07-10T09:25:37Z</time>
      </trkpt>
      <trkpt lat="37.8739631642" lon="-6.0809534881">
        <ele>467.82</ele>
        <time>2020-07-10T09:25:47Z</time>
      </trkpt>
      <trkpt lat="37.8739790898" lon="-6.0809685756">
        <ele>467.82</ele>
        <time>2020-07-10T09:25:57Z</time>
      </trkpt>
      <trkpt lat="37.8739790060" lon="-6.0809760354">
        <ele>467.82</ele>
        <time>2020-07-10T09:26:08Z</time>
      </trkpt>
      <trkpt lat="37.8739784192" lon="-6.0809841659">
        <ele>466.38</ele>
        <time>2020-07-10T09:26:19Z</time>
      </trkpt>
      <trkpt lat="37.8739731386" lon="-6.0809819028">
        <ele>466.86</ele>
        <time>2020-07-10T09:26:30Z</time>
      </trkpt>
      <trkpt lat="37.8739583027" lon="-6.0809723474">
        <ele>467.82</ele>
        <time>2020-07-10T09:26:41Z</time>
      </trkpt>
      <trkpt lat="37.8739451431" lon="-6.0809571762">
        <ele>469.74</ele>
        <time>2020-07-10T09:26:54Z</time>
      </trkpt>
      <trkpt lat="37.8739388566" lon="-6.0809591040">
        <ele>471.18</ele>
        <time>2020-07-10T09:27:05Z</time>
      </trkpt>
      <trkpt lat="37.8739286307" lon="-6.0809624568">
        <ele>471.18</ele>
        <time>2020-07-10T09:27:16Z</time>
      </trkpt>
      <trkpt lat="37.8739256132" lon="-6.0809586849">
        <ele>469.74</ele>
        <time>2020-07-10T09:27:28Z</time>
      </trkpt>
      <trkpt lat="37.8739253618" lon="-6.0809659772">
        <ele>469.26</ele>
        <time>2020-07-10T09:27:39Z</time>
      </trkpt>
      <trkpt lat="37.8739296366" lon="-6.0809671506">
        <ele>469.26</ele>
        <time>2020-07-10T09:27:52Z</time>
      </trkpt>
      <trkpt lat="37.8739405330" lon="-6.0809694137">
        <ele>468.78</ele>
        <time>2020-07-10T09:28:07Z</time>
      </trkpt>
      <trkpt lat="37.8739476576" lon="-6.0809570085">
        <ele>468.78</ele>
        <time>2020-07-10T09:28:18Z</time>
      </trkpt>
      <trkpt lat="37.8739542793" lon="-6.0809510574">
        <ele>468.78</ele>
        <time>2020-07-10T09:28:28Z</time>
      </trkpt>
      <trkpt lat="37.8739583865" lon="-6.0809487943">
        <ele>469.26</ele>
        <time>2020-07-10T09:28:42Z</time>
      </trkpt>
      <trkpt lat="37.8739733063" lon="-6.0809529014">
        <ele>469.26</ele>
        <time>2020-07-10T09:28:58Z</time>
      </trkpt>
      <trkpt lat="37.8739824425" lon="-6.0809606966">
        <ele>468.78</ele>
        <time>2020-07-10T09:29:09Z</time>
      </trkpt>
      <trkpt lat="37.8739789221" lon="-6.0809581820">
        <ele>468.78</ele>
        <time>2020-07-10T09:29:16Z</time>
      </trkpt>
      <trkpt lat="37.8739553690" lon="-6.0809601936">
        <ele>469.26</ele>
        <time>2020-07-10T09:29:21Z</time>
      </trkpt>
      <trkpt lat="37.8739174828" lon="-6.0808288492">
        <ele>468.30</ele>
        <time>2020-07-10T09:29:27Z</time>
      </trkpt>
      <trkpt lat="37.8738517687" lon="-6.0805640649">
        <ele>467.82</ele>
        <time>2020-07-10T09:29:35Z</time>
      </trkpt>
      <trkpt lat="37.8737956937" lon="-6.0803435370">
        <ele>466.86</ele>
        <time>2020-07-10T09:29:42Z</time>
      </trkpt>
      <trkpt lat="37.8736975417" lon="-6.0800278746">
        <ele>466.86</ele>
        <time>2020-07-10T09:29:50Z</time>
      </trkpt>
      <trkpt lat="37.8735645209" lon="-6.0797148105">
        <ele>465.90</ele>
        <time>2020-07-10T09:29:58Z</time>
      </trkpt>
      <trkpt lat="37.8734554723" lon="-6.0793999862">
        <ele>465.42</ele>
        <time>2020-07-10T09:30:06Z</time>
      </trkpt>
      <trkpt lat="37.8732880857" lon="-6.0793127306">
        <ele>465.42</ele>
        <time>2020-07-10T09:30:12Z</time>
      </trkpt>
      <trkpt lat="37.8732385486" lon="-6.0793101322">
        <ele>465.42</ele>
        <time>2020-07-10T09:30:14Z</time>
      </trkpt>
      <trkpt lat="37.8732038476" lon="-6.0792833939">
        <ele>464.93</ele>
        <time>2020-07-10T09:30:16Z</time>
      </trkpt>
      <trkpt lat="37.8731933702" lon="-6.0792541411">
        <ele>464.93</ele>
        <time>2020-07-10T09:30:17Z</time>
      </trkpt>
      <trkpt lat="37.8731948789" lon="-6.0792286601">
        <ele>464.93</ele>
        <time>2020-07-10T09:30:18Z</time>
      </trkpt>
      <trkpt lat="37.8732040990" lon="-6.0791935399">
        <ele>464.45</ele>
        <time>2020-07-10T09:30:19Z</time>
      </trkpt>
      <trkpt lat="37.8732148279" lon="-6.0791577492">
        <ele>463.97</ele>
        <time>2020-07-10T09:30:20Z</time>
      </trkpt>
      <trkpt lat="37.8732638620" lon="-6.0789709166">
        <ele>461.57</ele>
        <time>2020-07-10T09:30:24Z</time>
      </trkpt>
      <trkpt lat="37.8732814640" lon="-6.0789158475">
        <ele>461.09</ele>
        <time>2020-07-10T09:30:25Z</time>
      </trkpt>
      <trkpt lat="37.8733163327" lon="-6.0787964053">
        <ele>459.65</ele>
        <time>2020-07-10T09:30:27Z</time>
      </trkpt>
      <trkpt lat="37.8733268101" lon="-6.0787354689">
        <ele>459.65</ele>
        <time>2020-07-10T09:30:28Z</time>
      </trkpt>
      <trkpt lat="37.8733335994" lon="-6.0786752030">
        <ele>459.17</ele>
        <time>2020-07-10T09:30:29Z</time>
      </trkpt>
      <trkpt lat="37.8733366169" lon="-6.0786146857">
        <ele>459.17</ele>
        <time>2020-07-10T09:30:30Z</time>
      </trkpt>
      <trkpt lat="37.8733374551" lon="-6.0785611253">
        <ele>459.17</ele>
        <time>2020-07-10T09:30:31Z</time>
      </trkpt>
      <trkpt lat="37.8733198531" lon="-6.0782685969">
        <ele>461.09</ele>
        <time>2020-07-10T09:30:38Z</time>
      </trkpt>
      <trkpt lat="37.8733508661" lon="-6.0779536888">
        <ele>462.53</ele>
        <time>2020-07-10T09:30:47Z</time>
      </trkpt>
      <trkpt lat="37.8734639380" lon="-6.0775875673">
        <ele>463.49</ele>
        <time>2020-07-10T09:30:58Z</time>
      </trkpt>
      <trkpt lat="37.8735643532" lon="-6.0773276445">
        <ele>461.09</ele>
        <time>2020-07-10T09:31:06Z</time>
      </trkpt>
      <trkpt lat="37.8736671153" lon="-6.0770124849">
        <ele>460.61</ele>
        <time>2020-07-10T09:31:15Z</time>
      </trkpt>
      <trkpt lat="37.8737809416" lon="-6.0766970739">
        <ele>459.17</ele>
        <time>2020-07-10T09:31:24Z</time>
      </trkpt>
      <trkpt lat="37.8738780878" lon="-6.0764019471">
        <ele>458.69</ele>
        <time>2020-07-10T09:31:32Z</time>
      </trkpt>
      <trkpt lat="37.8739866335" lon="-6.0760420281">
        <ele>456.76</ele>
        <time>2020-07-10T09:31:41Z</time>
      </trkpt>
      <trkpt lat="37.8741173074" lon="-6.0755383596">
        <ele>455.32</ele>
        <time>2020-07-10T09:31:50Z</time>
      </trkpt>
      <trkpt lat="37.8742010426" lon="-6.0750385467">
        <ele>455.32</ele>
        <time>2020-07-10T09:31:59Z</time>
      </trkpt>
      <trkpt lat="37.8743929882" lon="-6.0745589342">
        <ele>453.40</ele>
        <time>2020-07-10T09:32:07Z</time>
      </trkpt>
      <trkpt lat="37.8746844269" lon="-6.0739449598">
        <ele>450.52</ele>
        <time>2020-07-10T09:32:16Z</time>
      </trkpt>
      <trkpt lat="37.8749246523" lon="-6.0735904053">
        <ele>448.59</ele>
        <time>2020-07-10T09:32:22Z</time>
      </trkpt>
      <trkpt lat="37.8752227128" lon="-6.0732318275">
        <ele>445.71</ele>
        <time>2020-07-10T09:32:28Z</time>
      </trkpt>
      <trkpt lat="37.8756433167" lon="-6.0727289971">
        <ele>440.90</ele>
        <time>2020-07-10T09:32:36Z</time>
      </trkpt>
      <trkpt lat="37.8759391140" lon="-6.0724044498">
        <ele>438.50</ele>
        <time>2020-07-10T09:32:43Z</time>
      </trkpt>
      <trkpt lat="37.8759749886" lon="-6.0723597743">
        <ele>438.50</ele>
        <time>2020-07-10T09:32:44Z</time>
      </trkpt>
      <trkpt lat="37.8760041576" lon="-6.0723144282">
        <ele>438.50</ele>
        <time>2020-07-10T09:32:45Z</time>
      </trkpt>
      <trkpt lat="37.8760292195" lon="-6.0722621251">
        <ele>438.02</ele>
        <time>2020-07-10T09:32:46Z</time>
      </trkpt>
      <trkpt lat="37.8760495875" lon="-6.0722048767">
        <ele>438.02</ele>
        <time>2020-07-10T09:32:47Z</time>
      </trkpt>
      <trkpt lat="37.8760670219" lon="-6.0721433535">
        <ele>438.02</ele>
        <time>2020-07-10T09:32:48Z</time>
      </trkpt>
      <trkpt lat="37.8762110230" lon="-6.0717149545">
        <ele>436.58</ele>
        <time>2020-07-10T09:32:55Z</time>
      </trkpt>
      <trkpt lat="37.8762443829" lon="-6.0716606397">
        <ele>436.58</ele>
        <time>2020-07-10T09:32:56Z</time>
      </trkpt>
      <trkpt lat="37.8766008653" lon="-6.0712138843">
        <ele>435.61</ele>
        <time>2020-07-10T09:33:05Z</time>
      </trkpt>
      <trkpt lat="37.8767863568" lon="-6.0709259659">
        <ele>436.10</ele>
        <time>2020-07-10T09:33:12Z</time>
      </trkpt>
      <trkpt lat="37.8768205550" lon="-6.0708211083">
        <ele>436.58</ele>
        <time>2020-07-10T09:33:17Z</time>
      </trkpt>
      <trkpt lat="37.8768299427" lon="-6.0708095413">
        <ele>436.58</ele>
        <time>2020-07-10T09:33:18Z</time>
      </trkpt>
      <trkpt lat="37.8768482991" lon="-6.0707873292">
        <ele>437.06</ele>
        <time>2020-07-10T09:33:23Z</time>
      </trkpt>
      <trkpt lat="37.8768440243" lon="-6.0708023328">
        <ele>438.02</ele>
        <time>2020-07-10T09:33:32Z</time>
      </trkpt>
      <trkpt lat="37.8768449463" lon="-6.0708038416">
        <ele>441.38</ele>
        <time>2020-07-10T09:33:56Z</time>
      </trkpt>
      <trkpt lat="37.8768418450" lon="-6.0708099604">
        <ele>442.34</ele>
        <time>2020-07-10T09:34:23Z</time>
      </trkpt>
      <trkpt lat="37.8768441081" lon="-6.0708170012">
        <ele>441.86</ele>
        <time>2020-07-10T09:34:41Z</time>
      </trkpt>
      <trkpt lat="37.8768424317" lon="-6.0708444100">
        <ele>443.31</ele>
        <time>2020-07-10T09:35:00Z</time>
      </trkpt>
      <trkpt lat="37.8768362291" lon="-6.0708341002">
        <ele>442.82</ele>
        <time>2020-07-10T09:35:18Z</time>
      </trkpt>
      <trkpt lat="37.8768309485" lon="-6.0708242096">
        <ele>443.31</ele>
        <time>2020-07-10T09:35:41Z</time>
      </trkpt>
      <trkpt lat="37.8768291883" lon="-6.0708169173">
        <ele>439.46</ele>
        <time>2020-07-10T09:36:02Z</time>
      </trkpt>
      <trkpt lat="37.8768345527" lon="-6.0708227009">
        <ele>438.02</ele>
        <time>2020-07-10T09:36:19Z</time>
      </trkpt>
      <trkpt lat="37.8768373188" lon="-6.0708194319">
        <ele>438.50</ele>
        <time>2020-07-10T09:36:37Z</time>
      </trkpt>
      <trkpt lat="37.8768333793" lon="-6.0708127264">
        <ele>438.50</ele>
        <time>2020-07-10T09:36:56Z</time>
      </trkpt>
      <trkpt lat="37.8768349718" lon="-6.0708091222">
        <ele>438.50</ele>
        <time>2020-07-10T09:37:12Z</time>
      </trkpt>
      <trkpt lat="37.8768487182" lon="-6.0708019137">
        <ele>438.98</ele>
        <time>2020-07-10T09:37:31Z</time>
      </trkpt>
      <trkpt lat="37.8768388275" lon="-6.0708061047">
        <ele>439.94</ele>
        <time>2020-07-10T09:37:54Z</time>
      </trkpt>
      <trkpt lat="37.8768424317" lon="-6.0708143190">
        <ele>440.42</ele>
        <time>2020-07-10T09:38:12Z</time>
      </trkpt>
      <trkpt lat="37.8768537473" lon="-6.0708061885">
        <ele>439.94</ele>
        <time>2020-07-10T09:38:33Z</time>
      </trkpt>
      <trkpt lat="37.8768475447" lon="-6.0708081163">
        <ele>438.98</ele>
        <time>2020-07-10T09:38:50Z</time>
      </trkpt>
      <trkpt lat="37.8768464550" lon="-6.0708154086">
        <ele>440.42</ele>
        <time>2020-07-10T09:39:08Z</time>
      </trkpt>
      <trkpt lat="37.8768472094" lon="-6.0708211921">
        <ele>441.86</ele>
        <time>2020-07-10T09:39:27Z</time>
      </trkpt>
      <trkpt lat="37.8768611234" lon="-6.0708195157">
        <ele>440.90</ele>
        <time>2020-07-10T09:39:45Z</time>
      </trkpt>
      <trkpt lat="37.8768660687" lon="-6.0708222818">
        <ele>442.82</ele>
        <time>2020-07-10T09:40:07Z</time>
      </trkpt>
      <trkpt lat="37.8768482991" lon="-6.0708239581">
        <ele>443.31</ele>
        <time>2020-07-10T09:40:31Z</time>
      </trkpt>
      <trkpt lat="37.8768467903" lon="-6.0708232038">
        <ele>440.90</ele>
        <time>2020-07-10T09:40:52Z</time>
      </trkpt>
      <trkpt lat="37.8768559266" lon="-6.0708278976">
        <ele>441.86</ele>
        <time>2020-07-10T09:41:12Z</time>
      </trkpt>
      <trkpt lat="37.8768545855" lon="-6.0708258022">
        <ele>442.34</ele>
        <time>2020-07-10T09:41:27Z</time>
      </trkpt>
      <trkpt lat="37.8768586926" lon="-6.0708194319">
        <ele>440.90</ele>
        <time>2020-07-10T09:41:46Z</time>
      </trkpt>
      <trkpt lat="37.8768579382" lon="-6.0708154924">
        <ele>441.38</ele>
        <time>2020-07-10T09:42:01Z</time>
      </trkpt>
      <trkpt lat="37.8768573515" lon="-6.0708226170">
        <ele>438.98</ele>
        <time>2020-07-10T09:42:20Z</time>
      </trkpt>
      <trkpt lat="37.8768445272" lon="-6.0708271433">
        <ele>438.50</ele>
        <time>2020-07-10T09:42:36Z</time>
      </trkpt>
      <trkpt lat="37.8768474609" lon="-6.0708258860">
        <ele>439.94</ele>
        <time>2020-07-10T09:42:53Z</time>
      </trkpt>
      <trkpt lat="37.8768454492" lon="-6.0708273109">
        <ele>438.02</ele>
        <time>2020-07-10T09:43:17Z</time>
      </trkpt>
      <trkpt lat="37.8768400010" lon="-6.0708248802">
        <ele>438.02</ele>
        <time>2020-07-10T09:43:33Z</time>
      </trkpt>
      <trkpt lat="37.8768326249" lon="-6.0708403029">
        <ele>436.58</ele>
        <time>2020-07-10T09:43:56Z</time>
      </trkpt>
      <trkpt lat="37.8768419288" lon="-6.0708237067">
        <ele>436.58</ele>
        <time>2020-07-10T09:44:10Z</time>
      </trkpt>
      <trkpt lat="37.8768455330" lon="-6.0708273947">
        <ele>437.54</ele>
        <time>2020-07-10T09:44:25Z</time>
      </trkpt>
      <trkpt lat="37.8768421803" lon="-6.0708278976">
        <ele>438.50</ele>
        <time>2020-07-10T09:44:45Z</time>
      </trkpt>
      <trkpt lat="37.8768379893" lon="-6.0708241258">
        <ele>438.98</ele>
        <time>2020-07-10T09:45:04Z</time>
      </trkpt>
      <trkpt lat="37.8768380731" lon="-6.0708156601">
        <ele>438.98</ele>
        <time>2020-07-10T09:45:16Z</time>
      </trkpt>
      <trkpt lat="37.8768482991" lon="-6.0707981419">
        <ele>438.98</ele>
        <time>2020-07-10T09:45:30Z</time>
      </trkpt>
      <trkpt lat="37.8768440243" lon="-6.0707925260">
        <ele>438.98</ele>
        <time>2020-07-10T09:45:46Z</time>
      </trkpt>
      <trkpt lat="37.8768443596" lon="-6.0707830545">
        <ele>438.98</ele>
        <time>2020-07-10T09:46:01Z</time>
      </trkpt>
      <trkpt lat="37.8768619616" lon="-6.0707807075">
        <ele>438.50</ele>
        <time>2020-07-10T09:46:10Z</time>
      </trkpt>
      <trkpt lat="37.8768763784" lon="-6.0707804561">
        <ele>439.46</ele>
        <time>2020-07-10T09:46:16Z</time>
      </trkpt>
      <trkpt lat="37.8768982552" lon="-6.0707776062">
        <ele>438.98</ele>
        <time>2020-07-10T09:46:20Z</time>
      </trkpt>
      <trkpt lat="37.8769140132" lon="-6.0707732476">
        <ele>438.98</ele>
        <time>2020-07-10T09:46:21Z</time>
      </trkpt>
      <trkpt lat="37.8769296873" lon="-6.0707636923">
        <ele>438.98</ele>
        <time>2020-07-10T09:46:22Z</time>
      </trkpt>
      <trkpt lat="37.8770764545" lon="-6.0705799609">
        <ele>439.94</ele>
        <time>2020-07-10T09:46:31Z</time>
      </trkpt>
      <trkpt lat="37.8772434220" lon="-6.0704157595">
        <ele>439.94</ele>
        <time>2020-07-10T09:46:40Z</time>
      </trkpt>
      <trkpt lat="37.8774305899" lon="-6.0702436790">
        <ele>439.94</ele>
        <time>2020-07-10T09:46:49Z</time>
      </trkpt>
      <trkpt lat="37.8776237089" lon="-6.0701166932">
        <ele>439.94</ele>
        <time>2020-07-10T09:46:58Z</time>
      </trkpt>
      <trkpt lat="37.8778791893" lon="-6.0700234026">
        <ele>440.90</ele>
        <time>2020-07-10T09:47:08Z</time>
      </trkpt>
      <trkpt lat="37.8781147208" lon="-6.0700653121">
        <ele>441.86</ele>
        <time>2020-07-10T09:47:17Z</time>
      </trkpt>
      <trkpt lat="37.8782819398" lon="-6.0701442696">
        <ele>441.86</ele>
        <time>2020-07-10T09:47:25Z</time>
      </trkpt>
      <trkpt lat="37.8785039764" lon="-6.0703264922">
        <ele>442.34</ele>
        <time>2020-07-10T09:47:35Z</time>
      </trkpt>
      <trkpt lat="37.8786515817" lon="-6.0704932082">
        <ele>441.38</ele>
        <time>2020-07-10T09:47:42Z</time>
      </trkpt>
      <trkpt lat="37.8788378276" lon="-6.0707123950">
        <ele>441.38</ele>
        <time>2020-07-10T09:47:50Z</time>
      </trkpt>
      <trkpt lat="37.8790757060" lon="-6.0709993914">
        <ele>440.90</ele>
        <time>2020-07-10T09:47:59Z</time>
      </trkpt>
      <trkpt lat="37.8793416638" lon="-6.0713131260">
        <ele>440.90</ele>
        <time>2020-07-10T09:48:09Z</time>
      </trkpt>
      <trkpt lat="37.8795740101" lon="-6.0715897288">
        <ele>442.34</ele>
        <time>2020-07-10T09:48:18Z</time>
      </trkpt>
      <trkpt lat="37.8798735794" lon="-6.0718297865">
        <ele>443.31</ele>
        <time>2020-07-10T09:48:28Z</time>
      </trkpt>
      <trkpt lat="37.8802355938" lon="-6.0720628873">
        <ele>443.79</ele>
        <time>2020-07-10T09:48:40Z</time>
      </trkpt>
      <trkpt lat="37.8805113584" lon="-6.0722278431">
        <ele>443.79</ele>
        <time>2020-07-10T09:48:49Z</time>
      </trkpt>
      <trkpt lat="37.8808659967" lon="-6.0724591836">
        <ele>442.82</ele>
        <time>2020-07-10T09:49:00Z</time>
      </trkpt>
      <trkpt lat="37.8811046295" lon="-6.0726263188">
        <ele>442.82</ele>
        <time>2020-07-10T09:49:08Z</time>
      </trkpt>
      <trkpt lat="37.8813443519" lon="-6.0728141572">
        <ele>442.34</ele>
        <time>2020-07-10T09:49:16Z</time>
      </trkpt>
      <trkpt lat="37.8816761915" lon="-6.0730970465">
        <ele>442.82</ele>
        <time>2020-07-10T09:49:25Z</time>
      </trkpt>
      <trkpt lat="37.8820316680" lon="-6.0734176543">
        <ele>441.86</ele>
        <time>2020-07-10T09:49:35Z</time>
      </trkpt>
      <trkpt lat="37.8823458217" lon="-6.0737240128">
        <ele>441.86</ele>
        <time>2020-07-10T09:49:45Z</time>
      </trkpt>
      <trkpt lat="37.8826849535" lon="-6.0740071535">
        <ele>442.34</ele>
        <time>2020-07-10T09:49:55Z</time>
      </trkpt>
      <trkpt lat="37.8830193076" lon="-6.0741595365">
        <ele>441.38</ele>
        <time>2020-07-10T09:50:04Z</time>
      </trkpt>
      <trkpt lat="37.8833211400" lon="-6.0742221493">
        <ele>441.38</ele>
        <time>2020-07-10T09:50:12Z</time>
      </trkpt>
      <trkpt lat="37.8836830705" lon="-6.0742768832">
        <ele>442.34</ele>
        <time>2020-07-10T09:50:22Z</time>
      </trkpt>
      <trkpt lat="37.8841325082" lon="-6.0743470397">
        <ele>442.82</ele>
        <time>2020-07-10T09:50:34Z</time>
      </trkpt>
      <trkpt lat="37.8844954446" lon="-6.0744071379">
        <ele>444.75</ele>
        <time>2020-07-10T09:50:44Z</time>
      </trkpt>
      <trkpt lat="37.8848556150" lon="-6.0744539928">
        <ele>445.23</ele>
        <time>2020-07-10T09:50:54Z</time>
      </trkpt>
      <trkpt lat="37.8852430265" lon="-6.0745155998">
        <ele>445.23</ele>
        <time>2020-07-10T09:51:05Z</time>
      </trkpt>
      <trkpt lat="37.8855983354" lon="-6.0745771229">
        <ele>445.71</ele>
        <time>2020-07-10T09:51:15Z</time>
      </trkpt>
      <trkpt lat="37.8859899379" lon="-6.0746534821">
        <ele>445.71</ele>
        <time>2020-07-10T09:51:26Z</time>
      </trkpt>
      <trkpt lat="37.8863085341" lon="-6.0747232195">
        <ele>447.15</ele>
        <time>2020-07-10T09:51:36Z</time>
      </trkpt>
      <trkpt lat="37.8866737336" lon="-6.0748189408">
        <ele>448.11</ele>
        <time>2020-07-10T09:51:48Z</time>
      </trkpt>
      <trkpt lat="37.8870571218" lon="-6.0749173444">
        <ele>449.07</ele>
        <time>2020-07-10T09:52:01Z</time>
      </trkpt>
      <trkpt lat="37.8873399273" lon="-6.0749979783">
        <ele>449.55</ele>
        <time>2020-07-10T09:52:10Z</time>
      </trkpt>
      <trkpt lat="37.8876657318" lon="-6.0751745850">
        <ele>449.55</ele>
        <time>2020-07-10T09:52:21Z</time>
      </trkpt>
      <trkpt lat="37.8878964856" lon="-6.0753262974">
        <ele>450.03</ele>
        <time>2020-07-10T09:52:29Z</time>
      </trkpt>
      <trkpt lat="37.8882242180" lon="-6.0755424667">
        <ele>449.55</ele>
        <time>2020-07-10T09:52:40Z</time>
      </trkpt>
      <trkpt lat="37.8885144833" lon="-6.0757449735">
        <ele>450.52</ele>
        <time>2020-07-10T09:52:50Z</time>
      </trkpt>
      <trkpt lat="37.8888447303" lon="-6.0759706981">
        <ele>452.44</ele>
        <time>2020-07-10T09:53:01Z</time>
      </trkpt>
      <trkpt lat="37.8891237639" lon="-6.0761574470">
        <ele>454.36</ele>
        <time>2020-07-10T09:53:11Z</time>
      </trkpt>
      <trkpt lat="37.8893718682" lon="-6.0763486382">
        <ele>454.84</ele>
        <time>2020-07-10T09:53:20Z</time>
      </trkpt>
      <trkpt lat="37.8895760514" lon="-6.0765616223">
        <ele>455.32</ele>
        <time>2020-07-10T09:53:28Z</time>
      </trkpt>
      <trkpt lat="37.8897897061" lon="-6.0768098105">
        <ele>455.32</ele>
        <time>2020-07-10T09:53:37Z</time>
      </trkpt>
      <trkpt lat="37.8899989184" lon="-6.0770748463">
        <ele>456.76</ele>
        <time>2020-07-10T09:53:46Z</time>
      </trkpt>
      <trkpt lat="37.8901890200" lon="-6.0772856511">
        <ele>457.24</ele>
        <time>2020-07-10T09:53:54Z</time>
      </trkpt>
      <trkpt lat="37.8903863300" lon="-6.0775204282">
        <ele>457.72</ele>
        <time>2020-07-10T09:54:03Z</time>
      </trkpt>
      <trkpt lat="37.8906153236" lon="-6.0777977016">
        <ele>458.21</ele>
        <time>2020-07-10T09:54:14Z</time>
      </trkpt>
      <trkpt lat="37.8907842189" lon="-6.0780017171">
        <ele>459.17</ele>
        <time>2020-07-10T09:54:23Z</time>
      </trkpt>
      <trkpt lat="37.8909550421" lon="-6.0781968478">
        <ele>460.61</ele>
        <time>2020-07-10T09:54:33Z</time>
      </trkpt>
      <trkpt lat="37.8910998814" lon="-6.0783697665">
        <ele>462.05</ele>
        <time>2020-07-10T09:54:42Z</time>
      </trkpt>
      <trkpt lat="37.8912831936" lon="-6.0785674118">
        <ele>463.49</ele>
        <time>2020-07-10T09:54:53Z</time>
      </trkpt>
      <trkpt lat="37.8914278653" lon="-6.0787134245">
        <ele>465.42</ele>
        <time>2020-07-10T09:55:02Z</time>
      </trkpt>
      <trkpt lat="37.8916337248" lon="-6.0788818169">
        <ele>466.86</ele>
        <time>2020-07-10T09:55:14Z</time>
      </trkpt>
      <trkpt lat="37.8918082360" lon="-6.0790044442">
        <ele>467.82</ele>
        <time>2020-07-10T09:55:24Z</time>
      </trkpt>
      <trkpt lat="37.8919446096" lon="-6.0790990759">
        <ele>468.30</ele>
        <time>2020-07-10T09:55:33Z</time>
      </trkpt>
      <trkpt lat="37.8920941427" lon="-6.0791880079">
        <ele>468.78</ele>
        <time>2020-07-10T09:55:42Z</time>
      </trkpt>
      <trkpt lat="37.8922857530" lon="-6.0792839807">
        <ele>469.26</ele>
        <time>2020-07-10T09:55:53Z</time>
      </trkpt>
      <trkpt lat="37.8924392257" lon="-6.0793560650">
        <ele>469.26</ele>
        <time>2020-07-10T09:56:02Z</time>
      </trkpt>
      <trkpt lat="37.8925188538" lon="-6.0794063564">
        <ele>469.74</ele>
        <time>2020-07-10T09:56:07Z</time>
      </trkpt>
      <trkpt lat="37.8926621005" lon="-6.0794892535">
        <ele>470.70</ele>
        <time>2020-07-10T09:56:16Z</time>
      </trkpt>
      <trkpt lat="37.8927732445" lon="-6.0795848072">
        <ele>472.14</ele>
        <time>2020-07-10T09:56:23Z</time>
      </trkpt>
      <trkpt lat="37.8929173294" lon="-6.0797026567">
        <ele>473.11</ele>
        <time>2020-07-10T09:56:32Z</time>
      </trkpt>
      <trkpt lat="37.8930618335" lon="-6.0797918402">
        <ele>474.07</ele>
        <time>2020-07-10T09:56:41Z</time>
      </trkpt>
      <trkpt lat="37.8932008054" lon="-6.0798611585">
        <ele>475.03</ele>
        <time>2020-07-10T09:56:49Z</time>
      </trkpt>
      <trkpt lat="37.8933257796" lon="-6.0798968654">
        <ele>475.51</ele>
        <time>2020-07-10T09:56:56Z</time>
      </trkpt>
      <trkpt lat="37.8934697807" lon="-6.0799201671">
        <ele>476.47</ele>
        <time>2020-07-10T09:57:04Z</time>
      </trkpt>
      <trkpt lat="37.8936262708" lon="-6.0799207538">
        <ele>476.47</ele>
        <time>2020-07-10T09:57:12Z</time>
      </trkpt>
      <trkpt lat="37.8938109241" lon="-6.0799172334">
        <ele>477.43</ele>
        <time>2020-07-10T09:57:20Z</time>
      </trkpt>
      <trkpt lat="37.8939846810" lon="-6.0799176525">
        <ele>478.39</ele>
        <time>2020-07-10T09:57:28Z</time>
      </trkpt>
      <trkpt lat="37.8942425083" lon="-6.0798991285">
        <ele>478.87</ele>
        <time>2020-07-10T09:57:39Z</time>
      </trkpt>
      <trkpt lat="37.8944916185" lon="-6.0798811074">
        <ele>479.84</ele>
        <time>2020-07-10T09:57:50Z</time>
      </trkpt>
      <trkpt lat="37.8946866654" lon="-6.0798483342">
        <ele>481.28</ele>
        <time>2020-07-10T09:57:59Z</time>
      </trkpt>
      <trkpt lat="37.8947698139" lon="-6.0798327439">
        <ele>481.76</ele>
        <time>2020-07-10T09:58:03Z</time>
      </trkpt>
      <trkpt lat="37.8950426448" lon="-6.0797267966">
        <ele>481.28</ele>
        <time>2020-07-10T09:58:16Z</time>
      </trkpt>
      <trkpt lat="37.8952098638" lon="-6.0796534549">
        <ele>481.28</ele>
        <time>2020-07-10T09:58:24Z</time>
      </trkpt>
      <trkpt lat="37.8953992110" lon="-6.0795632657">
        <ele>481.28</ele>
        <time>2020-07-10T09:58:33Z</time>
      </trkpt>
      <trkpt lat="37.8955862112" lon="-6.0794620961">
        <ele>481.76</ele>
        <time>2020-07-10T09:58:42Z</time>
      </trkpt>
      <trkpt lat="37.8957375046" lon="-6.0793812945">
        <ele>481.76</ele>
        <time>2020-07-10T09:58:49Z</time>
      </trkpt>
      <trkpt lat="37.8959307075" lon="-6.0792781133">
        <ele>482.24</ele>
        <time>2020-07-10T09:58:58Z</time>
      </trkpt>
      <trkpt lat="37.8961627185" lon="-6.0791194439">
        <ele>483.68</ele>
        <time>2020-07-10T09:59:09Z</time>
      </trkpt>
      <trkpt lat="37.8963788878" lon="-6.0788784642">
        <ele>483.20</ele>
        <time>2020-07-10T09:59:20Z</time>
      </trkpt>
      <trkpt lat="37.8965280857" lon="-6.0786205530">
        <ele>482.72</ele>
        <time>2020-07-10T09:59:29Z</time>
      </trkpt>
      <trkpt lat="37.8966273274" lon="-6.0783302877">
        <ele>483.20</ele>
        <time>2020-07-10T09:59:38Z</time>
      </trkpt>
      <trkpt lat="37.8967017587" lon="-6.0779565386">
        <ele>483.20</ele>
        <time>2020-07-10T09:59:48Z</time>
      </trkpt>
      <trkpt lat="37.8967457637" lon="-6.0777189117">
        <ele>483.20</ele>
        <time>2020-07-10T09:59:55Z</time>
      </trkpt>
      <trkpt lat="37.8968053591" lon="-6.0774082784">
        <ele>485.12</ele>
        <time>2020-07-10T10:00:04Z</time>
      </trkpt>
      <trkpt lat="37.8968935367" lon="-6.0771142412">
        <ele>486.56</ele>
        <time>2020-07-10T10:00:14Z</time>
      </trkpt>
      <trkpt lat="37.8970280662" lon="-6.0768890195">
        <ele>486.56</ele>
        <time>2020-07-10T10:00:23Z</time>
      </trkpt>
      <trkpt lat="37.8972097859" lon="-6.0767575074">
        <ele>486.08</ele>
        <time>2020-07-10T10:00:31Z</time>
      </trkpt>
      <trkpt lat="37.8974336665" lon="-6.0766548291">
        <ele>487.05</ele>
        <time>2020-07-10T10:00:41Z</time>
      </trkpt>
      <trkpt lat="37.8974801023" lon="-6.0766435135">
        <ele>488.01</ele>
        <time>2020-07-10T10:00:47Z</time>
      </trkpt>
      <trkpt lat="37.8974804375" lon="-6.0766463634">
        <ele>488.01</ele>
        <time>2020-07-10T10:01:06Z</time>
      </trkpt>
      <trkpt lat="37.8974826168" lon="-6.0766459443">
        <ele>488.01</ele>
        <time>2020-07-10T10:01:20Z</time>
      </trkpt>
      <trkpt lat="37.8974929266" lon="-6.0766288452">
        <ele>486.56</ele>
        <time>2020-07-10T10:01:36Z</time>
      </trkpt>
      <trkpt lat="37.8974924237" lon="-6.0766187869">
        <ele>486.08</ele>
        <time>2020-07-10T10:01:51Z</time>
      </trkpt>
      <trkpt lat="37.8974959441" lon="-6.0766217206">
        <ele>486.08</ele>
        <time>2020-07-10T10:02:07Z</time>
      </trkpt>
      <trkpt lat="37.8974987939" lon="-6.0766294319">
        <ele>487.05</ele>
        <time>2020-07-10T10:02:24Z</time>
      </trkpt>
      <trkpt lat="37.8974997159" lon="-6.0766428430">
        <ele>488.49</ele>
        <time>2020-07-10T10:02:38Z</time>
      </trkpt>
      <trkpt lat="37.8975034878" lon="-6.0766254924">
        <ele>489.45</ele>
        <time>2020-07-10T10:02:54Z</time>
      </trkpt>
      <trkpt lat="37.8976070043" lon="-6.0765922163">
        <ele>489.45</ele>
        <time>2020-07-10T10:03:01Z</time>
      </trkpt>
      <trkpt lat="37.8978395183" lon="-6.0765065532">
        <ele>489.45</ele>
        <time>2020-07-10T10:03:12Z</time>
      </trkpt>
      <trkpt lat="37.8980778158" lon="-6.0764491372">
        <ele>490.41</ele>
        <time>2020-07-10T10:03:21Z</time>
      </trkpt>
      <trkpt lat="37.8982962482" lon="-6.0764009412">
        <ele>491.37</ele>
        <time>2020-07-10T10:03:31Z</time>
      </trkpt>
      <trkpt lat="37.8984353878" lon="-6.0763517395">
        <ele>491.85</ele>
        <time>2020-07-10T10:03:39Z</time>
      </trkpt>
      <trkpt lat="37.8985915426" lon="-6.0762181319">
        <ele>492.81</ele>
        <time>2020-07-10T10:03:48Z</time>
      </trkpt>
      <trkpt lat="37.8986827377" lon="-6.0759974364">
        <ele>493.77</ele>
        <time>2020-07-10T10:03:57Z</time>
      </trkpt>
      <trkpt lat="37.8987195343" lon="-6.0757489130">
        <ele>494.26</ele>
        <time>2020-07-10T10:04:06Z</time>
      </trkpt>
      <trkpt lat="37.8987207077" lon="-6.0754008126">
        <ele>494.26</ele>
        <time>2020-07-10T10:04:16Z</time>
      </trkpt>
      <trkpt lat="37.8986922093" lon="-6.0750611778">
        <ele>494.26</ele>
        <time>2020-07-10T10:04:25Z</time>
      </trkpt>
      <trkpt lat="37.8986290935" lon="-6.0746765323">
        <ele>494.26</ele>
        <time>2020-07-10T10:04:36Z</time>
      </trkpt>
      <trkpt lat="37.8985125851" lon="-6.0742859356">
        <ele>495.70</ele>
        <time>2020-07-10T10:04:46Z</time>
      </trkpt>
      <trkpt lat="37.8984055482" lon="-6.0739338119">
        <ele>496.66</ele>
        <time>2020-07-10T10:04:56Z</time>
      </trkpt>
      <trkpt lat="37.8984138463" lon="-6.0736127011">
        <ele>497.14</ele>
        <time>2020-07-10T10:05:06Z</time>
      </trkpt>
      <trkpt lat="37.8985351324" lon="-6.0732433945">
        <ele>497.62</ele>
        <time>2020-07-10T10:05:17Z</time>
      </trkpt>
      <trkpt lat="37.8986506350" lon="-6.0729687195">
        <ele>497.62</ele>
        <time>2020-07-10T10:05:25Z</time>
      </trkpt>
      <trkpt lat="37.8988611046" lon="-6.0725424159">
        <ele>497.62</ele>
        <time>2020-07-10T10:05:37Z</time>
      </trkpt>
      <trkpt lat="37.8990655392" lon="-6.0723447707">
        <ele>496.66</ele>
        <time>2020-07-10T10:05:45Z</time>
      </trkpt>
      <trkpt lat="37.8993258812" lon="-6.0722296033">
        <ele>494.74</ele>
        <time>2020-07-10T10:05:51Z</time>
      </trkpt>
      <trkpt lat="37.8997248597" lon="-6.0721235722">
        <ele>492.81</ele>
        <time>2020-07-10T10:05:57Z</time>
      </trkpt>
      <trkpt lat="37.8997976985" lon="-6.0720971692">
        <ele>492.33</ele>
        <time>2020-07-10T10:05:58Z</time>
      </trkpt>
      <trkpt lat="37.8998755664" lon="-6.0720567685">
        <ele>491.85</ele>
        <time>2020-07-10T10:05:59Z</time>
      </trkpt>
      <trkpt lat="37.8999457229" lon="-6.0720015317">
        <ele>491.37</ele>
        <time>2020-07-10T10:06:00Z</time>
      </trkpt>
      <trkpt lat="37.9000048153" lon="-6.0719282739">
        <ele>490.89</ele>
        <time>2020-07-10T10:06:01Z</time>
      </trkpt>
      <trkpt lat="37.9000504967" lon="-6.0718312953">
        <ele>490.41</ele>
        <time>2020-07-10T10:06:02Z</time>
      </trkpt>
      <trkpt lat="37.9000713676" lon="-6.0717360768">
        <ele>490.41</ele>
        <time>2020-07-10T10:06:03Z</time>
      </trkpt>
      <trkpt lat="37.9000786599" lon="-6.0716419481">
        <ele>490.41</ele>
        <time>2020-07-10T10:06:04Z</time>
      </trkpt>
      <trkpt lat="37.9000832699" lon="-6.0715528484">
        <ele>490.41</ele>
        <time>2020-07-10T10:06:05Z</time>
      </trkpt>
      <trkpt lat="37.9001540970" lon="-6.0710881557">
        <ele>491.37</ele>
        <time>2020-07-10T10:06:11Z</time>
      </trkpt>
      <trkpt lat="37.9001759738" lon="-6.0710267164">
        <ele>490.89</ele>
        <time>2020-07-10T10:06:12Z</time>
      </trkpt>
      <trkpt lat="37.9002267681" lon="-6.0709144827">
        <ele>491.37</ele>
        <time>2020-07-10T10:06:14Z</time>
      </trkpt>
      <trkpt lat="37.9002533387" lon="-6.0708696395">
        <ele>491.37</ele>
        <time>2020-07-10T10:06:15Z</time>
      </trkpt>
      <trkpt lat="37.9002820048" lon="-6.0708278138">
        <ele>491.37</ele>
        <time>2020-07-10T10:06:16Z</time>
      </trkpt>
      <trkpt lat="37.9003129341" lon="-6.0707890894">
        <ele>491.37</ele>
        <time>2020-07-10T10:06:17Z</time>
      </trkpt>
      <trkpt lat="37.9003431927" lon="-6.0707553942">
        <ele>491.37</ele>
        <time>2020-07-10T10:06:18Z</time>
      </trkpt>
      <trkpt lat="37.9006399121" lon="-6.0705134086">
        <ele>491.85</ele>
        <time>2020-07-10T10:06:27Z</time>
      </trkpt>
      <trkpt lat="37.9009041935" lon="-6.0703214630">
        <ele>492.33</ele>
        <time>2020-07-10T10:06:35Z</time>
      </trkpt>
      <trkpt lat="37.9011987336" lon="-6.0702468641">
        <ele>491.85</ele>
        <time>2020-07-10T10:06:43Z</time>
      </trkpt>
      <trkpt lat="37.9015763383" lon="-6.0703243129">
        <ele>491.37</ele>
        <time>2020-07-10T10:06:53Z</time>
      </trkpt>
      <trkpt lat="37.9018624965" lon="-6.0704119876">
        <ele>491.85</ele>
        <time>2020-07-10T10:07:01Z</time>
      </trkpt>
      <trkpt lat="37.9019785021" lon="-6.0704572499">
        <ele>491.85</ele>
        <time>2020-07-10T10:07:04Z</time>
      </trkpt>
      <trkpt lat="37.9023178853" lon="-6.0706758499">
        <ele>490.89</ele>
        <time>2020-07-10T10:07:14Z</time>
      </trkpt>
      <trkpt lat="37.9025379941" lon="-6.0709397122">
        <ele>488.97</ele>
        <time>2020-07-10T10:07:20Z</time>
      </trkpt>
      <trkpt lat="37.9028953146" lon="-6.0712210089">
        <ele>487.05</ele>
        <time>2020-07-10T10:07:26Z</time>
      </trkpt>
      <trkpt lat="37.9032517131" lon="-6.0713756550">
        <ele>487.05</ele>
        <time>2020-07-10T10:07:32Z</time>
      </trkpt>
      <trkpt lat="37.9034965485" lon="-6.0714390222">
        <ele>487.05</ele>
        <time>2020-07-10T10:07:37Z</time>
      </trkpt>
      <trkpt lat="37.9035413917" lon="-6.0714617372">
        <ele>487.05</ele>
        <time>2020-07-10T10:07:38Z</time>
      </trkpt>
      <trkpt lat="37.9037659429" lon="-6.0716463067">
        <ele>488.01</ele>
        <time>2020-07-10T10:07:45Z</time>
      </trkpt>
      <trkpt lat="37.9039769154" lon="-6.0718477238">
        <ele>489.45</ele>
        <time>2020-07-10T10:07:54Z</time>
      </trkpt>
      <trkpt lat="37.9041971080" lon="-6.0719673336">
        <ele>490.89</ele>
        <time>2020-07-10T10:08:03Z</time>
      </trkpt>
      <trkpt lat="37.9044229165" lon="-6.0720144399">
        <ele>492.33</ele>
        <time>2020-07-10T10:08:13Z</time>
      </trkpt>
      <trkpt lat="37.9046204779" lon="-6.0720013641">
        <ele>493.29</ele>
        <time>2020-07-10T10:08:22Z</time>
      </trkpt>
      <trkpt lat="37.9047348071" lon="-6.0719917249">
        <ele>493.77</ele>
        <time>2020-07-10T10:08:29Z</time>
      </trkpt>
      <trkpt lat="37.9048638884" lon="-6.0719850194">
        <ele>493.77</ele>
        <time>2020-07-10T10:08:36Z</time>
      </trkpt>
      <trkpt lat="37.9050453566" lon="-6.0719790682">
        <ele>495.22</ele>
        <time>2020-07-10T10:08:46Z</time>
      </trkpt>
      <trkpt lat="37.9052140843" lon="-6.0719730332">
        <ele>497.14</ele>
        <time>2020-07-10T10:08:56Z</time>
      </trkpt>
      <trkpt lat="37.9053691495" lon="-6.0719919764">
        <ele>497.14</ele>
        <time>2020-07-10T10:09:05Z</time>
      </trkpt>
      <trkpt lat="37.9055444989" lon="-6.0719985142">
        <ele>498.58</ele>
        <time>2020-07-10T10:09:15Z</time>
      </trkpt>
      <trkpt lat="37.9057308286" lon="-6.0720060579">
        <ele>499.54</ele>
        <time>2020-07-10T10:09:25Z</time>
      </trkpt>
      <trkpt lat="37.9059168231" lon="-6.0720042139">
        <ele>500.50</ele>
        <time>2020-07-10T10:09:35Z</time>
      </trkpt>
      <trkpt lat="37.9060899932" lon="-6.0720032081">
        <ele>501.46</ele>
        <time>2020-07-10T10:09:44Z</time>
      </trkpt>
      <trkpt lat="37.9061944317" lon="-6.0719985142">
        <ele>501.95</ele>
        <time>2020-07-10T10:09:51Z</time>
      </trkpt>
      <trkpt lat="37.9063844495" lon="-6.0719770566">
        <ele>501.95</ele>
        <time>2020-07-10T10:10:00Z</time>
      </trkpt>
      <trkpt lat="37.9066701047" lon="-6.0719512403">
        <ele>502.43</ele>
        <time>2020-07-10T10:10:13Z</time>
      </trkpt>
      <trkpt lat="37.9068600386" lon="-6.0719371587">
        <ele>503.39</ele>
        <time>2020-07-10T10:10:23Z</time>
      </trkpt>
      <trkpt lat="37.9070463683" lon="-6.0719587002">
        <ele>504.83</ele>
        <time>2020-07-10T10:10:34Z</time>
      </trkpt>
      <trkpt lat="37.9071781319" lon="-6.0719619691">
        <ele>505.31</ele>
        <time>2020-07-10T10:10:42Z</time>
      </trkpt>
      <trkpt lat="37.9073042795" lon="-6.0719692614">
        <ele>506.27</ele>
        <time>2020-07-10T10:10:50Z</time>
      </trkpt>
      <trkpt lat="37.9074238893" lon="-6.0719855223">
        <ele>506.75</ele>
        <time>2020-07-10T10:10:58Z</time>
      </trkpt>
      <trkpt lat="37.9075802956" lon="-6.0720130149">
        <ele>508.19</ele>
        <time>2020-07-10T10:11:08Z</time>
      </trkpt>
      <trkpt lat="37.9077672958" lon="-6.0720332153">
        <ele>510.12</ele>
        <time>2020-07-10T10:11:20Z</time>
      </trkpt>
      <trkpt lat="37.9079384543" lon="-6.0720559303">
        <ele>511.08</ele>
        <time>2020-07-10T10:11:31Z</time>
      </trkpt>
      <trkpt lat="37.9080781806" lon="-6.0720714368">
        <ele>511.56</ele>
        <time>2020-07-10T10:11:41Z</time>
      </trkpt>
      <trkpt lat="37.9081873968" lon="-6.0720713530">
        <ele>512.04</ele>
        <time>2020-07-10T10:11:49Z</time>
      </trkpt>
      <trkpt lat="37.9082816932" lon="-6.0720663238">
        <ele>513.00</ele>
        <time>2020-07-10T10:11:56Z</time>
      </trkpt>
      <trkpt lat="37.9083933402" lon="-6.0720774718">
        <ele>513.96</ele>
        <time>2020-07-10T10:12:04Z</time>
      </trkpt>
      <trkpt lat="37.9085645825" lon="-6.0720820818">
        <ele>514.44</ele>
        <time>2020-07-10T10:12:14Z</time>
      </trkpt>
      <trkpt lat="37.9087324720" lon="-6.0720854346">
        <ele>513.96</ele>
        <time>2020-07-10T10:12:23Z</time>
      </trkpt>
      <trkpt lat="37.9089191370" lon="-6.0720600374">
        <ele>514.92</ele>
        <time>2020-07-10T10:12:33Z</time>
      </trkpt>
      <trkpt lat="37.9089348949" lon="-6.0720554274">
        <ele>514.92</ele>
        <time>2020-07-10T10:12:34Z</time>
      </trkpt>
      <trkpt lat="37.9091260023" lon="-6.0720344726">
        <ele>515.88</ele>
        <time>2020-07-10T10:12:44Z</time>
      </trkpt>
      <trkpt lat="37.9092569277" lon="-6.0720204748">
        <ele>515.88</ele>
        <time>2020-07-10T10:12:51Z</time>
      </trkpt>
      <trkpt lat="37.9094287567" lon="-6.0720256716">
        <ele>517.33</ele>
        <time>2020-07-10T10:13:01Z</time>
      </trkpt>
      <trkpt lat="37.9094601050" lon="-6.0720271803">
        <ele>517.33</ele>
        <time>2020-07-10T10:13:03Z</time>
      </trkpt>
      <trkpt lat="37.9094777908" lon="-6.0720281024">
        <ele>517.33</ele>
        <time>2020-07-10T10:13:04Z</time>
      </trkpt>
      <trkpt lat="37.9096331075" lon="-6.0720605403">
        <ele>517.81</ele>
        <time>2020-07-10T10:13:14Z</time>
      </trkpt>
      <trkpt lat="37.9097952135" lon="-6.0721141845">
        <ele>517.81</ele>
        <time>2020-07-10T10:13:24Z</time>
      </trkpt>
      <trkpt lat="37.9098792002" lon="-6.0721514001">
        <ele>518.29</ele>
        <time>2020-07-10T10:13:31Z</time>
      </trkpt>
      <trkpt lat="37.9098822176" lon="-6.0721695051">
        <ele>519.25</ele>
        <time>2020-07-10T10:13:45Z</time>
      </trkpt>
      <trkpt lat="37.9098766856" lon="-6.0721738636">
        <ele>520.69</ele>
        <time>2020-07-10T10:14:00Z</time>
      </trkpt>
      <trkpt lat="37.9098660406" lon="-6.0721599497">
        <ele>519.73</ele>
        <time>2020-07-10T10:14:16Z</time>
      </trkpt>
      <trkpt lat="37.9098595865" lon="-6.0721558426">
        <ele>520.69</ele>
        <time>2020-07-10T10:14:27Z</time>
      </trkpt>
      <trkpt lat="37.9098652024" lon="-6.0721490532">
        <ele>520.69</ele>
        <time>2020-07-10T10:14:44Z</time>
      </trkpt>
      <trkpt lat="37.9098651186" lon="-6.0721713491">
        <ele>519.25</ele>
        <time>2020-07-10T10:15:04Z</time>
      </trkpt>
      <trkpt lat="37.9098512884" lon="-6.0721841734">
        <ele>518.77</ele>
        <time>2020-07-10T10:15:17Z</time>
      </trkpt>
      <trkpt lat="37.9098548926" lon="-6.0721695051">
        <ele>518.29</ele>
        <time>2020-07-10T10:15:29Z</time>
      </trkpt>
      <trkpt lat="37.9098729137" lon="-6.0721465386">
        <ele>519.25</ele>
        <time>2020-07-10T10:15:49Z</time>
      </trkpt>
      <trkpt lat="37.9098766856" lon="-6.0721464548">
        <ele>519.73</ele>
        <time>2020-07-10T10:16:06Z</time>
      </trkpt>
      <trkpt lat="37.9098880850" lon="-6.0721523222">
        <ele>521.17</ele>
        <time>2020-07-10T10:16:28Z</time>
      </trkpt>
      <trkpt lat="37.9098592512" lon="-6.0721762106">
        <ele>521.17</ele>
        <time>2020-07-10T10:16:43Z</time>
      </trkpt>
      <trkpt lat="37.9098547250" lon="-6.0721809883">
        <ele>522.13</ele>
        <time>2020-07-10T10:17:07Z</time>
      </trkpt>
      <trkpt lat="37.9098593350" lon="-6.0721716844">
        <ele>520.69</ele>
        <time>2020-07-10T10:17:27Z</time>
      </trkpt>
      <trkpt lat="37.9098724946" lon="-6.0721710976">
        <ele>520.69</ele>
        <time>2020-07-10T10:17:47Z</time>
      </trkpt>
      <trkpt lat="37.9098553956" lon="-6.0721762944">
        <ele>521.65</ele>
        <time>2020-07-10T10:17:59Z</time>
      </trkpt>
      <trkpt lat="37.9098837264" lon="-6.0721540824">
        <ele>519.25</ele>
        <time>2020-07-10T10:18:14Z</time>
      </trkpt>
      <trkpt lat="37.9098888393" lon="-6.0721586086">
        <ele>519.25</ele>
        <time>2020-07-10T10:18:33Z</time>
      </trkpt>
      <trkpt lat="37.9099039268" lon="-6.0721669905">
        <ele>519.25</ele>
        <time>2020-07-10T10:18:35Z</time>
      </trkpt>
      <trkpt lat="37.9099133983" lon="-6.0721783061">
        <ele>518.77</ele>
        <time>2020-07-10T10:18:36Z</time>
      </trkpt>
      <trkpt lat="37.9099244624" lon="-6.0721902922">
        <ele>518.77</ele>
        <time>2020-07-10T10:18:37Z</time>
      </trkpt>
      <trkpt lat="37.9099360295" lon="-6.0722030327">
        <ele>518.77</ele>
        <time>2020-07-10T10:18:38Z</time>
      </trkpt>
      <trkpt lat="37.9099491891" lon="-6.0722154379">
        <ele>518.77</ele>
        <time>2020-07-10T10:18:39Z</time>
      </trkpt>
      <trkpt lat="37.9100822937" lon="-6.0723032802">
        <ele>519.25</ele>
        <time>2020-07-10T10:18:47Z</time>
      </trkpt>
      <trkpt lat="37.9102728143" lon="-6.0724527296">
        <ele>520.21</ele>
        <time>2020-07-10T10:18:58Z</time>
      </trkpt>
      <trkpt lat="37.9104070086" lon="-6.0725669749">
        <ele>521.17</ele>
        <time>2020-07-10T10:19:07Z</time>
      </trkpt>
      <trkpt lat="37.9105791729" lon="-6.0726986546">
        <ele>522.61</ele>
        <time>2020-07-10T10:19:19Z</time>
      </trkpt>
      <trkpt lat="37.9107358307" lon="-6.0728200246">
        <ele>524.54</ele>
        <time>2020-07-10T10:19:30Z</time>
      </trkpt>
      <trkpt lat="37.9108620621" lon="-6.0729092080">
        <ele>525.50</ele>
        <time>2020-07-10T10:19:39Z</time>
      </trkpt>
      <trkpt lat="37.9110146128" lon="-6.0730034206">
        <ele>526.46</ele>
        <time>2020-07-10T10:19:49Z</time>
      </trkpt>
      <trkpt lat="37.9111324623" lon="-6.0730646085">
        <ele>526.94</ele>
        <time>2020-07-10T10:19:57Z</time>
      </trkpt>
      <trkpt lat="37.9111474659" lon="-6.0730710626">
        <ele>526.94</ele>
        <time>2020-07-10T10:19:58Z</time>
      </trkpt>
      <trkpt lat="37.9111617990" lon="-6.0730804503">
        <ele>526.94</ele>
        <time>2020-07-10T10:19:59Z</time>
      </trkpt>
      <trkpt lat="37.9111764673" lon="-6.0730884131">
        <ele>526.94</ele>
        <time>2020-07-10T10:20:00Z</time>
      </trkpt>
      <trkpt lat="37.9111933149" lon="-6.0730962921">
        <ele>526.94</ele>
        <time>2020-07-10T10:20:01Z</time>
      </trkpt>
      <trkpt lat="37.9112110008" lon="-6.0731052607">
        <ele>526.94</ele>
        <time>2020-07-10T10:20:02Z</time>
      </trkpt>
      <trkpt lat="37.9112283513" lon="-6.0731143132">
        <ele>526.94</ele>
        <time>2020-07-10T10:20:03Z</time>
      </trkpt>
      <trkpt lat="37.9113472067" lon="-6.0731809493">
        <ele>527.90</ele>
        <time>2020-07-10T10:20:11Z</time>
      </trkpt>
      <trkpt lat="37.9115309380" lon="-6.0732387006">
        <ele>529.34</ele>
        <time>2020-07-10T10:20:22Z</time>
      </trkpt>
      <trkpt lat="37.9117155075" lon="-6.0732311569">
        <ele>530.30</ele>
        <time>2020-07-10T10:20:32Z</time>
      </trkpt>
      <trkpt lat="37.9119045194" lon="-6.0731596593">
        <ele>528.86</ele>
        <time>2020-07-10T10:20:40Z</time>
      </trkpt>
      <trkpt lat="37.9120180104" lon="-6.0730808694">
        <ele>528.38</ele>
        <time>2020-07-10T10:20:43Z</time>
      </trkpt>
      <trkpt lat="37.9123505205" lon="-6.0727767739">
        <ele>525.98</ele>
        <time>2020-07-10T10:20:50Z</time>
      </trkpt>
      <trkpt lat="37.9126000497" lon="-6.0725687351">
        <ele>524.06</ele>
        <time>2020-07-10T10:20:54Z</time>
      </trkpt>
      <trkpt lat="37.9126667697" lon="-6.0725308489">
        <ele>523.09</ele>
        <time>2020-07-10T10:20:55Z</time>
      </trkpt>
      <trkpt lat="37.9127466492" lon="-6.0724929627">
        <ele>522.61</ele>
        <time>2020-07-10T10:20:56Z</time>
      </trkpt>
      <trkpt lat="37.9133849312" lon="-6.0722520668">
        <ele>518.29</ele>
        <time>2020-07-10T10:21:03Z</time>
      </trkpt>
      <trkpt lat="37.9139218759" lon="-6.0720520746">
        <ele>518.77</ele>
        <time>2020-07-10T10:21:10Z</time>
      </trkpt>
      <trkpt lat="37.9143868200" lon="-6.0719324648">
        <ele>519.25</ele>
        <time>2020-07-10T10:21:18Z</time>
      </trkpt>
      <trkpt lat="37.9145366885" lon="-6.0718929023">
        <ele>519.73</ele>
        <time>2020-07-10T10:21:21Z</time>
      </trkpt>
      <trkpt lat="37.9145868961" lon="-6.0718769766">
        <ele>519.73</ele>
        <time>2020-07-10T10:21:22Z</time>
      </trkpt>
      <trkpt lat="37.9150432907" lon="-6.0717799142">
        <ele>520.69</ele>
        <time>2020-07-10T10:21:32Z</time>
      </trkpt>
      <trkpt lat="37.9153090809" lon="-6.0717241745">
        <ele>521.65</ele>
        <time>2020-07-10T10:21:40Z</time>
      </trkpt>
      <trkpt lat="37.9156065546" lon="-6.0716406070">
        <ele>520.69</ele>
        <time>2020-07-10T10:21:50Z</time>
      </trkpt>
      <trkpt lat="37.9159215465" lon="-6.0715706181">
        <ele>520.21</ele>
        <time>2020-07-10T10:21:58Z</time>
      </trkpt>
      <trkpt lat="37.9161905218" lon="-6.0715062451">
        <ele>521.65</ele>
        <time>2020-07-10T10:22:06Z</time>
      </trkpt>
      <trkpt lat="37.9165770952" lon="-6.0714164749">
        <ele>522.61</ele>
        <time>2020-07-10T10:22:18Z</time>
      </trkpt>
      <trkpt lat="37.9168450646" lon="-6.0713498387">
        <ele>524.06</ele>
        <time>2020-07-10T10:22:28Z</time>
      </trkpt>
      <trkpt lat="37.9170500860" lon="-6.0713008884">
        <ele>525.02</ele>
        <time>2020-07-10T10:22:36Z</time>
      </trkpt>
      <trkpt lat="37.9172807559" lon="-6.0712489206">
        <ele>525.50</ele>
        <time>2020-07-10T10:22:46Z</time>
      </trkpt>
      <trkpt lat="37.9175047204" lon="-6.0712017305">
        <ele>526.46</ele>
        <time>2020-07-10T10:22:56Z</time>
      </trkpt>
      <trkpt lat="37.9178161919" lon="-6.0711344238">
        <ele>526.46</ele>
        <time>2020-07-10T10:23:09Z</time>
      </trkpt>
      <trkpt lat="37.9180228896" lon="-6.0710899998">
        <ele>526.46</ele>
        <time>2020-07-10T10:23:19Z</time>
      </trkpt>
      <trkpt lat="37.9182274919" lon="-6.0710451566">
        <ele>528.38</ele>
        <time>2020-07-10T10:23:29Z</time>
      </trkpt>
      <trkpt lat="37.9184640292" lon="-6.0709810350">
        <ele>529.82</ele>
        <time>2020-07-10T10:23:41Z</time>
      </trkpt>
      <trkpt lat="37.9186773486" lon="-6.0709342640">
        <ele>531.27</ele>
        <time>2020-07-10T10:23:51Z</time>
      </trkpt>
      <trkpt lat="37.9188247025" lon="-6.0708985571">
        <ele>531.27</ele>
        <time>2020-07-10T10:23:59Z</time>
      </trkpt>
      <trkpt lat="37.9190500081" lon="-6.0708491039">
        <ele>531.75</ele>
        <time>2020-07-10T10:24:09Z</time>
      </trkpt>
      <trkpt lat="37.9192548618" lon="-6.0708185099">
        <ele>531.75</ele>
        <time>2020-07-10T10:24:17Z</time>
      </trkpt>
      <trkpt lat="37.9195633996" lon="-6.0708563961">
        <ele>531.75</ele>
        <time>2020-07-10T10:24:27Z</time>
      </trkpt>
      <trkpt lat="37.9197594523" lon="-6.0709482618">
        <ele>532.23</ele>
        <time>2020-07-10T10:24:35Z</time>
      </trkpt>
      <trkpt lat="37.9199710116" lon="-6.0710977111">
        <ele>532.23</ele>
        <time>2020-07-10T10:24:44Z</time>
      </trkpt>
      <trkpt lat="37.9201740213" lon="-6.0712860525">
        <ele>531.75</ele>
        <time>2020-07-10T10:24:54Z</time>
      </trkpt>
      <trkpt lat="37.9203909449" lon="-6.0715404432">
        <ele>531.27</ele>
        <time>2020-07-10T10:25:06Z</time>
      </trkpt>
      <trkpt lat="37.9205430765" lon="-6.0717779025">
        <ele>532.23</ele>
        <time>2020-07-10T10:25:16Z</time>
      </trkpt>
      <trkpt lat="37.9206952080" lon="-6.0720702633">
        <ele>533.19</ele>
        <time>2020-07-10T10:25:28Z</time>
      </trkpt>
      <trkpt lat="37.9207845591" lon="-6.0722628795">
        <ele>534.15</ele>
        <time>2020-07-10T10:25:36Z</time>
      </trkpt>
      <trkpt lat="37.9208480939" lon="-6.0725406557">
        <ele>535.59</ele>
        <time>2020-07-10T10:25:46Z</time>
      </trkpt>
      <trkpt lat="37.9208963737" lon="-6.0728070326">
        <ele>536.07</ele>
        <time>2020-07-10T10:25:55Z</time>
      </trkpt>
      <trkpt lat="37.9209499341" lon="-6.0730941966">
        <ele>536.55</ele>
        <time>2020-07-10T10:26:05Z</time>
      </trkpt>
      <trkpt lat="37.9210036620" lon="-6.0733748227">
        <ele>537.99</ele>
        <time>2020-07-10T10:26:15Z</time>
      </trkpt>
      <trkpt lat="37.9210620839" lon="-6.0736665968">
        <ele>538.48</ele>
        <time>2020-07-10T10:26:25Z</time>
      </trkpt>
      <trkpt lat="37.9211310670" lon="-6.0740024596">
        <ele>539.44</ele>
        <time>2020-07-10T10:26:37Z</time>
      </trkpt>
      <trkpt lat="37.9211795982" lon="-6.0742666572">
        <ele>539.92</ele>
        <time>2020-07-10T10:26:46Z</time>
      </trkpt>
      <trkpt lat="37.9212319013" lon="-6.0745512228">
        <ele>540.88</ele>
        <time>2020-07-10T10:26:56Z</time>
      </trkpt>
      <trkpt lat="37.9212831147" lon="-6.0748151690">
        <ele>540.88</ele>
        <time>2020-07-10T10:27:05Z</time>
      </trkpt>
      <trkpt lat="37.9213515949" lon="-6.0751620121">
        <ele>541.36</ele>
        <time>2020-07-10T10:27:16Z</time>
      </trkpt>
      <trkpt lat="37.9214188177" lon="-6.0754392855">
        <ele>541.36</ele>
        <time>2020-07-10T10:27:26Z</time>
      </trkpt>
      <trkpt lat="37.9215010442" lon="-6.0757161397">
        <ele>542.32</ele>
        <time>2020-07-10T10:27:36Z</time>
      </trkpt>
      <trkpt lat="37.9216720350" lon="-6.0760364961">
        <ele>541.84</ele>
        <time>2020-07-10T10:27:47Z</time>
      </trkpt>
      <trkpt lat="37.9218736198" lon="-6.0763065610">
        <ele>541.84</ele>
        <time>2020-07-10T10:27:59Z</time>
      </trkpt>
      <trkpt lat="37.9220163636" lon="-6.0765042901">
        <ele>542.32</ele>
        <time>2020-07-10T10:28:09Z</time>
      </trkpt>
      <trkpt lat="37.9221757874" lon="-6.0767116584">
        <ele>543.76</ele>
        <time>2020-07-10T10:28:19Z</time>
      </trkpt>
      <trkpt lat="37.9223471135" lon="-6.0769290850">
        <ele>543.76</ele>
        <time>2020-07-10T10:28:31Z</time>
      </trkpt>
      <trkpt lat="37.9224484507" lon="-6.0770647880">
        <ele>544.24</ele>
        <time>2020-07-10T10:28:40Z</time>
      </trkpt>
      <trkpt lat="37.9225588404" lon="-6.0772154108">
        <ele>544.72</ele>
        <time>2020-07-10T10:28:50Z</time>
      </trkpt>
      <trkpt lat="37.9226600099" lon="-6.0773589090">
        <ele>545.69</ele>
        <time>2020-07-10T10:29:00Z</time>
      </trkpt>
      <trkpt lat="37.9227573238" lon="-6.0774727352">
        <ele>546.17</ele>
        <time>2020-07-10T10:29:08Z</time>
      </trkpt>
      <trkpt lat="37.9228688031" lon="-6.0776161496">
        <ele>546.65</ele>
        <time>2020-07-10T10:29:17Z</time>
      </trkpt>
      <trkpt lat="37.9230107088" lon="-6.0778006352">
        <ele>547.61</ele>
        <time>2020-07-10T10:29:28Z</time>
      </trkpt>
      <trkpt lat="37.9231369402" lon="-6.0779951792">
        <ele>548.09</ele>
        <time>2020-07-10T10:29:39Z</time>
      </trkpt>
      <trkpt lat="37.9232438095" lon="-6.0781938303">
        <ele>548.57</ele>
        <time>2020-07-10T10:29:49Z</time>
      </trkpt>
      <trkpt lat="37.9233105294" lon="-6.0783808306">
        <ele>549.53</ele>
        <time>2020-07-10T10:29:57Z</time>
      </trkpt>
      <trkpt lat="37.9233716335" lon="-6.0786003526">
        <ele>550.49</ele>
        <time>2020-07-10T10:30:06Z</time>
      </trkpt>
      <trkpt lat="37.9234187398" lon="-6.0788415000">
        <ele>550.97</ele>
        <time>2020-07-10T10:30:15Z</time>
      </trkpt>
      <trkpt lat="37.9235004634" lon="-6.0792451724">
        <ele>551.45</ele>
        <time>2020-07-10T10:30:26Z</time>
      </trkpt>
      <trkpt lat="37.9235669319" lon="-6.0795677081">
        <ele>551.45</ele>
        <time>2020-07-10T10:30:36Z</time>
      </trkpt>
      <trkpt lat="37.9235953465" lon="-6.0799232684">
        <ele>550.49</ele>
        <time>2020-07-10T10:30:45Z</time>
      </trkpt>
      <trkpt lat="37.9235819355" lon="-6.0803103447">
        <ele>549.05</ele>
        <time>2020-07-10T10:30:52Z</time>
      </trkpt>
      <trkpt lat="37.9235532694" lon="-6.0810042825">
        <ele>548.09</ele>
        <time>2020-07-10T10:31:02Z</time>
      </trkpt>
      <trkpt lat="37.9235367570" lon="-6.0816742480">
        <ele>545.20</ele>
        <time>2020-07-10T10:31:10Z</time>
      </trkpt>
      <trkpt lat="37.9235812649" lon="-6.0824117716">
        <ele>544.24</ele>
        <time>2020-07-10T10:31:18Z</time>
      </trkpt>
      <trkpt lat="37.9236043990" lon="-6.0824986920">
        <ele>544.24</ele>
        <time>2020-07-10T10:31:19Z</time>
      </trkpt>
      <trkpt lat="37.9236299638" lon="-6.0825762246">
        <ele>544.24</ele>
        <time>2020-07-10T10:31:20Z</time>
      </trkpt>
      <trkpt lat="37.9236605577" lon="-6.0826525837">
        <ele>544.24</ele>
        <time>2020-07-10T10:31:21Z</time>
      </trkpt>
      <trkpt lat="37.9236940015" lon="-6.0827290267">
        <ele>544.24</ele>
        <time>2020-07-10T10:31:22Z</time>
      </trkpt>
      <trkpt lat="37.9238911439" lon="-6.0833230522">
        <ele>543.76</ele>
        <time>2020-07-10T10:31:30Z</time>
      </trkpt>
      <trkpt lat="37.9239586182" lon="-6.0836428218">
        <ele>544.72</ele>
        <time>2020-07-10T10:31:36Z</time>
      </trkpt>
      <trkpt lat="37.9240493942" lon="-6.0839403793">
        <ele>546.17</ele>
        <time>2020-07-10T10:31:45Z</time>
      </trkpt>
      <trkpt lat="37.9241930600" lon="-6.0841397848">
        <ele>547.61</ele>
        <time>2020-07-10T10:31:54Z</time>
      </trkpt>
      <trkpt lat="37.9243718460" lon="-6.0843276232">
        <ele>548.57</ele>
        <time>2020-07-10T10:32:04Z</time>
      </trkpt>
      <trkpt lat="37.9245254863" lon="-6.0845019668">
        <ele>550.49</ele>
        <time>2020-07-10T10:32:14Z</time>
      </trkpt>
      <trkpt lat="37.9246352892" lon="-6.0846096743">
        <ele>551.45</ele>
        <time>2020-07-10T10:32:22Z</time>
      </trkpt>
      <trkpt lat="37.9248202778" lon="-6.0847187229">
        <ele>552.41</ele>
        <time>2020-07-10T10:32:30Z</time>
      </trkpt>
      <trkpt lat="37.9250582401" lon="-6.0847784858">
        <ele>552.41</ele>
        <time>2020-07-10T10:32:39Z</time>
      </trkpt>
      <trkpt lat="37.9250629339" lon="-6.0847712774">
        <ele>552.41</ele>
        <time>2020-07-10T10:32:46Z</time>
      </trkpt>
      <trkpt lat="37.9250562284" lon="-6.0847749654">
        <ele>553.86</ele>
        <time>2020-07-10T10:33:01Z</time>
      </trkpt>
      <trkpt lat="37.9250658676" lon="-6.0847788211">
        <ele>553.86</ele>
        <time>2020-07-10T10:33:08Z</time>
      </trkpt>
      <trkpt lat="37.9250671249" lon="-6.0847783182">
        <ele>555.30</ele>
        <time>2020-07-10T10:33:25Z</time>
      </trkpt>
      <trkpt lat="37.9250502773" lon="-6.0847783182">
        <ele>555.78</ele>
        <time>2020-07-10T10:33:42Z</time>
      </trkpt>
      <trkpt lat="37.9250470921" lon="-6.0847877897">
        <ele>556.74</ele>
        <time>2020-07-10T10:33:58Z</time>
      </trkpt>
      <trkpt lat="37.9250536300" lon="-6.0847867839">
        <ele>556.26</ele>
        <time>2020-07-10T10:34:10Z</time>
      </trkpt>
      <trkpt lat="37.9250663705" lon="-6.0847876221">
        <ele>555.30</ele>
        <time>2020-07-10T10:34:25Z</time>
      </trkpt>
      <trkpt lat="37.9250686336" lon="-6.0847859457">
        <ele>555.30</ele>
        <time>2020-07-10T10:34:45Z</time>
      </trkpt>
      <trkpt lat="37.9250879120" lon="-6.0847846046">
        <ele>555.30</ele>
        <time>2020-07-10T10:34:58Z</time>
      </trkpt>
      <trkpt lat="37.9250900913" lon="-6.0847804137">
        <ele>557.22</ele>
        <time>2020-07-10T10:35:08Z</time>
      </trkpt>
      <trkpt lat="37.9250838887" lon="-6.0847815033">
        <ele>556.26</ele>
        <time>2020-07-10T10:35:25Z</time>
      </trkpt>
      <trkpt lat="37.9250763450" lon="-6.0847900528">
        <ele>556.74</ele>
        <time>2020-07-10T10:35:44Z</time>
      </trkpt>
      <trkpt lat="37.9250812903" lon="-6.0847807489">
        <ele>557.70</ele>
        <time>2020-07-10T10:36:01Z</time>
      </trkpt>
      <trkpt lat="37.9250868224" lon="-6.0847745463">
        <ele>556.26</ele>
        <time>2020-07-10T10:36:22Z</time>
      </trkpt>
      <trkpt lat="37.9251422267" lon="-6.0848013684">
        <ele>556.26</ele>
        <time>2020-07-10T10:36:34Z</time>
      </trkpt>
      <trkpt lat="37.9253382795" lon="-6.0848505702">
        <ele>554.82</ele>
        <time>2020-07-10T10:36:41Z</time>
      </trkpt>
      <trkpt lat="37.9255432170" lon="-6.0850118380">
        <ele>553.86</ele>
        <time>2020-07-10T10:36:48Z</time>
      </trkpt>
      <trkpt lat="37.9256153014" lon="-6.0851708427">
        <ele>553.86</ele>
        <time>2020-07-10T10:36:53Z</time>
      </trkpt>
      <trkpt lat="37.9256699514" lon="-6.0852917936">
        <ele>553.86</ele>
        <time>2020-07-10T10:36:59Z</time>
      </trkpt>
      <trkpt lat="37.9257279541" lon="-6.0854778718">
        <ele>554.82</ele>
        <time>2020-07-10T10:37:07Z</time>
      </trkpt>
      <trkpt lat="37.9257981107" lon="-6.0856664646">
        <ele>556.74</ele>
        <time>2020-07-10T10:37:16Z</time>
      </trkpt>
      <trkpt lat="37.9258700274" lon="-6.0858431552">
        <ele>558.18</ele>
        <time>2020-07-10T10:37:24Z</time>
      </trkpt>
      <trkpt lat="37.9259525891" lon="-6.0860351007">
        <ele>558.18</ele>
        <time>2020-07-10T10:37:33Z</time>
      </trkpt>
      <trkpt lat="37.9260299541" lon="-6.0862547904">
        <ele>557.70</ele>
        <time>2020-07-10T10:37:42Z</time>
      </trkpt>
      <trkpt lat="37.9261317104" lon="-6.0865034815">
        <ele>556.74</ele>
        <time>2020-07-10T10:37:52Z</time>
      </trkpt>
      <trkpt lat="37.9262498114" lon="-6.0867108498">
        <ele>556.74</ele>
        <time>2020-07-10T10:38:01Z</time>
      </trkpt>
      <trkpt lat="37.9264067207" lon="-6.0869154520">
        <ele>557.22</ele>
        <time>2020-07-10T10:38:11Z</time>
      </trkpt>
      <trkpt lat="37.9265705869" lon="-6.0870982613">
        <ele>557.22</ele>
        <time>2020-07-10T10:38:21Z</time>
      </trkpt>
      <trkpt lat="37.9267454334" lon="-6.0873071384">
        <ele>558.66</ele>
        <time>2020-07-10T10:38:32Z</time>
      </trkpt>
      <trkpt lat="37.9268855788" lon="-6.0874603596">
        <ele>560.11</ele>
        <time>2020-07-10T10:38:41Z</time>
      </trkpt>
      <trkpt lat="37.9270132352" lon="-6.0876029357">
        <ele>559.62</ele>
        <time>2020-07-10T10:38:48Z</time>
      </trkpt>
      <trkpt lat="37.9272052646" lon="-6.0878650378">
        <ele>558.66</ele>
        <time>2020-07-10T10:38:55Z</time>
      </trkpt>
      <trkpt lat="37.9272335954" lon="-6.0879135691">
        <ele>558.66</ele>
        <time>2020-07-10T10:38:56Z</time>
      </trkpt>
      <trkpt lat="37.9275275487" lon="-6.0884890705">
        <ele>557.22</ele>
        <time>2020-07-10T10:39:06Z</time>
      </trkpt>
      <trkpt lat="37.9276748188" lon="-6.0888515040">
        <ele>557.70</ele>
        <time>2020-07-10T10:39:14Z</time>
      </trkpt>
      <trkpt lat="37.9277315643" lon="-6.0890721995">
        <ele>558.18</ele>
        <time>2020-07-10T10:39:22Z</time>
      </trkpt>
      <trkpt lat="37.9277714621" lon="-6.0894068051">
        <ele>559.14</ele>
        <time>2020-07-10T10:39:35Z</time>
      </trkpt>
      <trkpt lat="37.9278106056" lon="-6.0896318592">
        <ele>560.59</ele>
        <time>2020-07-10T10:39:44Z</time>
      </trkpt>
      <trkpt lat="37.9278953467" lon="-6.0898420773">
        <ele>561.07</ele>
        <time>2020-07-10T10:39:53Z</time>
      </trkpt>
      <trkpt lat="37.9280209076" lon="-6.0899709072">
        <ele>561.07</ele>
        <time>2020-07-10T10:40:01Z</time>
      </trkpt>
      <trkpt lat="37.9282545950" lon="-6.0900759324">
        <ele>560.11</ele>
        <time>2020-07-10T10:40:08Z</time>
      </trkpt>
      <trkpt lat="37.9282968398" lon="-6.0901002400">
        <ele>559.62</ele>
        <time>2020-07-10T10:40:09Z</time>
      </trkpt>
      <trkpt lat="37.9283414315" lon="-6.0901306663">
        <ele>559.62</ele>
        <time>2020-07-10T10:40:10Z</time>
      </trkpt>
      <trkpt lat="37.9283845983" lon="-6.0901669599">
        <ele>559.14</ele>
        <time>2020-07-10T10:40:11Z</time>
      </trkpt>
      <trkpt lat="37.9286618717" lon="-6.0904899985">
        <ele>557.70</ele>
        <time>2020-07-10T10:40:17Z</time>
      </trkpt>
      <trkpt lat="37.9288465250" lon="-6.0907900706">
        <ele>556.74</ele>
        <time>2020-07-10T10:40:21Z</time>
      </trkpt>
      <trkpt lat="37.9289081320" lon="-6.0908473190">
        <ele>556.26</ele>
        <time>2020-07-10T10:40:22Z</time>
      </trkpt>
      <trkpt lat="37.9289798811" lon="-6.0908922460">
        <ele>555.78</ele>
        <time>2020-07-10T10:40:23Z</time>
      </trkpt>
      <trkpt lat="37.9290533066" lon="-6.0909207445">
        <ele>555.78</ele>
        <time>2020-07-10T10:40:24Z</time>
      </trkpt>
      <trkpt lat="37.9291299172" lon="-6.0909375083">
        <ele>555.30</ele>
        <time>2020-07-10T10:40:25Z</time>
      </trkpt>
      <trkpt lat="37.9292134009" lon="-6.0909484886">
        <ele>555.30</ele>
        <time>2020-07-10T10:40:26Z</time>
      </trkpt>
      <trkpt lat="37.9299247731" lon="-6.0910131130">
        <ele>551.93</ele>
        <time>2020-07-10T10:40:34Z</time>
      </trkpt>
      <trkpt lat="37.9300915729" lon="-6.0910424497">
        <ele>551.93</ele>
        <time>2020-07-10T10:40:36Z</time>
      </trkpt>
      <trkpt lat="37.9301613104" lon="-6.0910711158">
        <ele>552.41</ele>
        <time>2020-07-10T10:40:37Z</time>
      </trkpt>
      <trkpt lat="37.9302204028" lon="-6.0911078285">
        <ele>552.41</ele>
        <time>2020-07-10T10:40:38Z</time>
      </trkpt>
      <trkpt lat="37.9302714486" lon="-6.0911571141">
        <ele>552.90</ele>
        <time>2020-07-10T10:40:39Z</time>
      </trkpt>
      <trkpt lat="37.9303074069" lon="-6.0912105907">
        <ele>552.90</ele>
        <time>2020-07-10T10:40:40Z</time>
      </trkpt>
      <trkpt lat="37.9303343128" lon="-6.0912695155">
        <ele>553.38</ele>
        <time>2020-07-10T10:40:41Z</time>
      </trkpt>
      <trkpt lat="37.9303556029" lon="-6.0913322959">
        <ele>553.38</ele>
        <time>2020-07-10T10:40:42Z</time>
      </trkpt>
      <trkpt lat="37.9303714447" lon="-6.0913915560">
        <ele>553.38</ele>
        <time>2020-07-10T10:40:43Z</time>
      </trkpt>
      <trkpt lat="37.9304146115" lon="-6.0916275065">
        <ele>553.38</ele>
        <time>2020-07-10T10:40:47Z</time>
      </trkpt>
      <trkpt lat="37.9304251727" lon="-6.0916857608">
        <ele>553.38</ele>
        <time>2020-07-10T10:40:48Z</time>
      </trkpt>
      <trkpt lat="37.9304307885" lon="-6.0917411651">
        <ele>553.38</ele>
        <time>2020-07-10T10:40:49Z</time>
      </trkpt>
      <trkpt lat="37.9304380808" lon="-6.0917931329">
        <ele>552.90</ele>
        <time>2020-07-10T10:40:50Z</time>
      </trkpt>
      <trkpt lat="37.9304453731" lon="-6.0918428376">
        <ele>552.90</ele>
        <time>2020-07-10T10:40:51Z</time>
      </trkpt>
      <trkpt lat="37.9304514918" lon="-6.0918930452">
        <ele>552.90</ele>
        <time>2020-07-10T10:40:52Z</time>
      </trkpt>
      <trkpt lat="37.9304600414" lon="-6.0919441748">
        <ele>552.90</ele>
        <time>2020-07-10T10:40:53Z</time>
      </trkpt>
      <trkpt lat="37.9304634780" lon="-6.0919919517">
        <ele>552.90</ele>
        <time>2020-07-10T10:40:54Z</time>
      </trkpt>
      <trkpt lat="37.9304945748" lon="-6.0922206938">
        <ele>552.90</ele>
        <time>2020-07-10T10:40:59Z</time>
      </trkpt>
      <trkpt lat="37.9305371549" lon="-6.0924508609">
        <ele>553.86</ele>
        <time>2020-07-10T10:41:06Z</time>
      </trkpt>
      <trkpt lat="37.9305925593" lon="-6.0927462392">
        <ele>554.82</ele>
        <time>2020-07-10T10:41:15Z</time>
      </trkpt>
      <trkpt lat="37.9306581058" lon="-6.0930187348">
        <ele>555.30</ele>
        <time>2020-07-10T10:41:23Z</time>
      </trkpt>
      <trkpt lat="37.9307635501" lon="-6.0933192261">
        <ele>556.74</ele>
        <time>2020-07-10T10:41:33Z</time>
      </trkpt>
      <trkpt lat="37.9308611993" lon="-6.0935197212">
        <ele>557.22</ele>
        <time>2020-07-10T10:41:41Z</time>
      </trkpt>
      <trkpt lat="37.9309937172" lon="-6.0937621258">
        <ele>557.70</ele>
        <time>2020-07-10T10:41:51Z</time>
      </trkpt>
      <trkpt lat="37.9311009217" lon="-6.0939538199">
        <ele>558.66</ele>
        <time>2020-07-10T10:42:00Z</time>
      </trkpt>
      <trkpt lat="37.9312272370" lon="-6.0941711627">
        <ele>559.14</ele>
        <time>2020-07-10T10:42:09Z</time>
      </trkpt>
      <trkpt lat="37.9313190188" lon="-6.0943584144">
        <ele>559.14</ele>
        <time>2020-07-10T10:42:17Z</time>
      </trkpt>
      <trkpt lat="37.9313760996" lon="-6.0945074446">
        <ele>559.14</ele>
        <time>2020-07-10T10:42:23Z</time>
      </trkpt>
      <trkpt lat="37.9314771015" lon="-6.0947967041">
        <ele>557.70</ele>
        <time>2020-07-10T10:42:30Z</time>
      </trkpt>
      <trkpt lat="37.9315221123" lon="-6.0950132925">
        <ele>556.74</ele>
        <time>2020-07-10T10:42:33Z</time>
      </trkpt>
      <trkpt lat="37.9315299913" lon="-6.0951033980">
        <ele>556.26</ele>
        <time>2020-07-10T10:42:34Z</time>
      </trkpt>
      <trkpt lat="37.9315309972" lon="-6.0951962695">
        <ele>555.30</ele>
        <time>2020-07-10T10:42:35Z</time>
      </trkpt>
      <trkpt lat="37.9315253813" lon="-6.0952977743">
        <ele>554.82</ele>
        <time>2020-07-10T10:42:36Z</time>
      </trkpt>
      <trkpt lat="37.9315156583" lon="-6.0953948367">
        <ele>554.34</ele>
        <time>2020-07-10T10:42:37Z</time>
      </trkpt>
      <trkpt lat="37.9314999003" lon="-6.0954967607">
        <ele>553.86</ele>
        <time>2020-07-10T10:42:38Z</time>
      </trkpt>
      <trkpt lat="37.9313838948" lon="-6.0961839091">
        <ele>549.05</ele>
        <time>2020-07-10T10:42:44Z</time>
      </trkpt>
      <trkpt lat="37.9313530494" lon="-6.0970429704">
        <ele>543.76</ele>
        <time>2020-07-10T10:42:50Z</time>
      </trkpt>
      <trkpt lat="37.9313364532" lon="-6.0977644846">
        <ele>540.40</ele>
        <time>2020-07-10T10:42:55Z</time>
      </trkpt>
      <trkpt lat="37.9313043505" lon="-6.0979001038">
        <ele>539.92</ele>
        <time>2020-07-10T10:42:56Z</time>
      </trkpt>
      <trkpt lat="37.9312575795" lon="-6.0980208870">
        <ele>538.96</ele>
        <time>2020-07-10T10:42:57Z</time>
      </trkpt>
      <trkpt lat="37.9312005825" lon="-6.0981342942">
        <ele>538.48</ele>
        <time>2020-07-10T10:42:58Z</time>
      </trkpt>
      <trkpt lat="37.9311424121" lon="-6.0982416663">
        <ele>537.99</ele>
        <time>2020-07-10T10:42:59Z</time>
      </trkpt>
      <trkpt lat="37.9308627918" lon="-6.0987627693">
        <ele>535.59</ele>
        <time>2020-07-10T10:43:04Z</time>
      </trkpt>
      <trkpt lat="37.9308267497" lon="-6.0988727398">
        <ele>535.59</ele>
        <time>2020-07-10T10:43:05Z</time>
      </trkpt>
      <trkpt lat="37.9307990894" lon="-6.0989879072">
        <ele>535.11</ele>
        <time>2020-07-10T10:43:06Z</time>
      </trkpt>
      <trkpt lat="37.9307797272" lon="-6.0990940221">
        <ele>535.11</ele>
        <time>2020-07-10T10:43:07Z</time>
      </trkpt>
      <trkpt lat="37.9307653941" lon="-6.0991978738">
        <ele>535.11</ele>
        <time>2020-07-10T10:43:08Z</time>
      </trkpt>
      <trkpt lat="37.9307499714" lon="-6.0994043201">
        <ele>535.11</ele>
        <time>2020-07-10T10:43:10Z</time>
      </trkpt>
      <trkpt lat="37.9307565931" lon="-6.0995049868">
        <ele>535.59</ele>
        <time>2020-07-10T10:43:11Z</time>
      </trkpt>
      <trkpt lat="37.9307752848" lon="-6.0995945893">
        <ele>536.07</ele>
        <time>2020-07-10T10:43:12Z</time>
      </trkpt>
      <trkpt lat="37.9308029450" lon="-6.0996694397">
        <ele>536.55</ele>
        <time>2020-07-10T10:43:13Z</time>
      </trkpt>
      <trkpt lat="37.9308370594" lon="-6.0997322202">
        <ele>537.03</ele>
        <time>2020-07-10T10:43:14Z</time>
      </trkpt>
      <trkpt lat="37.9308696650" lon="-6.0997778177">
        <ele>537.51</ele>
        <time>2020-07-10T10:43:15Z</time>
      </trkpt>
      <trkpt lat="37.9308986664" lon="-6.0998152848">
        <ele>537.99</ele>
        <time>2020-07-10T10:43:16Z</time>
      </trkpt>
      <trkpt lat="37.9310085531" lon="-6.0999523290">
        <ele>539.44</ele>
        <time>2020-07-10T10:43:22Z</time>
      </trkpt>
      <trkpt lat="37.9310929589" lon="-6.1000529118">
        <ele>540.40</ele>
        <time>2020-07-10T10:43:29Z</time>
      </trkpt>
      <trkpt lat="37.9312081262" lon="-6.1001836695">
        <ele>542.32</ele>
        <time>2020-07-10T10:43:38Z</time>
      </trkpt>
      <trkpt lat="37.9313378781" lon="-6.1002314463">
        <ele>543.28</ele>
        <time>2020-07-10T10:43:46Z</time>
      </trkpt>
      <trkpt lat="37.9314878304" lon="-6.1002012715">
        <ele>545.20</ele>
        <time>2020-07-10T10:43:55Z</time>
      </trkpt>
      <trkpt lat="37.9315218609" lon="-6.1001869384">
        <ele>546.17</ele>
        <time>2020-07-10T10:44:01Z</time>
      </trkpt>
      <trkpt lat="37.9315462522" lon="-6.1001772154">
        <ele>546.65</ele>
        <time>2020-07-10T10:44:09Z</time>
      </trkpt>
      <trkpt lat="37.9315896705" lon="-6.1001508962">
        <ele>546.17</ele>
        <time>2020-07-10T10:44:16Z</time>
      </trkpt>
      <trkpt lat="37.9317236971" lon="-6.1000626348">
        <ele>547.13</ele>
        <time>2020-07-10T10:44:29Z</time>
      </trkpt>
      <trkpt lat="37.9318650160" lon="-6.0999698471">
        <ele>548.57</ele>
        <time>2020-07-10T10:44:41Z</time>
      </trkpt>
      <trkpt lat="37.9319054168" lon="-6.0999223217">
        <ele>549.05</ele>
        <time>2020-07-10T10:44:49Z</time>
      </trkpt>
      <trkpt lat="37.9319120385" lon="-6.0999192204">
        <ele>548.57</ele>
        <time>2020-07-10T10:44:56Z</time>
      </trkpt>
      <trkpt lat="37.9319098592" lon="-6.0999169573">
        <ele>549.05</ele>
        <time>2020-07-10T10:45:07Z</time>
      </trkpt>
      <trkpt lat="37.9319047462" lon="-6.0999208968">
        <ele>550.49</ele>
        <time>2020-07-10T10:45:18Z</time>
      </trkpt>
      <trkpt lat="37.9319012258" lon="-6.0999114253">
        <ele>550.97</ele>
        <time>2020-07-10T10:45:30Z</time>
      </trkpt>
      <trkpt lat="37.9319334961" lon="-6.0999133531">
        <ele>548.57</ele>
        <time>2020-07-10T10:45:50Z</time>
      </trkpt>
      <trkpt lat="37.9319532774" lon="-6.0999017861">
        <ele>547.61</ele>
        <time>2020-07-10T10:46:07Z</time>
      </trkpt>
      <trkpt lat="37.9319198336" lon="-6.0998972598">
        <ele>548.09</ele>
        <time>2020-07-10T10:46:32Z</time>
      </trkpt>
      <trkpt lat="37.9318894073" lon="-6.0999136046">
        <ele>549.53</ele>
        <time>2020-07-10T10:47:00Z</time>
      </trkpt>
      <trkpt lat="37.9319017287" lon="-6.0999141075">
        <ele>550.49</ele>
        <time>2020-07-10T10:47:24Z</time>
      </trkpt>
      <trkpt lat="37.9319026507" lon="-6.0999138560">
        <ele>548.57</ele>
        <time>2020-07-10T10:47:52Z</time>
      </trkpt>
      <trkpt lat="37.9319138825" lon="-6.0999123473">
        <ele>548.09</ele>
        <time>2020-07-10T10:48:15Z</time>
      </trkpt>
      <trkpt lat="37.9319147207" lon="-6.0999333020">
        <ele>550.49</ele>
        <time>2020-07-10T10:48:39Z</time>
      </trkpt>
      <trkpt lat="37.9319239408" lon="-6.0999426898">
        <ele>551.93</ele>
        <time>2020-07-10T10:49:01Z</time>
      </trkpt>
      <trkpt lat="37.9319269583" lon="-6.0999308713">
        <ele>552.41</ele>
        <time>2020-07-10T10:49:26Z</time>
      </trkpt>
      <trkpt lat="37.9319324065" lon="-6.0999179631">
        <ele>550.97</ele>
        <time>2020-07-10T10:49:52Z</time>
      </trkpt>
      <trkpt lat="37.9319298919" lon="-6.0999142751">
        <ele>551.93</ele>
        <time>2020-07-10T10:50:18Z</time>
      </trkpt>
      <trkpt lat="37.9319325741" lon="-6.0999428574">
        <ele>553.86</ele>
        <time>2020-07-10T10:50:48Z</time>
      </trkpt>
      <trkpt lat="37.9319280479" lon="-6.0999432765">
        <ele>555.30</ele>
        <time>2020-07-10T10:51:18Z</time>
      </trkpt>
      <trkpt lat="37.9319299757" lon="-6.0999522451">
        <ele>552.41</ele>
        <time>2020-07-10T10:51:44Z</time>
      </trkpt>
      <trkpt lat="37.9319193307" lon="-6.0999503173">
        <ele>552.90</ele>
        <time>2020-07-10T10:51:58Z</time>
      </trkpt>
      <trkpt lat="37.9318992142" lon="-6.0999396723">
        <ele>552.90</ele>
        <time>2020-07-10T10:52:23Z</time>
      </trkpt>
      <trkpt lat="37.9319064226" lon="-6.0999347270">
        <ele>552.90</ele>
        <time>2020-07-10T10:52:46Z</time>
      </trkpt>
      <trkpt lat="37.9319214262" lon="-6.0999408457">
        <ele>551.93</ele>
        <time>2020-07-10T10:53:06Z</time>
      </trkpt>
      <trkpt lat="37.9319125414" lon="-6.0999372415">
        <ele>552.41</ele>
        <time>2020-07-10T10:53:27Z</time>
      </trkpt>
      <trkpt lat="37.9319161456" lon="-6.0999235790">
        <ele>551.45</ele>
        <time>2020-07-10T10:53:42Z</time>
      </trkpt>
      <trkpt lat="37.9319195822" lon="-6.0999195557">
        <ele>551.93</ele>
        <time>2020-07-10T10:53:58Z</time>
      </trkpt>
      <trkpt lat="37.9319051653" lon="-6.0999327153">
        <ele>553.38</ele>
        <time>2020-07-10T10:54:20Z</time>
      </trkpt>
      <trkpt lat="37.9319226835" lon="-6.0999142751">
        <ele>552.41</ele>
        <time>2020-07-10T10:54:33Z</time>
      </trkpt>
      <trkpt lat="37.9319855478" lon="-6.0998802446">
        <ele>552.41</ele>
        <time>2020-07-10T10:54:41Z</time>
      </trkpt>
      <trkpt lat="37.9320940934" lon="-6.0997942463">
        <ele>553.86</ele>
        <time>2020-07-10T10:54:51Z</time>
      </trkpt>
      <trkpt lat="37.9320918303" lon="-6.0997814219">
        <ele>552.90</ele>
        <time>2020-07-10T10:55:01Z</time>
      </trkpt>
      <trkpt lat="37.9321450554" lon="-6.0997520015">
        <ele>552.90</ele>
        <time>2020-07-10T10:55:07Z</time>
      </trkpt>
      <trkpt lat="37.9322675150" lon="-6.0996681824">
        <ele>553.86</ele>
        <time>2020-07-10T10:55:15Z</time>
      </trkpt>
      <trkpt lat="37.9324167967" lon="-6.0995539371">
        <ele>554.82</ele>
        <time>2020-07-10T10:55:26Z</time>
      </trkpt>
      <trkpt lat="37.9325556010" lon="-6.0994496662">
        <ele>556.26</ele>
        <time>2020-07-10T10:55:36Z</time>
      </trkpt>
      <trkpt lat="37.9326744564" lon="-6.0993801802">
        <ele>557.70</ele>
        <time>2020-07-10T10:55:44Z</time>
      </trkpt>
      <trkpt lat="37.9328410048" lon="-6.0993168969">
        <ele>559.14</ele>
        <time>2020-07-10T10:55:54Z</time>
      </trkpt>
      <trkpt lat="37.9328575172" lon="-6.0993143823">
        <ele>559.62</ele>
        <time>2020-07-10T10:55:55Z</time>
      </trkpt>
      <trkpt lat="37.9328745324" lon="-6.0993096884">
        <ele>559.62</ele>
        <time>2020-07-10T10:55:56Z</time>
      </trkpt>
      <trkpt lat="37.9330730159" lon="-6.0992538650">
        <ele>560.59</ele>
        <time>2020-07-10T10:56:08Z</time>
      </trkpt>
      <trkpt lat="37.9332143348" lon="-6.0992613249">
        <ele>560.59</ele>
        <time>2020-07-10T10:56:17Z</time>
      </trkpt>
      <trkpt lat="37.9333594255" lon="-6.0993052460">
        <ele>560.59</ele>
        <time>2020-07-10T10:56:27Z</time>
      </trkpt>
      <trkpt lat="37.9335719068" lon="-6.0993681103">
        <ele>561.55</ele>
        <time>2020-07-10T10:56:39Z</time>
      </trkpt>
      <trkpt lat="37.9337290674" lon="-6.0994372610">
        <ele>562.51</ele>
        <time>2020-07-10T10:56:48Z</time>
      </trkpt>
      <trkpt lat="37.9338768404" lon="-6.0995334852">
        <ele>563.47</ele>
        <time>2020-07-10T10:56:57Z</time>
      </trkpt>
      <trkpt lat="37.9340365157" lon="-6.0997156240">
        <ele>563.47</ele>
        <time>2020-07-10T10:57:08Z</time>
      </trkpt>
      <trkpt lat="37.9342370946" lon="-6.0999715235">
        <ele>562.03</ele>
        <time>2020-07-10T10:57:15Z</time>
      </trkpt>
      <trkpt lat="37.9344979394" lon="-6.1003069673">
        <ele>560.11</ele>
        <time>2020-07-10T10:57:21Z</time>
      </trkpt>
      <trkpt lat="37.9348092433" lon="-6.1007662117">
        <ele>557.70</ele>
        <time>2020-07-10T10:57:27Z</time>
      </trkpt>
      <trkpt lat="37.9348469619" lon="-6.1008651182">
        <ele>556.74</ele>
        <time>2020-07-10T10:57:28Z</time>
      </trkpt>
      <trkpt lat="37.9350662325" lon="-6.1016224232">
        <ele>554.34</ele>
        <time>2020-07-10T10:57:35Z</time>
      </trkpt>
      <trkpt lat="37.9353295919" lon="-6.1026180256">
        <ele>551.45</ele>
        <time>2020-07-10T10:57:44Z</time>
      </trkpt>
      <trkpt lat="37.9355331045" lon="-6.1032545473">
        <ele>549.05</ele>
        <time>2020-07-10T10:57:50Z</time>
      </trkpt>
      <trkpt lat="37.9355828092" lon="-6.1033473350">
        <ele>548.57</ele>
        <time>2020-07-10T10:57:51Z</time>
      </trkpt>
      <trkpt lat="37.9359602463" lon="-6.1039456353">
        <ele>546.65</ele>
        <time>2020-07-10T10:57:58Z</time>
      </trkpt>
      <trkpt lat="37.9363209195" lon="-6.1045363918">
        <ele>546.17</ele>
        <time>2020-07-10T10:58:05Z</time>
      </trkpt>
      <trkpt lat="37.9365103506" lon="-6.1049611866">
        <ele>547.13</ele>
        <time>2020-07-10T10:58:11Z</time>
      </trkpt>
      <trkpt lat="37.9366973508" lon="-6.1052722391">
        <ele>547.61</ele>
        <time>2020-07-10T10:58:18Z</time>
      </trkpt>
      <trkpt lat="37.9369167052" lon="-6.1055230256">
        <ele>548.09</ele>
        <time>2020-07-10T10:58:27Z</time>
      </trkpt>
      <trkpt lat="37.9372144304" lon="-6.1058564577">
        <ele>547.61</ele>
        <time>2020-07-10T10:58:38Z</time>
      </trkpt>
      <trkpt lat="37.9374798853" lon="-6.1061317194">
        <ele>547.13</ele>
        <time>2020-07-10T10:58:48Z</time>
      </trkpt>
      <trkpt lat="37.9376437515" lon="-6.1063123494">
        <ele>547.13</ele>
        <time>2020-07-10T10:58:56Z</time>
      </trkpt>
      <trkpt lat="37.9378342722" lon="-6.1065176222">
        <ele>547.13</ele>
        <time>2020-07-10T10:59:05Z</time>
      </trkpt>
      <trkpt lat="37.9380538780" lon="-6.1067582667">
        <ele>547.61</ele>
        <time>2020-07-10T10:59:15Z</time>
      </trkpt>
      <trkpt lat="37.9382451531" lon="-6.1069663055">
        <ele>548.09</ele>
        <time>2020-07-10T10:59:24Z</time>
      </trkpt>
      <trkpt lat="37.9384489171" lon="-6.1071964726">
        <ele>548.57</ele>
        <time>2020-07-10T10:59:34Z</time>
      </trkpt>
      <trkpt lat="37.9386036471" lon="-6.1073664576">
        <ele>549.05</ele>
        <time>2020-07-10T10:59:42Z</time>
      </trkpt>
      <trkpt lat="37.9388311319" lon="-6.1076068506">
        <ele>549.53</ele>
        <time>2020-07-10T10:59:54Z</time>
      </trkpt>
      <trkpt lat="37.9390553478" lon="-6.1078587268">
        <ele>550.97</ele>
        <time>2020-07-10T11:00:06Z</time>
      </trkpt>
      <trkpt lat="37.9392134305" lon="-6.1080318969">
        <ele>550.97</ele>
        <time>2020-07-10T11:00:15Z</time>
      </trkpt>
      <trkpt lat="37.9393116664" lon="-6.1082267761">
        <ele>551.45</ele>
        <time>2020-07-10T11:00:23Z</time>
      </trkpt>
      <trkpt lat="37.9393602815" lon="-6.1084043887">
        <ele>551.93</ele>
        <time>2020-07-10T11:00:31Z</time>
      </trkpt>
      <trkpt lat="37.9394021910" lon="-6.1086545046">
        <ele>552.90</ele>
        <time>2020-07-10T11:00:42Z</time>
      </trkpt>
      <trkpt lat="37.9394069687" lon="-6.1089100689">
        <ele>552.90</ele>
        <time>2020-07-10T11:00:52Z</time>
      </trkpt>
      <trkpt lat="37.9394047055" lon="-6.1091530602">
        <ele>553.38</ele>
        <time>2020-07-10T11:01:02Z</time>
      </trkpt>
      <trkpt lat="37.9393854272" lon="-6.1093919445">
        <ele>553.86</ele>
        <time>2020-07-10T11:01:12Z</time>
      </trkpt>
      <trkpt lat="37.9393571801" lon="-6.1096113827">
        <ele>554.82</ele>
        <time>2020-07-10T11:01:21Z</time>
      </trkpt>
      <trkpt lat="37.9393304419" lon="-6.1097594909">
        <ele>554.34</ele>
        <time>2020-07-10T11:01:28Z</time>
      </trkpt>
      <trkpt lat="37.9392990936" lon="-6.1099812761">
        <ele>554.82</ele>
        <time>2020-07-10T11:01:38Z</time>
      </trkpt>
      <trkpt lat="37.9392715171" lon="-6.1101577152">
        <ele>555.30</ele>
        <time>2020-07-10T11:01:46Z</time>
      </trkpt>
      <trkpt lat="37.9392363131" lon="-6.1103569530">
        <ele>555.78</ele>
        <time>2020-07-10T11:01:55Z</time>
      </trkpt>
      <trkpt lat="37.9392172024" lon="-6.1105859466">
        <ele>557.22</ele>
        <time>2020-07-10T11:02:04Z</time>
      </trkpt>
      <trkpt lat="37.9392419290" lon="-6.1108440254">
        <ele>557.70</ele>
        <time>2020-07-10T11:02:14Z</time>
      </trkpt>
      <trkpt lat="37.9392907955" lon="-6.1111390684">
        <ele>556.74</ele>
        <time>2020-07-10T11:02:26Z</time>
      </trkpt>
      <trkpt lat="37.9393223953" lon="-6.1113207880">
        <ele>556.26</ele>
        <time>2020-07-10T11:02:33Z</time>
      </trkpt>
      <trkpt lat="37.9393885285" lon="-6.1116123945">
        <ele>556.26</ele>
        <time>2020-07-10T11:02:41Z</time>
      </trkpt>
      <trkpt lat="37.9394802265" lon="-6.1120962817">
        <ele>554.34</ele>
        <time>2020-07-10T11:02:50Z</time>
      </trkpt>
      <trkpt lat="37.9395682365" lon="-6.1125071626">
        <ele>553.86</ele>
        <time>2020-07-10T11:02:59Z</time>
      </trkpt>
      <trkpt lat="37.9396665562" lon="-6.1128179636">
        <ele>553.86</ele>
        <time>2020-07-10T11:03:07Z</time>
      </trkpt>
      <trkpt lat="37.9397932068" lon="-6.1131639685">
        <ele>554.34</ele>
        <time>2020-07-10T11:03:15Z</time>
      </trkpt>
      <trkpt lat="37.9399821348" lon="-6.1136865802">
        <ele>555.78</ele>
        <time>2020-07-10T11:03:27Z</time>
      </trkpt>
      <trkpt lat="37.9401252978" lon="-6.1140801944">
        <ele>557.22</ele>
        <time>2020-07-10T11:03:36Z</time>
      </trkpt>
      <trkpt lat="37.9403180815" lon="-6.1145428754">
        <ele>559.62</ele>
        <time>2020-07-10T11:03:47Z</time>
      </trkpt>
      <trkpt lat="37.9404345900" lon="-6.1148172151">
        <ele>559.62</ele>
        <time>2020-07-10T11:03:55Z</time>
      </trkpt>
      <trkpt lat="37.9405504279" lon="-6.1151573528">
        <ele>558.66</ele>
        <time>2020-07-10T11:04:02Z</time>
      </trkpt>
      <trkpt lat="37.9407049902" lon="-6.1156195309">
        <ele>556.74</ele>
        <time>2020-07-10T11:04:08Z</time>
      </trkpt>
      <trkpt lat="37.9409423657" lon="-6.1163433921">
        <ele>552.90</ele>
        <time>2020-07-10T11:04:15Z</time>
      </trkpt>
      <trkpt lat="37.9411659110" lon="-6.1170949973">
        <ele>548.57</ele>
        <time>2020-07-10T11:04:21Z</time>
      </trkpt>
      <trkpt lat="37.9411818366" lon="-6.1172315385">
        <ele>548.09</ele>
        <time>2020-07-10T11:04:22Z</time>
      </trkpt>
      <trkpt lat="37.9411879554" lon="-6.1173794791">
        <ele>546.65</ele>
        <time>2020-07-10T11:04:23Z</time>
      </trkpt>
      <trkpt lat="37.9411388375" lon="-6.1184095312">
        <ele>541.36</ele>
        <time>2020-07-10T11:04:30Z</time>
      </trkpt>
      <trkpt lat="37.9411804117" lon="-6.1190883815">
        <ele>539.44</ele>
        <time>2020-07-10T11:04:35Z</time>
      </trkpt>
      <trkpt lat="37.9414308630" lon="-6.1201015860">
        <ele>536.07</ele>
        <time>2020-07-10T11:04:43Z</time>
      </trkpt>
      <trkpt lat="37.9416250717" lon="-6.1208455637">
        <ele>536.07</ele>
        <time>2020-07-10T11:04:50Z</time>
      </trkpt>
      <trkpt lat="37.9417690728" lon="-6.1213009525">
        <ele>536.55</ele>
        <time>2020-07-10T11:04:56Z</time>
      </trkpt>
      <trkpt lat="37.9418690689" lon="-6.1218109075">
        <ele>538.48</ele>
        <time>2020-07-10T11:05:04Z</time>
      </trkpt>
      <trkpt lat="37.9419369623" lon="-6.1224983074">
        <ele>537.99</ele>
        <time>2020-07-10T11:05:14Z</time>
      </trkpt>
      <trkpt lat="37.9419713281" lon="-6.1227194220">
        <ele>537.03</ele>
        <time>2020-07-10T11:05:17Z</time>
      </trkpt>
      <trkpt lat="37.9419842362" lon="-6.1227615830">
        <ele>537.03</ele>
        <time>2020-07-10T11:05:18Z</time>
      </trkpt>
      <trkpt lat="37.9419952165" lon="-6.1227888241">
        <ele>536.55</ele>
        <time>2020-07-10T11:05:19Z</time>
      </trkpt>
      <trkpt lat="37.9420007486" lon="-6.1228091922">
        <ele>536.55</ele>
        <time>2020-07-10T11:05:20Z</time>
      </trkpt>
      <trkpt lat="37.9420061968" lon="-6.1228208430">
        <ele>537.51</ele>
        <time>2020-07-10T11:05:26Z</time>
      </trkpt>
      <trkpt lat="37.9419896845" lon="-6.1228424683">
        <ele>538.48</ele>
        <time>2020-07-10T11:05:39Z</time>
      </trkpt>
      <trkpt lat="37.9419823084" lon="-6.1228458211">
        <ele>537.51</ele>
        <time>2020-07-10T11:05:52Z</time>
      </trkpt>
      <trkpt lat="37.9419748485" lon="-6.1228857189">
        <ele>537.51</ele>
        <time>2020-07-10T11:06:02Z</time>
      </trkpt>
      <trkpt lat="37.9420143273" lon="-6.1230799276">
        <ele>537.51</ele>
        <time>2020-07-10T11:06:08Z</time>
      </trkpt>
      <trkpt lat="37.9421208613" lon="-6.1235233303">
        <ele>535.11</ele>
        <time>2020-07-10T11:06:16Z</time>
      </trkpt>
      <trkpt lat="37.9421497788" lon="-6.1235895474">
        <ele>534.63</ele>
        <time>2020-07-10T11:06:17Z</time>
      </trkpt>
      <trkpt lat="37.9421837255" lon="-6.1236516573">
        <ele>534.15</ele>
        <time>2020-07-10T11:06:18Z</time>
      </trkpt>
      <trkpt lat="37.9424557183" lon="-6.1240117438">
        <ele>531.75</ele>
        <time>2020-07-10T11:06:24Z</time>
      </trkpt>
      <trkpt lat="37.9426455684" lon="-6.1243465170">
        <ele>530.79</ele>
        <time>2020-07-10T11:06:29Z</time>
      </trkpt>
      <trkpt lat="37.9426665232" lon="-6.1244105548">
        <ele>530.79</ele>
        <time>2020-07-10T11:06:30Z</time>
      </trkpt>
      <trkpt lat="37.9426823650" lon="-6.1244779453">
        <ele>530.79</ele>
        <time>2020-07-10T11:06:31Z</time>
      </trkpt>
      <trkpt lat="37.9426922556" lon="-6.1245412286">
        <ele>531.27</ele>
        <time>2020-07-10T11:06:32Z</time>
      </trkpt>
      <trkpt lat="37.9426972009" lon="-6.1245978903">
        <ele>531.27</ele>
        <time>2020-07-10T11:06:33Z</time>
      </trkpt>
      <trkpt lat="37.9427008890" lon="-6.1246446613">
        <ele>531.75</ele>
        <time>2020-07-10T11:06:34Z</time>
      </trkpt>
      <trkpt lat="37.9426999670" lon="-6.1246834695">
        <ele>532.23</ele>
        <time>2020-07-10T11:06:35Z</time>
      </trkpt>
      <trkpt lat="37.9426959436" lon="-6.1247175001">
        <ele>532.23</ele>
        <time>2020-07-10T11:06:36Z</time>
      </trkpt>
      <trkpt lat="37.9426906630" lon="-6.1247511115">
        <ele>532.71</ele>
        <time>2020-07-10T11:06:37Z</time>
      </trkpt>
      <trkpt lat="37.9426868912" lon="-6.1247831304">
        <ele>533.19</ele>
        <time>2020-07-10T11:06:38Z</time>
      </trkpt>
      <trkpt lat="37.9426231049" lon="-6.1249653529">
        <ele>535.59</ele>
        <time>2020-07-10T11:06:45Z</time>
      </trkpt>
      <trkpt lat="37.9426029883" lon="-6.1250175722">
        <ele>536.07</ele>
        <time>2020-07-10T11:06:48Z</time>
      </trkpt>
      <trkpt lat="37.9426036589" lon="-6.1250314862">
        <ele>536.07</ele>
        <time>2020-07-10T11:06:49Z</time>
      </trkpt>
      <trkpt lat="37.9426000547" lon="-6.1250469089">
        <ele>536.55</ele>
        <time>2020-07-10T11:06:50Z</time>
      </trkpt>
      <trkpt lat="37.9425927624" lon="-6.1250639241">
        <ele>536.55</ele>
        <time>2020-07-10T11:06:51Z</time>
      </trkpt>
      <trkpt lat="37.9425853025" lon="-6.1250828672">
        <ele>537.03</ele>
        <time>2020-07-10T11:06:52Z</time>
      </trkpt>
      <trkpt lat="37.9425785132" lon="-6.1251039896">
        <ele>537.03</ele>
        <time>2020-07-10T11:06:53Z</time>
      </trkpt>
      <trkpt lat="37.9425714724" lon="-6.1251266208">
        <ele>537.03</ele>
        <time>2020-07-10T11:06:54Z</time>
      </trkpt>
      <trkpt lat="37.9425663594" lon="-6.1251469050">
        <ele>537.03</ele>
        <time>2020-07-10T11:06:55Z</time>
      </trkpt>
      <trkpt lat="37.9425337538" lon="-6.1253483221">
        <ele>538.48</ele>
        <time>2020-07-10T11:07:04Z</time>
      </trkpt>
      <trkpt lat="37.9425326642" lon="-6.1255502421">
        <ele>540.88</ele>
        <time>2020-07-10T11:07:13Z</time>
      </trkpt>
      <trkpt lat="37.9425737355" lon="-6.1257649027">
        <ele>541.84</ele>
        <time>2020-07-10T11:07:22Z</time>
      </trkpt>
      <trkpt lat="37.9426865559" lon="-6.1259651463">
        <ele>542.80</ele>
        <time>2020-07-10T11:07:32Z</time>
      </trkpt>
      <trkpt lat="37.9428547807" lon="-6.1262015998">
        <ele>543.76</ele>
        <time>2020-07-10T11:07:45Z</time>
      </trkpt>
      <trkpt lat="37.9430134501" lon="-6.1263907794">
        <ele>545.69</ele>
        <time>2020-07-10T11:07:56Z</time>
      </trkpt>
      <trkpt lat="37.9432048928" lon="-6.1266315077">
        <ele>548.09</ele>
        <time>2020-07-10T11:08:09Z</time>
      </trkpt>
      <trkpt lat="37.9433093313" lon="-6.1267897580">
        <ele>548.09</ele>
        <time>2020-07-10T11:08:19Z</time>
      </trkpt>
      <trkpt lat="37.9433198087" lon="-6.1267962120">
        <ele>549.05</ele>
        <time>2020-07-10T11:08:27Z</time>
      </trkpt>
      <trkpt lat="37.9433249217" lon="-6.1268068571">
        <ele>548.57</ele>
        <time>2020-07-10T11:08:42Z</time>
      </trkpt>
      <trkpt lat="37.9433225747" lon="-6.1268148199">
        <ele>547.61</ele>
        <time>2020-07-10T11:08:57Z</time>
      </trkpt>
      <trkpt lat="37.9433311243" lon="-6.1268011574">
        <ele>547.61</ele>
        <time>2020-07-10T11:09:10Z</time>
      </trkpt>
      <trkpt lat="37.9433630593" lon="-6.1268764269">
        <ele>548.09</ele>
        <time>2020-07-10T11:09:18Z</time>
      </trkpt>
      <trkpt lat="37.9433870316" lon="-6.1269169953">
        <ele>548.09</ele>
        <time>2020-07-10T11:09:25Z</time>
      </trkpt>
      <trkpt lat="37.9433804099" lon="-6.1269310769">
        <ele>548.09</ele>
        <time>2020-07-10T11:09:40Z</time>
      </trkpt>
      <trkpt lat="37.9433850199" lon="-6.1269310769">
        <ele>546.65</ele>
        <time>2020-07-10T11:09:55Z</time>
      </trkpt>
      <trkpt lat="37.9433903005" lon="-6.1269444041">
        <ele>545.20</ele>
        <time>2020-07-10T11:10:06Z</time>
      </trkpt>
      <trkpt lat="37.9433768895" lon="-6.1269351002">
        <ele>544.24</ele>
        <time>2020-07-10T11:10:24Z</time>
      </trkpt>
      <trkpt lat="37.9433906358" lon="-6.1269380338">
        <ele>547.61</ele>
        <time>2020-07-10T11:10:43Z</time>
      </trkpt>
      <trkpt lat="37.9433821701" lon="-6.1269291490">
        <ele>547.61</ele>
        <time>2020-07-10T11:11:03Z</time>
      </trkpt>
      <trkpt lat="37.9433997720" lon="-6.1269060150">
        <ele>545.69</ele>
        <time>2020-07-10T11:11:27Z</time>
      </trkpt>
      <trkpt lat="37.9433919769" lon="-6.1269086972">
        <ele>546.17</ele>
        <time>2020-07-10T11:11:49Z</time>
      </trkpt>
      <trkpt lat="37.9433851875" lon="-6.1269160733">
        <ele>548.09</ele>
        <time>2020-07-10T11:12:17Z</time>
      </trkpt>
      <trkpt lat="37.9433887918" lon="-6.1269025784">
        <ele>546.17</ele>
        <time>2020-07-10T11:12:44Z</time>
      </trkpt>
      <trkpt lat="37.9433782306" lon="-6.1269171629">
        <ele>546.17</ele>
        <time>2020-07-10T11:13:10Z</time>
      </trkpt>
      <trkpt lat="37.9433763865" lon="-6.1269049253">
        <ele>545.20</ele>
        <time>2020-07-10T11:13:29Z</time>
      </trkpt>
      <trkpt lat="37.9433785658" lon="-6.1269230302">
        <ele>545.69</ele>
        <time>2020-07-10T11:13:51Z</time>
      </trkpt>
      <trkpt lat="37.9433711898" lon="-6.1269209348">
        <ele>546.17</ele>
        <time>2020-07-10T11:14:11Z</time>
      </trkpt>
      <trkpt lat="37.9433752131" lon="-6.1269190907">
        <ele>550.01</ele>
        <time>2020-07-10T11:14:35Z</time>
      </trkpt>
      <trkpt lat="37.9433659092" lon="-6.1269275565">
        <ele>547.13</ele>
        <time>2020-07-10T11:15:03Z</time>
      </trkpt>
      <trkpt lat="37.9433739558" lon="-6.1269413866">
        <ele>548.09</ele>
        <time>2020-07-10T11:15:22Z</time>
      </trkpt>
      <trkpt lat="37.9433799069" lon="-6.1269344296">
        <ele>549.53</ele>
        <time>2020-07-10T11:15:44Z</time>
      </trkpt>
      <trkpt lat="37.9433681723" lon="-6.1269169115">
        <ele>550.97</ele>
        <time>2020-07-10T11:16:10Z</time>
      </trkpt>
      <trkpt lat="37.9433788173" lon="-6.1269094516">
        <ele>550.49</ele>
        <time>2020-07-10T11:16:25Z</time>
      </trkpt>
      <trkpt lat="37.9433889594" lon="-6.1269174982">
        <ele>550.01</ele>
        <time>2020-07-10T11:16:40Z</time>
      </trkpt>
      <trkpt lat="37.9433907196" lon="-6.1269151513">
        <ele>550.01</ele>
        <time>2020-07-10T11:16:56Z</time>
      </trkpt>
      <trkpt lat="37.9433840979" lon="-6.1269516125">
        <ele>550.97</ele>
        <time>2020-07-10T11:17:03Z</time>
      </trkpt>
      <trkpt lat="37.9434068967" lon="-6.1270385329">
        <ele>550.01</ele>
        <time>2020-07-10T11:17:10Z</time>
      </trkpt>
      <trkpt lat="37.9434390832" lon="-6.1271694582">
        <ele>548.57</ele>
        <time>2020-07-10T11:17:13Z</time>
      </trkpt>
      <trkpt lat="37.9434725270" lon="-6.1275805067">
        <ele>545.69</ele>
        <time>2020-07-10T11:17:19Z</time>
      </trkpt>
      <trkpt lat="37.9434982594" lon="-6.1282836646">
        <ele>542.32</ele>
        <time>2020-07-10T11:17:27Z</time>
      </trkpt>
      <trkpt lat="37.9435286857" lon="-6.1291853897">
        <ele>538.96</ele>
        <time>2020-07-10T11:17:36Z</time>
      </trkpt>
      <trkpt lat="37.9435601179" lon="-6.1296862923">
        <ele>539.92</ele>
        <time>2020-07-10T11:17:42Z</time>
      </trkpt>
      <trkpt lat="37.9435939807" lon="-6.1299907230">
        <ele>541.84</ele>
        <time>2020-07-10T11:17:48Z</time>
      </trkpt>
      <trkpt lat="37.9436725192" lon="-6.1304279231">
        <ele>543.28</ele>
        <time>2020-07-10T11:17:57Z</time>
      </trkpt>
      <trkpt lat="37.9437962361" lon="-6.1308679730">
        <ele>540.40</ele>
        <time>2020-07-10T11:18:05Z</time>
      </trkpt>
      <trkpt lat="37.9439999163" lon="-6.1313427240">
        <ele>537.51</ele>
        <time>2020-07-10T11:18:11Z</time>
      </trkpt>
      <trkpt lat="37.9442279879" lon="-6.1316786706">
        <ele>534.63</ele>
        <time>2020-07-10T11:18:15Z</time>
      </trkpt>
      <trkpt lat="37.9442944564" lon="-6.1317422893">
        <ele>534.63</ele>
        <time>2020-07-10T11:18:16Z</time>
      </trkpt>
      <trkpt lat="37.9446017370" lon="-6.1320232507">
        <ele>532.23</ele>
        <time>2020-07-10T11:18:20Z</time>
      </trkpt>
      <trkpt lat="37.9446713068" lon="-6.1321136076">
        <ele>531.75</ele>
        <time>2020-07-10T11:18:21Z</time>
      </trkpt>
      <trkpt lat="37.9447260406" lon="-6.1322145257">
        <ele>531.27</ele>
        <time>2020-07-10T11:18:22Z</time>
      </trkpt>
      <trkpt lat="37.9447690398" lon="-6.1323359795">
        <ele>530.79</ele>
        <time>2020-07-10T11:18:23Z</time>
      </trkpt>
      <trkpt lat="37.9447946046" lon="-6.1324567627">
        <ele>529.82</ele>
        <time>2020-07-10T11:18:24Z</time>
      </trkpt>
      <trkpt lat="37.9448086862" lon="-6.1325887777">
        <ele>529.34</ele>
        <time>2020-07-10T11:18:25Z</time>
      </trkpt>
      <trkpt lat="37.9448081832" lon="-6.1327331141">
        <ele>528.38</ele>
        <time>2020-07-10T11:18:26Z</time>
      </trkpt>
      <trkpt lat="37.9448018130" lon="-6.1328706611">
        <ele>527.42</ele>
        <time>2020-07-10T11:18:27Z</time>
      </trkpt>
      <trkpt lat="37.9447928444" lon="-6.1330252234">
        <ele>526.46</ele>
        <time>2020-07-10T11:18:28Z</time>
      </trkpt>
      <trkpt lat="37.9447839595" lon="-6.1337832827">
        <ele>521.17</ele>
        <time>2020-07-10T11:18:33Z</time>
      </trkpt>
      <trkpt lat="37.9448102787" lon="-6.1339429580">
        <ele>520.69</ele>
        <time>2020-07-10T11:18:34Z</time>
      </trkpt>
      <trkpt lat="37.9448716342" lon="-6.1346450262">
        <ele>518.77</ele>
        <time>2020-07-10T11:18:39Z</time>
      </trkpt>
      <trkpt lat="37.9448681138" lon="-6.1354626808">
        <ele>518.77</ele>
        <time>2020-07-10T11:18:46Z</time>
      </trkpt>
      <trkpt lat="37.9448903259" lon="-6.1355756689">
        <ele>518.77</ele>
        <time>2020-07-10T11:18:47Z</time>
      </trkpt>
      <trkpt lat="37.9450722970" lon="-6.1362215783">
        <ele>518.77</ele>
        <time>2020-07-10T11:18:54Z</time>
      </trkpt>
      <trkpt lat="37.9452850297" lon="-6.1370813940">
        <ele>516.85</ele>
        <time>2020-07-10T11:19:04Z</time>
      </trkpt>
      <trkpt lat="37.9454255104" lon="-6.1376676243">
        <ele>514.92</ele>
        <time>2020-07-10T11:19:11Z</time>
      </trkpt>
      <trkpt lat="37.9454911407" lon="-6.1380026489">
        <ele>514.44</ele>
        <time>2020-07-10T11:19:15Z</time>
      </trkpt>
      <trkpt lat="37.9454974271" lon="-6.1380793434">
        <ele>514.44</ele>
        <time>2020-07-10T11:19:16Z</time>
      </trkpt>
      <trkpt lat="37.9454704374" lon="-6.1387224868">
        <ele>512.52</ele>
        <time>2020-07-10T11:19:24Z</time>
      </trkpt>
      <trkpt lat="37.9454265162" lon="-6.1394263152">
        <ele>511.56</ele>
        <time>2020-07-10T11:19:32Z</time>
      </trkpt>
      <trkpt lat="37.9454039689" lon="-6.1398279760">
        <ele>512.52</ele>
        <time>2020-07-10T11:19:38Z</time>
      </trkpt>
      <trkpt lat="37.9454162065" lon="-6.1401182413">
        <ele>513.00</ele>
        <time>2020-07-10T11:19:45Z</time>
      </trkpt>
      <trkpt lat="37.9454761371" lon="-6.1403860431">
        <ele>511.56</ele>
        <time>2020-07-10T11:19:51Z</time>
      </trkpt>
      <trkpt lat="37.9455761332" lon="-6.1408348940">
        <ele>508.67</ele>
        <time>2020-07-10T11:19:57Z</time>
      </trkpt>
      <trkpt lat="37.9456856009" lon="-6.1412021890">
        <ele>506.27</ele>
        <time>2020-07-10T11:20:01Z</time>
      </trkpt>
      <trkpt lat="37.9459934682" lon="-6.1417719908">
        <ele>504.35</ele>
        <time>2020-07-10T11:20:07Z</time>
      </trkpt>
      <trkpt lat="37.9463377967" lon="-6.1423249450">
        <ele>504.35</ele>
        <time>2020-07-10T11:20:14Z</time>
      </trkpt>
      <trkpt lat="37.9463869985" lon="-6.1423861329">
        <ele>504.83</ele>
        <time>2020-07-10T11:20:15Z</time>
      </trkpt>
      <trkpt lat="37.9465870745" lon="-6.1426069960">
        <ele>506.75</ele>
        <time>2020-07-10T11:20:20Z</time>
      </trkpt>
      <trkpt lat="37.9467292316" lon="-6.1427502427">
        <ele>508.19</ele>
        <time>2020-07-10T11:20:26Z</time>
      </trkpt>
      <trkpt lat="37.9468837101" lon="-6.1428965069">
        <ele>509.16</ele>
        <time>2020-07-10T11:20:34Z</time>
      </trkpt>
      <trkpt lat="37.9470614903" lon="-6.1430733651">
        <ele>510.60</ele>
        <time>2020-07-10T11:20:43Z</time>
      </trkpt>
      <trkpt lat="37.9472321458" lon="-6.1432798114">
        <ele>512.04</ele>
        <time>2020-07-10T11:20:53Z</time>
      </trkpt>
      <trkpt lat="37.9473751411" lon="-6.1434697453">
        <ele>513.48</ele>
        <time>2020-07-10T11:21:02Z</time>
      </trkpt>
      <trkpt lat="37.9475276079" lon="-6.1436616071">
        <ele>513.96</ele>
        <time>2020-07-10T11:21:12Z</time>
      </trkpt>
      <trkpt lat="37.9476970900" lon="-6.1438502837">
        <ele>513.00</ele>
        <time>2020-07-10T11:21:19Z</time>
      </trkpt>
      <trkpt lat="37.9477263428" lon="-6.1438911874">
        <ele>513.00</ele>
        <time>2020-07-10T11:21:20Z</time>
      </trkpt>
      <trkpt lat="37.9477581102" lon="-6.1439403053">
        <ele>513.00</ele>
        <time>2020-07-10T11:21:21Z</time>
      </trkpt>
      <trkpt lat="37.9477882851" lon="-6.1439949553">
        <ele>512.52</ele>
        <time>2020-07-10T11:21:22Z</time>
      </trkpt>
      <trkpt lat="37.9479511455" lon="-6.1444609892">
        <ele>510.12</ele>
        <time>2020-07-10T11:21:28Z</time>
      </trkpt>
      <trkpt lat="37.9481007624" lon="-6.1450316291">
        <ele>505.79</ele>
        <time>2020-07-10T11:21:34Z</time>
      </trkpt>
      <trkpt lat="37.9481135868" lon="-6.1451231595">
        <ele>505.31</ele>
        <time>2020-07-10T11:21:35Z</time>
      </trkpt>
      <trkpt lat="37.9481248185" lon="-6.1453085672">
        <ele>504.35</ele>
        <time>2020-07-10T11:21:37Z</time>
      </trkpt>
      <trkpt lat="37.9481310211" lon="-6.1459092144">
        <ele>500.02</ele>
        <time>2020-07-10T11:21:43Z</time>
      </trkpt>
      <trkpt lat="37.9482057877" lon="-6.1462953687">
        <ele>497.14</ele>
        <time>2020-07-10T11:21:49Z</time>
      </trkpt>
      <trkpt lat="37.9483368807" lon="-6.1467811838">
        <ele>495.70</ele>
        <time>2020-07-10T11:21:56Z</time>
      </trkpt>
      <trkpt lat="37.9483911116" lon="-6.1469932459">
        <ele>494.74</ele>
        <time>2020-07-10T11:22:00Z</time>
      </trkpt>
      <trkpt lat="37.9484097194" lon="-6.1470475607">
        <ele>494.26</ele>
        <time>2020-07-10T11:22:01Z</time>
      </trkpt>
      <trkpt lat="37.9485670477" lon="-6.1475456133">
        <ele>493.29</ele>
        <time>2020-07-10T11:22:09Z</time>
      </trkpt>
      <trkpt lat="37.9486977216" lon="-6.1479837354">
        <ele>491.85</ele>
        <time>2020-07-10T11:22:16Z</time>
      </trkpt>
      <trkpt lat="37.9488069378" lon="-6.1484140623">
        <ele>489.93</ele>
        <time>2020-07-10T11:22:23Z</time>
      </trkpt>
      <trkpt lat="37.9488299880" lon="-6.1485485919">
        <ele>489.45</ele>
        <time>2020-07-10T11:22:25Z</time>
      </trkpt>
      <trkpt lat="37.9489626735" lon="-6.1492170487">
        <ele>488.01</ele>
        <time>2020-07-10T11:22:34Z</time>
      </trkpt>
      <trkpt lat="37.9490643460" lon="-6.1499044485">
        <ele>486.56</ele>
        <time>2020-07-10T11:22:43Z</time>
      </trkpt>
      <trkpt lat="37.9491755739" lon="-6.1504790280">
        <ele>484.64</ele>
        <time>2020-07-10T11:22:50Z</time>
      </trkpt>
      <trkpt lat="37.9492429644" lon="-6.1508168187">
        <ele>483.68</ele>
        <time>2020-07-10T11:22:56Z</time>
      </trkpt>
      <trkpt lat="37.9493088461" lon="-6.1512163840">
        <ele>482.24</ele>
        <time>2020-07-10T11:23:03Z</time>
      </trkpt>
      <trkpt lat="37.9494080041" lon="-6.1515578628">
        <ele>481.28</ele>
        <time>2020-07-10T11:23:09Z</time>
      </trkpt>
      <trkpt lat="37.9494235106" lon="-6.1516332999">
        <ele>480.80</ele>
        <time>2020-07-10T11:23:11Z</time>
      </trkpt>
      <trkpt lat="37.9494169727" lon="-6.1516705994">
        <ele>480.80</ele>
        <time>2020-07-10T11:23:12Z</time>
      </trkpt>
      <trkpt lat="37.9494019691" lon="-6.1517095752">
        <ele>480.32</ele>
        <time>2020-07-10T11:23:13Z</time>
      </trkpt>
      <trkpt lat="37.9493796732" lon="-6.1517431028">
        <ele>480.32</ele>
        <time>2020-07-10T11:23:14Z</time>
      </trkpt>
      <trkpt lat="37.9493549466" lon="-6.1517721880">
        <ele>480.32</ele>
        <time>2020-07-10T11:23:15Z</time>
      </trkpt>
      <trkpt lat="37.9492561240" lon="-6.1518782191">
        <ele>480.32</ele>
        <time>2020-07-10T11:23:21Z</time>
      </trkpt>
      <trkpt lat="37.9492471553" lon="-6.1518951505">
        <ele>480.80</ele>
        <time>2020-07-10T11:23:22Z</time>
      </trkpt>
      <trkpt lat="37.9492360912" lon="-6.1519126687">
        <ele>481.28</ele>
        <time>2020-07-10T11:23:23Z</time>
      </trkpt>
      <trkpt lat="37.9492084309" lon="-6.1519630440">
        <ele>481.76</ele>
        <time>2020-07-10T11:23:29Z</time>
      </trkpt>
      <trkpt lat="37.9492121190" lon="-6.1519668158">
        <ele>482.72</ele>
        <time>2020-07-10T11:23:37Z</time>
      </trkpt>
      <trkpt lat="37.9492292181" lon="-6.1519682407">
        <ele>483.20</ele>
        <time>2020-07-10T11:23:49Z</time>
      </trkpt>
      <trkpt lat="37.9492319003" lon="-6.1519612838">
        <ele>484.16</ele>
        <time>2020-07-10T11:24:02Z</time>
      </trkpt>
      <trkpt lat="37.9492401145" lon="-6.1519595236">
        <ele>484.16</ele>
        <time>2020-07-10T11:24:08Z</time>
      </trkpt>
      <trkpt lat="37.9492443893" lon="-6.1519581825">
        <ele>484.16</ele>
        <time>2020-07-10T11:24:19Z</time>
      </trkpt>
      <trkpt lat="37.9492460657" lon="-6.1519488785">
        <ele>485.12</ele>
        <time>2020-07-10T11:24:32Z</time>
      </trkpt>
      <trkpt lat="37.9492382705" lon="-6.1519435141">
        <ele>484.16</ele>
        <time>2020-07-10T11:24:44Z</time>
      </trkpt>
      <trkpt lat="37.9492339958" lon="-6.1519428436">
        <ele>482.72</ele>
        <time>2020-07-10T11:24:55Z</time>
      </trkpt>
      <trkpt lat="37.9492462333" lon="-6.1519420892">
        <ele>482.24</ele>
        <time>2020-07-10T11:25:11Z</time>
      </trkpt>
      <trkpt lat="37.9492589738" lon="-6.1519380659">
        <ele>482.72</ele>
        <time>2020-07-10T11:25:28Z</time>
      </trkpt>
      <trkpt lat="37.9492591415" lon="-6.1519414186">
        <ele>482.72</ele>
        <time>2020-07-10T11:25:43Z</time>
      </trkpt>
      <trkpt lat="37.9492558725" lon="-6.1519503035">
        <ele>481.76</ele>
        <time>2020-07-10T11:25:57Z</time>
      </trkpt>
      <trkpt lat="37.9492612369" lon="-6.1519508064">
        <ele>481.76</ele>
        <time>2020-07-10T11:26:12Z</time>
      </trkpt>
      <trkpt lat="37.9492660146" lon="-6.1519551650">
        <ele>481.28</ele>
        <time>2020-07-10T11:26:22Z</time>
      </trkpt>
      <trkpt lat="37.9492662661" lon="-6.1519496329">
        <ele>481.28</ele>
        <time>2020-07-10T11:26:34Z</time>
      </trkpt>
      <trkpt lat="37.9492591415" lon="-6.1519401614">
        <ele>480.80</ele>
        <time>2020-07-10T11:26:53Z</time>
      </trkpt>
      <trkpt lat="37.9492658470" lon="-6.1519400775">
        <ele>480.80</ele>
        <time>2020-07-10T11:27:07Z</time>
      </trkpt>
      <trkpt lat="37.9492718820" lon="-6.1519485433">
        <ele>480.80</ele>
        <time>2020-07-10T11:27:24Z</time>
      </trkpt>
      <trkpt lat="37.9492762405" lon="-6.1519581825">
        <ele>479.84</ele>
        <time>2020-07-10T11:27:44Z</time>
      </trkpt>
      <trkpt lat="37.9492769949" lon="-6.1519603617">
        <ele>479.35</ele>
        <time>2020-07-10T11:28:00Z</time>
      </trkpt>
      <trkpt lat="37.9492719658" lon="-6.1519586854">
        <ele>479.35</ele>
        <time>2020-07-10T11:28:17Z</time>
      </trkpt>
      <trkpt lat="37.9492627457" lon="-6.1519622896">
        <ele>479.84</ele>
        <time>2020-07-10T11:28:33Z</time>
      </trkpt>
      <trkpt lat="37.9492617399" lon="-6.1519611999">
        <ele>480.32</ele>
        <time>2020-07-10T11:28:50Z</time>
      </trkpt>
      <trkpt lat="37.9492541961" lon="-6.1519610323">
        <ele>480.80</ele>
        <time>2020-07-10T11:29:09Z</time>
      </trkpt>
      <trkpt lat="37.9492532741" lon="-6.1519634631">
        <ele>480.32</ele>
        <time>2020-07-10T11:29:31Z</time>
      </trkpt>
      <trkpt lat="37.9492489994" lon="-6.1519672349">
        <ele>480.32</ele>
        <time>2020-07-10T11:29:54Z</time>
      </trkpt>
      <trkpt lat="37.9492545314" lon="-6.1519655585">
        <ele>481.28</ele>
        <time>2020-07-10T11:30:12Z</time>
      </trkpt>
      <trkpt lat="37.9492606502" lon="-6.1519577634">
        <ele>482.24</ele>
        <time>2020-07-10T11:30:34Z</time>
      </trkpt>
      <trkpt lat="37.9492589738" lon="-6.1519488785">
        <ele>482.72</ele>
        <time>2020-07-10T11:30:53Z</time>
      </trkpt>
      <trkpt lat="37.9492543638" lon="-6.1519565061">
        <ele>482.72</ele>
        <time>2020-07-10T11:31:10Z</time>
      </trkpt>
      <trkpt lat="37.9492527712" lon="-6.1519487109">
        <ele>482.72</ele>
        <time>2020-07-10T11:31:26Z</time>
      </trkpt>
      <trkpt lat="37.9492497537" lon="-6.1519549135">
        <ele>482.24</ele>
        <time>2020-07-10T11:31:48Z</time>
      </trkpt>
      <trkpt lat="37.9492488317" lon="-6.1519701686">
        <ele>482.72</ele>
        <time>2020-07-10T11:31:56Z</time>
      </trkpt>
      <trkpt lat="37.9492515977" lon="-6.1519640498">
        <ele>482.24</ele>
        <time>2020-07-10T11:32:15Z</time>
      </trkpt>
      <trkpt lat="37.9492523521" lon="-6.1519552488">
        <ele>481.28</ele>
        <time>2020-07-10T11:32:38Z</time>
      </trkpt>
      <trkpt lat="37.9492566269" lon="-6.1519534048">
        <ele>481.28</ele>
        <time>2020-07-10T11:33:01Z</time>
      </trkpt>
      <trkpt lat="37.9492629971" lon="-6.1519503035">
        <ele>482.72</ele>
        <time>2020-07-10T11:33:25Z</time>
      </trkpt>
      <trkpt lat="37.9492707923" lon="-6.1519510578">
        <ele>483.20</ele>
        <time>2020-07-10T11:33:47Z</time>
      </trkpt>
      <trkpt lat="37.9492690321" lon="-6.1519576795">
        <ele>483.20</ele>
        <time>2020-07-10T11:34:06Z</time>
      </trkpt>
      <trkpt lat="37.9492638353" lon="-6.1519595236">
        <ele>483.20</ele>
        <time>2020-07-10T11:34:32Z</time>
      </trkpt>
      <trkpt lat="37.9492686968" lon="-6.1519536562">
        <ele>482.72</ele>
        <time>2020-07-10T11:34:53Z</time>
      </trkpt>
      <trkpt lat="37.9492721334" lon="-6.1519384012">
        <ele>484.64</ele>
        <time>2020-07-10T11:35:12Z</time>
      </trkpt>
      <trkpt lat="37.9492716305" lon="-6.1519401614">
        <ele>484.16</ele>
        <time>2020-07-10T11:35:32Z</time>
      </trkpt>
      <trkpt lat="37.9492728040" lon="-6.1519314442">
        <ele>486.08</ele>
        <time>2020-07-10T11:35:48Z</time>
      </trkpt>
      <trkpt lat="37.9492740612" lon="-6.1519195419">
        <ele>487.53</ele>
        <time>2020-07-10T11:36:04Z</time>
      </trkpt>
      <trkpt lat="37.9492686968" lon="-6.1519214697">
        <ele>488.01</ele>
        <time>2020-07-10T11:36:19Z</time>
      </trkpt>
      <trkpt lat="37.9492518492" lon="-6.1519285943">
        <ele>489.45</ele>
        <time>2020-07-10T11:36:43Z</time>
      </trkpt>
      <trkpt lat="37.9492469039" lon="-6.1519252416">
        <ele>489.93</ele>
        <time>2020-07-10T11:37:06Z</time>
      </trkpt>
      <trkpt lat="37.9492464010" lon="-6.1519250739">
        <ele>489.93</ele>
        <time>2020-07-10T11:37:23Z</time>
      </trkpt>
      <trkpt lat="37.9492438864" lon="-6.1519347131">
        <ele>489.93</ele>
        <time>2020-07-10T11:37:44Z</time>
      </trkpt>
      <trkpt lat="37.9492438026" lon="-6.1519362219">
        <ele>490.41</ele>
        <time>2020-07-10T11:38:13Z</time>
      </trkpt>
      <trkpt lat="37.9492422938" lon="-6.1519461963">
        <ele>489.45</ele>
        <time>2020-07-10T11:38:28Z</time>
      </trkpt>
      <trkpt lat="37.9492405336" lon="-6.1519414186">
        <ele>489.93</ele>
        <time>2020-07-10T11:38:45Z</time>
      </trkpt>
      <trkpt lat="37.9492294695" lon="-6.1519329529">
        <ele>489.45</ele>
        <time>2020-07-10T11:39:10Z</time>
      </trkpt>
      <trkpt lat="37.9492197465" lon="-6.1519331206">
        <ele>489.93</ele>
        <time>2020-07-10T11:39:37Z</time>
      </trkpt>
      <trkpt lat="37.9492238536" lon="-6.1519430112">
        <ele>490.41</ele>
        <time>2020-07-10T11:39:59Z</time>
      </trkpt>
      <trkpt lat="37.9492242727" lon="-6.1519374792">
        <ele>491.37</ele>
        <time>2020-07-10T11:40:22Z</time>
      </trkpt>
      <trkpt lat="37.9492226802" lon="-6.1519296002">
        <ele>490.41</ele>
        <time>2020-07-10T11:40:43Z</time>
      </trkpt>
      <trkpt lat="37.9492201656" lon="-6.1519306060">
        <ele>488.97</ele>
        <time>2020-07-10T11:41:10Z</time>
      </trkpt>
      <trkpt lat="37.9492132924" lon="-6.1519406643">
        <ele>488.01</ele>
        <time>2020-07-10T11:41:32Z</time>
      </trkpt>
      <trkpt lat="37.9492217582" lon="-6.1519430112">
        <ele>487.53</ele>
        <time>2020-07-10T11:41:53Z</time>
      </trkpt>
      <trkpt lat="37.9492319003" lon="-6.1519516446">
        <ele>486.08</ele>
        <time>2020-07-10T11:42:07Z</time>
      </trkpt>
      <trkpt lat="37.9492347501" lon="-6.1519541591">
        <ele>485.60</ele>
        <time>2020-07-10T11:42:23Z</time>
      </trkpt>
      <trkpt lat="37.9492342472" lon="-6.1519614514">
        <ele>485.60</ele>
        <time>2020-07-10T11:42:40Z</time>
      </trkpt>
      <trkpt lat="37.9492313974" lon="-6.1519696657">
        <ele>484.64</ele>
        <time>2020-07-10T11:42:49Z</time>
      </trkpt>
      <trkpt lat="37.9492412880" lon="-6.1519451067">
        <ele>488.01</ele>
        <time>2020-07-10T11:43:18Z</time>
      </trkpt>
      <trkpt lat="37.9492541123" lon="-6.1519446038">
        <ele>488.49</ele>
        <time>2020-07-10T11:43:40Z</time>
      </trkpt>
      <trkpt lat="37.9492593091" lon="-6.1519466992">
        <ele>488.49</ele>
        <time>2020-07-10T11:43:59Z</time>
      </trkpt>
      <trkpt lat="37.9492702894" lon="-6.1519474536">
        <ele>489.45</ele>
        <time>2020-07-10T11:44:15Z</time>
      </trkpt>
      <trkpt lat="37.9492708761" lon="-6.1519475374">
        <ele>488.49</ele>
        <time>2020-07-10T11:44:36Z</time>
      </trkpt>
      <trkpt lat="37.9492651764" lon="-6.1519429274">
        <ele>488.01</ele>
        <time>2020-07-10T11:44:56Z</time>
      </trkpt>
      <trkpt lat="37.9492672719" lon="-6.1519499682">
        <ele>487.05</ele>
        <time>2020-07-10T11:45:12Z</time>
      </trkpt>
      <trkpt lat="37.9492685292" lon="-6.1519556679">
        <ele>486.08</ele>
        <time>2020-07-10T11:45:29Z</time>
      </trkpt>
      <trkpt lat="37.9492575489" lon="-6.1519596074">
        <ele>486.08</ele>
        <time>2020-07-10T11:45:48Z</time>
      </trkpt>
      <trkpt lat="37.9492536932" lon="-6.1519547459">
        <ele>487.05</ele>
        <time>2020-07-10T11:46:07Z</time>
      </trkpt>
      <trkpt lat="37.9492498375" lon="-6.1519561708">
        <ele>486.56</ele>
        <time>2020-07-10T11:46:33Z</time>
      </trkpt>
      <trkpt lat="37.9492515977" lon="-6.1519469507">
        <ele>488.01</ele>
        <time>2020-07-10T11:46:53Z</time>
      </trkpt>
      <trkpt lat="37.9492485803" lon="-6.1519450229">
        <ele>488.97</ele>
        <time>2020-07-10T11:47:13Z</time>
      </trkpt>
      <trkpt lat="37.9492484126" lon="-6.1519394070">
        <ele>489.45</ele>
        <time>2020-07-10T11:47:25Z</time>
      </trkpt>
      <trkpt lat="37.9492445569" lon="-6.1519406643">
        <ele>488.49</ele>
        <time>2020-07-10T11:47:39Z</time>
      </trkpt>
      <trkpt lat="37.9492458142" lon="-6.1519358028">
        <ele>488.49</ele>
        <time>2020-07-10T11:47:51Z</time>
      </trkpt>
      <trkpt lat="37.9492427967" lon="-6.1519429274">
        <ele>488.49</ele>
        <time>2020-07-10T11:48:18Z</time>
      </trkpt>
      <trkpt lat="37.9492429644" lon="-6.1519433465">
        <ele>488.01</ele>
        <time>2020-07-10T11:48:37Z</time>
      </trkpt>
      <trkpt lat="37.9492400307" lon="-6.1519466992">
        <ele>488.97</ele>
        <time>2020-07-10T11:49:07Z</time>
      </trkpt>
      <trkpt lat="37.9492387734" lon="-6.1519469507">
        <ele>488.49</ele>
        <time>2020-07-10T11:49:20Z</time>
      </trkpt>
      <trkpt lat="37.9492395278" lon="-6.1519472860">
        <ele>488.49</ele>
        <time>2020-07-10T11:49:34Z</time>
      </trkpt>
      <trkpt lat="37.9492382705" lon="-6.1519503873">
        <ele>488.01</ele>
        <time>2020-07-10T11:49:49Z</time>
      </trkpt>
      <trkpt lat="37.9492358398" lon="-6.1519498844">
        <ele>489.45</ele>
        <time>2020-07-10T11:50:12Z</time>
      </trkpt>
      <trkpt lat="37.9492429644" lon="-6.1519477889">
        <ele>489.45</ele>
        <time>2020-07-10T11:50:27Z</time>
      </trkpt>
      <trkpt lat="37.9492473230" lon="-6.1519399099">
        <ele>490.41</ele>
        <time>2020-07-10T11:50:40Z</time>
      </trkpt>
      <trkpt lat="37.9492480773" lon="-6.1519294325">
        <ele>491.37</ele>
        <time>2020-07-10T11:50:56Z</time>
      </trkpt>
      <trkpt lat="37.9492444731" lon="-6.1519148480">
        <ele>492.81</ele>
        <time>2020-07-10T11:51:10Z</time>
      </trkpt>
      <trkpt lat="37.9492474906" lon="-6.1518948153">
        <ele>495.70</ele>
        <time>2020-07-10T11:51:28Z</time>
      </trkpt>
      <trkpt lat="37.9492547829" lon="-6.1518905405">
        <ele>497.62</ele>
        <time>2020-07-10T11:51:45Z</time>
      </trkpt>
      <trkpt lat="37.9492620751" lon="-6.1518914625">
        <ele>498.58</ele>
        <time>2020-07-10T11:51:57Z</time>
      </trkpt>
      <trkpt lat="37.9492649250" lon="-6.1519056279">
        <ele>498.58</ele>
        <time>2020-07-10T11:52:12Z</time>
      </trkpt>
      <trkpt lat="37.9492661823" lon="-6.1518980004">
        <ele>500.02</ele>
        <time>2020-07-10T11:52:26Z</time>
      </trkpt>
      <trkpt lat="37.9492730554" lon="-6.1518910434">
        <ele>500.02</ele>
        <time>2020-07-10T11:52:44Z</time>
      </trkpt>
      <trkpt lat="37.9492680263" lon="-6.1518981680">
        <ele>498.58</ele>
        <time>2020-07-10T11:52:59Z</time>
      </trkpt>
      <trkpt lat="37.9492595606" lon="-6.1519088969">
        <ele>498.10</ele>
        <time>2020-07-10T11:53:15Z</time>
      </trkpt>
      <trkpt lat="37.9492583871" lon="-6.1519145966">
        <ele>498.58</ele>
        <time>2020-07-10T11:53:25Z</time>
      </trkpt>
      <trkpt lat="37.9492547829" lon="-6.1519280076">
        <ele>497.14</ele>
        <time>2020-07-10T11:53:46Z</time>
      </trkpt>
      <trkpt lat="37.9492529389" lon="-6.1519297678">
        <ele>496.66</ele>
        <time>2020-07-10T11:54:00Z</time>
      </trkpt>
      <trkpt lat="37.9492569622" lon="-6.1519425083">
        <ele>494.74</ele>
        <time>2020-07-10T11:54:13Z</time>
      </trkpt>
      <trkpt lat="37.9492634162" lon="-6.1519351322">
        <ele>495.70</ele>
        <time>2020-07-10T11:54:34Z</time>
      </trkpt>
      <trkpt lat="37.9492692836" lon="-6.1519441009">
        <ele>495.22</ele>
        <time>2020-07-10T11:54:51Z</time>
      </trkpt>
      <trkpt lat="37.9492733907" lon="-6.1519394908">
        <ele>494.74</ele>
        <time>2020-07-10T11:55:05Z</time>
      </trkpt>
      <trkpt lat="37.9492745642" lon="-6.1519347969">
        <ele>496.18</ele>
        <time>2020-07-10T11:55:21Z</time>
      </trkpt>
      <trkpt lat="37.9492731392" lon="-6.1519096512">
        <ele>497.14</ele>
        <time>2020-07-10T11:55:39Z</time>
      </trkpt>
      <trkpt lat="37.9492720496" lon="-6.1518927198">
        <ele>498.58</ele>
        <time>2020-07-10T11:55:59Z</time>
      </trkpt>
      <trkpt lat="37.9492728878" lon="-6.1518805660">
        <ele>500.02</ele>
        <time>2020-07-10T11:56:13Z</time>
      </trkpt>
      <trkpt lat="37.9492763244" lon="-6.1518786382">
        <ele>500.02</ele>
        <time>2020-07-10T11:56:28Z</time>
      </trkpt>
      <trkpt lat="37.9492818564" lon="-6.1518900376">
        <ele>500.98</ele>
        <time>2020-07-10T11:56:45Z</time>
      </trkpt>
      <trkpt lat="37.9492838681" lon="-6.1518955696">
        <ele>500.02</ele>
        <time>2020-07-10T11:57:03Z</time>
      </trkpt>
      <trkpt lat="37.9492909089" lon="-6.1519084778">
        <ele>500.50</ele>
        <time>2020-07-10T11:57:21Z</time>
      </trkpt>
      <trkpt lat="37.9492971115" lon="-6.1518889479">
        <ele>502.43</ele>
        <time>2020-07-10T11:57:39Z</time>
      </trkpt>
      <trkpt lat="37.9492984526" lon="-6.1518897861">
        <ele>501.46</ele>
        <time>2020-07-10T11:57:54Z</time>
      </trkpt>
      <trkpt lat="37.9492939264" lon="-6.1519003473">
        <ele>500.50</ele>
        <time>2020-07-10T11:58:08Z</time>
      </trkpt>
      <trkpt lat="37.9492931720" lon="-6.1519005988">
        <ele>500.02</ele>
        <time>2020-07-10T11:58:25Z</time>
      </trkpt>
      <trkpt lat="37.9492944293" lon="-6.1519005150">
        <ele>499.54</ele>
        <time>2020-07-10T11:58:42Z</time>
      </trkpt>
      <trkpt lat="37.9492977820" lon="-6.1519047059">
        <ele>499.54</ele>
        <time>2020-07-10T11:58:58Z</time>
      </trkpt>
      <trkpt lat="37.9492988717" lon="-6.1519133393">
        <ele>498.58</ele>
        <time>2020-07-10T11:59:10Z</time>
      </trkpt>
      <trkpt lat="37.9492974468" lon="-6.1519144289">
        <ele>498.58</ele>
        <time>2020-07-10T11:59:24Z</time>
      </trkpt>
      <trkpt lat="37.9493014701" lon="-6.1519174464">
        <ele>498.58</ele>
        <time>2020-07-10T11:59:40Z</time>
      </trkpt>
      <trkpt lat="37.9493013863" lon="-6.1519196257">
        <ele>498.10</ele>
        <time>2020-07-10T11:59:56Z</time>
      </trkpt>
      <trkpt lat="37.9492982849" lon="-6.1519250739">
        <ele>498.10</ele>
        <time>2020-07-10T12:00:12Z</time>
      </trkpt>
      <trkpt lat="37.9492950160" lon="-6.1519373953">
        <ele>498.10</ele>
        <time>2020-07-10T12:00:24Z</time>
      </trkpt>
      <trkpt lat="37.9492860474" lon="-6.1519450229">
        <ele>497.14</ele>
        <time>2020-07-10T12:00:39Z</time>
      </trkpt>
      <trkpt lat="37.9492780007" lon="-6.1519510578">
        <ele>495.70</ele>
        <time>2020-07-10T12:01:00Z</time>
      </trkpt>
      <trkpt lat="37.9492733907" lon="-6.1519514769">
        <ele>494.74</ele>
        <time>2020-07-10T12:01:15Z</time>
      </trkpt>
      <trkpt lat="37.9492795933" lon="-6.1519329529">
        <ele>495.22</ele>
        <time>2020-07-10T12:01:35Z</time>
      </trkpt>
      <trkpt lat="37.9492799286" lon="-6.1519328691">
        <ele>495.22</ele>
        <time>2020-07-10T12:01:50Z</time>
      </trkpt>
      <trkpt lat="37.9492771626" lon="-6.1519241519">
        <ele>495.22</ele>
        <time>2020-07-10T12:02:08Z</time>
      </trkpt>
      <trkpt lat="37.9492808506" lon="-6.1519329529">
        <ele>493.77</ele>
        <time>2020-07-10T12:02:20Z</time>
      </trkpt>
      <trkpt lat="37.9492805991" lon="-6.1519352160">
        <ele>492.33</ele>
        <time>2020-07-10T12:02:33Z</time>
      </trkpt>
      <trkpt lat="37.9492733907" lon="-6.1519454420">
        <ele>491.37</ele>
        <time>2020-07-10T12:02:50Z</time>
      </trkpt>
      <trkpt lat="37.9492747318" lon="-6.1519459449">
        <ele>490.41</ele>
        <time>2020-07-10T12:03:06Z</time>
      </trkpt>
      <trkpt lat="37.9492840357" lon="-6.1519568413">
        <ele>489.93</ele>
        <time>2020-07-10T12:03:17Z</time>
      </trkpt>
      <trkpt lat="37.9492848739" lon="-6.1519693304">
        <ele>488.49</ele>
        <time>2020-07-10T12:03:28Z</time>
      </trkpt>
      <trkpt lat="37.9492960218" lon="-6.1519595236">
        <ele>486.56</ele>
        <time>2020-07-10T12:03:33Z</time>
      </trkpt>
      <trkpt lat="37.9492886458" lon="-6.1519346293">
        <ele>486.56</ele>
        <time>2020-07-10T12:03:34Z</time>
      </trkpt>
      <trkpt lat="37.9492819402" lon="-6.1519105732">
        <ele>486.56</ele>
        <time>2020-07-10T12:03:35Z</time>
      </trkpt>
      <trkpt lat="37.9492789228" lon="-6.1518869363">
        <ele>486.56</ele>
        <time>2020-07-10T12:03:36Z</time>
      </trkpt>
      <trkpt lat="37.9492814373" lon="-6.1518641375">
        <ele>486.56</ele>
        <time>2020-07-10T12:03:37Z</time>
      </trkpt>
      <trkpt lat="37.9492886458" lon="-6.1518451944">
        <ele>486.08</ele>
        <time>2020-07-10T12:03:38Z</time>
      </trkpt>
      <trkpt lat="37.9493002128" lon="-6.1518288497">
        <ele>486.08</ele>
        <time>2020-07-10T12:03:39Z</time>
      </trkpt>
      <trkpt lat="37.9493136238" lon="-6.1518145166">
        <ele>485.60</ele>
        <time>2020-07-10T12:03:40Z</time>
      </trkpt>
      <trkpt lat="37.9493287113" lon="-6.1517994292">
        <ele>485.60</ele>
        <time>2020-07-10T12:03:41Z</time>
      </trkpt>
      <trkpt lat="37.9493453074" lon="-6.1517824139">
        <ele>485.12</ele>
        <time>2020-07-10T12:03:42Z</time>
      </trkpt>
      <trkpt lat="37.9493635800" lon="-6.1517637223">
        <ele>485.12</ele>
        <time>2020-07-10T12:03:43Z</time>
      </trkpt>
      <trkpt lat="37.9493803438" lon="-6.1517437734">
        <ele>485.12</ele>
        <time>2020-07-10T12:03:44Z</time>
      </trkpt>
      <trkpt lat="37.9494149610" lon="-6.1516218167">
        <ele>486.08</ele>
        <time>2020-07-10T12:03:49Z</time>
      </trkpt>
      <trkpt lat="37.9494038131" lon="-6.1515913066">
        <ele>486.08</ele>
        <time>2020-07-10T12:03:50Z</time>
      </trkpt>
      <trkpt lat="37.9493183177" lon="-6.1512968503">
        <ele>487.05</ele>
        <time>2020-07-10T12:03:59Z</time>
      </trkpt>
      <trkpt lat="37.9492609017" lon="-6.1510005500">
        <ele>488.97</ele>
        <time>2020-07-10T12:04:08Z</time>
      </trkpt>
      <trkpt lat="37.9492344987" lon="-6.1508625839">
        <ele>489.93</ele>
        <time>2020-07-10T12:04:12Z</time>
      </trkpt>
      <trkpt lat="37.9492142145" lon="-6.1508407071">
        <ele>489.93</ele>
        <time>2020-07-10T12:04:13Z</time>
      </trkpt>
      <trkpt lat="37.9491898231" lon="-6.1508351751">
        <ele>489.45</ele>
        <time>2020-07-10T12:04:14Z</time>
      </trkpt>
      <trkpt lat="37.9491614923" lon="-6.1508407071">
        <ele>489.45</ele>
        <time>2020-07-10T12:04:15Z</time>
      </trkpt>
      <trkpt lat="37.9491345864" lon="-6.1508499272">
        <ele>489.93</ele>
        <time>2020-07-10T12:04:16Z</time>
      </trkpt>
      <trkpt lat="37.9491132963" lon="-6.1508568004">
        <ele>489.45</ele>
        <time>2020-07-10T12:04:17Z</time>
      </trkpt>
      <trkpt lat="37.9489635956" lon="-6.1509035714">
        <ele>489.93</ele>
        <time>2020-07-10T12:04:24Z</time>
      </trkpt>
      <trkpt lat="37.9489455745" lon="-6.1509033199">
        <ele>489.93</ele>
        <time>2020-07-10T12:04:25Z</time>
      </trkpt>
      <trkpt lat="37.9489248712" lon="-6.1509041581">
        <ele>489.93</ele>
        <time>2020-07-10T12:04:26Z</time>
      </trkpt>
      <trkpt lat="37.9489094485" lon="-6.1509087682">
        <ele>489.93</ele>
        <time>2020-07-10T12:04:27Z</time>
      </trkpt>
      <trkpt lat="37.9488929361" lon="-6.1509192456">
        <ele>489.93</ele>
        <time>2020-07-10T12:04:28Z</time>
      </trkpt>
      <trkpt lat="37.9488794412" lon="-6.1509267893">
        <ele>489.93</ele>
        <time>2020-07-10T12:04:29Z</time>
      </trkpt>
      <trkpt lat="37.9488634318" lon="-6.1509333272">
        <ele>489.93</ele>
        <time>2020-07-10T12:04:30Z</time>
      </trkpt>
      <trkpt lat="37.9488467518" lon="-6.1509386078">
        <ele>489.93</ele>
        <time>2020-07-10T12:04:31Z</time>
      </trkpt>
      <trkpt lat="37.9487103783" lon="-6.1510027293">
        <ele>490.41</ele>
        <time>2020-07-10T12:04:40Z</time>
      </trkpt>
      <trkpt lat="37.9485517088" lon="-6.1510033160">
        <ele>491.37</ele>
        <time>2020-07-10T12:04:49Z</time>
      </trkpt>
      <trkpt lat="37.9484261479" lon="-6.1509886477">
        <ele>491.37</ele>
        <time>2020-07-10T12:04:57Z</time>
      </trkpt>
      <trkpt lat="37.9483078793" lon="-6.1509781703">
        <ele>490.89</ele>
        <time>2020-07-10T12:05:05Z</time>
      </trkpt>
      <trkpt lat="37.9482918698" lon="-6.1509783380">
        <ele>490.89</ele>
        <time>2020-07-10T12:05:06Z</time>
      </trkpt>
      <trkpt lat="37.9481731821" lon="-6.1510089319">
        <ele>490.41</ele>
        <time>2020-07-10T12:05:13Z</time>
      </trkpt>
      <trkpt lat="37.9480294324" lon="-6.1510365084">
        <ele>490.41</ele>
        <time>2020-07-10T12:05:21Z</time>
      </trkpt>
      <trkpt lat="37.9479372315" lon="-6.1510715447">
        <ele>490.41</ele>
        <time>2020-07-10T12:05:28Z</time>
      </trkpt>
      <trkpt lat="37.9478820786" lon="-6.1510949302">
        <ele>491.85</ele>
        <time>2020-07-10T12:05:32Z</time>
      </trkpt>
      <trkpt lat="37.9478727747" lon="-6.1511071678">
        <ele>492.33</ele>
        <time>2020-07-10T12:05:33Z</time>
      </trkpt>
      <trkpt lat="37.9478633031" lon="-6.1511198245">
        <ele>492.81</ele>
        <time>2020-07-10T12:05:34Z</time>
      </trkpt>
      <trkpt lat="37.9478531610" lon="-6.1511313077">
        <ele>493.29</ele>
        <time>2020-07-10T12:05:35Z</time>
      </trkpt>
      <trkpt lat="37.9478421807" lon="-6.1511422042">
        <ele>493.77</ele>
        <time>2020-07-10T12:05:36Z</time>
      </trkpt>
      <trkpt lat="37.9478303622" lon="-6.1511532683">
        <ele>494.26</ele>
        <time>2020-07-10T12:05:37Z</time>
      </trkpt>
      <trkpt lat="37.9478205554" lon="-6.1511634104">
        <ele>494.26</ele>
        <time>2020-07-10T12:05:38Z</time>
      </trkpt>
      <trkpt lat="37.9477248341" lon="-6.1512378417">
        <ele>496.66</ele>
        <time>2020-07-10T12:05:46Z</time>
      </trkpt>
      <trkpt lat="37.9476417694" lon="-6.1513068248">
        <ele>497.62</ele>
        <time>2020-07-10T12:05:54Z</time>
      </trkpt>
      <trkpt lat="37.9476115108" lon="-6.1513438728">
        <ele>498.58</ele>
        <time>2020-07-10T12:05:57Z</time>
      </trkpt>
      <trkpt lat="37.9476001952" lon="-6.1513516679">
        <ele>498.58</ele>
        <time>2020-07-10T12:05:58Z</time>
      </trkpt>
      <trkpt lat="37.9474700242" lon="-6.1514509935">
        <ele>498.58</ele>
        <time>2020-07-10T12:06:08Z</time>
      </trkpt>
      <trkpt lat="37.9473571200" lon="-6.1516046338">
        <ele>499.54</ele>
        <time>2020-07-10T12:06:18Z</time>
      </trkpt>
      <trkpt lat="37.9472963512" lon="-6.1516583618">
        <ele>500.50</ele>
        <time>2020-07-10T12:06:22Z</time>
      </trkpt>
      <trkpt lat="37.9471904039" lon="-6.1517990939">
        <ele>500.50</ele>
        <time>2020-07-10T12:06:32Z</time>
      </trkpt>
      <trkpt lat="37.9470925871" lon="-6.1519112438">
        <ele>501.46</ele>
        <time>2020-07-10T12:06:40Z</time>
      </trkpt>
      <trkpt lat="37.9469656851" lon="-6.1520403251">
        <ele>502.91</ele>
        <time>2020-07-10T12:06:49Z</time>
      </trkpt>
      <trkpt lat="37.9468449857" lon="-6.1521334480">
        <ele>503.39</ele>
        <time>2020-07-10T12:06:56Z</time>
      </trkpt>
      <trkpt lat="37.9467673693" lon="-6.1521795485">
        <ele>502.91</ele>
        <time>2020-07-10T12:07:00Z</time>
      </trkpt>
      <trkpt lat="37.9467559699" lon="-6.1522015091">
        <ele>503.87</ele>
        <time>2020-07-10T12:07:05Z</time>
      </trkpt>
      <trkpt lat="37.9467513599" lon="-6.1522052810">
        <ele>504.35</ele>
        <time>2020-07-10T12:07:20Z</time>
      </trkpt>
      <trkpt lat="37.9467483424" lon="-6.1521994974">
        <ele>504.35</ele>
        <time>2020-07-10T12:07:30Z</time>
      </trkpt>
      <trkpt lat="37.9467554670" lon="-6.1521988269">
        <ele>504.35</ele>
        <time>2020-07-10T12:07:42Z</time>
      </trkpt>
      <trkpt lat="37.9467469174" lon="-6.1521975696">
        <ele>504.35</ele>
        <time>2020-07-10T12:07:48Z</time>
      </trkpt>
      <trkpt lat="37.9467313271" lon="-6.1522047780">
        <ele>504.35</ele>
        <time>2020-07-10T12:07:49Z</time>
      </trkpt>
      <trkpt lat="37.9467137251" lon="-6.1522147525">
        <ele>504.35</ele>
        <time>2020-07-10T12:07:50Z</time>
      </trkpt>
      <trkpt lat="37.9465566482" lon="-6.1523138266">
        <ele>502.91</ele>
        <time>2020-07-10T12:07:56Z</time>
      </trkpt>
      <trkpt lat="37.9462830629" lon="-6.1524386331">
        <ele>501.46</ele>
        <time>2020-07-10T12:08:02Z</time>
      </trkpt>
      <trkpt lat="37.9461070430" lon="-6.1525025871">
        <ele>500.98</ele>
        <time>2020-07-10T12:08:07Z</time>
      </trkpt>
      <trkpt lat="37.9460869264" lon="-6.1525380425">
        <ele>500.50</ele>
        <time>2020-07-10T12:08:08Z</time>
      </trkpt>
      <trkpt lat="37.9460721742" lon="-6.1525798682">
        <ele>500.50</ele>
        <time>2020-07-10T12:08:09Z</time>
      </trkpt>
      <trkpt lat="37.9459755309" lon="-6.1529071815">
        <ele>498.58</ele>
        <time>2020-07-10T12:08:16Z</time>
      </trkpt>
      <trkpt lat="37.9458399955" lon="-6.1533072498">
        <ele>496.18</ele>
        <time>2020-07-10T12:08:23Z</time>
      </trkpt>
      <trkpt lat="37.9458177835" lon="-6.1533771548">
        <ele>495.70</ele>
        <time>2020-07-10T12:08:24Z</time>
      </trkpt>
      <trkpt lat="37.9458025284" lon="-6.1534427013">
        <ele>495.70</ele>
        <time>2020-07-10T12:08:25Z</time>
      </trkpt>
      <trkpt lat="37.9457903747" lon="-6.1535238381">
        <ele>495.22</ele>
        <time>2020-07-10T12:08:26Z</time>
      </trkpt>
      <trkpt lat="37.9457857646" lon="-6.1535913963">
        <ele>494.74</ele>
        <time>2020-07-10T12:08:27Z</time>
      </trkpt>
      <trkpt lat="37.9457845911" lon="-6.1536576971">
        <ele>494.26</ele>
        <time>2020-07-10T12:08:28Z</time>
      </trkpt>
      <trkpt lat="37.9457850941" lon="-6.1540140118">
        <ele>492.33</ele>
        <time>2020-07-10T12:08:33Z</time>
      </trkpt>
      <trkpt lat="37.9457734432" lon="-6.1540799774">
        <ele>491.85</ele>
        <time>2020-07-10T12:08:34Z</time>
      </trkpt>
      <trkpt lat="37.9457543325" lon="-6.1541447695">
        <ele>491.85</ele>
        <time>2020-07-10T12:08:35Z</time>
      </trkpt>
      <trkpt lat="37.9457264207" lon="-6.1542046163">
        <ele>491.85</ele>
        <time>2020-07-10T12:08:36Z</time>
      </trkpt>
      <trkpt lat="37.9456928931" lon="-6.1542596854">
        <ele>491.85</ele>
        <time>2020-07-10T12:08:37Z</time>
      </trkpt>
      <trkpt lat="37.9456568509" lon="-6.1543108150">
        <ele>491.85</ele>
        <time>2020-07-10T12:08:38Z</time>
      </trkpt>
      <trkpt lat="37.9455145262" lon="-6.1545254756">
        <ele>491.85</ele>
        <time>2020-07-10T12:08:42Z</time>
      </trkpt>
      <trkpt lat="37.9453135282" lon="-6.1548108794">
        <ele>491.37</ele>
        <time>2020-07-10T12:08:48Z</time>
      </trkpt>
      <trkpt lat="37.9452209920" lon="-6.1549326684">
        <ele>491.37</ele>
        <time>2020-07-10T12:08:51Z</time>
      </trkpt>
      <trkpt lat="37.9451671802" lon="-6.1550286412">
        <ele>491.85</ele>
        <time>2020-07-10T12:08:55Z</time>
      </trkpt>
      <trkpt lat="37.9450797569" lon="-6.1551661044">
        <ele>492.33</ele>
        <time>2020-07-10T12:09:00Z</time>
      </trkpt>
      <trkpt lat="37.9449459817" lon="-6.1554085929">
        <ele>491.85</ele>
        <time>2020-07-10T12:09:08Z</time>
      </trkpt>
      <trkpt lat="37.9448509309" lon="-6.1554950941">
        <ele>493.29</ele>
        <time>2020-07-10T12:09:14Z</time>
      </trkpt>
      <trkpt lat="37.9448365141" lon="-6.1554959323">
        <ele>493.29</ele>
        <time>2020-07-10T12:09:15Z</time>
      </trkpt>
      <trkpt lat="37.9448243603" lon="-6.1554939207">
        <ele>493.29</ele>
        <time>2020-07-10T12:09:16Z</time>
      </trkpt>
      <trkpt lat="37.9448141344" lon="-6.1554842815">
        <ele>493.29</ele>
        <time>2020-07-10T12:09:17Z</time>
      </trkpt>
      <trkpt lat="37.9447991308" lon="-6.1554684397">
        <ele>493.29</ele>
        <time>2020-07-10T12:09:18Z</time>
      </trkpt>
      <trkpt lat="37.9447169881" lon="-6.1553667672">
        <ele>493.29</ele>
        <time>2020-07-10T12:09:26Z</time>
      </trkpt>
      <trkpt lat="37.9447118752" lon="-6.1553651746">
        <ele>494.26</ele>
        <time>2020-07-10T12:09:34Z</time>
      </trkpt>
      <trkpt lat="37.9447007272" lon="-6.1553671863">
        <ele>494.74</ele>
        <time>2020-07-10T12:09:54Z</time>
      </trkpt>
      <trkpt lat="37.9446878191" lon="-6.1553658452">
        <ele>494.26</ele>
        <time>2020-07-10T12:10:12Z</time>
      </trkpt>
      <trkpt lat="37.9446924292" lon="-6.1553440522">
        <ele>494.74</ele>
        <time>2020-07-10T12:10:29Z</time>
      </trkpt>
      <trkpt lat="37.9447158985" lon="-6.1552966945">
        <ele>495.70</ele>
        <time>2020-07-10T12:10:50Z</time>
      </trkpt>
      <trkpt lat="37.9447617475" lon="-6.1553465668">
        <ele>481.76</ele>
        <time>2020-07-11T05:07:26Z</time>
      </trkpt>
      <trkpt lat="37.9447609931" lon="-6.1553659290">
        <ele>484.16</ele>
        <time>2020-07-11T05:07:41Z</time>
      </trkpt>
      <trkpt lat="37.9447632562" lon="-6.1553583015">
        <ele>483.68</ele>
        <time>2020-07-11T05:07:42Z</time>
      </trkpt>
      <trkpt lat="37.9448381066" lon="-6.1553401966">
        <ele>484.16</ele>
        <time>2020-07-11T05:07:48Z</time>
      </trkpt>
      <trkpt lat="37.9448614921" lon="-6.1553465668">
        <ele>484.16</ele>
        <time>2020-07-11T05:07:49Z</time>
      </trkpt>
      <trkpt lat="37.9448851291" lon="-6.1553447228">
        <ele>484.16</ele>
        <time>2020-07-11T05:07:50Z</time>
      </trkpt>
      <trkpt lat="37.9449057486" lon="-6.1553370953">
        <ele>483.68</ele>
        <time>2020-07-11T05:07:51Z</time>
      </trkpt>
      <trkpt lat="37.9449305590" lon="-6.1553199962">
        <ele>483.68</ele>
        <time>2020-07-11T05:07:52Z</time>
      </trkpt>
      <trkpt lat="37.9449460655" lon="-6.1553028971">
        <ele>483.68</ele>
        <time>2020-07-11T05:07:53Z</time>
      </trkpt>
      <trkpt lat="37.9449645057" lon="-6.1552785896">
        <ele>483.68</ele>
        <time>2020-07-11T05:07:54Z</time>
      </trkpt>
      <trkpt lat="37.9449848738" lon="-6.1552528571">
        <ele>483.68</ele>
        <time>2020-07-11T05:07:55Z</time>
      </trkpt>
      <trkpt lat="37.9450070858" lon="-6.1552237719">
        <ele>483.68</ele>
        <time>2020-07-11T05:07:56Z</time>
      </trkpt>
      <trkpt lat="37.9452101793" lon="-6.1549573950">
        <ele>483.68</ele>
        <time>2020-07-11T05:08:06Z</time>
      </trkpt>
      <trkpt lat="37.9454042204" lon="-6.1546864081">
        <ele>483.68</ele>
        <time>2020-07-11T05:08:15Z</time>
      </trkpt>
      <trkpt lat="37.9456159472" lon="-6.1543681473">
        <ele>484.16</ele>
        <time>2020-07-11T05:08:26Z</time>
      </trkpt>
      <trkpt lat="37.9457676597" lon="-6.1541168578">
        <ele>484.64</ele>
        <time>2020-07-11T05:08:35Z</time>
      </trkpt>
      <trkpt lat="37.9457683302" lon="-6.1538444459">
        <ele>484.64</ele>
        <time>2020-07-11T05:08:42Z</time>
      </trkpt>
      <trkpt lat="37.9457709286" lon="-6.1535269395">
        <ele>485.12</ele>
        <time>2020-07-11T05:08:50Z</time>
      </trkpt>
      <trkpt lat="37.9458783846" lon="-6.1531593930">
        <ele>486.08</ele>
        <time>2020-07-11T05:09:00Z</time>
      </trkpt>
      <trkpt lat="37.9459653888" lon="-6.1528350972">
        <ele>488.97</ele>
        <time>2020-07-11T05:09:09Z</time>
      </trkpt>
      <trkpt lat="37.9460533988" lon="-6.1525445804">
        <ele>491.37</ele>
        <time>2020-07-11T05:09:18Z</time>
      </trkpt>
      <trkpt lat="37.9461869225" lon="-6.1524455063">
        <ele>491.85</ele>
        <time>2020-07-11T05:09:24Z</time>
      </trkpt>
      <trkpt lat="37.9463897645" lon="-6.1523761041">
        <ele>493.29</ele>
        <time>2020-07-11T05:09:33Z</time>
      </trkpt>
      <trkpt lat="37.9465645272" lon="-6.1522923689">
        <ele>493.29</ele>
        <time>2020-07-11T05:09:41Z</time>
      </trkpt>
      <trkpt lat="37.9468003940" lon="-6.1521566659">
        <ele>495.22</ele>
        <time>2020-07-11T05:09:52Z</time>
      </trkpt>
      <trkpt lat="37.9469843768" lon="-6.1520130001">
        <ele>494.74</ele>
        <time>2020-07-11T05:10:01Z</time>
      </trkpt>
      <trkpt lat="37.9471901525" lon="-6.1518099066">
        <ele>493.77</ele>
        <time>2020-07-11T05:10:09Z</time>
      </trkpt>
      <trkpt lat="37.9474530090" lon="-6.1515223235">
        <ele>491.37</ele>
        <time>2020-07-11T05:10:16Z</time>
      </trkpt>
      <trkpt lat="37.9477887042" lon="-6.1512013804">
        <ele>488.01</ele>
        <time>2020-07-11T05:10:23Z</time>
      </trkpt>
      <trkpt lat="37.9479382373" lon="-6.1510868836">
        <ele>486.56</ele>
        <time>2020-07-11T05:10:26Z</time>
      </trkpt>
      <trkpt lat="37.9481425043" lon="-6.1509852111">
        <ele>485.12</ele>
        <time>2020-07-11T05:10:30Z</time>
      </trkpt>
      <trkpt lat="37.9482780397" lon="-6.1509605683">
        <ele>484.16</ele>
        <time>2020-07-11T05:10:33Z</time>
      </trkpt>
      <trkpt lat="37.9485428240" lon="-6.1509997118">
        <ele>485.60</ele>
        <time>2020-07-11T05:10:40Z</time>
      </trkpt>
      <trkpt lat="37.9486243799" lon="-6.1509852111">
        <ele>489.93</ele>
        <time>2020-07-11T05:10:43Z</time>
      </trkpt>
      <trkpt lat="37.9487172514" lon="-6.1511501670">
        <ele>490.89</ele>
        <time>2020-07-11T05:10:48Z</time>
      </trkpt>
      <trkpt lat="37.9487352725" lon="-6.1511971895">
        <ele>490.41</ele>
        <time>2020-07-11T05:10:49Z</time>
      </trkpt>
      <trkpt lat="37.9489366896" lon="-6.1515509896">
        <ele>485.60</ele>
        <time>2020-07-11T05:10:57Z</time>
      </trkpt>
      <trkpt lat="37.9490881506" lon="-6.1517718527">
        <ele>482.24</ele>
        <time>2020-07-11T05:11:04Z</time>
      </trkpt>
      <trkpt lat="37.9491471592" lon="-6.1518815719">
        <ele>479.35</ele>
        <time>2020-07-11T05:11:09Z</time>
      </trkpt>
      <trkpt lat="37.9492398631" lon="-6.1518678255">
        <ele>477.43</ele>
        <time>2020-07-11T05:11:15Z</time>
      </trkpt>
      <trkpt lat="37.9492639191" lon="-6.1518502235">
        <ele>476.95</ele>
        <time>2020-07-11T05:11:16Z</time>
      </trkpt>
      <trkpt lat="37.9492822755" lon="-6.1518357228">
        <ele>475.99</ele>
        <time>2020-07-11T05:11:17Z</time>
      </trkpt>
      <trkpt lat="37.9493025597" lon="-6.1518189590">
        <ele>475.51</ele>
        <time>2020-07-11T05:11:18Z</time>
      </trkpt>
      <trkpt lat="37.9494199064" lon="-6.1517239921">
        <ele>474.07</ele>
        <time>2020-07-11T05:11:24Z</time>
      </trkpt>
      <trkpt lat="37.9494286235" lon="-6.1517239921">
        <ele>474.55</ele>
        <time>2020-07-11T05:11:25Z</time>
      </trkpt>
      <trkpt lat="37.9494379275" lon="-6.1517296918">
        <ele>474.55</ele>
        <time>2020-07-11T05:11:26Z</time>
      </trkpt>
      <trkpt lat="37.9495141190" lon="-6.1518115830">
        <ele>475.51</ele>
        <time>2020-07-11T05:11:34Z</time>
      </trkpt>
      <trkpt lat="37.9496017098" lon="-6.1519346293">
        <ele>474.55</ele>
        <time>2020-07-11T05:11:42Z</time>
      </trkpt>
      <trkpt lat="37.9497635644" lon="-6.1521425843">
        <ele>472.63</ele>
        <time>2020-07-11T05:11:52Z</time>
      </trkpt>
      <trkpt lat="37.9499566834" lon="-6.1524178460">
        <ele>472.63</ele>
        <time>2020-07-11T05:12:01Z</time>
      </trkpt>
      <trkpt lat="37.9501422588" lon="-6.1526798643">
        <ele>471.18</ele>
        <time>2020-07-11T05:12:09Z</time>
      </trkpt>
      <trkpt lat="37.9503355455" lon="-6.1529676989">
        <ele>469.74</ele>
        <time>2020-07-11T05:12:18Z</time>
      </trkpt>
      <trkpt lat="37.9504896048" lon="-6.1532608140">
        <ele>469.26</ele>
        <time>2020-07-11T05:12:26Z</time>
      </trkpt>
      <trkpt lat="37.9506061971" lon="-6.1536422744">
        <ele>467.34</ele>
        <time>2020-07-11T05:12:35Z</time>
      </trkpt>
      <trkpt lat="37.9507395532" lon="-6.1540349666">
        <ele>466.38</ele>
        <time>2020-07-11T05:12:44Z</time>
      </trkpt>
      <trkpt lat="37.9508282337" lon="-6.1542872619">
        <ele>465.90</ele>
        <time>2020-07-11T05:12:52Z</time>
      </trkpt>
      <trkpt lat="37.9509047605" lon="-6.1545930337">
        <ele>464.93</ele>
        <time>2020-07-11T05:13:01Z</time>
      </trkpt>
      <trkpt lat="37.9510397092" lon="-6.1549791042">
        <ele>464.93</ele>
        <time>2020-07-11T05:13:12Z</time>
      </trkpt>
      <trkpt lat="37.9511812795" lon="-6.1553136259">
        <ele>465.42</ele>
        <time>2020-07-11T05:13:21Z</time>
      </trkpt>
      <trkpt lat="37.9512787610" lon="-6.1555722076">
        <ele>465.42</ele>
        <time>2020-07-11T05:13:29Z</time>
      </trkpt>
      <trkpt lat="37.9512734804" lon="-6.1555869598">
        <ele>465.42</ele>
        <time>2020-07-11T05:13:33Z</time>
      </trkpt>
      <trkpt lat="37.9512333311" lon="-6.1556190625">
        <ele>465.42</ele>
        <time>2020-07-11T05:13:37Z</time>
      </trkpt>
      <trkpt lat="37.9510781821" lon="-6.1556948349">
        <ele>464.93</ele>
        <time>2020-07-11T05:13:47Z</time>
      </trkpt>
      <trkpt lat="37.9510089476" lon="-6.1557615548">
        <ele>464.93</ele>
        <time>2020-07-11T05:13:55Z</time>
      </trkpt>
      <trkpt lat="37.9509347677" lon="-6.1557898019">
        <ele>464.93</ele>
        <time>2020-07-11T05:14:02Z</time>
      </trkpt>
      <trkpt lat="37.9509212729" lon="-6.1558099184">
        <ele>464.45</ele>
        <time>2020-07-11T05:14:04Z</time>
      </trkpt>
      <trkpt lat="37.9508607555" lon="-6.1558465473">
        <ele>463.97</ele>
        <time>2020-07-11T05:14:09Z</time>
      </trkpt>
      <trkpt lat="37.9508429021" lon="-6.1557791568">
        <ele>463.49</ele>
        <time>2020-07-11T05:14:15Z</time>
      </trkpt>
      <trkpt lat="37.9508967139" lon="-6.1557713617">
        <ele>463.49</ele>
        <time>2020-07-11T05:14:18Z</time>
      </trkpt>
      <trkpt lat="37.9509138968" lon="-6.1557645723">
        <ele>463.49</ele>
        <time>2020-07-11T05:14:19Z</time>
      </trkpt>
      <trkpt lat="37.9509335104" lon="-6.1557552684">
        <ele>463.49</ele>
        <time>2020-07-11T05:14:20Z</time>
      </trkpt>
      <trkpt lat="37.9510748293" lon="-6.1556772329">
        <ele>463.49</ele>
        <time>2020-07-11T05:14:28Z</time>
      </trkpt>
      <trkpt lat="37.9512179084" lon="-6.1556129437">
        <ele>464.45</ele>
        <time>2020-07-11T05:14:36Z</time>
      </trkpt>
      <trkpt lat="37.9512359295" lon="-6.1556232534">
        <ele>464.45</ele>
        <time>2020-07-11T05:14:37Z</time>
      </trkpt>
      <trkpt lat="37.9512701277" lon="-6.1556628160">
        <ele>464.93</ele>
        <time>2020-07-11T05:14:39Z</time>
      </trkpt>
      <trkpt lat="37.9514101893" lon="-6.1559625529">
        <ele>464.93</ele>
        <time>2020-07-11T05:14:50Z</time>
      </trkpt>
      <trkpt lat="37.9514940921" lon="-6.1561567616">
        <ele>464.93</ele>
        <time>2020-07-11T05:14:58Z</time>
      </trkpt>
      <trkpt lat="37.9516322259" lon="-6.1564611085">
        <ele>465.42</ele>
        <time>2020-07-11T05:15:08Z</time>
      </trkpt>
      <trkpt lat="37.9517931584" lon="-6.1567429081">
        <ele>466.86</ele>
        <time>2020-07-11T05:15:18Z</time>
      </trkpt>
      <trkpt lat="37.9519240838" lon="-6.1569167487">
        <ele>468.30</ele>
        <time>2020-07-11T05:15:26Z</time>
      </trkpt>
      <trkpt lat="37.9519658256" lon="-6.1569555569">
        <ele>468.78</ele>
        <time>2020-07-11T05:15:29Z</time>
      </trkpt>
      <trkpt lat="37.9519796558" lon="-6.1569666211">
        <ele>468.78</ele>
        <time>2020-07-11T05:15:30Z</time>
      </trkpt>
      <trkpt lat="37.9519931506" lon="-6.1569799483">
        <ele>468.78</ele>
        <time>2020-07-11T05:15:31Z</time>
      </trkpt>
      <trkpt lat="37.9520573560" lon="-6.1570760049">
        <ele>468.30</ele>
        <time>2020-07-11T05:15:39Z</time>
      </trkpt>
      <trkpt lat="37.9520509858" lon="-6.1570536252">
        <ele>466.86</ele>
        <time>2020-07-11T05:15:54Z</time>
      </trkpt>
      <trkpt lat="37.9520664085" lon="-6.1570596602">
        <ele>466.86</ele>
        <time>2020-07-11T05:16:05Z</time>
      </trkpt>
      <trkpt lat="37.9520864412" lon="-6.1570790224">
        <ele>465.90</ele>
        <time>2020-07-11T05:16:19Z</time>
      </trkpt>
      <trkpt lat="37.9522280954" lon="-6.1572133005">
        <ele>465.90</ele>
        <time>2020-07-11T05:16:27Z</time>
      </trkpt>
      <trkpt lat="37.9524746072" lon="-6.1574367620">
        <ele>466.38</ele>
        <time>2020-07-11T05:16:38Z</time>
      </trkpt>
      <trkpt lat="37.9526854958" lon="-6.1576251872">
        <ele>466.86</ele>
        <time>2020-07-11T05:16:47Z</time>
      </trkpt>
      <trkpt lat="37.9529262241" lon="-6.1578372493">
        <ele>468.30</ele>
        <time>2020-07-11T05:16:57Z</time>
      </trkpt>
      <trkpt lat="37.9531695507" lon="-6.1581501458">
        <ele>469.26</ele>
        <time>2020-07-11T05:17:09Z</time>
      </trkpt>
      <trkpt lat="37.9533008114" lon="-6.1583446898">
        <ele>470.22</ele>
        <time>2020-07-11T05:17:17Z</time>
      </trkpt>
      <trkpt lat="37.9534857161" lon="-6.1585523933">
        <ele>470.70</ele>
        <time>2020-07-11T05:17:26Z</time>
      </trkpt>
      <trkpt lat="37.9536516778" lon="-6.1587105598">
        <ele>472.14</ele>
        <time>2020-07-11T05:17:35Z</time>
      </trkpt>
      <trkpt lat="37.9538291227" lon="-6.1588418204">
        <ele>474.55</ele>
        <time>2020-07-11T05:17:46Z</time>
      </trkpt>
      <trkpt lat="37.9539606348" lon="-6.1589264777">
        <ele>476.47</ele>
        <time>2020-07-11T05:17:55Z</time>
      </trkpt>
      <trkpt lat="37.9541340563" lon="-6.1589527130">
        <ele>478.39</ele>
        <time>2020-07-11T05:18:06Z</time>
      </trkpt>
      <trkpt lat="37.9542631377" lon="-6.1589337699">
        <ele>481.28</ele>
        <time>2020-07-11T05:18:15Z</time>
      </trkpt>
      <trkpt lat="37.9543848429" lon="-6.1588984821">
        <ele>483.20</ele>
        <time>2020-07-11T05:18:23Z</time>
      </trkpt>
      <trkpt lat="37.9543959908" lon="-6.1588947102">
        <ele>483.20</ele>
        <time>2020-07-11T05:18:24Z</time>
      </trkpt>
      <trkpt lat="37.9545165226" lon="-6.1588263139">
        <ele>481.28</ele>
        <time>2020-07-11T05:18:31Z</time>
      </trkpt>
      <trkpt lat="37.9546505492" lon="-6.1587027647">
        <ele>479.84</ele>
        <time>2020-07-11T05:18:39Z</time>
      </trkpt>
      <trkpt lat="37.9547741823" lon="-6.1585715879">
        <ele>477.91</ele>
        <time>2020-07-11T05:18:45Z</time>
      </trkpt>
      <trkpt lat="37.9549347796" lon="-6.1583577655">
        <ele>474.55</ele>
        <time>2020-07-11T05:18:52Z</time>
      </trkpt>
      <trkpt lat="37.9550336860" lon="-6.1582724378">
        <ele>473.11</ele>
        <time>2020-07-11T05:18:55Z</time>
      </trkpt>
      <trkpt lat="37.9550746735" lon="-6.1582501419">
        <ele>473.11</ele>
        <time>2020-07-11T05:18:56Z</time>
      </trkpt>
      <trkpt lat="37.9551989771" lon="-6.1581985094">
        <ele>471.18</ele>
        <time>2020-07-11T05:18:59Z</time>
      </trkpt>
      <trkpt lat="37.9555692896" lon="-6.1581260059">
        <ele>466.86</ele>
        <time>2020-07-11T05:19:06Z</time>
      </trkpt>
      <trkpt lat="37.9558342416" lon="-6.1580754630">
        <ele>465.42</ele>
        <time>2020-07-11T05:19:11Z</time>
      </trkpt>
      <trkpt lat="37.9558847006" lon="-6.1580774747">
        <ele>465.42</ele>
        <time>2020-07-11T05:19:12Z</time>
      </trkpt>
      <trkpt lat="37.9559330642" lon="-6.1580866948">
        <ele>464.93</ele>
        <time>2020-07-11T05:19:13Z</time>
      </trkpt>
      <trkpt lat="37.9559862893" lon="-6.1581079010">
        <ele>464.93</ele>
        <time>2020-07-11T05:19:14Z</time>
      </trkpt>
      <trkpt lat="37.9560335632" lon="-6.1581411771">
        <ele>464.93</ele>
        <time>2020-07-11T05:19:15Z</time>
      </trkpt>
      <trkpt lat="37.9560769815" lon="-6.1581842601">
        <ele>464.45</ele>
        <time>2020-07-11T05:19:16Z</time>
      </trkpt>
      <trkpt lat="37.9561152868" lon="-6.1582316179">
        <ele>463.97</ele>
        <time>2020-07-11T05:19:17Z</time>
      </trkpt>
      <trkpt lat="37.9561541788" lon="-6.1582864355">
        <ele>463.01</ele>
        <time>2020-07-11T05:19:18Z</time>
      </trkpt>
      <trkpt lat="37.9561903048" lon="-6.1583426781">
        <ele>462.05</ele>
        <time>2020-07-11T05:19:19Z</time>
      </trkpt>
      <trkpt lat="37.9564207233" lon="-6.1588053592">
        <ele>456.76</ele>
        <time>2020-07-11T05:19:26Z</time>
      </trkpt>
      <trkpt lat="37.9565233178" lon="-6.1590617616">
        <ele>453.40</ele>
        <time>2020-07-11T05:19:31Z</time>
      </trkpt>
      <trkpt lat="37.9566170275" lon="-6.1593368556">
        <ele>450.03</ele>
        <time>2020-07-11T05:19:38Z</time>
      </trkpt>
      <trkpt lat="37.9566881899" lon="-6.1595123727">
        <ele>447.63</ele>
        <time>2020-07-11T05:19:44Z</time>
      </trkpt>
      <trkpt lat="37.9567834083" lon="-6.1596374307">
        <ele>446.19</ele>
        <time>2020-07-11T05:19:53Z</time>
      </trkpt>
      <trkpt lat="37.9568264075" lon="-6.1596899852">
        <ele>445.71</ele>
        <time>2020-07-11T05:20:01Z</time>
      </trkpt>
      <trkpt lat="37.9568179417" lon="-6.1596828606">
        <ele>447.63</ele>
        <time>2020-07-11T05:20:16Z</time>
      </trkpt>
      <trkpt lat="37.9568597674" lon="-6.1597470660">
        <ele>447.63</ele>
        <time>2020-07-11T05:20:23Z</time>
      </trkpt>
      <trkpt lat="37.9570294172" lon="-6.1598722078">
        <ele>446.19</ele>
        <time>2020-07-11T05:20:33Z</time>
      </trkpt>
      <trkpt lat="37.9570750985" lon="-6.1598961800">
        <ele>446.67</ele>
        <time>2020-07-11T05:20:36Z</time>
      </trkpt>
      <trkpt lat="37.9570585862" lon="-6.1599207390">
        <ele>446.19</ele>
        <time>2020-07-11T05:20:41Z</time>
      </trkpt>
      <trkpt lat="37.9570494499" lon="-6.1599121895">
        <ele>446.19</ele>
        <time>2020-07-11T05:20:42Z</time>
      </trkpt>
      <trkpt lat="37.9570374638" lon="-6.1598979402">
        <ele>446.19</ele>
        <time>2020-07-11T05:20:43Z</time>
      </trkpt>
      <trkpt lat="37.9570224602" lon="-6.1598825175">
        <ele>446.19</ele>
        <time>2020-07-11T05:20:44Z</time>
      </trkpt>
      <trkpt lat="37.9570035171" lon="-6.1598665919">
        <ele>446.19</ele>
        <time>2020-07-11T05:20:45Z</time>
      </trkpt>
      <trkpt lat="37.9569817241" lon="-6.1598483194">
        <ele>446.19</ele>
        <time>2020-07-11T05:20:46Z</time>
      </trkpt>
      <trkpt lat="37.9568551574" lon="-6.1597448867">
        <ele>445.23</ele>
        <time>2020-07-11T05:20:54Z</time>
      </trkpt>
      <trkpt lat="37.9568207916" lon="-6.1597202439">
        <ele>445.71</ele>
        <time>2020-07-11T05:21:00Z</time>
      </trkpt>
      <trkpt lat="37.9568029381" lon="-6.1597319786">
        <ele>445.23</ele>
        <time>2020-07-11T05:21:17Z</time>
      </trkpt>
      <trkpt lat="37.9568086378" lon="-6.1597360857">
        <ele>446.19</ele>
        <time>2020-07-11T05:21:27Z</time>
      </trkpt>
      <trkpt lat="37.9567975737" lon="-6.1597021390">
        <ele>447.15</ele>
        <time>2020-07-11T05:21:33Z</time>
      </trkpt>
      <trkpt lat="37.9568029381" lon="-6.1596829444">
        <ele>448.11</ele>
        <time>2020-07-11T05:21:40Z</time>
      </trkpt>
      <trkpt lat="37.9567804746" lon="-6.1596763227">
        <ele>448.11</ele>
        <time>2020-07-11T05:21:50Z</time>
      </trkpt>
      <trkpt lat="37.9567913711" lon="-6.1596756522">
        <ele>449.07</ele>
        <time>2020-07-11T05:22:09Z</time>
      </trkpt>
      <trkpt lat="37.9567783792" lon="-6.1596745625">
        <ele>447.63</ele>
        <time>2020-07-11T05:22:27Z</time>
      </trkpt>
      <trkpt lat="37.9568032734" lon="-6.1596836988">
        <ele>447.15</ele>
        <time>2020-07-11T05:22:42Z</time>
      </trkpt>
      <trkpt lat="37.9568135832" lon="-6.1596926674">
        <ele>447.15</ele>
        <time>2020-07-11T05:22:43Z</time>
      </trkpt>
      <trkpt lat="37.9568248149" lon="-6.1597020552">
        <ele>447.15</ele>
        <time>2020-07-11T05:22:44Z</time>
      </trkpt>
      <trkpt lat="37.9568404052" lon="-6.1597152986">
        <ele>447.15</ele>
        <time>2020-07-11T05:22:45Z</time>
      </trkpt>
      <trkpt lat="37.9568596836" lon="-6.1597354151">
        <ele>446.67</ele>
        <time>2020-07-11T05:22:46Z</time>
      </trkpt>
      <trkpt lat="37.9570310935" lon="-6.1598775722">
        <ele>445.71</ele>
        <time>2020-07-11T05:22:53Z</time>
      </trkpt>
      <trkpt lat="37.9571926966" lon="-6.1599613074">
        <ele>447.15</ele>
        <time>2020-07-11T05:23:01Z</time>
      </trkpt>
      <trkpt lat="37.9574221931" lon="-6.1601020396">
        <ele>449.55</ele>
        <time>2020-07-11T05:23:12Z</time>
      </trkpt>
      <trkpt lat="37.9576268792" lon="-6.1602690071">
        <ele>450.03</ele>
        <time>2020-07-11T05:23:22Z</time>
      </trkpt>
      <trkpt lat="37.9578731395" lon="-6.1604471225">
        <ele>451.96</ele>
        <time>2020-07-11T05:23:34Z</time>
      </trkpt>
      <trkpt lat="37.9580338206" lon="-6.1605950631">
        <ele>451.96</ele>
        <time>2020-07-11T05:23:42Z</time>
      </trkpt>
      <trkpt lat="37.9581061564" lon="-6.1606621183">
        <ele>451.96</ele>
        <time>2020-07-11T05:23:48Z</time>
      </trkpt>
      <trkpt lat="37.9581511673" lon="-6.1607076321">
        <ele>451.48</ele>
        <time>2020-07-11T05:23:55Z</time>
      </trkpt>
      <trkpt lat="37.9581472278" lon="-6.1607039440">
        <ele>451.00</ele>
        <time>2020-07-11T05:24:11Z</time>
      </trkpt>
      <trkpt lat="37.9581708647" lon="-6.1607471108">
        <ele>451.48</ele>
        <time>2020-07-11T05:24:22Z</time>
      </trkpt>
      <trkpt lat="37.9583136085" lon="-6.1609201133">
        <ele>452.44</ele>
        <time>2020-07-11T05:24:31Z</time>
      </trkpt>
      <trkpt lat="37.9584591184" lon="-6.1611218657">
        <ele>452.92</ele>
        <time>2020-07-11T05:24:40Z</time>
      </trkpt>
      <trkpt lat="37.9586648103" lon="-6.1614066828">
        <ele>453.88</ele>
        <time>2020-07-11T05:24:52Z</time>
      </trkpt>
      <trkpt lat="37.9588661436" lon="-6.1616133805">
        <ele>455.80</ele>
        <time>2020-07-11T05:25:03Z</time>
      </trkpt>
      <trkpt lat="37.9590357933" lon="-6.1617568787">
        <ele>458.21</ele>
        <time>2020-07-11T05:25:14Z</time>
      </trkpt>
      <trkpt lat="37.9591569118" lon="-6.1618527677">
        <ele>460.61</ele>
        <time>2020-07-11T05:25:22Z</time>
      </trkpt>
      <trkpt lat="37.9592966381" lon="-6.1619551107">
        <ele>462.53</ele>
        <time>2020-07-11T05:25:31Z</time>
      </trkpt>
      <trkpt lat="37.9594521224" lon="-6.1620665900">
        <ele>463.97</ele>
        <time>2020-07-11T05:25:40Z</time>
      </trkpt>
      <trkpt lat="37.9596073553" lon="-6.1621499062">
        <ele>464.93</ele>
        <time>2020-07-11T05:25:48Z</time>
      </trkpt>
      <trkpt lat="37.9598227702" lon="-6.1622237507">
        <ele>465.42</ele>
        <time>2020-07-11T05:25:57Z</time>
      </trkpt>
      <trkpt lat="37.9601023905" lon="-6.1622700188">
        <ele>465.42</ele>
        <time>2020-07-11T05:26:06Z</time>
      </trkpt>
      <trkpt lat="37.9604647402" lon="-6.1623276025">
        <ele>465.42</ele>
        <time>2020-07-11T05:26:17Z</time>
      </trkpt>
      <trkpt lat="37.9608127568" lon="-6.1623800732">
        <ele>465.42</ele>
        <time>2020-07-11T05:26:29Z</time>
      </trkpt>
      <trkpt lat="37.9610793013" lon="-6.1623906344">
        <ele>467.34</ele>
        <time>2020-07-11T05:26:39Z</time>
      </trkpt>
      <trkpt lat="37.9613175150" lon="-6.1623645667">
        <ele>469.26</ele>
        <time>2020-07-11T05:26:49Z</time>
      </trkpt>
      <trkpt lat="37.9615460895" lon="-6.1623019539">
        <ele>471.18</ele>
        <time>2020-07-11T05:26:59Z</time>
      </trkpt>
      <trkpt lat="37.9617507756" lon="-6.1622579489">
        <ele>471.18</ele>
        <time>2020-07-11T05:27:08Z</time>
      </trkpt>
      <trkpt lat="37.9619653523" lon="-6.1622597929">
        <ele>469.26</ele>
        <time>2020-07-11T05:27:16Z</time>
      </trkpt>
      <trkpt lat="37.9623095971" lon="-6.1623287760">
        <ele>468.78</ele>
        <time>2020-07-11T05:27:25Z</time>
      </trkpt>
      <trkpt lat="37.9626213200" lon="-6.1624341365">
        <ele>467.34</ele>
        <time>2020-07-11T05:27:32Z</time>
      </trkpt>
      <trkpt lat="37.9628699273" lon="-6.1624891218">
        <ele>466.86</ele>
        <time>2020-07-11T05:27:38Z</time>
      </trkpt>
      <trkpt lat="37.9631625395" lon="-6.1625673249">
        <ele>468.78</ele>
        <time>2020-07-11T05:27:48Z</time>
      </trkpt>
      <trkpt lat="37.9635605961" lon="-6.1627003457">
        <ele>471.66</ele>
        <time>2020-07-11T05:28:02Z</time>
      </trkpt>
      <trkpt lat="37.9637940321" lon="-6.1627644673">
        <ele>473.11</ele>
        <time>2020-07-11T05:28:11Z</time>
      </trkpt>
      <trkpt lat="37.9640498478" lon="-6.1628082208">
        <ele>474.07</ele>
        <time>2020-07-11T05:28:21Z</time>
      </trkpt>
      <trkpt lat="37.9642999638" lon="-6.1628179438">
        <ele>475.99</ele>
        <time>2020-07-11T05:28:32Z</time>
      </trkpt>
      <trkpt lat="37.9645443801" lon="-6.1628045328">
        <ele>477.43</ele>
        <time>2020-07-11T05:28:42Z</time>
      </trkpt>
      <trkpt lat="37.9647958372" lon="-6.1627929658">
        <ele>476.95</ele>
        <time>2020-07-11T05:28:52Z</time>
      </trkpt>
      <trkpt lat="37.9650379904" lon="-6.1628067121">
        <ele>477.43</ele>
        <time>2020-07-11T05:29:01Z</time>
      </trkpt>
      <trkpt lat="37.9653260764" lon="-6.1628730129">
        <ele>477.43</ele>
        <time>2020-07-11T05:29:11Z</time>
      </trkpt>
      <trkpt lat="37.9655635357" lon="-6.1629403196">
        <ele>477.43</ele>
        <time>2020-07-11T05:29:19Z</time>
      </trkpt>
      <trkpt lat="37.9658548068" lon="-6.1629835702">
        <ele>478.39</ele>
        <time>2020-07-11T05:29:29Z</time>
      </trkpt>
      <trkpt lat="37.9661540408" lon="-6.1630145833">
        <ele>479.84</ele>
        <time>2020-07-11T05:29:40Z</time>
      </trkpt>
      <trkpt lat="37.9663796816" lon="-6.1630296707">
        <ele>480.32</ele>
        <time>2020-07-11T05:29:49Z</time>
      </trkpt>
      <trkpt lat="37.9666437954" lon="-6.1630673055">
        <ele>481.28</ele>
        <time>2020-07-11T05:30:00Z</time>
      </trkpt>
      <trkpt lat="37.9668175522" lon="-6.1631050240">
        <ele>481.76</ele>
        <time>2020-07-11T05:30:09Z</time>
      </trkpt>
      <trkpt lat="37.9670463782" lon="-6.1631460115">
        <ele>482.24</ele>
        <time>2020-07-11T05:30:20Z</time>
      </trkpt>
      <trkpt lat="37.9671995994" lon="-6.1631777789">
        <ele>483.20</ele>
        <time>2020-07-11T05:30:28Z</time>
      </trkpt>
      <trkpt lat="37.9673552513" lon="-6.1632137373">
        <ele>484.16</ele>
        <time>2020-07-11T05:30:36Z</time>
      </trkpt>
      <trkpt lat="37.9675355460" lon="-6.1632619333">
        <ele>485.12</ele>
        <time>2020-07-11T05:30:46Z</time>
      </trkpt>
      <trkpt lat="37.9677020945" lon="-6.1633278150">
        <ele>486.56</ele>
        <time>2020-07-11T05:30:56Z</time>
      </trkpt>
      <trkpt lat="37.9677181039" lon="-6.1633328442">
        <ele>486.56</ele>
        <time>2020-07-11T05:30:57Z</time>
      </trkpt>
      <trkpt lat="37.9677341972" lon="-6.1633351911">
        <ele>486.56</ele>
        <time>2020-07-11T05:30:58Z</time>
      </trkpt>
      <trkpt lat="37.9677498713" lon="-6.1633416452">
        <ele>487.05</ele>
        <time>2020-07-11T05:30:59Z</time>
      </trkpt>
      <trkpt lat="37.9678838141" lon="-6.1634354386">
        <ele>487.05</ele>
        <time>2020-07-11T05:31:07Z</time>
      </trkpt>
      <trkpt lat="37.9680320900" lon="-6.1635702197">
        <ele>488.01</ele>
        <time>2020-07-11T05:31:16Z</time>
      </trkpt>
      <trkpt lat="37.9681541305" lon="-6.1636981275">
        <ele>487.05</ele>
        <time>2020-07-11T05:31:24Z</time>
      </trkpt>
      <trkpt lat="37.9683128837" lon="-6.1638496723">
        <ele>486.08</ele>
        <time>2020-07-11T05:31:33Z</time>
      </trkpt>
      <trkpt lat="37.9684605729" lon="-6.1640177295">
        <ele>486.08</ele>
        <time>2020-07-11T05:31:41Z</time>
      </trkpt>
      <trkpt lat="37.9686336592" lon="-6.1641877983">
        <ele>487.05</ele>
        <time>2020-07-11T05:31:49Z</time>
      </trkpt>
      <trkpt lat="37.9688761476" lon="-6.1644168757">
        <ele>486.56</ele>
        <time>2020-07-11T05:32:00Z</time>
      </trkpt>
      <trkpt lat="37.9690895509" lon="-6.1645969190">
        <ele>487.05</ele>
        <time>2020-07-11T05:32:09Z</time>
      </trkpt>
      <trkpt lat="37.9693369009" lon="-6.1647537444">
        <ele>489.45</ele>
        <time>2020-07-11T05:32:19Z</time>
      </trkpt>
      <trkpt lat="37.9695870169" lon="-6.1649003439">
        <ele>491.85</ele>
        <time>2020-07-11T05:32:29Z</time>
      </trkpt>
      <trkpt lat="37.9698372167" lon="-6.1650425848">
        <ele>493.29</ele>
        <time>2020-07-11T05:32:40Z</time>
      </trkpt>
      <trkpt lat="37.9700773582" lon="-6.1650649644">
        <ele>492.81</ele>
        <time>2020-07-11T05:32:48Z</time>
      </trkpt>
      <trkpt lat="37.9703224450" lon="-6.1650782917">
        <ele>493.29</ele>
        <time>2020-07-11T05:32:57Z</time>
      </trkpt>
      <trkpt lat="37.9705955274" lon="-6.1650919542">
        <ele>494.26</ele>
        <time>2020-07-11T05:33:07Z</time>
      </trkpt>
      <trkpt lat="37.9708355013" lon="-6.1651126575">
        <ele>496.66</ele>
        <time>2020-07-11T05:33:17Z</time>
      </trkpt>
      <trkpt lat="37.9708604794" lon="-6.1651166808">
        <ele>497.14</ele>
        <time>2020-07-11T05:33:22Z</time>
      </trkpt>
      <trkpt lat="37.9708606470" lon="-6.1651112325">
        <ele>497.62</ele>
        <time>2020-07-11T05:33:37Z</time>
      </trkpt>
      <trkpt lat="37.9708489124" lon="-6.1651104782">
        <ele>497.14</ele>
        <time>2020-07-11T05:33:53Z</time>
      </trkpt>
      <trkpt lat="37.9708564561" lon="-6.1651140824">
        <ele>497.14</ele>
        <time>2020-07-11T05:34:02Z</time>
      </trkpt>
      <trkpt lat="37.9708661791" lon="-6.1651136633">
        <ele>497.62</ele>
        <time>2020-07-11T05:34:15Z</time>
      </trkpt>
      <trkpt lat="37.9709072504" lon="-6.1651313491">
        <ele>498.58</ele>
        <time>2020-07-11T05:34:28Z</time>
      </trkpt>
      <trkpt lat="37.9710894730" lon="-6.1651489511">
        <ele>500.50</ele>
        <time>2020-07-11T05:34:39Z</time>
      </trkpt>
      <trkpt lat="37.9712561890" lon="-6.1651609372">
        <ele>500.98</ele>
        <time>2020-07-11T05:34:48Z</time>
      </trkpt>
      <trkpt lat="37.9714324605" lon="-6.1651679780">
        <ele>502.43</ele>
        <time>2020-07-11T05:34:57Z</time>
      </trkpt>
      <trkpt lat="37.9715752043" lon="-6.1651871726">
        <ele>503.39</ele>
        <time>2020-07-11T05:35:05Z</time>
      </trkpt>
      <trkpt lat="37.9717580974" lon="-6.1652321834">
        <ele>504.35</ele>
        <time>2020-07-11T05:35:15Z</time>
      </trkpt>
      <trkpt lat="37.9719163477" lon="-6.1653157510">
        <ele>504.35</ele>
        <time>2020-07-11T05:35:25Z</time>
      </trkpt>
      <trkpt lat="37.9720575828" lon="-6.1653869133">
        <ele>504.83</ele>
        <time>2020-07-11T05:35:33Z</time>
      </trkpt>
      <trkpt lat="37.9722640291" lon="-6.1654783599">
        <ele>506.27</ele>
        <time>2020-07-11T05:35:43Z</time>
      </trkpt>
      <trkpt lat="37.9724782705" lon="-6.1655518692">
        <ele>507.71</ele>
        <time>2020-07-11T05:35:54Z</time>
      </trkpt>
      <trkpt lat="37.9726573080" lon="-6.1655954551">
        <ele>508.67</ele>
        <time>2020-07-11T05:36:03Z</time>
      </trkpt>
      <trkpt lat="37.9728543665" lon="-6.1656303238">
        <ele>509.64</ele>
        <time>2020-07-11T05:36:13Z</time>
      </trkpt>
      <trkpt lat="37.9730811808" lon="-6.1656367779">
        <ele>508.67</ele>
        <time>2020-07-11T05:36:23Z</time>
      </trkpt>
      <trkpt lat="37.9733038880" lon="-6.1656544637">
        <ele>507.71</ele>
        <time>2020-07-11T05:36:29Z</time>
      </trkpt>
      <trkpt lat="37.9733532574" lon="-6.1656675395">
        <ele>506.75</ele>
        <time>2020-07-11T05:36:30Z</time>
      </trkpt>
      <trkpt lat="37.9734093323" lon="-6.1656893324">
        <ele>506.27</ele>
        <time>2020-07-11T05:36:31Z</time>
      </trkpt>
      <trkpt lat="37.9737715982" lon="-6.1658911686">
        <ele>502.91</ele>
        <time>2020-07-11T05:36:37Z</time>
      </trkpt>
      <trkpt lat="37.9742445890" lon="-6.1661771592">
        <ele>499.06</ele>
        <time>2020-07-11T05:36:45Z</time>
      </trkpt>
      <trkpt lat="37.9742970597" lon="-6.1662144586">
        <ele>499.06</ele>
        <time>2020-07-11T05:36:46Z</time>
      </trkpt>
      <trkpt lat="37.9745165817" lon="-6.1663971841">
        <ele>499.06</ele>
        <time>2020-07-11T05:36:52Z</time>
      </trkpt>
      <trkpt lat="37.9746485967" lon="-6.1664837692">
        <ele>500.02</ele>
        <time>2020-07-11T05:36:58Z</time>
      </trkpt>
      <trkpt lat="37.9748231079" lon="-6.1665144470">
        <ele>500.98</ele>
        <time>2020-07-11T05:37:05Z</time>
      </trkpt>
      <trkpt lat="37.9750915803" lon="-6.1665362399">
        <ele>500.98</ele>
        <time>2020-07-11T05:37:15Z</time>
      </trkpt>
      <trkpt lat="37.9753613099" lon="-6.1665512435">
        <ele>500.98</ele>
        <time>2020-07-11T05:37:24Z</time>
      </trkpt>
      <trkpt lat="37.9755767249" lon="-6.1666057259">
        <ele>500.98</ele>
        <time>2020-07-11T05:37:31Z</time>
      </trkpt>
      <trkpt lat="37.9758427665" lon="-6.1666980106">
        <ele>502.43</ele>
        <time>2020-07-11T05:37:40Z</time>
      </trkpt>
      <trkpt lat="37.9761487897" lon="-6.1667959113">
        <ele>502.91</ele>
        <time>2020-07-11T05:37:50Z</time>
      </trkpt>
      <trkpt lat="37.9764429107" lon="-6.1668737791">
        <ele>503.87</ele>
        <time>2020-07-11T05:38:00Z</time>
      </trkpt>
      <trkpt lat="37.9767652787" lon="-6.1668995954">
        <ele>504.35</ele>
        <time>2020-07-11T05:38:11Z</time>
      </trkpt>
      <trkpt lat="37.9770626687" lon="-6.1669216398">
        <ele>505.79</ele>
        <time>2020-07-11T05:38:22Z</time>
      </trkpt>
      <trkpt lat="37.9773830250" lon="-6.1669230647">
        <ele>506.27</ele>
        <time>2020-07-11T05:38:34Z</time>
      </trkpt>
      <trkpt lat="37.9776827618" lon="-6.1668747012">
        <ele>506.27</ele>
        <time>2020-07-11T05:38:45Z</time>
      </trkpt>
      <trkpt lat="37.9779420141" lon="-6.1668281816">
        <ele>506.27</ele>
        <time>2020-07-11T05:38:55Z</time>
      </trkpt>
      <trkpt lat="37.9782076366" lon="-6.1667783093">
        <ele>506.75</ele>
        <time>2020-07-11T05:39:05Z</time>
      </trkpt>
      <trkpt lat="37.9785655439" lon="-6.1667129304">
        <ele>506.75</ele>
        <time>2020-07-11T05:39:19Z</time>
      </trkpt>
      <trkpt lat="37.9788320046" lon="-6.1667002738">
        <ele>508.19</ele>
        <time>2020-07-11T05:39:29Z</time>
      </trkpt>
      <trkpt lat="37.9790768400" lon="-6.1667604558">
        <ele>508.19</ele>
        <time>2020-07-11T05:39:38Z</time>
      </trkpt>
      <trkpt lat="37.9793416243" lon="-6.1668326240">
        <ele>509.64</ele>
        <time>2020-07-11T05:39:48Z</time>
      </trkpt>
      <trkpt lat="37.9796587955" lon="-6.1669207178">
        <ele>510.12</ele>
        <time>2020-07-11T05:40:00Z</time>
      </trkpt>
      <trkpt lat="37.9798818380" lon="-6.1670012679">
        <ele>510.12</ele>
        <time>2020-07-11T05:40:08Z</time>
      </trkpt>
      <trkpt lat="37.9801582731" lon="-6.1671017669">
        <ele>511.08</ele>
        <time>2020-07-11T05:40:19Z</time>
      </trkpt>
      <trkpt lat="37.9803990014" lon="-6.1671813112">
        <ele>512.52</ele>
        <time>2020-07-11T05:40:28Z</time>
      </trkpt>
      <trkpt lat="37.9806161765" lon="-6.1672192812">
        <ele>513.00</ele>
        <time>2020-07-11T05:40:37Z</time>
      </trkpt>
      <trkpt lat="37.9808746744" lon="-6.1672386434">
        <ele>513.96</ele>
        <time>2020-07-11T05:40:47Z</time>
      </trkpt>
      <trkpt lat="37.9811441526" lon="-6.1673358735">
        <ele>513.96</ele>
        <time>2020-07-11T05:40:57Z</time>
      </trkpt>
      <trkpt lat="37.9813821148" lon="-6.1674120650">
        <ele>514.92</ele>
        <time>2020-07-11T05:41:07Z</time>
      </trkpt>
      <trkpt lat="37.9816464800" lon="-6.1674962193">
        <ele>515.40</ele>
        <time>2020-07-11T05:41:17Z</time>
      </trkpt>
      <trkpt lat="37.9818942491" lon="-6.1675898451">
        <ele>516.37</ele>
        <time>2020-07-11T05:41:27Z</time>
      </trkpt>
      <trkpt lat="37.9820413515" lon="-6.1676843092">
        <ele>515.88</ele>
        <time>2020-07-11T05:41:34Z</time>
      </trkpt>
      <trkpt lat="37.9822938982" lon="-6.1679137219">
        <ele>516.85</ele>
        <time>2020-07-11T05:41:46Z</time>
      </trkpt>
      <trkpt lat="37.9825044516" lon="-6.1680865567">
        <ele>517.33</ele>
        <time>2020-07-11T05:41:56Z</time>
      </trkpt>
      <trkpt lat="37.9827285837" lon="-6.1682354193">
        <ele>517.81</ele>
        <time>2020-07-11T05:42:06Z</time>
      </trkpt>
      <trkpt lat="37.9829234630" lon="-6.1683803424">
        <ele>518.77</ele>
        <time>2020-07-11T05:42:15Z</time>
      </trkpt>
      <trkpt lat="37.9831263889" lon="-6.1685390957">
        <ele>519.73</ele>
        <time>2020-07-11T05:42:24Z</time>
      </trkpt>
      <trkpt lat="37.9833034985" lon="-6.1686704401">
        <ele>519.73</ele>
        <time>2020-07-11T05:42:32Z</time>
      </trkpt>
      <trkpt lat="37.9834607430" lon="-6.1687913910">
        <ele>520.21</ele>
        <time>2020-07-11T05:42:40Z</time>
      </trkpt>
      <trkpt lat="37.9837008007" lon="-6.1689721886">
        <ele>520.69</ele>
        <time>2020-07-11T05:42:51Z</time>
      </trkpt>
      <trkpt lat="37.9839551914" lon="-6.1691619549">
        <ele>520.69</ele>
        <time>2020-07-11T05:43:02Z</time>
      </trkpt>
      <trkpt lat="37.9842469655" lon="-6.1693497095">
        <ele>522.13</ele>
        <time>2020-07-11T05:43:14Z</time>
      </trkpt>
      <trkpt lat="37.9844897892" lon="-6.1694881786">
        <ele>522.61</ele>
        <time>2020-07-11T05:43:24Z</time>
      </trkpt>
      <trkpt lat="37.9846375622" lon="-6.1696765199">
        <ele>522.13</ele>
        <time>2020-07-11T05:43:31Z</time>
      </trkpt>
      <trkpt lat="37.9847940523" lon="-6.1698796134">
        <ele>522.13</ele>
        <time>2020-07-11T05:43:40Z</time>
      </trkpt>
      <trkpt lat="37.9850016721" lon="-6.1701357644">
        <ele>522.61</ele>
        <time>2020-07-11T05:43:51Z</time>
      </trkpt>
      <trkpt lat="37.9851879179" lon="-6.1703633331">
        <ele>524.06</ele>
        <time>2020-07-11T05:44:02Z</time>
      </trkpt>
      <trkpt lat="37.9853576515" lon="-6.1705738865">
        <ele>524.54</ele>
        <time>2020-07-11T05:44:13Z</time>
      </trkpt>
      <trkpt lat="37.9854832962" lon="-6.1707436200">
        <ele>525.02</ele>
        <time>2020-07-11T05:44:22Z</time>
      </trkpt>
      <trkpt lat="37.9856136348" lon="-6.1709089112">
        <ele>525.02</ele>
        <time>2020-07-11T05:44:31Z</time>
      </trkpt>
      <trkpt lat="37.9857852962" lon="-6.1711203866">
        <ele>525.98</ele>
        <time>2020-07-11T05:44:43Z</time>
      </trkpt>
      <trkpt lat="37.9859323986" lon="-6.1713264976">
        <ele>526.46</ele>
        <time>2020-07-11T05:44:54Z</time>
      </trkpt>
      <trkpt lat="37.9860989470" lon="-6.1715390626">
        <ele>526.46</ele>
        <time>2020-07-11T05:45:06Z</time>
      </trkpt>
      <trkpt lat="37.9862385057" lon="-6.1717283260">
        <ele>527.42</ele>
        <time>2020-07-11T05:45:17Z</time>
      </trkpt>
      <trkpt lat="37.9863900505" lon="-6.1719139852">
        <ele>529.34</ele>
        <time>2020-07-11T05:45:28Z</time>
      </trkpt>
      <trkpt lat="37.9865649808" lon="-6.1721414700">
        <ele>531.27</ele>
        <time>2020-07-11T05:45:41Z</time>
      </trkpt>
      <trkpt lat="37.9867011029" lon="-6.1723327450">
        <ele>532.71</ele>
        <time>2020-07-11T05:45:52Z</time>
      </trkpt>
      <trkpt lat="37.9867968243" lon="-6.1724904086">
        <ele>532.23</ele>
        <time>2020-07-11T05:46:01Z</time>
      </trkpt>
      <trkpt lat="37.9869071301" lon="-6.1726596393">
        <ele>531.27</ele>
        <time>2020-07-11T05:46:09Z</time>
      </trkpt>
      <trkpt lat="37.9871052783" lon="-6.1729461327">
        <ele>531.27</ele>
        <time>2020-07-11T05:46:18Z</time>
      </trkpt>
      <trkpt lat="37.9873361159" lon="-6.1733283475">
        <ele>529.82</ele>
        <time>2020-07-11T05:46:27Z</time>
      </trkpt>
      <trkpt lat="37.9876122158" lon="-6.1737740133">
        <ele>527.90</ele>
        <time>2020-07-11T05:46:36Z</time>
      </trkpt>
      <trkpt lat="37.9879045766" lon="-6.1742032506">
        <ele>525.02</ele>
        <time>2020-07-11T05:46:43Z</time>
      </trkpt>
      <trkpt lat="37.9882017989" lon="-6.1745889019">
        <ele>521.17</ele>
        <time>2020-07-11T05:46:49Z</time>
      </trkpt>
      <trkpt lat="37.9886685032" lon="-6.1751487292">
        <ele>518.29</ele>
        <time>2020-07-11T05:46:58Z</time>
      </trkpt>
      <trkpt lat="37.9889285099" lon="-6.1755022779">
        <ele>518.29</ele>
        <time>2020-07-11T05:47:04Z</time>
      </trkpt>
      <trkpt lat="37.9890699126" lon="-6.1756626237">
        <ele>519.25</ele>
        <time>2020-07-11T05:47:09Z</time>
      </trkpt>
      <trkpt lat="37.9892211221" lon="-6.1757735163">
        <ele>521.65</ele>
        <time>2020-07-11T05:47:17Z</time>
      </trkpt>
      <trkpt lat="37.9892258998" lon="-6.1757814791">
        <ele>522.13</ele>
        <time>2020-07-11T05:47:23Z</time>
      </trkpt>
      <trkpt lat="37.9892314319" lon="-6.1757802218">
        <ele>524.06</ele>
        <time>2020-07-11T05:47:41Z</time>
      </trkpt>
      <trkpt lat="37.9892300908" lon="-6.1757839099">
        <ele>524.06</ele>
        <time>2020-07-11T05:47:54Z</time>
      </trkpt>
      <trkpt lat="37.9892327730" lon="-6.1757820658">
        <ele>522.13</ele>
        <time>2020-07-11T05:48:08Z</time>
      </trkpt>
      <trkpt lat="37.9892337788" lon="-6.1757819820">
        <ele>520.69</ele>
        <time>2020-07-11T05:48:25Z</time>
      </trkpt>
      <trkpt lat="37.9892348684" lon="-6.1757838260">
        <ele>521.65</ele>
        <time>2020-07-11T05:48:41Z</time>
      </trkpt>
      <trkpt lat="37.9892516322" lon="-6.1757981591">
        <ele>522.13</ele>
        <time>2020-07-11T05:48:49Z</time>
      </trkpt>
      <trkpt lat="37.9892638698" lon="-6.1758115701">
        <ele>522.61</ele>
        <time>2020-07-11T05:48:50Z</time>
      </trkpt>
      <trkpt lat="37.9892798793" lon="-6.1758259870">
        <ele>522.61</ele>
        <time>2020-07-11T05:48:51Z</time>
      </trkpt>
      <trkpt lat="37.9894675501" lon="-6.1759586725">
        <ele>523.09</ele>
        <time>2020-07-11T05:48:58Z</time>
      </trkpt>
      <trkpt lat="37.9897831287" lon="-6.1761741713">
        <ele>523.09</ele>
        <time>2020-07-11T05:49:09Z</time>
      </trkpt>
      <trkpt lat="37.9901810177" lon="-6.1764392070">
        <ele>522.13</ele>
        <time>2020-07-11T05:49:21Z</time>
      </trkpt>
      <trkpt lat="37.9903904814" lon="-6.1766377743">
        <ele>522.61</ele>
        <time>2020-07-11T05:49:29Z</time>
      </trkpt>
      <trkpt lat="37.9905551858" lon="-6.1767909117">
        <ele>522.13</ele>
        <time>2020-07-11T05:49:35Z</time>
      </trkpt>
      <trkpt lat="37.9905820917" lon="-6.1768299714">
        <ele>522.13</ele>
        <time>2020-07-11T05:49:36Z</time>
      </trkpt>
      <trkpt lat="37.9906059802" lon="-6.1768705398">
        <ele>522.13</ele>
        <time>2020-07-11T05:49:37Z</time>
      </trkpt>
      <trkpt lat="37.9907396715" lon="-6.1771325581">
        <ele>523.09</ele>
        <time>2020-07-11T05:49:45Z</time>
      </trkpt>
      <trkpt lat="37.9909324553" lon="-6.1774717737">
        <ele>523.58</ele>
        <time>2020-07-11T05:49:56Z</time>
      </trkpt>
      <trkpt lat="37.9911749437" lon="-6.1778093968">
        <ele>524.06</ele>
        <time>2020-07-11T05:50:08Z</time>
      </trkpt>
      <trkpt lat="37.9913766123" lon="-6.1780796293">
        <ele>524.54</ele>
        <time>2020-07-11T05:50:19Z</time>
      </trkpt>
      <trkpt lat="37.9915681388" lon="-6.1783421505">
        <ele>522.61</ele>
        <time>2020-07-11T05:50:26Z</time>
      </trkpt>
      <trkpt lat="37.9919130541" lon="-6.1787703820">
        <ele>520.69</ele>
        <time>2020-07-11T05:50:36Z</time>
      </trkpt>
      <trkpt lat="37.9920634255" lon="-6.1789680272">
        <ele>520.21</ele>
        <time>2020-07-11T05:50:40Z</time>
      </trkpt>
      <trkpt lat="37.9922011402" lon="-6.1791885551">
        <ele>521.65</ele>
        <time>2020-07-11T05:50:46Z</time>
      </trkpt>
      <trkpt lat="37.9924189020" lon="-6.1793740466">
        <ele>523.09</ele>
        <time>2020-07-11T05:50:54Z</time>
      </trkpt>
      <trkpt lat="37.9927753843" lon="-6.1794780660">
        <ele>523.09</ele>
        <time>2020-07-11T05:51:05Z</time>
      </trkpt>
      <trkpt lat="37.9930054676" lon="-6.1796714365">
        <ele>523.09</ele>
        <time>2020-07-11T05:51:13Z</time>
      </trkpt>
      <trkpt lat="37.9931441881" lon="-6.1799827404">
        <ele>522.61</ele>
        <time>2020-07-11T05:51:20Z</time>
      </trkpt>
      <trkpt lat="37.9932531528" lon="-6.1802496202">
        <ele>523.58</ele>
        <time>2020-07-11T05:51:28Z</time>
      </trkpt>
      <trkpt lat="37.9934212100" lon="-6.1805470102">
        <ele>524.06</ele>
        <time>2020-07-11T05:51:38Z</time>
      </trkpt>
      <trkpt lat="37.9936038516" lon="-6.1807846371">
        <ele>525.98</ele>
        <time>2020-07-11T05:51:49Z</time>
      </trkpt>
      <trkpt lat="37.9938258883" lon="-6.1810137145">
        <ele>526.46</ele>
        <time>2020-07-11T05:52:02Z</time>
      </trkpt>
      <trkpt lat="37.9940424766" lon="-6.1812004633">
        <ele>527.42</ele>
        <time>2020-07-11T05:52:14Z</time>
      </trkpt>
      <trkpt lat="37.9942570534" lon="-6.1813670117">
        <ele>529.82</ele>
        <time>2020-07-11T05:52:26Z</time>
      </trkpt>
      <trkpt lat="37.9944371805" lon="-6.1814824305">
        <ele>529.34</ele>
        <time>2020-07-11T05:52:36Z</time>
      </trkpt>
      <trkpt lat="37.9945616517" lon="-6.1815095879">
        <ele>529.82</ele>
        <time>2020-07-11T05:52:43Z</time>
      </trkpt>
      <trkpt lat="37.9947205726" lon="-6.1815312970">
        <ele>529.82</ele>
        <time>2020-07-11T05:52:50Z</time>
      </trkpt>
      <trkpt lat="37.9949240014" lon="-6.1816123500">
        <ele>529.34</ele>
        <time>2020-07-11T05:52:57Z</time>
      </trkpt>
      <trkpt lat="37.9950582795" lon="-6.1817734502">
        <ele>528.38</ele>
        <time>2020-07-11T05:53:03Z</time>
      </trkpt>
      <trkpt lat="37.9952122550" lon="-6.1820656434">
        <ele>528.38</ele>
        <time>2020-07-11T05:53:14Z</time>
      </trkpt>
      <trkpt lat="37.9953474551" lon="-6.1823190283">
        <ele>529.34</ele>
        <time>2020-07-11T05:53:24Z</time>
      </trkpt>
      <trkpt lat="37.9955134168" lon="-6.1825421546">
        <ele>528.38</ele>
        <time>2020-07-11T05:53:32Z</time>
      </trkpt>
      <trkpt lat="37.9957902711" lon="-6.1828084476">
        <ele>526.46</ele>
        <time>2020-07-11T05:53:39Z</time>
      </trkpt>
      <trkpt lat="37.9961589910" lon="-6.1831379402">
        <ele>525.98</ele>
        <time>2020-07-11T05:53:47Z</time>
      </trkpt>
      <trkpt lat="37.9963627551" lon="-6.1833474040">
        <ele>526.46</ele>
        <time>2020-07-11T05:53:54Z</time>
      </trkpt>
      <trkpt lat="37.9966275394" lon="-6.1835367512">
        <ele>525.98</ele>
        <time>2020-07-11T05:54:03Z</time>
      </trkpt>
      <trkpt lat="37.9968986940" lon="-6.1836692691">
        <ele>524.06</ele>
        <time>2020-07-11T05:54:09Z</time>
      </trkpt>
      <trkpt lat="37.9971819185" lon="-6.1838057265">
        <ele>523.58</ele>
        <time>2020-07-11T05:54:15Z</time>
      </trkpt>
      <trkpt lat="37.9973307811" lon="-6.1838882882">
        <ele>523.58</ele>
        <time>2020-07-11T05:54:20Z</time>
      </trkpt>
      <trkpt lat="37.9975858424" lon="-6.1839582771">
        <ele>522.61</ele>
        <time>2020-07-11T05:54:28Z</time>
      </trkpt>
      <trkpt lat="37.9976279195" lon="-6.1839716043">
        <ele>522.61</ele>
        <time>2020-07-11T05:54:29Z</time>
      </trkpt>
      <trkpt lat="37.9976721760" lon="-6.1839949060">
        <ele>522.13</ele>
        <time>2020-07-11T05:54:30Z</time>
      </trkpt>
      <trkpt lat="37.9977158457" lon="-6.1840243265">
        <ele>522.13</ele>
        <time>2020-07-11T05:54:31Z</time>
      </trkpt>
      <trkpt lat="37.9977588449" lon="-6.1840592790">
        <ele>522.13</ele>
        <time>2020-07-11T05:54:32Z</time>
      </trkpt>
      <trkpt lat="37.9977928754" lon="-6.1840933934">
        <ele>522.13</ele>
        <time>2020-07-11T05:54:33Z</time>
      </trkpt>
      <trkpt lat="37.9978223797" lon="-6.1841289327">
        <ele>522.13</ele>
        <time>2020-07-11T05:54:34Z</time>
      </trkpt>
      <trkpt lat="37.9978491180" lon="-6.1841608677">
        <ele>522.61</ele>
        <time>2020-07-11T05:54:35Z</time>
      </trkpt>
      <trkpt lat="37.9980318435" lon="-6.1844317708">
        <ele>524.54</ele>
        <time>2020-07-11T05:54:44Z</time>
      </trkpt>
      <trkpt lat="37.9981666245" lon="-6.1846271530">
        <ele>526.46</ele>
        <time>2020-07-11T05:54:53Z</time>
      </trkpt>
      <trkpt lat="37.9982707277" lon="-6.1847678851">
        <ele>528.38</ele>
        <time>2020-07-11T05:55:01Z</time>
      </trkpt>
      <trkpt lat="37.9984103702" lon="-6.1849645246">
        <ele>530.79</ele>
        <time>2020-07-11T05:55:11Z</time>
      </trkpt>
      <trkpt lat="37.9985521920" lon="-6.1851418857">
        <ele>532.71</ele>
        <time>2020-07-11T05:55:20Z</time>
      </trkpt>
      <trkpt lat="37.9987085145" lon="-6.1852516886">
        <ele>533.19</ele>
        <time>2020-07-11T05:55:29Z</time>
      </trkpt>
      <trkpt lat="37.9988813493" lon="-6.1853376869">
        <ele>531.75</ele>
        <time>2020-07-11T05:55:37Z</time>
      </trkpt>
      <trkpt lat="37.9991038889" lon="-6.1855049897">
        <ele>531.75</ele>
        <time>2020-07-11T05:55:46Z</time>
      </trkpt>
      <trkpt lat="37.9994185455" lon="-6.1857320555">
        <ele>531.27</ele>
        <time>2020-07-11T05:55:58Z</time>
      </trkpt>
      <trkpt lat="37.9996512271" lon="-6.1857897229">
        <ele>529.82</ele>
        <time>2020-07-11T05:56:05Z</time>
      </trkpt>
      <trkpt lat="37.9998914525" lon="-6.1857768986">
        <ele>527.90</ele>
        <time>2020-07-11T05:56:10Z</time>
      </trkpt>
      <trkpt lat="38.0000239704" lon="-6.1857447121">
        <ele>527.42</ele>
        <time>2020-07-11T05:56:13Z</time>
      </trkpt>
      <trkpt lat="38.0000698194" lon="-6.1857412755">
        <ele>527.42</ele>
        <time>2020-07-11T05:56:14Z</time>
      </trkpt>
      <trkpt lat="38.0001209490" lon="-6.1857471429">
        <ele>526.94</ele>
        <time>2020-07-11T05:56:15Z</time>
      </trkpt>
      <trkpt lat="38.0001693964" lon="-6.1857589614">
        <ele>526.94</ele>
        <time>2020-07-11T05:56:16Z</time>
      </trkpt>
      <trkpt lat="38.0002146587" lon="-6.1857742164">
        <ele>526.94</ele>
        <time>2020-07-11T05:56:17Z</time>
      </trkpt>
      <trkpt lat="38.0002522096" lon="-6.1857937463">
        <ele>527.42</ele>
        <time>2020-07-11T05:56:18Z</time>
      </trkpt>
      <trkpt lat="38.0002828874" lon="-6.1858149525">
        <ele>527.90</ele>
        <time>2020-07-11T05:56:19Z</time>
      </trkpt>
      <trkpt lat="38.0003112182" lon="-6.1858411878">
        <ele>527.90</ele>
        <time>2020-07-11T05:56:20Z</time>
      </trkpt>
      <trkpt lat="38.0005377810" lon="-6.1859721132">
        <ele>528.38</ele>
        <time>2020-07-11T05:56:28Z</time>
      </trkpt>
      <trkpt lat="38.0007837061" lon="-6.1860639788">
        <ele>526.46</ele>
        <time>2020-07-11T05:56:34Z</time>
      </trkpt>
      <trkpt lat="38.0008303095" lon="-6.1860906333">
        <ele>525.50</ele>
        <time>2020-07-11T05:56:35Z</time>
      </trkpt>
      <trkpt lat="38.0008754879" lon="-6.1861239094">
        <ele>525.02</ele>
        <time>2020-07-11T05:56:36Z</time>
      </trkpt>
      <trkpt lat="38.0009210017" lon="-6.1861644778">
        <ele>524.54</ele>
        <time>2020-07-11T05:56:37Z</time>
      </trkpt>
      <trkpt lat="38.0009666830" lon="-6.1862154398">
        <ele>524.06</ele>
        <time>2020-07-11T05:56:38Z</time>
      </trkpt>
      <trkpt lat="38.0010074191" lon="-6.1862678267">
        <ele>524.06</ele>
        <time>2020-07-11T05:56:39Z</time>
      </trkpt>
      <trkpt lat="38.0010437127" lon="-6.1863198783">
        <ele>523.58</ele>
        <time>2020-07-11T05:56:40Z</time>
      </trkpt>
      <trkpt lat="38.0012717843" lon="-6.1866358761">
        <ele>522.61</ele>
        <time>2020-07-11T05:56:47Z</time>
      </trkpt>
      <trkpt lat="38.0014840141" lon="-6.1868222896">
        <ele>523.09</ele>
        <time>2020-07-11T05:56:54Z</time>
      </trkpt>
      <trkpt lat="38.0017948989" lon="-6.1869471800">
        <ele>524.06</ele>
        <time>2020-07-11T05:57:03Z</time>
      </trkpt>
      <trkpt lat="38.0020606890" lon="-6.1870582402">
        <ele>524.54</ele>
        <time>2020-07-11T05:57:12Z</time>
      </trkpt>
      <trkpt lat="38.0022317637" lon="-6.1872086953">
        <ele>524.54</ele>
        <time>2020-07-11T05:57:18Z</time>
      </trkpt>
      <trkpt lat="38.0024330970" lon="-6.1874856334">
        <ele>524.54</ele>
        <time>2020-07-11T05:57:27Z</time>
      </trkpt>
      <trkpt lat="38.0026554689" lon="-6.1877532676">
        <ele>525.02</ele>
        <time>2020-07-11T05:57:37Z</time>
      </trkpt>
      <trkpt lat="38.0028452352" lon="-6.1879248451">
        <ele>524.54</ele>
        <time>2020-07-11T05:57:45Z</time>
      </trkpt>
      <trkpt lat="38.0031236820" lon="-6.1880768090">
        <ele>525.50</ele>
        <time>2020-07-11T05:57:55Z</time>
      </trkpt>
      <trkpt lat="38.0034126900" lon="-6.1880929023">
        <ele>525.98</ele>
        <time>2020-07-11T05:58:04Z</time>
      </trkpt>
      <trkpt lat="38.0035990197" lon="-6.1880951654">
        <ele>525.02</ele>
        <time>2020-07-11T05:58:09Z</time>
      </trkpt>
      <trkpt lat="38.0036390852" lon="-6.1880950816">
        <ele>525.02</ele>
        <time>2020-07-11T05:58:10Z</time>
      </trkpt>
      <trkpt lat="38.0036813300" lon="-6.1880962551">
        <ele>525.02</ele>
        <time>2020-07-11T05:58:11Z</time>
      </trkpt>
      <trkpt lat="38.0039698351" lon="-6.1882040463">
        <ele>525.02</ele>
        <time>2020-07-11T05:58:19Z</time>
      </trkpt>
      <trkpt lat="38.0039970763" lon="-6.1882462073">
        <ele>524.54</ele>
        <time>2020-07-11T05:58:20Z</time>
      </trkpt>
      <trkpt lat="38.0040238146" lon="-6.1882995162">
        <ele>524.06</ele>
        <time>2020-07-11T05:58:21Z</time>
      </trkpt>
      <trkpt lat="38.0040467810" lon="-6.1883510649">
        <ele>524.06</ele>
        <time>2020-07-11T05:58:22Z</time>
      </trkpt>
      <trkpt lat="38.0040668976" lon="-6.1884013563">
        <ele>524.06</ele>
        <time>2020-07-11T05:58:23Z</time>
      </trkpt>
      <trkpt lat="38.0042198673" lon="-6.1887000874">
        <ele>525.98</ele>
        <time>2020-07-11T05:58:31Z</time>
      </trkpt>
      <trkpt lat="38.0044466816" lon="-6.1889825575">
        <ele>525.02</ele>
        <time>2020-07-11T05:58:40Z</time>
      </trkpt>
      <trkpt lat="38.0046748370" lon="-6.1891504470">
        <ele>524.54</ele>
        <time>2020-07-11T05:58:47Z</time>
      </trkpt>
      <trkpt lat="38.0047032516" lon="-6.1891947873">
        <ele>524.06</ele>
        <time>2020-07-11T05:58:48Z</time>
      </trkpt>
      <trkpt lat="38.0047234520" lon="-6.1892439052">
        <ele>524.06</ele>
        <time>2020-07-11T05:58:49Z</time>
      </trkpt>
      <trkpt lat="38.0047396291" lon="-6.1892964598">
        <ele>523.58</ele>
        <time>2020-07-11T05:58:50Z</time>
      </trkpt>
      <trkpt lat="38.0047459155" lon="-6.1893424764">
        <ele>523.58</ele>
        <time>2020-07-11T05:58:51Z</time>
      </trkpt>
      <trkpt lat="38.0047519505" lon="-6.1893912591">
        <ele>523.58</ele>
        <time>2020-07-11T05:58:52Z</time>
      </trkpt>
      <trkpt lat="38.0047611706" lon="-6.1894417182">
        <ele>523.58</ele>
        <time>2020-07-11T05:58:53Z</time>
      </trkpt>
      <trkpt lat="38.0047703069" lon="-6.1894868966">
        <ele>523.58</ele>
        <time>2020-07-11T05:58:54Z</time>
      </trkpt>
      <trkpt lat="38.0048578978" lon="-6.1898475699">
        <ele>523.58</ele>
        <time>2020-07-11T05:59:03Z</time>
      </trkpt>
      <trkpt lat="38.0049881525" lon="-6.1901099235">
        <ele>523.09</ele>
        <time>2020-07-11T05:59:12Z</time>
      </trkpt>
      <trkpt lat="38.0051666033" lon="-6.1902982648">
        <ele>522.13</ele>
        <time>2020-07-11T05:59:19Z</time>
      </trkpt>
      <trkpt lat="38.0053619016" lon="-6.1904474627">
        <ele>521.65</ele>
        <time>2020-07-11T05:59:25Z</time>
      </trkpt>
      <trkpt lat="38.0053945910" lon="-6.1904762965">
        <ele>521.17</ele>
        <time>2020-07-11T05:59:26Z</time>
      </trkpt>
      <trkpt lat="38.0055525899" lon="-6.1905947328">
        <ele>520.21</ele>
        <time>2020-07-11T05:59:30Z</time>
      </trkpt>
      <trkpt lat="38.0055884644" lon="-6.1906370614">
        <ele>520.21</ele>
        <time>2020-07-11T05:59:31Z</time>
      </trkpt>
      <trkpt lat="38.0056209024" lon="-6.1906878557">
        <ele>520.21</ele>
        <time>2020-07-11T05:59:32Z</time>
      </trkpt>
      <trkpt lat="38.0056495685" lon="-6.1907450203">
        <ele>520.21</ele>
        <time>2020-07-11T05:59:33Z</time>
      </trkpt>
      <trkpt lat="38.0056734569" lon="-6.1907994188">
        <ele>520.21</ele>
        <time>2020-07-11T05:59:34Z</time>
      </trkpt>
      <trkpt lat="38.0056938250" lon="-6.1908586789">
        <ele>520.21</ele>
        <time>2020-07-11T05:59:35Z</time>
      </trkpt>
      <trkpt lat="38.0057129357" lon="-6.1909207888">
        <ele>519.73</ele>
        <time>2020-07-11T05:59:36Z</time>
      </trkpt>
      <trkpt lat="38.0058222357" lon="-6.1912303325">
        <ele>521.17</ele>
        <time>2020-07-11T05:59:42Z</time>
      </trkpt>
      <trkpt lat="38.0059415940" lon="-6.1915620044">
        <ele>521.17</ele>
        <time>2020-07-11T05:59:49Z</time>
      </trkpt>
      <trkpt lat="38.0062058754" lon="-6.1920401920">
        <ele>519.25</ele>
        <time>2020-07-11T05:59:59Z</time>
      </trkpt>
      <trkpt lat="38.0064479448" lon="-6.1924796551">
        <ele>515.40</ele>
        <time>2020-07-11T06:00:05Z</time>
      </trkpt>
      <trkpt lat="38.0068755057" lon="-6.1931858305">
        <ele>511.56</ele>
        <time>2020-07-11T06:00:13Z</time>
      </trkpt>
      <trkpt lat="38.0072288029" lon="-6.1935952026">
        <ele>510.60</ele>
        <time>2020-07-11T06:00:19Z</time>
      </trkpt>
      <trkpt lat="38.0074490793" lon="-6.1938671116">
        <ele>510.60</ele>
        <time>2020-07-11T06:00:24Z</time>
      </trkpt>
      <trkpt lat="38.0076722894" lon="-6.1940849572">
        <ele>508.67</ele>
        <time>2020-07-11T06:00:29Z</time>
      </trkpt>
      <trkpt lat="38.0077162944" lon="-6.1941487435">
        <ele>508.19</ele>
        <time>2020-07-11T06:00:30Z</time>
      </trkpt>
      <trkpt lat="38.0077572819" lon="-6.1942197382">
        <ele>507.71</ele>
        <time>2020-07-11T06:00:31Z</time>
      </trkpt>
      <trkpt lat="38.0077944975" lon="-6.1942986958">
        <ele>507.71</ele>
        <time>2020-07-11T06:00:32Z</time>
      </trkpt>
      <trkpt lat="38.0078258459" lon="-6.1943768989">
        <ele>507.23</ele>
        <time>2020-07-11T06:00:33Z</time>
      </trkpt>
      <trkpt lat="38.0078930687" lon="-6.1945211515">
        <ele>506.75</ele>
        <time>2020-07-11T06:00:35Z</time>
      </trkpt>
      <trkpt lat="38.0079348944" lon="-6.1945845187">
        <ele>506.75</ele>
        <time>2020-07-11T06:00:36Z</time>
      </trkpt>
      <trkpt lat="38.0079797376" lon="-6.1946405936">
        <ele>507.23</ele>
        <time>2020-07-11T06:00:37Z</time>
      </trkpt>
      <trkpt lat="38.0081122555" lon="-6.1947700102">
        <ele>508.67</ele>
        <time>2020-07-11T06:00:41Z</time>
      </trkpt>
      <trkpt lat="38.0082239024" lon="-6.1948762089">
        <ele>510.12</ele>
        <time>2020-07-11T06:00:47Z</time>
      </trkpt>
      <trkpt lat="38.0084726773" lon="-6.1950828228">
        <ele>511.56</ele>
        <time>2020-07-11T06:00:57Z</time>
      </trkpt>
      <trkpt lat="38.0087365396" lon="-6.1953273229">
        <ele>509.64</ele>
        <time>2020-07-11T06:01:07Z</time>
      </trkpt>
      <trkpt lat="38.0088080373" lon="-6.1953698192">
        <ele>509.16</ele>
        <time>2020-07-11T06:01:09Z</time>
      </trkpt>
      <trkpt lat="38.0090532918" lon="-6.1955023371">
        <ele>507.71</ele>
        <time>2020-07-11T06:01:15Z</time>
      </trkpt>
      <trkpt lat="38.0090877414" lon="-6.1955431569">
        <ele>507.71</ele>
        <time>2020-07-11T06:01:16Z</time>
      </trkpt>
      <trkpt lat="38.0091118813" lon="-6.1955862399">
        <ele>507.71</ele>
        <time>2020-07-11T06:01:17Z</time>
      </trkpt>
      <trkpt lat="38.0091297347" lon="-6.1956338491">
        <ele>507.71</ele>
        <time>2020-07-11T06:01:18Z</time>
      </trkpt>
      <trkpt lat="38.0091424752" lon="-6.1956807878">
        <ele>507.71</ele>
        <time>2020-07-11T06:01:19Z</time>
      </trkpt>
      <trkpt lat="38.0091524497" lon="-6.1957263015">
        <ele>507.71</ele>
        <time>2020-07-11T06:01:20Z</time>
      </trkpt>
      <trkpt lat="38.0091599934" lon="-6.1957724858">
        <ele>507.71</ele>
        <time>2020-07-11T06:01:21Z</time>
      </trkpt>
      <trkpt lat="38.0092134699" lon="-6.1960859690">
        <ele>508.67</ele>
        <time>2020-07-11T06:01:29Z</time>
      </trkpt>
      <trkpt lat="38.0093065929" lon="-6.1963056587">
        <ele>511.08</ele>
        <time>2020-07-11T06:01:38Z</time>
      </trkpt>
      <trkpt lat="38.0094302259" lon="-6.1965401843">
        <ele>513.48</ele>
        <time>2020-07-11T06:01:49Z</time>
      </trkpt>
      <trkpt lat="38.0095168948" lon="-6.1967226584">
        <ele>514.92</ele>
        <time>2020-07-11T06:01:58Z</time>
      </trkpt>
      <trkpt lat="38.0096303020" lon="-6.1969720200">
        <ele>515.88</ele>
        <time>2020-07-11T06:02:09Z</time>
      </trkpt>
      <trkpt lat="38.0097491574" lon="-6.1971851718">
        <ele>515.88</ele>
        <time>2020-07-11T06:02:18Z</time>
      </trkpt>
      <trkpt lat="38.0099626444" lon="-6.1974911112">
        <ele>514.44</ele>
        <time>2020-07-11T06:02:27Z</time>
      </trkpt>
      <trkpt lat="38.0102296919" lon="-6.1978398822">
        <ele>512.52</ele>
        <time>2020-07-11T06:02:35Z</time>
      </trkpt>
      <trkpt lat="38.0105666444" lon="-6.1981844623">
        <ele>510.12</ele>
        <time>2020-07-11T06:02:42Z</time>
      </trkpt>
      <trkpt lat="38.0110687204" lon="-6.1985838600">
        <ele>508.67</ele>
        <time>2020-07-11T06:02:51Z</time>
      </trkpt>
      <trkpt lat="38.0112216901" lon="-6.1987519171">
        <ele>508.67</ele>
        <time>2020-07-11T06:02:55Z</time>
      </trkpt>
      <trkpt lat="38.0112907570" lon="-6.1988224927">
        <ele>509.16</ele>
        <time>2020-07-11T06:02:57Z</time>
      </trkpt>
      <trkpt lat="38.0114608258" lon="-6.1990052182">
        <ele>509.64</ele>
        <time>2020-07-11T06:03:04Z</time>
      </trkpt>
      <trkpt lat="38.0116318166" lon="-6.1991218105">
        <ele>511.08</ele>
        <time>2020-07-11T06:03:11Z</time>
      </trkpt>
      <trkpt lat="38.0118556134" lon="-6.1993003450">
        <ele>512.04</ele>
        <time>2020-07-11T06:03:20Z</time>
      </trkpt>
      <trkpt lat="38.0121587869" lon="-6.1994875129">
        <ele>513.00</ele>
        <time>2020-07-11T06:03:31Z</time>
      </trkpt>
      <trkpt lat="38.0124347191" lon="-6.1995738465">
        <ele>515.40</ele>
        <time>2020-07-11T06:03:41Z</time>
      </trkpt>
      <trkpt lat="38.0126965698" lon="-6.1996642035">
        <ele>515.88</ele>
        <time>2020-07-11T06:03:51Z</time>
      </trkpt>
      <trkpt lat="38.0129305925" lon="-6.1997798737">
        <ele>514.44</ele>
        <time>2020-07-11T06:03:59Z</time>
      </trkpt>
      <trkpt lat="38.0129706580" lon="-6.1997995712">
        <ele>514.44</ele>
        <time>2020-07-11T06:04:00Z</time>
      </trkpt>
      <trkpt lat="38.0130165070" lon="-6.1998207774">
        <ele>514.44</ele>
        <time>2020-07-11T06:04:01Z</time>
      </trkpt>
      <trkpt lat="38.0134424753" lon="-6.2000633497">
        <ele>512.52</ele>
        <time>2020-07-11T06:04:10Z</time>
      </trkpt>
      <trkpt lat="38.0139512569" lon="-6.2003795151">
        <ele>511.08</ele>
        <time>2020-07-11T06:04:20Z</time>
      </trkpt>
      <trkpt lat="38.0143089127" lon="-6.2006075028">
        <ele>510.60</ele>
        <time>2020-07-11T06:04:28Z</time>
      </trkpt>
      <trkpt lat="38.0143502355" lon="-6.2006420363">
        <ele>510.60</ele>
        <time>2020-07-11T06:04:29Z</time>
      </trkpt>
      <trkpt lat="38.0143896304" lon="-6.2006823532">
        <ele>510.60</ele>
        <time>2020-07-11T06:04:30Z</time>
      </trkpt>
      <trkpt lat="38.0145343859" lon="-6.2008255161">
        <ele>511.56</ele>
        <time>2020-07-11T06:04:35Z</time>
      </trkpt>
      <trkpt lat="38.0148631241" lon="-6.2010292802">
        <ele>513.00</ele>
        <time>2020-07-11T06:04:47Z</time>
      </trkpt>
      <trkpt lat="38.0150901899" lon="-6.2011976726">
        <ele>513.00</ele>
        <time>2020-07-11T06:04:56Z</time>
      </trkpt>
      <trkpt lat="38.0151787028" lon="-6.2013218924">
        <ele>512.04</ele>
        <time>2020-07-11T06:05:00Z</time>
      </trkpt>
      <trkpt lat="38.0151942093" lon="-6.2013721000">
        <ele>512.04</ele>
        <time>2020-07-11T06:05:01Z</time>
      </trkpt>
      <trkpt lat="38.0152456742" lon="-6.2016175222">
        <ele>513.00</ele>
        <time>2020-07-11T06:05:07Z</time>
      </trkpt>
      <trkpt lat="38.0153136514" lon="-6.2019362021">
        <ele>513.48</ele>
        <time>2020-07-11T06:05:15Z</time>
      </trkpt>
      <trkpt lat="38.0154434871" lon="-6.2022416387">
        <ele>514.44</ele>
        <time>2020-07-11T06:05:24Z</time>
      </trkpt>
      <trkpt lat="38.0156219378" lon="-6.2026777491">
        <ele>513.48</ele>
        <time>2020-07-11T06:05:35Z</time>
      </trkpt>
      <trkpt lat="38.0156996381" lon="-6.2029170524">
        <ele>513.96</ele>
        <time>2020-07-11T06:05:41Z</time>
      </trkpt>
      <trkpt lat="38.0158350896" lon="-6.2033301126">
        <ele>513.48</ele>
        <time>2020-07-11T06:05:51Z</time>
      </trkpt>
      <trkpt lat="38.0159377679" lon="-6.2036267482">
        <ele>513.00</ele>
        <time>2020-07-11T06:05:58Z</time>
      </trkpt>
      <trkpt lat="38.0160888936" lon="-6.2039548159">
        <ele>513.00</ele>
        <time>2020-07-11T06:06:07Z</time>
      </trkpt>
      <trkpt lat="38.0161173083" lon="-6.2039989047">
        <ele>512.52</ele>
        <time>2020-07-11T06:06:08Z</time>
      </trkpt>
      <trkpt lat="38.0163629819" lon="-6.2044190895">
        <ele>511.08</ele>
        <time>2020-07-11T06:06:16Z</time>
      </trkpt>
      <trkpt lat="38.0164833460" lon="-6.2046276312">
        <ele>511.56</ele>
        <time>2020-07-11T06:06:21Z</time>
      </trkpt>
      <trkpt lat="38.0166843440" lon="-6.2049215008">
        <ele>512.04</ele>
        <time>2020-07-11T06:06:30Z</time>
      </trkpt>
      <trkpt lat="38.0169524811" lon="-6.2051107641">
        <ele>511.56</ele>
        <time>2020-07-11T06:06:39Z</time>
      </trkpt>
      <trkpt lat="38.0171072111" lon="-6.2052352354">
        <ele>511.08</ele>
        <time>2020-07-11T06:06:44Z</time>
      </trkpt>
      <trkpt lat="38.0172626954" lon="-6.2053952459">
        <ele>512.52</ele>
        <time>2020-07-11T06:06:51Z</time>
      </trkpt>
      <trkpt lat="38.0175599176" lon="-6.2056991737">
        <ele>513.00</ele>
        <time>2020-07-11T06:07:03Z</time>
      </trkpt>
      <trkpt lat="38.0177294835" lon="-6.2058641296">
        <ele>514.44</ele>
        <time>2020-07-11T06:07:11Z</time>
      </trkpt>
      <trkpt lat="38.0179161485" lon="-6.2060481962">
        <ele>515.40</ele>
        <time>2020-07-11T06:07:19Z</time>
      </trkpt>
      <trkpt lat="38.0181459803" lon="-6.2063082028">
        <ele>515.88</ele>
        <time>2020-07-11T06:07:30Z</time>
      </trkpt>
      <trkpt lat="38.0183872115" lon="-6.2065642700">
        <ele>516.37</ele>
        <time>2020-07-11T06:07:42Z</time>
      </trkpt>
      <trkpt lat="38.0185996927" lon="-6.2067783438">
        <ele>517.33</ele>
        <time>2020-07-11T06:07:52Z</time>
      </trkpt>
      <trkpt lat="38.0187798198" lon="-6.2070099358">
        <ele>515.88</ele>
        <time>2020-07-11T06:08:00Z</time>
      </trkpt>
      <trkpt lat="38.0190829094" lon="-6.2074119318">
        <ele>514.44</ele>
        <time>2020-07-11T06:08:09Z</time>
      </trkpt>
      <trkpt lat="38.0193541478" lon="-6.2077405863">
        <ele>514.44</ele>
        <time>2020-07-11T06:08:18Z</time>
      </trkpt>
      <trkpt lat="38.0196978059" lon="-6.2080940511">
        <ele>513.00</ele>
        <time>2020-07-11T06:08:29Z</time>
      </trkpt>
      <trkpt lat="38.0198278092" lon="-6.2081917841">
        <ele>512.52</ele>
        <time>2020-07-11T06:08:32Z</time>
      </trkpt>
      <trkpt lat="38.0203966051" lon="-6.2084882520">
        <ele>511.08</ele>
        <time>2020-07-11T06:08:43Z</time>
      </trkpt>
      <trkpt lat="38.0205119401" lon="-6.2085617613">
        <ele>511.08</ele>
        <time>2020-07-11T06:08:46Z</time>
      </trkpt>
      <trkpt lat="38.0205448810" lon="-6.2085936125">
        <ele>511.08</ele>
        <time>2020-07-11T06:08:47Z</time>
      </trkpt>
      <trkpt lat="38.0205761455" lon="-6.2086232007">
        <ele>511.08</ele>
        <time>2020-07-11T06:08:48Z</time>
      </trkpt>
      <trkpt lat="38.0205990281" lon="-6.2086470053">
        <ele>511.08</ele>
        <time>2020-07-11T06:08:49Z</time>
      </trkpt>
      <trkpt lat="38.0206179712" lon="-6.2086710613">
        <ele>511.08</ele>
        <time>2020-07-11T06:08:50Z</time>
      </trkpt>
      <trkpt lat="38.0208473839" lon="-6.2088898290">
        <ele>511.08</ele>
        <time>2020-07-11T06:08:59Z</time>
      </trkpt>
      <trkpt lat="38.0210493039" lon="-6.2090734765">
        <ele>512.52</ele>
        <time>2020-07-11T06:09:07Z</time>
      </trkpt>
      <trkpt lat="38.0211884435" lon="-6.2092100177">
        <ele>513.96</ele>
        <time>2020-07-11T06:09:15Z</time>
      </trkpt>
      <trkpt lat="38.0213531479" lon="-6.2093801703">
        <ele>515.88</ele>
        <time>2020-07-11T06:09:25Z</time>
      </trkpt>
      <trkpt lat="38.0215129070" lon="-6.2095860299">
        <ele>516.85</ele>
        <time>2020-07-11T06:09:35Z</time>
      </trkpt>
      <trkpt lat="38.0216472689" lon="-6.2097312883">
        <ele>516.37</ele>
        <time>2020-07-11T06:09:43Z</time>
      </trkpt>
      <trkpt lat="38.0218521226" lon="-6.2099379860">
        <ele>514.92</ele>
        <time>2020-07-11T06:09:50Z</time>
      </trkpt>
      <trkpt lat="38.0221938528" lon="-6.2102676462">
        <ele>513.00</ele>
        <time>2020-07-11T06:09:58Z</time>
      </trkpt>
      <trkpt lat="38.0222324096" lon="-6.2103000842">
        <ele>513.00</ele>
        <time>2020-07-11T06:09:59Z</time>
      </trkpt>
      <trkpt lat="38.0222744029" lon="-6.2103313487">
        <ele>513.00</ele>
        <time>2020-07-11T06:10:00Z</time>
      </trkpt>
      <trkpt lat="38.0226011295" lon="-6.2105864100">
        <ele>513.00</ele>
        <time>2020-07-11T06:10:09Z</time>
      </trkpt>
      <trkpt lat="38.0228683446" lon="-6.2107769307">
        <ele>513.48</ele>
        <time>2020-07-11T06:10:18Z</time>
      </trkpt>
      <trkpt lat="38.0231821630" lon="-6.2109725643">
        <ele>513.48</ele>
        <time>2020-07-11T06:10:28Z</time>
      </trkpt>
      <trkpt lat="38.0234552454" lon="-6.2110781763">
        <ele>513.48</ele>
        <time>2020-07-11T06:10:36Z</time>
      </trkpt>
      <trkpt lat="38.0236946326" lon="-6.2111733109">
        <ele>514.92</ele>
        <time>2020-07-11T06:10:44Z</time>
      </trkpt>
      <trkpt lat="38.0240408052" lon="-6.2111734785">
        <ele>515.40</ele>
        <time>2020-07-11T06:10:54Z</time>
      </trkpt>
      <trkpt lat="38.0240781046" lon="-6.2111675274">
        <ele>514.92</ele>
        <time>2020-07-11T06:10:55Z</time>
      </trkpt>
      <trkpt lat="38.0241216905" lon="-6.2111661024">
        <ele>514.92</ele>
        <time>2020-07-11T06:10:56Z</time>
      </trkpt>
      <trkpt lat="38.0241628457" lon="-6.2111718860">
        <ele>514.92</ele>
        <time>2020-07-11T06:10:57Z</time>
      </trkpt>
      <trkpt lat="38.0241992231" lon="-6.2111860514">
        <ele>514.92</ele>
        <time>2020-07-11T06:10:58Z</time>
      </trkpt>
      <trkpt lat="38.0242273863" lon="-6.2112060841">
        <ele>514.92</ele>
        <time>2020-07-11T06:10:59Z</time>
      </trkpt>
      <trkpt lat="38.0242536217" lon="-6.2112338282">
        <ele>514.92</ele>
        <time>2020-07-11T06:11:00Z</time>
      </trkpt>
      <trkpt lat="38.0244112015" lon="-6.2114840280">
        <ele>514.92</ele>
        <time>2020-07-11T06:11:07Z</time>
      </trkpt>
      <trkpt lat="38.0245982856" lon="-6.2118079886">
        <ele>515.88</ele>
        <time>2020-07-11T06:11:16Z</time>
      </trkpt>
      <trkpt lat="38.0247924943" lon="-6.2121332064">
        <ele>516.85</ele>
        <time>2020-07-11T06:11:25Z</time>
      </trkpt>
      <trkpt lat="38.0249311309" lon="-6.2124650460">
        <ele>516.85</ele>
        <time>2020-07-11T06:11:33Z</time>
      </trkpt>
      <trkpt lat="38.0250786524" lon="-6.2128687184">
        <ele>516.37</ele>
        <time>2020-07-11T06:11:42Z</time>
      </trkpt>
      <trkpt lat="38.0251003616" lon="-6.2129128911">
        <ele>516.37</ele>
        <time>2020-07-11T06:11:43Z</time>
      </trkpt>
      <trkpt lat="38.0252299458" lon="-6.2132025696">
        <ele>516.37</ele>
        <time>2020-07-11T06:11:49Z</time>
      </trkpt>
      <trkpt lat="38.0253612902" lon="-6.2134812679">
        <ele>516.37</ele>
        <time>2020-07-11T06:11:56Z</time>
      </trkpt>
      <trkpt lat="38.0254827440" lon="-6.2137525901">
        <ele>516.85</ele>
        <time>2020-07-11T06:12:04Z</time>
      </trkpt>
      <trkpt lat="38.0256194528" lon="-6.2140179612">
        <ele>516.37</ele>
        <time>2020-07-11T06:12:11Z</time>
      </trkpt>
      <trkpt lat="38.0257528089" lon="-6.2143007666">
        <ele>516.37</ele>
        <time>2020-07-11T06:12:18Z</time>
      </trkpt>
      <trkpt lat="38.0259353667" lon="-6.2145539001">
        <ele>516.85</ele>
        <time>2020-07-11T06:12:26Z</time>
      </trkpt>
      <trkpt lat="38.0261788610" lon="-6.2148184329">
        <ele>517.33</ele>
        <time>2020-07-11T06:12:36Z</time>
      </trkpt>
      <trkpt lat="38.0264014844" lon="-6.2150559761">
        <ele>517.33</ele>
        <time>2020-07-11T06:12:46Z</time>
      </trkpt>
      <trkpt lat="38.0265988782" lon="-6.2153117917">
        <ele>517.81</ele>
        <time>2020-07-11T06:12:56Z</time>
      </trkpt>
      <trkpt lat="38.0266996287" lon="-6.2156064156">
        <ele>518.77</ele>
        <time>2020-07-11T06:13:05Z</time>
      </trkpt>
      <trkpt lat="38.0267781671" lon="-6.2158112694">
        <ele>519.25</ele>
        <time>2020-07-11T06:13:11Z</time>
      </trkpt>
      <trkpt lat="38.0268901493" lon="-6.2160727847">
        <ele>519.25</ele>
        <time>2020-07-11T06:13:19Z</time>
      </trkpt>
      <trkpt lat="38.0270670913" lon="-6.2163291033">
        <ele>520.69</ele>
        <time>2020-07-11T06:13:29Z</time>
      </trkpt>
      <trkpt lat="38.0272359028" lon="-6.2165580969">
        <ele>521.17</ele>
        <time>2020-07-11T06:13:39Z</time>
      </trkpt>
      <trkpt lat="38.0273608770" lon="-6.2167180236">
        <ele>521.65</ele>
        <time>2020-07-11T06:13:47Z</time>
      </trkpt>
      <trkpt lat="38.0274643097" lon="-6.2168505415">
        <ele>521.65</ele>
        <time>2020-07-11T06:13:55Z</time>
      </trkpt>
      <trkpt lat="38.0275602825" lon="-6.2170180120">
        <ele>522.13</ele>
        <time>2020-07-11T06:14:03Z</time>
      </trkpt>
      <trkpt lat="38.0276306905" lon="-6.2172009889">
        <ele>523.09</ele>
        <time>2020-07-11T06:14:11Z</time>
      </trkpt>
      <trkpt lat="38.0276610330" lon="-6.2174310721">
        <ele>524.06</ele>
        <time>2020-07-11T06:14:20Z</time>
      </trkpt>
      <trkpt lat="38.0276207998" lon="-6.2176642567">
        <ele>525.50</ele>
        <time>2020-07-11T06:14:30Z</time>
      </trkpt>
      <trkpt lat="38.0275484640" lon="-6.2178306375">
        <ele>526.94</ele>
        <time>2020-07-11T06:14:38Z</time>
      </trkpt>
      <trkpt lat="38.0275399145" lon="-6.2178631593">
        <ele>526.94</ele>
        <time>2020-07-11T06:14:40Z</time>
      </trkpt>
      <trkpt lat="38.0275477935" lon="-6.2179142050">
        <ele>526.94</ele>
        <time>2020-07-11T06:14:43Z</time>
      </trkpt>
      <trkpt lat="38.0275462009" lon="-6.2179302145">
        <ele>526.94</ele>
        <time>2020-07-11T06:14:44Z</time>
      </trkpt>
      <trkpt lat="38.0275418423" lon="-6.2179424521">
        <ele>526.46</ele>
        <time>2020-07-11T06:14:45Z</time>
      </trkpt>
      <trkpt lat="38.0275087338" lon="-6.2179877982">
        <ele>525.98</ele>
        <time>2020-07-11T06:14:53Z</time>
      </trkpt>
      <trkpt lat="38.0275068898" lon="-6.2179803383">
        <ele>525.50</ele>
        <time>2020-07-11T06:15:08Z</time>
      </trkpt>
      <trkpt lat="38.0275071412" lon="-6.2179803383">
        <ele>525.02</ele>
        <time>2020-07-11T06:15:17Z</time>
      </trkpt>
      <trkpt lat="38.0275094882" lon="-6.2179907318">
        <ele>525.50</ele>
        <time>2020-07-11T06:15:32Z</time>
      </trkpt>
      <trkpt lat="38.0275006033" lon="-6.2180054840">
        <ele>523.58</ele>
        <time>2020-07-11T06:15:54Z</time>
      </trkpt>
      <trkpt lat="38.0275032017" lon="-6.2179889716">
        <ele>524.06</ele>
        <time>2020-07-11T06:16:06Z</time>
      </trkpt>
      <trkpt lat="38.0275182892" lon="-6.2179946713">
        <ele>526.94</ele>
        <time>2020-07-11T06:16:24Z</time>
      </trkpt>
      <trkpt lat="38.0275082309" lon="-6.2180090882">
        <ele>527.42</ele>
        <time>2020-07-11T06:16:34Z</time>
      </trkpt>
      <trkpt lat="38.0275026988" lon="-6.2179976888">
        <ele>527.42</ele>
        <time>2020-07-11T06:16:47Z</time>
      </trkpt>
      <trkpt lat="38.0274701770" lon="-6.2180477288">
        <ele>527.90</ele>
        <time>2020-07-11T06:16:57Z</time>
      </trkpt>
      <trkpt lat="38.0274437740" lon="-6.2180835195">
        <ele>527.90</ele>
        <time>2020-07-11T06:16:59Z</time>
      </trkpt>
      <trkpt lat="38.0274343863" lon="-6.2181075756">
        <ele>527.90</ele>
        <time>2020-07-11T06:17:00Z</time>
      </trkpt>
      <trkpt lat="38.0272940733" lon="-6.2183936499">
        <ele>526.94</ele>
        <time>2020-07-11T06:17:09Z</time>
      </trkpt>
      <trkpt lat="38.0271115992" lon="-6.2187616155">
        <ele>526.94</ele>
        <time>2020-07-11T06:17:19Z</time>
      </trkpt>
      <trkpt lat="38.0270188954" lon="-6.2191317603">
        <ele>527.42</ele>
        <time>2020-07-11T06:17:27Z</time>
      </trkpt>
      <trkpt lat="38.0270104297" lon="-6.2191835605">
        <ele>527.42</ele>
        <time>2020-07-11T06:17:28Z</time>
      </trkpt>
      <trkpt lat="38.0269931629" lon="-6.2192854006">
        <ele>526.94</ele>
        <time>2020-07-11T06:17:30Z</time>
      </trkpt>
      <trkpt lat="38.0269862060" lon="-6.2193349376">
        <ele>526.94</ele>
        <time>2020-07-11T06:17:31Z</time>
      </trkpt>
      <trkpt lat="38.0269177258" lon="-6.2198398635">
        <ele>525.98</ele>
        <time>2020-07-11T06:17:41Z</time>
      </trkpt>
      <trkpt lat="38.0268736370" lon="-6.2201773189">
        <ele>525.50</ele>
        <time>2020-07-11T06:17:49Z</time>
      </trkpt>
      <trkpt lat="38.0269175582" lon="-6.2203722820">
        <ele>525.98</ele>
        <time>2020-07-11T06:17:56Z</time>
      </trkpt>
      <trkpt lat="38.0270545185" lon="-6.2204965856">
        <ele>526.94</ele>
        <time>2020-07-11T06:18:03Z</time>
      </trkpt>
      <trkpt lat="38.0272721965" lon="-6.2206448615">
        <ele>527.90</ele>
        <time>2020-07-11T06:18:12Z</time>
      </trkpt>
      <trkpt lat="38.0275244918" lon="-6.2208161037">
        <ele>528.38</ele>
        <time>2020-07-11T06:18:23Z</time>
      </trkpt>
      <trkpt lat="38.0277877674" lon="-6.2209836580">
        <ele>530.30</ele>
        <time>2020-07-11T06:18:35Z</time>
      </trkpt>
      <trkpt lat="38.0279391445" lon="-6.2210455164">
        <ele>531.27</ele>
        <time>2020-07-11T06:18:43Z</time>
      </trkpt>
      <trkpt lat="38.0281517096" lon="-6.2211255636">
        <ele>532.71</ele>
        <time>2020-07-11T06:18:54Z</time>
      </trkpt>
      <trkpt lat="38.0283057690" lon="-6.2211562414">
        <ele>533.67</ele>
        <time>2020-07-11T06:19:02Z</time>
      </trkpt>
      <trkpt lat="38.0284989718" lon="-6.2211600970">
        <ele>535.11</ele>
        <time>2020-07-11T06:19:12Z</time>
      </trkpt>
      <trkpt lat="38.0286526121" lon="-6.2211336102">
        <ele>536.55</ele>
        <time>2020-07-11T06:19:20Z</time>
      </trkpt>
      <trkpt lat="38.0287890695" lon="-6.2210331950">
        <ele>537.51</ele>
        <time>2020-07-11T06:19:28Z</time>
      </trkpt>
      <trkpt lat="38.0289344955" lon="-6.2209336180">
        <ele>537.51</ele>
        <time>2020-07-11T06:19:34Z</time>
      </trkpt>
      <trkpt lat="38.0291371699" lon="-6.2209490407">
        <ele>537.99</ele>
        <time>2020-07-11T06:19:41Z</time>
      </trkpt>
      <trkpt lat="38.0292856973" lon="-6.2210885994">
        <ele>537.99</ele>
        <time>2020-07-11T06:19:48Z</time>
      </trkpt>
      <trkpt lat="38.0293279421" lon="-6.2212830596">
        <ele>538.48</ele>
        <time>2020-07-11T06:19:54Z</time>
      </trkpt>
      <trkpt lat="38.0293378327" lon="-6.2213007454">
        <ele>538.48</ele>
        <time>2020-07-11T06:19:55Z</time>
      </trkpt>
      <trkpt lat="38.0293725338" lon="-6.2215090357">
        <ele>538.48</ele>
        <time>2020-07-11T06:20:01Z</time>
      </trkpt>
      <trkpt lat="38.0293854419" lon="-6.2215480115">
        <ele>537.99</ele>
        <time>2020-07-11T06:20:02Z</time>
      </trkpt>
      <trkpt lat="38.0295376573" lon="-6.2217898294">
        <ele>537.99</ele>
        <time>2020-07-11T06:20:10Z</time>
      </trkpt>
      <trkpt lat="38.0297519825" lon="-6.2219984550">
        <ele>538.48</ele>
        <time>2020-07-11T06:20:18Z</time>
      </trkpt>
      <trkpt lat="38.0300101452" lon="-6.2223298755">
        <ele>537.99</ele>
        <time>2020-07-11T06:20:28Z</time>
      </trkpt>
      <trkpt lat="38.0301843211" lon="-6.2226050533">
        <ele>539.44</ele>
        <time>2020-07-11T06:20:36Z</time>
      </trkpt>
      <trkpt lat="38.0303355306" lon="-6.2228395790">
        <ele>540.40</ele>
        <time>2020-07-11T06:20:45Z</time>
      </trkpt>
      <trkpt lat="38.0304436572" lon="-6.2229905371">
        <ele>541.36</ele>
        <time>2020-07-11T06:20:52Z</time>
      </trkpt>
      <trkpt lat="38.0306072719" lon="-6.2231878471">
        <ele>542.32</ele>
        <time>2020-07-11T06:21:01Z</time>
      </trkpt>
      <trkpt lat="38.0306890793" lon="-6.2232751865">
        <ele>542.32</ele>
        <time>2020-07-11T06:21:07Z</time>
      </trkpt>
      <trkpt lat="38.0307796039" lon="-6.2233676389">
        <ele>542.80</ele>
        <time>2020-07-11T06:21:14Z</time>
      </trkpt>
      <trkpt lat="38.0308143888" lon="-6.2233862467">
        <ele>543.28</ele>
        <time>2020-07-11T06:21:20Z</time>
      </trkpt>
      <trkpt lat="38.0308092758" lon="-6.2233880069">
        <ele>543.28</ele>
        <time>2020-07-11T06:21:33Z</time>
      </trkpt>
      <trkpt lat="38.0309626646" lon="-6.2235132325">
        <ele>544.72</ele>
        <time>2020-07-11T06:21:44Z</time>
      </trkpt>
      <trkpt lat="38.0311152991" lon="-6.2235776056">
        <ele>545.69</ele>
        <time>2020-07-11T06:21:52Z</time>
      </trkpt>
      <trkpt lat="38.0313130282" lon="-6.2236832175">
        <ele>547.61</ele>
        <time>2020-07-11T06:22:03Z</time>
      </trkpt>
      <trkpt lat="38.0315600429" lon="-6.2237762567">
        <ele>549.05</ele>
        <time>2020-07-11T06:22:15Z</time>
      </trkpt>
      <trkpt lat="38.0317199696" lon="-6.2238147296">
        <ele>550.49</ele>
        <time>2020-07-11T06:22:23Z</time>
      </trkpt>
      <trkpt lat="38.0319465324" lon="-6.2238560524">
        <ele>550.97</ele>
        <time>2020-07-11T06:22:34Z</time>
      </trkpt>
      <trkpt lat="38.0321331136" lon="-6.2238653563">
        <ele>551.93</ele>
        <time>2020-07-11T06:22:45Z</time>
      </trkpt>
      <trkpt lat="38.0321207922" lon="-6.2238755822">
        <ele>552.41</ele>
        <time>2020-07-11T06:23:01Z</time>
      </trkpt>
      <trkpt lat="38.0321140029" lon="-6.2238644343">
        <ele>553.38</ele>
        <time>2020-07-11T06:23:19Z</time>
      </trkpt>
      <trkpt lat="38.0321205407" lon="-6.2238749117">
        <ele>553.86</ele>
        <time>2020-07-11T06:23:36Z</time>
      </trkpt>
      <trkpt lat="38.0321507994" lon="-6.2238802761">
        <ele>553.38</ele>
        <time>2020-07-11T06:23:53Z</time>
      </trkpt>
      <trkpt lat="38.0321465246" lon="-6.2238666974">
        <ele>552.90</ele>
        <time>2020-07-11T06:24:11Z</time>
      </trkpt>
      <trkpt lat="38.0321562476" lon="-6.2238630932">
        <ele>553.86</ele>
        <time>2020-07-11T06:24:31Z</time>
      </trkpt>
      <trkpt lat="38.0322030187" lon="-6.2238823716">
        <ele>553.86</ele>
        <time>2020-07-11T06:24:37Z</time>
      </trkpt>
      <trkpt lat="38.0324064475" lon="-6.2239043321">
        <ele>553.38</ele>
        <time>2020-07-11T06:24:46Z</time>
      </trkpt>
      <trkpt lat="38.0326947011" lon="-6.2238982134">
        <ele>554.34</ele>
        <time>2020-07-11T06:24:56Z</time>
      </trkpt>
      <trkpt lat="38.0330433045" lon="-6.2238793541">
        <ele>555.30</ele>
        <time>2020-07-11T06:25:07Z</time>
      </trkpt>
      <trkpt lat="38.0334057380" lon="-6.2238600757">
        <ele>557.22</ele>
        <time>2020-07-11T06:25:18Z</time>
      </trkpt>
      <trkpt lat="38.0337728653" lon="-6.2238442339">
        <ele>557.70</ele>
        <time>2020-07-11T06:25:29Z</time>
      </trkpt>
      <trkpt lat="38.0341671500" lon="-6.2238633446">
        <ele>559.14</ele>
        <time>2020-07-11T06:25:41Z</time>
      </trkpt>
      <trkpt lat="38.0345206149" lon="-6.2239523605">
        <ele>560.11</ele>
        <time>2020-07-11T06:25:52Z</time>
      </trkpt>
      <trkpt lat="38.0348242912" lon="-6.2240917515">
        <ele>561.07</ele>
        <time>2020-07-11T06:26:02Z</time>
      </trkpt>
      <trkpt lat="38.0351310689" lon="-6.2243024725">
        <ele>561.55</ele>
        <time>2020-07-11T06:26:13Z</time>
      </trkpt>
      <trkpt lat="38.0353890639" lon="-6.2245276105">
        <ele>563.47</ele>
        <time>2020-07-11T06:26:23Z</time>
      </trkpt>
      <trkpt lat="38.0355580430" lon="-6.2247302849">
        <ele>564.91</ele>
        <time>2020-07-11T06:26:32Z</time>
      </trkpt>
      <trkpt lat="38.0357012898" lon="-6.2249339651">
        <ele>565.39</ele>
        <time>2020-07-11T06:26:41Z</time>
      </trkpt>
      <trkpt lat="38.0358872842" lon="-6.2252280861">
        <ele>566.83</ele>
        <time>2020-07-11T06:26:53Z</time>
      </trkpt>
      <trkpt lat="38.0360745359" lon="-6.2255397253">
        <ele>567.80</ele>
        <time>2020-07-11T06:27:05Z</time>
      </trkpt>
      <trkpt lat="38.0362612847" lon="-6.2258485984">
        <ele>568.28</ele>
        <time>2020-07-11T06:27:17Z</time>
      </trkpt>
      <trkpt lat="38.0364616960" lon="-6.2262044940">
        <ele>569.24</ele>
        <time>2020-07-11T06:27:30Z</time>
      </trkpt>
      <trkpt lat="38.0366470199" lon="-6.2265060749">
        <ele>569.72</ele>
        <time>2020-07-11T06:27:41Z</time>
      </trkpt>
      <trkpt lat="38.0368379597" lon="-6.2268211506">
        <ele>569.72</ele>
        <time>2020-07-11T06:27:52Z</time>
      </trkpt>
      <trkpt lat="38.0370970443" lon="-6.2272059638">
        <ele>569.24</ele>
        <time>2020-07-11T06:28:05Z</time>
      </trkpt>
      <trkpt lat="38.0373157281" lon="-6.2274852488">
        <ele>569.24</ele>
        <time>2020-07-11T06:28:14Z</time>
      </trkpt>
      <trkpt lat="38.0375537742" lon="-6.2277521286">
        <ele>568.76</ele>
        <time>2020-07-11T06:28:23Z</time>
      </trkpt>
      <trkpt lat="38.0378071591" lon="-6.2279888336">
        <ele>569.24</ele>
        <time>2020-07-11T06:28:32Z</time>
      </trkpt>
      <trkpt lat="38.0380689260" lon="-6.2282027397">
        <ele>569.72</ele>
        <time>2020-07-11T06:28:41Z</time>
      </trkpt>
      <trkpt lat="38.0383669864" lon="-6.2284301408">
        <ele>570.20</ele>
        <time>2020-07-11T06:28:51Z</time>
      </trkpt>
      <trkpt lat="38.0386055354" lon="-6.2286178954">
        <ele>571.16</ele>
        <time>2020-07-11T06:28:59Z</time>
      </trkpt>
      <trkpt lat="38.0388988182" lon="-6.2288401835">
        <ele>572.12</ele>
        <time>2020-07-11T06:29:09Z</time>
      </trkpt>
      <trkpt lat="38.0392026622" lon="-6.2290621363">
        <ele>572.12</ele>
        <time>2020-07-11T06:29:19Z</time>
      </trkpt>
      <trkpt lat="38.0394885689" lon="-6.2292741984">
        <ele>572.12</ele>
        <time>2020-07-11T06:29:28Z</time>
      </trkpt>
      <trkpt lat="38.0397447199" lon="-6.2294541579">
        <ele>573.08</ele>
        <time>2020-07-11T06:29:36Z</time>
      </trkpt>
      <trkpt lat="38.0400280282" lon="-6.2296611071">
        <ele>573.56</ele>
        <time>2020-07-11T06:29:45Z</time>
      </trkpt>
      <trkpt lat="38.0403281003" lon="-6.2298905198">
        <ele>573.08</ele>
        <time>2020-07-11T06:29:55Z</time>
      </trkpt>
      <trkpt lat="38.0406960659" lon="-6.2301639374">
        <ele>573.08</ele>
        <time>2020-07-11T06:30:06Z</time>
      </trkpt>
      <trkpt lat="38.0410446692" lon="-6.2304222677">
        <ele>572.60</ele>
        <time>2020-07-11T06:30:16Z</time>
      </trkpt>
      <trkpt lat="38.0413525365" lon="-6.2306468189">
        <ele>572.12</ele>
        <time>2020-07-11T06:30:25Z</time>
      </trkpt>
      <trkpt lat="38.0417048279" lon="-6.2309069932">
        <ele>571.16</ele>
        <time>2020-07-11T06:30:35Z</time>
      </trkpt>
      <trkpt lat="38.0420587957" lon="-6.2311618030">
        <ele>570.20</ele>
        <time>2020-07-11T06:30:44Z</time>
      </trkpt>
      <trkpt lat="38.0424667429" lon="-6.2314690836">
        <ele>569.24</ele>
        <time>2020-07-11T06:30:54Z</time>
      </trkpt>
      <trkpt lat="38.0427487101" lon="-6.2316746917">
        <ele>569.24</ele>
        <time>2020-07-11T06:31:02Z</time>
      </trkpt>
      <trkpt lat="38.0431210343" lon="-6.2319512106">
        <ele>568.28</ele>
        <time>2020-07-11T06:31:13Z</time>
      </trkpt>
      <trkpt lat="38.0434358586" lon="-6.2321889214">
        <ele>567.80</ele>
        <time>2020-07-11T06:31:23Z</time>
      </trkpt>
      <trkpt lat="38.0437013973" lon="-6.2324015703">
        <ele>567.80</ele>
        <time>2020-07-11T06:31:32Z</time>
      </trkpt>
      <trkpt lat="38.0440008827" lon="-6.2326458190">
        <ele>568.28</ele>
        <time>2020-07-11T06:31:42Z</time>
      </trkpt>
      <trkpt lat="38.0442983564" lon="-6.2328955159">
        <ele>569.24</ele>
        <time>2020-07-11T06:31:52Z</time>
      </trkpt>
      <trkpt lat="38.0446027871" lon="-6.2331476435">
        <ele>570.20</ele>
        <time>2020-07-11T06:32:02Z</time>
      </trkpt>
      <trkpt lat="38.0448726844" lon="-6.2333771400">
        <ele>571.16</ele>
        <time>2020-07-11T06:32:12Z</time>
      </trkpt>
      <trkpt lat="38.0451558251" lon="-6.2336040381">
        <ele>572.12</ele>
        <time>2020-07-11T06:32:23Z</time>
      </trkpt>
      <trkpt lat="38.0454003252" lon="-6.2338114064">
        <ele>572.12</ele>
        <time>2020-07-11T06:32:34Z</time>
      </trkpt>
      <trkpt lat="38.0456314143" lon="-6.2340004183">
        <ele>572.12</ele>
        <time>2020-07-11T06:32:44Z</time>
      </trkpt>
      <trkpt lat="38.0458065961" lon="-6.2341494486">
        <ele>573.08</ele>
        <time>2020-07-11T06:32:52Z</time>
      </trkpt>
      <trkpt lat="38.0461016390" lon="-6.2343584932">
        <ele>574.04</ele>
        <time>2020-07-11T06:33:05Z</time>
      </trkpt>
      <trkpt lat="38.0464129429" lon="-6.2345529534">
        <ele>575.01</ele>
        <time>2020-07-11T06:33:18Z</time>
      </trkpt>
      <trkpt lat="38.0466334708" lon="-6.2346728146">
        <ele>576.93</ele>
        <time>2020-07-11T06:33:27Z</time>
      </trkpt>
      <trkpt lat="38.0468152743" lon="-6.2347571366">
        <ele>577.41</ele>
        <time>2020-07-11T06:33:35Z</time>
      </trkpt>
      <trkpt lat="38.0468942318" lon="-6.2347974535">
        <ele>577.89</ele>
        <time>2020-07-11T06:33:42Z</time>
      </trkpt>
      <trkpt lat="38.0469141807" lon="-6.2348162290">
        <ele>577.41</ele>
        <time>2020-07-11T06:33:54Z</time>
      </trkpt>
      <trkpt lat="38.0470332876" lon="-6.2348734774">
        <ele>577.89</ele>
        <time>2020-07-11T06:34:02Z</time>
      </trkpt>
      <trkpt lat="38.0472422484" lon="-6.2349707074">
        <ele>579.33</ele>
        <time>2020-07-11T06:34:12Z</time>
      </trkpt>
      <trkpt lat="38.0474679731" lon="-6.2350806780">
        <ele>579.33</ele>
        <time>2020-07-11T06:34:22Z</time>
      </trkpt>
      <trkpt lat="38.0477009900" lon="-6.2352022156">
        <ele>580.29</ele>
        <time>2020-07-11T06:34:32Z</time>
      </trkpt>
      <trkpt lat="38.0479577277" lon="-6.2353516649">
        <ele>581.73</ele>
        <time>2020-07-11T06:34:43Z</time>
      </trkpt>
      <trkpt lat="38.0482210033" lon="-6.2355263438">
        <ele>582.22</ele>
        <time>2020-07-11T06:34:54Z</time>
      </trkpt>
      <trkpt lat="38.0484885536" lon="-6.2357229833">
        <ele>582.70</ele>
        <time>2020-07-11T06:35:06Z</time>
      </trkpt>
      <trkpt lat="38.0487220734" lon="-6.2358860113">
        <ele>583.18</ele>
        <time>2020-07-11T06:35:16Z</time>
      </trkpt>
      <trkpt lat="38.0489761289" lon="-6.2360760290">
        <ele>584.14</ele>
        <time>2020-07-11T06:35:27Z</time>
      </trkpt>
      <trkpt lat="38.0492157675" lon="-6.2362502050">
        <ele>584.62</ele>
        <time>2020-07-11T06:35:38Z</time>
      </trkpt>
      <trkpt lat="38.0494070426" lon="-6.2363911048">
        <ele>585.58</ele>
        <time>2020-07-11T06:35:47Z</time>
      </trkpt>
      <trkpt lat="38.0496362038" lon="-6.2365492713">
        <ele>587.02</ele>
        <time>2020-07-11T06:35:57Z</time>
      </trkpt>
      <trkpt lat="38.0498824641" lon="-6.2367371935">
        <ele>587.98</ele>
        <time>2020-07-11T06:36:08Z</time>
      </trkpt>
      <trkpt lat="38.0501500145" lon="-6.2369288877">
        <ele>588.95</ele>
        <time>2020-07-11T06:36:20Z</time>
      </trkpt>
      <trkpt lat="38.0503749847" lon="-6.2370952684">
        <ele>590.39</ele>
        <time>2020-07-11T06:36:30Z</time>
      </trkpt>
      <trkpt lat="38.0506697763" lon="-6.2373060733">
        <ele>591.83</ele>
        <time>2020-07-11T06:36:43Z</time>
      </trkpt>
      <trkpt lat="38.0509075709" lon="-6.2374567799">
        <ele>592.31</ele>
        <time>2020-07-11T06:36:54Z</time>
      </trkpt>
      <trkpt lat="38.0511335470" lon="-6.2376006134">
        <ele>592.31</ele>
        <time>2020-07-11T06:37:04Z</time>
      </trkpt>
      <trkpt lat="38.0513940565" lon="-6.2377306167">
        <ele>593.27</ele>
        <time>2020-07-11T06:37:15Z</time>
      </trkpt>
      <trkpt lat="38.0516343657" lon="-6.2378478795">
        <ele>593.75</ele>
        <time>2020-07-11T06:37:25Z</time>
      </trkpt>
      <trkpt lat="38.0518799555" lon="-6.2379643042">
        <ele>593.75</ele>
        <time>2020-07-11T06:37:35Z</time>
      </trkpt>
      <trkpt lat="38.0521035008" lon="-6.2380762026">
        <ele>595.19</ele>
        <time>2020-07-11T06:37:45Z</time>
      </trkpt>
      <trkpt lat="38.0522684567" lon="-6.2381541543">
        <ele>596.15</ele>
        <time>2020-07-11T06:37:53Z</time>
      </trkpt>
      <trkpt lat="38.0524510145" lon="-6.2382355426">
        <ele>596.64</ele>
        <time>2020-07-11T06:38:01Z</time>
      </trkpt>
      <trkpt lat="38.0527188163" lon="-6.2383471057">
        <ele>597.60</ele>
        <time>2020-07-11T06:38:12Z</time>
      </trkpt>
      <trkpt lat="38.0529548507" lon="-6.2384312600">
        <ele>598.08</ele>
        <time>2020-07-11T06:38:22Z</time>
      </trkpt>
      <trkpt lat="38.0531454552" lon="-6.2384611834">
        <ele>599.04</ele>
        <time>2020-07-11T06:38:30Z</time>
      </trkpt>
      <trkpt lat="38.0533740297" lon="-6.2384759355">
        <ele>599.52</ele>
        <time>2020-07-11T06:38:40Z</time>
      </trkpt>
      <trkpt lat="38.0536104832" lon="-6.2384732533">
        <ele>600.48</ele>
        <time>2020-07-11T06:38:50Z</time>
      </trkpt>
      <trkpt lat="38.0537675600" lon="-6.2384465151">
        <ele>600.48</ele>
        <time>2020-07-11T06:38:58Z</time>
      </trkpt>
      <trkpt lat="38.0539372936" lon="-6.2384221237">
        <ele>600.96</ele>
        <time>2020-07-11T06:39:07Z</time>
      </trkpt>
      <trkpt lat="38.0541046802" lon="-6.2383938767">
        <ele>601.44</ele>
        <time>2020-07-11T06:39:16Z</time>
      </trkpt>
      <trkpt lat="38.0542677920" lon="-6.2383660488">
        <ele>602.88</ele>
        <time>2020-07-11T06:39:25Z</time>
      </trkpt>
      <trkpt lat="38.0544576421" lon="-6.2383348681">
        <ele>604.81</ele>
        <time>2020-07-11T06:39:35Z</time>
      </trkpt>
      <trkpt lat="38.0546839535" lon="-6.2382844929">
        <ele>606.25</ele>
        <time>2020-07-11T06:39:48Z</time>
      </trkpt>
      <trkpt lat="38.0548810121" lon="-6.2382362969">
        <ele>606.25</ele>
        <time>2020-07-11T06:39:59Z</time>
      </trkpt>
      <trkpt lat="38.0550753884" lon="-6.2381889392">
        <ele>606.73</ele>
        <time>2020-07-11T06:40:10Z</time>
      </trkpt>
      <trkpt lat="38.0551369116" lon="-6.2381547410">
        <ele>607.21</ele>
        <time>2020-07-11T06:40:18Z</time>
      </trkpt>
      <trkpt lat="38.0551274400" lon="-6.2381637096">
        <ele>607.21</ele>
        <time>2020-07-11T06:40:27Z</time>
      </trkpt>
      <trkpt lat="38.0551255122" lon="-6.2381587643">
        <ele>609.13</ele>
        <time>2020-07-11T06:40:44Z</time>
      </trkpt>
      <trkpt lat="38.0551227462" lon="-6.2381784618">
        <ele>610.09</ele>
        <time>2020-07-11T06:41:03Z</time>
      </trkpt>
      <trkpt lat="38.0551323853" lon="-6.2381808087">
        <ele>612.50</ele>
        <time>2020-07-11T06:41:22Z</time>
      </trkpt>
      <trkpt lat="38.0551296193" lon="-6.2381975725">
        <ele>612.98</ele>
        <time>2020-07-11T06:41:43Z</time>
      </trkpt>
      <trkpt lat="38.0551167950" lon="-6.2381741870">
        <ele>612.02</ele>
        <time>2020-07-11T06:41:58Z</time>
      </trkpt>
      <trkpt lat="38.0551056471" lon="-6.2381860893">
        <ele>611.06</ele>
        <time>2020-07-11T06:42:15Z</time>
      </trkpt>
      <trkpt lat="38.0551148672" lon="-6.2381819822">
        <ele>612.50</ele>
        <time>2020-07-11T06:42:35Z</time>
      </trkpt>
      <trkpt lat="38.0551168788" lon="-6.2381540705">
        <ele>611.06</ele>
        <time>2020-07-11T06:43:01Z</time>
      </trkpt>
      <trkpt lat="38.0551158730" lon="-6.2381546572">
        <ele>611.54</ele>
        <time>2020-07-11T06:43:25Z</time>
      </trkpt>
      <trkpt lat="38.0551184714" lon="-6.2381599378">
        <ele>611.54</ele>
        <time>2020-07-11T06:43:42Z</time>
      </trkpt>
      <trkpt lat="38.0551125202" lon="-6.2381404918">
        <ele>609.61</ele>
        <time>2020-07-11T06:44:03Z</time>
      </trkpt>
      <trkpt lat="38.0551150348" lon="-6.2381611113">
        <ele>608.17</ele>
        <time>2020-07-11T06:44:23Z</time>
      </trkpt>
      <trkpt lat="38.0551364087" lon="-6.2381677330">
        <ele>608.65</ele>
        <time>2020-07-11T06:44:48Z</time>
      </trkpt>
      <trkpt lat="38.0551151186" lon="-6.2381736003">
        <ele>608.65</ele>
        <time>2020-07-11T06:45:15Z</time>
      </trkpt>
      <trkpt lat="38.0551039707" lon="-6.2381695770">
        <ele>609.13</ele>
        <time>2020-07-11T06:45:35Z</time>
      </trkpt>
      <trkpt lat="38.0551176332" lon="-6.2382091396">
        <ele>612.50</ele>
        <time>2020-07-11T06:45:58Z</time>
      </trkpt>
      <trkpt lat="38.0551243387" lon="-6.2381825689">
        <ele>611.06</ele>
        <time>2020-07-11T06:46:13Z</time>
      </trkpt>
      <trkpt lat="38.0551286973" lon="-6.2381598540">
        <ele>608.17</ele>
        <time>2020-07-11T06:46:37Z</time>
      </trkpt>
      <trkpt lat="38.0551227462" lon="-6.2381598540">
        <ele>607.21</ele>
        <time>2020-07-11T06:47:02Z</time>
      </trkpt>
      <trkpt lat="38.0551308766" lon="-6.2381922081">
        <ele>611.54</ele>
        <time>2020-07-11T06:47:23Z</time>
      </trkpt>
      <trkpt lat="38.0551192258" lon="-6.2381636258">
        <ele>611.06</ele>
        <time>2020-07-11T06:47:40Z</time>
      </trkpt>
      <trkpt lat="38.0551043898" lon="-6.2381487899">
        <ele>610.09</ele>
        <time>2020-07-11T06:48:01Z</time>
      </trkpt>
      <trkpt lat="38.0551146995" lon="-6.2381557468">
        <ele>608.65</ele>
        <time>2020-07-11T06:48:15Z</time>
      </trkpt>
      <trkpt lat="38.0551318824" lon="-6.2381580099">
        <ele>607.69</ele>
        <time>2020-07-11T06:48:36Z</time>
      </trkpt>
      <trkpt lat="38.0551271886" lon="-6.2381650507">
        <ele>606.25</ele>
        <time>2020-07-11T06:49:00Z</time>
      </trkpt>
      <trkpt lat="38.0551263504" lon="-6.2381540705">
        <ele>606.25</ele>
        <time>2020-07-11T06:49:16Z</time>
      </trkpt>
      <trkpt lat="38.0551177170" lon="-6.2381389830">
        <ele>604.81</ele>
        <time>2020-07-11T06:49:30Z</time>
      </trkpt>
      <trkpt lat="38.0551018752" lon="-6.2381373905">
        <ele>605.29</ele>
        <time>2020-07-11T06:49:48Z</time>
      </trkpt>
      <trkpt lat="38.0551252607" lon="-6.2381549925">
        <ele>606.25</ele>
        <time>2020-07-11T06:50:14Z</time>
      </trkpt>
      <trkpt lat="38.0551346485" lon="-6.2381585967">
        <ele>606.73</ele>
        <time>2020-07-11T06:50:21Z</time>
      </trkpt>
      <trkpt lat="38.0551544297" lon="-6.2381609436">
        <ele>606.73</ele>
        <time>2020-07-11T06:50:23Z</time>
      </trkpt>
      <trkpt lat="38.0551851075" lon="-6.2381726783">
        <ele>607.21</ele>
        <time>2020-07-11T06:50:25Z</time>
      </trkpt>
      <trkpt lat="38.0552034639" lon="-6.2381720915">
        <ele>607.21</ele>
        <time>2020-07-11T06:50:26Z</time>
      </trkpt>
      <trkpt lat="38.0554359779" lon="-6.2381233089">
        <ele>608.65</ele>
        <time>2020-07-11T06:50:37Z</time>
      </trkpt>
      <trkpt lat="38.0557072163" lon="-6.2380621210">
        <ele>610.09</ele>
        <time>2020-07-11T06:50:49Z</time>
      </trkpt>
      <trkpt lat="38.0559456814" lon="-6.2380192056">
        <ele>611.54</ele>
        <time>2020-07-11T06:51:01Z</time>
      </trkpt>
      <trkpt lat="38.0561266467" lon="-6.2379862648">
        <ele>612.02</ele>
        <time>2020-07-11T06:51:11Z</time>
      </trkpt>
      <trkpt lat="38.0563183408" lon="-6.2379619572">
        <ele>612.98</ele>
        <time>2020-07-11T06:51:22Z</time>
      </trkpt>
      <trkpt lat="38.0565529503" lon="-6.2379417568">
        <ele>613.94</ele>
        <time>2020-07-11T06:51:35Z</time>
      </trkpt>
      <trkpt lat="38.0567298923" lon="-6.2379389070">
        <ele>614.90</ele>
        <time>2020-07-11T06:51:45Z</time>
      </trkpt>
      <trkpt lat="38.0568943452" lon="-6.2379434332">
        <ele>615.86</ele>
        <time>2020-07-11T06:51:54Z</time>
      </trkpt>
      <trkpt lat="38.0570822675" lon="-6.2379575148">
        <ele>616.82</ele>
        <time>2020-07-11T06:52:04Z</time>
      </trkpt>
      <trkpt lat="38.0572602153" lon="-6.2379718479">
        <ele>616.82</ele>
        <time>2020-07-11T06:52:13Z</time>
      </trkpt>
      <trkpt lat="38.0574462935" lon="-6.2380033638">
        <ele>618.26</ele>
        <time>2020-07-11T06:52:22Z</time>
      </trkpt>
      <trkpt lat="38.0576461181" lon="-6.2380513921">
        <ele>619.23</ele>
        <time>2020-07-11T06:52:32Z</time>
      </trkpt>
      <trkpt lat="38.0579004250" lon="-6.2381263264">
        <ele>620.19</ele>
        <time>2020-07-11T06:52:44Z</time>
      </trkpt>
      <trkpt lat="38.0581496190" lon="-6.2382243108">
        <ele>621.15</ele>
        <time>2020-07-11T06:52:56Z</time>
      </trkpt>
      <trkpt lat="38.0583463423" lon="-6.2383103091">
        <ele>621.63</ele>
        <time>2020-07-11T06:53:06Z</time>
      </trkpt>
      <trkpt lat="38.0585169140" lon="-6.2384008337">
        <ele>622.11</ele>
        <time>2020-07-11T06:53:14Z</time>
      </trkpt>
      <trkpt lat="38.0587695446" lon="-6.2385401409">
        <ele>622.11</ele>
        <time>2020-07-11T06:53:24Z</time>
      </trkpt>
      <trkpt lat="38.0590052437" lon="-6.2386862375">
        <ele>622.11</ele>
        <time>2020-07-11T06:53:33Z</time>
      </trkpt>
      <trkpt lat="38.0592416134" lon="-6.2388284784">
        <ele>621.15</ele>
        <time>2020-07-11T06:53:42Z</time>
      </trkpt>
      <trkpt lat="38.0594922323" lon="-6.2389924284">
        <ele>624.03</ele>
        <time>2020-07-11T06:53:52Z</time>
      </trkpt>
      <trkpt lat="38.0596880335" lon="-6.2391027343">
        <ele>624.99</ele>
        <time>2020-07-11T06:54:01Z</time>
      </trkpt>
      <trkpt lat="38.0598530732" lon="-6.2391977850">
        <ele>625.96</ele>
        <time>2020-07-11T06:54:10Z</time>
      </trkpt>
      <trkpt lat="38.0600045342" lon="-6.2393076718">
        <ele>626.92</ele>
        <time>2020-07-11T06:54:19Z</time>
      </trkpt>
      <trkpt lat="38.0601629522" lon="-6.2393979449">
        <ele>628.36</ele>
        <time>2020-07-11T06:54:28Z</time>
      </trkpt>
      <trkpt lat="38.0603504553" lon="-6.2395055685">
        <ele>628.36</ele>
        <time>2020-07-11T06:54:38Z</time>
      </trkpt>
      <trkpt lat="38.0605045985" lon="-6.2396016251">
        <ele>628.36</ele>
        <time>2020-07-11T06:54:47Z</time>
      </trkpt>
      <trkpt lat="38.0607211031" lon="-6.2397339754">
        <ele>627.88</ele>
        <time>2020-07-11T06:55:00Z</time>
      </trkpt>
      <trkpt lat="38.0608736537" lon="-6.2398356479">
        <ele>629.80</ele>
        <time>2020-07-11T06:55:09Z</time>
      </trkpt>
      <trkpt lat="38.0610225163" lon="-6.2399266753">
        <ele>630.76</ele>
        <time>2020-07-11T06:55:18Z</time>
      </trkpt>
      <trkpt lat="38.0611734744" lon="-6.2400183734">
        <ele>631.24</ele>
        <time>2020-07-11T06:55:27Z</time>
      </trkpt>
      <trkpt lat="38.0613183975" lon="-6.2401062995">
        <ele>631.72</ele>
        <time>2020-07-11T06:55:36Z</time>
      </trkpt>
      <trkpt lat="38.0614973512" lon="-6.2402134202">
        <ele>632.68</ele>
        <time>2020-07-11T06:55:47Z</time>
      </trkpt>
      <trkpt lat="38.0616752151" lon="-6.2403264083">
        <ele>633.65</ele>
        <time>2020-07-11T06:55:58Z</time>
      </trkpt>
      <trkpt lat="38.0618486367" lon="-6.2404321041">
        <ele>634.61</ele>
        <time>2020-07-11T06:56:09Z</time>
      </trkpt>
      <trkpt lat="38.0619932245" lon="-6.2405310106">
        <ele>636.05</ele>
        <time>2020-07-11T06:56:18Z</time>
      </trkpt>
      <trkpt lat="38.0621283408" lon="-6.2406077888">
        <ele>637.01</ele>
        <time>2020-07-11T06:56:26Z</time>
      </trkpt>
      <trkpt lat="38.0623119045" lon="-6.2407287396">
        <ele>638.45</ele>
        <time>2020-07-11T06:56:37Z</time>
      </trkpt>
      <trkpt lat="38.0624807999" lon="-6.2408359442">
        <ele>639.41</ele>
        <time>2020-07-11T06:56:47Z</time>
      </trkpt>
      <trkpt lat="38.0626571551" lon="-6.2409682106">
        <ele>640.38</ele>
        <time>2020-07-11T06:56:58Z</time>
      </trkpt>
      <trkpt lat="38.0627881642" lon="-6.2410790194">
        <ele>640.38</ele>
        <time>2020-07-11T06:57:06Z</time>
      </trkpt>
      <trkpt lat="38.0629550479" lon="-6.2412386946">
        <ele>641.34</ele>
        <time>2020-07-11T06:57:16Z</time>
      </trkpt>
      <trkpt lat="38.0631167348" lon="-6.2413793430">
        <ele>641.82</ele>
        <time>2020-07-11T06:57:26Z</time>
      </trkpt>
      <trkpt lat="38.0632755719" lon="-6.2415226735">
        <ele>642.30</ele>
        <time>2020-07-11T06:57:36Z</time>
      </trkpt>
      <trkpt lat="38.0634806771" lon="-6.2417069077">
        <ele>643.74</ele>
        <time>2020-07-11T06:57:49Z</time>
      </trkpt>
      <trkpt lat="38.0636505783" lon="-6.2418608833">
        <ele>644.70</ele>
        <time>2020-07-11T06:58:00Z</time>
      </trkpt>
      <trkpt lat="38.0638353992" lon="-6.2420324609">
        <ele>645.66</ele>
        <time>2020-07-11T06:58:12Z</time>
      </trkpt>
      <trkpt lat="38.0639618821" lon="-6.2421384081">
        <ele>646.14</ele>
        <time>2020-07-11T06:58:20Z</time>
      </trkpt>
      <trkpt lat="38.0640531611" lon="-6.2422197126">
        <ele>646.62</ele>
        <time>2020-07-11T06:58:26Z</time>
      </trkpt>
      <trkpt lat="38.0640681647" lon="-6.2422352191">
        <ele>646.62</ele>
        <time>2020-07-11T06:58:27Z</time>
      </trkpt>
      <trkpt lat="38.0642193742" lon="-6.2423559185">
        <ele>647.59</ele>
        <time>2020-07-11T06:58:36Z</time>
      </trkpt>
      <trkpt lat="38.0643463600" lon="-6.2424662244">
        <ele>648.55</ele>
        <time>2020-07-11T06:58:44Z</time>
      </trkpt>
      <trkpt lat="38.0645326059" lon="-6.2426118180">
        <ele>649.51</ele>
        <time>2020-07-11T06:58:55Z</time>
      </trkpt>
      <trkpt lat="38.0647460092" lon="-6.2427457608">
        <ele>649.51</ele>
        <time>2020-07-11T06:59:07Z</time>
      </trkpt>
      <trkpt lat="38.0649377871" lon="-6.2428619340">
        <ele>649.99</ele>
        <time>2020-07-11T06:59:18Z</time>
      </trkpt>
      <trkpt lat="38.0651078559" lon="-6.2429544702">
        <ele>651.43</ele>
        <time>2020-07-11T06:59:28Z</time>
      </trkpt>
      <trkpt lat="38.0652787630" lon="-6.2430457491">
        <ele>652.39</ele>
        <time>2020-07-11T06:59:38Z</time>
      </trkpt>
      <trkpt lat="38.0654304754" lon="-6.2431237008">
        <ele>653.35</ele>
        <time>2020-07-11T06:59:47Z</time>
      </trkpt>
      <trkpt lat="38.0656018015" lon="-6.2432210147">
        <ele>654.80</ele>
        <time>2020-07-11T06:59:57Z</time>
      </trkpt>
      <trkpt lat="38.0657960102" lon="-6.2433207594">
        <ele>656.24</ele>
        <time>2020-07-11T07:00:08Z</time>
      </trkpt>
      <trkpt lat="38.0659491476" lon="-6.2434001360">
        <ele>656.72</ele>
        <time>2020-07-11T07:00:17Z</time>
      </trkpt>
      <trkpt lat="38.0661635567" lon="-6.2434843741">
        <ele>658.16</ele>
        <time>2020-07-11T07:00:29Z</time>
      </trkpt>
      <trkpt lat="38.0663860962" lon="-6.2435419578">
        <ele>659.60</ele>
        <time>2020-07-11T07:00:41Z</time>
      </trkpt>
      <trkpt lat="38.0665580928" lon="-6.2435645051">
        <ele>661.04</ele>
        <time>2020-07-11T07:00:51Z</time>
      </trkpt>
      <trkpt lat="38.0667013396" lon="-6.2435795087">
        <ele>662.49</ele>
        <time>2020-07-11T07:00:59Z</time>
      </trkpt>
      <trkpt lat="38.0668929499" lon="-6.2435749825">
        <ele>664.41</ele>
        <time>2020-07-11T07:01:10Z</time>
      </trkpt>
      <trkpt lat="38.0670434888" lon="-6.2435623258">
        <ele>665.37</ele>
        <time>2020-07-11T07:01:19Z</time>
      </trkpt>
      <trkpt lat="38.0671941955" lon="-6.2435476575">
        <ele>665.85</ele>
        <time>2020-07-11T07:01:28Z</time>
      </trkpt>
      <trkpt lat="38.0673987139" lon="-6.2435228471">
        <ele>666.81</ele>
        <time>2020-07-11T07:01:40Z</time>
      </trkpt>
      <trkpt lat="38.0675676931" lon="-6.2435001321">
        <ele>667.77</ele>
        <time>2020-07-11T07:01:50Z</time>
      </trkpt>
      <trkpt lat="38.0677962676" lon="-6.2434605695">
        <ele>669.22</ele>
        <time>2020-07-11T07:02:03Z</time>
      </trkpt>
      <trkpt lat="38.0679779034" lon="-6.2434092723">
        <ele>670.66</ele>
        <time>2020-07-11T07:02:14Z</time>
      </trkpt>
      <trkpt lat="38.0681343097" lon="-6.2434048299">
        <ele>671.62</ele>
        <time>2020-07-11T07:02:23Z</time>
      </trkpt>
      <trkpt lat="38.0682733655" lon="-6.2434103619">
        <ele>672.58</ele>
        <time>2020-07-11T07:02:31Z</time>
      </trkpt>
      <trkpt lat="38.0684415065" lon="-6.2434215937">
        <ele>674.02</ele>
        <time>2020-07-11T07:02:41Z</time>
      </trkpt>
      <trkpt lat="38.0686161853" lon="-6.2434775848">
        <ele>674.98</ele>
        <time>2020-07-11T07:02:52Z</time>
      </trkpt>
      <trkpt lat="38.0687664729" lon="-6.2435316481">
        <ele>675.94</ele>
        <time>2020-07-11T07:03:02Z</time>
      </trkpt>
      <trkpt lat="38.0688954704" lon="-6.2435997929">
        <ele>676.91</ele>
        <time>2020-07-11T07:03:11Z</time>
      </trkpt>
      <trkpt lat="38.0689954665" lon="-6.2436548620">
        <ele>677.87</ele>
        <time>2020-07-11T07:03:18Z</time>
      </trkpt>
      <trkpt lat="38.0691108853" lon="-6.2437226716">
        <ele>678.83</ele>
        <time>2020-07-11T07:03:26Z</time>
      </trkpt>
      <trkpt lat="38.0692339316" lon="-6.2438243441">
        <ele>679.79</ele>
        <time>2020-07-11T07:03:35Z</time>
      </trkpt>
      <trkpt lat="38.0693508592" lon="-6.2439331412">
        <ele>681.71</ele>
        <time>2020-07-11T07:03:44Z</time>
      </trkpt>
      <trkpt lat="38.0694779288" lon="-6.2440729514">
        <ele>683.63</ele>
        <time>2020-07-11T07:03:55Z</time>
      </trkpt>
      <trkpt lat="38.0695541203" lon="-6.2441705167">
        <ele>683.63</ele>
        <time>2020-07-11T07:04:02Z</time>
      </trkpt>
      <trkpt lat="38.0696450640" lon="-6.2443054654">
        <ele>683.63</ele>
        <time>2020-07-11T07:04:11Z</time>
      </trkpt>
      <trkpt lat="38.0697428808" lon="-6.2444532383">
        <ele>684.60</ele>
        <time>2020-07-11T07:04:21Z</time>
      </trkpt>
      <trkpt lat="38.0698214192" lon="-6.2446274143">
        <ele>685.08</ele>
        <time>2020-07-11T07:04:31Z</time>
      </trkpt>
      <trkpt lat="38.0699038971" lon="-6.2448290829">
        <ele>686.52</ele>
        <time>2020-07-11T07:04:42Z</time>
      </trkpt>
      <trkpt lat="38.0699612293" lon="-6.2450020015">
        <ele>687.48</ele>
        <time>2020-07-11T07:04:51Z</time>
      </trkpt>
      <trkpt lat="38.0699989479" lon="-6.2451475114">
        <ele>688.44</ele>
        <time>2020-07-11T07:04:58Z</time>
      </trkpt>
      <trkpt lat="38.0700385105" lon="-6.2453660276">
        <ele>689.88</ele>
        <time>2020-07-11T07:05:08Z</time>
      </trkpt>
      <trkpt lat="38.0700730439" lon="-6.2455784250">
        <ele>691.81</ele>
        <time>2020-07-11T07:05:18Z</time>
      </trkpt>
      <trkpt lat="38.0701061524" lon="-6.2457966898">
        <ele>692.29</ele>
        <time>2020-07-11T07:05:29Z</time>
      </trkpt>
      <trkpt lat="38.0701534264" lon="-6.2459827680">
        <ele>690.84</ele>
        <time>2020-07-11T07:05:39Z</time>
      </trkpt>
      <trkpt lat="38.0701866187" lon="-6.2461738754">
        <ele>691.81</ele>
        <time>2020-07-11T07:05:48Z</time>
      </trkpt>
      <trkpt lat="38.0702216551" lon="-6.2463617139">
        <ele>693.73</ele>
        <time>2020-07-11T07:05:57Z</time>
      </trkpt>
      <trkpt lat="38.0702812504" lon="-6.2465702556">
        <ele>694.69</ele>
        <time>2020-07-11T07:06:08Z</time>
      </trkpt>
      <trkpt lat="38.0703637283" lon="-6.2467751093">
        <ele>695.65</ele>
        <time>2020-07-11T07:06:19Z</time>
      </trkpt>
      <trkpt lat="38.0704347230" lon="-6.2469204515">
        <ele>697.09</ele>
        <time>2020-07-11T07:06:28Z</time>
      </trkpt>
      <trkpt lat="38.0705244932" lon="-6.2470713258">
        <ele>699.02</ele>
        <time>2020-07-11T07:06:37Z</time>
      </trkpt>
      <trkpt lat="38.0706163589" lon="-6.2472108845">
        <ele>699.50</ele>
        <time>2020-07-11T07:06:46Z</time>
      </trkpt>
      <trkpt lat="38.0706879403" lon="-6.2472715694">
        <ele>700.46</ele>
        <time>2020-07-11T07:06:55Z</time>
      </trkpt>
      <trkpt lat="38.0706882756" lon="-6.2472728267">
        <ele>701.42</ele>
        <time>2020-07-11T07:07:07Z</time>
      </trkpt>
      <trkpt lat="38.0706912093" lon="-6.2472669594">
        <ele>701.42</ele>
        <time>2020-07-11T07:07:22Z</time>
      </trkpt>
      <trkpt lat="38.0706931371" lon="-6.2472760119">
        <ele>701.90</ele>
        <time>2020-07-11T07:07:36Z</time>
      </trkpt>
      <trkpt lat="38.0707132537" lon="-6.2473112158">
        <ele>701.42</ele>
        <time>2020-07-11T07:07:44Z</time>
      </trkpt>
      <trkpt lat="38.0708091427" lon="-6.2474302389">
        <ele>702.86</ele>
        <time>2020-07-11T07:07:52Z</time>
      </trkpt>
      <trkpt lat="38.0709476117" lon="-6.2475682888">
        <ele>704.30</ele>
        <time>2020-07-11T07:08:02Z</time>
      </trkpt>
      <trkpt lat="38.0710709933" lon="-6.2476783432">
        <ele>705.26</ele>
        <time>2020-07-11T07:08:11Z</time>
      </trkpt>
      <trkpt lat="38.0711678881" lon="-6.2477693707">
        <ele>706.23</ele>
        <time>2020-07-11T07:08:18Z</time>
      </trkpt>
      <trkpt lat="38.0711810477" lon="-6.2477811053">
        <ele>706.23</ele>
        <time>2020-07-11T07:08:19Z</time>
      </trkpt>
      <trkpt lat="38.0711939558" lon="-6.2477923371">
        <ele>706.23</ele>
        <time>2020-07-11T07:08:20Z</time>
      </trkpt>
      <trkpt lat="38.0712082889" lon="-6.2478023116">
        <ele>706.23</ele>
        <time>2020-07-11T07:08:21Z</time>
      </trkpt>
      <trkpt lat="38.0712198559" lon="-6.2478159741">
        <ele>706.71</ele>
        <time>2020-07-11T07:08:22Z</time>
      </trkpt>
      <trkpt lat="38.0712332670" lon="-6.2478313968">
        <ele>706.71</ele>
        <time>2020-07-11T07:08:23Z</time>
      </trkpt>
      <trkpt lat="38.0712460913" lon="-6.2478447240">
        <ele>706.71</ele>
        <time>2020-07-11T07:08:24Z</time>
      </trkpt>
      <trkpt lat="38.0713666230" lon="-6.2479505874">
        <ele>707.19</ele>
        <time>2020-07-11T07:08:33Z</time>
      </trkpt>
      <trkpt lat="38.0714776833" lon="-6.2480520923">
        <ele>707.67</ele>
        <time>2020-07-11T07:08:41Z</time>
      </trkpt>
      <trkpt lat="38.0715984665" lon="-6.2481732946">
        <ele>708.15</ele>
        <time>2020-07-11T07:08:50Z</time>
      </trkpt>
      <trkpt lat="38.0717009772" lon="-6.2482716143">
        <ele>709.59</ele>
        <time>2020-07-11T07:08:58Z</time>
      </trkpt>
      <trkpt lat="38.0718041584" lon="-6.2483711913">
        <ele>710.07</ele>
        <time>2020-07-11T07:09:06Z</time>
      </trkpt>
      <trkpt lat="38.0719295517" lon="-6.2485080678">
        <ele>711.03</ele>
        <time>2020-07-11T07:09:16Z</time>
      </trkpt>
      <trkpt lat="38.0720396899" lon="-6.2486325391">
        <ele>712.47</ele>
        <time>2020-07-11T07:09:25Z</time>
      </trkpt>
      <trkpt lat="38.0721610598" lon="-6.2487810664">
        <ele>713.44</ele>
        <time>2020-07-11T07:09:35Z</time>
      </trkpt>
      <trkpt lat="38.0722411070" lon="-6.2488836609">
        <ele>714.88</ele>
        <time>2020-07-11T07:09:43Z</time>
      </trkpt>
      <trkpt lat="38.0723633990" lon="-6.2490462698">
        <ele>716.32</ele>
        <time>2020-07-11T07:09:54Z</time>
      </trkpt>
      <trkpt lat="38.0724501517" lon="-6.2491776980">
        <ele>716.80</ele>
        <time>2020-07-11T07:10:02Z</time>
      </trkpt>
      <trkpt lat="38.0725373235" lon="-6.2493118085">
        <ele>717.76</ele>
        <time>2020-07-11T07:10:10Z</time>
      </trkpt>
      <trkpt lat="38.0726492219" lon="-6.2495111302">
        <ele>719.20</ele>
        <time>2020-07-11T07:10:21Z</time>
      </trkpt>
      <trkpt lat="38.0727435183" lon="-6.2496920116">
        <ele>719.68</ele>
        <time>2020-07-11T07:10:31Z</time>
      </trkpt>
      <trkpt lat="38.0728327017" lon="-6.2498735636">
        <ele>721.13</ele>
        <time>2020-07-11T07:10:41Z</time>
      </trkpt>
      <trkpt lat="38.0729320273" lon="-6.2500943430">
        <ele>723.05</ele>
        <time>2020-07-11T07:10:53Z</time>
      </trkpt>
      <trkpt lat="38.0730175227" lon="-6.2502721231">
        <ele>725.45</ele>
        <time>2020-07-11T07:11:03Z</time>
      </trkpt>
      <trkpt lat="38.0730926245" lon="-6.2504462153">
        <ele>726.41</ele>
        <time>2020-07-11T07:11:12Z</time>
      </trkpt>
      <trkpt lat="38.0731841549" lon="-6.2506428547">
        <ele>726.89</ele>
        <time>2020-07-11T07:11:22Z</time>
      </trkpt>
      <trkpt lat="38.0732678901" lon="-6.2508204672">
        <ele>727.86</ele>
        <time>2020-07-11T07:11:32Z</time>
      </trkpt>
      <trkpt lat="38.0733336043" lon="-6.2509651389">
        <ele>727.86</ele>
        <time>2020-07-11T07:11:40Z</time>
      </trkpt>
      <trkpt lat="38.0734009948" lon="-6.2511132471">
        <ele>728.82</ele>
        <time>2020-07-11T07:11:49Z</time>
      </trkpt>
      <trkpt lat="38.0734713189" lon="-6.2512792926">
        <ele>730.26</ele>
        <time>2020-07-11T07:11:58Z</time>
      </trkpt>
      <trkpt lat="38.0735431518" lon="-6.2514432427">
        <ele>731.22</ele>
        <time>2020-07-11T07:12:07Z</time>
      </trkpt>
      <trkpt lat="38.0736241210" lon="-6.2516171671">
        <ele>731.22</ele>
        <time>2020-07-11T07:12:17Z</time>
      </trkpt>
      <trkpt lat="38.0737020727" lon="-6.2517801952">
        <ele>731.70</ele>
        <time>2020-07-11T07:12:26Z</time>
      </trkpt>
      <trkpt lat="38.0737817008" lon="-6.2519461568">
        <ele>731.70</ele>
        <time>2020-07-11T07:12:35Z</time>
      </trkpt>
      <trkpt lat="38.0738534499" lon="-6.2520720530">
        <ele>732.18</ele>
        <time>2020-07-11T07:12:42Z</time>
      </trkpt>
      <trkpt lat="38.0739469919" lon="-6.2522592209">
        <ele>733.14</ele>
        <time>2020-07-11T07:12:51Z</time>
      </trkpt>
      <trkpt lat="38.0740412045" lon="-6.2524198182">
        <ele>732.66</ele>
        <time>2020-07-11T07:12:59Z</time>
      </trkpt>
      <trkpt lat="38.0741653405" lon="-6.2526209000">
        <ele>733.62</ele>
        <time>2020-07-11T07:13:09Z</time>
      </trkpt>
      <trkpt lat="38.0743455514" lon="-6.2528908812">
        <ele>734.58</ele>
        <time>2020-07-11T07:13:23Z</time>
      </trkpt>
      <trkpt lat="38.0744585395" lon="-6.2530547474">
        <ele>735.55</ele>
        <time>2020-07-11T07:13:32Z</time>
      </trkpt>
      <trkpt lat="38.0745895486" lon="-6.2532352097">
        <ele>737.47</ele>
        <time>2020-07-11T07:13:42Z</time>
      </trkpt>
      <trkpt lat="38.0747525766" lon="-6.2534686457">
        <ele>738.43</ele>
        <time>2020-07-11T07:13:54Z</time>
      </trkpt>
      <trkpt lat="38.0749105755" lon="-6.2536813784">
        <ele>738.91</ele>
        <time>2020-07-11T07:14:05Z</time>
      </trkpt>
      <trkpt lat="38.0750276707" lon="-6.2538252119">
        <ele>738.91</ele>
        <time>2020-07-11T07:14:13Z</time>
      </trkpt>
      <trkpt lat="38.0751985777" lon="-6.2540476676">
        <ele>738.91</ele>
        <time>2020-07-11T07:14:25Z</time>
      </trkpt>
      <trkpt lat="38.0753385555" lon="-6.2541982066">
        <ele>739.39</ele>
        <time>2020-07-11T07:14:34Z</time>
      </trkpt>
      <trkpt lat="38.0754880887" lon="-6.2543824408">
        <ele>739.87</ele>
        <time>2020-07-11T07:14:44Z</time>
      </trkpt>
      <trkpt lat="38.0756400526" lon="-6.2545661721">
        <ele>741.31</ele>
        <time>2020-07-11T07:14:54Z</time>
      </trkpt>
      <trkpt lat="38.0757959560" lon="-6.2547418568">
        <ele>742.28</ele>
        <time>2020-07-11T07:15:04Z</time>
      </trkpt>
      <trkpt lat="38.0759482551" lon="-6.2549099978">
        <ele>742.76</ele>
        <time>2020-07-11T07:15:14Z</time>
      </trkpt>
      <trkpt lat="38.0760932621" lon="-6.2550580222">
        <ele>743.24</ele>
        <time>2020-07-11T07:15:23Z</time>
      </trkpt>
      <trkpt lat="38.0763207469" lon="-6.2552655581">
        <ele>743.24</ele>
        <time>2020-07-11T07:15:36Z</time>
      </trkpt>
      <trkpt lat="38.0765048135" lon="-6.2554388959">
        <ele>742.76</ele>
        <time>2020-07-11T07:15:47Z</time>
      </trkpt>
      <trkpt lat="38.0766703561" lon="-6.2555679772">
        <ele>743.24</ele>
        <time>2020-07-11T07:15:56Z</time>
      </trkpt>
      <trkpt lat="38.0768579431" lon="-6.2557332683">
        <ele>744.68</ele>
        <time>2020-07-11T07:16:07Z</time>
      </trkpt>
      <trkpt lat="38.0769798998" lon="-6.2558303308">
        <ele>745.16</ele>
        <time>2020-07-11T07:16:14Z</time>
      </trkpt>
      <trkpt lat="38.0771185365" lon="-6.2559366971">
        <ele>745.16</ele>
        <time>2020-07-11T07:16:22Z</time>
      </trkpt>
      <trkpt lat="38.0772808101" lon="-6.2560578994">
        <ele>746.12</ele>
        <time>2020-07-11T07:16:31Z</time>
      </trkpt>
      <trkpt lat="38.0774450116" lon="-6.2561670318">
        <ele>747.56</ele>
        <time>2020-07-11T07:16:40Z</time>
      </trkpt>
      <trkpt lat="38.0776114762" lon="-6.2562675308">
        <ele>747.56</ele>
        <time>2020-07-11T07:16:49Z</time>
      </trkpt>
      <trkpt lat="38.0777706485" lon="-6.2563564628">
        <ele>748.52</ele>
        <time>2020-07-11T07:16:56Z</time>
      </trkpt>
      <trkpt lat="38.0780082755" lon="-6.2564933393">
        <ele>748.52</ele>
        <time>2020-07-11T07:17:05Z</time>
      </trkpt>
      <trkpt lat="38.0782338325" lon="-6.2566207442">
        <ele>749.00</ele>
        <time>2020-07-11T07:17:14Z</time>
      </trkpt>
      <trkpt lat="38.0784898996" lon="-6.2567686010">
        <ele>749.97</ele>
        <time>2020-07-11T07:17:24Z</time>
      </trkpt>
      <trkpt lat="38.0787135288" lon="-6.2569015380">
        <ele>749.97</ele>
        <time>2020-07-11T07:17:33Z</time>
      </trkpt>
      <trkpt lat="38.0789484736" lon="-6.2570679188">
        <ele>750.93</ele>
        <time>2020-07-11T07:17:43Z</time>
      </trkpt>
      <trkpt lat="38.0791432690" lon="-6.2572425138">
        <ele>750.93</ele>
        <time>2020-07-11T07:17:51Z</time>
      </trkpt>
      <trkpt lat="38.0793823209" lon="-6.2575065438">
        <ele>750.45</ele>
        <time>2020-07-11T07:18:01Z</time>
      </trkpt>
      <trkpt lat="38.0795927066" lon="-6.2578191888">
        <ele>750.93</ele>
        <time>2020-07-11T07:18:11Z</time>
      </trkpt>
      <trkpt lat="38.0797440838" lon="-6.2581157405">
        <ele>751.41</ele>
        <time>2020-07-11T07:18:19Z</time>
      </trkpt>
      <trkpt lat="38.0798989814" lon="-6.2585201673">
        <ele>750.45</ele>
        <time>2020-07-11T07:18:30Z</time>
      </trkpt>
      <trkpt lat="38.0799892545" lon="-6.2588463910">
        <ele>750.45</ele>
        <time>2020-07-11T07:18:40Z</time>
      </trkpt>
      <trkpt lat="38.0800574832" lon="-6.2591943238">
        <ele>750.45</ele>
        <time>2020-07-11T07:18:50Z</time>
      </trkpt>
      <trkpt lat="38.0801200960" lon="-6.2594985031">
        <ele>749.49</ele>
        <time>2020-07-11T07:18:59Z</time>
      </trkpt>
      <trkpt lat="38.0801953655" lon="-6.2599330209">
        <ele>749.97</ele>
        <time>2020-07-11T07:19:09Z</time>
      </trkpt>
      <trkpt lat="38.0803033244" lon="-6.2604695465">
        <ele>749.49</ele>
        <time>2020-07-11T07:19:21Z</time>
      </trkpt>
      <trkpt lat="38.0803707987" lon="-6.2608404458">
        <ele>749.97</ele>
        <time>2020-07-11T07:19:30Z</time>
      </trkpt>
      <trkpt lat="38.0804683641" lon="-6.2613054737">
        <ele>750.93</ele>
        <time>2020-07-11T07:19:41Z</time>
      </trkpt>
      <trkpt lat="38.0805933382" lon="-6.2616445217">
        <ele>750.93</ele>
        <time>2020-07-11T07:19:50Z</time>
      </trkpt>
      <trkpt lat="38.0807757284" lon="-6.2620084640">
        <ele>749.00</ele>
        <time>2020-07-11T07:19:59Z</time>
      </trkpt>
      <trkpt lat="38.0810281076" lon="-6.2624052633">
        <ele>747.08</ele>
        <time>2020-07-11T07:20:09Z</time>
      </trkpt>
      <trkpt lat="38.0811295286" lon="-6.2625010684">
        <ele>746.60</ele>
        <time>2020-07-11T07:20:14Z</time>
      </trkpt>
      <trkpt lat="38.0813402496" lon="-6.2626252044">
        <ele>746.60</ele>
        <time>2020-07-11T07:20:25Z</time>
      </trkpt>
      <trkpt lat="38.0814502202" lon="-6.2627793476">
        <ele>746.12</ele>
        <time>2020-07-11T07:20:34Z</time>
      </trkpt>
      <trkpt lat="38.0815087259" lon="-6.2629695330">
        <ele>745.16</ele>
        <time>2020-07-11T07:20:39Z</time>
      </trkpt>
      <trkpt lat="38.0815146770" lon="-6.2629810162">
        <ele>744.68</ele>
        <time>2020-07-11T07:20:43Z</time>
      </trkpt>
      <trkpt lat="38.0815093964" lon="-6.2629775796">
        <ele>745.64</ele>
        <time>2020-07-11T07:21:00Z</time>
      </trkpt>
      <trkpt lat="38.0815116595" lon="-6.2629776634">
        <ele>745.64</ele>
        <time>2020-07-11T07:21:15Z</time>
      </trkpt>
      <trkpt lat="38.0815139227" lon="-6.2629802618">
        <ele>745.16</ele>
        <time>2020-07-11T07:21:30Z</time>
      </trkpt>
      <trkpt lat="38.0815192033" lon="-6.2629956007">
        <ele>744.68</ele>
        <time>2020-07-11T07:21:47Z</time>
      </trkpt>
      <trkpt lat="38.0815471150" lon="-6.2631800026">
        <ele>744.20</ele>
        <time>2020-07-11T07:21:55Z</time>
      </trkpt>
      <trkpt lat="38.0816575047" lon="-6.2634283584">
        <ele>744.20</ele>
        <time>2020-07-11T07:22:02Z</time>
      </trkpt>
      <trkpt lat="38.0818067025" lon="-6.2636865210">
        <ele>743.72</ele>
        <time>2020-07-11T07:22:09Z</time>
      </trkpt>
      <trkpt lat="38.0819983128" lon="-6.2640736811">
        <ele>743.72</ele>
        <time>2020-07-11T07:22:18Z</time>
      </trkpt>
      <trkpt lat="38.0822001491" lon="-6.2645470910">
        <ele>742.76</ele>
        <time>2020-07-11T07:22:27Z</time>
      </trkpt>
      <trkpt lat="38.0823863111" lon="-6.2651086785">
        <ele>742.28</ele>
        <time>2020-07-11T07:22:37Z</time>
      </trkpt>
      <trkpt lat="38.0825395323" lon="-6.2655809149">
        <ele>740.35</ele>
        <time>2020-07-11T07:22:46Z</time>
      </trkpt>
      <trkpt lat="38.0827259459" lon="-6.2661140040">
        <ele>738.91</ele>
        <time>2020-07-11T07:22:56Z</time>
      </trkpt>
      <trkpt lat="38.0828974396" lon="-6.2665781099">
        <ele>739.87</ele>
        <time>2020-07-11T07:23:06Z</time>
      </trkpt>
      <trkpt lat="38.0829841923" lon="-6.2667952012">
        <ele>740.35</ele>
        <time>2020-07-11T07:23:13Z</time>
      </trkpt>
      <trkpt lat="38.0830768123" lon="-6.2669910863">
        <ele>740.35</ele>
        <time>2020-07-11T07:23:19Z</time>
      </trkpt>
      <trkpt lat="38.0832214840" lon="-6.2673082575">
        <ele>740.83</ele>
        <time>2020-07-11T07:23:27Z</time>
      </trkpt>
      <trkpt lat="38.0834678281" lon="-6.2677522469">
        <ele>741.79</ele>
        <time>2020-07-11T07:23:38Z</time>
      </trkpt>
      <trkpt lat="38.0837715883" lon="-6.2680941448">
        <ele>741.79</ele>
        <time>2020-07-11T07:23:48Z</time>
      </trkpt>
      <trkpt lat="38.0840638652" lon="-6.2683594320">
        <ele>744.20</ele>
        <time>2020-07-11T07:23:59Z</time>
      </trkpt>
      <trkpt lat="38.0842910148" lon="-6.2685667165">
        <ele>744.68</ele>
        <time>2020-07-11T07:24:09Z</time>
      </trkpt>
      <trkpt lat="38.0845666118" lon="-6.2687912676">
        <ele>747.56</ele>
        <time>2020-07-11T07:24:21Z</time>
      </trkpt>
      <trkpt lat="38.0847623292" lon="-6.2688941136">
        <ele>749.49</ele>
        <time>2020-07-11T07:24:31Z</time>
      </trkpt>
      <trkpt lat="38.0849468987" lon="-6.2689444888">
        <ele>751.89</ele>
        <time>2020-07-11T07:24:41Z</time>
      </trkpt>
      <trkpt lat="38.0851266067" lon="-6.2689991388">
        <ele>753.33</ele>
        <time>2020-07-11T07:24:51Z</time>
      </trkpt>
      <trkpt lat="38.0852710269" lon="-6.2690832932">
        <ele>752.85</ele>
        <time>2020-07-11T07:25:00Z</time>
      </trkpt>
      <trkpt lat="38.0853835959" lon="-6.2692054175">
        <ele>752.85</ele>
        <time>2020-07-11T07:25:08Z</time>
      </trkpt>
      <trkpt lat="38.0854911357" lon="-6.2694196589">
        <ele>754.77</ele>
        <time>2020-07-11T07:25:19Z</time>
      </trkpt>
      <trkpt lat="38.0855690874" lon="-6.2696316373">
        <ele>756.21</ele>
        <time>2020-07-11T07:25:29Z</time>
      </trkpt>
      <trkpt lat="38.0856515653" lon="-6.2698315457">
        <ele>757.66</ele>
        <time>2020-07-11T07:25:39Z</time>
      </trkpt>
      <trkpt lat="38.0857549142" lon="-6.2700645626">
        <ele>758.62</ele>
        <time>2020-07-11T07:25:51Z</time>
      </trkpt>
      <trkpt lat="38.0858389009" lon="-6.2702632137">
        <ele>759.10</ele>
        <time>2020-07-11T07:26:02Z</time>
      </trkpt>
      <trkpt lat="38.0859061237" lon="-6.2704036105">
        <ele>760.06</ele>
        <time>2020-07-11T07:26:10Z</time>
      </trkpt>
      <trkpt lat="38.0859729275" lon="-6.2705857493">
        <ele>761.50</ele>
        <time>2020-07-11T07:26:19Z</time>
      </trkpt>
      <trkpt lat="38.0860437546" lon="-6.2707644515">
        <ele>762.46</ele>
        <time>2020-07-11T07:26:28Z</time>
      </trkpt>
      <trkpt lat="38.0861159228" lon="-6.2709406391">
        <ele>763.42</ele>
        <time>2020-07-11T07:26:37Z</time>
      </trkpt>
      <trkpt lat="38.0861774459" lon="-6.2710874062">
        <ele>765.35</ele>
        <time>2020-07-11T07:26:45Z</time>
      </trkpt>
      <trkpt lat="38.0861867499" lon="-6.2711040862">
        <ele>765.35</ele>
        <time>2020-07-11T07:26:46Z</time>
      </trkpt>
      <trkpt lat="38.0861952156" lon="-6.2711233646">
        <ele>765.35</ele>
        <time>2020-07-11T07:26:47Z</time>
      </trkpt>
      <trkpt lat="38.0862030108" lon="-6.2711400446">
        <ele>765.35</ele>
        <time>2020-07-11T07:26:48Z</time>
      </trkpt>
      <trkpt lat="38.0862088781" lon="-6.2711578142">
        <ele>765.83</ele>
        <time>2020-07-11T07:26:49Z</time>
      </trkpt>
      <trkpt lat="38.0862153322" lon="-6.2711765058">
        <ele>765.83</ele>
        <time>2020-07-11T07:26:50Z</time>
      </trkpt>
      <trkpt lat="38.0862239655" lon="-6.2711936049">
        <ele>766.31</ele>
        <time>2020-07-11T07:26:51Z</time>
      </trkpt>
      <trkpt lat="38.0862318445" lon="-6.2712120451">
        <ele>766.31</ele>
        <time>2020-07-11T07:26:52Z</time>
      </trkpt>
      <trkpt lat="38.0862393882" lon="-6.2712303177">
        <ele>766.31</ele>
        <time>2020-07-11T07:26:53Z</time>
      </trkpt>
      <trkpt lat="38.0862473510" lon="-6.2712484226">
        <ele>766.79</ele>
        <time>2020-07-11T07:26:54Z</time>
      </trkpt>
      <trkpt lat="38.0862559006" lon="-6.2712649349">
        <ele>766.79</ele>
        <time>2020-07-11T07:26:55Z</time>
      </trkpt>
      <trkpt lat="38.0862647016" lon="-6.2712811958">
        <ele>767.27</ele>
        <time>2020-07-11T07:26:56Z</time>
      </trkpt>
      <trkpt lat="38.0863739178" lon="-6.2714410387">
        <ele>769.19</ele>
        <time>2020-07-11T07:27:07Z</time>
      </trkpt>
      <trkpt lat="38.0864922702" lon="-6.2715453934">
        <ele>769.19</ele>
        <time>2020-07-11T07:27:17Z</time>
      </trkpt>
      <trkpt lat="38.0866475869" lon="-6.2716577109">
        <ele>769.19</ele>
        <time>2020-07-11T07:27:28Z</time>
      </trkpt>
      <trkpt lat="38.0868008919" lon="-6.2717789970">
        <ele>768.71</ele>
        <time>2020-07-11T07:27:37Z</time>
      </trkpt>
      <trkpt lat="38.0869732238" lon="-6.2718971819">
        <ele>768.23</ele>
        <time>2020-07-11T07:27:46Z</time>
      </trkpt>
      <trkpt lat="38.0871636607" lon="-6.2720320467">
        <ele>767.27</ele>
        <time>2020-07-11T07:27:55Z</time>
      </trkpt>
      <trkpt lat="38.0873013753" lon="-6.2721386645">
        <ele>767.27</ele>
        <time>2020-07-11T07:28:02Z</time>
      </trkpt>
      <trkpt lat="38.0875126831" lon="-6.2722649798">
        <ele>765.83</ele>
        <time>2020-07-11T07:28:12Z</time>
      </trkpt>
      <trkpt lat="38.0876727775" lon="-6.2723641377">
        <ele>764.39</ele>
        <time>2020-07-11T07:28:20Z</time>
      </trkpt>
      <trkpt lat="38.0876882840" lon="-6.2723633833">
        <ele>765.35</ele>
        <time>2020-07-11T07:28:25Z</time>
      </trkpt>
      <trkpt lat="38.0877124239" lon="-6.2723545823">
        <ele>765.83</ele>
        <time>2020-07-11T07:28:32Z</time>
      </trkpt>
      <trkpt lat="38.0877410062" lon="-6.2723712623">
        <ele>765.83</ele>
        <time>2020-07-11T07:28:40Z</time>
      </trkpt>
      <trkpt lat="38.0877001863" lon="-6.2724232301">
        <ele>764.87</ele>
        <time>2020-07-11T07:28:55Z</time>
      </trkpt>
      <trkpt lat="38.0876877811" lon="-6.2724983320">
        <ele>763.42</ele>
        <time>2020-07-11T07:29:09Z</time>
      </trkpt>
      <trkpt lat="38.0876813270" lon="-6.2725092284">
        <ele>761.02</ele>
        <time>2020-07-11T07:29:21Z</time>
      </trkpt>
      <trkpt lat="38.0876938161" lon="-6.2725064624">
        <ele>759.10</ele>
        <time>2020-07-11T07:29:35Z</time>
      </trkpt>
      <trkpt lat="38.0876777228" lon="-6.2725766189">
        <ele>759.58</ele>
        <time>2020-07-11T07:29:51Z</time>
      </trkpt>
      <trkpt lat="38.0876685865" lon="-6.2725875992">
        <ele>760.06</ele>
        <time>2020-07-11T07:30:06Z</time>
      </trkpt>
      <trkpt lat="38.0876581091" lon="-6.2726053689">
        <ele>757.18</ele>
        <time>2020-07-11T07:30:21Z</time>
      </trkpt>
      <trkpt lat="38.0876395851" lon="-6.2726539839">
        <ele>752.85</ele>
        <time>2020-07-11T07:30:34Z</time>
      </trkpt>
      <trkpt lat="38.0876461230" lon="-6.2726621144">
        <ele>751.41</ele>
        <time>2020-07-11T07:30:55Z</time>
      </trkpt>
      <trkpt lat="38.0876293592" lon="-6.2726422492">
        <ele>746.12</ele>
        <time>2020-07-11T07:31:15Z</time>
      </trkpt>
      <trkpt lat="38.0876259226" lon="-6.2726479489">
        <ele>746.12</ele>
        <time>2020-07-11T07:31:30Z</time>
      </trkpt>
      <trkpt lat="38.0876303650" lon="-6.2726589292">
        <ele>747.08</ele>
        <time>2020-07-11T07:31:46Z</time>
      </trkpt>
      <trkpt lat="38.0876425188" lon="-6.2726462726">
        <ele>747.56</ele>
        <time>2020-07-11T07:32:07Z</time>
      </trkpt>
      <trkpt lat="38.0876358133" lon="-6.2726188637">
        <ele>748.04</ele>
        <time>2020-07-11T07:32:24Z</time>
      </trkpt>
      <trkpt lat="38.0876403395" lon="-6.2726207078">
        <ele>752.85</ele>
        <time>2020-07-11T07:32:50Z</time>
      </trkpt>
      <trkpt lat="38.0876364000" lon="-6.2726209592">
        <ele>752.85</ele>
        <time>2020-07-11T07:33:03Z</time>
      </trkpt>
      <trkpt lat="38.0876327120" lon="-6.2726164330">
        <ele>753.81</ele>
        <time>2020-07-11T07:33:22Z</time>
      </trkpt>
      <trkpt lat="38.0876363162" lon="-6.2726203725">
        <ele>754.29</ele>
        <time>2020-07-11T07:33:37Z</time>
      </trkpt>
      <trkpt lat="38.0876519904" lon="-6.2726046145">
        <ele>755.25</ele>
        <time>2020-07-11T07:33:50Z</time>
      </trkpt>
      <trkpt lat="38.0876162834" lon="-6.2726040278">
        <ele>753.81</ele>
        <time>2020-07-11T07:34:08Z</time>
      </trkpt>
      <trkpt lat="38.0876096617" lon="-6.2726047821">
        <ele>754.29</ele>
        <time>2020-07-11T07:34:22Z</time>
      </trkpt>
      <trkpt lat="38.0876098294" lon="-6.2726149242">
        <ele>754.29</ele>
        <time>2020-07-11T07:34:38Z</time>
      </trkpt>
      <trkpt lat="38.0876194686" lon="-6.2725970708">
        <ele>756.21</ele>
        <time>2020-07-11T07:34:56Z</time>
      </trkpt>
      <trkpt lat="38.0876287725" lon="-6.2725775409">
        <ele>759.10</ele>
        <time>2020-07-11T07:35:18Z</time>
      </trkpt>
      <trkpt lat="38.0876187980" lon="-6.2725822348">
        <ele>758.62</ele>
        <time>2020-07-11T07:35:33Z</time>
      </trkpt>
      <trkpt lat="38.0875979271" lon="-6.2725941371">
        <ele>756.69</ele>
        <time>2020-07-11T07:35:48Z</time>
      </trkpt>
      <trkpt lat="38.0875832587" lon="-6.2726014294">
        <ele>757.18</ele>
        <time>2020-07-11T07:36:06Z</time>
      </trkpt>
      <trkpt lat="38.0875887070" lon="-6.2725830730">
        <ele>761.98</ele>
        <time>2020-07-11T07:36:28Z</time>
      </trkpt>
      <trkpt lat="38.0875938199" lon="-6.2725695781">
        <ele>763.90</ele>
        <time>2020-07-11T07:36:42Z</time>
      </trkpt>
      <trkpt lat="38.0876110028" lon="-6.2725565862">
        <ele>764.87</ele>
        <time>2020-07-11T07:37:03Z</time>
      </trkpt>
      <trkpt lat="38.0876302812" lon="-6.2725547422">
        <ele>764.39</ele>
        <time>2020-07-11T07:37:21Z</time>
      </trkpt>
      <trkpt lat="38.0876390822" lon="-6.2725567538">
        <ele>764.87</ele>
        <time>2020-07-11T07:37:37Z</time>
      </trkpt>
      <trkpt lat="38.0876490567" lon="-6.2725493778">
        <ele>767.27</ele>
        <time>2020-07-11T07:37:54Z</time>
      </trkpt>
      <trkpt lat="38.0876693409" lon="-6.2725274172">
        <ele>769.19</ele>
        <time>2020-07-11T07:38:11Z</time>
      </trkpt>
      <trkpt lat="38.0876792315" lon="-6.2725249864">
        <ele>768.71</ele>
        <time>2020-07-11T07:38:24Z</time>
      </trkpt>
      <trkpt lat="38.0876815785" lon="-6.2725417502">
        <ele>768.23</ele>
        <time>2020-07-11T07:38:34Z</time>
      </trkpt>
      <trkpt lat="38.0876794830" lon="-6.2725446001">
        <ele>767.75</ele>
        <time>2020-07-11T07:38:50Z</time>
      </trkpt>
      <trkpt lat="38.0876800697" lon="-6.2725459412">
        <ele>767.75</ele>
        <time>2020-07-11T07:38:59Z</time>
      </trkpt>
      <trkpt lat="38.0876759626" lon="-6.2725448515">
        <ele>765.35</ele>
        <time>2020-07-11T07:39:11Z</time>
      </trkpt>
      <trkpt lat="38.0876592826" lon="-6.2725564186">
        <ele>765.83</ele>
        <time>2020-07-11T07:39:27Z</time>
      </trkpt>
      <trkpt lat="38.0876516551" lon="-6.2725510541">
        <ele>764.39</ele>
        <time>2020-07-11T07:39:37Z</time>
      </trkpt>
      <trkpt lat="38.0876617134" lon="-6.2725452706">
        <ele>764.39</ele>
        <time>2020-07-11T07:39:51Z</time>
      </trkpt>
      <trkpt lat="38.0876644794" lon="-6.2725355476">
        <ele>764.39</ele>
        <time>2020-07-11T07:40:09Z</time>
      </trkpt>
      <trkpt lat="38.0876692571" lon="-6.2725367211">
        <ele>764.39</ele>
        <time>2020-07-11T07:40:18Z</time>
      </trkpt>
      <trkpt lat="38.0876582768" lon="-6.2725414149">
        <ele>763.42</ele>
        <time>2020-07-11T07:40:28Z</time>
      </trkpt>
      <trkpt lat="38.0876480509" lon="-6.2725409120">
        <ele>762.46</ele>
        <time>2020-07-11T07:40:41Z</time>
      </trkpt>
      <trkpt lat="38.0876591150" lon="-6.2725326978">
        <ele>761.98</ele>
        <time>2020-07-11T07:40:48Z</time>
      </trkpt>
      <trkpt lat="38.0876699276" lon="-6.2725238129">
        <ele>761.02</ele>
        <time>2020-07-11T07:40:59Z</time>
      </trkpt>
      <trkpt lat="38.0876761302" lon="-6.2725272495">
        <ele>761.02</ele>
        <time>2020-07-11T07:41:05Z</time>
      </trkpt>
      <trkpt lat="38.0876850989" lon="-6.2725394871">
        <ele>761.50</ele>
        <time>2020-07-11T07:41:07Z</time>
      </trkpt>
      <trkpt lat="38.0877158605" lon="-6.2725501321">
        <ele>762.46</ele>
        <time>2020-07-11T07:41:10Z</time>
      </trkpt>
      <trkpt lat="38.0877620447" lon="-6.2725291774">
        <ele>765.35</ele>
        <time>2020-07-11T07:41:17Z</time>
      </trkpt>
      <trkpt lat="38.0877874419" lon="-6.2725432590">
        <ele>765.83</ele>
        <time>2020-07-11T07:41:24Z</time>
      </trkpt>
      <trkpt lat="38.0878003500" lon="-6.2725510541">
        <ele>766.31</ele>
        <time>2020-07-11T07:41:25Z</time>
      </trkpt>
      <trkpt lat="38.0878180359" lon="-6.2725535687">
        <ele>766.31</ele>
        <time>2020-07-11T07:41:26Z</time>
      </trkpt>
      <trkpt lat="38.0878389068" lon="-6.2725557480">
        <ele>766.79</ele>
        <time>2020-07-11T07:41:27Z</time>
      </trkpt>
      <trkpt lat="38.0878658127" lon="-6.2725563347">
        <ele>766.79</ele>
        <time>2020-07-11T07:41:28Z</time>
      </trkpt>
      <trkpt lat="38.0881494563" lon="-6.2726026028">
        <ele>767.27</ele>
        <time>2020-07-11T07:41:36Z</time>
      </trkpt>
      <trkpt lat="38.0885878298" lon="-6.2726801354">
        <ele>765.35</ele>
        <time>2020-07-11T07:41:45Z</time>
      </trkpt>
      <trkpt lat="38.0887542944" lon="-6.2727411557">
        <ele>763.90</ele>
        <time>2020-07-11T07:41:48Z</time>
      </trkpt>
      <trkpt lat="38.0892532691" lon="-6.2730115559">
        <ele>761.02</ele>
        <time>2020-07-11T07:41:57Z</time>
      </trkpt>
      <trkpt lat="38.0896403454" lon="-6.2731367815">
        <ele>759.58</ele>
        <time>2020-07-11T07:42:05Z</time>
      </trkpt>
      <trkpt lat="38.0902019329" lon="-6.2732891645">
        <ele>758.62</ele>
        <time>2020-07-11T07:42:15Z</time>
      </trkpt>
      <trkpt lat="38.0904956348" lon="-6.2733182497">
        <ele>756.69</ele>
        <time>2020-07-11T07:42:21Z</time>
      </trkpt>
      <trkpt lat="38.0908316653" lon="-6.2733291462">
        <ele>754.29</ele>
        <time>2020-07-11T07:42:28Z</time>
      </trkpt>
      <trkpt lat="38.0909313262" lon="-6.2733600754">
        <ele>753.81</ele>
        <time>2020-07-11T07:42:30Z</time>
      </trkpt>
      <trkpt lat="38.0909837130" lon="-6.2733880710">
        <ele>753.81</ele>
        <time>2020-07-11T07:42:31Z</time>
      </trkpt>
      <trkpt lat="38.0910283886" lon="-6.2734199222">
        <ele>753.33</ele>
        <time>2020-07-11T07:42:32Z</time>
      </trkpt>
      <trkpt lat="38.0915049836" lon="-6.2738693599">
        <ele>753.33</ele>
        <time>2020-07-11T07:42:42Z</time>
      </trkpt>
      <trkpt lat="38.0920039583" lon="-6.2743237428">
        <ele>754.77</ele>
        <time>2020-07-11T07:42:52Z</time>
      </trkpt>
      <trkpt lat="38.0925496202" lon="-6.2748189457">
        <ele>753.33</ele>
        <time>2020-07-11T07:43:03Z</time>
      </trkpt>
      <trkpt lat="38.0929450784" lon="-6.2751900963">
        <ele>753.33</ele>
        <time>2020-07-11T07:43:11Z</time>
      </trkpt>
      <trkpt lat="38.0933624972" lon="-6.2755842134">
        <ele>750.93</ele>
        <time>2020-07-11T07:43:20Z</time>
      </trkpt>
      <trkpt lat="38.0938240048" lon="-6.2759970222">
        <ele>749.00</ele>
        <time>2020-07-11T07:43:30Z</time>
      </trkpt>
      <trkpt lat="38.0942666531" lon="-6.2763943244">
        <ele>747.08</ele>
        <time>2020-07-11T07:43:40Z</time>
      </trkpt>
      <trkpt lat="38.0946981534" lon="-6.2767874356">
        <ele>745.16</ele>
        <time>2020-07-11T07:43:49Z</time>
      </trkpt>
      <trkpt lat="38.0951672886" lon="-6.2771158386">
        <ele>741.31</ele>
        <time>2020-07-11T07:43:56Z</time>
      </trkpt>
      <trkpt lat="38.0955528561" lon="-6.2773259729">
        <ele>739.87</ele>
        <time>2020-07-11T07:44:02Z</time>
      </trkpt>
      <trkpt lat="38.0959136970" lon="-6.2774883304">
        <ele>738.43</ele>
        <time>2020-07-11T07:44:09Z</time>
      </trkpt>
      <trkpt lat="38.0961885396" lon="-6.2776590697">
        <ele>737.47</ele>
        <time>2020-07-11T07:44:16Z</time>
      </trkpt>
      <trkpt lat="38.0962048844" lon="-6.2777032424">
        <ele>737.47</ele>
        <time>2020-07-11T07:44:17Z</time>
      </trkpt>
      <trkpt lat="38.0962140206" lon="-6.2777460739">
        <ele>737.47</ele>
        <time>2020-07-11T07:44:18Z</time>
      </trkpt>
      <trkpt lat="38.0962164514" lon="-6.2777642626">
        <ele>737.47</ele>
        <time>2020-07-11T07:44:19Z</time>
      </trkpt>
      <trkpt lat="38.0962179601" lon="-6.2777825352">
        <ele>736.51</ele>
        <time>2020-07-11T07:44:24Z</time>
      </trkpt>
      <trkpt lat="38.0962161999" lon="-6.2777772546">
        <ele>735.55</ele>
        <time>2020-07-11T07:44:37Z</time>
      </trkpt>
      <trkpt lat="38.0962092429" lon="-6.2777951919">
        <ele>735.07</ele>
        <time>2020-07-11T07:44:44Z</time>
      </trkpt>
      <trkpt lat="38.0962054711" lon="-6.2778101955">
        <ele>735.07</ele>
        <time>2020-07-11T07:44:45Z</time>
      </trkpt>
      <trkpt lat="38.0962007772" lon="-6.2778267078">
        <ele>735.07</ele>
        <time>2020-07-11T07:44:46Z</time>
      </trkpt>
      <trkpt lat="38.0961942393" lon="-6.2778418791">
        <ele>734.58</ele>
        <time>2020-07-11T07:44:47Z</time>
      </trkpt>
      <trkpt lat="38.0961494800" lon="-6.2779743131">
        <ele>733.14</ele>
        <time>2020-07-11T07:44:54Z</time>
      </trkpt>
      <trkpt lat="38.0960592069" lon="-6.2782949209">
        <ele>730.74</ele>
        <time>2020-07-11T07:44:59Z</time>
      </trkpt>
      <trkpt lat="38.0958991125" lon="-6.2788486294">
        <ele>726.89</ele>
        <time>2020-07-11T07:45:05Z</time>
      </trkpt>
      <trkpt lat="38.0956800934" lon="-6.2795406394">
        <ele>723.53</ele>
        <time>2020-07-11T07:45:12Z</time>
      </trkpt>
      <trkpt lat="38.0956411175" lon="-6.2796083651">
        <ele>723.05</ele>
        <time>2020-07-11T07:45:13Z</time>
      </trkpt>
      <trkpt lat="38.0955714639" lon="-6.2797329202">
        <ele>722.09</ele>
        <time>2020-07-11T07:45:15Z</time>
      </trkpt>
      <trkpt lat="38.0955538619" lon="-6.2797953654">
        <ele>721.61</ele>
        <time>2020-07-11T07:45:16Z</time>
      </trkpt>
      <trkpt lat="38.0955542810" lon="-6.2798671983">
        <ele>721.13</ele>
        <time>2020-07-11T07:45:17Z</time>
      </trkpt>
      <trkpt lat="38.0955712963" lon="-6.2799345050">
        <ele>721.13</ele>
        <time>2020-07-11T07:45:18Z</time>
      </trkpt>
      <trkpt lat="38.0955971964" lon="-6.2800008059">
        <ele>720.65</ele>
        <time>2020-07-11T07:45:19Z</time>
      </trkpt>
      <trkpt lat="38.0956284609" lon="-6.2800741475">
        <ele>720.65</ele>
        <time>2020-07-11T07:45:20Z</time>
      </trkpt>
      <trkpt lat="38.0958852824" lon="-6.2806453742">
        <ele>718.24</ele>
        <time>2020-07-11T07:45:28Z</time>
      </trkpt>
      <trkpt lat="38.0959015433" lon="-6.2807259243">
        <ele>718.24</ele>
        <time>2020-07-11T07:45:29Z</time>
      </trkpt>
      <trkpt lat="38.0959024653" lon="-6.2808127608">
        <ele>717.76</ele>
        <time>2020-07-11T07:45:30Z</time>
      </trkpt>
      <trkpt lat="38.0959034711" lon="-6.2810518127">
        <ele>716.32</ele>
        <time>2020-07-11T07:45:33Z</time>
      </trkpt>
      <trkpt lat="38.0959260184" lon="-6.2811226398">
        <ele>716.32</ele>
        <time>2020-07-11T07:45:34Z</time>
      </trkpt>
      <trkpt lat="38.0959586240" lon="-6.2811871804">
        <ele>716.32</ele>
        <time>2020-07-11T07:45:35Z</time>
      </trkpt>
      <trkpt lat="38.0960175488" lon="-6.2812924571">
        <ele>716.32</ele>
        <time>2020-07-11T07:45:37Z</time>
      </trkpt>
      <trkpt lat="38.0960390065" lon="-6.2813429162">
        <ele>716.32</ele>
        <time>2020-07-11T07:45:38Z</time>
      </trkpt>
      <trkpt lat="38.0960527528" lon="-6.2813868374">
        <ele>716.32</ele>
        <time>2020-07-11T07:45:39Z</time>
      </trkpt>
      <trkpt lat="38.0961387511" lon="-6.2817974668">
        <ele>714.40</ele>
        <time>2020-07-11T07:45:47Z</time>
      </trkpt>
      <trkpt lat="38.0961867794" lon="-6.2820809428">
        <ele>713.92</ele>
        <time>2020-07-11T07:45:52Z</time>
      </trkpt>
      <trkpt lat="38.0962212291" lon="-6.2823508400">
        <ele>713.44</ele>
        <time>2020-07-11T07:45:56Z</time>
      </trkpt>
      <trkpt lat="38.0962421838" lon="-6.2824194040">
        <ele>713.44</ele>
        <time>2020-07-11T07:45:57Z</time>
      </trkpt>
      <trkpt lat="38.0962664913" lon="-6.2824812625">
        <ele>713.44</ele>
        <time>2020-07-11T07:45:58Z</time>
      </trkpt>
      <trkpt lat="38.0962982588" lon="-6.2825468089">
        <ele>713.44</ele>
        <time>2020-07-11T07:45:59Z</time>
      </trkpt>
      <trkpt lat="38.0963340495" lon="-6.2826028001">
        <ele>713.44</ele>
        <time>2020-07-11T07:46:00Z</time>
      </trkpt>
      <trkpt lat="38.0963752046" lon="-6.2826545164">
        <ele>713.44</ele>
        <time>2020-07-11T07:46:01Z</time>
      </trkpt>
      <trkpt lat="38.0965161882" lon="-6.2828291953">
        <ele>713.92</ele>
        <time>2020-07-11T07:46:06Z</time>
      </trkpt>
      <trkpt lat="38.0967692379" lon="-6.2831090670">
        <ele>713.44</ele>
        <time>2020-07-11T07:46:13Z</time>
      </trkpt>
      <trkpt lat="38.0969575793" lon="-6.2832653895">
        <ele>712.95</ele>
        <time>2020-07-11T07:46:19Z</time>
      </trkpt>
      <trkpt lat="38.0970189348" lon="-6.2834476959">
        <ele>712.95</ele>
        <time>2020-07-11T07:46:25Z</time>
      </trkpt>
      <trkpt lat="38.0971568171" lon="-6.2837827206">
        <ele>713.92</ele>
        <time>2020-07-11T07:46:34Z</time>
      </trkpt>
      <trkpt lat="38.0973207671" lon="-6.2841127999">
        <ele>714.40</ele>
        <time>2020-07-11T07:46:42Z</time>
      </trkpt>
      <trkpt lat="38.0974777602" lon="-6.2845049053">
        <ele>714.88</ele>
        <time>2020-07-11T07:46:51Z</time>
      </trkpt>
      <trkpt lat="38.0976112001" lon="-6.2848746311">
        <ele>715.36</ele>
        <time>2020-07-11T07:46:59Z</time>
      </trkpt>
      <trkpt lat="38.0976976175" lon="-6.2850611284">
        <ele>715.36</ele>
        <time>2020-07-11T07:47:03Z</time>
      </trkpt>
      <trkpt lat="38.0978394393" lon="-6.2855414953">
        <ele>714.40</ele>
        <time>2020-07-11T07:47:13Z</time>
      </trkpt>
      <trkpt lat="38.0979783274" lon="-6.2859165855">
        <ele>714.40</ele>
        <time>2020-07-11T07:47:21Z</time>
      </trkpt>
      <trkpt lat="38.0981158745" lon="-6.2863766681">
        <ele>714.40</ele>
        <time>2020-07-11T07:47:31Z</time>
      </trkpt>
      <trkpt lat="38.0981561914" lon="-6.2868225016">
        <ele>713.44</ele>
        <time>2020-07-11T07:47:40Z</time>
      </trkpt>
      <trkpt lat="38.0982069019" lon="-6.2870989367">
        <ele>712.95</ele>
        <time>2020-07-11T07:47:46Z</time>
      </trkpt>
      <trkpt lat="38.0982973427" lon="-6.2872981746">
        <ele>711.51</ele>
        <time>2020-07-11T07:47:50Z</time>
      </trkpt>
      <trkpt lat="38.0984135997" lon="-6.2874664832">
        <ele>710.07</ele>
        <time>2020-07-11T07:47:54Z</time>
      </trkpt>
      <trkpt lat="38.0984505638" lon="-6.2875047047">
        <ele>709.59</ele>
        <time>2020-07-11T07:47:55Z</time>
      </trkpt>
      <trkpt lat="38.0987080559" lon="-6.2876919564">
        <ele>707.67</ele>
        <time>2020-07-11T07:48:01Z</time>
      </trkpt>
      <trkpt lat="38.0989609379" lon="-6.2878199480">
        <ele>706.23</ele>
        <time>2020-07-11T07:48:07Z</time>
      </trkpt>
      <trkpt lat="38.0989968125" lon="-6.2878466863">
        <ele>706.23</ele>
        <time>2020-07-11T07:48:08Z</time>
      </trkpt>
      <trkpt lat="38.0991627742" lon="-6.2879720796">
        <ele>704.30</ele>
        <time>2020-07-11T07:48:12Z</time>
      </trkpt>
      <trkpt lat="38.0992005765" lon="-6.2879895978">
        <ele>703.82</ele>
        <time>2020-07-11T07:48:13Z</time>
      </trkpt>
      <trkpt lat="38.0994617566" lon="-6.2880899291">
        <ele>700.46</ele>
        <time>2020-07-11T07:48:20Z</time>
      </trkpt>
      <trkpt lat="38.0996098649" lon="-6.2882048450">
        <ele>699.02</ele>
        <time>2020-07-11T07:48:26Z</time>
      </trkpt>
      <trkpt lat="38.0997255351" lon="-6.2884620856">
        <ele>697.09</ele>
        <time>2020-07-11T07:48:33Z</time>
      </trkpt>
      <trkpt lat="38.0997940153" lon="-6.2886698730">
        <ele>696.13</ele>
        <time>2020-07-11T07:48:37Z</time>
      </trkpt>
      <trkpt lat="38.0998952687" lon="-6.2888860423">
        <ele>695.17</ele>
        <time>2020-07-11T07:48:41Z</time>
      </trkpt>
      <trkpt lat="38.0999572109" lon="-6.2889765669">
        <ele>695.17</ele>
        <time>2020-07-11T07:48:43Z</time>
      </trkpt>
      <trkpt lat="38.0999862961" lon="-6.2890081666">
        <ele>695.17</ele>
        <time>2020-07-11T07:48:44Z</time>
      </trkpt>
      <trkpt lat="38.1000110228" lon="-6.2890323065">
        <ele>694.69</ele>
        <time>2020-07-11T07:48:45Z</time>
      </trkpt>
      <trkpt lat="38.1000323966" lon="-6.2890594639">
        <ele>694.69</ele>
        <time>2020-07-11T07:48:46Z</time>
      </trkpt>
      <trkpt lat="38.1000500824" lon="-6.2890859507">
        <ele>694.69</ele>
        <time>2020-07-11T07:48:47Z</time>
      </trkpt>
      <trkpt lat="38.1000972725" lon="-6.2891665008">
        <ele>694.69</ele>
        <time>2020-07-11T07:48:52Z</time>
      </trkpt>
      <trkpt lat="38.1000925787" lon="-6.2891675066">
        <ele>694.69</ele>
        <time>2020-07-11T07:48:57Z</time>
      </trkpt>
      <trkpt lat="38.1000913214" lon="-6.2891639024">
        <ele>693.25</ele>
        <time>2020-07-11T07:49:11Z</time>
      </trkpt>
      <trkpt lat="38.1000887230" lon="-6.2891628966">
        <ele>693.25</ele>
        <time>2020-07-11T07:49:26Z</time>
      </trkpt>
      <trkpt lat="38.1000805926" lon="-6.2891462166">
        <ele>693.25</ele>
        <time>2020-07-11T07:49:36Z</time>
      </trkpt>
      <trkpt lat="38.1000837777" lon="-6.2891159579">
        <ele>694.69</ele>
        <time>2020-07-11T07:49:44Z</time>
      </trkpt>
      <trkpt lat="38.1000639126" lon="-6.2891201489">
        <ele>694.69</ele>
        <time>2020-07-11T07:49:46Z</time>
      </trkpt>
      <trkpt lat="38.1000528485" lon="-6.2891077437">
        <ele>694.69</ele>
        <time>2020-07-11T07:49:47Z</time>
      </trkpt>
      <trkpt lat="38.1000552792" lon="-6.2890954223">
        <ele>695.17</ele>
        <time>2020-07-11T07:49:48Z</time>
      </trkpt>
      <trkpt lat="38.1000630744" lon="-6.2890939135">
        <ele>694.69</ele>
        <time>2020-07-11T07:49:54Z</time>
      </trkpt>
      <trkpt lat="38.1000732165" lon="-6.2890872080">
        <ele>694.69</ele>
        <time>2020-07-11T07:50:03Z</time>
      </trkpt>
      <trkpt lat="38.1000871304" lon="-6.2890997808">
        <ele>694.69</ele>
        <time>2020-07-11T07:50:10Z</time>
      </trkpt>
      <trkpt lat="38.1000993680" lon="-6.2891126890">
        <ele>694.69</ele>
        <time>2020-07-11T07:50:11Z</time>
      </trkpt>
      <trkpt lat="38.1001114380" lon="-6.2891223282">
        <ele>695.17</ele>
        <time>2020-07-11T07:50:12Z</time>
      </trkpt>
      <trkpt lat="38.1001291238" lon="-6.2891320512">
        <ele>695.17</ele>
        <time>2020-07-11T07:50:13Z</time>
      </trkpt>
      <trkpt lat="38.1001465581" lon="-6.2891416904">
        <ele>695.17</ele>
        <time>2020-07-11T07:50:14Z</time>
      </trkpt>
      <trkpt lat="38.1001636572" lon="-6.2891529221">
        <ele>695.17</ele>
        <time>2020-07-11T07:50:15Z</time>
      </trkpt>
      <trkpt lat="38.1001789123" lon="-6.2891653273">
        <ele>695.17</ele>
        <time>2020-07-11T07:50:16Z</time>
      </trkpt>
      <trkpt lat="38.1003120169" lon="-6.2892638985">
        <ele>695.65</ele>
        <time>2020-07-11T07:50:26Z</time>
      </trkpt>
      <trkpt lat="38.1003053114" lon="-6.2892452069">
        <ele>695.17</ele>
        <time>2020-07-11T07:50:39Z</time>
      </trkpt>
      <trkpt lat="38.1003009528" lon="-6.2892559357">
        <ele>695.65</ele>
        <time>2020-07-11T07:50:55Z</time>
      </trkpt>
      <trkpt lat="38.1003050599" lon="-6.2892536726">
        <ele>695.17</ele>
        <time>2020-07-11T07:51:05Z</time>
      </trkpt>
      <trkpt lat="38.1003178004" lon="-6.2892633956">
        <ele>693.73</ele>
        <time>2020-07-11T07:51:22Z</time>
      </trkpt>
      <trkpt lat="38.1003084965" lon="-6.2892570253">
        <ele>693.25</ele>
        <time>2020-07-11T07:51:39Z</time>
      </trkpt>
      <trkpt lat="38.1003134418" lon="-6.2892612163">
        <ele>693.25</ele>
        <time>2020-07-11T07:51:45Z</time>
      </trkpt>
      <trkpt lat="38.1004188862" lon="-6.2893908843">
        <ele>693.25</ele>
        <time>2020-07-11T07:51:51Z</time>
      </trkpt>
      <trkpt lat="38.1006155256" lon="-6.2896600273">
        <ele>693.73</ele>
        <time>2020-07-11T07:51:59Z</time>
      </trkpt>
      <trkpt lat="38.1007318664" lon="-6.2898472790">
        <ele>693.73</ele>
        <time>2020-07-11T07:52:04Z</time>
      </trkpt>
      <trkpt lat="38.1010502111" lon="-6.2901723292">
        <ele>692.77</ele>
        <time>2020-07-11T07:52:14Z</time>
      </trkpt>
      <trkpt lat="38.1012909394" lon="-6.2904194277">
        <ele>693.25</ele>
        <time>2020-07-11T07:52:20Z</time>
      </trkpt>
      <trkpt lat="38.1013373751" lon="-6.2904465850">
        <ele>693.25</ele>
        <time>2020-07-11T07:52:21Z</time>
      </trkpt>
      <trkpt lat="38.1013849843" lon="-6.2904643547">
        <ele>692.77</ele>
        <time>2020-07-11T07:52:22Z</time>
      </trkpt>
      <trkpt lat="38.1014325097" lon="-6.2904765084">
        <ele>692.77</ele>
        <time>2020-07-11T07:52:23Z</time>
      </trkpt>
      <trkpt lat="38.1014841422" lon="-6.2904739100">
        <ele>692.77</ele>
        <time>2020-07-11T07:52:24Z</time>
      </trkpt>
      <trkpt lat="38.1015334278" lon="-6.2904607505">
        <ele>692.29</ele>
        <time>2020-07-11T07:52:25Z</time>
      </trkpt>
      <trkpt lat="38.1015886646" lon="-6.2904390413">
        <ele>691.81</ele>
        <time>2020-07-11T07:52:26Z</time>
      </trkpt>
      <trkpt lat="38.1016387045" lon="-6.2904136442">
        <ele>691.33</ele>
        <time>2020-07-11T07:52:27Z</time>
      </trkpt>
      <trkpt lat="38.1017479207" lon="-6.2903498579">
        <ele>690.36</ele>
        <time>2020-07-11T07:52:29Z</time>
      </trkpt>
      <trkpt lat="38.1017993018" lon="-6.2903091218">
        <ele>690.36</ele>
        <time>2020-07-11T07:52:30Z</time>
      </trkpt>
      <trkpt lat="38.1019029021" lon="-6.2902201060">
        <ele>689.88</ele>
        <time>2020-07-11T07:52:32Z</time>
      </trkpt>
      <trkpt lat="38.1019570492" lon="-6.2901892606">
        <ele>689.40</ele>
        <time>2020-07-11T07:52:33Z</time>
      </trkpt>
      <trkpt lat="38.1020130403" lon="-6.2901731674">
        <ele>688.92</ele>
        <time>2020-07-11T07:52:34Z</time>
      </trkpt>
      <trkpt lat="38.1020720489" lon="-6.2901674677">
        <ele>688.44</ele>
        <time>2020-07-11T07:52:35Z</time>
      </trkpt>
      <trkpt lat="38.1021315604" lon="-6.2901685573">
        <ele>688.44</ele>
        <time>2020-07-11T07:52:36Z</time>
      </trkpt>
      <trkpt lat="38.1021826062" lon="-6.2901763525">
        <ele>688.44</ele>
        <time>2020-07-11T07:52:37Z</time>
      </trkpt>
      <trkpt lat="38.1022300478" lon="-6.2901918590">
        <ele>688.92</ele>
        <time>2020-07-11T07:52:38Z</time>
      </trkpt>
      <trkpt lat="38.1022754777" lon="-6.2902102154">
        <ele>689.40</ele>
        <time>2020-07-11T07:52:39Z</time>
      </trkpt>
      <trkpt lat="38.1023174711" lon="-6.2902233750">
        <ele>689.40</ele>
        <time>2020-07-11T07:52:40Z</time>
      </trkpt>
      <trkpt lat="38.1025953311" lon="-6.2903325073">
        <ele>689.88</ele>
        <time>2020-07-11T07:52:46Z</time>
      </trkpt>
      <trkpt lat="38.1026384141" lon="-6.2903519534">
        <ele>689.88</ele>
        <time>2020-07-11T07:52:47Z</time>
      </trkpt>
      <trkpt lat="38.1026776414" lon="-6.2903643586">
        <ele>689.88</ele>
        <time>2020-07-11T07:52:48Z</time>
      </trkpt>
      <trkpt lat="38.1029267516" lon="-6.2904104590">
        <ele>688.92</ele>
        <time>2020-07-11T07:52:55Z</time>
      </trkpt>
      <trkpt lat="38.1030899473" lon="-6.2904282287">
        <ele>687.96</ele>
        <time>2020-07-11T07:53:01Z</time>
      </trkpt>
      <trkpt lat="38.1031098962" lon="-6.2904511951">
        <ele>687.96</ele>
        <time>2020-07-11T07:53:02Z</time>
      </trkpt>
      <trkpt lat="38.1031225529" lon="-6.2904785201">
        <ele>687.96</ele>
        <time>2020-07-11T07:53:03Z</time>
      </trkpt>
      <trkpt lat="38.1031971518" lon="-6.2906060088">
        <ele>687.48</ele>
        <time>2020-07-11T07:53:08Z</time>
      </trkpt>
      <trkpt lat="38.1032374687" lon="-6.2906180788">
        <ele>687.00</ele>
        <time>2020-07-11T07:53:09Z</time>
      </trkpt>
      <trkpt lat="38.1032808032" lon="-6.2906216830">
        <ele>687.00</ele>
        <time>2020-07-11T07:53:10Z</time>
      </trkpt>
      <trkpt lat="38.1037384551" lon="-6.2906337529">
        <ele>685.08</ele>
        <time>2020-07-11T07:53:20Z</time>
      </trkpt>
      <trkpt lat="38.1037839688" lon="-6.2906449847">
        <ele>685.08</ele>
        <time>2020-07-11T07:53:21Z</time>
      </trkpt>
      <trkpt lat="38.1038256269" lon="-6.2906632572">
        <ele>685.08</ele>
        <time>2020-07-11T07:53:22Z</time>
      </trkpt>
      <trkpt lat="38.1038615853" lon="-6.2906876486">
        <ele>685.08</ele>
        <time>2020-07-11T07:53:23Z</time>
      </trkpt>
      <trkpt lat="38.1038911734" lon="-6.2907127105">
        <ele>685.08</ele>
        <time>2020-07-11T07:53:24Z</time>
      </trkpt>
      <trkpt lat="38.1041343324" lon="-6.2909435481">
        <ele>687.00</ele>
        <time>2020-07-11T07:53:34Z</time>
      </trkpt>
      <trkpt lat="38.1043423712" lon="-6.2911259383">
        <ele>688.92</ele>
        <time>2020-07-11T07:53:43Z</time>
      </trkpt>
      <trkpt lat="38.1044798344" lon="-6.2912729569">
        <ele>690.36</ele>
        <time>2020-07-11T07:53:50Z</time>
      </trkpt>
      <trkpt lat="38.1045964267" lon="-6.2914363202">
        <ele>691.81</ele>
        <time>2020-07-11T07:53:59Z</time>
      </trkpt>
      <trkpt lat="38.1047288608" lon="-6.2916074786">
        <ele>691.33</ele>
        <time>2020-07-11T07:54:09Z</time>
      </trkpt>
      <trkpt lat="38.1048265938" lon="-6.2917466182">
        <ele>691.81</ele>
        <time>2020-07-11T07:54:17Z</time>
      </trkpt>
      <trkpt lat="38.1049648114" lon="-6.2919738516">
        <ele>692.29</ele>
        <time>2020-07-11T07:54:28Z</time>
      </trkpt>
      <trkpt lat="38.1051035319" lon="-6.2921870872">
        <ele>694.69</ele>
        <time>2020-07-11T07:54:39Z</time>
      </trkpt>
      <trkpt lat="38.1051669829" lon="-6.2923381291">
        <ele>695.65</ele>
        <time>2020-07-11T07:54:47Z</time>
      </trkpt>
      <trkpt lat="38.1052186154" lon="-6.2925110478">
        <ele>698.05</ele>
        <time>2020-07-11T07:54:56Z</time>
      </trkpt>
      <trkpt lat="38.1052754447" lon="-6.2927221879">
        <ele>699.98</ele>
        <time>2020-07-11T07:55:07Z</time>
      </trkpt>
      <trkpt lat="38.1053220481" lon="-6.2928868923">
        <ele>700.94</ele>
        <time>2020-07-11T07:55:17Z</time>
      </trkpt>
      <trkpt lat="38.1053835712" lon="-6.2930502556">
        <ele>702.86</ele>
        <time>2020-07-11T07:55:27Z</time>
      </trkpt>
      <trkpt lat="38.1054341979" lon="-6.2931821030">
        <ele>703.34</ele>
        <time>2020-07-11T07:55:35Z</time>
      </trkpt>
      <trkpt lat="38.1055162568" lon="-6.2933519203">
        <ele>703.34</ele>
        <time>2020-07-11T07:55:45Z</time>
      </trkpt>
      <trkpt lat="38.1056129001" lon="-6.2934841029">
        <ele>705.26</ele>
        <time>2020-07-11T07:55:55Z</time>
      </trkpt>
      <trkpt lat="38.1057230383" lon="-6.2936093286">
        <ele>706.23</ele>
        <time>2020-07-11T07:56:05Z</time>
      </trkpt>
      <trkpt lat="38.1058348529" lon="-6.2937249150">
        <ele>708.15</ele>
        <time>2020-07-11T07:56:15Z</time>
      </trkpt>
      <trkpt lat="38.1059424765" lon="-6.2938398309">
        <ele>709.11</ele>
        <time>2020-07-11T07:56:24Z</time>
      </trkpt>
      <trkpt lat="38.1060459092" lon="-6.2939430960">
        <ele>710.07</ele>
        <time>2020-07-11T07:56:33Z</time>
      </trkpt>
      <trkpt lat="38.1061246153" lon="-6.2940224726">
        <ele>711.03</ele>
        <time>2020-07-11T07:56:40Z</time>
      </trkpt>
      <trkpt lat="38.1061706319" lon="-6.2940963171">
        <ele>711.99</ele>
        <time>2020-07-11T07:56:45Z</time>
      </trkpt>
      <trkpt lat="38.1061638426" lon="-6.2942935433">
        <ele>712.95</ele>
        <time>2020-07-11T07:56:55Z</time>
      </trkpt>
      <trkpt lat="38.1061491743" lon="-6.2944831420">
        <ele>713.92</ele>
        <time>2020-07-11T07:57:04Z</time>
      </trkpt>
      <trkpt lat="38.1061253697" lon="-6.2946544681">
        <ele>714.40</ele>
        <time>2020-07-11T07:57:12Z</time>
      </trkpt>
      <trkpt lat="38.1061103661" lon="-6.2948574778">
        <ele>715.84</ele>
        <time>2020-07-11T07:57:22Z</time>
      </trkpt>
      <trkpt lat="38.1060775090" lon="-6.2951199152">
        <ele>718.24</ele>
        <time>2020-07-11T07:57:33Z</time>
      </trkpt>
      <trkpt lat="38.1060540397" lon="-6.2953737192">
        <ele>718.72</ele>
        <time>2020-07-11T07:57:43Z</time>
      </trkpt>
      <trkpt lat="38.1060223561" lon="-6.2956119329">
        <ele>719.68</ele>
        <time>2020-07-11T07:57:53Z</time>
      </trkpt>
      <trkpt lat="38.1060008146" lon="-6.2957198080">
        <ele>719.68</ele>
        <time>2020-07-11T07:58:03Z</time>
      </trkpt>
      <trkpt lat="38.1059981324" lon="-6.2957331352">
        <ele>719.20</ele>
        <time>2020-07-11T07:58:11Z</time>
      </trkpt>
      <trkpt lat="38.1059985515" lon="-6.2957559340">
        <ele>719.20</ele>
        <time>2020-07-11T07:58:13Z</time>
      </trkpt>
      <trkpt lat="38.1060235295" lon="-6.2959245779">
        <ele>718.72</ele>
        <time>2020-07-11T07:58:20Z</time>
      </trkpt>
      <trkpt lat="38.1061443966" lon="-6.2960415892">
        <ele>718.24</ele>
        <time>2020-07-11T07:58:27Z</time>
      </trkpt>
      <trkpt lat="38.1063821074" lon="-6.2962411623">
        <ele>718.24</ele>
        <time>2020-07-11T07:58:38Z</time>
      </trkpt>
      <trkpt lat="38.1064363383" lon="-6.2962719239">
        <ele>718.24</ele>
        <time>2020-07-11T07:58:44Z</time>
      </trkpt>
      <trkpt lat="38.1064308900" lon="-6.2962787971">
        <ele>718.72</ele>
        <time>2020-07-11T07:59:02Z</time>
      </trkpt>
      <trkpt lat="38.1064532697" lon="-6.2962978240">
        <ele>718.24</ele>
        <time>2020-07-11T07:59:09Z</time>
      </trkpt>
      <trkpt lat="38.1064661779" lon="-6.2963057868">
        <ele>718.24</ele>
        <time>2020-07-11T07:59:10Z</time>
      </trkpt>
      <trkpt lat="38.1064828578" lon="-6.2963143364">
        <ele>718.72</ele>
        <time>2020-07-11T07:59:11Z</time>
      </trkpt>
      <trkpt lat="38.1065015495" lon="-6.2963207066">
        <ele>718.72</ele>
        <time>2020-07-11T07:59:12Z</time>
      </trkpt>
      <trkpt lat="38.1065208279" lon="-6.2963248976">
        <ele>718.72</ele>
        <time>2020-07-11T07:59:13Z</time>
      </trkpt>
      <trkpt lat="38.1067748833" lon="-6.2963383086">
        <ele>719.20</ele>
        <time>2020-07-11T07:59:25Z</time>
      </trkpt>
      <trkpt lat="38.1069829222" lon="-6.2963105645">
        <ele>720.65</ele>
        <time>2020-07-11T07:59:35Z</time>
      </trkpt>
      <trkpt lat="38.1072198786" lon="-6.2962621171">
        <ele>722.57</ele>
        <time>2020-07-11T07:59:47Z</time>
      </trkpt>
      <trkpt lat="38.1073627062" lon="-6.2962414976">
        <ele>723.05</ele>
        <time>2020-07-11T07:59:55Z</time>
      </trkpt>
      <trkpt lat="38.1075184420" lon="-6.2962338701">
        <ele>724.97</ele>
        <time>2020-07-11T08:00:04Z</time>
      </trkpt>
      <trkpt lat="38.1076549832" lon="-6.2962085567">
        <ele>726.41</ele>
        <time>2020-07-11T08:00:12Z</time>
      </trkpt>
      <trkpt lat="38.1077856570" lon="-6.2961764541">
        <ele>727.86</ele>
        <time>2020-07-11T08:00:20Z</time>
      </trkpt>
      <trkpt lat="38.1079541333" lon="-6.2962150108">
        <ele>726.89</ele>
        <time>2020-07-11T08:00:28Z</time>
      </trkpt>
      <trkpt lat="38.1081934366" lon="-6.2962917052">
        <ele>725.93</ele>
        <time>2020-07-11T08:00:36Z</time>
      </trkpt>
      <trkpt lat="38.1085505895" lon="-6.2964011729">
        <ele>724.01</ele>
        <time>2020-07-11T08:00:44Z</time>
      </trkpt>
      <trkpt lat="38.1089418568" lon="-6.2964276597">
        <ele>721.61</ele>
        <time>2020-07-11T08:00:51Z</time>
      </trkpt>
      <trkpt lat="38.1093667354" lon="-6.2964166794">
        <ele>721.13</ele>
        <time>2020-07-11T08:00:59Z</time>
      </trkpt>
      <trkpt lat="38.1096011773" lon="-6.2963925395">
        <ele>722.09</ele>
        <time>2020-07-11T08:01:06Z</time>
      </trkpt>
      <trkpt lat="38.1099470984" lon="-6.2963117380">
        <ele>721.61</ele>
        <time>2020-07-11T08:01:14Z</time>
      </trkpt>
      <trkpt lat="38.1103698816" lon="-6.2962293439">
        <ele>721.13</ele>
        <time>2020-07-11T08:01:23Z</time>
      </trkpt>
      <trkpt lat="38.1104547903" lon="-6.2962177768">
        <ele>721.13</ele>
        <time>2020-07-11T08:01:25Z</time>
      </trkpt>
      <trkpt lat="38.1104966998" lon="-6.2962152623">
        <ele>721.13</ele>
        <time>2020-07-11T08:01:26Z</time>
      </trkpt>
      <trkpt lat="38.1107105222" lon="-6.2961769570">
        <ele>721.61</ele>
        <time>2020-07-11T08:01:32Z</time>
      </trkpt>
      <trkpt lat="38.1109516695" lon="-6.2961472012">
        <ele>720.65</ele>
        <time>2020-07-11T08:01:37Z</time>
      </trkpt>
      <trkpt lat="38.1110075768" lon="-6.2961502187">
        <ele>720.65</ele>
        <time>2020-07-11T08:01:38Z</time>
      </trkpt>
      <trkpt lat="38.1110629812" lon="-6.2961580977">
        <ele>720.65</ele>
        <time>2020-07-11T08:01:39Z</time>
      </trkpt>
      <trkpt lat="38.1113973353" lon="-6.2962452695">
        <ele>719.68</ele>
        <time>2020-07-11T08:01:45Z</time>
      </trkpt>
      <trkpt lat="38.1117841601" lon="-6.2964113988">
        <ele>719.68</ele>
        <time>2020-07-11T08:01:53Z</time>
      </trkpt>
      <trkpt lat="38.1122084521" lon="-6.2966036797">
        <ele>720.16</ele>
        <time>2020-07-11T08:02:03Z</time>
      </trkpt>
      <trkpt lat="38.1126925908" lon="-6.2967504468">
        <ele>719.20</ele>
        <time>2020-07-11T08:02:13Z</time>
      </trkpt>
      <trkpt lat="38.1130992807" lon="-6.2968232017">
        <ele>717.76</ele>
        <time>2020-07-11T08:02:20Z</time>
      </trkpt>
      <trkpt lat="38.1134301983" lon="-6.2969800271">
        <ele>718.24</ele>
        <time>2020-07-11T08:02:27Z</time>
      </trkpt>
      <trkpt lat="38.1138985790" lon="-6.2972787581">
        <ele>719.68</ele>
        <time>2020-07-11T08:02:38Z</time>
      </trkpt>
      <trkpt lat="38.1142771896" lon="-6.2973805983">
        <ele>718.72</ele>
        <time>2020-07-11T08:02:45Z</time>
      </trkpt>
      <trkpt lat="38.1150003802" lon="-6.2974749785">
        <ele>716.80</ele>
        <time>2020-07-11T08:02:57Z</time>
      </trkpt>
      <trkpt lat="38.1156088226" lon="-6.2975713704">
        <ele>715.36</ele>
        <time>2020-07-11T08:03:07Z</time>
      </trkpt>
      <trkpt lat="38.1157332100" lon="-6.2975495774">
        <ele>714.88</ele>
        <time>2020-07-11T08:03:09Z</time>
      </trkpt>
      <trkpt lat="38.1162623595" lon="-6.2974258605">
        <ele>713.92</ele>
        <time>2020-07-11T08:03:18Z</time>
      </trkpt>
      <trkpt lat="38.1166357733" lon="-6.2974165566">
        <ele>714.40</ele>
        <time>2020-07-11T08:03:26Z</time>
      </trkpt>
      <trkpt lat="38.1169608235" lon="-6.2974272855">
        <ele>715.36</ele>
        <time>2020-07-11T08:03:34Z</time>
      </trkpt>
      <trkpt lat="38.1171957683" lon="-6.2974812649">
        <ele>717.28</ele>
        <time>2020-07-11T08:03:42Z</time>
      </trkpt>
      <trkpt lat="38.1174348202" lon="-6.2975833565">
        <ele>718.24</ele>
        <time>2020-07-11T08:03:51Z</time>
      </trkpt>
      <trkpt lat="38.1176619697" lon="-6.2977639865">
        <ele>717.76</ele>
        <time>2020-07-11T08:03:59Z</time>
      </trkpt>
      <trkpt lat="38.1178078987" lon="-6.2978772260">
        <ele>716.32</ele>
        <time>2020-07-11T08:04:03Z</time>
      </trkpt>
      <trkpt lat="38.1181675661" lon="-6.2980700098">
        <ele>712.47</ele>
        <time>2020-07-11T08:04:12Z</time>
      </trkpt>
      <trkpt lat="38.1185238808" lon="-6.2982120831">
        <ele>710.55</ele>
        <time>2020-07-11T08:04:18Z</time>
      </trkpt>
      <trkpt lat="38.1185817998" lon="-6.2982524000">
        <ele>710.07</ele>
        <time>2020-07-11T08:04:19Z</time>
      </trkpt>
      <trkpt lat="38.1186809577" lon="-6.2983236462">
        <ele>709.59</ele>
        <time>2020-07-11T08:04:21Z</time>
      </trkpt>
      <trkpt lat="38.1188354362" lon="-6.2983976584">
        <ele>709.11</ele>
        <time>2020-07-11T08:04:25Z</time>
      </trkpt>
      <trkpt lat="38.1191916671" lon="-6.2984912004">
        <ele>708.15</ele>
        <time>2020-07-11T08:04:35Z</time>
      </trkpt>
      <trkpt lat="38.1195577048" lon="-6.2985067908">
        <ele>707.67</ele>
        <time>2020-07-11T08:04:44Z</time>
      </trkpt>
      <trkpt lat="38.1198758818" lon="-6.2984939665">
        <ele>707.67</ele>
        <time>2020-07-11T08:04:52Z</time>
      </trkpt>
      <trkpt lat="38.1202376448" lon="-6.2985331099">
        <ele>705.75</ele>
        <time>2020-07-11T08:04:59Z</time>
      </trkpt>
      <trkpt lat="38.1205533072" lon="-6.2985811383">
        <ele>703.82</ele>
        <time>2020-07-11T08:05:04Z</time>
      </trkpt>
      <trkpt lat="38.1210729014" lon="-6.2987361196">
        <ele>701.90</ele>
        <time>2020-07-11T08:05:11Z</time>
      </trkpt>
      <trkpt lat="38.1215880532" lon="-6.2989058532">
        <ele>701.42</ele>
        <time>2020-07-11T08:05:19Z</time>
      </trkpt>
      <trkpt lat="38.1219050568" lon="-6.2989991438">
        <ele>700.94</ele>
        <time>2020-07-11T08:05:26Z</time>
      </trkpt>
      <trkpt lat="38.1223059632" lon="-6.2991437316">
        <ele>701.42</ele>
        <time>2020-07-11T08:05:36Z</time>
      </trkpt>
      <trkpt lat="38.1225478649" lon="-6.2992057577">
        <ele>701.90</ele>
        <time>2020-07-11T08:05:43Z</time>
      </trkpt>
      <trkpt lat="38.1228864938" lon="-6.2993334141">
        <ele>701.42</ele>
        <time>2020-07-11T08:05:52Z</time>
      </trkpt>
      <trkpt lat="38.1230477616" lon="-6.2993979547">
        <ele>701.42</ele>
        <time>2020-07-11T08:05:58Z</time>
      </trkpt>
      <trkpt lat="38.1231645215" lon="-6.2994251959">
        <ele>701.90</ele>
        <time>2020-07-11T08:06:04Z</time>
      </trkpt>
      <trkpt lat="38.1233265437" lon="-6.2994617410">
        <ele>702.86</ele>
        <time>2020-07-11T08:06:11Z</time>
      </trkpt>
      <trkpt lat="38.1235247757" lon="-6.2995655090">
        <ele>703.82</ele>
        <time>2020-07-11T08:06:19Z</time>
      </trkpt>
      <trkpt lat="38.1237054896" lon="-6.2997563649">
        <ele>704.78</ele>
        <time>2020-07-11T08:06:27Z</time>
      </trkpt>
      <trkpt lat="38.1238836050" lon="-6.2999359891">
        <ele>705.75</ele>
        <time>2020-07-11T08:06:34Z</time>
      </trkpt>
      <trkpt lat="38.1240262650" lon="-6.3000877853">
        <ele>705.75</ele>
        <time>2020-07-11T08:06:40Z</time>
      </trkpt>
      <trkpt lat="38.1242996827" lon="-6.3002907112">
        <ele>706.71</ele>
        <time>2020-07-11T08:06:49Z</time>
      </trkpt>
      <trkpt lat="38.1245792191" lon="-6.3005181961">
        <ele>707.67</ele>
        <time>2020-07-11T08:06:58Z</time>
      </trkpt>
      <trkpt lat="38.1248163432" lon="-6.3007179368">
        <ele>708.63</ele>
        <time>2020-07-11T08:07:06Z</time>
      </trkpt>
      <trkpt lat="38.1251397170" lon="-6.3007908594">
        <ele>709.11</ele>
        <time>2020-07-11T08:07:16Z</time>
      </trkpt>
      <trkpt lat="38.1254620012" lon="-6.3008642010">
        <ele>707.19</ele>
        <time>2020-07-11T08:07:25Z</time>
      </trkpt>
      <trkpt lat="38.1256837863" lon="-6.3008338585">
        <ele>704.78</ele>
        <time>2020-07-11T08:07:31Z</time>
      </trkpt>
      <trkpt lat="38.1259759795" lon="-6.3007552363">
        <ele>702.86</ele>
        <time>2020-07-11T08:07:40Z</time>
      </trkpt>
      <trkpt lat="38.1261585373" lon="-6.3007596787">
        <ele>701.90</ele>
        <time>2020-07-11T08:07:47Z</time>
      </trkpt>
      <trkpt lat="38.1264539994" lon="-6.3009093795">
        <ele>701.42</ele>
        <time>2020-07-11T08:07:54Z</time>
      </trkpt>
      <trkpt lat="38.1267584302" lon="-6.3011632673">
        <ele>700.94</ele>
        <time>2020-07-11T08:08:02Z</time>
      </trkpt>
      <trkpt lat="38.1270709075" lon="-6.3015035726">
        <ele>700.94</ele>
        <time>2020-07-11T08:08:11Z</time>
      </trkpt>
      <trkpt lat="38.1272221170" lon="-6.3017506711">
        <ele>699.98</ele>
        <time>2020-07-11T08:08:17Z</time>
      </trkpt>
      <trkpt lat="38.1273770984" lon="-6.3020304590">
        <ele>699.98</ele>
        <time>2020-07-11T08:08:25Z</time>
      </trkpt>
      <trkpt lat="38.1275965367" lon="-6.3022894599">
        <ele>701.42</ele>
        <time>2020-07-11T08:08:34Z</time>
      </trkpt>
      <trkpt lat="38.1277894042" lon="-6.3024467044">
        <ele>702.86</ele>
        <time>2020-07-11T08:08:41Z</time>
      </trkpt>
      <trkpt lat="38.1279516779" lon="-6.3025610335">
        <ele>704.30</ele>
        <time>2020-07-11T08:08:48Z</time>
      </trkpt>
      <trkpt lat="38.1282137800" lon="-6.3027525600">
        <ele>705.26</ele>
        <time>2020-07-11T08:08:59Z</time>
      </trkpt>
      <trkpt lat="38.1282926537" lon="-6.3027985767">
        <ele>705.26</ele>
        <time>2020-07-11T08:09:05Z</time>
      </trkpt>
      <trkpt lat="38.1282856129" lon="-6.3027988281">
        <ele>706.23</ele>
        <time>2020-07-11T08:09:14Z</time>
      </trkpt>
      <trkpt lat="38.1282964256" lon="-6.3028029352">
        <ele>706.71</ele>
        <time>2020-07-11T08:09:40Z</time>
      </trkpt>
      <trkpt lat="38.1283012033" lon="-6.3028004207">
        <ele>707.67</ele>
        <time>2020-07-11T08:09:55Z</time>
      </trkpt>
      <trkpt lat="38.1282964256" lon="-6.3028010912">
        <ele>706.71</ele>
        <time>2020-07-11T08:10:21Z</time>
      </trkpt>
      <trkpt lat="38.1283014547" lon="-6.3027974870">
        <ele>704.78</ele>
        <time>2020-07-11T08:10:50Z</time>
      </trkpt>
      <trkpt lat="38.1282938272" lon="-6.3027909491">
        <ele>705.75</ele>
        <time>2020-07-11T08:11:14Z</time>
      </trkpt>
      <trkpt lat="38.1282886304" lon="-6.3027833216">
        <ele>707.19</ele>
        <time>2020-07-11T08:11:43Z</time>
      </trkpt>
      <trkpt lat="38.1282919832" lon="-6.3027775381">
        <ele>707.67</ele>
        <time>2020-07-11T08:12:01Z</time>
      </trkpt>
      <trkpt lat="38.1282935757" lon="-6.3027792983">
        <ele>708.15</ele>
        <time>2020-07-11T08:12:15Z</time>
      </trkpt>
      <trkpt lat="38.1282899715" lon="-6.3027812261">
        <ele>707.67</ele>
        <time>2020-07-11T08:12:31Z</time>
      </trkpt>
      <trkpt lat="38.1282913126" lon="-6.3027917035">
        <ele>707.19</ele>
        <time>2020-07-11T08:12:47Z</time>
      </trkpt>
      <trkpt lat="38.1282905582" lon="-6.3027880155">
        <ele>707.67</ele>
        <time>2020-07-11T08:13:06Z</time>
      </trkpt>
      <trkpt lat="38.1282901391" lon="-6.3027950563">
        <ele>708.63</ele>
        <time>2020-07-11T08:13:30Z</time>
      </trkpt>
      <trkpt lat="38.1282937434" lon="-6.3027983252">
        <ele>708.63</ele>
        <time>2020-07-11T08:13:38Z</time>
      </trkpt>
      <trkpt lat="38.1283853576" lon="-6.3028258178">
        <ele>708.15</ele>
        <time>2020-07-11T08:13:43Z</time>
      </trkpt>
      <trkpt lat="38.1286368985" lon="-6.3027492072">
        <ele>708.63</ele>
        <time>2020-07-11T08:13:52Z</time>
      </trkpt>
      <trkpt lat="38.1288745254" lon="-6.3026001770">
        <ele>707.19</ele>
        <time>2020-07-11T08:14:00Z</time>
      </trkpt>
      <trkpt lat="38.1289865077" lon="-6.3025144301">
        <ele>706.71</ele>
        <time>2020-07-11T08:14:03Z</time>
      </trkpt>
      <trkpt lat="38.1293883361" lon="-6.3023554254">
        <ele>704.78</ele>
        <time>2020-07-11T08:14:11Z</time>
      </trkpt>
      <trkpt lat="38.1295436528" lon="-6.3023065589">
        <ele>704.78</ele>
        <time>2020-07-11T08:14:14Z</time>
      </trkpt>
      <trkpt lat="38.1295870710" lon="-6.3022873644">
        <ele>704.78</ele>
        <time>2020-07-11T08:14:15Z</time>
      </trkpt>
      <trkpt lat="38.1296254601" lon="-6.3022752944">
        <ele>704.78</ele>
        <time>2020-07-11T08:14:16Z</time>
      </trkpt>
      <trkpt lat="38.1296604965" lon="-6.3022676669">
        <ele>704.30</ele>
        <time>2020-07-11T08:14:17Z</time>
      </trkpt>
      <trkpt lat="38.1296941917" lon="-6.3022642303">
        <ele>704.30</ele>
        <time>2020-07-11T08:14:18Z</time>
      </trkpt>
      <trkpt lat="38.1297260430" lon="-6.3022631407">
        <ele>704.30</ele>
        <time>2020-07-11T08:14:19Z</time>
      </trkpt>
      <trkpt lat="38.1297620013" lon="-6.3022651523">
        <ele>704.78</ele>
        <time>2020-07-11T08:14:20Z</time>
      </trkpt>
      <trkpt lat="38.1297982950" lon="-6.3022706006">
        <ele>704.30</ele>
        <time>2020-07-11T08:14:21Z</time>
      </trkpt>
      <trkpt lat="38.1298355106" lon="-6.3022793178">
        <ele>704.30</ele>
        <time>2020-07-11T08:14:22Z</time>
      </trkpt>
      <trkpt lat="38.1299203355" lon="-6.3022924773">
        <ele>704.30</ele>
        <time>2020-07-11T08:14:24Z</time>
      </trkpt>
      <trkpt lat="38.1300613191" lon="-6.3022748753">
        <ele>703.34</ele>
        <time>2020-07-11T08:14:27Z</time>
      </trkpt>
      <trkpt lat="38.1301038153" lon="-6.3022578601">
        <ele>702.86</ele>
        <time>2020-07-11T08:14:28Z</time>
      </trkpt>
      <trkpt lat="38.1301925797" lon="-6.3022113405">
        <ele>702.38</ele>
        <time>2020-07-11T08:14:30Z</time>
      </trkpt>
      <trkpt lat="38.1304366607" lon="-6.3020378351">
        <ele>699.98</ele>
        <time>2020-07-11T08:14:36Z</time>
      </trkpt>
      <trkpt lat="38.1304778159" lon="-6.3020114321">
        <ele>699.98</ele>
        <time>2020-07-11T08:14:37Z</time>
      </trkpt>
      <trkpt lat="38.1308099069" lon="-6.3017645013">
        <ele>697.57</ele>
        <time>2020-07-11T08:14:44Z</time>
      </trkpt>
      <trkpt lat="38.1311010104" lon="-6.3016213384">
        <ele>696.13</ele>
        <time>2020-07-11T08:14:51Z</time>
      </trkpt>
      <trkpt lat="38.1312809698" lon="-6.3015849609">
        <ele>697.57</ele>
        <time>2020-07-11T08:14:59Z</time>
      </trkpt>
      <trkpt lat="38.1314724125" lon="-6.3015617430">
        <ele>699.02</ele>
        <time>2020-07-11T08:15:07Z</time>
      </trkpt>
      <trkpt lat="38.1316237897" lon="-6.3014984597">
        <ele>698.53</ele>
        <time>2020-07-11T08:15:13Z</time>
      </trkpt>
      <trkpt lat="38.1317237858" lon="-6.3014380261">
        <ele>698.05</ele>
        <time>2020-07-11T08:15:16Z</time>
      </trkpt>
      <trkpt lat="38.1319407094" lon="-6.3012928516">
        <ele>696.61</ele>
        <time>2020-07-11T08:15:21Z</time>
      </trkpt>
      <trkpt lat="38.1322178990" lon="-6.3011777680">
        <ele>697.57</ele>
        <time>2020-07-11T08:15:28Z</time>
      </trkpt>
      <trkpt lat="38.1324944180" lon="-6.3011160772">
        <ele>698.53</ele>
        <time>2020-07-11T08:15:37Z</time>
      </trkpt>
      <trkpt lat="38.1326968409" lon="-6.3009558152">
        <ele>697.09</ele>
        <time>2020-07-11T08:15:43Z</time>
      </trkpt>
      <trkpt lat="38.1329563446" lon="-6.3007425796">
        <ele>695.17</ele>
        <time>2020-07-11T08:15:48Z</time>
      </trkpt>
      <trkpt lat="38.1331267487" lon="-6.3006647117">
        <ele>694.21</ele>
        <time>2020-07-11T08:15:51Z</time>
      </trkpt>
      <trkpt lat="38.1331755314" lon="-6.3006551564">
        <ele>694.21</ele>
        <time>2020-07-11T08:15:52Z</time>
      </trkpt>
      <trkpt lat="38.1332192011" lon="-6.3006564137">
        <ele>694.21</ele>
        <time>2020-07-11T08:15:53Z</time>
      </trkpt>
      <trkpt lat="38.1335417368" lon="-6.3007088006">
        <ele>694.21</ele>
        <time>2020-07-11T08:16:01Z</time>
      </trkpt>
      <trkpt lat="38.1339298189" lon="-6.3008398935">
        <ele>693.73</ele>
        <time>2020-07-11T08:16:10Z</time>
      </trkpt>
      <trkpt lat="38.1339727342" lon="-6.3008721638">
        <ele>693.73</ele>
        <time>2020-07-11T08:16:11Z</time>
      </trkpt>
      <trkpt lat="38.1340640131" lon="-6.3009462599">
        <ele>693.73</ele>
        <time>2020-07-11T08:16:13Z</time>
      </trkpt>
      <trkpt lat="38.1343749817" lon="-6.3011801150">
        <ele>694.69</ele>
        <time>2020-07-11T08:16:21Z</time>
      </trkpt>
      <trkpt lat="38.1347354036" lon="-6.3014794327">
        <ele>695.65</ele>
        <time>2020-07-11T08:16:31Z</time>
      </trkpt>
      <trkpt lat="38.1349837594" lon="-6.3016254455">
        <ele>697.57</ele>
        <time>2020-07-11T08:16:39Z</time>
      </trkpt>
      <trkpt lat="38.1353434268" lon="-6.3018192351">
        <ele>699.02</ele>
        <time>2020-07-11T08:16:50Z</time>
      </trkpt>
      <trkpt lat="38.1356879231" lon="-6.3019709475">
        <ele>698.05</ele>
        <time>2020-07-11T08:16:58Z</time>
      </trkpt>
      <trkpt lat="38.1361216865" lon="-6.3022110052">
        <ele>696.61</ele>
        <time>2020-07-11T08:17:07Z</time>
      </trkpt>
      <trkpt lat="38.1365912408" lon="-6.3025352173">
        <ele>696.13</ele>
        <time>2020-07-11T08:17:17Z</time>
      </trkpt>
      <trkpt lat="38.1367043126" lon="-6.3026541565">
        <ele>695.65</ele>
        <time>2020-07-11T08:17:20Z</time>
      </trkpt>
      <trkpt lat="38.1368063204" lon="-6.3027764484">
        <ele>695.65</ele>
        <time>2020-07-11T08:17:23Z</time>
      </trkpt>
      <trkpt lat="38.1370996032" lon="-6.3031190168">
        <ele>694.69</ele>
        <time>2020-07-11T08:17:32Z</time>
      </trkpt>
      <trkpt lat="38.1371887028" lon="-6.3032304961">
        <ele>694.21</ele>
        <time>2020-07-11T08:17:35Z</time>
      </trkpt>
      <trkpt lat="38.1374497153" lon="-6.3034909219">
        <ele>694.69</ele>
        <time>2020-07-11T08:17:43Z</time>
      </trkpt>
      <trkpt lat="38.1377461832" lon="-6.3036645111">
        <ele>695.17</ele>
        <time>2020-07-11T08:17:51Z</time>
      </trkpt>
      <trkpt lat="38.1380747538" lon="-6.3037713803">
        <ele>692.29</ele>
        <time>2020-07-11T08:17:58Z</time>
      </trkpt>
      <trkpt lat="38.1384354271" lon="-6.3039755635">
        <ele>688.44</ele>
        <time>2020-07-11T08:18:07Z</time>
      </trkpt>
      <trkpt lat="38.1385044102" lon="-6.3040507492">
        <ele>687.48</ele>
        <time>2020-07-11T08:18:10Z</time>
      </trkpt>
      <trkpt lat="38.1386212539" lon="-6.3042209018">
        <ele>686.52</ele>
        <time>2020-07-11T08:18:15Z</time>
      </trkpt>
      <trkpt lat="38.1388595514" lon="-6.3044580258">
        <ele>684.60</ele>
        <time>2020-07-11T08:18:21Z</time>
      </trkpt>
      <trkpt lat="38.1392735336" lon="-6.3048867602">
        <ele>682.19</ele>
        <time>2020-07-11T08:18:29Z</time>
      </trkpt>
      <trkpt lat="38.1397484522" lon="-6.3053873274">
        <ele>678.83</ele>
        <time>2020-07-11T08:18:37Z</time>
      </trkpt>
      <trkpt lat="38.1402132288" lon="-6.3057767507">
        <ele>676.42</ele>
        <time>2020-07-11T08:18:43Z</time>
      </trkpt>
      <trkpt lat="38.1410130300" lon="-6.3063156232">
        <ele>674.98</ele>
        <time>2020-07-11T08:18:53Z</time>
      </trkpt>
      <trkpt lat="38.1415242422" lon="-6.3067063037">
        <ele>673.06</ele>
        <time>2020-07-11T08:19:00Z</time>
      </trkpt>
      <trkpt lat="38.1420740113" lon="-6.3072760217">
        <ele>671.62</ele>
        <time>2020-07-11T08:19:08Z</time>
      </trkpt>
      <trkpt lat="38.1425392907" lon="-6.3077672012">
        <ele>671.62</ele>
        <time>2020-07-11T08:19:16Z</time>
      </trkpt>
      <trkpt lat="38.1428962760" lon="-6.3081479073">
        <ele>672.10</ele>
        <time>2020-07-11T08:19:24Z</time>
      </trkpt>
      <trkpt lat="38.1432023831" lon="-6.3084732927">
        <ele>671.14</ele>
        <time>2020-07-11T08:19:32Z</time>
      </trkpt>
      <trkpt lat="38.1434467994" lon="-6.3087230735">
        <ele>671.62</ele>
        <time>2020-07-11T08:19:39Z</time>
      </trkpt>
      <trkpt lat="38.1436517369" lon="-6.3089471217">
        <ele>672.10</ele>
        <time>2020-07-11T08:19:46Z</time>
      </trkpt>
      <trkpt lat="38.1439381465" lon="-6.3092086371">
        <ele>670.66</ele>
        <time>2020-07-11T08:19:54Z</time>
      </trkpt>
      <trkpt lat="38.1442056969" lon="-6.3094776962">
        <ele>671.14</ele>
        <time>2020-07-11T08:20:02Z</time>
      </trkpt>
      <trkpt lat="38.1444341876" lon="-6.3096986432">
        <ele>672.58</ele>
        <time>2020-07-11T08:20:10Z</time>
      </trkpt>
      <trkpt lat="38.1446875725" lon="-6.3099284749">
        <ele>674.02</ele>
        <time>2020-07-11T08:20:19Z</time>
      </trkpt>
      <trkpt lat="38.1449362636" lon="-6.3100860547">
        <ele>675.94</ele>
        <time>2020-07-11T08:20:28Z</time>
      </trkpt>
      <trkpt lat="38.1451382674" lon="-6.3101170678">
        <ele>676.42</ele>
        <time>2020-07-11T08:20:38Z</time>
      </trkpt>
      <trkpt lat="38.1451484095" lon="-6.3101217616">
        <ele>675.94</ele>
        <time>2020-07-11T08:20:47Z</time>
      </trkpt>
      <trkpt lat="38.1451513432" lon="-6.3101253659">
        <ele>675.46</ele>
        <time>2020-07-11T08:20:58Z</time>
      </trkpt>
      <trkpt lat="38.1451684423" lon="-6.3101464044">
        <ele>675.94</ele>
        <time>2020-07-11T08:21:06Z</time>
      </trkpt>
      <trkpt lat="38.1451717112" lon="-6.3101467397">
        <ele>675.94</ele>
        <time>2020-07-11T08:21:15Z</time>
      </trkpt>
      <trkpt lat="38.1451766565" lon="-6.3101429678">
        <ele>676.42</ele>
        <time>2020-07-11T08:21:24Z</time>
      </trkpt>
      <trkpt lat="38.1452325638" lon="-6.3101485837">
        <ele>676.91</ele>
        <time>2020-07-11T08:21:33Z</time>
      </trkpt>
      <trkpt lat="38.1453623995" lon="-6.3102029823">
        <ele>676.91</ele>
        <time>2020-07-11T08:21:40Z</time>
      </trkpt>
      <trkpt lat="38.1455649063" lon="-6.3103292976">
        <ele>675.46</ele>
        <time>2020-07-11T08:21:47Z</time>
      </trkpt>
      <trkpt lat="38.1456919760" lon="-6.3104439620">
        <ele>674.02</ele>
        <time>2020-07-11T08:21:51Z</time>
      </trkpt>
      <trkpt lat="38.1457742024" lon="-6.3104753941">
        <ele>673.06</ele>
        <time>2020-07-11T08:21:53Z</time>
      </trkpt>
      <trkpt lat="38.1458183751" lon="-6.3104727957">
        <ele>672.58</ele>
        <time>2020-07-11T08:21:54Z</time>
      </trkpt>
      <trkpt lat="38.1458643079" lon="-6.3104587141">
        <ele>672.58</ele>
        <time>2020-07-11T08:21:55Z</time>
      </trkpt>
      <trkpt lat="38.1459660642" lon="-6.3104059920">
        <ele>671.14</ele>
        <time>2020-07-11T08:21:57Z</time>
      </trkpt>
      <trkpt lat="38.1461979914" lon="-6.3102449756">
        <ele>668.73</ele>
        <time>2020-07-11T08:22:02Z</time>
      </trkpt>
      <trkpt lat="38.1462413259" lon="-6.3102244399">
        <ele>668.73</ele>
        <time>2020-07-11T08:22:03Z</time>
      </trkpt>
      <trkpt lat="38.1464211177" lon="-6.3101398665">
        <ele>667.77</ele>
        <time>2020-07-11T08:22:09Z</time>
      </trkpt>
      <trkpt lat="38.1465380453" lon="-6.3101087697">
        <ele>667.29</ele>
        <time>2020-07-11T08:22:15Z</time>
      </trkpt>
      <trkpt lat="38.1465365365" lon="-6.3101137150">
        <ele>667.77</ele>
        <time>2020-07-11T08:22:30Z</time>
      </trkpt>
      <trkpt lat="38.1466047652" lon="-6.3100984599">
        <ele>668.25</ele>
        <time>2020-07-11T08:22:38Z</time>
      </trkpt>
      <trkpt lat="38.1468733214" lon="-6.3100221008">
        <ele>666.81</ele>
        <time>2020-07-11T08:22:47Z</time>
      </trkpt>
      <trkpt lat="38.1470618304" lon="-6.3099860586">
        <ele>665.85</ele>
        <time>2020-07-11T08:22:56Z</time>
      </trkpt>
      <trkpt lat="38.1472298875" lon="-6.3099419698">
        <ele>664.89</ele>
        <time>2020-07-11T08:23:03Z</time>
      </trkpt>
      <trkpt lat="38.1475380063" lon="-6.3099102862">
        <ele>662.97</ele>
        <time>2020-07-11T08:23:12Z</time>
      </trkpt>
      <trkpt lat="38.1477978453" lon="-6.3098071888">
        <ele>661.52</ele>
        <time>2020-07-11T08:23:20Z</time>
      </trkpt>
      <trkpt lat="38.1481023598" lon="-6.3097045943">
        <ele>659.12</ele>
        <time>2020-07-11T08:23:28Z</time>
      </trkpt>
      <trkpt lat="38.1484143343" lon="-6.3097049296">
        <ele>658.16</ele>
        <time>2020-07-11T08:23:36Z</time>
      </trkpt>
      <trkpt lat="38.1486123987" lon="-6.3097344339">
        <ele>657.68</ele>
        <time>2020-07-11T08:23:43Z</time>
      </trkpt>
      <trkpt lat="38.1487471797" lon="-6.3097752538">
        <ele>656.72</ele>
        <time>2020-07-11T08:23:49Z</time>
      </trkpt>
      <trkpt lat="38.1488672085" lon="-6.3099269662">
        <ele>654.80</ele>
        <time>2020-07-11T08:23:56Z</time>
      </trkpt>
      <trkpt lat="38.1489989720" lon="-6.3100529462">
        <ele>652.87</ele>
        <time>2020-07-11T08:24:02Z</time>
      </trkpt>
      <trkpt lat="38.1492355932" lon="-6.3101194985">
        <ele>649.51</ele>
        <time>2020-07-11T08:24:09Z</time>
      </trkpt>
      <trkpt lat="38.1493315659" lon="-6.3101752382">
        <ele>648.55</ele>
        <time>2020-07-11T08:24:11Z</time>
      </trkpt>
      <trkpt lat="38.1493768282" lon="-6.3102152199">
        <ele>648.55</ele>
        <time>2020-07-11T08:24:12Z</time>
      </trkpt>
      <trkpt lat="38.1494137086" lon="-6.3102565426">
        <ele>648.07</ele>
        <time>2020-07-11T08:24:13Z</time>
      </trkpt>
      <trkpt lat="38.1495901477" lon="-6.3104881346">
        <ele>648.07</ele>
        <time>2020-07-11T08:24:19Z</time>
      </trkpt>
      <trkpt lat="38.1497152057" lon="-6.3106170483">
        <ele>649.03</ele>
        <time>2020-07-11T08:24:25Z</time>
      </trkpt>
      <trkpt lat="38.1497267727" lon="-6.3106418587">
        <ele>649.51</ele>
        <time>2020-07-11T08:24:26Z</time>
      </trkpt>
      <trkpt lat="38.1497405190" lon="-6.3106683455">
        <ele>649.51</ele>
        <time>2020-07-11T08:24:27Z</time>
      </trkpt>
      <trkpt lat="38.1497577019" lon="-6.3106939103">
        <ele>649.51</ele>
        <time>2020-07-11T08:24:28Z</time>
      </trkpt>
      <trkpt lat="38.1497751363" lon="-6.3107193913">
        <ele>649.51</ele>
        <time>2020-07-11T08:24:29Z</time>
      </trkpt>
      <trkpt lat="38.1497903075" lon="-6.3107452076">
        <ele>649.99</ele>
        <time>2020-07-11T08:24:30Z</time>
      </trkpt>
      <trkpt lat="38.1498215720" lon="-6.3107944094">
        <ele>649.99</ele>
        <time>2020-07-11T08:24:32Z</time>
      </trkpt>
      <trkpt lat="38.1499477196" lon="-6.3109032903">
        <ele>650.47</ele>
        <time>2020-07-11T08:24:38Z</time>
      </trkpt>
      <trkpt lat="38.1502523180" lon="-6.3110859320">
        <ele>650.95</ele>
        <time>2020-07-11T08:24:48Z</time>
      </trkpt>
      <trkpt lat="38.1505575031" lon="-6.3112425059">
        <ele>651.91</ele>
        <time>2020-07-11T08:24:58Z</time>
      </trkpt>
      <trkpt lat="38.1509201881" lon="-6.3114303444">
        <ele>651.91</ele>
        <time>2020-07-11T08:25:10Z</time>
      </trkpt>
      <trkpt lat="38.1511136424" lon="-6.3114544842">
        <ele>652.39</ele>
        <time>2020-07-11T08:25:18Z</time>
      </trkpt>
      <trkpt lat="38.1512602419" lon="-6.3114585914">
        <ele>651.91</ele>
        <time>2020-07-11T08:25:24Z</time>
      </trkpt>
      <trkpt lat="38.1515673548" lon="-6.3114045281">
        <ele>649.03</ele>
        <time>2020-07-11T08:25:32Z</time>
      </trkpt>
      <trkpt lat="38.1518085022" lon="-6.3113561645">
        <ele>646.62</ele>
        <time>2020-07-11T08:25:40Z</time>
      </trkpt>
      <trkpt lat="38.1519859470" lon="-6.3112855889">
        <ele>645.66</ele>
        <time>2020-07-11T08:25:46Z</time>
      </trkpt>
      <trkpt lat="38.1521948241" lon="-6.3113497104">
        <ele>645.18</ele>
        <time>2020-07-11T08:25:53Z</time>
      </trkpt>
      <trkpt lat="38.1524428446" lon="-6.3114025164">
        <ele>644.22</ele>
        <time>2020-07-11T08:26:01Z</time>
      </trkpt>
      <trkpt lat="38.1525972392" lon="-6.3114285842">
        <ele>642.78</ele>
        <time>2020-07-11T08:26:08Z</time>
      </trkpt>
      <trkpt lat="38.1527560763" lon="-6.3114120718">
        <ele>641.82</ele>
        <time>2020-07-11T08:26:16Z</time>
      </trkpt>
      <trkpt lat="38.1529454235" lon="-6.3113657199">
        <ele>640.86</ele>
        <time>2020-07-11T08:26:22Z</time>
      </trkpt>
      <trkpt lat="38.1529860757" lon="-6.3113395683">
        <ele>640.38</ele>
        <time>2020-07-11T08:26:23Z</time>
      </trkpt>
      <trkpt lat="38.1533287279" lon="-6.3111951482">
        <ele>637.97</ele>
        <time>2020-07-11T08:26:30Z</time>
      </trkpt>
      <trkpt lat="38.1534352619" lon="-6.3111741934">
        <ele>637.49</ele>
        <time>2020-07-11T08:26:32Z</time>
      </trkpt>
      <trkpt lat="38.1534863915" lon="-6.3111706730">
        <ele>637.49</ele>
        <time>2020-07-11T08:26:33Z</time>
      </trkpt>
      <trkpt lat="38.1539018825" lon="-6.3111837488">
        <ele>637.01</ele>
        <time>2020-07-11T08:26:42Z</time>
      </trkpt>
      <trkpt lat="38.1542432774" lon="-6.3112010155">
        <ele>637.01</ele>
        <time>2020-07-11T08:26:50Z</time>
      </trkpt>
      <trkpt lat="38.1545824930" lon="-6.3112362195">
        <ele>637.49</ele>
        <time>2020-07-11T08:26:59Z</time>
      </trkpt>
      <trkpt lat="38.1549800467" lon="-6.3112517260">
        <ele>637.01</ele>
        <time>2020-07-11T08:27:08Z</time>
      </trkpt>
      <trkpt lat="38.1551052723" lon="-6.3112526480">
        <ele>637.01</ele>
        <time>2020-07-11T08:27:11Z</time>
      </trkpt>
      <trkpt lat="38.1554211862" lon="-6.3112277538">
        <ele>637.01</ele>
        <time>2020-07-11T08:27:20Z</time>
      </trkpt>
      <trkpt lat="38.1556773372" lon="-6.3113026880">
        <ele>636.05</ele>
        <time>2020-07-11T08:27:28Z</time>
      </trkpt>
      <trkpt lat="38.1559661776" lon="-6.3113590144">
        <ele>632.68</ele>
        <time>2020-07-11T08:27:32Z</time>
      </trkpt>
      <trkpt lat="38.1560893077" lon="-6.3114009239">
        <ele>632.20</ele>
        <time>2020-07-11T08:27:34Z</time>
      </trkpt>
      <trkpt lat="38.1561288703" lon="-6.3114213757">
        <ele>632.20</ele>
        <time>2020-07-11T08:27:35Z</time>
      </trkpt>
      <trkpt lat="38.1561594643" lon="-6.3114358764">
        <ele>632.68</ele>
        <time>2020-07-11T08:27:36Z</time>
      </trkpt>
      <trkpt lat="38.1561814249" lon="-6.3114432525">
        <ele>632.68</ele>
        <time>2020-07-11T08:27:37Z</time>
      </trkpt>
      <trkpt lat="38.1562060677" lon="-6.3114456832">
        <ele>632.68</ele>
        <time>2020-07-11T08:27:38Z</time>
      </trkpt>
      <trkpt lat="38.1564483885" lon="-6.3115084637">
        <ele>633.17</ele>
        <time>2020-07-11T08:27:46Z</time>
      </trkpt>
      <trkpt lat="38.1565854326" lon="-6.3115599286">
        <ele>635.09</ele>
        <time>2020-07-11T08:27:53Z</time>
      </trkpt>
      <trkpt lat="38.1565747038" lon="-6.3115524687">
        <ele>635.09</ele>
        <time>2020-07-11T08:28:02Z</time>
      </trkpt>
      <trkpt lat="38.1565672439" lon="-6.3115432486">
        <ele>635.09</ele>
        <time>2020-07-11T08:28:10Z</time>
      </trkpt>
      <trkpt lat="38.1565581076" lon="-6.3115355372">
        <ele>635.09</ele>
        <time>2020-07-11T08:28:32Z</time>
      </trkpt>
      <trkpt lat="38.1565690879" lon="-6.3115380518">
        <ele>635.09</ele>
        <time>2020-07-11T08:28:35Z</time>
      </trkpt>
      <trkpt lat="38.1566394959" lon="-6.3115639519">
        <ele>636.53</ele>
        <time>2020-07-11T08:28:43Z</time>
      </trkpt>
      <trkpt lat="38.1566600315" lon="-6.3115676399">
        <ele>637.01</ele>
        <time>2020-07-11T08:28:51Z</time>
      </trkpt>
      <trkpt lat="38.1566686649" lon="-6.3115666341">
        <ele>637.01</ele>
        <time>2020-07-11T08:29:02Z</time>
      </trkpt>
      <trkpt lat="38.1566652283" lon="-6.3115636166">
        <ele>636.53</ele>
        <time>2020-07-11T08:29:14Z</time>
      </trkpt>
      <trkpt lat="38.1567265838" lon="-6.3116120640">
        <ele>636.05</ele>
        <time>2020-07-11T08:29:20Z</time>
      </trkpt>
      <trkpt lat="38.1568689924" lon="-6.3117427379">
        <ele>635.09</ele>
        <time>2020-07-11T08:29:27Z</time>
      </trkpt>
      <trkpt lat="38.1570253149" lon="-6.3119078614">
        <ele>632.20</ele>
        <time>2020-07-11T08:29:32Z</time>
      </trkpt>
      <trkpt lat="38.1570822280" lon="-6.3119532913">
        <ele>631.24</ele>
        <time>2020-07-11T08:29:33Z</time>
      </trkpt>
      <trkpt lat="38.1571372971" lon="-6.3119851425">
        <ele>631.24</ele>
        <time>2020-07-11T08:29:34Z</time>
      </trkpt>
      <trkpt lat="38.1571818888" lon="-6.3119957037">
        <ele>630.76</ele>
        <time>2020-07-11T08:29:35Z</time>
      </trkpt>
      <trkpt lat="38.1572224572" lon="-6.3120010681">
        <ele>630.76</ele>
        <time>2020-07-11T08:29:36Z</time>
      </trkpt>
      <trkpt lat="38.1572543085" lon="-6.3120096177">
        <ele>630.76</ele>
        <time>2020-07-11T08:29:37Z</time>
      </trkpt>
      <trkpt lat="38.1572795380" lon="-6.3120233640">
        <ele>630.76</ele>
        <time>2020-07-11T08:29:38Z</time>
      </trkpt>
      <trkpt lat="38.1573037617" lon="-6.3120369427">
        <ele>631.24</ele>
        <time>2020-07-11T08:29:39Z</time>
      </trkpt>
      <trkpt lat="38.1573258061" lon="-6.3120490965">
        <ele>631.24</ele>
        <time>2020-07-11T08:29:40Z</time>
      </trkpt>
      <trkpt lat="38.1573425699" lon="-6.3120657764">
        <ele>631.72</ele>
        <time>2020-07-11T08:29:41Z</time>
      </trkpt>
      <trkpt lat="38.1573592499" lon="-6.3120884076">
        <ele>631.72</ele>
        <time>2020-07-11T08:29:42Z</time>
      </trkpt>
      <trkpt lat="38.1574956235" lon="-6.3121952768">
        <ele>634.13</ele>
        <time>2020-07-11T08:29:49Z</time>
      </trkpt>
      <trkpt lat="38.1576237828" lon="-6.3122195005">
        <ele>635.57</ele>
        <time>2020-07-11T08:29:56Z</time>
      </trkpt>
      <trkpt lat="38.1577705499" lon="-6.3122272957">
        <ele>637.49</ele>
        <time>2020-07-11T08:30:05Z</time>
      </trkpt>
      <trkpt lat="38.1578897405" lon="-6.3122066762">
        <ele>637.97</ele>
        <time>2020-07-11T08:30:12Z</time>
      </trkpt>
      <trkpt lat="38.1580350827" lon="-6.3122396171">
        <ele>638.93</ele>
        <time>2020-07-11T08:30:19Z</time>
      </trkpt>
      <trkpt lat="38.1582019664" lon="-6.3123274595">
        <ele>640.38</ele>
        <time>2020-07-11T08:30:28Z</time>
      </trkpt>
      <trkpt lat="38.1583438721" lon="-6.3124324847">
        <ele>641.82</ele>
        <time>2020-07-11T08:30:38Z</time>
      </trkpt>
      <trkpt lat="38.1585051399" lon="-6.3125531003">
        <ele>643.26</ele>
        <time>2020-07-11T08:30:49Z</time>
      </trkpt>
      <trkpt lat="38.1586557627" lon="-6.3126599696">
        <ele>644.70</ele>
        <time>2020-07-11T08:30:59Z</time>
      </trkpt>
      <trkpt lat="38.1587706786" lon="-6.3127922360">
        <ele>645.66</ele>
        <time>2020-07-11T08:31:08Z</time>
      </trkpt>
      <trkpt lat="38.1588864326" lon="-6.3129051402">
        <ele>646.62</ele>
        <time>2020-07-11T08:31:16Z</time>
      </trkpt>
      <trkpt lat="38.1589776278" lon="-6.3130211458">
        <ele>646.62</ele>
        <time>2020-07-11T08:31:23Z</time>
      </trkpt>
      <trkpt lat="38.1591608562" lon="-6.3131571002">
        <ele>646.62</ele>
        <time>2020-07-11T08:31:31Z</time>
      </trkpt>
      <trkpt lat="38.1593696494" lon="-6.3132789731">
        <ele>645.66</ele>
        <time>2020-07-11T08:31:38Z</time>
      </trkpt>
      <trkpt lat="38.1596693024" lon="-6.3134307694">
        <ele>644.70</ele>
        <time>2020-07-11T08:31:45Z</time>
      </trkpt>
      <trkpt lat="38.1598728150" lon="-6.3136051130">
        <ele>644.22</ele>
        <time>2020-07-11T08:31:51Z</time>
      </trkpt>
      <trkpt lat="38.1599721406" lon="-6.3137747627">
        <ele>644.70</ele>
        <time>2020-07-11T08:31:58Z</time>
      </trkpt>
      <trkpt lat="38.1601376832" lon="-6.3138719928">
        <ele>645.18</ele>
        <time>2020-07-11T08:32:06Z</time>
      </trkpt>
      <trkpt lat="38.1602952629" lon="-6.3140126411">
        <ele>645.66</ele>
        <time>2020-07-11T08:32:12Z</time>
      </trkpt>
      <trkpt lat="38.1605046429" lon="-6.3141133077">
        <ele>646.62</ele>
        <time>2020-07-11T08:32:20Z</time>
      </trkpt>
      <trkpt lat="38.1606814172" lon="-6.3141863979">
        <ele>646.62</ele>
        <time>2020-07-11T08:32:27Z</time>
      </trkpt>
      <trkpt lat="38.1609116681" lon="-6.3141798601">
        <ele>647.10</ele>
        <time>2020-07-11T08:32:35Z</time>
      </trkpt>
      <trkpt lat="38.1610270031" lon="-6.3141339272">
        <ele>647.59</ele>
        <time>2020-07-11T08:32:41Z</time>
      </trkpt>
      <trkpt lat="38.1610441022" lon="-6.3141399622">
        <ele>647.59</ele>
        <time>2020-07-11T08:32:42Z</time>
      </trkpt>
      <trkpt lat="38.1610622909" lon="-6.3141439017">
        <ele>647.59</ele>
        <time>2020-07-11T08:32:43Z</time>
      </trkpt>
      <trkpt lat="38.1612191163" lon="-6.3140918501">
        <ele>648.55</ele>
        <time>2020-07-11T08:32:50Z</time>
      </trkpt>
      <trkpt lat="38.1612827349" lon="-6.3139620144">
        <ele>649.03</ele>
        <time>2020-07-11T08:32:56Z</time>
      </trkpt>
      <trkpt lat="38.1612913683" lon="-6.3139496092">
        <ele>649.03</ele>
        <time>2020-07-11T08:32:57Z</time>
      </trkpt>
      <trkpt lat="38.1612974871" lon="-6.3139307499">
        <ele>648.55</ele>
        <time>2020-07-11T08:32:58Z</time>
      </trkpt>
      <trkpt lat="38.1613021810" lon="-6.3139096275">
        <ele>648.55</ele>
        <time>2020-07-11T08:32:59Z</time>
      </trkpt>
      <trkpt lat="38.1613073777" lon="-6.3138835598">
        <ele>648.55</ele>
        <time>2020-07-11T08:33:00Z</time>
      </trkpt>
      <trkpt lat="38.1613188609" lon="-6.3138579112">
        <ele>648.55</ele>
        <time>2020-07-11T08:33:01Z</time>
      </trkpt>
      <trkpt lat="38.1613367982" lon="-6.3138309214">
        <ele>648.55</ele>
        <time>2020-07-11T08:33:02Z</time>
      </trkpt>
      <trkpt lat="38.1614998262" lon="-6.3137285784">
        <ele>649.03</ele>
        <time>2020-07-11T08:33:09Z</time>
      </trkpt>
      <trkpt lat="38.1617087033" lon="-6.3137477729">
        <ele>649.99</ele>
        <time>2020-07-11T08:33:17Z</time>
      </trkpt>
      <trkpt lat="38.1618966255" lon="-6.3137517963">
        <ele>651.43</ele>
        <time>2020-07-11T08:33:26Z</time>
      </trkpt>
      <trkpt lat="38.1620352622" lon="-6.3137424085">
        <ele>652.39</ele>
        <time>2020-07-11T08:33:35Z</time>
      </trkpt>
      <trkpt lat="38.1620573904" lon="-6.3137373794">
        <ele>652.87</ele>
        <time>2020-07-11T08:33:42Z</time>
      </trkpt>
      <trkpt lat="38.1620715559" lon="-6.3137486950">
        <ele>651.91</ele>
        <time>2020-07-11T08:33:52Z</time>
      </trkpt>
      <trkpt lat="38.1620835420" lon="-6.3137499522">
        <ele>652.39</ele>
        <time>2020-07-11T08:33:53Z</time>
      </trkpt>
      <trkpt lat="38.1620949414" lon="-6.3137436658">
        <ele>652.39</ele>
        <time>2020-07-11T08:33:54Z</time>
      </trkpt>
      <trkpt lat="38.1621046644" lon="-6.3137347810">
        <ele>652.39</ele>
        <time>2020-07-11T08:33:55Z</time>
      </trkpt>
      <trkpt lat="38.1621143036" lon="-6.3137256447">
        <ele>652.39</ele>
        <time>2020-07-11T08:33:56Z</time>
      </trkpt>
      <trkpt lat="38.1621254515" lon="-6.3137175981">
        <ele>652.39</ele>
        <time>2020-07-11T08:33:57Z</time>
      </trkpt>
      <trkpt lat="38.1621526927" lon="-6.3137000799">
        <ele>652.39</ele>
        <time>2020-07-11T08:34:03Z</time>
      </trkpt>
      <trkpt lat="38.1621520221" lon="-6.3136916980">
        <ele>653.35</ele>
        <time>2020-07-11T08:34:10Z</time>
      </trkpt>
      <trkpt lat="38.1621495076" lon="-6.3137092162">
        <ele>653.83</ele>
        <time>2020-07-11T08:34:31Z</time>
      </trkpt>
      <trkpt lat="38.1621557102" lon="-6.3137099706">
        <ele>653.35</ele>
        <time>2020-07-11T08:34:59Z</time>
      </trkpt>
      <trkpt lat="38.1621500943" lon="-6.3137130719">
        <ele>652.87</ele>
        <time>2020-07-11T08:35:27Z</time>
      </trkpt>
      <trkpt lat="38.1621450651" lon="-6.3137142453">
        <ele>651.91</ele>
        <time>2020-07-11T08:35:57Z</time>
      </trkpt>
      <trkpt lat="38.1621550396" lon="-6.3137061987">
        <ele>652.87</ele>
        <time>2020-07-11T08:36:14Z</time>
      </trkpt>
      <trkpt lat="38.1621722225" lon="-6.3136976492">
        <ele>652.87</ele>
        <time>2020-07-11T08:36:21Z</time>
      </trkpt>
      <trkpt lat="38.1621829513" lon="-6.3136953861">
        <ele>653.35</ele>
        <time>2020-07-11T08:36:22Z</time>
      </trkpt>
      <trkpt lat="38.1621947698" lon="-6.3136915304">
        <ele>653.35</ele>
        <time>2020-07-11T08:36:23Z</time>
      </trkpt>
      <trkpt lat="38.1622051634" lon="-6.3136887643">
        <ele>653.35</ele>
        <time>2020-07-11T08:36:24Z</time>
      </trkpt>
      <trkpt lat="38.1622169819" lon="-6.3136871718">
        <ele>653.35</ele>
        <time>2020-07-11T08:36:25Z</time>
      </trkpt>
      <trkpt lat="38.1622886471" lon="-6.3136718329">
        <ele>654.31</ele>
        <time>2020-07-11T08:36:34Z</time>
      </trkpt>
      <trkpt lat="38.1623466499" lon="-6.3136810530">
        <ele>654.31</ele>
        <time>2020-07-11T08:36:40Z</time>
      </trkpt>
      <trkpt lat="38.1625526771" lon="-6.3137216214">
        <ele>653.83</ele>
        <time>2020-07-11T08:36:47Z</time>
      </trkpt>
      <trkpt lat="38.1628965866" lon="-6.3137912750">
        <ele>653.35</ele>
        <time>2020-07-11T08:36:56Z</time>
      </trkpt>
      <trkpt lat="38.1631835829" lon="-6.3138678018">
        <ele>654.80</ele>
        <time>2020-07-11T08:37:05Z</time>
      </trkpt>
      <trkpt lat="38.1634569168" lon="-6.3139556441">
        <ele>656.24</ele>
        <time>2020-07-11T08:37:15Z</time>
      </trkpt>
      <trkpt lat="38.1636992376" lon="-6.3140669558">
        <ele>657.68</ele>
        <time>2020-07-11T08:37:24Z</time>
      </trkpt>
      <trkpt lat="38.1639351044" lon="-6.3142068498">
        <ele>657.20</ele>
        <time>2020-07-11T08:37:32Z</time>
      </trkpt>
      <trkpt lat="38.1639804505" lon="-6.3142219372">
        <ele>656.72</ele>
        <time>2020-07-11T08:37:33Z</time>
      </trkpt>
      <trkpt lat="38.1640304066" lon="-6.3142335881">
        <ele>656.24</ele>
        <time>2020-07-11T08:37:34Z</time>
      </trkpt>
      <trkpt lat="38.1640769262" lon="-6.3142397907">
        <ele>656.24</ele>
        <time>2020-07-11T08:37:35Z</time>
      </trkpt>
      <trkpt lat="38.1641294807" lon="-6.3142433111">
        <ele>655.76</ele>
        <time>2020-07-11T08:37:36Z</time>
      </trkpt>
      <trkpt lat="38.1641806941" lon="-6.3142427243">
        <ele>655.76</ele>
        <time>2020-07-11T08:37:37Z</time>
      </trkpt>
      <trkpt lat="38.1642314885" lon="-6.3142386172">
        <ele>655.28</ele>
        <time>2020-07-11T08:37:38Z</time>
      </trkpt>
      <trkpt lat="38.1642865576" lon="-6.3142287266">
        <ele>654.80</ele>
        <time>2020-07-11T08:37:39Z</time>
      </trkpt>
      <trkpt lat="38.1646815129" lon="-6.3141458295">
        <ele>652.39</ele>
        <time>2020-07-11T08:37:45Z</time>
      </trkpt>
      <trkpt lat="38.1649130210" lon="-6.3140899222">
        <ele>650.95</ele>
        <time>2020-07-11T08:37:48Z</time>
      </trkpt>
      <trkpt lat="38.1649948284" lon="-6.3140552212">
        <ele>650.47</ele>
        <time>2020-07-11T08:37:49Z</time>
      </trkpt>
      <trkpt lat="38.1655775383" lon="-6.3137306739">
        <ele>646.62</ele>
        <time>2020-07-11T08:37:56Z</time>
      </trkpt>
      <trkpt lat="38.1661463343" lon="-6.3132906239">
        <ele>643.26</ele>
        <time>2020-07-11T08:38:03Z</time>
      </trkpt>
      <trkpt lat="38.1665062532" lon="-6.3129713573">
        <ele>641.34</ele>
        <time>2020-07-11T08:38:08Z</time>
      </trkpt>
      <trkpt lat="38.1665845402" lon="-6.3129322138">
        <ele>641.34</ele>
        <time>2020-07-11T08:38:09Z</time>
      </trkpt>
      <trkpt lat="38.1666695327" lon="-6.3129039668">
        <ele>640.86</ele>
        <time>2020-07-11T08:38:10Z</time>
      </trkpt>
      <trkpt lat="38.1667538546" lon="-6.3128896337">
        <ele>640.86</ele>
        <time>2020-07-11T08:38:11Z</time>
      </trkpt>
      <trkpt lat="38.1668123603" lon="-6.3128924835">
        <ele>640.38</ele>
        <time>2020-07-11T08:38:12Z</time>
      </trkpt>
      <trkpt lat="38.1668460555" lon="-6.3128991053">
        <ele>640.38</ele>
        <time>2020-07-11T08:38:13Z</time>
      </trkpt>
      <trkpt lat="38.1669080816" lon="-6.3128958363">
        <ele>639.89</ele>
        <time>2020-07-11T08:38:18Z</time>
      </trkpt>
      <trkpt lat="38.1669370830" lon="-6.3128942437">
        <ele>640.38</ele>
        <time>2020-07-11T08:38:24Z</time>
      </trkpt>
      <trkpt lat="38.1671023741" lon="-6.3128919806">
        <ele>641.34</ele>
        <time>2020-07-11T08:38:31Z</time>
      </trkpt>
      <trkpt lat="38.1673925556" lon="-6.3128965069">
        <ele>640.86</ele>
        <time>2020-07-11T08:38:40Z</time>
      </trkpt>
      <trkpt lat="38.1676395703" lon="-6.3129579462">
        <ele>640.38</ele>
        <time>2020-07-11T08:38:47Z</time>
      </trkpt>
      <trkpt lat="38.1679963879" lon="-6.3130107522">
        <ele>639.89</ele>
        <time>2020-07-11T08:38:56Z</time>
      </trkpt>
      <trkpt lat="38.1683066022" lon="-6.3130408432">
        <ele>638.45</ele>
        <time>2020-07-11T08:39:03Z</time>
      </trkpt>
      <trkpt lat="38.1687560398" lon="-6.3129371591">
        <ele>637.01</ele>
        <time>2020-07-11T08:39:11Z</time>
      </trkpt>
      <trkpt lat="38.1690327264" lon="-6.3129151147">
        <ele>637.01</ele>
        <time>2020-07-11T08:39:16Z</time>
      </trkpt>
      <trkpt lat="38.1690870412" lon="-6.3129078224">
        <ele>637.01</ele>
        <time>2020-07-11T08:39:17Z</time>
      </trkpt>
      <trkpt lat="38.1696176156" lon="-6.3129623048">
        <ele>635.57</ele>
        <time>2020-07-11T08:39:26Z</time>
      </trkpt>
      <trkpt lat="38.1699790433" lon="-6.3130371552">
        <ele>635.57</ele>
        <time>2020-07-11T08:39:32Z</time>
      </trkpt>
      <trkpt lat="38.1704210211" lon="-6.3130048010">
        <ele>635.09</ele>
        <time>2020-07-11T08:39:40Z</time>
      </trkpt>
      <trkpt lat="38.1708239391" lon="-6.3130651508">
        <ele>634.61</ele>
        <time>2020-07-11T08:39:49Z</time>
      </trkpt>
      <trkpt lat="38.1712345686" lon="-6.3130901288">
        <ele>634.61</ele>
        <time>2020-07-11T08:40:00Z</time>
      </trkpt>
      <trkpt lat="38.1714559346" lon="-6.3130494766">
        <ele>632.68</ele>
        <time>2020-07-11T08:40:05Z</time>
      </trkpt>
      <trkpt lat="38.1715097465" lon="-6.3130522426">
        <ele>632.20</ele>
        <time>2020-07-11T08:40:06Z</time>
      </trkpt>
      <trkpt lat="38.1716161966" lon="-6.3130673300">
        <ele>631.24</ele>
        <time>2020-07-11T08:40:08Z</time>
      </trkpt>
      <trkpt lat="38.1720240600" lon="-6.3131917175">
        <ele>626.92</ele>
        <time>2020-07-11T08:40:15Z</time>
      </trkpt>
      <trkpt lat="38.1720889360" lon="-6.3131849281">
        <ele>626.44</ele>
        <time>2020-07-11T08:40:16Z</time>
      </trkpt>
      <trkpt lat="38.1721513811" lon="-6.3131692540">
        <ele>625.96</ele>
        <time>2020-07-11T08:40:17Z</time>
      </trkpt>
      <trkpt lat="38.1722196098" lon="-6.3131435215">
        <ele>625.47</ele>
        <time>2020-07-11T08:40:18Z</time>
      </trkpt>
      <trkpt lat="38.1722846534" lon="-6.3131154422">
        <ele>624.99</ele>
        <time>2020-07-11T08:40:19Z</time>
      </trkpt>
      <trkpt lat="38.1727811135" lon="-6.3128509093">
        <ele>623.07</ele>
        <time>2020-07-11T08:40:26Z</time>
      </trkpt>
      <trkpt lat="38.1728469115" lon="-6.3127895538">
        <ele>622.59</ele>
        <time>2020-07-11T08:40:27Z</time>
      </trkpt>
      <trkpt lat="38.1729137152" lon="-6.3127290364">
        <ele>622.11</ele>
        <time>2020-07-11T08:40:28Z</time>
      </trkpt>
      <trkpt lat="38.1729826983" lon="-6.3126908150">
        <ele>622.11</ele>
        <time>2020-07-11T08:40:29Z</time>
      </trkpt>
      <trkpt lat="38.1730562914" lon="-6.3126687706">
        <ele>622.11</ele>
        <time>2020-07-11T08:40:30Z</time>
      </trkpt>
      <trkpt lat="38.1731339078" lon="-6.3126572873">
        <ele>621.63</ele>
        <time>2020-07-11T08:40:31Z</time>
      </trkpt>
      <trkpt lat="38.1732081715" lon="-6.3126554433">
        <ele>621.63</ele>
        <time>2020-07-11T08:40:32Z</time>
      </trkpt>
      <trkpt lat="38.1732820999" lon="-6.3126624841">
        <ele>621.63</ele>
        <time>2020-07-11T08:40:33Z</time>
      </trkpt>
      <trkpt lat="38.1733630691" lon="-6.3126779906">
        <ele>621.15</ele>
        <time>2020-07-11T08:40:34Z</time>
      </trkpt>
      <trkpt lat="38.1734447926" lon="-6.3126932457">
        <ele>620.67</ele>
        <time>2020-07-11T08:40:35Z</time>
      </trkpt>
      <trkpt lat="38.1735316291" lon="-6.3127053995">
        <ele>619.71</ele>
        <time>2020-07-11T08:40:36Z</time>
      </trkpt>
      <trkpt lat="38.1741052028" lon="-6.3128307927">
        <ele>616.34</ele>
        <time>2020-07-11T08:40:42Z</time>
      </trkpt>
      <trkpt lat="38.1744933687" lon="-6.3129703514">
        <ele>614.90</ele>
        <time>2020-07-11T08:40:46Z</time>
      </trkpt>
      <trkpt lat="38.1745944545" lon="-6.3129721954">
        <ele>614.42</ele>
        <time>2020-07-11T08:40:47Z</time>
      </trkpt>
      <trkpt lat="38.1746767648" lon="-6.3129505701">
        <ele>613.94</ele>
        <time>2020-07-11T08:40:48Z</time>
      </trkpt>
      <trkpt lat="38.1747439876" lon="-6.3129142765">
        <ele>613.46</ele>
        <time>2020-07-11T08:40:49Z</time>
      </trkpt>
      <trkpt lat="38.1747932732" lon="-6.3128639013">
        <ele>612.98</ele>
        <time>2020-07-11T08:40:50Z</time>
      </trkpt>
      <trkpt lat="38.1748313271" lon="-6.3128049765">
        <ele>612.02</ele>
        <time>2020-07-11T08:40:51Z</time>
      </trkpt>
      <trkpt lat="38.1748578139" lon="-6.3127483986">
        <ele>611.54</ele>
        <time>2020-07-11T08:40:52Z</time>
      </trkpt>
      <trkpt lat="38.1748796906" lon="-6.3126891386">
        <ele>611.06</ele>
        <time>2020-07-11T08:40:53Z</time>
      </trkpt>
      <trkpt lat="38.1750279665" lon="-6.3122342527">
        <ele>608.17</ele>
        <time>2020-07-11T08:40:59Z</time>
      </trkpt>
      <trkpt lat="38.1751420442" lon="-6.3116947934">
        <ele>604.33</ele>
        <time>2020-07-11T08:41:05Z</time>
      </trkpt>
      <trkpt lat="38.1752464827" lon="-6.3112699986">
        <ele>600.48</ele>
        <time>2020-07-11T08:41:11Z</time>
      </trkpt>
      <trkpt lat="38.1753432099" lon="-6.3109954912">
        <ele>598.08</ele>
        <time>2020-07-11T08:41:15Z</time>
      </trkpt>
      <trkpt lat="38.1753722951" lon="-6.3109345548">
        <ele>597.60</ele>
        <time>2020-07-11T08:41:16Z</time>
      </trkpt>
      <trkpt lat="38.1755503267" lon="-6.3104823511">
        <ele>593.75</ele>
        <time>2020-07-11T08:41:22Z</time>
      </trkpt>
      <trkpt lat="38.1758451182" lon="-6.3096870761">
        <ele>587.98</ele>
        <time>2020-07-11T08:41:30Z</time>
      </trkpt>
      <trkpt lat="38.1761589367" lon="-6.3089448586">
        <ele>583.66</ele>
        <time>2020-07-11T08:41:38Z</time>
      </trkpt>
      <trkpt lat="38.1762395706" lon="-6.3088034559">
        <ele>582.70</ele>
        <time>2020-07-11T08:41:40Z</time>
      </trkpt>
      <trkpt lat="38.1762922928" lon="-6.3087384123">
        <ele>582.22</ele>
        <time>2020-07-11T08:41:41Z</time>
      </trkpt>
      <trkpt lat="38.1765710749" lon="-6.3083355781">
        <ele>581.25</ele>
        <time>2020-07-11T08:41:47Z</time>
      </trkpt>
      <trkpt lat="38.1767716538" lon="-6.3080285490">
        <ele>581.73</ele>
        <time>2020-07-11T08:41:52Z</time>
      </trkpt>
      <trkpt lat="38.1770210993" lon="-6.3077751640">
        <ele>582.70</ele>
        <time>2020-07-11T08:41:59Z</time>
      </trkpt>
      <trkpt lat="38.1771668606" lon="-6.3076271396">
        <ele>583.66</ele>
        <time>2020-07-11T08:42:06Z</time>
      </trkpt>
      <trkpt lat="38.1772129610" lon="-6.3075711485">
        <ele>584.14</ele>
        <time>2020-07-11T08:42:12Z</time>
      </trkpt>
      <trkpt lat="38.1772174872" lon="-6.3075789437">
        <ele>584.14</ele>
        <time>2020-07-11T08:42:27Z</time>
      </trkpt>
      <trkpt lat="38.1772428006" lon="-6.3075531274">
        <ele>585.10</ele>
        <time>2020-07-11T08:42:36Z</time>
      </trkpt>
      <trkpt lat="38.1773698702" lon="-6.3073888421">
        <ele>585.58</ele>
        <time>2020-07-11T08:42:43Z</time>
      </trkpt>
      <trkpt lat="38.1775608938" lon="-6.3071518019">
        <ele>585.58</ele>
        <time>2020-07-11T08:42:53Z</time>
      </trkpt>
      <trkpt lat="38.1776934955" lon="-6.3069577608">
        <ele>585.58</ele>
        <time>2020-07-11T08:43:01Z</time>
      </trkpt>
      <trkpt lat="38.1778042205" lon="-6.3068332057">
        <ele>586.06</ele>
        <time>2020-07-11T08:43:08Z</time>
      </trkpt>
      <trkpt lat="38.1778949127" lon="-6.3067243248">
        <ele>585.58</ele>
        <time>2020-07-11T08:43:13Z</time>
      </trkpt>
      <trkpt lat="38.1781104952" lon="-6.3065576088">
        <ele>584.14</ele>
        <time>2020-07-11T08:43:20Z</time>
      </trkpt>
      <trkpt lat="38.1782152690" lon="-6.3064882066">
        <ele>583.66</ele>
        <time>2020-07-11T08:43:25Z</time>
      </trkpt>
      <trkpt lat="38.1783706695" lon="-6.3063663337">
        <ele>582.22</ele>
        <time>2020-07-11T08:43:32Z</time>
      </trkpt>
      <trkpt lat="38.1786559895" lon="-6.3061260246">
        <ele>579.33</ele>
        <time>2020-07-11T08:43:38Z</time>
      </trkpt>
      <trkpt lat="38.1789974682" lon="-6.3057630043">
        <ele>576.93</ele>
        <time>2020-07-11T08:43:44Z</time>
      </trkpt>
      <trkpt lat="38.1793929264" lon="-6.3054807018">
        <ele>574.53</ele>
        <time>2020-07-11T08:43:50Z</time>
      </trkpt>
      <trkpt lat="38.1802532449" lon="-6.3050549850">
        <ele>569.72</ele>
        <time>2020-07-11T08:44:01Z</time>
      </trkpt>
      <trkpt lat="38.1807274930" lon="-6.3047264982">
        <ele>563.95</ele>
        <time>2020-07-11T08:44:06Z</time>
      </trkpt>
      <trkpt lat="38.1809685566" lon="-6.3044972531">
        <ele>562.03</ele>
        <time>2020-07-11T08:44:09Z</time>
      </trkpt>
      <trkpt lat="38.1810358632" lon="-6.3044006098">
        <ele>561.07</ele>
        <time>2020-07-11T08:44:10Z</time>
      </trkpt>
      <trkpt lat="38.1810884178" lon="-6.3042985182">
        <ele>560.59</ele>
        <time>2020-07-11T08:44:11Z</time>
      </trkpt>
      <trkpt lat="38.1811321713" lon="-6.3041905593">
        <ele>560.59</ele>
        <time>2020-07-11T08:44:12Z</time>
      </trkpt>
      <trkpt lat="38.1811778527" lon="-6.3040799182">
        <ele>560.11</ele>
        <time>2020-07-11T08:44:13Z</time>
      </trkpt>
      <trkpt lat="38.1812252942" lon="-6.3039834425">
        <ele>559.62</ele>
        <time>2020-07-11T08:44:14Z</time>
      </trkpt>
      <trkpt lat="38.1812760886" lon="-6.3039037306">
        <ele>559.14</ele>
        <time>2020-07-11T08:44:15Z</time>
      </trkpt>
      <trkpt lat="38.1813302357" lon="-6.3038386032">
        <ele>559.14</ele>
        <time>2020-07-11T08:44:16Z</time>
      </trkpt>
      <trkpt lat="38.1816614047" lon="-6.3034756668">
        <ele>557.22</ele>
        <time>2020-07-11T08:44:23Z</time>
      </trkpt>
      <trkpt lat="38.1819426175" lon="-6.3032344356">
        <ele>555.78</ele>
        <time>2020-07-11T08:44:29Z</time>
      </trkpt>
      <trkpt lat="38.1821300369" lon="-6.3030998223">
        <ele>554.82</ele>
        <time>2020-07-11T08:44:35Z</time>
      </trkpt>
      <trkpt lat="38.1823134329" lon="-6.3030072022">
        <ele>553.86</ele>
        <time>2020-07-11T08:44:45Z</time>
      </trkpt>
      <trkpt lat="38.1823198032" lon="-6.3030120637">
        <ele>553.86</ele>
        <time>2020-07-11T08:44:54Z</time>
      </trkpt>
      <trkpt lat="38.1823405903" lon="-6.3030132372">
        <ele>553.86</ele>
        <time>2020-07-11T08:45:02Z</time>
      </trkpt>
      <trkpt lat="38.1823445298" lon="-6.3030116446">
        <ele>553.86</ele>
        <time>2020-07-11T08:45:09Z</time>
      </trkpt>
      <trkpt lat="38.1823398359" lon="-6.3030134887">
        <ele>554.34</ele>
        <time>2020-07-11T08:45:27Z</time>
      </trkpt>
      <trkpt lat="38.1823339686" lon="-6.3030170929">
        <ele>554.34</ele>
        <time>2020-07-11T08:45:45Z</time>
      </trkpt>
      <trkpt lat="38.1823381595" lon="-6.3030152488">
        <ele>554.82</ele>
        <time>2020-07-11T08:46:04Z</time>
      </trkpt>
      <trkpt lat="38.1823410932" lon="-6.3030113932">
        <ele>555.30</ele>
        <time>2020-07-11T08:46:16Z</time>
      </trkpt>
      <trkpt lat="38.1823404226" lon="-6.3030110579">
        <ele>554.82</ele>
        <time>2020-07-11T08:46:26Z</time>
      </trkpt>
      <trkpt lat="38.1823519897" lon="-6.3030014187">
        <ele>554.82</ele>
        <time>2020-07-11T08:46:28Z</time>
      </trkpt>
      <trkpt lat="38.1824009400" lon="-6.3029282447">
        <ele>554.34</ele>
        <time>2020-07-11T08:46:33Z</time>
      </trkpt>
      <trkpt lat="38.1824083999" lon="-6.3029108942">
        <ele>554.82</ele>
        <time>2020-07-11T08:46:34Z</time>
      </trkpt>
      <trkpt lat="38.1824208889" lon="-6.3028961420">
        <ele>554.82</ele>
        <time>2020-07-11T08:46:39Z</time>
      </trkpt>
      <trkpt lat="38.1824260857" lon="-6.3029074576">
        <ele>554.34</ele>
        <time>2020-07-11T08:46:48Z</time>
      </trkpt>
      <trkpt lat="38.1824271753" lon="-6.3029067870">
        <ele>553.38</ele>
        <time>2020-07-11T08:47:05Z</time>
      </trkpt>
      <trkpt lat="38.1824252475" lon="-6.3029085472">
        <ele>553.38</ele>
        <time>2020-07-11T08:47:23Z</time>
      </trkpt>
      <trkpt lat="38.1824248284" lon="-6.3029118162">
        <ele>552.90</ele>
        <time>2020-07-11T08:47:40Z</time>
      </trkpt>
      <trkpt lat="38.1824317854" lon="-6.3029113971">
        <ele>552.90</ele>
        <time>2020-07-11T08:47:59Z</time>
      </trkpt>
      <trkpt lat="38.1824412569" lon="-6.3029088825">
        <ele>552.90</ele>
        <time>2020-07-11T08:48:23Z</time>
      </trkpt>
      <trkpt lat="38.1824389938" lon="-6.3029020932">
        <ele>552.41</ele>
        <time>2020-07-11T08:48:32Z</time>
      </trkpt>
      <trkpt lat="38.1824472919" lon="-6.3028345350">
        <ele>553.38</ele>
        <time>2020-07-11T08:48:39Z</time>
      </trkpt>
      <trkpt lat="38.1824455317" lon="-6.3028101437">
        <ele>553.86</ele>
        <time>2020-07-11T08:48:41Z</time>
      </trkpt>
      <trkpt lat="38.1824452803" lon="-6.3027986605">
        <ele>553.86</ele>
        <time>2020-07-11T08:48:42Z</time>
      </trkpt>
      <trkpt lat="38.1824452803" lon="-6.3027859200">
        <ele>553.86</ele>
        <time>2020-07-11T08:48:43Z</time>
      </trkpt>
      <trkpt lat="38.1824347191" lon="-6.3027509674">
        <ele>554.34</ele>
        <time>2020-07-11T08:48:46Z</time>
      </trkpt>
      <trkpt lat="38.1823729444" lon="-6.3026499655">
        <ele>554.82</ele>
        <time>2020-07-11T08:48:57Z</time>
      </trkpt>
      <trkpt lat="38.1823699269" lon="-6.3026412483">
        <ele>555.30</ele>
        <time>2020-07-11T08:49:04Z</time>
      </trkpt>
      <trkpt lat="38.1823376566" lon="-6.3025385700">
        <ele>556.74</ele>
        <time>2020-07-11T08:49:10Z</time>
      </trkpt>
      <trkpt lat="38.1822264288" lon="-6.3022827543">
        <ele>558.66</ele>
        <time>2020-07-11T08:49:21Z</time>
      </trkpt>
      <trkpt lat="38.1821624748" lon="-6.3020854443">
        <ele>559.62</ele>
        <time>2020-07-11T08:49:29Z</time>
      </trkpt>
      <trkpt lat="38.1821676716" lon="-6.3020614721">
        <ele>559.62</ele>
        <time>2020-07-11T08:49:30Z</time>
      </trkpt>
      <trkpt lat="38.1821801607" lon="-6.3020373322">
        <ele>559.62</ele>
        <time>2020-07-11T08:49:31Z</time>
      </trkpt>
      <trkpt lat="38.1821932364" lon="-6.3020186406">
        <ele>560.11</ele>
        <time>2020-07-11T08:49:32Z</time>
      </trkpt>
      <trkpt lat="38.1822054740" lon="-6.3020112645">
        <ele>560.11</ele>
        <time>2020-07-11T08:49:33Z</time>
      </trkpt>
      <trkpt lat="38.1822239980" lon="-6.3020071574">
        <ele>560.59</ele>
        <time>2020-07-11T08:49:34Z</time>
      </trkpt>
      <trkpt lat="38.1822434440" lon="-6.3020009547">
        <ele>560.59</ele>
        <time>2020-07-11T08:49:35Z</time>
      </trkpt>
      <trkpt lat="38.1822599564" lon="-6.3019951712">
        <ele>561.07</ele>
        <time>2020-07-11T08:49:36Z</time>
      </trkpt>
      <trkpt lat="38.1822763011" lon="-6.3019908126">
        <ele>561.07</ele>
        <time>2020-07-11T08:49:37Z</time>
      </trkpt>
      <trkpt lat="38.1824072264" lon="-6.3020026311">
        <ele>561.55</ele>
        <time>2020-07-11T08:49:45Z</time>
      </trkpt>
      <trkpt lat="38.1825788040" lon="-6.3020159584">
        <ele>561.55</ele>
        <time>2020-07-11T08:49:53Z</time>
      </trkpt>
      <trkpt lat="38.1828104798" lon="-6.3019529264">
        <ele>562.51</ele>
        <time>2020-07-11T08:50:02Z</time>
      </trkpt>
      <trkpt lat="38.1829895172" lon="-6.3018726278">
        <ele>562.03</ele>
        <time>2020-07-11T08:50:09Z</time>
      </trkpt>
      <trkpt lat="38.1832438242" lon="-6.3016959373">
        <ele>561.55</ele>
        <time>2020-07-11T08:50:18Z</time>
      </trkpt>
      <trkpt lat="38.1835067645" lon="-6.3014956098">
        <ele>560.59</ele>
        <time>2020-07-11T08:50:27Z</time>
      </trkpt>
      <trkpt lat="38.1836936809" lon="-6.3014312368">
        <ele>562.03</ele>
        <time>2020-07-11T08:50:33Z</time>
      </trkpt>
      <trkpt lat="38.1839627400" lon="-6.3013544586">
        <ele>563.47</ele>
        <time>2020-07-11T08:50:42Z</time>
      </trkpt>
      <trkpt lat="38.1841731258" lon="-6.3013190869">
        <ele>564.91</ele>
        <time>2020-07-11T08:50:50Z</time>
      </trkpt>
      <trkpt lat="38.1843726151" lon="-6.3013541233">
        <ele>565.39</ele>
        <time>2020-07-11T08:50:59Z</time>
      </trkpt>
      <trkpt lat="38.1845648121" lon="-6.3014303148">
        <ele>566.83</ele>
        <time>2020-07-11T08:51:08Z</time>
      </trkpt>
      <trkpt lat="38.1847436819" lon="-6.3015880622">
        <ele>568.28</ele>
        <time>2020-07-11T08:51:18Z</time>
      </trkpt>
      <trkpt lat="38.1848787982" lon="-6.3017737214">
        <ele>568.76</ele>
        <time>2020-07-11T08:51:28Z</time>
      </trkpt>
      <trkpt lat="38.1848976575" lon="-6.3018038962">
        <ele>568.76</ele>
        <time>2020-07-11T08:51:30Z</time>
      </trkpt>
      <trkpt lat="38.1849102303" lon="-6.3018179778">
        <ele>568.76</ele>
        <time>2020-07-11T08:51:31Z</time>
      </trkpt>
      <trkpt lat="38.1850332767" lon="-6.3019807544">
        <ele>568.28</ele>
        <time>2020-07-11T08:51:40Z</time>
      </trkpt>
      <trkpt lat="38.1852199417" lon="-6.3021240011">
        <ele>567.32</ele>
        <time>2020-07-11T08:51:47Z</time>
      </trkpt>
      <trkpt lat="38.1853896752" lon="-6.3021908887">
        <ele>566.83</ele>
        <time>2020-07-11T08:51:51Z</time>
      </trkpt>
      <trkpt lat="38.1857702136" lon="-6.3022408448">
        <ele>566.35</ele>
        <time>2020-07-11T08:51:59Z</time>
      </trkpt>
      <trkpt lat="38.1861194875" lon="-6.3022471312">
        <ele>566.35</ele>
        <time>2020-07-11T08:52:08Z</time>
      </trkpt>
      <trkpt lat="38.1865125988" lon="-6.3022276014">
        <ele>567.32</ele>
        <time>2020-07-11T08:52:17Z</time>
      </trkpt>
      <trkpt lat="38.1865526643" lon="-6.3022282720">
        <ele>567.80</ele>
        <time>2020-07-11T08:52:18Z</time>
      </trkpt>
      <trkpt lat="38.1868798099" lon="-6.3021830097">
        <ele>569.24</ele>
        <time>2020-07-11T08:52:27Z</time>
      </trkpt>
      <trkpt lat="38.1870881002" lon="-6.3021509070">
        <ele>569.72</ele>
        <time>2020-07-11T08:52:34Z</time>
      </trkpt>
      <trkpt lat="38.1872437522" lon="-6.3021223247">
        <ele>569.24</ele>
        <time>2020-07-11T08:52:41Z</time>
      </trkpt>
      <trkpt lat="38.1875557266" lon="-6.3020914793">
        <ele>567.32</ele>
        <time>2020-07-11T08:52:47Z</time>
      </trkpt>
      <trkpt lat="38.1880261190" lon="-6.3020442892">
        <ele>564.91</ele>
        <time>2020-07-11T08:52:53Z</time>
      </trkpt>
      <trkpt lat="38.1886263471" lon="-6.3020464685">
        <ele>562.99</ele>
        <time>2020-07-11T08:53:00Z</time>
      </trkpt>
      <trkpt lat="38.1890090648" lon="-6.3020950835">
        <ele>563.47</ele>
        <time>2020-07-11T08:53:06Z</time>
      </trkpt>
      <trkpt lat="38.1892088056" lon="-6.3021073211">
        <ele>564.91</ele>
        <time>2020-07-11T08:53:12Z</time>
      </trkpt>
      <trkpt lat="38.1894801278" lon="-6.3021322154">
        <ele>564.43</ele>
        <time>2020-07-11T08:53:21Z</time>
      </trkpt>
      <trkpt lat="38.1896152440" lon="-6.3021266833">
        <ele>563.47</ele>
        <time>2020-07-11T08:53:24Z</time>
      </trkpt>
      <trkpt lat="38.1896699779" lon="-6.3021129370">
        <ele>562.99</ele>
        <time>2020-07-11T08:53:25Z</time>
      </trkpt>
      <trkpt lat="38.1898568943" lon="-6.3020571135">
        <ele>562.03</ele>
        <time>2020-07-11T08:53:28Z</time>
      </trkpt>
      <trkpt lat="38.1899122987" lon="-6.3020515814">
        <ele>562.03</ele>
        <time>2020-07-11T08:53:29Z</time>
      </trkpt>
      <trkpt lat="38.1902139634" lon="-6.3020318002">
        <ele>562.51</ele>
        <time>2020-07-11T08:53:35Z</time>
      </trkpt>
      <trkpt lat="38.1904181466" lon="-6.3020141143">
        <ele>563.95</ele>
        <time>2020-07-11T08:53:42Z</time>
      </trkpt>
      <trkpt lat="38.1906972639" lon="-6.3019620627">
        <ele>564.91</ele>
        <time>2020-07-11T08:53:52Z</time>
      </trkpt>
      <trkpt lat="38.1910320371" lon="-6.3018966839">
        <ele>566.35</ele>
        <time>2020-07-11T08:54:04Z</time>
      </trkpt>
      <trkpt lat="38.1912347116" lon="-6.3018636592">
        <ele>567.32</ele>
        <time>2020-07-11T08:54:13Z</time>
      </trkpt>
      <trkpt lat="38.1914377213" lon="-6.3018323947">
        <ele>568.28</ele>
        <time>2020-07-11T08:54:22Z</time>
      </trkpt>
      <trkpt lat="38.1916107237" lon="-6.3017972745">
        <ele>569.24</ele>
        <time>2020-07-11T08:54:30Z</time>
      </trkpt>
      <trkpt lat="38.1917653698" lon="-6.3017723802">
        <ele>569.72</ele>
        <time>2020-07-11T08:54:38Z</time>
      </trkpt>
      <trkpt lat="38.1919720676" lon="-6.3017423730">
        <ele>570.20</ele>
        <time>2020-07-11T08:54:49Z</time>
      </trkpt>
      <trkpt lat="38.1921027415" lon="-6.3017266989">
        <ele>571.16</ele>
        <time>2020-07-11T08:54:57Z</time>
      </trkpt>
      <trkpt lat="38.1922416296" lon="-6.3017213345">
        <ele>572.12</ele>
        <time>2020-07-11T08:55:05Z</time>
      </trkpt>
      <trkpt lat="38.1923897378" lon="-6.3017130364">
        <ele>574.04</ele>
        <time>2020-07-11T08:55:14Z</time>
      </trkpt>
      <trkpt lat="38.1924021430" lon="-6.3017080911">
        <ele>573.56</ele>
        <time>2020-07-11T08:55:20Z</time>
      </trkpt>
      <trkpt lat="38.1925102696" lon="-6.3017017208">
        <ele>575.49</ele>
        <time>2020-07-11T08:55:31Z</time>
      </trkpt>
      <trkpt lat="38.1925602257" lon="-6.3017090131">
        <ele>576.45</ele>
        <time>2020-07-11T08:55:36Z</time>
      </trkpt>
      <trkpt lat="38.1925732177" lon="-6.3017135393">
        <ele>576.45</ele>
        <time>2020-07-11T08:55:37Z</time>
      </trkpt>
      <trkpt lat="38.1925857067" lon="-6.3017156348">
        <ele>576.45</ele>
        <time>2020-07-11T08:55:38Z</time>
      </trkpt>
      <trkpt lat="38.1925976928" lon="-6.3017155509">
        <ele>576.93</ele>
        <time>2020-07-11T08:55:39Z</time>
      </trkpt>
      <trkpt lat="38.1926106010" lon="-6.3017161377">
        <ele>576.93</ele>
        <time>2020-07-11T08:55:40Z</time>
      </trkpt>
      <trkpt lat="38.1927487347" lon="-6.3017008826">
        <ele>578.37</ele>
        <time>2020-07-11T08:55:52Z</time>
      </trkpt>
      <trkpt lat="38.1928847730" lon="-6.3016955182">
        <ele>579.81</ele>
        <time>2020-07-11T08:56:03Z</time>
      </trkpt>
      <trkpt lat="38.1930056401" lon="-6.3016957697">
        <ele>580.77</ele>
        <time>2020-07-11T08:56:13Z</time>
      </trkpt>
      <trkpt lat="38.1931568496" lon="-6.3016970269">
        <ele>582.22</ele>
        <time>2020-07-11T08:56:25Z</time>
      </trkpt>
      <trkpt lat="38.1932839192" lon="-6.3016925845">
        <ele>584.14</ele>
        <time>2020-07-11T08:56:37Z</time>
      </trkpt>
      <trkpt lat="38.1934140064" lon="-6.3016857952">
        <ele>586.06</ele>
        <time>2020-07-11T08:56:49Z</time>
      </trkpt>
      <trkpt lat="38.1935480330" lon="-6.3016879745">
        <ele>587.98</ele>
        <time>2020-07-11T08:57:00Z</time>
      </trkpt>
      <trkpt lat="38.1937362906" lon="-6.3016778324">
        <ele>588.95</ele>
        <time>2020-07-11T08:57:15Z</time>
      </trkpt>
      <trkpt lat="38.1937781163" lon="-6.3016774133">
        <ele>589.43</ele>
        <time>2020-07-11T08:57:23Z</time>
      </trkpt>
      <trkpt lat="38.1937735062" lon="-6.3016731385">
        <ele>589.43</ele>
        <time>2020-07-11T08:57:45Z</time>
      </trkpt>
      <trkpt lat="38.1937805470" lon="-6.3016572129">
        <ele>589.91</ele>
        <time>2020-07-11T08:58:11Z</time>
      </trkpt>
      <trkpt lat="38.1937761046" lon="-6.3016811851">
        <ele>589.91</ele>
        <time>2020-07-11T08:58:33Z</time>
      </trkpt>
      <trkpt lat="38.1937657110" lon="-6.3016754854">
        <ele>588.95</ele>
        <time>2020-07-11T08:59:03Z</time>
      </trkpt>
      <trkpt lat="38.1937677227" lon="-6.3016790058">
        <ele>588.46</ele>
        <time>2020-07-11T08:59:35Z</time>
      </trkpt>
      <trkpt lat="38.1937719975" lon="-6.3016639184">
        <ele>587.50</ele>
        <time>2020-07-11T08:59:58Z</time>
      </trkpt>
      <trkpt lat="38.1938118953" lon="-6.3016670197">
        <ele>587.02</ele>
        <time>2020-07-11T09:00:06Z</time>
      </trkpt>
      <trkpt lat="38.1939755939" lon="-6.3016558718">
        <ele>587.98</ele>
        <time>2020-07-11T09:00:14Z</time>
      </trkpt>
      <trkpt lat="38.1941631809" lon="-6.3016764913">
        <ele>588.46</ele>
        <time>2020-07-11T09:00:22Z</time>
      </trkpt>
      <trkpt lat="38.1944304798" lon="-6.3016936742">
        <ele>589.91</ele>
        <time>2020-07-11T09:00:32Z</time>
      </trkpt>
      <trkpt lat="38.1946318969" lon="-6.3017152995">
        <ele>590.39</ele>
        <time>2020-07-11T09:00:40Z</time>
      </trkpt>
      <trkpt lat="38.1948628183" lon="-6.3016987871">
        <ele>592.31</ele>
        <time>2020-07-11T09:00:49Z</time>
      </trkpt>
      <trkpt lat="38.1950899679" lon="-6.3016674388">
        <ele>593.75</ele>
        <time>2020-07-11T09:00:58Z</time>
      </trkpt>
      <trkpt lat="38.1952850986" lon="-6.3016557880">
        <ele>594.23</ele>
        <time>2020-07-11T09:01:07Z</time>
      </trkpt>
      <trkpt lat="38.1954865158" lon="-6.3016729709">
        <ele>593.75</ele>
        <time>2020-07-11T09:01:16Z</time>
      </trkpt>
      <trkpt lat="38.1957764458" lon="-6.3017276209">
        <ele>591.83</ele>
        <time>2020-07-11T09:01:22Z</time>
      </trkpt>
      <trkpt lat="38.1962179206" lon="-6.3019006234">
        <ele>589.91</ele>
        <time>2020-07-11T09:01:29Z</time>
      </trkpt>
      <trkpt lat="38.1963853072" lon="-6.3019705284">
        <ele>589.43</ele>
        <time>2020-07-11T09:01:33Z</time>
      </trkpt>
      <trkpt lat="38.1965494249" lon="-6.3020328060">
        <ele>590.39</ele>
        <time>2020-07-11T09:01:39Z</time>
      </trkpt>
      <trkpt lat="38.1967481598" lon="-6.3020868693">
        <ele>592.79</ele>
        <time>2020-07-11T09:01:47Z</time>
      </trkpt>
      <trkpt lat="38.1968962681" lon="-6.3021315448">
        <ele>593.75</ele>
        <time>2020-07-11T09:01:54Z</time>
      </trkpt>
      <trkpt lat="38.1969103497" lon="-6.3021369092">
        <ele>593.75</ele>
        <time>2020-07-11T09:01:55Z</time>
      </trkpt>
      <trkpt lat="38.1969243474" lon="-6.3021425251">
        <ele>593.75</ele>
        <time>2020-07-11T09:01:56Z</time>
      </trkpt>
      <trkpt lat="38.1969435420" lon="-6.3021480571">
        <ele>593.75</ele>
        <time>2020-07-11T09:01:57Z</time>
      </trkpt>
      <trkpt lat="38.1969586294" lon="-6.3021519128">
        <ele>593.75</ele>
        <time>2020-07-11T09:01:58Z</time>
      </trkpt>
      <trkpt lat="38.1969788298" lon="-6.3021549303">
        <ele>593.75</ele>
        <time>2020-07-11T09:01:59Z</time>
      </trkpt>
      <trkpt lat="38.1970050652" lon="-6.3021567743">
        <ele>593.27</ele>
        <time>2020-07-11T09:02:00Z</time>
      </trkpt>
      <trkpt lat="38.1972390879" lon="-6.3021949120">
        <ele>592.31</ele>
        <time>2020-07-11T09:02:06Z</time>
      </trkpt>
      <trkpt lat="38.1976586860" lon="-6.3022689242">
        <ele>592.31</ele>
        <time>2020-07-11T09:02:15Z</time>
      </trkpt>
      <trkpt lat="38.1978171878" lon="-6.3022985123">
        <ele>593.27</ele>
        <time>2020-07-11T09:02:21Z</time>
      </trkpt>
      <trkpt lat="38.1980642024" lon="-6.3023471273">
        <ele>594.71</ele>
        <time>2020-07-11T09:02:32Z</time>
      </trkpt>
      <trkpt lat="38.1981989834" lon="-6.3023699261">
        <ele>595.19</ele>
        <time>2020-07-11T09:02:39Z</time>
      </trkpt>
      <trkpt lat="38.1983394641" lon="-6.3023604546">
        <ele>596.64</ele>
        <time>2020-07-11T09:02:49Z</time>
      </trkpt>
      <trkpt lat="38.1985510234" lon="-6.3023268431">
        <ele>598.08</ele>
        <time>2020-07-11T09:03:01Z</time>
      </trkpt>
      <trkpt lat="38.1987376884" lon="-6.3022972550">
        <ele>599.52</ele>
        <time>2020-07-11T09:03:11Z</time>
      </trkpt>
      <trkpt lat="38.1988989562" lon="-6.3022744562">
        <ele>600.96</ele>
        <time>2020-07-11T09:03:20Z</time>
      </trkpt>
      <trkpt lat="38.1990545243" lon="-6.3022583630">
        <ele>602.88</ele>
        <time>2020-07-11T09:03:28Z</time>
      </trkpt>
      <trkpt lat="38.1992467213" lon="-6.3022229075">
        <ele>604.33</ele>
        <time>2020-07-11T09:03:38Z</time>
      </trkpt>
      <trkpt lat="38.1994058099" lon="-6.3021840155">
        <ele>606.25</ele>
        <time>2020-07-11T09:03:47Z</time>
      </trkpt>
      <trkpt lat="38.1995736994" lon="-6.3021530863">
        <ele>607.21</ele>
        <time>2020-07-11T09:03:57Z</time>
      </trkpt>
      <trkpt lat="38.1997678243" lon="-6.3021169603">
        <ele>608.17</ele>
        <time>2020-07-11T09:04:08Z</time>
      </trkpt>
      <trkpt lat="38.1999249849" lon="-6.3020815048">
        <ele>609.61</ele>
        <time>2020-07-11T09:04:18Z</time>
      </trkpt>
      <trkpt lat="38.2000836544" lon="-6.3020538446">
        <ele>610.09</ele>
        <time>2020-07-11T09:04:28Z</time>
      </trkpt>
      <trkpt lat="38.2002777793" lon="-6.3020050619">
        <ele>610.57</ele>
        <time>2020-07-11T09:04:39Z</time>
      </trkpt>
      <trkpt lat="38.2004988100" lon="-6.3019389287">
        <ele>611.06</ele>
        <time>2020-07-11T09:04:51Z</time>
      </trkpt>
      <trkpt lat="38.2007277198" lon="-6.3018581271">
        <ele>612.02</ele>
        <time>2020-07-11T09:05:03Z</time>
      </trkpt>
      <trkpt lat="38.2009628322" lon="-6.3017782476">
        <ele>612.98</ele>
        <time>2020-07-11T09:05:15Z</time>
      </trkpt>
      <trkpt lat="38.2011468988" lon="-6.3017067499">
        <ele>614.42</ele>
        <time>2020-07-11T09:05:25Z</time>
      </trkpt>
      <trkpt lat="38.2013330609" lon="-6.3016439695">
        <ele>616.34</ele>
        <time>2020-07-11T09:05:35Z</time>
      </trkpt>
      <trkpt lat="38.2015724480" lon="-6.3015697058">
        <ele>619.23</ele>
        <time>2020-07-11T09:05:48Z</time>
      </trkpt>
      <trkpt lat="38.2017611247" lon="-6.3015165646">
        <ele>620.67</ele>
        <time>2020-07-11T09:05:58Z</time>
      </trkpt>
      <trkpt lat="38.2018877752" lon="-6.3014754932">
        <ele>622.11</ele>
        <time>2020-07-11T09:06:06Z</time>
      </trkpt>
      <trkpt lat="38.2020461094" lon="-6.3014200050">
        <ele>622.59</ele>
        <time>2020-07-11T09:06:15Z</time>
      </trkpt>
      <trkpt lat="38.2022067904" lon="-6.3013841305">
        <ele>622.11</ele>
        <time>2020-07-11T09:06:24Z</time>
      </trkpt>
      <trkpt lat="38.2024701498" lon="-6.3013145607">
        <ele>620.19</ele>
        <time>2020-07-11T09:06:31Z</time>
      </trkpt>
      <trkpt lat="38.2025237940" lon="-6.3012896664">
        <ele>619.71</ele>
        <time>2020-07-11T09:06:32Z</time>
      </trkpt>
      <trkpt lat="38.2025752589" lon="-6.3012588210">
        <ele>619.23</ele>
        <time>2020-07-11T09:06:33Z</time>
      </trkpt>
      <trkpt lat="38.2026260532" lon="-6.3012225274">
        <ele>618.75</ele>
        <time>2020-07-11T09:06:34Z</time>
      </trkpt>
      <trkpt lat="38.2028356846" lon="-6.3010468427">
        <ele>617.78</ele>
        <time>2020-07-11T09:06:38Z</time>
      </trkpt>
      <trkpt lat="38.2028898317" lon="-6.3010192662">
        <ele>617.78</ele>
        <time>2020-07-11T09:06:39Z</time>
      </trkpt>
      <trkpt lat="38.2029452361" lon="-6.3010007422">
        <ele>618.26</ele>
        <time>2020-07-11T09:06:40Z</time>
      </trkpt>
      <trkpt lat="38.2030026522" lon="-6.3009918574">
        <ele>618.26</ele>
        <time>2020-07-11T09:06:41Z</time>
      </trkpt>
      <trkpt lat="38.2030537818" lon="-6.3009911031">
        <ele>618.26</ele>
        <time>2020-07-11T09:06:42Z</time>
      </trkpt>
      <trkpt lat="38.2031043246" lon="-6.3009972218">
        <ele>618.26</ele>
        <time>2020-07-11T09:06:43Z</time>
      </trkpt>
      <trkpt lat="38.2031499222" lon="-6.3010070287">
        <ele>618.26</ele>
        <time>2020-07-11T09:06:44Z</time>
      </trkpt>
      <trkpt lat="38.2031910773" lon="-6.3010188472">
        <ele>618.75</ele>
        <time>2020-07-11T09:06:45Z</time>
      </trkpt>
      <trkpt lat="38.2033811789" lon="-6.3010857347">
        <ele>619.23</ele>
        <time>2020-07-11T09:06:52Z</time>
      </trkpt>
      <trkpt lat="38.2036157884" lon="-6.3011454977">
        <ele>621.15</ele>
        <time>2020-07-11T09:07:03Z</time>
      </trkpt>
      <trkpt lat="38.2037821691" lon="-6.3011274766">
        <ele>622.59</ele>
        <time>2020-07-11T09:07:11Z</time>
      </trkpt>
      <trkpt lat="38.2039548364" lon="-6.3010990620">
        <ele>624.03</ele>
        <time>2020-07-11T09:07:19Z</time>
      </trkpt>
      <trkpt lat="38.2041890267" lon="-6.3010393828">
        <ele>625.47</ele>
        <time>2020-07-11T09:07:30Z</time>
      </trkpt>
      <trkpt lat="38.2043635380" lon="-6.3009900972">
        <ele>626.44</ele>
        <time>2020-07-11T09:07:39Z</time>
      </trkpt>
      <trkpt lat="38.2044983190" lon="-6.3009781111">
        <ele>626.92</ele>
        <time>2020-07-11T09:07:48Z</time>
      </trkpt>
      <trkpt lat="38.2046321779" lon="-6.3009868283">
        <ele>626.92</ele>
        <time>2020-07-11T09:07:57Z</time>
      </trkpt>
      <trkpt lat="38.2047020830" lon="-6.3009926118">
        <ele>626.44</ele>
        <time>2020-07-11T09:08:06Z</time>
      </trkpt>
      <trkpt lat="38.2046971377" lon="-6.3009972218">
        <ele>625.47</ele>
        <time>2020-07-11T09:08:18Z</time>
      </trkpt>
      <trkpt lat="38.2047021668" lon="-6.3009973895">
        <ele>625.96</ele>
        <time>2020-07-11T09:08:34Z</time>
      </trkpt>
      <trkpt lat="38.2047056872" lon="-6.3009937853">
        <ele>625.96</ele>
        <time>2020-07-11T09:08:52Z</time>
      </trkpt>
      <trkpt lat="38.2047083694" lon="-6.3009911031">
        <ele>625.96</ele>
        <time>2020-07-11T09:09:15Z</time>
      </trkpt>
      <trkpt lat="38.2047009096" lon="-6.3009928633">
        <ele>625.47</ele>
        <time>2020-07-11T09:09:35Z</time>
      </trkpt>
      <trkpt lat="38.2046982273" lon="-6.3009939529">
        <ele>625.47</ele>
        <time>2020-07-11T09:09:51Z</time>
      </trkpt>
      <trkpt lat="38.2047030050" lon="-6.3010031730">
        <ele>625.96</ele>
        <time>2020-07-11T09:10:09Z</time>
      </trkpt>
      <trkpt lat="38.2047033403" lon="-6.3009931985">
        <ele>625.47</ele>
        <time>2020-07-11T09:10:28Z</time>
      </trkpt>
      <trkpt lat="38.2047110517" lon="-6.3009915221">
        <ele>624.99</ele>
        <time>2020-07-11T09:10:43Z</time>
      </trkpt>
      <trkpt lat="38.2047148235" lon="-6.3009841461">
        <ele>626.92</ele>
        <time>2020-07-11T09:11:04Z</time>
      </trkpt>
      <trkpt lat="38.2047119737" lon="-6.3009919412">
        <ele>625.47</ele>
        <time>2020-07-11T09:11:17Z</time>
      </trkpt>
      <trkpt lat="38.2047131471" lon="-6.3010031730">
        <ele>625.47</ele>
        <time>2020-07-11T09:11:34Z</time>
      </trkpt>
      <trkpt lat="38.2047523744" lon="-6.3010064419">
        <ele>625.47</ele>
        <time>2020-07-11T09:11:43Z</time>
      </trkpt>
      <trkpt lat="38.2049388718" lon="-6.3010277320">
        <ele>624.51</ele>
        <time>2020-07-11T09:11:50Z</time>
      </trkpt>
      <trkpt lat="38.2051603217" lon="-6.3010086212">
        <ele>623.55</ele>
        <time>2020-07-11T09:11:57Z</time>
      </trkpt>
      <trkpt lat="38.2052363455" lon="-6.3010028377">
        <ele>623.07</ele>
        <time>2020-07-11T09:11:59Z</time>
      </trkpt>
      <trkpt lat="38.2052806858" lon="-6.3010083698">
        <ele>623.07</ele>
        <time>2020-07-11T09:12:00Z</time>
      </trkpt>
      <trkpt lat="38.2057494856" lon="-6.3011301588">
        <ele>620.67</ele>
        <time>2020-07-11T09:12:10Z</time>
      </trkpt>
      <trkpt lat="38.2061424293" lon="-6.3012413867">
        <ele>618.75</ele>
        <time>2020-07-11T09:12:17Z</time>
      </trkpt>
      <trkpt lat="38.2062034495" lon="-6.3012506906">
        <ele>618.26</ele>
        <time>2020-07-11T09:12:18Z</time>
      </trkpt>
      <trkpt lat="38.2062581833" lon="-6.3012542110">
        <ele>618.26</ele>
        <time>2020-07-11T09:12:19Z</time>
      </trkpt>
      <trkpt lat="38.2063684054" lon="-6.3012439851">
        <ele>617.78</ele>
        <time>2020-07-11T09:12:21Z</time>
      </trkpt>
      <trkpt lat="38.2064155955" lon="-6.3012364414">
        <ele>617.78</ele>
        <time>2020-07-11T09:12:22Z</time>
      </trkpt>
      <trkpt lat="38.2065231353" lon="-6.3012290653">
        <ele>617.30</ele>
        <time>2020-07-11T09:12:24Z</time>
      </trkpt>
      <trkpt lat="38.2068815455" lon="-6.3012906723">
        <ele>614.90</ele>
        <time>2020-07-11T09:12:30Z</time>
      </trkpt>
      <trkpt lat="38.2070012391" lon="-6.3013221882">
        <ele>613.94</ele>
        <time>2020-07-11T09:12:32Z</time>
      </trkpt>
      <trkpt lat="38.2075349148" lon="-6.3013608288">
        <ele>611.06</ele>
        <time>2020-07-11T09:12:40Z</time>
      </trkpt>
      <trkpt lat="38.2080804091" lon="-6.3012632634">
        <ele>608.65</ele>
        <time>2020-07-11T09:12:48Z</time>
      </trkpt>
      <trkpt lat="38.2086790446" lon="-6.3009671308">
        <ele>607.69</ele>
        <time>2020-07-11T09:12:57Z</time>
      </trkpt>
      <trkpt lat="38.2090082020" lon="-6.3008010015">
        <ele>606.25</ele>
        <time>2020-07-11T09:13:02Z</time>
      </trkpt>
      <trkpt lat="38.2090789452" lon="-6.3007844891">
        <ele>605.77</ele>
        <time>2020-07-11T09:13:03Z</time>
      </trkpt>
      <trkpt lat="38.2091527060" lon="-6.3007802144">
        <ele>605.77</ele>
        <time>2020-07-11T09:13:04Z</time>
      </trkpt>
      <trkpt lat="38.2096947636" lon="-6.3008405641">
        <ele>603.36</ele>
        <time>2020-07-11T09:13:11Z</time>
      </trkpt>
      <trkpt lat="38.2107119914" lon="-6.3009712379">
        <ele>600.00</ele>
        <time>2020-07-11T09:13:23Z</time>
      </trkpt>
      <trkpt lat="38.2112545520" lon="-6.3010631874">
        <ele>596.15</ele>
        <time>2020-07-11T09:13:29Z</time>
      </trkpt>
      <trkpt lat="38.2121375017" lon="-6.3012924325">
        <ele>592.79</ele>
        <time>2020-07-11T09:13:38Z</time>
      </trkpt>
      <trkpt lat="38.2126423437" lon="-6.3014359307">
        <ele>592.79</ele>
        <time>2020-07-11T09:13:44Z</time>
      </trkpt>
      <trkpt lat="38.2131719962" lon="-6.3016432151">
        <ele>591.83</ele>
        <time>2020-07-11T09:13:51Z</time>
      </trkpt>
      <trkpt lat="38.2135607488" lon="-6.3017852046">
        <ele>591.35</ele>
        <time>2020-07-11T09:13:57Z</time>
      </trkpt>
      <trkpt lat="38.2137706317" lon="-6.3017960172">
        <ele>590.87</ele>
        <time>2020-07-11T09:14:02Z</time>
      </trkpt>
      <trkpt lat="38.2141556125" lon="-6.3017080072">
        <ele>589.91</ele>
        <time>2020-07-11T09:14:10Z</time>
      </trkpt>
      <trkpt lat="38.2147318684" lon="-6.3015728910">
        <ele>587.98</ele>
        <time>2020-07-11T09:14:20Z</time>
      </trkpt>
      <trkpt lat="38.2149755303" lon="-6.3015300594">
        <ele>587.02</ele>
        <time>2020-07-11T09:14:24Z</time>
      </trkpt>
      <trkpt lat="38.2155282330" lon="-6.3014715537">
        <ele>586.06</ele>
        <time>2020-07-11T09:14:32Z</time>
      </trkpt>
      <trkpt lat="38.2160284650" lon="-6.3013758324">
        <ele>586.06</ele>
        <time>2020-07-11T09:14:40Z</time>
      </trkpt>
      <trkpt lat="38.2162660919" lon="-6.3013881538">
        <ele>585.58</ele>
        <time>2020-07-11T09:14:44Z</time>
      </trkpt>
      <trkpt lat="38.2166844327" lon="-6.3015098590">
        <ele>584.14</ele>
        <time>2020-07-11T09:14:51Z</time>
      </trkpt>
      <trkpt lat="38.2170718443" lon="-6.3016511779">
        <ele>582.22</ele>
        <time>2020-07-11T09:14:58Z</time>
      </trkpt>
      <trkpt lat="38.2171295956" lon="-6.3016655948">
        <ele>582.22</ele>
        <time>2020-07-11T09:14:59Z</time>
      </trkpt>
      <trkpt lat="38.2171892747" lon="-6.3016871363">
        <ele>581.73</ele>
        <time>2020-07-11T09:15:00Z</time>
      </trkpt>
      <trkpt lat="38.2173559070" lon="-6.3017694466">
        <ele>580.77</ele>
        <time>2020-07-11T09:15:03Z</time>
      </trkpt>
      <trkpt lat="38.2174073718" lon="-6.3018078357">
        <ele>580.77</ele>
        <time>2020-07-11T09:15:04Z</time>
      </trkpt>
      <trkpt lat="38.2177879941" lon="-6.3021654077">
        <ele>579.81</ele>
        <time>2020-07-11T09:15:11Z</time>
      </trkpt>
      <trkpt lat="38.2178332563" lon="-6.3022039644">
        <ele>579.81</ele>
        <time>2020-07-11T09:15:12Z</time>
      </trkpt>
      <trkpt lat="38.2178771775" lon="-6.3022343908">
        <ele>580.29</ele>
        <time>2020-07-11T09:15:13Z</time>
      </trkpt>
      <trkpt lat="38.2179276366" lon="-6.3022637274">
        <ele>580.77</ele>
        <time>2020-07-11T09:15:16Z</time>
      </trkpt>
      <trkpt lat="38.2179262117" lon="-6.3022597879">
        <ele>580.77</ele>
        <time>2020-07-11T09:15:26Z</time>
      </trkpt>
      <trkpt lat="38.2179221045" lon="-6.3022626378">
        <ele>580.29</ele>
        <time>2020-07-11T09:15:39Z</time>
      </trkpt>
      <trkpt lat="38.2179666962" lon="-6.3022911362">
        <ele>580.29</ele>
        <time>2020-07-11T09:15:50Z</time>
      </trkpt>
      <trkpt lat="38.2181430515" lon="-6.3024291862">
        <ele>578.85</ele>
        <time>2020-07-11T09:15:55Z</time>
      </trkpt>
      <trkpt lat="38.2183660101" lon="-6.3025892805">
        <ele>577.89</ele>
        <time>2020-07-11T09:16:01Z</time>
      </trkpt>
      <trkpt lat="38.2185292896" lon="-6.3026911207">
        <ele>578.85</ele>
        <time>2020-07-11T09:16:08Z</time>
      </trkpt>
      <trkpt lat="38.2186936587" lon="-6.3027807232">
        <ele>580.77</ele>
        <time>2020-07-11T09:16:17Z</time>
      </trkpt>
      <trkpt lat="38.2188777253" lon="-6.3028437551">
        <ele>582.70</ele>
        <time>2020-07-11T09:16:26Z</time>
      </trkpt>
      <trkpt lat="38.2190893684" lon="-6.3028175198">
        <ele>583.66</ele>
        <time>2020-07-11T09:16:36Z</time>
      </trkpt>
      <trkpt lat="38.2192723453" lon="-6.3027647976">
        <ele>584.62</ele>
        <time>2020-07-11T09:16:46Z</time>
      </trkpt>
      <trkpt lat="38.2194142509" lon="-6.3027359638">
        <ele>584.14</ele>
        <time>2020-07-11T09:16:54Z</time>
      </trkpt>
      <trkpt lat="38.2196066156" lon="-6.3026900310">
        <ele>582.70</ele>
        <time>2020-07-11T09:17:01Z</time>
      </trkpt>
      <trkpt lat="38.2199050952" lon="-6.3026680704">
        <ele>579.81</ele>
        <time>2020-07-11T09:17:07Z</time>
      </trkpt>
      <trkpt lat="38.2203786727" lon="-6.3026482891">
        <ele>576.45</ele>
        <time>2020-07-11T09:17:15Z</time>
      </trkpt>
      <trkpt lat="38.2207511645" lon="-6.3026150130">
        <ele>575.01</ele>
        <time>2020-07-11T09:17:21Z</time>
      </trkpt>
      <trkpt lat="38.2207944989" lon="-6.3025968242">
        <ele>575.01</ele>
        <time>2020-07-11T09:17:22Z</time>
      </trkpt>
      <trkpt lat="38.2208354026" lon="-6.3025752828">
        <ele>574.53</ele>
        <time>2020-07-11T09:17:23Z</time>
      </trkpt>
      <trkpt lat="38.2211406715" lon="-6.3023807388">
        <ele>574.04</ele>
        <time>2020-07-11T09:17:31Z</time>
      </trkpt>
      <trkpt lat="38.2215242274" lon="-6.3021965884">
        <ele>573.08</ele>
        <time>2020-07-11T09:17:39Z</time>
      </trkpt>
      <trkpt lat="38.2220644411" lon="-6.3019883819">
        <ele>571.64</ele>
        <time>2020-07-11T09:17:49Z</time>
      </trkpt>
      <trkpt lat="38.2225552015" lon="-6.3018831890">
        <ele>570.68</ele>
        <time>2020-07-11T09:17:58Z</time>
      </trkpt>
      <trkpt lat="38.2227358315" lon="-6.3018459734">
        <ele>571.64</ele>
        <time>2020-07-11T09:18:04Z</time>
      </trkpt>
      <trkpt lat="38.2228011265" lon="-6.3017922454">
        <ele>572.12</ele>
        <time>2020-07-11T09:18:11Z</time>
      </trkpt>
      <trkpt lat="38.2227993663" lon="-6.3017836958">
        <ele>572.60</ele>
        <time>2020-07-11T09:18:25Z</time>
      </trkpt>
      <trkpt lat="38.2228070777" lon="-6.3017776608">
        <ele>573.08</ele>
        <time>2020-07-11T09:18:31Z</time>
      </trkpt>
      <trkpt lat="38.2228192315" lon="-6.3017860427">
        <ele>574.04</ele>
        <time>2020-07-11T09:18:44Z</time>
      </trkpt>
      <trkpt lat="38.2228276134" lon="-6.3017903175">
        <ele>574.53</ele>
        <time>2020-07-11T09:19:10Z</time>
      </trkpt>
      <trkpt lat="38.2228271104" lon="-6.3017967716">
        <ele>575.49</ele>
        <time>2020-07-11T09:19:39Z</time>
      </trkpt>
      <trkpt lat="38.2228259370" lon="-6.3017940894">
        <ele>574.53</ele>
        <time>2020-07-11T09:20:09Z</time>
      </trkpt>
      <trkpt lat="38.2228187285" lon="-6.3017962687">
        <ele>574.53</ele>
        <time>2020-07-11T09:20:17Z</time>
      </trkpt>
      <trkpt lat="38.2228256017" lon="-6.3017997891">
        <ele>574.53</ele>
        <time>2020-07-11T09:20:23Z</time>
      </trkpt>
      <trkpt lat="38.2228351571" lon="-6.3018132001">
        <ele>574.53</ele>
        <time>2020-07-11T09:20:24Z</time>
      </trkpt>
      <trkpt lat="38.2228562795" lon="-6.3018266950">
        <ele>575.01</ele>
        <time>2020-07-11T09:20:25Z</time>
      </trkpt>
      <trkpt lat="38.2228850294" lon="-6.3018344902">
        <ele>575.01</ele>
        <time>2020-07-11T09:20:26Z</time>
      </trkpt>
      <trkpt lat="38.2229192276" lon="-6.3018395193">
        <ele>575.01</ele>
        <time>2020-07-11T09:20:27Z</time>
      </trkpt>
      <trkpt lat="38.2232190482" lon="-6.3018713705">
        <ele>573.56</ele>
        <time>2020-07-11T09:20:34Z</time>
      </trkpt>
      <trkpt lat="38.2235988323" lon="-6.3018654194">
        <ele>570.68</ele>
        <time>2020-07-11T09:20:42Z</time>
      </trkpt>
      <trkpt lat="38.2239447534" lon="-6.3018713705">
        <ele>568.76</ele>
        <time>2020-07-11T09:20:49Z</time>
      </trkpt>
      <trkpt lat="38.2241881639" lon="-6.3017731346">
        <ele>568.28</ele>
        <time>2020-07-11T09:20:56Z</time>
      </trkpt>
      <trkpt lat="38.2243656088" lon="-6.3016580511">
        <ele>567.80</ele>
        <time>2020-07-11T09:21:02Z</time>
      </trkpt>
      <trkpt lat="38.2245433889" lon="-6.3015334122">
        <ele>568.76</ele>
        <time>2020-07-11T09:21:09Z</time>
      </trkpt>
      <trkpt lat="38.2247583009" lon="-6.3013935182">
        <ele>568.76</ele>
        <time>2020-07-11T09:21:16Z</time>
      </trkpt>
      <trkpt lat="38.2249715365" lon="-6.3012401294">
        <ele>568.76</ele>
        <time>2020-07-11T09:21:24Z</time>
      </trkpt>
      <trkpt lat="38.2250477280" lon="-6.3012365252">
        <ele>568.28</ele>
        <time>2020-07-11T09:21:26Z</time>
      </trkpt>
      <trkpt lat="38.2250934094" lon="-6.3012434822">
        <ele>567.80</ele>
        <time>2020-07-11T09:21:27Z</time>
      </trkpt>
      <trkpt lat="38.2251364086" lon="-6.3012575638">
        <ele>567.32</ele>
        <time>2020-07-11T09:21:28Z</time>
      </trkpt>
      <trkpt lat="38.2251811679" lon="-6.3012822904">
        <ele>566.83</ele>
        <time>2020-07-11T09:21:29Z</time>
      </trkpt>
      <trkpt lat="38.2252265979" lon="-6.3013209309">
        <ele>566.35</ele>
        <time>2020-07-11T09:21:30Z</time>
      </trkpt>
      <trkpt lat="38.2252661604" lon="-6.3013653550">
        <ele>565.87</ele>
        <time>2020-07-11T09:21:31Z</time>
      </trkpt>
      <trkpt lat="38.2253017835" lon="-6.3014174066">
        <ele>565.39</ele>
        <time>2020-07-11T09:21:32Z</time>
      </trkpt>
      <trkpt lat="38.2253382448" lon="-6.3014757447">
        <ele>564.91</ele>
        <time>2020-07-11T09:21:33Z</time>
      </trkpt>
      <trkpt lat="38.2254135143" lon="-6.3015692029">
        <ele>564.91</ele>
        <time>2020-07-11T09:21:35Z</time>
      </trkpt>
      <trkpt lat="38.2254540827" lon="-6.3015971147">
        <ele>564.91</ele>
        <time>2020-07-11T09:21:36Z</time>
      </trkpt>
      <trkpt lat="38.2254960760" lon="-6.3016115315">
        <ele>564.91</ele>
        <time>2020-07-11T09:21:37Z</time>
      </trkpt>
      <trkpt lat="38.2255306933" lon="-6.3016252778">
        <ele>564.43</ele>
        <time>2020-07-11T09:21:38Z</time>
      </trkpt>
      <trkpt lat="38.2255669031" lon="-6.3016425446">
        <ele>564.43</ele>
        <time>2020-07-11T09:21:39Z</time>
      </trkpt>
      <trkpt lat="38.2255892828" lon="-6.3016457297">
        <ele>564.91</ele>
        <time>2020-07-11T09:21:40Z</time>
      </trkpt>
      <trkpt lat="38.2256143447" lon="-6.3016472384">
        <ele>564.91</ele>
        <time>2020-07-11T09:21:41Z</time>
      </trkpt>
      <trkpt lat="38.2256384846" lon="-6.3016461488">
        <ele>564.91</ele>
        <time>2020-07-11T09:21:42Z</time>
      </trkpt>
      <trkpt lat="38.2256618701" lon="-6.3016440533">
        <ele>564.91</ele>
        <time>2020-07-11T09:21:43Z</time>
      </trkpt>
      <trkpt lat="38.2258423325" lon="-6.3016826939">
        <ele>565.39</ele>
        <time>2020-07-11T09:21:50Z</time>
      </trkpt>
      <trkpt lat="38.2259960566" lon="-6.3017048221">
        <ele>566.35</ele>
        <time>2020-07-11T09:21:57Z</time>
      </trkpt>
      <trkpt lat="38.2262544706" lon="-6.3017932512">
        <ele>567.80</ele>
        <time>2020-07-11T09:22:09Z</time>
      </trkpt>
      <trkpt lat="38.2264373638" lon="-6.3018494099">
        <ele>568.28</ele>
        <time>2020-07-11T09:22:18Z</time>
      </trkpt>
      <trkpt lat="38.2266012300" lon="-6.3019052334">
        <ele>568.28</ele>
        <time>2020-07-11T09:22:27Z</time>
      </trkpt>
      <trkpt lat="38.2267509308" lon="-6.3019601349">
        <ele>569.24</ele>
        <time>2020-07-11T09:22:35Z</time>
      </trkpt>
      <trkpt lat="38.2269216701" lon="-6.3020203169">
        <ele>570.20</ele>
        <time>2020-07-11T09:22:44Z</time>
      </trkpt>
      <trkpt lat="38.2271379232" lon="-6.3020907249">
        <ele>572.12</ele>
        <time>2020-07-11T09:22:55Z</time>
      </trkpt>
      <trkpt lat="38.2272854447" lon="-6.3021312095">
        <ele>572.12</ele>
        <time>2020-07-11T09:23:03Z</time>
      </trkpt>
      <trkpt lat="38.2274840120" lon="-6.3021810818">
        <ele>572.12</ele>
        <time>2020-07-11T09:23:12Z</time>
      </trkpt>
      <trkpt lat="38.2277382351" lon="-6.3022190519">
        <ele>572.12</ele>
        <time>2020-07-11T09:23:21Z</time>
      </trkpt>
      <trkpt lat="38.2280911133" lon="-6.3022122625">
        <ele>572.12</ele>
        <time>2020-07-11T09:23:33Z</time>
      </trkpt>
      <trkpt lat="38.2283243816" lon="-6.3021923136">
        <ele>572.60</ele>
        <time>2020-07-11T09:23:42Z</time>
      </trkpt>
      <trkpt lat="38.2286200114" lon="-6.3021815009">
        <ele>573.08</ele>
        <time>2020-07-11T09:23:53Z</time>
      </trkpt>
      <trkpt lat="38.2288741507" lon="-6.3021549303">
        <ele>574.53</ele>
        <time>2020-07-11T09:24:04Z</time>
      </trkpt>
      <trkpt lat="38.2290390227" lon="-6.3021203969">
        <ele>575.01</ele>
        <time>2020-07-11T09:24:12Z</time>
      </trkpt>
      <trkpt lat="38.2292228378" lon="-6.3020602148">
        <ele>575.49</ele>
        <time>2020-07-11T09:24:22Z</time>
      </trkpt>
      <trkpt lat="38.2294152863" lon="-6.3019913156">
        <ele>576.93</ele>
        <time>2020-07-11T09:24:33Z</time>
      </trkpt>
      <trkpt lat="38.2295845170" lon="-6.3019345701">
        <ele>577.89</ele>
        <time>2020-07-11T09:24:43Z</time>
      </trkpt>
      <trkpt lat="38.2297600340" lon="-6.3019087538">
        <ele>578.85</ele>
        <time>2020-07-11T09:24:53Z</time>
      </trkpt>
      <trkpt lat="38.2299220562" lon="-6.3018676825">
        <ele>579.81</ele>
        <time>2020-07-11T09:25:02Z</time>
      </trkpt>
      <trkpt lat="38.2301114872" lon="-6.3018224202">
        <ele>580.77</ele>
        <time>2020-07-11T09:25:12Z</time>
      </trkpt>
      <trkpt lat="38.2302998286" lon="-6.3017653394">
        <ele>580.29</ele>
        <time>2020-07-11T09:25:22Z</time>
      </trkpt>
      <trkpt lat="38.2305628527" lon="-6.3016640022">
        <ele>580.77</ele>
        <time>2020-07-11T09:25:33Z</time>
      </trkpt>
      <trkpt lat="38.2308021560" lon="-6.3016164768">
        <ele>580.77</ele>
        <time>2020-07-11T09:25:41Z</time>
      </trkpt>
      <trkpt lat="38.2310220972" lon="-6.3016131241">
        <ele>580.77</ele>
        <time>2020-07-11T09:25:48Z</time>
      </trkpt>
      <trkpt lat="38.2312453073" lon="-6.3015831169">
        <ele>580.77</ele>
        <time>2020-07-11T09:25:56Z</time>
      </trkpt>
      <trkpt lat="38.2314894721" lon="-6.3015456498">
        <ele>581.25</ele>
        <time>2020-07-11T09:26:05Z</time>
      </trkpt>
      <trkpt lat="38.2316831779" lon="-6.3015349209">
        <ele>581.73</ele>
        <time>2020-07-11T09:26:12Z</time>
      </trkpt>
      <trkpt lat="38.2318969164" lon="-6.3015494216">
        <ele>582.22</ele>
        <time>2020-07-11T09:26:20Z</time>
      </trkpt>
      <trkpt lat="38.2320995908" lon="-6.3015481643">
        <ele>582.70</ele>
        <time>2020-07-11T09:26:27Z</time>
      </trkpt>
      <trkpt lat="38.2323405705" lon="-6.3015522715">
        <ele>582.70</ele>
        <time>2020-07-11T09:26:35Z</time>
      </trkpt>
      <trkpt lat="38.2326040976" lon="-6.3015301432">
        <ele>583.18</ele>
        <time>2020-07-11T09:26:44Z</time>
      </trkpt>
      <trkpt lat="38.2328732405" lon="-6.3014459889">
        <ele>584.14</ele>
        <time>2020-07-11T09:26:55Z</time>
      </trkpt>
      <trkpt lat="38.2330914214" lon="-6.3013278879">
        <ele>585.10</ele>
        <time>2020-07-11T09:27:05Z</time>
      </trkpt>
      <trkpt lat="38.2332973648" lon="-6.3013014849">
        <ele>585.58</ele>
        <time>2020-07-11T09:27:14Z</time>
      </trkpt>
      <trkpt lat="38.2335071638" lon="-6.3013520278">
        <ele>587.02</ele>
        <time>2020-07-11T09:27:24Z</time>
      </trkpt>
      <trkpt lat="38.2337265182" lon="-6.3013806939">
        <ele>588.46</ele>
        <time>2020-07-11T09:27:31Z</time>
      </trkpt>
      <trkpt lat="38.2340374030" lon="-6.3014524430">
        <ele>589.43</ele>
        <time>2020-07-11T09:27:42Z</time>
      </trkpt>
      <trkpt lat="38.2342616189" lon="-6.3015145529">
        <ele>589.43</ele>
        <time>2020-07-11T09:27:51Z</time>
      </trkpt>
      <trkpt lat="38.2343576755" lon="-6.3015522715">
        <ele>588.95</ele>
        <time>2020-07-11T09:27:56Z</time>
      </trkpt>
      <trkpt lat="38.2345561590" lon="-6.3016086817">
        <ele>588.95</ele>
        <time>2020-07-11T09:28:04Z</time>
      </trkpt>
      <trkpt lat="38.2348489389" lon="-6.3017129526">
        <ele>588.46</ele>
        <time>2020-07-11T09:28:13Z</time>
      </trkpt>
      <trkpt lat="38.2351087779" lon="-6.3018224202">
        <ele>588.46</ele>
        <time>2020-07-11T09:28:20Z</time>
      </trkpt>
      <trkpt lat="38.2351500168" lon="-6.3018386811">
        <ele>587.98</ele>
        <time>2020-07-11T09:28:21Z</time>
      </trkpt>
      <trkpt lat="38.2355877198" lon="-6.3020257652">
        <ele>587.02</ele>
        <time>2020-07-11T09:28:31Z</time>
      </trkpt>
      <trkpt lat="38.2358294539" lon="-6.3021234982">
        <ele>586.06</ele>
        <time>2020-07-11T09:28:36Z</time>
      </trkpt>
      <trkpt lat="38.2359492313" lon="-6.3021918945">
        <ele>585.58</ele>
        <time>2020-07-11T09:28:39Z</time>
      </trkpt>
      <trkpt lat="38.2362988405" lon="-6.3023180421">
        <ele>584.62</ele>
        <time>2020-07-11T09:28:47Z</time>
      </trkpt>
      <trkpt lat="38.2367276587" lon="-6.3024657313">
        <ele>583.18</ele>
        <time>2020-07-11T09:28:55Z</time>
      </trkpt>
      <trkpt lat="38.2371647749" lon="-6.3026354648">
        <ele>580.77</ele>
        <time>2020-07-11T09:29:02Z</time>
      </trkpt>
      <trkpt lat="38.2376334909" lon="-6.3028196990">
        <ele>578.37</ele>
        <time>2020-07-11T09:29:09Z</time>
      </trkpt>
      <trkpt lat="38.2380077429" lon="-6.3029570784">
        <ele>577.41</ele>
        <time>2020-07-11T09:29:15Z</time>
      </trkpt>
      <trkpt lat="38.2380554359" lon="-6.3029855769">
        <ele>577.41</ele>
        <time>2020-07-11T09:29:16Z</time>
      </trkpt>
      <trkpt lat="38.2381401770" lon="-6.3030403946">
        <ele>577.41</ele>
        <time>2020-07-11T09:29:18Z</time>
      </trkpt>
      <trkpt lat="38.2381738722" lon="-6.3030651212">
        <ele>577.89</ele>
        <time>2020-07-11T09:29:19Z</time>
      </trkpt>
      <trkpt lat="38.2383201364" lon="-6.3031823840">
        <ele>578.85</ele>
        <time>2020-07-11T09:29:25Z</time>
      </trkpt>
      <trkpt lat="38.2386002596" lon="-6.3034097012">
        <ele>579.81</ele>
        <time>2020-07-11T09:29:36Z</time>
      </trkpt>
      <trkpt lat="38.2388259005" lon="-6.3035811950">
        <ele>580.77</ele>
        <time>2020-07-11T09:29:46Z</time>
      </trkpt>
      <trkpt lat="38.2389573287" lon="-6.3036719710">
        <ele>580.77</ele>
        <time>2020-07-11T09:29:53Z</time>
      </trkpt>
      <trkpt lat="38.2391468436" lon="-6.3037870545">
        <ele>582.22</ele>
        <time>2020-07-11T09:30:04Z</time>
      </trkpt>
      <trkpt lat="38.2393235341" lon="-6.3038398605">
        <ele>583.18</ele>
        <time>2020-07-11T09:30:14Z</time>
      </trkpt>
      <trkpt lat="38.2394542918" lon="-6.3038526848">
        <ele>583.66</ele>
        <time>2020-07-11T09:30:22Z</time>
      </trkpt>
      <trkpt lat="38.2395426370" lon="-6.3038577139">
        <ele>584.62</ele>
        <time>2020-07-11T09:30:29Z</time>
      </trkpt>
      <trkpt lat="38.2396687847" lon="-6.3038459793">
        <ele>585.10</ele>
        <time>2020-07-11T09:30:37Z</time>
      </trkpt>
      <trkpt lat="38.2398004644" lon="-6.3038084283">
        <ele>585.58</ele>
        <time>2020-07-11T09:30:45Z</time>
      </trkpt>
      <trkpt lat="38.2399257738" lon="-6.3037569635">
        <ele>586.54</ele>
        <time>2020-07-11T09:30:53Z</time>
      </trkpt>
      <trkpt lat="38.2401002850" lon="-6.3037437201">
        <ele>587.50</ele>
        <time>2020-07-11T09:31:03Z</time>
      </trkpt>
      <trkpt lat="38.2402214874" lon="-6.3038058300">
        <ele>587.98</ele>
        <time>2020-07-11T09:31:11Z</time>
      </trkpt>
      <trkpt lat="38.2403194718" lon="-6.3039205782">
        <ele>588.46</ele>
        <time>2020-07-11T09:31:18Z</time>
      </trkpt>
      <trkpt lat="38.2404147740" lon="-6.3040558621">
        <ele>587.98</ele>
        <time>2020-07-11T09:31:24Z</time>
      </trkpt>
      <trkpt lat="38.2406013552" lon="-6.3043144438">
        <ele>587.50</ele>
        <time>2020-07-11T09:31:32Z</time>
      </trkpt>
      <trkpt lat="38.2408595178" lon="-6.3046306930">
        <ele>585.58</ele>
        <time>2020-07-11T09:31:40Z</time>
      </trkpt>
      <trkpt lat="38.2411670499" lon="-6.3049031887">
        <ele>585.58</ele>
        <time>2020-07-11T09:31:48Z</time>
      </trkpt>
      <trkpt lat="38.2413060218" lon="-6.3049502112">
        <ele>587.02</ele>
        <time>2020-07-11T09:31:54Z</time>
      </trkpt>
      <trkpt lat="38.2414787728" lon="-6.3050043583">
        <ele>589.43</ele>
        <time>2020-07-11T09:32:03Z</time>
      </trkpt>
      <trkpt lat="38.2415547129" lon="-6.3051625248">
        <ele>588.95</ele>
        <time>2020-07-11T09:32:11Z</time>
      </trkpt>
      <trkpt lat="38.2415552158" lon="-6.3053726591">
        <ele>588.46</ele>
        <time>2020-07-11T09:32:19Z</time>
      </trkpt>
      <trkpt lat="38.2415456604" lon="-6.3055893313">
        <ele>587.98</ele>
        <time>2020-07-11T09:32:27Z</time>
      </trkpt>
      <trkpt lat="38.2415464148" lon="-6.3058164809">
        <ele>587.50</ele>
        <time>2020-07-11T09:32:36Z</time>
      </trkpt>
      <trkpt lat="38.2415411342" lon="-6.3060259447">
        <ele>587.50</ele>
        <time>2020-07-11T09:32:44Z</time>
      </trkpt>
      <trkpt lat="38.2415325008" lon="-6.3063048106">
        <ele>587.98</ele>
        <time>2020-07-11T09:32:54Z</time>
      </trkpt>
      <trkpt lat="38.2415332552" lon="-6.3066168688">
        <ele>588.95</ele>
        <time>2020-07-11T09:33:05Z</time>
      </trkpt>
      <trkpt lat="38.2415288128" lon="-6.3069333695">
        <ele>589.91</ele>
        <time>2020-07-11T09:33:16Z</time>
      </trkpt>
      <trkpt lat="38.2415166590" lon="-6.3072431646">
        <ele>591.35</ele>
        <time>2020-07-11T09:33:27Z</time>
      </trkpt>
      <trkpt lat="38.2415143959" lon="-6.3075802010">
        <ele>593.27</ele>
        <time>2020-07-11T09:33:39Z</time>
      </trkpt>
      <trkpt lat="38.2415198442" lon="-6.3076336775">
        <ele>593.27</ele>
        <time>2020-07-11T09:33:41Z</time>
      </trkpt>
      <trkpt lat="38.2415313274" lon="-6.3076559734">
        <ele>593.75</ele>
        <time>2020-07-11T09:33:42Z</time>
      </trkpt>
      <trkpt lat="38.2415935211" lon="-6.3077724818">
        <ele>594.71</ele>
        <time>2020-07-11T09:33:48Z</time>
      </trkpt>
      <trkpt lat="38.2415858097" lon="-6.3078159001">
        <ele>594.71</ele>
        <time>2020-07-11T09:33:54Z</time>
      </trkpt>
      <trkpt lat="38.2415895816" lon="-6.3078136370">
        <ele>594.71</ele>
        <time>2020-07-11T09:34:02Z</time>
      </trkpt>
      <trkpt lat="38.2415927667" lon="-6.3078185823">
        <ele>594.23</ele>
        <time>2020-07-11T09:34:19Z</time>
      </trkpt>
      <trkpt lat="38.2415891625" lon="-6.3078249525">
        <ele>593.27</ele>
        <time>2020-07-11T09:34:40Z</time>
      </trkpt>
      <trkpt lat="38.2415744942" lon="-6.3078245334">
        <ele>594.23</ele>
        <time>2020-07-11T09:35:00Z</time>
      </trkpt>
      <trkpt lat="38.2415887434" lon="-6.3078065962">
        <ele>595.19</ele>
        <time>2020-07-11T09:35:19Z</time>
      </trkpt>
      <trkpt lat="38.2415924314" lon="-6.3078084402">
        <ele>596.15</ele>
        <time>2020-07-11T09:35:41Z</time>
      </trkpt>
      <trkpt lat="38.2415812835" lon="-6.3078087755">
        <ele>596.15</ele>
        <time>2020-07-11T09:36:00Z</time>
      </trkpt>
      <trkpt lat="38.2415922638" lon="-6.3078035787">
        <ele>594.71</ele>
        <time>2020-07-11T09:36:21Z</time>
      </trkpt>
      <trkpt lat="38.2415797748" lon="-6.3078042492">
        <ele>594.71</ele>
        <time>2020-07-11T09:36:37Z</time>
      </trkpt>
      <trkpt lat="38.2415672019" lon="-6.3078074344">
        <ele>594.71</ele>
        <time>2020-07-11T09:36:54Z</time>
      </trkpt>
      <trkpt lat="38.2415854745" lon="-6.3078149781">
        <ele>595.19</ele>
        <time>2020-07-11T09:37:11Z</time>
      </trkpt>
      <trkpt lat="38.2415960357" lon="-6.3078151457">
        <ele>594.71</ele>
        <time>2020-07-11T09:37:28Z</time>
      </trkpt>
      <trkpt lat="38.2415982988" lon="-6.3078234438">
        <ele>594.71</ele>
        <time>2020-07-11T09:37:54Z</time>
      </trkpt>
      <trkpt lat="38.2415799424" lon="-6.3078092784">
        <ele>592.79</ele>
        <time>2020-07-11T09:38:18Z</time>
      </trkpt>
      <trkpt lat="38.2415890787" lon="-6.3077988848">
        <ele>592.79</ele>
        <time>2020-07-11T09:38:41Z</time>
      </trkpt>
      <trkpt lat="38.2416066807" lon="-6.3078169897">
        <ele>594.23</ele>
        <time>2020-07-11T09:39:03Z</time>
      </trkpt>
      <trkpt lat="38.2416039146" lon="-6.3078221865">
        <ele>594.71</ele>
        <time>2020-07-11T09:39:17Z</time>
      </trkpt>
      <trkpt lat="38.2416060939" lon="-6.3078156486">
        <ele>597.60</ele>
        <time>2020-07-11T09:39:43Z</time>
      </trkpt>
      <trkpt lat="38.2416059263" lon="-6.3078137208">
        <ele>599.04</ele>
        <time>2020-07-11T09:40:03Z</time>
      </trkpt>
      <trkpt lat="38.2415953651" lon="-6.3078206778">
        <ele>596.15</ele>
        <time>2020-07-11T09:40:30Z</time>
      </trkpt>
      <trkpt lat="38.2415925991" lon="-6.3078162353">
        <ele>594.71</ele>
        <time>2020-07-11T09:40:54Z</time>
      </trkpt>
      <trkpt lat="38.2415924314" lon="-6.3078097813">
        <ele>595.19</ele>
        <time>2020-07-11T09:41:16Z</time>
      </trkpt>
      <trkpt lat="38.2415747456" lon="-6.3078256231">
        <ele>595.19</ele>
        <time>2020-07-11T09:41:42Z</time>
      </trkpt>
      <trkpt lat="38.2415840495" lon="-6.3078319095">
        <ele>594.71</ele>
        <time>2020-07-11T09:41:59Z</time>
      </trkpt>
      <trkpt lat="38.2415879052" lon="-6.3078233600">
        <ele>592.31</ele>
        <time>2020-07-11T09:42:25Z</time>
      </trkpt>
      <trkpt lat="38.2415832952" lon="-6.3078267127">
        <ele>595.19</ele>
        <time>2020-07-11T09:42:54Z</time>
      </trkpt>
      <trkpt lat="38.2415934373" lon="-6.3078228571">
        <ele>594.71</ele>
        <time>2020-07-11T09:43:12Z</time>
      </trkpt>
      <trkpt lat="38.2415821217" lon="-6.3078195881">
        <ele>595.19</ele>
        <time>2020-07-11T09:43:35Z</time>
      </trkpt>
      <trkpt lat="38.2415965386" lon="-6.3078144751">
        <ele>593.75</ele>
        <time>2020-07-11T09:44:00Z</time>
      </trkpt>
      <trkpt lat="38.2415951136" lon="-6.3078145590">
        <ele>595.19</ele>
        <time>2020-07-11T09:44:24Z</time>
      </trkpt>
      <trkpt lat="38.2415960357" lon="-6.3078198396">
        <ele>595.19</ele>
        <time>2020-07-11T09:44:41Z</time>
      </trkpt>
      <trkpt lat="38.2416014839" lon="-6.3078173250">
        <ele>595.67</ele>
        <time>2020-07-11T09:44:59Z</time>
      </trkpt>
      <trkpt lat="38.2415962033" lon="-6.3078228571">
        <ele>595.19</ele>
        <time>2020-07-11T09:45:23Z</time>
      </trkpt>
      <trkpt lat="38.2415944431" lon="-6.3078298140">
        <ele>594.23</ele>
        <time>2020-07-11T09:45:38Z</time>
      </trkpt>
      <trkpt lat="38.2415953651" lon="-6.3077977113">
        <ele>596.64</ele>
        <time>2020-07-11T09:46:11Z</time>
      </trkpt>
      <trkpt lat="38.2415810321" lon="-6.3078026567">
        <ele>596.15</ele>
        <time>2020-07-11T09:46:36Z</time>
      </trkpt>
      <trkpt lat="38.2416001428" lon="-6.3078055065">
        <ele>595.67</ele>
        <time>2020-07-11T09:46:56Z</time>
      </trkpt>
      <trkpt lat="38.2415899169" lon="-6.3078171574">
        <ele>594.71</ele>
        <time>2020-07-11T09:47:13Z</time>
      </trkpt>
      <trkpt lat="38.2415941078" lon="-6.3078172412">
        <ele>596.15</ele>
        <time>2020-07-11T09:47:35Z</time>
      </trkpt>
      <trkpt lat="38.2415998913" lon="-6.3078060932">
        <ele>597.12</ele>
        <time>2020-07-11T09:47:53Z</time>
      </trkpt>
      <trkpt lat="38.2416009810" lon="-6.3078238629">
        <ele>597.12</ele>
        <time>2020-07-11T09:48:18Z</time>
      </trkpt>
      <trkpt lat="38.2416048367" lon="-6.3078306522">
        <ele>596.64</ele>
        <time>2020-07-11T09:48:34Z</time>
      </trkpt>
      <trkpt lat="38.2416100334" lon="-6.3078340888">
        <ele>595.19</ele>
        <time>2020-07-11T09:48:59Z</time>
      </trkpt>
      <trkpt lat="38.2415972929" lon="-6.3078316581">
        <ele>594.23</ele>
        <time>2020-07-11T09:49:17Z</time>
      </trkpt>
      <trkpt lat="38.2415970415" lon="-6.3078318257">
        <ele>595.67</ele>
        <time>2020-07-11T09:49:36Z</time>
      </trkpt>
      <trkpt lat="38.2415841334" lon="-6.3078390341">
        <ele>594.71</ele>
        <time>2020-07-11T09:49:55Z</time>
      </trkpt>
      <trkpt lat="38.2415914256" lon="-6.3078354299">
        <ele>594.23</ele>
        <time>2020-07-11T09:50:14Z</time>
      </trkpt>
      <trkpt lat="38.2415928505" lon="-6.3078393694">
        <ele>594.71</ele>
        <time>2020-07-11T09:50:21Z</time>
      </trkpt>
      <trkpt lat="38.2416097820" lon="-6.3078074344">
        <ele>595.19</ele>
        <time>2020-07-11T09:50:30Z</time>
      </trkpt>
      <trkpt lat="38.2416059263" lon="-6.3078009803">
        <ele>595.19</ele>
        <time>2020-07-11T09:50:38Z</time>
      </trkpt>
      <trkpt lat="38.2416353468" lon="-6.3078143913">
        <ele>595.67</ele>
        <time>2020-07-11T09:50:45Z</time>
      </trkpt>
      <trkpt lat="38.2416972890" lon="-6.3078458235">
        <ele>596.15</ele>
        <time>2020-07-11T09:50:50Z</time>
      </trkpt>
      <trkpt lat="38.2418360095" lon="-6.3080117013">
        <ele>595.67</ele>
        <time>2020-07-11T09:51:00Z</time>
      </trkpt>
      <trkpt lat="38.2419489138" lon="-6.3081993721">
        <ele>594.71</ele>
        <time>2020-07-11T09:51:08Z</time>
      </trkpt>
      <trkpt lat="38.2420709543" lon="-6.3083847798">
        <ele>593.27</ele>
        <time>2020-07-11T09:51:15Z</time>
      </trkpt>
      <trkpt lat="38.2421813440" lon="-6.3085526694">
        <ele>591.83</ele>
        <time>2020-07-11T09:51:22Z</time>
      </trkpt>
      <trkpt lat="38.2422924042" lon="-6.3087060582">
        <ele>590.87</ele>
        <time>2020-07-11T09:51:28Z</time>
      </trkpt>
      <trkpt lat="38.2424659096" lon="-6.3089604490">
        <ele>588.46</ele>
        <time>2020-07-11T09:51:36Z</time>
      </trkpt>
      <trkpt lat="38.2425544225" lon="-6.3090342097">
        <ele>587.50</ele>
        <time>2020-07-11T09:51:41Z</time>
      </trkpt>
      <trkpt lat="38.2426061388" lon="-6.3091248181">
        <ele>586.54</ele>
        <time>2020-07-11T09:51:48Z</time>
      </trkpt>
      <trkpt lat="38.2426426839" lon="-6.3092291728">
        <ele>585.58</ele>
        <time>2020-07-11T09:51:54Z</time>
      </trkpt>
      <trkpt lat="38.2427016087" lon="-6.3093888480">
        <ele>584.62</ele>
        <time>2020-07-11T09:52:02Z</time>
      </trkpt>
      <trkpt lat="38.2427531574" lon="-6.3095987309">
        <ele>584.14</ele>
        <time>2020-07-11T09:52:10Z</time>
      </trkpt>
      <trkpt lat="38.2427311130" lon="-6.3098845538">
        <ele>582.70</ele>
        <time>2020-07-11T09:52:18Z</time>
      </trkpt>
      <trkpt lat="38.2427088171" lon="-6.3101898227">
        <ele>580.29</ele>
        <time>2020-07-11T09:52:26Z</time>
      </trkpt>
      <trkpt lat="38.2426732779" lon="-6.3105395157">
        <ele>579.33</ele>
        <time>2020-07-11T09:52:35Z</time>
      </trkpt>
      <trkpt lat="38.2426438574" lon="-6.3107784837">
        <ele>577.41</ele>
        <time>2020-07-11T09:52:43Z</time>
      </trkpt>
      <trkpt lat="38.2425985951" lon="-6.3110868540">
        <ele>575.97</ele>
        <time>2020-07-11T09:52:53Z</time>
      </trkpt>
      <trkpt lat="38.2425880339" lon="-6.3112667296">
        <ele>574.53</ele>
        <time>2020-07-11T09:52:59Z</time>
      </trkpt>
      <trkpt lat="38.2426823303" lon="-6.3115208689">
        <ele>572.12</ele>
        <time>2020-07-11T09:53:05Z</time>
      </trkpt>
      <trkpt lat="38.2428424247" lon="-6.3119354378">
        <ele>571.16</ele>
        <time>2020-07-11T09:53:12Z</time>
      </trkpt>
      <trkpt lat="38.2428662293" lon="-6.3119807839">
        <ele>571.16</ele>
        <time>2020-07-11T09:53:13Z</time>
      </trkpt>
      <trkpt lat="38.2429816481" lon="-6.3121989649">
        <ele>569.72</ele>
        <time>2020-07-11T09:53:20Z</time>
      </trkpt>
      <trkpt lat="38.2431085501" lon="-6.3124292996">
        <ele>569.24</ele>
        <time>2020-07-11T09:53:28Z</time>
      </trkpt>
      <trkpt lat="38.2431418262" lon="-6.3124911580">
        <ele>569.24</ele>
        <time>2020-07-11T09:53:31Z</time>
      </trkpt>
      <trkpt lat="38.2431611884" lon="-6.3125077542">
        <ele>571.16</ele>
        <time>2020-07-11T09:53:37Z</time>
      </trkpt>
      <trkpt lat="38.2431643736" lon="-6.3125028927">
        <ele>571.64</ele>
        <time>2020-07-11T09:53:55Z</time>
      </trkpt>
      <trkpt lat="38.2431943808" lon="-6.3125434611">
        <ele>572.12</ele>
        <time>2020-07-11T09:54:07Z</time>
      </trkpt>
      <trkpt lat="38.2433353644" lon="-6.3127240073">
        <ele>572.12</ele>
        <time>2020-07-11T09:54:15Z</time>
      </trkpt>
      <trkpt lat="38.2435330097" lon="-6.3129081577">
        <ele>572.12</ele>
        <time>2020-07-11T09:54:24Z</time>
      </trkpt>
      <trkpt lat="38.2435954548" lon="-6.3129464630">
        <ele>572.12</ele>
        <time>2020-07-11T09:54:27Z</time>
      </trkpt>
      <trkpt lat="38.2436204329" lon="-6.3129467983">
        <ele>572.12</ele>
        <time>2020-07-11T09:54:28Z</time>
      </trkpt>
      <trkpt lat="38.2436439022" lon="-6.3129419368">
        <ele>572.12</ele>
        <time>2020-07-11T09:54:29Z</time>
      </trkpt>
      <trkpt lat="38.2437822036" lon="-6.3128810842">
        <ele>573.08</ele>
        <time>2020-07-11T09:54:36Z</time>
      </trkpt>
      <trkpt lat="38.2439192478" lon="-6.3128143642">
        <ele>573.56</ele>
        <time>2020-07-11T09:54:44Z</time>
      </trkpt>
      <trkpt lat="38.2439301442" lon="-6.3128098380">
        <ele>574.53</ele>
        <time>2020-07-11T09:54:52Z</time>
      </trkpt>
      <trkpt lat="38.2439409569" lon="-6.3128183037">
        <ele>576.45</ele>
        <time>2020-07-11T09:55:12Z</time>
      </trkpt>
      <trkpt lat="38.2439989597" lon="-6.3128026295">
        <ele>576.45</ele>
        <time>2020-07-11T09:55:17Z</time>
      </trkpt>
      <trkpt lat="38.2441770751" lon="-6.3127381727">
        <ele>576.93</ele>
        <time>2020-07-11T09:55:27Z</time>
      </trkpt>
      <trkpt lat="38.2442650851" lon="-6.3127126917">
        <ele>577.41</ele>
        <time>2020-07-11T09:55:32Z</time>
      </trkpt>
      <trkpt lat="38.2442952599" lon="-6.3126681000">
        <ele>577.41</ele>
        <time>2020-07-11T09:55:39Z</time>
      </trkpt>
      <trkpt lat="38.2443051506" lon="-6.3126611430">
        <ele>577.41</ele>
        <time>2020-07-11T09:55:40Z</time>
      </trkpt>
      <trkpt lat="38.2443534303" lon="-6.3125730492">
        <ele>578.37</ele>
        <time>2020-07-11T09:55:45Z</time>
      </trkpt>
      <trkpt lat="38.2445053943" lon="-6.3123274595">
        <ele>577.41</ele>
        <time>2020-07-11T09:55:56Z</time>
      </trkpt>
      <trkpt lat="38.2446831744" lon="-6.3120618369">
        <ele>577.41</ele>
        <time>2020-07-11T09:56:07Z</time>
      </trkpt>
      <trkpt lat="38.2448094059" lon="-6.3118433207">
        <ele>577.89</ele>
        <time>2020-07-11T09:56:15Z</time>
      </trkpt>
      <trkpt lat="38.2449239865" lon="-6.3116515428">
        <ele>578.85</ele>
        <time>2020-07-11T09:56:23Z</time>
      </trkpt>
      <trkpt lat="38.2450260781" lon="-6.3114629500">
        <ele>579.33</ele>
        <time>2020-07-11T09:56:31Z</time>
      </trkpt>
      <trkpt lat="38.2451544050" lon="-6.3112476189">
        <ele>580.29</ele>
        <time>2020-07-11T09:56:41Z</time>
      </trkpt>
      <trkpt lat="38.2452284172" lon="-6.3110948168">
        <ele>581.25</ele>
        <time>2020-07-11T09:56:49Z</time>
      </trkpt>
      <trkpt lat="38.2453270722" lon="-6.3109444454">
        <ele>580.29</ele>
        <time>2020-07-11T09:56:59Z</time>
      </trkpt>
      <trkpt lat="38.2454802096" lon="-6.3107162900">
        <ele>580.77</ele>
        <time>2020-07-11T09:57:11Z</time>
      </trkpt>
      <trkpt lat="38.2456262223" lon="-6.3105515018">
        <ele>580.77</ele>
        <time>2020-07-11T09:57:21Z</time>
      </trkpt>
      <trkpt lat="38.2457913458" lon="-6.3103713747">
        <ele>581.25</ele>
        <time>2020-07-11T09:57:32Z</time>
      </trkpt>
      <trkpt lat="38.2458669506" lon="-6.3102919143">
        <ele>581.73</ele>
        <time>2020-07-11T09:57:38Z</time>
      </trkpt>
      <trkpt lat="38.2459604926" lon="-6.3101649284">
        <ele>583.66</ele>
        <time>2020-07-11T09:57:46Z</time>
      </trkpt>
      <trkpt lat="38.2461012248" lon="-6.3100275490">
        <ele>586.54</ele>
        <time>2020-07-11T09:57:55Z</time>
      </trkpt>
      <trkpt lat="38.2462078426" lon="-6.3099086098">
        <ele>585.10</ele>
        <time>2020-07-11T09:58:03Z</time>
      </trkpt>
      <trkpt lat="38.2463323139" lon="-6.3097623456">
        <ele>585.58</ele>
        <time>2020-07-11T09:58:12Z</time>
      </trkpt>
      <trkpt lat="38.2464573719" lon="-6.3096299116">
        <ele>587.50</ele>
        <time>2020-07-11T09:58:22Z</time>
      </trkpt>
      <trkpt lat="38.2465753052" lon="-6.3095532171">
        <ele>589.43</ele>
        <time>2020-07-11T09:58:30Z</time>
      </trkpt>
      <trkpt lat="38.2467264310" lon="-6.3094715774">
        <ele>590.39</ele>
        <time>2020-07-11T09:58:40Z</time>
      </trkpt>
      <trkpt lat="38.2467972580" lon="-6.3094199449">
        <ele>590.87</ele>
        <time>2020-07-11T09:58:47Z</time>
      </trkpt>
      <trkpt lat="38.2468269300" lon="-6.3093393948">
        <ele>589.43</ele>
        <time>2020-07-11T09:58:54Z</time>
      </trkpt>
      <trkpt lat="38.2468098309" lon="-6.3093041908">
        <ele>588.95</ele>
        <time>2020-07-11T09:58:57Z</time>
      </trkpt>
      <trkpt lat="38.2467815839" lon="-6.3092851639">
        <ele>589.91</ele>
        <time>2020-07-11T09:59:06Z</time>
      </trkpt>
      <trkpt lat="38.2467877027" lon="-6.3092663884">
        <ele>590.87</ele>
        <time>2020-07-11T09:59:20Z</time>
      </trkpt>
      <trkpt lat="38.2467770576" lon="-6.3092368841">
        <ele>592.31</ele>
        <time>2020-07-11T09:59:36Z</time>
      </trkpt>
      <trkpt lat="38.2467111759" lon="-6.3091720082">
        <ele>594.71</ele>
        <time>2020-07-11T09:59:43Z</time>
      </trkpt>
      <trkpt lat="38.2466078270" lon="-6.3090952300">
        <ele>595.67</ele>
        <time>2020-07-11T09:59:51Z</time>
      </trkpt>
      <trkpt lat="38.2466012891" lon="-6.3090563379">
        <ele>595.67</ele>
        <time>2020-07-11T09:59:54Z</time>
      </trkpt>
      <trkpt lat="38.2465685159" lon="-6.3089998439">
        <ele>596.15</ele>
        <time>2020-07-11T09:59:58Z</time>
      </trkpt>
      <trkpt lat="38.2464751415" lon="-6.3089023624">
        <ele>596.15</ele>
        <time>2020-07-11T10:00:07Z</time>
      </trkpt>
      <trkpt lat="38.2464562822" lon="-6.3088752888">
        <ele>596.15</ele>
        <time>2020-07-11T10:00:13Z</time>
      </trkpt>
      <trkpt lat="38.2464595512" lon="-6.3088823296">
        <ele>596.64</ele>
        <time>2020-07-11T10:00:22Z</time>
      </trkpt>
      <trkpt lat="38.2464537676" lon="-6.3088772167">
        <ele>594.71</ele>
        <time>2020-07-11T10:00:38Z</time>
      </trkpt>
      <trkpt lat="38.2464418653" lon="-6.3088933937">
        <ele>595.19</ele>
        <time>2020-07-11T10:00:59Z</time>
      </trkpt>
      <trkpt lat="38.2464313880" lon="-6.3088679966">
        <ele>595.19</ele>
        <time>2020-07-11T10:01:12Z</time>
      </trkpt>
      <trkpt lat="38.2464646641" lon="-6.3089120854">
        <ele>596.15</ele>
        <time>2020-07-11T10:01:40Z</time>
      </trkpt>
      <trkpt lat="38.2464599703" lon="-6.3088838384">
        <ele>594.71</ele>
        <time>2020-07-11T10:02:00Z</time>
      </trkpt>
      <trkpt lat="38.2464613952" lon="-6.3088757917">
        <ele>592.31</ele>
        <time>2020-07-11T10:02:19Z</time>
      </trkpt>
      <trkpt lat="38.2464396860" lon="-6.3088538311">
        <ele>588.95</ele>
        <time>2020-07-11T10:02:36Z</time>
      </trkpt>
      <trkpt lat="38.2464345731" lon="-6.3088561781">
        <ele>586.06</ele>
        <time>2020-07-11T10:02:55Z</time>
      </trkpt>
      <trkpt lat="38.2464424521" lon="-6.3088605367">
        <ele>582.22</ele>
        <time>2020-07-11T10:03:22Z</time>
      </trkpt>
      <trkpt lat="38.2464442123" lon="-6.3088504784">
        <ele>582.22</ele>
        <time>2020-07-11T10:03:38Z</time>
      </trkpt>
      <trkpt lat="38.2464618143" lon="-6.3088649791">
        <ele>583.18</ele>
        <time>2020-07-11T10:03:51Z</time>
      </trkpt>
      <trkpt lat="38.2464675140" lon="-6.3088653982">
        <ele>584.62</ele>
        <time>2020-07-11T10:04:03Z</time>
      </trkpt>
      <trkpt lat="38.2464545220" lon="-6.3088472933">
        <ele>586.54</ele>
        <time>2020-07-11T10:04:24Z</time>
      </trkpt>
      <trkpt lat="38.2464391831" lon="-6.3088413421">
        <ele>587.02</ele>
        <time>2020-07-11T10:04:40Z</time>
      </trkpt>
      <trkpt lat="38.2464476489" lon="-6.3088507298">
        <ele>589.91</ele>
        <time>2020-07-11T10:04:58Z</time>
      </trkpt>
      <trkpt lat="38.2464525104" lon="-6.3088822458">
        <ele>588.46</ele>
        <time>2020-07-11T10:05:18Z</time>
      </trkpt>
      <trkpt lat="38.2464388479" lon="-6.3088800665">
        <ele>588.95</ele>
        <time>2020-07-11T10:05:32Z</time>
      </trkpt>
      <trkpt lat="38.2464328967" lon="-6.3088913821">
        <ele>589.43</ele>
        <time>2020-07-11T10:05:41Z</time>
      </trkpt>
      <trkpt lat="38.2464300469" lon="-6.3088947348">
        <ele>589.43</ele>
        <time>2020-07-11T10:05:44Z</time>
      </trkpt>
      <trkpt lat="38.2464445475" lon="-6.3088764623">
        <ele>594.23</ele>
        <time>2020-07-11T10:05:51Z</time>
      </trkpt>
      <trkpt lat="38.2464797515" lon="-6.3089050446">
        <ele>593.75</ele>
        <time>2020-07-11T10:05:55Z</time>
      </trkpt>
      <trkpt lat="38.2465507463" lon="-6.3089662325">
        <ele>593.75</ele>
        <time>2020-07-11T10:06:00Z</time>
      </trkpt>
      <trkpt lat="38.2466001995" lon="-6.3090713415">
        <ele>593.75</ele>
        <time>2020-07-11T10:06:06Z</time>
      </trkpt>
      <trkpt lat="38.2467492297" lon="-6.3092364650">
        <ele>593.27</ele>
        <time>2020-07-11T10:06:17Z</time>
      </trkpt>
      <trkpt lat="38.2468397543" lon="-6.3091267459">
        <ele>593.75</ele>
        <time>2020-07-11T10:06:23Z</time>
      </trkpt>
      <trkpt lat="38.2469595317" lon="-6.3088980038">
        <ele>594.23</ele>
        <time>2020-07-11T10:06:32Z</time>
      </trkpt>
      <trkpt lat="38.2470402494" lon="-6.3087440282">
        <ele>594.71</ele>
        <time>2020-07-11T10:06:40Z</time>
      </trkpt>
      <trkpt lat="38.2470491342" lon="-6.3087333832">
        <ele>595.19</ele>
        <time>2020-07-11T10:06:42Z</time>
      </trkpt>
      <trkpt lat="38.2471446041" lon="-6.3087973371">
        <ele>596.15</ele>
        <time>2020-07-11T10:06:49Z</time>
      </trkpt>
      <trkpt lat="38.2472208794" lon="-6.3088521548">
        <ele>595.19</ele>
        <time>2020-07-11T10:06:56Z</time>
      </trkpt>
      <trkpt lat="38.2472537365" lon="-6.3088429347">
        <ele>594.71</ele>
        <time>2020-07-11T10:07:00Z</time>
      </trkpt>
      <trkpt lat="38.2472689077" lon="-6.3088741153">
        <ele>595.19</ele>
        <time>2020-07-11T10:07:03Z</time>
      </trkpt>
      <trkpt lat="38.2472894434" lon="-6.3089610357">
        <ele>594.23</ele>
        <time>2020-07-11T10:07:08Z</time>
      </trkpt>
      <trkpt lat="38.2473021839" lon="-6.3089777995">
        <ele>594.23</ele>
        <time>2020-07-11T10:07:09Z</time>
      </trkpt>
      <trkpt lat="38.2474704087" lon="-6.3091181125">
        <ele>592.79</ele>
        <time>2020-07-11T10:07:16Z</time>
      </trkpt>
      <trkpt lat="38.2476083748" lon="-6.3091906160">
        <ele>592.79</ele>
        <time>2020-07-11T10:07:22Z</time>
      </trkpt>
      <trkpt lat="38.2478692196" lon="-6.3093199488">
        <ele>592.79</ele>
        <time>2020-07-11T10:07:32Z</time>
      </trkpt>
      <trkpt lat="38.2480174117" lon="-6.3094318472">
        <ele>594.71</ele>
        <time>2020-07-11T10:07:39Z</time>
      </trkpt>
      <trkpt lat="38.2480781805" lon="-6.3094704039">
        <ele>594.71</ele>
        <time>2020-07-11T10:07:42Z</time>
      </trkpt>
      <trkpt lat="38.2482811064" lon="-6.3094241358">
        <ele>590.87</ele>
        <time>2020-07-11T10:07:51Z</time>
      </trkpt>
      <trkpt lat="38.2484538574" lon="-6.3093745988">
        <ele>588.95</ele>
        <time>2020-07-11T10:07:59Z</time>
      </trkpt>
      <trkpt lat="38.2486711163" lon="-6.3093390595">
        <ele>587.50</ele>
        <time>2020-07-11T10:08:07Z</time>
      </trkpt>
      <trkpt lat="38.2488881238" lon="-6.3092766982">
        <ele>587.50</ele>
        <time>2020-07-11T10:08:16Z</time>
      </trkpt>
      <trkpt lat="38.2489318773" lon="-6.3092834037">
        <ele>587.50</ele>
        <time>2020-07-11T10:08:18Z</time>
      </trkpt>
      <trkpt lat="38.2490259223" lon="-6.3093362097">
        <ele>587.02</ele>
        <time>2020-07-11T10:08:24Z</time>
      </trkpt>
      <trkpt lat="38.2491772156" lon="-6.3094083779">
        <ele>586.54</ele>
        <time>2020-07-11T10:08:31Z</time>
      </trkpt>
      <trkpt lat="38.2493692450" lon="-6.3094940409">
        <ele>588.46</ele>
        <time>2020-07-11T10:08:39Z</time>
      </trkpt>
      <trkpt lat="38.2496104762" lon="-6.3096351922">
        <ele>588.95</ele>
        <time>2020-07-11T10:08:49Z</time>
      </trkpt>
      <trkpt lat="38.2497968059" lon="-6.3096859865">
        <ele>591.35</ele>
        <time>2020-07-11T10:08:57Z</time>
      </trkpt>
      <trkpt lat="38.2498845644" lon="-6.3097159099">
        <ele>592.31</ele>
        <time>2020-07-11T10:09:04Z</time>
      </trkpt>
      <trkpt lat="38.2500091195" lon="-6.3097470906">
        <ele>592.31</ele>
        <time>2020-07-11T10:09:11Z</time>
      </trkpt>
      <trkpt lat="38.2501954492" lon="-6.3098032493">
        <ele>591.83</ele>
        <time>2020-07-11T10:09:20Z</time>
      </trkpt>
      <trkpt lat="38.2504162285" lon="-6.3099013176">
        <ele>592.31</ele>
        <time>2020-07-11T10:09:29Z</time>
      </trkpt>
      <trkpt lat="38.2505285461" lon="-6.3099047542">
        <ele>593.75</ele>
        <time>2020-07-11T10:09:34Z</time>
      </trkpt>
      <trkpt lat="38.2506022230" lon="-6.3098614197">
        <ele>594.23</ele>
        <time>2020-07-11T10:09:39Z</time>
      </trkpt>
      <trkpt lat="38.2506965194" lon="-6.3098894991">
        <ele>592.31</ele>
        <time>2020-07-11T10:09:45Z</time>
      </trkpt>
      <trkpt lat="38.2507199049" lon="-6.3099238649">
        <ele>591.83</ele>
        <time>2020-07-11T10:09:46Z</time>
      </trkpt>
      <trkpt lat="38.2507388480" lon="-6.3099545427">
        <ele>591.35</ele>
        <time>2020-07-11T10:09:47Z</time>
      </trkpt>
      <trkpt lat="38.2509074919" lon="-6.3101135474">
        <ele>589.43</ele>
        <time>2020-07-11T10:09:53Z</time>
      </trkpt>
      <trkpt lat="38.2509255130" lon="-6.3101147208">
        <ele>589.43</ele>
        <time>2020-07-11T10:09:54Z</time>
      </trkpt>
      <trkpt lat="38.2509447075" lon="-6.3101140503">
        <ele>588.95</ele>
        <time>2020-07-11T10:09:55Z</time>
      </trkpt>
      <trkpt lat="38.2509618066" lon="-6.3101067580">
        <ele>588.46</ele>
        <time>2020-07-11T10:10:00Z</time>
      </trkpt>
      <trkpt lat="38.2509587053" lon="-6.3101099432">
        <ele>587.02</ele>
        <time>2020-07-11T10:10:11Z</time>
      </trkpt>
      <trkpt lat="38.2509492338" lon="-6.3101243600">
        <ele>587.50</ele>
        <time>2020-07-11T10:10:22Z</time>
      </trkpt>
      <trkpt lat="38.2509463839" lon="-6.3101336639">
        <ele>588.95</ele>
        <time>2020-07-11T10:10:35Z</time>
      </trkpt>
      <trkpt lat="38.2509447075" lon="-6.3101402018">
        <ele>589.43</ele>
        <time>2020-07-11T10:10:46Z</time>
      </trkpt>
      <trkpt lat="38.2509394269" lon="-6.3101445604">
        <ele>590.39</ele>
        <time>2020-07-11T10:10:53Z</time>
      </trkpt>
      <trkpt lat="38.2509509940" lon="-6.3101551216">
        <ele>590.87</ele>
        <time>2020-07-11T10:10:56Z</time>
      </trkpt>
      <trkpt lat="38.2509648241" lon="-6.3101603184">
        <ele>591.35</ele>
        <time>2020-07-11T10:10:57Z</time>
      </trkpt>
      <trkpt lat="38.2509807497" lon="-6.3101630844">
        <ele>590.87</ele>
        <time>2020-07-11T10:10:58Z</time>
      </trkpt>
      <trkpt lat="38.2509981841" lon="-6.3101643417">
        <ele>590.87</ele>
        <time>2020-07-11T10:10:59Z</time>
      </trkpt>
      <trkpt lat="38.2510168757" lon="-6.3101681974">
        <ele>590.39</ele>
        <time>2020-07-11T10:11:00Z</time>
      </trkpt>
      <trkpt lat="38.2510369923" lon="-6.3101721369">
        <ele>590.39</ele>
        <time>2020-07-11T10:11:01Z</time>
      </trkpt>
      <trkpt lat="38.2510583661" lon="-6.3101755735">
        <ele>590.39</ele>
        <time>2020-07-11T10:11:02Z</time>
      </trkpt>
      <trkpt lat="38.2512603700" lon="-6.3101943489">
        <ele>590.39</ele>
        <time>2020-07-11T10:11:09Z</time>
      </trkpt>
      <trkpt lat="38.2516009267" lon="-6.3102562074">
        <ele>589.43</ele>
        <time>2020-07-11T10:11:19Z</time>
      </trkpt>
      <trkpt lat="38.2518463489" lon="-6.3102986198">
        <ele>589.91</ele>
        <time>2020-07-11T10:11:27Z</time>
      </trkpt>
      <trkpt lat="38.2520936988" lon="-6.3103309739">
        <ele>590.87</ele>
        <time>2020-07-11T10:11:36Z</time>
      </trkpt>
      <trkpt lat="38.2523666974" lon="-6.3103444688">
        <ele>591.83</ele>
        <time>2020-07-11T10:11:46Z</time>
      </trkpt>
      <trkpt lat="38.2525929250" lon="-6.3103662618">
        <ele>592.31</ele>
        <time>2020-07-11T10:11:55Z</time>
      </trkpt>
      <trkpt lat="38.2528444659" lon="-6.3103906531">
        <ele>593.75</ele>
        <time>2020-07-11T10:12:05Z</time>
      </trkpt>
      <trkpt lat="38.2530630659" lon="-6.3104328979">
        <ele>593.27</ele>
        <time>2020-07-11T10:12:14Z</time>
      </trkpt>
      <trkpt lat="38.2533506490" lon="-6.3105187286">
        <ele>594.71</ele>
        <time>2020-07-11T10:12:26Z</time>
      </trkpt>
      <trkpt lat="38.2535657287" lon="-6.3105774857">
        <ele>595.67</ele>
        <time>2020-07-11T10:12:35Z</time>
      </trkpt>
      <trkpt lat="38.2537741866" lon="-6.3106244244">
        <ele>596.64</ele>
        <time>2020-07-11T10:12:44Z</time>
      </trkpt>
      <trkpt lat="38.2539969776" lon="-6.3106521685">
        <ele>596.64</ele>
        <time>2020-07-11T10:12:53Z</time>
      </trkpt>
      <trkpt lat="38.2542305812" lon="-6.3106716145">
        <ele>597.12</ele>
        <time>2020-07-11T10:13:03Z</time>
      </trkpt>
      <trkpt lat="38.2544599939" lon="-6.3106879592">
        <ele>597.12</ele>
        <time>2020-07-11T10:13:12Z</time>
      </trkpt>
      <trkpt lat="38.2547745667" lon="-6.3106938265">
        <ele>597.60</ele>
        <time>2020-07-11T10:13:23Z</time>
      </trkpt>
      <trkpt lat="38.2550914027" lon="-6.3106908090">
        <ele>598.08</ele>
        <time>2020-07-11T10:13:34Z</time>
      </trkpt>
      <trkpt lat="38.2553942408" lon="-6.3106965087">
        <ele>599.52</ele>
        <time>2020-07-11T10:13:45Z</time>
      </trkpt>
      <trkpt lat="38.2557215542" lon="-6.3107157033">
        <ele>599.52</ele>
        <time>2020-07-11T10:13:57Z</time>
      </trkpt>
      <trkpt lat="38.2559851650" lon="-6.3107297011">
        <ele>600.00</ele>
        <time>2020-07-11T10:14:07Z</time>
      </trkpt>
      <trkpt lat="38.2560798805" lon="-6.3107279409">
        <ele>600.48</ele>
        <time>2020-07-11T10:14:11Z</time>
      </trkpt>
      <trkpt lat="38.2561038528" lon="-6.3107302878">
        <ele>600.48</ele>
        <time>2020-07-11T10:14:12Z</time>
      </trkpt>
      <trkpt lat="38.2561279926" lon="-6.3107293658">
        <ele>600.48</ele>
        <time>2020-07-11T10:14:13Z</time>
      </trkpt>
      <trkpt lat="38.2563984767" lon="-6.3107402623">
        <ele>601.44</ele>
        <time>2020-07-11T10:14:23Z</time>
      </trkpt>
      <trkpt lat="38.2567034941" lon="-6.3107619714">
        <ele>601.92</ele>
        <time>2020-07-11T10:14:34Z</time>
      </trkpt>
      <trkpt lat="38.2569544483" lon="-6.3107875362">
        <ele>602.40</ele>
        <time>2020-07-11T10:14:43Z</time>
      </trkpt>
      <trkpt lat="38.2572267763" lon="-6.3107992709">
        <ele>602.88</ele>
        <time>2020-07-11T10:14:53Z</time>
      </trkpt>
      <trkpt lat="38.2575020380" lon="-6.3108063955">
        <ele>602.40</ele>
        <time>2020-07-11T10:15:03Z</time>
      </trkpt>
      <trkpt lat="38.2578305248" lon="-6.3108447008">
        <ele>603.36</ele>
        <time>2020-07-11T10:15:15Z</time>
      </trkpt>
      <trkpt lat="38.2580596022" lon="-6.3108704332">
        <ele>603.36</ele>
        <time>2020-07-11T10:15:23Z</time>
      </trkpt>
      <trkpt lat="38.2582916133" lon="-6.3109142706">
        <ele>603.36</ele>
        <time>2020-07-11T10:15:31Z</time>
      </trkpt>
      <trkpt lat="38.2585410587" lon="-6.3109659869">
        <ele>602.88</ele>
        <time>2020-07-11T10:15:39Z</time>
      </trkpt>
      <trkpt lat="38.2588994689" lon="-6.3109770510">
        <ele>602.88</ele>
        <time>2020-07-11T10:15:49Z</time>
      </trkpt>
      <trkpt lat="38.2592965197" lon="-6.3109668251">
        <ele>602.40</ele>
        <time>2020-07-11T10:15:59Z</time>
      </trkpt>
      <trkpt lat="38.2597151957" lon="-6.3109561801">
        <ele>602.88</ele>
        <time>2020-07-11T10:16:09Z</time>
      </trkpt>
      <trkpt lat="38.2600445207" lon="-6.3109712675">
        <ele>602.40</ele>
        <time>2020-07-11T10:16:17Z</time>
      </trkpt>
      <trkpt lat="38.2604399789" lon="-6.3110519852">
        <ele>601.92</ele>
        <time>2020-07-11T10:16:27Z</time>
      </trkpt>
      <trkpt lat="38.2608706411" lon="-6.3111419231">
        <ele>601.92</ele>
        <time>2020-07-11T10:16:37Z</time>
      </trkpt>
      <trkpt lat="38.2612243574" lon="-6.3112152647">
        <ele>600.96</ele>
        <time>2020-07-11T10:16:45Z</time>
      </trkpt>
      <trkpt lat="38.2616821770" lon="-6.3112512231">
        <ele>600.96</ele>
        <time>2020-07-11T10:16:55Z</time>
      </trkpt>
      <trkpt lat="38.2621738594" lon="-6.3112712558">
        <ele>600.00</ele>
        <time>2020-07-11T10:17:05Z</time>
      </trkpt>
      <trkpt lat="38.2628175896" lon="-6.3113492914">
        <ele>598.56</ele>
        <time>2020-07-11T10:17:17Z</time>
      </trkpt>
      <trkpt lat="38.2633526064" lon="-6.3115143310">
        <ele>597.60</ele>
        <time>2020-07-11T10:17:27Z</time>
      </trkpt>
      <trkpt lat="38.2637525909" lon="-6.3116541412">
        <ele>597.60</ele>
        <time>2020-07-11T10:17:36Z</time>
      </trkpt>
      <trkpt lat="38.2641098276" lon="-6.3117616810">
        <ele>598.08</ele>
        <time>2020-07-11T10:17:44Z</time>
      </trkpt>
      <trkpt lat="38.2645776216" lon="-6.3118953723">
        <ele>598.56</ele>
        <time>2020-07-11T10:17:55Z</time>
      </trkpt>
      <trkpt lat="38.2649327628" lon="-6.3119884115">
        <ele>598.08</ele>
        <time>2020-07-11T10:18:04Z</time>
      </trkpt>
      <trkpt lat="38.2653588150" lon="-6.3120956160">
        <ele>598.08</ele>
        <time>2020-07-11T10:18:15Z</time>
      </trkpt>
      <trkpt lat="38.2657788321" lon="-6.3121912535">
        <ele>598.08</ele>
        <time>2020-07-11T10:18:25Z</time>
      </trkpt>
      <trkpt lat="38.2663411740" lon="-6.3122923393">
        <ele>597.12</ele>
        <time>2020-07-11T10:18:37Z</time>
      </trkpt>
      <trkpt lat="38.2668955531" lon="-6.3124124520">
        <ele>594.71</ele>
        <time>2020-07-11T10:18:47Z</time>
      </trkpt>
      <trkpt lat="38.2674640138" lon="-6.3125731330">
        <ele>592.31</ele>
        <time>2020-07-11T10:18:56Z</time>
      </trkpt>
      <trkpt lat="38.2681229152" lon="-6.3128020428">
        <ele>589.43</ele>
        <time>2020-07-11T10:19:05Z</time>
      </trkpt>
      <trkpt lat="38.2690057810" lon="-6.3131181244">
        <ele>588.46</ele>
        <time>2020-07-11T10:19:17Z</time>
      </trkpt>
      <trkpt lat="38.2696088590" lon="-6.3132278435">
        <ele>586.54</ele>
        <time>2020-07-11T10:19:25Z</time>
      </trkpt>
      <trkpt lat="38.2703768928" lon="-6.3133287616">
        <ele>585.10</ele>
        <time>2020-07-11T10:19:35Z</time>
      </trkpt>
      <trkpt lat="38.2709178608" lon="-6.3132752851">
        <ele>583.18</ele>
        <time>2020-07-11T10:19:42Z</time>
      </trkpt>
      <trkpt lat="38.2716370281" lon="-6.3133681566">
        <ele>581.25</ele>
        <time>2020-07-11T10:19:51Z</time>
      </trkpt>
      <trkpt lat="38.2719363458" lon="-6.3135121576">
        <ele>580.29</ele>
        <time>2020-07-11T10:19:55Z</time>
      </trkpt>
      <trkpt lat="38.2720686123" lon="-6.3136050291">
        <ele>580.77</ele>
        <time>2020-07-11T10:19:57Z</time>
      </trkpt>
      <trkpt lat="38.2725311257" lon="-6.3138825539">
        <ele>580.29</ele>
        <time>2020-07-11T10:20:04Z</time>
      </trkpt>
      <trkpt lat="38.2731642947" lon="-6.3142644335">
        <ele>580.29</ele>
        <time>2020-07-11T10:20:15Z</time>
      </trkpt>
      <trkpt lat="38.2736627664" lon="-6.3145258650">
        <ele>579.33</ele>
        <time>2020-07-11T10:20:24Z</time>
      </trkpt>
      <trkpt lat="38.2740748208" lon="-6.3146958500">
        <ele>578.85</ele>
        <time>2020-07-11T10:20:32Z</time>
      </trkpt>
      <trkpt lat="38.2744683512" lon="-6.3148193993">
        <ele>577.89</ele>
        <time>2020-07-11T10:20:41Z</time>
      </trkpt>
      <trkpt lat="38.2747340575" lon="-6.3149135280">
        <ele>578.37</ele>
        <time>2020-07-11T10:20:47Z</time>
      </trkpt>
      <trkpt lat="38.2748488057" lon="-6.3149696030">
        <ele>578.37</ele>
        <time>2020-07-11T10:20:50Z</time>
      </trkpt>
      <trkpt lat="38.2748853508" lon="-6.3149890490">
        <ele>578.37</ele>
        <time>2020-07-11T10:20:51Z</time>
      </trkpt>
      <trkpt lat="38.2752613630" lon="-6.3151991833">
        <ele>578.37</ele>
        <time>2020-07-11T10:21:01Z</time>
      </trkpt>
      <trkpt lat="38.2756118942" lon="-6.3154677395">
        <ele>578.85</ele>
        <time>2020-07-11T10:21:11Z</time>
      </trkpt>
      <trkpt lat="38.2759841345" lon="-6.3157340325">
        <ele>578.85</ele>
        <time>2020-07-11T10:21:22Z</time>
      </trkpt>
      <trkpt lat="38.2761386968" lon="-6.3158041053">
        <ele>578.37</ele>
        <time>2020-07-11T10:21:26Z</time>
      </trkpt>
      <trkpt lat="38.2761824504" lon="-6.3158143312">
        <ele>578.37</ele>
        <time>2020-07-11T10:21:27Z</time>
      </trkpt>
      <trkpt lat="38.2762244437" lon="-6.3158198632">
        <ele>578.37</ele>
        <time>2020-07-11T10:21:28Z</time>
      </trkpt>
      <trkpt lat="38.2765861228" lon="-6.3157752715">
        <ele>578.37</ele>
        <time>2020-07-11T10:21:37Z</time>
      </trkpt>
      <trkpt lat="38.2769866940" lon="-6.3157241419">
        <ele>578.85</ele>
        <time>2020-07-11T10:21:47Z</time>
      </trkpt>
      <trkpt lat="38.2772690803" lon="-6.3157217950">
        <ele>580.29</ele>
        <time>2020-07-11T10:21:56Z</time>
      </trkpt>
      <trkpt lat="38.2775727566" lon="-6.3157276623">
        <ele>581.25</ele>
        <time>2020-07-11T10:22:07Z</time>
      </trkpt>
      <trkpt lat="38.2779162470" lon="-6.3157422468">
        <ele>581.73</ele>
        <time>2020-07-11T10:22:20Z</time>
      </trkpt>
      <trkpt lat="38.2781727333" lon="-6.3157844078">
        <ele>582.70</ele>
        <time>2020-07-11T10:22:30Z</time>
      </trkpt>
      <trkpt lat="38.2784868032" lon="-6.3158616051">
        <ele>583.66</ele>
        <time>2020-07-11T10:22:42Z</time>
      </trkpt>
      <trkpt lat="38.2787860371" lon="-6.3159525488">
        <ele>584.62</ele>
        <time>2020-07-11T10:22:54Z</time>
      </trkpt>
      <trkpt lat="38.2790416852" lon="-6.3160539698">
        <ele>585.10</ele>
        <time>2020-07-11T10:23:05Z</time>
      </trkpt>
      <trkpt lat="38.2793425117" lon="-6.3161609229">
        <ele>586.06</ele>
        <time>2020-07-11T10:23:18Z</time>
      </trkpt>
      <trkpt lat="38.2795579266" lon="-6.3162367791">
        <ele>586.54</ele>
        <time>2020-07-11T10:23:28Z</time>
      </trkpt>
      <trkpt lat="38.2797351200" lon="-6.3163205143">
        <ele>587.50</ele>
        <time>2020-07-11T10:23:37Z</time>
      </trkpt>
      <trkpt lat="38.2799330167" lon="-6.3164349273">
        <ele>588.46</ele>
        <time>2020-07-11T10:23:48Z</time>
      </trkpt>
      <trkpt lat="38.2800997328" lon="-6.3165388629">
        <ele>589.43</ele>
        <time>2020-07-11T10:23:58Z</time>
      </trkpt>
      <trkpt lat="38.2802794408" lon="-6.3166781701">
        <ele>589.91</ele>
        <time>2020-07-11T10:24:09Z</time>
      </trkpt>
      <trkpt lat="38.2805170678" lon="-6.3168629073">
        <ele>591.35</ele>
        <time>2020-07-11T10:24:23Z</time>
      </trkpt>
      <trkpt lat="38.2806930877" lon="-6.3169990294">
        <ele>591.35</ele>
        <time>2020-07-11T10:24:33Z</time>
      </trkpt>
      <trkpt lat="38.2808614802" lon="-6.3171481434">
        <ele>591.83</ele>
        <time>2020-07-11T10:24:43Z</time>
      </trkpt>
      <trkpt lat="38.2810329739" lon="-6.3173200563">
        <ele>592.31</ele>
        <time>2020-07-11T10:24:53Z</time>
      </trkpt>
      <trkpt lat="38.2812092453" lon="-6.3174916338">
        <ele>592.79</ele>
        <time>2020-07-11T10:25:04Z</time>
      </trkpt>
      <trkpt lat="38.2813884504" lon="-6.3176509738">
        <ele>592.79</ele>
        <time>2020-07-11T10:25:14Z</time>
      </trkpt>
      <trkpt lat="38.2815497182" lon="-6.3177534007">
        <ele>592.31</ele>
        <time>2020-07-11T10:25:21Z</time>
      </trkpt>
      <trkpt lat="38.2817375567" lon="-6.3178515527">
        <ele>591.83</ele>
        <time>2020-07-11T10:25:29Z</time>
      </trkpt>
      <trkpt lat="38.2819863316" lon="-6.3179455977">
        <ele>592.31</ele>
        <time>2020-07-11T10:25:37Z</time>
      </trkpt>
      <trkpt lat="38.2822432369" lon="-6.3179977331">
        <ele>592.31</ele>
        <time>2020-07-11T10:25:44Z</time>
      </trkpt>
      <trkpt lat="38.2826623321" lon="-6.3180994894">
        <ele>592.79</ele>
        <time>2020-07-11T10:25:55Z</time>
      </trkpt>
      <trkpt lat="38.2829431258" lon="-6.3181741722">
        <ele>593.27</ele>
        <time>2020-07-11T10:26:04Z</time>
      </trkpt>
      <trkpt lat="38.2831294555" lon="-6.3181892596">
        <ele>593.27</ele>
        <time>2020-07-11T10:26:11Z</time>
      </trkpt>
      <trkpt lat="38.2834115066" lon="-6.3182200212">
        <ele>594.23</ele>
        <time>2020-07-11T10:26:21Z</time>
      </trkpt>
      <trkpt lat="38.2836894505" lon="-6.3182444964">
        <ele>595.19</ele>
        <time>2020-07-11T10:26:30Z</time>
      </trkpt>
      <trkpt lat="38.2840510458" lon="-6.3182910997">
        <ele>595.67</ele>
        <time>2020-07-11T10:26:42Z</time>
      </trkpt>
      <trkpt lat="38.2843054365" lon="-6.3183561433">
        <ele>595.67</ele>
        <time>2020-07-11T10:26:51Z</time>
      </trkpt>
      <trkpt lat="38.2845179178" lon="-6.3184521161">
        <ele>595.67</ele>
        <time>2020-07-11T10:26:59Z</time>
      </trkpt>
      <trkpt lat="38.2847821154" lon="-6.3186375238">
        <ele>596.64</ele>
        <time>2020-07-11T10:27:10Z</time>
      </trkpt>
      <trkpt lat="38.2849837840" lon="-6.3188225124">
        <ele>598.08</ele>
        <time>2020-07-11T10:27:19Z</time>
      </trkpt>
      <trkpt lat="38.2852050662" lon="-6.3190155476">
        <ele>598.08</ele>
        <time>2020-07-11T10:27:29Z</time>
      </trkpt>
      <trkpt lat="38.2853996102" lon="-6.3191854488">
        <ele>598.56</ele>
        <time>2020-07-11T10:27:38Z</time>
      </trkpt>
      <trkpt lat="38.2856406737" lon="-6.3193941582">
        <ele>600.00</ele>
        <time>2020-07-11T10:27:49Z</time>
      </trkpt>
      <trkpt lat="38.2858701702" lon="-6.3195510674">
        <ele>600.00</ele>
        <time>2020-07-11T10:27:58Z</time>
      </trkpt>
      <trkpt lat="38.2861005887" lon="-6.3196778018">
        <ele>600.48</ele>
        <time>2020-07-11T10:28:07Z</time>
      </trkpt>
      <trkpt lat="38.2863720786" lon="-6.3197636325">
        <ele>600.48</ele>
        <time>2020-07-11T10:28:16Z</time>
      </trkpt>
      <trkpt lat="38.2866837177" lon="-6.3198109064">
        <ele>600.48</ele>
        <time>2020-07-11T10:28:26Z</time>
      </trkpt>
      <trkpt lat="38.2870302256" lon="-6.3198131695">
        <ele>600.96</ele>
        <time>2020-07-11T10:28:37Z</time>
      </trkpt>
      <trkpt lat="38.2872698642" lon="-6.3198181149">
        <ele>601.44</ele>
        <time>2020-07-11T10:28:45Z</time>
      </trkpt>
      <trkpt lat="38.2875328884" lon="-6.3197928015">
        <ele>601.44</ele>
        <time>2020-07-11T10:28:54Z</time>
      </trkpt>
      <trkpt lat="38.2878275122" lon="-6.3197596092">
        <ele>600.96</ele>
        <time>2020-07-11T10:29:04Z</time>
      </trkpt>
      <trkpt lat="38.2878857665" lon="-6.3197252434">
        <ele>600.96</ele>
        <time>2020-07-11T10:29:07Z</time>
      </trkpt>
      <trkpt lat="38.2878954895" lon="-6.3197188731">
        <ele>601.44</ele>
        <time>2020-07-11T10:29:08Z</time>
      </trkpt>
      <trkpt lat="38.2878964115" lon="-6.3197027799">
        <ele>601.92</ele>
        <time>2020-07-11T10:29:15Z</time>
      </trkpt>
      <trkpt lat="38.2878920529" lon="-6.3197011873">
        <ele>602.88</ele>
        <time>2020-07-11T10:29:22Z</time>
      </trkpt>
      <trkpt lat="38.2878900412" lon="-6.3196935598">
        <ele>601.92</ele>
        <time>2020-07-11T10:29:35Z</time>
      </trkpt>
      <trkpt lat="38.2878932264" lon="-6.3196747005">
        <ele>601.44</ele>
        <time>2020-07-11T10:29:54Z</time>
      </trkpt>
      <trkpt lat="38.2878981717" lon="-6.3196846750">
        <ele>600.48</ele>
        <time>2020-07-11T10:30:13Z</time>
      </trkpt>
      <trkpt lat="38.2878938969" lon="-6.3196757901">
        <ele>600.48</ele>
        <time>2020-07-11T10:30:30Z</time>
      </trkpt>
      <trkpt lat="38.2878925558" lon="-6.3196730241">
        <ele>600.96</ele>
        <time>2020-07-11T10:30:47Z</time>
      </trkpt>
      <trkpt lat="38.2878940646" lon="-6.3196766283">
        <ele>600.48</ele>
        <time>2020-07-11T10:31:05Z</time>
      </trkpt>
      <trkpt lat="38.2878879458" lon="-6.3196860161">
        <ele>601.44</ele>
        <time>2020-07-11T10:31:18Z</time>
      </trkpt>
      <trkpt lat="38.2878916338" lon="-6.3196834177">
        <ele>601.92</ele>
        <time>2020-07-11T10:31:31Z</time>
      </trkpt>
      <trkpt lat="38.2879384048" lon="-6.3196792267">
        <ele>601.92</ele>
        <time>2020-07-11T10:31:39Z</time>
      </trkpt>
      <trkpt lat="38.2880800590" lon="-6.3197218068">
        <ele>601.44</ele>
        <time>2020-07-11T10:31:45Z</time>
      </trkpt>
      <trkpt lat="38.2883849926" lon="-6.3196576852">
        <ele>600.48</ele>
        <time>2020-07-11T10:31:54Z</time>
      </trkpt>
      <trkpt lat="38.2887172513" lon="-6.3195603713">
        <ele>600.00</ele>
        <time>2020-07-11T10:32:05Z</time>
      </trkpt>
      <trkpt lat="38.2890990470" lon="-6.3194783125">
        <ele>599.04</ele>
        <time>2020-07-11T10:32:14Z</time>
      </trkpt>
      <trkpt lat="38.2895574532" lon="-6.3193887100">
        <ele>597.60</ele>
        <time>2020-07-11T10:32:23Z</time>
      </trkpt>
      <trkpt lat="38.2900761254" lon="-6.3192644902">
        <ele>595.19</ele>
        <time>2020-07-11T10:32:33Z</time>
      </trkpt>
      <trkpt lat="38.2905361243" lon="-6.3191642426">
        <ele>593.27</ele>
        <time>2020-07-11T10:32:42Z</time>
      </trkpt>
      <trkpt lat="38.2909095380" lon="-6.3190921582">
        <ele>590.87</ele>
        <time>2020-07-11T10:32:50Z</time>
      </trkpt>
      <trkpt lat="38.2913065050" lon="-6.3190476503">
        <ele>588.46</ele>
        <time>2020-07-11T10:32:57Z</time>
      </trkpt>
      <trkpt lat="38.2918624766" lon="-6.3190196548">
        <ele>584.62</ele>
        <time>2020-07-11T10:33:04Z</time>
      </trkpt>
      <trkpt lat="38.2926568296" lon="-6.3189099357">
        <ele>580.77</ele>
        <time>2020-07-11T10:33:13Z</time>
      </trkpt>
      <trkpt lat="38.2933392003" lon="-6.3188207522">
        <ele>579.81</ele>
        <time>2020-07-11T10:33:21Z</time>
      </trkpt>
      <trkpt lat="38.2938849460" lon="-6.3187584747">
        <ele>579.33</ele>
        <time>2020-07-11T10:33:28Z</time>
      </trkpt>
      <trkpt lat="38.2946114894" lon="-6.3187015615">
        <ele>578.85</ele>
        <time>2020-07-11T10:33:38Z</time>
      </trkpt>
      <trkpt lat="38.2947490364" lon="-6.3186858874">
        <ele>578.85</ele>
        <time>2020-07-11T10:33:40Z</time>
      </trkpt>
      <trkpt lat="38.2948134094" lon="-6.3186684530">
        <ele>578.85</ele>
        <time>2020-07-11T10:33:41Z</time>
      </trkpt>
      <trkpt lat="38.2948781177" lon="-6.3186567184">
        <ele>578.85</ele>
        <time>2020-07-11T10:33:42Z</time>
      </trkpt>
      <trkpt lat="38.2951737475" lon="-6.3186293934">
        <ele>578.85</ele>
        <time>2020-07-11T10:33:47Z</time>
      </trkpt>
      <trkpt lat="38.2955395337" lon="-6.3185740728">
        <ele>579.33</ele>
        <time>2020-07-11T10:33:55Z</time>
      </trkpt>
      <trkpt lat="38.2958675176" lon="-6.3185421377">
        <ele>579.81</ele>
        <time>2020-07-11T10:34:04Z</time>
      </trkpt>
      <trkpt lat="38.2959874626" lon="-6.3185318280">
        <ele>580.29</ele>
        <time>2020-07-11T10:34:07Z</time>
      </trkpt>
      <trkpt lat="38.2963814121" lon="-6.3184905052">
        <ele>580.77</ele>
        <time>2020-07-11T10:34:17Z</time>
      </trkpt>
      <trkpt lat="38.2967706677" lon="-6.3184529543">
        <ele>581.25</ele>
        <time>2020-07-11T10:34:28Z</time>
      </trkpt>
      <trkpt lat="38.2970284950" lon="-6.3184303232">
        <ele>581.25</ele>
        <time>2020-07-11T10:34:37Z</time>
      </trkpt>
      <trkpt lat="38.2972434908" lon="-6.3184088655">
        <ele>580.77</ele>
        <time>2020-07-11T10:34:45Z</time>
      </trkpt>
      <trkpt lat="38.2975234464" lon="-6.3183906768">
        <ele>579.81</ele>
        <time>2020-07-11T10:34:56Z</time>
      </trkpt>
      <trkpt lat="38.2977578882" lon="-6.3183578197">
        <ele>578.37</ele>
        <time>2020-07-11T10:35:05Z</time>
      </trkpt>
      <trkpt lat="38.2980523445" lon="-6.3183406368">
        <ele>576.93</ele>
        <time>2020-07-11T10:35:14Z</time>
      </trkpt>
      <trkpt lat="38.2982917316" lon="-6.3183062710">
        <ele>575.97</ele>
        <time>2020-07-11T10:35:22Z</time>
      </trkpt>
      <trkpt lat="38.2984047197" lon="-6.3182942849">
        <ele>575.49</ele>
        <time>2020-07-11T10:35:28Z</time>
      </trkpt>
      <trkpt lat="38.2984778099" lon="-6.3182605058">
        <ele>575.49</ele>
        <time>2020-07-11T10:35:36Z</time>
      </trkpt>
      <trkpt lat="38.2984750438" lon="-6.3182641938">
        <ele>575.97</ele>
        <time>2020-07-11T10:35:43Z</time>
      </trkpt>
      <trkpt lat="38.2984669134" lon="-6.3182710670">
        <ele>577.89</ele>
        <time>2020-07-11T10:35:53Z</time>
      </trkpt>
      <trkpt lat="38.2984628063" lon="-6.3182693906">
        <ele>577.41</ele>
        <time>2020-07-11T10:36:08Z</time>
      </trkpt>
      <trkpt lat="38.2984670810" lon="-6.3182561472">
        <ele>578.37</ele>
        <time>2020-07-11T10:36:20Z</time>
      </trkpt>
      <trkpt lat="38.2984704338" lon="-6.3182485197">
        <ele>577.89</ele>
        <time>2020-07-11T10:36:33Z</time>
      </trkpt>
      <trkpt lat="38.2984784804" lon="-6.3182532135">
        <ele>577.89</ele>
        <time>2020-07-11T10:36:44Z</time>
      </trkpt>
      <trkpt lat="38.2985712681" lon="-6.3182672951">
        <ele>577.89</ele>
        <time>2020-07-11T10:36:49Z</time>
      </trkpt>
      <trkpt lat="38.2987839170" lon="-6.3182849810">
        <ele>578.37</ele>
        <time>2020-07-11T10:36:56Z</time>
      </trkpt>
      <trkpt lat="38.2991538104" lon="-6.3182220329">
        <ele>577.41</ele>
        <time>2020-07-11T10:37:03Z</time>
      </trkpt>
      <trkpt lat="38.2997381128" lon="-6.3181039318">
        <ele>575.49</ele>
        <time>2020-07-11T10:37:13Z</time>
      </trkpt>
      <trkpt lat="38.2998841256" lon="-6.3180739246">
        <ele>574.53</ele>
        <time>2020-07-11T10:37:17Z</time>
      </trkpt>
      <trkpt lat="38.3001167234" lon="-6.3180706557">
        <ele>572.60</ele>
        <time>2020-07-11T10:37:26Z</time>
      </trkpt>
      <trkpt lat="38.3002484031" lon="-6.3180923648">
        <ele>571.16</ele>
        <time>2020-07-11T10:37:33Z</time>
      </trkpt>
      <trkpt lat="38.3003468905" lon="-6.3180774450">
        <ele>570.68</ele>
        <time>2020-07-11T10:37:39Z</time>
      </trkpt>
      <trkpt lat="38.3003624808" lon="-6.3180663809">
        <ele>570.68</ele>
        <time>2020-07-11T10:37:40Z</time>
      </trkpt>
      <trkpt lat="38.3003758080" lon="-6.3180554844">
        <ele>570.20</ele>
        <time>2020-07-11T10:37:41Z</time>
      </trkpt>
      <trkpt lat="38.3003898058" lon="-6.3180429954">
        <ele>570.20</ele>
        <time>2020-07-11T10:37:42Z</time>
      </trkpt>
      <trkpt lat="38.3004058152" lon="-6.3180259801">
        <ele>570.20</ele>
        <time>2020-07-11T10:37:43Z</time>
      </trkpt>
      <trkpt lat="38.3004197292" lon="-6.3180046901">
        <ele>570.20</ele>
        <time>2020-07-11T10:37:44Z</time>
      </trkpt>
      <trkpt lat="38.3004290331" lon="-6.3179799635">
        <ele>569.72</ele>
        <time>2020-07-11T10:37:45Z</time>
      </trkpt>
      <trkpt lat="38.3004362416" lon="-6.3179554883">
        <ele>569.72</ele>
        <time>2020-07-11T10:37:46Z</time>
      </trkpt>
      <trkpt lat="38.3004374988" lon="-6.3179364614">
        <ele>569.72</ele>
        <time>2020-07-11T10:37:47Z</time>
      </trkpt>
      <trkpt lat="38.3004545979" lon="-6.3179016765">
        <ele>570.20</ele>
        <time>2020-07-11T10:37:51Z</time>
      </trkpt>
      <trkpt lat="38.3004683442" lon="-6.3178860024">
        <ele>569.72</ele>
        <time>2020-07-11T10:37:52Z</time>
      </trkpt>
      <trkpt lat="38.3004801627" lon="-6.3178671431">
        <ele>569.72</ele>
        <time>2020-07-11T10:37:53Z</time>
      </trkpt>
      <trkpt lat="38.3004882094" lon="-6.3178467751">
        <ele>569.72</ele>
        <time>2020-07-11T10:37:54Z</time>
      </trkpt>
      <trkpt lat="38.3004965913" lon="-6.3178222999">
        <ele>569.72</ele>
        <time>2020-07-11T10:37:55Z</time>
      </trkpt>
      <trkpt lat="38.3005058113" lon="-6.3177942205">
        <ele>570.20</ele>
        <time>2020-07-11T10:37:56Z</time>
      </trkpt>
      <trkpt lat="38.3005137742" lon="-6.3177665602">
        <ele>570.68</ele>
        <time>2020-07-11T10:37:57Z</time>
      </trkpt>
      <trkpt lat="38.3005199768" lon="-6.3177373912">
        <ele>570.68</ele>
        <time>2020-07-11T10:37:58Z</time>
      </trkpt>
      <trkpt lat="38.3005235810" lon="-6.3177082222">
        <ele>571.16</ele>
        <time>2020-07-11T10:37:59Z</time>
      </trkpt>
      <trkpt lat="38.3005151153" lon="-6.3175453618">
        <ele>572.60</ele>
        <time>2020-07-11T10:38:06Z</time>
      </trkpt>
      <trkpt lat="38.3005065657" lon="-6.3175265025">
        <ele>572.12</ele>
        <time>2020-07-11T10:38:07Z</time>
      </trkpt>
      <trkpt lat="38.3004772291" lon="-6.3174048811">
        <ele>571.16</ele>
        <time>2020-07-11T10:38:15Z</time>
      </trkpt>
      <trkpt lat="38.3005229104" lon="-6.3173940685">
        <ele>571.16</ele>
        <time>2020-07-11T10:38:19Z</time>
      </trkpt>
      <trkpt lat="38.3006555121" lon="-6.3174681645">
        <ele>571.16</ele>
        <time>2020-07-11T10:38:27Z</time>
      </trkpt>
      <trkpt lat="38.3008694183" lon="-6.3174964115">
        <ele>570.20</ele>
        <time>2020-07-11T10:38:36Z</time>
      </trkpt>
      <trkpt lat="38.3010553289" lon="-6.3175146002">
        <ele>571.64</ele>
        <time>2020-07-11T10:38:44Z</time>
      </trkpt>
      <trkpt lat="38.3011743519" lon="-6.3175584376">
        <ele>572.60</ele>
        <time>2020-07-11T10:38:51Z</time>
      </trkpt>
      <trkpt lat="38.3011932950" lon="-6.3176594395">
        <ele>571.64</ele>
        <time>2020-07-11T10:38:55Z</time>
      </trkpt>
      <trkpt lat="38.3012031019" lon="-6.3176763710">
        <ele>571.64</ele>
        <time>2020-07-11T10:38:56Z</time>
      </trkpt>
      <trkpt lat="38.3012184408" lon="-6.3176830765">
        <ele>571.64</ele>
        <time>2020-07-11T10:38:57Z</time>
      </trkpt>
      <trkpt lat="38.3013416547" lon="-6.3177036121">
        <ele>571.64</ele>
        <time>2020-07-11T10:39:04Z</time>
      </trkpt>
      <trkpt lat="38.3014559001" lon="-6.3177076355">
        <ele>573.56</ele>
        <time>2020-07-11T10:39:10Z</time>
      </trkpt>
      <trkpt lat="38.3016625140" lon="-6.3176628761">
        <ele>575.49</ele>
        <time>2020-07-11T10:39:18Z</time>
      </trkpt>
      <trkpt lat="38.3018853050" lon="-6.3175979163">
        <ele>577.89</ele>
        <time>2020-07-11T10:39:26Z</time>
      </trkpt>
      <trkpt lat="38.3020514343" lon="-6.3175702561">
        <ele>580.29</ele>
        <time>2020-07-11T10:39:33Z</time>
      </trkpt>
      <trkpt lat="38.3022418711" lon="-6.3175581023">
        <ele>581.25</ele>
        <time>2020-07-11T10:39:40Z</time>
      </trkpt>
      <trkpt lat="38.3024956752" lon="-6.3175720163">
        <ele>579.33</ele>
        <time>2020-07-11T10:39:47Z</time>
      </trkpt>
      <trkpt lat="38.3027716912" lon="-6.3175222278">
        <ele>573.08</ele>
        <time>2020-07-11T10:39:54Z</time>
      </trkpt>
      <trkpt lat="38.3030286804" lon="-6.3175174501">
        <ele>571.16</ele>
        <time>2020-07-11T10:40:01Z</time>
      </trkpt>
      <trkpt lat="38.3033429179" lon="-6.3175058831">
        <ele>570.20</ele>
        <time>2020-07-11T10:40:09Z</time>
      </trkpt>
      <trkpt lat="38.3033808880" lon="-6.3175078109">
        <ele>570.20</ele>
        <time>2020-07-11T10:40:10Z</time>
      </trkpt>
      <trkpt lat="38.3034128230" lon="-6.3175045419">
        <ele>569.72</ele>
        <time>2020-07-11T10:40:11Z</time>
      </trkpt>
      <trkpt lat="38.3035106398" lon="-6.3174984232">
        <ele>569.72</ele>
        <time>2020-07-11T10:40:17Z</time>
      </trkpt>
      <trkpt lat="38.3035068680" lon="-6.3175094873">
        <ele>570.20</ele>
        <time>2020-07-11T10:40:30Z</time>
      </trkpt>
      <trkpt lat="38.3035028446" lon="-6.3175132591">
        <ele>570.20</ele>
        <time>2020-07-11T10:40:40Z</time>
      </trkpt>
      <trkpt lat="38.3035075385" lon="-6.3175221439">
        <ele>569.72</ele>
        <time>2020-07-11T10:40:51Z</time>
      </trkpt>
      <trkpt lat="38.3036598377" lon="-6.3174991775">
        <ele>568.28</ele>
        <time>2020-07-11T10:40:58Z</time>
      </trkpt>
      <trkpt lat="38.3039508574" lon="-6.3174752891">
        <ele>566.35</ele>
        <time>2020-07-11T10:41:07Z</time>
      </trkpt>
      <trkpt lat="38.3042254485" lon="-6.3174575195">
        <ele>564.91</ele>
        <time>2020-07-11T10:41:15Z</time>
      </trkpt>
      <trkpt lat="38.3046125248" lon="-6.3174829166">
        <ele>562.99</ele>
        <time>2020-07-11T10:41:26Z</time>
      </trkpt>
      <trkpt lat="38.3048679214" lon="-6.3175152708">
        <ele>562.03</ele>
        <time>2020-07-11T10:41:34Z</time>
      </trkpt>
      <trkpt lat="38.3050498925" lon="-6.3175255805">
        <ele>561.07</ele>
        <time>2020-07-11T10:41:40Z</time>
      </trkpt>
      <trkpt lat="38.3052249067" lon="-6.3175182045">
        <ele>561.07</ele>
        <time>2020-07-11T10:41:47Z</time>
      </trkpt>
      <trkpt lat="38.3052689955" lon="-6.3175132591">
        <ele>560.59</ele>
        <time>2020-07-11T10:41:49Z</time>
      </trkpt>
      <trkpt lat="38.3052885253" lon="-6.3175103255">
        <ele>560.59</ele>
        <time>2020-07-11T10:41:50Z</time>
      </trkpt>
      <trkpt lat="38.3054230548" lon="-6.3175305258">
        <ele>559.62</ele>
        <time>2020-07-11T10:41:57Z</time>
      </trkpt>
      <trkpt lat="38.3056065347" lon="-6.3175943121">
        <ele>559.14</ele>
        <time>2020-07-11T10:42:05Z</time>
      </trkpt>
      <trkpt lat="38.3057859074" lon="-6.3176268339">
        <ele>557.70</ele>
        <time>2020-07-11T10:42:11Z</time>
      </trkpt>
      <trkpt lat="38.3060173318" lon="-6.3176497165">
        <ele>556.26</ele>
        <time>2020-07-11T10:42:18Z</time>
      </trkpt>
      <trkpt lat="38.3061510231" lon="-6.3176532369">
        <ele>554.82</ele>
        <time>2020-07-11T10:42:24Z</time>
      </trkpt>
      <trkpt lat="38.3062961139" lon="-6.3176961523">
        <ele>554.34</ele>
        <time>2020-07-11T10:42:31Z</time>
      </trkpt>
      <trkpt lat="38.3064736426" lon="-6.3177374750">
        <ele>553.38</ele>
        <time>2020-07-11T10:42:38Z</time>
      </trkpt>
      <trkpt lat="38.3067325596" lon="-6.3177965675">
        <ele>552.90</ele>
        <time>2020-07-11T10:42:47Z</time>
      </trkpt>
      <trkpt lat="38.3068516664" lon="-6.3178173546">
        <ele>552.90</ele>
        <time>2020-07-11T10:42:53Z</time>
      </trkpt>
      <trkpt lat="38.3070271835" lon="-6.3178147562">
        <ele>553.38</ele>
        <time>2020-07-11T10:43:00Z</time>
      </trkpt>
      <trkpt lat="38.3072678279" lon="-6.3177457731">
        <ele>553.38</ele>
        <time>2020-07-11T10:43:09Z</time>
      </trkpt>
      <trkpt lat="38.3075230569" lon="-6.3176473696">
        <ele>554.34</ele>
        <time>2020-07-11T10:43:19Z</time>
      </trkpt>
      <trkpt lat="38.3076688182" lon="-6.3175792247">
        <ele>554.34</ele>
        <time>2020-07-11T10:43:26Z</time>
      </trkpt>
      <trkpt lat="38.3079073671" lon="-6.3175046258">
        <ele>554.82</ele>
        <time>2020-07-11T10:43:35Z</time>
      </trkpt>
      <trkpt lat="38.3081528731" lon="-6.3174667396">
        <ele>553.86</ele>
        <time>2020-07-11T10:43:43Z</time>
      </trkpt>
      <trkpt lat="38.3083521109" lon="-6.3174261712">
        <ele>552.41</ele>
        <time>2020-07-11T10:43:49Z</time>
      </trkpt>
      <trkpt lat="38.3086764067" lon="-6.3173726108">
        <ele>552.41</ele>
        <time>2020-07-11T10:43:58Z</time>
      </trkpt>
      <trkpt lat="38.3088884689" lon="-6.3173400890">
        <ele>552.90</ele>
        <time>2020-07-11T10:44:05Z</time>
      </trkpt>
      <trkpt lat="38.3091437817" lon="-6.3171877060">
        <ele>553.38</ele>
        <time>2020-07-11T10:44:15Z</time>
      </trkpt>
      <trkpt lat="38.3093264233" lon="-6.3169752248">
        <ele>554.34</ele>
        <time>2020-07-11T10:44:24Z</time>
      </trkpt>
      <trkpt lat="38.3094441053" lon="-6.3167365082">
        <ele>556.26</ele>
        <time>2020-07-11T10:44:33Z</time>
      </trkpt>
      <trkpt lat="38.3096318599" lon="-6.3164173253">
        <ele>556.74</ele>
        <time>2020-07-11T10:44:45Z</time>
      </trkpt>
      <trkpt lat="38.3096447680" lon="-6.3163894136">
        <ele>556.74</ele>
        <time>2020-07-11T10:44:49Z</time>
      </trkpt>
      <trkpt lat="38.3096393198" lon="-6.3163867313">
        <ele>557.70</ele>
        <time>2020-07-11T10:45:02Z</time>
      </trkpt>
      <trkpt lat="38.3096561674" lon="-6.3163831271">
        <ele>556.74</ele>
        <time>2020-07-11T10:45:12Z</time>
      </trkpt>
      <trkpt lat="38.3096565027" lon="-6.3163988851">
        <ele>556.74</ele>
        <time>2020-07-11T10:45:19Z</time>
      </trkpt>
      <trkpt lat="38.3096505515" lon="-6.3164130505">
        <ele>556.74</ele>
        <time>2020-07-11T10:45:20Z</time>
      </trkpt>
      <trkpt lat="38.3096425887" lon="-6.3164267968">
        <ele>556.74</ele>
        <time>2020-07-11T10:45:21Z</time>
      </trkpt>
      <trkpt lat="38.3096343745" lon="-6.3164424710">
        <ele>557.22</ele>
        <time>2020-07-11T10:45:22Z</time>
      </trkpt>
      <trkpt lat="38.3096227236" lon="-6.3164638449">
        <ele>557.22</ele>
        <time>2020-07-11T10:45:23Z</time>
      </trkpt>
      <trkpt lat="38.3096099831" lon="-6.3164880686">
        <ele>557.22</ele>
        <time>2020-07-11T10:45:24Z</time>
      </trkpt>
      <trkpt lat="38.3094588574" lon="-6.3167550322">
        <ele>557.22</ele>
        <time>2020-07-11T10:45:34Z</time>
      </trkpt>
      <trkpt lat="38.3093707636" lon="-6.3169261906">
        <ele>556.74</ele>
        <time>2020-07-11T10:45:42Z</time>
      </trkpt>
      <trkpt lat="38.3093861863" lon="-6.3169512525">
        <ele>556.26</ele>
        <time>2020-07-11T10:45:44Z</time>
      </trkpt>
      <trkpt lat="38.3094077278" lon="-6.3169432897">
        <ele>556.26</ele>
        <time>2020-07-11T10:45:46Z</time>
      </trkpt>
      <trkpt lat="38.3094365615" lon="-6.3168983627">
        <ele>556.26</ele>
        <time>2020-07-11T10:45:53Z</time>
      </trkpt>
      <trkpt lat="38.3094388247" lon="-6.3169013802">
        <ele>555.78</ele>
        <time>2020-07-11T10:45:56Z</time>
      </trkpt>
      <trkpt lat="38.3095115796" lon="-6.3168504182">
        <ele>555.78</ele>
        <time>2020-07-11T10:46:03Z</time>
      </trkpt>
      <trkpt lat="38.3096648846" lon="-6.3167387713">
        <ele>556.74</ele>
        <time>2020-07-11T10:46:12Z</time>
      </trkpt>
      <trkpt lat="38.3098953869" lon="-6.3166567124">
        <ele>557.70</ele>
        <time>2020-07-11T10:46:22Z</time>
      </trkpt>
      <trkpt lat="38.3100824710" lon="-6.3166403677">
        <ele>558.18</ele>
        <time>2020-07-11T10:46:30Z</time>
      </trkpt>
      <trkpt lat="38.3103682939" lon="-6.3166132942">
        <ele>560.11</ele>
        <time>2020-07-11T10:46:41Z</time>
      </trkpt>
      <trkpt lat="38.3107230160" lon="-6.3166640047">
        <ele>560.11</ele>
        <time>2020-07-11T10:46:55Z</time>
      </trkpt>
      <trkpt lat="38.3109514229" lon="-6.3167492487">
        <ele>559.62</ele>
        <time>2020-07-11T10:47:05Z</time>
      </trkpt>
      <trkpt lat="38.3111784048" lon="-6.3169059902">
        <ele>557.70</ele>
        <time>2020-07-11T10:47:13Z</time>
      </trkpt>
      <trkpt lat="38.3113726974" lon="-6.3170127757">
        <ele>555.30</ele>
        <time>2020-07-11T10:47:20Z</time>
      </trkpt>
      <trkpt lat="38.3116283454" lon="-6.3171012886">
        <ele>551.45</ele>
        <time>2020-07-11T10:47:29Z</time>
      </trkpt>
      <trkpt lat="38.3117931336" lon="-6.3171167951">
        <ele>549.53</ele>
        <time>2020-07-11T10:47:35Z</time>
      </trkpt>
      <trkpt lat="38.3120328560" lon="-6.3171217404">
        <ele>547.61</ele>
        <time>2020-07-11T10:47:43Z</time>
      </trkpt>
      <trkpt lat="38.3122327644" lon="-6.3171821740">
        <ele>547.13</ele>
        <time>2020-07-11T10:47:50Z</time>
      </trkpt>
      <trkpt lat="38.3124925196" lon="-6.3172667474">
        <ele>545.20</ele>
        <time>2020-07-11T10:47:58Z</time>
      </trkpt>
      <trkpt lat="38.3126761671" lon="-6.3173209783">
        <ele>544.72</ele>
        <time>2020-07-11T10:48:05Z</time>
      </trkpt>
      <trkpt lat="38.3129273728" lon="-6.3173697609">
        <ele>543.28</ele>
        <time>2020-07-11T10:48:14Z</time>
      </trkpt>
      <trkpt lat="38.3130796719" lon="-6.3173940685">
        <ele>542.80</ele>
        <time>2020-07-11T10:48:21Z</time>
      </trkpt>
      <trkpt lat="38.3131142892" lon="-6.3173936494">
        <ele>542.32</ele>
        <time>2020-07-11T10:48:26Z</time>
      </trkpt>
      <trkpt lat="38.3131701965" lon="-6.3173964992">
        <ele>541.84</ele>
        <time>2020-07-11T10:48:32Z</time>
      </trkpt>
      <trkpt lat="38.3133768942" lon="-6.3174119219">
        <ele>541.84</ele>
        <time>2020-07-11T10:48:40Z</time>
      </trkpt>
      <trkpt lat="38.3136111684" lon="-6.3174487185">
        <ele>541.36</ele>
        <time>2020-07-11T10:48:49Z</time>
      </trkpt>
      <trkpt lat="38.3138146810" lon="-6.3174782228">
        <ele>541.84</ele>
        <time>2020-07-11T10:48:57Z</time>
      </trkpt>
      <trkpt lat="38.3139924612" lon="-6.3175125048">
        <ele>541.84</ele>
        <time>2020-07-11T10:49:05Z</time>
      </trkpt>
      <trkpt lat="38.3141924534" lon="-6.3175676577">
        <ele>541.84</ele>
        <time>2020-07-11T10:49:14Z</time>
      </trkpt>
      <trkpt lat="38.3144111373" lon="-6.3176293485">
        <ele>541.84</ele>
        <time>2020-07-11T10:49:24Z</time>
      </trkpt>
      <trkpt lat="38.3145750873" lon="-6.3176883571">
        <ele>541.84</ele>
        <time>2020-07-11T10:49:32Z</time>
      </trkpt>
      <trkpt lat="38.3147387858" lon="-6.3177513890">
        <ele>541.36</ele>
        <time>2020-07-11T10:49:40Z</time>
      </trkpt>
      <trkpt lat="38.3149154764" lon="-6.3178370520">
        <ele>540.88</ele>
        <time>2020-07-11T10:49:49Z</time>
      </trkpt>
      <trkpt lat="38.3150541130" lon="-6.3179019280">
        <ele>540.88</ele>
        <time>2020-07-11T10:49:58Z</time>
      </trkpt>
      <trkpt lat="38.3151966892" lon="-6.3179434184">
        <ele>540.40</ele>
        <time>2020-07-11T10:50:06Z</time>
      </trkpt>
      <trkpt lat="38.3153655007" lon="-6.3179227151">
        <ele>540.40</ele>
        <time>2020-07-11T10:50:14Z</time>
      </trkpt>
      <trkpt lat="38.3155046403" lon="-6.3178682327">
        <ele>540.40</ele>
        <time>2020-07-11T10:50:21Z</time>
      </trkpt>
      <trkpt lat="38.3155605476" lon="-6.3178535644">
        <ele>540.88</ele>
        <time>2020-07-11T10:50:27Z</time>
      </trkpt>
      <trkpt lat="38.3155582845" lon="-6.3178434223">
        <ele>539.92</ele>
        <time>2020-07-11T10:50:41Z</time>
      </trkpt>
      <trkpt lat="38.3156306203" lon="-6.3178329449">
        <ele>539.92</ele>
        <time>2020-07-11T10:50:46Z</time>
      </trkpt>
      <trkpt lat="38.3157731965" lon="-6.3178082183">
        <ele>540.40</ele>
        <time>2020-07-11T10:50:53Z</time>
      </trkpt>
      <trkpt lat="38.3159663156" lon="-6.3177901972">
        <ele>541.84</ele>
        <time>2020-07-11T10:51:03Z</time>
      </trkpt>
      <trkpt lat="38.3160884399" lon="-6.3177690748">
        <ele>542.80</ele>
        <time>2020-07-11T10:51:10Z</time>
      </trkpt>
      <trkpt lat="38.3161754441" lon="-6.3177681528">
        <ele>543.76</ele>
        <time>2020-07-11T10:51:15Z</time>
      </trkpt>
      <trkpt lat="38.3161914535" lon="-6.3177682366">
        <ele>543.76</ele>
        <time>2020-07-11T10:51:16Z</time>
      </trkpt>
      <trkpt lat="38.3162103128" lon="-6.3177664764">
        <ele>543.76</ele>
        <time>2020-07-11T10:51:17Z</time>
      </trkpt>
      <trkpt lat="38.3162283339" lon="-6.3177658059">
        <ele>544.24</ele>
        <time>2020-07-11T10:51:18Z</time>
      </trkpt>
      <trkpt lat="38.3162471931" lon="-6.3177649677">
        <ele>544.24</ele>
        <time>2020-07-11T10:51:19Z</time>
      </trkpt>
      <trkpt lat="38.3162641246" lon="-6.3177632075">
        <ele>544.24</ele>
        <time>2020-07-11T10:51:20Z</time>
      </trkpt>
      <trkpt lat="38.3162823133" lon="-6.3177605253">
        <ele>544.72</ele>
        <time>2020-07-11T10:51:21Z</time>
      </trkpt>
      <trkpt lat="38.3164111432" lon="-6.3177722599">
        <ele>545.69</ele>
        <time>2020-07-11T10:51:29Z</time>
      </trkpt>
      <trkpt lat="38.3165460918" lon="-6.3177756127">
        <ele>547.13</ele>
        <time>2020-07-11T10:51:38Z</time>
      </trkpt>
      <trkpt lat="38.3167075273" lon="-6.3177704997">
        <ele>548.09</ele>
        <time>2020-07-11T10:51:47Z</time>
      </trkpt>
      <trkpt lat="38.3168553002" lon="-6.3177620340">
        <ele>548.57</ele>
        <time>2020-07-11T10:51:55Z</time>
      </trkpt>
      <trkpt lat="38.3170433063" lon="-6.3177852519">
        <ele>549.05</ele>
        <time>2020-07-11T10:52:04Z</time>
      </trkpt>
      <trkpt lat="38.3172547817" lon="-6.3178418297">
        <ele>549.53</ele>
        <time>2020-07-11T10:52:14Z</time>
      </trkpt>
      <trkpt lat="38.3174332324" lon="-6.3178981561">
        <ele>550.01</ele>
        <time>2020-07-11T10:52:22Z</time>
      </trkpt>
      <trkpt lat="38.3176090010" lon="-6.3179607689">
        <ele>550.01</ele>
        <time>2020-07-11T10:52:29Z</time>
      </trkpt>
      <trkpt lat="38.3179887850" lon="-6.3180888444">
        <ele>549.53</ele>
        <time>2020-07-11T10:52:42Z</time>
      </trkpt>
      <trkpt lat="38.3182719257" lon="-6.3181863260">
        <ele>548.09</ele>
        <time>2020-07-11T10:52:51Z</time>
      </trkpt>
      <trkpt lat="38.3184754383" lon="-6.3182387967">
        <ele>547.13</ele>
        <time>2020-07-11T10:52:58Z</time>
      </trkpt>
      <trkpt lat="38.3187943697" lon="-6.3183514494">
        <ele>545.20</ele>
        <time>2020-07-11T10:53:07Z</time>
      </trkpt>
      <trkpt lat="38.3191167377" lon="-6.3184737414">
        <ele>542.80</ele>
        <time>2020-07-11T10:53:16Z</time>
      </trkpt>
      <trkpt lat="38.3194047399" lon="-6.3185789343">
        <ele>539.92</ele>
        <time>2020-07-11T10:53:24Z</time>
      </trkpt>
      <trkpt lat="38.3196566161" lon="-6.3186921738">
        <ele>537.03</ele>
        <time>2020-07-11T10:53:32Z</time>
      </trkpt>
      <trkpt lat="38.3199804090" lon="-6.3188356720">
        <ele>532.23</ele>
        <time>2020-07-11T10:53:42Z</time>
      </trkpt>
      <trkpt lat="38.3202064689" lon="-6.3189656753">
        <ele>529.82</ele>
        <time>2020-07-11T10:53:48Z</time>
      </trkpt>
      <trkpt lat="38.3204012644" lon="-6.3190789986">
        <ele>528.38</ele>
        <time>2020-07-11T10:53:52Z</time>
      </trkpt>
      <trkpt lat="38.3205694053" lon="-6.3192188926">
        <ele>528.38</ele>
        <time>2020-07-11T10:53:56Z</time>
      </trkpt>
      <trkpt lat="38.3206096385" lon="-6.3192393444">
        <ele>528.38</ele>
        <time>2020-07-11T10:53:57Z</time>
      </trkpt>
      <trkpt lat="38.3206528053" lon="-6.3192559406">
        <ele>527.90</ele>
        <time>2020-07-11T10:53:58Z</time>
      </trkpt>
      <trkpt lat="38.3207491972" lon="-6.3192881271">
        <ele>527.90</ele>
        <time>2020-07-11T10:54:00Z</time>
      </trkpt>
      <trkpt lat="38.3207956329" lon="-6.3193024602">
        <ele>527.90</ele>
        <time>2020-07-11T10:54:01Z</time>
      </trkpt>
      <trkpt lat="38.3209271450" lon="-6.3193456270">
        <ele>527.42</ele>
        <time>2020-07-11T10:54:04Z</time>
      </trkpt>
      <trkpt lat="38.3209678810" lon="-6.3193565235">
        <ele>527.42</ele>
        <time>2020-07-11T10:54:05Z</time>
      </trkpt>
      <trkpt lat="38.3212941885" lon="-6.3194452878">
        <ele>526.94</ele>
        <time>2020-07-11T10:54:14Z</time>
      </trkpt>
      <trkpt lat="38.3215028141" lon="-6.3195126783">
        <ele>526.46</ele>
        <time>2020-07-11T10:54:21Z</time>
      </trkpt>
      <trkpt lat="38.3217860386" lon="-6.3196409214">
        <ele>525.50</ele>
        <time>2020-07-11T10:54:30Z</time>
      </trkpt>
      <trkpt lat="38.3220582828" lon="-6.3197736070">
        <ele>524.06</ele>
        <time>2020-07-11T10:54:39Z</time>
      </trkpt>
      <trkpt lat="38.3224273380" lon="-6.3199542370">
        <ele>522.61</ele>
        <time>2020-07-11T10:54:49Z</time>
      </trkpt>
      <trkpt lat="38.3226810582" lon="-6.3200982381">
        <ele>521.65</ele>
        <time>2020-07-11T10:54:56Z</time>
      </trkpt>
      <trkpt lat="38.3229020052" lon="-6.3201974798">
        <ele>520.21</ele>
        <time>2020-07-11T10:55:03Z</time>
      </trkpt>
      <trkpt lat="38.3232359402" lon="-6.3203645311">
        <ele>518.29</ele>
        <time>2020-07-11T10:55:12Z</time>
      </trkpt>
      <trkpt lat="38.3234954439" lon="-6.3204913493">
        <ele>517.81</ele>
        <time>2020-07-11T10:55:19Z</time>
      </trkpt>
      <trkpt lat="38.3235345874" lon="-6.3205085322">
        <ele>517.81</ele>
        <time>2020-07-11T10:55:20Z</time>
      </trkpt>
      <trkpt lat="38.3238753956" lon="-6.3206797745">
        <ele>516.85</ele>
        <time>2020-07-11T10:55:30Z</time>
      </trkpt>
      <trkpt lat="38.3240442071" lon="-6.3207612466">
        <ele>515.88</ele>
        <time>2020-07-11T10:55:36Z</time>
      </trkpt>
      <trkpt lat="38.3242432773" lon="-6.3208529446">
        <ele>515.40</ele>
        <time>2020-07-11T10:55:44Z</time>
      </trkpt>
      <trkpt lat="38.3244826645" lon="-6.3209607359">
        <ele>514.92</ele>
        <time>2020-07-11T10:55:52Z</time>
      </trkpt>
      <trkpt lat="38.3247313555" lon="-6.3210683595">
        <ele>513.48</ele>
        <time>2020-07-11T10:56:00Z</time>
      </trkpt>
      <trkpt lat="38.3249398973" lon="-6.3211413659">
        <ele>512.52</ele>
        <time>2020-07-11T10:56:08Z</time>
      </trkpt>
      <trkpt lat="38.3251122292" lon="-6.3211232610">
        <ele>511.56</ele>
        <time>2020-07-11T10:56:15Z</time>
      </trkpt>
      <trkpt lat="38.3252776042" lon="-6.3210265338">
        <ele>511.08</ele>
        <time>2020-07-11T10:56:21Z</time>
      </trkpt>
      <trkpt lat="38.3253867365" lon="-6.3210575469">
        <ele>511.08</ele>
        <time>2020-07-11T10:56:26Z</time>
      </trkpt>
      <trkpt lat="38.3256498445" lon="-6.3212219160">
        <ele>510.12</ele>
        <time>2020-07-11T10:56:34Z</time>
      </trkpt>
      <trkpt lat="38.3258319832" lon="-6.3212702796">
        <ele>509.64</ele>
        <time>2020-07-11T10:56:38Z</time>
      </trkpt>
      <trkpt lat="38.3261672594" lon="-6.3212845288">
        <ele>509.16</ele>
        <time>2020-07-11T10:56:45Z</time>
      </trkpt>
      <trkpt lat="38.3262121025" lon="-6.3212883007">
        <ele>509.16</ele>
        <time>2020-07-11T10:56:46Z</time>
      </trkpt>
      <trkpt lat="38.3263854403" lon="-6.3212971017">
        <ele>508.67</ele>
        <time>2020-07-11T10:56:50Z</time>
      </trkpt>
      <trkpt lat="38.3264263440" lon="-6.3212876301">
        <ele>508.67</ele>
        <time>2020-07-11T10:56:51Z</time>
      </trkpt>
      <trkpt lat="38.3266227320" lon="-6.3212408591">
        <ele>509.16</ele>
        <time>2020-07-11T10:56:57Z</time>
      </trkpt>
      <trkpt lat="38.3269246481" lon="-6.3212141208">
        <ele>508.19</ele>
        <time>2020-07-11T10:57:05Z</time>
      </trkpt>
      <trkpt lat="38.3273644466" lon="-6.3211560342">
        <ele>508.19</ele>
        <time>2020-07-11T10:57:16Z</time>
      </trkpt>
      <trkpt lat="38.3276058454" lon="-6.3211183157">
        <ele>509.64</ele>
        <time>2020-07-11T10:57:24Z</time>
      </trkpt>
      <trkpt lat="38.3277826197" lon="-6.3210966904">
        <ele>510.60</ele>
        <time>2020-07-11T10:57:32Z</time>
      </trkpt>
      <trkpt lat="38.3279238548" lon="-6.3210729696">
        <ele>511.56</ele>
        <time>2020-07-11T10:57:39Z</time>
      </trkpt>
      <trkpt lat="38.3280699514" lon="-6.3210398611">
        <ele>513.00</ele>
        <time>2020-07-11T10:57:47Z</time>
      </trkpt>
      <trkpt lat="38.3280937560" lon="-6.3210207503">
        <ele>513.00</ele>
        <time>2020-07-11T10:57:52Z</time>
      </trkpt>
      <trkpt lat="38.3280984499" lon="-6.3210238516">
        <ele>513.00</ele>
        <time>2020-07-11T10:58:07Z</time>
      </trkpt>
      <trkpt lat="38.3280993719" lon="-6.3210187387">
        <ele>512.52</ele>
        <time>2020-07-11T10:58:20Z</time>
      </trkpt>
      <trkpt lat="38.3281101845" lon="-6.3210199960">
        <ele>512.52</ele>
        <time>2020-07-11T10:58:32Z</time>
      </trkpt>
      <trkpt lat="38.3282033075" lon="-6.3210031483">
        <ele>513.96</ele>
        <time>2020-07-11T10:58:38Z</time>
      </trkpt>
      <trkpt lat="38.3283746336" lon="-6.3209692854">
        <ele>515.40</ele>
        <time>2020-07-11T10:58:46Z</time>
      </trkpt>
      <trkpt lat="38.3286080696" lon="-6.3209282979">
        <ele>516.37</ele>
        <time>2020-07-11T10:58:56Z</time>
      </trkpt>
      <trkpt lat="38.3288398292" lon="-6.3208920881">
        <ele>517.33</ele>
        <time>2020-07-11T10:59:06Z</time>
      </trkpt>
      <trkpt lat="38.3290232252" lon="-6.3208528608">
        <ele>518.29</ele>
        <time>2020-07-11T10:59:15Z</time>
      </trkpt>
      <trkpt lat="38.3291968144" lon="-6.3208236918">
        <ele>519.25</ele>
        <time>2020-07-11T10:59:24Z</time>
      </trkpt>
      <trkpt lat="38.3294137381" lon="-6.3207734842">
        <ele>520.21</ele>
        <time>2020-07-11T10:59:34Z</time>
      </trkpt>
      <trkpt lat="38.3295369521" lon="-6.3207684550">
        <ele>521.65</ele>
        <time>2020-07-11T10:59:42Z</time>
      </trkpt>
      <trkpt lat="38.3295346890" lon="-6.3207730651">
        <ele>522.13</ele>
        <time>2020-07-11T10:59:50Z</time>
      </trkpt>
      <trkpt lat="38.3295258041" lon="-6.3207765855">
        <ele>521.17</ele>
        <time>2020-07-11T11:00:05Z</time>
      </trkpt>
      <trkpt lat="38.3295167517" lon="-6.3207785133">
        <ele>522.13</ele>
        <time>2020-07-11T11:00:22Z</time>
      </trkpt>
      <trkpt lat="38.3295187633" lon="-6.3207833748">
        <ele>522.13</ele>
        <time>2020-07-11T11:00:36Z</time>
      </trkpt>
      <trkpt lat="38.3295141533" lon="-6.3207854703">
        <ele>522.13</ele>
        <time>2020-07-11T11:00:55Z</time>
      </trkpt>
      <trkpt lat="38.3295139857" lon="-6.3207741547">
        <ele>522.13</ele>
        <time>2020-07-11T11:01:15Z</time>
      </trkpt>
      <trkpt lat="38.3295103814" lon="-6.3207762502">
        <ele>521.65</ele>
        <time>2020-07-11T11:01:31Z</time>
      </trkpt>
      <trkpt lat="38.3295111358" lon="-6.3207886554">
        <ele>522.61</ele>
        <time>2020-07-11T11:01:54Z</time>
      </trkpt>
      <trkpt lat="38.3295135666" lon="-6.3207873981">
        <ele>522.61</ele>
        <time>2020-07-11T11:02:07Z</time>
      </trkpt>
      <trkpt lat="38.3295024186" lon="-6.3207925111">
        <ele>522.61</ele>
        <time>2020-07-11T11:02:30Z</time>
      </trkpt>
      <trkpt lat="38.3295149915" lon="-6.3207925111">
        <ele>521.65</ele>
        <time>2020-07-11T11:02:54Z</time>
      </trkpt>
      <trkpt lat="38.3295084536" lon="-6.3207956124">
        <ele>523.09</ele>
        <time>2020-07-11T11:03:17Z</time>
      </trkpt>
      <trkpt lat="38.3295116387" lon="-6.3207910862">
        <ele>523.09</ele>
        <time>2020-07-11T11:03:32Z</time>
      </trkpt>
      <trkpt lat="38.3295206074" lon="-6.3207725622">
        <ele>522.13</ele>
        <time>2020-07-11T11:03:44Z</time>
      </trkpt>
      <trkpt lat="38.3295245469" lon="-6.3207832910">
        <ele>522.13</ele>
        <time>2020-07-11T11:03:45Z</time>
      </trkpt>
      <trkpt lat="38.3295260556" lon="-6.3207985461">
        <ele>522.13</ele>
        <time>2020-07-11T11:03:46Z</time>
      </trkpt>
      <trkpt lat="38.3295241278" lon="-6.3208193332">
        <ele>522.13</ele>
        <time>2020-07-11T11:03:47Z</time>
      </trkpt>
      <trkpt lat="38.3295169193" lon="-6.3209095225">
        <ele>522.13</ele>
        <time>2020-07-11T11:03:51Z</time>
      </trkpt>
      <trkpt lat="38.3295100462" lon="-6.3209263701">
        <ele>521.65</ele>
        <time>2020-07-11T11:03:52Z</time>
      </trkpt>
      <trkpt lat="38.3295045979" lon="-6.3209471572">
        <ele>521.65</ele>
        <time>2020-07-11T11:03:53Z</time>
      </trkpt>
      <trkpt lat="38.3294455893" lon="-6.3211925793">
        <ele>521.65</ele>
        <time>2020-07-11T11:04:01Z</time>
      </trkpt>
      <trkpt lat="38.3293875866" lon="-6.3216322102">
        <ele>520.69</ele>
        <time>2020-07-11T11:04:09Z</time>
      </trkpt>
      <trkpt lat="38.3293582499" lon="-6.3221866731">
        <ele>518.77</ele>
        <time>2020-07-11T11:04:19Z</time>
      </trkpt>
      <trkpt lat="38.3293263987" lon="-6.3225661218">
        <ele>517.33</ele>
        <time>2020-07-11T11:04:27Z</time>
      </trkpt>
      <trkpt lat="38.3292656299" lon="-6.3229249511">
        <ele>515.88</ele>
        <time>2020-07-11T11:04:34Z</time>
      </trkpt>
      <trkpt lat="38.3291811403" lon="-6.3231827784">
        <ele>514.44</ele>
        <time>2020-07-11T11:04:41Z</time>
      </trkpt>
      <trkpt lat="38.3291696571" lon="-6.3233624864">
        <ele>513.96</ele>
        <time>2020-07-11T11:04:47Z</time>
      </trkpt>
      <trkpt lat="38.3291812241" lon="-6.3235949166">
        <ele>513.48</ele>
        <time>2020-07-11T11:04:54Z</time>
      </trkpt>
      <trkpt lat="38.3291789610" lon="-6.3236442860">
        <ele>513.00</ele>
        <time>2020-07-11T11:04:55Z</time>
      </trkpt>
      <trkpt lat="38.3291119896" lon="-6.3241882715">
        <ele>512.04</ele>
        <time>2020-07-11T11:05:05Z</time>
      </trkpt>
      <trkpt lat="38.3291201200" lon="-6.3245186023">
        <ele>511.56</ele>
        <time>2020-07-11T11:05:12Z</time>
      </trkpt>
      <trkpt lat="38.3291494567" lon="-6.3248931058">
        <ele>510.60</ele>
        <time>2020-07-11T11:05:21Z</time>
      </trkpt>
      <trkpt lat="38.3292232174" lon="-6.3251588959">
        <ele>510.12</ele>
        <time>2020-07-11T11:05:30Z</time>
      </trkpt>
      <trkpt lat="38.3292355388" lon="-6.3251918368">
        <ele>510.12</ele>
        <time>2020-07-11T11:05:32Z</time>
      </trkpt>
      <trkpt lat="38.3292401489" lon="-6.3252104446">
        <ele>510.12</ele>
        <time>2020-07-11T11:05:33Z</time>
      </trkpt>
      <trkpt lat="38.3292450942" lon="-6.3252318185">
        <ele>510.12</ele>
        <time>2020-07-11T11:05:34Z</time>
      </trkpt>
      <trkpt lat="38.3292476088" lon="-6.3252541143">
        <ele>510.60</ele>
        <time>2020-07-11T11:05:35Z</time>
      </trkpt>
      <trkpt lat="38.3292508777" lon="-6.3252800982">
        <ele>510.60</ele>
        <time>2020-07-11T11:05:36Z</time>
      </trkpt>
      <trkpt lat="38.3292560745" lon="-6.3253064174">
        <ele>510.60</ele>
        <time>2020-07-11T11:05:37Z</time>
      </trkpt>
      <trkpt lat="38.3292631991" lon="-6.3253342453">
        <ele>510.60</ele>
        <time>2020-07-11T11:05:38Z</time>
      </trkpt>
      <trkpt lat="38.3293218724" lon="-6.3255577907">
        <ele>509.64</ele>
        <time>2020-07-11T11:05:45Z</time>
      </trkpt>
      <trkpt lat="38.3294153307" lon="-6.3258894626">
        <ele>509.16</ele>
        <time>2020-07-11T11:05:56Z</time>
      </trkpt>
      <trkpt lat="38.3294724114" lon="-6.3261025306">
        <ele>508.67</ele>
        <time>2020-07-11T11:06:04Z</time>
      </trkpt>
      <trkpt lat="38.3295382094" lon="-6.3263132516">
        <ele>508.67</ele>
        <time>2020-07-11T11:06:14Z</time>
      </trkpt>
      <trkpt lat="38.3295525424" lon="-6.3263595197">
        <ele>509.16</ele>
        <time>2020-07-11T11:06:16Z</time>
      </trkpt>
      <trkpt lat="38.3295537997" lon="-6.3263738528">
        <ele>509.16</ele>
        <time>2020-07-11T11:06:21Z</time>
      </trkpt>
      <trkpt lat="38.3295771852" lon="-6.3263958134">
        <ele>509.16</ele>
        <time>2020-07-11T11:06:31Z</time>
      </trkpt>
      <trkpt lat="38.3295814600" lon="-6.3264082186">
        <ele>508.67</ele>
        <time>2020-07-11T11:06:39Z</time>
      </trkpt>
      <trkpt lat="38.3296402171" lon="-6.3266099710">
        <ele>508.19</ele>
        <time>2020-07-11T11:06:46Z</time>
      </trkpt>
      <trkpt lat="38.3297779318" lon="-6.3269824628">
        <ele>507.23</ele>
        <time>2020-07-11T11:06:56Z</time>
      </trkpt>
      <trkpt lat="38.3298694622" lon="-6.3272924256">
        <ele>506.27</ele>
        <time>2020-07-11T11:07:05Z</time>
      </trkpt>
      <trkpt lat="38.3299201727" lon="-6.3275904860">
        <ele>506.27</ele>
        <time>2020-07-11T11:07:14Z</time>
      </trkpt>
      <trkpt lat="38.3299670275" lon="-6.3278263528">
        <ele>506.27</ele>
        <time>2020-07-11T11:07:22Z</time>
      </trkpt>
      <trkpt lat="38.3300343342" lon="-6.3280820008">
        <ele>506.27</ele>
        <time>2020-07-11T11:07:30Z</time>
      </trkpt>
      <trkpt lat="38.3301355876" lon="-6.3283141796">
        <ele>506.75</ele>
        <time>2020-07-11T11:07:39Z</time>
      </trkpt>
      <trkpt lat="38.3301711269" lon="-6.3284057938">
        <ele>507.23</ele>
        <time>2020-07-11T11:07:43Z</time>
      </trkpt>
      <trkpt lat="38.3301849570" lon="-6.3284260780">
        <ele>507.23</ele>
        <time>2020-07-11T11:07:44Z</time>
      </trkpt>
      <trkpt lat="38.3301962726" lon="-6.3284480385">
        <ele>507.23</ele>
        <time>2020-07-11T11:07:45Z</time>
      </trkpt>
      <trkpt lat="38.3302056603" lon="-6.3284721784">
        <ele>507.23</ele>
        <time>2020-07-11T11:07:46Z</time>
      </trkpt>
      <trkpt lat="38.3302141260" lon="-6.3284983300">
        <ele>507.23</ele>
        <time>2020-07-11T11:07:47Z</time>
      </trkpt>
      <trkpt lat="38.3302208316" lon="-6.3285254873">
        <ele>507.23</ele>
        <time>2020-07-11T11:07:48Z</time>
      </trkpt>
      <trkpt lat="38.3302946761" lon="-6.3287609350">
        <ele>509.16</ele>
        <time>2020-07-11T11:07:57Z</time>
      </trkpt>
      <trkpt lat="38.3304247633" lon="-6.3289270643">
        <ele>509.64</ele>
        <time>2020-07-11T11:08:05Z</time>
      </trkpt>
      <trkpt lat="38.3304739650" lon="-6.3290013280">
        <ele>508.67</ele>
        <time>2020-07-11T11:08:07Z</time>
      </trkpt>
      <trkpt lat="38.3304940816" lon="-6.3290441595">
        <ele>508.67</ele>
        <time>2020-07-11T11:08:08Z</time>
      </trkpt>
      <trkpt lat="38.3305939939" lon="-6.3293395378">
        <ele>507.71</ele>
        <time>2020-07-11T11:08:16Z</time>
      </trkpt>
      <trkpt lat="38.3306571934" lon="-6.3296445552">
        <ele>507.23</ele>
        <time>2020-07-11T11:08:25Z</time>
      </trkpt>
      <trkpt lat="38.3307261765" lon="-6.3298966829">
        <ele>507.23</ele>
        <time>2020-07-11T11:08:32Z</time>
      </trkpt>
      <trkpt lat="38.3307462931" lon="-6.3301256765">
        <ele>507.71</ele>
        <time>2020-07-11T11:08:40Z</time>
      </trkpt>
      <trkpt lat="38.3308504801" lon="-6.3304310292">
        <ele>507.23</ele>
        <time>2020-07-11T11:08:50Z</time>
      </trkpt>
      <trkpt lat="38.3309539966" lon="-6.3307689875">
        <ele>505.79</ele>
        <time>2020-07-11T11:08:58Z</time>
      </trkpt>
      <trkpt lat="38.3310662303" lon="-6.3311039284">
        <ele>505.31</ele>
        <time>2020-07-11T11:09:06Z</time>
      </trkpt>
      <trkpt lat="38.3311771229" lon="-6.3313714787">
        <ele>504.83</ele>
        <time>2020-07-11T11:09:14Z</time>
      </trkpt>
      <trkpt lat="38.3311950602" lon="-6.3314419705">
        <ele>504.83</ele>
        <time>2020-07-11T11:09:19Z</time>
      </trkpt>
      <trkpt lat="38.3311934676" lon="-6.3314534537">
        <ele>505.31</ele>
        <time>2020-07-11T11:09:30Z</time>
      </trkpt>
      <trkpt lat="38.3312048670" lon="-6.3315019850">
        <ele>505.79</ele>
        <time>2020-07-11T11:09:38Z</time>
      </trkpt>
      <trkpt lat="38.3312072977" lon="-6.3315064274">
        <ele>505.79</ele>
        <time>2020-07-11T11:09:46Z</time>
      </trkpt>
      <trkpt lat="38.3312146738" lon="-6.3315058406">
        <ele>505.79</ele>
        <time>2020-07-11T11:09:59Z</time>
      </trkpt>
      <trkpt lat="38.3312287554" lon="-6.3315677829">
        <ele>505.31</ele>
        <time>2020-07-11T11:10:06Z</time>
      </trkpt>
      <trkpt lat="38.3312839083" lon="-6.3317980338">
        <ele>504.83</ele>
        <time>2020-07-11T11:10:16Z</time>
      </trkpt>
      <trkpt lat="38.3313446771" lon="-6.3321079127">
        <ele>504.35</ele>
        <time>2020-07-11T11:10:27Z</time>
      </trkpt>
      <trkpt lat="38.3313676436" lon="-6.3324094098">
        <ele>504.83</ele>
        <time>2020-07-11T11:10:37Z</time>
      </trkpt>
      <trkpt lat="38.3313969802" lon="-6.3327349629">
        <ele>504.83</ele>
        <time>2020-07-11T11:10:46Z</time>
      </trkpt>
      <trkpt lat="38.3314285800" lon="-6.3329626992">
        <ele>504.83</ele>
        <time>2020-07-11T11:10:53Z</time>
      </trkpt>
      <trkpt lat="38.3315104712" lon="-6.3333662041">
        <ele>503.87</ele>
        <time>2020-07-11T11:11:06Z</time>
      </trkpt>
      <trkpt lat="38.3315946255" lon="-6.3337889872">
        <ele>502.43</ele>
        <time>2020-07-11T11:11:18Z</time>
      </trkpt>
      <trkpt lat="38.3316714875" lon="-6.3340402767">
        <ele>501.95</ele>
        <time>2020-07-11T11:11:27Z</time>
      </trkpt>
      <trkpt lat="38.3317471761" lon="-6.3341776561">
        <ele>501.95</ele>
        <time>2020-07-11T11:11:35Z</time>
      </trkpt>
      <trkpt lat="38.3318274748" lon="-6.3342885487">
        <ele>501.46</ele>
        <time>2020-07-11T11:11:44Z</time>
      </trkpt>
      <trkpt lat="38.3318317495" lon="-6.3343007863">
        <ele>501.95</ele>
        <time>2020-07-11T11:11:59Z</time>
      </trkpt>
      <trkpt lat="38.3318365272" lon="-6.3343034685">
        <ele>501.95</ele>
        <time>2020-07-11T11:12:12Z</time>
      </trkpt>
      <trkpt lat="38.3318350185" lon="-6.3342999481">
        <ele>502.43</ele>
        <time>2020-07-11T11:12:22Z</time>
      </trkpt>
      <trkpt lat="38.3318258822" lon="-6.3343058154">
        <ele>502.91</ele>
        <time>2020-07-11T11:12:37Z</time>
      </trkpt>
      <trkpt lat="38.3318417240" lon="-6.3343183883">
        <ele>503.39</ele>
        <time>2020-07-11T11:12:43Z</time>
      </trkpt>
      <trkpt lat="38.3319452405" lon="-6.3344495650">
        <ele>502.43</ele>
        <time>2020-07-11T11:12:51Z</time>
      </trkpt>
      <trkpt lat="38.3320372738" lon="-6.3345903810">
        <ele>501.46</ele>
        <time>2020-07-11T11:12:59Z</time>
      </trkpt>
      <trkpt lat="38.3320434764" lon="-6.3346109167">
        <ele>501.46</ele>
        <time>2020-07-11T11:13:00Z</time>
      </trkpt>
      <trkpt lat="38.3320495952" lon="-6.3346344698">
        <ele>500.98</ele>
        <time>2020-07-11T11:13:01Z</time>
      </trkpt>
      <trkpt lat="38.3320597373" lon="-6.3346527424">
        <ele>500.98</ele>
        <time>2020-07-11T11:13:02Z</time>
      </trkpt>
      <trkpt lat="38.3320698794" lon="-6.3346633874">
        <ele>500.98</ele>
        <time>2020-07-11T11:13:03Z</time>
      </trkpt>
      <trkpt lat="38.3320759144" lon="-6.3346714340">
        <ele>500.98</ele>
        <time>2020-07-11T11:13:09Z</time>
      </trkpt>
      <trkpt lat="38.3320949413" lon="-6.3346855156">
        <ele>500.50</ele>
        <time>2020-07-11T11:13:15Z</time>
      </trkpt>
      <trkpt lat="38.3321696240" lon="-6.3347570971">
        <ele>500.98</ele>
        <time>2020-07-11T11:13:24Z</time>
      </trkpt>
      <trkpt lat="38.3322232682" lon="-6.3347870205">
        <ele>500.98</ele>
        <time>2020-07-11T11:13:31Z</time>
      </trkpt>
      <trkpt lat="38.3322990406" lon="-6.3348401617">
        <ele>500.98</ele>
        <time>2020-07-11T11:13:41Z</time>
      </trkpt>
      <trkpt lat="38.3323821053" lon="-6.3348834123">
        <ele>500.98</ele>
        <time>2020-07-11T11:13:50Z</time>
      </trkpt>
      <trkpt lat="38.3324375935" lon="-6.3349436782">
        <ele>501.46</ele>
        <time>2020-07-11T11:13:58Z</time>
      </trkpt>
      <trkpt lat="38.3324721269" lon="-6.3349837437">
        <ele>501.95</ele>
        <time>2020-07-11T11:14:04Z</time>
      </trkpt>
      <trkpt lat="38.3325419482" lon="-6.3350450154">
        <ele>502.43</ele>
        <time>2020-07-11T11:14:13Z</time>
      </trkpt>
      <trkpt lat="38.3326038066" lon="-6.3350768667">
        <ele>502.43</ele>
        <time>2020-07-11T11:14:23Z</time>
      </trkpt>
      <trkpt lat="38.3326149546" lon="-6.3350897748">
        <ele>501.46</ele>
        <time>2020-07-11T11:14:31Z</time>
      </trkpt>
      <trkpt lat="38.3326951694" lon="-6.3351579197">
        <ele>501.95</ele>
        <time>2020-07-11T11:14:41Z</time>
      </trkpt>
      <trkpt lat="38.3327848557" lon="-6.3352425769">
        <ele>503.39</ele>
        <time>2020-07-11T11:14:51Z</time>
      </trkpt>
      <trkpt lat="38.3328781463" lon="-6.3353450038">
        <ele>505.31</ele>
        <time>2020-07-11T11:15:03Z</time>
      </trkpt>
      <trkpt lat="38.3329121768" lon="-6.3353796210">
        <ele>505.31</ele>
        <time>2020-07-11T11:15:13Z</time>
      </trkpt>
      <trkpt lat="38.3329367358" lon="-6.3354197703">
        <ele>505.31</ele>
        <time>2020-07-11T11:15:20Z</time>
      </trkpt>
      <trkpt lat="38.3330349717" lon="-6.3355352730">
        <ele>505.79</ele>
        <time>2020-07-11T11:15:32Z</time>
      </trkpt>
      <trkpt lat="38.3331048768" lon="-6.3356387056">
        <ele>506.27</ele>
        <time>2020-07-11T11:15:42Z</time>
      </trkpt>
      <trkpt lat="38.3331452776" lon="-6.3356895838">
        <ele>506.75</ele>
        <time>2020-07-11T11:15:51Z</time>
      </trkpt>
      <trkpt lat="38.3331472054" lon="-6.3356881589">
        <ele>506.27</ele>
        <time>2020-07-11T11:16:07Z</time>
      </trkpt>
      <trkpt lat="38.3331689145" lon="-6.3357136399">
        <ele>507.71</ele>
        <time>2020-07-11T11:16:20Z</time>
      </trkpt>
      <trkpt lat="38.3332465310" lon="-6.3357986324">
        <ele>508.67</ele>
        <time>2020-07-11T11:16:30Z</time>
      </trkpt>
      <trkpt lat="38.3333398215" lon="-6.3358889055">
        <ele>509.64</ele>
        <time>2020-07-11T11:16:41Z</time>
      </trkpt>
      <trkpt lat="38.3333959803" lon="-6.3359529432">
        <ele>510.12</ele>
        <time>2020-07-11T11:16:51Z</time>
      </trkpt>
      <trkpt lat="38.3334111515" lon="-6.3359719701">
        <ele>509.64</ele>
        <time>2020-07-11T11:16:59Z</time>
      </trkpt>
      <trkpt lat="38.3335124888" lon="-6.3360726368">
        <ele>509.64</ele>
        <time>2020-07-11T11:17:07Z</time>
      </trkpt>
      <trkpt lat="38.3336491976" lon="-6.3362233434">
        <ele>510.60</ele>
        <time>2020-07-11T11:17:17Z</time>
      </trkpt>
      <trkpt lat="38.3337874990" lon="-6.3364131097">
        <ele>512.52</ele>
        <time>2020-07-11T11:17:28Z</time>
      </trkpt>
      <trkpt lat="38.3338843938" lon="-6.3365492318">
        <ele>513.00</ele>
        <time>2020-07-11T11:17:36Z</time>
      </trkpt>
      <trkpt lat="38.3340101223" lon="-6.3367269281">
        <ele>513.96</ele>
        <time>2020-07-11T11:17:47Z</time>
      </trkpt>
      <trkpt lat="38.3341028262" lon="-6.3369106594">
        <ele>514.44</ele>
        <time>2020-07-11T11:17:57Z</time>
      </trkpt>
      <trkpt lat="38.3341778442" lon="-6.3370891940">
        <ele>515.40</ele>
        <time>2020-07-11T11:18:06Z</time>
      </trkpt>
      <trkpt lat="38.3342679497" lon="-6.3372740149">
        <ele>515.88</ele>
        <time>2020-07-11T11:18:16Z</time>
      </trkpt>
      <trkpt lat="38.3343391959" lon="-6.3374568243">
        <ele>517.33</ele>
        <time>2020-07-11T11:18:25Z</time>
      </trkpt>
      <trkpt lat="38.3344194107" lon="-6.3376811240">
        <ele>518.77</ele>
        <time>2020-07-11T11:18:35Z</time>
      </trkpt>
      <trkpt lat="38.3344889805" lon="-6.3378988020">
        <ele>518.77</ele>
        <time>2020-07-11T11:18:45Z</time>
      </trkpt>
      <trkpt lat="38.3345763199" lon="-6.3380790967">
        <ele>517.81</ele>
        <time>2020-07-11T11:18:53Z</time>
      </trkpt>
      <trkpt lat="38.3347214945" lon="-6.3383082580">
        <ele>518.29</ele>
        <time>2020-07-11T11:19:04Z</time>
      </trkpt>
      <trkpt lat="38.3348681778" lon="-6.3385298755">
        <ele>517.81</ele>
        <time>2020-07-11T11:19:15Z</time>
      </trkpt>
      <trkpt lat="38.3349834289" lon="-6.3386882935">
        <ele>518.29</ele>
        <time>2020-07-11T11:19:23Z</time>
      </trkpt>
      <trkpt lat="38.3351327945" lon="-6.3389053848">
        <ele>518.29</ele>
        <time>2020-07-11T11:19:33Z</time>
      </trkpt>
      <trkpt lat="38.3352870215" lon="-6.3391066343">
        <ele>518.77</ele>
        <time>2020-07-11T11:19:43Z</time>
      </trkpt>
      <trkpt lat="38.3354477864" lon="-6.3393527269">
        <ele>518.77</ele>
        <time>2020-07-11T11:19:54Z</time>
      </trkpt>
      <trkpt lat="38.3355895244" lon="-6.3395171799">
        <ele>520.21</ele>
        <time>2020-07-11T11:20:02Z</time>
      </trkpt>
      <trkpt lat="38.3357441705" lon="-6.3397134002">
        <ele>521.17</ele>
        <time>2020-07-11T11:20:12Z</time>
      </trkpt>
      <trkpt lat="38.3359240461" lon="-6.3399227802">
        <ele>521.65</ele>
        <time>2020-07-11T11:20:23Z</time>
      </trkpt>
      <trkpt lat="38.3360923547" lon="-6.3400913402">
        <ele>522.13</ele>
        <time>2020-07-11T11:20:33Z</time>
      </trkpt>
      <trkpt lat="38.3362562209" lon="-6.3402291387">
        <ele>523.09</ele>
        <time>2020-07-11T11:20:42Z</time>
      </trkpt>
      <trkpt lat="38.3364148065" lon="-6.3403028157">
        <ele>523.09</ele>
        <time>2020-07-11T11:20:50Z</time>
      </trkpt>
      <trkpt lat="38.3366163075" lon="-6.3404908217">
        <ele>521.65</ele>
        <time>2020-07-11T11:21:00Z</time>
      </trkpt>
      <trkpt lat="38.3368355781" lon="-6.3407114334">
        <ele>519.25</ele>
        <time>2020-07-11T11:21:11Z</time>
      </trkpt>
      <trkpt lat="38.3369718678" lon="-6.3408278581">
        <ele>517.81</ele>
        <time>2020-07-11T11:21:18Z</time>
      </trkpt>
      <trkpt lat="38.3371494804" lon="-6.3409990165">
        <ele>516.85</ele>
        <time>2020-07-11T11:21:27Z</time>
      </trkpt>
      <trkpt lat="38.3373140171" lon="-6.3412177004">
        <ele>514.92</ele>
        <time>2020-07-11T11:21:36Z</time>
      </trkpt>
      <trkpt lat="38.3373892866" lon="-6.3414651342">
        <ele>513.96</ele>
        <time>2020-07-11T11:21:44Z</time>
      </trkpt>
      <trkpt lat="38.3373972494" lon="-6.3415087201">
        <ele>513.96</ele>
        <time>2020-07-11T11:21:46Z</time>
      </trkpt>
      <trkpt lat="38.3374051284" lon="-6.3415289205">
        <ele>513.96</ele>
        <time>2020-07-11T11:21:47Z</time>
      </trkpt>
      <trkpt lat="38.3374587726" lon="-6.3417555671">
        <ele>513.96</ele>
        <time>2020-07-11T11:21:55Z</time>
      </trkpt>
      <trkpt lat="38.3375043701" lon="-6.3419488538">
        <ele>513.48</ele>
        <time>2020-07-11T11:22:02Z</time>
      </trkpt>
      <trkpt lat="38.3375868481" lon="-6.3421201799">
        <ele>513.48</ele>
        <time>2020-07-11T11:22:10Z</time>
      </trkpt>
      <trkpt lat="38.3376404084" lon="-6.3422216848">
        <ele>513.00</ele>
        <time>2020-07-11T11:22:17Z</time>
      </trkpt>
      <trkpt lat="38.3376470301" lon="-6.3422384486">
        <ele>513.00</ele>
        <time>2020-07-11T11:22:23Z</time>
      </trkpt>
      <trkpt lat="38.3376568370" lon="-6.3422710542">
        <ele>513.96</ele>
        <time>2020-07-11T11:22:31Z</time>
      </trkpt>
      <trkpt lat="38.3376622852" lon="-6.3423024863">
        <ele>513.96</ele>
        <time>2020-07-11T11:22:39Z</time>
      </trkpt>
      <trkpt lat="38.3376746066" lon="-6.3423351757">
        <ele>514.44</ele>
        <time>2020-07-11T11:22:49Z</time>
      </trkpt>
      <trkpt lat="38.3377036918" lon="-6.3424346689">
        <ele>514.92</ele>
        <time>2020-07-11T11:23:00Z</time>
      </trkpt>
      <trkpt lat="38.3377253171" lon="-6.3425089326">
        <ele>515.88</ele>
        <time>2020-07-11T11:23:08Z</time>
      </trkpt>
      <trkpt lat="38.3377517201" lon="-6.3425876386">
        <ele>517.33</ele>
        <time>2020-07-11T11:23:18Z</time>
      </trkpt>
      <trkpt lat="38.3377536479" lon="-6.3425899856">
        <ele>516.37</ele>
        <time>2020-07-11T11:23:35Z</time>
      </trkpt>
      <trkpt lat="38.3377507143" lon="-6.3425897341">
        <ele>517.33</ele>
        <time>2020-07-11T11:23:47Z</time>
      </trkpt>
      <trkpt lat="38.3377741836" lon="-6.3426437974">
        <ele>517.81</ele>
        <time>2020-07-11T11:23:56Z</time>
      </trkpt>
      <trkpt lat="38.3378015924" lon="-6.3427450508">
        <ele>518.29</ele>
        <time>2020-07-11T11:24:05Z</time>
      </trkpt>
      <trkpt lat="38.3378667198" lon="-6.3428442925">
        <ele>520.21</ele>
        <time>2020-07-11T11:24:16Z</time>
      </trkpt>
      <trkpt lat="38.3378885966" lon="-6.3428830169">
        <ele>520.69</ele>
        <time>2020-07-11T11:24:25Z</time>
      </trkpt>
      <trkpt lat="38.3379010018" lon="-6.3429005351">
        <ele>521.65</ele>
        <time>2020-07-11T11:24:38Z</time>
      </trkpt>
      <trkpt lat="38.3379600104" lon="-6.3429886289">
        <ele>522.13</ele>
        <time>2020-07-11T11:24:49Z</time>
      </trkpt>
      <trkpt lat="38.3379944600" lon="-6.3430757169">
        <ele>522.13</ele>
        <time>2020-07-11T11:24:58Z</time>
      </trkpt>
      <trkpt lat="38.3380446676" lon="-6.3431676663">
        <ele>523.09</ele>
        <time>2020-07-11T11:25:08Z</time>
      </trkpt>
      <trkpt lat="38.3381202724" lon="-6.3432830013">
        <ele>524.06</ele>
        <time>2020-07-11T11:25:20Z</time>
      </trkpt>
      <trkpt lat="38.3381805383" lon="-6.3433472905">
        <ele>524.54</ele>
        <time>2020-07-11T11:25:29Z</time>
      </trkpt>
      <trkpt lat="38.3381881658" lon="-6.3433545828">
        <ele>523.58</ele>
        <time>2020-07-11T11:25:38Z</time>
      </trkpt>
      <trkpt lat="38.3382601663" lon="-6.3434659783">
        <ele>524.06</ele>
        <time>2020-07-11T11:25:45Z</time>
      </trkpt>
      <trkpt lat="38.3384168241" lon="-6.3437321875">
        <ele>524.54</ele>
        <time>2020-07-11T11:25:57Z</time>
      </trkpt>
      <trkpt lat="38.3385354280" lon="-6.3439750951">
        <ele>524.54</ele>
        <time>2020-07-11T11:26:07Z</time>
      </trkpt>
      <trkpt lat="38.3386116195" lon="-6.3441420626">
        <ele>524.54</ele>
        <time>2020-07-11T11:26:14Z</time>
      </trkpt>
      <trkpt lat="38.3387145493" lon="-6.3443091139">
        <ele>524.06</ele>
        <time>2020-07-11T11:26:22Z</time>
      </trkpt>
      <trkpt lat="38.3388111088" lon="-6.3444840442">
        <ele>524.06</ele>
        <time>2020-07-11T11:26:29Z</time>
      </trkpt>
      <trkpt lat="38.3389270306" lon="-6.3447365072">
        <ele>523.09</ele>
        <time>2020-07-11T11:26:38Z</time>
      </trkpt>
      <trkpt lat="38.3390333131" lon="-6.3449787442">
        <ele>521.65</ele>
        <time>2020-07-11T11:26:45Z</time>
      </trkpt>
      <trkpt lat="38.3391273580" lon="-6.3451832626">
        <ele>521.17</ele>
        <time>2020-07-11T11:26:52Z</time>
      </trkpt>
      <trkpt lat="38.3392463811" lon="-6.3454033714">
        <ele>519.73</ele>
        <time>2020-07-11T11:27:01Z</time>
      </trkpt>
      <trkpt lat="38.3393459581" lon="-6.3455981668">
        <ele>520.21</ele>
        <time>2020-07-11T11:27:10Z</time>
      </trkpt>
      <trkpt lat="38.3394439425" lon="-6.3457943872">
        <ele>521.17</ele>
        <time>2020-07-11T11:27:21Z</time>
      </trkpt>
      <trkpt lat="38.3395306114" lon="-6.3459968101">
        <ele>522.13</ele>
        <time>2020-07-11T11:27:31Z</time>
      </trkpt>
      <trkpt lat="38.3396122511" lon="-6.3461779431">
        <ele>522.61</ele>
        <time>2020-07-11T11:27:39Z</time>
      </trkpt>
      <trkpt lat="38.3397265803" lon="-6.3464078587">
        <ele>523.09</ele>
        <time>2020-07-11T11:27:50Z</time>
      </trkpt>
      <trkpt lat="38.3398302644" lon="-6.3466148917">
        <ele>523.58</ele>
        <time>2020-07-11T11:28:00Z</time>
      </trkpt>
      <trkpt lat="38.3399316017" lon="-6.3467984553">
        <ele>523.58</ele>
        <time>2020-07-11T11:28:09Z</time>
      </trkpt>
      <trkpt lat="38.3400321007" lon="-6.3469922449">
        <ele>523.58</ele>
        <time>2020-07-11T11:28:17Z</time>
      </trkpt>
      <trkpt lat="38.3401433285" lon="-6.3472002000">
        <ele>522.61</ele>
        <time>2020-07-11T11:28:27Z</time>
      </trkpt>
      <trkpt lat="38.3402314223" lon="-6.3473726995">
        <ele>521.17</ele>
        <time>2020-07-11T11:28:33Z</time>
      </trkpt>
      <trkpt lat="38.3403418120" lon="-6.3475605380">
        <ele>520.69</ele>
        <time>2020-07-11T11:28:41Z</time>
      </trkpt>
      <trkpt lat="38.3404371981" lon="-6.3477425091">
        <ele>519.25</ele>
        <time>2020-07-11T11:28:49Z</time>
      </trkpt>
      <trkpt lat="38.3405901678" lon="-6.3479589298">
        <ele>518.29</ele>
        <time>2020-07-11T11:28:58Z</time>
      </trkpt>
      <trkpt lat="38.3406847157" lon="-6.3481512107">
        <ele>517.33</ele>
        <time>2020-07-11T11:29:06Z</time>
      </trkpt>
      <trkpt lat="38.3407810237" lon="-6.3482777774">
        <ele>516.37</ele>
        <time>2020-07-11T11:29:13Z</time>
      </trkpt>
      <trkpt lat="38.3409145474" lon="-6.3484482653">
        <ele>515.40</ele>
        <time>2020-07-11T11:29:21Z</time>
      </trkpt>
      <trkpt lat="38.3410536870" lon="-6.3486526161">
        <ele>513.48</ele>
        <time>2020-07-11T11:29:30Z</time>
      </trkpt>
      <trkpt lat="38.3412235044" lon="-6.3488711324">
        <ele>511.56</ele>
        <time>2020-07-11T11:29:40Z</time>
      </trkpt>
      <trkpt lat="38.3413903881" lon="-6.3490142114">
        <ele>510.12</ele>
        <time>2020-07-11T11:29:49Z</time>
      </trkpt>
      <trkpt lat="38.3416200522" lon="-6.3491613138">
        <ele>508.19</ele>
        <time>2020-07-11T11:30:00Z</time>
      </trkpt>
      <trkpt lat="38.3417535760" lon="-6.3492085040">
        <ele>507.71</ele>
        <time>2020-07-11T11:30:06Z</time>
      </trkpt>
      <trkpt lat="38.3419440128" lon="-6.3492632378">
        <ele>506.75</ele>
        <time>2020-07-11T11:30:14Z</time>
      </trkpt>
      <trkpt lat="38.3421050292" lon="-6.3493155409">
        <ele>504.83</ele>
        <time>2020-07-11T11:30:21Z</time>
      </trkpt>
      <trkpt lat="38.3423572406" lon="-6.3493984379">
        <ele>501.95</ele>
        <time>2020-07-11T11:30:30Z</time>
      </trkpt>
      <trkpt lat="38.3425939456" lon="-6.3494619727">
        <ele>501.46</ele>
        <time>2020-07-11T11:30:38Z</time>
      </trkpt>
      <trkpt lat="38.3428180777" lon="-6.3495008647">
        <ele>500.98</ele>
        <time>2020-07-11T11:30:46Z</time>
      </trkpt>
      <trkpt lat="38.3428933471" lon="-6.3495219033">
        <ele>500.98</ele>
        <time>2020-07-11T11:30:51Z</time>
      </trkpt>
      <trkpt lat="38.3428926766" lon="-6.3495191373">
        <ele>501.95</ele>
        <time>2020-07-11T11:31:04Z</time>
      </trkpt>
      <trkpt lat="38.3428914193" lon="-6.3495231606">
        <ele>501.46</ele>
        <time>2020-07-11T11:31:22Z</time>
      </trkpt>
      <trkpt lat="38.3428961970" lon="-6.3495226577">
        <ele>502.43</ele>
        <time>2020-07-11T11:31:37Z</time>
      </trkpt>
      <trkpt lat="38.3428956103" lon="-6.3495267648">
        <ele>501.95</ele>
        <time>2020-07-11T11:31:52Z</time>
      </trkpt>
      <trkpt lat="38.3429014776" lon="-6.3495229930">
        <ele>501.95</ele>
        <time>2020-07-11T11:32:07Z</time>
      </trkpt>
      <trkpt lat="38.3429119550" lon="-6.3495257590">
        <ele>501.95</ele>
        <time>2020-07-11T11:32:08Z</time>
      </trkpt>
      <trkpt lat="38.3429267909" lon="-6.3495289441">
        <ele>501.95</ele>
        <time>2020-07-11T11:32:09Z</time>
      </trkpt>
      <trkpt lat="38.3429402020" lon="-6.3495360687">
        <ele>501.95</ele>
        <time>2020-07-11T11:32:10Z</time>
      </trkpt>
      <trkpt lat="38.3429567143" lon="-6.3495428581">
        <ele>501.95</ele>
        <time>2020-07-11T11:32:11Z</time>
      </trkpt>
      <trkpt lat="38.3429763280" lon="-6.3495499827">
        <ele>501.95</ele>
        <time>2020-07-11T11:32:12Z</time>
      </trkpt>
      <trkpt lat="38.3429980371" lon="-6.3495576940">
        <ele>501.95</ele>
        <time>2020-07-11T11:32:13Z</time>
      </trkpt>
      <trkpt lat="38.3430210873" lon="-6.3495640643">
        <ele>501.95</ele>
        <time>2020-07-11T11:32:14Z</time>
      </trkpt>
      <trkpt lat="38.3432080876" lon="-6.3496115059">
        <ele>501.95</ele>
        <time>2020-07-11T11:32:23Z</time>
      </trkpt>
      <trkpt lat="38.3433786593" lon="-6.3496698439">
        <ele>501.46</ele>
        <time>2020-07-11T11:32:31Z</time>
      </trkpt>
      <trkpt lat="38.3435530029" lon="-6.3497425988">
        <ele>501.46</ele>
        <time>2020-07-11T11:32:39Z</time>
      </trkpt>
      <trkpt lat="38.3437174559" lon="-6.3498144317">
        <ele>501.46</ele>
        <time>2020-07-11T11:32:47Z</time>
      </trkpt>
      <trkpt lat="38.3438883629" lon="-6.3499169424">
        <ele>500.98</ele>
        <time>2020-07-11T11:32:54Z</time>
      </trkpt>
      <trkpt lat="38.3439584356" lon="-6.3500829041">
        <ele>500.50</ele>
        <time>2020-07-11T11:32:59Z</time>
      </trkpt>
      <trkpt lat="38.3440014347" lon="-6.3502353709">
        <ele>500.50</ele>
        <time>2020-07-11T11:33:05Z</time>
      </trkpt>
      <trkpt lat="38.3441097289" lon="-6.3503603451">
        <ele>500.50</ele>
        <time>2020-07-11T11:33:12Z</time>
      </trkpt>
      <trkpt lat="38.3442938793" lon="-6.3504904322">
        <ele>500.98</ele>
        <time>2020-07-11T11:33:20Z</time>
      </trkpt>
      <trkpt lat="38.3446025848" lon="-6.3505781908">
        <ele>500.98</ele>
        <time>2020-07-11T11:33:29Z</time>
      </trkpt>
      <trkpt lat="38.3448487613" lon="-6.3507021591">
        <ele>501.95</ele>
        <time>2020-07-11T11:33:37Z</time>
      </trkpt>
      <trkpt lat="38.3451574668" lon="-6.3509184122">
        <ele>502.43</ele>
        <time>2020-07-11T11:33:47Z</time>
      </trkpt>
      <trkpt lat="38.3455342334" lon="-6.3511828613">
        <ele>501.95</ele>
        <time>2020-07-11T11:33:59Z</time>
      </trkpt>
      <trkpt lat="38.3457030449" lon="-6.3512936700">
        <ele>501.95</ele>
        <time>2020-07-11T11:34:06Z</time>
      </trkpt>
      <trkpt lat="38.3459130116" lon="-6.3514785748">
        <ele>502.43</ele>
        <time>2020-07-11T11:34:16Z</time>
      </trkpt>
      <trkpt lat="38.3461410832" lon="-6.3516712748">
        <ele>501.95</ele>
        <time>2020-07-11T11:34:26Z</time>
      </trkpt>
      <trkpt lat="38.3464030176" lon="-6.3518966641">
        <ele>502.43</ele>
        <time>2020-07-11T11:34:36Z</time>
      </trkpt>
      <trkpt lat="38.3466096316" lon="-6.3521182816">
        <ele>501.95</ele>
        <time>2020-07-11T11:34:45Z</time>
      </trkpt>
      <trkpt lat="38.3468370326" lon="-6.3523763604">
        <ele>502.43</ele>
        <time>2020-07-11T11:34:55Z</time>
      </trkpt>
      <trkpt lat="38.3470962010" lon="-6.3526046835">
        <ele>502.91</ele>
        <time>2020-07-11T11:35:06Z</time>
      </trkpt>
      <trkpt lat="38.3472845424" lon="-6.3527913485">
        <ele>502.91</ele>
        <time>2020-07-11T11:35:14Z</time>
      </trkpt>
      <trkpt lat="38.3475300483" lon="-6.3530569710">
        <ele>503.39</ele>
        <time>2020-07-11T11:35:25Z</time>
      </trkpt>
      <trkpt lat="38.3477636520" lon="-6.3533627428">
        <ele>503.39</ele>
        <time>2020-07-11T11:35:36Z</time>
      </trkpt>
      <trkpt lat="38.3479375765" lon="-6.3536283653">
        <ele>503.39</ele>
        <time>2020-07-11T11:35:45Z</time>
      </trkpt>
      <trkpt lat="38.3481221460" lon="-6.3538894616">
        <ele>503.87</ele>
        <time>2020-07-11T11:35:54Z</time>
      </trkpt>
      <trkpt lat="38.3483062964" lon="-6.3540985901">
        <ele>503.87</ele>
        <time>2020-07-11T11:36:02Z</time>
      </trkpt>
      <trkpt lat="38.3484558295" lon="-6.3542622048">
        <ele>503.87</ele>
        <time>2020-07-11T11:36:09Z</time>
      </trkpt>
      <trkpt lat="38.3486508764" lon="-6.3544305973">
        <ele>504.35</ele>
        <time>2020-07-11T11:36:17Z</time>
      </trkpt>
      <trkpt lat="38.3488301653" lon="-6.3545653783">
        <ele>504.83</ele>
        <time>2020-07-11T11:36:25Z</time>
      </trkpt>
      <trkpt lat="38.3490679599" lon="-6.3547264785">
        <ele>505.79</ele>
        <time>2020-07-11T11:36:34Z</time>
      </trkpt>
      <trkpt lat="38.3493018150" lon="-6.3548949547">
        <ele>505.79</ele>
        <time>2020-07-11T11:36:43Z</time>
      </trkpt>
      <trkpt lat="38.3495697845" lon="-6.3551034126">
        <ele>506.27</ele>
        <time>2020-07-11T11:36:53Z</time>
      </trkpt>
      <trkpt lat="38.3497945871" lon="-6.3552995492">
        <ele>506.27</ele>
        <time>2020-07-11T11:37:02Z</time>
      </trkpt>
      <trkpt lat="38.3500887919" lon="-6.3554759882">
        <ele>507.23</ele>
        <time>2020-07-11T11:37:13Z</time>
      </trkpt>
      <trkpt lat="38.3502884489" lon="-6.3555961847">
        <ele>507.23</ele>
        <time>2020-07-11T11:37:21Z</time>
      </trkpt>
      <trkpt lat="38.3504850883" lon="-6.3556739688">
        <ele>507.23</ele>
        <time>2020-07-11T11:37:29Z</time>
      </trkpt>
      <trkpt lat="38.3506584261" lon="-6.3557519205">
        <ele>507.71</ele>
        <time>2020-07-11T11:37:37Z</time>
      </trkpt>
      <trkpt lat="38.3507834841" lon="-6.3557978533">
        <ele>507.71</ele>
        <time>2020-07-11T11:37:44Z</time>
      </trkpt>
      <trkpt lat="38.3507883456" lon="-6.3557917345">
        <ele>507.23</ele>
        <time>2020-07-11T11:37:54Z</time>
      </trkpt>
      <trkpt lat="38.3507837355" lon="-6.3557894714">
        <ele>507.23</ele>
        <time>2020-07-11T11:38:08Z</time>
      </trkpt>
      <trkpt lat="38.3507810533" lon="-6.3557950035">
        <ele>507.71</ele>
        <time>2020-07-11T11:38:22Z</time>
      </trkpt>
      <trkpt lat="38.3507765271" lon="-6.3557932433">
        <ele>508.67</ele>
        <time>2020-07-11T11:38:35Z</time>
      </trkpt>
      <trkpt lat="38.3507708274" lon="-6.3557838555">
        <ele>507.23</ele>
        <time>2020-07-11T11:38:51Z</time>
      </trkpt>
      <trkpt lat="38.3507797122" lon="-6.3557917345">
        <ele>507.23</ele>
        <time>2020-07-11T11:39:04Z</time>
      </trkpt>
      <trkpt lat="38.3507835679" lon="-6.3557914831">
        <ele>507.71</ele>
        <time>2020-07-11T11:39:25Z</time>
      </trkpt>
      <trkpt lat="38.3507846575" lon="-6.3557877112">
        <ele>506.75</ele>
        <time>2020-07-11T11:39:47Z</time>
      </trkpt>
      <trkpt lat="38.3507962245" lon="-6.3557977695">
        <ele>507.71</ele>
        <time>2020-07-11T11:39:59Z</time>
      </trkpt>
      <trkpt lat="38.3508098032" lon="-6.3558071572">
        <ele>507.71</ele>
        <time>2020-07-11T11:40:00Z</time>
      </trkpt>
      <trkpt lat="38.3508255612" lon="-6.3558146171">
        <ele>507.71</ele>
        <time>2020-07-11T11:40:01Z</time>
      </trkpt>
      <trkpt lat="38.3510051854" lon="-6.3558975141">
        <ele>508.67</ele>
        <time>2020-07-11T11:40:09Z</time>
      </trkpt>
      <trkpt lat="38.3512478415" lon="-6.3560094126">
        <ele>509.64</ele>
        <time>2020-07-11T11:40:18Z</time>
      </trkpt>
      <trkpt lat="38.3515464049" lon="-6.3561545871">
        <ele>509.64</ele>
        <time>2020-07-11T11:40:28Z</time>
      </trkpt>
      <trkpt lat="38.3518454712" lon="-6.3563017733">
        <ele>509.16</ele>
        <time>2020-07-11T11:40:38Z</time>
      </trkpt>
      <trkpt lat="38.3520711120" lon="-6.3563958183">
        <ele>509.16</ele>
        <time>2020-07-11T11:40:46Z</time>
      </trkpt>
      <trkpt lat="38.3523451164" lon="-6.3565428369">
        <ele>510.12</ele>
        <time>2020-07-11T11:40:56Z</time>
      </trkpt>
      <trkpt lat="38.3526456915" lon="-6.3567857444">
        <ele>510.60</ele>
        <time>2020-07-11T11:41:08Z</time>
      </trkpt>
      <trkpt lat="38.3528505452" lon="-6.3569506165">
        <ele>511.56</ele>
        <time>2020-07-11T11:41:17Z</time>
      </trkpt>
      <trkpt lat="38.3530894294" lon="-6.3571247086">
        <ele>512.04</ele>
        <time>2020-07-11T11:41:28Z</time>
      </trkpt>
      <trkpt lat="38.3532459196" lon="-6.3572389539">
        <ele>513.48</ele>
        <time>2020-07-11T11:41:37Z</time>
      </trkpt>
      <trkpt lat="38.3533664513" lon="-6.3572993875">
        <ele>514.92</ele>
        <time>2020-07-11T11:41:45Z</time>
      </trkpt>
      <trkpt lat="38.3533774316" lon="-6.3572910056">
        <ele>514.44</ele>
        <time>2020-07-11T11:41:46Z</time>
      </trkpt>
      <trkpt lat="38.3533916809" lon="-6.3572909217">
        <ele>514.44</ele>
        <time>2020-07-11T11:41:47Z</time>
      </trkpt>
      <trkpt lat="38.3534058463" lon="-6.3573019858">
        <ele>514.44</ele>
        <time>2020-07-11T11:41:48Z</time>
      </trkpt>
      <trkpt lat="38.3534166589" lon="-6.3573208451">
        <ele>514.44</ele>
        <time>2020-07-11T11:41:49Z</time>
      </trkpt>
      <trkpt lat="38.3534235321" lon="-6.3573265448">
        <ele>514.44</ele>
        <time>2020-07-11T11:41:54Z</time>
      </trkpt>
      <trkpt lat="38.3534211852" lon="-6.3573215995">
        <ele>514.92</ele>
        <time>2020-07-11T11:42:08Z</time>
      </trkpt>
      <trkpt lat="38.3534252085" lon="-6.3573211804">
        <ele>514.44</ele>
        <time>2020-07-11T11:42:31Z</time>
      </trkpt>
      <trkpt lat="38.3534104563" lon="-6.3573157322">
        <ele>514.92</ele>
        <time>2020-07-11T11:42:49Z</time>
      </trkpt>
      <trkpt lat="38.3534128033" lon="-6.3573119603">
        <ele>513.00</ele>
        <time>2020-07-11T11:43:11Z</time>
      </trkpt>
      <trkpt lat="38.3534135576" lon="-6.3573258743">
        <ele>513.96</ele>
        <time>2020-07-11T11:43:29Z</time>
      </trkpt>
      <trkpt lat="38.3534232806" lon="-6.3573291432">
        <ele>514.44</ele>
        <time>2020-07-11T11:43:50Z</time>
      </trkpt>
      <trkpt lat="38.3534192573" lon="-6.3573350944">
        <ele>513.96</ele>
        <time>2020-07-11T11:44:02Z</time>
      </trkpt>
      <trkpt lat="38.3534542937" lon="-6.3573978748">
        <ele>513.48</ele>
        <time>2020-07-11T11:44:08Z</time>
      </trkpt>
      <trkpt lat="38.3536228538" lon="-6.3574990444">
        <ele>512.04</ele>
        <time>2020-07-11T11:44:13Z</time>
      </trkpt>
      <trkpt lat="38.3537208382" lon="-6.3575596455">
        <ele>511.08</ele>
        <time>2020-07-11T11:44:15Z</time>
      </trkpt>
      <trkpt lat="38.3538925834" lon="-6.3576883916">
        <ele>511.08</ele>
        <time>2020-07-11T11:44:19Z</time>
      </trkpt>
      <trkpt lat="38.3539329842" lon="-6.3577137049">
        <ele>511.08</ele>
        <time>2020-07-11T11:44:20Z</time>
      </trkpt>
      <trkpt lat="38.3539723791" lon="-6.3577417843">
        <ele>511.08</ele>
        <time>2020-07-11T11:44:21Z</time>
      </trkpt>
      <trkpt lat="38.3542281110" lon="-6.3579158764">
        <ele>511.56</ele>
        <time>2020-07-11T11:44:29Z</time>
      </trkpt>
      <trkpt lat="38.3545054682" lon="-6.3580704387">
        <ele>512.52</ele>
        <time>2020-07-11T11:44:37Z</time>
      </trkpt>
      <trkpt lat="38.3549146727" lon="-6.3582804054">
        <ele>513.00</ele>
        <time>2020-07-11T11:44:48Z</time>
      </trkpt>
      <trkpt lat="38.3551808819" lon="-6.3584686629">
        <ele>513.96</ele>
        <time>2020-07-11T11:44:57Z</time>
      </trkpt>
      <trkpt lat="38.3554842230" lon="-6.3587108999">
        <ele>514.92</ele>
        <time>2020-07-11T11:45:07Z</time>
      </trkpt>
      <trkpt lat="38.3557641786" lon="-6.3590061944">
        <ele>515.40</ele>
        <time>2020-07-11T11:45:17Z</time>
      </trkpt>
      <trkpt lat="38.3559831977" lon="-6.3592869043">
        <ele>515.40</ele>
        <time>2020-07-11T11:45:25Z</time>
      </trkpt>
      <trkpt lat="38.3562166337" lon="-6.3597217575">
        <ele>514.92</ele>
        <time>2020-07-11T11:45:35Z</time>
      </trkpt>
      <trkpt lat="38.3562432043" lon="-6.3597667683">
        <ele>514.92</ele>
        <time>2020-07-11T11:45:36Z</time>
      </trkpt>
      <trkpt lat="38.3564673364" lon="-6.3601170480">
        <ele>515.40</ele>
        <time>2020-07-11T11:45:45Z</time>
      </trkpt>
      <trkpt lat="38.3566315379" lon="-6.3603317086">
        <ele>515.88</ele>
        <time>2020-07-11T11:45:54Z</time>
      </trkpt>
      <trkpt lat="38.3566571027" lon="-6.3603359833">
        <ele>515.88</ele>
        <time>2020-07-11T11:45:56Z</time>
      </trkpt>
      <trkpt lat="38.3566713519" lon="-6.3603274338">
        <ele>515.88</ele>
        <time>2020-07-11T11:45:57Z</time>
      </trkpt>
      <trkpt lat="38.3566835057" lon="-6.3603144418">
        <ele>515.40</ele>
        <time>2020-07-11T11:45:58Z</time>
      </trkpt>
      <trkpt lat="38.3566935640" lon="-6.3602986000">
        <ele>515.40</ele>
        <time>2020-07-11T11:45:59Z</time>
      </trkpt>
      <trkpt lat="38.3567006886" lon="-6.3602854405">
        <ele>515.40</ele>
        <time>2020-07-11T11:46:00Z</time>
      </trkpt>
      <trkpt lat="38.3567101602" lon="-6.3602701854">
        <ele>514.92</ele>
        <time>2020-07-11T11:46:07Z</time>
      </trkpt>
      <trkpt lat="38.3566917200" lon="-6.3602589536">
        <ele>514.92</ele>
        <time>2020-07-11T11:46:14Z</time>
      </trkpt>
      <trkpt lat="38.3567062207" lon="-6.3602594566">
        <ele>511.56</ele>
        <time>2020-07-11T11:46:36Z</time>
      </trkpt>
      <trkpt lat="38.3566887025" lon="-6.3602473866">
        <ele>512.04</ele>
        <time>2020-07-11T11:46:55Z</time>
      </trkpt>
      <trkpt lat="38.3566955756" lon="-6.3602421060">
        <ele>511.56</ele>
        <time>2020-07-11T11:47:18Z</time>
      </trkpt>
      <trkpt lat="38.3566996828" lon="-6.3602346461">
        <ele>510.12</ele>
        <time>2020-07-11T11:47:47Z</time>
      </trkpt>
      <trkpt lat="38.3567008562" lon="-6.3602403458">
        <ele>509.64</ele>
        <time>2020-07-11T11:48:04Z</time>
      </trkpt>
      <trkpt lat="38.3567021973" lon="-6.3602480572">
        <ele>510.12</ele>
        <time>2020-07-11T11:48:19Z</time>
      </trkpt>
      <trkpt lat="38.3567082323" lon="-6.3602465484">
        <ele>510.60</ele>
        <time>2020-07-11T11:48:38Z</time>
      </trkpt>
      <trkpt lat="38.3567053825" lon="-6.3602428604">
        <ele>509.64</ele>
        <time>2020-07-11T11:48:55Z</time>
      </trkpt>
      <trkpt lat="38.3566964138" lon="-6.3602383342">
        <ele>508.67</ele>
        <time>2020-07-11T11:49:22Z</time>
      </trkpt>
      <trkpt lat="38.3567069750" lon="-6.3602460455">
        <ele>509.64</ele>
        <time>2020-07-11T11:49:50Z</time>
      </trkpt>
      <trkpt lat="38.3566906303" lon="-6.3602514938">
        <ele>511.56</ele>
        <time>2020-07-11T11:50:15Z</time>
      </trkpt>
      <trkpt lat="38.3566958271" lon="-6.3602616359">
        <ele>513.00</ele>
        <time>2020-07-11T11:50:36Z</time>
      </trkpt>
      <trkpt lat="38.3566856012" lon="-6.3602650724">
        <ele>514.44</ele>
        <time>2020-07-11T11:51:04Z</time>
      </trkpt>
      <trkpt lat="38.3566931449" lon="-6.3602658268">
        <ele>514.44</ele>
        <time>2020-07-11T11:51:23Z</time>
      </trkpt>
      <trkpt lat="38.3567117527" lon="-6.3602592051">
        <ele>513.00</ele>
        <time>2020-07-11T11:51:51Z</time>
      </trkpt>
      <trkpt lat="38.3567051310" lon="-6.3602623064">
        <ele>513.00</ele>
        <time>2020-07-11T11:52:27Z</time>
      </trkpt>
      <trkpt lat="38.3567044605" lon="-6.3602489792">
        <ele>513.48</ele>
        <time>2020-07-11T11:52:58Z</time>
      </trkpt>
      <trkpt lat="38.3567109983" lon="-6.3602613844">
        <ele>513.96</ele>
        <time>2020-07-11T11:53:14Z</time>
      </trkpt>
      <trkpt lat="38.3567037899" lon="-6.3602592051">
        <ele>514.92</ele>
        <time>2020-07-11T11:53:37Z</time>
      </trkpt>
      <trkpt lat="38.3566976711" lon="-6.3602689281">
        <ele>514.44</ele>
        <time>2020-07-11T11:53:59Z</time>
      </trkpt>
      <trkpt lat="38.3567009401" lon="-6.3602517452">
        <ele>514.44</ele>
        <time>2020-07-11T11:54:19Z</time>
      </trkpt>
      <trkpt lat="38.3566948213" lon="-6.3602702692">
        <ele>512.04</ele>
        <time>2020-07-11T11:54:42Z</time>
      </trkpt>
      <trkpt lat="38.3566935640" lon="-6.3602570258">
        <ele>513.00</ele>
        <time>2020-07-11T11:55:07Z</time>
      </trkpt>
      <trkpt lat="38.3566895407" lon="-6.3602629770">
        <ele>513.00</ele>
        <time>2020-07-11T11:55:30Z</time>
      </trkpt>
      <trkpt lat="38.3566862717" lon="-6.3602637313">
        <ele>513.96</ele>
        <time>2020-07-11T11:55:53Z</time>
      </trkpt>
      <trkpt lat="38.3566955756" lon="-6.3602599595">
        <ele>514.44</ele>
        <time>2020-07-11T11:56:13Z</time>
      </trkpt>
      <trkpt lat="38.3566964138" lon="-6.3602637313">
        <ele>514.92</ele>
        <time>2020-07-11T11:56:34Z</time>
      </trkpt>
      <trkpt lat="38.3566945698" lon="-6.3602756336">
        <ele>514.92</ele>
        <time>2020-07-11T11:56:56Z</time>
      </trkpt>
      <trkpt lat="38.3566933963" lon="-6.3602723647">
        <ele>515.88</ele>
        <time>2020-07-11T11:57:18Z</time>
      </trkpt>
      <trkpt lat="38.3566959109" lon="-6.3602766395">
        <ele>514.44</ele>
        <time>2020-07-11T11:57:42Z</time>
      </trkpt>
      <trkpt lat="38.3567016106" lon="-6.3602748793">
        <ele>513.96</ele>
        <time>2020-07-11T11:58:04Z</time>
      </trkpt>
      <trkpt lat="38.3566937316" lon="-6.3602632284">
        <ele>513.96</ele>
        <time>2020-07-11T11:58:35Z</time>
      </trkpt>
      <trkpt lat="38.3566891216" lon="-6.3602701016">
        <ele>514.44</ele>
        <time>2020-07-11T11:58:53Z</time>
      </trkpt>
      <trkpt lat="38.3566875290" lon="-6.3602737058">
        <ele>514.92</ele>
        <time>2020-07-11T11:59:18Z</time>
      </trkpt>
      <trkpt lat="38.3567021973" lon="-6.3602708559">
        <ele>514.92</ele>
        <time>2020-07-11T11:59:32Z</time>
      </trkpt>
      <trkpt lat="38.3566979226" lon="-6.3602654077">
        <ele>514.92</ele>
        <time>2020-07-11T11:59:54Z</time>
      </trkpt>
      <trkpt lat="38.3566993475" lon="-6.3602843508">
        <ele>514.92</ele>
        <time>2020-07-11T12:00:20Z</time>
      </trkpt>
      <trkpt lat="38.3566994313" lon="-6.3602765556">
        <ele>514.92</ele>
        <time>2020-07-11T12:00:40Z</time>
      </trkpt>
      <trkpt lat="38.3566952404" lon="-6.3602659944">
        <ele>513.96</ele>
        <time>2020-07-11T12:01:07Z</time>
      </trkpt>
      <trkpt lat="38.3567037899" lon="-6.3602691796">
        <ele>513.96</ele>
        <time>2020-07-11T12:01:27Z</time>
      </trkpt>
      <trkpt lat="38.3567001019" lon="-6.3602703530">
        <ele>514.44</ele>
        <time>2020-07-11T12:01:50Z</time>
      </trkpt>
      <trkpt lat="38.3567011915" lon="-6.3602609653">
        <ele>513.48</ele>
        <time>2020-07-11T12:02:13Z</time>
      </trkpt>
      <trkpt lat="38.3567001857" lon="-6.3602745440">
        <ele>513.48</ele>
        <time>2020-07-11T12:02:38Z</time>
      </trkpt>
      <trkpt lat="38.3567053825" lon="-6.3602669165">
        <ele>513.00</ele>
        <time>2020-07-11T12:03:00Z</time>
      </trkpt>
      <trkpt lat="38.3567024488" lon="-6.3602612168">
        <ele>511.08</ele>
        <time>2020-07-11T12:03:20Z</time>
      </trkpt>
      <trkpt lat="38.3566971682" lon="-6.3602615520">
        <ele>512.52</ele>
        <time>2020-07-11T12:03:37Z</time>
      </trkpt>
      <trkpt lat="38.3566945698" lon="-6.3602663297">
        <ele>512.52</ele>
        <time>2020-07-11T12:04:00Z</time>
      </trkpt>
      <trkpt lat="38.3566957433" lon="-6.3602732029">
        <ele>513.96</ele>
        <time>2020-07-11T12:04:19Z</time>
      </trkpt>
      <trkpt lat="38.3566924743" lon="-6.3602688443">
        <ele>514.44</ele>
        <time>2020-07-11T12:04:43Z</time>
      </trkpt>
      <trkpt lat="38.3566835895" lon="-6.3602588698">
        <ele>514.44</ele>
        <time>2020-07-11T12:05:17Z</time>
      </trkpt>
      <trkpt lat="38.3566875290" lon="-6.3602638990">
        <ele>514.92</ele>
        <time>2020-07-11T12:05:37Z</time>
      </trkpt>
      <trkpt lat="38.3566821646" lon="-6.3602540921">
        <ele>513.96</ele>
        <time>2020-07-11T12:05:56Z</time>
      </trkpt>
      <trkpt lat="38.3566961624" lon="-6.3602528349">
        <ele>511.56</ele>
        <time>2020-07-11T12:06:18Z</time>
      </trkpt>
      <trkpt lat="38.3566922229" lon="-6.3602508232">
        <ele>513.48</ele>
        <time>2020-07-11T12:06:47Z</time>
      </trkpt>
      <trkpt lat="38.3566962462" lon="-6.3602499850">
        <ele>512.52</ele>
        <time>2020-07-11T12:07:20Z</time>
      </trkpt>
      <trkpt lat="38.3567029517" lon="-6.3602534216">
        <ele>512.04</ele>
        <time>2020-07-11T12:07:47Z</time>
      </trkpt>
      <trkpt lat="38.3567029517" lon="-6.3602441177">
        <ele>512.04</ele>
        <time>2020-07-11T12:08:12Z</time>
      </trkpt>
      <trkpt lat="38.3566987608" lon="-6.3602535892">
        <ele>511.08</ele>
        <time>2020-07-11T12:08:43Z</time>
      </trkpt>
      <trkpt lat="38.3566968329" lon="-6.3602393400">
        <ele>510.60</ele>
        <time>2020-07-11T12:09:06Z</time>
      </trkpt>
      <trkpt lat="38.3566840924" lon="-6.3602566905">
        <ele>510.60</ele>
        <time>2020-07-11T12:09:40Z</time>
      </trkpt>
      <trkpt lat="38.3566783089" lon="-6.3602509070">
        <ele>510.60</ele>
        <time>2020-07-11T12:10:07Z</time>
      </trkpt>
      <trkpt lat="38.3566791471" lon="-6.3602463808">
        <ele>510.12</ele>
        <time>2020-07-11T12:10:33Z</time>
      </trkpt>
      <trkpt lat="38.3566638920" lon="-6.3602589536">
        <ele>511.08</ele>
        <time>2020-07-11T12:10:52Z</time>
      </trkpt>
      <trkpt lat="38.3566785604" lon="-6.3602447044">
        <ele>510.12</ele>
        <time>2020-07-11T12:11:20Z</time>
      </trkpt>
      <trkpt lat="38.3566723578" lon="-6.3602454588">
        <ele>511.56</ele>
        <time>2020-07-11T12:11:43Z</time>
      </trkpt>
      <trkpt lat="38.3566773869" lon="-6.3602481410">
        <ele>510.60</ele>
        <time>2020-07-11T12:12:07Z</time>
      </trkpt>
      <trkpt lat="38.3566850144" lon="-6.3602489792">
        <ele>512.04</ele>
        <time>2020-07-11T12:12:39Z</time>
      </trkpt>
      <trkpt lat="38.3566809073" lon="-6.3602580316">
        <ele>513.96</ele>
        <time>2020-07-11T12:13:09Z</time>
      </trkpt>
      <trkpt lat="38.3566861041" lon="-6.3602516614">
        <ele>512.52</ele>
        <time>2020-07-11T12:13:34Z</time>
      </trkpt>
      <trkpt lat="38.3566898759" lon="-6.3602642342">
        <ele>514.44</ele>
        <time>2020-07-11T12:14:00Z</time>
      </trkpt>
      <trkpt lat="38.3566773031" lon="-6.3602576964">
        <ele>514.92</ele>
        <time>2020-07-11T12:14:24Z</time>
      </trkpt>
      <trkpt lat="38.3566840086" lon="-6.3602535892">
        <ele>514.44</ele>
        <time>2020-07-11T12:14:46Z</time>
      </trkpt>
      <trkpt lat="38.3566891216" lon="-6.3602570258">
        <ele>513.96</ele>
        <time>2020-07-11T12:15:12Z</time>
      </trkpt>
      <trkpt lat="38.3566900436" lon="-6.3602522481">
        <ele>513.96</ele>
        <time>2020-07-11T12:15:35Z</time>
      </trkpt>
      <trkpt lat="38.3566851821" lon="-6.3602486439">
        <ele>514.92</ele>
        <time>2020-07-11T12:15:58Z</time>
      </trkpt>
      <trkpt lat="38.3566679154" lon="-6.3602483086">
        <ele>515.40</ele>
        <time>2020-07-11T12:16:31Z</time>
      </trkpt>
      <trkpt lat="38.3566706814" lon="-6.3602443691">
        <ele>516.37</ele>
        <time>2020-07-11T12:16:58Z</time>
      </trkpt>
      <trkpt lat="38.3566768840" lon="-6.3602572773">
        <ele>516.85</ele>
        <time>2020-07-11T12:17:23Z</time>
      </trkpt>
      <trkpt lat="38.3566933125" lon="-6.3602512423">
        <ele>517.33</ele>
        <time>2020-07-11T12:17:53Z</time>
      </trkpt>
      <trkpt lat="38.3566792309" lon="-6.3602520805">
        <ele>518.29</ele>
        <time>2020-07-11T12:18:13Z</time>
      </trkpt>
      <trkpt lat="38.3566924743" lon="-6.3602506556">
        <ele>516.37</ele>
        <time>2020-07-11T12:18:45Z</time>
      </trkpt>
      <trkpt lat="38.3566825837" lon="-6.3602496497">
        <ele>516.85</ele>
        <time>2020-07-11T12:19:11Z</time>
      </trkpt>
      <trkpt lat="38.3566904627" lon="-6.3602456264">
        <ele>517.33</ele>
        <time>2020-07-11T12:19:39Z</time>
      </trkpt>
      <trkpt lat="38.3566886187" lon="-6.3602514099">
        <ele>516.37</ele>
        <time>2020-07-11T12:20:01Z</time>
      </trkpt>
      <trkpt lat="38.3566866070" lon="-6.3602479734">
        <ele>514.92</ele>
        <time>2020-07-11T12:20:23Z</time>
      </trkpt>
      <trkpt lat="38.3566824999" lon="-6.3602435309">
        <ele>514.44</ele>
        <time>2020-07-11T12:20:48Z</time>
      </trkpt>
      <trkpt lat="38.3566829190" lon="-6.3602374122">
        <ele>513.48</ele>
        <time>2020-07-11T12:21:10Z</time>
      </trkpt>
      <trkpt lat="38.3566889539" lon="-6.3602512423">
        <ele>513.96</ele>
        <time>2020-07-11T12:21:35Z</time>
      </trkpt>
      <trkpt lat="38.3566955756" lon="-6.3602465484">
        <ele>513.00</ele>
        <time>2020-07-11T12:21:56Z</time>
      </trkpt>
      <trkpt lat="38.3566922229" lon="-6.3602507394">
        <ele>512.04</ele>
        <time>2020-07-11T12:22:18Z</time>
      </trkpt>
      <trkpt lat="38.3566977549" lon="-6.3602628931">
        <ele>514.44</ele>
        <time>2020-07-11T12:22:31Z</time>
      </trkpt>
      <trkpt lat="38.3567027003" lon="-6.3602649048">
        <ele>514.92</ele>
        <time>2020-07-11T12:22:52Z</time>
      </trkpt>
      <trkpt lat="38.3566993475" lon="-6.3602591213">
        <ele>515.40</ele>
        <time>2020-07-11T12:23:10Z</time>
      </trkpt>
      <trkpt lat="38.3567038737" lon="-6.3602657430">
        <ele>515.40</ele>
        <time>2020-07-11T12:23:28Z</time>
      </trkpt>
      <trkpt lat="38.3567033708" lon="-6.3602619711">
        <ele>515.88</ele>
        <time>2020-07-11T12:23:42Z</time>
      </trkpt>
      <trkpt lat="38.3567065559" lon="-6.3602590375">
        <ele>515.40</ele>
        <time>2020-07-11T12:24:10Z</time>
      </trkpt>
      <trkpt lat="38.3566952404" lon="-6.3602511585">
        <ele>514.92</ele>
        <time>2020-07-11T12:24:33Z</time>
      </trkpt>
      <trkpt lat="38.3567003533" lon="-6.3602654077">
        <ele>513.96</ele>
        <time>2020-07-11T12:24:51Z</time>
      </trkpt>
      <trkpt lat="38.3566947374" lon="-6.3602647372">
        <ele>513.48</ele>
        <time>2020-07-11T12:25:15Z</time>
      </trkpt>
      <trkpt lat="38.3566982578" lon="-6.3602543436">
        <ele>514.44</ele>
        <time>2020-07-11T12:25:39Z</time>
      </trkpt>
      <trkpt lat="38.3567137644" lon="-6.3602610491">
        <ele>513.48</ele>
        <time>2020-07-11T12:26:07Z</time>
      </trkpt>
      <trkpt lat="38.3567068912" lon="-6.3602621388">
        <ele>512.04</ele>
        <time>2020-07-11T12:26:25Z</time>
      </trkpt>
      <trkpt lat="38.3567045443" lon="-6.3602591213">
        <ele>512.52</ele>
        <time>2020-07-11T12:26:44Z</time>
      </trkpt>
      <trkpt lat="38.3567197155" lon="-6.3602778967">
        <ele>513.00</ele>
        <time>2020-07-11T12:26:57Z</time>
      </trkpt>
      <trkpt lat="38.3566844277" lon="-6.3603448682">
        <ele>513.96</ele>
        <time>2020-07-11T12:27:05Z</time>
      </trkpt>
      <trkpt lat="38.3566771355" lon="-6.3603552617">
        <ele>513.96</ele>
        <time>2020-07-11T12:27:06Z</time>
      </trkpt>
      <trkpt lat="38.3566696756" lon="-6.3603783958">
        <ele>514.92</ele>
        <time>2020-07-11T12:27:13Z</time>
      </trkpt>
      <trkpt lat="38.3566732798" lon="-6.3603894599">
        <ele>514.44</ele>
        <time>2020-07-11T12:27:17Z</time>
      </trkpt>
      <trkpt lat="38.3566800691" lon="-6.3604037091">
        <ele>514.92</ele>
        <time>2020-07-11T12:27:18Z</time>
      </trkpt>
      <trkpt lat="38.3566928096" lon="-6.3604207244">
        <ele>514.92</ele>
        <time>2020-07-11T12:27:19Z</time>
      </trkpt>
      <trkpt lat="38.3567073941" lon="-6.3604369015">
        <ele>514.92</ele>
        <time>2020-07-11T12:27:20Z</time>
      </trkpt>
      <trkpt lat="38.3567255829" lon="-6.3604529947">
        <ele>514.44</ele>
        <time>2020-07-11T12:27:21Z</time>
      </trkpt>
      <trkpt lat="38.3568925504" lon="-6.3606565911">
        <ele>515.40</ele>
        <time>2020-07-11T12:27:29Z</time>
      </trkpt>
      <trkpt lat="38.3570615295" lon="-6.3609062042">
        <ele>515.40</ele>
        <time>2020-07-11T12:27:38Z</time>
      </trkpt>
      <trkpt lat="38.3572683949" lon="-6.3612325955">
        <ele>515.88</ele>
        <time>2020-07-11T12:27:48Z</time>
      </trkpt>
      <trkpt lat="38.3574908506" lon="-6.3616036624">
        <ele>515.88</ele>
        <time>2020-07-11T12:27:58Z</time>
      </trkpt>
      <trkpt lat="38.3577256277" lon="-6.3620075025">
        <ele>516.37</ele>
        <time>2020-07-11T12:28:08Z</time>
      </trkpt>
      <trkpt lat="38.3579572197" lon="-6.3624177966">
        <ele>516.85</ele>
        <time>2020-07-11T12:28:18Z</time>
      </trkpt>
      <trkpt lat="38.3581857104" lon="-6.3628323656">
        <ele>517.33</ele>
        <time>2020-07-11T12:28:28Z</time>
      </trkpt>
      <trkpt lat="38.3584073279" lon="-6.3632311765">
        <ele>517.81</ele>
        <time>2020-07-11T12:28:38Z</time>
      </trkpt>
      <trkpt lat="38.3586161211" lon="-6.3636584021">
        <ele>519.25</ele>
        <time>2020-07-11T12:28:49Z</time>
      </trkpt>
      <trkpt lat="38.3587528300" lon="-6.3639731426">
        <ele>519.25</ele>
        <time>2020-07-11T12:28:57Z</time>
      </trkpt>
      <trkpt lat="38.3589177020" lon="-6.3643749710">
        <ele>519.25</ele>
        <time>2020-07-11T12:29:07Z</time>
      </trkpt>
      <trkpt lat="38.3590559196" lon="-6.3647509832">
        <ele>519.25</ele>
        <time>2020-07-11T12:29:17Z</time>
      </trkpt>
      <trkpt lat="38.3592501283" lon="-6.3651391491">
        <ele>519.25</ele>
        <time>2020-07-11T12:29:28Z</time>
      </trkpt>
      <trkpt lat="38.3594362065" lon="-6.3655813783">
        <ele>519.25</ele>
        <time>2020-07-11T12:29:40Z</time>
      </trkpt>
      <trkpt lat="38.3595776930" lon="-6.3659701310">
        <ele>519.73</ele>
        <time>2020-07-11T12:29:51Z</time>
      </trkpt>
      <trkpt lat="38.3596812934" lon="-6.3662498351">
        <ele>519.73</ele>
        <time>2020-07-11T12:29:59Z</time>
      </trkpt>
      <trkpt lat="38.3598482609" lon="-6.3666816708">
        <ele>520.69</ele>
        <time>2020-07-11T12:30:12Z</time>
      </trkpt>
      <trkpt lat="38.3600160666" lon="-6.3669388276">
        <ele>520.69</ele>
        <time>2020-07-11T12:30:21Z</time>
      </trkpt>
      <trkpt lat="38.3601816092" lon="-6.3671416696">
        <ele>520.69</ele>
        <time>2020-07-11T12:30:29Z</time>
      </trkpt>
      <trkpt lat="38.3603737224" lon="-6.3674444240">
        <ele>521.17</ele>
        <time>2020-07-11T12:30:39Z</time>
      </trkpt>
      <trkpt lat="38.3605301287" lon="-6.3678040076">
        <ele>521.65</ele>
        <time>2020-07-11T12:30:49Z</time>
      </trkpt>
      <trkpt lat="38.3607058134" lon="-6.3680996373">
        <ele>522.13</ele>
        <time>2020-07-11T12:30:58Z</time>
      </trkpt>
      <trkpt lat="38.3609296102" lon="-6.3684359193">
        <ele>522.61</ele>
        <time>2020-07-11T12:31:09Z</time>
      </trkpt>
      <trkpt lat="38.3611652255" lon="-6.3687856961">
        <ele>523.09</ele>
        <time>2020-07-11T12:31:20Z</time>
      </trkpt>
      <trkpt lat="38.3614007570" lon="-6.3691115007">
        <ele>524.06</ele>
        <time>2020-07-11T12:31:31Z</time>
      </trkpt>
      <trkpt lat="38.3615908585" lon="-6.3693815656">
        <ele>524.06</ele>
        <time>2020-07-11T12:31:40Z</time>
      </trkpt>
      <trkpt lat="38.3617619332" lon="-6.3696598448">
        <ele>524.06</ele>
        <time>2020-07-11T12:31:49Z</time>
      </trkpt>
      <trkpt lat="38.3618840575" lon="-6.3699661195">
        <ele>525.02</ele>
        <time>2020-07-11T12:31:58Z</time>
      </trkpt>
      <trkpt lat="38.3620692976" lon="-6.3703547046">
        <ele>525.50</ele>
        <time>2020-07-11T12:32:09Z</time>
      </trkpt>
      <trkpt lat="38.3623045776" lon="-6.3706516754">
        <ele>525.98</ele>
        <time>2020-07-11T12:32:19Z</time>
      </trkpt>
      <trkpt lat="38.3625857905" lon="-6.3709711097">
        <ele>525.98</ele>
        <time>2020-07-11T12:32:30Z</time>
      </trkpt>
      <trkpt lat="38.3628508262" lon="-6.3712877780">
        <ele>525.98</ele>
        <time>2020-07-11T12:32:41Z</time>
      </trkpt>
      <trkpt lat="38.3631045464" lon="-6.3716653828">
        <ele>525.98</ele>
        <time>2020-07-11T12:32:53Z</time>
      </trkpt>
      <trkpt lat="38.3632014412" lon="-6.3719721604">
        <ele>526.46</ele>
        <time>2020-07-11T12:33:01Z</time>
      </trkpt>
      <trkpt lat="38.3633280918" lon="-6.3723693788">
        <ele>527.90</ele>
        <time>2020-07-11T12:33:12Z</time>
      </trkpt>
      <trkpt lat="38.3634704165" lon="-6.3727156352">
        <ele>528.38</ele>
        <time>2020-07-11T12:33:22Z</time>
      </trkpt>
      <trkpt lat="38.3636170998" lon="-6.3729472272">
        <ele>528.86</ele>
        <time>2020-07-11T12:33:30Z</time>
      </trkpt>
      <trkpt lat="38.3637877554" lon="-6.3731870335">
        <ele>528.86</ele>
        <time>2020-07-11T12:33:38Z</time>
      </trkpt>
      <trkpt lat="38.3640399668" lon="-6.3735766243">
        <ele>529.34</ele>
        <time>2020-07-11T12:33:50Z</time>
      </trkpt>
      <trkpt lat="38.3642582316" lon="-6.3739320170">
        <ele>529.34</ele>
        <time>2020-07-11T12:34:01Z</time>
      </trkpt>
      <trkpt lat="38.3645036537" lon="-6.3742887508">
        <ele>529.82</ele>
        <time>2020-07-11T12:34:13Z</time>
      </trkpt>
      <trkpt lat="38.3647363354" lon="-6.3746019825">
        <ele>530.30</ele>
        <time>2020-07-11T12:34:24Z</time>
      </trkpt>
      <trkpt lat="38.3649924025" lon="-6.3749177288">
        <ele>531.27</ele>
        <time>2020-07-11T12:34:35Z</time>
      </trkpt>
      <trkpt lat="38.3652403392" lon="-6.3752310444">
        <ele>531.27</ele>
        <time>2020-07-11T12:34:46Z</time>
      </trkpt>
      <trkpt lat="38.3654718474" lon="-6.3755156938">
        <ele>531.75</ele>
        <time>2020-07-11T12:34:56Z</time>
      </trkpt>
      <trkpt lat="38.3656730130" lon="-6.3757929672">
        <ele>532.71</ele>
        <time>2020-07-11T12:35:06Z</time>
      </trkpt>
      <trkpt lat="38.3658715803" lon="-6.3761308417">
        <ele>533.19</ele>
        <time>2020-07-11T12:35:17Z</time>
      </trkpt>
      <trkpt lat="38.3661191817" lon="-6.3766071014">
        <ele>534.63</ele>
        <time>2020-07-11T12:35:32Z</time>
      </trkpt>
      <trkpt lat="38.3662397973" lon="-6.3768605702">
        <ele>535.11</ele>
        <time>2020-07-11T12:35:40Z</time>
      </trkpt>
      <trkpt lat="38.3664122131" lon="-6.3771344908">
        <ele>535.59</ele>
        <time>2020-07-11T12:35:50Z</time>
      </trkpt>
      <trkpt lat="38.3666469902" lon="-6.3773970120">
        <ele>535.11</ele>
        <time>2020-07-11T12:36:00Z</time>
      </trkpt>
      <trkpt lat="38.3668985311" lon="-6.3776550069">
        <ele>535.11</ele>
        <time>2020-07-11T12:36:10Z</time>
      </trkpt>
      <trkpt lat="38.3671793249" lon="-6.3779425062">
        <ele>535.11</ele>
        <time>2020-07-11T12:36:22Z</time>
      </trkpt>
      <trkpt lat="38.3675151039" lon="-6.3782543968">
        <ele>535.11</ele>
        <time>2020-07-11T12:36:35Z</time>
      </trkpt>
      <trkpt lat="38.3677839115" lon="-6.3784921076">
        <ele>535.11</ele>
        <time>2020-07-11T12:36:46Z</time>
      </trkpt>
      <trkpt lat="38.3680512942" lon="-6.3787276391">
        <ele>535.11</ele>
        <time>2020-07-11T12:36:57Z</time>
      </trkpt>
      <trkpt lat="38.3683032542" lon="-6.3789406233">
        <ele>536.07</ele>
        <time>2020-07-11T12:37:08Z</time>
      </trkpt>
      <trkpt lat="38.3685614169" lon="-6.3791349158">
        <ele>536.55</ele>
        <time>2020-07-11T12:37:19Z</time>
      </trkpt>
      <trkpt lat="38.3687519375" lon="-6.3792991173">
        <ele>537.99</ele>
        <time>2020-07-11T12:37:28Z</time>
      </trkpt>
      <trkpt lat="38.3690070827" lon="-6.3794863690">
        <ele>538.48</ele>
        <time>2020-07-11T12:37:40Z</time>
      </trkpt>
      <trkpt lat="38.3692355733" lon="-6.3796545099">
        <ele>538.96</ele>
        <time>2020-07-11T12:37:51Z</time>
      </trkpt>
      <trkpt lat="38.3695321251" lon="-6.3798625488">
        <ele>539.44</ele>
        <time>2020-07-11T12:38:05Z</time>
      </trkpt>
      <trkpt lat="38.3698208816" lon="-6.3800702523">
        <ele>540.40</ele>
        <time>2020-07-11T12:38:17Z</time>
      </trkpt>
      <trkpt lat="38.3700281661" lon="-6.3802300114">
        <ele>540.88</ele>
        <time>2020-07-11T12:38:27Z</time>
      </trkpt>
      <trkpt lat="38.3701989055" lon="-6.3803571649">
        <ele>540.88</ele>
        <time>2020-07-11T12:38:35Z</time>
      </trkpt>
      <trkpt lat="38.3703803737" lon="-6.3805134036">
        <ele>540.88</ele>
        <time>2020-07-11T12:38:43Z</time>
      </trkpt>
      <trkpt lat="38.3706020750" lon="-6.3807001524">
        <ele>540.40</ele>
        <time>2020-07-11T12:38:51Z</time>
      </trkpt>
      <trkpt lat="38.3709067572" lon="-6.3809555490">
        <ele>540.40</ele>
        <time>2020-07-11T12:39:01Z</time>
      </trkpt>
      <trkpt lat="38.3712281194" lon="-6.3812098559">
        <ele>540.40</ele>
        <time>2020-07-11T12:39:11Z</time>
      </trkpt>
      <trkpt lat="38.3715683408" lon="-6.3814865425">
        <ele>540.40</ele>
        <time>2020-07-11T12:39:21Z</time>
      </trkpt>
      <trkpt lat="38.3719953150" lon="-6.3817644864">
        <ele>540.40</ele>
        <time>2020-07-11T12:39:33Z</time>
      </trkpt>
      <trkpt lat="38.3723239694" lon="-6.3819678314">
        <ele>540.88</ele>
        <time>2020-07-11T12:39:43Z</time>
      </trkpt>
      <trkpt lat="38.3727019094" lon="-6.3822301012">
        <ele>541.84</ele>
        <time>2020-07-11T12:39:55Z</time>
      </trkpt>
      <trkpt lat="38.3730407059" lon="-6.3825027645">
        <ele>542.32</ele>
        <time>2020-07-11T12:40:06Z</time>
      </trkpt>
      <trkpt lat="38.3732945938" lon="-6.3827853184">
        <ele>542.32</ele>
        <time>2020-07-11T12:40:15Z</time>
      </trkpt>
      <trkpt lat="38.3735074103" lon="-6.3831136376">
        <ele>543.28</ele>
        <time>2020-07-11T12:40:24Z</time>
      </trkpt>
      <trkpt lat="38.3737027086" lon="-6.3834269531">
        <ele>543.28</ele>
        <time>2020-07-11T12:40:32Z</time>
      </trkpt>
      <trkpt lat="38.3739121724" lon="-6.3837829325">
        <ele>542.32</ele>
        <time>2020-07-11T12:40:40Z</time>
      </trkpt>
      <trkpt lat="38.3742132504" lon="-6.3843576796">
        <ele>540.88</ele>
        <time>2020-07-11T12:40:51Z</time>
      </trkpt>
      <trkpt lat="38.3746233769" lon="-6.3850718178">
        <ele>537.99</ele>
        <time>2020-07-11T12:41:03Z</time>
      </trkpt>
      <trkpt lat="38.3750911709" lon="-6.3856952637">
        <ele>536.55</ele>
        <time>2020-07-11T12:41:14Z</time>
      </trkpt>
      <trkpt lat="38.3754117787" lon="-6.3861397561">
        <ele>536.07</ele>
        <time>2020-07-11T12:41:23Z</time>
      </trkpt>
      <trkpt lat="38.3757251780" lon="-6.3865558337">
        <ele>535.59</ele>
        <time>2020-07-11T12:41:34Z</time>
      </trkpt>
      <trkpt lat="38.3759348094" lon="-6.3868424948">
        <ele>536.55</ele>
        <time>2020-07-11T12:41:41Z</time>
      </trkpt>
      <trkpt lat="38.3763036132" lon="-6.3872971293">
        <ele>536.55</ele>
        <time>2020-07-11T12:41:52Z</time>
      </trkpt>
      <trkpt lat="38.3767258935" lon="-6.3877055794">
        <ele>535.59</ele>
        <time>2020-07-11T12:42:03Z</time>
      </trkpt>
      <trkpt lat="38.3770763408" lon="-6.3880322222">
        <ele>535.11</ele>
        <time>2020-07-11T12:42:12Z</time>
      </trkpt>
      <trkpt lat="38.3774486650" lon="-6.3883783109">
        <ele>535.11</ele>
        <time>2020-07-11T12:42:22Z</time>
      </trkpt>
      <trkpt lat="38.3776268642" lon="-6.3885478768">
        <ele>535.59</ele>
        <time>2020-07-11T12:42:27Z</time>
      </trkpt>
      <trkpt lat="38.3780503180" lon="-6.3889669720">
        <ele>536.07</ele>
        <time>2020-07-11T12:42:39Z</time>
      </trkpt>
      <trkpt lat="38.3782853466" lon="-6.3891989831">
        <ele>536.55</ele>
        <time>2020-07-11T12:42:47Z</time>
      </trkpt>
      <trkpt lat="38.3782957401" lon="-6.3892070297">
        <ele>536.55</ele>
        <time>2020-07-11T12:42:52Z</time>
      </trkpt>
      <trkpt lat="38.3782892022" lon="-6.3892080355">
        <ele>538.48</ele>
        <time>2020-07-11T12:43:10Z</time>
      </trkpt>
      <trkpt lat="38.3782951534" lon="-6.3892071974">
        <ele>537.99</ele>
        <time>2020-07-11T12:43:21Z</time>
      </trkpt>
      <trkpt lat="38.3783102408" lon="-6.3892252184">
        <ele>537.51</ele>
        <time>2020-07-11T12:43:32Z</time>
      </trkpt>
      <trkpt lat="38.3784162719" lon="-6.3893461693">
        <ele>537.99</ele>
        <time>2020-07-11T12:43:39Z</time>
      </trkpt>
      <trkpt lat="38.3786544017" lon="-6.3895985484">
        <ele>537.03</ele>
        <time>2020-07-11T12:43:48Z</time>
      </trkpt>
      <trkpt lat="38.3789651189" lon="-6.3899221737">
        <ele>537.51</ele>
        <time>2020-07-11T12:43:58Z</time>
      </trkpt>
      <trkpt lat="38.3792743273" lon="-6.3902800810">
        <ele>537.99</ele>
        <time>2020-07-11T12:44:08Z</time>
      </trkpt>
      <trkpt lat="38.3795556240" lon="-6.3906104118">
        <ele>538.48</ele>
        <time>2020-07-11T12:44:18Z</time>
      </trkpt>
      <trkpt lat="38.3798772376" lon="-6.3909789640">
        <ele>538.96</ele>
        <time>2020-07-11T12:44:29Z</time>
      </trkpt>
      <trkpt lat="38.3801515773" lon="-6.3912801258">
        <ele>539.44</ele>
        <time>2020-07-11T12:44:38Z</time>
      </trkpt>
      <trkpt lat="38.3803833369" lon="-6.3915256318">
        <ele>540.40</ele>
        <time>2020-07-11T12:44:46Z</time>
      </trkpt>
      <trkpt lat="38.3807015140" lon="-6.3918909989">
        <ele>540.88</ele>
        <time>2020-07-11T12:44:57Z</time>
      </trkpt>
      <trkpt lat="38.3810558170" lon="-6.3923296239">
        <ele>541.84</ele>
        <time>2020-07-11T12:45:09Z</time>
      </trkpt>
      <trkpt lat="38.3813535422" lon="-6.3927702606">
        <ele>542.32</ele>
        <time>2020-07-11T12:45:20Z</time>
      </trkpt>
      <trkpt lat="38.3816272952" lon="-6.3929913752">
        <ele>541.36</ele>
        <time>2020-07-11T12:45:28Z</time>
      </trkpt>
      <trkpt lat="38.3820390981" lon="-6.3931994140">
        <ele>540.88</ele>
        <time>2020-07-11T12:45:38Z</time>
      </trkpt>
      <trkpt lat="38.3824061416" lon="-6.3934010826">
        <ele>540.40</ele>
        <time>2020-07-11T12:45:47Z</time>
      </trkpt>
      <trkpt lat="38.3828819823" lon="-6.3937009033">
        <ele>538.96</ele>
        <time>2020-07-11T12:45:58Z</time>
      </trkpt>
      <trkpt lat="38.3832666278" lon="-6.3939421345">
        <ele>537.51</ele>
        <time>2020-07-11T12:46:07Z</time>
      </trkpt>
      <trkpt lat="38.3834462520" lon="-6.3940195832">
        <ele>537.99</ele>
        <time>2020-07-11T12:46:13Z</time>
      </trkpt>
      <trkpt lat="38.3835454937" lon="-6.3941137120">
        <ele>538.96</ele>
        <time>2020-07-11T12:46:20Z</time>
      </trkpt>
      <trkpt lat="38.3836747427" lon="-6.3942372613">
        <ele>537.99</ele>
        <time>2020-07-11T12:46:27Z</time>
      </trkpt>
      <trkpt lat="38.3839686960" lon="-6.3944771513">
        <ele>537.03</ele>
        <time>2020-07-11T12:46:36Z</time>
      </trkpt>
      <trkpt lat="38.3843343146" lon="-6.3947841804">
        <ele>536.55</ele>
        <time>2020-07-11T12:46:45Z</time>
      </trkpt>
      <trkpt lat="38.3846809063" lon="-6.3951265812">
        <ele>536.55</ele>
        <time>2020-07-11T12:46:54Z</time>
      </trkpt>
      <trkpt lat="38.3850709163" lon="-6.3955808803">
        <ele>536.55</ele>
        <time>2020-07-11T12:47:05Z</time>
      </trkpt>
      <trkpt lat="38.3853885066" lon="-6.3959395420">
        <ele>536.07</ele>
        <time>2020-07-11T12:47:13Z</time>
      </trkpt>
      <trkpt lat="38.3857458271" lon="-6.3963083457">
        <ele>536.07</ele>
        <time>2020-07-11T12:47:23Z</time>
      </trkpt>
      <trkpt lat="38.3858776744" lon="-6.3964157179">
        <ele>536.07</ele>
        <time>2020-07-11T12:47:26Z</time>
      </trkpt>
      <trkpt lat="38.3861578815" lon="-6.3966648281">
        <ele>535.59</ele>
        <time>2020-07-11T12:47:34Z</time>
      </trkpt>
      <trkpt lat="38.3864398487" lon="-6.3969387487">
        <ele>535.11</ele>
        <time>2020-07-11T12:47:43Z</time>
      </trkpt>
      <trkpt lat="38.3866436128" lon="-6.3971758727">
        <ele>535.11</ele>
        <time>2020-07-11T12:47:51Z</time>
      </trkpt>
      <trkpt lat="38.3868343011" lon="-6.3973762002">
        <ele>535.59</ele>
        <time>2020-07-11T12:47:58Z</time>
      </trkpt>
      <trkpt lat="38.3870489616" lon="-6.3976200297">
        <ele>536.07</ele>
        <time>2020-07-11T12:48:05Z</time>
      </trkpt>
      <trkpt lat="38.3872794639" lon="-6.3979841396">
        <ele>535.59</ele>
        <time>2020-07-11T12:48:14Z</time>
      </trkpt>
      <trkpt lat="38.3874667995" lon="-6.3984072581">
        <ele>534.15</ele>
        <time>2020-07-11T12:48:23Z</time>
      </trkpt>
      <trkpt lat="38.3876401372" lon="-6.3986012992">
        <ele>532.71</ele>
        <time>2020-07-11T12:48:29Z</time>
      </trkpt>
      <trkpt lat="38.3876809571" lon="-6.3986185659">
        <ele>532.71</ele>
        <time>2020-07-11T12:48:30Z</time>
      </trkpt>
      <trkpt lat="38.3877281472" lon="-6.3986312225">
        <ele>532.23</ele>
        <time>2020-07-11T12:48:31Z</time>
      </trkpt>
      <trkpt lat="38.3882237691" lon="-6.3987593818">
        <ele>530.30</ele>
        <time>2020-07-11T12:48:40Z</time>
      </trkpt>
      <trkpt lat="38.3887388371" lon="-6.3989605475">
        <ele>528.86</ele>
        <time>2020-07-11T12:48:49Z</time>
      </trkpt>
      <trkpt lat="38.3891822398" lon="-6.3992107473">
        <ele>527.42</ele>
        <time>2020-07-11T12:48:57Z</time>
      </trkpt>
      <trkpt lat="38.3895967249" lon="-6.3994816504">
        <ele>526.94</ele>
        <time>2020-07-11T12:49:05Z</time>
      </trkpt>
      <trkpt lat="38.3896516263" lon="-6.3995060418">
        <ele>526.94</ele>
        <time>2020-07-11T12:49:06Z</time>
      </trkpt>
      <trkpt lat="38.3897010796" lon="-6.3995288406">
        <ele>526.94</ele>
        <time>2020-07-11T12:49:07Z</time>
      </trkpt>
      <trkpt lat="38.3898022491" lon="-6.3995824847">
        <ele>526.94</ele>
        <time>2020-07-11T12:49:09Z</time>
      </trkpt>
      <trkpt lat="38.3901793510" lon="-6.3998288289">
        <ele>527.42</ele>
        <time>2020-07-11T12:49:18Z</time>
      </trkpt>
      <trkpt lat="38.3905727137" lon="-6.4000828844">
        <ele>527.90</ele>
        <time>2020-07-11T12:49:28Z</time>
      </trkpt>
      <trkpt lat="38.3907955885" lon="-6.4002180845">
        <ele>528.38</ele>
        <time>2020-07-11T12:49:34Z</time>
      </trkpt>
      <trkpt lat="38.3911400847" lon="-6.4003978763">
        <ele>530.30</ele>
        <time>2020-07-11T12:49:44Z</time>
      </trkpt>
      <trkpt lat="38.3913478721" lon="-6.4005114511">
        <ele>529.82</ele>
        <time>2020-07-11T12:49:52Z</time>
      </trkpt>
      <trkpt lat="38.3914834913" lon="-6.4005465712">
        <ele>529.82</ele>
        <time>2020-07-11T12:49:59Z</time>
      </trkpt>
      <trkpt lat="38.3915211260" lon="-6.4005592279">
        <ele>529.82</ele>
        <time>2020-07-11T12:50:01Z</time>
      </trkpt>
      <trkpt lat="38.3915399853" lon="-6.4005756564">
        <ele>529.82</ele>
        <time>2020-07-11T12:50:02Z</time>
      </trkpt>
      <trkpt lat="38.3915598504" lon="-6.4005898219">
        <ele>529.82</ele>
        <time>2020-07-11T12:50:03Z</time>
      </trkpt>
      <trkpt lat="38.3915846609" lon="-6.4006002154">
        <ele>529.82</ele>
        <time>2020-07-11T12:50:04Z</time>
      </trkpt>
      <trkpt lat="38.3916096389" lon="-6.4006093517">
        <ele>529.82</ele>
        <time>2020-07-11T12:50:05Z</time>
      </trkpt>
      <trkpt lat="38.3917948790" lon="-6.4007004630">
        <ele>529.34</ele>
        <time>2020-07-11T12:50:13Z</time>
      </trkpt>
      <trkpt lat="38.3920819592" lon="-6.4008735493">
        <ele>529.34</ele>
        <time>2020-07-11T12:50:21Z</time>
      </trkpt>
      <trkpt lat="38.3924023155" lon="-6.4010688476">
        <ele>531.75</ele>
        <time>2020-07-11T12:50:29Z</time>
      </trkpt>
      <trkpt lat="38.3926762361" lon="-6.4012420177">
        <ele>533.19</ele>
        <time>2020-07-11T12:50:37Z</time>
      </trkpt>
      <trkpt lat="38.3926993702" lon="-6.4012459572">
        <ele>531.75</ele>
        <time>2020-07-11T12:50:43Z</time>
      </trkpt>
      <trkpt lat="38.3927199058" lon="-6.4012757968">
        <ele>528.86</ele>
        <time>2020-07-11T12:50:55Z</time>
      </trkpt>
      <trkpt lat="38.3927672636" lon="-6.4012949914">
        <ele>527.90</ele>
        <time>2020-07-11T12:51:00Z</time>
      </trkpt>
      <trkpt lat="38.3927823510" lon="-6.4012976736">
        <ele>527.90</ele>
        <time>2020-07-11T12:51:01Z</time>
      </trkpt>
      <trkpt lat="38.3927957620" lon="-6.4013099112">
        <ele>527.42</ele>
        <time>2020-07-11T12:51:02Z</time>
      </trkpt>
      <trkpt lat="38.3928101789" lon="-6.4013231546">
        <ele>526.94</ele>
        <time>2020-07-11T12:51:03Z</time>
      </trkpt>
      <trkpt lat="38.3928213269" lon="-6.4013263397">
        <ele>526.46</ele>
        <time>2020-07-11T12:51:04Z</time>
      </trkpt>
      <trkpt lat="38.3928384259" lon="-6.4013295248">
        <ele>526.46</ele>
        <time>2020-07-11T12:51:05Z</time>
      </trkpt>
      <trkpt lat="38.3928540163" lon="-6.4013361465">
        <ele>526.46</ele>
        <time>2020-07-11T12:51:06Z</time>
      </trkpt>
      <trkpt lat="38.3928712830" lon="-6.4013440255">
        <ele>526.46</ele>
        <time>2020-07-11T12:51:07Z</time>
      </trkpt>
      <trkpt lat="38.3930024598" lon="-6.4014047943">
        <ele>526.46</ele>
        <time>2020-07-11T12:51:12Z</time>
      </trkpt>
      <trkpt lat="38.3932801522" lon="-6.4015156031">
        <ele>528.86</ele>
        <time>2020-07-11T12:51:22Z</time>
      </trkpt>
      <trkpt lat="38.3936155960" lon="-6.4016500488">
        <ele>532.71</ele>
        <time>2020-07-11T12:51:32Z</time>
      </trkpt>
      <trkpt lat="38.3937866706" lon="-6.4017212112">
        <ele>537.51</ele>
        <time>2020-07-11T12:51:38Z</time>
      </trkpt>
      <trkpt lat="38.3940797020" lon="-6.4018078800">
        <ele>541.36</ele>
        <time>2020-07-11T12:51:46Z</time>
      </trkpt>
      <trkpt lat="38.3943586517" lon="-6.4018739294">
        <ele>541.36</ele>
        <time>2020-07-11T12:51:54Z</time>
      </trkpt>
      <trkpt lat="38.3944724780" lon="-6.4019165933">
        <ele>542.32</ele>
        <time>2020-07-11T12:52:00Z</time>
      </trkpt>
      <trkpt lat="38.3946130425" lon="-6.4019440860">
        <ele>542.80</ele>
        <time>2020-07-11T12:52:06Z</time>
      </trkpt>
      <trkpt lat="38.3949132822" lon="-6.4019812178">
        <ele>545.69</ele>
        <time>2020-07-11T12:52:14Z</time>
      </trkpt>
      <trkpt lat="38.3952378295" lon="-6.4020108897">
        <ele>546.65</ele>
        <time>2020-07-11T12:52:22Z</time>
      </trkpt>
      <trkpt lat="38.3954925556" lon="-6.4020963851">
        <ele>547.61</ele>
        <time>2020-07-11T12:52:29Z</time>
      </trkpt>
      <trkpt lat="38.3956857584" lon="-6.4021675475">
        <ele>548.57</ele>
        <time>2020-07-11T12:52:36Z</time>
      </trkpt>
      <trkpt lat="38.3959113155" lon="-6.4021924417">
        <ele>549.53</ele>
        <time>2020-07-11T12:52:44Z</time>
      </trkpt>
      <trkpt lat="38.3960448392" lon="-6.4021365345">
        <ele>548.57</ele>
        <time>2020-07-11T12:52:50Z</time>
      </trkpt>
      <trkpt lat="38.3961910196" lon="-6.4020968042">
        <ele>544.72</ele>
        <time>2020-07-11T12:52:57Z</time>
      </trkpt>
      <trkpt lat="38.3963557240" lon="-6.4021226205">
        <ele>540.40</ele>
        <time>2020-07-11T12:53:06Z</time>
      </trkpt>
      <trkpt lat="38.3965187520" lon="-6.4023243729">
        <ele>535.59</ele>
        <time>2020-07-11T12:53:13Z</time>
      </trkpt>
      <trkpt lat="38.3966079354" lon="-6.4022958744">
        <ele>534.63</ele>
        <time>2020-07-11T12:53:17Z</time>
      </trkpt>
      <trkpt lat="38.3967089374" lon="-6.4021031745">
        <ele>533.19</ele>
        <time>2020-07-11T12:53:25Z</time>
      </trkpt>
      <trkpt lat="38.3967327420" lon="-6.4020290785">
        <ele>532.71</ele>
        <time>2020-07-11T12:53:29Z</time>
      </trkpt>
      <trkpt lat="38.3967102785" lon="-6.4019986521">
        <ele>532.23</ele>
        <time>2020-07-11T12:53:32Z</time>
      </trkpt>
      <trkpt lat="38.3966618311" lon="-6.4019895997">
        <ele>531.75</ele>
        <time>2020-07-11T12:53:40Z</time>
      </trkpt>
      <trkpt lat="38.3966671955" lon="-6.4019700699">
        <ele>533.19</ele>
        <time>2020-07-11T12:53:49Z</time>
      </trkpt>
      <trkpt lat="38.3966767509" lon="-6.4019543957">
        <ele>532.71</ele>
        <time>2020-07-11T12:54:07Z</time>
      </trkpt>
      <trkpt lat="38.3966867253" lon="-6.4019426610">
        <ele>535.59</ele>
        <time>2020-07-11T12:54:27Z</time>
      </trkpt>
      <trkpt lat="38.3966893237" lon="-6.4019339439">
        <ele>535.59</ele>
        <time>2020-07-11T12:54:51Z</time>
      </trkpt>
      <trkpt lat="38.3967052493" lon="-6.4019341953">
        <ele>536.07</ele>
        <time>2020-07-11T12:55:13Z</time>
      </trkpt>
      <trkpt lat="38.3966905810" lon="-6.4019386377">
        <ele>537.99</ele>
        <time>2020-07-11T12:55:39Z</time>
      </trkpt>
      <trkpt lat="38.3966642618" lon="-6.4019444212">
        <ele>536.07</ele>
        <time>2020-07-11T12:55:56Z</time>
      </trkpt>
      <trkpt lat="38.3966810256" lon="-6.4019519649">
        <ele>531.27</ele>
        <time>2020-07-11T12:56:17Z</time>
      </trkpt>
      <trkpt lat="38.3966865577" lon="-6.4019495342">
        <ele>532.71</ele>
        <time>2020-07-11T12:56:30Z</time>
      </trkpt>
      <trkpt lat="38.3966744039" lon="-6.4019491989">
        <ele>532.23</ele>
        <time>2020-07-11T12:56:39Z</time>
      </trkpt>
      <trkpt lat="38.3966905810" lon="-6.4019219577">
        <ele>531.75</ele>
        <time>2020-07-11T12:56:57Z</time>
      </trkpt>
      <trkpt lat="38.3967052493" lon="-6.4019306749">
        <ele>532.23</ele>
        <time>2020-07-11T12:57:21Z</time>
      </trkpt>
      <trkpt lat="38.3966932632" lon="-6.4019220416">
        <ele>531.75</ele>
        <time>2020-07-11T12:57:45Z</time>
      </trkpt>
      <trkpt lat="38.3967125416" lon="-6.4018988237">
        <ele>534.15</ele>
        <time>2020-07-11T12:58:04Z</time>
      </trkpt>
      <trkpt lat="38.3967083506" lon="-6.4019066188">
        <ele>536.55</ele>
        <time>2020-07-11T12:58:21Z</time>
      </trkpt>
      <trkpt lat="38.3966914192" lon="-6.4019189402">
        <ele>536.55</ele>
        <time>2020-07-11T12:58:42Z</time>
      </trkpt>
      <trkpt lat="38.3966963645" lon="-6.4019131567">
        <ele>537.99</ele>
        <time>2020-07-11T12:59:04Z</time>
      </trkpt>
      <trkpt lat="38.3967142180" lon="-6.4019000810">
        <ele>538.96</ele>
        <time>2020-07-11T12:59:29Z</time>
      </trkpt>
      <trkpt lat="38.3967217617" lon="-6.4018948842">
        <ele>537.99</ele>
        <time>2020-07-11T12:59:53Z</time>
      </trkpt>
      <trkpt lat="38.3966827858" lon="-6.4018822275">
        <ele>538.48</ele>
        <time>2020-07-11T13:00:17Z</time>
      </trkpt>
      <trkpt lat="38.3966873121" lon="-6.4018903580">
        <ele>538.96</ele>
        <time>2020-07-11T13:00:42Z</time>
      </trkpt>
      <trkpt lat="38.3966914192" lon="-6.4019068703">
        <ele>540.40</ele>
        <time>2020-07-11T13:01:09Z</time>
      </trkpt>
      <trkpt lat="38.3966918383" lon="-6.4019220416">
        <ele>537.51</ele>
        <time>2020-07-11T13:01:36Z</time>
      </trkpt>
      <trkpt lat="38.3966968674" lon="-6.4019072894">
        <ele>535.11</ele>
        <time>2020-07-11T13:02:01Z</time>
      </trkpt>
      <trkpt lat="38.3967004716" lon="-6.4019196108">
        <ele>534.15</ele>
        <time>2020-07-11T13:02:13Z</time>
      </trkpt>
      <trkpt lat="38.3967433870" lon="-6.4019581676">
        <ele>534.63</ele>
        <time>2020-07-11T13:02:19Z</time>
      </trkpt>
      <trkpt lat="38.3967576362" lon="-6.4021246321">
        <ele>533.67</ele>
        <time>2020-07-11T13:02:29Z</time>
      </trkpt>
      <trkpt lat="38.3967481647" lon="-6.4021450002">
        <ele>533.19</ele>
        <time>2020-07-11T13:02:35Z</time>
      </trkpt>
      <trkpt lat="38.3967379387" lon="-6.4021747559">
        <ele>532.23</ele>
        <time>2020-07-11T13:02:44Z</time>
      </trkpt>
      <trkpt lat="38.3967285510" lon="-6.4021866582">
        <ele>531.27</ele>
        <time>2020-07-11T13:02:50Z</time>
      </trkpt>
      <trkpt lat="38.3967294730" lon="-6.4021887537">
        <ele>532.71</ele>
        <time>2020-07-11T13:03:06Z</time>
      </trkpt>
      <trkpt lat="38.3967458177" lon="-6.4021756779">
        <ele>533.67</ele>
        <time>2020-07-11T13:03:20Z</time>
      </trkpt>
      <trkpt lat="38.3967461530" lon="-6.4021516219">
        <ele>532.23</ele>
        <time>2020-07-11T13:03:32Z</time>
      </trkpt>
      <trkpt lat="38.3967521880" lon="-6.4021367859">
        <ele>533.19</ele>
        <time>2020-07-11T13:03:47Z</time>
      </trkpt>
      <trkpt lat="38.3967556246" lon="-6.4021319244">
        <ele>536.07</ele>
        <time>2020-07-11T13:04:08Z</time>
      </trkpt>
      <trkpt lat="38.3967552055" lon="-6.4021072816">
        <ele>537.51</ele>
        <time>2020-07-11T13:04:26Z</time>
      </trkpt>
      <trkpt lat="38.3967560437" lon="-6.4021144062">
        <ele>538.96</ele>
        <time>2020-07-11T13:04:46Z</time>
      </trkpt>
      <trkpt lat="38.3967511822" lon="-6.4021401387">
        <ele>539.44</ele>
        <time>2020-07-11T13:05:00Z</time>
      </trkpt>
      <trkpt lat="38.3967504278" lon="-6.4021395519">
        <ele>539.92</ele>
        <time>2020-07-11T13:05:15Z</time>
      </trkpt>
      <trkpt lat="38.3967586420" lon="-6.4021439105">
        <ele>540.40</ele>
        <time>2020-07-11T13:05:32Z</time>
      </trkpt>
      <trkpt lat="38.3967741486" lon="-6.4021364506">
        <ele>541.36</ele>
        <time>2020-07-11T13:05:52Z</time>
      </trkpt>
      <trkpt lat="38.3967780881" lon="-6.4021393843">
        <ele>539.44</ele>
        <time>2020-07-11T13:06:09Z</time>
      </trkpt>
      <trkpt lat="38.3967733942" lon="-6.4021475986">
        <ele>537.99</ele>
        <time>2020-07-11T13:06:27Z</time>
      </trkpt>
      <trkpt lat="38.3967663534" lon="-6.4021407254">
        <ele>537.99</ele>
        <time>2020-07-11T13:06:43Z</time>
      </trkpt>
      <trkpt lat="38.3967412915" lon="-6.4021238778">
        <ele>537.51</ele>
        <time>2020-07-11T13:07:06Z</time>
      </trkpt>
      <trkpt lat="38.3967431355" lon="-6.4021356963">
        <ele>538.96</ele>
        <time>2020-07-11T13:07:33Z</time>
      </trkpt>
      <trkpt lat="38.3967450634" lon="-6.4021439943">
        <ele>537.51</ele>
        <time>2020-07-11T13:07:51Z</time>
      </trkpt>
      <trkpt lat="38.3967513498" lon="-6.4021384623">
        <ele>537.03</ele>
        <time>2020-07-11T13:08:05Z</time>
      </trkpt>
      <trkpt lat="38.3967552893" lon="-6.4021227881">
        <ele>539.44</ele>
        <time>2020-07-11T13:08:17Z</time>
      </trkpt>
      <trkpt lat="38.3967636712" lon="-6.4021213632">
        <ele>539.44</ele>
        <time>2020-07-11T13:08:26Z</time>
      </trkpt>
      <trkpt lat="38.3967676945" lon="-6.4021137357">
        <ele>537.51</ele>
        <time>2020-07-11T13:08:40Z</time>
      </trkpt>
      <trkpt lat="38.3967625815" lon="-6.4021364506">
        <ele>536.55</ele>
        <time>2020-07-11T13:09:01Z</time>
      </trkpt>
      <trkpt lat="38.3967526909" lon="-6.4021477662">
        <ele>537.03</ele>
        <time>2020-07-11T13:09:15Z</time>
      </trkpt>
      <trkpt lat="38.3967417106" lon="-6.4021546394">
        <ele>535.59</ele>
        <time>2020-07-11T13:09:29Z</time>
      </trkpt>
      <trkpt lat="38.3967463206" lon="-6.4021417312">
        <ele>535.59</ele>
        <time>2020-07-11T13:09:46Z</time>
      </trkpt>
      <trkpt lat="38.3967579715" lon="-6.4021331817">
        <ele>538.48</ele>
        <time>2020-07-11T13:10:05Z</time>
      </trkpt>
      <trkpt lat="38.3967608213" lon="-6.4021432400">
        <ele>537.51</ele>
        <time>2020-07-11T13:10:17Z</time>
      </trkpt>
      <trkpt lat="38.3967649285" lon="-6.4021380432">
        <ele>537.51</ele>
        <time>2020-07-11T13:10:30Z</time>
      </trkpt>
      <trkpt lat="38.3967718855" lon="-6.4021206927">
        <ele>538.96</ele>
        <time>2020-07-11T13:10:44Z</time>
      </trkpt>
      <trkpt lat="38.3967714664" lon="-6.4021328464">
        <ele>537.99</ele>
        <time>2020-07-11T13:10:56Z</time>
      </trkpt>
      <trkpt lat="38.3967702929" lon="-6.4021398872">
        <ele>537.99</ele>
        <time>2020-07-11T13:11:08Z</time>
      </trkpt>
      <trkpt lat="38.3967613243" lon="-6.4021284040">
        <ele>537.99</ele>
        <time>2020-07-11T13:11:22Z</time>
      </trkpt>
      <trkpt lat="38.3967647608" lon="-6.4021119755">
        <ele>540.40</ele>
        <time>2020-07-11T13:11:35Z</time>
      </trkpt>
      <trkpt lat="38.3967451472" lon="-6.4021300804">
        <ele>540.88</ele>
        <time>2020-07-11T13:11:54Z</time>
      </trkpt>
      <trkpt lat="38.3967182413" lon="-6.4021273144">
        <ele>538.96</ele>
        <time>2020-07-11T13:12:09Z</time>
      </trkpt>
      <trkpt lat="38.3967225160" lon="-6.4021157473">
        <ele>539.92</ele>
        <time>2020-07-11T13:12:22Z</time>
      </trkpt>
      <trkpt lat="38.3967233542" lon="-6.4021097124">
        <ele>543.76</ele>
        <time>2020-07-11T13:12:41Z</time>
      </trkpt>
      <trkpt lat="38.3967312332" lon="-6.4021119755">
        <ele>544.72</ele>
        <time>2020-07-11T13:12:54Z</time>
      </trkpt>
      <trkpt lat="38.3967382740" lon="-6.4021178428">
        <ele>543.76</ele>
        <time>2020-07-11T13:13:05Z</time>
      </trkpt>
      <trkpt lat="38.3967279643" lon="-6.4021402225">
        <ele>543.28</ele>
        <time>2020-07-11T13:13:22Z</time>
      </trkpt>
      <trkpt lat="38.3967409562" lon="-6.4021214470">
        <ele>544.72</ele>
        <time>2020-07-11T13:13:38Z</time>
      </trkpt>
      <trkpt lat="38.3967425488" lon="-6.4021243807">
        <ele>542.80</ele>
        <time>2020-07-11T13:13:52Z</time>
      </trkpt>
      <trkpt lat="38.3967461530" lon="-6.4021253027">
        <ele>540.88</ele>
        <time>2020-07-11T13:14:02Z</time>
      </trkpt>
      <trkpt lat="38.3967411239" lon="-6.4021144062">
        <ele>538.96</ele>
        <time>2020-07-11T13:14:15Z</time>
      </trkpt>
      <trkpt lat="38.3967288025" lon="-6.4021264762">
        <ele>538.96</ele>
        <time>2020-07-11T13:14:27Z</time>
      </trkpt>
      <trkpt lat="38.3967241086" lon="-6.4021261409">
        <ele>538.48</ele>
        <time>2020-07-11T13:14:39Z</time>
      </trkpt>
      <trkpt lat="38.3967081830" lon="-6.4021336008">
        <ele>537.51</ele>
        <time>2020-07-11T13:14:45Z</time>
      </trkpt>
      <trkpt lat="38.3967511822" lon="-6.4020487759">
        <ele>535.59</ele>
        <time>2020-07-11T13:14:52Z</time>
      </trkpt>
      <trkpt lat="38.3967770822" lon="-6.4018649608">
        <ele>534.63</ele>
        <time>2020-07-11T13:15:00Z</time>
      </trkpt>
      <trkpt lat="38.3968275413" lon="-6.4017304312">
        <ele>534.63</ele>
        <time>2020-07-11T13:15:08Z</time>
      </trkpt>
      <trkpt lat="38.3969002124" lon="-6.4017279167">
        <ele>535.11</ele>
        <time>2020-07-11T13:15:14Z</time>
      </trkpt>
      <trkpt lat="38.3969984483" lon="-6.4017314371">
        <ele>535.59</ele>
        <time>2020-07-11T13:15:23Z</time>
      </trkpt>
      <trkpt lat="38.3970556129" lon="-6.4017609414">
        <ele>536.55</ele>
        <time>2020-07-11T13:15:31Z</time>
      </trkpt>
      <trkpt lat="38.3971002884" lon="-6.4017546549">
        <ele>537.51</ele>
        <time>2020-07-11T13:15:34Z</time>
      </trkpt>
      <trkpt lat="38.3972226642" lon="-6.4017707482">
        <ele>540.40</ele>
        <time>2020-07-11T13:15:40Z</time>
      </trkpt>
      <trkpt lat="38.3974843472" lon="-6.4017556608">
        <ele>542.32</ele>
        <time>2020-07-11T13:15:49Z</time>
      </trkpt>
      <trkpt lat="38.3977450244" lon="-6.4017735142">
        <ele>542.32</ele>
        <time>2020-07-11T13:15:59Z</time>
      </trkpt>
      <trkpt lat="38.3979735989" lon="-6.4018334448">
        <ele>541.36</ele>
        <time>2020-07-11T13:16:09Z</time>
      </trkpt>
      <trkpt lat="38.3981330227" lon="-6.4018199500">
        <ele>539.44</ele>
        <time>2020-07-11T13:16:16Z</time>
      </trkpt>
      <trkpt lat="38.3982833102" lon="-6.4018017612">
        <ele>538.96</ele>
        <time>2020-07-11T13:16:23Z</time>
      </trkpt>
      <trkpt lat="38.3983802050" lon="-6.4018067904">
        <ele>538.96</ele>
        <time>2020-07-11T13:16:29Z</time>
      </trkpt>
      <trkpt lat="38.3986160718" lon="-6.4018987399">
        <ele>534.63</ele>
        <time>2020-07-11T13:16:36Z</time>
      </trkpt>
      <trkpt lat="38.3990043215" lon="-6.4020612650">
        <ele>532.23</ele>
        <time>2020-07-11T13:16:45Z</time>
      </trkpt>
      <trkpt lat="38.3993481472" lon="-6.4022009075">
        <ele>532.71</ele>
        <time>2020-07-11T13:16:53Z</time>
      </trkpt>
      <trkpt lat="38.3996478003" lon="-6.4023686294">
        <ele>531.75</ele>
        <time>2020-07-11T13:17:01Z</time>
      </trkpt>
      <trkpt lat="38.4000565019" lon="-6.4025908336">
        <ele>527.42</ele>
        <time>2020-07-11T13:17:11Z</time>
      </trkpt>
      <trkpt lat="38.4005162492" lon="-6.4029012155">
        <ele>525.98</ele>
        <time>2020-07-11T13:17:23Z</time>
      </trkpt>
      <trkpt lat="38.4009281360" lon="-6.4032548480">
        <ele>525.50</ele>
        <time>2020-07-11T13:17:35Z</time>
      </trkpt>
      <trkpt lat="38.4012564551" lon="-6.4035331272">
        <ele>524.54</ele>
        <time>2020-07-11T13:17:44Z</time>
      </trkpt>
      <trkpt lat="38.4016684256" lon="-6.4038696606">
        <ele>524.54</ele>
        <time>2020-07-11T13:17:55Z</time>
      </trkpt>
      <trkpt lat="38.4020157717" lon="-6.4041079581">
        <ele>524.54</ele>
        <time>2020-07-11T13:18:04Z</time>
      </trkpt>
      <trkpt lat="38.4024551511" lon="-6.4044064377">
        <ele>523.09</ele>
        <time>2020-07-11T13:18:13Z</time>
      </trkpt>
      <trkpt lat="38.4029747453" lon="-6.4047580585">
        <ele>521.17</ele>
        <time>2020-07-11T13:18:22Z</time>
      </trkpt>
      <trkpt lat="38.4035954252" lon="-6.4051852003">
        <ele>518.77</ele>
        <time>2020-07-11T13:18:32Z</time>
      </trkpt>
      <trkpt lat="38.4041880257" lon="-6.4055923931">
        <ele>516.37</ele>
        <time>2020-07-11T13:18:41Z</time>
      </trkpt>
      <trkpt lat="38.4049136471" lon="-6.4060032740">
        <ele>514.92</ele>
        <time>2020-07-11T13:18:51Z</time>
      </trkpt>
      <trkpt lat="38.4055284597" lon="-6.4062137436">
        <ele>514.92</ele>
        <time>2020-07-11T13:19:00Z</time>
      </trkpt>
      <trkpt lat="38.4060474671" lon="-6.4063418191">
        <ele>515.88</ele>
        <time>2020-07-11T13:19:09Z</time>
      </trkpt>
      <trkpt lat="38.4065260738" lon="-6.4064650331">
        <ele>516.85</ele>
        <time>2020-07-11T13:19:18Z</time>
      </trkpt>
      <trkpt lat="38.4070726577" lon="-6.4066225290">
        <ele>517.81</ele>
        <time>2020-07-11T13:19:29Z</time>
      </trkpt>
      <trkpt lat="38.4075900726" lon="-6.4068293944">
        <ele>517.81</ele>
        <time>2020-07-11T13:19:40Z</time>
      </trkpt>
      <trkpt lat="38.4078154620" lon="-6.4069172367">
        <ele>518.29</ele>
        <time>2020-07-11T13:19:46Z</time>
      </trkpt>
      <trkpt lat="38.4078447986" lon="-6.4069296420">
        <ele>518.29</ele>
        <time>2020-07-11T13:19:48Z</time>
      </trkpt>
      <trkpt lat="38.4078499116" lon="-6.4069483336">
        <ele>518.29</ele>
        <time>2020-07-11T13:19:49Z</time>
      </trkpt>
      <trkpt lat="38.4078401048" lon="-6.4069713838">
        <ele>518.29</ele>
        <time>2020-07-11T13:19:50Z</time>
      </trkpt>
      <trkpt lat="38.4078232571" lon="-6.4069808554">
        <ele>518.29</ele>
        <time>2020-07-11T13:19:51Z</time>
      </trkpt>
      <trkpt lat="38.4077914059" lon="-6.4069832023">
        <ele>518.29</ele>
        <time>2020-07-11T13:19:52Z</time>
      </trkpt>
      <trkpt lat="38.4077629913" lon="-6.4069736470">
        <ele>518.29</ele>
        <time>2020-07-11T13:19:53Z</time>
      </trkpt>
      <trkpt lat="38.4077420365" lon="-6.4069661032">
        <ele>518.29</ele>
        <time>2020-07-11T13:19:54Z</time>
      </trkpt>
      <trkpt lat="38.4077121131" lon="-6.4069651812">
        <ele>518.29</ele>
        <time>2020-07-11T13:19:55Z</time>
      </trkpt>
      <trkpt lat="38.4076902363" lon="-6.4069897402">
        <ele>518.29</ele>
        <time>2020-07-11T13:19:56Z</time>
      </trkpt>
      <trkpt lat="38.4076904040" lon="-6.4070209209">
        <ele>517.81</ele>
        <time>2020-07-11T13:19:57Z</time>
      </trkpt>
      <trkpt lat="38.4077116102" lon="-6.4070572983">
        <ele>517.81</ele>
        <time>2020-07-11T13:19:58Z</time>
      </trkpt>
      <trkpt lat="38.4077442158" lon="-6.4070836175">
        <ele>517.81</ele>
        <time>2020-07-11T13:19:59Z</time>
      </trkpt>
      <trkpt lat="38.4077731334" lon="-6.4071005490">
        <ele>517.81</ele>
        <time>2020-07-11T13:20:00Z</time>
      </trkpt>
      <trkpt lat="38.4078130312" lon="-6.4071238507">
        <ele>517.81</ele>
        <time>2020-07-11T13:20:01Z</time>
      </trkpt>
      <trkpt lat="38.4080232494" lon="-6.4072613139">
        <ele>517.81</ele>
        <time>2020-07-11T13:20:06Z</time>
      </trkpt>
      <trkpt lat="38.4083645605" lon="-6.4076205622">
        <ele>516.85</ele>
        <time>2020-07-11T13:20:14Z</time>
      </trkpt>
      <trkpt lat="38.4085653909" lon="-6.4079239033">
        <ele>515.88</ele>
        <time>2020-07-11T13:20:19Z</time>
      </trkpt>
      <trkpt lat="38.4085930511" lon="-6.4079964906">
        <ele>515.88</ele>
        <time>2020-07-11T13:20:20Z</time>
      </trkpt>
      <trkpt lat="38.4086151794" lon="-6.4080803096">
        <ele>515.40</ele>
        <time>2020-07-11T13:20:21Z</time>
      </trkpt>
      <trkpt lat="38.4086311050" lon="-6.4081694093">
        <ele>514.92</ele>
        <time>2020-07-11T13:20:22Z</time>
      </trkpt>
      <trkpt lat="38.4086407442" lon="-6.4082629513">
        <ele>514.44</ele>
        <time>2020-07-11T13:20:23Z</time>
      </trkpt>
      <trkpt lat="38.4086495452" lon="-6.4083532244">
        <ele>514.44</ele>
        <time>2020-07-11T13:20:24Z</time>
      </trkpt>
      <trkpt lat="38.4086885210" lon="-6.4086471777">
        <ele>513.00</ele>
        <time>2020-07-11T13:20:27Z</time>
      </trkpt>
      <trkpt lat="38.4087171871" lon="-6.4087506942">
        <ele>513.00</ele>
        <time>2020-07-11T13:20:28Z</time>
      </trkpt>
      <trkpt lat="38.4087553248" lon="-6.4088328369">
        <ele>512.52</ele>
        <time>2020-07-11T13:20:29Z</time>
      </trkpt>
      <trkpt lat="38.4087991621" lon="-6.4088974614">
        <ele>511.56</ele>
        <time>2020-07-11T13:20:30Z</time>
      </trkpt>
      <trkpt lat="38.4088613559" lon="-6.4089703001">
        <ele>511.08</ele>
        <time>2020-07-11T13:20:31Z</time>
      </trkpt>
      <trkpt lat="38.4089259803" lon="-6.4090329129">
        <ele>510.60</ele>
        <time>2020-07-11T13:20:32Z</time>
      </trkpt>
      <trkpt lat="38.4089973941" lon="-6.4090968668">
        <ele>509.64</ele>
        <time>2020-07-11T13:20:33Z</time>
      </trkpt>
      <trkpt lat="38.4094882384" lon="-6.4095298760">
        <ele>508.19</ele>
        <time>2020-07-11T13:20:40Z</time>
      </trkpt>
      <trkpt lat="38.4099069145" lon="-6.4099006914">
        <ele>507.71</ele>
        <time>2020-07-11T13:20:47Z</time>
      </trkpt>
      <trkpt lat="38.4099696111" lon="-6.4099366497">
        <ele>508.19</ele>
        <time>2020-07-11T13:20:48Z</time>
      </trkpt>
      <trkpt lat="38.4100297932" lon="-6.4099612925">
        <ele>508.19</ele>
        <time>2020-07-11T13:20:49Z</time>
      </trkpt>
      <trkpt lat="38.4100882988" lon="-6.4099757094">
        <ele>508.19</ele>
        <time>2020-07-11T13:20:50Z</time>
      </trkpt>
      <trkpt lat="38.4101486485" lon="-6.4099850133">
        <ele>508.67</ele>
        <time>2020-07-11T13:20:51Z</time>
      </trkpt>
      <trkpt lat="38.4102007840" lon="-6.4099912997">
        <ele>508.67</ele>
        <time>2020-07-11T13:20:52Z</time>
      </trkpt>
      <trkpt lat="38.4105187096" lon="-6.4099646453">
        <ele>511.08</ele>
        <time>2020-07-11T13:20:59Z</time>
      </trkpt>
      <trkpt lat="38.4108841605" lon="-6.4098366536">
        <ele>513.00</ele>
        <time>2020-07-11T13:21:08Z</time>
      </trkpt>
      <trkpt lat="38.4111553151" lon="-6.4097882900">
        <ele>513.96</ele>
        <time>2020-07-11T13:21:16Z</time>
      </trkpt>
      <trkpt lat="38.4114864841" lon="-6.4097939059">
        <ele>515.40</ele>
        <time>2020-07-11T13:21:26Z</time>
      </trkpt>
      <trkpt lat="38.4117867239" lon="-6.4098561835">
        <ele>515.88</ele>
        <time>2020-07-11T13:21:35Z</time>
      </trkpt>
      <trkpt lat="38.4121104330" lon="-6.4099774696">
        <ele>516.85</ele>
        <time>2020-07-11T13:21:45Z</time>
      </trkpt>
      <trkpt lat="38.4123633988" lon="-6.4101145975">
        <ele>516.37</ele>
        <time>2020-07-11T13:21:53Z</time>
      </trkpt>
      <trkpt lat="38.4126666561" lon="-6.4103124104">
        <ele>515.88</ele>
        <time>2020-07-11T13:22:02Z</time>
      </trkpt>
      <trkpt lat="38.4129516408" lon="-6.4104989916">
        <ele>515.40</ele>
        <time>2020-07-11T13:22:11Z</time>
      </trkpt>
      <trkpt lat="38.4131849930" lon="-6.4106251393">
        <ele>515.88</ele>
        <time>2020-07-11T13:22:19Z</time>
      </trkpt>
      <trkpt lat="38.4133670479" lon="-6.4106706530">
        <ele>516.37</ele>
        <time>2020-07-11T13:22:26Z</time>
      </trkpt>
      <trkpt lat="38.4134893399" lon="-6.4107574895">
        <ele>516.37</ele>
        <time>2020-07-11T13:22:32Z</time>
      </trkpt>
      <trkpt lat="38.4134864900" lon="-6.4107664581">
        <ele>515.88</ele>
        <time>2020-07-11T13:22:38Z</time>
      </trkpt>
      <trkpt lat="38.4134971350" lon="-6.4108402189">
        <ele>519.73</ele>
        <time>2020-07-11T13:23:00Z</time>
      </trkpt>
      <trkpt lat="38.4134713188" lon="-6.4108689688">
        <ele>522.13</ele>
        <time>2020-07-11T13:23:19Z</time>
      </trkpt>
      <trkpt lat="38.4134619310" lon="-6.4108598325">
        <ele>525.02</ele>
        <time>2020-07-11T13:23:39Z</time>
      </trkpt>
      <trkpt lat="38.4134584945" lon="-6.4108667895">
        <ele>525.98</ele>
        <time>2020-07-11T13:23:52Z</time>
      </trkpt>
      <trkpt lat="38.4134687204" lon="-6.4108770154">
        <ele>526.46</ele>
        <time>2020-07-11T13:23:53Z</time>
      </trkpt>
      <trkpt lat="38.4135450795" lon="-6.4109377842">
        <ele>526.94</ele>
        <time>2020-07-11T13:23:59Z</time>
      </trkpt>
      <trkpt lat="38.4137191717" lon="-6.4110371098">
        <ele>526.46</ele>
        <time>2020-07-11T13:24:07Z</time>
      </trkpt>
      <trkpt lat="38.4139496740" lon="-6.4111911692">
        <ele>526.94</ele>
        <time>2020-07-11T13:24:16Z</time>
      </trkpt>
      <trkpt lat="38.4143171366" lon="-6.4113899879">
        <ele>524.06</ele>
        <time>2020-07-11T13:24:27Z</time>
      </trkpt>
      <trkpt lat="38.4147009440" lon="-6.4115210809">
        <ele>522.61</ele>
        <time>2020-07-11T13:24:37Z</time>
      </trkpt>
      <trkpt lat="38.4151092265" lon="-6.4116150420">
        <ele>523.58</ele>
        <time>2020-07-11T13:24:47Z</time>
      </trkpt>
      <trkpt lat="38.4151888546" lon="-6.4116318058">
        <ele>523.58</ele>
        <time>2020-07-11T13:24:49Z</time>
      </trkpt>
      <trkpt lat="38.4153448418" lon="-6.4116996992">
        <ele>523.58</ele>
        <time>2020-07-11T13:24:53Z</time>
      </trkpt>
      <trkpt lat="38.4153850749" lon="-6.4117068239">
        <ele>523.58</ele>
        <time>2020-07-11T13:24:54Z</time>
      </trkpt>
      <trkpt lat="38.4157026652" lon="-6.4117552713">
        <ele>523.09</ele>
        <time>2020-07-11T13:25:02Z</time>
      </trkpt>
      <trkpt lat="38.4157424793" lon="-6.4117662515">
        <ele>523.09</ele>
        <time>2020-07-11T13:25:03Z</time>
      </trkpt>
      <trkpt lat="38.4157825448" lon="-6.4117778186">
        <ele>523.58</ele>
        <time>2020-07-11T13:25:04Z</time>
      </trkpt>
      <trkpt lat="38.4162603132" lon="-6.4119654894">
        <ele>525.50</ele>
        <time>2020-07-11T13:25:16Z</time>
      </trkpt>
      <trkpt lat="38.4166156221" lon="-6.4121292718">
        <ele>526.94</ele>
        <time>2020-07-11T13:25:25Z</time>
      </trkpt>
      <trkpt lat="38.4169410914" lon="-6.4122810680">
        <ele>528.86</ele>
        <time>2020-07-11T13:25:34Z</time>
      </trkpt>
      <trkpt lat="38.4172706679" lon="-6.4124557469">
        <ele>529.34</ele>
        <time>2020-07-11T13:25:43Z</time>
      </trkpt>
      <trkpt lat="38.4175379667" lon="-6.4126006700">
        <ele>528.38</ele>
        <time>2020-07-11T13:25:50Z</time>
      </trkpt>
      <trkpt lat="38.4178710636" lon="-6.4127682243">
        <ele>529.82</ele>
        <time>2020-07-11T13:25:59Z</time>
      </trkpt>
      <trkpt lat="38.4181300644" lon="-6.4128954615">
        <ele>527.42</ele>
        <time>2020-07-11T13:26:06Z</time>
      </trkpt>
      <trkpt lat="38.4184575453" lon="-6.4130846411">
        <ele>526.94</ele>
        <time>2020-07-11T13:26:14Z</time>
      </trkpt>
      <trkpt lat="38.4185769036" lon="-6.4131483436">
        <ele>526.94</ele>
        <time>2020-07-11T13:26:17Z</time>
      </trkpt>
      <trkpt lat="38.4190441109" lon="-6.4132725634">
        <ele>525.50</ele>
        <time>2020-07-11T13:26:27Z</time>
      </trkpt>
      <trkpt lat="38.4193958994" lon="-6.4133734815">
        <ele>526.46</ele>
        <time>2020-07-11T13:26:36Z</time>
      </trkpt>
      <trkpt lat="38.4195279982" lon="-6.4132930152">
        <ele>527.42</ele>
        <time>2020-07-11T13:26:40Z</time>
      </trkpt>
      <trkpt lat="38.4197595902" lon="-6.4129482675">
        <ele>527.42</ele>
        <time>2020-07-11T13:26:49Z</time>
      </trkpt>
      <trkpt lat="38.4198920242" lon="-6.4128941204">
        <ele>528.38</ele>
        <time>2020-07-11T13:26:55Z</time>
      </trkpt>
      <trkpt lat="38.4200873226" lon="-6.4130786899">
        <ele>529.82</ele>
        <time>2020-07-11T13:27:02Z</time>
      </trkpt>
      <trkpt lat="38.4203582257" lon="-6.4134092722">
        <ele>531.27</ele>
        <time>2020-07-11T13:27:12Z</time>
      </trkpt>
      <trkpt lat="38.4206153825" lon="-6.4136971906">
        <ele>531.75</ele>
        <time>2020-07-11T13:27:21Z</time>
      </trkpt>
      <trkpt lat="38.4208708629" lon="-6.4139644895">
        <ele>530.79</ele>
        <time>2020-07-11T13:27:30Z</time>
      </trkpt>
      <trkpt lat="38.4209490661" lon="-6.4140378311">
        <ele>530.79</ele>
        <time>2020-07-11T13:27:35Z</time>
      </trkpt>
      <trkpt lat="38.4209317155" lon="-6.4140575286">
        <ele>531.75</ele>
        <time>2020-07-11T13:27:46Z</time>
      </trkpt>
      <trkpt lat="38.4209322184" lon="-6.4140839316">
        <ele>534.63</ele>
        <time>2020-07-11T13:27:56Z</time>
      </trkpt>
      <trkpt lat="38.4209162090" lon="-6.4141050540">
        <ele>538.48</ele>
        <time>2020-07-11T13:28:10Z</time>
      </trkpt>
      <trkpt lat="38.4209060669" lon="-6.4140959177">
        <ele>539.92</ele>
        <time>2020-07-11T13:28:26Z</time>
      </trkpt>
      <trkpt lat="38.4209001996" lon="-6.4140872844">
        <ele>539.92</ele>
        <time>2020-07-11T13:28:38Z</time>
      </trkpt>
      <trkpt lat="38.4209298715" lon="-6.4141276851">
        <ele>539.44</ele>
        <time>2020-07-11T13:28:50Z</time>
      </trkpt>
      <trkpt lat="38.4211390838" lon="-6.4142895397">
        <ele>536.07</ele>
        <time>2020-07-11T13:28:58Z</time>
      </trkpt>
      <trkpt lat="38.4213831648" lon="-6.4145537373">
        <ele>534.15</ele>
        <time>2020-07-11T13:29:07Z</time>
      </trkpt>
      <trkpt lat="38.4214720130" lon="-6.4146543201">
        <ele>533.19</ele>
        <time>2020-07-11T13:29:10Z</time>
      </trkpt>
      <trkpt lat="38.4218000807" lon="-6.4150849823">
        <ele>531.27</ele>
        <time>2020-07-11T13:29:21Z</time>
      </trkpt>
      <trkpt lat="38.4219450038" lon="-6.4152416401">
        <ele>529.34</ele>
        <time>2020-07-11T13:29:26Z</time>
      </trkpt>
      <trkpt lat="38.4219788667" lon="-6.4153217711">
        <ele>528.86</ele>
        <time>2020-07-11T13:29:27Z</time>
      </trkpt>
      <trkpt lat="38.4219858237" lon="-6.4153965376">
        <ele>528.38</ele>
        <time>2020-07-11T13:29:28Z</time>
      </trkpt>
      <trkpt lat="38.4219794534" lon="-6.4154370222">
        <ele>527.90</ele>
        <time>2020-07-11T13:29:29Z</time>
      </trkpt>
      <trkpt lat="38.4219643660" lon="-6.4154884033">
        <ele>527.42</ele>
        <time>2020-07-11T13:29:30Z</time>
      </trkpt>
      <trkpt lat="38.4219507035" lon="-6.4155293908">
        <ele>526.94</ele>
        <time>2020-07-11T13:29:31Z</time>
      </trkpt>
      <trkpt lat="38.4219636116" lon="-6.4156999625">
        <ele>525.02</ele>
        <time>2020-07-11T13:29:35Z</time>
      </trkpt>
      <trkpt lat="38.4220982250" lon="-6.4160193130">
        <ele>521.65</ele>
        <time>2020-07-11T13:29:44Z</time>
      </trkpt>
      <trkpt lat="38.4222273901" lon="-6.4161851909">
        <ele>522.61</ele>
        <time>2020-07-11T13:29:49Z</time>
      </trkpt>
      <trkpt lat="38.4225108661" lon="-6.4163362328">
        <ele>525.98</ele>
        <time>2020-07-11T13:29:58Z</time>
      </trkpt>
      <trkpt lat="38.4227969404" lon="-6.4164428506">
        <ele>527.90</ele>
        <time>2020-07-11T13:30:07Z</time>
      </trkpt>
      <trkpt lat="38.4231253434" lon="-6.4165633824">
        <ele>528.86</ele>
        <time>2020-07-11T13:30:17Z</time>
      </trkpt>
      <trkpt lat="38.4232908022" lon="-6.4164757077">
        <ele>527.42</ele>
        <time>2020-07-11T13:30:24Z</time>
      </trkpt>
      <trkpt lat="38.4233294427" lon="-6.4164462872">
        <ele>526.94</ele>
        <time>2020-07-11T13:30:27Z</time>
      </trkpt>
      <trkpt lat="38.4233416803" lon="-6.4164462034">
        <ele>526.46</ele>
        <time>2020-07-11T13:30:28Z</time>
      </trkpt>
      <trkpt lat="38.4233555105" lon="-6.4164523222">
        <ele>526.46</ele>
        <time>2020-07-11T13:30:29Z</time>
      </trkpt>
      <trkpt lat="38.4234537464" lon="-6.4165934734">
        <ele>523.58</ele>
        <time>2020-07-11T13:30:36Z</time>
      </trkpt>
      <trkpt lat="38.4234745335" lon="-6.4168172702">
        <ele>521.65</ele>
        <time>2020-07-11T13:30:44Z</time>
      </trkpt>
      <trkpt lat="38.4234443586" lon="-6.4168980718">
        <ele>521.65</ele>
        <time>2020-07-11T13:30:50Z</time>
      </trkpt>
      <trkpt lat="38.4234357253" lon="-6.4169195294">
        <ele>521.65</ele>
        <time>2020-07-11T13:31:04Z</time>
      </trkpt>
      <trkpt lat="38.4234094061" lon="-6.4169253968">
        <ele>521.65</ele>
        <time>2020-07-11T13:31:24Z</time>
      </trkpt>
      <trkpt lat="38.4233905468" lon="-6.4169318508">
        <ele>522.13</ele>
        <time>2020-07-11T13:31:49Z</time>
      </trkpt>
      <trkpt lat="38.4233782254" lon="-6.4169339463">
        <ele>523.58</ele>
        <time>2020-07-11T13:31:58Z</time>
      </trkpt>
      <trkpt lat="38.4233934805" lon="-6.4172307495">
        <ele>481.76</ele>
        <time>2020-07-11T14:02:56Z</time>
      </trkpt>
      <trkpt lat="38.4236450214" lon="-6.4171072841">
        <ele>492.81</ele>
        <time>2020-07-11T14:03:11Z</time>
      </trkpt>
      <trkpt lat="38.4236788005" lon="-6.4170790371">
        <ele>504.83</ele>
        <time>2020-07-11T14:03:29Z</time>
      </trkpt>
      <trkpt lat="38.4236889426" lon="-6.4170693140">
        <ele>511.08</ele>
        <time>2020-07-11T14:03:46Z</time>
      </trkpt>
      <trkpt lat="38.4236119129" lon="-6.4169925358">
        <ele>537.99</ele>
        <time>2020-07-12T04:51:53Z</time>
      </trkpt>
      <trkpt lat="38.4233448654" lon="-6.4168955572">
        <ele>534.63</ele>
        <time>2020-07-12T04:52:05Z</time>
      </trkpt>
      <trkpt lat="38.4233502299" lon="-6.4169136621">
        <ele>533.19</ele>
        <time>2020-07-12T04:52:14Z</time>
      </trkpt>
      <trkpt lat="38.4233965818" lon="-6.4169445913">
        <ele>525.50</ele>
        <time>2020-07-12T04:52:27Z</time>
      </trkpt>
      <trkpt lat="38.4234082326" lon="-6.4169286657">
        <ele>522.13</ele>
        <time>2020-07-12T04:53:00Z</time>
      </trkpt>
      <trkpt lat="38.4234061372" lon="-6.4169287495">
        <ele>521.65</ele>
        <time>2020-07-12T04:53:13Z</time>
      </trkpt>
      <trkpt lat="38.4233820811" lon="-6.4168855827">
        <ele>528.38</ele>
        <time>2020-07-12T04:53:35Z</time>
      </trkpt>
      <trkpt lat="38.4233920556" lon="-6.4168910310">
        <ele>524.54</ele>
        <time>2020-07-12T04:53:52Z</time>
      </trkpt>
      <trkpt lat="38.4233947378" lon="-6.4169178531">
        <ele>523.58</ele>
        <time>2020-07-12T04:53:56Z</time>
      </trkpt>
      <trkpt lat="38.4233921394" lon="-6.4170339424">
        <ele>522.13</ele>
        <time>2020-07-12T04:54:03Z</time>
      </trkpt>
      <trkpt lat="38.4233883675" lon="-6.4172235411">
        <ele>515.88</ele>
        <time>2020-07-12T04:54:11Z</time>
      </trkpt>
      <trkpt lat="38.4233255032" lon="-6.4172434900">
        <ele>516.37</ele>
        <time>2020-07-12T04:54:16Z</time>
      </trkpt>
      <trkpt lat="38.4233437758" lon="-6.4171451703">
        <ele>517.33</ele>
        <time>2020-07-12T04:54:20Z</time>
      </trkpt>
      <trkpt lat="38.4234116692" lon="-6.4168605208">
        <ele>519.25</ele>
        <time>2020-07-12T04:54:29Z</time>
      </trkpt>
      <trkpt lat="38.4235140961" lon="-6.4164156932">
        <ele>520.21</ele>
        <time>2020-07-12T04:54:41Z</time>
      </trkpt>
      <trkpt lat="38.4236617852" lon="-6.4160870388">
        <ele>522.13</ele>
        <time>2020-07-12T04:54:51Z</time>
      </trkpt>
      <trkpt lat="38.4238004219" lon="-6.4160556067">
        <ele>522.61</ele>
        <time>2020-07-12T04:54:56Z</time>
      </trkpt>
      <trkpt lat="38.4240105562" lon="-6.4160703588">
        <ele>524.06</ele>
        <time>2020-07-12T04:55:04Z</time>
      </trkpt>
      <trkpt lat="38.4243086167" lon="-6.4161257632">
        <ele>524.54</ele>
        <time>2020-07-12T04:55:14Z</time>
      </trkpt>
      <trkpt lat="38.4246563818" lon="-6.4162513241">
        <ele>523.09</ele>
        <time>2020-07-12T04:55:24Z</time>
      </trkpt>
      <trkpt lat="38.4251029696" lon="-6.4164125919">
        <ele>522.13</ele>
        <time>2020-07-12T04:55:35Z</time>
      </trkpt>
      <trkpt lat="38.4255120903" lon="-6.4165603649">
        <ele>523.09</ele>
        <time>2020-07-12T04:55:45Z</time>
      </trkpt>
      <trkpt lat="38.4257921297" lon="-6.4166870154">
        <ele>529.82</ele>
        <time>2020-07-12T04:55:53Z</time>
      </trkpt>
      <trkpt lat="38.4260641225" lon="-6.4168057870">
        <ele>534.15</ele>
        <time>2020-07-12T04:56:01Z</time>
      </trkpt>
      <trkpt lat="38.4263814613" lon="-6.4169676416">
        <ele>536.55</ele>
        <time>2020-07-12T04:56:10Z</time>
      </trkpt>
      <trkpt lat="38.4268412925" lon="-6.4173131436">
        <ele>541.84</ele>
        <time>2020-07-12T04:56:24Z</time>
      </trkpt>
      <trkpt lat="38.4269486647" lon="-6.4173517004">
        <ele>542.32</ele>
        <time>2020-07-12T04:56:27Z</time>
      </trkpt>
      <trkpt lat="38.4269930050" lon="-6.4173306618">
        <ele>542.32</ele>
        <time>2020-07-12T04:56:28Z</time>
      </trkpt>
      <trkpt lat="38.4270392731" lon="-6.4172933623">
        <ele>542.80</ele>
        <time>2020-07-12T04:56:29Z</time>
      </trkpt>
      <trkpt lat="38.4273069911" lon="-6.4170491137">
        <ele>540.40</ele>
        <time>2020-07-12T04:56:37Z</time>
      </trkpt>
      <trkpt lat="38.4276065603" lon="-6.4167941362">
        <ele>538.96</ele>
        <time>2020-07-12T04:56:46Z</time>
      </trkpt>
      <trkpt lat="38.4278612863" lon="-6.4165743627">
        <ele>536.55</ele>
        <time>2020-07-12T04:56:54Z</time>
      </trkpt>
      <trkpt lat="38.4280207939" lon="-6.4165688306">
        <ele>534.63</ele>
        <time>2020-07-12T04:56:59Z</time>
      </trkpt>
      <trkpt lat="38.4281483665" lon="-6.4168003388">
        <ele>533.67</ele>
        <time>2020-07-12T04:57:05Z</time>
      </trkpt>
      <trkpt lat="38.4283467662" lon="-6.4171533007">
        <ele>534.15</ele>
        <time>2020-07-12T04:57:14Z</time>
      </trkpt>
      <trkpt lat="38.4285585769" lon="-6.4173810370">
        <ele>535.59</ele>
        <time>2020-07-12T04:57:22Z</time>
      </trkpt>
      <trkpt lat="38.4288277198" lon="-6.4176421333">
        <ele>536.55</ele>
        <time>2020-07-12T04:57:32Z</time>
      </trkpt>
      <trkpt lat="38.4289491735" lon="-6.4176022355">
        <ele>535.59</ele>
        <time>2020-07-12T04:57:36Z</time>
      </trkpt>
      <trkpt lat="38.4291061666" lon="-6.4173466712">
        <ele>535.59</ele>
        <time>2020-07-12T04:57:45Z</time>
      </trkpt>
      <trkpt lat="38.4292556997" lon="-6.4171462599">
        <ele>536.07</ele>
        <time>2020-07-12T04:57:54Z</time>
      </trkpt>
      <trkpt lat="38.4294605535" lon="-6.4168661367">
        <ele>536.07</ele>
        <time>2020-07-12T04:58:05Z</time>
      </trkpt>
      <trkpt lat="38.4296758845" lon="-6.4165891148">
        <ele>536.55</ele>
        <time>2020-07-12T04:58:16Z</time>
      </trkpt>
      <trkpt lat="38.4298774693" lon="-6.4163747896">
        <ele>535.59</ele>
        <time>2020-07-12T04:58:25Z</time>
      </trkpt>
      <trkpt lat="38.4301435109" lon="-6.4160925709">
        <ele>536.07</ele>
        <time>2020-07-12T04:58:36Z</time>
      </trkpt>
      <trkpt lat="38.4303465206" lon="-6.4158535190">
        <ele>536.07</ele>
        <time>2020-07-12T04:58:46Z</time>
      </trkpt>
      <trkpt lat="38.4303608537" lon="-6.4158354979">
        <ele>536.07</ele>
        <time>2020-07-12T04:58:47Z</time>
      </trkpt>
      <trkpt lat="38.4304044396" lon="-6.4158515912">
        <ele>536.07</ele>
        <time>2020-07-12T04:58:50Z</time>
      </trkpt>
      <trkpt lat="38.4304031823" lon="-6.4158849511">
        <ele>536.07</ele>
        <time>2020-07-12T04:58:51Z</time>
      </trkpt>
      <trkpt lat="38.4304008354" lon="-6.4159101807">
        <ele>536.07</ele>
        <time>2020-07-12T04:58:52Z</time>
      </trkpt>
      <trkpt lat="38.4304162581" lon="-6.4162191376">
        <ele>533.67</ele>
        <time>2020-07-12T04:59:00Z</time>
      </trkpt>
      <trkpt lat="38.4304480255" lon="-6.4166239835">
        <ele>533.67</ele>
        <time>2020-07-12T04:59:09Z</time>
      </trkpt>
      <trkpt lat="38.4304598439" lon="-6.4168987423">
        <ele>532.71</ele>
        <time>2020-07-12T04:59:17Z</time>
      </trkpt>
      <trkpt lat="38.4305091295" lon="-6.4170519635">
        <ele>533.67</ele>
        <time>2020-07-12T04:59:23Z</time>
      </trkpt>
      <trkpt lat="38.4305120632" lon="-6.4170986507">
        <ele>533.67</ele>
        <time>2020-07-12T04:59:26Z</time>
      </trkpt>
      <trkpt lat="38.4304804634" lon="-6.4170229621">
        <ele>533.67</ele>
        <time>2020-07-12T04:59:31Z</time>
      </trkpt>
      <trkpt lat="38.4304863308" lon="-6.4169936255">
        <ele>533.67</ele>
        <time>2020-07-12T04:59:32Z</time>
      </trkpt>
      <trkpt lat="38.4304925334" lon="-6.4169653784">
        <ele>533.67</ele>
        <time>2020-07-12T04:59:33Z</time>
      </trkpt>
      <trkpt lat="38.4305288270" lon="-6.4166714251">
        <ele>534.15</ele>
        <time>2020-07-12T04:59:40Z</time>
      </trkpt>
      <trkpt lat="38.4305104706" lon="-6.4163430221">
        <ele>532.71</ele>
        <time>2020-07-12T04:59:49Z</time>
      </trkpt>
      <trkpt lat="38.4304861631" lon="-6.4159991127">
        <ele>531.75</ele>
        <time>2020-07-12T04:59:57Z</time>
      </trkpt>
      <trkpt lat="38.4304569103" lon="-6.4155742340">
        <ele>531.75</ele>
        <time>2020-07-12T05:00:07Z</time>
      </trkpt>
      <trkpt lat="38.4304014221" lon="-6.4151522890">
        <ele>531.27</ele>
        <time>2020-07-12T05:00:16Z</time>
      </trkpt>
      <trkpt lat="38.4302829858" lon="-6.4148077089">
        <ele>530.30</ele>
        <time>2020-07-12T05:00:23Z</time>
      </trkpt>
      <trkpt lat="38.4302409925" lon="-6.4146575890">
        <ele>530.30</ele>
        <time>2020-07-12T05:00:25Z</time>
      </trkpt>
      <trkpt lat="38.4302415792" lon="-6.4146140032">
        <ele>530.30</ele>
        <time>2020-07-12T05:00:26Z</time>
      </trkpt>
      <trkpt lat="38.4302558284" lon="-6.4145476185">
        <ele>530.79</ele>
        <time>2020-07-12T05:00:27Z</time>
      </trkpt>
      <trkpt lat="38.4302798007" lon="-6.4145086426">
        <ele>530.79</ele>
        <time>2020-07-12T05:00:28Z</time>
      </trkpt>
      <trkpt lat="38.4303119034" lon="-6.4144793898">
        <ele>531.27</ele>
        <time>2020-07-12T05:00:29Z</time>
      </trkpt>
      <trkpt lat="38.4303512983" lon="-6.4144545794">
        <ele>531.27</ele>
        <time>2020-07-12T05:00:30Z</time>
      </trkpt>
      <trkpt lat="38.4303928725" lon="-6.4144315291">
        <ele>531.75</ele>
        <time>2020-07-12T05:00:31Z</time>
      </trkpt>
      <trkpt lat="38.4306120593" lon="-6.4143578522">
        <ele>532.71</ele>
        <time>2020-07-12T05:00:38Z</time>
      </trkpt>
      <trkpt lat="38.4308385383" lon="-6.4141688403">
        <ele>533.19</ele>
        <time>2020-07-12T05:00:47Z</time>
      </trkpt>
      <trkpt lat="38.4307697229" lon="-6.4140207320">
        <ele>533.19</ele>
        <time>2020-07-12T05:00:51Z</time>
      </trkpt>
      <trkpt lat="38.4304940421" lon="-6.4136337396">
        <ele>533.19</ele>
        <time>2020-07-12T05:01:01Z</time>
      </trkpt>
      <trkpt lat="38.4301873483" lon="-6.4132219367">
        <ele>532.23</ele>
        <time>2020-07-12T05:01:13Z</time>
      </trkpt>
      <trkpt lat="38.4300454427" lon="-6.4131470025">
        <ele>532.23</ele>
        <time>2020-07-12T05:01:19Z</time>
      </trkpt>
      <trkpt lat="38.4298816603" lon="-6.4130511973">
        <ele>533.67</ele>
        <time>2020-07-12T05:01:27Z</time>
      </trkpt>
      <trkpt lat="38.4298311174" lon="-6.4130324218">
        <ele>532.71</ele>
        <time>2020-07-12T05:01:33Z</time>
      </trkpt>
      <trkpt lat="38.4298496414" lon="-6.4130480122">
        <ele>533.19</ele>
        <time>2020-07-12T05:01:40Z</time>
      </trkpt>
      <trkpt lat="38.4298571851" lon="-6.4130697213">
        <ele>533.67</ele>
        <time>2020-07-12T05:01:50Z</time>
      </trkpt>
      <trkpt lat="38.4298478812" lon="-6.4130791090">
        <ele>534.15</ele>
        <time>2020-07-12T05:02:04Z</time>
      </trkpt>
      <trkpt lat="38.4298415948" lon="-6.4130706433">
        <ele>534.63</ele>
        <time>2020-07-12T05:02:22Z</time>
      </trkpt>
      <trkpt lat="38.4298477974" lon="-6.4130568132">
        <ele>537.99</ele>
        <time>2020-07-12T05:02:42Z</time>
      </trkpt>
      <trkpt lat="38.4298339672" lon="-6.4130779356">
        <ele>537.03</ele>
        <time>2020-07-12T05:02:57Z</time>
      </trkpt>
      <trkpt lat="38.4298291057" lon="-6.4130901732">
        <ele>539.92</ele>
        <time>2020-07-12T05:03:23Z</time>
      </trkpt>
      <trkpt lat="38.4298404213" lon="-6.4130939450">
        <ele>539.92</ele>
        <time>2020-07-12T05:03:46Z</time>
      </trkpt>
      <trkpt lat="38.4298511501" lon="-6.4130880777">
        <ele>538.96</ele>
        <time>2020-07-12T05:03:59Z</time>
      </trkpt>
      <trkpt lat="38.4298477136" lon="-6.4130858984">
        <ele>538.48</ele>
        <time>2020-07-12T05:04:04Z</time>
      </trkpt>
      <trkpt lat="38.4299236536" lon="-6.4131140616">
        <ele>538.96</ele>
        <time>2020-07-12T05:04:10Z</time>
      </trkpt>
      <trkpt lat="38.4300582670" lon="-6.4131565578">
        <ele>541.36</ele>
        <time>2020-07-12T05:04:18Z</time>
      </trkpt>
      <trkpt lat="38.4302036930" lon="-6.4132247865">
        <ele>541.36</ele>
        <time>2020-07-12T05:04:24Z</time>
      </trkpt>
      <trkpt lat="38.4304214548" lon="-6.4135321509">
        <ele>541.36</ele>
        <time>2020-07-12T05:04:33Z</time>
      </trkpt>
      <trkpt lat="38.4307298250" lon="-6.4139448758">
        <ele>540.40</ele>
        <time>2020-07-12T05:04:45Z</time>
      </trkpt>
      <trkpt lat="38.4309199266" lon="-6.4141563512">
        <ele>539.92</ele>
        <time>2020-07-12T05:04:52Z</time>
      </trkpt>
      <trkpt lat="38.4309403785" lon="-6.4141540881">
        <ele>539.92</ele>
        <time>2020-07-12T05:04:53Z</time>
      </trkpt>
      <trkpt lat="38.4309742413" lon="-6.4141425211">
        <ele>539.92</ele>
        <time>2020-07-12T05:04:54Z</time>
      </trkpt>
      <trkpt lat="38.4310043324" lon="-6.4141239133">
        <ele>539.44</ele>
        <time>2020-07-12T05:04:55Z</time>
      </trkpt>
      <trkpt lat="38.4310331661" lon="-6.4141034614">
        <ele>539.44</ele>
        <time>2020-07-12T05:04:56Z</time>
      </trkpt>
      <trkpt lat="38.4314002097" lon="-6.4138547704">
        <ele>537.03</ele>
        <time>2020-07-12T05:05:08Z</time>
      </trkpt>
      <trkpt lat="38.4317153692" lon="-6.4136406966">
        <ele>537.03</ele>
        <time>2020-07-12T05:05:19Z</time>
      </trkpt>
      <trkpt lat="38.4319271799" lon="-6.4134966116">
        <ele>537.03</ele>
        <time>2020-07-12T05:05:28Z</time>
      </trkpt>
      <trkpt lat="38.4321183711" lon="-6.4133650158">
        <ele>538.96</ele>
        <time>2020-07-12T05:05:40Z</time>
      </trkpt>
      <trkpt lat="38.4323205426" lon="-6.4132181648">
        <ele>540.40</ele>
        <time>2020-07-12T05:05:52Z</time>
      </trkpt>
      <trkpt lat="38.4325507935" lon="-6.4130680449">
        <ele>541.36</ele>
        <time>2020-07-12T05:06:05Z</time>
      </trkpt>
      <trkpt lat="38.4326792043" lon="-6.4129679650">
        <ele>541.84</ele>
        <time>2020-07-12T05:06:14Z</time>
      </trkpt>
      <trkpt lat="38.4327150788" lon="-6.4129245467">
        <ele>542.32</ele>
        <time>2020-07-12T05:06:21Z</time>
      </trkpt>
      <trkpt lat="38.4327331837" lon="-6.4129194338">
        <ele>543.76</ele>
        <time>2020-07-12T05:06:37Z</time>
      </trkpt>
      <trkpt lat="38.4327156655" lon="-6.4129154105">
        <ele>542.80</ele>
        <time>2020-07-12T05:06:52Z</time>
      </trkpt>
      <trkpt lat="38.4327027574" lon="-6.4129300788">
        <ele>543.76</ele>
        <time>2020-07-12T05:07:14Z</time>
      </trkpt>
      <trkpt lat="38.4327122290" lon="-6.4129365329">
        <ele>544.72</ele>
        <time>2020-07-12T05:07:35Z</time>
      </trkpt>
      <trkpt lat="38.4327143244" lon="-6.4129408915">
        <ele>543.76</ele>
        <time>2020-07-12T05:07:54Z</time>
      </trkpt>
      <trkpt lat="38.4327157494" lon="-6.4129173383">
        <ele>543.28</ele>
        <time>2020-07-12T05:08:08Z</time>
      </trkpt>
      <trkpt lat="38.4327252209" lon="-6.4129166678">
        <ele>542.80</ele>
        <time>2020-07-12T05:08:22Z</time>
      </trkpt>
      <trkpt lat="38.4327325970" lon="-6.4129366167">
        <ele>542.32</ele>
        <time>2020-07-12T05:08:36Z</time>
      </trkpt>
      <trkpt lat="38.4327248018" lon="-6.4129423164">
        <ele>541.84</ele>
        <time>2020-07-12T05:08:55Z</time>
      </trkpt>
      <trkpt lat="38.4327408113" lon="-6.4129351918">
        <ele>542.32</ele>
        <time>2020-07-12T05:09:00Z</time>
      </trkpt>
      <trkpt lat="38.4327536356" lon="-6.4129260555">
        <ele>541.84</ele>
        <time>2020-07-12T05:09:01Z</time>
      </trkpt>
      <trkpt lat="38.4327703156" lon="-6.4129123930">
        <ele>541.84</ele>
        <time>2020-07-12T05:09:02Z</time>
      </trkpt>
      <trkpt lat="38.4327861574" lon="-6.4128895942">
        <ele>542.32</ele>
        <time>2020-07-12T05:09:03Z</time>
      </trkpt>
      <trkpt lat="38.4328008257" lon="-6.4128612634">
        <ele>542.32</ele>
        <time>2020-07-12T05:09:04Z</time>
      </trkpt>
      <trkpt lat="38.4328149911" lon="-6.4128289092">
        <ele>542.32</ele>
        <time>2020-07-12T05:09:05Z</time>
      </trkpt>
      <trkpt lat="38.4329426475" lon="-6.4125191141">
        <ele>542.80</ele>
        <time>2020-07-12T05:09:14Z</time>
      </trkpt>
      <trkpt lat="38.4330847207" lon="-6.4121818263">
        <ele>543.76</ele>
        <time>2020-07-12T05:09:23Z</time>
      </trkpt>
      <trkpt lat="38.4332547057" lon="-6.4117928222">
        <ele>543.76</ele>
        <time>2020-07-12T05:09:34Z</time>
      </trkpt>
      <trkpt lat="38.4334303066" lon="-6.4113861322">
        <ele>543.76</ele>
        <time>2020-07-12T05:09:45Z</time>
      </trkpt>
      <trkpt lat="38.4335690271" lon="-6.4111090265">
        <ele>544.24</ele>
        <time>2020-07-12T05:09:53Z</time>
      </trkpt>
      <trkpt lat="38.4336721245" lon="-6.4109314140">
        <ele>544.72</ele>
        <time>2020-07-12T05:09:59Z</time>
      </trkpt>
      <trkpt lat="38.4338442888" lon="-6.4105932880">
        <ele>545.69</ele>
        <time>2020-07-12T05:10:11Z</time>
      </trkpt>
      <trkpt lat="38.4339440335" lon="-6.4103843272">
        <ele>546.65</ele>
        <time>2020-07-12T05:10:20Z</time>
      </trkpt>
      <trkpt lat="38.4340136033" lon="-6.4102624543">
        <ele>547.13</ele>
        <time>2020-07-12T05:10:27Z</time>
      </trkpt>
      <trkpt lat="38.4341265913" lon="-6.4100524876">
        <ele>548.57</ele>
        <time>2020-07-12T05:10:37Z</time>
      </trkpt>
      <trkpt lat="38.4341822471" lon="-6.4098643977">
        <ele>550.01</ele>
        <time>2020-07-12T05:10:45Z</time>
      </trkpt>
      <trkpt lat="38.4342804831" lon="-6.4096041396">
        <ele>551.45</ele>
        <time>2020-07-12T05:10:56Z</time>
      </trkpt>
      <trkpt lat="38.4343501367" lon="-6.4094054885">
        <ele>552.41</ele>
        <time>2020-07-12T05:11:07Z</time>
      </trkpt>
      <trkpt lat="38.4344207123" lon="-6.4092285465">
        <ele>551.93</ele>
        <time>2020-07-12T05:11:15Z</time>
      </trkpt>
      <trkpt lat="38.4345174395" lon="-6.4089639299">
        <ele>550.97</ele>
        <time>2020-07-12T05:11:24Z</time>
      </trkpt>
      <trkpt lat="38.4346339479" lon="-6.4086763468">
        <ele>550.49</ele>
        <time>2020-07-12T05:11:33Z</time>
      </trkpt>
      <trkpt lat="38.4347718302" lon="-6.4083280787">
        <ele>550.49</ele>
        <time>2020-07-12T05:11:43Z</time>
      </trkpt>
      <trkpt lat="38.4348579962" lon="-6.4081128314">
        <ele>550.01</ele>
        <time>2020-07-12T05:11:51Z</time>
      </trkpt>
      <trkpt lat="38.4349391330" lon="-6.4079303574">
        <ele>550.49</ele>
        <time>2020-07-12T05:11:58Z</time>
      </trkpt>
      <trkpt lat="38.4350748360" lon="-6.4076593705">
        <ele>550.97</ele>
        <time>2020-07-12T05:12:07Z</time>
      </trkpt>
      <trkpt lat="38.4351985529" lon="-6.4074051473">
        <ele>551.45</ele>
        <time>2020-07-12T05:12:16Z</time>
      </trkpt>
      <trkpt lat="38.4352943581" lon="-6.4071512595">
        <ele>552.90</ele>
        <time>2020-07-12T05:12:26Z</time>
      </trkpt>
      <trkpt lat="38.4353616647" lon="-6.4069535304">
        <ele>554.34</ele>
        <time>2020-07-12T05:12:35Z</time>
      </trkpt>
      <trkpt lat="38.4353941865" lon="-6.4068686217">
        <ele>554.34</ele>
        <time>2020-07-12T05:12:42Z</time>
      </trkpt>
      <trkpt lat="38.4353955276" lon="-6.4068676159">
        <ele>554.34</ele>
        <time>2020-07-12T05:12:54Z</time>
      </trkpt>
      <trkpt lat="38.4354236070" lon="-6.4068440627">
        <ele>554.34</ele>
        <time>2020-07-12T05:13:04Z</time>
      </trkpt>
      <trkpt lat="38.4354237746" lon="-6.4068366028">
        <ele>553.38</ele>
        <time>2020-07-12T05:13:15Z</time>
      </trkpt>
      <trkpt lat="38.4354146384" lon="-6.4068446495">
        <ele>553.86</ele>
        <time>2020-07-12T05:13:36Z</time>
      </trkpt>
      <trkpt lat="38.4354191646" lon="-6.4068381954">
        <ele>553.38</ele>
        <time>2020-07-12T05:13:52Z</time>
      </trkpt>
      <trkpt lat="38.4354213439" lon="-6.4068409614">
        <ele>552.41</ele>
        <time>2020-07-12T05:14:07Z</time>
      </trkpt>
      <trkpt lat="38.4354169853" lon="-6.4068182465">
        <ele>552.90</ele>
        <time>2020-07-12T05:14:15Z</time>
      </trkpt>
      <trkpt lat="38.4354195837" lon="-6.4068032429">
        <ele>553.38</ele>
        <time>2020-07-12T05:14:20Z</time>
      </trkpt>
      <trkpt lat="38.4354216792" lon="-6.4067947771">
        <ele>552.90</ele>
        <time>2020-07-12T05:14:28Z</time>
      </trkpt>
      <trkpt lat="38.4354088549" lon="-6.4067997225">
        <ele>552.41</ele>
        <time>2020-07-12T05:14:44Z</time>
      </trkpt>
      <trkpt lat="38.4354178235" lon="-6.4067925140">
        <ele>552.41</ele>
        <time>2020-07-12T05:15:00Z</time>
      </trkpt>
      <trkpt lat="38.4354181588" lon="-6.4067970403">
        <ele>553.38</ele>
        <time>2020-07-12T05:15:26Z</time>
      </trkpt>
      <trkpt lat="38.4354226012" lon="-6.4067981299">
        <ele>552.90</ele>
        <time>2020-07-12T05:15:40Z</time>
      </trkpt>
      <trkpt lat="38.4354299773" lon="-6.4067947771">
        <ele>552.90</ele>
        <time>2020-07-12T05:16:02Z</time>
      </trkpt>
      <trkpt lat="38.4354224335" lon="-6.4067984652">
        <ele>553.86</ele>
        <time>2020-07-12T05:16:22Z</time>
      </trkpt>
      <trkpt lat="38.4354132134" lon="-6.4068022370">
        <ele>553.86</ele>
        <time>2020-07-12T05:16:40Z</time>
      </trkpt>
      <trkpt lat="38.4354144707" lon="-6.4068040811">
        <ele>552.41</ele>
        <time>2020-07-12T05:16:59Z</time>
      </trkpt>
      <trkpt lat="38.4354148898" lon="-6.4067908376">
        <ele>553.86</ele>
        <time>2020-07-12T05:17:13Z</time>
      </trkpt>
      <trkpt lat="38.4354328271" lon="-6.4067553822">
        <ele>554.82</ele>
        <time>2020-07-12T05:17:20Z</time>
      </trkpt>
      <trkpt lat="38.4354817774" lon="-6.4066151530">
        <ele>554.82</ele>
        <time>2020-07-12T05:17:27Z</time>
      </trkpt>
      <trkpt lat="38.4355572145" lon="-6.4064643625">
        <ele>555.30</ele>
        <time>2020-07-12T05:17:35Z</time>
      </trkpt>
      <trkpt lat="38.4356316458" lon="-6.4062828105">
        <ele>555.30</ele>
        <time>2020-07-12T05:17:43Z</time>
      </trkpt>
      <trkpt lat="38.4357445501" lon="-6.4060561638">
        <ele>555.78</ele>
        <time>2020-07-12T05:17:53Z</time>
      </trkpt>
      <trkpt lat="38.4358560294" lon="-6.4058088139">
        <ele>556.26</ele>
        <time>2020-07-12T05:18:04Z</time>
      </trkpt>
      <trkpt lat="38.4359470569" lon="-6.4055639785">
        <ele>556.74</ele>
        <time>2020-07-12T05:18:14Z</time>
      </trkpt>
      <trkpt lat="38.4360228293" lon="-6.4053512458">
        <ele>556.74</ele>
        <time>2020-07-12T05:18:22Z</time>
      </trkpt>
      <trkpt lat="38.4361170419" lon="-6.4050816838">
        <ele>557.22</ele>
        <time>2020-07-12T05:18:31Z</time>
      </trkpt>
      <trkpt lat="38.4362411778" lon="-6.4047812764">
        <ele>557.22</ele>
        <time>2020-07-12T05:18:41Z</time>
      </trkpt>
      <trkpt lat="38.4363437723" lon="-6.4045087807">
        <ele>556.74</ele>
        <time>2020-07-12T05:18:50Z</time>
      </trkpt>
      <trkpt lat="38.4364526533" lon="-6.4042398892">
        <ele>556.74</ele>
        <time>2020-07-12T05:18:59Z</time>
      </trkpt>
      <trkpt lat="38.4365456086" lon="-6.4040139131">
        <ele>557.70</ele>
        <time>2020-07-12T05:19:07Z</time>
      </trkpt>
      <trkpt lat="38.4366281703" lon="-6.4038141724">
        <ele>558.66</ele>
        <time>2020-07-12T05:19:14Z</time>
      </trkpt>
      <trkpt lat="38.4367297590" lon="-6.4035499748">
        <ele>559.62</ele>
        <time>2020-07-12T05:19:24Z</time>
      </trkpt>
      <trkpt lat="38.4368335269" lon="-6.4032756351">
        <ele>562.51</ele>
        <time>2020-07-12T05:19:36Z</time>
      </trkpt>
      <trkpt lat="38.4369410668" lon="-6.4030335657">
        <ele>564.43</ele>
        <time>2020-07-12T05:19:46Z</time>
      </trkpt>
      <trkpt lat="38.4370564017" lon="-6.4028022252">
        <ele>564.91</ele>
        <time>2020-07-12T05:19:56Z</time>
      </trkpt>
      <trkpt lat="38.4371434897" lon="-6.4026252832">
        <ele>564.91</ele>
        <time>2020-07-12T05:20:05Z</time>
      </trkpt>
      <trkpt lat="38.4372225311" lon="-6.4024272189">
        <ele>565.87</ele>
        <time>2020-07-12T05:20:13Z</time>
      </trkpt>
      <trkpt lat="38.4373144805" lon="-6.4021849819">
        <ele>567.32</ele>
        <time>2020-07-12T05:20:23Z</time>
      </trkpt>
      <trkpt lat="38.4373951983" lon="-6.4019750990">
        <ele>567.32</ele>
        <time>2020-07-12T05:20:32Z</time>
      </trkpt>
      <trkpt lat="38.4375348408" lon="-6.4017223008">
        <ele>567.32</ele>
        <time>2020-07-12T05:20:43Z</time>
      </trkpt>
      <trkpt lat="38.4376251977" lon="-6.4015477058">
        <ele>566.83</ele>
        <time>2020-07-12T05:20:51Z</time>
      </trkpt>
      <trkpt lat="38.4377238527" lon="-6.4013316203">
        <ele>567.32</ele>
        <time>2020-07-12T05:20:59Z</time>
      </trkpt>
      <trkpt lat="38.4378153831" lon="-6.4010711107">
        <ele>567.80</ele>
        <time>2020-07-12T05:21:09Z</time>
      </trkpt>
      <trkpt lat="38.4378827736" lon="-6.4008797519">
        <ele>568.76</ele>
        <time>2020-07-12T05:21:18Z</time>
      </trkpt>
      <trkpt lat="38.4379544389" lon="-6.4007042348">
        <ele>570.20</ele>
        <time>2020-07-12T05:21:27Z</time>
      </trkpt>
      <trkpt lat="38.4380505793" lon="-6.4004866406">
        <ele>571.64</ele>
        <time>2020-07-12T05:21:38Z</time>
      </trkpt>
      <trkpt lat="38.4381308779" lon="-6.4003151469">
        <ele>572.60</ele>
        <time>2020-07-12T05:21:47Z</time>
      </trkpt>
      <trkpt lat="38.4382085782" lon="-6.4001782704">
        <ele>573.56</ele>
        <time>2020-07-12T05:21:55Z</time>
      </trkpt>
      <trkpt lat="38.4383068141" lon="-6.4000188466">
        <ele>574.53</ele>
        <time>2020-07-12T05:22:04Z</time>
      </trkpt>
      <trkpt lat="38.4383961651" lon="-6.3998866640">
        <ele>575.01</ele>
        <time>2020-07-12T05:22:12Z</time>
      </trkpt>
      <trkpt lat="38.4385098238" lon="-6.3997365441">
        <ele>575.01</ele>
        <time>2020-07-12T05:22:21Z</time>
      </trkpt>
      <trkpt lat="38.4386270028" lon="-6.3995948900">
        <ele>575.49</ele>
        <time>2020-07-12T05:22:30Z</time>
      </trkpt>
      <trkpt lat="38.4387523960" lon="-6.3994396571">
        <ele>575.01</ele>
        <time>2020-07-12T05:22:40Z</time>
      </trkpt>
      <trkpt lat="38.4388342034" lon="-6.3993448578">
        <ele>575.49</ele>
        <time>2020-07-12T05:22:46Z</time>
      </trkpt>
      <trkpt lat="38.4389525559" lon="-6.3992314506">
        <ele>576.45</ele>
        <time>2020-07-12T05:22:54Z</time>
      </trkpt>
      <trkpt lat="38.4391183499" lon="-6.3990761340">
        <ele>578.85</ele>
        <time>2020-07-12T05:23:05Z</time>
      </trkpt>
      <trkpt lat="38.4392438270" lon="-6.3989663310">
        <ele>579.81</ele>
        <time>2020-07-12T05:23:15Z</time>
      </trkpt>
      <trkpt lat="38.4394011553" lon="-6.3988521695">
        <ele>581.73</ele>
        <time>2020-07-12T05:23:26Z</time>
      </trkpt>
      <trkpt lat="38.4395251237" lon="-6.3987637404">
        <ele>583.66</ele>
        <time>2020-07-12T05:23:35Z</time>
      </trkpt>
      <trkpt lat="38.4396641795" lon="-6.3986334857">
        <ele>585.10</ele>
        <time>2020-07-12T05:23:46Z</time>
      </trkpt>
      <trkpt lat="38.4397548717" lon="-6.3984872214">
        <ele>586.54</ele>
        <time>2020-07-12T05:23:55Z</time>
      </trkpt>
      <trkpt lat="38.4398103599" lon="-6.3983946014">
        <ele>587.02</ele>
        <time>2020-07-12T05:24:03Z</time>
      </trkpt>
      <trkpt lat="38.4398843721" lon="-6.3982406259">
        <ele>587.98</ele>
        <time>2020-07-12T05:24:13Z</time>
      </trkpt>
      <trkpt lat="38.4399654251" lon="-6.3980556373">
        <ele>588.95</ele>
        <time>2020-07-12T05:24:24Z</time>
      </trkpt>
      <trkpt lat="38.4400275350" lon="-6.3978708163">
        <ele>591.35</ele>
        <time>2020-07-12T05:24:34Z</time>
      </trkpt>
      <trkpt lat="38.4400743060" lon="-6.3976984005">
        <ele>592.79</ele>
        <time>2020-07-12T05:24:43Z</time>
      </trkpt>
      <trkpt lat="38.4401178081" lon="-6.3975430839">
        <ele>594.23</ele>
        <time>2020-07-12T05:24:51Z</time>
      </trkpt>
      <trkpt lat="38.4401731286" lon="-6.3972991705">
        <ele>595.19</ele>
        <time>2020-07-12T05:25:03Z</time>
      </trkpt>
      <trkpt lat="38.4402132779" lon="-6.3971370645">
        <ele>596.15</ele>
        <time>2020-07-12T05:25:11Z</time>
      </trkpt>
      <trkpt lat="38.4402136132" lon="-6.3969840948">
        <ele>596.64</ele>
        <time>2020-07-12T05:25:19Z</time>
      </trkpt>
      <trkpt lat="38.4402356576" lon="-6.3968012854">
        <ele>597.60</ele>
        <time>2020-07-12T05:25:28Z</time>
      </trkpt>
      <trkpt lat="38.4402582888" lon="-6.3965526782">
        <ele>598.56</ele>
        <time>2020-07-12T05:25:40Z</time>
      </trkpt>
      <trkpt lat="38.4402877931" lon="-6.3963277079">
        <ele>600.00</ele>
        <time>2020-07-12T05:25:51Z</time>
      </trkpt>
      <trkpt lat="38.4403213207" lon="-6.3961495925">
        <ele>601.44</ele>
        <time>2020-07-12T05:26:01Z</time>
      </trkpt>
      <trkpt lat="38.4403634816" lon="-6.3959797751">
        <ele>602.88</ele>
        <time>2020-07-12T05:26:10Z</time>
      </trkpt>
      <trkpt lat="38.4403903875" lon="-6.3958516158">
        <ele>602.88</ele>
        <time>2020-07-12T05:26:17Z</time>
      </trkpt>
      <trkpt lat="38.4404236637" lon="-6.3956784457">
        <ele>603.36</ele>
        <time>2020-07-12T05:26:26Z</time>
      </trkpt>
      <trkpt lat="38.4404287767" lon="-6.3956604246">
        <ele>603.36</ele>
        <time>2020-07-12T05:26:27Z</time>
      </trkpt>
      <trkpt lat="38.4404328000" lon="-6.3956439961">
        <ele>603.85</ele>
        <time>2020-07-12T05:26:28Z</time>
      </trkpt>
      <trkpt lat="38.4404379968" lon="-6.3956253044">
        <ele>603.85</ele>
        <time>2020-07-12T05:26:29Z</time>
      </trkpt>
      <trkpt lat="38.4404420201" lon="-6.3956059422">
        <ele>603.85</ele>
        <time>2020-07-12T05:26:30Z</time>
      </trkpt>
      <trkpt lat="38.4404435288" lon="-6.3955859933">
        <ele>603.85</ele>
        <time>2020-07-12T05:26:31Z</time>
      </trkpt>
      <trkpt lat="38.4404440317" lon="-6.3955661282">
        <ele>604.33</ele>
        <time>2020-07-12T05:26:32Z</time>
      </trkpt>
      <trkpt lat="38.4404475521" lon="-6.3955471851">
        <ele>604.33</ele>
        <time>2020-07-12T05:26:33Z</time>
      </trkpt>
      <trkpt lat="38.4404531680" lon="-6.3955300022">
        <ele>604.33</ele>
        <time>2020-07-12T05:26:34Z</time>
      </trkpt>
      <trkpt lat="38.4404583648" lon="-6.3955132384">
        <ele>604.33</ele>
        <time>2020-07-12T05:26:35Z</time>
      </trkpt>
      <trkpt lat="38.4404621366" lon="-6.3954962231">
        <ele>604.33</ele>
        <time>2020-07-12T05:26:36Z</time>
      </trkpt>
      <trkpt lat="38.4404864442" lon="-6.3953699917">
        <ele>605.77</ele>
        <time>2020-07-12T05:26:43Z</time>
      </trkpt>
      <trkpt lat="38.4404991847" lon="-6.3953267410">
        <ele>606.25</ele>
        <time>2020-07-12T05:26:46Z</time>
      </trkpt>
      <trkpt lat="38.4405591153" lon="-6.3951741066">
        <ele>606.25</ele>
        <time>2020-07-12T05:26:55Z</time>
      </trkpt>
      <trkpt lat="38.4405842610" lon="-6.3951148465">
        <ele>606.25</ele>
        <time>2020-07-12T05:26:58Z</time>
      </trkpt>
      <trkpt lat="38.4405886196" lon="-6.3950964063">
        <ele>606.25</ele>
        <time>2020-07-12T05:26:59Z</time>
      </trkpt>
      <trkpt lat="38.4405959118" lon="-6.3950748648">
        <ele>606.73</ele>
        <time>2020-07-12T05:27:00Z</time>
      </trkpt>
      <trkpt lat="38.4406040423" lon="-6.3950525690">
        <ele>606.73</ele>
        <time>2020-07-12T05:27:01Z</time>
      </trkpt>
      <trkpt lat="38.4406123403" lon="-6.3950290997">
        <ele>606.73</ele>
        <time>2020-07-12T05:27:02Z</time>
      </trkpt>
      <trkpt lat="38.4406208061" lon="-6.3950051274">
        <ele>606.73</ele>
        <time>2020-07-12T05:27:03Z</time>
      </trkpt>
      <trkpt lat="38.4406280145" lon="-6.3949835859">
        <ele>606.25</ele>
        <time>2020-07-12T05:27:04Z</time>
      </trkpt>
      <trkpt lat="38.4406341333" lon="-6.3949637208">
        <ele>606.25</ele>
        <time>2020-07-12T05:27:05Z</time>
      </trkpt>
      <trkpt lat="38.4406415094" lon="-6.3949434366">
        <ele>606.25</ele>
        <time>2020-07-12T05:27:06Z</time>
      </trkpt>
      <trkpt lat="38.4406509809" lon="-6.3949220628">
        <ele>606.25</ele>
        <time>2020-07-12T05:27:07Z</time>
      </trkpt>
      <trkpt lat="38.4407228138" lon="-6.3946788199">
        <ele>606.73</ele>
        <time>2020-07-12T05:27:17Z</time>
      </trkpt>
      <trkpt lat="38.4407935571" lon="-6.3944621477">
        <ele>606.73</ele>
        <time>2020-07-12T05:27:26Z</time>
      </trkpt>
      <trkpt lat="38.4408850875" lon="-6.3942305557">
        <ele>608.17</ele>
        <time>2020-07-12T05:27:36Z</time>
      </trkpt>
      <trkpt lat="38.4409475327" lon="-6.3940175716">
        <ele>609.61</ele>
        <time>2020-07-12T05:27:46Z</time>
      </trkpt>
      <trkpt lat="38.4409857541" lon="-6.3938000612">
        <ele>611.54</ele>
        <time>2020-07-12T05:27:56Z</time>
      </trkpt>
      <trkpt lat="38.4409953933" lon="-6.3936149888">
        <ele>613.46</ele>
        <time>2020-07-12T05:28:05Z</time>
      </trkpt>
      <trkpt lat="38.4410090558" lon="-6.3934179302">
        <ele>613.46</ele>
        <time>2020-07-12T05:28:14Z</time>
      </trkpt>
      <trkpt lat="38.4410564974" lon="-6.3932508789">
        <ele>613.46</ele>
        <time>2020-07-12T05:28:22Z</time>
      </trkpt>
      <trkpt lat="38.4411671385" lon="-6.3930122461">
        <ele>613.94</ele>
        <time>2020-07-12T05:28:33Z</time>
      </trkpt>
      <trkpt lat="38.4412766062" lon="-6.3927937299">
        <ele>614.42</ele>
        <time>2020-07-12T05:28:43Z</time>
      </trkpt>
      <trkpt lat="38.4413480200" lon="-6.3926104177">
        <ele>614.90</ele>
        <time>2020-07-12T05:28:52Z</time>
      </trkpt>
      <trkpt lat="38.4414229542" lon="-6.3924428634">
        <ele>615.86</ele>
        <time>2020-07-12T05:29:00Z</time>
      </trkpt>
      <trkpt lat="38.4414882492" lon="-6.3922613952">
        <ele>616.82</ele>
        <time>2020-07-12T05:29:09Z</time>
      </trkpt>
      <trkpt lat="38.4415614232" lon="-6.3921259437">
        <ele>617.30</ele>
        <time>2020-07-12T05:29:16Z</time>
      </trkpt>
      <trkpt lat="38.4416554682" lon="-6.3919551205">
        <ele>617.78</ele>
        <time>2020-07-12T05:29:24Z</time>
      </trkpt>
      <trkpt lat="38.4418065939" lon="-6.3917473331">
        <ele>618.26</ele>
        <time>2020-07-12T05:29:35Z</time>
      </trkpt>
      <trkpt lat="38.4419096913" lon="-6.3916553836">
        <ele>618.75</ele>
        <time>2020-07-12T05:29:43Z</time>
      </trkpt>
      <trkpt lat="38.4420031495" lon="-6.3915175851">
        <ele>620.67</ele>
        <time>2020-07-12T05:29:53Z</time>
      </trkpt>
      <trkpt lat="38.4420271218" lon="-6.3914864883">
        <ele>621.15</ele>
        <time>2020-07-12T05:30:00Z</time>
      </trkpt>
      <trkpt lat="38.4420349170" lon="-6.3914755080">
        <ele>621.15</ele>
        <time>2020-07-12T05:30:18Z</time>
      </trkpt>
      <trkpt lat="38.4420430474" lon="-6.3914763462">
        <ele>620.67</ele>
        <time>2020-07-12T05:30:33Z</time>
      </trkpt>
      <trkpt lat="38.4420367610" lon="-6.3914945349">
        <ele>621.15</ele>
        <time>2020-07-12T05:30:52Z</time>
      </trkpt>
      <trkpt lat="38.4420344979" lon="-6.3915022463">
        <ele>620.67</ele>
        <time>2020-07-12T05:31:05Z</time>
      </trkpt>
      <trkpt lat="38.4420572128" lon="-6.3914785255">
        <ele>621.15</ele>
        <time>2020-07-12T05:31:11Z</time>
      </trkpt>
      <trkpt lat="38.4420726355" lon="-6.3914701436">
        <ele>621.15</ele>
        <time>2020-07-12T05:31:12Z</time>
      </trkpt>
      <trkpt lat="38.4420922492" lon="-6.3914608397">
        <ele>620.67</ele>
        <time>2020-07-12T05:31:13Z</time>
      </trkpt>
      <trkpt lat="38.4421122819" lon="-6.3914540503">
        <ele>620.67</ele>
        <time>2020-07-12T05:31:14Z</time>
      </trkpt>
      <trkpt lat="38.4421304706" lon="-6.3914429024">
        <ele>620.19</ele>
        <time>2020-07-12T05:31:15Z</time>
      </trkpt>
      <trkpt lat="38.4421480726" lon="-6.3914300781">
        <ele>619.71</ele>
        <time>2020-07-12T05:31:16Z</time>
      </trkpt>
      <trkpt lat="38.4423077479" lon="-6.3913160842">
        <ele>616.34</ele>
        <time>2020-07-12T05:31:23Z</time>
      </trkpt>
      <trkpt lat="38.4423319716" lon="-6.3912763540">
        <ele>615.86</ele>
        <time>2020-07-12T05:31:24Z</time>
      </trkpt>
      <trkpt lat="38.4423500765" lon="-6.3912248891">
        <ele>615.38</ele>
        <time>2020-07-12T05:31:25Z</time>
      </trkpt>
      <trkpt lat="38.4423604701" lon="-6.3911678083">
        <ele>614.42</ele>
        <time>2020-07-12T05:31:26Z</time>
      </trkpt>
      <trkpt lat="38.4423657507" lon="-6.3911041897">
        <ele>613.94</ele>
        <time>2020-07-12T05:31:27Z</time>
      </trkpt>
      <trkpt lat="38.4423649125" lon="-6.3910354581">
        <ele>612.50</ele>
        <time>2020-07-12T05:31:28Z</time>
      </trkpt>
      <trkpt lat="38.4423629846" lon="-6.3909734320">
        <ele>611.54</ele>
        <time>2020-07-12T05:31:29Z</time>
      </trkpt>
      <trkpt lat="38.4423608892" lon="-6.3905083202">
        <ele>604.81</ele>
        <time>2020-07-12T05:31:36Z</time>
      </trkpt>
      <trkpt lat="38.4423527587" lon="-6.3904492278">
        <ele>603.85</ele>
        <time>2020-07-12T05:31:37Z</time>
      </trkpt>
      <trkpt lat="38.4423415270" lon="-6.3902988564">
        <ele>600.96</ele>
        <time>2020-07-12T05:31:42Z</time>
      </trkpt>
      <trkpt lat="38.4423499927" lon="-6.3903011195">
        <ele>601.44</ele>
        <time>2020-07-12T05:31:49Z</time>
      </trkpt>
      <trkpt lat="38.4423459694" lon="-6.3902911451">
        <ele>601.44</ele>
        <time>2020-07-12T05:32:03Z</time>
      </trkpt>
      <trkpt lat="38.4423453826" lon="-6.3902903069">
        <ele>602.40</ele>
        <time>2020-07-12T05:32:14Z</time>
      </trkpt>
      <trkpt lat="38.4423829336" lon="-6.3901629020">
        <ele>600.96</ele>
        <time>2020-07-12T05:32:18Z</time>
      </trkpt>
      <trkpt lat="38.4424357396" lon="-6.3900354970">
        <ele>599.52</ele>
        <time>2020-07-12T05:32:21Z</time>
      </trkpt>
      <trkpt lat="38.4424597118" lon="-6.3899990357">
        <ele>599.04</ele>
        <time>2020-07-12T05:32:22Z</time>
      </trkpt>
      <trkpt lat="38.4424843546" lon="-6.3899642508">
        <ele>598.08</ele>
        <time>2020-07-12T05:32:23Z</time>
      </trkpt>
      <trkpt lat="38.4426773898" lon="-6.3897374365">
        <ele>593.75</ele>
        <time>2020-07-12T05:32:31Z</time>
      </trkpt>
      <trkpt lat="38.4429050423" lon="-6.3896347582">
        <ele>590.39</ele>
        <time>2020-07-12T05:32:38Z</time>
      </trkpt>
      <trkpt lat="38.4432636201" lon="-6.3895221055">
        <ele>585.58</ele>
        <time>2020-07-12T05:32:45Z</time>
      </trkpt>
      <trkpt lat="38.4436130617" lon="-6.3893982209">
        <ele>579.81</ele>
        <time>2020-07-12T05:32:52Z</time>
      </trkpt>
      <trkpt lat="38.4440143872" lon="-6.3892120589">
        <ele>572.12</ele>
        <time>2020-07-12T05:33:01Z</time>
      </trkpt>
      <trkpt lat="38.4440530278" lon="-6.3891808782">
        <ele>571.64</ele>
        <time>2020-07-12T05:33:02Z</time>
      </trkpt>
      <trkpt lat="38.4440856334" lon="-6.3891452551">
        <ele>570.68</ele>
        <time>2020-07-12T05:33:03Z</time>
      </trkpt>
      <trkpt lat="38.4441169817" lon="-6.3890960533">
        <ele>569.72</ele>
        <time>2020-07-12T05:33:04Z</time>
      </trkpt>
      <trkpt lat="38.4441423789" lon="-6.3890493661">
        <ele>569.24</ele>
        <time>2020-07-12T05:33:05Z</time>
      </trkpt>
      <trkpt lat="38.4441662673" lon="-6.3889985718">
        <ele>568.76</ele>
        <time>2020-07-12T05:33:06Z</time>
      </trkpt>
      <trkpt lat="38.4441909101" lon="-6.3889492024">
        <ele>568.76</ele>
        <time>2020-07-12T05:33:07Z</time>
      </trkpt>
      <trkpt lat="38.4442203306" lon="-6.3889051974">
        <ele>568.28</ele>
        <time>2020-07-12T05:33:08Z</time>
      </trkpt>
      <trkpt lat="38.4442546126" lon="-6.3888668921">
        <ele>567.80</ele>
        <time>2020-07-12T05:33:09Z</time>
      </trkpt>
      <trkpt lat="38.4442938399" lon="-6.3888365496">
        <ele>566.83</ele>
        <time>2020-07-12T05:33:10Z</time>
      </trkpt>
      <trkpt lat="38.4443342406" lon="-6.3888073806">
        <ele>565.87</ele>
        <time>2020-07-12T05:33:11Z</time>
      </trkpt>
      <trkpt lat="38.4444181435" lon="-6.3887483720">
        <ele>564.43</ele>
        <time>2020-07-12T05:33:13Z</time>
      </trkpt>
      <trkpt lat="38.4444581252" lon="-6.3887086418">
        <ele>563.95</ele>
        <time>2020-07-12T05:33:14Z</time>
      </trkpt>
      <trkpt lat="38.4444914851" lon="-6.3886648044">
        <ele>562.99</ele>
        <time>2020-07-12T05:33:15Z</time>
      </trkpt>
      <trkpt lat="38.4447224904" lon="-6.3882930670">
        <ele>557.70</ele>
        <time>2020-07-12T05:33:23Z</time>
      </trkpt>
      <trkpt lat="38.4449571837" lon="-6.3881043065">
        <ele>555.30</ele>
        <time>2020-07-12T05:33:31Z</time>
      </trkpt>
      <trkpt lat="38.4450785536" lon="-6.3880507462">
        <ele>554.34</ele>
        <time>2020-07-12T05:33:35Z</time>
      </trkpt>
      <trkpt lat="38.4451203793" lon="-6.3880193979">
        <ele>553.86</ele>
        <time>2020-07-12T05:33:36Z</time>
      </trkpt>
      <trkpt lat="38.4451575112" lon="-6.3879836909">
        <ele>553.38</ele>
        <time>2020-07-12T05:33:37Z</time>
      </trkpt>
      <trkpt lat="38.4452091437" lon="-6.3879285380">
        <ele>553.38</ele>
        <time>2020-07-12T05:33:38Z</time>
      </trkpt>
      <trkpt lat="38.4452301823" lon="-6.3879037276">
        <ele>553.38</ele>
        <time>2020-07-12T05:33:39Z</time>
      </trkpt>
      <trkpt lat="38.4455999918" lon="-6.3875146396">
        <ele>550.97</ele>
        <time>2020-07-12T05:33:47Z</time>
      </trkpt>
      <trkpt lat="38.4459153190" lon="-6.3872301579">
        <ele>549.05</ele>
        <time>2020-07-12T05:33:53Z</time>
      </trkpt>
      <trkpt lat="38.4460797720" lon="-6.3870966341">
        <ele>548.57</ele>
        <time>2020-07-12T05:33:56Z</time>
      </trkpt>
      <trkpt lat="38.4461362660" lon="-6.3870601729">
        <ele>548.09</ele>
        <time>2020-07-12T05:33:57Z</time>
      </trkpt>
      <trkpt lat="38.4464799240" lon="-6.3868112303">
        <ele>549.05</ele>
        <time>2020-07-12T05:34:04Z</time>
      </trkpt>
      <trkpt lat="38.4465582948" lon="-6.3867439236">
        <ele>549.05</ele>
        <time>2020-07-12T05:34:06Z</time>
      </trkpt>
      <trkpt lat="38.4465959296" lon="-6.3867039420">
        <ele>549.05</ele>
        <time>2020-07-12T05:34:07Z</time>
      </trkpt>
      <trkpt lat="38.4466300439" lon="-6.3866677321">
        <ele>549.53</ele>
        <time>2020-07-12T05:34:08Z</time>
      </trkpt>
      <trkpt lat="38.4466649126" lon="-6.3866361324">
        <ele>549.53</ele>
        <time>2020-07-12T05:34:09Z</time>
      </trkpt>
      <trkpt lat="38.4466931596" lon="-6.3866107352">
        <ele>549.53</ele>
        <time>2020-07-12T05:34:10Z</time>
      </trkpt>
      <trkpt lat="38.4467152040" lon="-6.3865877688">
        <ele>549.53</ele>
        <time>2020-07-12T05:34:11Z</time>
      </trkpt>
      <trkpt lat="38.4467333090" lon="-6.3865683228">
        <ele>550.01</ele>
        <time>2020-07-12T05:34:12Z</time>
      </trkpt>
      <trkpt lat="38.4468837641" lon="-6.3864395767">
        <ele>551.45</ele>
        <time>2020-07-12T05:34:19Z</time>
      </trkpt>
      <trkpt lat="38.4471927211" lon="-6.3862245809">
        <ele>552.41</ele>
        <time>2020-07-12T05:34:30Z</time>
      </trkpt>
      <trkpt lat="38.4473468643" lon="-6.3861173764">
        <ele>552.41</ele>
        <time>2020-07-12T05:34:35Z</time>
      </trkpt>
      <trkpt lat="38.4473913722" lon="-6.3860929012">
        <ele>551.93</ele>
        <time>2020-07-12T05:34:36Z</time>
      </trkpt>
      <trkpt lat="38.4477696475" lon="-6.3858877122">
        <ele>550.01</ele>
        <time>2020-07-12T05:34:43Z</time>
      </trkpt>
      <trkpt lat="38.4479219466" lon="-6.3858028874">
        <ele>549.05</ele>
        <time>2020-07-12T05:34:46Z</time>
      </trkpt>
      <trkpt lat="38.4479638562" lon="-6.3857634924">
        <ele>548.57</ele>
        <time>2020-07-12T05:34:47Z</time>
      </trkpt>
      <trkpt lat="38.4480011556" lon="-6.3857197389">
        <ele>548.09</ele>
        <time>2020-07-12T05:34:48Z</time>
      </trkpt>
      <trkpt lat="38.4480636008" lon="-6.3856264483">
        <ele>547.61</ele>
        <time>2020-07-12T05:34:50Z</time>
      </trkpt>
      <trkpt lat="38.4480910096" lon="-6.3855728041">
        <ele>547.61</ele>
        <time>2020-07-12T05:34:51Z</time>
      </trkpt>
      <trkpt lat="38.4481984656" lon="-6.3853722252">
        <ele>547.61</ele>
        <time>2020-07-12T05:34:56Z</time>
      </trkpt>
      <trkpt lat="38.4482606594" lon="-6.3850987237">
        <ele>545.69</ele>
        <time>2020-07-12T05:35:02Z</time>
      </trkpt>
      <trkpt lat="38.4482770879" lon="-6.3850459177">
        <ele>545.20</ele>
        <time>2020-07-12T05:35:03Z</time>
      </trkpt>
      <trkpt lat="38.4483837895" lon="-6.3845598511">
        <ele>542.32</ele>
        <time>2020-07-12T05:35:12Z</time>
      </trkpt>
      <trkpt lat="38.4484711289" lon="-6.3843549974">
        <ele>541.36</ele>
        <time>2020-07-12T05:35:18Z</time>
      </trkpt>
      <trkpt lat="38.4485002141" lon="-6.3842748664">
        <ele>540.88</ele>
        <time>2020-07-12T05:35:22Z</time>
      </trkpt>
      <trkpt lat="38.4485105239" lon="-6.3842634670">
        <ele>540.88</ele>
        <time>2020-07-12T05:35:23Z</time>
      </trkpt>
      <trkpt lat="38.4485197440" lon="-6.3842521515">
        <ele>541.36</ele>
        <time>2020-07-12T05:35:24Z</time>
      </trkpt>
      <trkpt lat="38.4485522658" lon="-6.3842450269">
        <ele>541.84</ele>
        <time>2020-07-12T05:35:27Z</time>
      </trkpt>
      <trkpt lat="38.4485621564" lon="-6.3842519838">
        <ele>542.80</ele>
        <time>2020-07-12T05:35:33Z</time>
      </trkpt>
      <trkpt lat="38.4485580493" lon="-6.3842546660">
        <ele>542.32</ele>
        <time>2020-07-12T05:35:50Z</time>
      </trkpt>
      <trkpt lat="38.4486326482" lon="-6.3842889480">
        <ele>543.76</ele>
        <time>2020-07-12T05:35:56Z</time>
      </trkpt>
      <trkpt lat="38.4486601409" lon="-6.3843147643">
        <ele>544.24</ele>
        <time>2020-07-12T05:35:58Z</time>
      </trkpt>
      <trkpt lat="38.4486587998" lon="-6.3843316957">
        <ele>543.76</ele>
        <time>2020-07-12T05:35:59Z</time>
      </trkpt>
      <trkpt lat="38.4486490767" lon="-6.3843404967">
        <ele>543.28</ele>
        <time>2020-07-12T05:36:00Z</time>
      </trkpt>
      <trkpt lat="38.4486360010" lon="-6.3843363896">
        <ele>543.28</ele>
        <time>2020-07-12T05:36:01Z</time>
      </trkpt>
      <trkpt lat="38.4486210812" lon="-6.3843249902">
        <ele>543.28</ele>
        <time>2020-07-12T05:36:02Z</time>
      </trkpt>
      <trkpt lat="38.4484928381" lon="-6.3841744512">
        <ele>544.72</ele>
        <time>2020-07-12T05:36:12Z</time>
      </trkpt>
      <trkpt lat="38.4484791756" lon="-6.3841627166">
        <ele>544.72</ele>
        <time>2020-07-12T05:36:13Z</time>
      </trkpt>
      <trkpt lat="38.4484279621" lon="-6.3841181248">
        <ele>544.24</ele>
        <time>2020-07-12T05:36:17Z</time>
      </trkpt>
      <trkpt lat="38.4484228492" lon="-6.3841015287">
        <ele>544.24</ele>
        <time>2020-07-12T05:36:18Z</time>
      </trkpt>
      <trkpt lat="38.4484231845" lon="-6.3840855192">
        <ele>543.76</ele>
        <time>2020-07-12T05:36:19Z</time>
      </trkpt>
      <trkpt lat="38.4484270401" lon="-6.3840733655">
        <ele>543.28</ele>
        <time>2020-07-12T05:36:20Z</time>
      </trkpt>
      <trkpt lat="38.4484329075" lon="-6.3840589486">
        <ele>543.28</ele>
        <time>2020-07-12T05:36:21Z</time>
      </trkpt>
      <trkpt lat="38.4484401159" lon="-6.3840468787">
        <ele>542.80</ele>
        <time>2020-07-12T05:36:22Z</time>
      </trkpt>
      <trkpt lat="38.4484493360" lon="-6.3840372395">
        <ele>542.80</ele>
        <time>2020-07-12T05:36:23Z</time>
      </trkpt>
      <trkpt lat="38.4484616574" lon="-6.3840318751">
        <ele>542.80</ele>
        <time>2020-07-12T05:36:24Z</time>
      </trkpt>
      <trkpt lat="38.4485588875" lon="-6.3839628082">
        <ele>542.32</ele>
        <time>2020-07-12T05:36:33Z</time>
      </trkpt>
      <trkpt lat="38.4486874659" lon="-6.3838425279">
        <ele>541.36</ele>
        <time>2020-07-12T05:36:41Z</time>
      </trkpt>
      <trkpt lat="38.4487907309" lon="-6.3837654982">
        <ele>539.44</ele>
        <time>2020-07-12T05:36:47Z</time>
      </trkpt>
      <trkpt lat="38.4489108436" lon="-6.3837048970">
        <ele>537.51</ele>
        <time>2020-07-12T05:36:54Z</time>
      </trkpt>
      <trkpt lat="38.4489662480" lon="-6.3837316353">
        <ele>538.96</ele>
        <time>2020-07-12T05:36:57Z</time>
      </trkpt>
      <trkpt lat="38.4491378255" lon="-6.3838388398">
        <ele>542.32</ele>
        <time>2020-07-12T05:37:06Z</time>
      </trkpt>
      <trkpt lat="38.4491613787" lon="-6.3838535082">
        <ele>542.80</ele>
        <time>2020-07-12T05:37:08Z</time>
      </trkpt>
      <trkpt lat="38.4492099937" lon="-6.3838317152">
        <ele>542.80</ele>
        <time>2020-07-12T05:37:12Z</time>
      </trkpt>
      <trkpt lat="38.4493281785" lon="-6.3837203197">
        <ele>540.40</ele>
        <time>2020-07-12T05:37:20Z</time>
      </trkpt>
      <trkpt lat="38.4493406676" lon="-6.3837069925">
        <ele>539.92</ele>
        <time>2020-07-12T05:37:21Z</time>
      </trkpt>
      <trkpt lat="38.4494064655" lon="-6.3836298790">
        <ele>538.96</ele>
        <time>2020-07-12T05:37:27Z</time>
      </trkpt>
      <trkpt lat="38.4495039470" lon="-6.3835126162">
        <ele>540.88</ele>
        <time>2020-07-12T05:37:34Z</time>
      </trkpt>
      <trkpt lat="38.4495247342" lon="-6.3834966067">
        <ele>541.36</ele>
        <time>2020-07-12T05:37:36Z</time>
      </trkpt>
      <trkpt lat="38.4495309368" lon="-6.3834831957">
        <ele>541.36</ele>
        <time>2020-07-12T05:37:37Z</time>
      </trkpt>
      <trkpt lat="38.4495478682" lon="-6.3834409509">
        <ele>540.88</ele>
        <time>2020-07-12T05:37:40Z</time>
      </trkpt>
      <trkpt lat="38.4495602734" lon="-6.3834283780">
        <ele>540.40</ele>
        <time>2020-07-12T05:37:41Z</time>
      </trkpt>
      <trkpt lat="38.4495711699" lon="-6.3834100217">
        <ele>540.40</ele>
        <time>2020-07-12T05:37:42Z</time>
      </trkpt>
      <trkpt lat="38.4495807253" lon="-6.3833873067">
        <ele>539.92</ele>
        <time>2020-07-12T05:37:43Z</time>
      </trkpt>
      <trkpt lat="38.4495924599" lon="-6.3833608199">
        <ele>539.92</ele>
        <time>2020-07-12T05:37:44Z</time>
      </trkpt>
      <trkpt lat="38.4497124050" lon="-6.3831015676">
        <ele>538.48</ele>
        <time>2020-07-12T05:37:53Z</time>
      </trkpt>
      <trkpt lat="38.4497880936" lon="-6.3829950336">
        <ele>538.96</ele>
        <time>2020-07-12T05:37:58Z</time>
      </trkpt>
      <trkpt lat="38.4499207791" lon="-6.3827802055">
        <ele>538.48</ele>
        <time>2020-07-12T05:38:06Z</time>
      </trkpt>
      <trkpt lat="38.4500687197" lon="-6.3825296704">
        <ele>537.99</ele>
        <time>2020-07-12T05:38:14Z</time>
      </trkpt>
      <trkpt lat="38.4502634313" lon="-6.3822420873">
        <ele>537.99</ele>
        <time>2020-07-12T05:38:24Z</time>
      </trkpt>
      <trkpt lat="38.4503932670" lon="-6.3820616249">
        <ele>535.59</ele>
        <time>2020-07-12T05:38:31Z</time>
      </trkpt>
      <trkpt lat="38.4505531937" lon="-6.3818435278">
        <ele>533.19</ele>
        <time>2020-07-12T05:38:38Z</time>
      </trkpt>
      <trkpt lat="38.4507260285" lon="-6.3816354889">
        <ele>531.75</ele>
        <time>2020-07-12T05:38:45Z</time>
      </trkpt>
      <trkpt lat="38.4509731270" lon="-6.3813574612">
        <ele>530.30</ele>
        <time>2020-07-12T05:38:51Z</time>
      </trkpt>
      <trkpt lat="38.4510887135" lon="-6.3812323194">
        <ele>528.38</ele>
        <time>2020-07-12T05:38:55Z</time>
      </trkpt>
      <trkpt lat="38.4512883704" lon="-6.3810291421">
        <ele>525.98</ele>
        <time>2020-07-12T05:39:01Z</time>
      </trkpt>
      <trkpt lat="38.4513451997" lon="-6.3809878193">
        <ele>525.50</ele>
        <time>2020-07-12T05:39:04Z</time>
      </trkpt>
      <trkpt lat="38.4513621312" lon="-6.3809940219">
        <ele>525.50</ele>
        <time>2020-07-12T05:39:05Z</time>
      </trkpt>
      <trkpt lat="38.4513816610" lon="-6.3810102828">
        <ele>525.50</ele>
        <time>2020-07-12T05:39:06Z</time>
      </trkpt>
      <trkpt lat="38.4513992630" lon="-6.3810332492">
        <ele>525.02</ele>
        <time>2020-07-12T05:39:07Z</time>
      </trkpt>
      <trkpt lat="38.4514131770" lon="-6.3810579758">
        <ele>525.02</ele>
        <time>2020-07-12T05:39:08Z</time>
      </trkpt>
      <trkpt lat="38.4515079763" lon="-6.3812280446">
        <ele>523.09</ele>
        <time>2020-07-12T05:39:15Z</time>
      </trkpt>
      <trkpt lat="38.4515224770" lon="-6.3812303916">
        <ele>522.61</ele>
        <time>2020-07-12T05:39:16Z</time>
      </trkpt>
      <trkpt lat="38.4515389055" lon="-6.3812307268">
        <ele>522.61</ele>
        <time>2020-07-12T05:39:17Z</time>
      </trkpt>
      <trkpt lat="38.4515542444" lon="-6.3812264521">
        <ele>522.13</ele>
        <time>2020-07-12T05:39:18Z</time>
      </trkpt>
      <trkpt lat="38.4515698347" lon="-6.3812212553">
        <ele>522.13</ele>
        <time>2020-07-12T05:39:19Z</time>
      </trkpt>
      <trkpt lat="38.4515855927" lon="-6.3812132925">
        <ele>522.13</ele>
        <time>2020-07-12T05:39:20Z</time>
      </trkpt>
      <trkpt lat="38.4515982494" lon="-6.3812015578">
        <ele>521.65</ele>
        <time>2020-07-12T05:39:21Z</time>
      </trkpt>
      <trkpt lat="38.4516100679" lon="-6.3811872248">
        <ele>521.65</ele>
        <time>2020-07-12T05:39:22Z</time>
      </trkpt>
      <trkpt lat="38.4516232274" lon="-6.3811707962">
        <ele>521.65</ele>
        <time>2020-07-12T05:39:23Z</time>
      </trkpt>
      <trkpt lat="38.4517145902" lon="-6.3809740730">
        <ele>520.21</ele>
        <time>2020-07-12T05:39:29Z</time>
      </trkpt>
      <trkpt lat="38.4517798852" lon="-6.3807530422">
        <ele>521.17</ele>
        <time>2020-07-12T05:39:36Z</time>
      </trkpt>
      <trkpt lat="38.4517906979" lon="-6.3805260602">
        <ele>521.17</ele>
        <time>2020-07-12T05:39:43Z</time>
      </trkpt>
      <trkpt lat="38.4518746845" lon="-6.3803718332">
        <ele>521.65</ele>
        <time>2020-07-12T05:39:49Z</time>
      </trkpt>
      <trkpt lat="38.4518855810" lon="-6.3803440053">
        <ele>521.65</ele>
        <time>2020-07-12T05:39:50Z</time>
      </trkpt>
      <trkpt lat="38.4519420750" lon="-6.3801793847">
        <ele>518.77</ele>
        <time>2020-07-12T05:39:55Z</time>
      </trkpt>
      <trkpt lat="38.4519676398" lon="-6.3801717572">
        <ele>518.77</ele>
        <time>2020-07-12T05:39:56Z</time>
      </trkpt>
      <trkpt lat="38.4519849066" lon="-6.3801770378">
        <ele>518.77</ele>
        <time>2020-07-12T05:39:57Z</time>
      </trkpt>
      <trkpt lat="38.4520154167" lon="-6.3802012615">
        <ele>519.25</ele>
        <time>2020-07-12T05:39:58Z</time>
      </trkpt>
      <trkpt lat="38.4520414006" lon="-6.3802232221">
        <ele>519.25</ele>
        <time>2020-07-12T05:39:59Z</time>
      </trkpt>
      <trkpt lat="38.4520609304" lon="-6.3802363817">
        <ele>519.25</ele>
        <time>2020-07-12T05:40:00Z</time>
      </trkpt>
      <trkpt lat="38.4520863276" lon="-6.3802449312">
        <ele>519.25</ele>
        <time>2020-07-12T05:40:01Z</time>
      </trkpt>
      <trkpt lat="38.4521175083" lon="-6.3802427519">
        <ele>519.25</ele>
        <time>2020-07-12T05:40:02Z</time>
      </trkpt>
      <trkpt lat="38.4521443304" lon="-6.3802334480">
        <ele>519.25</ele>
        <time>2020-07-12T05:40:03Z</time>
      </trkpt>
      <trkpt lat="38.4521776065" lon="-6.3802134153">
        <ele>518.77</ele>
        <time>2020-07-12T05:40:04Z</time>
      </trkpt>
      <trkpt lat="38.4522115532" lon="-6.3801875990">
        <ele>518.77</ele>
        <time>2020-07-12T05:40:05Z</time>
      </trkpt>
      <trkpt lat="38.4524485096" lon="-6.3800024427">
        <ele>516.85</ele>
        <time>2020-07-12T05:40:11Z</time>
      </trkpt>
      <trkpt lat="38.4524884913" lon="-6.3799883612">
        <ele>516.37</ele>
        <time>2020-07-12T05:40:12Z</time>
      </trkpt>
      <trkpt lat="38.4525243659" lon="-6.3799861819">
        <ele>516.37</ele>
        <time>2020-07-12T05:40:13Z</time>
      </trkpt>
      <trkpt lat="38.4525583126" lon="-6.3799967431">
        <ele>515.88</ele>
        <time>2020-07-12T05:40:14Z</time>
      </trkpt>
      <trkpt lat="38.4525887389" lon="-6.3800176978">
        <ele>515.88</ele>
        <time>2020-07-12T05:40:15Z</time>
      </trkpt>
      <trkpt lat="38.4526113700" lon="-6.3800458610">
        <ele>515.88</ele>
        <time>2020-07-12T05:40:16Z</time>
      </trkpt>
      <trkpt lat="38.4526350070" lon="-6.3800829090">
        <ele>515.88</ele>
        <time>2020-07-12T05:40:17Z</time>
      </trkpt>
      <trkpt lat="38.4527821932" lon="-6.3803895190">
        <ele>514.44</ele>
        <time>2020-07-12T05:40:24Z</time>
      </trkpt>
      <trkpt lat="38.4528774116" lon="-6.3805670477">
        <ele>513.48</ele>
        <time>2020-07-12T05:40:29Z</time>
      </trkpt>
      <trkpt lat="38.4529038984" lon="-6.3805786148">
        <ele>513.00</ele>
        <time>2020-07-12T05:40:30Z</time>
      </trkpt>
      <trkpt lat="38.4529365879" lon="-6.3805776089">
        <ele>512.52</ele>
        <time>2020-07-12T05:40:31Z</time>
      </trkpt>
      <trkpt lat="38.4529722948" lon="-6.3805652875">
        <ele>512.04</ele>
        <time>2020-07-12T05:40:32Z</time>
      </trkpt>
      <trkpt lat="38.4530086722" lon="-6.3805463444">
        <ele>511.56</ele>
        <time>2020-07-12T05:40:33Z</time>
      </trkpt>
      <trkpt lat="38.4530480672" lon="-6.3805247191">
        <ele>511.56</ele>
        <time>2020-07-12T05:40:34Z</time>
      </trkpt>
      <trkpt lat="38.4530902281" lon="-6.3805011660">
        <ele>511.08</ele>
        <time>2020-07-12T05:40:35Z</time>
      </trkpt>
      <trkpt lat="38.4531356581" lon="-6.3804797921">
        <ele>510.60</ele>
        <time>2020-07-12T05:40:36Z</time>
      </trkpt>
      <trkpt lat="38.4531845246" lon="-6.3804708235">
        <ele>510.12</ele>
        <time>2020-07-12T05:40:37Z</time>
      </trkpt>
      <trkpt lat="38.4532381687" lon="-6.3804799598">
        <ele>509.64</ele>
        <time>2020-07-12T05:40:38Z</time>
      </trkpt>
      <trkpt lat="38.4532918129" lon="-6.3805063628">
        <ele>509.64</ele>
        <time>2020-07-12T05:40:39Z</time>
      </trkpt>
      <trkpt lat="38.4533424396" lon="-6.3805437461">
        <ele>509.64</ele>
        <time>2020-07-12T05:40:40Z</time>
      </trkpt>
      <trkpt lat="38.4533924796" lon="-6.3805875834">
        <ele>509.16</ele>
        <time>2020-07-12T05:40:41Z</time>
      </trkpt>
      <trkpt lat="38.4534472134" lon="-6.3806398865">
        <ele>509.16</ele>
        <time>2020-07-12T05:40:42Z</time>
      </trkpt>
      <trkpt lat="38.4537309408" lon="-6.3808875717">
        <ele>508.67</ele>
        <time>2020-07-12T05:40:49Z</time>
      </trkpt>
      <trkpt lat="38.4537689947" lon="-6.3808956183">
        <ele>508.67</ele>
        <time>2020-07-12T05:40:50Z</time>
      </trkpt>
      <trkpt lat="38.4538081381" lon="-6.3808885776">
        <ele>508.67</ele>
        <time>2020-07-12T05:40:51Z</time>
      </trkpt>
      <trkpt lat="38.4538471978" lon="-6.3808698859">
        <ele>508.67</ele>
        <time>2020-07-12T05:40:52Z</time>
      </trkpt>
      <trkpt lat="38.4538850840" lon="-6.3808394596">
        <ele>508.19</ele>
        <time>2020-07-12T05:40:53Z</time>
      </trkpt>
      <trkpt lat="38.4539205395" lon="-6.3808100391">
        <ele>508.19</ele>
        <time>2020-07-12T05:40:54Z</time>
      </trkpt>
      <trkpt lat="38.4539600182" lon="-6.3807857316">
        <ele>507.71</ele>
        <time>2020-07-12T05:40:55Z</time>
      </trkpt>
      <trkpt lat="38.4540032689" lon="-6.3807614241">
        <ele>507.71</ele>
        <time>2020-07-12T05:40:56Z</time>
      </trkpt>
      <trkpt lat="38.4542844817" lon="-6.3805486914">
        <ele>506.27</ele>
        <time>2020-07-12T05:41:03Z</time>
      </trkpt>
      <trkpt lat="38.4543231223" lon="-6.3805267308">
        <ele>505.79</ele>
        <time>2020-07-12T05:41:04Z</time>
      </trkpt>
      <trkpt lat="38.4545673709" lon="-6.3803612720">
        <ele>504.35</ele>
        <time>2020-07-12T05:41:11Z</time>
      </trkpt>
      <trkpt lat="38.4547236096" lon="-6.3802694902">
        <ele>503.39</ele>
        <time>2020-07-12T05:41:15Z</time>
      </trkpt>
      <trkpt lat="38.4547694586" lon="-6.3802585099">
        <ele>503.39</ele>
        <time>2020-07-12T05:41:16Z</time>
      </trkpt>
      <trkpt lat="38.4548167326" lon="-6.3802521396">
        <ele>503.39</ele>
        <time>2020-07-12T05:41:17Z</time>
      </trkpt>
      <trkpt lat="38.4548731428" lon="-6.3802486192">
        <ele>502.91</ele>
        <time>2020-07-12T05:41:18Z</time>
      </trkpt>
      <trkpt lat="38.4549236856" lon="-6.3802484516">
        <ele>502.91</ele>
        <time>2020-07-12T05:41:19Z</time>
      </trkpt>
      <trkpt lat="38.4553418588" lon="-6.3802643772">
        <ele>499.54</ele>
        <time>2020-07-12T05:41:26Z</time>
      </trkpt>
      <trkpt lat="38.4553954192" lon="-6.3802660536">
        <ele>499.06</ele>
        <time>2020-07-12T05:41:27Z</time>
      </trkpt>
      <trkpt lat="38.4557948168" lon="-6.3802589290">
        <ele>496.18</ele>
        <time>2020-07-12T05:41:34Z</time>
      </trkpt>
      <trkpt lat="38.4562217910" lon="-6.3802049495">
        <ele>493.77</ele>
        <time>2020-07-12T05:41:41Z</time>
      </trkpt>
      <trkpt lat="38.4566050116" lon="-6.3801545743">
        <ele>493.29</ele>
        <time>2020-07-12T05:41:48Z</time>
      </trkpt>
      <trkpt lat="38.4566563927" lon="-6.3801431749">
        <ele>493.29</ele>
        <time>2020-07-12T05:41:49Z</time>
      </trkpt>
      <trkpt lat="38.4567060135" lon="-6.3801310211">
        <ele>493.29</ele>
        <time>2020-07-12T05:41:50Z</time>
      </trkpt>
      <trkpt lat="38.4571859613" lon="-6.3799434341">
        <ele>493.77</ele>
        <time>2020-07-12T05:42:00Z</time>
      </trkpt>
      <trkpt lat="38.4576379973" lon="-6.3798587769">
        <ele>494.74</ele>
        <time>2020-07-12T05:42:10Z</time>
      </trkpt>
      <trkpt lat="38.4580797236" lon="-6.3797877822">
        <ele>495.22</ele>
        <time>2020-07-12T05:42:20Z</time>
      </trkpt>
      <trkpt lat="38.4584594239" lon="-6.3797136024">
        <ele>496.66</ele>
        <time>2020-07-12T05:42:30Z</time>
      </trkpt>
      <trkpt lat="38.4586307500" lon="-6.3796819188">
        <ele>497.62</ele>
        <time>2020-07-12T05:42:37Z</time>
      </trkpt>
      <trkpt lat="38.4589662775" lon="-6.3796212338">
        <ele>499.54</ele>
        <time>2020-07-12T05:42:50Z</time>
      </trkpt>
      <trkpt lat="38.4591795132" lon="-6.3795763068">
        <ele>500.98</ele>
        <time>2020-07-12T05:42:59Z</time>
      </trkpt>
      <trkpt lat="38.4593855403" lon="-6.3795366604">
        <ele>502.43</ele>
        <time>2020-07-12T05:43:08Z</time>
      </trkpt>
      <trkpt lat="38.4595467243" lon="-6.3794786576">
        <ele>503.39</ele>
        <time>2020-07-12T05:43:16Z</time>
      </trkpt>
      <trkpt lat="38.4597526677" lon="-6.3793955930">
        <ele>504.83</ele>
        <time>2020-07-12T05:43:26Z</time>
      </trkpt>
      <trkpt lat="38.4599466249" lon="-6.3793065771">
        <ele>506.27</ele>
        <time>2020-07-12T05:43:35Z</time>
      </trkpt>
      <trkpt lat="38.4601523168" lon="-6.3792224228">
        <ele>506.75</ele>
        <time>2020-07-12T05:43:44Z</time>
      </trkpt>
      <trkpt lat="38.4603370540" lon="-6.3791463990">
        <ele>505.31</ele>
        <time>2020-07-12T05:43:51Z</time>
      </trkpt>
      <trkpt lat="38.4606166743" lon="-6.3790232688">
        <ele>503.39</ele>
        <time>2020-07-12T05:43:57Z</time>
      </trkpt>
      <trkpt lat="38.4610548802" lon="-6.3788231928">
        <ele>501.95</ele>
        <time>2020-07-12T05:44:04Z</time>
      </trkpt>
      <trkpt lat="38.4611210134" lon="-6.3788027409">
        <ele>501.95</ele>
        <time>2020-07-12T05:44:05Z</time>
      </trkpt>
      <trkpt lat="38.4611756634" lon="-6.3787916768">
        <ele>501.95</ele>
        <time>2020-07-12T05:44:06Z</time>
      </trkpt>
      <trkpt lat="38.4613832831" lon="-6.3787585683">
        <ele>501.46</ele>
        <time>2020-07-12T05:44:10Z</time>
      </trkpt>
      <trkpt lat="38.4615673497" lon="-6.3787003141">
        <ele>502.43</ele>
        <time>2020-07-12T05:44:16Z</time>
      </trkpt>
      <trkpt lat="38.4617609717" lon="-6.3786045928">
        <ele>504.35</ele>
        <time>2020-07-12T05:44:25Z</time>
      </trkpt>
      <trkpt lat="38.4618684277" lon="-6.3785030879">
        <ele>505.79</ele>
        <time>2020-07-12T05:44:33Z</time>
      </trkpt>
      <trkpt lat="38.4619817510" lon="-6.3783219550">
        <ele>506.27</ele>
        <time>2020-07-12T05:44:44Z</time>
      </trkpt>
      <trkpt lat="38.4620560985" lon="-6.3781152572">
        <ele>507.71</ele>
        <time>2020-07-12T05:44:55Z</time>
      </trkpt>
      <trkpt lat="38.4621214774" lon="-6.3779140916">
        <ele>508.67</ele>
        <time>2020-07-12T05:45:05Z</time>
      </trkpt>
      <trkpt lat="38.4621938132" lon="-6.3776973356">
        <ele>509.64</ele>
        <time>2020-07-12T05:45:17Z</time>
      </trkpt>
      <trkpt lat="38.4622335434" lon="-6.3775542565">
        <ele>511.56</ele>
        <time>2020-07-12T05:45:25Z</time>
      </trkpt>
      <trkpt lat="38.4622831643" lon="-6.3773867860">
        <ele>512.52</ele>
        <time>2020-07-12T05:45:35Z</time>
      </trkpt>
      <trkpt lat="38.4623277560" lon="-6.3772484008">
        <ele>513.96</ele>
        <time>2020-07-12T05:45:43Z</time>
      </trkpt>
      <trkpt lat="38.4623636305" lon="-6.3771308027">
        <ele>514.92</ele>
        <time>2020-07-12T05:45:52Z</time>
      </trkpt>
      <trkpt lat="38.4624063782" lon="-6.3770090137">
        <ele>516.37</ele>
        <time>2020-07-12T05:46:02Z</time>
      </trkpt>
      <trkpt lat="38.4624124132" lon="-6.3769946806">
        <ele>516.37</ele>
        <time>2020-07-12T05:46:03Z</time>
      </trkpt>
      <trkpt lat="38.4624167718" lon="-6.3769816048">
        <ele>516.85</ele>
        <time>2020-07-12T05:46:04Z</time>
      </trkpt>
      <trkpt lat="38.4624195378" lon="-6.3769647572">
        <ele>517.33</ele>
        <time>2020-07-12T05:46:05Z</time>
      </trkpt>
      <trkpt lat="38.4624234773" lon="-6.3769506756">
        <ele>517.33</ele>
        <time>2020-07-12T05:46:06Z</time>
      </trkpt>
      <trkpt lat="38.4624289256" lon="-6.3769388571">
        <ele>517.33</ele>
        <time>2020-07-12T05:46:07Z</time>
      </trkpt>
      <trkpt lat="38.4624356311" lon="-6.3769231830">
        <ele>517.33</ele>
        <time>2020-07-12T05:46:08Z</time>
      </trkpt>
      <trkpt lat="38.4624400735" lon="-6.3769086823">
        <ele>517.81</ele>
        <time>2020-07-12T05:46:09Z</time>
      </trkpt>
      <trkpt lat="38.4624878503" lon="-6.3767449837">
        <ele>519.25</ele>
        <time>2020-07-12T05:46:20Z</time>
      </trkpt>
      <trkpt lat="38.4625072125" lon="-6.3766919263">
        <ele>519.73</ele>
        <time>2020-07-12T05:46:24Z</time>
      </trkpt>
      <trkpt lat="38.4625129960" lon="-6.3766785152">
        <ele>519.73</ele>
        <time>2020-07-12T05:46:25Z</time>
      </trkpt>
      <trkpt lat="38.4625172708" lon="-6.3766622543">
        <ele>519.73</ele>
        <time>2020-07-12T05:46:26Z</time>
      </trkpt>
      <trkpt lat="38.4625213780" lon="-6.3766492624">
        <ele>519.73</ele>
        <time>2020-07-12T05:46:27Z</time>
      </trkpt>
      <trkpt lat="38.4625276644" lon="-6.3766369410">
        <ele>519.73</ele>
        <time>2020-07-12T05:46:28Z</time>
      </trkpt>
      <trkpt lat="38.4625337832" lon="-6.3766226918">
        <ele>520.21</ele>
        <time>2020-07-12T05:46:29Z</time>
      </trkpt>
      <trkpt lat="38.4625400696" lon="-6.3766099513">
        <ele>520.21</ele>
        <time>2020-07-12T05:46:30Z</time>
      </trkpt>
      <trkpt lat="38.4625454340" lon="-6.3765964564">
        <ele>520.69</ele>
        <time>2020-07-12T05:46:31Z</time>
      </trkpt>
      <trkpt lat="38.4625478648" lon="-6.3765848894">
        <ele>520.69</ele>
        <time>2020-07-12T05:46:32Z</time>
      </trkpt>
      <trkpt lat="38.4625507984" lon="-6.3765722327">
        <ele>521.17</ele>
        <time>2020-07-12T05:46:33Z</time>
      </trkpt>
      <trkpt lat="38.4625557438" lon="-6.3765582349">
        <ele>521.17</ele>
        <time>2020-07-12T05:46:34Z</time>
      </trkpt>
      <trkpt lat="38.4626007546" lon="-6.3764242083">
        <ele>522.13</ele>
        <time>2020-07-12T05:46:43Z</time>
      </trkpt>
      <trkpt lat="38.4626518842" lon="-6.3762538042">
        <ele>524.06</ele>
        <time>2020-07-12T05:46:54Z</time>
      </trkpt>
      <trkpt lat="38.4627068695" lon="-6.3760715816">
        <ele>525.02</ele>
        <time>2020-07-12T05:47:06Z</time>
      </trkpt>
      <trkpt lat="38.4627486952" lon="-6.3759458531">
        <ele>526.94</ele>
        <time>2020-07-12T05:47:14Z</time>
      </trkpt>
      <trkpt lat="38.4627892636" lon="-6.3758293446">
        <ele>527.90</ele>
        <time>2020-07-12T05:47:22Z</time>
      </trkpt>
      <trkpt lat="38.4628473502" lon="-6.3756648079">
        <ele>528.38</ele>
        <time>2020-07-12T05:47:32Z</time>
      </trkpt>
      <trkpt lat="38.4629331809" lon="-6.3755007740">
        <ele>529.34</ele>
        <time>2020-07-12T05:47:42Z</time>
      </trkpt>
      <trkpt lat="38.4630205203" lon="-6.3753747102">
        <ele>530.30</ele>
        <time>2020-07-12T05:47:51Z</time>
      </trkpt>
      <trkpt lat="38.4630194306" lon="-6.3753660768">
        <ele>531.27</ele>
        <time>2020-07-12T05:48:01Z</time>
      </trkpt>
      <trkpt lat="38.4630258009" lon="-6.3753612153">
        <ele>531.75</ele>
        <time>2020-07-12T05:48:21Z</time>
      </trkpt>
      <trkpt lat="38.4630272258" lon="-6.3753590360">
        <ele>531.27</ele>
        <time>2020-07-12T05:48:34Z</time>
      </trkpt>
      <trkpt lat="38.4630356915" lon="-6.3753627241">
        <ele>530.30</ele>
        <time>2020-07-12T05:48:46Z</time>
      </trkpt>
      <trkpt lat="38.4630445763" lon="-6.3753662445">
        <ele>529.34</ele>
        <time>2020-07-12T05:49:04Z</time>
      </trkpt>
      <trkpt lat="38.4630388767" lon="-6.3753678370">
        <ele>530.30</ele>
        <time>2020-07-12T05:49:22Z</time>
      </trkpt>
      <trkpt lat="38.4630391281" lon="-6.3753669988">
        <ele>530.30</ele>
        <time>2020-07-12T05:49:40Z</time>
      </trkpt>
      <trkpt lat="38.4630290698" lon="-6.3753653225">
        <ele>530.30</ele>
        <time>2020-07-12T05:49:57Z</time>
      </trkpt>
      <trkpt lat="38.4630427323" lon="-6.3753440324">
        <ele>530.79</ele>
        <time>2020-07-12T05:50:05Z</time>
      </trkpt>
      <trkpt lat="38.4631186724" lon="-6.3752450421">
        <ele>531.27</ele>
        <time>2020-07-12T05:50:13Z</time>
      </trkpt>
      <trkpt lat="38.4632227756" lon="-6.3751169667">
        <ele>530.79</ele>
        <time>2020-07-12T05:50:21Z</time>
      </trkpt>
      <trkpt lat="38.4633518569" lon="-6.3749857899">
        <ele>531.27</ele>
        <time>2020-07-12T05:50:29Z</time>
      </trkpt>
      <trkpt lat="38.4635238536" lon="-6.3747749012">
        <ele>531.27</ele>
        <time>2020-07-12T05:50:38Z</time>
      </trkpt>
      <trkpt lat="38.4637525119" lon="-6.3745070994">
        <ele>531.75</ele>
        <time>2020-07-12T05:50:49Z</time>
      </trkpt>
      <trkpt lat="38.4639364947" lon="-6.3742947020">
        <ele>532.23</ele>
        <time>2020-07-12T05:50:58Z</time>
      </trkpt>
      <trkpt lat="38.4641515743" lon="-6.3740375452">
        <ele>533.19</ele>
        <time>2020-07-12T05:51:09Z</time>
      </trkpt>
      <trkpt lat="38.4643425141" lon="-6.3738352060">
        <ele>533.67</ele>
        <time>2020-07-12T05:51:18Z</time>
      </trkpt>
      <trkpt lat="38.4644979145" lon="-6.3736706693">
        <ele>534.15</ele>
        <time>2020-07-12T05:51:25Z</time>
      </trkpt>
      <trkpt lat="38.4646933805" lon="-6.3734493870">
        <ele>533.67</ele>
        <time>2020-07-12T05:51:34Z</time>
      </trkpt>
      <trkpt lat="38.4649795387" lon="-6.3731096685">
        <ele>534.15</ele>
        <time>2020-07-12T05:51:47Z</time>
      </trkpt>
      <trkpt lat="38.4652275592" lon="-6.3727992866">
        <ele>535.11</ele>
        <time>2020-07-12T05:51:59Z</time>
      </trkpt>
      <trkpt lat="38.4654625878" lon="-6.3725096919">
        <ele>535.59</ele>
        <time>2020-07-12T05:52:11Z</time>
      </trkpt>
      <trkpt lat="38.4656218439" lon="-6.3723215181">
        <ele>536.55</ele>
        <time>2020-07-12T05:52:20Z</time>
      </trkpt>
      <trkpt lat="38.4657517634" lon="-6.3721703086">
        <ele>537.99</ele>
        <time>2020-07-12T05:52:27Z</time>
      </trkpt>
      <trkpt lat="38.4658841975" lon="-6.3720064424">
        <ele>539.44</ele>
        <time>2020-07-12T05:52:35Z</time>
      </trkpt>
      <trkpt lat="38.4660160448" lon="-6.3718419056">
        <ele>539.92</ele>
        <time>2020-07-12T05:52:43Z</time>
      </trkpt>
      <trkpt lat="38.4662001953" lon="-6.3715717569">
        <ele>538.96</ele>
        <time>2020-07-12T05:52:53Z</time>
      </trkpt>
      <trkpt lat="38.4663677495" lon="-6.3713072240">
        <ele>537.99</ele>
        <time>2020-07-12T05:53:02Z</time>
      </trkpt>
      <trkpt lat="38.4666072205" lon="-6.3710962515">
        <ele>538.96</ele>
        <time>2020-07-12T05:53:11Z</time>
      </trkpt>
      <trkpt lat="38.4669324383" lon="-6.3709702715">
        <ele>539.44</ele>
        <time>2020-07-12T05:53:21Z</time>
      </trkpt>
      <trkpt lat="38.4673358593" lon="-6.3708494883">
        <ele>538.96</ele>
        <time>2020-07-12T05:53:32Z</time>
      </trkpt>
      <trkpt lat="38.4675629251" lon="-6.3707766496">
        <ele>539.92</ele>
        <time>2020-07-12T05:53:38Z</time>
      </trkpt>
      <trkpt lat="38.4680324793" lon="-6.3707062416">
        <ele>538.96</ele>
        <time>2020-07-12T05:53:50Z</time>
      </trkpt>
      <trkpt lat="38.4683179669" lon="-6.3707518391">
        <ele>539.44</ele>
        <time>2020-07-12T05:53:58Z</time>
      </trkpt>
      <trkpt lat="38.4688001778" lon="-6.3707453851">
        <ele>539.44</ele>
        <time>2020-07-12T05:54:10Z</time>
      </trkpt>
      <trkpt lat="38.4692025091" lon="-6.3706819341">
        <ele>539.44</ele>
        <time>2020-07-12T05:54:20Z</time>
      </trkpt>
      <trkpt lat="38.4696062654" lon="-6.3706411980">
        <ele>538.96</ele>
        <time>2020-07-12T05:54:30Z</time>
      </trkpt>
      <trkpt lat="38.4700101055" lon="-6.3705882244">
        <ele>536.07</ele>
        <time>2020-07-12T05:54:39Z</time>
      </trkpt>
      <trkpt lat="38.4703338146" lon="-6.3705670182">
        <ele>533.19</ele>
        <time>2020-07-12T05:54:46Z</time>
      </trkpt>
      <trkpt lat="38.4707739484" lon="-6.3705494162">
        <ele>531.27</ele>
        <time>2020-07-12T05:54:53Z</time>
      </trkpt>
      <trkpt lat="38.4712964762" lon="-6.3704788405">
        <ele>527.90</ele>
        <time>2020-07-12T05:55:01Z</time>
      </trkpt>
      <trkpt lat="38.4718461614" lon="-6.3704579696">
        <ele>524.06</ele>
        <time>2020-07-12T05:55:08Z</time>
      </trkpt>
      <trkpt lat="38.4723673481" lon="-6.3704993762">
        <ele>520.21</ele>
        <time>2020-07-12T05:55:15Z</time>
      </trkpt>
      <trkpt lat="38.4725571144" lon="-6.3704944309">
        <ele>518.77</ele>
        <time>2020-07-12T05:55:17Z</time>
      </trkpt>
      <trkpt lat="38.4730944782" lon="-6.3704663515">
        <ele>517.33</ele>
        <time>2020-07-12T05:55:23Z</time>
      </trkpt>
      <trkpt lat="38.4731704183" lon="-6.3704938442">
        <ele>517.33</ele>
        <time>2020-07-12T05:55:24Z</time>
      </trkpt>
      <trkpt lat="38.4732377250" lon="-6.3705308922">
        <ele>517.33</ele>
        <time>2020-07-12T05:55:25Z</time>
      </trkpt>
      <trkpt lat="38.4732963145" lon="-6.3705719635">
        <ele>517.81</ele>
        <time>2020-07-12T05:55:26Z</time>
      </trkpt>
      <trkpt lat="38.4733478632" lon="-6.3706126157">
        <ele>517.81</ele>
        <time>2020-07-12T05:55:27Z</time>
      </trkpt>
      <trkpt lat="38.4733964782" lon="-6.3706499990">
        <ele>518.77</ele>
        <time>2020-07-12T05:55:28Z</time>
      </trkpt>
      <trkpt lat="38.4735435806" lon="-6.3707331475">
        <ele>519.73</ele>
        <time>2020-07-12T05:55:33Z</time>
      </trkpt>
      <trkpt lat="38.4737565648" lon="-6.3708194811">
        <ele>518.29</ele>
        <time>2020-07-12T05:55:40Z</time>
      </trkpt>
      <trkpt lat="38.4741293918" lon="-6.3709545135">
        <ele>516.37</ele>
        <time>2020-07-12T05:55:47Z</time>
      </trkpt>
      <trkpt lat="38.4744546935" lon="-6.3710830919">
        <ele>515.88</ele>
        <time>2020-07-12T05:55:54Z</time>
      </trkpt>
      <trkpt lat="38.4747222438" lon="-6.3712508138">
        <ele>516.85</ele>
        <time>2020-07-12T05:56:02Z</time>
      </trkpt>
      <trkpt lat="38.4750005230" lon="-6.3714959007">
        <ele>515.40</ele>
        <time>2020-07-12T05:56:11Z</time>
      </trkpt>
      <trkpt lat="38.4753174428" lon="-6.3717574999">
        <ele>513.48</ele>
        <time>2020-07-12T05:56:18Z</time>
      </trkpt>
      <trkpt lat="38.4757608455" lon="-6.3720356114">
        <ele>511.56</ele>
        <time>2020-07-12T05:56:25Z</time>
      </trkpt>
      <trkpt lat="38.4762980416" lon="-6.3724092767">
        <ele>508.67</ele>
        <time>2020-07-12T05:56:33Z</time>
      </trkpt>
      <trkpt lat="38.4768335614" lon="-6.3728735503">
        <ele>503.87</ele>
        <time>2020-07-12T05:56:40Z</time>
      </trkpt>
      <trkpt lat="38.4769074060" lon="-6.3729235064">
        <ele>503.39</ele>
        <time>2020-07-12T05:56:41Z</time>
      </trkpt>
      <trkpt lat="38.4769937396" lon="-6.3729675114">
        <ele>502.91</ele>
        <time>2020-07-12T05:56:42Z</time>
      </trkpt>
      <trkpt lat="38.4770836774" lon="-6.3729991112">
        <ele>503.39</ele>
        <time>2020-07-12T05:56:43Z</time>
      </trkpt>
      <trkpt lat="38.4773975797" lon="-6.3730642386">
        <ele>503.87</ele>
        <time>2020-07-12T05:56:47Z</time>
      </trkpt>
      <trkpt lat="38.4774623718" lon="-6.3730572816">
        <ele>504.35</ele>
        <time>2020-07-12T05:56:48Z</time>
      </trkpt>
      <trkpt lat="38.4775203746" lon="-6.3730408531">
        <ele>504.83</ele>
        <time>2020-07-12T05:56:49Z</time>
      </trkpt>
      <trkpt lat="38.4775634576" lon="-6.3730184734">
        <ele>505.31</ele>
        <time>2020-07-12T05:56:50Z</time>
      </trkpt>
      <trkpt lat="38.4775994997" lon="-6.3729938306">
        <ele>505.79</ele>
        <time>2020-07-12T05:56:51Z</time>
      </trkpt>
      <trkpt lat="38.4777767770" lon="-6.3728447165">
        <ele>508.19</ele>
        <time>2020-07-12T05:56:58Z</time>
      </trkpt>
      <trkpt lat="38.4779422358" lon="-6.3726903219">
        <ele>508.67</ele>
        <time>2020-07-12T05:57:06Z</time>
      </trkpt>
      <trkpt lat="38.4782156534" lon="-6.3724581432">
        <ele>509.64</ele>
        <time>2020-07-12T05:57:18Z</time>
      </trkpt>
      <trkpt lat="38.4784795158" lon="-6.3722900860">
        <ele>511.08</ele>
        <time>2020-07-12T05:57:29Z</time>
      </trkpt>
      <trkpt lat="38.4786596429" lon="-6.3722197618">
        <ele>512.04</ele>
        <time>2020-07-12T05:57:38Z</time>
      </trkpt>
      <trkpt lat="38.4786904044" lon="-6.3722145651">
        <ele>512.04</ele>
        <time>2020-07-12T05:57:40Z</time>
      </trkpt>
      <trkpt lat="38.4787080064" lon="-6.3722156547">
        <ele>512.04</ele>
        <time>2020-07-12T05:57:41Z</time>
      </trkpt>
      <trkpt lat="38.4787256084" lon="-6.3722152356">
        <ele>512.04</ele>
        <time>2020-07-12T05:57:42Z</time>
      </trkpt>
      <trkpt lat="38.4787428752" lon="-6.3722119667">
        <ele>512.52</ele>
        <time>2020-07-12T05:57:43Z</time>
      </trkpt>
      <trkpt lat="38.4787607286" lon="-6.3722083624">
        <ele>512.52</ele>
        <time>2020-07-12T05:57:44Z</time>
      </trkpt>
      <trkpt lat="38.4787784982" lon="-6.3722068537">
        <ele>512.52</ele>
        <time>2020-07-12T05:57:45Z</time>
      </trkpt>
      <trkpt lat="38.4789763112" lon="-6.3721743319">
        <ele>512.04</ele>
        <time>2020-07-12T05:57:55Z</time>
      </trkpt>
      <trkpt lat="38.4792149439" lon="-6.3721563946">
        <ele>513.00</ele>
        <time>2020-07-12T05:58:05Z</time>
      </trkpt>
      <trkpt lat="38.4794712625" lon="-6.3721989747">
        <ele>514.44</ele>
        <time>2020-07-12T05:58:16Z</time>
      </trkpt>
      <trkpt lat="38.4797273297" lon="-6.3722493500">
        <ele>514.92</ele>
        <time>2020-07-12T05:58:27Z</time>
      </trkpt>
      <trkpt lat="38.4799185209" lon="-6.3722572289">
        <ele>515.40</ele>
        <time>2020-07-12T05:58:35Z</time>
      </trkpt>
      <trkpt lat="38.4802448284" lon="-6.3722915947">
        <ele>514.44</ele>
        <time>2020-07-12T05:58:46Z</time>
      </trkpt>
      <trkpt lat="38.4805625863" lon="-6.3723385334">
        <ele>514.44</ele>
        <time>2020-07-12T05:58:55Z</time>
      </trkpt>
      <trkpt lat="38.4809564520" lon="-6.3723971229">
        <ele>513.96</ele>
        <time>2020-07-12T05:59:06Z</time>
      </trkpt>
      <trkpt lat="38.4812947456" lon="-6.3724319916">
        <ele>513.96</ele>
        <time>2020-07-12T05:59:16Z</time>
      </trkpt>
      <trkpt lat="38.4816565085" lon="-6.3724447321">
        <ele>513.48</ele>
        <time>2020-07-12T05:59:26Z</time>
      </trkpt>
      <trkpt lat="38.4820142481" lon="-6.3724660221">
        <ele>512.52</ele>
        <time>2020-07-12T05:59:34Z</time>
      </trkpt>
      <trkpt lat="38.4823954571" lon="-6.3724815287">
        <ele>509.64</ele>
        <time>2020-07-12T05:59:40Z</time>
      </trkpt>
      <trkpt lat="38.4830022231" lon="-6.3725612406">
        <ele>505.79</ele>
        <time>2020-07-12T05:59:47Z</time>
      </trkpt>
      <trkpt lat="38.4835489746" lon="-6.3726651762">
        <ele>506.75</ele>
        <time>2020-07-12T05:59:54Z</time>
      </trkpt>
      <trkpt lat="38.4837850090" lon="-6.3727055769">
        <ele>508.19</ele>
        <time>2020-07-12T05:59:59Z</time>
      </trkpt>
      <trkpt lat="38.4839807265" lon="-6.3727130368">
        <ele>509.16</ele>
        <time>2020-07-12T06:00:06Z</time>
      </trkpt>
      <trkpt lat="38.4841901902" lon="-6.3726837840">
        <ele>509.64</ele>
        <time>2020-07-12T06:00:14Z</time>
      </trkpt>
      <trkpt lat="38.4844162501" lon="-6.3726258650">
        <ele>510.12</ele>
        <time>2020-07-12T06:00:22Z</time>
      </trkpt>
      <trkpt lat="38.4846615046" lon="-6.3725525234">
        <ele>510.12</ele>
        <time>2020-07-12T06:00:30Z</time>
      </trkpt>
      <trkpt lat="38.4850736428" lon="-6.3724139705">
        <ele>509.64</ele>
        <time>2020-07-12T06:00:42Z</time>
      </trkpt>
      <trkpt lat="38.4854919836" lon="-6.3722833805">
        <ele>508.67</ele>
        <time>2020-07-12T06:00:52Z</time>
      </trkpt>
      <trkpt lat="38.4858098254" lon="-6.3721807022">
        <ele>509.16</ele>
        <time>2020-07-12T06:01:01Z</time>
      </trkpt>
      <trkpt lat="38.4862593468" lon="-6.3720319234">
        <ele>510.12</ele>
        <time>2020-07-12T06:01:15Z</time>
      </trkpt>
      <trkpt lat="38.4865048528" lon="-6.3719336037">
        <ele>510.60</ele>
        <time>2020-07-12T06:01:24Z</time>
      </trkpt>
      <trkpt lat="38.4868107084" lon="-6.3717854116">
        <ele>512.52</ele>
        <time>2020-07-12T06:01:35Z</time>
      </trkpt>
      <trkpt lat="38.4869431425" lon="-6.3717280794">
        <ele>513.00</ele>
        <time>2020-07-12T06:01:42Z</time>
      </trkpt>
      <trkpt lat="38.4870470781" lon="-6.3716799673">
        <ele>514.44</ele>
        <time>2020-07-12T06:01:51Z</time>
      </trkpt>
      <trkpt lat="38.4871967789" lon="-6.3716174383">
        <ele>515.40</ele>
        <time>2020-07-12T06:01:58Z</time>
      </trkpt>
      <trkpt lat="38.4874180611" lon="-6.3715274166">
        <ele>516.85</ele>
        <time>2020-07-12T06:02:07Z</time>
      </trkpt>
      <trkpt lat="38.4876746312" lon="-6.3713748660">
        <ele>518.29</ele>
        <time>2020-07-12T06:02:17Z</time>
      </trkpt>
      <trkpt lat="38.4878965002" lon="-6.3711785618">
        <ele>519.25</ele>
        <time>2020-07-12T06:02:27Z</time>
      </trkpt>
      <trkpt lat="38.4881605301" lon="-6.3709582016">
        <ele>521.65</ele>
        <time>2020-07-12T06:02:38Z</time>
      </trkpt>
      <trkpt lat="38.4884208720" lon="-6.3708188105">
        <ele>522.61</ele>
        <time>2020-07-12T06:02:49Z</time>
      </trkpt>
      <trkpt lat="38.4887249675" lon="-6.3707126956">
        <ele>522.61</ele>
        <time>2020-07-12T06:03:01Z</time>
      </trkpt>
      <trkpt lat="38.4889383707" lon="-6.3706189860">
        <ele>522.61</ele>
        <time>2020-07-12T06:03:10Z</time>
      </trkpt>
      <trkpt lat="38.4891112894" lon="-6.3705245219">
        <ele>522.13</ele>
        <time>2020-07-12T06:03:18Z</time>
      </trkpt>
      <trkpt lat="38.4893232677" lon="-6.3704037387">
        <ele>522.13</ele>
        <time>2020-07-12T06:03:28Z</time>
      </trkpt>
      <trkpt lat="38.4895400237" lon="-6.3702877332">
        <ele>521.17</ele>
        <time>2020-07-12T06:03:37Z</time>
      </trkpt>
      <trkpt lat="38.4897710290" lon="-6.3701533712">
        <ele>520.69</ele>
        <time>2020-07-12T06:03:47Z</time>
      </trkpt>
      <trkpt lat="38.4900471289" lon="-6.3700040057">
        <ele>520.21</ele>
        <time>2020-07-12T06:03:57Z</time>
      </trkpt>
      <trkpt lat="38.4903467819" lon="-6.3698457554">
        <ele>519.25</ele>
        <time>2020-07-12T06:04:07Z</time>
      </trkpt>
      <trkpt lat="38.4905833192" lon="-6.3697274867">
        <ele>518.29</ele>
        <time>2020-07-12T06:04:15Z</time>
      </trkpt>
      <trkpt lat="38.4907425754" lon="-6.3696226291">
        <ele>518.29</ele>
        <time>2020-07-12T06:04:21Z</time>
      </trkpt>
      <trkpt lat="38.4908521269" lon="-6.3695660513">
        <ele>517.81</ele>
        <time>2020-07-12T06:04:27Z</time>
      </trkpt>
      <trkpt lat="38.4909786098" lon="-6.3695119880">
        <ele>517.33</ele>
        <time>2020-07-12T06:04:34Z</time>
      </trkpt>
      <trkpt lat="38.4912019037" lon="-6.3693889417">
        <ele>516.85</ele>
        <time>2020-07-12T06:04:45Z</time>
      </trkpt>
      <trkpt lat="38.4913807735" lon="-6.3692933042">
        <ele>515.88</ele>
        <time>2020-07-12T06:04:54Z</time>
      </trkpt>
      <trkpt lat="38.4914774168" lon="-6.3692456111">
        <ele>515.40</ele>
        <time>2020-07-12T06:05:00Z</time>
      </trkpt>
      <trkpt lat="38.4915807657" lon="-6.3691811543">
        <ele>515.88</ele>
        <time>2020-07-12T06:05:07Z</time>
      </trkpt>
      <trkpt lat="38.4917192347" lon="-6.3690996822">
        <ele>515.88</ele>
        <time>2020-07-12T06:05:15Z</time>
      </trkpt>
      <trkpt lat="38.4918641578" lon="-6.3690125942">
        <ele>514.92</ele>
        <time>2020-07-12T06:05:23Z</time>
      </trkpt>
      <trkpt lat="38.4920513257" lon="-6.3689186331">
        <ele>514.44</ele>
        <time>2020-07-12T06:05:32Z</time>
      </trkpt>
      <trkpt lat="38.4922270942" lon="-6.3688316289">
        <ele>514.44</ele>
        <time>2020-07-12T06:05:40Z</time>
      </trkpt>
      <trkpt lat="38.4923899546" lon="-6.3687586226">
        <ele>513.96</ele>
        <time>2020-07-12T06:05:47Z</time>
      </trkpt>
      <trkpt lat="38.4925410803" lon="-6.3686654996">
        <ele>512.52</ele>
        <time>2020-07-12T06:05:54Z</time>
      </trkpt>
      <trkpt lat="38.4927057009" lon="-6.3685858715">
        <ele>512.04</ele>
        <time>2020-07-12T06:06:02Z</time>
      </trkpt>
      <trkpt lat="38.4927405696" lon="-6.3685627375">
        <ele>511.56</ele>
        <time>2020-07-12T06:06:04Z</time>
      </trkpt>
      <trkpt lat="38.4927559923" lon="-6.3685463089">
        <ele>511.56</ele>
        <time>2020-07-12T06:06:05Z</time>
      </trkpt>
      <trkpt lat="38.4927716665" lon="-6.3685333170">
        <ele>511.56</ele>
        <time>2020-07-12T06:06:06Z</time>
      </trkpt>
      <trkpt lat="38.4927870892" lon="-6.3685256895">
        <ele>511.56</ele>
        <time>2020-07-12T06:06:07Z</time>
      </trkpt>
      <trkpt lat="38.4928036854" lon="-6.3685183134">
        <ele>511.56</ele>
        <time>2020-07-12T06:06:08Z</time>
      </trkpt>
      <trkpt lat="38.4928223770" lon="-6.3685106020">
        <ele>511.56</ele>
        <time>2020-07-12T06:06:09Z</time>
      </trkpt>
      <trkpt lat="38.4928427450" lon="-6.3685051538">
        <ele>511.08</ele>
        <time>2020-07-12T06:06:10Z</time>
      </trkpt>
      <trkpt lat="38.4929416515" lon="-6.3684507553">
        <ele>511.08</ele>
        <time>2020-07-12T06:06:16Z</time>
      </trkpt>
      <trkpt lat="38.4930786118" lon="-6.3683675230">
        <ele>510.60</ele>
        <time>2020-07-12T06:06:23Z</time>
      </trkpt>
      <trkpt lat="38.4931978863" lon="-6.3682927564">
        <ele>509.64</ele>
        <time>2020-07-12T06:06:29Z</time>
      </trkpt>
      <trkpt lat="38.4933620039" lon="-6.3682090212">
        <ele>508.67</ele>
        <time>2020-07-12T06:06:37Z</time>
      </trkpt>
      <trkpt lat="38.4935624152" lon="-6.3681233581">
        <ele>507.71</ele>
        <time>2020-07-12T06:06:45Z</time>
      </trkpt>
      <trkpt lat="38.4937502537" lon="-6.3680082746">
        <ele>507.23</ele>
        <time>2020-07-12T06:06:53Z</time>
      </trkpt>
      <trkpt lat="38.4938971885" lon="-6.3679181691">
        <ele>506.75</ele>
        <time>2020-07-12T06:07:00Z</time>
      </trkpt>
      <trkpt lat="38.4940784890" lon="-6.3678189274">
        <ele>506.27</ele>
        <time>2020-07-12T06:07:09Z</time>
      </trkpt>
      <trkpt lat="38.4942515753" lon="-6.3677172549">
        <ele>506.27</ele>
        <time>2020-07-12T06:07:18Z</time>
      </trkpt>
      <trkpt lat="38.4944172017" lon="-6.3676183484">
        <ele>506.75</ele>
        <time>2020-07-12T06:07:27Z</time>
      </trkpt>
      <trkpt lat="38.4945576824" lon="-6.3675388880">
        <ele>506.27</ele>
        <time>2020-07-12T06:07:35Z</time>
      </trkpt>
      <trkpt lat="38.4947238956" lon="-6.3674726710">
        <ele>506.75</ele>
        <time>2020-07-12T06:07:43Z</time>
      </trkpt>
      <trkpt lat="38.4949069563" lon="-6.3673676457">
        <ele>506.75</ele>
        <time>2020-07-12T06:07:52Z</time>
      </trkpt>
      <trkpt lat="38.4950747620" lon="-6.3672736008">
        <ele>507.71</ele>
        <time>2020-07-12T06:08:01Z</time>
      </trkpt>
      <trkpt lat="38.4952456690" lon="-6.3671818189">
        <ele>508.19</ele>
        <time>2020-07-12T06:08:10Z</time>
      </trkpt>
      <trkpt lat="38.4953783546" lon="-6.3671071362">
        <ele>508.19</ele>
        <time>2020-07-12T06:08:17Z</time>
      </trkpt>
      <trkpt lat="38.4955260437" lon="-6.3670153543">
        <ele>508.67</ele>
        <time>2020-07-12T06:08:25Z</time>
      </trkpt>
      <trkpt lat="38.4957163967" lon="-6.3669259194">
        <ele>508.19</ele>
        <time>2020-07-12T06:08:34Z</time>
      </trkpt>
      <trkpt lat="38.4959678538" lon="-6.3667820860">
        <ele>509.16</ele>
        <time>2020-07-12T06:08:45Z</time>
      </trkpt>
      <trkpt lat="38.4961524233" lon="-6.3666794077">
        <ele>509.16</ele>
        <time>2020-07-12T06:08:54Z</time>
      </trkpt>
      <trkpt lat="38.4963090811" lon="-6.3665976003">
        <ele>509.16</ele>
        <time>2020-07-12T06:09:01Z</time>
      </trkpt>
      <trkpt lat="38.4965138510" lon="-6.3664877135">
        <ele>509.64</ele>
        <time>2020-07-12T06:09:10Z</time>
      </trkpt>
      <trkpt lat="38.4967117477" lon="-6.3663730491">
        <ele>510.12</ele>
        <time>2020-07-12T06:09:19Z</time>
      </trkpt>
      <trkpt lat="38.4969013464" lon="-6.3662780821">
        <ele>510.12</ele>
        <time>2020-07-12T06:09:27Z</time>
      </trkpt>
      <trkpt lat="38.4971036017" lon="-6.3661810197">
        <ele>511.08</ele>
        <time>2020-07-12T06:09:36Z</time>
      </trkpt>
      <trkpt lat="38.4973317571" lon="-6.3660670258">
        <ele>511.56</ele>
        <time>2020-07-12T06:09:47Z</time>
      </trkpt>
      <trkpt lat="38.4975735750" lon="-6.3660183270">
        <ele>513.48</ele>
        <time>2020-07-12T06:09:57Z</time>
      </trkpt>
      <trkpt lat="38.4978283849" lon="-6.3659696281">
        <ele>514.44</ele>
        <time>2020-07-12T06:10:07Z</time>
      </trkpt>
      <trkpt lat="38.4979914967" lon="-6.3659299817">
        <ele>514.92</ele>
        <time>2020-07-12T06:10:14Z</time>
      </trkpt>
      <trkpt lat="38.4982263576" lon="-6.3659076858">
        <ele>515.40</ele>
        <time>2020-07-12T06:10:24Z</time>
      </trkpt>
      <trkpt lat="38.4983858652" lon="-6.3658797741">
        <ele>514.44</ele>
        <time>2020-07-12T06:10:30Z</time>
      </trkpt>
      <trkpt lat="38.4986286890" lon="-6.3658239506">
        <ele>513.48</ele>
        <time>2020-07-12T06:10:37Z</time>
      </trkpt>
      <trkpt lat="38.4988626279" lon="-6.3657826278">
        <ele>512.04</ele>
        <time>2020-07-12T06:10:44Z</time>
      </trkpt>
      <trkpt lat="38.4991291724" lon="-6.3657391258">
        <ele>511.08</ele>
        <time>2020-07-12T06:10:52Z</time>
      </trkpt>
      <trkpt lat="38.4994703159" lon="-6.3656764291">
        <ele>511.08</ele>
        <time>2020-07-12T06:11:01Z</time>
      </trkpt>
      <trkpt lat="38.4996989742" lon="-6.3656392973">
        <ele>510.60</ele>
        <time>2020-07-12T06:11:09Z</time>
      </trkpt>
      <trkpt lat="38.4999418817" lon="-6.3655962143">
        <ele>510.60</ele>
        <time>2020-07-12T06:11:17Z</time>
      </trkpt>
      <trkpt lat="38.5001893993" lon="-6.3655494433">
        <ele>510.60</ele>
        <time>2020-07-12T06:11:26Z</time>
      </trkpt>
      <trkpt lat="38.5004525911" lon="-6.3655000739">
        <ele>511.08</ele>
        <time>2020-07-12T06:11:35Z</time>
      </trkpt>
      <trkpt lat="38.5007041320" lon="-6.3654565718">
        <ele>511.08</ele>
        <time>2020-07-12T06:11:44Z</time>
      </trkpt>
      <trkpt lat="38.5009613726" lon="-6.3654046040">
        <ele>511.56</ele>
        <time>2020-07-12T06:11:53Z</time>
      </trkpt>
      <trkpt lat="38.5012223013" lon="-6.3653568272">
        <ele>512.52</ele>
        <time>2020-07-12T06:12:02Z</time>
      </trkpt>
      <trkpt lat="38.5015027598" lon="-6.3653363753">
        <ele>512.52</ele>
        <time>2020-07-12T06:12:12Z</time>
      </trkpt>
      <trkpt lat="38.5017259698" lon="-6.3653570786">
        <ele>513.00</ele>
        <time>2020-07-12T06:12:20Z</time>
      </trkpt>
      <trkpt lat="38.5020001419" lon="-6.3653561566">
        <ele>513.00</ele>
        <time>2020-07-12T06:12:30Z</time>
      </trkpt>
      <trkpt lat="38.5022889823" lon="-6.3653709926">
        <ele>513.48</ele>
        <time>2020-07-12T06:12:40Z</time>
      </trkpt>
      <trkpt lat="38.5025499947" lon="-6.3653756026">
        <ele>513.48</ele>
        <time>2020-07-12T06:12:49Z</time>
      </trkpt>
      <trkpt lat="38.5027562734" lon="-6.3653821405">
        <ele>513.96</ele>
        <time>2020-07-12T06:12:56Z</time>
      </trkpt>
      <trkpt lat="38.5030177888" lon="-6.3653774466">
        <ele>514.44</ele>
        <time>2020-07-12T06:13:06Z</time>
      </trkpt>
      <trkpt lat="38.5032424238" lon="-6.3653895166">
        <ele>514.44</ele>
        <time>2020-07-12T06:13:15Z</time>
      </trkpt>
      <trkpt lat="38.5034281667" lon="-6.3653948810">
        <ele>514.44</ele>
        <time>2020-07-12T06:13:23Z</time>
      </trkpt>
      <trkpt lat="38.5036171786" lon="-6.3653940428">
        <ele>513.96</ele>
        <time>2020-07-12T06:13:31Z</time>
      </trkpt>
      <trkpt lat="38.5037735011" lon="-6.3653924502">
        <ele>513.00</ele>
        <time>2020-07-12T06:13:37Z</time>
      </trkpt>
      <trkpt lat="38.5037977248" lon="-6.3653807994">
        <ele>513.00</ele>
        <time>2020-07-12T06:13:38Z</time>
      </trkpt>
      <trkpt lat="38.5038195178" lon="-6.3653771952">
        <ele>513.00</ele>
        <time>2020-07-12T06:13:39Z</time>
      </trkpt>
      <trkpt lat="38.5039946157" lon="-6.3652958069">
        <ele>512.04</ele>
        <time>2020-07-12T06:13:47Z</time>
      </trkpt>
      <trkpt lat="38.5041975416" lon="-6.3652111497">
        <ele>511.08</ele>
        <time>2020-07-12T06:13:54Z</time>
      </trkpt>
      <trkpt lat="38.5044090170" lon="-6.3650897797">
        <ele>509.64</ele>
        <time>2020-07-12T06:14:00Z</time>
      </trkpt>
      <trkpt lat="38.5048069060" lon="-6.3649088144">
        <ele>508.67</ele>
        <time>2020-07-12T06:14:10Z</time>
      </trkpt>
      <trkpt lat="38.5049690120" lon="-6.3648557570">
        <ele>507.23</ele>
        <time>2020-07-12T06:14:16Z</time>
      </trkpt>
      <trkpt lat="38.5051828343" lon="-6.3648695033">
        <ele>506.75</ele>
        <time>2020-07-12T06:14:23Z</time>
      </trkpt>
      <trkpt lat="38.5052751191" lon="-6.3648303598">
        <ele>506.75</ele>
        <time>2020-07-12T06:14:29Z</time>
      </trkpt>
      <trkpt lat="38.5052826628" lon="-6.3648202177">
        <ele>505.79</ele>
        <time>2020-07-12T06:14:45Z</time>
      </trkpt>
      <trkpt lat="38.5052852612" lon="-6.3648240734">
        <ele>505.79</ele>
        <time>2020-07-12T06:14:57Z</time>
      </trkpt>
      <trkpt lat="38.5052857641" lon="-6.3648235705">
        <ele>506.27</ele>
        <time>2020-07-12T06:15:09Z</time>
      </trkpt>
      <trkpt lat="38.5053389054" lon="-6.3647909649">
        <ele>506.27</ele>
        <time>2020-07-12T06:15:17Z</time>
      </trkpt>
      <trkpt lat="38.5055382270" lon="-6.3646874484">
        <ele>505.31</ele>
        <time>2020-07-12T06:15:25Z</time>
      </trkpt>
      <trkpt lat="38.5057022609" lon="-6.3645550981">
        <ele>504.35</ele>
        <time>2020-07-12T06:15:31Z</time>
      </trkpt>
      <trkpt lat="38.5059417319" lon="-6.3644112647">
        <ele>503.39</ele>
        <time>2020-07-12T06:15:40Z</time>
      </trkpt>
      <trkpt lat="38.5061266366" lon="-6.3642784953">
        <ele>502.91</ele>
        <time>2020-07-12T06:15:47Z</time>
      </trkpt>
      <trkpt lat="38.5063290596" lon="-6.3641740568">
        <ele>502.43</ele>
        <time>2020-07-12T06:15:55Z</time>
      </trkpt>
      <trkpt lat="38.5064699594" lon="-6.3641490787">
        <ele>501.95</ele>
        <time>2020-07-12T06:16:02Z</time>
      </trkpt>
      <trkpt lat="38.5065881442" lon="-6.3641303871">
        <ele>501.95</ele>
        <time>2020-07-12T06:16:08Z</time>
      </trkpt>
      <trkpt lat="38.5066076741" lon="-6.3641187362">
        <ele>501.95</ele>
        <time>2020-07-12T06:16:09Z</time>
      </trkpt>
      <trkpt lat="38.5067903157" lon="-6.3640003838">
        <ele>500.98</ele>
        <time>2020-07-12T06:16:18Z</time>
      </trkpt>
      <trkpt lat="38.5069411062" lon="-6.3639404532">
        <ele>500.02</ele>
        <time>2020-07-12T06:16:25Z</time>
      </trkpt>
      <trkpt lat="38.5071049724" lon="-6.3638676982">
        <ele>500.02</ele>
        <time>2020-07-12T06:16:32Z</time>
      </trkpt>
      <trkpt lat="38.5073018633" lon="-6.3638201728">
        <ele>498.58</ele>
        <time>2020-07-12T06:16:40Z</time>
      </trkpt>
      <trkpt lat="38.5074318666" lon="-6.3638260402">
        <ele>498.10</ele>
        <time>2020-07-12T06:16:46Z</time>
      </trkpt>
      <trkpt lat="38.5075634625" lon="-6.3638163172">
        <ele>498.10</ele>
        <time>2020-07-12T06:16:52Z</time>
      </trkpt>
      <trkpt lat="38.5077505466" lon="-6.3638418820">
        <ele>497.14</ele>
        <time>2020-07-12T06:17:00Z</time>
      </trkpt>
      <trkpt lat="38.5080272332" lon="-6.3638452347">
        <ele>496.18</ele>
        <time>2020-07-12T06:17:09Z</time>
      </trkpt>
      <trkpt lat="38.5084418859" lon="-6.3638615794">
        <ele>495.70</ele>
        <time>2020-07-12T06:17:22Z</time>
      </trkpt>
      <trkpt lat="38.5086843744" lon="-6.3639294729">
        <ele>495.70</ele>
        <time>2020-07-12T06:17:30Z</time>
      </trkpt>
      <trkpt lat="38.5089151282" lon="-6.3639673591">
        <ele>495.22</ele>
        <time>2020-07-12T06:17:37Z</time>
      </trkpt>
      <trkpt lat="38.5092869494" lon="-6.3640446402">
        <ele>494.74</ele>
        <time>2020-07-12T06:17:48Z</time>
      </trkpt>
      <trkpt lat="38.5095435195" lon="-6.3641300518">
        <ele>495.22</ele>
        <time>2020-07-12T06:17:57Z</time>
      </trkpt>
      <trkpt lat="38.5097602755" lon="-6.3642866258">
        <ele>495.70</ele>
        <time>2020-07-12T06:18:06Z</time>
      </trkpt>
      <trkpt lat="38.5100264009" lon="-6.3644100912">
        <ele>496.18</ele>
        <time>2020-07-12T06:18:15Z</time>
      </trkpt>
      <trkpt lat="38.5102941189" lon="-6.3645453751">
        <ele>495.70</ele>
        <time>2020-07-12T06:18:24Z</time>
      </trkpt>
      <trkpt lat="38.5106138885" lon="-6.3646927290">
        <ele>493.77</ele>
        <time>2020-07-12T06:18:33Z</time>
      </trkpt>
      <trkpt lat="38.5109508410" lon="-6.3648019452">
        <ele>493.29</ele>
        <time>2020-07-12T06:18:42Z</time>
      </trkpt>
      <trkpt lat="38.5113089159" lon="-6.3648858480">
        <ele>493.77</ele>
        <time>2020-07-12T06:18:52Z</time>
      </trkpt>
      <trkpt lat="38.5115889553" lon="-6.3649049588">
        <ele>493.29</ele>
        <time>2020-07-12T06:19:00Z</time>
      </trkpt>
      <trkpt lat="38.5116333794" lon="-6.3649025280">
        <ele>493.29</ele>
        <time>2020-07-12T06:19:01Z</time>
      </trkpt>
      <trkpt lat="38.5119342897" lon="-6.3648502249">
        <ele>493.29</ele>
        <time>2020-07-12T06:19:08Z</time>
      </trkpt>
      <trkpt lat="38.5119779594" lon="-6.3648421783">
        <ele>493.77</ele>
        <time>2020-07-12T06:19:09Z</time>
      </trkpt>
      <trkpt lat="38.5120206233" lon="-6.3648380712">
        <ele>493.77</ele>
        <time>2020-07-12T06:19:10Z</time>
      </trkpt>
      <trkpt lat="38.5120641254" lon="-6.3648327906">
        <ele>493.77</ele>
        <time>2020-07-12T06:19:11Z</time>
      </trkpt>
      <trkpt lat="38.5121077951" lon="-6.3648240734">
        <ele>493.77</ele>
        <time>2020-07-12T06:19:12Z</time>
      </trkpt>
      <trkpt lat="38.5124256369" lon="-6.3647527434">
        <ele>493.77</ele>
        <time>2020-07-12T06:19:20Z</time>
      </trkpt>
      <trkpt lat="38.5126274731" lon="-6.3646968361">
        <ele>492.33</ele>
        <time>2020-07-12T06:19:26Z</time>
      </trkpt>
      <trkpt lat="38.5126693826" lon="-6.3646892086">
        <ele>492.33</ele>
        <time>2020-07-12T06:19:27Z</time>
      </trkpt>
      <trkpt lat="38.5127091967" lon="-6.3646768872">
        <ele>491.85</ele>
        <time>2020-07-12T06:19:28Z</time>
      </trkpt>
      <trkpt lat="38.5128725599" lon="-6.3645942416">
        <ele>491.85</ele>
        <time>2020-07-12T06:19:32Z</time>
      </trkpt>
      <trkpt lat="38.5131551139" lon="-6.3643732108">
        <ele>490.89</ele>
        <time>2020-07-12T06:19:39Z</time>
      </trkpt>
      <trkpt lat="38.5135535058" lon="-6.3640268706">
        <ele>489.93</ele>
        <time>2020-07-12T06:19:48Z</time>
      </trkpt>
      <trkpt lat="38.5138839204" lon="-6.3637384493">
        <ele>489.45</ele>
        <time>2020-07-12T06:19:56Z</time>
      </trkpt>
      <trkpt lat="38.5141990799" lon="-6.3634463400">
        <ele>488.97</ele>
        <time>2020-07-12T06:20:04Z</time>
      </trkpt>
      <trkpt lat="38.5142360441" lon="-6.3634109683">
        <ele>488.49</ele>
        <time>2020-07-12T06:20:05Z</time>
      </trkpt>
      <trkpt lat="38.5142706614" lon="-6.3633693103">
        <ele>488.49</ele>
        <time>2020-07-12T06:20:06Z</time>
      </trkpt>
      <trkpt lat="38.5143029317" lon="-6.3633286580">
        <ele>488.49</ele>
        <time>2020-07-12T06:20:07Z</time>
      </trkpt>
      <trkpt lat="38.5143393092" lon="-6.3632860780">
        <ele>488.49</ele>
        <time>2020-07-12T06:20:08Z</time>
      </trkpt>
      <trkpt lat="38.5147194285" lon="-6.3628984150">
        <ele>487.53</ele>
        <time>2020-07-12T06:20:18Z</time>
      </trkpt>
      <trkpt lat="38.5151663516" lon="-6.3625566009">
        <ele>487.05</ele>
        <time>2020-07-12T06:20:28Z</time>
      </trkpt>
      <trkpt lat="38.5153479874" lon="-6.3623859454">
        <ele>486.56</ele>
        <time>2020-07-12T06:20:34Z</time>
      </trkpt>
      <trkpt lat="38.5153619014" lon="-6.3623758871">
        <ele>486.56</ele>
        <time>2020-07-12T06:20:35Z</time>
      </trkpt>
      <trkpt lat="38.5153769888" lon="-6.3623743784">
        <ele>486.56</ele>
        <time>2020-07-12T06:20:36Z</time>
      </trkpt>
      <trkpt lat="38.5153932497" lon="-6.3623768091">
        <ele>486.08</ele>
        <time>2020-07-12T06:20:37Z</time>
      </trkpt>
      <trkpt lat="38.5154049005" lon="-6.3623809163">
        <ele>486.08</ele>
        <time>2020-07-12T06:20:38Z</time>
      </trkpt>
      <trkpt lat="38.5154041462" lon="-6.3623815868">
        <ele>486.08</ele>
        <time>2020-07-12T06:20:43Z</time>
      </trkpt>
      <trkpt lat="38.5154189821" lon="-6.3623903040">
        <ele>485.60</ele>
        <time>2020-07-12T06:20:53Z</time>
      </trkpt>
      <trkpt lat="38.5154254362" lon="-6.3623909745">
        <ele>486.56</ele>
        <time>2020-07-12T06:21:04Z</time>
      </trkpt>
      <trkpt lat="38.5154326446" lon="-6.3623878732">
        <ele>487.05</ele>
        <time>2020-07-12T06:21:11Z</time>
      </trkpt>
      <trkpt lat="38.5154374223" lon="-6.3623781502">
        <ele>487.05</ele>
        <time>2020-07-12T06:21:20Z</time>
      </trkpt>
      <trkpt lat="38.5154395178" lon="-6.3623817544">
        <ele>486.56</ele>
        <time>2020-07-12T06:21:30Z</time>
      </trkpt>
      <trkpt lat="38.5154431220" lon="-6.3623887952">
        <ele>485.60</ele>
        <time>2020-07-12T06:21:52Z</time>
      </trkpt>
      <trkpt lat="38.5154467262" lon="-6.3623917289">
        <ele>485.12</ele>
        <time>2020-07-12T06:22:11Z</time>
      </trkpt>
      <trkpt lat="38.5154463071" lon="-6.3623841852">
        <ele>485.60</ele>
        <time>2020-07-12T06:22:27Z</time>
      </trkpt>
      <trkpt lat="38.5154086724" lon="-6.3623963390">
        <ele>485.60</ele>
        <time>2020-07-12T06:22:32Z</time>
      </trkpt>
      <trkpt lat="38.5153180640" lon="-6.3624712732">
        <ele>485.60</ele>
        <time>2020-07-12T06:22:41Z</time>
      </trkpt>
      <trkpt lat="38.5152837820" lon="-6.3624998555">
        <ele>486.08</ele>
        <time>2020-07-12T06:22:45Z</time>
      </trkpt>
      <trkpt lat="38.5152761545" lon="-6.3625075668">
        <ele>486.08</ele>
        <time>2020-07-12T06:22:46Z</time>
      </trkpt>
      <trkpt lat="38.5152667668" lon="-6.3625042140">
        <ele>486.08</ele>
        <time>2020-07-12T06:22:47Z</time>
      </trkpt>
      <trkpt lat="38.5152621567" lon="-6.3624781463">
        <ele>486.08</ele>
        <time>2020-07-12T06:22:52Z</time>
      </trkpt>
      <trkpt lat="38.5152758192" lon="-6.3624711893">
        <ele>486.08</ele>
        <time>2020-07-12T06:22:56Z</time>
      </trkpt>
      <trkpt lat="38.5152916610" lon="-6.3624615502">
        <ele>486.08</ele>
        <time>2020-07-12T06:22:57Z</time>
      </trkpt>
      <trkpt lat="38.5153053235" lon="-6.3624509051">
        <ele>486.08</ele>
        <time>2020-07-12T06:22:58Z</time>
      </trkpt>
      <trkpt lat="38.5153241828" lon="-6.3624332193">
        <ele>486.08</ele>
        <time>2020-07-12T06:22:59Z</time>
      </trkpt>
      <trkpt lat="38.5153380968" lon="-6.3624116778">
        <ele>486.08</ele>
        <time>2020-07-12T06:23:00Z</time>
      </trkpt>
      <trkpt lat="38.5153481551" lon="-6.3623816706">
        <ele>486.08</ele>
        <time>2020-07-12T06:23:01Z</time>
      </trkpt>
      <trkpt lat="38.5153534357" lon="-6.3623539265">
        <ele>486.08</ele>
        <time>2020-07-12T06:23:02Z</time>
      </trkpt>
      <trkpt lat="38.5153550282" lon="-6.3623213209">
        <ele>486.08</ele>
        <time>2020-07-12T06:23:03Z</time>
      </trkpt>
      <trkpt lat="38.5153550282" lon="-6.3622933254">
        <ele>486.08</ele>
        <time>2020-07-12T06:23:04Z</time>
      </trkpt>
      <trkpt lat="38.5152805131" lon="-6.3620404433">
        <ele>487.05</ele>
        <time>2020-07-12T06:23:12Z</time>
      </trkpt>
      <trkpt lat="38.5152557027" lon="-6.3619769085">
        <ele>487.05</ele>
        <time>2020-07-12T06:23:15Z</time>
      </trkpt>
      <trkpt lat="38.5152859613" lon="-6.3619985338">
        <ele>487.53</ele>
        <time>2020-07-12T06:23:20Z</time>
      </trkpt>
      <trkpt lat="38.5152898170" lon="-6.3620154653">
        <ele>487.53</ele>
        <time>2020-07-12T06:23:21Z</time>
      </trkpt>
      <trkpt lat="38.5153552797" lon="-6.3622214086">
        <ele>488.01</ele>
        <time>2020-07-12T06:23:27Z</time>
      </trkpt>
      <trkpt lat="38.5154147074" lon="-6.3623835146">
        <ele>487.53</ele>
        <time>2020-07-12T06:23:33Z</time>
      </trkpt>
      <trkpt lat="38.5154291242" lon="-6.3623931538">
        <ele>487.53</ele>
        <time>2020-07-12T06:23:34Z</time>
      </trkpt>
      <trkpt lat="38.5154355783" lon="-6.3623835985">
        <ele>486.56</ele>
        <time>2020-07-12T06:23:39Z</time>
      </trkpt>
      <trkpt lat="38.5154337343" lon="-6.3623838499">
        <ele>486.56</ele>
        <time>2020-07-12T06:23:51Z</time>
      </trkpt>
      <trkpt lat="38.5154162161" lon="-6.3623542618">
        <ele>487.05</ele>
        <time>2020-07-12T06:23:58Z</time>
      </trkpt>
      <trkpt lat="38.5154023860" lon="-6.3623413537">
        <ele>487.05</ele>
        <time>2020-07-12T06:24:00Z</time>
      </trkpt>
      <trkpt lat="38.5153945070" lon="-6.3623284455">
        <ele>487.05</ele>
        <time>2020-07-12T06:24:01Z</time>
      </trkpt>
      <trkpt lat="38.5153874662" lon="-6.3623146992">
        <ele>487.05</ele>
        <time>2020-07-12T06:24:02Z</time>
      </trkpt>
      <trkpt lat="38.5153798386" lon="-6.3622948341">
        <ele>487.53</ele>
        <time>2020-07-12T06:24:03Z</time>
      </trkpt>
      <trkpt lat="38.5153740551" lon="-6.3622722030">
        <ele>487.53</ele>
        <time>2020-07-12T06:24:04Z</time>
      </trkpt>
      <trkpt lat="38.5153054073" lon="-6.3620644156">
        <ele>488.01</ele>
        <time>2020-07-12T06:24:11Z</time>
      </trkpt>
      <trkpt lat="38.5151693691" lon="-6.3617819455">
        <ele>488.97</ele>
        <time>2020-07-12T06:24:19Z</time>
      </trkpt>
      <trkpt lat="38.5149860568" lon="-6.3615154848">
        <ele>488.49</ele>
        <time>2020-07-12T06:24:28Z</time>
      </trkpt>
      <trkpt lat="38.5148683749" lon="-6.3611911051">
        <ele>488.01</ele>
        <time>2020-07-12T06:24:37Z</time>
      </trkpt>
      <trkpt lat="38.5147833824" lon="-6.3608333655">
        <ele>486.56</ele>
        <time>2020-07-12T06:24:45Z</time>
      </trkpt>
      <trkpt lat="38.5146961268" lon="-6.3605035376">
        <ele>485.60</ele>
        <time>2020-07-12T06:24:52Z</time>
      </trkpt>
      <trkpt lat="38.5146931931" lon="-6.3604500610">
        <ele>485.12</ele>
        <time>2020-07-12T06:24:53Z</time>
      </trkpt>
      <trkpt lat="38.5146953724" lon="-6.3603901304">
        <ele>484.64</ele>
        <time>2020-07-12T06:24:54Z</time>
      </trkpt>
      <trkpt lat="38.5147193447" lon="-6.3599157985">
        <ele>483.68</ele>
        <time>2020-07-12T06:25:02Z</time>
      </trkpt>
      <trkpt lat="38.5147420596" lon="-6.3596215937">
        <ele>483.20</ele>
        <time>2020-07-12T06:25:07Z</time>
      </trkpt>
      <trkpt lat="38.5147568956" lon="-6.3595711347">
        <ele>483.20</ele>
        <time>2020-07-12T06:25:08Z</time>
      </trkpt>
      <trkpt lat="38.5147739109" lon="-6.3595192507">
        <ele>483.20</ele>
        <time>2020-07-12T06:25:09Z</time>
      </trkpt>
      <trkpt lat="38.5147865675" lon="-6.3594647683">
        <ele>482.72</ele>
        <time>2020-07-12T06:25:10Z</time>
      </trkpt>
      <trkpt lat="38.5147929378" lon="-6.3594179973">
        <ele>482.72</ele>
        <time>2020-07-12T06:25:11Z</time>
      </trkpt>
      <trkpt lat="38.5147961229" lon="-6.3593722321">
        <ele>483.20</ele>
        <time>2020-07-12T06:25:12Z</time>
      </trkpt>
      <trkpt lat="38.5147951171" lon="-6.3590301666">
        <ele>484.16</ele>
        <time>2020-07-12T06:25:20Z</time>
      </trkpt>
      <trkpt lat="38.5147748329" lon="-6.3586152624">
        <ele>484.64</ele>
        <time>2020-07-12T06:25:30Z</time>
      </trkpt>
      <trkpt lat="38.5147064365" lon="-6.3581791520">
        <ele>486.08</ele>
        <time>2020-07-12T06:25:41Z</time>
      </trkpt>
      <trkpt lat="38.5146879125" lon="-6.3578490727">
        <ele>486.56</ele>
        <time>2020-07-12T06:25:49Z</time>
      </trkpt>
      <trkpt lat="38.5146568995" lon="-6.3575009722">
        <ele>486.56</ele>
        <time>2020-07-12T06:25:57Z</time>
      </trkpt>
      <trkpt lat="38.5146098770" lon="-6.3570645265">
        <ele>486.56</ele>
        <time>2020-07-12T06:26:07Z</time>
      </trkpt>
      <trkpt lat="38.5146591626" lon="-6.3568601757">
        <ele>485.60</ele>
        <time>2020-07-12T06:26:13Z</time>
      </trkpt>
      <trkpt lat="38.5146519542" lon="-6.3568389695">
        <ele>485.12</ele>
        <time>2020-07-12T06:26:14Z</time>
      </trkpt>
      <trkpt lat="38.5146393813" lon="-6.3568226248">
        <ele>485.12</ele>
        <time>2020-07-12T06:26:15Z</time>
      </trkpt>
      <trkpt lat="38.5146262217" lon="-6.3568108063">
        <ele>485.12</ele>
        <time>2020-07-12T06:26:16Z</time>
      </trkpt>
      <trkpt lat="38.5146114696" lon="-6.3567977306">
        <ele>485.12</ele>
        <time>2020-07-12T06:26:17Z</time>
      </trkpt>
      <trkpt lat="38.5145955440" lon="-6.3567802962">
        <ele>484.64</ele>
        <time>2020-07-12T06:26:18Z</time>
      </trkpt>
      <trkpt lat="38.5145244654" lon="-6.3566396479">
        <ele>484.64</ele>
        <time>2020-07-12T06:26:24Z</time>
      </trkpt>
      <trkpt lat="38.5143473558" lon="-6.3563371450">
        <ele>484.64</ele>
        <time>2020-07-12T06:26:35Z</time>
      </trkpt>
      <trkpt lat="38.5141995829" lon="-6.3561163656">
        <ele>484.64</ele>
        <time>2020-07-12T06:26:42Z</time>
      </trkpt>
      <trkpt lat="38.5141085554" lon="-6.3560165372">
        <ele>484.64</ele>
        <time>2020-07-12T06:26:45Z</time>
      </trkpt>
      <trkpt lat="38.5140747763" lon="-6.3559896313">
        <ele>484.64</ele>
        <time>2020-07-12T06:26:46Z</time>
      </trkpt>
      <trkpt lat="38.5140389018" lon="-6.3559664134">
        <ele>484.64</ele>
        <time>2020-07-12T06:26:47Z</time>
      </trkpt>
      <trkpt lat="38.5140017699" lon="-6.3559519965">
        <ele>484.64</ele>
        <time>2020-07-12T06:26:48Z</time>
      </trkpt>
      <trkpt lat="38.5138789751" lon="-6.3559368253">
        <ele>484.64</ele>
        <time>2020-07-12T06:26:51Z</time>
      </trkpt>
      <trkpt lat="38.5137968324" lon="-6.3559565227">
        <ele>485.12</ele>
        <time>2020-07-12T06:26:53Z</time>
      </trkpt>
      <trkpt lat="38.5134395957" lon="-6.3561073132">
        <ele>484.64</ele>
        <time>2020-07-12T06:27:02Z</time>
      </trkpt>
      <trkpt lat="38.5130846221" lon="-6.3562607020">
        <ele>484.64</ele>
        <time>2020-07-12T06:27:11Z</time>
      </trkpt>
      <trkpt lat="38.5127899144" lon="-6.3563576806">
        <ele>484.64</ele>
        <time>2020-07-12T06:27:19Z</time>
      </trkpt>
      <trkpt lat="38.5125642736" lon="-6.3563100714">
        <ele>485.60</ele>
        <time>2020-07-12T06:27:26Z</time>
      </trkpt>
      <trkpt lat="38.5123838112" lon="-6.3561216462">
        <ele>487.53</ele>
        <time>2020-07-12T06:27:34Z</time>
      </trkpt>
      <trkpt lat="38.5122906882" lon="-6.3558416069">
        <ele>489.45</ele>
        <time>2020-07-12T06:27:42Z</time>
      </trkpt>
      <trkpt lat="38.5122352839" lon="-6.3554916624">
        <ele>490.41</ele>
        <time>2020-07-12T06:27:52Z</time>
      </trkpt>
      <trkpt lat="38.5121738445" lon="-6.3551679533">
        <ele>489.45</ele>
        <time>2020-07-12T06:28:00Z</time>
      </trkpt>
      <trkpt lat="38.5122403130" lon="-6.3548472617">
        <ele>487.05</ele>
        <time>2020-07-12T06:28:05Z</time>
      </trkpt>
      <trkpt lat="38.5124042630" lon="-6.3547061104">
        <ele>485.12</ele>
        <time>2020-07-12T06:28:08Z</time>
      </trkpt>
      <trkpt lat="38.5126457456" lon="-6.3547258917">
        <ele>483.20</ele>
        <time>2020-07-12T06:28:11Z</time>
      </trkpt>
      <trkpt lat="38.5129679460" lon="-6.3548000716">
        <ele>481.28</ele>
        <time>2020-07-12T06:28:15Z</time>
      </trkpt>
      <trkpt lat="38.5131533537" lon="-6.3545907754">
        <ele>480.32</ele>
        <time>2020-07-12T06:28:18Z</time>
      </trkpt>
      <trkpt lat="38.5131837800" lon="-6.3543404080">
        <ele>478.87</ele>
        <time>2020-07-12T06:28:21Z</time>
      </trkpt>
      <trkpt lat="38.5131696984" lon="-6.3542845007">
        <ele>478.39</ele>
        <time>2020-07-12T06:28:22Z</time>
      </trkpt>
      <trkpt lat="38.5131459776" lon="-6.3542434294">
        <ele>478.39</ele>
        <time>2020-07-12T06:28:23Z</time>
      </trkpt>
      <trkpt lat="38.5131246038" lon="-6.3542272523">
        <ele>478.39</ele>
        <time>2020-07-12T06:28:24Z</time>
      </trkpt>
      <trkpt lat="38.5130926687" lon="-6.3542158529">
        <ele>478.39</ele>
        <time>2020-07-12T06:28:25Z</time>
      </trkpt>
      <trkpt lat="38.5130598117" lon="-6.3542161044">
        <ele>478.39</ele>
        <time>2020-07-12T06:28:26Z</time>
      </trkpt>
      <trkpt lat="38.5130326543" lon="-6.3542236481">
        <ele>478.39</ele>
        <time>2020-07-12T06:28:27Z</time>
      </trkpt>
      <trkpt lat="38.5130028985" lon="-6.3542321138">
        <ele>478.39</ele>
        <time>2020-07-12T06:28:28Z</time>
      </trkpt>
      <trkpt lat="38.5129806027" lon="-6.3542378135">
        <ele>478.87</ele>
        <time>2020-07-12T06:28:29Z</time>
      </trkpt>
      <trkpt lat="38.5129649285" lon="-6.3542409986">
        <ele>478.87</ele>
        <time>2020-07-12T06:28:30Z</time>
      </trkpt>
      <trkpt lat="38.5129527748" lon="-6.3542324491">
        <ele>479.35</ele>
        <time>2020-07-12T06:28:31Z</time>
      </trkpt>
      <trkpt lat="38.5129452311" lon="-6.3542130031">
        <ele>479.35</ele>
        <time>2020-07-12T06:28:32Z</time>
      </trkpt>
      <trkpt lat="38.5129459016" lon="-6.3541837502">
        <ele>479.35</ele>
        <time>2020-07-12T06:28:33Z</time>
      </trkpt>
      <trkpt lat="38.5129499249" lon="-6.3541524857">
        <ele>478.87</ele>
        <time>2020-07-12T06:28:34Z</time>
      </trkpt>
      <trkpt lat="38.5128943529" lon="-6.3539724424">
        <ele>479.35</ele>
        <time>2020-07-12T06:28:39Z</time>
      </trkpt>
      <trkpt lat="38.5127262957" lon="-6.3537170459">
        <ele>480.80</ele>
        <time>2020-07-12T06:28:48Z</time>
      </trkpt>
      <trkpt lat="38.5125979688" lon="-6.3535235915">
        <ele>482.24</ele>
        <time>2020-07-12T06:28:56Z</time>
      </trkpt>
      <trkpt lat="38.5124944523" lon="-6.3533689454">
        <ele>483.20</ele>
        <time>2020-07-12T06:29:04Z</time>
      </trkpt>
      <trkpt lat="38.5124782752" lon="-6.3533510920">
        <ele>483.20</ele>
        <time>2020-07-12T06:29:05Z</time>
      </trkpt>
      <trkpt lat="38.5124634393" lon="-6.3533349987">
        <ele>483.20</ele>
        <time>2020-07-12T06:29:06Z</time>
      </trkpt>
      <trkpt lat="38.5123097152" lon="-6.3532002177">
        <ele>484.64</ele>
        <time>2020-07-12T06:29:15Z</time>
      </trkpt>
      <trkpt lat="38.5121469386" lon="-6.3530880678">
        <ele>486.08</ele>
        <time>2020-07-12T06:29:24Z</time>
      </trkpt>
      <trkpt lat="38.5120113194" lon="-6.3529623393">
        <ele>487.05</ele>
        <time>2020-07-12T06:29:31Z</time>
      </trkpt>
      <trkpt lat="38.5118648037" lon="-6.3526826352">
        <ele>487.05</ele>
        <time>2020-07-12T06:29:41Z</time>
      </trkpt>
      <trkpt lat="38.5117707588" lon="-6.3524169289">
        <ele>487.53</ele>
        <time>2020-07-12T06:29:49Z</time>
      </trkpt>
      <trkpt lat="38.5116764624" lon="-6.3521523960">
        <ele>487.53</ele>
        <time>2020-07-12T06:29:57Z</time>
      </trkpt>
      <trkpt lat="38.5115850158" lon="-6.3518807385">
        <ele>488.01</ele>
        <time>2020-07-12T06:30:05Z</time>
      </trkpt>
      <trkpt lat="38.5114458762" lon="-6.3515659980">
        <ele>486.56</ele>
        <time>2020-07-12T06:30:13Z</time>
      </trkpt>
      <trkpt lat="38.5114233289" lon="-6.3515150361">
        <ele>486.56</ele>
        <time>2020-07-12T06:30:14Z</time>
      </trkpt>
      <trkpt lat="38.5112763103" lon="-6.3511991221">
        <ele>485.60</ele>
        <time>2020-07-12T06:30:20Z</time>
      </trkpt>
      <trkpt lat="38.5112502426" lon="-6.3511485793">
        <ele>485.60</ele>
        <time>2020-07-12T06:30:21Z</time>
      </trkpt>
      <trkpt lat="38.5112022143" lon="-6.3510469068">
        <ele>485.12</ele>
        <time>2020-07-12T06:30:23Z</time>
      </trkpt>
      <trkpt lat="38.5110407788" lon="-6.3507205155">
        <ele>485.12</ele>
        <time>2020-07-12T06:30:31Z</time>
      </trkpt>
      <trkpt lat="38.5109079257" lon="-6.3503445871">
        <ele>485.60</ele>
        <time>2020-07-12T06:30:40Z</time>
      </trkpt>
      <trkpt lat="38.5108030681" lon="-6.3500161842">
        <ele>485.60</ele>
        <time>2020-07-12T06:30:48Z</time>
      </trkpt>
      <trkpt lat="38.5107683670" lon="-6.3497136813">
        <ele>485.12</ele>
        <time>2020-07-12T06:30:56Z</time>
      </trkpt>
      <trkpt lat="38.5108718835" lon="-6.3495306205">
        <ele>484.16</ele>
        <time>2020-07-12T06:31:03Z</time>
      </trkpt>
      <trkpt lat="38.5108562093" lon="-6.3494000304">
        <ele>484.16</ele>
        <time>2020-07-12T06:31:08Z</time>
      </trkpt>
      <trkpt lat="38.5107609909" lon="-6.3492183946">
        <ele>484.16</ele>
        <time>2020-07-12T06:31:15Z</time>
      </trkpt>
      <trkpt lat="38.5106430575" lon="-6.3490088470">
        <ele>484.16</ele>
        <time>2020-07-12T06:31:23Z</time>
      </trkpt>
      <trkpt lat="38.5105268843" lon="-6.3487915043">
        <ele>483.68</ele>
        <time>2020-07-12T06:31:30Z</time>
      </trkpt>
      <trkpt lat="38.5104167461" lon="-6.3485619240">
        <ele>482.72</ele>
        <time>2020-07-12T06:31:37Z</time>
      </trkpt>
      <trkpt lat="38.5102839768" lon="-6.3483060244">
        <ele>481.28</ele>
        <time>2020-07-12T06:31:44Z</time>
      </trkpt>
      <trkpt lat="38.5101125669" lon="-6.3479712512">
        <ele>479.84</ele>
        <time>2020-07-12T06:31:53Z</time>
      </trkpt>
      <trkpt lat="38.5099680629" lon="-6.3476401661">
        <ele>478.39</ele>
        <time>2020-07-12T06:32:01Z</time>
      </trkpt>
      <trkpt lat="38.5098602716" lon="-6.3472924009">
        <ele>477.43</ele>
        <time>2020-07-12T06:32:09Z</time>
      </trkpt>
      <trkpt lat="38.5097798053" lon="-6.3470001239">
        <ele>475.51</ele>
        <time>2020-07-12T06:32:16Z</time>
      </trkpt>
      <trkpt lat="38.5096486285" lon="-6.3466826174">
        <ele>474.07</ele>
        <time>2020-07-12T06:32:24Z</time>
      </trkpt>
      <trkpt lat="38.5094187967" lon="-6.3463173341">
        <ele>473.11</ele>
        <time>2020-07-12T06:32:34Z</time>
      </trkpt>
      <trkpt lat="38.5092772264" lon="-6.3460280746">
        <ele>473.59</ele>
        <time>2020-07-12T06:32:42Z</time>
      </trkpt>
      <trkpt lat="38.5091593768" lon="-6.3457758632">
        <ele>473.11</ele>
        <time>2020-07-12T06:32:50Z</time>
      </trkpt>
      <trkpt lat="38.5091665853" lon="-6.3457433414">
        <ele>473.11</ele>
        <time>2020-07-12T06:32:51Z</time>
      </trkpt>
      <trkpt lat="38.5091878753" lon="-6.3457086403">
        <ele>472.63</ele>
        <time>2020-07-12T06:32:52Z</time>
      </trkpt>
      <trkpt lat="38.5092090815" lon="-6.3456933014">
        <ele>472.63</ele>
        <time>2020-07-12T06:32:53Z</time>
      </trkpt>
      <trkpt lat="38.5092462134" lon="-6.3456781302">
        <ele>472.14</ele>
        <time>2020-07-12T06:32:54Z</time>
      </trkpt>
      <trkpt lat="38.5092841834" lon="-6.3456632942">
        <ele>472.14</ele>
        <time>2020-07-12T06:32:55Z</time>
      </trkpt>
      <trkpt lat="38.5093221534" lon="-6.3456471171">
        <ele>472.14</ele>
        <time>2020-07-12T06:32:56Z</time>
      </trkpt>
      <trkpt lat="38.5097160190" lon="-6.3454952370">
        <ele>471.18</ele>
        <time>2020-07-12T06:33:05Z</time>
      </trkpt>
      <trkpt lat="38.5101730842" lon="-6.3453193009">
        <ele>469.74</ele>
        <time>2020-07-12T06:33:15Z</time>
      </trkpt>
      <trkpt lat="38.5103018302" lon="-6.3452662434">
        <ele>469.74</ele>
        <time>2020-07-12T06:33:18Z</time>
      </trkpt>
      <trkpt lat="38.5103423148" lon="-6.3452417683">
        <ele>469.74</ele>
        <time>2020-07-12T06:33:19Z</time>
      </trkpt>
      <trkpt lat="38.5103770997" lon="-6.3452213164">
        <ele>469.74</ele>
        <time>2020-07-12T06:33:20Z</time>
      </trkpt>
      <trkpt lat="38.5104201827" lon="-6.3451982662">
        <ele>469.74</ele>
        <time>2020-07-12T06:33:21Z</time>
      </trkpt>
      <trkpt lat="38.5104579851" lon="-6.3451759703">
        <ele>469.74</ele>
        <time>2020-07-12T06:33:22Z</time>
      </trkpt>
      <trkpt lat="38.5108675249" lon="-6.3449786603">
        <ele>469.26</ele>
        <time>2020-07-12T06:33:32Z</time>
      </trkpt>
      <trkpt lat="38.5110423714" lon="-6.3448951766">
        <ele>469.26</ele>
        <time>2020-07-12T06:33:36Z</time>
      </trkpt>
      <trkpt lat="38.5110874660" lon="-6.3448768202">
        <ele>469.26</ele>
        <time>2020-07-12T06:33:37Z</time>
      </trkpt>
      <trkpt lat="38.5111269448" lon="-6.3448607270">
        <ele>469.26</ele>
        <time>2020-07-12T06:33:38Z</time>
      </trkpt>
      <trkpt lat="38.5115738679" lon="-6.3447109424">
        <ele>468.78</ele>
        <time>2020-07-12T06:33:48Z</time>
      </trkpt>
      <trkpt lat="38.5119412467" lon="-6.3446144667">
        <ele>468.78</ele>
        <time>2020-07-12T06:33:56Z</time>
      </trkpt>
      <trkpt lat="38.5123243835" lon="-6.3445210923">
        <ele>468.30</ele>
        <time>2020-07-12T06:34:04Z</time>
      </trkpt>
      <trkpt lat="38.5128013976" lon="-6.3444326632">
        <ele>467.34</ele>
        <time>2020-07-12T06:34:14Z</time>
      </trkpt>
      <trkpt lat="38.5132093448" lon="-6.3443572260">
        <ele>466.38</ele>
        <time>2020-07-12T06:34:23Z</time>
      </trkpt>
      <trkpt lat="38.5134061519" lon="-6.3443135563">
        <ele>465.42</ele>
        <time>2020-07-12T06:34:27Z</time>
      </trkpt>
      <trkpt lat="38.5134566110" lon="-6.3443043362">
        <ele>464.93</ele>
        <time>2020-07-12T06:34:28Z</time>
      </trkpt>
      <trkpt lat="38.5136702657" lon="-6.3442334253">
        <ele>463.97</ele>
        <time>2020-07-12T06:34:33Z</time>
      </trkpt>
      <trkpt lat="38.5138001014" lon="-6.3441831339">
        <ele>463.49</ele>
        <time>2020-07-12T06:34:36Z</time>
      </trkpt>
      <trkpt lat="38.5138466209" lon="-6.3441707287">
        <ele>463.01</ele>
        <time>2020-07-12T06:34:37Z</time>
      </trkpt>
      <trkpt lat="38.5138906259" lon="-6.3441586588">
        <ele>463.01</ele>
        <time>2020-07-12T06:34:38Z</time>
      </trkpt>
      <trkpt lat="38.5143015068" lon="-6.3440833054">
        <ele>460.61</ele>
        <time>2020-07-12T06:34:47Z</time>
      </trkpt>
      <trkpt lat="38.5146779381" lon="-6.3440856524">
        <ele>458.69</ele>
        <time>2020-07-12T06:34:54Z</time>
      </trkpt>
      <trkpt lat="38.5147371981" lon="-6.3440957107">
        <ele>458.21</ele>
        <time>2020-07-12T06:34:55Z</time>
      </trkpt>
      <trkpt lat="38.5147857293" lon="-6.3441050984">
        <ele>458.21</ele>
        <time>2020-07-12T06:34:56Z</time>
      </trkpt>
      <trkpt lat="38.5152985342" lon="-6.3442514464">
        <ele>456.76</ele>
        <time>2020-07-12T06:35:05Z</time>
      </trkpt>
      <trkpt lat="38.5154349077" lon="-6.3443464134">
        <ele>456.28</ele>
        <time>2020-07-12T06:35:08Z</time>
      </trkpt>
      <trkpt lat="38.5154737998" lon="-6.3443868980">
        <ele>455.80</ele>
        <time>2020-07-12T06:35:09Z</time>
      </trkpt>
      <trkpt lat="38.5155078303" lon="-6.3444221858">
        <ele>455.80</ele>
        <time>2020-07-12T06:35:10Z</time>
      </trkpt>
      <trkpt lat="38.5155456327" lon="-6.3444529474">
        <ele>455.32</ele>
        <time>2020-07-12T06:35:11Z</time>
      </trkpt>
      <trkpt lat="38.5155896377" lon="-6.3444832899">
        <ele>454.84</ele>
        <time>2020-07-12T06:35:12Z</time>
      </trkpt>
      <trkpt lat="38.5159361456" lon="-6.3447033986">
        <ele>453.40</ele>
        <time>2020-07-12T06:35:19Z</time>
      </trkpt>
      <trkpt lat="38.5160819907" lon="-6.3447779976">
        <ele>453.40</ele>
        <time>2020-07-12T06:35:22Z</time>
      </trkpt>
      <trkpt lat="38.5165391397" lon="-6.3449430373">
        <ele>452.44</ele>
        <time>2020-07-12T06:35:32Z</time>
      </trkpt>
      <trkpt lat="38.5167149920" lon="-6.3450107630">
        <ele>451.96</ele>
        <time>2020-07-12T06:35:36Z</time>
      </trkpt>
      <trkpt lat="38.5167605057" lon="-6.3450143673">
        <ele>451.96</ele>
        <time>2020-07-12T06:35:37Z</time>
      </trkpt>
      <trkpt lat="38.5168073606" lon="-6.3450063206">
        <ele>451.96</ele>
        <time>2020-07-12T06:35:38Z</time>
      </trkpt>
      <trkpt lat="38.5170263797" lon="-6.3449489884">
        <ele>452.92</ele>
        <time>2020-07-12T06:35:43Z</time>
      </trkpt>
      <trkpt lat="38.5171134677" lon="-6.3449504972">
        <ele>452.92</ele>
        <time>2020-07-12T06:35:45Z</time>
      </trkpt>
      <trkpt lat="38.5171598196" lon="-6.3449588791">
        <ele>452.92</ele>
        <time>2020-07-12T06:35:46Z</time>
      </trkpt>
      <trkpt lat="38.5175585467" lon="-6.3450716157">
        <ele>452.92</ele>
        <time>2020-07-12T06:35:54Z</time>
      </trkpt>
      <trkpt lat="38.5180104151" lon="-6.3452041335">
        <ele>451.48</ele>
        <time>2020-07-12T06:36:03Z</time>
      </trkpt>
      <trkpt lat="38.5182219744" lon="-6.3452548441">
        <ele>451.48</ele>
        <time>2020-07-12T06:36:07Z</time>
      </trkpt>
      <trkpt lat="38.5185713321" lon="-6.3451993559">
        <ele>451.96</ele>
        <time>2020-07-12T06:36:14Z</time>
      </trkpt>
      <trkpt lat="38.5191036668" lon="-6.3451233320">
        <ele>450.52</ele>
        <time>2020-07-12T06:36:24Z</time>
      </trkpt>
      <trkpt lat="38.5196409468" lon="-6.3450013753">
        <ele>449.55</ele>
        <time>2020-07-12T06:36:33Z</time>
      </trkpt>
      <trkpt lat="38.5200291965" lon="-6.3448748924">
        <ele>449.07</ele>
        <time>2020-07-12T06:36:40Z</time>
      </trkpt>
      <trkpt lat="38.5204573441" lon="-6.3446645904">
        <ele>448.11</ele>
        <time>2020-07-12T06:36:49Z</time>
      </trkpt>
      <trkpt lat="38.5205100663" lon="-6.3446316496">
        <ele>448.11</ele>
        <time>2020-07-12T06:36:50Z</time>
      </trkpt>
      <trkpt lat="38.5205500480" lon="-6.3445997983">
        <ele>448.11</ele>
        <time>2020-07-12T06:36:51Z</time>
      </trkpt>
      <trkpt lat="38.5205939692" lon="-6.3445606548">
        <ele>448.11</ele>
        <time>2020-07-12T06:36:52Z</time>
      </trkpt>
      <trkpt lat="38.5207839031" lon="-6.3443723135">
        <ele>447.63</ele>
        <time>2020-07-12T06:36:57Z</time>
      </trkpt>
      <trkpt lat="38.5209460929" lon="-6.3441555575">
        <ele>447.63</ele>
        <time>2020-07-12T06:37:02Z</time>
      </trkpt>
      <trkpt lat="38.5209983960" lon="-6.3440687209">
        <ele>447.63</ele>
        <time>2020-07-12T06:37:04Z</time>
      </trkpt>
      <trkpt lat="38.5210305825" lon="-6.3440315053">
        <ele>447.63</ele>
        <time>2020-07-12T06:37:05Z</time>
      </trkpt>
      <trkpt lat="38.5210676305" lon="-6.3439942058">
        <ele>447.63</ele>
        <time>2020-07-12T06:37:06Z</time>
      </trkpt>
      <trkpt lat="38.5213744920" lon="-6.3437025994">
        <ele>447.15</ele>
        <time>2020-07-12T06:37:15Z</time>
      </trkpt>
      <trkpt lat="38.5216893163" lon="-6.3433353882">
        <ele>447.15</ele>
        <time>2020-07-12T06:37:25Z</time>
      </trkpt>
      <trkpt lat="38.5220349021" lon="-6.3429444563">
        <ele>448.59</ele>
        <time>2020-07-12T06:37:36Z</time>
      </trkpt>
      <trkpt lat="38.5223717708" lon="-6.3426419534">
        <ele>450.03</ele>
        <time>2020-07-12T06:37:46Z</time>
      </trkpt>
      <trkpt lat="38.5226477031" lon="-6.3424917497">
        <ele>450.52</ele>
        <time>2020-07-12T06:37:54Z</time>
      </trkpt>
      <trkpt lat="38.5227247328" lon="-6.3424528576">
        <ele>450.52</ele>
        <time>2020-07-12T06:37:56Z</time>
      </trkpt>
      <trkpt lat="38.5227675643" lon="-6.3424379379">
        <ele>450.03</ele>
        <time>2020-07-12T06:37:57Z</time>
      </trkpt>
      <trkpt lat="38.5231215321" lon="-6.3424150553">
        <ele>448.59</ele>
        <time>2020-07-12T06:38:04Z</time>
      </trkpt>
      <trkpt lat="38.5236479994" lon="-6.3425508421">
        <ele>446.67</ele>
        <time>2020-07-12T06:38:13Z</time>
      </trkpt>
      <trkpt lat="38.5242657457" lon="-6.3427349087">
        <ele>444.75</ele>
        <time>2020-07-12T06:38:23Z</time>
      </trkpt>
      <trkpt lat="38.5247985832" lon="-6.3428973500">
        <ele>443.31</ele>
        <time>2020-07-12T06:38:31Z</time>
      </trkpt>
      <trkpt lat="38.5251961369" lon="-6.3430860266">
        <ele>442.34</ele>
        <time>2020-07-12T06:38:38Z</time>
      </trkpt>
      <trkpt lat="38.5257859714" lon="-6.3433166128">
        <ele>441.86</ele>
        <time>2020-07-12T06:38:49Z</time>
      </trkpt>
      <trkpt lat="38.5260727163" lon="-6.3434226438">
        <ele>441.38</ele>
        <time>2020-07-12T06:38:55Z</time>
      </trkpt>
      <trkpt lat="38.5261261929" lon="-6.3434228115">
        <ele>441.38</ele>
        <time>2020-07-12T06:38:56Z</time>
      </trkpt>
      <trkpt lat="38.5261701979" lon="-6.3434184529">
        <ele>441.38</ele>
        <time>2020-07-12T06:38:57Z</time>
      </trkpt>
      <trkpt lat="38.5267020296" lon="-6.3433333766">
        <ele>441.38</ele>
        <time>2020-07-12T06:39:07Z</time>
      </trkpt>
      <trkpt lat="38.5272751004" lon="-6.3432324585">
        <ele>440.42</ele>
        <time>2020-07-12T06:39:18Z</time>
      </trkpt>
      <trkpt lat="38.5277925152" lon="-6.3431371562">
        <ele>439.46</ele>
        <time>2020-07-12T06:39:28Z</time>
      </trkpt>
      <trkpt lat="38.5283415299" lon="-6.3430396747">
        <ele>439.94</ele>
        <time>2020-07-12T06:39:39Z</time>
      </trkpt>
      <trkpt lat="38.5288407560" lon="-6.3429711945">
        <ele>439.94</ele>
        <time>2020-07-12T06:39:49Z</time>
      </trkpt>
      <trkpt lat="38.5289806500" lon="-6.3429494854">
        <ele>439.46</ele>
        <time>2020-07-12T06:39:54Z</time>
      </trkpt>
      <trkpt lat="38.5292218812" lon="-6.3429123536">
        <ele>439.46</ele>
        <time>2020-07-12T06:40:03Z</time>
      </trkpt>
      <trkpt lat="38.5295920260" lon="-6.3428428676">
        <ele>439.46</ele>
        <time>2020-07-12T06:40:13Z</time>
      </trkpt>
      <trkpt lat="38.5299389530" lon="-6.3427898940">
        <ele>439.46</ele>
        <time>2020-07-12T06:40:22Z</time>
      </trkpt>
      <trkpt lat="38.5303671006" lon="-6.3426830247">
        <ele>439.46</ele>
        <time>2020-07-12T06:40:32Z</time>
      </trkpt>
      <trkpt lat="38.5305584595" lon="-6.3426102698">
        <ele>440.42</ele>
        <time>2020-07-12T06:40:37Z</time>
      </trkpt>
      <trkpt lat="38.5309153609" lon="-6.3424028177">
        <ele>438.98</ele>
        <time>2020-07-12T06:40:46Z</time>
      </trkpt>
      <trkpt lat="38.5309595335" lon="-6.3423885684">
        <ele>438.50</ele>
        <time>2020-07-12T06:40:47Z</time>
      </trkpt>
      <trkpt lat="38.5310568474" lon="-6.3423713017">
        <ele>438.02</ele>
        <time>2020-07-12T06:40:49Z</time>
      </trkpt>
      <trkpt lat="38.5315074585" lon="-6.3423640095">
        <ele>434.65</ele>
        <time>2020-07-12T06:40:56Z</time>
      </trkpt>
      <trkpt lat="38.5320778470" lon="-6.3423353434">
        <ele>433.21</ele>
        <time>2020-07-12T06:41:04Z</time>
      </trkpt>
      <trkpt lat="38.5321489256" lon="-6.3423161488">
        <ele>433.21</ele>
        <time>2020-07-12T06:41:05Z</time>
      </trkpt>
      <trkpt lat="38.5322189145" lon="-6.3422807772">
        <ele>433.21</ele>
        <time>2020-07-12T06:41:06Z</time>
      </trkpt>
      <trkpt lat="38.5322753247" lon="-6.3422373589">
        <ele>433.21</ele>
        <time>2020-07-12T06:41:07Z</time>
      </trkpt>
      <trkpt lat="38.5324645042" lon="-6.3420832157">
        <ele>433.21</ele>
        <time>2020-07-12T06:41:12Z</time>
      </trkpt>
      <trkpt lat="38.5327196494" lon="-6.3419082016">
        <ele>433.21</ele>
        <time>2020-07-12T06:41:21Z</time>
      </trkpt>
      <trkpt lat="38.5329496488" lon="-6.3417499512">
        <ele>433.21</ele>
        <time>2020-07-12T06:41:30Z</time>
      </trkpt>
      <trkpt lat="38.5332400817" lon="-6.3415473606">
        <ele>433.69</ele>
        <time>2020-07-12T06:41:41Z</time>
      </trkpt>
      <trkpt lat="38.5334601067" lon="-6.3413905352">
        <ele>434.65</ele>
        <time>2020-07-12T06:41:50Z</time>
      </trkpt>
      <trkpt lat="38.5336327739" lon="-6.3412720151">
        <ele>436.10</ele>
        <time>2020-07-12T06:41:58Z</time>
      </trkpt>
      <trkpt lat="38.5338628571" lon="-6.3411021139">
        <ele>437.54</ele>
        <time>2020-07-12T06:42:09Z</time>
      </trkpt>
      <trkpt lat="38.5340615083" lon="-6.3409659080">
        <ele>438.50</ele>
        <time>2020-07-12T06:42:19Z</time>
      </trkpt>
      <trkpt lat="38.5342568904" lon="-6.3408124354">
        <ele>439.46</ele>
        <time>2020-07-12T06:42:29Z</time>
      </trkpt>
      <trkpt lat="38.5344031546" lon="-6.3406859525">
        <ele>440.42</ele>
        <time>2020-07-12T06:42:38Z</time>
      </trkpt>
      <trkpt lat="38.5345655121" lon="-6.3405655045">
        <ele>441.86</ele>
        <time>2020-07-12T06:42:48Z</time>
      </trkpt>
      <trkpt lat="38.5347629059" lon="-6.3404256944">
        <ele>443.31</ele>
        <time>2020-07-12T06:43:00Z</time>
      </trkpt>
      <trkpt lat="38.5349210724" lon="-6.3403203338">
        <ele>444.75</ele>
        <time>2020-07-12T06:43:10Z</time>
      </trkpt>
      <trkpt lat="38.5350632295" lon="-6.3402215950">
        <ele>445.23</ele>
        <time>2020-07-12T06:43:19Z</time>
      </trkpt>
      <trkpt lat="38.5352461226" lon="-6.3400954474">
        <ele>447.15</ele>
        <time>2020-07-12T06:43:31Z</time>
      </trkpt>
      <trkpt lat="38.5353864357" lon="-6.3400051743">
        <ele>448.59</ele>
        <time>2020-07-12T06:43:41Z</time>
      </trkpt>
      <trkpt lat="38.5355093982" lon="-6.3399147335">
        <ele>450.03</ele>
        <time>2020-07-12T06:43:50Z</time>
      </trkpt>
      <trkpt lat="38.5356376413" lon="-6.3398340158">
        <ele>451.48</ele>
        <time>2020-07-12T06:43:59Z</time>
      </trkpt>
      <trkpt lat="38.5357647110" lon="-6.3397450838">
        <ele>451.96</ele>
        <time>2020-07-12T06:44:08Z</time>
      </trkpt>
      <trkpt lat="38.5359174293" lon="-6.3396591693">
        <ele>452.92</ele>
        <time>2020-07-12T06:44:18Z</time>
      </trkpt>
      <trkpt lat="38.5360674653" lon="-6.3395891804">
        <ele>453.88</ele>
        <time>2020-07-12T06:44:26Z</time>
      </trkpt>
      <trkpt lat="38.5362162441" lon="-6.3395362068">
        <ele>454.36</ele>
        <time>2020-07-12T06:44:35Z</time>
      </trkpt>
      <trkpt lat="38.5363560542" lon="-6.3394769467">
        <ele>455.80</ele>
        <time>2020-07-12T06:44:44Z</time>
      </trkpt>
      <trkpt lat="38.5365095269" lon="-6.3394072931">
        <ele>456.76</ele>
        <time>2020-07-12T06:44:54Z</time>
      </trkpt>
      <trkpt lat="38.5366486665" lon="-6.3393392321">
        <ele>457.72</ele>
        <time>2020-07-12T06:45:03Z</time>
      </trkpt>
      <trkpt lat="38.5367726348" lon="-6.3392611966">
        <ele>458.69</ele>
        <time>2020-07-12T06:45:11Z</time>
      </trkpt>
      <trkpt lat="38.5368866287" lon="-6.3392002601">
        <ele>459.65</ele>
        <time>2020-07-12T06:45:19Z</time>
      </trkpt>
      <trkpt lat="38.5370288696" lon="-6.3391508069">
        <ele>460.13</ele>
        <time>2020-07-12T06:45:28Z</time>
      </trkpt>
      <trkpt lat="38.5371865332" lon="-6.3391350489">
        <ele>459.65</ele>
        <time>2020-07-12T06:45:37Z</time>
      </trkpt>
      <trkpt lat="38.5374341346" lon="-6.3391648047">
        <ele>457.72</ele>
        <time>2020-07-12T06:45:44Z</time>
      </trkpt>
      <trkpt lat="38.5377991665" lon="-6.3392679021">
        <ele>457.72</ele>
        <time>2020-07-12T06:45:54Z</time>
      </trkpt>
      <trkpt lat="38.5380225442" lon="-6.3393469434">
        <ele>457.72</ele>
        <time>2020-07-12T06:46:02Z</time>
      </trkpt>
      <trkpt lat="38.5382325947" lon="-6.3394520525">
        <ele>459.17</ele>
        <time>2020-07-12T06:46:10Z</time>
      </trkpt>
      <trkpt lat="38.5383980535" lon="-6.3395584188">
        <ele>459.17</ele>
        <time>2020-07-12T06:46:17Z</time>
      </trkpt>
      <trkpt lat="38.5386348423" lon="-6.3397146575">
        <ele>458.69</ele>
        <time>2020-07-12T06:46:26Z</time>
      </trkpt>
      <trkpt lat="38.5388443898" lon="-6.3398232870">
        <ele>458.69</ele>
        <time>2020-07-12T06:46:33Z</time>
      </trkpt>
      <trkpt lat="38.5392107628" lon="-6.3399323355">
        <ele>458.21</ele>
        <time>2020-07-12T06:46:44Z</time>
      </trkpt>
      <trkpt lat="38.5395732801" lon="-6.3399808668">
        <ele>457.72</ele>
        <time>2020-07-12T06:46:55Z</time>
      </trkpt>
      <trkpt lat="38.5399504658" lon="-6.3400297333">
        <ele>457.72</ele>
        <time>2020-07-12T06:47:06Z</time>
      </trkpt>
      <trkpt lat="38.5402955487" lon="-6.3400969561">
        <ele>457.24</ele>
        <time>2020-07-12T06:47:16Z</time>
      </trkpt>
      <trkpt lat="38.5406725667" lon="-6.3401947729">
        <ele>455.80</ele>
        <time>2020-07-12T06:47:27Z</time>
      </trkpt>
      <trkpt lat="38.5407108720" lon="-6.3401952758">
        <ele>455.80</ele>
        <time>2020-07-12T06:47:29Z</time>
      </trkpt>
      <trkpt lat="38.5407302342" lon="-6.3401926775">
        <ele>455.80</ele>
        <time>2020-07-12T06:47:35Z</time>
      </trkpt>
      <trkpt lat="38.5407346766" lon="-6.3401981257">
        <ele>456.28</ele>
        <time>2020-07-12T06:47:47Z</time>
      </trkpt>
      <trkpt lat="38.5407354310" lon="-6.3401996344">
        <ele>456.28</ele>
        <time>2020-07-12T06:48:03Z</time>
      </trkpt>
      <trkpt lat="38.5407442320" lon="-6.3402056694">
        <ele>456.28</ele>
        <time>2020-07-12T06:48:06Z</time>
      </trkpt>
      <trkpt lat="38.5407583136" lon="-6.3402103633">
        <ele>456.28</ele>
        <time>2020-07-12T06:48:07Z</time>
      </trkpt>
      <trkpt lat="38.5408907477" lon="-6.3402194995">
        <ele>456.28</ele>
        <time>2020-07-12T06:48:15Z</time>
      </trkpt>
      <trkpt lat="38.5410757363" lon="-6.3402272109">
        <ele>455.32</ele>
        <time>2020-07-12T06:48:23Z</time>
      </trkpt>
      <trkpt lat="38.5413157940" lon="-6.3402028196">
        <ele>454.36</ele>
        <time>2020-07-12T06:48:31Z</time>
      </trkpt>
      <trkpt lat="38.5415849369" lon="-6.3401500974">
        <ele>453.40</ele>
        <time>2020-07-12T06:48:37Z</time>
      </trkpt>
      <trkpt lat="38.5421192832" lon="-6.3400783483">
        <ele>451.96</ele>
        <time>2020-07-12T06:48:48Z</time>
      </trkpt>
      <trkpt lat="38.5427169967" lon="-6.3400352653">
        <ele>451.00</ele>
        <time>2020-07-12T06:49:00Z</time>
      </trkpt>
      <trkpt lat="38.5431531910" lon="-6.3400153164">
        <ele>449.07</ele>
        <time>2020-07-12T06:49:08Z</time>
      </trkpt>
      <trkpt lat="38.5438918043" lon="-6.3399767596">
        <ele>447.63</ele>
        <time>2020-07-12T06:49:21Z</time>
      </trkpt>
      <trkpt lat="38.5442679841" lon="-6.3400054257">
        <ele>448.11</ele>
        <time>2020-07-12T06:49:29Z</time>
      </trkpt>
      <trkpt lat="38.5446476843" lon="-6.3400335889">
        <ele>449.07</ele>
        <time>2020-07-12T06:49:38Z</time>
      </trkpt>
      <trkpt lat="38.5449820384" lon="-6.3400638476">
        <ele>449.55</ele>
        <time>2020-07-12T06:49:47Z</time>
      </trkpt>
      <trkpt lat="38.5453604814" lon="-6.3400963694">
        <ele>449.55</ele>
        <time>2020-07-12T06:49:57Z</time>
      </trkpt>
      <trkpt lat="38.5457181372" lon="-6.3401409611">
        <ele>449.55</ele>
        <time>2020-07-12T06:50:06Z</time>
      </trkpt>
      <trkpt lat="38.5461146012" lon="-6.3401932642">
        <ele>449.55</ele>
        <time>2020-07-12T06:50:16Z</time>
      </trkpt>
      <trkpt lat="38.5465378873" lon="-6.3402870577">
        <ele>449.55</ele>
        <time>2020-07-12T06:50:27Z</time>
      </trkpt>
      <trkpt lat="38.5469288193" lon="-6.3404225931">
        <ele>448.59</ele>
        <time>2020-07-12T06:50:36Z</time>
      </trkpt>
      <trkpt lat="38.5475062486" lon="-6.3406306319">
        <ele>446.19</ele>
        <time>2020-07-12T06:50:48Z</time>
      </trkpt>
      <trkpt lat="38.5480020382" lon="-6.3408282772">
        <ele>444.27</ele>
        <time>2020-07-12T06:50:58Z</time>
      </trkpt>
      <trkpt lat="38.5484819859" lon="-6.3410235755">
        <ele>442.82</ele>
        <time>2020-07-12T06:51:08Z</time>
      </trkpt>
      <trkpt lat="38.5489188507" lon="-6.3411517348">
        <ele>441.86</ele>
        <time>2020-07-12T06:51:17Z</time>
      </trkpt>
      <trkpt lat="38.5494522750" lon="-6.3412348833">
        <ele>440.42</ele>
        <time>2020-07-12T06:51:28Z</time>
      </trkpt>
      <trkpt lat="38.5499213263" lon="-6.3413066324">
        <ele>438.98</ele>
        <time>2020-07-12T06:51:38Z</time>
      </trkpt>
      <trkpt lat="38.5504456144" lon="-6.3413476199">
        <ele>438.02</ele>
        <time>2020-07-12T06:51:49Z</time>
      </trkpt>
      <trkpt lat="38.5509286635" lon="-6.3414268289">
        <ele>436.58</ele>
        <time>2020-07-12T06:51:59Z</time>
      </trkpt>
      <trkpt lat="38.5513682943" lon="-6.3414959796">
        <ele>435.61</ele>
        <time>2020-07-12T06:52:08Z</time>
      </trkpt>
      <trkpt lat="38.5517777503" lon="-6.3415430021">
        <ele>435.13</ele>
        <time>2020-07-12T06:52:17Z</time>
      </trkpt>
      <trkpt lat="38.5520595498" lon="-6.3416306768">
        <ele>432.73</ele>
        <time>2020-07-12T06:52:24Z</time>
      </trkpt>
      <trkpt lat="38.5520881321" lon="-6.3416678086">
        <ele>432.73</ele>
        <time>2020-07-12T06:52:25Z</time>
      </trkpt>
      <trkpt lat="38.5521179717" lon="-6.3417092990">
        <ele>432.25</ele>
        <time>2020-07-12T06:52:26Z</time>
      </trkpt>
      <trkpt lat="38.5521481466" lon="-6.3417434134">
        <ele>432.25</ele>
        <time>2020-07-12T06:52:27Z</time>
      </trkpt>
      <trkpt lat="38.5521832667" lon="-6.3417720795">
        <ele>432.25</ele>
        <time>2020-07-12T06:52:28Z</time>
      </trkpt>
      <trkpt lat="38.5522224940" lon="-6.3417970575">
        <ele>432.25</ele>
        <time>2020-07-12T06:52:29Z</time>
      </trkpt>
      <trkpt lat="38.5522606317" lon="-6.3418146595">
        <ele>432.25</ele>
        <time>2020-07-12T06:52:30Z</time>
      </trkpt>
      <trkpt lat="38.5523011163" lon="-6.3418270648">
        <ele>432.25</ele>
        <time>2020-07-12T06:52:31Z</time>
      </trkpt>
      <trkpt lat="38.5523429420" lon="-6.3418330159">
        <ele>432.25</ele>
        <time>2020-07-12T06:52:32Z</time>
      </trkpt>
      <trkpt lat="38.5523809958" lon="-6.3418282382">
        <ele>432.25</ele>
        <time>2020-07-12T06:52:33Z</time>
      </trkpt>
      <trkpt lat="38.5524213966" lon="-6.3418100495">
        <ele>432.25</ele>
        <time>2020-07-12T06:52:34Z</time>
      </trkpt>
      <trkpt lat="38.5524529964" lon="-6.3417852391">
        <ele>432.25</ele>
        <time>2020-07-12T06:52:35Z</time>
      </trkpt>
      <trkpt lat="38.5525052156" lon="-6.3417134900">
        <ele>431.77</ele>
        <time>2020-07-12T06:52:37Z</time>
      </trkpt>
      <trkpt lat="38.5525405873" lon="-6.3416402321">
        <ele>432.25</ele>
        <time>2020-07-12T06:52:39Z</time>
      </trkpt>
      <trkpt lat="38.5525817424" lon="-6.3415895216">
        <ele>432.25</ele>
        <time>2020-07-12T06:52:41Z</time>
      </trkpt>
      <trkpt lat="38.5526094865" lon="-6.3415820617">
        <ele>432.25</ele>
        <time>2020-07-12T06:52:42Z</time>
      </trkpt>
      <trkpt lat="38.5526363924" lon="-6.3415870909">
        <ele>432.25</ele>
        <time>2020-07-12T06:52:43Z</time>
      </trkpt>
      <trkpt lat="38.5526629630" lon="-6.3415957242">
        <ele>431.77</ele>
        <time>2020-07-12T06:52:44Z</time>
      </trkpt>
      <trkpt lat="38.5526899528" lon="-6.3416051958">
        <ele>432.25</ele>
        <time>2020-07-12T06:52:45Z</time>
      </trkpt>
      <trkpt lat="38.5527169425" lon="-6.3416137453">
        <ele>432.25</ele>
        <time>2020-07-12T06:52:46Z</time>
      </trkpt>
      <trkpt lat="38.5527442675" lon="-6.3416197803">
        <ele>432.25</ele>
        <time>2020-07-12T06:52:47Z</time>
      </trkpt>
      <trkpt lat="38.5531299189" lon="-6.3416683953">
        <ele>431.77</ele>
        <time>2020-07-12T06:52:59Z</time>
      </trkpt>
      <trkpt lat="38.5535686277" lon="-6.3417126518">
        <ele>431.29</ele>
        <time>2020-07-12T06:53:09Z</time>
      </trkpt>
      <trkpt lat="38.5540138744" lon="-6.3417589199">
        <ele>430.81</ele>
        <time>2020-07-12T06:53:19Z</time>
      </trkpt>
      <trkpt lat="38.5543934070" lon="-6.3417460956">
        <ele>430.33</ele>
        <time>2020-07-12T06:53:27Z</time>
      </trkpt>
      <trkpt lat="38.5544312932" lon="-6.3417464308">
        <ele>430.33</ele>
        <time>2020-07-12T06:53:28Z</time>
      </trkpt>
      <trkpt lat="38.5544632282" lon="-6.3417538907">
        <ele>430.33</ele>
        <time>2020-07-12T06:53:29Z</time>
      </trkpt>
      <trkpt lat="38.5544903018" lon="-6.3417660445">
        <ele>430.33</ele>
        <time>2020-07-12T06:53:30Z</time>
      </trkpt>
      <trkpt lat="38.5545070656" lon="-6.3417750970">
        <ele>430.33</ele>
        <time>2020-07-12T06:53:31Z</time>
      </trkpt>
      <trkpt lat="38.5545303673" lon="-6.3417910226">
        <ele>430.81</ele>
        <time>2020-07-12T06:53:36Z</time>
      </trkpt>
      <trkpt lat="38.5546563473" lon="-6.3418508694">
        <ele>429.85</ele>
        <time>2020-07-12T06:53:41Z</time>
      </trkpt>
      <trkpt lat="38.5550412443" lon="-6.3419381250">
        <ele>428.89</ele>
        <time>2020-07-12T06:53:51Z</time>
      </trkpt>
      <trkpt lat="38.5554553103" lon="-6.3420726545">
        <ele>427.92</ele>
        <time>2020-07-12T06:54:02Z</time>
      </trkpt>
      <trkpt lat="38.5556667857" lon="-6.3421180844">
        <ele>427.44</ele>
        <time>2020-07-12T06:54:08Z</time>
      </trkpt>
      <trkpt lat="38.5558850504" lon="-6.3421387039">
        <ele>426.96</ele>
        <time>2020-07-12T06:54:15Z</time>
      </trkpt>
      <trkpt lat="38.5559686180" lon="-6.3421427272">
        <ele>426.00</ele>
        <time>2020-07-12T06:54:19Z</time>
      </trkpt>
      <trkpt lat="38.5559908301" lon="-6.3421721477">
        <ele>426.00</ele>
        <time>2020-07-12T06:54:25Z</time>
      </trkpt>
      <trkpt lat="38.5559980385" lon="-6.3421610836">
        <ele>426.96</ele>
        <time>2020-07-12T06:54:33Z</time>
      </trkpt>
      <trkpt lat="38.5560040735" lon="-6.3421663642">
        <ele>426.48</ele>
        <time>2020-07-12T06:54:44Z</time>
      </trkpt>
      <trkpt lat="38.5560360923" lon="-6.3421619218">
        <ele>426.48</ele>
        <time>2020-07-12T06:54:49Z</time>
      </trkpt>
      <trkpt lat="38.5560490843" lon="-6.3421641011">
        <ele>426.48</ele>
        <time>2020-07-12T06:54:50Z</time>
      </trkpt>
      <trkpt lat="38.5560672730" lon="-6.3421656936">
        <ele>426.48</ele>
        <time>2020-07-12T06:54:51Z</time>
      </trkpt>
      <trkpt lat="38.5560888145" lon="-6.3421622571">
        <ele>426.48</ele>
        <time>2020-07-12T06:54:52Z</time>
      </trkpt>
      <trkpt lat="38.5561137088" lon="-6.3421535399">
        <ele>426.48</ele>
        <time>2020-07-12T06:54:53Z</time>
      </trkpt>
      <trkpt lat="38.5562949255" lon="-6.3420982193">
        <ele>425.04</ele>
        <time>2020-07-12T06:55:00Z</time>
      </trkpt>
      <trkpt lat="38.5563503299" lon="-6.3420847245">
        <ele>425.52</ele>
        <time>2020-07-12T06:55:04Z</time>
      </trkpt>
      <trkpt lat="38.5563528445" lon="-6.3420870714">
        <ele>426.00</ele>
        <time>2020-07-12T06:55:12Z</time>
      </trkpt>
      <trkpt lat="38.5563533474" lon="-6.3420912623">
        <ele>425.04</ele>
        <time>2020-07-12T06:55:31Z</time>
      </trkpt>
      <trkpt lat="38.5563622322" lon="-6.3421004824">
        <ele>426.48</ele>
        <time>2020-07-12T06:55:49Z</time>
      </trkpt>
      <trkpt lat="38.5563475639" lon="-6.3420965429">
        <ele>424.08</ele>
        <time>2020-07-12T06:56:11Z</time>
      </trkpt>
      <trkpt lat="38.5563583765" lon="-6.3421078585">
        <ele>423.12</ele>
        <time>2020-07-12T06:56:42Z</time>
      </trkpt>
      <trkpt lat="38.5563543532" lon="-6.3420922682">
        <ele>424.08</ele>
        <time>2020-07-12T06:57:09Z</time>
      </trkpt>
      <trkpt lat="38.5563652497" lon="-6.3420962915">
        <ele>423.60</ele>
        <time>2020-07-12T06:57:32Z</time>
      </trkpt>
      <trkpt lat="38.5563602205" lon="-6.3420968782">
        <ele>420.71</ele>
        <time>2020-07-12T06:57:58Z</time>
      </trkpt>
      <trkpt lat="38.5563608073" lon="-6.3420950342">
        <ele>422.16</ele>
        <time>2020-07-12T06:58:37Z</time>
      </trkpt>
      <trkpt lat="38.5563570354" lon="-6.3421157375">
        <ele>424.56</ele>
        <time>2020-07-12T06:59:05Z</time>
      </trkpt>
      <trkpt lat="38.5563693568" lon="-6.3420941122">
        <ele>425.04</ele>
        <time>2020-07-12T06:59:24Z</time>
      </trkpt>
      <trkpt lat="38.5563834384" lon="-6.3421087805">
        <ele>422.16</ele>
        <time>2020-07-12T06:59:48Z</time>
      </trkpt>
      <trkpt lat="38.5563990287" lon="-6.3421283104">
        <ele>423.60</ele>
        <time>2020-07-12T07:00:19Z</time>
      </trkpt>
      <trkpt lat="38.5563684348" lon="-6.3420967944">
        <ele>424.56</ele>
        <time>2020-07-12T07:00:40Z</time>
      </trkpt>
      <trkpt lat="38.5563813429" lon="-6.3421207666">
        <ele>424.56</ele>
        <time>2020-07-12T07:00:55Z</time>
      </trkpt>
      <trkpt lat="38.5563945863" lon="-6.3421087805">
        <ele>426.00</ele>
        <time>2020-07-12T07:01:04Z</time>
      </trkpt>
      <trkpt lat="38.5564037226" lon="-6.3421074394">
        <ele>426.00</ele>
        <time>2020-07-12T07:01:05Z</time>
      </trkpt>
      <trkpt lat="38.5564136133" lon="-6.3421082776">
        <ele>426.00</ele>
        <time>2020-07-12T07:01:06Z</time>
      </trkpt>
      <trkpt lat="38.5564254317" lon="-6.3421070203">
        <ele>426.48</ele>
        <time>2020-07-12T07:01:14Z</time>
      </trkpt>
      <trkpt lat="38.5564133618" lon="-6.3421238679">
        <ele>432.25</ele>
        <time>2020-07-12T07:01:41Z</time>
      </trkpt>
      <trkpt lat="38.5563942511" lon="-6.3421200123">
        <ele>436.58</ele>
        <time>2020-07-12T07:02:04Z</time>
      </trkpt>
      <trkpt lat="38.5563908145" lon="-6.3421068527">
        <ele>437.54</ele>
        <time>2020-07-12T07:02:25Z</time>
      </trkpt>
      <trkpt lat="38.5564093385" lon="-6.3421210181">
        <ele>435.13</ele>
        <time>2020-07-12T07:02:50Z</time>
      </trkpt>
      <trkpt lat="38.5564053990" lon="-6.3421026617">
        <ele>434.17</ele>
        <time>2020-07-12T07:03:11Z</time>
      </trkpt>
      <trkpt lat="38.5564061534" lon="-6.3421151508">
        <ele>432.25</ele>
        <time>2020-07-12T07:03:38Z</time>
      </trkpt>
      <trkpt lat="38.5564045608" lon="-6.3420969620">
        <ele>431.77</ele>
        <time>2020-07-12T07:04:01Z</time>
      </trkpt>
      <trkpt lat="38.5563922394" lon="-6.3421308249">
        <ele>432.73</ele>
        <time>2020-07-12T07:04:27Z</time>
      </trkpt>
      <trkpt lat="38.5564039741" lon="-6.3421439845">
        <ele>431.77</ele>
        <time>2020-07-12T07:04:48Z</time>
      </trkpt>
      <trkpt lat="38.5564051475" lon="-6.3421335071">
        <ele>429.37</ele>
        <time>2020-07-12T07:05:12Z</time>
      </trkpt>
      <trkpt lat="38.5563849472" lon="-6.3420768455">
        <ele>428.40</ele>
        <time>2020-07-12T07:05:34Z</time>
      </trkpt>
      <trkpt lat="38.5563932452" lon="-6.3420799468">
        <ele>427.92</ele>
        <time>2020-07-12T07:06:02Z</time>
      </trkpt>
      <trkpt lat="38.5563952569" lon="-6.3421140611">
        <ele>426.00</ele>
        <time>2020-07-12T07:06:27Z</time>
      </trkpt>
      <trkpt lat="38.5564224143" lon="-6.3421351835">
        <ele>425.52</ele>
        <time>2020-07-12T07:06:49Z</time>
      </trkpt>
      <trkpt lat="38.5564206541" lon="-6.3421284780">
        <ele>425.04</ele>
        <time>2020-07-12T07:07:08Z</time>
      </trkpt>
      <trkpt lat="38.5564105120" lon="-6.3421288971">
        <ele>426.96</ele>
        <time>2020-07-12T07:07:28Z</time>
      </trkpt>
      <trkpt lat="38.5564108472" lon="-6.3420993928">
        <ele>428.89</ele>
        <time>2020-07-12T07:07:58Z</time>
      </trkpt>
      <trkpt lat="38.5564233363" lon="-6.3421228621">
        <ele>429.85</ele>
        <time>2020-07-12T07:08:18Z</time>
      </trkpt>
      <trkpt lat="38.5564139485" lon="-6.3421066850">
        <ele>428.89</ele>
        <time>2020-07-12T07:08:44Z</time>
      </trkpt>
      <trkpt lat="38.5564214084" lon="-6.3421205152">
        <ele>427.44</ele>
        <time>2020-07-12T07:09:10Z</time>
      </trkpt>
      <trkpt lat="38.5564274434" lon="-6.3421168271">
        <ele>429.37</ele>
        <time>2020-07-12T07:09:26Z</time>
      </trkpt>
      <trkpt lat="38.5564297903" lon="-6.3421148993">
        <ele>427.44</ele>
        <time>2020-07-12T07:09:44Z</time>
      </trkpt>
      <trkpt lat="38.5564334784" lon="-6.3421406318">
        <ele>427.92</ele>
        <time>2020-07-12T07:10:03Z</time>
      </trkpt>
      <trkpt lat="38.5564245936" lon="-6.3421197608">
        <ele>425.52</ele>
        <time>2020-07-12T07:10:25Z</time>
      </trkpt>
      <trkpt lat="38.5564186424" lon="-6.3421117142">
        <ele>425.52</ele>
        <time>2020-07-12T07:10:51Z</time>
      </trkpt>
      <trkpt lat="38.5564247612" lon="-6.3421283104">
        <ele>425.04</ele>
        <time>2020-07-12T07:11:17Z</time>
      </trkpt>
      <trkpt lat="38.5564100090" lon="-6.3421091158">
        <ele>425.52</ele>
        <time>2020-07-12T07:11:39Z</time>
      </trkpt>
      <trkpt lat="38.5564123560" lon="-6.3420891669">
        <ele>428.40</ele>
        <time>2020-07-12T07:11:57Z</time>
      </trkpt>
      <trkpt lat="38.5564109311" lon="-6.3421059307">
        <ele>431.29</ele>
        <time>2020-07-12T07:12:25Z</time>
      </trkpt>
      <trkpt lat="38.5564126074" lon="-6.3421211857">
        <ele>429.85</ele>
        <time>2020-07-12T07:12:52Z</time>
      </trkpt>
      <trkpt lat="38.5564118531" lon="-6.3421306573">
        <ele>431.29</ele>
        <time>2020-07-12T07:13:14Z</time>
      </trkpt>
      <trkpt lat="38.5564128589" lon="-6.3421558030">
        <ele>429.37</ele>
        <time>2020-07-12T07:13:41Z</time>
      </trkpt>
      <trkpt lat="38.5564235039" lon="-6.3421245385">
        <ele>424.08</ele>
        <time>2020-07-12T07:14:10Z</time>
      </trkpt>
      <trkpt lat="38.5564213246" lon="-6.3421034161">
        <ele>425.04</ele>
        <time>2020-07-12T07:14:25Z</time>
      </trkpt>
      <trkpt lat="38.5564286169" lon="-6.3420932740">
        <ele>426.00</ele>
        <time>2020-07-12T07:14:35Z</time>
      </trkpt>
      <trkpt lat="38.5565208178" lon="-6.3420561422">
        <ele>425.04</ele>
        <time>2020-07-12T07:14:41Z</time>
      </trkpt>
      <trkpt lat="38.5565944109" lon="-6.3420500234">
        <ele>425.04</ele>
        <time>2020-07-12T07:14:45Z</time>
      </trkpt>
      <trkpt lat="38.5566049721" lon="-6.3420351874">
        <ele>425.04</ele>
        <time>2020-07-12T07:14:46Z</time>
      </trkpt>
      <trkpt lat="38.5566178802" lon="-6.3420138136">
        <ele>425.04</ele>
        <time>2020-07-12T07:14:47Z</time>
      </trkpt>
      <trkpt lat="38.5566312913" lon="-6.3419952895">
        <ele>425.04</ele>
        <time>2020-07-12T07:14:48Z</time>
      </trkpt>
      <trkpt lat="38.5566492286" lon="-6.3419772685">
        <ele>424.56</ele>
        <time>2020-07-12T07:14:49Z</time>
      </trkpt>
      <trkpt lat="38.5566676687" lon="-6.3419659529">
        <ele>424.56</ele>
        <time>2020-07-12T07:14:50Z</time>
      </trkpt>
      <trkpt lat="38.5566889588" lon="-6.3419559784">
        <ele>424.08</ele>
        <time>2020-07-12T07:14:51Z</time>
      </trkpt>
      <trkpt lat="38.5567088239" lon="-6.3419478480">
        <ele>424.08</ele>
        <time>2020-07-12T07:14:52Z</time>
      </trkpt>
      <trkpt lat="38.5567725264" lon="-6.3419292402">
        <ele>424.56</ele>
        <time>2020-07-12T07:14:55Z</time>
      </trkpt>
      <trkpt lat="38.5567939840" lon="-6.3419304136">
        <ele>424.56</ele>
        <time>2020-07-12T07:14:56Z</time>
      </trkpt>
      <trkpt lat="38.5570058785" lon="-6.3419733290">
        <ele>424.08</ele>
        <time>2020-07-12T07:15:03Z</time>
      </trkpt>
      <trkpt lat="38.5571818147" lon="-6.3420087006">
        <ele>424.56</ele>
        <time>2020-07-12T07:15:10Z</time>
      </trkpt>
      <trkpt lat="38.5573902726" lon="-6.3418900967">
        <ele>425.04</ele>
        <time>2020-07-12T07:15:19Z</time>
      </trkpt>
      <trkpt lat="38.5575908516" lon="-6.3417766057">
        <ele>424.56</ele>
        <time>2020-07-12T07:15:27Z</time>
      </trkpt>
      <trkpt lat="38.5579437297" lon="-6.3415720873">
        <ele>423.60</ele>
        <time>2020-07-12T07:15:39Z</time>
      </trkpt>
      <trkpt lat="38.5582586378" lon="-6.3413483743">
        <ele>420.71</ele>
        <time>2020-07-12T07:15:49Z</time>
      </trkpt>
      <trkpt lat="38.5584722087" lon="-6.3410856016">
        <ele>420.71</ele>
        <time>2020-07-12T07:15:58Z</time>
      </trkpt>
      <trkpt lat="38.5586960893" lon="-6.3407536782">
        <ele>422.64</ele>
        <time>2020-07-12T07:16:07Z</time>
      </trkpt>
      <trkpt lat="38.5587212350" lon="-6.3407159597">
        <ele>422.16</ele>
        <time>2020-07-12T07:16:08Z</time>
      </trkpt>
      <trkpt lat="38.5587431956" lon="-6.3406739663">
        <ele>421.68</ele>
        <time>2020-07-12T07:16:09Z</time>
      </trkpt>
      <trkpt lat="38.5587618873" lon="-6.3406375051">
        <ele>421.68</ele>
        <time>2020-07-12T07:16:10Z</time>
      </trkpt>
      <trkpt lat="38.5587870330" lon="-6.3405981939">
        <ele>421.19</ele>
        <time>2020-07-12T07:16:11Z</time>
      </trkpt>
      <trkpt lat="38.5588131845" lon="-6.3405603915">
        <ele>421.19</ele>
        <time>2020-07-12T07:16:12Z</time>
      </trkpt>
      <trkpt lat="38.5589944012" lon="-6.3402702939">
        <ele>421.68</ele>
        <time>2020-07-12T07:16:20Z</time>
      </trkpt>
      <trkpt lat="38.5590638034" lon="-6.3401529472">
        <ele>421.68</ele>
        <time>2020-07-12T07:16:26Z</time>
      </trkpt>
      <trkpt lat="38.5590705089" lon="-6.3401525281">
        <ele>420.71</ele>
        <time>2020-07-12T07:16:33Z</time>
      </trkpt>
      <trkpt lat="38.5590703413" lon="-6.3401359320">
        <ele>420.71</ele>
        <time>2020-07-12T07:16:34Z</time>
      </trkpt>
      <trkpt lat="38.5590728559" lon="-6.3401185814">
        <ele>421.19</ele>
        <time>2020-07-12T07:16:35Z</time>
      </trkpt>
      <trkpt lat="38.5590772983" lon="-6.3401006442">
        <ele>421.68</ele>
        <time>2020-07-12T07:16:36Z</time>
      </trkpt>
      <trkpt lat="38.5590836685" lon="-6.3400846347">
        <ele>421.68</ele>
        <time>2020-07-12T07:16:37Z</time>
      </trkpt>
      <trkpt lat="38.5590939783" lon="-6.3400704693">
        <ele>421.68</ele>
        <time>2020-07-12T07:16:38Z</time>
      </trkpt>
      <trkpt lat="38.5591067187" lon="-6.3400542084">
        <ele>421.68</ele>
        <time>2020-07-12T07:16:39Z</time>
      </trkpt>
      <trkpt lat="38.5591199622" lon="-6.3400358520">
        <ele>421.19</ele>
        <time>2020-07-12T07:16:40Z</time>
      </trkpt>
      <trkpt lat="38.5592451040" lon="-6.3398947846">
        <ele>419.75</ele>
        <time>2020-07-12T07:16:48Z</time>
      </trkpt>
      <trkpt lat="38.5594084673" lon="-6.3397890050">
        <ele>419.27</ele>
        <time>2020-07-12T07:16:56Z</time>
      </trkpt>
      <trkpt lat="38.5595363751" lon="-6.3397031743">
        <ele>418.31</ele>
        <time>2020-07-12T07:17:03Z</time>
      </trkpt>
      <trkpt lat="38.5596525483" lon="-6.3396191876">
        <ele>416.87</ele>
        <time>2020-07-12T07:17:11Z</time>
      </trkpt>
      <trkpt lat="38.5596820526" lon="-6.3396157511">
        <ele>417.83</ele>
        <time>2020-07-12T07:17:19Z</time>
      </trkpt>
      <trkpt lat="38.5597412288" lon="-6.3395931199">
        <ele>417.83</ele>
        <time>2020-07-12T07:17:26Z</time>
      </trkpt>
      <trkpt lat="38.5597538017" lon="-6.3396012504">
        <ele>417.83</ele>
        <time>2020-07-12T07:17:27Z</time>
      </trkpt>
      <trkpt lat="38.5597644467" lon="-6.3396126498">
        <ele>417.83</ele>
        <time>2020-07-12T07:17:28Z</time>
      </trkpt>
      <trkpt lat="38.5598054342" lon="-6.3396606781">
        <ele>417.83</ele>
        <time>2020-07-12T07:17:32Z</time>
      </trkpt>
      <trkpt lat="38.5598208569" lon="-6.3396625221">
        <ele>417.83</ele>
        <time>2020-07-12T07:17:33Z</time>
      </trkpt>
      <trkpt lat="38.5598341003" lon="-6.3396589179">
        <ele>417.83</ele>
        <time>2020-07-12T07:17:34Z</time>
      </trkpt>
      <trkpt lat="38.5598456673" lon="-6.3396478537">
        <ele>417.83</ele>
        <time>2020-07-12T07:17:35Z</time>
      </trkpt>
      <trkpt lat="38.5598546360" lon="-6.3396327663">
        <ele>418.31</ele>
        <time>2020-07-12T07:17:36Z</time>
      </trkpt>
      <trkpt lat="38.5598636884" lon="-6.3396202773">
        <ele>418.31</ele>
        <time>2020-07-12T07:17:37Z</time>
      </trkpt>
      <trkpt lat="38.5598740820" lon="-6.3396079559">
        <ele>418.31</ele>
        <time>2020-07-12T07:17:38Z</time>
      </trkpt>
      <trkpt lat="38.5599525366" lon="-6.3395054452">
        <ele>418.31</ele>
        <time>2020-07-12T07:17:44Z</time>
      </trkpt>
      <trkpt lat="38.5600859765" lon="-6.3393622823">
        <ele>419.27</ele>
        <time>2020-07-12T07:17:53Z</time>
      </trkpt>
      <trkpt lat="38.5602151416" lon="-6.3391632121">
        <ele>420.71</ele>
        <time>2020-07-12T07:18:02Z</time>
      </trkpt>
      <trkpt lat="38.5603548680" lon="-6.3389347214">
        <ele>424.56</ele>
        <time>2020-07-12T07:18:11Z</time>
      </trkpt>
      <trkpt lat="38.5604359210" lon="-6.3387782313">
        <ele>425.52</ele>
        <time>2020-07-12T07:18:18Z</time>
      </trkpt>
      <trkpt lat="38.5605385993" lon="-6.3386217412">
        <ele>425.52</ele>
        <time>2020-07-12T07:18:26Z</time>
      </trkpt>
      <trkpt lat="38.5606362484" lon="-6.3384284545">
        <ele>425.04</ele>
        <time>2020-07-12T07:18:34Z</time>
      </trkpt>
      <trkpt lat="38.5607079975" lon="-6.3382453099">
        <ele>424.56</ele>
        <time>2020-07-12T07:18:42Z</time>
      </trkpt>
      <trkpt lat="38.5607363284" lon="-6.3381744828">
        <ele>425.04</ele>
        <time>2020-07-12T07:18:50Z</time>
      </trkpt>
      <trkpt lat="38.5607348196" lon="-6.3381806854">
        <ele>425.52</ele>
        <time>2020-07-12T07:18:51Z</time>
      </trkpt>
      <trkpt lat="38.5606592987" lon="-6.3383433782">
        <ele>426.96</ele>
        <time>2020-07-12T07:18:58Z</time>
      </trkpt>
      <trkpt lat="38.5605531838" lon="-6.3385030534">
        <ele>429.37</ele>
        <time>2020-07-12T07:19:03Z</time>
      </trkpt>
      <trkpt lat="38.5604628269" lon="-6.3386570290">
        <ele>432.25</ele>
        <time>2020-07-12T07:19:09Z</time>
      </trkpt>
      <trkpt lat="38.5603658482" lon="-6.3388109207">
        <ele>434.65</ele>
        <time>2020-07-12T07:19:15Z</time>
      </trkpt>
      <trkpt lat="38.5601873975" lon="-6.3391244877">
        <ele>436.10</ele>
        <time>2020-07-12T07:19:23Z</time>
      </trkpt>
      <trkpt lat="38.5601641797" lon="-6.3391621225">
        <ele>436.10</ele>
        <time>2020-07-12T07:19:24Z</time>
      </trkpt>
      <trkpt lat="38.5600958671" lon="-6.3392404094">
        <ele>435.61</ele>
        <time>2020-07-12T07:19:26Z</time>
      </trkpt>
      <trkpt lat="38.5600399598" lon="-6.3393315207">
        <ele>434.65</ele>
        <time>2020-07-12T07:19:29Z</time>
      </trkpt>
      <trkpt lat="38.5600391217" lon="-6.3393631205">
        <ele>434.17</ele>
        <time>2020-07-12T07:19:30Z</time>
      </trkpt>
      <trkpt lat="38.5601053387" lon="-6.3395481091">
        <ele>431.77</ele>
        <time>2020-07-12T07:19:36Z</time>
      </trkpt>
      <trkpt lat="38.5603015590" lon="-6.3398085348">
        <ele>426.96</ele>
        <time>2020-07-12T07:19:45Z</time>
      </trkpt>
      <trkpt lat="38.5604873020" lon="-6.3400250394">
        <ele>425.04</ele>
        <time>2020-07-12T07:19:55Z</time>
      </trkpt>
      <trkpt lat="38.5605503339" lon="-6.3400925975">
        <ele>424.56</ele>
        <time>2020-07-12T07:20:00Z</time>
      </trkpt>
      <trkpt lat="38.5605631582" lon="-6.3400877360">
        <ele>424.56</ele>
        <time>2020-07-12T07:20:01Z</time>
      </trkpt>
      <trkpt lat="38.5605784971" lon="-6.3400569744">
        <ele>424.56</ele>
        <time>2020-07-12T07:20:07Z</time>
      </trkpt>
      <trkpt lat="38.5605845321" lon="-6.3400487602">
        <ele>425.52</ele>
        <time>2020-07-12T07:20:15Z</time>
      </trkpt>
      <trkpt lat="38.5606561974" lon="-6.3400240336">
        <ele>426.96</ele>
        <time>2020-07-12T07:20:21Z</time>
      </trkpt>
      <trkpt lat="38.5606727097" lon="-6.3400295656">
        <ele>427.44</ele>
        <time>2020-07-12T07:20:22Z</time>
      </trkpt>
      <trkpt lat="38.5607034713" lon="-6.3400713075">
        <ele>427.92</ele>
        <time>2020-07-12T07:20:24Z</time>
      </trkpt>
      <trkpt lat="38.5607611388" lon="-6.3401710521">
        <ele>428.40</ele>
        <time>2020-07-12T07:20:28Z</time>
      </trkpt>
      <trkpt lat="38.5607798304" lon="-6.3401791826">
        <ele>428.40</ele>
        <time>2020-07-12T07:20:29Z</time>
      </trkpt>
      <trkpt lat="38.5607995279" lon="-6.3401806075">
        <ele>428.89</ele>
        <time>2020-07-12T07:20:30Z</time>
      </trkpt>
      <trkpt lat="38.5608175490" lon="-6.3401777577">
        <ele>428.89</ele>
        <time>2020-07-12T07:20:31Z</time>
      </trkpt>
      <trkpt lat="38.5608364083" lon="-6.3401723094">
        <ele>428.89</ele>
        <time>2020-07-12T07:20:32Z</time>
      </trkpt>
      <trkpt lat="38.5608556028" lon="-6.3401726447">
        <ele>428.40</ele>
        <time>2020-07-12T07:20:33Z</time>
      </trkpt>
      <trkpt lat="38.5608730372" lon="-6.3401744049">
        <ele>428.40</ele>
        <time>2020-07-12T07:20:34Z</time>
      </trkpt>
      <trkpt lat="38.5608972609" lon="-6.3401659392">
        <ele>427.44</ele>
        <time>2020-07-12T07:20:38Z</time>
      </trkpt>
      <trkpt lat="38.5609276034" lon="-6.3401832059">
        <ele>424.56</ele>
        <time>2020-07-12T07:20:56Z</time>
      </trkpt>
      <trkpt lat="38.5609303694" lon="-6.3401845470">
        <ele>423.12</ele>
        <time>2020-07-12T07:21:02Z</time>
      </trkpt>
      <trkpt lat="38.5609388351" lon="-6.3401682861">
        <ele>420.23</ele>
        <time>2020-07-12T07:21:23Z</time>
      </trkpt>
      <trkpt lat="38.5609405953" lon="-6.3401319925">
        <ele>420.71</ele>
        <time>2020-07-12T07:21:51Z</time>
      </trkpt>
      <trkpt lat="38.5609302856" lon="-6.3401535340">
        <ele>417.83</ele>
        <time>2020-07-12T07:22:13Z</time>
      </trkpt>
      <trkpt lat="38.5609275196" lon="-6.3401671126">
        <ele>417.35</ele>
        <time>2020-07-12T07:22:36Z</time>
      </trkpt>
      <trkpt lat="38.5609300341" lon="-6.3401640113">
        <ele>417.35</ele>
        <time>2020-07-12T07:22:42Z</time>
      </trkpt>
      <trkpt lat="38.5609350633" lon="-6.3401518576">
        <ele>417.35</ele>
        <time>2020-07-12T07:22:43Z</time>
      </trkpt>
      <trkpt lat="38.5609399248" lon="-6.3401378598">
        <ele>417.35</ele>
        <time>2020-07-12T07:22:44Z</time>
      </trkpt>
      <trkpt lat="38.5608783178" lon="-6.3400927652">
        <ele>417.35</ele>
        <time>2020-07-12T07:22:49Z</time>
      </trkpt>
      <trkpt lat="38.5608297028" lon="-6.3400860596">
        <ele>417.35</ele>
        <time>2020-07-12T07:22:52Z</time>
      </trkpt>
      <trkpt lat="38.5607296228" lon="-6.3400316611">
        <ele>417.35</ele>
        <time>2020-07-12T07:23:00Z</time>
      </trkpt>
      <trkpt lat="38.5607292876" lon="-6.3399944454">
        <ele>416.39</ele>
        <time>2020-07-12T07:23:02Z</time>
      </trkpt>
      <trkpt lat="38.5607727058" lon="-6.3398489356">
        <ele>414.47</ele>
        <time>2020-07-12T07:23:07Z</time>
      </trkpt>
      <trkpt lat="38.5608257633" lon="-6.3395125698">
        <ele>408.22</ele>
        <time>2020-07-12T07:23:18Z</time>
      </trkpt>
      <trkpt lat="38.5608773120" lon="-6.3392908685">
        <ele>408.22</ele>
        <time>2020-07-12T07:23:26Z</time>
      </trkpt>
      <trkpt lat="38.5609307885" lon="-6.3391750306">
        <ele>409.18</ele>
        <time>2020-07-12T07:23:31Z</time>
      </trkpt>
      <trkpt lat="38.5609719437" lon="-6.3391022757">
        <ele>410.62</ele>
        <time>2020-07-12T07:23:35Z</time>
      </trkpt>
      <trkpt lat="38.5610674135" lon="-6.3389527425">
        <ele>414.95</ele>
        <time>2020-07-12T07:23:44Z</time>
      </trkpt>
      <trkpt lat="38.5610871110" lon="-6.3389144372">
        <ele>415.43</ele>
        <time>2020-07-12T07:23:46Z</time>
      </trkpt>
      <trkpt lat="38.5611325409" lon="-6.3388072327">
        <ele>414.95</ele>
        <time>2020-07-12T07:23:51Z</time>
      </trkpt>
      <trkpt lat="38.5612596944" lon="-6.3385281991">
        <ele>415.43</ele>
        <time>2020-07-12T07:24:01Z</time>
      </trkpt>
      <trkpt lat="38.5613696650" lon="-6.3382634986">
        <ele>417.35</ele>
        <time>2020-07-12T07:24:10Z</time>
      </trkpt>
      <trkpt lat="38.5614558309" lon="-6.3379532844">
        <ele>421.19</ele>
        <time>2020-07-12T07:24:20Z</time>
      </trkpt>
      <trkpt lat="38.5615402367" lon="-6.3376408909">
        <ele>421.68</ele>
        <time>2020-07-12T07:24:31Z</time>
      </trkpt>
      <trkpt lat="38.5615901928" lon="-6.3374775276">
        <ele>422.16</ele>
        <time>2020-07-12T07:24:37Z</time>
      </trkpt>
      <trkpt lat="38.5616726708" lon="-6.3372150902">
        <ele>423.60</ele>
        <time>2020-07-12T07:24:47Z</time>
      </trkpt>
      <trkpt lat="38.5617321823" lon="-6.3369858451">
        <ele>427.92</ele>
        <time>2020-07-12T07:24:57Z</time>
      </trkpt>
      <trkpt lat="38.5617951304" lon="-6.3367733639">
        <ele>429.37</ele>
        <time>2020-07-12T07:25:05Z</time>
      </trkpt>
      <trkpt lat="38.5618886724" lon="-6.3364797458">
        <ele>429.37</ele>
        <time>2020-07-12T07:25:15Z</time>
      </trkpt>
      <trkpt lat="38.5619861539" lon="-6.3361884747">
        <ele>429.37</ele>
        <time>2020-07-12T07:25:25Z</time>
      </trkpt>
      <trkpt lat="38.5620568134" lon="-6.3359559607">
        <ele>429.37</ele>
        <time>2020-07-12T07:25:33Z</time>
      </trkpt>
      <trkpt lat="38.5621540435" lon="-6.3356035855">
        <ele>429.37</ele>
        <time>2020-07-12T07:25:45Z</time>
      </trkpt>
      <trkpt lat="38.5622161534" lon="-6.3354188483">
        <ele>428.40</ele>
        <time>2020-07-12T07:25:52Z</time>
      </trkpt>
      <trkpt lat="38.5622500163" lon="-6.3352169283">
        <ele>431.29</ele>
        <time>2020-07-12T07:26:01Z</time>
      </trkpt>
      <trkpt lat="38.5623500962" lon="-6.3351161778">
        <ele>434.17</ele>
        <time>2020-07-12T07:26:08Z</time>
      </trkpt>
      <trkpt lat="38.5624803510" lon="-6.3350263238">
        <ele>436.58</ele>
        <time>2020-07-12T07:26:17Z</time>
      </trkpt>
      <trkpt lat="38.5626702849" lon="-6.3349701650">
        <ele>436.58</ele>
        <time>2020-07-12T07:26:26Z</time>
      </trkpt>
      <trkpt lat="38.5628156271" lon="-6.3349875156">
        <ele>436.10</ele>
        <time>2020-07-12T07:26:33Z</time>
      </trkpt>
      <trkpt lat="38.5629688483" lon="-6.3350584265">
        <ele>435.13</ele>
        <time>2020-07-12T07:26:42Z</time>
      </trkpt>
      <trkpt lat="38.5631437786" lon="-6.3352432474">
        <ele>434.65</ele>
        <time>2020-07-12T07:26:51Z</time>
      </trkpt>
      <trkpt lat="38.5632970836" lon="-6.3354259729">
        <ele>435.61</ele>
        <time>2020-07-12T07:26:59Z</time>
      </trkpt>
      <trkpt lat="38.5634929687" lon="-6.3356934395">
        <ele>437.54</ele>
        <time>2020-07-12T07:27:09Z</time>
      </trkpt>
      <trkpt lat="38.5637276620" lon="-6.3360242732">
        <ele>439.46</ele>
        <time>2020-07-12T07:27:20Z</time>
      </trkpt>
      <trkpt lat="38.5638983175" lon="-6.3362647500">
        <ele>438.98</ele>
        <time>2020-07-12T07:27:29Z</time>
      </trkpt>
      <trkpt lat="38.5639616847" lon="-6.3363634050">
        <ele>438.98</ele>
        <time>2020-07-12T07:27:36Z</time>
      </trkpt>
      <trkpt lat="38.5640139878" lon="-6.3364604674">
        <ele>438.98</ele>
        <time>2020-07-12T07:27:40Z</time>
      </trkpt>
      <trkpt lat="38.5640299134" lon="-6.3365333900">
        <ele>438.98</ele>
        <time>2020-07-12T07:27:43Z</time>
      </trkpt>
      <trkpt lat="38.5640403070" lon="-6.3365507405">
        <ele>438.98</ele>
        <time>2020-07-12T07:27:44Z</time>
      </trkpt>
      <trkpt lat="38.5640524607" lon="-6.3365640678">
        <ele>439.46</ele>
        <time>2020-07-12T07:27:45Z</time>
      </trkpt>
      <trkpt lat="38.5640749242" lon="-6.3365824241">
        <ele>439.46</ele>
        <time>2020-07-12T07:27:47Z</time>
      </trkpt>
      <trkpt lat="38.5640998185" lon="-6.3366253395">
        <ele>439.46</ele>
        <time>2020-07-12T07:27:53Z</time>
      </trkpt>
      <trkpt lat="38.5640910175" lon="-6.3366355654">
        <ele>439.46</ele>
        <time>2020-07-12T07:27:54Z</time>
      </trkpt>
      <trkpt lat="38.5640778579" lon="-6.3366340566">
        <ele>439.46</ele>
        <time>2020-07-12T07:27:55Z</time>
      </trkpt>
      <trkpt lat="38.5640659556" lon="-6.3366203941">
        <ele>439.46</ele>
        <time>2020-07-12T07:27:56Z</time>
      </trkpt>
      <trkpt lat="38.5640579928" lon="-6.3366004452">
        <ele>439.46</ele>
        <time>2020-07-12T07:27:57Z</time>
      </trkpt>
      <trkpt lat="38.5640557297" lon="-6.3365852740">
        <ele>438.98</ele>
        <time>2020-07-12T07:27:58Z</time>
      </trkpt>
      <trkpt lat="38.5640548915" lon="-6.3365663309">
        <ele>438.98</ele>
        <time>2020-07-12T07:27:59Z</time>
      </trkpt>
      <trkpt lat="38.5640547238" lon="-6.3365497347">
        <ele>438.98</ele>
        <time>2020-07-12T07:28:00Z</time>
      </trkpt>
      <trkpt lat="38.5640531313" lon="-6.3365348987">
        <ele>438.98</ele>
        <time>2020-07-12T07:28:01Z</time>
      </trkpt>
      <trkpt lat="38.5640530474" lon="-6.3365197275">
        <ele>438.98</ele>
        <time>2020-07-12T07:28:02Z</time>
      </trkpt>
      <trkpt lat="38.5640561488" lon="-6.3365053944">
        <ele>438.98</ele>
        <time>2020-07-12T07:28:03Z</time>
      </trkpt>
      <trkpt lat="38.5640646983" lon="-6.3364927378">
        <ele>438.98</ele>
        <time>2020-07-12T07:28:04Z</time>
      </trkpt>
      <trkpt lat="38.5640766006" lon="-6.3364821766">
        <ele>438.98</ele>
        <time>2020-07-12T07:28:05Z</time>
      </trkpt>
      <trkpt lat="38.5640879162" lon="-6.3364756387">
        <ele>439.46</ele>
        <time>2020-07-12T07:28:06Z</time>
      </trkpt>
      <trkpt lat="38.5641045123" lon="-6.3364710286">
        <ele>439.46</ele>
        <time>2020-07-12T07:28:07Z</time>
      </trkpt>
      <trkpt lat="38.5641231202" lon="-6.3364696037">
        <ele>439.46</ele>
        <time>2020-07-12T07:28:08Z</time>
      </trkpt>
      <trkpt lat="38.5641430691" lon="-6.3364706095">
        <ele>439.46</ele>
        <time>2020-07-12T07:28:09Z</time>
      </trkpt>
      <trkpt lat="38.5641636886" lon="-6.3364651613">
        <ele>439.94</ele>
        <time>2020-07-12T07:28:10Z</time>
      </trkpt>
      <trkpt lat="38.5641797818" lon="-6.3364503253">
        <ele>439.94</ele>
        <time>2020-07-12T07:28:11Z</time>
      </trkpt>
      <trkpt lat="38.5641930252" lon="-6.3364370819">
        <ele>439.94</ele>
        <time>2020-07-12T07:28:12Z</time>
      </trkpt>
      <trkpt lat="38.5642112978" lon="-6.3364202343">
        <ele>439.94</ele>
        <time>2020-07-12T07:28:13Z</time>
      </trkpt>
      <trkpt lat="38.5643301532" lon="-6.3363957591">
        <ele>439.46</ele>
        <time>2020-07-12T07:28:18Z</time>
      </trkpt>
      <trkpt lat="38.5644636769" lon="-6.3365286123">
        <ele>438.98</ele>
        <time>2020-07-12T07:28:25Z</time>
      </trkpt>
      <trkpt lat="38.5645732284" lon="-6.3366644830">
        <ele>437.54</ele>
        <time>2020-07-12T07:28:33Z</time>
      </trkpt>
      <trkpt lat="38.5645807721" lon="-6.3366823364">
        <ele>437.54</ele>
        <time>2020-07-12T07:28:39Z</time>
      </trkpt>
      <trkpt lat="38.5645892378" lon="-6.3366852701">
        <ele>437.06</ele>
        <time>2020-07-12T07:28:57Z</time>
      </trkpt>
      <trkpt lat="38.5645677801" lon="-6.3366737869">
        <ele>438.98</ele>
        <time>2020-07-12T07:29:13Z</time>
      </trkpt>
      <trkpt lat="38.5646359250" lon="-6.3367694244">
        <ele>439.94</ele>
        <time>2020-07-12T07:29:20Z</time>
      </trkpt>
      <trkpt lat="38.5648622364" lon="-6.3369737752">
        <ele>438.98</ele>
        <time>2020-07-12T07:29:29Z</time>
      </trkpt>
      <trkpt lat="38.5651793238" lon="-6.3371559139">
        <ele>438.02</ele>
        <time>2020-07-12T07:29:38Z</time>
      </trkpt>
      <trkpt lat="38.5652851034" lon="-6.3372277468">
        <ele>438.02</ele>
        <time>2020-07-12T07:29:41Z</time>
      </trkpt>
      <trkpt lat="38.5654368158" lon="-6.3373052794">
        <ele>438.02</ele>
        <time>2020-07-12T07:29:46Z</time>
      </trkpt>
      <trkpt lat="38.5654547531" lon="-6.3373042736">
        <ele>438.02</ele>
        <time>2020-07-12T07:29:47Z</time>
      </trkpt>
      <trkpt lat="38.5654633865" lon="-6.3372878451">
        <ele>437.54</ele>
        <time>2020-07-12T07:29:48Z</time>
      </trkpt>
      <trkpt lat="38.5654633865" lon="-6.3372699916">
        <ele>437.54</ele>
        <time>2020-07-12T07:29:49Z</time>
      </trkpt>
      <trkpt lat="38.5654582735" lon="-6.3372190297">
        <ele>436.58</ele>
        <time>2020-07-12T07:29:57Z</time>
      </trkpt>
      <trkpt lat="38.5654594470" lon="-6.3372332789">
        <ele>436.58</ele>
        <time>2020-07-12T07:30:14Z</time>
      </trkpt>
      <trkpt lat="38.5654612072" lon="-6.3372294232">
        <ele>437.06</ele>
        <time>2020-07-12T07:30:25Z</time>
      </trkpt>
      <trkpt lat="38.5654668231" lon="-6.3372274116">
        <ele>438.50</ele>
        <time>2020-07-12T07:30:41Z</time>
      </trkpt>
      <trkpt lat="38.5654911306" lon="-6.3372366317">
        <ele>434.17</ele>
        <time>2020-07-12T07:30:58Z</time>
      </trkpt>
      <trkpt lat="38.5654749535" lon="-6.3372250646">
        <ele>434.65</ele>
        <time>2020-07-12T07:31:20Z</time>
      </trkpt>
      <trkpt lat="38.5654690862" lon="-6.3372204546">
        <ele>435.13</ele>
        <time>2020-07-12T07:31:34Z</time>
      </trkpt>
      <trkpt lat="38.5654577706" lon="-6.3372168504">
        <ele>437.06</ele>
        <time>2020-07-12T07:31:53Z</time>
      </trkpt>
      <trkpt lat="38.5654604528" lon="-6.3372339495">
        <ele>436.10</ele>
        <time>2020-07-12T07:32:15Z</time>
      </trkpt>
      <trkpt lat="38.5654510651" lon="-6.3372408226">
        <ele>433.69</ele>
        <time>2020-07-12T07:32:31Z</time>
      </trkpt>
      <trkpt lat="38.5654627159" lon="-6.3372339495">
        <ele>433.69</ele>
        <time>2020-07-12T07:32:44Z</time>
      </trkpt>
      <trkpt lat="38.5654818267" lon="-6.3372232206">
        <ele>435.61</ele>
        <time>2020-07-12T07:32:57Z</time>
      </trkpt>
      <trkpt lat="38.5654705949" lon="-6.3372220472">
        <ele>434.65</ele>
        <time>2020-07-12T07:33:03Z</time>
      </trkpt>
      <trkpt lat="38.5654660687" lon="-6.3372349553">
        <ele>434.65</ele>
        <time>2020-07-12T07:33:04Z</time>
      </trkpt>
      <trkpt lat="38.5654718522" lon="-6.3372854143">
        <ele>435.13</ele>
        <time>2020-07-12T07:33:07Z</time>
      </trkpt>
      <trkpt lat="38.5654868558" lon="-6.3373025134">
        <ele>435.13</ele>
        <time>2020-07-12T07:33:09Z</time>
      </trkpt>
      <trkpt lat="38.5655049607" lon="-6.3373116497">
        <ele>435.13</ele>
        <time>2020-07-12T07:33:10Z</time>
      </trkpt>
      <trkpt lat="38.5656658933" lon="-6.3373943791">
        <ele>434.65</ele>
        <time>2020-07-12T07:33:17Z</time>
      </trkpt>
      <trkpt lat="38.5659433343" lon="-6.3375224546">
        <ele>435.13</ele>
        <time>2020-07-12T07:33:26Z</time>
      </trkpt>
      <trkpt lat="38.5662330128" lon="-6.3376741670">
        <ele>434.65</ele>
        <time>2020-07-12T07:33:34Z</time>
      </trkpt>
      <trkpt lat="38.5664603300" lon="-6.3378158212">
        <ele>433.69</ele>
        <time>2020-07-12T07:33:40Z</time>
      </trkpt>
      <trkpt lat="38.5668510105" lon="-6.3380568009">
        <ele>434.17</ele>
        <time>2020-07-12T07:33:50Z</time>
      </trkpt>
      <trkpt lat="38.5673245881" lon="-6.3383573759">
        <ele>433.21</ele>
        <time>2020-07-12T07:34:01Z</time>
      </trkpt>
      <trkpt lat="38.5676141828" lon="-6.3385504112">
        <ele>432.73</ele>
        <time>2020-07-12T07:34:08Z</time>
      </trkpt>
      <trkpt lat="38.5678652208" lon="-6.3388524950">
        <ele>431.77</ele>
        <time>2020-07-12T07:34:16Z</time>
      </trkpt>
      <trkpt lat="38.5682776105" lon="-6.3392948918">
        <ele>429.37</ele>
        <time>2020-07-12T07:34:26Z</time>
      </trkpt>
      <trkpt lat="38.5687457398" lon="-6.3397815451">
        <ele>427.44</ele>
        <time>2020-07-12T07:34:36Z</time>
      </trkpt>
      <trkpt lat="38.5692577902" lon="-6.3402371015">
        <ele>426.48</ele>
        <time>2020-07-12T07:34:47Z</time>
      </trkpt>
      <trkpt lat="38.5696063098" lon="-6.3405140396">
        <ele>426.00</ele>
        <time>2020-07-12T07:34:55Z</time>
      </trkpt>
      <trkpt lat="38.5697762948" lon="-6.3406129461">
        <ele>426.00</ele>
        <time>2020-07-12T07:34:59Z</time>
      </trkpt>
      <trkpt lat="38.5698223114" lon="-6.3406301290">
        <ele>426.00</ele>
        <time>2020-07-12T07:35:00Z</time>
      </trkpt>
      <trkpt lat="38.5698700044" lon="-6.3406429533">
        <ele>426.00</ele>
        <time>2020-07-12T07:35:01Z</time>
      </trkpt>
      <trkpt lat="38.5699210502" lon="-6.3406504970">
        <ele>426.00</ele>
        <time>2020-07-12T07:35:02Z</time>
      </trkpt>
      <trkpt lat="38.5699642170" lon="-6.3406517543">
        <ele>426.00</ele>
        <time>2020-07-12T07:35:03Z</time>
      </trkpt>
      <trkpt lat="38.5700084735" lon="-6.3406501617">
        <ele>426.00</ele>
        <time>2020-07-12T07:35:04Z</time>
      </trkpt>
      <trkpt lat="38.5700548254" lon="-6.3406456355">
        <ele>426.00</ele>
        <time>2020-07-12T07:35:05Z</time>
      </trkpt>
      <trkpt lat="38.5705366172" lon="-6.3405841123">
        <ele>423.60</ele>
        <time>2020-07-12T07:35:15Z</time>
      </trkpt>
      <trkpt lat="38.5705923568" lon="-6.3405849505">
        <ele>423.12</ele>
        <time>2020-07-12T07:35:16Z</time>
      </trkpt>
      <trkpt lat="38.5706461687" lon="-6.3405929133">
        <ele>423.12</ele>
        <time>2020-07-12T07:35:17Z</time>
      </trkpt>
      <trkpt lat="38.5707024112" lon="-6.3406099286">
        <ele>423.12</ele>
        <time>2020-07-12T07:35:18Z</time>
      </trkpt>
      <trkpt lat="38.5711014736" lon="-6.3407984376">
        <ele>421.19</ele>
        <time>2020-07-12T07:35:26Z</time>
      </trkpt>
      <trkpt lat="38.5713494942" lon="-6.3408805802">
        <ele>421.19</ele>
        <time>2020-07-12T07:35:33Z</time>
      </trkpt>
      <trkpt lat="38.5714700259" lon="-6.3409017865">
        <ele>420.71</ele>
        <time>2020-07-12T07:35:36Z</time>
      </trkpt>
      <trkpt lat="38.5718208924" lon="-6.3408962544">
        <ele>419.75</ele>
        <time>2020-07-12T07:35:44Z</time>
      </trkpt>
      <trkpt lat="38.5721967369" lon="-6.3408043049">
        <ele>418.79</ele>
        <time>2020-07-12T07:35:53Z</time>
      </trkpt>
      <trkpt lat="38.5726486892" lon="-6.3407630660">
        <ele>416.87</ele>
        <time>2020-07-12T07:36:04Z</time>
      </trkpt>
      <trkpt lat="38.5731231887" lon="-6.3407966774">
        <ele>414.95</ele>
        <time>2020-07-12T07:36:14Z</time>
      </trkpt>
      <trkpt lat="38.5736541823" lon="-6.3408266846">
        <ele>411.58</ele>
        <time>2020-07-12T07:36:23Z</time>
      </trkpt>
      <trkpt lat="38.5742548294" lon="-6.3408545125">
        <ele>408.22</ele>
        <time>2020-07-12T07:36:32Z</time>
      </trkpt>
      <trkpt lat="38.5749568976" lon="-6.3409137726">
        <ele>406.29</ele>
        <time>2020-07-12T07:36:42Z</time>
      </trkpt>
      <trkpt lat="38.5754091851" lon="-6.3409452047">
        <ele>406.29</ele>
        <time>2020-07-12T07:36:50Z</time>
      </trkpt>
      <trkpt lat="38.5757735465" lon="-6.3409905508">
        <ele>406.77</ele>
        <time>2020-07-12T07:36:58Z</time>
      </trkpt>
      <trkpt lat="38.5762754548" lon="-6.3410648983">
        <ele>406.77</ele>
        <time>2020-07-12T07:37:10Z</time>
      </trkpt>
      <trkpt lat="38.5767253954" lon="-6.3411631342">
        <ele>406.77</ele>
        <time>2020-07-12T07:37:20Z</time>
      </trkpt>
      <trkpt lat="38.5772322491" lon="-6.3413248211">
        <ele>407.26</ele>
        <time>2020-07-12T07:37:31Z</time>
      </trkpt>
      <trkpt lat="38.5777164716" lon="-6.3414704148">
        <ele>407.74</ele>
        <time>2020-07-12T07:37:42Z</time>
      </trkpt>
      <trkpt lat="38.5780715290" lon="-6.3415243942">
        <ele>408.70</ele>
        <time>2020-07-12T07:37:51Z</time>
      </trkpt>
      <trkpt lat="38.5783499759" lon="-6.3415281661">
        <ele>409.18</ele>
        <time>2020-07-12T07:37:59Z</time>
      </trkpt>
      <trkpt lat="38.5786742717" lon="-6.3415159285">
        <ele>410.14</ele>
        <time>2020-07-12T07:38:08Z</time>
      </trkpt>
      <trkpt lat="38.5789738409" lon="-6.3414627034">
        <ele>411.10</ele>
        <time>2020-07-12T07:38:17Z</time>
      </trkpt>
      <trkpt lat="38.5792310815" lon="-6.3413031958">
        <ele>412.06</ele>
        <time>2020-07-12T07:38:26Z</time>
      </trkpt>
      <trkpt lat="38.5794652719" lon="-6.3411254995">
        <ele>413.02</ele>
        <time>2020-07-12T07:38:35Z</time>
      </trkpt>
      <trkpt lat="38.5797436349" lon="-6.3409741223">
        <ele>413.02</ele>
        <time>2020-07-12T07:38:44Z</time>
      </trkpt>
      <trkpt lat="38.5801318008" lon="-6.3408685103">
        <ele>413.98</ele>
        <time>2020-07-12T07:38:56Z</time>
      </trkpt>
      <trkpt lat="38.5804988444" lon="-6.3407662511">
        <ele>413.98</ele>
        <time>2020-07-12T07:39:08Z</time>
      </trkpt>
      <trkpt lat="38.5807709210" lon="-6.3407280296">
        <ele>413.98</ele>
        <time>2020-07-12T07:39:17Z</time>
      </trkpt>
      <trkpt lat="38.5810115654" lon="-6.3407285325">
        <ele>413.98</ele>
        <time>2020-07-12T07:39:26Z</time>
      </trkpt>
      <trkpt lat="38.5811905190" lon="-6.3407328073">
        <ele>414.47</ele>
        <time>2020-07-12T07:39:36Z</time>
      </trkpt>
      <trkpt lat="38.5811988171" lon="-6.3407318015">
        <ele>414.47</ele>
        <time>2020-07-12T07:39:49Z</time>
      </trkpt>
      <trkpt lat="38.5812579095" lon="-6.3407509960">
        <ele>414.95</ele>
        <time>2020-07-12T07:39:55Z</time>
      </trkpt>
      <trkpt lat="38.5815283097" lon="-6.3407618087">
        <ele>414.47</ele>
        <time>2020-07-12T07:40:04Z</time>
      </trkpt>
      <trkpt lat="38.5818735603" lon="-6.3407867029">
        <ele>414.47</ele>
        <time>2020-07-12T07:40:14Z</time>
      </trkpt>
      <trkpt lat="38.5821407754" lon="-6.3408110943">
        <ele>414.47</ele>
        <time>2020-07-12T07:40:24Z</time>
      </trkpt>
      <trkpt lat="38.5823727027" lon="-6.3408214040">
        <ele>413.98</ele>
        <time>2020-07-12T07:40:35Z</time>
      </trkpt>
      <trkpt lat="38.5825301986" lon="-6.3408367429">
        <ele>413.50</ele>
        <time>2020-07-12T07:40:44Z</time>
      </trkpt>
      <trkpt lat="38.5826809052" lon="-6.3408533391">
        <ele>413.98</ele>
        <time>2020-07-12T07:40:54Z</time>
      </trkpt>
      <trkpt lat="38.5828096513" lon="-6.3408556860">
        <ele>413.50</ele>
        <time>2020-07-12T07:41:03Z</time>
      </trkpt>
      <trkpt lat="38.5829782952" lon="-6.3408588711">
        <ele>413.02</ele>
        <time>2020-07-12T07:41:15Z</time>
      </trkpt>
      <trkpt lat="38.5831710789" lon="-6.3408716954">
        <ele>412.54</ele>
        <time>2020-07-12T07:41:25Z</time>
      </trkpt>
      <trkpt lat="38.5834874958" lon="-6.3408686779">
        <ele>412.06</ele>
        <time>2020-07-12T07:41:34Z</time>
      </trkpt>
      <trkpt lat="38.5838479176" lon="-6.3408795744">
        <ele>411.58</ele>
        <time>2020-07-12T07:41:44Z</time>
      </trkpt>
      <trkpt lat="38.5842069145" lon="-6.3408889621">
        <ele>411.10</ele>
        <time>2020-07-12T07:41:54Z</time>
      </trkpt>
      <trkpt lat="38.5844953358" lon="-6.3409027085">
        <ele>410.62</ele>
        <time>2020-07-12T07:42:03Z</time>
      </trkpt>
      <trkpt lat="38.5848508961" lon="-6.3409349788">
        <ele>409.66</ele>
        <time>2020-07-12T07:42:13Z</time>
      </trkpt>
      <trkpt lat="38.5851963982" lon="-6.3409903832">
        <ele>409.66</ele>
        <time>2020-07-12T07:42:22Z</time>
      </trkpt>
      <trkpt lat="38.5854960512" lon="-6.3410427701">
        <ele>409.18</ele>
        <time>2020-07-12T07:42:30Z</time>
      </trkpt>
      <trkpt lat="38.5857943632" lon="-6.3410845958">
        <ele>408.70</ele>
        <time>2020-07-12T07:42:38Z</time>
      </trkpt>
      <trkpt lat="38.5861041583" lon="-6.3411421794">
        <ele>408.70</ele>
        <time>2020-07-12T07:42:47Z</time>
      </trkpt>
      <trkpt lat="38.5864195693" lon="-6.3411945663">
        <ele>408.22</ele>
        <time>2020-07-12T07:42:56Z</time>
      </trkpt>
      <trkpt lat="38.5867394228" lon="-6.3412343804">
        <ele>408.22</ele>
        <time>2020-07-12T07:43:05Z</time>
      </trkpt>
      <trkpt lat="38.5870016087" lon="-6.3412617054">
        <ele>408.22</ele>
        <time>2020-07-12T07:43:13Z</time>
      </trkpt>
      <trkpt lat="38.5873228032" lon="-6.3413053751">
        <ele>408.22</ele>
        <time>2020-07-12T07:43:23Z</time>
      </trkpt>
      <trkpt lat="38.5876669642" lon="-6.3413374778">
        <ele>407.74</ele>
        <time>2020-07-12T07:43:34Z</time>
      </trkpt>
      <trkpt lat="38.5880725645" lon="-6.3413795549">
        <ele>407.74</ele>
        <time>2020-07-12T07:43:45Z</time>
      </trkpt>
      <trkpt lat="38.5884869657" lon="-6.3414141722">
        <ele>407.26</ele>
        <time>2020-07-12T07:43:57Z</time>
      </trkpt>
      <trkpt lat="38.5887589585" lon="-6.3414261583">
        <ele>407.26</ele>
        <time>2020-07-12T07:44:05Z</time>
      </trkpt>
      <trkpt lat="38.5890793987" lon="-6.3414516393">
        <ele>406.77</ele>
        <time>2020-07-12T07:44:14Z</time>
      </trkpt>
      <trkpt lat="38.5894462746" lon="-6.3414794672">
        <ele>406.29</ele>
        <time>2020-07-12T07:44:24Z</time>
      </trkpt>
      <trkpt lat="38.5898638610" lon="-6.3415233046">
        <ele>405.81</ele>
        <time>2020-07-12T07:44:35Z</time>
      </trkpt>
      <trkpt lat="38.5902938526" lon="-6.3415789604">
        <ele>405.81</ele>
        <time>2020-07-12T07:44:46Z</time>
      </trkpt>
      <trkpt lat="38.5906752292" lon="-6.3416460156">
        <ele>405.33</ele>
        <time>2020-07-12T07:44:56Z</time>
      </trkpt>
      <trkpt lat="38.5910283588" lon="-6.3416840695">
        <ele>405.33</ele>
        <time>2020-07-12T07:45:05Z</time>
      </trkpt>
      <trkpt lat="38.5914216377" lon="-6.3416565768">
        <ele>404.37</ele>
        <time>2020-07-12T07:45:15Z</time>
      </trkpt>
      <trkpt lat="38.5917774495" lon="-6.3415845763">
        <ele>404.37</ele>
        <time>2020-07-12T07:45:24Z</time>
      </trkpt>
      <trkpt lat="38.5922045074" lon="-6.3415099774">
        <ele>403.41</ele>
        <time>2020-07-12T07:45:34Z</time>
      </trkpt>
      <trkpt lat="38.5926899873" lon="-6.3414314389">
        <ele>403.41</ele>
        <time>2020-07-12T07:45:45Z</time>
      </trkpt>
      <trkpt lat="38.5931702703" lon="-6.3413031958">
        <ele>402.45</ele>
        <time>2020-07-12T07:45:56Z</time>
      </trkpt>
      <trkpt lat="38.5936389863" lon="-6.3411643077">
        <ele>401.97</ele>
        <time>2020-07-12T07:46:07Z</time>
      </trkpt>
      <trkpt lat="38.5940175131" lon="-6.3410494756">
        <ele>401.01</ele>
        <time>2020-07-12T07:46:16Z</time>
      </trkpt>
      <trkpt lat="38.5944300704" lon="-6.3409085758">
        <ele>400.53</ele>
        <time>2020-07-12T07:46:26Z</time>
      </trkpt>
      <trkpt lat="38.5949413665" lon="-6.3407334778">
        <ele>399.57</ele>
        <time>2020-07-12T07:46:38Z</time>
      </trkpt>
      <trkpt lat="38.5952682607" lon="-6.3406231720">
        <ele>399.57</ele>
        <time>2020-07-12T07:46:46Z</time>
      </trkpt>
      <trkpt lat="38.5956016928" lon="-6.3405036461">
        <ele>399.08</ele>
        <time>2020-07-12T07:46:55Z</time>
      </trkpt>
      <trkpt lat="38.5959966481" lon="-6.3403768279">
        <ele>399.08</ele>
        <time>2020-07-12T07:47:05Z</time>
      </trkpt>
      <trkpt lat="38.5964180902" lon="-6.3402395323">
        <ele>398.60</ele>
        <time>2020-07-12T07:47:15Z</time>
      </trkpt>
      <trkpt lat="38.5967798531" lon="-6.3401173241">
        <ele>398.12</ele>
        <time>2020-07-12T07:47:24Z</time>
      </trkpt>
      <trkpt lat="38.5972246807" lon="-6.3399730716">
        <ele>397.64</ele>
        <time>2020-07-12T07:47:34Z</time>
      </trkpt>
      <trkpt lat="38.5977721866" lon="-6.3397887535">
        <ele>397.16</ele>
        <time>2020-07-12T07:47:47Z</time>
      </trkpt>
      <trkpt lat="38.5982212890" lon="-6.3396381307">
        <ele>397.64</ele>
        <time>2020-07-12T07:47:58Z</time>
      </trkpt>
      <trkpt lat="38.5984798707" lon="-6.3395486958">
        <ele>397.64</ele>
        <time>2020-07-12T07:48:05Z</time>
      </trkpt>
      <trkpt lat="38.5988475010" lon="-6.3394616917">
        <ele>397.16</ele>
        <time>2020-07-12T07:48:14Z</time>
      </trkpt>
      <trkpt lat="38.5992355831" lon="-6.3393961452">
        <ele>396.68</ele>
        <time>2020-07-12T07:48:23Z</time>
      </trkpt>
      <trkpt lat="38.5995784868" lon="-6.3393438421">
        <ele>396.20</ele>
        <time>2020-07-12T07:48:31Z</time>
      </trkpt>
      <trkpt lat="38.5996192228" lon="-6.3393397350">
        <ele>396.20</ele>
        <time>2020-07-12T07:48:32Z</time>
      </trkpt>
      <trkpt lat="38.6000103224" lon="-6.3393360469">
        <ele>395.24</ele>
        <time>2020-07-12T07:48:41Z</time>
      </trkpt>
      <trkpt lat="38.6004008353" lon="-6.3393689040">
        <ele>394.76</ele>
        <time>2020-07-12T07:48:50Z</time>
      </trkpt>
      <trkpt lat="38.6008394603" lon="-6.3394111488">
        <ele>394.76</ele>
        <time>2020-07-12T07:49:01Z</time>
      </trkpt>
      <trkpt lat="38.6013251916" lon="-6.3394532260">
        <ele>394.76</ele>
        <time>2020-07-12T07:49:13Z</time>
      </trkpt>
      <trkpt lat="38.6016603839" lon="-6.3394865021">
        <ele>395.24</ele>
        <time>2020-07-12T07:49:22Z</time>
      </trkpt>
      <trkpt lat="38.6018989328" lon="-6.3395376317">
        <ele>395.72</ele>
        <time>2020-07-12T07:49:29Z</time>
      </trkpt>
      <trkpt lat="38.6019384116" lon="-6.3395419903">
        <ele>395.72</ele>
        <time>2020-07-12T07:49:30Z</time>
      </trkpt>
      <trkpt lat="38.6023083050" lon="-6.3395497017">
        <ele>394.76</ele>
        <time>2020-07-12T07:49:40Z</time>
      </trkpt>
      <trkpt lat="38.6026880052" lon="-6.3395651244">
        <ele>394.76</ele>
        <time>2020-07-12T07:49:51Z</time>
      </trkpt>
      <trkpt lat="38.6029123049" lon="-6.3396145776">
        <ele>394.76</ele>
        <time>2020-07-12T07:49:59Z</time>
      </trkpt>
      <trkpt lat="38.6029385403" lon="-6.3396221213">
        <ele>394.76</ele>
        <time>2020-07-12T07:50:04Z</time>
      </trkpt>
      <trkpt lat="38.6029377859" lon="-6.3396180142">
        <ele>395.72</ele>
        <time>2020-07-12T07:50:14Z</time>
      </trkpt>
      <trkpt lat="38.6029342655" lon="-6.3396203611">
        <ele>395.72</ele>
        <time>2020-07-12T07:50:36Z</time>
      </trkpt>
      <trkpt lat="38.6029390432" lon="-6.3396226242">
        <ele>395.72</ele>
        <time>2020-07-12T07:50:56Z</time>
      </trkpt>
      <trkpt lat="38.6029461678" lon="-6.3396189362">
        <ele>395.24</ele>
        <time>2020-07-12T07:51:19Z</time>
      </trkpt>
      <trkpt lat="38.6029483471" lon="-6.3396222889">
        <ele>393.80</ele>
        <time>2020-07-12T07:51:35Z</time>
      </trkpt>
      <trkpt lat="38.6029458325" lon="-6.3396232948">
        <ele>393.80</ele>
        <time>2020-07-12T07:51:54Z</time>
      </trkpt>
      <trkpt lat="38.6029520351" lon="-6.3396161702">
        <ele>392.84</ele>
        <time>2020-07-12T07:52:19Z</time>
      </trkpt>
      <trkpt lat="38.6029478442" lon="-6.3396233786">
        <ele>394.28</ele>
        <time>2020-07-12T07:52:37Z</time>
      </trkpt>
      <trkpt lat="38.6029392108" lon="-6.3396250550">
        <ele>394.28</ele>
        <time>2020-07-12T07:52:59Z</time>
      </trkpt>
      <trkpt lat="38.6029426474" lon="-6.3396155834">
        <ele>394.76</ele>
        <time>2020-07-12T07:53:24Z</time>
      </trkpt>
      <trkpt lat="38.6029429827" lon="-6.3396191038">
        <ele>394.28</ele>
        <time>2020-07-12T07:53:40Z</time>
      </trkpt>
      <trkpt lat="38.6030004825" lon="-6.3396502845">
        <ele>394.76</ele>
        <time>2020-07-12T07:53:45Z</time>
      </trkpt>
      <trkpt lat="38.6032458209" lon="-6.3397835568">
        <ele>394.76</ele>
        <time>2020-07-12T07:53:52Z</time>
      </trkpt>
      <trkpt lat="38.6036941689" lon="-6.3400542922">
        <ele>395.24</ele>
        <time>2020-07-12T07:54:03Z</time>
      </trkpt>
      <trkpt lat="38.6039722804" lon="-6.3402604870">
        <ele>395.24</ele>
        <time>2020-07-12T07:54:11Z</time>
      </trkpt>
      <trkpt lat="38.6042999290" lon="-6.3405097649">
        <ele>395.24</ele>
        <time>2020-07-12T07:54:21Z</time>
      </trkpt>
      <trkpt lat="38.6046103109" lon="-6.3407281134">
        <ele>394.76</ele>
        <time>2020-07-12T07:54:30Z</time>
      </trkpt>
      <trkpt lat="38.6050085351" lon="-6.3408768922">
        <ele>393.80</ele>
        <time>2020-07-12T07:54:40Z</time>
      </trkpt>
      <trkpt lat="38.6054583918" lon="-6.3410322089">
        <ele>392.36</ele>
        <time>2020-07-12T07:54:50Z</time>
      </trkpt>
      <trkpt lat="38.6059489008" lon="-6.3412088994">
        <ele>391.87</ele>
        <time>2020-07-12T07:55:01Z</time>
      </trkpt>
      <trkpt lat="38.6064257473" lon="-6.3413664792">
        <ele>391.39</ele>
        <time>2020-07-12T07:55:12Z</time>
      </trkpt>
      <trkpt lat="38.6069036834" lon="-6.3415010925">
        <ele>390.91</ele>
        <time>2020-07-12T07:55:23Z</time>
      </trkpt>
      <trkpt lat="38.6073374469" lon="-6.3416233845">
        <ele>390.43</ele>
        <time>2020-07-12T07:55:33Z</time>
      </trkpt>
      <trkpt lat="38.6076457333" lon="-6.3417134900">
        <ele>390.43</ele>
        <time>2020-07-12T07:55:40Z</time>
      </trkpt>
      <trkpt lat="38.6080220807" lon="-6.3418573234">
        <ele>391.39</ele>
        <time>2020-07-12T07:55:49Z</time>
      </trkpt>
      <trkpt lat="38.6084586103" lon="-6.3420563098">
        <ele>391.39</ele>
        <time>2020-07-12T07:55:59Z</time>
      </trkpt>
      <trkpt lat="38.6088056210" lon="-6.3422573078">
        <ele>391.39</ele>
        <time>2020-07-12T07:56:08Z</time>
      </trkpt>
      <trkpt lat="38.6091305036" lon="-6.3424695376">
        <ele>391.87</ele>
        <time>2020-07-12T07:56:17Z</time>
      </trkpt>
      <trkpt lat="38.6095211841" lon="-6.3426477369">
        <ele>391.87</ele>
        <time>2020-07-12T07:56:27Z</time>
      </trkpt>
      <trkpt lat="38.6099306401" lon="-6.3427612279">
        <ele>390.91</ele>
        <time>2020-07-12T07:56:37Z</time>
      </trkpt>
      <trkpt lat="38.6103200633" lon="-6.3428453822">
        <ele>390.43</ele>
        <time>2020-07-12T07:56:46Z</time>
      </trkpt>
      <trkpt lat="38.6107638851" lon="-6.3429305423">
        <ele>389.95</ele>
        <time>2020-07-12T07:56:56Z</time>
      </trkpt>
      <trkpt lat="38.6111905240" lon="-6.3429505751">
        <ele>388.99</ele>
        <time>2020-07-12T07:57:05Z</time>
      </trkpt>
      <trkpt lat="38.6116758361" lon="-6.3429022115">
        <ele>388.51</ele>
        <time>2020-07-12T07:57:15Z</time>
      </trkpt>
      <trkpt lat="38.6119000521" lon="-6.3428839389">
        <ele>387.55</ele>
        <time>2020-07-12T07:57:20Z</time>
      </trkpt>
      <trkpt lat="38.6122681014" lon="-6.3428964280">
        <ele>387.55</ele>
        <time>2020-07-12T07:57:28Z</time>
      </trkpt>
      <trkpt lat="38.6127983406" lon="-6.3429639023">
        <ele>387.55</ele>
        <time>2020-07-12T07:57:39Z</time>
      </trkpt>
      <trkpt lat="38.6129741929" lon="-6.3430123497">
        <ele>388.03</ele>
        <time>2020-07-12T07:57:43Z</time>
      </trkpt>
      <trkpt lat="38.6134772748" lon="-6.3432042953">
        <ele>387.55</ele>
        <time>2020-07-12T07:57:55Z</time>
      </trkpt>
      <trkpt lat="38.6139817815" lon="-6.3434194587">
        <ele>386.59</ele>
        <time>2020-07-12T07:58:06Z</time>
      </trkpt>
      <trkpt lat="38.6143221706" lon="-6.3435693271">
        <ele>386.11</ele>
        <time>2020-07-12T07:58:14Z</time>
      </trkpt>
      <trkpt lat="38.6146265175" lon="-6.3436852489">
        <ele>386.59</ele>
        <time>2020-07-12T07:58:21Z</time>
      </trkpt>
      <trkpt lat="38.6150727700" lon="-6.3437982369">
        <ele>385.63</ele>
        <time>2020-07-12T07:58:30Z</time>
      </trkpt>
      <trkpt lat="38.6155911908" lon="-6.3438977301">
        <ele>385.15</ele>
        <time>2020-07-12T07:58:41Z</time>
      </trkpt>
      <trkpt lat="38.6160623375" lon="-6.3439355325">
        <ele>384.66</ele>
        <time>2020-07-12T07:58:51Z</time>
      </trkpt>
      <trkpt lat="38.6165354960" lon="-6.3439288270">
        <ele>383.70</ele>
        <time>2020-07-12T07:59:01Z</time>
      </trkpt>
      <trkpt lat="38.6170864385" lon="-6.3438686449">
        <ele>382.26</ele>
        <time>2020-07-12T07:59:12Z</time>
      </trkpt>
      <trkpt lat="38.6176318489" lon="-6.3437841553">
        <ele>381.78</ele>
        <time>2020-07-12T07:59:22Z</time>
      </trkpt>
      <trkpt lat="38.6183153093" lon="-6.3437489513">
        <ele>381.78</ele>
        <time>2020-07-12T07:59:35Z</time>
      </trkpt>
      <trkpt lat="38.6188265216" lon="-6.3437225483">
        <ele>380.82</ele>
        <time>2020-07-12T07:59:45Z</time>
      </trkpt>
      <trkpt lat="38.6190716084" lon="-6.3437172677">
        <ele>380.34</ele>
        <time>2020-07-12T07:59:50Z</time>
      </trkpt>
      <trkpt lat="38.6194096506" lon="-6.3437559083">
        <ele>380.82</ele>
        <time>2020-07-12T07:59:57Z</time>
      </trkpt>
      <trkpt lat="38.6198089644" lon="-6.3438112289">
        <ele>380.34</ele>
        <time>2020-07-12T08:00:06Z</time>
      </trkpt>
      <trkpt lat="38.6202848051" lon="-6.3439380471">
        <ele>380.82</ele>
        <time>2020-07-12T08:00:17Z</time>
      </trkpt>
      <trkpt lat="38.6207049061" lon="-6.3440703135">
        <ele>380.34</ele>
        <time>2020-07-12T08:00:27Z</time>
      </trkpt>
      <trkpt lat="38.6211286113" lon="-6.3441346865">
        <ele>379.86</ele>
        <time>2020-07-12T08:00:36Z</time>
      </trkpt>
      <trkpt lat="38.6215601955" lon="-6.3441190962">
        <ele>379.38</ele>
        <time>2020-07-12T08:00:45Z</time>
      </trkpt>
      <trkpt lat="38.6220081244" lon="-6.3441179227">
        <ele>379.38</ele>
        <time>2020-07-12T08:00:55Z</time>
      </trkpt>
      <trkpt lat="38.6224870663" lon="-6.3441247120">
        <ele>378.90</ele>
        <time>2020-07-12T08:01:05Z</time>
      </trkpt>
      <trkpt lat="38.6230027210" lon="-6.3442334253">
        <ele>378.90</ele>
        <time>2020-07-12T08:01:16Z</time>
      </trkpt>
      <trkpt lat="38.6233761348" lon="-6.3444025721">
        <ele>379.38</ele>
        <time>2020-07-12T08:01:25Z</time>
      </trkpt>
      <trkpt lat="38.6237589363" lon="-6.3446517661">
        <ele>378.90</ele>
        <time>2020-07-12T08:01:34Z</time>
      </trkpt>
      <trkpt lat="38.6240911111" lon="-6.3448999543">
        <ele>377.94</ele>
        <time>2020-07-12T08:01:42Z</time>
      </trkpt>
      <trkpt lat="38.6245115474" lon="-6.3451165427">
        <ele>377.45</ele>
        <time>2020-07-12T08:01:52Z</time>
      </trkpt>
      <trkpt lat="38.6249236017" lon="-6.3452082407">
        <ele>376.97</ele>
        <time>2020-07-12T08:02:01Z</time>
      </trkpt>
      <trkpt lat="38.6252905615" lon="-6.3452431932">
        <ele>376.49</ele>
        <time>2020-07-12T08:02:09Z</time>
      </trkpt>
      <trkpt lat="38.6257237382" lon="-6.3452129345">
        <ele>375.53</ele>
        <time>2020-07-12T08:02:18Z</time>
      </trkpt>
      <trkpt lat="38.6261630338" lon="-6.3451566081">
        <ele>374.57</ele>
        <time>2020-07-12T08:02:28Z</time>
      </trkpt>
      <trkpt lat="38.6264740862" lon="-6.3450990245">
        <ele>374.09</ele>
        <time>2020-07-12T08:02:35Z</time>
      </trkpt>
      <trkpt lat="38.6269188300" lon="-6.3449902274">
        <ele>374.09</ele>
        <time>2020-07-12T08:02:45Z</time>
      </trkpt>
      <trkpt lat="38.6273671780" lon="-6.3448887225">
        <ele>373.61</ele>
        <time>2020-07-12T08:02:55Z</time>
      </trkpt>
      <trkpt lat="38.6278208066" lon="-6.3447914924">
        <ele>373.13</ele>
        <time>2020-07-12T08:03:05Z</time>
      </trkpt>
      <trkpt lat="38.6283169314" lon="-6.3446304761">
        <ele>373.13</ele>
        <time>2020-07-12T08:03:16Z</time>
      </trkpt>
      <trkpt lat="38.6286485195" lon="-6.3444537017">
        <ele>373.61</ele>
        <time>2020-07-12T08:03:24Z</time>
      </trkpt>
      <trkpt lat="38.6290643457" lon="-6.3441796135">
        <ele>374.57</ele>
        <time>2020-07-12T08:03:35Z</time>
      </trkpt>
      <trkpt lat="38.6294838600" lon="-6.3439503685">
        <ele>374.57</ele>
        <time>2020-07-12T08:03:45Z</time>
      </trkpt>
      <trkpt lat="38.6298978422" lon="-6.3438885938">
        <ele>374.57</ele>
        <time>2020-07-12T08:03:54Z</time>
      </trkpt>
      <trkpt lat="38.6303741857" lon="-6.3439539727">
        <ele>374.09</ele>
        <time>2020-07-12T08:04:04Z</time>
      </trkpt>
      <trkpt lat="38.6307662074" lon="-6.3440723252">
        <ele>373.61</ele>
        <time>2020-07-12T08:04:13Z</time>
      </trkpt>
      <trkpt lat="38.6311146431" lon="-6.3442149013">
        <ele>373.13</ele>
        <time>2020-07-12T08:04:21Z</time>
      </trkpt>
      <trkpt lat="38.6314179841" lon="-6.3443343434">
        <ele>373.13</ele>
        <time>2020-07-12T08:04:30Z</time>
      </trkpt>
      <trkpt lat="38.6315633263" lon="-6.3443862274">
        <ele>373.13</ele>
        <time>2020-07-12T08:04:36Z</time>
      </trkpt>
      <trkpt lat="38.6317406874" lon="-6.3444471639">
        <ele>373.13</ele>
        <time>2020-07-12T08:04:43Z</time>
      </trkpt>
      <trkpt lat="38.6320117582" lon="-6.3445850462">
        <ele>373.13</ele>
        <time>2020-07-12T08:04:51Z</time>
      </trkpt>
      <trkpt lat="38.6323513091" lon="-6.3447674364">
        <ele>373.61</ele>
        <time>2020-07-12T08:05:01Z</time>
      </trkpt>
      <trkpt lat="38.6324575916" lon="-6.3448999543">
        <ele>373.61</ele>
        <time>2020-07-12T08:05:07Z</time>
      </trkpt>
      <trkpt lat="38.6324573401" lon="-6.3449041452">
        <ele>373.61</ele>
        <time>2020-07-12T08:05:14Z</time>
      </trkpt>
      <trkpt lat="38.6324573401" lon="-6.3448965177">
        <ele>373.13</ele>
        <time>2020-07-12T08:05:30Z</time>
      </trkpt>
      <trkpt lat="38.6324685719" lon="-6.3448759820">
        <ele>371.69</ele>
        <time>2020-07-12T08:05:46Z</time>
      </trkpt>
      <trkpt lat="38.6324806418" lon="-6.3448630739">
        <ele>371.69</ele>
        <time>2020-07-12T08:05:47Z</time>
      </trkpt>
      <trkpt lat="38.6324829049" lon="-6.3448519260">
        <ele>372.17</ele>
        <time>2020-07-12T08:05:48Z</time>
      </trkpt>
      <trkpt lat="38.6324789654" lon="-6.3448380120">
        <ele>372.17</ele>
        <time>2020-07-12T08:05:49Z</time>
      </trkpt>
      <trkpt lat="38.6324700806" lon="-6.3448215835">
        <ele>372.17</ele>
        <time>2020-07-12T08:05:50Z</time>
      </trkpt>
      <trkpt lat="38.6324609444" lon="-6.3448069151">
        <ele>371.69</ele>
        <time>2020-07-12T08:05:51Z</time>
      </trkpt>
      <trkpt lat="38.6324163526" lon="-6.3447583839">
        <ele>371.69</ele>
        <time>2020-07-12T08:05:54Z</time>
      </trkpt>
      <trkpt lat="38.6323990021" lon="-6.3447612338">
        <ele>372.17</ele>
        <time>2020-07-12T08:05:55Z</time>
      </trkpt>
      <trkpt lat="38.6323995050" lon="-6.3448107708">
        <ele>372.17</ele>
        <time>2020-07-12T08:05:58Z</time>
      </trkpt>
      <trkpt lat="38.6324238963" lon="-6.3448311388">
        <ele>371.69</ele>
        <time>2020-07-12T08:05:59Z</time>
      </trkpt>
      <trkpt lat="38.6324482039" lon="-6.3448573742">
        <ele>371.69</ele>
        <time>2020-07-12T08:06:00Z</time>
      </trkpt>
      <trkpt lat="38.6324666440" lon="-6.3448845316">
        <ele>371.69</ele>
        <time>2020-07-12T08:06:01Z</time>
      </trkpt>
      <trkpt lat="38.6324840784" lon="-6.3449097611">
        <ele>371.69</ele>
        <time>2020-07-12T08:06:02Z</time>
      </trkpt>
      <trkpt lat="38.6326396465" lon="-6.3451477233">
        <ele>371.69</ele>
        <time>2020-07-12T08:06:08Z</time>
      </trkpt>
      <trkpt lat="38.6328351963" lon="-6.3454618771">
        <ele>371.69</ele>
        <time>2020-07-12T08:06:16Z</time>
      </trkpt>
      <trkpt lat="38.6328857392" lon="-6.3455273397">
        <ele>371.69</ele>
        <time>2020-07-12T08:06:19Z</time>
      </trkpt>
      <trkpt lat="38.6328823864" lon="-6.3455439359">
        <ele>371.69</ele>
        <time>2020-07-12T08:06:20Z</time>
      </trkpt>
      <trkpt lat="38.6328712385" lon="-6.3455487136">
        <ele>371.69</ele>
        <time>2020-07-12T08:06:21Z</time>
      </trkpt>
      <trkpt lat="38.6328579113" lon="-6.3455377333">
        <ele>371.69</ele>
        <time>2020-07-12T08:06:22Z</time>
      </trkpt>
      <trkpt lat="38.6328465119" lon="-6.3455209695">
        <ele>371.69</ele>
        <time>2020-07-12T08:06:23Z</time>
      </trkpt>
      <trkpt lat="38.6328302510" lon="-6.3454957400">
        <ele>371.21</ele>
        <time>2020-07-12T08:06:24Z</time>
      </trkpt>
      <trkpt lat="38.6326916981" lon="-6.3452772237">
        <ele>371.69</ele>
        <time>2020-07-12T08:06:31Z</time>
      </trkpt>
      <trkpt lat="38.6325185280" lon="-6.3450058177">
        <ele>371.21</ele>
        <time>2020-07-12T08:06:41Z</time>
      </trkpt>
      <trkpt lat="38.6324590165" lon="-6.3449241780">
        <ele>371.21</ele>
        <time>2020-07-12T08:06:48Z</time>
      </trkpt>
      <trkpt lat="38.6324716732" lon="-6.3449208252">
        <ele>371.21</ele>
        <time>2020-07-12T08:07:00Z</time>
      </trkpt>
      <trkpt lat="38.6324689072" lon="-6.3449194003">
        <ele>372.17</ele>
        <time>2020-07-12T08:07:14Z</time>
      </trkpt>
      <trkpt lat="38.6324671470" lon="-6.3449097611">
        <ele>371.69</ele>
        <time>2020-07-12T08:07:16Z</time>
      </trkpt>
      <trkpt lat="38.6324810609" lon="-6.3448593020">
        <ele>372.17</ele>
        <time>2020-07-12T08:07:20Z</time>
      </trkpt>
      <trkpt lat="38.6324953102" lon="-6.3448638283">
        <ele>372.17</ele>
        <time>2020-07-12T08:07:21Z</time>
      </trkpt>
      <trkpt lat="38.6325064581" lon="-6.3448760659">
        <ele>372.17</ele>
        <time>2020-07-12T08:07:22Z</time>
      </trkpt>
      <trkpt lat="38.6325172707" lon="-6.3448980264">
        <ele>372.17</ele>
        <time>2020-07-12T08:07:23Z</time>
      </trkpt>
      <trkpt lat="38.6325257365" lon="-6.3449241780">
        <ele>372.17</ele>
        <time>2020-07-12T08:07:24Z</time>
      </trkpt>
      <trkpt lat="38.6325384770" lon="-6.3449542690">
        <ele>372.17</ele>
        <time>2020-07-12T08:07:25Z</time>
      </trkpt>
      <trkpt lat="38.6325575877" lon="-6.3449840248">
        <ele>372.17</ele>
        <time>2020-07-12T08:07:26Z</time>
      </trkpt>
      <trkpt lat="38.6325773690" lon="-6.3450167980">
        <ele>372.17</ele>
        <time>2020-07-12T08:07:27Z</time>
      </trkpt>
      <trkpt lat="38.6325973179" lon="-6.3450526726">
        <ele>372.17</ele>
        <time>2020-07-12T08:07:28Z</time>
      </trkpt>
      <trkpt lat="38.6328427400" lon="-6.3454478793">
        <ele>371.69</ele>
        <time>2020-07-12T08:07:38Z</time>
      </trkpt>
      <trkpt lat="38.6332028266" lon="-6.3459873386">
        <ele>371.69</ele>
        <time>2020-07-12T08:07:50Z</time>
      </trkpt>
      <trkpt lat="38.6335849576" lon="-6.3464192580">
        <ele>371.21</ele>
        <time>2020-07-12T08:08:00Z</time>
      </trkpt>
      <trkpt lat="38.6339139473" lon="-6.3467645086">
        <ele>371.21</ele>
        <time>2020-07-12T08:08:09Z</time>
      </trkpt>
      <trkpt lat="38.6341821682" lon="-6.3470479846">
        <ele>371.21</ele>
        <time>2020-07-12T08:08:18Z</time>
      </trkpt>
      <trkpt lat="38.6345111579" lon="-6.3474635594">
        <ele>371.21</ele>
        <time>2020-07-12T08:08:29Z</time>
      </trkpt>
      <trkpt lat="38.6348232999" lon="-6.3478777092">
        <ele>371.21</ele>
        <time>2020-07-12T08:08:39Z</time>
      </trkpt>
      <trkpt lat="38.6352320015" lon="-6.3484168332">
        <ele>371.69</ele>
        <time>2020-07-12T08:08:51Z</time>
      </trkpt>
      <trkpt lat="38.6356476601" lon="-6.3489287160">
        <ele>371.69</ele>
        <time>2020-07-12T08:09:03Z</time>
      </trkpt>
      <trkpt lat="38.6358758155" lon="-6.3492037263">
        <ele>371.21</ele>
        <time>2020-07-12T08:09:12Z</time>
      </trkpt>
      <trkpt lat="38.6360608879" lon="-6.3494637329">
        <ele>371.21</ele>
        <time>2020-07-12T08:09:22Z</time>
      </trkpt>
      <trkpt lat="38.6362848524" lon="-6.3498135097">
        <ele>370.73</ele>
        <time>2020-07-12T08:09:31Z</time>
      </trkpt>
      <trkpt lat="38.6366513092" lon="-6.3504040148">
        <ele>370.24</ele>
        <time>2020-07-12T08:09:45Z</time>
      </trkpt>
      <trkpt lat="38.6369079631" lon="-6.3508145604">
        <ele>370.24</ele>
        <time>2020-07-12T08:09:55Z</time>
      </trkpt>
      <trkpt lat="38.6371849850" lon="-6.3512635790">
        <ele>369.76</ele>
        <time>2020-07-12T08:10:06Z</time>
      </trkpt>
      <trkpt lat="38.6374748312" lon="-6.3517259248">
        <ele>369.76</ele>
        <time>2020-07-12T08:10:17Z</time>
      </trkpt>
      <trkpt lat="38.6378219258" lon="-6.3522686530">
        <ele>369.28</ele>
        <time>2020-07-12T08:10:30Z</time>
      </trkpt>
      <trkpt lat="38.6381389294" lon="-6.3527146541">
        <ele>370.24</ele>
        <time>2020-07-12T08:10:42Z</time>
      </trkpt>
      <trkpt lat="38.6384110898" lon="-6.3530499302">
        <ele>370.24</ele>
        <time>2020-07-12T08:10:52Z</time>
      </trkpt>
      <trkpt lat="38.6385640595" lon="-6.3532426301">
        <ele>370.73</ele>
        <time>2020-07-12T08:10:59Z</time>
      </trkpt>
      <trkpt lat="38.6387158558" lon="-6.3534311391">
        <ele>370.73</ele>
        <time>2020-07-12T08:11:06Z</time>
      </trkpt>
      <trkpt lat="38.6388939712" lon="-6.3536520861">
        <ele>371.21</ele>
        <time>2020-07-12T08:11:14Z</time>
      </trkpt>
      <trkpt lat="38.6390873417" lon="-6.3538970891">
        <ele>371.69</ele>
        <time>2020-07-12T08:11:23Z</time>
      </trkpt>
      <trkpt lat="38.6392799579" lon="-6.3541276753">
        <ele>372.65</ele>
        <time>2020-07-12T08:11:32Z</time>
      </trkpt>
      <trkpt lat="38.6395134777" lon="-6.3544160128">
        <ele>374.09</ele>
        <time>2020-07-12T08:11:43Z</time>
      </trkpt>
      <trkpt lat="38.6396992207" lon="-6.3546574116">
        <ele>374.57</ele>
        <time>2020-07-12T08:11:52Z</time>
      </trkpt>
      <trkpt lat="38.6399370153" lon="-6.3549757563">
        <ele>374.57</ele>
        <time>2020-07-12T08:12:04Z</time>
      </trkpt>
      <trkpt lat="38.6400914937" lon="-6.3552585617">
        <ele>373.61</ele>
        <time>2020-07-12T08:12:13Z</time>
      </trkpt>
      <trkpt lat="38.6402284540" lon="-6.3555028941">
        <ele>372.17</ele>
        <time>2020-07-12T08:12:19Z</time>
      </trkpt>
      <trkpt lat="38.6404482275" lon="-6.3559042197">
        <ele>369.28</ele>
        <time>2020-07-12T08:12:26Z</time>
      </trkpt>
      <trkpt lat="38.6407625489" lon="-6.3564990833">
        <ele>365.44</ele>
        <time>2020-07-12T08:12:34Z</time>
      </trkpt>
      <trkpt lat="38.6411042791" lon="-6.3570823800">
        <ele>364.00</ele>
        <time>2020-07-12T08:12:43Z</time>
      </trkpt>
      <trkpt lat="38.6411357950" lon="-6.3571087830">
        <ele>364.00</ele>
        <time>2020-07-12T08:12:47Z</time>
      </trkpt>
      <trkpt lat="38.6411326099" lon="-6.3571015745">
        <ele>364.00</ele>
        <time>2020-07-12T08:13:05Z</time>
      </trkpt>
      <trkpt lat="38.6411333643" lon="-6.3571066875">
        <ele>364.00</ele>
        <time>2020-07-12T08:13:06Z</time>
      </trkpt>
      <trkpt lat="38.6411458533" lon="-6.3571813703">
        <ele>364.48</ele>
        <time>2020-07-12T08:13:10Z</time>
      </trkpt>
      <trkpt lat="38.6411556602" lon="-6.3572081085">
        <ele>364.48</ele>
        <time>2020-07-12T08:13:11Z</time>
      </trkpt>
      <trkpt lat="38.6411622819" lon="-6.3572260458">
        <ele>364.48</ele>
        <time>2020-07-12T08:13:12Z</time>
      </trkpt>
      <trkpt lat="38.6412541475" lon="-6.3573893253">
        <ele>364.96</ele>
        <time>2020-07-12T08:13:18Z</time>
      </trkpt>
      <trkpt lat="38.6414182652" lon="-6.3576663472">
        <ele>364.96</ele>
        <time>2020-07-12T08:13:26Z</time>
      </trkpt>
      <trkpt lat="38.6416346859" lon="-6.3580570277">
        <ele>364.48</ele>
        <time>2020-07-12T08:13:36Z</time>
      </trkpt>
      <trkpt lat="38.6418323312" lon="-6.3584555872">
        <ele>364.48</ele>
        <time>2020-07-12T08:13:46Z</time>
      </trkpt>
      <trkpt lat="38.6420797650" lon="-6.3589096349">
        <ele>364.00</ele>
        <time>2020-07-12T08:13:57Z</time>
      </trkpt>
      <trkpt lat="38.6423555296" lon="-6.3594112918">
        <ele>364.96</ele>
        <time>2020-07-12T08:14:10Z</time>
      </trkpt>
      <trkpt lat="38.6425799970" lon="-6.3596725557">
        <ele>365.92</ele>
        <time>2020-07-12T08:14:19Z</time>
      </trkpt>
      <trkpt lat="38.6428200547" lon="-6.3597156387">
        <ele>366.88</ele>
        <time>2020-07-12T08:14:26Z</time>
      </trkpt>
      <trkpt lat="38.6431461945" lon="-6.3597120345">
        <ele>367.36</ele>
        <time>2020-07-12T08:14:35Z</time>
      </trkpt>
      <trkpt lat="38.6434335262" lon="-6.3597376831">
        <ele>367.36</ele>
        <time>2020-07-12T08:14:43Z</time>
      </trkpt>
      <trkpt lat="38.6438531242" lon="-6.3598141260">
        <ele>366.88</ele>
        <time>2020-07-12T08:14:54Z</time>
      </trkpt>
      <trkpt lat="38.6442334950" lon="-6.3598628249">
        <ele>366.40</ele>
        <time>2020-07-12T08:15:04Z</time>
      </trkpt>
      <trkpt lat="38.6446696892" lon="-6.3597899023">
        <ele>366.40</ele>
        <time>2020-07-12T08:15:15Z</time>
      </trkpt>
      <trkpt lat="38.6450412590" lon="-6.3597036526">
        <ele>366.40</ele>
        <time>2020-07-12T08:15:24Z</time>
      </trkpt>
      <trkpt lat="38.6454690713" lon="-6.3596185762">
        <ele>366.40</ele>
        <time>2020-07-12T08:15:34Z</time>
      </trkpt>
      <trkpt lat="38.6457784474" lon="-6.3595617469">
        <ele>366.40</ele>
        <time>2020-07-12T08:15:42Z</time>
      </trkpt>
      <trkpt lat="38.6460862309" lon="-6.3595183287">
        <ele>366.40</ele>
        <time>2020-07-12T08:15:50Z</time>
      </trkpt>
      <trkpt lat="38.6464624945" lon="-6.3595435582">
        <ele>366.88</ele>
        <time>2020-07-12T08:16:00Z</time>
      </trkpt>
      <trkpt lat="38.6467386782" lon="-6.3597008027">
        <ele>367.36</ele>
        <time>2020-07-12T08:16:08Z</time>
      </trkpt>
      <trkpt lat="38.6470257584" lon="-6.3599779084">
        <ele>368.32</ele>
        <time>2020-07-12T08:16:18Z</time>
      </trkpt>
      <trkpt lat="38.6473587714" lon="-6.3603219856">
        <ele>369.28</ele>
        <time>2020-07-12T08:16:31Z</time>
      </trkpt>
      <trkpt lat="38.6475463584" lon="-6.3605181221">
        <ele>369.76</ele>
        <time>2020-07-12T08:16:39Z</time>
      </trkpt>
      <trkpt lat="38.6477564927" lon="-6.3607404940">
        <ele>370.73</ele>
        <time>2020-07-12T08:16:49Z</time>
      </trkpt>
      <trkpt lat="38.6479939520" lon="-6.3609516341">
        <ele>371.21</ele>
        <time>2020-07-12T08:16:59Z</time>
      </trkpt>
      <trkpt lat="38.6482986342" lon="-6.3611377962">
        <ele>372.17</ele>
        <time>2020-07-12T08:17:10Z</time>
      </trkpt>
      <trkpt lat="38.6485743988" lon="-6.3612553105">
        <ele>371.69</ele>
        <time>2020-07-12T08:17:19Z</time>
      </trkpt>
      <trkpt lat="38.6489307974" lon="-6.3613967132">
        <ele>371.21</ele>
        <time>2020-07-12T08:17:30Z</time>
      </trkpt>
      <trkpt lat="38.6492798198" lon="-6.3615305722">
        <ele>370.24</ele>
        <time>2020-07-12T08:17:40Z</time>
      </trkpt>
      <trkpt lat="38.6495879386" lon="-6.3616457395">
        <ele>369.28</ele>
        <time>2020-07-12T08:17:48Z</time>
      </trkpt>
      <trkpt lat="38.6499128211" lon="-6.3617104478">
        <ele>368.80</ele>
        <time>2020-07-12T08:17:57Z</time>
      </trkpt>
      <trkpt lat="38.6502710637" lon="-6.3617133815">
        <ele>368.32</ele>
        <time>2020-07-12T08:18:06Z</time>
      </trkpt>
      <trkpt lat="38.6506845430" lon="-6.3617111184">
        <ele>368.80</ele>
        <time>2020-07-12T08:18:17Z</time>
      </trkpt>
      <trkpt lat="38.6510553584" lon="-6.3617037423">
        <ele>369.28</ele>
        <time>2020-07-12T08:18:27Z</time>
      </trkpt>
      <trkpt lat="38.6514439434" lon="-6.3617065921">
        <ele>369.28</ele>
        <time>2020-07-12T08:18:38Z</time>
      </trkpt>
      <trkpt lat="38.6516935565" lon="-6.3617123757">
        <ele>368.80</ele>
        <time>2020-07-12T08:18:45Z</time>
      </trkpt>
      <trkpt lat="38.6520070396" lon="-6.3617273793">
        <ele>368.80</ele>
        <time>2020-07-12T08:18:54Z</time>
      </trkpt>
      <trkpt lat="38.6524251290" lon="-6.3617422152">
        <ele>368.80</ele>
        <time>2020-07-12T08:19:06Z</time>
      </trkpt>
      <trkpt lat="38.6527702957" lon="-6.3617566321">
        <ele>368.80</ele>
        <time>2020-07-12T08:19:15Z</time>
      </trkpt>
      <trkpt lat="38.6531846970" lon="-6.3617696241">
        <ele>368.32</ele>
        <time>2020-07-12T08:19:26Z</time>
      </trkpt>
      <trkpt lat="38.6535147764" lon="-6.3617847953">
        <ele>368.32</ele>
        <time>2020-07-12T08:19:35Z</time>
      </trkpt>
      <trkpt lat="38.6539601069" lon="-6.3617975358">
        <ele>368.80</ele>
        <time>2020-07-12T08:19:46Z</time>
      </trkpt>
      <trkpt lat="38.6543243844" lon="-6.3618197478">
        <ele>368.32</ele>
        <time>2020-07-12T08:19:55Z</time>
      </trkpt>
      <trkpt lat="38.6546441540" lon="-6.3618334103">
        <ele>367.84</ele>
        <time>2020-07-12T08:20:03Z</time>
      </trkpt>
      <trkpt lat="38.6551136244" lon="-6.3618565444">
        <ele>366.88</ele>
        <time>2020-07-12T08:20:14Z</time>
      </trkpt>
      <trkpt lat="38.6553058214" lon="-6.3618608192">
        <ele>366.40</ele>
        <time>2020-07-12T08:20:18Z</time>
      </trkpt>
      <trkpt lat="38.6557877809" lon="-6.3618843723">
        <ele>364.96</ele>
        <time>2020-07-12T08:20:27Z</time>
      </trkpt>
      <trkpt lat="38.6564258114" lon="-6.3619211689">
        <ele>363.04</ele>
        <time>2020-07-12T08:20:38Z</time>
      </trkpt>
      <trkpt lat="38.6568436492" lon="-6.3619453087">
        <ele>362.55</ele>
        <time>2020-07-12T08:20:47Z</time>
      </trkpt>
      <trkpt lat="38.6572121177" lon="-6.3619670179">
        <ele>363.52</ele>
        <time>2020-07-12T08:20:57Z</time>
      </trkpt>
      <trkpt lat="38.6575766467" lon="-6.3619861286">
        <ele>364.48</ele>
        <time>2020-07-12T08:21:06Z</time>
      </trkpt>
      <trkpt lat="38.6578650679" lon="-6.3620022219">
        <ele>364.96</ele>
        <time>2020-07-12T08:21:14Z</time>
      </trkpt>
      <trkpt lat="38.6582394876" lon="-6.3620194048">
        <ele>365.44</ele>
        <time>2020-07-12T08:21:25Z</time>
      </trkpt>
      <trkpt lat="38.6586141586" lon="-6.3620281219">
        <ele>366.40</ele>
        <time>2020-07-12T08:21:36Z</time>
      </trkpt>
      <trkpt lat="38.6588480975" lon="-6.3620334864">
        <ele>366.88</ele>
        <time>2020-07-12T08:21:44Z</time>
      </trkpt>
      <trkpt lat="38.6591716390" lon="-6.3620360848">
        <ele>366.40</ele>
        <time>2020-07-12T08:21:54Z</time>
      </trkpt>
      <trkpt lat="38.6593360081" lon="-6.3620403595">
        <ele>366.88</ele>
        <time>2020-07-12T08:22:01Z</time>
      </trkpt>
      <trkpt lat="38.6595028080" lon="-6.3620463107">
        <ele>366.88</ele>
        <time>2020-07-12T08:22:11Z</time>
      </trkpt>
      <trkpt lat="38.6596794147" lon="-6.3620567881">
        <ele>367.36</ele>
        <time>2020-07-12T08:22:20Z</time>
      </trkpt>
      <trkpt lat="38.6599612981" lon="-6.3620691933">
        <ele>366.88</ele>
        <time>2020-07-12T08:22:30Z</time>
      </trkpt>
      <trkpt lat="38.6602152698" lon="-6.3620897289">
        <ele>366.88</ele>
        <time>2020-07-12T08:22:41Z</time>
      </trkpt>
      <trkpt lat="38.6603395734" lon="-6.3620956801">
        <ele>367.36</ele>
        <time>2020-07-12T08:22:49Z</time>
      </trkpt>
      <trkpt lat="38.6605259031" lon="-6.3620983623">
        <ele>367.36</ele>
        <time>2020-07-12T08:22:59Z</time>
      </trkpt>
      <trkpt lat="38.6607905198" lon="-6.3621125277">
        <ele>366.40</ele>
        <time>2020-07-12T08:23:09Z</time>
      </trkpt>
      <trkpt lat="38.6610563099" lon="-6.3621183112">
        <ele>365.92</ele>
        <time>2020-07-12T08:23:20Z</time>
      </trkpt>
      <trkpt lat="38.6613342538" lon="-6.3621199876">
        <ele>365.92</ele>
        <time>2020-07-12T08:23:29Z</time>
      </trkpt>
      <trkpt lat="38.6616613995" lon="-6.3621352427">
        <ele>364.96</ele>
        <time>2020-07-12T08:23:41Z</time>
      </trkpt>
      <trkpt lat="38.6619447917" lon="-6.3621449657">
        <ele>364.48</ele>
        <time>2020-07-12T08:23:51Z</time>
      </trkpt>
      <trkpt lat="38.6622436065" lon="-6.3621581253">
        <ele>363.52</ele>
        <time>2020-07-12T08:24:01Z</time>
      </trkpt>
      <trkpt lat="38.6625352968" lon="-6.3621738832">
        <ele>363.04</ele>
        <time>2020-07-12T08:24:10Z</time>
      </trkpt>
      <trkpt lat="38.6628137436" lon="-6.3621914852">
        <ele>363.04</ele>
        <time>2020-07-12T08:24:20Z</time>
      </trkpt>
      <trkpt lat="38.6630947888" lon="-6.3622116856">
        <ele>362.55</ele>
        <time>2020-07-12T08:24:29Z</time>
      </trkpt>
      <trkpt lat="38.6633095331" lon="-6.3622194808">
        <ele>362.55</ele>
        <time>2020-07-12T08:24:36Z</time>
      </trkpt>
      <trkpt lat="38.6637097690" lon="-6.3622308802">
        <ele>362.55</ele>
        <time>2020-07-12T08:24:47Z</time>
      </trkpt>
      <trkpt lat="38.6641595419" lon="-6.3622371666">
        <ele>363.04</ele>
        <time>2020-07-12T08:24:59Z</time>
      </trkpt>
      <trkpt lat="38.6644571833" lon="-6.3622667547">
        <ele>363.04</ele>
        <time>2020-07-12T08:25:07Z</time>
      </trkpt>
      <trkpt lat="38.6647807248" lon="-6.3622834347">
        <ele>363.52</ele>
        <time>2020-07-12T08:25:16Z</time>
      </trkpt>
      <trkpt lat="38.6650258955" lon="-6.3622877095">
        <ele>363.52</ele>
        <time>2020-07-12T08:25:23Z</time>
      </trkpt>
      <trkpt lat="38.6650468502" lon="-6.3622880448">
        <ele>363.52</ele>
        <time>2020-07-12T08:25:27Z</time>
      </trkpt>
      <trkpt lat="38.6650471017" lon="-6.3622795790">
        <ele>364.00</ele>
        <time>2020-07-12T08:25:38Z</time>
      </trkpt>
      <trkpt lat="38.6650480237" lon="-6.3622742984">
        <ele>365.92</ele>
        <time>2020-07-12T08:25:57Z</time>
      </trkpt>
      <trkpt lat="38.6650539748" lon="-6.3622790761">
        <ele>366.40</ele>
        <time>2020-07-12T08:26:11Z</time>
      </trkpt>
      <trkpt lat="38.6650579143" lon="-6.3622749690">
        <ele>366.88</ele>
        <time>2020-07-12T08:26:31Z</time>
      </trkpt>
      <trkpt lat="38.6650479399" lon="-6.3622921519">
        <ele>366.88</ele>
        <time>2020-07-12T08:26:52Z</time>
      </trkpt>
      <trkpt lat="38.6650476884" lon="-6.3622924872">
        <ele>366.40</ele>
        <time>2020-07-12T08:27:06Z</time>
      </trkpt>
      <trkpt lat="38.6650467664" lon="-6.3622790761">
        <ele>366.40</ele>
        <time>2020-07-12T08:27:18Z</time>
      </trkpt>
      <trkpt lat="38.6650460958" lon="-6.3622814231">
        <ele>366.40</ele>
        <time>2020-07-12T08:27:34Z</time>
      </trkpt>
      <trkpt lat="38.6650529690" lon="-6.3622860331">
        <ele>364.96</ele>
        <time>2020-07-12T08:27:49Z</time>
      </trkpt>
      <trkpt lat="38.6650518794" lon="-6.3622874580">
        <ele>364.00</ele>
        <time>2020-07-12T08:28:04Z</time>
      </trkpt>
      <trkpt lat="38.6650518794" lon="-6.3622989412">
        <ele>364.96</ele>
        <time>2020-07-12T08:28:25Z</time>
      </trkpt>
      <trkpt lat="38.6650500353" lon="-6.3622959238">
        <ele>364.48</ele>
        <time>2020-07-12T08:28:40Z</time>
      </trkpt>
      <trkpt lat="38.6650501192" lon="-6.3622915652">
        <ele>364.96</ele>
        <time>2020-07-12T08:29:01Z</time>
      </trkpt>
      <trkpt lat="38.6650498677" lon="-6.3622933254">
        <ele>364.00</ele>
        <time>2020-07-12T08:29:22Z</time>
      </trkpt>
      <trkpt lat="38.6650516279" lon="-6.3622920681">
        <ele>363.52</ele>
        <time>2020-07-12T08:29:46Z</time>
      </trkpt>
      <trkpt lat="38.6650549807" lon="-6.3622985221">
        <ele>364.48</ele>
        <time>2020-07-12T08:30:05Z</time>
      </trkpt>
      <trkpt lat="38.6650525499" lon="-6.3622939121">
        <ele>364.48</ele>
        <time>2020-07-12T08:30:13Z</time>
      </trkpt>
      <trkpt lat="38.6651137378" lon="-6.3623044733">
        <ele>364.00</ele>
        <time>2020-07-12T08:30:18Z</time>
      </trkpt>
      <trkpt lat="38.6653886642" lon="-6.3623168785">
        <ele>363.52</ele>
        <time>2020-07-12T08:30:29Z</time>
      </trkpt>
      <trkpt lat="38.6656727269" lon="-6.3623260986">
        <ele>363.52</ele>
        <time>2020-07-12T08:30:38Z</time>
      </trkpt>
      <trkpt lat="38.6660842784" lon="-6.3623388391">
        <ele>363.52</ele>
        <time>2020-07-12T08:30:50Z</time>
      </trkpt>
      <trkpt lat="38.6663325503" lon="-6.3623337261">
        <ele>363.04</ele>
        <time>2020-07-12T08:30:57Z</time>
      </trkpt>
      <trkpt lat="38.6667879391" lon="-6.3623492327">
        <ele>363.04</ele>
        <time>2020-07-12T08:31:10Z</time>
      </trkpt>
      <trkpt lat="38.6671264842" lon="-6.3623560220">
        <ele>363.04</ele>
        <time>2020-07-12T08:31:20Z</time>
      </trkpt>
      <trkpt lat="38.6674216110" lon="-6.3623659965">
        <ele>363.52</ele>
        <time>2020-07-12T08:31:29Z</time>
      </trkpt>
      <trkpt lat="38.6678607389" lon="-6.3623790722">
        <ele>364.00</ele>
        <time>2020-07-12T08:31:42Z</time>
      </trkpt>
      <trkpt lat="38.6681089271" lon="-6.3624000270">
        <ele>364.48</ele>
        <time>2020-07-12T08:31:50Z</time>
      </trkpt>
      <trkpt lat="38.6685059778" lon="-6.3624177128">
        <ele>365.44</ele>
        <time>2020-07-12T08:32:02Z</time>
      </trkpt>
      <trkpt lat="38.6689184513" lon="-6.3624405116">
        <ele>366.40</ele>
        <time>2020-07-12T08:32:14Z</time>
      </trkpt>
      <trkpt lat="38.6693030130" lon="-6.3624507375">
        <ele>365.92</ele>
        <time>2020-07-12T08:32:25Z</time>
      </trkpt>
      <trkpt lat="38.6696472578" lon="-6.3624621369">
        <ele>365.92</ele>
        <time>2020-07-12T08:32:35Z</time>
      </trkpt>
      <trkpt lat="38.6700826976" lon="-6.3624871150">
        <ele>366.40</ele>
        <time>2020-07-12T08:32:47Z</time>
      </trkpt>
      <trkpt lat="38.6705021281" lon="-6.3625072315">
        <ele>366.40</ele>
        <time>2020-07-12T08:32:58Z</time>
      </trkpt>
      <trkpt lat="38.6709118355" lon="-6.3625289407">
        <ele>366.40</ele>
        <time>2020-07-12T08:33:09Z</time>
      </trkpt>
      <trkpt lat="38.6712036934" lon="-6.3625398371">
        <ele>366.40</ele>
        <time>2020-07-12T08:33:17Z</time>
      </trkpt>
      <trkpt lat="38.6716336850" lon="-6.3625503983">
        <ele>366.40</ele>
        <time>2020-07-12T08:33:28Z</time>
      </trkpt>
      <trkpt lat="38.6719795223" lon="-6.3625730295">
        <ele>367.36</ele>
        <time>2020-07-12T08:33:38Z</time>
      </trkpt>
      <trkpt lat="38.6722676083" lon="-6.3625881169">
        <ele>367.84</ele>
        <time>2020-07-12T08:33:48Z</time>
      </trkpt>
      <trkpt lat="38.6725072470" lon="-6.3625959959">
        <ele>369.28</ele>
        <time>2020-07-12T08:33:57Z</time>
      </trkpt>
      <trkpt lat="38.6727527529" lon="-6.3626021147">
        <ele>369.76</ele>
        <time>2020-07-12T08:34:08Z</time>
      </trkpt>
      <trkpt lat="38.6729566008" lon="-6.3626104966">
        <ele>371.21</ele>
        <time>2020-07-12T08:34:18Z</time>
      </trkpt>
      <trkpt lat="38.6731353030" lon="-6.3626236562">
        <ele>371.69</ele>
        <time>2020-07-12T08:34:27Z</time>
      </trkpt>
      <trkpt lat="38.6732803099" lon="-6.3626055513">
        <ele>372.17</ele>
        <time>2020-07-12T08:34:35Z</time>
      </trkpt>
      <trkpt lat="38.6734735128" lon="-6.3626246620">
        <ele>372.65</ele>
        <time>2020-07-12T08:34:45Z</time>
      </trkpt>
      <trkpt lat="38.6736750137" lon="-6.3626488019">
        <ele>374.09</ele>
        <time>2020-07-12T08:34:55Z</time>
      </trkpt>
      <trkpt lat="38.6738693062" lon="-6.3626564294">
        <ele>375.05</ele>
        <time>2020-07-12T08:35:05Z</time>
      </trkpt>
      <trkpt lat="38.6740299873" lon="-6.3626658171">
        <ele>376.01</ele>
        <time>2020-07-12T08:35:13Z</time>
      </trkpt>
      <trkpt lat="38.6742049176" lon="-6.3626566809">
        <ele>376.49</ele>
        <time>2020-07-12T08:35:22Z</time>
      </trkpt>
      <trkpt lat="38.6744160578" lon="-6.3626645599">
        <ele>377.45</ele>
        <time>2020-07-12T08:35:32Z</time>
      </trkpt>
      <trkpt lat="38.6745909881" lon="-6.3626683317">
        <ele>377.94</ele>
        <time>2020-07-12T08:35:40Z</time>
      </trkpt>
      <trkpt lat="38.6748163775" lon="-6.3626787253">
        <ele>377.94</ele>
        <time>2020-07-12T08:35:50Z</time>
      </trkpt>
      <trkpt lat="38.6750548426" lon="-6.3626862690">
        <ele>377.94</ele>
        <time>2020-07-12T08:35:59Z</time>
      </trkpt>
      <trkpt lat="38.6753320321" lon="-6.3626976684">
        <ele>377.45</ele>
        <time>2020-07-12T08:36:09Z</time>
      </trkpt>
      <trkpt lat="38.6755316053" lon="-6.3627086487">
        <ele>377.45</ele>
        <time>2020-07-12T08:36:17Z</time>
      </trkpt>
      <trkpt lat="38.6757676397" lon="-6.3627109118">
        <ele>377.94</ele>
        <time>2020-07-12T08:36:26Z</time>
      </trkpt>
      <trkpt lat="38.6760936957" lon="-6.3627292681">
        <ele>378.90</ele>
        <time>2020-07-12T08:36:38Z</time>
      </trkpt>
      <trkpt lat="38.6763796862" lon="-6.3627310283">
        <ele>379.38</ele>
        <time>2020-07-12T08:36:48Z</time>
      </trkpt>
      <trkpt lat="38.6766431294" lon="-6.3627456967">
        <ele>380.34</ele>
        <time>2020-07-12T08:36:57Z</time>
      </trkpt>
      <trkpt lat="38.6769378372" lon="-6.3627622928">
        <ele>381.30</ele>
        <time>2020-07-12T08:37:07Z</time>
      </trkpt>
      <trkpt lat="38.6772155296" lon="-6.3627802301">
        <ele>382.26</ele>
        <time>2020-07-12T08:37:17Z</time>
      </trkpt>
      <trkpt lat="38.6774943955" lon="-6.3627848402">
        <ele>382.74</ele>
        <time>2020-07-12T08:37:28Z</time>
      </trkpt>
      <trkpt lat="38.6776539870" lon="-6.3628200442">
        <ele>383.22</ele>
        <time>2020-07-12T08:37:36Z</time>
      </trkpt>
      <trkpt lat="38.6777211260" lon="-6.3627941441">
        <ele>383.70</ele>
        <time>2020-07-12T08:37:42Z</time>
      </trkpt>
      <trkpt lat="38.6777193658" lon="-6.3627954852">
        <ele>384.18</ele>
        <time>2020-07-12T08:37:48Z</time>
      </trkpt>
      <trkpt lat="38.6777232215" lon="-6.3628086448">
        <ele>383.70</ele>
        <time>2020-07-12T08:38:02Z</time>
      </trkpt>
      <trkpt lat="38.6777228024" lon="-6.3628092315">
        <ele>383.70</ele>
        <time>2020-07-12T08:38:21Z</time>
      </trkpt>
      <trkpt lat="38.6777259875" lon="-6.3628111593">
        <ele>381.30</ele>
        <time>2020-07-12T08:38:40Z</time>
      </trkpt>
      <trkpt lat="38.6777217127" lon="-6.3628100697">
        <ele>380.34</ele>
        <time>2020-07-12T08:39:06Z</time>
      </trkpt>
      <trkpt lat="38.6777291726" lon="-6.3627969939">
        <ele>380.82</ele>
        <time>2020-07-12T08:39:38Z</time>
      </trkpt>
      <trkpt lat="38.6777248979" lon="-6.3627952337">
        <ele>380.82</ele>
        <time>2020-07-12T08:40:01Z</time>
      </trkpt>
      <trkpt lat="38.6777275801" lon="-6.3628029451">
        <ele>381.30</ele>
        <time>2020-07-12T08:40:14Z</time>
      </trkpt>
      <trkpt lat="38.6777410749" lon="-6.3628015202">
        <ele>381.30</ele>
        <time>2020-07-12T08:40:22Z</time>
      </trkpt>
      <trkpt lat="38.6777497921" lon="-6.3628042024">
        <ele>381.30</ele>
        <time>2020-07-12T08:40:23Z</time>
      </trkpt>
      <trkpt lat="38.6777620297" lon="-6.3628084771">
        <ele>381.30</ele>
        <time>2020-07-12T08:40:24Z</time>
      </trkpt>
      <trkpt lat="38.6777765304" lon="-6.3628145959">
        <ele>381.30</ele>
        <time>2020-07-12T08:40:25Z</time>
      </trkpt>
      <trkpt lat="38.6777969822" lon="-6.3628202956">
        <ele>381.78</ele>
        <time>2020-07-12T08:40:26Z</time>
      </trkpt>
      <trkpt lat="38.6778197810" lon="-6.3628231455">
        <ele>381.78</ele>
        <time>2020-07-12T08:40:27Z</time>
      </trkpt>
      <trkpt lat="38.6778452620" lon="-6.3628263306">
        <ele>381.78</ele>
        <time>2020-07-12T08:40:28Z</time>
      </trkpt>
      <trkpt lat="38.6778736766" lon="-6.3628290128">
        <ele>381.78</ele>
        <time>2020-07-12T08:40:29Z</time>
      </trkpt>
      <trkpt lat="38.6779041868" lon="-6.3628321141">
        <ele>381.78</ele>
        <time>2020-07-12T08:40:30Z</time>
      </trkpt>
      <trkpt lat="38.6779339425" lon="-6.3628359698">
        <ele>381.78</ele>
        <time>2020-07-12T08:40:31Z</time>
      </trkpt>
      <trkpt lat="38.6779659614" lon="-6.3628384843">
        <ele>381.78</ele>
        <time>2020-07-12T08:40:32Z</time>
      </trkpt>
      <trkpt lat="38.6783732381" lon="-6.3628519792">
        <ele>381.78</ele>
        <time>2020-07-12T08:40:43Z</time>
      </trkpt>
      <trkpt lat="38.6787139624" lon="-6.3628593553">
        <ele>381.78</ele>
        <time>2020-07-12T08:40:52Z</time>
      </trkpt>
      <trkpt lat="38.6791147850" lon="-6.3628827408">
        <ele>382.26</ele>
        <time>2020-07-12T08:41:03Z</time>
      </trkpt>
      <trkpt lat="38.6794371530" lon="-6.3629011810">
        <ele>381.78</ele>
        <time>2020-07-12T08:41:12Z</time>
      </trkpt>
      <trkpt lat="38.6797157675" lon="-6.3628982473">
        <ele>381.78</ele>
        <time>2020-07-12T08:41:20Z</time>
      </trkpt>
      <trkpt lat="38.6801468488" lon="-6.3629110716">
        <ele>381.30</ele>
        <time>2020-07-12T08:41:32Z</time>
      </trkpt>
      <trkpt lat="38.6804623436" lon="-6.3629147597">
        <ele>381.30</ele>
        <time>2020-07-12T08:41:41Z</time>
      </trkpt>
      <trkpt lat="38.6808132939" lon="-6.3629298471">
        <ele>381.30</ele>
        <time>2020-07-12T08:41:50Z</time>
      </trkpt>
      <trkpt lat="38.6812310480" lon="-6.3629456051">
        <ele>381.30</ele>
        <time>2020-07-12T08:42:01Z</time>
      </trkpt>
      <trkpt lat="38.6816187948" lon="-6.3629716728">
        <ele>380.82</ele>
        <time>2020-07-12T08:42:11Z</time>
      </trkpt>
      <trkpt lat="38.6819228902" lon="-6.3629775401">
        <ele>380.82</ele>
        <time>2020-07-12T08:42:19Z</time>
      </trkpt>
      <trkpt lat="38.6825539637" lon="-6.3630103134">
        <ele>379.86</ele>
        <time>2020-07-12T08:42:34Z</time>
      </trkpt>
      <trkpt lat="38.6829462368" lon="-6.3630334474">
        <ele>379.86</ele>
        <time>2020-07-12T08:42:44Z</time>
      </trkpt>
      <trkpt lat="38.6834181380" lon="-6.3630470261">
        <ele>379.38</ele>
        <time>2020-07-12T08:42:56Z</time>
      </trkpt>
      <trkpt lat="38.6837481335" lon="-6.3630550727">
        <ele>378.90</ele>
        <time>2020-07-12T08:43:04Z</time>
      </trkpt>
      <trkpt lat="38.6838380713" lon="-6.3630561624">
        <ele>378.42</ele>
        <time>2020-07-12T08:43:06Z</time>
      </trkpt>
      <trkpt lat="38.6838827468" lon="-6.3630549889">
        <ele>378.42</ele>
        <time>2020-07-12T08:43:07Z</time>
      </trkpt>
      <trkpt lat="38.6842982378" lon="-6.3630669750">
        <ele>377.45</ele>
        <time>2020-07-12T08:43:16Z</time>
      </trkpt>
      <trkpt lat="38.6847452447" lon="-6.3630831521">
        <ele>376.49</ele>
        <time>2020-07-12T08:43:26Z</time>
      </trkpt>
      <trkpt lat="38.6851339135" lon="-6.3630896900">
        <ele>376.01</ele>
        <time>2020-07-12T08:43:35Z</time>
      </trkpt>
      <trkpt lat="38.6855424475" lon="-6.3631065376">
        <ele>376.01</ele>
        <time>2020-07-12T08:43:45Z</time>
      </trkpt>
      <trkpt lat="38.6859382410" lon="-6.3631144166">
        <ele>375.53</ele>
        <time>2020-07-12T08:43:55Z</time>
      </trkpt>
      <trkpt lat="38.6863963120" lon="-6.3631329406">
        <ele>375.53</ele>
        <time>2020-07-12T08:44:07Z</time>
      </trkpt>
      <trkpt lat="38.6867620982" lon="-6.3631407358">
        <ele>376.49</ele>
        <time>2020-07-12T08:44:17Z</time>
      </trkpt>
      <trkpt lat="38.6870770063" lon="-6.3631385565">
        <ele>376.97</ele>
        <time>2020-07-12T08:44:26Z</time>
      </trkpt>
      <trkpt lat="38.6873948481" lon="-6.3631483633">
        <ele>377.45</ele>
        <time>2020-07-12T08:44:36Z</time>
      </trkpt>
      <trkpt lat="38.6877164617" lon="-6.3631580025">
        <ele>378.42</ele>
        <time>2020-07-12T08:44:46Z</time>
      </trkpt>
      <trkpt lat="38.6882178672" lon="-6.3631750178">
        <ele>378.42</ele>
        <time>2020-07-12T08:45:00Z</time>
      </trkpt>
      <trkpt lat="38.6885795463" lon="-6.3631960563">
        <ele>378.90</ele>
        <time>2020-07-12T08:45:10Z</time>
      </trkpt>
      <trkpt lat="38.6888825521" lon="-6.3632166758">
        <ele>379.38</ele>
        <time>2020-07-12T08:45:19Z</time>
      </trkpt>
      <trkpt lat="38.6891898327" lon="-6.3632621057">
        <ele>379.38</ele>
        <time>2020-07-12T08:45:27Z</time>
      </trkpt>
      <trkpt lat="38.6894571315" lon="-6.3632904366">
        <ele>379.38</ele>
        <time>2020-07-12T08:45:34Z</time>
      </trkpt>
      <trkpt lat="38.6897962634" lon="-6.3633060269">
        <ele>378.42</ele>
        <time>2020-07-12T08:45:43Z</time>
      </trkpt>
      <trkpt lat="38.6900685914" lon="-6.3633231260">
        <ele>377.45</ele>
        <time>2020-07-12T08:45:50Z</time>
      </trkpt>
      <trkpt lat="38.6901094113" lon="-6.3633253891">
        <ele>377.45</ele>
        <time>2020-07-12T08:45:51Z</time>
      </trkpt>
      <trkpt lat="38.6901500635" lon="-6.3633286580">
        <ele>376.97</ele>
        <time>2020-07-12T08:45:52Z</time>
      </trkpt>
      <trkpt lat="38.6901913024" lon="-6.3633266464">
        <ele>376.97</ele>
        <time>2020-07-12T08:45:53Z</time>
      </trkpt>
      <trkpt lat="38.6902308650" lon="-6.3633242995">
        <ele>376.49</ele>
        <time>2020-07-12T08:45:54Z</time>
      </trkpt>
      <trkpt lat="38.6902697571" lon="-6.3633258920">
        <ele>376.49</ele>
        <time>2020-07-12T08:45:55Z</time>
      </trkpt>
      <trkpt lat="38.6907483637" lon="-6.3633434940">
        <ele>375.05</ele>
        <time>2020-07-12T08:46:06Z</time>
      </trkpt>
      <trkpt lat="38.6912470032" lon="-6.3633639459">
        <ele>373.61</ele>
        <time>2020-07-12T08:46:16Z</time>
      </trkpt>
      <trkpt lat="38.6916726362" lon="-6.3633828051">
        <ele>372.65</ele>
        <time>2020-07-12T08:46:25Z</time>
      </trkpt>
      <trkpt lat="38.6918505840" lon="-6.3633926120">
        <ele>372.65</ele>
        <time>2020-07-12T08:46:29Z</time>
      </trkpt>
      <trkpt lat="38.6923671607" lon="-6.3634097949">
        <ele>371.21</ele>
        <time>2020-07-12T08:46:41Z</time>
      </trkpt>
      <trkpt lat="38.6927949730" lon="-6.3634232059">
        <ele>370.73</ele>
        <time>2020-07-12T08:46:51Z</time>
      </trkpt>
      <trkpt lat="38.6932313349" lon="-6.3634429872">
        <ele>370.24</ele>
        <time>2020-07-12T08:47:00Z</time>
      </trkpt>
      <trkpt lat="38.6933367793" lon="-6.3634469267">
        <ele>370.24</ele>
        <time>2020-07-12T08:47:04Z</time>
      </trkpt>
      <trkpt lat="38.6933387071" lon="-6.3634422328">
        <ele>370.24</ele>
        <time>2020-07-12T08:47:14Z</time>
      </trkpt>
      <trkpt lat="38.6933506094" lon="-6.3634413946">
        <ele>370.24</ele>
        <time>2020-07-12T08:47:22Z</time>
      </trkpt>
      <trkpt lat="38.6933630146" lon="-6.3634366170">
        <ele>370.24</ele>
        <time>2020-07-12T08:47:23Z</time>
      </trkpt>
      <trkpt lat="38.6933763418" lon="-6.3634352759">
        <ele>370.24</ele>
        <time>2020-07-12T08:47:24Z</time>
      </trkpt>
      <trkpt lat="38.6933902558" lon="-6.3634360302">
        <ele>370.24</ele>
        <time>2020-07-12T08:47:25Z</time>
      </trkpt>
      <trkpt lat="38.6934040021" lon="-6.3634374551">
        <ele>370.73</ele>
        <time>2020-07-12T08:47:26Z</time>
      </trkpt>
      <trkpt lat="38.6934177484" lon="-6.3634363655">
        <ele>370.73</ele>
        <time>2020-07-12T08:47:27Z</time>
      </trkpt>
      <trkpt lat="38.6934343446" lon="-6.3634378742">
        <ele>370.73</ele>
        <time>2020-07-12T08:47:28Z</time>
      </trkpt>
      <trkpt lat="38.6934579816" lon="-6.3634407241">
        <ele>370.73</ele>
        <time>2020-07-12T08:47:29Z</time>
      </trkpt>
      <trkpt lat="38.6937111989" lon="-6.3634553924">
        <ele>370.24</ele>
        <time>2020-07-12T08:47:36Z</time>
      </trkpt>
      <trkpt lat="38.6940850317" lon="-6.3634698931">
        <ele>369.76</ele>
        <time>2020-07-12T08:47:45Z</time>
      </trkpt>
      <trkpt lat="38.6942255124" lon="-6.3634865731">
        <ele>369.76</ele>
        <time>2020-07-12T08:47:48Z</time>
      </trkpt>
      <trkpt lat="38.6942720320" lon="-6.3634928595">
        <ele>369.76</ele>
        <time>2020-07-12T08:47:49Z</time>
      </trkpt>
      <trkpt lat="38.6943137739" lon="-6.3634901773">
        <ele>369.76</ele>
        <time>2020-07-12T08:47:50Z</time>
      </trkpt>
      <trkpt lat="38.6947585177" lon="-6.3634849805">
        <ele>369.28</ele>
        <time>2020-07-12T08:48:00Z</time>
      </trkpt>
      <trkpt lat="38.6949167680" lon="-6.3634801190">
        <ele>369.76</ele>
        <time>2020-07-12T08:48:04Z</time>
      </trkpt>
      <trkpt lat="38.6949610244" lon="-6.3634848129">
        <ele>369.76</ele>
        <time>2020-07-12T08:48:05Z</time>
      </trkpt>
      <trkpt lat="38.6953980569" lon="-6.3634997327">
        <ele>369.76</ele>
        <time>2020-07-12T08:48:15Z</time>
      </trkpt>
      <trkpt lat="38.6958053336" lon="-6.3635170832">
        <ele>369.28</ele>
        <time>2020-07-12T08:48:25Z</time>
      </trkpt>
      <trkpt lat="38.6962972675" lon="-6.3635460008">
        <ele>368.80</ele>
        <time>2020-07-12T08:48:37Z</time>
      </trkpt>
      <trkpt lat="38.6966706812" lon="-6.3635615911">
        <ele>368.32</ele>
        <time>2020-07-12T08:48:46Z</time>
      </trkpt>
      <trkpt lat="38.6969655566" lon="-6.3635695539">
        <ele>368.80</ele>
        <time>2020-07-12T08:48:53Z</time>
      </trkpt>
      <trkpt lat="38.6973739229" lon="-6.3635779358">
        <ele>368.80</ele>
        <time>2020-07-12T08:49:02Z</time>
      </trkpt>
      <trkpt lat="38.6978640966" lon="-6.3635966275">
        <ele>367.84</ele>
        <time>2020-07-12T08:49:13Z</time>
      </trkpt>
      <trkpt lat="38.6983300466" lon="-6.3636115473">
        <ele>367.36</ele>
        <time>2020-07-12T08:49:23Z</time>
      </trkpt>
      <trkpt lat="38.6988524906" lon="-6.3636287302">
        <ele>366.88</ele>
        <time>2020-07-12T08:49:35Z</time>
      </trkpt>
      <trkpt lat="38.6992435064" lon="-6.3636427280">
        <ele>365.92</ele>
        <time>2020-07-12T08:49:44Z</time>
      </trkpt>
      <trkpt lat="38.6996514536" lon="-6.3636635989">
        <ele>365.92</ele>
        <time>2020-07-12T08:49:53Z</time>
      </trkpt>
      <trkpt lat="38.7000984605" lon="-6.3636797760">
        <ele>365.92</ele>
        <time>2020-07-12T08:50:03Z</time>
      </trkpt>
      <trkpt lat="38.7004913203" lon="-6.3636879902">
        <ele>365.92</ele>
        <time>2020-07-12T08:50:12Z</time>
      </trkpt>
      <trkpt lat="38.7007980142" lon="-6.3637092803">
        <ele>365.92</ele>
        <time>2020-07-12T08:50:20Z</time>
      </trkpt>
      <trkpt lat="38.7009477150" lon="-6.3637329172">
        <ele>365.92</ele>
        <time>2020-07-12T08:50:26Z</time>
      </trkpt>
      <trkpt lat="38.7011752836" lon="-6.3637216855">
        <ele>365.44</ele>
        <time>2020-07-12T08:50:33Z</time>
      </trkpt>
      <trkpt lat="38.7017007452" lon="-6.3637434784">
        <ele>366.40</ele>
        <time>2020-07-12T08:50:46Z</time>
      </trkpt>
      <trkpt lat="38.7020767573" lon="-6.3637601584">
        <ele>366.88</ele>
        <time>2020-07-12T08:50:55Z</time>
      </trkpt>
      <trkpt lat="38.7023478281" lon="-6.3637682050">
        <ele>367.36</ele>
        <time>2020-07-12T08:51:02Z</time>
      </trkpt>
      <trkpt lat="38.7026023865" lon="-6.3637730666">
        <ele>367.36</ele>
        <time>2020-07-12T08:51:08Z</time>
      </trkpt>
      <trkpt lat="38.7031239085" lon="-6.3637946080">
        <ele>367.36</ele>
        <time>2020-07-12T08:51:20Z</time>
      </trkpt>
      <trkpt lat="38.7035348732" lon="-6.3638117071">
        <ele>366.88</ele>
        <time>2020-07-12T08:51:30Z</time>
      </trkpt>
      <trkpt lat="38.7040317524" lon="-6.3638354279">
        <ele>365.92</ele>
        <time>2020-07-12T08:51:42Z</time>
      </trkpt>
      <trkpt lat="38.7044910807" lon="-6.3638569694">
        <ele>365.92</ele>
        <time>2020-07-12T08:51:52Z</time>
      </trkpt>
      <trkpt lat="38.7048372533" lon="-6.3638718054">
        <ele>365.92</ele>
        <time>2020-07-12T08:52:00Z</time>
      </trkpt>
      <trkpt lat="38.7050970923" lon="-6.3638747390">
        <ele>365.92</ele>
        <time>2020-07-12T08:52:06Z</time>
      </trkpt>
      <trkpt lat="38.7055013515" lon="-6.3638981245">
        <ele>365.92</ele>
        <time>2020-07-12T08:52:14Z</time>
      </trkpt>
      <trkpt lat="38.7058336101" lon="-6.3638993818">
        <ele>365.44</ele>
        <time>2020-07-12T08:52:21Z</time>
      </trkpt>
      <trkpt lat="38.7058775313" lon="-6.3639028184">
        <ele>365.44</ele>
        <time>2020-07-12T08:52:22Z</time>
      </trkpt>
      <trkpt lat="38.7059238832" lon="-6.3639057521">
        <ele>365.44</ele>
        <time>2020-07-12T08:52:23Z</time>
      </trkpt>
      <trkpt lat="38.7062782701" lon="-6.3639158104">
        <ele>364.96</ele>
        <time>2020-07-12T08:52:30Z</time>
      </trkpt>
      <trkpt lat="38.7067803461" lon="-6.3639502600">
        <ele>364.48</ele>
        <time>2020-07-12T08:52:41Z</time>
      </trkpt>
      <trkpt lat="38.7071049772" lon="-6.3639559597">
        <ele>364.00</ele>
        <time>2020-07-12T08:52:48Z</time>
      </trkpt>
      <trkpt lat="38.7076263316" lon="-6.3639754057">
        <ele>363.52</ele>
        <time>2020-07-12T08:52:58Z</time>
      </trkpt>
      <trkpt lat="38.7080616038" lon="-6.3639827818">
        <ele>362.55</ele>
        <time>2020-07-12T08:53:07Z</time>
      </trkpt>
      <trkpt lat="38.7085298169" lon="-6.3640039880">
        <ele>361.59</ele>
        <time>2020-07-12T08:53:17Z</time>
      </trkpt>
      <trkpt lat="38.7088646740" lon="-6.3640189916">
        <ele>361.11</ele>
        <time>2020-07-12T08:53:25Z</time>
      </trkpt>
      <trkpt lat="38.7092424463" lon="-6.3640342467">
        <ele>361.11</ele>
        <time>2020-07-12T08:53:34Z</time>
      </trkpt>
      <trkpt lat="38.7096067239" lon="-6.3640430477">
        <ele>360.63</ele>
        <time>2020-07-12T08:53:44Z</time>
      </trkpt>
      <trkpt lat="38.7100855820" lon="-6.3640655950">
        <ele>359.19</ele>
        <time>2020-07-12T08:53:56Z</time>
      </trkpt>
      <trkpt lat="38.7104356103" lon="-6.3640757371">
        <ele>358.71</ele>
        <time>2020-07-12T08:54:05Z</time>
      </trkpt>
      <trkpt lat="38.7104778551" lon="-6.3640781678">
        <ele>358.71</ele>
        <time>2020-07-12T08:54:06Z</time>
      </trkpt>
      <trkpt lat="38.7105647754" lon="-6.3640826941">
        <ele>358.23</ele>
        <time>2020-07-12T08:54:08Z</time>
      </trkpt>
      <trkpt lat="38.7106057629" lon="-6.3640821073">
        <ele>358.23</ele>
        <time>2020-07-12T08:54:09Z</time>
      </trkpt>
      <trkpt lat="38.7108315714" lon="-6.3640934229">
        <ele>358.23</ele>
        <time>2020-07-12T08:54:14Z</time>
      </trkpt>
      <trkpt lat="38.7112639938" lon="-6.3641109411">
        <ele>357.27</ele>
        <time>2020-07-12T08:54:24Z</time>
      </trkpt>
      <trkpt lat="38.7117637228" lon="-6.3641323987">
        <ele>356.31</ele>
        <time>2020-07-12T08:54:35Z</time>
      </trkpt>
      <trkpt lat="38.7120025232" lon="-6.3641406968">
        <ele>356.31</ele>
        <time>2020-07-12T08:54:40Z</time>
      </trkpt>
      <trkpt lat="38.7120495457" lon="-6.3641458098">
        <ele>356.31</ele>
        <time>2020-07-12T08:54:41Z</time>
      </trkpt>
      <trkpt lat="38.7125486881" lon="-6.3641532697">
        <ele>356.31</ele>
        <time>2020-07-12T08:54:51Z</time>
      </trkpt>
      <trkpt lat="38.7130375206" lon="-6.3641655911">
        <ele>356.79</ele>
        <time>2020-07-12T08:55:01Z</time>
      </trkpt>
      <trkpt lat="38.7134087551" lon="-6.3641726319">
        <ele>357.27</ele>
        <time>2020-07-12T08:55:09Z</time>
      </trkpt>
      <trkpt lat="38.7138087396" lon="-6.3641890604">
        <ele>357.27</ele>
        <time>2020-07-12T08:55:18Z</time>
      </trkpt>
      <trkpt lat="38.7143142521" lon="-6.3641959336">
        <ele>357.75</ele>
        <time>2020-07-12T08:55:30Z</time>
      </trkpt>
      <trkpt lat="38.7146343570" lon="-6.3642037287">
        <ele>357.27</ele>
        <time>2020-07-12T08:55:39Z</time>
      </trkpt>
      <trkpt lat="38.7148896698" lon="-6.3642157987">
        <ele>356.79</ele>
        <time>2020-07-12T08:55:47Z</time>
      </trkpt>
      <trkpt lat="38.7152033206" lon="-6.3642208278">
        <ele>356.79</ele>
        <time>2020-07-12T08:55:56Z</time>
      </trkpt>
      <trkpt lat="38.7156639900" lon="-6.3642477337">
        <ele>356.31</ele>
        <time>2020-07-12T08:56:08Z</time>
      </trkpt>
      <trkpt lat="38.7160274293" lon="-6.3642745558">
        <ele>355.34</ele>
        <time>2020-07-12T08:56:17Z</time>
      </trkpt>
      <trkpt lat="38.7162937224" lon="-6.3642893918">
        <ele>354.86</ele>
        <time>2020-07-12T08:56:24Z</time>
      </trkpt>
      <trkpt lat="38.7166346144" lon="-6.3643023837">
        <ele>353.90</ele>
        <time>2020-07-12T08:56:33Z</time>
      </trkpt>
      <trkpt lat="38.7169773504" lon="-6.3643171359">
        <ele>353.42</ele>
        <time>2020-07-12T08:56:42Z</time>
      </trkpt>
      <trkpt lat="38.7173776701" lon="-6.3643265236">
        <ele>352.46</ele>
        <time>2020-07-12T08:56:52Z</time>
      </trkpt>
      <trkpt lat="38.7176314741" lon="-6.3643357437">
        <ele>351.98</ele>
        <time>2020-07-12T08:56:58Z</time>
      </trkpt>
      <trkpt lat="38.7176726293" lon="-6.3643349893">
        <ele>351.98</ele>
        <time>2020-07-12T08:56:59Z</time>
      </trkpt>
      <trkpt lat="38.7179192249" lon="-6.3643434551">
        <ele>351.50</ele>
        <time>2020-07-12T08:57:05Z</time>
      </trkpt>
      <trkpt lat="38.7183102407" lon="-6.3643535133">
        <ele>351.98</ele>
        <time>2020-07-12T08:57:14Z</time>
      </trkpt>
      <trkpt lat="38.7186662201" lon="-6.3643623982">
        <ele>351.50</ele>
        <time>2020-07-12T08:57:22Z</time>
      </trkpt>
      <trkpt lat="38.7190390471" lon="-6.3643717859">
        <ele>351.98</ele>
        <time>2020-07-12T08:57:30Z</time>
      </trkpt>
      <trkpt lat="38.7193977088" lon="-6.3643737137">
        <ele>351.50</ele>
        <time>2020-07-12T08:57:37Z</time>
      </trkpt>
      <trkpt lat="38.7197477371" lon="-6.3643841073">
        <ele>351.50</ele>
        <time>2020-07-12T08:57:45Z</time>
      </trkpt>
      <trkpt lat="38.7200659141" lon="-6.3643915672">
        <ele>351.02</ele>
        <time>2020-07-12T08:57:51Z</time>
      </trkpt>
      <trkpt lat="38.7204829976" lon="-6.3644051459">
        <ele>350.06</ele>
        <time>2020-07-12T08:58:00Z</time>
      </trkpt>
      <trkpt lat="38.7208182737" lon="-6.3644146174">
        <ele>349.10</ele>
        <time>2020-07-12T08:58:08Z</time>
      </trkpt>
      <trkpt lat="38.7213318329" lon="-6.3644304592">
        <ele>347.17</ele>
        <time>2020-07-12T08:58:18Z</time>
      </trkpt>
      <trkpt lat="38.7219552789" lon="-6.3644409366">
        <ele>345.73</ele>
        <time>2020-07-12T08:58:29Z</time>
      </trkpt>
      <trkpt lat="38.7225352228" lon="-6.3644390926">
        <ele>344.77</ele>
        <time>2020-07-12T08:58:37Z</time>
      </trkpt>
      <trkpt lat="38.7231789529" lon="-6.3644613884">
        <ele>345.73</ele>
        <time>2020-07-12T08:58:46Z</time>
      </trkpt>
      <trkpt lat="38.7235465832" lon="-6.3644723687">
        <ele>346.21</ele>
        <time>2020-07-12T08:58:53Z</time>
      </trkpt>
      <trkpt lat="38.7238392793" lon="-6.3644753862">
        <ele>346.21</ele>
        <time>2020-07-12T08:59:01Z</time>
      </trkpt>
      <trkpt lat="38.7240958493" lon="-6.3644989394">
        <ele>346.21</ele>
        <time>2020-07-12T08:59:08Z</time>
      </trkpt>
      <trkpt lat="38.7245286070" lon="-6.3645319641">
        <ele>345.73</ele>
        <time>2020-07-12T08:59:17Z</time>
      </trkpt>
      <trkpt lat="38.7250274140" lon="-6.3645642344">
        <ele>344.29</ele>
        <time>2020-07-12T08:59:27Z</time>
      </trkpt>
      <trkpt lat="38.7256165780" lon="-6.3646110054">
        <ele>341.89</ele>
        <time>2020-07-12T08:59:37Z</time>
      </trkpt>
      <trkpt lat="38.7261316460" lon="-6.3646498974">
        <ele>340.92</ele>
        <time>2020-07-12T08:59:46Z</time>
      </trkpt>
      <trkpt lat="38.7262374256" lon="-6.3646638952">
        <ele>340.44</ele>
        <time>2020-07-12T08:59:48Z</time>
      </trkpt>
      <trkpt lat="38.7263496593" lon="-6.3646892924">
        <ele>339.96</ele>
        <time>2020-07-12T08:59:50Z</time>
      </trkpt>
      <trkpt lat="38.7269625440" lon="-6.3647233229">
        <ele>339.48</ele>
        <time>2020-07-12T09:00:00Z</time>
      </trkpt>
      <trkpt lat="38.7275624368" lon="-6.3647614606">
        <ele>339.00</ele>
        <time>2020-07-12T09:00:10Z</time>
      </trkpt>
      <trkpt lat="38.7280531134" lon="-6.3647878636">
        <ele>338.52</ele>
        <time>2020-07-12T09:00:19Z</time>
      </trkpt>
      <trkpt lat="38.7282904889" lon="-6.3647937309">
        <ele>338.04</ele>
        <time>2020-07-12T09:00:25Z</time>
      </trkpt>
      <trkpt lat="38.7283266988" lon="-6.3647893723">
        <ele>338.04</ele>
        <time>2020-07-12T09:00:27Z</time>
      </trkpt>
      <trkpt lat="38.7283320632" lon="-6.3647823315">
        <ele>338.04</ele>
        <time>2020-07-12T09:00:32Z</time>
      </trkpt>
      <trkpt lat="38.7283354998" lon="-6.3647849299">
        <ele>337.08</ele>
        <time>2020-07-12T09:00:48Z</time>
      </trkpt>
      <trkpt lat="38.7283294648" lon="-6.3647775538">
        <ele>337.08</ele>
        <time>2020-07-12T09:01:01Z</time>
      </trkpt>
      <trkpt lat="38.7283324823" lon="-6.3647798169">
        <ele>337.08</ele>
        <time>2020-07-12T09:01:16Z</time>
      </trkpt>
      <trkpt lat="38.7283448875" lon="-6.3647824991">
        <ele>337.56</ele>
        <time>2020-07-12T09:01:28Z</time>
      </trkpt>
      <trkpt lat="38.7283588853" lon="-6.3647835888">
        <ele>337.56</ele>
        <time>2020-07-12T09:01:29Z</time>
      </trkpt>
      <trkpt lat="38.7283704523" lon="-6.3647829182">
        <ele>337.56</ele>
        <time>2020-07-12T09:01:30Z</time>
      </trkpt>
      <trkpt lat="38.7283810135" lon="-6.3647822477">
        <ele>337.56</ele>
        <time>2020-07-12T09:01:31Z</time>
      </trkpt>
      <trkpt lat="38.7283938378" lon="-6.3647821639">
        <ele>337.56</ele>
        <time>2020-07-12T09:01:32Z</time>
      </trkpt>
      <trkpt lat="38.7284061592" lon="-6.3647797331">
        <ele>337.56</ele>
        <time>2020-07-12T09:01:33Z</time>
      </trkpt>
      <trkpt lat="38.7284176424" lon="-6.3647767995">
        <ele>337.56</ele>
        <time>2020-07-12T09:01:34Z</time>
      </trkpt>
      <trkpt lat="38.7284294609" lon="-6.3647757936">
        <ele>337.56</ele>
        <time>2020-07-12T09:01:35Z</time>
      </trkpt>
      <trkpt lat="38.7284406088" lon="-6.3647748716">
        <ele>337.56</ele>
        <time>2020-07-12T09:01:36Z</time>
      </trkpt>
      <trkpt lat="38.7284685206" lon="-6.3647720218">
        <ele>338.04</ele>
        <time>2020-07-12T09:01:39Z</time>
      </trkpt>
      <trkpt lat="38.7285815924" lon="-6.3647826668">
        <ele>338.04</ele>
        <time>2020-07-12T09:01:46Z</time>
      </trkpt>
      <trkpt lat="38.7286183052" lon="-6.3647828344">
        <ele>338.04</ele>
        <time>2020-07-12T09:01:52Z</time>
      </trkpt>
      <trkpt lat="38.7286166288" lon="-6.3647801522">
        <ele>337.56</ele>
        <time>2020-07-12T09:02:04Z</time>
      </trkpt>
      <trkpt lat="38.7286111806" lon="-6.3647807389">
        <ele>337.08</ele>
        <time>2020-07-12T09:02:13Z</time>
      </trkpt>
      <trkpt lat="38.7286181375" lon="-6.3647833373">
        <ele>337.56</ele>
        <time>2020-07-12T09:02:29Z</time>
      </trkpt>
      <trkpt lat="38.7286200654" lon="-6.3647870254">
        <ele>338.04</ele>
        <time>2020-07-12T09:02:45Z</time>
      </trkpt>
      <trkpt lat="38.7286152039" lon="-6.3647924736">
        <ele>338.52</ele>
        <time>2020-07-12T09:02:56Z</time>
      </trkpt>
      <trkpt lat="38.7286124378" lon="-6.3647937309">
        <ele>338.04</ele>
        <time>2020-07-12T09:03:20Z</time>
      </trkpt>
      <trkpt lat="38.7286111806" lon="-6.3647875283">
        <ele>338.04</ele>
        <time>2020-07-12T09:03:39Z</time>
      </trkpt>
      <trkpt lat="38.7286413554" lon="-6.3647861872">
        <ele>337.56</ele>
        <time>2020-07-12T09:03:47Z</time>
      </trkpt>
      <trkpt lat="38.7288154475" lon="-6.3647989277">
        <ele>337.56</ele>
        <time>2020-07-12T09:03:54Z</time>
      </trkpt>
      <trkpt lat="38.7290791422" lon="-6.3648013584">
        <ele>337.08</ele>
        <time>2020-07-12T09:04:01Z</time>
      </trkpt>
      <trkpt lat="38.7294575013" lon="-6.3648202177">
        <ele>336.60</ele>
        <time>2020-07-12T09:04:09Z</time>
      </trkpt>
      <trkpt lat="38.7300186697" lon="-6.3648428489">
        <ele>335.64</ele>
        <time>2020-07-12T09:04:19Z</time>
      </trkpt>
      <trkpt lat="38.7305929977" lon="-6.3648674916">
        <ele>335.64</ele>
        <time>2020-07-12T09:04:29Z</time>
      </trkpt>
      <trkpt lat="38.7310135178" lon="-6.3648950681">
        <ele>335.64</ele>
        <time>2020-07-12T09:04:38Z</time>
      </trkpt>
      <trkpt lat="38.7315129954" lon="-6.3649099879">
        <ele>335.16</ele>
        <time>2020-07-12T09:04:49Z</time>
      </trkpt>
      <trkpt lat="38.7317263987" lon="-6.3649159390">
        <ele>334.68</ele>
        <time>2020-07-12T09:04:55Z</time>
      </trkpt>
      <trkpt lat="38.7320662010" lon="-6.3649300206">
        <ele>334.20</ele>
        <time>2020-07-12T09:05:03Z</time>
      </trkpt>
      <trkpt lat="38.7325763237" lon="-6.3649452757">
        <ele>334.20</ele>
        <time>2020-07-12T09:05:14Z</time>
      </trkpt>
      <trkpt lat="38.7331247516" lon="-6.3649715949">
        <ele>333.23</ele>
        <time>2020-07-12T09:05:25Z</time>
      </trkpt>
      <trkpt lat="38.7335966527" lon="-6.3649891969">
        <ele>333.23</ele>
        <time>2020-07-12T09:05:34Z</time>
      </trkpt>
      <trkpt lat="38.7341059372" lon="-6.3650149293">
        <ele>332.27</ele>
        <time>2020-07-12T09:05:44Z</time>
      </trkpt>
      <trkpt lat="38.7345669419" lon="-6.3650426734">
        <ele>332.27</ele>
        <time>2020-07-12T09:05:53Z</time>
      </trkpt>
      <trkpt lat="38.7351676729" lon="-6.3650736026">
        <ele>331.79</ele>
        <time>2020-07-12T09:06:05Z</time>
      </trkpt>
      <trkpt lat="38.7357502989" lon="-6.3650914561">
        <ele>331.31</ele>
        <time>2020-07-12T09:06:17Z</time>
      </trkpt>
      <trkpt lat="38.7362259720" lon="-6.3651090581">
        <ele>330.83</ele>
        <time>2020-07-12T09:06:27Z</time>
      </trkpt>
      <trkpt lat="38.7367480807" lon="-6.3651295099">
        <ele>331.31</ele>
        <time>2020-07-12T09:06:38Z</time>
      </trkpt>
      <trkpt lat="38.7368914951" lon="-6.3651290070">
        <ele>331.31</ele>
        <time>2020-07-12T09:06:41Z</time>
      </trkpt>
      <trkpt lat="38.7371831015" lon="-6.3651285041">
        <ele>332.27</ele>
        <time>2020-07-12T09:06:48Z</time>
      </trkpt>
      <trkpt lat="38.7375774700" lon="-6.3651473634">
        <ele>332.27</ele>
        <time>2020-07-12T09:06:57Z</time>
      </trkpt>
      <trkpt lat="38.7378492113" lon="-6.3651602715">
        <ele>332.27</ele>
        <time>2020-07-12T09:07:04Z</time>
      </trkpt>
      <trkpt lat="38.7383227888" lon="-6.3651775382">
        <ele>332.75</ele>
        <time>2020-07-12T09:07:15Z</time>
      </trkpt>
      <trkpt lat="38.7385247927" lon="-6.3651860878">
        <ele>332.75</ele>
        <time>2020-07-12T09:07:20Z</time>
      </trkpt>
      <trkpt lat="38.7385668699" lon="-6.3651918713">
        <ele>332.75</ele>
        <time>2020-07-12T09:07:21Z</time>
      </trkpt>
      <trkpt lat="38.7386071868" lon="-6.3651911169">
        <ele>332.75</ele>
        <time>2020-07-12T09:07:22Z</time>
      </trkpt>
      <trkpt lat="38.7386475038" lon="-6.3651889376">
        <ele>332.75</ele>
        <time>2020-07-12T09:07:23Z</time>
      </trkpt>
      <trkpt lat="38.7386900838" lon="-6.3651916198">
        <ele>332.75</ele>
        <time>2020-07-12T09:07:24Z</time>
      </trkpt>
      <trkpt lat="38.7390065845" lon="-6.3652061205">
        <ele>332.75</ele>
        <time>2020-07-12T09:07:32Z</time>
      </trkpt>
      <trkpt lat="38.7394021265" lon="-6.3652187772">
        <ele>332.75</ele>
        <time>2020-07-12T09:07:42Z</time>
      </trkpt>
      <trkpt lat="38.7398335431" lon="-6.3652259856">
        <ele>333.71</ele>
        <time>2020-07-12T09:07:53Z</time>
      </trkpt>
      <trkpt lat="38.7402486987" lon="-6.3652494550">
        <ele>333.71</ele>
        <time>2020-07-12T09:08:03Z</time>
      </trkpt>
      <trkpt lat="38.7406690512" lon="-6.3652716670">
        <ele>333.23</ele>
        <time>2020-07-12T09:08:13Z</time>
      </trkpt>
      <trkpt lat="38.7410483323" lon="-6.3652847428">
        <ele>333.23</ele>
        <time>2020-07-12T09:08:22Z</time>
      </trkpt>
      <trkpt lat="38.7415270228" lon="-6.3652941305">
        <ele>332.75</ele>
        <time>2020-07-12T09:08:33Z</time>
      </trkpt>
      <trkpt lat="38.7419736106" lon="-6.3653182704">
        <ele>332.27</ele>
        <time>2020-07-12T09:08:44Z</time>
      </trkpt>
      <trkpt lat="38.7424039375" lon="-6.3653246406">
        <ele>331.79</ele>
        <time>2020-07-12T09:08:55Z</time>
      </trkpt>
      <trkpt lat="38.7428154051" lon="-6.3653435837">
        <ele>332.27</ele>
        <time>2020-07-12T09:09:05Z</time>
      </trkpt>
      <trkpt lat="38.7432056665" lon="-6.3653462660">
        <ele>332.27</ele>
        <time>2020-07-12T09:09:15Z</time>
      </trkpt>
      <trkpt lat="38.7433981150" lon="-6.3653553184">
        <ele>332.27</ele>
        <time>2020-07-12T09:09:20Z</time>
      </trkpt>
      <trkpt lat="38.7437861133" lon="-6.3653870020">
        <ele>332.27</ele>
        <time>2020-07-12T09:09:29Z</time>
      </trkpt>
      <trkpt lat="38.7438762188" lon="-6.3653932046">
        <ele>332.27</ele>
        <time>2020-07-12T09:09:31Z</time>
      </trkpt>
      <trkpt lat="38.7442741916" lon="-6.3653879240">
        <ele>332.75</ele>
        <time>2020-07-12T09:09:40Z</time>
      </trkpt>
      <trkpt lat="38.7446912751" lon="-6.3654031791">
        <ele>332.75</ele>
        <time>2020-07-12T09:09:49Z</time>
      </trkpt>
      <trkpt lat="38.7450311612" lon="-6.3654215354">
        <ele>333.23</ele>
        <time>2020-07-12T09:09:57Z</time>
      </trkpt>
      <trkpt lat="38.7450734060" lon="-6.3654221222">
        <ele>333.23</ele>
        <time>2020-07-12T09:09:58Z</time>
      </trkpt>
      <trkpt lat="38.7451152317" lon="-6.3654219545">
        <ele>333.23</ele>
        <time>2020-07-12T09:09:59Z</time>
      </trkpt>
      <trkpt lat="38.7451562192" lon="-6.3654245529">
        <ele>333.23</ele>
        <time>2020-07-12T09:10:00Z</time>
      </trkpt>
      <trkpt lat="38.7455766555" lon="-6.3654516265">
        <ele>333.23</ele>
        <time>2020-07-12T09:10:10Z</time>
      </trkpt>
      <trkpt lat="38.7456620671" lon="-6.3654543087">
        <ele>333.23</ele>
        <time>2020-07-12T09:10:12Z</time>
      </trkpt>
      <trkpt lat="38.7457038928" lon="-6.3654582482">
        <ele>333.23</ele>
        <time>2020-07-12T09:10:13Z</time>
      </trkpt>
      <trkpt lat="38.7460442819" lon="-6.3654678036">
        <ele>333.23</ele>
        <time>2020-07-12T09:10:21Z</time>
      </trkpt>
      <trkpt lat="38.7460868619" lon="-6.3654699828">
        <ele>333.23</ele>
        <time>2020-07-12T09:10:22Z</time>
      </trkpt>
      <trkpt lat="38.7461296096" lon="-6.3654726651">
        <ele>333.23</ele>
        <time>2020-07-12T09:10:23Z</time>
      </trkpt>
      <trkpt lat="38.7462199666" lon="-6.3654792029">
        <ele>333.23</ele>
        <time>2020-07-12T09:10:25Z</time>
      </trkpt>
      <trkpt lat="38.7462634686" lon="-6.3654787000">
        <ele>333.23</ele>
        <time>2020-07-12T09:10:26Z</time>
      </trkpt>
      <trkpt lat="38.7466848269" lon="-6.3654933684">
        <ele>333.71</ele>
        <time>2020-07-12T09:10:36Z</time>
      </trkpt>
      <trkpt lat="38.7470554747" lon="-6.3655097131">
        <ele>333.23</ele>
        <time>2020-07-12T09:10:45Z</time>
      </trkpt>
      <trkpt lat="38.7473456562" lon="-6.3655254710">
        <ele>333.23</ele>
        <time>2020-07-12T09:10:53Z</time>
      </trkpt>
      <trkpt lat="38.7476709578" lon="-6.3655280694">
        <ele>332.75</ele>
        <time>2020-07-12T09:11:01Z</time>
      </trkpt>
      <trkpt lat="38.7481803261" lon="-6.3655495271">
        <ele>332.27</ele>
        <time>2020-07-12T09:11:13Z</time>
      </trkpt>
      <trkpt lat="38.7484880257" lon="-6.3655582443">
        <ele>331.79</ele>
        <time>2020-07-12T09:11:21Z</time>
      </trkpt>
      <trkpt lat="38.7488944642" lon="-6.3655788638">
        <ele>331.31</ele>
        <time>2020-07-12T09:11:31Z</time>
      </trkpt>
      <trkpt lat="38.7492791936" lon="-6.3655968010">
        <ele>330.83</ele>
        <time>2020-07-12T09:11:40Z</time>
      </trkpt>
      <trkpt lat="38.7496443093" lon="-6.3656334300">
        <ele>330.35</ele>
        <time>2020-07-12T09:11:49Z</time>
      </trkpt>
      <trkpt lat="38.7498904020" lon="-6.3656594139">
        <ele>329.87</ele>
        <time>2020-07-12T09:11:57Z</time>
      </trkpt>
      <trkpt lat="38.7501478102" lon="-6.3656721544">
        <ele>329.87</ele>
        <time>2020-07-12T09:12:06Z</time>
      </trkpt>
      <trkpt lat="38.7504981738" lon="-6.3656967133">
        <ele>330.35</ele>
        <time>2020-07-12T09:12:15Z</time>
      </trkpt>
      <trkpt lat="38.7509761937" lon="-6.3657128904">
        <ele>330.83</ele>
        <time>2020-07-12T09:12:26Z</time>
      </trkpt>
      <trkpt lat="38.7513651978" lon="-6.3657348510">
        <ele>330.83</ele>
        <time>2020-07-12T09:12:35Z</time>
      </trkpt>
      <trkpt lat="38.7518791761" lon="-6.3657585718">
        <ele>330.83</ele>
        <time>2020-07-12T09:12:47Z</time>
      </trkpt>
      <trkpt lat="38.7523313798" lon="-6.3657578174">
        <ele>331.31</ele>
        <time>2020-07-12T09:12:58Z</time>
      </trkpt>
      <trkpt lat="38.7526036240" lon="-6.3657755870">
        <ele>331.31</ele>
        <time>2020-07-12T09:13:05Z</time>
      </trkpt>
      <trkpt lat="38.7528722640" lon="-6.3657905906">
        <ele>331.31</ele>
        <time>2020-07-12T09:13:12Z</time>
      </trkpt>
      <trkpt lat="38.7532700691" lon="-6.3658060972">
        <ele>330.83</ele>
        <time>2020-07-12T09:13:22Z</time>
      </trkpt>
      <trkpt lat="38.7535480969" lon="-6.3658230286">
        <ele>330.83</ele>
        <time>2020-07-12T09:13:30Z</time>
      </trkpt>
      <trkpt lat="38.7538423017" lon="-6.3658300694">
        <ele>330.83</ele>
        <time>2020-07-12T09:13:38Z</time>
      </trkpt>
      <trkpt lat="38.7542336527" lon="-6.3658474199">
        <ele>330.83</ele>
        <time>2020-07-12T09:13:48Z</time>
      </trkpt>
      <trkpt lat="38.7547434401" lon="-6.3658718113">
        <ele>330.83</ele>
        <time>2020-07-12T09:14:00Z</time>
      </trkpt>
      <trkpt lat="38.7551388144" lon="-6.3659034949">
        <ele>331.31</ele>
        <time>2020-07-12T09:14:10Z</time>
      </trkpt>
      <trkpt lat="38.7555077020" lon="-6.3659159839">
        <ele>331.31</ele>
        <time>2020-07-12T09:14:20Z</time>
      </trkpt>
      <trkpt lat="38.7558396254" lon="-6.3659305684">
        <ele>331.79</ele>
        <time>2020-07-12T09:14:29Z</time>
      </trkpt>
      <trkpt lat="38.7561512645" lon="-6.3659688737">
        <ele>331.31</ele>
        <time>2020-07-12T09:14:37Z</time>
      </trkpt>
      <trkpt lat="38.7565091718" lon="-6.3660966139">
        <ele>330.35</ele>
        <time>2020-07-12T09:14:47Z</time>
      </trkpt>
      <trkpt lat="38.7568097468" lon="-6.3662454765">
        <ele>328.91</ele>
        <time>2020-07-12T09:14:55Z</time>
      </trkpt>
      <trkpt lat="38.7568478007" lon="-6.3662598934">
        <ele>328.91</ele>
        <time>2020-07-12T09:14:56Z</time>
      </trkpt>
      <trkpt lat="38.7568886206" lon="-6.3662800100">
        <ele>328.43</ele>
        <time>2020-07-12T09:14:57Z</time>
      </trkpt>
      <trkpt lat="38.7572532333" lon="-6.3664934132">
        <ele>326.99</ele>
        <time>2020-07-12T09:15:06Z</time>
      </trkpt>
      <trkpt lat="38.7576382980" lon="-6.3666841015">
        <ele>325.54</ele>
        <time>2020-07-12T09:15:15Z</time>
      </trkpt>
      <trkpt lat="38.7580532022" lon="-6.3669021148">
        <ele>324.10</ele>
        <time>2020-07-12T09:15:25Z</time>
      </trkpt>
      <trkpt lat="38.7584874686" lon="-6.3671358861">
        <ele>323.62</ele>
        <time>2020-07-12T09:15:35Z</time>
      </trkpt>
      <trkpt lat="38.7589361519" lon="-6.3673815597">
        <ele>323.14</ele>
        <time>2020-07-12T09:15:45Z</time>
      </trkpt>
      <trkpt lat="38.7593601923" lon="-6.3676091284">
        <ele>321.70</ele>
        <time>2020-07-12T09:15:55Z</time>
      </trkpt>
      <trkpt lat="38.7597807962" lon="-6.3678447437">
        <ele>320.74</ele>
        <time>2020-07-12T09:16:05Z</time>
      </trkpt>
      <trkpt lat="38.7601177488" lon="-6.3680237811">
        <ele>320.74</ele>
        <time>2020-07-12T09:16:13Z</time>
      </trkpt>
      <trkpt lat="38.7603718042" lon="-6.3681656867">
        <ele>320.26</ele>
        <time>2020-07-12T09:16:21Z</time>
      </trkpt>
      <trkpt lat="38.7606602255" lon="-6.3683282118">
        <ele>320.74</ele>
        <time>2020-07-12T09:16:28Z</time>
      </trkpt>
      <trkpt lat="38.7609766424" lon="-6.3685082551">
        <ele>320.26</ele>
        <time>2020-07-12T09:16:36Z</time>
      </trkpt>
      <trkpt lat="38.7613067217" lon="-6.3686746359">
        <ele>320.26</ele>
        <time>2020-07-12T09:16:44Z</time>
      </trkpt>
      <trkpt lat="38.7616176065" lon="-6.3688420225">
        <ele>319.78</ele>
        <time>2020-07-12T09:16:52Z</time>
      </trkpt>
      <trkpt lat="38.7620452512" lon="-6.3690750394">
        <ele>319.30</ele>
        <time>2020-07-12T09:17:02Z</time>
      </trkpt>
      <trkpt lat="38.7624371052" lon="-6.3692902029">
        <ele>318.81</ele>
        <time>2020-07-12T09:17:11Z</time>
      </trkpt>
      <trkpt lat="38.7628319766" lon="-6.3695121557">
        <ele>318.33</ele>
        <time>2020-07-12T09:17:20Z</time>
      </trkpt>
      <trkpt lat="38.7628763169" lon="-6.3695353735">
        <ele>318.33</ele>
        <time>2020-07-12T09:17:21Z</time>
      </trkpt>
      <trkpt lat="38.7629178073" lon="-6.3695575856">
        <ele>317.85</ele>
        <time>2020-07-12T09:17:22Z</time>
      </trkpt>
      <trkpt lat="38.7632821687" lon="-6.3697474357">
        <ele>317.37</ele>
        <time>2020-07-12T09:17:30Z</time>
      </trkpt>
      <trkpt lat="38.7636502180" lon="-6.3699449971">
        <ele>316.89</ele>
        <time>2020-07-12T09:17:38Z</time>
      </trkpt>
      <trkpt lat="38.7640222069" lon="-6.3701495994">
        <ele>315.93</ele>
        <time>2020-07-12T09:17:46Z</time>
      </trkpt>
      <trkpt lat="38.7643807009" lon="-6.3703428023">
        <ele>314.97</ele>
        <time>2020-07-12T09:17:54Z</time>
      </trkpt>
      <trkpt lat="38.7647155579" lon="-6.3705288805">
        <ele>314.49</ele>
        <time>2020-07-12T09:18:02Z</time>
      </trkpt>
      <trkpt lat="38.7650763150" lon="-6.3707051519">
        <ele>314.49</ele>
        <time>2020-07-12T09:18:11Z</time>
      </trkpt>
      <trkpt lat="38.7653768901" lon="-6.3707596343">
        <ele>314.97</ele>
        <time>2020-07-12T09:18:19Z</time>
      </trkpt>
      <trkpt lat="38.7655766308" lon="-6.3707750570">
        <ele>314.97</ele>
        <time>2020-07-12T09:18:26Z</time>
      </trkpt>
      <trkpt lat="38.7657727674" lon="-6.3708884642">
        <ele>315.45</ele>
        <time>2020-07-12T09:18:33Z</time>
      </trkpt>
      <trkpt lat="38.7659994140" lon="-6.3710835949">
        <ele>316.89</ele>
        <time>2020-07-12T09:18:42Z</time>
      </trkpt>
      <trkpt lat="38.7661878392" lon="-6.3712407555">
        <ele>317.37</ele>
        <time>2020-07-12T09:18:50Z</time>
      </trkpt>
      <trkpt lat="38.7664222810" lon="-6.3713978324">
        <ele>318.33</ele>
        <time>2020-07-12T09:19:00Z</time>
      </trkpt>
      <trkpt lat="38.7666547112" lon="-6.3715526462">
        <ele>319.30</ele>
        <time>2020-07-12T09:19:09Z</time>
      </trkpt>
      <trkpt lat="38.7667596526" lon="-6.3716413267">
        <ele>320.26</ele>
        <time>2020-07-12T09:19:15Z</time>
      </trkpt>
      <trkpt lat="38.7667583954" lon="-6.3716425002">
        <ele>320.26</ele>
        <time>2020-07-12T09:19:27Z</time>
      </trkpt>
      <trkpt lat="38.7667573057" lon="-6.3716443442">
        <ele>319.78</ele>
        <time>2020-07-12T09:19:43Z</time>
      </trkpt>
      <trkpt lat="38.7667586468" lon="-6.3716471102">
        <ele>319.78</ele>
        <time>2020-07-12T09:19:56Z</time>
      </trkpt>
      <trkpt lat="38.7667931803" lon="-6.3716833200">
        <ele>319.78</ele>
        <time>2020-07-12T09:20:06Z</time>
      </trkpt>
      <trkpt lat="38.7669096049" lon="-6.3717650436">
        <ele>319.78</ele>
        <time>2020-07-12T09:20:11Z</time>
      </trkpt>
      <trkpt lat="38.7671617325" lon="-6.3719159178">
        <ele>319.78</ele>
        <time>2020-07-12T09:20:20Z</time>
      </trkpt>
      <trkpt lat="38.7674171291" lon="-6.3720610086">
        <ele>320.26</ele>
        <time>2020-07-12T09:20:29Z</time>
      </trkpt>
      <trkpt lat="38.7676469609" lon="-6.3722087815">
        <ele>320.74</ele>
        <time>2020-07-12T09:20:37Z</time>
      </trkpt>
      <trkpt lat="38.7679162715" lon="-6.3723770063">
        <ele>321.22</ele>
        <time>2020-07-12T09:20:47Z</time>
      </trkpt>
      <trkpt lat="38.7681664713" lon="-6.3725170679">
        <ele>322.18</ele>
        <time>2020-07-12T09:20:56Z</time>
      </trkpt>
      <trkpt lat="38.7684305012" lon="-6.3726226799">
        <ele>323.14</ele>
        <time>2020-07-12T09:21:05Z</time>
      </trkpt>
      <trkpt lat="38.7687566411" lon="-6.3726684451">
        <ele>324.10</ele>
        <time>2020-07-12T09:21:15Z</time>
      </trkpt>
      <trkpt lat="38.7689346727" lon="-6.3726959378">
        <ele>325.06</ele>
        <time>2020-07-12T09:21:22Z</time>
      </trkpt>
      <trkpt lat="38.7691526860" lon="-6.3727484923">
        <ele>325.54</ele>
        <time>2020-07-12T09:21:31Z</time>
      </trkpt>
      <trkpt lat="38.7691946793" lon="-6.3727408648">
        <ele>325.54</ele>
        <time>2020-07-12T09:21:36Z</time>
      </trkpt>
      <trkpt lat="38.7691892311" lon="-6.3727417868">
        <ele>325.54</ele>
        <time>2020-07-12T09:21:47Z</time>
      </trkpt>
      <trkpt lat="38.7691935897" lon="-6.3727422059">
        <ele>326.02</ele>
        <time>2020-07-12T09:22:06Z</time>
      </trkpt>
      <trkpt lat="38.7691927515" lon="-6.3727393560">
        <ele>326.02</ele>
        <time>2020-07-12T09:22:17Z</time>
      </trkpt>
      <trkpt lat="38.7691797595" lon="-6.3727437146">
        <ele>326.99</ele>
        <time>2020-07-12T09:22:39Z</time>
      </trkpt>
      <trkpt lat="38.7691939250" lon="-6.3727481570">
        <ele>326.99</ele>
        <time>2020-07-12T09:22:50Z</time>
      </trkpt>
      <trkpt lat="38.7692117784" lon="-6.3727520127">
        <ele>326.99</ele>
        <time>2020-07-12T09:22:51Z</time>
      </trkpt>
      <trkpt lat="38.7692304701" lon="-6.3727574609">
        <ele>326.50</ele>
        <time>2020-07-12T09:22:52Z</time>
      </trkpt>
      <trkpt lat="38.7694370840" lon="-6.3728090934">
        <ele>325.06</ele>
        <time>2020-07-12T09:22:59Z</time>
      </trkpt>
      <trkpt lat="38.7697398383" lon="-6.3728634920">
        <ele>323.62</ele>
        <time>2020-07-12T09:23:06Z</time>
      </trkpt>
      <trkpt lat="38.7701910362" lon="-6.3728847820">
        <ele>322.18</ele>
        <time>2020-07-12T09:23:15Z</time>
      </trkpt>
      <trkpt lat="38.7707729079" lon="-6.3728968520">
        <ele>319.30</ele>
        <time>2020-07-12T09:23:25Z</time>
      </trkpt>
      <trkpt lat="38.7712251954" lon="-6.3729731273">
        <ele>318.33</ele>
        <time>2020-07-12T09:23:33Z</time>
      </trkpt>
      <trkpt lat="38.7717034668" lon="-6.3731385022">
        <ele>317.85</ele>
        <time>2020-07-12T09:23:42Z</time>
      </trkpt>
      <trkpt lat="38.7720961589" lon="-6.3732868619">
        <ele>317.37</ele>
        <time>2020-07-12T09:23:51Z</time>
      </trkpt>
      <trkpt lat="38.7723638769" lon="-6.3733444456">
        <ele>317.85</ele>
        <time>2020-07-12T09:23:57Z</time>
      </trkpt>
      <trkpt lat="38.7727676332" lon="-6.3733983412">
        <ele>317.37</ele>
        <time>2020-07-12T09:24:06Z</time>
      </trkpt>
      <trkpt lat="38.7732197531" lon="-6.3734534103">
        <ele>316.89</ele>
        <time>2020-07-12T09:24:16Z</time>
      </trkpt>
      <trkpt lat="38.7736475654" lon="-6.3734982535">
        <ele>314.97</ele>
        <time>2020-07-12T09:24:26Z</time>
      </trkpt>
      <trkpt lat="38.7740997691" lon="-6.3735404983">
        <ele>314.49</ele>
        <time>2020-07-12T09:24:36Z</time>
      </trkpt>
      <trkpt lat="38.7746207882" lon="-6.3735993393">
        <ele>313.53</ele>
        <time>2020-07-12T09:24:47Z</time>
      </trkpt>
      <trkpt lat="38.7751874048" lon="-6.3736284245">
        <ele>312.09</ele>
        <time>2020-07-12T09:24:59Z</time>
      </trkpt>
      <trkpt lat="38.7756553665" lon="-6.3736984134">
        <ele>311.12</ele>
        <time>2020-07-12T09:25:09Z</time>
      </trkpt>
      <trkpt lat="38.7760555185" lon="-6.3737555780">
        <ele>311.60</ele>
        <time>2020-07-12T09:25:18Z</time>
      </trkpt>
      <trkpt lat="38.7765124161" lon="-6.3737984095">
        <ele>311.12</ele>
        <time>2020-07-12T09:25:28Z</time>
      </trkpt>
      <trkpt lat="38.7769345287" lon="-6.3737928774">
        <ele>310.16</ele>
        <time>2020-07-12T09:25:37Z</time>
      </trkpt>
      <trkpt lat="38.7773254607" lon="-6.3736883551">
        <ele>309.20</ele>
        <time>2020-07-12T09:25:46Z</time>
      </trkpt>
      <trkpt lat="38.7773692980" lon="-6.3736717589">
        <ele>309.20</ele>
        <time>2020-07-12T09:25:47Z</time>
      </trkpt>
      <trkpt lat="38.7776719686" lon="-6.3735514786">
        <ele>308.24</ele>
        <time>2020-07-12T09:25:54Z</time>
      </trkpt>
      <trkpt lat="38.7781654112" lon="-6.3733930606">
        <ele>308.24</ele>
        <time>2020-07-12T09:26:05Z</time>
      </trkpt>
      <trkpt lat="38.7786324508" lon="-6.3732355647">
        <ele>307.28</ele>
        <time>2020-07-12T09:26:15Z</time>
      </trkpt>
      <trkpt lat="38.7789519690" lon="-6.3731370773">
        <ele>306.80</ele>
        <time>2020-07-12T09:26:22Z</time>
      </trkpt>
      <trkpt lat="38.7792077009" lon="-6.3730562758">
        <ele>305.84</ele>
        <time>2020-07-12T09:26:28Z</time>
      </trkpt>
      <trkpt lat="38.7793491036" lon="-6.3730147853">
        <ele>307.28</ele>
        <time>2020-07-12T09:26:33Z</time>
      </trkpt>
      <trkpt lat="38.7795769237" lon="-6.3729385938">
        <ele>308.24</ele>
        <time>2020-07-12T09:26:41Z</time>
      </trkpt>
      <trkpt lat="38.7798797619" lon="-6.3728541881">
        <ele>309.68</ele>
        <time>2020-07-12T09:26:52Z</time>
      </trkpt>
      <trkpt lat="38.7801326439" lon="-6.3727793377">
        <ele>309.68</ele>
        <time>2020-07-12T09:27:02Z</time>
      </trkpt>
      <trkpt lat="38.7803426944" lon="-6.3726973627">
        <ele>309.68</ele>
        <time>2020-07-12T09:27:10Z</time>
      </trkpt>
      <trkpt lat="38.7806396652" lon="-6.3726076763">
        <ele>309.20</ele>
        <time>2020-07-12T09:27:20Z</time>
      </trkpt>
      <trkpt lat="38.7808855902" lon="-6.3725360949">
        <ele>309.20</ele>
        <time>2020-07-12T09:27:29Z</time>
      </trkpt>
      <trkpt lat="38.7811450940" lon="-6.3724556286">
        <ele>309.68</ele>
        <time>2020-07-12T09:27:38Z</time>
      </trkpt>
      <trkpt lat="38.7814217806" lon="-6.3723692950">
        <ele>310.64</ele>
        <time>2020-07-12T09:27:48Z</time>
      </trkpt>
      <trkpt lat="38.7816559710" lon="-6.3722987194">
        <ele>311.12</ele>
        <time>2020-07-12T09:27:58Z</time>
      </trkpt>
      <trkpt lat="38.7819307297" lon="-6.3722136430">
        <ele>312.09</ele>
        <time>2020-07-12T09:28:11Z</time>
      </trkpt>
      <trkpt lat="38.7820974458" lon="-6.3721615076">
        <ele>312.57</ele>
        <time>2020-07-12T09:28:19Z</time>
      </trkpt>
      <trkpt lat="38.7822999526" lon="-6.3720935304">
        <ele>314.01</ele>
        <time>2020-07-12T09:28:29Z</time>
      </trkpt>
      <trkpt lat="38.7824735418" lon="-6.3720390480">
        <ele>314.49</ele>
        <time>2020-07-12T09:28:38Z</time>
      </trkpt>
      <trkpt lat="38.7826477177" lon="-6.3719791174">
        <ele>314.97</ele>
        <time>2020-07-12T09:28:47Z</time>
      </trkpt>
      <trkpt lat="38.7827945687" lon="-6.3719335198">
        <ele>314.97</ele>
        <time>2020-07-12T09:28:54Z</time>
      </trkpt>
      <trkpt lat="38.7830192875" lon="-6.3718683925">
        <ele>315.45</ele>
        <time>2020-07-12T09:29:04Z</time>
      </trkpt>
      <trkpt lat="38.7831861712" lon="-6.3718154188">
        <ele>315.93</ele>
        <time>2020-07-12T09:29:12Z</time>
      </trkpt>
      <trkpt lat="38.7833942100" lon="-6.3717592601">
        <ele>315.93</ele>
        <time>2020-07-12T09:29:22Z</time>
      </trkpt>
      <trkpt lat="38.7835073657" lon="-6.3716715015">
        <ele>315.45</ele>
        <time>2020-07-12T09:29:29Z</time>
      </trkpt>
      <trkpt lat="38.7835865747" lon="-6.3715276681">
        <ele>316.41</ele>
        <time>2020-07-12T09:29:36Z</time>
      </trkpt>
      <trkpt lat="38.7835826352" lon="-6.3713301066">
        <ele>317.37</ele>
        <time>2020-07-12T09:29:43Z</time>
      </trkpt>
      <trkpt lat="38.7835272308" lon="-6.3710332196">
        <ele>318.33</ele>
        <time>2020-07-12T09:29:54Z</time>
      </trkpt>
      <trkpt lat="38.7834854051" lon="-6.3707922399">
        <ele>318.33</ele>
        <time>2020-07-12T09:30:03Z</time>
      </trkpt>
      <trkpt lat="38.7834729999" lon="-6.3705919124">
        <ele>318.33</ele>
        <time>2020-07-12T09:30:11Z</time>
      </trkpt>
      <trkpt lat="38.7834849861" lon="-6.3705567922">
        <ele>318.33</ele>
        <time>2020-07-12T09:30:13Z</time>
      </trkpt>
      <trkpt lat="38.7834992353" lon="-6.3705467340">
        <ele>318.33</ele>
        <time>2020-07-12T09:30:14Z</time>
      </trkpt>
      <trkpt lat="38.7835184298" lon="-6.3705479074">
        <ele>318.81</ele>
        <time>2020-07-12T09:30:15Z</time>
      </trkpt>
      <trkpt lat="38.7835353613" lon="-6.3705562893">
        <ele>318.81</ele>
        <time>2020-07-12T09:30:16Z</time>
      </trkpt>
      <trkpt lat="38.7835569028" lon="-6.3705698680">
        <ele>318.81</ele>
        <time>2020-07-12T09:30:17Z</time>
      </trkpt>
      <trkpt lat="38.7835772708" lon="-6.3705857936">
        <ele>319.30</ele>
        <time>2020-07-12T09:30:18Z</time>
      </trkpt>
      <trkpt lat="38.7835965492" lon="-6.3706047367">
        <ele>319.30</ele>
        <time>2020-07-12T09:30:19Z</time>
      </trkpt>
      <trkpt lat="38.7838154845" lon="-6.3708141167">
        <ele>319.78</ele>
        <time>2020-07-12T09:30:31Z</time>
      </trkpt>
      <trkpt lat="38.7839727290" lon="-6.3709879573">
        <ele>320.26</ele>
        <time>2020-07-12T09:30:40Z</time>
      </trkpt>
      <trkpt lat="38.7841151375" lon="-6.3711061422">
        <ele>320.74</ele>
        <time>2020-07-12T09:30:48Z</time>
      </trkpt>
      <trkpt lat="38.7842891458" lon="-6.3712694217">
        <ele>322.18</ele>
        <time>2020-07-12T09:30:59Z</time>
      </trkpt>
      <trkpt lat="38.7844463903" lon="-6.3714312762">
        <ele>323.14</ele>
        <time>2020-07-12T09:31:09Z</time>
      </trkpt>
      <trkpt lat="38.7845808361" lon="-6.3715793844">
        <ele>323.62</ele>
        <time>2020-07-12T09:31:17Z</time>
      </trkpt>
      <trkpt lat="38.7847105041" lon="-6.3717074599">
        <ele>323.14</ele>
        <time>2020-07-12T09:31:25Z</time>
      </trkpt>
      <trkpt lat="38.7848483864" lon="-6.3718770258">
        <ele>322.18</ele>
        <time>2020-07-12T09:31:31Z</time>
      </trkpt>
      <trkpt lat="38.7850552518" lon="-6.3720723242">
        <ele>320.74</ele>
        <time>2020-07-12T09:31:38Z</time>
      </trkpt>
      <trkpt lat="38.7853709143" lon="-6.3723605778">
        <ele>319.78</ele>
        <time>2020-07-12T09:31:48Z</time>
      </trkpt>
      <trkpt lat="38.7856224552" lon="-6.3725724723">
        <ele>319.30</ele>
        <time>2020-07-12T09:31:56Z</time>
      </trkpt>
      <trkpt lat="38.7856870797" lon="-6.3726309780">
        <ele>318.81</ele>
        <time>2020-07-12T09:31:58Z</time>
      </trkpt>
      <trkpt lat="38.7857611757" lon="-6.3726868015">
        <ele>318.33</ele>
        <time>2020-07-12T09:32:00Z</time>
      </trkpt>
      <trkpt lat="38.7859125528" lon="-6.3728159666">
        <ele>316.89</ele>
        <time>2020-07-12T09:32:04Z</time>
      </trkpt>
      <trkpt lat="38.7859485950" lon="-6.3728498295">
        <ele>316.89</ele>
        <time>2020-07-12T09:32:05Z</time>
      </trkpt>
      <trkpt lat="38.7862202525" lon="-6.3730553538">
        <ele>315.93</ele>
        <time>2020-07-12T09:32:13Z</time>
      </trkpt>
      <trkpt lat="38.7865180615" lon="-6.3733029552">
        <ele>314.97</ele>
        <time>2020-07-12T09:32:22Z</time>
      </trkpt>
      <trkpt lat="38.7867932394" lon="-6.3735527359">
        <ele>313.53</ele>
        <time>2020-07-12T09:32:30Z</time>
      </trkpt>
      <trkpt lat="38.7868325505" lon="-6.3735786360">
        <ele>313.53</ele>
        <time>2020-07-12T09:32:31Z</time>
      </trkpt>
      <trkpt lat="38.7868687604" lon="-6.3736031950">
        <ele>313.05</ele>
        <time>2020-07-12T09:32:32Z</time>
      </trkpt>
      <trkpt lat="38.7870166171" lon="-6.3737062924">
        <ele>312.57</ele>
        <time>2020-07-12T09:32:36Z</time>
      </trkpt>
      <trkpt lat="38.7870482169" lon="-6.3737369701">
        <ele>312.57</ele>
        <time>2020-07-12T09:32:37Z</time>
      </trkpt>
      <trkpt lat="38.7870805711" lon="-6.3737667259">
        <ele>312.57</ele>
        <time>2020-07-12T09:32:38Z</time>
      </trkpt>
      <trkpt lat="38.7871169485" lon="-6.3737926260">
        <ele>312.57</ele>
        <time>2020-07-12T09:32:39Z</time>
      </trkpt>
      <trkpt lat="38.7871468719" lon="-6.3738144189">
        <ele>312.57</ele>
        <time>2020-07-12T09:32:40Z</time>
      </trkpt>
      <trkpt lat="38.7871767953" lon="-6.3738368824">
        <ele>312.57</ele>
        <time>2020-07-12T09:32:41Z</time>
      </trkpt>
      <trkpt lat="38.7872071378" lon="-6.3738486171">
        <ele>312.57</ele>
        <time>2020-07-12T09:32:42Z</time>
      </trkpt>
      <trkpt lat="38.7872407492" lon="-6.3738529757">
        <ele>312.57</ele>
        <time>2020-07-12T09:32:43Z</time>
      </trkpt>
      <trkpt lat="38.7872739416" lon="-6.3738602679">
        <ele>312.57</ele>
        <time>2020-07-12T09:32:44Z</time>
      </trkpt>
      <trkpt lat="38.7873060443" lon="-6.3738744333">
        <ele>312.57</ele>
        <time>2020-07-12T09:32:45Z</time>
      </trkpt>
      <trkpt lat="38.7873352971" lon="-6.3738881797">
        <ele>312.57</ele>
        <time>2020-07-12T09:32:46Z</time>
      </trkpt>
      <trkpt lat="38.7873657234" lon="-6.3738999981">
        <ele>312.57</ele>
        <time>2020-07-12T09:32:47Z</time>
      </trkpt>
      <trkpt lat="38.7874803040" lon="-6.3739932049">
        <ele>312.57</ele>
        <time>2020-07-12T09:32:53Z</time>
      </trkpt>
      <trkpt lat="38.7874725088" lon="-6.3739809673">
        <ele>313.53</ele>
        <time>2020-07-12T09:33:09Z</time>
      </trkpt>
      <trkpt lat="38.7874905299" lon="-6.3740138244">
        <ele>314.49</ele>
        <time>2020-07-12T09:33:19Z</time>
      </trkpt>
      <trkpt lat="38.7875419948" lon="-6.3741223700">
        <ele>312.57</ele>
        <time>2020-07-12T09:33:26Z</time>
      </trkpt>
      <trkpt lat="38.7875559088" lon="-6.3741214480">
        <ele>312.09</ele>
        <time>2020-07-12T09:33:47Z</time>
      </trkpt>
      <trkpt lat="38.7875487003" lon="-6.3741259743">
        <ele>312.09</ele>
        <time>2020-07-12T09:33:49Z</time>
      </trkpt>
      <trkpt lat="38.7875629496" lon="-6.3743195124">
        <ele>312.57</ele>
        <time>2020-07-12T09:33:57Z</time>
      </trkpt>
      <trkpt lat="38.7876094691" lon="-6.3746062573">
        <ele>312.09</ele>
        <time>2020-07-12T09:34:07Z</time>
      </trkpt>
      <trkpt lat="38.7876251433" lon="-6.3748063333">
        <ele>311.60</ele>
        <time>2020-07-12T09:34:15Z</time>
      </trkpt>
      <trkpt lat="38.7876491155" lon="-6.3748113625">
        <ele>311.60</ele>
        <time>2020-07-12T09:34:16Z</time>
      </trkpt>
      <trkpt lat="38.7876690645" lon="-6.3748095185">
        <ele>311.60</ele>
        <time>2020-07-12T09:34:17Z</time>
      </trkpt>
      <trkpt lat="38.7876944616" lon="-6.3748024777">
        <ele>311.60</ele>
        <time>2020-07-12T09:34:18Z</time>
      </trkpt>
      <trkpt lat="38.7877214514" lon="-6.3747956045">
        <ele>311.60</ele>
        <time>2020-07-12T09:34:19Z</time>
      </trkpt>
      <trkpt lat="38.7877499498" lon="-6.3747925870">
        <ele>311.60</ele>
        <time>2020-07-12T09:34:20Z</time>
      </trkpt>
      <trkpt lat="38.7880444899" lon="-6.3748169784">
        <ele>314.97</ele>
        <time>2020-07-12T09:34:31Z</time>
      </trkpt>
      <trkpt lat="38.7882671971" lon="-6.3748303056">
        <ele>315.93</ele>
        <time>2020-07-12T09:34:39Z</time>
      </trkpt>
      <trkpt lat="38.7885906547" lon="-6.3748735562">
        <ele>318.33</ele>
        <time>2020-07-12T09:34:51Z</time>
      </trkpt>
      <trkpt lat="38.7888142001" lon="-6.3749052398">
        <ele>319.30</ele>
        <time>2020-07-12T09:35:00Z</time>
      </trkpt>
      <trkpt lat="38.7890541740" lon="-6.3748992886">
        <ele>318.81</ele>
        <time>2020-07-12T09:35:09Z</time>
      </trkpt>
      <trkpt lat="38.7892939802" lon="-6.3749099337">
        <ele>319.30</ele>
        <time>2020-07-12T09:35:19Z</time>
      </trkpt>
      <trkpt lat="38.7893554196" lon="-6.3749224227">
        <ele>319.30</ele>
        <time>2020-07-12T09:35:23Z</time>
      </trkpt>
      <trkpt lat="38.7893646397" lon="-6.3749365043">
        <ele>318.81</ele>
        <time>2020-07-12T09:35:24Z</time>
      </trkpt>
      <trkpt lat="38.7893529050" lon="-6.3750476483">
        <ele>318.81</ele>
        <time>2020-07-12T09:35:29Z</time>
      </trkpt>
      <trkpt lat="38.7893992569" lon="-6.3753190544">
        <ele>316.89</ele>
        <time>2020-07-12T09:35:38Z</time>
      </trkpt>
      <trkpt lat="38.7894245703" lon="-6.3754514884">
        <ele>315.93</ele>
        <time>2020-07-12T09:35:45Z</time>
      </trkpt>
      <trkpt lat="38.7894351315" lon="-6.3754916377">
        <ele>315.45</ele>
        <time>2020-07-12T09:35:51Z</time>
      </trkpt>
      <trkpt lat="38.7894381490" lon="-6.3754942361">
        <ele>315.45</ele>
        <time>2020-07-12T09:35:59Z</time>
      </trkpt>
      <trkpt lat="38.7894435972" lon="-6.3754943199">
        <ele>314.97</ele>
        <time>2020-07-12T09:36:10Z</time>
      </trkpt>
      <trkpt lat="38.7894559186" lon="-6.3754996844">
        <ele>314.49</ele>
        <time>2020-07-12T09:36:17Z</time>
      </trkpt>
      <trkpt lat="38.7894455250" lon="-6.3755209744">
        <ele>311.60</ele>
        <time>2020-07-12T09:36:41Z</time>
      </trkpt>
      <trkpt lat="38.7894477043" lon="-6.3755223993">
        <ele>310.16</ele>
        <time>2020-07-12T09:36:59Z</time>
      </trkpt>
      <trkpt lat="38.7894393224" lon="-6.3755100779">
        <ele>312.09</ele>
        <time>2020-07-12T09:37:21Z</time>
      </trkpt>
      <trkpt lat="38.7894384842" lon="-6.3755092397">
        <ele>313.05</ele>
        <time>2020-07-12T09:37:30Z</time>
      </trkpt>
      <trkpt lat="38.7894486263" lon="-6.3755248301">
        <ele>313.05</ele>
        <time>2020-07-12T09:37:39Z</time>
      </trkpt>
      <trkpt lat="38.7894643005" lon="-6.3755895384">
        <ele>312.57</ele>
        <time>2020-07-12T09:37:46Z</time>
      </trkpt>
      <trkpt lat="38.7894632947" lon="-6.3757616188">
        <ele>313.05</ele>
        <time>2020-07-12T09:37:53Z</time>
      </trkpt>
      <trkpt lat="38.7895029411" lon="-6.3761094678">
        <ele>313.05</ele>
        <time>2020-07-12T09:38:01Z</time>
      </trkpt>
      <trkpt lat="38.7895528134" lon="-6.3765121344">
        <ele>312.57</ele>
        <time>2020-07-12T09:38:10Z</time>
      </trkpt>
      <trkpt lat="38.7895465270" lon="-6.3766754139">
        <ele>312.57</ele>
        <time>2020-07-12T09:38:15Z</time>
      </trkpt>
      <trkpt lat="38.7894286774" lon="-6.3766827900">
        <ele>314.01</ele>
        <time>2020-07-12T09:38:21Z</time>
      </trkpt>
      <trkpt lat="38.7894059625" lon="-6.3766863942">
        <ele>314.01</ele>
        <time>2020-07-12T09:38:22Z</time>
      </trkpt>
      <trkpt lat="38.7892672420" lon="-6.3767694589">
        <ele>314.49</ele>
        <time>2020-07-12T09:38:30Z</time>
      </trkpt>
      <trkpt lat="38.7891166192" lon="-6.3767894916">
        <ele>314.01</ele>
        <time>2020-07-12T09:38:38Z</time>
      </trkpt>
      <trkpt lat="38.7890053075" lon="-6.3768600672">
        <ele>313.53</ele>
        <time>2020-07-12T09:38:45Z</time>
      </trkpt>
      <trkpt lat="38.7890042178" lon="-6.3768562954">
        <ele>314.01</ele>
        <time>2020-07-12T09:38:50Z</time>
      </trkpt>
      <trkpt lat="38.7890073191" lon="-6.3768487517">
        <ele>312.57</ele>
        <time>2020-07-12T09:39:04Z</time>
      </trkpt>
      <trkpt lat="38.7890047207" lon="-6.3768474944">
        <ele>312.09</ele>
        <time>2020-07-12T09:39:26Z</time>
      </trkpt>
      <trkpt lat="38.7890073191" lon="-6.3768592291">
        <ele>312.57</ele>
        <time>2020-07-12T09:39:44Z</time>
      </trkpt>
      <trkpt lat="38.7890025415" lon="-6.3768449798">
        <ele>310.16</ele>
        <time>2020-07-12T09:40:08Z</time>
      </trkpt>
      <trkpt lat="38.7890094984" lon="-6.3768493384">
        <ele>311.60</ele>
        <time>2020-07-12T09:40:30Z</time>
      </trkpt>
      <trkpt lat="38.7890093308" lon="-6.3768606540">
        <ele>314.01</ele>
        <time>2020-07-12T09:40:56Z</time>
      </trkpt>
      <trkpt lat="38.7889965065" lon="-6.3768585585">
        <ele>314.49</ele>
        <time>2020-07-12T09:41:24Z</time>
      </trkpt>
      <trkpt lat="38.7890047207" lon="-6.3768442255">
        <ele>312.09</ele>
        <time>2020-07-12T09:41:49Z</time>
      </trkpt>
      <trkpt lat="38.7890096661" lon="-6.3768553734">
        <ele>310.64</ele>
        <time>2020-07-12T09:42:13Z</time>
      </trkpt>
      <trkpt lat="38.7889910582" lon="-6.3768553734">
        <ele>312.57</ele>
        <time>2020-07-12T09:42:39Z</time>
      </trkpt>
      <trkpt lat="38.7890131027" lon="-6.3768475782">
        <ele>312.57</ele>
        <time>2020-07-12T09:42:46Z</time>
      </trkpt>
      <trkpt lat="38.7890183832" lon="-6.3768308982">
        <ele>312.57</ele>
        <time>2020-07-12T09:42:48Z</time>
      </trkpt>
      <trkpt lat="38.7890062295" lon="-6.3766950276">
        <ele>313.53</ele>
        <time>2020-07-12T09:42:59Z</time>
      </trkpt>
      <trkpt lat="38.7890243344" lon="-6.3767044153">
        <ele>314.49</ele>
        <time>2020-07-12T09:43:14Z</time>
      </trkpt>
      <trkpt lat="38.7890519109" lon="-6.3767066784">
        <ele>313.05</ele>
        <time>2020-07-12T09:43:34Z</time>
      </trkpt>
      <trkpt lat="38.7890284415" lon="-6.3767052535">
        <ele>313.05</ele>
        <time>2020-07-12T09:43:52Z</time>
      </trkpt>
      <trkpt lat="38.7890351471" lon="-6.3766950276">
        <ele>317.37</ele>
        <time>2020-07-12T09:44:14Z</time>
      </trkpt>
      <trkpt lat="38.7889947463" lon="-6.3766957819">
        <ele>315.45</ele>
        <time>2020-07-12T09:44:35Z</time>
      </trkpt>
      <trkpt lat="38.7890069839" lon="-6.3766848017">
        <ele>314.97</ele>
        <time>2020-07-12T09:44:49Z</time>
      </trkpt>
      <trkpt lat="38.7890151143" lon="-6.3766827062">
        <ele>314.49</ele>
        <time>2020-07-12T09:45:08Z</time>
      </trkpt>
      <trkpt lat="38.7890223227" lon="-6.3766614161">
        <ele>313.05</ele>
        <time>2020-07-12T09:45:33Z</time>
      </trkpt>
      <trkpt lat="38.7890415173" lon="-6.3767053373">
        <ele>312.09</ele>
        <time>2020-07-12T09:45:56Z</time>
      </trkpt>
      <trkpt lat="38.7890189700" lon="-6.3767176587">
        <ele>311.60</ele>
        <time>2020-07-12T09:46:23Z</time>
      </trkpt>
      <trkpt lat="38.7890207302" lon="-6.3766937703">
        <ele>309.68</ele>
        <time>2020-07-12T09:46:41Z</time>
      </trkpt>
      <trkpt lat="38.7890381645" lon="-6.3766912557">
        <ele>310.16</ele>
        <time>2020-07-12T09:47:03Z</time>
      </trkpt>
      <trkpt lat="38.7890449539" lon="-6.3767131325">
        <ele>314.49</ele>
        <time>2020-07-12T09:47:24Z</time>
      </trkpt>
      <trkpt lat="38.7890373264" lon="-6.3767097797">
        <ele>312.57</ele>
        <time>2020-07-12T09:47:50Z</time>
      </trkpt>
      <trkpt lat="38.7890198920" lon="-6.3766812813">
        <ele>313.53</ele>
        <time>2020-07-12T09:48:10Z</time>
      </trkpt>
      <trkpt lat="38.7890240829" lon="-6.3766837958">
        <ele>312.57</ele>
        <time>2020-07-12T09:48:29Z</time>
      </trkpt>
      <trkpt lat="38.7890227418" lon="-6.3767117914">
        <ele>310.16</ele>
        <time>2020-07-12T09:48:49Z</time>
      </trkpt>
      <trkpt lat="38.7890248373" lon="-6.3766863942">
        <ele>312.57</ele>
        <time>2020-07-12T09:49:11Z</time>
      </trkpt>
      <trkpt lat="38.7890219036" lon="-6.3767111208">
        <ele>312.57</ele>
        <time>2020-07-12T09:49:31Z</time>
      </trkpt>
      <trkpt lat="38.7890201434" lon="-6.3767103665">
        <ele>314.01</ele>
        <time>2020-07-12T09:49:48Z</time>
      </trkpt>
      <trkpt lat="38.7890188023" lon="-6.3767083548">
        <ele>312.09</ele>
        <time>2020-07-12T09:50:07Z</time>
      </trkpt>
      <trkpt lat="38.7890162040" lon="-6.3766943570">
        <ele>311.12</ele>
        <time>2020-07-12T09:50:29Z</time>
      </trkpt>
      <trkpt lat="38.7890140247" lon="-6.3766791020">
        <ele>311.12</ele>
        <time>2020-07-12T09:50:49Z</time>
      </trkpt>
      <trkpt lat="38.7890119292" lon="-6.3766800240">
        <ele>309.68</ele>
        <time>2020-07-12T09:51:10Z</time>
      </trkpt>
      <trkpt lat="38.7889951654" lon="-6.3767074328">
        <ele>308.24</ele>
        <time>2020-07-12T09:51:29Z</time>
      </trkpt>
      <trkpt lat="38.7890270166" lon="-6.3766973745">
        <ele>311.12</ele>
        <time>2020-07-12T09:51:50Z</time>
      </trkpt>
      <trkpt lat="38.7890358176" lon="-6.3766768388">
        <ele>310.16</ele>
        <time>2020-07-12T09:52:14Z</time>
      </trkpt>
      <trkpt lat="38.7890238315" lon="-6.3766952790">
        <ele>310.16</ele>
        <time>2020-07-12T09:52:40Z</time>
      </trkpt>
      <trkpt lat="38.7890340574" lon="-6.3766937703">
        <ele>310.16</ele>
        <time>2020-07-12T09:52:59Z</time>
      </trkpt>
      <trkpt lat="38.7890473846" lon="-6.3766922615">
        <ele>311.60</ele>
        <time>2020-07-12T09:53:16Z</time>
      </trkpt>
      <trkpt lat="38.7890174612" lon="-6.3766825385">
        <ele>308.72</ele>
        <time>2020-07-12T09:53:37Z</time>
      </trkpt>
      <trkpt lat="38.7890105881" lon="-6.3766670320">
        <ele>311.12</ele>
        <time>2020-07-12T09:54:01Z</time>
      </trkpt>
      <trkpt lat="38.7890010327" lon="-6.3766972907">
        <ele>309.68</ele>
        <time>2020-07-12T09:54:23Z</time>
      </trkpt>
      <trkpt lat="38.7889901362" lon="-6.3766947761">
        <ele>307.76</ele>
        <time>2020-07-12T09:54:50Z</time>
      </trkpt>
      <trkpt lat="38.7890143599" lon="-6.3766973745">
        <ele>306.32</ele>
        <time>2020-07-12T09:55:12Z</time>
      </trkpt>
      <trkpt lat="38.7890265137" lon="-6.3767060917">
        <ele>306.32</ele>
        <time>2020-07-12T09:55:33Z</time>
      </trkpt>
      <trkpt lat="38.7890238315" lon="-6.3767075166">
        <ele>305.36</ele>
        <time>2020-07-12T09:55:53Z</time>
      </trkpt>
      <trkpt lat="38.7890473846" lon="-6.3767195866">
        <ele>308.24</ele>
        <time>2020-07-12T09:56:05Z</time>
      </trkpt>
      <trkpt lat="38.7890370749" lon="-6.3766583987">
        <ele>307.28</ele>
        <time>2020-07-12T09:56:23Z</time>
      </trkpt>
      <trkpt lat="38.7890203111" lon="-6.3766718935">
        <ele>308.72</ele>
        <time>2020-07-12T09:56:47Z</time>
      </trkpt>
      <trkpt lat="38.7890171260" lon="-6.3766843826">
        <ele>310.64</ele>
        <time>2020-07-12T09:57:06Z</time>
      </trkpt>
      <trkpt lat="38.7890074030" lon="-6.3766946085">
        <ele>313.53</ele>
        <time>2020-07-12T09:57:28Z</time>
      </trkpt>
      <trkpt lat="38.7890272681" lon="-6.3767000567">
        <ele>311.12</ele>
        <time>2020-07-12T09:57:49Z</time>
      </trkpt>
      <trkpt lat="38.7890497316" lon="-6.3766915072">
        <ele>309.68</ele>
        <time>2020-07-12T09:58:06Z</time>
      </trkpt>
      <trkpt lat="38.7890307046" lon="-6.3767200056">
        <ele>311.12</ele>
        <time>2020-07-12T09:58:25Z</time>
      </trkpt>
      <trkpt lat="38.7890222389" lon="-6.3767133839">
        <ele>312.57</ele>
        <time>2020-07-12T09:58:44Z</time>
      </trkpt>
      <trkpt lat="38.7890225742" lon="-6.3767128810">
        <ele>313.05</ele>
        <time>2020-07-12T09:59:01Z</time>
      </trkpt>
      <trkpt lat="38.7890322972" lon="-6.3767187484">
        <ele>314.97</ele>
        <time>2020-07-12T09:59:21Z</time>
      </trkpt>
      <trkpt lat="38.7890272681" lon="-6.3767374400">
        <ele>314.97</ele>
        <time>2020-07-12T09:59:40Z</time>
      </trkpt>
      <trkpt lat="38.7890187185" lon="-6.3767347578">
        <ele>312.09</ele>
        <time>2020-07-12T09:59:58Z</time>
      </trkpt>
      <trkpt lat="38.7890493963" lon="-6.3767118752">
        <ele>310.64</ele>
        <time>2020-07-12T10:00:18Z</time>
      </trkpt>
      <trkpt lat="38.7890141085" lon="-6.3767123781">
        <ele>309.68</ele>
        <time>2020-07-12T10:00:35Z</time>
      </trkpt>
      <trkpt lat="38.7890142761" lon="-6.3767209277">
        <ele>305.84</ele>
        <time>2020-07-12T10:00:52Z</time>
      </trkpt>
      <trkpt lat="38.7890418526" lon="-6.3767348416">
        <ele>303.91</ele>
        <time>2020-07-12T10:01:08Z</time>
      </trkpt>
      <trkpt lat="38.7890110072" lon="-6.3766971231">
        <ele>303.91</ele>
        <time>2020-07-12T10:01:28Z</time>
      </trkpt>
      <trkpt lat="38.7890260946" lon="-6.3767005596">
        <ele>306.80</ele>
        <time>2020-07-12T10:01:53Z</time>
      </trkpt>
      <trkpt lat="38.7890327163" lon="-6.3767065108">
        <ele>314.49</ele>
        <time>2020-07-12T10:02:16Z</time>
      </trkpt>
      <trkpt lat="38.7890403438" lon="-6.3767184131">
        <ele>316.41</ele>
        <time>2020-07-12T10:02:44Z</time>
      </trkpt>
      <trkpt lat="38.7890333869" lon="-6.3766959496">
        <ele>313.53</ele>
        <time>2020-07-12T10:03:09Z</time>
      </trkpt>
      <trkpt lat="38.7890394218" lon="-6.3766854722">
        <ele>314.49</ele>
        <time>2020-07-12T10:03:28Z</time>
      </trkpt>
      <trkpt lat="38.7890396733" lon="-6.3766801916">
        <ele>310.64</ele>
        <time>2020-07-12T10:03:49Z</time>
      </trkpt>
      <trkpt lat="38.7890140247" lon="-6.3766855560">
        <ele>306.32</ele>
        <time>2020-07-12T10:04:10Z</time>
      </trkpt>
      <trkpt lat="38.7890214846" lon="-6.3766911719">
        <ele>305.36</ele>
        <time>2020-07-12T10:04:31Z</time>
      </trkpt>
      <trkpt lat="38.7890412658" lon="-6.3766988833">
        <ele>306.80</ele>
        <time>2020-07-12T10:04:54Z</time>
      </trkpt>
      <trkpt lat="38.7890390027" lon="-6.3767304830">
        <ele>308.24</ele>
        <time>2020-07-12T10:05:12Z</time>
      </trkpt>
      <trkpt lat="38.7890349794" lon="-6.3767303154">
        <ele>309.68</ele>
        <time>2020-07-12T10:05:36Z</time>
      </trkpt>
      <trkpt lat="38.7890422717" lon="-6.3767040800">
        <ele>308.24</ele>
        <time>2020-07-12T10:05:53Z</time>
      </trkpt>
      <trkpt lat="38.7890497316" lon="-6.3767153956">
        <ele>307.28</ele>
        <time>2020-07-12T10:06:10Z</time>
      </trkpt>
      <trkpt lat="38.7890486419" lon="-6.3767398708">
        <ele>305.84</ele>
        <time>2020-07-12T10:06:29Z</time>
      </trkpt>
      <trkpt lat="38.7890474685" lon="-6.3766991347">
        <ele>304.39</ele>
        <time>2020-07-12T10:06:47Z</time>
      </trkpt>
      <trkpt lat="38.7890500668" lon="-6.3767016493">
        <ele>303.43</ele>
        <time>2020-07-12T10:07:04Z</time>
      </trkpt>
      <trkpt lat="38.7890640646" lon="-6.3766982127">
        <ele>305.36</ele>
        <time>2020-07-12T10:07:18Z</time>
      </trkpt>
      <trkpt lat="38.7890923955" lon="-6.3767006435">
        <ele>307.76</ele>
        <time>2020-07-12T10:07:38Z</time>
      </trkpt>
      <trkpt lat="38.7890875340" lon="-6.3766894117">
        <ele>305.84</ele>
        <time>2020-07-12T10:07:54Z</time>
      </trkpt>
      <trkpt lat="38.7890948262" lon="-6.3766817003">
        <ele>304.88</ele>
        <time>2020-07-12T10:08:19Z</time>
      </trkpt>
      <trkpt lat="38.7890774757" lon="-6.3767045829">
        <ele>304.88</ele>
        <time>2020-07-12T10:08:37Z</time>
      </trkpt>
      <trkpt lat="38.7890426908" lon="-6.3766852207">
        <ele>303.43</ele>
        <time>2020-07-12T10:08:54Z</time>
      </trkpt>
      <trkpt lat="38.7890300341" lon="-6.3766884897">
        <ele>304.88</ele>
        <time>2020-07-12T10:09:10Z</time>
      </trkpt>
      <trkpt lat="38.7890157010" lon="-6.3766773418">
        <ele>303.91</ele>
        <time>2020-07-12T10:09:26Z</time>
      </trkpt>
      <trkpt lat="38.7890162878" lon="-6.3766848017">
        <ele>303.91</ele>
        <time>2020-07-12T10:09:52Z</time>
      </trkpt>
      <trkpt lat="38.7890197244" lon="-6.3766656071">
        <ele>302.95</ele>
        <time>2020-07-12T10:10:09Z</time>
      </trkpt>
      <trkpt lat="38.7890218198" lon="-6.3766615838">
        <ele>302.95</ele>
        <time>2020-07-12T10:10:27Z</time>
      </trkpt>
      <trkpt lat="38.7890389189" lon="-6.3766920939">
        <ele>301.99</ele>
        <time>2020-07-12T10:10:45Z</time>
      </trkpt>
      <trkpt lat="38.7890446186" lon="-6.3766885735">
        <ele>302.95</ele>
        <time>2020-07-12T10:11:01Z</time>
      </trkpt>
      <trkpt lat="38.7890139408" lon="-6.3767140545">
        <ele>307.28</ele>
        <time>2020-07-12T10:11:25Z</time>
      </trkpt>
      <trkpt lat="38.7890001107" lon="-6.3767337520">
        <ele>305.36</ele>
        <time>2020-07-12T10:11:46Z</time>
      </trkpt>
      <trkpt lat="38.7890021224" lon="-6.3767069299">
        <ele>307.76</ele>
        <time>2020-07-12T10:12:04Z</time>
      </trkpt>
      <trkpt lat="38.7890181318" lon="-6.3766771741">
        <ele>306.80</ele>
        <time>2020-07-12T10:12:21Z</time>
      </trkpt>
      <trkpt lat="38.7890111748" lon="-6.3767055888">
        <ele>307.28</ele>
        <time>2020-07-12T10:12:44Z</time>
      </trkpt>
      <trkpt lat="38.7890244182" lon="-6.3767177425">
        <ele>305.36</ele>
        <time>2020-07-12T10:13:07Z</time>
      </trkpt>
      <trkpt lat="38.7890109234" lon="-6.3766969554">
        <ele>304.88</ele>
        <time>2020-07-12T10:13:30Z</time>
      </trkpt>
      <trkpt lat="38.7890114263" lon="-6.3767419662">
        <ele>306.32</ele>
        <time>2020-07-12T10:13:57Z</time>
      </trkpt>
      <trkpt lat="38.7890394218" lon="-6.3767241966">
        <ele>308.24</ele>
        <time>2020-07-12T10:14:20Z</time>
      </trkpt>
      <trkpt lat="38.7890488934" lon="-6.3767070137">
        <ele>309.20</ele>
        <time>2020-07-12T10:14:40Z</time>
      </trkpt>
      <trkpt lat="38.7890374940" lon="-6.3767328300">
        <ele>308.72</ele>
        <time>2020-07-12T10:15:04Z</time>
      </trkpt>
      <trkpt lat="38.7890459597" lon="-6.3766991347">
        <ele>307.28</ele>
        <time>2020-07-12T10:15:24Z</time>
      </trkpt>
      <trkpt lat="38.7890294474" lon="-6.3766976260">
        <ele>305.36</ele>
        <time>2020-07-12T10:15:47Z</time>
      </trkpt>
      <trkpt lat="38.7890470494" lon="-6.3767302316">
        <ele>303.91</ele>
        <time>2020-07-12T10:16:10Z</time>
      </trkpt>
      <trkpt lat="38.7890194729" lon="-6.3767080195">
        <ele>306.32</ele>
        <time>2020-07-12T10:16:27Z</time>
      </trkpt>
      <trkpt lat="38.7890208978" lon="-6.3766976260">
        <ele>307.28</ele>
        <time>2020-07-12T10:16:45Z</time>
      </trkpt>
      <trkpt lat="38.7890265137" lon="-6.3767208438">
        <ele>307.76</ele>
        <time>2020-07-12T10:16:59Z</time>
      </trkpt>
      <trkpt lat="38.7890190538" lon="-6.3767068461">
        <ele>307.28</ele>
        <time>2020-07-12T10:17:11Z</time>
      </trkpt>
      <trkpt lat="38.7890279386" lon="-6.3766993862">
        <ele>306.80</ele>
        <time>2020-07-12T10:17:28Z</time>
      </trkpt>
      <trkpt lat="38.7890260108" lon="-6.3766946085">
        <ele>305.84</ele>
        <time>2020-07-12T10:17:42Z</time>
      </trkpt>
      <trkpt lat="38.7890258431" lon="-6.3767018169">
        <ele>306.80</ele>
        <time>2020-07-12T10:17:55Z</time>
      </trkpt>
      <trkpt lat="38.7890300341" lon="-6.3766935188">
        <ele>306.32</ele>
        <time>2020-07-12T10:17:59Z</time>
      </trkpt>
      <trkpt lat="38.7891472969" lon="-6.3767063431">
        <ele>306.80</ele>
        <time>2020-07-12T10:18:05Z</time>
      </trkpt>
      <trkpt lat="38.7892661523" lon="-6.3767274655">
        <ele>307.76</ele>
        <time>2020-07-12T10:18:10Z</time>
      </trkpt>
      <trkpt lat="38.7893221434" lon="-6.3767120428">
        <ele>307.28</ele>
        <time>2020-07-12T10:18:12Z</time>
      </trkpt>
      <trkpt lat="38.7894539908" lon="-6.3766939379">
        <ele>308.24</ele>
        <time>2020-07-12T10:18:18Z</time>
      </trkpt>
      <trkpt lat="38.7895237282" lon="-6.3767261244">
        <ele>308.72</ele>
        <time>2020-07-12T10:18:22Z</time>
      </trkpt>
      <trkpt lat="38.7895860057" lon="-6.3768461533">
        <ele>308.72</ele>
        <time>2020-07-12T10:18:27Z</time>
      </trkpt>
      <trkpt lat="38.7897279114" lon="-6.3768873084">
        <ele>308.24</ele>
        <time>2020-07-12T10:18:32Z</time>
      </trkpt>
      <trkpt lat="38.7900960445" lon="-6.3768247794">
        <ele>308.24</ele>
        <time>2020-07-12T10:18:43Z</time>
      </trkpt>
      <trkpt lat="38.7904939335" lon="-6.3767387811">
        <ele>306.80</ele>
        <time>2020-07-12T10:18:52Z</time>
      </trkpt>
      <trkpt lat="38.7908810098" lon="-6.3766559679">
        <ele>306.32</ele>
        <time>2020-07-12T10:19:01Z</time>
      </trkpt>
      <trkpt lat="38.7910059839" lon="-6.3766247872">
        <ele>305.84</ele>
        <time>2020-07-12T10:19:04Z</time>
      </trkpt>
      <trkpt lat="38.7913471274" lon="-6.3765690476">
        <ele>305.84</ele>
        <time>2020-07-12T10:19:13Z</time>
      </trkpt>
      <trkpt lat="38.7915789708" lon="-6.3765247911">
        <ele>306.80</ele>
        <time>2020-07-12T10:19:20Z</time>
      </trkpt>
      <trkpt lat="38.7916293461" lon="-6.3764998969">
        <ele>307.76</ele>
        <time>2020-07-12T10:19:25Z</time>
      </trkpt>
      <trkpt lat="38.7916298490" lon="-6.3765052613">
        <ele>306.80</ele>
        <time>2020-07-12T10:19:34Z</time>
      </trkpt>
      <trkpt lat="38.7916275859" lon="-6.3765062671">
        <ele>306.32</ele>
        <time>2020-07-12T10:19:44Z</time>
      </trkpt>
      <trkpt lat="38.7916275021" lon="-6.3765137270">
        <ele>306.32</ele>
        <time>2020-07-12T10:19:56Z</time>
      </trkpt>
      <trkpt lat="38.7916261610" lon="-6.3765300717">
        <ele>306.80</ele>
        <time>2020-07-12T10:20:07Z</time>
      </trkpt>
      <trkpt lat="38.7916301843" lon="-6.3765292335">
        <ele>306.80</ele>
        <time>2020-07-12T10:20:17Z</time>
      </trkpt>
      <trkpt lat="38.7916321121" lon="-6.3765096199">
        <ele>306.32</ele>
        <time>2020-07-12T10:20:30Z</time>
      </trkpt>
      <trkpt lat="38.7916346267" lon="-6.3764877431">
        <ele>305.84</ele>
        <time>2020-07-12T10:20:42Z</time>
      </trkpt>
      <trkpt lat="38.7916306872" lon="-6.3764774334">
        <ele>306.80</ele>
        <time>2020-07-12T10:20:56Z</time>
      </trkpt>
      <trkpt lat="38.7916326988" lon="-6.3764688838">
        <ele>306.80</ele>
        <time>2020-07-12T10:21:09Z</time>
      </trkpt>
      <trkpt lat="38.7916301843" lon="-6.3764747512">
        <ele>306.80</ele>
        <time>2020-07-12T10:21:27Z</time>
      </trkpt>
      <trkpt lat="38.7916281726" lon="-6.3764749188">
        <ele>305.36</ele>
        <time>2020-07-12T10:21:41Z</time>
      </trkpt>
      <trkpt lat="38.7916419189" lon="-6.3764796127">
        <ele>305.36</ele>
        <time>2020-07-12T10:21:48Z</time>
      </trkpt>
      <trkpt lat="38.7916446012" lon="-6.3764638547">
        <ele>305.84</ele>
        <time>2020-07-12T10:22:00Z</time>
      </trkpt>
      <trkpt lat="38.7916627061" lon="-6.3764645252">
        <ele>305.36</ele>
        <time>2020-07-12T10:22:07Z</time>
      </trkpt>
      <trkpt lat="38.7916529831" lon="-6.3764764275">
        <ele>305.84</ele>
        <time>2020-07-12T10:22:27Z</time>
      </trkpt>
      <trkpt lat="38.7916748598" lon="-6.3764625136">
        <ele>305.84</ele>
        <time>2020-07-12T10:22:39Z</time>
      </trkpt>
      <trkpt lat="38.7916841637" lon="-6.3764600828">
        <ele>305.84</ele>
        <time>2020-07-12T10:22:40Z</time>
      </trkpt>
      <trkpt lat="38.7918531429" lon="-6.3764714822">
        <ele>306.80</ele>
        <time>2020-07-12T10:22:49Z</time>
      </trkpt>
      <trkpt lat="38.7921234593" lon="-6.3764242083">
        <ele>308.24</ele>
        <time>2020-07-12T10:22:59Z</time>
      </trkpt>
      <trkpt lat="38.7921962142" lon="-6.3764148206">
        <ele>308.72</ele>
        <time>2020-07-12T10:23:02Z</time>
      </trkpt>
      <trkpt lat="38.7922786083" lon="-6.3765573967">
        <ele>308.24</ele>
        <time>2020-07-12T10:23:08Z</time>
      </trkpt>
      <trkpt lat="38.7923217751" lon="-6.3768597320">
        <ele>307.76</ele>
        <time>2020-07-12T10:23:16Z</time>
      </trkpt>
      <trkpt lat="38.7923344318" lon="-6.3768907450">
        <ele>307.28</ele>
        <time>2020-07-12T10:23:21Z</time>
      </trkpt>
      <trkpt lat="38.7923360243" lon="-6.3768857997">
        <ele>306.80</ele>
        <time>2020-07-12T10:23:28Z</time>
      </trkpt>
      <trkpt lat="38.7923244573" lon="-6.3768952712">
        <ele>306.80</ele>
        <time>2020-07-12T10:23:37Z</time>
      </trkpt>
      <trkpt lat="38.7923081126" lon="-6.3769177347">
        <ele>306.32</ele>
        <time>2020-07-12T10:23:50Z</time>
      </trkpt>
      <trkpt lat="38.7923154887" lon="-6.3770183176">
        <ele>305.84</ele>
        <time>2020-07-12T10:23:55Z</time>
      </trkpt>
      <trkpt lat="38.7923602480" lon="-6.3772862870">
        <ele>304.88</ele>
        <time>2020-07-12T10:24:04Z</time>
      </trkpt>
      <trkpt lat="38.7923949491" lon="-6.3775160350">
        <ele>304.88</ele>
        <time>2020-07-12T10:24:12Z</time>
      </trkpt>
      <trkpt lat="38.7924197596" lon="-6.3777572662">
        <ele>304.88</ele>
        <time>2020-07-12T10:24:19Z</time>
      </trkpt>
      <trkpt lat="38.7925502658" lon="-6.3778178673">
        <ele>305.84</ele>
        <time>2020-07-12T10:24:25Z</time>
      </trkpt>
      <trkpt lat="38.7928400282" lon="-6.3777912967">
        <ele>306.80</ele>
        <time>2020-07-12T10:24:34Z</time>
      </trkpt>
      <trkpt lat="38.7931561098" lon="-6.3777412567">
        <ele>307.76</ele>
        <time>2020-07-12T10:24:44Z</time>
      </trkpt>
      <trkpt lat="38.7933556829" lon="-6.3777161110">
        <ele>308.24</ele>
        <time>2020-07-12T10:24:52Z</time>
      </trkpt>
      <trkpt lat="38.7933738716" lon="-6.3777100760">
        <ele>307.28</ele>
        <time>2020-07-12T10:24:58Z</time>
      </trkpt>
      <trkpt lat="38.7933832593" lon="-6.3777058013">
        <ele>304.39</ele>
        <time>2020-07-12T10:25:13Z</time>
      </trkpt>
      <trkpt lat="38.7933902163" lon="-6.3777115010">
        <ele>304.88</ele>
        <time>2020-07-12T10:25:23Z</time>
      </trkpt>
      <trkpt lat="38.7934519909" lon="-6.3777096570">
        <ele>305.36</ele>
        <time>2020-07-12T10:25:33Z</time>
      </trkpt>
      <trkpt lat="38.7936268374" lon="-6.3776862714">
        <ele>307.28</ele>
        <time>2020-07-12T10:25:41Z</time>
      </trkpt>
      <trkpt lat="38.7938357145" lon="-6.3776577730">
        <ele>308.24</ele>
        <time>2020-07-12T10:25:48Z</time>
      </trkpt>
      <trkpt lat="38.7941613514" lon="-6.3776083197">
        <ele>308.72</ele>
        <time>2020-07-12T10:25:58Z</time>
      </trkpt>
      <trkpt lat="38.7946474180" lon="-6.3775300328">
        <ele>307.76</ele>
        <time>2020-07-12T10:26:10Z</time>
      </trkpt>
      <trkpt lat="38.7951337360" lon="-6.3774590380">
        <ele>306.80</ele>
        <time>2020-07-12T10:26:21Z</time>
      </trkpt>
      <trkpt lat="38.7955217343" lon="-6.3774110097">
        <ele>306.80</ele>
        <time>2020-07-12T10:26:30Z</time>
      </trkpt>
      <trkpt lat="38.7958931364" lon="-6.3773573656">
        <ele>307.76</ele>
        <time>2020-07-12T10:26:40Z</time>
      </trkpt>
      <trkpt lat="38.7962389737" lon="-6.3773160428">
        <ele>309.20</ele>
        <time>2020-07-12T10:26:50Z</time>
      </trkpt>
      <trkpt lat="38.7966737431" lon="-6.3772471435">
        <ele>310.64</ele>
        <time>2020-07-12T10:27:03Z</time>
      </trkpt>
      <trkpt lat="38.7969607394" lon="-6.3772135321">
        <ele>311.12</ele>
        <time>2020-07-12T10:27:12Z</time>
      </trkpt>
      <trkpt lat="38.7973251846" lon="-6.3771515060">
        <ele>311.60</ele>
        <time>2020-07-12T10:27:24Z</time>
      </trkpt>
      <trkpt lat="38.7975647394" lon="-6.3770936709">
        <ele>312.09</ele>
        <time>2020-07-12T10:27:32Z</time>
      </trkpt>
      <trkpt lat="38.7978386600" lon="-6.3770272024">
        <ele>312.57</ele>
        <time>2020-07-12T10:27:41Z</time>
      </trkpt>
      <trkpt lat="38.7981136702" lon="-6.3769620750">
        <ele>313.53</ele>
        <time>2020-07-12T10:27:50Z</time>
      </trkpt>
      <trkpt lat="38.7984069530" lon="-6.3768787589">
        <ele>314.01</ele>
        <time>2020-07-12T10:27:59Z</time>
      </trkpt>
      <trkpt lat="38.7987364456" lon="-6.3767880667">
        <ele>314.01</ele>
        <time>2020-07-12T10:28:09Z</time>
      </trkpt>
      <trkpt lat="38.7991391122" lon="-6.3766585663">
        <ele>313.53</ele>
        <time>2020-07-12T10:28:20Z</time>
      </trkpt>
      <trkpt lat="38.7995054852" lon="-6.3765275571">
        <ele>313.53</ele>
        <time>2020-07-12T10:28:30Z</time>
      </trkpt>
      <trkpt lat="38.7999550067" lon="-6.3763537165">
        <ele>313.53</ele>
        <time>2020-07-12T10:28:43Z</time>
      </trkpt>
      <trkpt lat="38.8003712520" lon="-6.3761833962">
        <ele>313.05</ele>
        <time>2020-07-12T10:28:54Z</time>
      </trkpt>
      <trkpt lat="38.8006720785" lon="-6.3760594279">
        <ele>313.05</ele>
        <time>2020-07-12T10:29:02Z</time>
      </trkpt>
      <trkpt lat="38.8010765892" lon="-6.3758870959">
        <ele>314.01</ele>
        <time>2020-07-12T10:29:13Z</time>
      </trkpt>
      <trkpt lat="38.8014681078" lon="-6.3757127523">
        <ele>314.49</ele>
        <time>2020-07-12T10:29:24Z</time>
      </trkpt>
      <trkpt lat="38.8018706907" lon="-6.3755586091">
        <ele>314.49</ele>
        <time>2020-07-12T10:29:35Z</time>
      </trkpt>
      <trkpt lat="38.8022225630" lon="-6.3754279353">
        <ele>314.01</ele>
        <time>2020-07-12T10:29:44Z</time>
      </trkpt>
      <trkpt lat="38.8026488665" lon="-6.3752789889">
        <ele>313.53</ele>
        <time>2020-07-12T10:29:53Z</time>
      </trkpt>
      <trkpt lat="38.8031796925" lon="-6.3750914857">
        <ele>312.09</ele>
        <time>2020-07-12T10:30:03Z</time>
      </trkpt>
      <trkpt lat="38.8036894798" lon="-6.3748847879">
        <ele>310.16</ele>
        <time>2020-07-12T10:30:12Z</time>
      </trkpt>
      <trkpt lat="38.8042370696" lon="-6.3746767491">
        <ele>309.20</ele>
        <time>2020-07-12T10:30:21Z</time>
      </trkpt>
      <trkpt lat="38.8044066355" lon="-6.3746140525">
        <ele>309.20</ele>
        <time>2020-07-12T10:30:24Z</time>
      </trkpt>
      <trkpt lat="38.8050182629" lon="-6.3743988890">
        <ele>308.24</ele>
        <time>2020-07-12T10:30:35Z</time>
      </trkpt>
      <trkpt lat="38.8057168946" lon="-6.3741545565">
        <ele>306.80</ele>
        <time>2020-07-12T10:30:47Z</time>
      </trkpt>
      <trkpt lat="38.8063065615" lon="-6.3739839848">
        <ele>305.84</ele>
        <time>2020-07-12T10:30:57Z</time>
      </trkpt>
      <trkpt lat="38.8069155905" lon="-6.3737518899">
        <ele>304.88</ele>
        <time>2020-07-12T10:31:08Z</time>
      </trkpt>
      <trkpt lat="38.8074584026" lon="-6.3735575136">
        <ele>303.91</ele>
        <time>2020-07-12T10:31:18Z</time>
      </trkpt>
      <trkpt lat="38.8080405258" lon="-6.3733467925">
        <ele>302.95</ele>
        <time>2020-07-12T10:31:29Z</time>
      </trkpt>
      <trkpt lat="38.8085852657" lon="-6.3731486443">
        <ele>302.47</ele>
        <time>2020-07-12T10:31:40Z</time>
      </trkpt>
      <trkpt lat="38.8090998307" lon="-6.3729680143">
        <ele>301.99</ele>
        <time>2020-07-12T10:31:51Z</time>
      </trkpt>
      <trkpt lat="38.8095203508" lon="-6.3728181459">
        <ele>301.51</ele>
        <time>2020-07-12T10:32:00Z</time>
      </trkpt>
      <trkpt lat="38.8100841176" lon="-6.3726311456">
        <ele>300.55</ele>
        <time>2020-07-12T10:32:12Z</time>
      </trkpt>
      <trkpt lat="38.8106594514" lon="-6.3724280521">
        <ele>299.59</ele>
        <time>2020-07-12T10:32:24Z</time>
      </trkpt>
      <trkpt lat="38.8111525588" lon="-6.3722475898">
        <ele>297.67</ele>
        <time>2020-07-12T10:32:33Z</time>
      </trkpt>
      <trkpt lat="38.8117144816" lon="-6.3720492739">
        <ele>297.67</ele>
        <time>2020-07-12T10:32:44Z</time>
      </trkpt>
      <trkpt lat="38.8121910766" lon="-6.3718749303">
        <ele>298.15</ele>
        <time>2020-07-12T10:32:55Z</time>
      </trkpt>
      <trkpt lat="38.8125608861" lon="-6.3717375509">
        <ele>298.15</ele>
        <time>2020-07-12T10:33:04Z</time>
      </trkpt>
      <trkpt lat="38.8129993435" lon="-6.3715716731">
        <ele>298.15</ele>
        <time>2020-07-12T10:33:15Z</time>
      </trkpt>
      <trkpt lat="38.8133259863" lon="-6.3714610320">
        <ele>299.11</ele>
        <time>2020-07-12T10:33:24Z</time>
      </trkpt>
      <trkpt lat="38.8136187661" lon="-6.3713541627">
        <ele>300.55</ele>
        <time>2020-07-12T10:33:35Z</time>
      </trkpt>
      <trkpt lat="38.8138644397" lon="-6.3712478802">
        <ele>301.03</ele>
        <time>2020-07-12T10:33:45Z</time>
      </trkpt>
      <trkpt lat="38.8141345046" lon="-6.3711729459">
        <ele>301.99</ele>
        <time>2020-07-12T10:33:56Z</time>
      </trkpt>
      <trkpt lat="38.8143678568" lon="-6.3710921444">
        <ele>302.95</ele>
        <time>2020-07-12T10:34:05Z</time>
      </trkpt>
      <trkpt lat="38.8146009576" lon="-6.3709993567">
        <ele>303.91</ele>
        <time>2020-07-12T10:34:15Z</time>
      </trkpt>
      <trkpt lat="38.8148270175" lon="-6.3709220756">
        <ele>304.88</ele>
        <time>2020-07-12T10:34:24Z</time>
      </trkpt>
      <trkpt lat="38.8150052167" lon="-6.3708129432">
        <ele>304.88</ele>
        <time>2020-07-12T10:34:31Z</time>
      </trkpt>
      <trkpt lat="38.8153204601" lon="-6.3707117736">
        <ele>305.36</ele>
        <time>2020-07-12T10:34:42Z</time>
      </trkpt>
      <trkpt lat="38.8156104740" lon="-6.3706169743">
        <ele>306.32</ele>
        <time>2020-07-12T10:34:52Z</time>
      </trkpt>
      <trkpt lat="38.8159490190" lon="-6.3705042377">
        <ele>306.80</ele>
        <time>2020-07-12T10:35:03Z</time>
      </trkpt>
      <trkpt lat="38.8162953593" lon="-6.3703767490">
        <ele>307.76</ele>
        <time>2020-07-12T10:35:14Z</time>
      </trkpt>
      <trkpt lat="38.8165176474" lon="-6.3702994678">
        <ele>307.76</ele>
        <time>2020-07-12T10:35:21Z</time>
      </trkpt>
      <trkpt lat="38.8168791588" lon="-6.3701767568">
        <ele>308.24</ele>
        <time>2020-07-12T10:35:32Z</time>
      </trkpt>
      <trkpt lat="38.8172328752" lon="-6.3700661995">
        <ele>308.24</ele>
        <time>2020-07-12T10:35:43Z</time>
      </trkpt>
      <trkpt lat="38.8173750322" lon="-6.3700176682">
        <ele>307.76</ele>
        <time>2020-07-12T10:35:50Z</time>
      </trkpt>
      <trkpt lat="38.8173651416" lon="-6.3700191770">
        <ele>307.76</ele>
        <time>2020-07-12T10:36:01Z</time>
      </trkpt>
      <trkpt lat="38.8173723500" lon="-6.3700229488">
        <ele>308.24</ele>
        <time>2020-07-12T10:36:17Z</time>
      </trkpt>
      <trkpt lat="38.8173720147" lon="-6.3700253796">
        <ele>308.24</ele>
        <time>2020-07-12T10:36:27Z</time>
      </trkpt>
      <trkpt lat="38.8173811510" lon="-6.3700109627">
        <ele>306.80</ele>
        <time>2020-07-12T10:36:45Z</time>
      </trkpt>
      <trkpt lat="38.8173845876" lon="-6.3700236194">
        <ele>305.36</ele>
        <time>2020-07-12T10:37:06Z</time>
      </trkpt>
      <trkpt lat="38.8174413331" lon="-6.3700182550">
        <ele>305.84</ele>
        <time>2020-07-12T10:37:17Z</time>
      </trkpt>
      <trkpt lat="38.8176600169" lon="-6.3699470926">
        <ele>307.28</ele>
        <time>2020-07-12T10:37:25Z</time>
      </trkpt>
      <trkpt lat="38.8180856500" lon="-6.3698278181">
        <ele>308.24</ele>
        <time>2020-07-12T10:37:37Z</time>
      </trkpt>
      <trkpt lat="38.8183282223" lon="-6.3697674684">
        <ele>308.72</ele>
        <time>2020-07-12T10:37:44Z</time>
      </trkpt>
      <trkpt lat="38.8187211659" lon="-6.3696597610">
        <ele>308.72</ele>
        <time>2020-07-12T10:37:55Z</time>
      </trkpt>
      <trkpt lat="38.8190908078" lon="-6.3695552386">
        <ele>309.68</ele>
        <time>2020-07-12T10:38:05Z</time>
      </trkpt>
      <trkpt lat="38.8194988389" lon="-6.3694497943">
        <ele>310.64</ele>
        <time>2020-07-12T10:38:16Z</time>
      </trkpt>
      <trkpt lat="38.8199909404" lon="-6.3693142589">
        <ele>310.64</ele>
        <time>2020-07-12T10:38:30Z</time>
      </trkpt>
      <trkpt lat="38.8204335887" lon="-6.3691852614">
        <ele>310.64</ele>
        <time>2020-07-12T10:38:42Z</time>
      </trkpt>
      <trkpt lat="38.8208111096" lon="-6.3690810744">
        <ele>310.64</ele>
        <time>2020-07-12T10:38:52Z</time>
      </trkpt>
      <trkpt lat="38.8211877923" lon="-6.3689813297">
        <ele>311.60</ele>
        <time>2020-07-12T10:39:02Z</time>
      </trkpt>
      <trkpt lat="38.8215078134" lon="-6.3688971754">
        <ele>311.60</ele>
        <time>2020-07-12T10:39:10Z</time>
      </trkpt>
      <trkpt lat="38.8218982425" lon="-6.3687931560">
        <ele>310.64</ele>
        <time>2020-07-12T10:39:20Z</time>
      </trkpt>
      <trkpt lat="38.8222929463" lon="-6.3686749712">
        <ele>310.64</ele>
        <time>2020-07-12T10:39:30Z</time>
      </trkpt>
      <trkpt lat="38.8226471655" lon="-6.3685755618">
        <ele>310.64</ele>
        <time>2020-07-12T10:39:39Z</time>
      </trkpt>
      <trkpt lat="38.8230557833" lon="-6.3684638310">
        <ele>310.64</ele>
        <time>2020-07-12T10:39:49Z</time>
      </trkpt>
      <trkpt lat="38.8232273608" lon="-6.3684170600">
        <ele>310.64</ele>
        <time>2020-07-12T10:39:53Z</time>
      </trkpt>
      <trkpt lat="38.8235518243" lon="-6.3683264516">
        <ele>310.64</ele>
        <time>2020-07-12T10:40:01Z</time>
      </trkpt>
      <trkpt lat="38.8237176184" lon="-6.3682873081">
        <ele>310.64</ele>
        <time>2020-07-12T10:40:05Z</time>
      </trkpt>
      <trkpt lat="38.8240917865" lon="-6.3681858033">
        <ele>310.64</ele>
        <time>2020-07-12T10:40:14Z</time>
      </trkpt>
      <trkpt lat="38.8245575689" lon="-6.3680541236">
        <ele>310.64</ele>
        <time>2020-07-12T10:40:25Z</time>
      </trkpt>
      <trkpt lat="38.8248475827" lon="-6.3679590728">
        <ele>310.16</ele>
        <time>2020-07-12T10:40:32Z</time>
      </trkpt>
      <trkpt lat="38.8251694478" lon="-6.3678451627">
        <ele>310.16</ele>
        <time>2020-07-12T10:40:40Z</time>
      </trkpt>
      <trkpt lat="38.8252090942" lon="-6.3678302430">
        <ele>310.16</ele>
        <time>2020-07-12T10:40:41Z</time>
      </trkpt>
      <trkpt lat="38.8255346473" lon="-6.3677246310">
        <ele>310.16</ele>
        <time>2020-07-12T10:40:50Z</time>
      </trkpt>
      <trkpt lat="38.8257997669" lon="-6.3676332682">
        <ele>310.16</ele>
        <time>2020-07-12T10:40:58Z</time>
      </trkpt>
      <trkpt lat="38.8261543214" lon="-6.3675127365">
        <ele>310.64</ele>
        <time>2020-07-12T10:41:07Z</time>
      </trkpt>
      <trkpt lat="38.8265579939" lon="-6.3673772849">
        <ele>310.16</ele>
        <time>2020-07-12T10:41:17Z</time>
      </trkpt>
      <trkpt lat="38.8271005545" lon="-6.3671726827">
        <ele>309.20</ele>
        <time>2020-07-12T10:41:29Z</time>
      </trkpt>
      <trkpt lat="38.8275096752" lon="-6.3670323696">
        <ele>307.28</ele>
        <time>2020-07-12T10:41:36Z</time>
      </trkpt>
      <trkpt lat="38.8280954864" lon="-6.3668229897">
        <ele>303.43</ele>
        <time>2020-07-12T10:41:44Z</time>
      </trkpt>
      <trkpt lat="38.8288544677" lon="-6.3665480632">
        <ele>298.63</ele>
        <time>2020-07-12T10:41:53Z</time>
      </trkpt>
      <trkpt lat="38.8296679314" lon="-6.3662700355">
        <ele>293.82</ele>
        <time>2020-07-12T10:42:02Z</time>
      </trkpt>
      <trkpt lat="38.8305844087" lon="-6.3659644313">
        <ele>289.01</ele>
        <time>2020-07-12T10:42:11Z</time>
      </trkpt>
      <trkpt lat="38.8316676021" lon="-6.3656669576">
        <ele>284.21</ele>
        <time>2020-07-12T10:42:21Z</time>
      </trkpt>
      <trkpt lat="38.8325408287" lon="-6.3654744253">
        <ele>281.80</ele>
        <time>2020-07-12T10:42:30Z</time>
      </trkpt>
      <trkpt lat="38.8331717346" lon="-6.3653368782">
        <ele>281.32</ele>
        <time>2020-07-12T10:42:38Z</time>
      </trkpt>
      <trkpt lat="38.8336789235" lon="-6.3651879318">
        <ele>281.80</ele>
        <time>2020-07-12T10:42:46Z</time>
      </trkpt>
      <trkpt lat="38.8340834342" lon="-6.3650887739">
        <ele>281.80</ele>
        <time>2020-07-12T10:42:54Z</time>
      </trkpt>
      <trkpt lat="38.8345757872" lon="-6.3649484608">
        <ele>281.80</ele>
        <time>2020-07-12T10:43:04Z</time>
      </trkpt>
      <trkpt lat="38.8350937888" lon="-6.3648439385">
        <ele>281.80</ele>
        <time>2020-07-12T10:43:15Z</time>
      </trkpt>
      <trkpt lat="38.8356849644" lon="-6.3647594489">
        <ele>282.28</ele>
        <time>2020-07-12T10:43:28Z</time>
      </trkpt>
      <trkpt lat="38.8361162134" lon="-6.3646540884">
        <ele>282.28</ele>
        <time>2020-07-12T10:43:38Z</time>
      </trkpt>
      <trkpt lat="38.8362877071" lon="-6.3646064792">
        <ele>282.28</ele>
        <time>2020-07-12T10:43:42Z</time>
      </trkpt>
      <trkpt lat="38.8366892003" lon="-6.3644818403">
        <ele>282.77</ele>
        <time>2020-07-12T10:43:51Z</time>
      </trkpt>
      <trkpt lat="38.8367823232" lon="-6.3644573651">
        <ele>282.77</ele>
        <time>2020-07-12T10:43:53Z</time>
      </trkpt>
      <trkpt lat="38.8368281722" lon="-6.3644466363">
        <ele>282.77</ele>
        <time>2020-07-12T10:43:54Z</time>
      </trkpt>
      <trkpt lat="38.8368711714" lon="-6.3644372486">
        <ele>282.77</ele>
        <time>2020-07-12T10:43:55Z</time>
      </trkpt>
      <trkpt lat="38.8374050148" lon="-6.3643333130">
        <ele>282.28</ele>
        <time>2020-07-12T10:44:07Z</time>
      </trkpt>
      <trkpt lat="38.8376424741" lon="-6.3642798364">
        <ele>281.80</ele>
        <time>2020-07-12T10:44:12Z</time>
      </trkpt>
      <trkpt lat="38.8380659278" lon="-6.3641962688">
        <ele>281.32</ele>
        <time>2020-07-12T10:44:21Z</time>
      </trkpt>
      <trkpt lat="38.8382959273" lon="-6.3641393557">
        <ele>280.84</ele>
        <time>2020-07-12T10:44:26Z</time>
      </trkpt>
      <trkpt lat="38.8387214765" lon="-6.3640603982">
        <ele>280.36</ele>
        <time>2020-07-12T10:44:35Z</time>
      </trkpt>
      <trkpt lat="38.8389501348" lon="-6.3640232664">
        <ele>280.84</ele>
        <time>2020-07-12T10:44:40Z</time>
      </trkpt>
      <trkpt lat="38.8391191978" lon="-6.3639966119">
        <ele>281.32</ele>
        <time>2020-07-12T10:44:44Z</time>
      </trkpt>
      <trkpt lat="38.8391585089" lon="-6.3639892358">
        <ele>281.32</ele>
        <time>2020-07-12T10:44:45Z</time>
      </trkpt>
      <trkpt lat="38.8392006699" lon="-6.3639815245">
        <ele>281.32</ele>
        <time>2020-07-12T10:44:46Z</time>
      </trkpt>
      <trkpt lat="38.8395632710" lon="-6.3639065064">
        <ele>281.32</ele>
        <time>2020-07-12T10:44:55Z</time>
      </trkpt>
      <trkpt lat="38.8399221003" lon="-6.3638041634">
        <ele>281.32</ele>
        <time>2020-07-12T10:45:04Z</time>
      </trkpt>
      <trkpt lat="38.8404380064" lon="-6.3636616711">
        <ele>280.84</ele>
        <time>2020-07-12T10:45:17Z</time>
      </trkpt>
      <trkpt lat="38.8408508152" lon="-6.3635636866">
        <ele>281.32</ele>
        <time>2020-07-12T10:45:29Z</time>
      </trkpt>
      <trkpt lat="38.8411876839" lon="-6.3634796999">
        <ele>281.80</ele>
        <time>2020-07-12T10:45:40Z</time>
      </trkpt>
      <trkpt lat="38.8415113091" lon="-6.3633916061">
        <ele>282.77</ele>
        <time>2020-07-12T10:45:51Z</time>
      </trkpt>
      <trkpt lat="38.8417601679" lon="-6.3633226231">
        <ele>283.25</ele>
        <time>2020-07-12T10:46:00Z</time>
      </trkpt>
      <trkpt lat="38.8420407102" lon="-6.3632529695">
        <ele>284.21</ele>
        <time>2020-07-12T10:46:11Z</time>
      </trkpt>
      <trkpt lat="38.8422961067" lon="-6.3631858304">
        <ele>284.69</ele>
        <time>2020-07-12T10:46:22Z</time>
      </trkpt>
      <trkpt lat="38.8425294589" lon="-6.3631311804">
        <ele>285.65</ele>
        <time>2020-07-12T10:46:32Z</time>
      </trkpt>
      <trkpt lat="38.8428532518" lon="-6.3630496245">
        <ele>286.61</ele>
        <time>2020-07-12T10:46:45Z</time>
      </trkpt>
      <trkpt lat="38.8430671580" lon="-6.3629870955">
        <ele>287.57</ele>
        <time>2020-07-12T10:46:54Z</time>
      </trkpt>
      <trkpt lat="38.8433000911" lon="-6.3629028574">
        <ele>288.53</ele>
        <time>2020-07-12T10:47:04Z</time>
      </trkpt>
      <trkpt lat="38.8436248060" lon="-6.3627630472">
        <ele>289.49</ele>
        <time>2020-07-12T10:47:17Z</time>
      </trkpt>
      <trkpt lat="38.8438810408" lon="-6.3626160286">
        <ele>289.01</ele>
        <time>2020-07-12T10:47:27Z</time>
      </trkpt>
      <trkpt lat="38.8441283908" lon="-6.3624640647">
        <ele>289.49</ele>
        <time>2020-07-12T10:47:36Z</time>
      </trkpt>
      <trkpt lat="38.8444010541" lon="-6.3622609712">
        <ele>289.01</ele>
        <time>2020-07-12T10:47:46Z</time>
      </trkpt>
      <trkpt lat="38.8446331490" lon="-6.3620884717">
        <ele>289.01</ele>
        <time>2020-07-12T10:47:55Z</time>
      </trkpt>
      <trkpt lat="38.8448210713" lon="-6.3619453926">
        <ele>289.01</ele>
        <time>2020-07-12T10:48:02Z</time>
      </trkpt>
      <trkpt lat="38.8450395036" lon="-6.3617796823">
        <ele>289.49</ele>
        <time>2020-07-12T10:48:10Z</time>
      </trkpt>
      <trkpt lat="38.8452705089" lon="-6.3616186660">
        <ele>289.49</ele>
        <time>2020-07-12T10:48:18Z</time>
      </trkpt>
      <trkpt lat="38.8455520570" lon="-6.3614261337">
        <ele>289.49</ele>
        <time>2020-07-12T10:48:28Z</time>
      </trkpt>
      <trkpt lat="38.8457352854" lon="-6.3613217790">
        <ele>289.49</ele>
        <time>2020-07-12T10:48:35Z</time>
      </trkpt>
      <trkpt lat="38.8459977228" lon="-6.3611844834">
        <ele>290.46</ele>
        <time>2020-07-12T10:48:44Z</time>
      </trkpt>
      <trkpt lat="38.8463449851" lon="-6.3610453438">
        <ele>291.42</ele>
        <time>2020-07-12T10:48:56Z</time>
      </trkpt>
      <trkpt lat="38.8466349989" lon="-6.3609495386">
        <ele>292.86</ele>
        <time>2020-07-12T10:49:07Z</time>
      </trkpt>
      <trkpt lat="38.8468677644" lon="-6.3608943019">
        <ele>293.82</ele>
        <time>2020-07-12T10:49:17Z</time>
      </trkpt>
      <trkpt lat="38.8471076544" lon="-6.3608459383">
        <ele>294.78</ele>
        <time>2020-07-12T10:49:28Z</time>
      </trkpt>
      <trkpt lat="38.8473182917" lon="-6.3608248997">
        <ele>295.26</ele>
        <time>2020-07-12T10:49:37Z</time>
      </trkpt>
      <trkpt lat="38.8475476205" lon="-6.3608076330">
        <ele>295.74</ele>
        <time>2020-07-12T10:49:47Z</time>
      </trkpt>
      <trkpt lat="38.8477732614" lon="-6.3607880194">
        <ele>296.22</ele>
        <time>2020-07-12T10:49:57Z</time>
      </trkpt>
      <trkpt lat="38.8479893468" lon="-6.3607657235">
        <ele>297.18</ele>
        <time>2020-07-12T10:50:06Z</time>
      </trkpt>
      <trkpt lat="38.8482441567" lon="-6.3607427571">
        <ele>298.15</ele>
        <time>2020-07-12T10:50:17Z</time>
      </trkpt>
      <trkpt lat="38.8484983798" lon="-6.3607253227">
        <ele>299.11</ele>
        <time>2020-07-12T10:50:27Z</time>
      </trkpt>
      <trkpt lat="38.8487526029" lon="-6.3606913760">
        <ele>299.59</ele>
        <time>2020-07-12T10:50:37Z</time>
      </trkpt>
      <trkpt lat="38.8490036409" lon="-6.3606641348">
        <ele>300.07</ele>
        <time>2020-07-12T10:50:47Z</time>
      </trkpt>
      <trkpt lat="38.8492187206" lon="-6.3606275897">
        <ele>299.59</ele>
        <time>2020-07-12T10:50:55Z</time>
      </trkpt>
      <trkpt lat="38.8494363148" lon="-6.3605979178">
        <ele>299.59</ele>
        <time>2020-07-12T10:51:03Z</time>
      </trkpt>
      <trkpt lat="38.8496566750" lon="-6.3605504762">
        <ele>299.59</ele>
        <time>2020-07-12T10:51:11Z</time>
      </trkpt>
      <trkpt lat="38.8498779573" lon="-6.3605118357">
        <ele>299.59</ele>
        <time>2020-07-12T10:51:20Z</time>
      </trkpt>
      <trkpt lat="38.8498848304" lon="-6.3605078124">
        <ele>299.59</ele>
        <time>2020-07-12T10:51:25Z</time>
      </trkpt>
      <trkpt lat="38.8498507999" lon="-6.3605112489">
        <ele>299.11</ele>
        <time>2020-07-12T10:51:32Z</time>
      </trkpt>
      <trkpt lat="38.8498393167" lon="-6.3605015259">
        <ele>298.63</ele>
        <time>2020-07-12T10:51:39Z</time>
      </trkpt>
      <trkpt lat="38.8498464413" lon="-6.3604898751">
        <ele>298.15</ele>
        <time>2020-07-12T10:51:48Z</time>
      </trkpt>
      <trkpt lat="38.8498934638" lon="-6.3604713511">
        <ele>297.67</ele>
        <time>2020-07-12T10:51:56Z</time>
      </trkpt>
      <trkpt lat="38.8499536458" lon="-6.3604426850">
        <ele>297.67</ele>
        <time>2020-07-12T10:52:07Z</time>
      </trkpt>
      <trkpt lat="38.8500120677" lon="-6.3604050502">
        <ele>297.18</ele>
        <time>2020-07-12T10:52:17Z</time>
      </trkpt>
      <trkpt lat="38.8500533067" lon="-6.3603752945">
        <ele>297.18</ele>
        <time>2020-07-12T10:52:22Z</time>
      </trkpt>
      <trkpt lat="38.8500735909" lon="-6.3603522442">
        <ele>297.18</ele>
        <time>2020-07-12T10:52:30Z</time>
      </trkpt>
      <trkpt lat="38.8500812184" lon="-6.3603471313">
        <ele>295.74</ele>
        <time>2020-07-12T10:52:49Z</time>
      </trkpt>
      <trkpt lat="38.8500827271" lon="-6.3603515737">
        <ele>295.74</ele>
        <time>2020-07-12T10:53:08Z</time>
      </trkpt>
      <trkpt lat="38.8500787038" lon="-6.3603472151">
        <ele>295.74</ele>
        <time>2020-07-12T10:53:15Z</time>
      </trkpt>
      <trkpt lat="38.8501284923" lon="-6.3603063952">
        <ele>296.22</ele>
        <time>2020-07-12T10:53:22Z</time>
      </trkpt>
      <trkpt lat="38.8503109664" lon="-6.3600984402">
        <ele>295.74</ele>
        <time>2020-07-12T10:53:31Z</time>
      </trkpt>
      <trkpt lat="38.8505386189" lon="-6.3598283753">
        <ele>294.78</ele>
        <time>2020-07-12T10:53:41Z</time>
      </trkpt>
      <trkpt lat="38.8505890779" lon="-6.3597700372">
        <ele>294.78</ele>
        <time>2020-07-12T10:53:44Z</time>
      </trkpt>
      <trkpt lat="38.8506111223" lon="-6.3597596437">
        <ele>294.78</ele>
        <time>2020-07-12T10:53:45Z</time>
      </trkpt>
      <trkpt lat="38.8506307360" lon="-6.3597432990">
        <ele>294.78</ele>
        <time>2020-07-12T10:53:46Z</time>
      </trkpt>
      <trkpt lat="38.8508062530" lon="-6.3596130442">
        <ele>295.26</ele>
        <time>2020-07-12T10:53:54Z</time>
      </trkpt>
      <trkpt lat="38.8508331589" lon="-6.3595985435">
        <ele>295.26</ele>
        <time>2020-07-12T10:53:59Z</time>
      </trkpt>
      <trkpt lat="38.8508344162" lon="-6.3595906645">
        <ele>295.26</ele>
        <time>2020-07-12T10:54:16Z</time>
      </trkpt>
      <trkpt lat="38.8508440554" lon="-6.3595804386">
        <ele>296.70</ele>
        <time>2020-07-12T10:54:35Z</time>
      </trkpt>
      <trkpt lat="38.8508386910" lon="-6.3595931791">
        <ele>297.18</ele>
        <time>2020-07-12T10:54:48Z</time>
      </trkpt>
      <trkpt lat="38.8508280460" lon="-6.3596019801">
        <ele>296.70</ele>
        <time>2020-07-12T10:55:08Z</time>
      </trkpt>
      <trkpt lat="38.8508464023" lon="-6.3595949393">
        <ele>296.70</ele>
        <time>2020-07-12T10:55:22Z</time>
      </trkpt>
      <trkpt lat="38.8509848714" lon="-6.3596001361">
        <ele>296.70</ele>
        <time>2020-07-12T10:55:32Z</time>
      </trkpt>
      <trkpt lat="38.8511292916" lon="-6.3596236892">
        <ele>296.22</ele>
        <time>2020-07-12T10:55:41Z</time>
      </trkpt>
      <trkpt lat="38.8511938322" lon="-6.3596353400">
        <ele>296.22</ele>
        <time>2020-07-12T10:55:45Z</time>
      </trkpt>
      <trkpt lat="38.8513426110" lon="-6.3597047422">
        <ele>295.26</ele>
        <time>2020-07-12T10:55:54Z</time>
      </trkpt>
      <trkpt lat="38.8515540026" lon="-6.3598145451">
        <ele>293.34</ele>
        <time>2020-07-12T10:56:01Z</time>
      </trkpt>
      <trkpt lat="38.8518501353" lon="-6.3599359989">
        <ele>290.94</ele>
        <time>2020-07-12T10:56:09Z</time>
      </trkpt>
      <trkpt lat="38.8521883450" lon="-6.3600346539">
        <ele>289.01</ele>
        <time>2020-07-12T10:56:16Z</time>
      </trkpt>
      <trkpt lat="38.8522313442" lon="-6.3600406889">
        <ele>289.01</ele>
        <time>2020-07-12T10:56:17Z</time>
      </trkpt>
      <trkpt lat="38.8523582462" lon="-6.3600501604">
        <ele>288.53</ele>
        <time>2020-07-12T10:56:20Z</time>
      </trkpt>
      <trkpt lat="38.8526465837" lon="-6.3600356597">
        <ele>288.53</ele>
        <time>2020-07-12T10:56:28Z</time>
      </trkpt>
      <trkpt lat="38.8529207557" lon="-6.3599940855">
        <ele>289.49</ele>
        <time>2020-07-12T10:56:36Z</time>
      </trkpt>
      <trkpt lat="38.8531818520" lon="-6.3599435426">
        <ele>290.94</ele>
        <time>2020-07-12T10:56:44Z</time>
      </trkpt>
      <trkpt lat="38.8533949200" lon="-6.3599375915">
        <ele>289.01</ele>
        <time>2020-07-12T10:56:52Z</time>
      </trkpt>
      <trkpt lat="38.8537805714" lon="-6.3599256892">
        <ele>285.65</ele>
        <time>2020-07-12T10:57:01Z</time>
      </trkpt>
      <trkpt lat="38.8541133329" lon="-6.3599282876">
        <ele>283.25</ele>
        <time>2020-07-12T10:57:09Z</time>
      </trkpt>
      <trkpt lat="38.8544314262" lon="-6.3599007949">
        <ele>279.88</ele>
        <time>2020-07-12T10:57:17Z</time>
      </trkpt>
      <trkpt lat="38.8545888383" lon="-6.3598339912">
        <ele>278.44</ele>
        <time>2020-07-12T10:57:21Z</time>
      </trkpt>
      <trkpt lat="38.8546252158" lon="-6.3598101027">
        <ele>277.96</ele>
        <time>2020-07-12T10:57:22Z</time>
      </trkpt>
      <trkpt lat="38.8548501860" lon="-6.3597112801">
        <ele>277.00</ele>
        <time>2020-07-12T10:57:29Z</time>
      </trkpt>
      <trkpt lat="38.8548915926" lon="-6.3597043231">
        <ele>276.52</ele>
        <time>2020-07-12T10:57:30Z</time>
      </trkpt>
      <trkpt lat="38.8553668465" lon="-6.3596730586">
        <ele>275.56</ele>
        <time>2020-07-12T10:57:41Z</time>
      </trkpt>
      <trkpt lat="38.8557001110" lon="-6.3596348371">
        <ele>273.63</ele>
        <time>2020-07-12T10:57:51Z</time>
      </trkpt>
      <trkpt lat="38.8560160249" lon="-6.3596065063">
        <ele>272.67</ele>
        <time>2020-07-12T10:58:01Z</time>
      </trkpt>
      <trkpt lat="38.8562842458" lon="-6.3595939334">
        <ele>272.19</ele>
        <time>2020-07-12T10:58:10Z</time>
      </trkpt>
      <trkpt lat="38.8565267343" lon="-6.3595790975">
        <ele>271.23</ele>
        <time>2020-07-12T10:58:19Z</time>
      </trkpt>
      <trkpt lat="38.8567756768" lon="-6.3595614117">
        <ele>271.23</ele>
        <time>2020-07-12T10:58:28Z</time>
      </trkpt>
      <trkpt lat="38.8570393715" lon="-6.3595445640">
        <ele>271.23</ele>
        <time>2020-07-12T10:58:38Z</time>
      </trkpt>
      <trkpt lat="38.8572281320" lon="-6.3595257886">
        <ele>270.27</ele>
        <time>2020-07-12T10:58:46Z</time>
      </trkpt>
      <trkpt lat="38.8573609851" lon="-6.3595129643">
        <ele>270.27</ele>
        <time>2020-07-12T10:58:55Z</time>
      </trkpt>
      <trkpt lat="38.8573583867" lon="-6.3595116232">
        <ele>270.75</ele>
        <time>2020-07-12T10:59:10Z</time>
      </trkpt>
      <trkpt lat="38.8573655114" lon="-6.3595144730">
        <ele>270.75</ele>
        <time>2020-07-12T10:59:21Z</time>
      </trkpt>
      <trkpt lat="38.8573656790" lon="-6.3595189154">
        <ele>270.75</ele>
        <time>2020-07-12T10:59:37Z</time>
      </trkpt>
      <trkpt lat="38.8573956862" lon="-6.3595072646">
        <ele>270.27</ele>
        <time>2020-07-12T10:59:49Z</time>
      </trkpt>
      <trkpt lat="38.8575502485" lon="-6.3594940212">
        <ele>269.79</ele>
        <time>2020-07-12T10:59:57Z</time>
      </trkpt>
      <trkpt lat="38.8577963412" lon="-6.3594715577">
        <ele>269.31</ele>
        <time>2020-07-12T11:00:07Z</time>
      </trkpt>
      <trkpt lat="38.8580063917" lon="-6.3594398741">
        <ele>268.35</ele>
        <time>2020-07-12T11:00:15Z</time>
      </trkpt>
      <trkpt lat="38.8582814857" lon="-6.3593975455">
        <ele>267.38</ele>
        <time>2020-07-12T11:00:24Z</time>
      </trkpt>
      <trkpt lat="38.8586688973" lon="-6.3593330048">
        <ele>266.90</ele>
        <time>2020-07-12T11:00:35Z</time>
      </trkpt>
      <trkpt lat="38.8589201868" lon="-6.3592803665">
        <ele>266.42</ele>
        <time>2020-07-12T11:00:43Z</time>
      </trkpt>
      <trkpt lat="38.8591661956" lon="-6.3592129759">
        <ele>265.94</ele>
        <time>2020-07-12T11:00:51Z</time>
      </trkpt>
      <trkpt lat="38.8593363483" lon="-6.3591402210">
        <ele>265.94</ele>
        <time>2020-07-12T11:00:58Z</time>
      </trkpt>
      <trkpt lat="38.8595438842" lon="-6.3590708189">
        <ele>265.94</ele>
        <time>2020-07-12T11:01:06Z</time>
      </trkpt>
      <trkpt lat="38.8596864603" lon="-6.3590398896">
        <ele>265.46</ele>
        <time>2020-07-12T11:01:14Z</time>
      </trkpt>
      <trkpt lat="38.8598402683" lon="-6.3590223715">
        <ele>265.94</ele>
        <time>2020-07-12T11:01:22Z</time>
      </trkpt>
      <trkpt lat="38.8600243349" lon="-6.3590226229">
        <ele>265.46</ele>
        <time>2020-07-12T11:01:31Z</time>
      </trkpt>
      <trkpt lat="38.8602876104" lon="-6.3590378780">
        <ele>264.98</ele>
        <time>2020-07-12T11:01:42Z</time>
      </trkpt>
      <trkpt lat="38.8604525663" lon="-6.3590508699">
        <ele>264.98</ele>
        <time>2020-07-12T11:01:50Z</time>
      </trkpt>
      <trkpt lat="38.8606565818" lon="-6.3590438291">
        <ele>264.98</ele>
        <time>2020-07-12T11:01:59Z</time>
      </trkpt>
      <trkpt lat="38.8608568255" lon="-6.3590243831">
        <ele>264.98</ele>
        <time>2020-07-12T11:02:08Z</time>
      </trkpt>
      <trkpt lat="38.8610708993" lon="-6.3589538913">
        <ele>265.46</ele>
        <time>2020-07-12T11:02:17Z</time>
      </trkpt>
      <trkpt lat="38.8613560516" lon="-6.3589003310">
        <ele>265.46</ele>
        <time>2020-07-12T11:02:28Z</time>
      </trkpt>
      <trkpt lat="38.8616184052" lon="-6.3588603493">
        <ele>265.94</ele>
        <time>2020-07-12T11:02:38Z</time>
      </trkpt>
      <trkpt lat="38.8619505800" lon="-6.3588090520">
        <ele>266.42</ele>
        <time>2020-07-12T11:02:49Z</time>
      </trkpt>
      <trkpt lat="38.8622861914" lon="-6.3587663043">
        <ele>266.90</ele>
        <time>2020-07-12T11:03:01Z</time>
      </trkpt>
      <trkpt lat="38.8624772988" lon="-6.3587066252">
        <ele>266.90</ele>
        <time>2020-07-12T11:03:09Z</time>
      </trkpt>
      <trkpt lat="38.8625951484" lon="-6.3586839102">
        <ele>266.90</ele>
        <time>2020-07-12T11:03:16Z</time>
      </trkpt>
      <trkpt lat="38.8626098167" lon="-6.3586735167">
        <ele>266.90</ele>
        <time>2020-07-12T11:03:17Z</time>
      </trkpt>
      <trkpt lat="38.8626228925" lon="-6.3586585131">
        <ele>267.38</ele>
        <time>2020-07-12T11:03:18Z</time>
      </trkpt>
      <trkpt lat="38.8626371417" lon="-6.3586456049">
        <ele>267.38</ele>
        <time>2020-07-12T11:03:19Z</time>
      </trkpt>
      <trkpt lat="38.8626541570" lon="-6.3586379774">
        <ele>267.38</ele>
        <time>2020-07-12T11:03:20Z</time>
      </trkpt>
      <trkpt lat="38.8626751117" lon="-6.3586308528">
        <ele>267.38</ele>
        <time>2020-07-12T11:03:21Z</time>
      </trkpt>
      <trkpt lat="38.8626973238" lon="-6.3586251531">
        <ele>267.38</ele>
        <time>2020-07-12T11:03:22Z</time>
      </trkpt>
      <trkpt lat="38.8627188653" lon="-6.3586214650">
        <ele>267.38</ele>
        <time>2020-07-12T11:03:23Z</time>
      </trkpt>
      <trkpt lat="38.8627394848" lon="-6.3586142566">
        <ele>267.38</ele>
        <time>2020-07-12T11:03:24Z</time>
      </trkpt>
      <trkpt lat="38.8627587631" lon="-6.3586081378">
        <ele>267.38</ele>
        <time>2020-07-12T11:03:25Z</time>
      </trkpt>
      <trkpt lat="38.8627792150" lon="-6.3586012647">
        <ele>267.38</ele>
        <time>2020-07-12T11:03:26Z</time>
      </trkpt>
      <trkpt lat="38.8627982419" lon="-6.3585947268">
        <ele>267.38</ele>
        <time>2020-07-12T11:03:27Z</time>
      </trkpt>
      <trkpt lat="38.8628191967" lon="-6.3585873507">
        <ele>266.90</ele>
        <time>2020-07-12T11:03:28Z</time>
      </trkpt>
      <trkpt lat="38.8628404867" lon="-6.3585798908">
        <ele>266.90</ele>
        <time>2020-07-12T11:03:29Z</time>
      </trkpt>
      <trkpt lat="38.8631070312" lon="-6.3584992569">
        <ele>267.86</ele>
        <time>2020-07-12T11:03:41Z</time>
      </trkpt>
      <trkpt lat="38.8632761780" lon="-6.3584436849">
        <ele>267.86</ele>
        <time>2020-07-12T11:03:50Z</time>
      </trkpt>
      <trkpt lat="38.8633972965" lon="-6.3583943155">
        <ele>268.35</ele>
        <time>2020-07-12T11:03:58Z</time>
      </trkpt>
      <trkpt lat="38.8636181597" lon="-6.3583038747">
        <ele>268.35</ele>
        <time>2020-07-12T11:04:07Z</time>
      </trkpt>
      <trkpt lat="38.8641578704" lon="-6.3580940757">
        <ele>268.35</ele>
        <time>2020-07-12T11:04:25Z</time>
      </trkpt>
      <trkpt lat="38.8645270932" lon="-6.3579271920">
        <ele>268.83</ele>
        <time>2020-07-12T11:04:37Z</time>
      </trkpt>
      <trkpt lat="38.8647902850" lon="-6.3577998709">
        <ele>269.31</ele>
        <time>2020-07-12T11:04:47Z</time>
      </trkpt>
      <trkpt lat="38.8650000002" lon="-6.3577035628">
        <ele>268.83</ele>
        <time>2020-07-12T11:04:56Z</time>
      </trkpt>
      <trkpt lat="38.8652686402" lon="-6.3575515151">
        <ele>269.31</ele>
        <time>2020-07-12T11:05:07Z</time>
      </trkpt>
      <trkpt lat="38.8655339275" lon="-6.3573742379">
        <ele>269.31</ele>
        <time>2020-07-12T11:05:19Z</time>
      </trkpt>
      <trkpt lat="38.8657281362" lon="-6.3572542928">
        <ele>269.79</ele>
        <time>2020-07-12T11:05:27Z</time>
      </trkpt>
      <trkpt lat="38.8659749832" lon="-6.3571156561">
        <ele>270.75</ele>
        <time>2020-07-12T11:05:37Z</time>
      </trkpt>
      <trkpt lat="38.8662665896" lon="-6.3569678832">
        <ele>271.71</ele>
        <time>2020-07-12T11:05:49Z</time>
      </trkpt>
      <trkpt lat="38.8665447850" lon="-6.3568477705">
        <ele>272.19</ele>
        <time>2020-07-12T11:06:00Z</time>
      </trkpt>
      <trkpt lat="38.8668109942" lon="-6.3567365427">
        <ele>271.71</ele>
        <time>2020-07-12T11:06:10Z</time>
      </trkpt>
      <trkpt lat="38.8671631180" lon="-6.3565865904">
        <ele>270.75</ele>
        <time>2020-07-12T11:06:21Z</time>
      </trkpt>
      <trkpt lat="38.8675734121" lon="-6.3564375602">
        <ele>269.79</ele>
        <time>2020-07-12T11:06:33Z</time>
      </trkpt>
      <trkpt lat="38.8678704668" lon="-6.3564023562">
        <ele>269.79</ele>
        <time>2020-07-12T11:06:43Z</time>
      </trkpt>
      <trkpt lat="38.8681718800" lon="-6.3563921303">
        <ele>269.79</ele>
        <time>2020-07-12T11:06:53Z</time>
      </trkpt>
      <trkpt lat="38.8684580382" lon="-6.3563839160">
        <ele>270.75</ele>
        <time>2020-07-12T11:07:02Z</time>
      </trkpt>
      <trkpt lat="38.8687266782" lon="-6.3563560043">
        <ele>272.19</ele>
        <time>2020-07-12T11:07:11Z</time>
      </trkpt>
      <trkpt lat="38.8689741120" lon="-6.3563256618">
        <ele>274.11</ele>
        <time>2020-07-12T11:07:20Z</time>
      </trkpt>
      <trkpt lat="38.8692574203" lon="-6.3563101552">
        <ele>274.59</ele>
        <time>2020-07-12T11:07:30Z</time>
      </trkpt>
      <trkpt lat="38.8695401419" lon="-6.3563021086">
        <ele>274.59</ele>
        <time>2020-07-12T11:07:40Z</time>
      </trkpt>
      <trkpt lat="38.8697459176" lon="-6.3563164417">
        <ele>274.11</ele>
        <time>2020-07-12T11:07:48Z</time>
      </trkpt>
      <trkpt lat="38.8697839715" lon="-6.3563154358">
        <ele>273.63</ele>
        <time>2020-07-12T11:07:53Z</time>
      </trkpt>
      <trkpt lat="38.8697748352" lon="-6.3563258294">
        <ele>274.11</ele>
        <time>2020-07-12T11:08:05Z</time>
      </trkpt>
      <trkpt lat="38.8697676267" lon="-6.3563190401">
        <ele>274.11</ele>
        <time>2020-07-12T11:08:23Z</time>
      </trkpt>
      <trkpt lat="38.8697354402" lon="-6.3563185371">
        <ele>273.15</ele>
        <time>2020-07-12T11:08:38Z</time>
      </trkpt>
      <trkpt lat="38.8697337639" lon="-6.3563192915">
        <ele>274.11</ele>
        <time>2020-07-12T11:08:46Z</time>
      </trkpt>
      <trkpt lat="38.8699012343" lon="-6.3563317806">
        <ele>274.11</ele>
        <time>2020-07-12T11:08:53Z</time>
      </trkpt>
      <trkpt lat="38.8701552060" lon="-6.3563334569">
        <ele>273.63</ele>
        <time>2020-07-12T11:09:01Z</time>
      </trkpt>
      <trkpt lat="38.8702574652" lon="-6.3563327026">
        <ele>272.67</ele>
        <time>2020-07-12T11:09:05Z</time>
      </trkpt>
      <trkpt lat="38.8702412881" lon="-6.3563165255">
        <ele>273.15</ele>
        <time>2020-07-12T11:09:10Z</time>
      </trkpt>
      <trkpt lat="38.8702305593" lon="-6.3563161064">
        <ele>273.15</ele>
        <time>2020-07-12T11:09:11Z</time>
      </trkpt>
      <trkpt lat="38.8700561319" lon="-6.3563350495">
        <ele>274.59</ele>
        <time>2020-07-12T11:09:19Z</time>
      </trkpt>
      <trkpt lat="38.8697836362" lon="-6.3563282602">
        <ele>274.59</ele>
        <time>2020-07-12T11:09:29Z</time>
      </trkpt>
      <trkpt lat="38.8698090333" lon="-6.3563305233">
        <ele>274.59</ele>
        <time>2020-07-12T11:09:38Z</time>
      </trkpt>
      <trkpt lat="38.8697899226" lon="-6.3563254103">
        <ele>274.11</ele>
        <time>2020-07-12T11:09:59Z</time>
      </trkpt>
      <trkpt lat="38.8698077761" lon="-6.3563156873">
        <ele>274.11</ele>
        <time>2020-07-12T11:10:09Z</time>
      </trkpt>
      <trkpt lat="38.8698195945" lon="-6.3563089818">
        <ele>273.63</ele>
        <time>2020-07-12T11:10:15Z</time>
      </trkpt>
      <trkpt lat="38.8698360231" lon="-6.3563110773">
        <ele>273.63</ele>
        <time>2020-07-12T11:10:16Z</time>
      </trkpt>
      <trkpt lat="38.8698502723" lon="-6.3563113287">
        <ele>273.63</ele>
        <time>2020-07-12T11:10:17Z</time>
      </trkpt>
      <trkpt lat="38.8700661901" lon="-6.3563174475">
        <ele>273.15</ele>
        <time>2020-07-12T11:10:24Z</time>
      </trkpt>
      <trkpt lat="38.8702857960" lon="-6.3563183695">
        <ele>273.15</ele>
        <time>2020-07-12T11:10:34Z</time>
      </trkpt>
      <trkpt lat="38.8702858798" lon="-6.3563210517">
        <ele>273.15</ele>
        <time>2020-07-12T11:10:52Z</time>
      </trkpt>
      <trkpt lat="38.8702925015" lon="-6.3563187886">
        <ele>273.63</ele>
        <time>2020-07-12T11:11:02Z</time>
      </trkpt>
      <trkpt lat="38.8703053258" lon="-6.3563150167">
        <ele>273.15</ele>
        <time>2020-07-12T11:11:03Z</time>
      </trkpt>
      <trkpt lat="38.8706943300" lon="-6.3563264161">
        <ele>272.19</ele>
        <time>2020-07-12T11:11:20Z</time>
      </trkpt>
      <trkpt lat="38.8709220663" lon="-6.3563271705">
        <ele>271.71</ele>
        <time>2020-07-12T11:11:29Z</time>
      </trkpt>
      <trkpt lat="38.8711193763" lon="-6.3563239016">
        <ele>271.71</ele>
        <time>2020-07-12T11:11:36Z</time>
      </trkpt>
      <trkpt lat="38.8713264931" lon="-6.3563404977">
        <ele>270.75</ele>
        <time>2020-07-12T11:11:42Z</time>
      </trkpt>
      <trkpt lat="38.8716283254" lon="-6.3563406654">
        <ele>271.23</ele>
        <time>2020-07-12T11:11:52Z</time>
      </trkpt>
      <trkpt lat="38.8718965463" lon="-6.3563281763">
        <ele>271.71</ele>
        <time>2020-07-12T11:12:01Z</time>
      </trkpt>
      <trkpt lat="38.8722466584" lon="-6.3563136756">
        <ele>271.71</ele>
        <time>2020-07-12T11:12:12Z</time>
      </trkpt>
      <trkpt lat="38.8725631591" lon="-6.3562922180">
        <ele>271.23</ele>
        <time>2020-07-12T11:12:23Z</time>
      </trkpt>
      <trkpt lat="38.8733564224" lon="-6.3562989235">
        <ele>271.23</ele>
        <time>2020-07-12T11:12:49Z</time>
      </trkpt>
      <trkpt lat="38.8737284951" lon="-6.3563097361">
        <ele>271.71</ele>
        <time>2020-07-12T11:13:01Z</time>
      </trkpt>
      <trkpt lat="38.8740255497" lon="-6.3563396595">
        <ele>271.71</ele>
        <time>2020-07-12T11:13:10Z</time>
      </trkpt>
      <trkpt lat="38.8741786033" lon="-6.3563109096">
        <ele>271.71</ele>
        <time>2020-07-12T11:13:16Z</time>
      </trkpt>
      <trkpt lat="38.8742043357" lon="-6.3562976662">
        <ele>271.71</ele>
        <time>2020-07-12T11:13:17Z</time>
      </trkpt>
      <trkpt lat="38.8744341675" lon="-6.3561659027">
        <ele>272.19</ele>
        <time>2020-07-12T11:13:27Z</time>
      </trkpt>
      <trkpt lat="38.8745976146" lon="-6.3560874481">
        <ele>271.71</ele>
        <time>2020-07-12T11:13:34Z</time>
      </trkpt>
      <trkpt lat="38.8747953437" lon="-6.3560598716">
        <ele>271.71</ele>
        <time>2020-07-12T11:13:41Z</time>
      </trkpt>
      <trkpt lat="38.8750212360" lon="-6.3560272660">
        <ele>271.23</ele>
        <time>2020-07-12T11:13:49Z</time>
      </trkpt>
      <trkpt lat="38.8753881119" lon="-6.3559309579">
        <ele>270.75</ele>
        <time>2020-07-12T11:14:00Z</time>
      </trkpt>
      <trkpt lat="38.8757480308" lon="-6.3557907287">
        <ele>269.79</ele>
        <time>2020-07-12T11:14:10Z</time>
      </trkpt>
      <trkpt lat="38.8760856539" lon="-6.3556839433">
        <ele>269.31</ele>
        <time>2020-07-12T11:14:19Z</time>
      </trkpt>
      <trkpt lat="38.8765328284" lon="-6.3555701170">
        <ele>267.86</ele>
        <time>2020-07-12T11:14:29Z</time>
      </trkpt>
      <trkpt lat="38.8767722156" lon="-6.3554649241">
        <ele>267.38</ele>
        <time>2020-07-12T11:14:36Z</time>
      </trkpt>
      <trkpt lat="38.8770462200" lon="-6.3553228509">
        <ele>267.38</ele>
        <time>2020-07-12T11:14:46Z</time>
      </trkpt>
      <trkpt lat="38.8773646485" lon="-6.3551628403">
        <ele>268.35</ele>
        <time>2020-07-12T11:14:58Z</time>
      </trkpt>
      <trkpt lat="38.8777047861" lon="-6.3550045062">
        <ele>268.35</ele>
        <time>2020-07-12T11:15:10Z</time>
      </trkpt>
      <trkpt lat="38.8779466040" lon="-6.3548836391">
        <ele>267.86</ele>
        <time>2020-07-12T11:15:19Z</time>
      </trkpt>
      <trkpt lat="38.8781902660" lon="-6.3547659572">
        <ele>267.86</ele>
        <time>2020-07-12T11:15:28Z</time>
      </trkpt>
      <trkpt lat="38.8783682138" lon="-6.3547077030">
        <ele>268.35</ele>
        <time>2020-07-12T11:15:36Z</time>
      </trkpt>
      <trkpt lat="38.8785784319" lon="-6.3546183519">
        <ele>268.83</ele>
        <time>2020-07-12T11:15:46Z</time>
      </trkpt>
      <trkpt lat="38.8787423819" lon="-6.3545385562">
        <ele>269.31</ele>
        <time>2020-07-12T11:15:54Z</time>
      </trkpt>
      <trkpt lat="38.8789624907" lon="-6.3544428349">
        <ele>268.83</ele>
        <time>2020-07-12T11:16:03Z</time>
      </trkpt>
      <trkpt lat="38.8791956753" lon="-6.3543559145">
        <ele>268.35</ele>
        <time>2020-07-12T11:16:12Z</time>
      </trkpt>
      <trkpt lat="38.8793670852" lon="-6.3542726822">
        <ele>268.35</ele>
        <time>2020-07-12T11:16:20Z</time>
      </trkpt>
      <trkpt lat="38.8796399999" lon="-6.3541498873">
        <ele>268.35</ele>
        <time>2020-07-12T11:16:32Z</time>
      </trkpt>
      <trkpt lat="38.8798256591" lon="-6.3540907949">
        <ele>268.83</ele>
        <time>2020-07-12T11:16:40Z</time>
      </trkpt>
      <trkpt lat="38.8800039422" lon="-6.3540407550">
        <ele>268.83</ele>
        <time>2020-07-12T11:16:47Z</time>
      </trkpt>
      <trkpt lat="38.8802534714" lon="-6.3539313711">
        <ele>267.86</ele>
        <time>2020-07-12T11:16:57Z</time>
      </trkpt>
      <trkpt lat="38.8804735802" lon="-6.3538922276">
        <ele>267.38</ele>
        <time>2020-07-12T11:17:06Z</time>
      </trkpt>
      <trkpt lat="38.8807453215" lon="-6.3539119251">
        <ele>265.94</ele>
        <time>2020-07-12T11:17:16Z</time>
      </trkpt>
      <trkpt lat="38.8808956929" lon="-6.3539294433">
        <ele>264.98</ele>
        <time>2020-07-12T11:17:23Z</time>
      </trkpt>
      <trkpt lat="38.8809438050" lon="-6.3539260067">
        <ele>264.98</ele>
        <time>2020-07-12T11:17:30Z</time>
      </trkpt>
      <trkpt lat="38.8811173942" lon="-6.3539546728">
        <ele>263.06</ele>
        <time>2020-07-12T11:17:38Z</time>
      </trkpt>
      <trkpt lat="38.8812753092" lon="-6.3539832551">
        <ele>262.10</ele>
        <time>2020-07-12T11:17:45Z</time>
      </trkpt>
      <trkpt lat="38.8814339787" lon="-6.3540198840">
        <ele>261.62</ele>
        <time>2020-07-12T11:17:51Z</time>
      </trkpt>
      <trkpt lat="38.8816175424" lon="-6.3540943991">
        <ele>260.17</ele>
        <time>2020-07-12T11:17:58Z</time>
      </trkpt>
      <trkpt lat="38.8818214741" lon="-6.3541402481">
        <ele>259.21</ele>
        <time>2020-07-12T11:18:05Z</time>
      </trkpt>
      <trkpt lat="38.8820784632" lon="-6.3541694172">
        <ele>257.29</ele>
        <time>2020-07-12T11:18:14Z</time>
      </trkpt>
      <trkpt lat="38.8822990749" lon="-6.3542023581">
        <ele>255.37</ele>
        <time>2020-07-12T11:18:23Z</time>
      </trkpt>
      <trkpt lat="38.8824931160" lon="-6.3542342931">
        <ele>253.93</ele>
        <time>2020-07-12T11:18:31Z</time>
      </trkpt>
      <trkpt lat="38.8826646097" lon="-6.3542523142">
        <ele>252.00</ele>
        <time>2020-07-12T11:18:38Z</time>
      </trkpt>
      <trkpt lat="38.8828928489" lon="-6.3542864285">
        <ele>250.08</ele>
        <time>2020-07-12T11:18:47Z</time>
      </trkpt>
      <trkpt lat="38.8830662705" lon="-6.3543297630">
        <ele>248.64</ele>
        <time>2020-07-12T11:18:54Z</time>
      </trkpt>
      <trkpt lat="38.8832171448" lon="-6.3543768693">
        <ele>247.20</ele>
        <time>2020-07-12T11:19:01Z</time>
      </trkpt>
      <trkpt lat="38.8833536860" lon="-6.3544290885">
        <ele>247.20</ele>
        <time>2020-07-12T11:19:07Z</time>
      </trkpt>
      <trkpt lat="38.8835074101" lon="-6.3544942159">
        <ele>246.72</ele>
        <time>2020-07-12T11:19:14Z</time>
      </trkpt>
      <trkpt lat="38.8837236632" lon="-6.3545646239">
        <ele>246.23</ele>
        <time>2020-07-12T11:19:23Z</time>
      </trkpt>
      <trkpt lat="38.8839258347" lon="-6.3546512090">
        <ele>245.75</ele>
        <time>2020-07-12T11:19:31Z</time>
      </trkpt>
      <trkpt lat="38.8842708338" lon="-6.3547582459">
        <ele>245.27</ele>
        <time>2020-07-12T11:19:42Z</time>
      </trkpt>
      <trkpt lat="38.8845188543" lon="-6.3547554798">
        <ele>244.79</ele>
        <time>2020-07-12T11:19:51Z</time>
      </trkpt>
      <trkpt lat="38.8847125601" lon="-6.3547344413">
        <ele>244.31</ele>
        <time>2020-07-12T11:19:59Z</time>
      </trkpt>
      <trkpt lat="38.8847056869" lon="-6.3547382969">
        <ele>243.35</ele>
        <time>2020-07-12T11:20:13Z</time>
      </trkpt>
      <trkpt lat="38.8847053517" lon="-6.3547330163">
        <ele>243.35</ele>
        <time>2020-07-12T11:20:26Z</time>
      </trkpt>
      <trkpt lat="38.8847133983" lon="-6.3547274005">
        <ele>242.87</ele>
        <time>2020-07-12T11:20:42Z</time>
      </trkpt>
      <trkpt lat="38.8847334310" lon="-6.3547293283">
        <ele>242.39</ele>
        <time>2020-07-12T11:20:55Z</time>
      </trkpt>
      <trkpt lat="38.8847956248" lon="-6.3547284901">
        <ele>242.87</ele>
        <time>2020-07-12T11:21:03Z</time>
      </trkpt>
      <trkpt lat="38.8848100416" lon="-6.3547327649">
        <ele>243.83</ele>
        <time>2020-07-12T11:21:06Z</time>
      </trkpt>
      <trkpt lat="38.8848235365" lon="-6.3547355309">
        <ele>243.83</ele>
        <time>2020-07-12T11:21:07Z</time>
      </trkpt>
      <trkpt lat="38.8848452456" lon="-6.3547303341">
        <ele>243.83</ele>
        <time>2020-07-12T11:21:08Z</time>
      </trkpt>
      <trkpt lat="38.8849902526" lon="-6.3546922803">
        <ele>244.31</ele>
        <time>2020-07-12T11:21:14Z</time>
      </trkpt>
      <trkpt lat="38.8852569647" lon="-6.3545616064">
        <ele>243.35</ele>
        <time>2020-07-12T11:21:21Z</time>
      </trkpt>
      <trkpt lat="38.8855818473" lon="-6.3544196170">
        <ele>241.91</ele>
        <time>2020-07-12T11:21:29Z</time>
      </trkpt>
      <trkpt lat="38.8858731184" lon="-6.3543681521">
        <ele>241.91</ele>
        <time>2020-07-12T11:21:36Z</time>
      </trkpt>
      <trkpt lat="38.8860369846" lon="-6.3543907832">
        <ele>241.43</ele>
        <time>2020-07-12T11:21:42Z</time>
      </trkpt>
      <trkpt lat="38.8861756213" lon="-6.3544195332">
        <ele>240.95</ele>
        <time>2020-07-12T11:21:49Z</time>
      </trkpt>
      <trkpt lat="38.8861789741" lon="-6.3544360455">
        <ele>239.99</ele>
        <time>2020-07-12T11:21:54Z</time>
      </trkpt>
      <trkpt lat="38.8861745317" lon="-6.3544419967">
        <ele>239.51</ele>
        <time>2020-07-12T11:22:06Z</time>
      </trkpt>
      <trkpt lat="38.8861909602" lon="-6.3544576708">
        <ele>239.51</ele>
        <time>2020-07-12T11:22:10Z</time>
      </trkpt>
      <trkpt lat="38.8862261642" lon="-6.3546030968">
        <ele>238.54</ele>
        <time>2020-07-12T11:22:17Z</time>
      </trkpt>
      <trkpt lat="38.8863083068" lon="-6.3548105489">
        <ele>239.51</ele>
        <time>2020-07-12T11:22:24Z</time>
      </trkpt>
      <trkpt lat="38.8863850012" lon="-6.3548913505">
        <ele>240.47</ele>
        <time>2020-07-12T11:22:30Z</time>
      </trkpt>
      <trkpt lat="38.8864342030" lon="-6.3549282309">
        <ele>240.95</ele>
        <time>2020-07-12T11:22:36Z</time>
      </trkpt>
      <trkpt lat="38.8864471950" lon="-6.3549231179">
        <ele>240.47</ele>
        <time>2020-07-12T11:22:43Z</time>
      </trkpt>
      <trkpt lat="38.8864591811" lon="-6.3549137302">
        <ele>240.95</ele>
        <time>2020-07-12T11:22:50Z</time>
      </trkpt>
      <trkpt lat="38.8864521403" lon="-6.3549040072">
        <ele>240.47</ele>
        <time>2020-07-12T11:22:51Z</time>
      </trkpt>
      <trkpt lat="38.8864426687" lon="-6.3548951223">
        <ele>240.47</ele>
        <time>2020-07-12T11:22:52Z</time>
      </trkpt>
      <trkpt lat="38.8864340354" lon="-6.3548859023">
        <ele>240.47</ele>
        <time>2020-07-12T11:22:53Z</time>
      </trkpt>
      <trkpt lat="38.8864242285" lon="-6.3548750896">
        <ele>240.47</ele>
        <time>2020-07-12T11:22:54Z</time>
      </trkpt>
      <trkpt lat="38.8864169363" lon="-6.3548685517">
        <ele>240.47</ele>
        <time>2020-07-12T11:22:55Z</time>
      </trkpt>
      <trkpt lat="38.8863020204" lon="-6.3547460083">
        <ele>240.47</ele>
        <time>2020-07-12T11:23:07Z</time>
      </trkpt>
      <trkpt lat="38.8862240687" lon="-6.3546351157">
        <ele>240.47</ele>
        <time>2020-07-12T11:23:16Z</time>
      </trkpt>
      <trkpt lat="38.8862176985" lon="-6.3545107283">
        <ele>239.99</ele>
        <time>2020-07-12T11:23:24Z</time>
      </trkpt>
      <trkpt lat="38.8862102386" lon="-6.3543956447">
        <ele>240.47</ele>
        <time>2020-07-12T11:23:33Z</time>
      </trkpt>
      <trkpt lat="38.8862183690" lon="-6.3542672340">
        <ele>239.99</ele>
        <time>2020-07-12T11:23:42Z</time>
      </trkpt>
      <trkpt lat="38.8862207159" lon="-6.3542257436">
        <ele>239.99</ele>
        <time>2020-07-12T11:23:49Z</time>
      </trkpt>
      <trkpt lat="38.8862189557" lon="-6.3542254921">
        <ele>239.51</ele>
        <time>2020-07-12T11:23:51Z</time>
      </trkpt>
      <trkpt lat="38.8862850890" lon="-6.3542047050">
        <ele>239.99</ele>
        <time>2020-07-12T11:23:55Z</time>
      </trkpt>
      <trkpt lat="38.8863120787" lon="-6.3541939761">
        <ele>239.99</ele>
        <time>2020-07-12T11:23:56Z</time>
      </trkpt>
      <trkpt lat="38.8863337878" lon="-6.3541854266">
        <ele>239.99</ele>
        <time>2020-07-12T11:23:57Z</time>
      </trkpt>
      <trkpt lat="38.8863659743" lon="-6.3541731890">
        <ele>239.99</ele>
        <time>2020-07-12T11:23:58Z</time>
      </trkpt>
      <trkpt lat="38.8863995019" lon="-6.3541607000">
        <ele>239.99</ele>
        <time>2020-07-12T11:23:59Z</time>
      </trkpt>
      <trkpt lat="38.8864274137" lon="-6.3541506417">
        <ele>239.99</ele>
        <time>2020-07-12T11:24:00Z</time>
      </trkpt>
      <trkpt lat="38.8867126498" lon="-6.3540566806">
        <ele>240.47</ele>
        <time>2020-07-12T11:24:09Z</time>
      </trkpt>
      <trkpt lat="38.8870604150" lon="-6.3540058862">
        <ele>239.99</ele>
        <time>2020-07-12T11:24:18Z</time>
      </trkpt>
      <trkpt lat="38.8873604871" lon="-6.3539109193">
        <ele>239.02</ele>
        <time>2020-07-12T11:24:26Z</time>
      </trkpt>
      <trkpt lat="38.8877841923" lon="-6.3536993600">
        <ele>238.06</ele>
        <time>2020-07-12T11:24:36Z</time>
      </trkpt>
      <trkpt lat="38.8880537543" lon="-6.3535477314">
        <ele>237.58</ele>
        <time>2020-07-12T11:24:44Z</time>
      </trkpt>
      <trkpt lat="38.8882678282" lon="-6.3534383476">
        <ele>237.10</ele>
        <time>2020-07-12T11:24:52Z</time>
      </trkpt>
      <trkpt lat="38.8885387313" lon="-6.3533831947">
        <ele>237.10</ele>
        <time>2020-07-12T11:25:02Z</time>
      </trkpt>
      <trkpt lat="38.8888113108" lon="-6.3532671891">
        <ele>236.62</ele>
        <time>2020-07-12T11:25:11Z</time>
      </trkpt>
      <trkpt lat="38.8890925236" lon="-6.3530845474">
        <ele>236.14</ele>
        <time>2020-07-12T11:25:20Z</time>
      </trkpt>
      <trkpt lat="38.8893244509" lon="-6.3529211003">
        <ele>235.66</ele>
        <time>2020-07-12T11:25:29Z</time>
      </trkpt>
      <trkpt lat="38.8894388638" lon="-6.3528100401">
        <ele>235.66</ele>
        <time>2020-07-12T11:25:35Z</time>
      </trkpt>
      <trkpt lat="38.8896234334" lon="-6.3526564837">
        <ele>235.18</ele>
        <time>2020-07-12T11:25:43Z</time>
      </trkpt>
      <trkpt lat="38.8898882177" lon="-6.3524904381">
        <ele>233.74</ele>
        <time>2020-07-12T11:25:54Z</time>
      </trkpt>
      <trkpt lat="38.8902023714" lon="-6.3522611931">
        <ele>232.30</ele>
        <time>2020-07-12T11:26:06Z</time>
      </trkpt>
      <trkpt lat="38.8904048782" lon="-6.3520826586">
        <ele>231.33</ele>
        <time>2020-07-12T11:26:14Z</time>
      </trkpt>
      <trkpt lat="38.8906323630" lon="-6.3520068862">
        <ele>231.33</ele>
        <time>2020-07-12T11:26:23Z</time>
      </trkpt>
      <trkpt lat="38.8907802198" lon="-6.3520286791">
        <ele>231.33</ele>
        <time>2020-07-12T11:26:32Z</time>
      </trkpt>
      <trkpt lat="38.8909805473" lon="-6.3520002645">
        <ele>232.30</ele>
        <time>2020-07-12T11:26:38Z</time>
      </trkpt>
      <trkpt lat="38.8911741693" lon="-6.3518048823">
        <ele>231.33</ele>
        <time>2020-07-12T11:26:46Z</time>
      </trkpt>
      <trkpt lat="38.8913571462" lon="-6.3514917344">
        <ele>231.33</ele>
        <time>2020-07-12T11:26:55Z</time>
      </trkpt>
      <trkpt lat="38.8915713038" lon="-6.3511420414">
        <ele>231.33</ele>
        <time>2020-07-12T11:27:04Z</time>
      </trkpt>
      <trkpt lat="38.8917288836" lon="-6.3507991377">
        <ele>230.85</ele>
        <time>2020-07-12T11:27:12Z</time>
      </trkpt>
      <trkpt lat="38.8920295425" lon="-6.3503367081">
        <ele>228.93</ele>
        <time>2020-07-12T11:27:24Z</time>
      </trkpt>
      <trkpt lat="38.8924244978" lon="-6.3498145156">
        <ele>227.49</ele>
        <time>2020-07-12T11:27:37Z</time>
      </trkpt>
      <trkpt lat="38.8927823212" lon="-6.3494085800">
        <ele>226.53</ele>
        <time>2020-07-12T11:27:48Z</time>
      </trkpt>
      <trkpt lat="38.8930882607" lon="-6.3490559533">
        <ele>225.57</ele>
        <time>2020-07-12T11:27:57Z</time>
      </trkpt>
      <trkpt lat="38.8933135662" lon="-6.3488287199">
        <ele>224.61</ele>
        <time>2020-07-12T11:28:03Z</time>
      </trkpt>
      <trkpt lat="38.8936958648" lon="-6.3485590741">
        <ele>225.09</ele>
        <time>2020-07-12T11:28:13Z</time>
      </trkpt>
      <trkpt lat="38.8940726314" lon="-6.3483718224">
        <ele>225.09</ele>
        <time>2020-07-12T11:28:22Z</time>
      </trkpt>
      <trkpt lat="38.8945555966" lon="-6.3482124824">
        <ele>226.05</ele>
        <time>2020-07-12T11:28:34Z</time>
      </trkpt>
      <trkpt lat="38.8948929682" lon="-6.3481413200">
        <ele>225.57</ele>
        <time>2020-07-12T11:28:42Z</time>
      </trkpt>
      <trkpt lat="38.8950578403" lon="-6.3481119834">
        <ele>225.57</ele>
        <time>2020-07-12T11:28:46Z</time>
      </trkpt>
      <trkpt lat="38.8951155078" lon="-6.3481162582">
        <ele>225.09</ele>
        <time>2020-07-12T11:28:47Z</time>
      </trkpt>
      <trkpt lat="38.8954644464" lon="-6.3481550664">
        <ele>223.64</ele>
        <time>2020-07-12T11:28:56Z</time>
      </trkpt>
      <trkpt lat="38.8958451524" lon="-6.3481819723">
        <ele>222.20</ele>
        <time>2020-07-12T11:29:05Z</time>
      </trkpt>
      <trkpt lat="38.8963164669" lon="-6.3481732551">
        <ele>221.24</ele>
        <time>2020-07-12T11:29:16Z</time>
      </trkpt>
      <trkpt lat="38.8967831712" lon="-6.3480939623">
        <ele>220.76</ele>
        <time>2020-07-12T11:29:28Z</time>
      </trkpt>
      <trkpt lat="38.8971171062" lon="-6.3480439223">
        <ele>219.80</ele>
        <time>2020-07-12T11:29:37Z</time>
      </trkpt>
      <trkpt lat="38.8974838983" lon="-6.3480024319">
        <ele>218.36</ele>
        <time>2020-07-12T11:29:47Z</time>
      </trkpt>
      <trkpt lat="38.8978781831" lon="-6.3479650486">
        <ele>216.91</ele>
        <time>2020-07-12T11:29:56Z</time>
      </trkpt>
      <trkpt lat="38.8983788341" lon="-6.3479104824">
        <ele>215.47</ele>
        <time>2020-07-12T11:30:07Z</time>
      </trkpt>
      <trkpt lat="38.8986821752" lon="-6.3478859235">
        <ele>214.99</ele>
        <time>2020-07-12T11:30:15Z</time>
      </trkpt>
      <trkpt lat="38.8990189601" lon="-6.3478476182">
        <ele>214.51</ele>
        <time>2020-07-12T11:30:24Z</time>
      </trkpt>
      <trkpt lat="38.8994333614" lon="-6.3478161860">
        <ele>213.55</ele>
        <time>2020-07-12T11:30:35Z</time>
      </trkpt>
      <trkpt lat="38.8999155723" lon="-6.3477730192">
        <ele>213.55</ele>
        <time>2020-07-12T11:30:47Z</time>
      </trkpt>
      <trkpt lat="38.9002500102" lon="-6.3477049582">
        <ele>213.07</ele>
        <time>2020-07-12T11:30:56Z</time>
      </trkpt>
      <trkpt lat="38.9005237631" lon="-6.3476040401">
        <ele>213.55</ele>
        <time>2020-07-12T11:31:04Z</time>
      </trkpt>
      <trkpt lat="38.9009109233" lon="-6.3473724481">
        <ele>213.07</ele>
        <time>2020-07-12T11:31:16Z</time>
      </trkpt>
      <trkpt lat="38.9011633024" lon="-6.3471912313">
        <ele>212.59</ele>
        <time>2020-07-12T11:31:23Z</time>
      </trkpt>
      <trkpt lat="38.9015945513" lon="-6.3469297998">
        <ele>213.55</ele>
        <time>2020-07-12T11:31:37Z</time>
      </trkpt>
      <trkpt lat="38.9017869998" lon="-6.3469452225">
        <ele>213.07</ele>
        <time>2020-07-12T11:31:43Z</time>
      </trkpt>
      <trkpt lat="38.9021236170" lon="-6.3470451348">
        <ele>213.07</ele>
        <time>2020-07-12T11:31:52Z</time>
      </trkpt>
      <trkpt lat="38.9024528582" lon="-6.3471207395">
        <ele>212.59</ele>
        <time>2020-07-12T11:32:00Z</time>
      </trkpt>
      <trkpt lat="38.9030048065" lon="-6.3471334800">
        <ele>211.63</ele>
        <time>2020-07-12T11:32:13Z</time>
      </trkpt>
      <trkpt lat="38.9033086505" lon="-6.3471239246">
        <ele>210.67</ele>
        <time>2020-07-12T11:32:22Z</time>
      </trkpt>
      <trkpt lat="38.9036893565" lon="-6.3471005391">
        <ele>210.67</ele>
        <time>2020-07-12T11:32:32Z</time>
      </trkpt>
      <trkpt lat="38.9040798694" lon="-6.3470529299">
        <ele>210.67</ele>
        <time>2020-07-12T11:32:42Z</time>
      </trkpt>
      <trkpt lat="38.9044801053" lon="-6.3470011298">
        <ele>210.19</ele>
        <time>2020-07-12T11:32:54Z</time>
      </trkpt>
      <trkpt lat="38.9048026409" lon="-6.3470494933">
        <ele>210.19</ele>
        <time>2020-07-12T11:33:02Z</time>
      </trkpt>
      <trkpt lat="38.9051359054" lon="-6.3471764792">
        <ele>210.19</ele>
        <time>2020-07-12T11:33:11Z</time>
      </trkpt>
      <trkpt lat="38.9054724388" lon="-6.3473172951">
        <ele>210.67</ele>
        <time>2020-07-12T11:33:20Z</time>
      </trkpt>
      <trkpt lat="38.9058810566" lon="-6.3474792335">
        <ele>210.19</ele>
        <time>2020-07-12T11:33:30Z</time>
      </trkpt>
      <trkpt lat="38.9062846452" lon="-6.3476300240">
        <ele>211.15</ele>
        <time>2020-07-12T11:33:40Z</time>
      </trkpt>
      <trkpt lat="38.9066483360" lon="-6.3478000090">
        <ele>212.11</ele>
        <time>2020-07-12T11:33:50Z</time>
      </trkpt>
      <trkpt lat="38.9070164692" lon="-6.3479748555">
        <ele>211.63</ele>
        <time>2020-07-12T11:34:00Z</time>
      </trkpt>
      <trkpt lat="38.9072422776" lon="-6.3480072934">
        <ele>211.63</ele>
        <time>2020-07-12T11:34:07Z</time>
      </trkpt>
      <trkpt lat="38.9072842710" lon="-6.3479613606">
        <ele>211.63</ele>
        <time>2020-07-12T11:34:13Z</time>
      </trkpt>
      <trkpt lat="38.9072931558" lon="-6.3479510508">
        <ele>211.15</ele>
        <time>2020-07-12T11:34:33Z</time>
      </trkpt>
      <trkpt lat="38.9073436148" lon="-6.3479372207">
        <ele>211.15</ele>
        <time>2020-07-12T11:34:36Z</time>
      </trkpt>
      <trkpt lat="38.9074445330" lon="-6.3480042759">
        <ele>211.15</ele>
        <time>2020-07-12T11:34:41Z</time>
      </trkpt>
      <trkpt lat="38.9076006040" lon="-6.3482207805">
        <ele>211.15</ele>
        <time>2020-07-12T11:34:51Z</time>
      </trkpt>
      <trkpt lat="38.9076177031" lon="-6.3482140750">
        <ele>211.63</ele>
        <time>2020-07-12T11:34:55Z</time>
      </trkpt>
      <trkpt lat="38.9076286834" lon="-6.3482275698">
        <ele>211.63</ele>
        <time>2020-07-12T11:35:04Z</time>
      </trkpt>
      <trkpt lat="38.9076477941" lon="-6.3483269792">
        <ele>211.63</ele>
        <time>2020-07-12T11:35:09Z</time>
      </trkpt>
      <trkpt lat="38.9077454433" lon="-6.3484589104">
        <ele>211.15</ele>
        <time>2020-07-12T11:35:17Z</time>
      </trkpt>
      <trkpt lat="38.9078838285" lon="-6.3485236187">
        <ele>211.15</ele>
        <time>2020-07-12T11:35:24Z</time>
      </trkpt>
      <trkpt lat="38.9080360439" lon="-6.3486480899">
        <ele>211.15</ele>
        <time>2020-07-12T11:35:31Z</time>
      </trkpt>
      <trkpt lat="38.9083083719" lon="-6.3488375209">
        <ele>210.19</ele>
        <time>2020-07-12T11:35:42Z</time>
      </trkpt>
      <trkpt lat="38.9085501898" lon="-6.3490279578">
        <ele>211.63</ele>
        <time>2020-07-12T11:35:51Z</time>
      </trkpt>
      <trkpt lat="38.9087951928" lon="-6.3492454682">
        <ele>212.11</ele>
        <time>2020-07-12T11:36:00Z</time>
      </trkpt>
      <trkpt lat="38.9089598134" lon="-6.3493958395">
        <ele>211.63</ele>
        <time>2020-07-12T11:36:07Z</time>
      </trkpt>
      <trkpt lat="38.9090877213" lon="-6.3494145311">
        <ele>212.11</ele>
        <time>2020-07-12T11:36:13Z</time>
      </trkpt>
      <trkpt lat="38.9092343207" lon="-6.3493484817">
        <ele>212.59</ele>
        <time>2020-07-12T11:36:21Z</time>
      </trkpt>
      <trkpt lat="38.9093681797" lon="-6.3493826799">
        <ele>212.11</ele>
        <time>2020-07-12T11:36:28Z</time>
      </trkpt>
      <trkpt lat="38.9095851872" lon="-6.3496315386">
        <ele>212.11</ele>
        <time>2020-07-12T11:36:38Z</time>
      </trkpt>
      <trkpt lat="38.9098581858" lon="-6.3498738594">
        <ele>212.59</ele>
        <time>2020-07-12T11:36:47Z</time>
      </trkpt>
      <trkpt lat="38.9100575913" lon="-6.3500544894">
        <ele>212.59</ele>
        <time>2020-07-12T11:36:54Z</time>
      </trkpt>
      <trkpt lat="38.9102920331" lon="-6.3502725028">
        <ele>212.59</ele>
        <time>2020-07-12T11:37:02Z</time>
      </trkpt>
      <trkpt lat="38.9104994852" lon="-6.3504589163">
        <ele>213.55</ele>
        <time>2020-07-12T11:37:10Z</time>
      </trkpt>
      <trkpt lat="38.9107422251" lon="-6.3506472576">
        <ele>213.07</ele>
        <time>2020-07-12T11:37:18Z</time>
      </trkpt>
      <trkpt lat="38.9109200891" lon="-6.3508018199">
        <ele>213.55</ele>
        <time>2020-07-12T11:37:25Z</time>
      </trkpt>
      <trkpt lat="38.9111513458" lon="-6.3509805221">
        <ele>213.07</ele>
        <time>2020-07-12T11:37:32Z</time>
      </trkpt>
      <trkpt lat="38.9113270305" lon="-6.3511427958">
        <ele>213.07</ele>
        <time>2020-07-12T11:37:39Z</time>
      </trkpt>
      <trkpt lat="38.9115121868" lon="-6.3513003755">
        <ele>213.07</ele>
        <time>2020-07-12T11:37:46Z</time>
      </trkpt>
      <trkpt lat="38.9117213991" lon="-6.3515107613">
        <ele>214.03</ele>
        <time>2020-07-12T11:37:54Z</time>
      </trkpt>
      <trkpt lat="38.9119225647" lon="-6.3517918903">
        <ele>210.67</ele>
        <time>2020-07-12T11:38:01Z</time>
      </trkpt>
      <trkpt lat="38.9120233990" lon="-6.3520314451">
        <ele>211.15</ele>
        <time>2020-07-12T11:38:08Z</time>
      </trkpt>
      <trkpt lat="38.9120156039" lon="-6.3520603627">
        <ele>211.63</ele>
        <time>2020-07-12T11:38:09Z</time>
      </trkpt>
      <trkpt lat="38.9118873607" lon="-6.3523207884">
        <ele>212.59</ele>
        <time>2020-07-12T11:38:18Z</time>
      </trkpt>
      <trkpt lat="38.9118095767" lon="-6.3524853252">
        <ele>212.11</ele>
        <time>2020-07-12T11:38:25Z</time>
      </trkpt>
      <trkpt lat="38.9118131809" lon="-6.3525137398">
        <ele>212.11</ele>
        <time>2020-07-12T11:38:26Z</time>
      </trkpt>
      <trkpt lat="38.9118196350" lon="-6.3527838886">
        <ele>211.15</ele>
        <time>2020-07-12T11:38:35Z</time>
      </trkpt>
      <trkpt lat="38.9118125942" lon="-6.3527986407">
        <ele>210.67</ele>
        <time>2020-07-12T11:38:40Z</time>
      </trkpt>
      <trkpt lat="38.9117956627" lon="-6.3527957909">
        <ele>210.19</ele>
        <time>2020-07-12T11:38:45Z</time>
      </trkpt>
      <trkpt lat="38.9117833413" lon="-6.3526338525">
        <ele>210.67</ele>
        <time>2020-07-12T11:38:52Z</time>
      </trkpt>
      <trkpt lat="38.9117904659" lon="-6.3524651248">
        <ele>211.15</ele>
        <time>2020-07-12T11:38:59Z</time>
      </trkpt>
      <trkpt lat="38.9118350577" lon="-6.3524018414">
        <ele>211.63</ele>
        <time>2020-07-12T11:39:05Z</time>
      </trkpt>
      <trkpt lat="38.9119359758" lon="-6.3522752747">
        <ele>211.63</ele>
        <time>2020-07-12T11:39:13Z</time>
      </trkpt>
      <trkpt lat="38.9120658953" lon="-6.3522974867">
        <ele>211.63</ele>
        <time>2020-07-12T11:39:20Z</time>
      </trkpt>
      <trkpt lat="38.9121694956" lon="-6.3524132408">
        <ele>212.11</ele>
        <time>2020-07-12T11:39:27Z</time>
      </trkpt>
      <trkpt lat="38.9122154284" lon="-6.3524504565">
        <ele>212.59</ele>
        <time>2020-07-12T11:39:33Z</time>
      </trkpt>
      <trkpt lat="38.9122260734" lon="-6.3524521329">
        <ele>212.11</ele>
        <time>2020-07-12T11:39:46Z</time>
      </trkpt>
      <trkpt lat="38.9122257382" lon="-6.3524424937">
        <ele>211.15</ele>
        <time>2020-07-12T11:39:54Z</time>
      </trkpt>
      <trkpt lat="38.9122528955" lon="-6.3524311781">
        <ele>211.15</ele>
        <time>2020-07-12T11:39:58Z</time>
      </trkpt>
      <trkpt lat="38.9122650493" lon="-6.3524141628">
        <ele>211.15</ele>
        <time>2020-07-12T11:39:59Z</time>
      </trkpt>
      <trkpt lat="38.9122746047" lon="-6.3523968961">
        <ele>211.15</ele>
        <time>2020-07-12T11:40:00Z</time>
      </trkpt>
      <trkpt lat="38.9123922028" lon="-6.3521740213">
        <ele>212.11</ele>
        <time>2020-07-12T11:40:09Z</time>
      </trkpt>
      <trkpt lat="38.9125556499" lon="-6.3519275934">
        <ele>212.59</ele>
        <time>2020-07-12T11:40:19Z</time>
      </trkpt>
      <trkpt lat="38.9126455039" lon="-6.3517895434">
        <ele>212.11</ele>
        <time>2020-07-12T11:40:26Z</time>
      </trkpt>
      <trkpt lat="38.9127558097" lon="-6.3516126014">
        <ele>212.59</ele>
        <time>2020-07-12T11:40:35Z</time>
      </trkpt>
      <trkpt lat="38.9128501061" lon="-6.3514863700">
        <ele>212.59</ele>
        <time>2020-07-12T11:40:41Z</time>
      </trkpt>
      <trkpt lat="38.9128717314" lon="-6.3514422812">
        <ele>212.59</ele>
        <time>2020-07-12T11:40:43Z</time>
      </trkpt>
      <trkpt lat="38.9129798580" lon="-6.3512350805">
        <ele>212.59</ele>
        <time>2020-07-12T11:40:52Z</time>
      </trkpt>
      <trkpt lat="38.9131336659" lon="-6.3509837072">
        <ele>212.11</ele>
        <time>2020-07-12T11:41:02Z</time>
      </trkpt>
      <trkpt lat="38.9133366756" lon="-6.3506799471">
        <ele>212.59</ele>
        <time>2020-07-12T11:41:13Z</time>
      </trkpt>
      <trkpt lat="38.9135064930" lon="-6.3503976446">
        <ele>211.63</ele>
        <time>2020-07-12T11:41:24Z</time>
      </trkpt>
      <trkpt lat="38.9136865363" lon="-6.3500999194">
        <ele>211.63</ele>
        <time>2020-07-12T11:41:35Z</time>
      </trkpt>
      <trkpt lat="38.9138397574" lon="-6.3498570118">
        <ele>211.15</ele>
        <time>2020-07-12T11:41:43Z</time>
      </trkpt>
      <trkpt lat="38.9140177891" lon="-6.3495768886">
        <ele>211.15</ele>
        <time>2020-07-12T11:41:52Z</time>
      </trkpt>
      <trkpt lat="38.9141913783" lon="-6.3493047282">
        <ele>211.63</ele>
        <time>2020-07-12T11:42:01Z</time>
      </trkpt>
      <trkpt lat="38.9143309370" lon="-6.3490695320">
        <ele>212.11</ele>
        <time>2020-07-12T11:42:10Z</time>
      </trkpt>
      <trkpt lat="38.9143342897" lon="-6.3490626588">
        <ele>212.11</ele>
        <time>2020-07-12T11:42:14Z</time>
      </trkpt>
      <trkpt lat="38.9143332839" lon="-6.3490538578">
        <ele>212.59</ele>
        <time>2020-07-12T11:42:29Z</time>
      </trkpt>
      <trkpt lat="38.9143264946" lon="-6.3490497507">
        <ele>212.11</ele>
        <time>2020-07-12T11:42:45Z</time>
      </trkpt>
      <trkpt lat="38.9143294282" lon="-6.3490530197">
        <ele>212.11</ele>
        <time>2020-07-12T11:42:59Z</time>
      </trkpt>
      <trkpt lat="38.9143380616" lon="-6.3490472361">
        <ele>211.63</ele>
        <time>2020-07-12T11:43:13Z</time>
      </trkpt>
      <trkpt lat="38.9143298473" lon="-6.3490605634">
        <ele>212.59</ele>
        <time>2020-07-12T11:43:27Z</time>
      </trkpt>
      <trkpt lat="38.9143240638" lon="-6.3490630779">
        <ele>212.59</ele>
        <time>2020-07-12T11:43:39Z</time>
      </trkpt>
      <trkpt lat="38.9143300150" lon="-6.3490632456">
        <ele>212.11</ele>
        <time>2020-07-12T11:43:55Z</time>
      </trkpt>
      <trkpt lat="38.9143342059" lon="-6.3490627427">
        <ele>212.59</ele>
        <time>2020-07-12T11:44:08Z</time>
      </trkpt>
      <trkpt lat="38.9143284224" lon="-6.3490623236">
        <ele>212.11</ele>
        <time>2020-07-12T11:44:22Z</time>
      </trkpt>
      <trkpt lat="38.9143399894" lon="-6.3490493316">
        <ele>212.59</ele>
        <time>2020-07-12T11:44:28Z</time>
      </trkpt>
      <trkpt lat="38.9144491218" lon="-6.3488991279">
        <ele>213.07</ele>
        <time>2020-07-12T11:44:35Z</time>
      </trkpt>
      <trkpt lat="38.9146006666" lon="-6.3486585673">
        <ele>213.55</ele>
        <time>2020-07-12T11:44:45Z</time>
      </trkpt>
      <trkpt lat="38.9147528820" lon="-6.3484203536">
        <ele>214.51</ele>
        <time>2020-07-12T11:44:55Z</time>
      </trkpt>
      <trkpt lat="38.9149016608" lon="-6.3481887616">
        <ele>214.03</ele>
        <time>2020-07-12T11:45:03Z</time>
      </trkpt>
      <trkpt lat="38.9150516968" lon="-6.3479399867">
        <ele>213.07</ele>
        <time>2020-07-12T11:45:12Z</time>
      </trkpt>
      <trkpt lat="38.9151220210" lon="-6.3478228077">
        <ele>213.07</ele>
        <time>2020-07-12T11:45:21Z</time>
      </trkpt>
      <trkpt lat="38.9151278883" lon="-6.3478219695">
        <ele>213.55</ele>
        <time>2020-07-12T11:45:31Z</time>
      </trkpt>
      <trkpt lat="38.9151407126" lon="-6.3478231430">
        <ele>214.03</ele>
        <time>2020-07-12T11:45:43Z</time>
      </trkpt>
      <trkpt lat="38.9151538722" lon="-6.3478593528">
        <ele>214.51</ele>
        <time>2020-07-12T11:45:50Z</time>
      </trkpt>
      <trkpt lat="38.9151616674" lon="-6.3478786312">
        <ele>214.51</ele>
        <time>2020-07-12T11:45:51Z</time>
      </trkpt>
      <trkpt lat="38.9151666127" lon="-6.3478941377">
        <ele>214.99</ele>
        <time>2020-07-12T11:45:52Z</time>
      </trkpt>
      <trkpt lat="38.9151871484" lon="-6.3479893561">
        <ele>215.47</ele>
        <time>2020-07-12T11:45:57Z</time>
      </trkpt>
      <trkpt lat="38.9152024873" lon="-6.3480008394">
        <ele>214.51</ele>
        <time>2020-07-12T11:46:03Z</time>
      </trkpt>
      <trkpt lat="38.9151866455" lon="-6.3479990792">
        <ele>214.51</ele>
        <time>2020-07-12T11:46:17Z</time>
      </trkpt>
      <trkpt lat="38.9151924290" lon="-6.3480261527">
        <ele>214.03</ele>
        <time>2020-07-12T11:46:27Z</time>
      </trkpt>
      <trkpt lat="38.9152026549" lon="-6.3480238058">
        <ele>213.07</ele>
        <time>2020-07-12T11:46:39Z</time>
      </trkpt>
      <trkpt lat="38.9152122103" lon="-6.3480329420">
        <ele>213.07</ele>
        <time>2020-07-12T11:46:46Z</time>
      </trkpt>
      <trkpt lat="38.9152222686" lon="-6.3480446767">
        <ele>213.07</ele>
        <time>2020-07-12T11:46:47Z</time>
      </trkpt>
      <trkpt lat="38.9152347576" lon="-6.3480565790">
        <ele>213.07</ele>
        <time>2020-07-12T11:46:48Z</time>
      </trkpt>
      <trkpt lat="38.9152458217" lon="-6.3480621949">
        <ele>212.59</ele>
        <time>2020-07-12T11:46:49Z</time>
      </trkpt>
      <trkpt lat="38.9152613282" lon="-6.3480689842">
        <ele>212.59</ele>
        <time>2020-07-12T11:46:55Z</time>
      </trkpt>
      <trkpt lat="38.9152594842" lon="-6.3480725884">
        <ele>213.07</ele>
        <time>2020-07-12T11:47:01Z</time>
      </trkpt>
      <trkpt lat="38.9152707998" lon="-6.3480826467">
        <ele>213.07</ele>
        <time>2020-07-12T11:47:02Z</time>
      </trkpt>
      <trkpt lat="38.9153988753" lon="-6.3482284918">
        <ele>213.07</ele>
        <time>2020-07-12T11:47:10Z</time>
      </trkpt>
      <trkpt lat="38.9155433793" lon="-6.3483862393">
        <ele>212.59</ele>
        <time>2020-07-12T11:47:18Z</time>
      </trkpt>
      <trkpt lat="38.9155930839" lon="-6.3484527916">
        <ele>212.59</ele>
        <time>2020-07-12T11:47:22Z</time>
      </trkpt>
      <trkpt lat="38.9155749790" lon="-6.3485061843">
        <ele>213.07</ele>
        <time>2020-07-12T11:47:27Z</time>
      </trkpt>
      <trkpt lat="38.9155771583" lon="-6.3485256303">
        <ele>214.51</ele>
        <time>2020-07-12T11:47:36Z</time>
      </trkpt>
      <trkpt lat="38.9155707043" lon="-6.3485338446">
        <ele>215.95</ele>
        <time>2020-07-12T11:47:58Z</time>
      </trkpt>
      <trkpt lat="38.9155671000" lon="-6.3485203497">
        <ele>215.47</ele>
        <time>2020-07-12T11:48:16Z</time>
      </trkpt>
      <trkpt lat="38.9155996218" lon="-6.3484917674">
        <ele>215.47</ele>
        <time>2020-07-12T11:48:39Z</time>
      </trkpt>
      <trkpt lat="38.9155854564" lon="-6.3484902587">
        <ele>215.95</ele>
        <time>2020-07-12T11:49:00Z</time>
      </trkpt>
      <trkpt lat="38.9155823551" lon="-6.3485252950">
        <ele>219.32</ele>
        <time>2020-07-12T11:49:21Z</time>
      </trkpt>
      <trkpt lat="38.9155855402" lon="-6.3485455792">
        <ele>219.80</ele>
        <time>2020-07-12T11:49:48Z</time>
      </trkpt>
      <trkpt lat="38.9155681059" lon="-6.3485187571">
        <ele>219.32</ele>
        <time>2020-07-12T11:50:11Z</time>
      </trkpt>
      <trkpt lat="38.9155890606" lon="-6.3484594133">
        <ele>219.32</ele>
        <time>2020-07-12T11:50:37Z</time>
      </trkpt>
      <trkpt lat="38.9155573770" lon="-6.3484769315">
        <ele>221.24</ele>
        <time>2020-07-12T11:50:55Z</time>
      </trkpt>
      <trkpt lat="38.9155132044" lon="-6.3484653644">
        <ele>222.20</ele>
        <time>2020-07-12T11:51:18Z</time>
      </trkpt>
      <trkpt lat="38.9154936746" lon="-6.3484706450">
        <ele>221.72</ele>
        <time>2020-07-12T11:51:47Z</time>
      </trkpt>
      <trkpt lat="38.9155732188" lon="-6.3485018257">
        <ele>219.32</ele>
        <time>2020-07-12T11:52:12Z</time>
      </trkpt>
      <trkpt lat="38.9155573770" lon="-6.3484915160">
        <ele>219.32</ele>
        <time>2020-07-12T11:52:39Z</time>
      </trkpt>
      <trkpt lat="38.9155641664" lon="-6.3484731596">
        <ele>221.24</ele>
        <time>2020-07-12T11:53:05Z</time>
      </trkpt>
      <trkpt lat="38.9155567065" lon="-6.3484996464">
        <ele>221.24</ele>
        <time>2020-07-12T11:53:32Z</time>
      </trkpt>
      <trkpt lat="38.9155461453" lon="-6.3485227805">
        <ele>216.91</ele>
        <time>2020-07-12T11:53:59Z</time>
      </trkpt>
      <trkpt lat="38.9155500848" lon="-6.3485013228">
        <ele>216.43</ele>
        <time>2020-07-12T11:54:32Z</time>
      </trkpt>
      <trkpt lat="38.9155715425" lon="-6.3484830502">
        <ele>221.24</ele>
        <time>2020-07-12T11:54:59Z</time>
      </trkpt>
      <trkpt lat="38.9155934192" lon="-6.3484643586">
        <ele>228.45</ele>
        <time>2020-07-12T11:55:24Z</time>
      </trkpt>
      <trkpt lat="38.9155693632" lon="-6.3485148177">
        <ele>228.45</ele>
        <time>2020-07-12T11:55:57Z</time>
      </trkpt>
      <trkpt lat="38.9156152122" lon="-6.3485232834">
        <ele>220.76</ele>
        <time>2020-07-12T11:56:27Z</time>
      </trkpt>
      <trkpt lat="38.9155847859" lon="-6.3485092856">
        <ele>220.28</ele>
        <time>2020-07-12T11:56:47Z</time>
      </trkpt>
      <trkpt lat="38.9155704528" lon="-6.3484868221">
        <ele>219.80</ele>
        <time>2020-07-12T11:57:13Z</time>
      </trkpt>
      <trkpt lat="38.9155719616" lon="-6.3485085312">
        <ele>220.76</ele>
        <time>2020-07-12T11:57:34Z</time>
      </trkpt>
      <trkpt lat="38.9155553654" lon="-6.3485431485">
        <ele>220.76</ele>
        <time>2020-07-12T11:57:58Z</time>
      </trkpt>
      <trkpt lat="38.9155204128" lon="-6.3485121354">
        <ele>221.24</ele>
        <time>2020-07-12T11:58:14Z</time>
      </trkpt>
      <trkpt lat="38.9155581314" lon="-6.3485181704">
        <ele>222.20</ele>
        <time>2020-07-12T11:58:36Z</time>
      </trkpt>
      <trkpt lat="38.9155656751" lon="-6.3485210203">
        <ele>222.20</ele>
        <time>2020-07-12T11:58:58Z</time>
      </trkpt>
      <trkpt lat="38.9155626576" lon="-6.3485047594">
        <ele>221.72</ele>
        <time>2020-07-12T11:59:12Z</time>
      </trkpt>
      <trkpt lat="38.9155925810" lon="-6.3484994788">
        <ele>217.88</ele>
        <time>2020-07-12T11:59:31Z</time>
      </trkpt>
      <trkpt lat="38.9155795053" lon="-6.3485321682">
        <ele>217.88</ele>
        <time>2020-07-12T11:59:50Z</time>
      </trkpt>
      <trkpt lat="38.9155805111" lon="-6.3485497702">
        <ele>216.91</ele>
        <time>2020-07-12T12:00:04Z</time>
      </trkpt>
      <trkpt lat="38.9155981969" lon="-6.3485473394">
        <ele>216.43</ele>
        <time>2020-07-12T12:00:13Z</time>
      </trkpt>
      <trkpt lat="38.9156199899" lon="-6.3485226966">
        <ele>217.88</ele>
        <time>2020-07-12T12:00:18Z</time>
      </trkpt>
      <trkpt lat="38.9156398550" lon="-6.3485021610">
        <ele>218.84</ele>
        <time>2020-07-12T12:00:27Z</time>
      </trkpt>
      <trkpt lat="38.9156051539" lon="-6.3484133128">
        <ele>218.36</ele>
        <time>2020-07-12T12:00:32Z</time>
      </trkpt>
      <trkpt lat="38.9154451434" lon="-6.3482217025">
        <ele>217.88</ele>
        <time>2020-07-12T12:00:39Z</time>
      </trkpt>
      <trkpt lat="38.9152222686" lon="-6.3479395676">
        <ele>217.40</ele>
        <time>2020-07-12T12:00:48Z</time>
      </trkpt>
      <trkpt lat="38.9152222686" lon="-6.3478844147">
        <ele>217.40</ele>
        <time>2020-07-12T12:00:50Z</time>
      </trkpt>
      <trkpt lat="38.9152495097" lon="-6.3478397392">
        <ele>217.40</ele>
        <time>2020-07-12T12:00:51Z</time>
      </trkpt>
      <trkpt lat="38.9152794331" lon="-6.3477993384">
        <ele>217.40</ele>
        <time>2020-07-12T12:00:53Z</time>
      </trkpt>
      <trkpt lat="38.9153398667" lon="-6.3477011863">
        <ele>217.40</ele>
        <time>2020-07-12T12:00:56Z</time>
      </trkpt>
      <trkpt lat="38.9153417945" lon="-6.3476700056">
        <ele>217.40</ele>
        <time>2020-07-12T12:00:57Z</time>
      </trkpt>
      <trkpt lat="38.9153421298" lon="-6.3476434350">
        <ele>217.40</ele>
        <time>2020-07-12T12:00:58Z</time>
      </trkpt>
      <trkpt lat="38.9153453987" lon="-6.3476198819">
        <ele>217.40</ele>
        <time>2020-07-12T12:00:59Z</time>
      </trkpt>
      <trkpt lat="38.9153538644" lon="-6.3475994300">
        <ele>217.40</ele>
        <time>2020-07-12T12:01:00Z</time>
      </trkpt>
      <trkpt lat="38.9153765794" lon="-6.3475693390">
        <ele>218.36</ele>
        <time>2020-07-12T12:01:05Z</time>
      </trkpt>
      <trkpt lat="38.9153754059" lon="-6.3475656509">
        <ele>221.24</ele>
        <time>2020-07-12T12:01:20Z</time>
      </trkpt>
      <trkpt lat="38.9153640904" lon="-6.3475716859">
        <ele>220.28</ele>
        <time>2020-07-12T12:01:35Z</time>
      </trkpt>
      <trkpt lat="38.9153842069" lon="-6.3475374877">
        <ele>220.28</ele>
        <time>2020-07-12T12:01:46Z</time>
      </trkpt>
      <trkpt lat="38.9153928403" lon="-6.3475124259">
        <ele>220.28</ele>
        <time>2020-07-12T12:01:52Z</time>
      </trkpt>
      <trkpt lat="38.9154065028" lon="-6.3474978413">
        <ele>220.28</ele>
        <time>2020-07-12T12:01:55Z</time>
      </trkpt>
      <trkpt lat="38.9154901542" lon="-6.3473388366">
        <ele>220.76</ele>
        <time>2020-07-12T12:02:03Z</time>
      </trkpt>
      <trkpt lat="38.9155020565" lon="-6.3473136071">
        <ele>220.76</ele>
        <time>2020-07-12T12:02:04Z</time>
      </trkpt>
      <trkpt lat="38.9156277012" lon="-6.3470718730">
        <ele>221.72</ele>
        <time>2020-07-12T12:02:13Z</time>
      </trkpt>
      <trkpt lat="38.9156897273" lon="-6.3468842022">
        <ele>222.20</ele>
        <time>2020-07-12T12:02:20Z</time>
      </trkpt>
      <trkpt lat="38.9157533459" lon="-6.3466605730">
        <ele>222.68</ele>
        <time>2020-07-12T12:02:28Z</time>
      </trkpt>
      <trkpt lat="38.9157742169" lon="-6.3466176577">
        <ele>222.68</ele>
        <time>2020-07-12T12:02:30Z</time>
      </trkpt>
      <trkpt lat="38.9157816768" lon="-6.3463704754">
        <ele>223.64</ele>
        <time>2020-07-12T12:02:38Z</time>
      </trkpt>
      <trkpt lat="38.9156358317" lon="-6.3462162483">
        <ele>225.57</ele>
        <time>2020-07-12T12:02:45Z</time>
      </trkpt>
      <trkpt lat="38.9154040720" lon="-6.3460450899">
        <ele>226.05</ele>
        <time>2020-07-12T12:02:55Z</time>
      </trkpt>
      <trkpt lat="38.9152735658" lon="-6.3459792081">
        <ele>227.01</ele>
        <time>2020-07-12T12:03:00Z</time>
      </trkpt>
      <trkpt lat="38.9151807781" lon="-6.3459398132">
        <ele>228.93</ele>
        <time>2020-07-12T12:03:05Z</time>
      </trkpt>
      <trkpt lat="38.9149984717" lon="-6.3457811438">
        <ele>227.49</ele>
        <time>2020-07-12T12:03:14Z</time>
      </trkpt>
      <trkpt lat="38.9148894232" lon="-6.3456705865">
        <ele>226.05</ele>
        <time>2020-07-12T12:03:21Z</time>
      </trkpt>
      <trkpt lat="38.9146541432" lon="-6.3455279265">
        <ele>224.61</ele>
        <time>2020-07-12T12:03:31Z</time>
      </trkpt>
      <trkpt lat="38.9144360460" lon="-6.3455336262">
        <ele>223.64</ele>
        <time>2020-07-12T12:03:40Z</time>
      </trkpt>
      <trkpt lat="38.9143044502" lon="-6.3454633858">
        <ele>222.68</ele>
        <time>2020-07-12T12:03:46Z</time>
      </trkpt>
      <trkpt lat="38.9141425956" lon="-6.3452783134">
        <ele>222.20</ele>
        <time>2020-07-12T12:03:54Z</time>
      </trkpt>
      <trkpt lat="38.9139654022" lon="-6.3451017067">
        <ele>226.05</ele>
        <time>2020-07-12T12:04:02Z</time>
      </trkpt>
      <trkpt lat="38.9139136858" lon="-6.3450222462">
        <ele>228.45</ele>
        <time>2020-07-12T12:04:06Z</time>
      </trkpt>
      <trkpt lat="38.9139061421" lon="-6.3449492399">
        <ele>232.78</ele>
        <time>2020-07-12T12:04:10Z</time>
      </trkpt>
      <trkpt lat="38.9138763864" lon="-6.3449153770">
        <ele>234.70</ele>
        <time>2020-07-12T12:04:12Z</time>
      </trkpt>
      <trkpt lat="38.9137921482" lon="-6.3447582163">
        <ele>237.58</ele>
        <time>2020-07-12T12:04:19Z</time>
      </trkpt>
      <trkpt lat="38.9137670025" lon="-6.3447153848">
        <ele>238.54</ele>
        <time>2020-07-12T12:04:21Z</time>
      </trkpt>
      <trkpt lat="38.9136996120" lon="-6.3446492516">
        <ele>236.62</ele>
        <time>2020-07-12T12:04:28Z</time>
      </trkpt>
      <trkpt lat="38.9136679284" lon="-6.3446146343">
        <ele>235.66</ele>
        <time>2020-07-12T12:04:32Z</time>
      </trkpt>
      <trkpt lat="38.9136116859" lon="-6.3445431367">
        <ele>235.66</ele>
        <time>2020-07-12T12:04:39Z</time>
      </trkpt>
      <trkpt lat="38.9135046490" lon="-6.3444224373">
        <ele>235.66</ele>
        <time>2020-07-12T12:04:45Z</time>
      </trkpt>
      <trkpt lat="38.9133054949" lon="-6.3442259654">
        <ele>238.54</ele>
        <time>2020-07-12T12:04:53Z</time>
      </trkpt>
      <trkpt lat="38.9131144714" lon="-6.3440281525">
        <ele>242.87</ele>
        <time>2020-07-12T12:05:00Z</time>
      </trkpt>
      <trkpt lat="38.9128540456" lon="-6.3437488675">
        <ele>248.16</ele>
        <time>2020-07-12T12:05:09Z</time>
      </trkpt>
      <trkpt lat="38.9126793668" lon="-6.3435579278">
        <ele>251.52</ele>
        <time>2020-07-12T12:05:16Z</time>
      </trkpt>
      <trkpt lat="38.9125418197" lon="-6.3434035331">
        <ele>255.37</ele>
        <time>2020-07-12T12:05:24Z</time>
      </trkpt>
      <trkpt lat="38.9124321844" lon="-6.3432298601">
        <ele>257.29</ele>
        <time>2020-07-12T12:05:33Z</time>
      </trkpt>
      <trkpt lat="38.9123180229" lon="-6.3430805784">
        <ele>259.69</ele>
        <time>2020-07-12T12:05:41Z</time>
      </trkpt>
      <trkpt lat="38.9122454356" lon="-6.3430088293">
        <ele>261.14</ele>
        <time>2020-07-12T12:05:45Z</time>
      </trkpt>
      <trkpt lat="38.9120896161" lon="-6.3428478967">
        <ele>259.21</ele>
        <time>2020-07-12T12:05:55Z</time>
      </trkpt>
      <trkpt lat="38.9119510632" lon="-6.3427148759">
        <ele>256.81</ele>
        <time>2020-07-12T12:06:03Z</time>
      </trkpt>
      <trkpt lat="38.9118702617" lon="-6.3426402770">
        <ele>253.93</ele>
        <time>2020-07-12T12:06:10Z</time>
      </trkpt>
      <trkpt lat="38.9118659869" lon="-6.3426343258">
        <ele>251.52</ele>
        <time>2020-07-12T12:06:16Z</time>
      </trkpt>
      <trkpt lat="38.9117504843" lon="-6.3425014727">
        <ele>249.12</ele>
        <time>2020-07-12T12:06:24Z</time>
      </trkpt>
      <trkpt lat="38.9115733746" lon="-6.3423352595">
        <ele>247.20</ele>
        <time>2020-07-12T12:06:33Z</time>
      </trkpt>
      <trkpt lat="38.9114794135" lon="-6.3423176575">
        <ele>244.79</ele>
        <time>2020-07-12T12:06:39Z</time>
      </trkpt>
      <trkpt lat="38.9114587940" lon="-6.3423039950">
        <ele>242.39</ele>
        <time>2020-07-12T12:06:46Z</time>
      </trkpt>
      <trkpt lat="38.9114681818" lon="-6.3423126284">
        <ele>240.95</ele>
        <time>2020-07-12T12:06:59Z</time>
      </trkpt>
      <trkpt lat="38.9114541002" lon="-6.3423029054">
        <ele>239.02</ele>
        <time>2020-07-12T12:07:09Z</time>
      </trkpt>
      <trkpt lat="38.9113970194" lon="-6.3421668671">
        <ele>237.58</ele>
        <time>2020-07-12T12:07:15Z</time>
      </trkpt>
      <trkpt lat="38.9112270344" lon="-6.3419723231">
        <ele>236.14</ele>
        <time>2020-07-12T12:07:22Z</time>
      </trkpt>
      <trkpt lat="38.9110950194" lon="-6.3418024220">
        <ele>234.22</ele>
        <time>2020-07-12T12:07:28Z</time>
      </trkpt>
      <trkpt lat="38.9110742323" lon="-6.3417639490">
        <ele>234.22</ele>
        <time>2020-07-12T12:07:30Z</time>
      </trkpt>
      <trkpt lat="38.9110472426" lon="-6.3416714966">
        <ele>232.78</ele>
        <time>2020-07-12T12:07:34Z</time>
      </trkpt>
      <trkpt lat="38.9109499287" lon="-6.3415238075">
        <ele>231.33</ele>
        <time>2020-07-12T12:07:38Z</time>
      </trkpt>
      <trkpt lat="38.9107787702" lon="-6.3414264098">
        <ele>230.85</ele>
        <time>2020-07-12T12:07:42Z</time>
      </trkpt>
      <trkpt lat="38.9104745910" lon="-6.3412835822">
        <ele>229.89</ele>
        <time>2020-07-12T12:07:48Z</time>
      </trkpt>
      <trkpt lat="38.9104591683" lon="-6.3410730287">
        <ele>228.93</ele>
        <time>2020-07-12T12:07:51Z</time>
      </trkpt>
      <trkpt lat="38.9104750101" lon="-6.3410141040">
        <ele>228.93</ele>
        <time>2020-07-12T12:07:52Z</time>
      </trkpt>
      <trkpt lat="38.9104747586" lon="-6.3406766485">
        <ele>225.09</ele>
        <time>2020-07-12T12:07:59Z</time>
      </trkpt>
      <trkpt lat="38.9104566537" lon="-6.3404499181">
        <ele>224.12</ele>
        <time>2020-07-12T12:08:04Z</time>
      </trkpt>
      <trkpt lat="38.9104802068" lon="-6.3402798492">
        <ele>224.61</ele>
        <time>2020-07-12T12:08:09Z</time>
      </trkpt>
      <trkpt lat="38.9104964677" lon="-6.3402481657">
        <ele>224.61</ele>
        <time>2020-07-12T12:08:15Z</time>
      </trkpt>
      <trkpt lat="38.9104927797" lon="-6.3402298931">
        <ele>224.61</ele>
        <time>2020-07-12T12:08:17Z</time>
      </trkpt>
      <trkpt lat="38.9104891755" lon="-6.3401967008">
        <ele>225.57</ele>
        <time>2020-07-12T12:08:24Z</time>
      </trkpt>
      <trkpt lat="38.9104966354" lon="-6.3402098604">
        <ele>227.49</ele>
        <time>2020-07-12T12:08:33Z</time>
      </trkpt>
      <trkpt lat="38.9104898460" lon="-6.3402186614">
        <ele>227.49</ele>
        <time>2020-07-12T12:08:47Z</time>
      </trkpt>
      <trkpt lat="38.9105006587" lon="-6.3402268756">
        <ele>226.05</ele>
        <time>2020-07-12T12:09:06Z</time>
      </trkpt>
      <trkpt lat="38.9105043467" lon="-6.3402412925">
        <ele>228.45</ele>
        <time>2020-07-12T12:09:29Z</time>
      </trkpt>
      <trkpt lat="38.9105139859" lon="-6.3402453158">
        <ele>229.89</ele>
        <time>2020-07-12T12:09:52Z</time>
      </trkpt>
      <trkpt lat="38.9105103817" lon="-6.3402583078">
        <ele>231.81</ele>
        <time>2020-07-12T12:10:10Z</time>
      </trkpt>
      <trkpt lat="38.9105240442" lon="-6.3402517699">
        <ele>232.30</ele>
        <time>2020-07-12T12:10:32Z</time>
      </trkpt>
      <trkpt lat="38.9105179254" lon="-6.3402475789">
        <ele>233.74</ele>
        <time>2020-07-12T12:10:56Z</time>
      </trkpt>
      <trkpt lat="38.9105109684" lon="-6.3402451482">
        <ele>233.74</ele>
        <time>2020-07-12T12:11:14Z</time>
      </trkpt>
      <trkpt lat="38.9105176739" lon="-6.3402468245">
        <ele>231.81</ele>
        <time>2020-07-12T12:11:33Z</time>
      </trkpt>
      <trkpt lat="38.9105178416" lon="-6.3402580563">
        <ele>232.30</ele>
        <time>2020-07-12T12:11:56Z</time>
      </trkpt>
      <trkpt lat="38.9105218649" lon="-6.3402654324">
        <ele>234.70</ele>
        <time>2020-07-12T12:12:12Z</time>
      </trkpt>
      <trkpt lat="38.9105323423" lon="-6.3402558770">
        <ele>234.70</ele>
        <time>2020-07-12T12:12:29Z</time>
      </trkpt>
      <trkpt lat="38.9105296601" lon="-6.3402470760">
        <ele>233.74</ele>
        <time>2020-07-12T12:12:43Z</time>
      </trkpt>
      <trkpt lat="38.9105243795" lon="-6.3402469084">
        <ele>234.22</ele>
        <time>2020-07-12T12:12:58Z</time>
      </trkpt>
      <trkpt lat="38.9105095435" lon="-6.3402332459">
        <ele>233.26</ele>
        <time>2020-07-12T12:13:12Z</time>
      </trkpt>
      <trkpt lat="38.9105172548" lon="-6.3402204216">
        <ele>231.33</ele>
        <time>2020-07-12T12:13:27Z</time>
      </trkpt>
      <trkpt lat="38.9105229545" lon="-6.3402168173">
        <ele>231.81</ele>
        <time>2020-07-12T12:13:37Z</time>
      </trkpt>
      <trkpt lat="38.9105162490" lon="-6.3402128778">
        <ele>232.30</ele>
        <time>2020-07-12T12:13:46Z</time>
      </trkpt>
      <trkpt lat="38.9105141535" lon="-6.3402132131">
        <ele>232.30</ele>
        <time>2020-07-12T12:13:53Z</time>
      </trkpt>
      <trkpt lat="38.9105095435" lon="-6.3402349222">
        <ele>232.78</ele>
        <time>2020-07-12T12:14:00Z</time>
      </trkpt>
      <trkpt lat="38.9105064422" lon="-6.3402405381">
        <ele>232.78</ele>
        <time>2020-07-12T12:14:02Z</time>
      </trkpt>
      <trkpt lat="38.9105040114" lon="-6.3403951004">
        <ele>232.78</ele>
        <time>2020-07-12T12:14:13Z</time>
      </trkpt>
      <trkpt lat="38.9105014969" lon="-6.3405184820">
        <ele>232.30</ele>
        <time>2020-07-12T12:14:21Z</time>
      </trkpt>
      <trkpt lat="38.9105745032" lon="-6.3406586275">
        <ele>236.14</ele>
        <time>2020-07-12T12:14:32Z</time>
      </trkpt>
      <trkpt lat="38.9106398821" lon="-6.3407691009">
        <ele>236.14</ele>
        <time>2020-07-12T12:14:41Z</time>
      </trkpt>
      <trkpt lat="38.9106767625" lon="-6.3407853618">
        <ele>236.14</ele>
        <time>2020-07-12T12:14:49Z</time>
      </trkpt>
      <trkpt lat="38.9106739126" lon="-6.3407803327">
        <ele>235.18</ele>
        <time>2020-07-12T12:14:54Z</time>
      </trkpt>
      <trkpt lat="38.9107301552" lon="-6.3406793308">
        <ele>234.70</ele>
        <time>2020-07-12T12:15:00Z</time>
      </trkpt>
      <trkpt lat="38.9108511060" lon="-6.3403744809">
        <ele>235.18</ele>
        <time>2020-07-12T12:15:09Z</time>
      </trkpt>
      <trkpt lat="38.9110148046" lon="-6.3399527874">
        <ele>233.74</ele>
        <time>2020-07-12T12:15:19Z</time>
      </trkpt>
      <trkpt lat="38.9112136234" lon="-6.3394652959">
        <ele>231.33</ele>
        <time>2020-07-12T12:15:30Z</time>
      </trkpt>
      <trkpt lat="38.9113840275" lon="-6.3390506431">
        <ele>231.33</ele>
        <time>2020-07-12T12:15:39Z</time>
      </trkpt>
      <trkpt lat="38.9114044793" lon="-6.3389979210">
        <ele>231.33</ele>
        <time>2020-07-12T12:15:40Z</time>
      </trkpt>
      <trkpt lat="38.9115557726" lon="-6.3385976013">
        <ele>231.33</ele>
        <time>2020-07-12T12:15:48Z</time>
      </trkpt>
      <trkpt lat="38.9116167929" lon="-6.3384342380">
        <ele>231.81</ele>
        <time>2020-07-12T12:15:54Z</time>
      </trkpt>
      <trkpt lat="38.9116418548" lon="-6.3383827731">
        <ele>233.74</ele>
        <time>2020-07-12T12:16:02Z</time>
      </trkpt>
      <trkpt lat="38.9117255062" lon="-6.3381525222">
        <ele>233.74</ele>
        <time>2020-07-12T12:16:09Z</time>
      </trkpt>
      <trkpt lat="38.9117650688" lon="-6.3378165755">
        <ele>233.26</ele>
        <time>2020-07-12T12:16:16Z</time>
      </trkpt>
      <trkpt lat="38.9118412603" lon="-6.3376256358">
        <ele>232.78</ele>
        <time>2020-07-12T12:16:20Z</time>
      </trkpt>
      <trkpt lat="38.9119870216" lon="-6.3374427427">
        <ele>231.81</ele>
        <time>2020-07-12T12:16:25Z</time>
      </trkpt>
      <trkpt lat="38.9121443499" lon="-6.3371212967">
        <ele>231.33</ele>
        <time>2020-07-12T12:16:32Z</time>
      </trkpt>
      <trkpt lat="38.9123953041" lon="-6.3364949171">
        <ele>231.81</ele>
        <time>2020-07-12T12:16:44Z</time>
      </trkpt>
      <trkpt lat="38.9125814661" lon="-6.3360379357">
        <ele>231.81</ele>
        <time>2020-07-12T12:16:53Z</time>
      </trkpt>
      <trkpt lat="38.9127698075" lon="-6.3355525397">
        <ele>233.26</ele>
        <time>2020-07-12T12:17:03Z</time>
      </trkpt>
      <trkpt lat="38.9129132219" lon="-6.3352132402">
        <ele>234.22</ele>
        <time>2020-07-12T12:17:11Z</time>
      </trkpt>
      <trkpt lat="38.9131194167" lon="-6.3348192908">
        <ele>235.18</ele>
        <time>2020-07-12T12:17:21Z</time>
      </trkpt>
      <trkpt lat="38.9134112746" lon="-6.3344191387">
        <ele>236.62</ele>
        <time>2020-07-12T12:17:32Z</time>
      </trkpt>
      <trkpt lat="38.9136878774" lon="-6.3340607285">
        <ele>236.62</ele>
        <time>2020-07-12T12:17:42Z</time>
      </trkpt>
      <trkpt lat="38.9139700960" lon="-6.3336814474">
        <ele>236.62</ele>
        <time>2020-07-12T12:17:52Z</time>
      </trkpt>
      <trkpt lat="38.9143130835" lon="-6.3332684711">
        <ele>239.02</ele>
        <time>2020-07-12T12:18:04Z</time>
      </trkpt>
      <trkpt lat="38.9144676458" lon="-6.3330538943">
        <ele>239.51</ele>
        <time>2020-07-12T12:18:10Z</time>
      </trkpt>
      <trkpt lat="38.9145520516" lon="-6.3327783812">
        <ele>239.51</ele>
        <time>2020-07-12T12:18:16Z</time>
      </trkpt>
      <trkpt lat="38.9146297518" lon="-6.3327330351">
        <ele>239.51</ele>
        <time>2020-07-12T12:18:18Z</time>
      </trkpt>
      <trkpt lat="38.9148360305" lon="-6.3326172810">
        <ele>238.54</ele>
        <time>2020-07-12T12:18:24Z</time>
      </trkpt>
      <trkpt lat="38.9149454143" lon="-6.3324829191">
        <ele>238.06</ele>
        <time>2020-07-12T12:18:28Z</time>
      </trkpt>
      <trkpt lat="38.9148980565" lon="-6.3324038778">
        <ele>238.06</ele>
        <time>2020-07-12T12:18:32Z</time>
      </trkpt>
      <trkpt lat="38.9148734137" lon="-6.3324199710">
        <ele>238.54</ele>
        <time>2020-07-12T12:18:33Z</time>
      </trkpt>
      <trkpt lat="38.9146832284" lon="-6.3325743657">
        <ele>239.51</ele>
        <time>2020-07-12T12:18:40Z</time>
      </trkpt>
      <trkpt lat="38.9145777840" lon="-6.3324662391">
        <ele>239.99</ele>
        <time>2020-07-12T12:18:44Z</time>
      </trkpt>
      <trkpt lat="38.9145198651" lon="-6.3322915602">
        <ele>240.47</ele>
        <time>2020-07-12T12:18:49Z</time>
      </trkpt>
      <trkpt lat="38.9144943003" lon="-6.3322595414">
        <ele>240.95</ele>
        <time>2020-07-12T12:18:55Z</time>
      </trkpt>
      <trkpt lat="38.9144909475" lon="-6.3322718628">
        <ele>240.47</ele>
        <time>2020-07-12T12:19:03Z</time>
      </trkpt>
      <trkpt lat="38.9145178534" lon="-6.3322756346">
        <ele>239.51</ele>
        <time>2020-07-12T12:19:22Z</time>
      </trkpt>
      <trkpt lat="38.9145227987" lon="-6.3322508242">
        <ele>238.54</ele>
        <time>2020-07-12T12:19:35Z</time>
      </trkpt>
      <trkpt lat="38.9145100582" lon="-6.3322597928">
        <ele>239.51</ele>
        <time>2020-07-12T12:19:53Z</time>
      </trkpt>
      <trkpt lat="38.9144967310" lon="-6.3322728686">
        <ele>241.43</ele>
        <time>2020-07-12T12:20:13Z</time>
      </trkpt>
      <trkpt lat="38.9145110641" lon="-6.3322413526">
        <ele>243.35</ele>
        <time>2020-07-12T12:20:26Z</time>
      </trkpt>
      <trkpt lat="38.9145155903" lon="-6.3322218228">
        <ele>243.83</ele>
        <time>2020-07-12T12:20:43Z</time>
      </trkpt>
      <trkpt lat="38.9144943003" lon="-6.3322415203">
        <ele>243.83</ele>
        <time>2020-07-12T12:21:02Z</time>
      </trkpt>
      <trkpt lat="38.9144979883" lon="-6.3322382513">
        <ele>240.47</ele>
        <time>2020-07-12T12:21:25Z</time>
      </trkpt>
      <trkpt lat="38.9145201165" lon="-6.3322433643">
        <ele>238.06</ele>
        <time>2020-07-12T12:21:44Z</time>
      </trkpt>
      <trkpt lat="38.9145123214" lon="-6.3322505727">
        <ele>239.99</ele>
        <time>2020-07-12T12:22:05Z</time>
      </trkpt>
      <trkpt lat="38.9145017602" lon="-6.3322444540">
        <ele>239.99</ele>
        <time>2020-07-12T12:22:25Z</time>
      </trkpt>
      <trkpt lat="38.9145282470" lon="-6.3322409336">
        <ele>240.95</ele>
        <time>2020-07-12T12:22:34Z</time>
      </trkpt>
      <trkpt lat="38.9145174343" lon="-6.3322398439">
        <ele>241.43</ele>
        <time>2020-07-12T12:22:40Z</time>
      </trkpt>
      <trkpt lat="38.9145052806" lon="-6.3322585355">
        <ele>241.91</ele>
        <time>2020-07-12T12:22:53Z</time>
      </trkpt>
      <trkpt lat="38.9144986589" lon="-6.3322685100">
        <ele>243.83</ele>
        <time>2020-07-12T12:23:18Z</time>
      </trkpt>
      <trkpt lat="38.9145030174" lon="-6.3322654087">
        <ele>243.35</ele>
        <time>2020-07-12T12:23:40Z</time>
      </trkpt>
      <trkpt lat="38.9145151712" lon="-6.3322728686">
        <ele>243.83</ele>
        <time>2020-07-12T12:24:14Z</time>
      </trkpt>
      <trkpt lat="38.9145174343" lon="-6.3322780654">
        <ele>247.20</ele>
        <time>2020-07-12T12:24:43Z</time>
      </trkpt>
      <trkpt lat="38.9145136625" lon="-6.3322644029">
        <ele>246.72</ele>
        <time>2020-07-12T12:25:07Z</time>
      </trkpt>
      <trkpt lat="38.9144747704" lon="-6.3322575297">
        <ele>249.12</ele>
        <time>2020-07-12T12:25:21Z</time>
      </trkpt>
      <trkpt lat="38.9144596830" lon="-6.3322704379">
        <ele>249.60</ele>
        <time>2020-07-12T12:25:41Z</time>
      </trkpt>
      <trkpt lat="38.9144873433" lon="-6.3322581165">
        <ele>248.16</ele>
        <time>2020-07-12T12:26:01Z</time>
      </trkpt>
      <trkpt lat="38.9144963957" lon="-6.3322444540">
        <ele>247.68</ele>
        <time>2020-07-12T12:26:06Z</time>
      </trkpt>
      <trkpt lat="38.9145542309" lon="-6.3323633932">
        <ele>248.16</ele>
        <time>2020-07-12T12:26:13Z</time>
      </trkpt>
      <trkpt lat="38.9146488626" lon="-6.3325522374">
        <ele>247.20</ele>
        <time>2020-07-12T12:26:19Z</time>
      </trkpt>
      <trkpt lat="38.9148117229" lon="-6.3324747887">
        <ele>244.79</ele>
        <time>2020-07-12T12:26:24Z</time>
      </trkpt>
      <trkpt lat="38.9149329253" lon="-6.3324096613">
        <ele>243.35</ele>
        <time>2020-07-12T12:26:28Z</time>
      </trkpt>
      <trkpt lat="38.9149309136" lon="-6.3324736152">
        <ele>243.35</ele>
        <time>2020-07-12T12:26:31Z</time>
      </trkpt>
      <trkpt lat="38.9148515370" lon="-6.3325707614">
        <ele>243.35</ele>
        <time>2020-07-12T12:26:39Z</time>
      </trkpt>
      <trkpt lat="38.9148561470" lon="-6.3325664029">
        <ele>240.95</ele>
        <time>2020-07-12T12:26:52Z</time>
      </trkpt>
      <trkpt lat="38.9148958772" lon="-6.3326907903">
        <ele>239.99</ele>
        <time>2020-07-12T12:26:59Z</time>
      </trkpt>
      <trkpt lat="38.9148621820" lon="-6.3328451850">
        <ele>239.02</ele>
        <time>2020-07-12T12:27:05Z</time>
      </trkpt>
      <trkpt lat="38.9148220327" lon="-6.3330255635">
        <ele>239.51</ele>
        <time>2020-07-12T12:27:11Z</time>
      </trkpt>
      <trkpt lat="38.9148241282" lon="-6.3330550678">
        <ele>239.51</ele>
        <time>2020-07-12T12:27:12Z</time>
      </trkpt>
      <trkpt lat="38.9148954581" lon="-6.3332377095">
        <ele>240.95</ele>
        <time>2020-07-12T12:27:20Z</time>
      </trkpt>
      <trkpt lat="38.9148937818" lon="-6.3332393859">
        <ele>241.91</ele>
        <time>2020-07-12T12:27:30Z</time>
      </trkpt>
      <trkpt lat="38.9149080310" lon="-6.3332772721">
        <ele>244.31</ele>
        <time>2020-07-12T12:27:42Z</time>
      </trkpt>
      <trkpt lat="38.9149955381" lon="-6.3334490173">
        <ele>247.68</ele>
        <time>2020-07-12T12:27:50Z</time>
      </trkpt>
      <trkpt lat="38.9150943607" lon="-6.3336529490">
        <ele>249.12</ele>
        <time>2020-07-12T12:27:58Z</time>
      </trkpt>
      <trkpt lat="38.9152007271" lon="-6.3338661008">
        <ele>249.12</ele>
        <time>2020-07-12T12:28:05Z</time>
      </trkpt>
      <trkpt lat="38.9154153038" lon="-6.3342369162">
        <ele>247.20</ele>
        <time>2020-07-12T12:28:16Z</time>
      </trkpt>
      <trkpt lat="38.9156287070" lon="-6.3346396666">
        <ele>243.35</ele>
        <time>2020-07-12T12:28:25Z</time>
      </trkpt>
      <trkpt lat="38.9157525916" lon="-6.3348573446">
        <ele>241.43</ele>
        <time>2020-07-12T12:28:29Z</time>
      </trkpt>
      <trkpt lat="38.9159858599" lon="-6.3352446724">
        <ele>238.54</ele>
        <time>2020-07-12T12:28:37Z</time>
      </trkpt>
      <trkpt lat="38.9162224811" lon="-6.3356725685">
        <ele>237.10</ele>
        <time>2020-07-12T12:28:46Z</time>
      </trkpt>
      <trkpt lat="38.9164000098" lon="-6.3360054977">
        <ele>236.62</ele>
        <time>2020-07-12T12:28:54Z</time>
      </trkpt>
      <trkpt lat="38.9165770356" lon="-6.3362541888">
        <ele>236.62</ele>
        <time>2020-07-12T12:29:02Z</time>
      </trkpt>
      <trkpt lat="38.9166500419" lon="-6.3364499900">
        <ele>236.62</ele>
        <time>2020-07-12T12:29:07Z</time>
      </trkpt>
      <trkpt lat="38.9166709967" lon="-6.3365423586">
        <ele>237.10</ele>
        <time>2020-07-12T12:29:11Z</time>
      </trkpt>
      <trkpt lat="38.9166896883" lon="-6.3365557697">
        <ele>237.10</ele>
        <time>2020-07-12T12:29:12Z</time>
      </trkpt>
      <trkpt lat="38.9168085437" lon="-6.3367369026">
        <ele>236.62</ele>
        <time>2020-07-12T12:29:20Z</time>
      </trkpt>
      <trkpt lat="38.9169431571" lon="-6.3369862642">
        <ele>238.54</ele>
        <time>2020-07-12T12:29:28Z</time>
      </trkpt>
      <trkpt lat="38.9170320053" lon="-6.3373778667">
        <ele>238.54</ele>
        <time>2020-07-12T12:29:38Z</time>
      </trkpt>
      <trkpt lat="38.9169976395" lon="-6.3377019949">
        <ele>238.54</ele>
        <time>2020-07-12T12:29:45Z</time>
      </trkpt>
      <trkpt lat="38.9169401396" lon="-6.3380865566">
        <ele>240.47</ele>
        <time>2020-07-12T12:29:54Z</time>
      </trkpt>
      <trkpt lat="38.9169218671" lon="-6.3382977806">
        <ele>240.95</ele>
        <time>2020-07-12T12:30:00Z</time>
      </trkpt>
      <trkpt lat="38.9169332664" lon="-6.3383155502">
        <ele>240.95</ele>
        <time>2020-07-12T12:30:01Z</time>
      </trkpt>
      <trkpt lat="38.9169481024" lon="-6.3383282069">
        <ele>240.95</ele>
        <time>2020-07-12T12:30:02Z</time>
      </trkpt>
      <trkpt lat="38.9169628546" lon="-6.3383434620">
        <ele>240.95</ele>
        <time>2020-07-12T12:30:03Z</time>
      </trkpt>
      <trkpt lat="38.9169761818" lon="-6.3383631594">
        <ele>240.95</ele>
        <time>2020-07-12T12:30:04Z</time>
      </trkpt>
      <trkpt lat="38.9169875812" lon="-6.3383811805">
        <ele>240.95</ele>
        <time>2020-07-12T12:30:05Z</time>
      </trkpt>
      <trkpt lat="38.9170056861" lon="-6.3384187315">
        <ele>240.47</ele>
        <time>2020-07-12T12:30:07Z</time>
      </trkpt>
      <trkpt lat="38.9170036744" lon="-6.3384369202">
        <ele>240.95</ele>
        <time>2020-07-12T12:30:08Z</time>
      </trkpt>
      <trkpt lat="38.9169923589" lon="-6.3384545222">
        <ele>240.95</ele>
        <time>2020-07-12T12:30:09Z</time>
      </trkpt>
      <trkpt lat="38.9168972243" lon="-6.3386177178">
        <ele>240.95</ele>
        <time>2020-07-12T12:30:15Z</time>
      </trkpt>
      <trkpt lat="38.9168018382" lon="-6.3389417622">
        <ele>240.47</ele>
        <time>2020-07-12T12:30:24Z</time>
      </trkpt>
      <trkpt lat="38.9167735912" lon="-6.3391765393">
        <ele>239.99</ele>
        <time>2020-07-12T12:30:32Z</time>
      </trkpt>
      <trkpt lat="38.9167615213" lon="-6.3393891044">
        <ele>240.47</ele>
        <time>2020-07-12T12:30:41Z</time>
      </trkpt>
      <trkpt lat="38.9168279059" lon="-6.3395368773">
        <ele>239.99</ele>
        <time>2020-07-12T12:30:48Z</time>
      </trkpt>
      <trkpt lat="38.9169633575" lon="-6.3397655357">
        <ele>234.70</ele>
        <time>2020-07-12T12:30:57Z</time>
      </trkpt>
      <trkpt lat="38.9170299098" lon="-6.3399494346">
        <ele>232.78</ele>
        <time>2020-07-12T12:31:04Z</time>
      </trkpt>
      <trkpt lat="38.9170168340" lon="-6.3399760891">
        <ele>232.30</ele>
        <time>2020-07-12T12:31:05Z</time>
      </trkpt>
      <trkpt lat="38.9169980586" lon="-6.3400029950">
        <ele>231.81</ele>
        <time>2020-07-12T12:31:06Z</time>
      </trkpt>
      <trkpt lat="38.9169746730" lon="-6.3400387857">
        <ele>231.81</ele>
        <time>2020-07-12T12:31:07Z</time>
      </trkpt>
      <trkpt lat="38.9169593342" lon="-6.3400707208">
        <ele>231.33</ele>
        <time>2020-07-12T12:31:08Z</time>
      </trkpt>
      <trkpt lat="38.9169436600" lon="-6.3401064277">
        <ele>231.33</ele>
        <time>2020-07-12T12:31:09Z</time>
      </trkpt>
      <trkpt lat="38.9168502018" lon="-6.3403099403">
        <ele>232.78</ele>
        <time>2020-07-12T12:31:17Z</time>
      </trkpt>
      <trkpt lat="38.9167968091" lon="-6.3404175639">
        <ele>233.26</ele>
        <time>2020-07-12T12:31:24Z</time>
      </trkpt>
      <trkpt lat="38.9168071188" lon="-6.3404418714">
        <ele>233.26</ele>
        <time>2020-07-12T12:31:25Z</time>
      </trkpt>
      <trkpt lat="38.9168241341" lon="-6.3404634967">
        <ele>233.74</ele>
        <time>2020-07-12T12:31:26Z</time>
      </trkpt>
      <trkpt lat="38.9170281496" lon="-6.3406633213">
        <ele>235.18</ele>
        <time>2020-07-12T12:31:35Z</time>
      </trkpt>
      <trkpt lat="38.9170984738" lon="-6.3407322206">
        <ele>235.18</ele>
        <time>2020-07-12T12:31:39Z</time>
      </trkpt>
      <trkpt lat="38.9170992281" lon="-6.3407556899">
        <ele>235.66</ele>
        <time>2020-07-12T12:31:40Z</time>
      </trkpt>
      <trkpt lat="38.9170988090" lon="-6.3407722861">
        <ele>235.66</ele>
        <time>2020-07-12T12:31:41Z</time>
      </trkpt>
      <trkpt lat="38.9170951210" lon="-6.3407901395">
        <ele>235.66</ele>
        <time>2020-07-12T12:31:42Z</time>
      </trkpt>
      <trkpt lat="38.9170896728" lon="-6.3408047240">
        <ele>236.14</ele>
        <time>2020-07-12T12:31:43Z</time>
      </trkpt>
      <trkpt lat="38.9169990644" lon="-6.3409811631">
        <ele>235.18</ele>
        <time>2020-07-12T12:31:51Z</time>
      </trkpt>
      <trkpt lat="38.9169522095" lon="-6.3410826679">
        <ele>234.22</ele>
        <time>2020-07-12T12:31:57Z</time>
      </trkpt>
      <trkpt lat="38.9169500303" lon="-6.3410949055">
        <ele>235.66</ele>
        <time>2020-07-12T12:32:06Z</time>
      </trkpt>
      <trkpt lat="38.9169493597" lon="-6.3411023654">
        <ele>237.10</ele>
        <time>2020-07-12T12:32:16Z</time>
      </trkpt>
      <trkpt lat="38.9169659559" lon="-6.3411424309">
        <ele>239.51</ele>
        <time>2020-07-12T12:32:34Z</time>
      </trkpt>
      <trkpt lat="38.9169724099" lon="-6.3411497232">
        <ele>240.95</ele>
        <time>2020-07-12T12:32:46Z</time>
      </trkpt>
      <trkpt lat="38.9169514552" lon="-6.3411602005">
        <ele>240.47</ele>
        <time>2020-07-12T12:32:53Z</time>
      </trkpt>
      <trkpt lat="38.9169517066" lon="-6.3411182072">
        <ele>239.51</ele>
        <time>2020-07-12T12:33:00Z</time>
      </trkpt>
      <trkpt lat="38.9169545565" lon="-6.3411005214">
        <ele>239.99</ele>
        <time>2020-07-12T12:33:09Z</time>
      </trkpt>
      <trkpt lat="38.9169463422" lon="-6.3410907146">
        <ele>239.99</ele>
        <time>2020-07-12T12:33:29Z</time>
      </trkpt>
      <trkpt lat="38.9169380441" lon="-6.3410883676">
        <ele>241.43</ele>
        <time>2020-07-12T12:33:44Z</time>
      </trkpt>
      <trkpt lat="38.9169310033" lon="-6.3410866074">
        <ele>242.87</ele>
        <time>2020-07-12T12:33:56Z</time>
      </trkpt>
      <trkpt lat="38.9169302490" lon="-6.3410711847">
        <ele>243.35</ele>
        <time>2020-07-12T12:34:10Z</time>
      </trkpt>
      <trkpt lat="38.9169289917" lon="-6.3410492241">
        <ele>243.35</ele>
        <time>2020-07-12T12:34:26Z</time>
      </trkpt>
      <trkpt lat="38.9169263095" lon="-6.3410395849">
        <ele>242.87</ele>
        <time>2020-07-12T12:34:42Z</time>
      </trkpt>
      <trkpt lat="38.9169446658" lon="-6.3410449494">
        <ele>242.87</ele>
        <time>2020-07-12T12:34:56Z</time>
      </trkpt>
      <trkpt lat="38.9169536345" lon="-6.3410419319">
        <ele>242.87</ele>
        <time>2020-07-12T12:35:11Z</time>
      </trkpt>
      <trkpt lat="38.9169475157" lon="-6.3410451170">
        <ele>242.87</ele>
        <time>2020-07-12T12:35:31Z</time>
      </trkpt>
      <trkpt lat="38.9169339370" lon="-6.3410597015">
        <ele>242.39</ele>
        <time>2020-07-12T12:35:45Z</time>
      </trkpt>
      <trkpt lat="38.9169374574" lon="-6.3410480507">
        <ele>242.87</ele>
        <time>2020-07-12T12:35:57Z</time>
      </trkpt>
      <trkpt lat="38.9169222023" lon="-6.3410708494">
        <ele>242.87</ele>
        <time>2020-07-12T12:36:05Z</time>
      </trkpt>
      <trkpt lat="38.9169125631" lon="-6.3410842605">
        <ele>242.39</ele>
        <time>2020-07-12T12:36:06Z</time>
      </trkpt>
      <trkpt lat="38.9168514591" lon="-6.3412300218">
        <ele>243.35</ele>
        <time>2020-07-12T12:36:15Z</time>
      </trkpt>
      <trkpt lat="38.9167939592" lon="-6.3413744420">
        <ele>244.31</ele>
        <time>2020-07-12T12:36:25Z</time>
      </trkpt>
      <trkpt lat="38.9166970644" lon="-6.3414972369">
        <ele>242.87</ele>
        <time>2020-07-12T12:36:35Z</time>
      </trkpt>
      <trkpt lat="38.9166534785" lon="-6.3415534794">
        <ele>240.95</ele>
        <time>2020-07-12T12:36:43Z</time>
      </trkpt>
      <trkpt lat="38.9166488685" lon="-6.3415516354">
        <ele>240.95</ele>
        <time>2020-07-12T12:37:03Z</time>
      </trkpt>
      <trkpt lat="38.9166346192" lon="-6.3415632863">
        <ele>238.54</ele>
        <time>2020-07-12T12:37:23Z</time>
      </trkpt>
      <trkpt lat="38.9166466892" lon="-6.3415551558">
        <ele>236.14</ele>
        <time>2020-07-12T12:37:46Z</time>
      </trkpt>
      <trkpt lat="38.9166528918" lon="-6.3415643759">
        <ele>233.74</ele>
        <time>2020-07-12T12:38:04Z</time>
      </trkpt>
      <trkpt lat="38.9166770317" lon="-6.3415643759">
        <ele>234.22</ele>
        <time>2020-07-12T12:38:23Z</time>
      </trkpt>
      <trkpt lat="38.9166568313" lon="-6.3415608555">
        <ele>234.70</ele>
        <time>2020-07-12T12:38:40Z</time>
      </trkpt>
      <trkpt lat="38.9166326914" lon="-6.3415541500">
        <ele>235.66</ele>
        <time>2020-07-12T12:39:06Z</time>
      </trkpt>
      <trkpt lat="38.9166330267" lon="-6.3415445108">
        <ele>234.70</ele>
        <time>2020-07-12T12:39:29Z</time>
      </trkpt>
      <trkpt lat="38.9166082162" lon="-6.3415466063">
        <ele>234.22</ele>
        <time>2020-07-12T12:39:47Z</time>
      </trkpt>
      <trkpt lat="38.9166419115" lon="-6.3415317703">
        <ele>233.74</ele>
        <time>2020-07-12T12:40:07Z</time>
      </trkpt>
      <trkpt lat="38.9166289195" lon="-6.3415414095">
        <ele>234.70</ele>
        <time>2020-07-12T12:40:34Z</time>
      </trkpt>
      <trkpt lat="38.9166418277" lon="-6.3415479474">
        <ele>236.62</ele>
        <time>2020-07-12T12:40:57Z</time>
      </trkpt>
      <trkpt lat="38.9166346192" lon="-6.3415655494">
        <ele>235.66</ele>
        <time>2020-07-12T12:41:17Z</time>
      </trkpt>
      <trkpt lat="38.9166237228" lon="-6.3415472768">
        <ele>236.14</ele>
        <time>2020-07-12T12:41:34Z</time>
      </trkpt>
      <trkpt lat="38.9166288357" lon="-6.3415531442">
        <ele>235.66</ele>
        <time>2020-07-12T12:41:49Z</time>
      </trkpt>
      <trkpt lat="38.9166460186" lon="-6.3415584248">
        <ele>234.70</ele>
        <time>2020-07-12T12:41:54Z</time>
      </trkpt>
      <trkpt lat="38.9166530594" lon="-6.3415484503">
        <ele>234.70</ele>
        <time>2020-07-12T12:41:55Z</time>
      </trkpt>
      <trkpt lat="38.9166633692" lon="-6.3415227178">
        <ele>234.70</ele>
        <time>2020-07-12T12:41:57Z</time>
      </trkpt>
      <trkpt lat="38.9166606870" lon="-6.3414992485">
        <ele>234.70</ele>
        <time>2020-07-12T12:41:59Z</time>
      </trkpt>
      <trkpt lat="38.9166503772" lon="-6.3414780423">
        <ele>234.70</ele>
        <time>2020-07-12T12:42:01Z</time>
      </trkpt>
      <trkpt lat="38.9166099764" lon="-6.3414378092">
        <ele>235.66</ele>
        <time>2020-07-12T12:42:10Z</time>
      </trkpt>
      <trkpt lat="38.9166040253" lon="-6.3414290082">
        <ele>236.62</ele>
        <time>2020-07-12T12:42:20Z</time>
      </trkpt>
      <trkpt lat="38.9166018460" lon="-6.3414426707">
        <ele>236.62</ele>
        <time>2020-07-12T12:42:33Z</time>
      </trkpt>
      <trkpt lat="38.9166069590" lon="-6.3414445147">
        <ele>236.14</ele>
        <time>2020-07-12T12:42:44Z</time>
      </trkpt>
      <trkpt lat="38.9166425820" lon="-6.3414752763">
        <ele>236.14</ele>
        <time>2020-07-12T12:43:00Z</time>
      </trkpt>
      <trkpt lat="38.9166584238" lon="-6.3415096421">
        <ele>237.10</ele>
        <time>2020-07-12T12:43:10Z</time>
      </trkpt>
      <trkpt lat="38.9166872576" lon="-6.3415744342">
        <ele>241.91</ele>
        <time>2020-07-12T12:43:27Z</time>
      </trkpt>
      <trkpt lat="38.9166723378" lon="-6.3415470254">
        <ele>244.31</ele>
        <time>2020-07-12T12:43:38Z</time>
      </trkpt>
      <trkpt lat="38.9166498743" lon="-6.3415803015">
        <ele>248.64</ele>
        <time>2020-07-12T12:43:53Z</time>
      </trkpt>
      <trkpt lat="38.9166429173" lon="-6.3415907789">
        <ele>250.56</ele>
        <time>2020-07-12T12:44:10Z</time>
      </trkpt>
      <trkpt lat="38.9166174363" lon="-6.3415224664">
        <ele>251.04</ele>
        <time>2020-07-12T12:44:26Z</time>
      </trkpt>
      <trkpt lat="38.9165974036" lon="-6.3414475322">
        <ele>247.20</ele>
        <time>2020-07-12T12:44:42Z</time>
      </trkpt>
      <trkpt lat="38.9166070428" lon="-6.3414695766">
        <ele>246.72</ele>
        <time>2020-07-12T12:44:58Z</time>
      </trkpt>
      <trkpt lat="38.9166026842" lon="-6.3414747734">
        <ele>245.75</ele>
        <time>2020-07-12T12:45:16Z</time>
      </trkpt>
      <trkpt lat="38.9166093059" lon="-6.3414822333">
        <ele>243.83</ele>
        <time>2020-07-12T12:45:33Z</time>
      </trkpt>
      <trkpt lat="38.9166868385" lon="-6.3414754439">
        <ele>238.54</ele>
        <time>2020-07-12T12:45:49Z</time>
      </trkpt>
      <trkpt lat="38.9166590944" lon="-6.3415247295">
        <ele>238.54</ele>
        <time>2020-07-12T12:46:06Z</time>
      </trkpt>
      <trkpt lat="38.9166365471" lon="-6.3415326085">
        <ele>241.91</ele>
        <time>2020-07-12T12:46:22Z</time>
      </trkpt>
      <trkpt lat="38.9166191127" lon="-6.3415155094">
        <ele>243.35</ele>
        <time>2020-07-12T12:46:38Z</time>
      </trkpt>
      <trkpt lat="38.9166069590" lon="-6.3414935488">
        <ele>242.87</ele>
        <time>2020-07-12T12:46:46Z</time>
      </trkpt>
      <trkpt lat="38.9167237189" lon="-6.3414342888">
        <ele>246.72</ele>
        <time>2020-07-12T12:47:09Z</time>
      </trkpt>
      <trkpt lat="38.9166497067" lon="-6.3414806407">
        <ele>247.20</ele>
        <time>2020-07-12T12:47:18Z</time>
      </trkpt>
      <trkpt lat="38.9162913803" lon="-6.3414520584">
        <ele>273.15</ele>
        <time>2020-07-13T04:44:06Z</time>
      </trkpt>
      <trkpt lat="38.9163377322" lon="-6.3414728455">
        <ele>271.71</ele>
        <time>2020-07-13T04:44:19Z</time>
      </trkpt>
      <trkpt lat="38.9163564239" lon="-6.3414895255">
        <ele>271.23</ele>
        <time>2020-07-13T04:44:28Z</time>
      </trkpt>
      <trkpt lat="38.9165287558" lon="-6.3415613584">
        <ele>247.68</ele>
        <time>2020-07-13T04:44:41Z</time>
      </trkpt>
      <trkpt lat="38.9165526442" lon="-6.3414962310">
        <ele>249.60</ele>
        <time>2020-07-13T04:45:02Z</time>
      </trkpt>
      <trkpt lat="38.9166006725" lon="-6.3415302616">
        <ele>248.64</ele>
        <time>2020-07-13T04:45:10Z</time>
      </trkpt>
      <trkpt lat="38.9166657161" lon="-6.3415314350">
        <ele>248.16</ele>
        <time>2020-07-13T04:45:19Z</time>
      </trkpt>
      <trkpt lat="38.9166798815" lon="-6.3415160961">
        <ele>244.79</ele>
        <time>2020-07-13T04:45:29Z</time>
      </trkpt>
      <trkpt lat="38.9166851621" lon="-6.3415090553">
        <ele>241.43</ele>
        <time>2020-07-13T04:45:45Z</time>
      </trkpt>
      <trkpt lat="38.9166784566" lon="-6.3415147550">
        <ele>241.43</ele>
        <time>2020-07-13T04:45:55Z</time>
      </trkpt>
      <trkpt lat="38.9166786242" lon="-6.3415062055">
        <ele>240.47</ele>
        <time>2020-07-13T04:46:34Z</time>
      </trkpt>
      <trkpt lat="38.9166663028" lon="-6.3415037747">
        <ele>239.51</ele>
        <time>2020-07-13T04:46:51Z</time>
      </trkpt>
      <trkpt lat="38.9166751876" lon="-6.3415048644">
        <ele>237.58</ele>
        <time>2020-07-13T04:47:07Z</time>
      </trkpt>
      <trkpt lat="38.9166746847" lon="-6.3415044453">
        <ele>239.51</ele>
        <time>2020-07-13T04:47:17Z</time>
      </trkpt>
      <trkpt lat="38.9166574180" lon="-6.3415109832">
        <ele>240.47</ele>
        <time>2020-07-13T04:47:30Z</time>
      </trkpt>
      <trkpt lat="38.9166684821" lon="-6.3415112346">
        <ele>240.47</ele>
        <time>2020-07-13T04:47:43Z</time>
      </trkpt>
      <trkpt lat="38.9167687297" lon="-6.3416180201">
        <ele>240.95</ele>
        <time>2020-07-13T04:47:52Z</time>
      </trkpt>
      <trkpt lat="38.9167932887" lon="-6.3416474406">
        <ele>240.47</ele>
        <time>2020-07-13T04:47:53Z</time>
      </trkpt>
      <trkpt lat="38.9169615973" lon="-6.3418805413">
        <ele>238.06</ele>
        <time>2020-07-13T04:48:04Z</time>
      </trkpt>
      <trkpt lat="38.9170862362" lon="-6.3420483470">
        <ele>237.10</ele>
        <time>2020-07-13T04:48:12Z</time>
      </trkpt>
      <trkpt lat="38.9171672054" lon="-6.3421506900">
        <ele>236.14</ele>
        <time>2020-07-13T04:48:19Z</time>
      </trkpt>
      <trkpt lat="38.9171842206" lon="-6.3421647716">
        <ele>236.14</ele>
        <time>2020-07-13T04:48:20Z</time>
      </trkpt>
      <trkpt lat="38.9172019903" lon="-6.3421831280">
        <ele>236.14</ele>
        <time>2020-07-13T04:48:21Z</time>
      </trkpt>
      <trkpt lat="38.9172239508" lon="-6.3422003947">
        <ele>236.14</ele>
        <time>2020-07-13T04:48:22Z</time>
      </trkpt>
      <trkpt lat="38.9172478393" lon="-6.3422199246">
        <ele>236.62</ele>
        <time>2020-07-13T04:48:23Z</time>
      </trkpt>
      <trkpt lat="38.9172645193" lon="-6.3422417175">
        <ele>236.14</ele>
        <time>2020-07-13T04:48:24Z</time>
      </trkpt>
      <trkpt lat="38.9172737394" lon="-6.3422666956">
        <ele>236.14</ele>
        <time>2020-07-13T04:48:25Z</time>
      </trkpt>
      <trkpt lat="38.9172840491" lon="-6.3422899973">
        <ele>236.14</ele>
        <time>2020-07-13T04:48:26Z</time>
      </trkpt>
      <trkpt lat="38.9172962867" lon="-6.3423130475">
        <ele>236.14</ele>
        <time>2020-07-13T04:48:27Z</time>
      </trkpt>
      <trkpt lat="38.9174454007" lon="-6.3425075077">
        <ele>236.62</ele>
        <time>2020-07-13T04:48:36Z</time>
      </trkpt>
      <trkpt lat="38.9175479114" lon="-6.3426398579">
        <ele>235.66</ele>
        <time>2020-07-13T04:48:42Z</time>
      </trkpt>
      <trkpt lat="38.9177207462" lon="-6.3426639140">
        <ele>234.70</ele>
        <time>2020-07-13T04:48:49Z</time>
      </trkpt>
      <trkpt lat="38.9178121090" lon="-6.3426386844">
        <ele>234.22</ele>
        <time>2020-07-13T04:48:54Z</time>
      </trkpt>
      <trkpt lat="38.9179097582" lon="-6.3427513372">
        <ele>232.78</ele>
        <time>2020-07-13T04:49:00Z</time>
      </trkpt>
      <trkpt lat="38.9179219957" lon="-6.3429165445">
        <ele>231.33</ele>
        <time>2020-07-13T04:49:08Z</time>
      </trkpt>
      <trkpt lat="38.9178092591" lon="-6.3430610485">
        <ele>229.89</ele>
        <time>2020-07-13T04:49:17Z</time>
      </trkpt>
      <trkpt lat="38.9177373424" lon="-6.3431188837">
        <ele>227.97</ele>
        <time>2020-07-13T04:49:22Z</time>
      </trkpt>
      <trkpt lat="38.9176505897" lon="-6.3432518207">
        <ele>226.05</ele>
        <time>2020-07-13T04:49:29Z</time>
      </trkpt>
      <trkpt lat="38.9175759070" lon="-6.3434063829">
        <ele>226.05</ele>
        <time>2020-07-13T04:49:34Z</time>
      </trkpt>
      <trkpt lat="38.9175057504" lon="-6.3435881026">
        <ele>226.05</ele>
        <time>2020-07-13T04:49:41Z</time>
      </trkpt>
      <trkpt lat="38.9173528645" lon="-6.3438070379">
        <ele>226.53</ele>
        <time>2020-07-13T04:49:48Z</time>
      </trkpt>
      <trkpt lat="38.9172049239" lon="-6.3440143224">
        <ele>226.05</ele>
        <time>2020-07-13T04:49:55Z</time>
      </trkpt>
      <trkpt lat="38.9171781857" lon="-6.3442045078">
        <ele>225.57</ele>
        <time>2020-07-13T04:50:01Z</time>
      </trkpt>
      <trkpt lat="38.9171420597" lon="-6.3442636840">
        <ele>226.53</ele>
        <time>2020-07-13T04:50:02Z</time>
      </trkpt>
      <trkpt lat="38.9171165787" lon="-6.3443035819">
        <ele>226.53</ele>
        <time>2020-07-13T04:50:04Z</time>
      </trkpt>
      <trkpt lat="38.9170333464" lon="-6.3444152288">
        <ele>228.45</ele>
        <time>2020-07-13T04:50:07Z</time>
      </trkpt>
      <trkpt lat="38.9170075301" lon="-6.3444358483">
        <ele>228.93</ele>
        <time>2020-07-13T04:50:08Z</time>
      </trkpt>
      <trkpt lat="38.9169839770" lon="-6.3444710523">
        <ele>228.93</ele>
        <time>2020-07-13T04:50:09Z</time>
      </trkpt>
      <trkpt lat="38.9169628546" lon="-6.3445070945">
        <ele>229.41</ele>
        <time>2020-07-13T04:50:10Z</time>
      </trkpt>
      <trkpt lat="38.9169429056" lon="-6.3445453160">
        <ele>229.41</ele>
        <time>2020-07-13T04:50:11Z</time>
      </trkpt>
      <trkpt lat="38.9167812187" lon="-6.3448790833">
        <ele>229.89</ele>
        <time>2020-07-13T04:50:19Z</time>
      </trkpt>
      <trkpt lat="38.9166316856" lon="-6.3450856134">
        <ele>229.89</ele>
        <time>2020-07-13T04:50:26Z</time>
      </trkpt>
      <trkpt lat="38.9165363833" lon="-6.3452319615">
        <ele>228.93</ele>
        <time>2020-07-13T04:50:32Z</time>
      </trkpt>
      <trkpt lat="38.9164842479" lon="-6.3453897927">
        <ele>226.53</ele>
        <time>2020-07-13T04:50:38Z</time>
      </trkpt>
      <trkpt lat="38.9163932204" lon="-6.3455879409">
        <ele>222.68</ele>
        <time>2020-07-13T04:50:45Z</time>
      </trkpt>
      <trkpt lat="38.9163664822" lon="-6.3457491249">
        <ele>220.76</ele>
        <time>2020-07-13T04:50:51Z</time>
      </trkpt>
      <trkpt lat="38.9163433481" lon="-6.3458209578">
        <ele>221.24</ele>
        <time>2020-07-13T04:50:54Z</time>
      </trkpt>
      <trkpt lat="38.9163479581" lon="-6.3458381407">
        <ele>221.24</ele>
        <time>2020-07-13T04:50:55Z</time>
      </trkpt>
      <trkpt lat="38.9163563401" lon="-6.3458499592">
        <ele>222.20</ele>
        <time>2020-07-13T04:50:56Z</time>
      </trkpt>
      <trkpt lat="38.9163645543" lon="-6.3458621129">
        <ele>222.20</ele>
        <time>2020-07-13T04:50:57Z</time>
      </trkpt>
      <trkpt lat="38.9163763728" lon="-6.3458762784">
        <ele>223.16</ele>
        <time>2020-07-13T04:50:58Z</time>
      </trkpt>
      <trkpt lat="38.9163830783" lon="-6.3458916172">
        <ele>223.64</ele>
        <time>2020-07-13T04:50:59Z</time>
      </trkpt>
      <trkpt lat="38.9163813181" lon="-6.3459134102">
        <ele>224.12</ele>
        <time>2020-07-13T04:51:00Z</time>
      </trkpt>
      <trkpt lat="38.9163708407" lon="-6.3459364604">
        <ele>225.09</ele>
        <time>2020-07-13T04:51:01Z</time>
      </trkpt>
      <trkpt lat="38.9163562562" lon="-6.3459639531">
        <ele>225.57</ele>
        <time>2020-07-13T04:51:02Z</time>
      </trkpt>
      <trkpt lat="38.9163408335" lon="-6.3459887635">
        <ele>226.53</ele>
        <time>2020-07-13T04:51:03Z</time>
      </trkpt>
      <trkpt lat="38.9163046237" lon="-6.3461123127">
        <ele>228.45</ele>
        <time>2020-07-13T04:51:08Z</time>
      </trkpt>
      <trkpt lat="38.9163117483" lon="-6.3461348601">
        <ele>228.45</ele>
        <time>2020-07-13T04:51:09Z</time>
      </trkpt>
      <trkpt lat="38.9163213037" lon="-6.3461556472">
        <ele>228.45</ele>
        <time>2020-07-13T04:51:10Z</time>
      </trkpt>
      <trkpt lat="38.9163325354" lon="-6.3461720757">
        <ele>228.45</ele>
        <time>2020-07-13T04:51:11Z</time>
      </trkpt>
      <trkpt lat="38.9163453598" lon="-6.3461877499">
        <ele>228.45</ele>
        <time>2020-07-13T04:51:12Z</time>
      </trkpt>
      <trkpt lat="38.9163603634" lon="-6.3462065253">
        <ele>228.93</ele>
        <time>2020-07-13T04:51:13Z</time>
      </trkpt>
      <trkpt lat="38.9163767919" lon="-6.3462255523">
        <ele>228.45</ele>
        <time>2020-07-13T04:51:14Z</time>
      </trkpt>
      <trkpt lat="38.9164881036" lon="-6.3463944476">
        <ele>227.97</ele>
        <time>2020-07-13T04:51:22Z</time>
      </trkpt>
      <trkpt lat="38.9164641313" lon="-6.3465121295">
        <ele>227.01</ele>
        <time>2020-07-13T04:51:28Z</time>
      </trkpt>
      <trkpt lat="38.9164493792" lon="-6.3465238642">
        <ele>226.53</ele>
        <time>2020-07-13T04:51:29Z</time>
      </trkpt>
      <trkpt lat="38.9164353814" lon="-6.3465301506">
        <ele>226.05</ele>
        <time>2020-07-13T04:51:30Z</time>
      </trkpt>
      <trkpt lat="38.9164113253" lon="-6.3465265464">
        <ele>226.05</ele>
        <time>2020-07-13T04:51:32Z</time>
      </trkpt>
      <trkpt lat="38.9163949806" lon="-6.3465169910">
        <ele>225.57</ele>
        <time>2020-07-13T04:51:33Z</time>
      </trkpt>
      <trkpt lat="38.9163851738" lon="-6.3465029094">
        <ele>225.57</ele>
        <time>2020-07-13T04:51:34Z</time>
      </trkpt>
      <trkpt lat="38.9163290989" lon="-6.3463330083">
        <ele>226.53</ele>
        <time>2020-07-13T04:51:42Z</time>
      </trkpt>
      <trkpt lat="38.9163027797" lon="-6.3461439125">
        <ele>227.01</ele>
        <time>2020-07-13T04:51:51Z</time>
      </trkpt>
      <trkpt lat="38.9162899554" lon="-6.3461366203">
        <ele>226.53</ele>
        <time>2020-07-13T04:51:52Z</time>
      </trkpt>
      <trkpt lat="38.9162280969" lon="-6.3461766019">
        <ele>226.05</ele>
        <time>2020-07-13T04:51:56Z</time>
      </trkpt>
      <trkpt lat="38.9160732832" lon="-6.3465103693">
        <ele>226.05</ele>
        <time>2020-07-13T04:52:08Z</time>
      </trkpt>
      <trkpt lat="38.9160062280" lon="-6.3466728944">
        <ele>224.12</ele>
        <time>2020-07-13T04:52:15Z</time>
      </trkpt>
      <trkpt lat="38.9159005322" lon="-6.3468989544">
        <ele>218.84</ele>
        <time>2020-07-13T04:52:24Z</time>
      </trkpt>
      <trkpt lat="38.9157894719" lon="-6.3470894750">
        <ele>215.47</ele>
        <time>2020-07-13T04:52:31Z</time>
      </trkpt>
      <trkpt lat="38.9157137834" lon="-6.3472633995">
        <ele>214.51</ele>
        <time>2020-07-13T04:52:37Z</time>
      </trkpt>
      <trkpt lat="38.9156339038" lon="-6.3474607933">
        <ele>213.07</ele>
        <time>2020-07-13T04:52:43Z</time>
      </trkpt>
      <trkpt lat="38.9155146293" lon="-6.3476995938">
        <ele>211.63</ele>
        <time>2020-07-13T04:52:51Z</time>
      </trkpt>
      <trkpt lat="38.9154334087" lon="-6.3478477858">
        <ele>211.63</ele>
        <time>2020-07-13T04:52:56Z</time>
      </trkpt>
      <trkpt lat="38.9154305588" lon="-6.3478888571">
        <ele>211.63</ele>
        <time>2020-07-13T04:52:58Z</time>
      </trkpt>
      <trkpt lat="38.9154128730" lon="-6.3480440900">
        <ele>213.07</ele>
        <time>2020-07-13T04:53:01Z</time>
      </trkpt>
      <trkpt lat="38.9154353365" lon="-6.3483456708">
        <ele>213.55</ele>
        <time>2020-07-13T04:53:08Z</time>
      </trkpt>
      <trkpt lat="38.9155686926" lon="-6.3485584036">
        <ele>213.07</ele>
        <time>2020-07-13T04:53:16Z</time>
      </trkpt>
      <trkpt lat="38.9157616440" lon="-6.3487666100">
        <ele>213.07</ele>
        <time>2020-07-13T04:53:25Z</time>
      </trkpt>
      <trkpt lat="38.9160228241" lon="-6.3490206655">
        <ele>213.07</ele>
        <time>2020-07-13T04:53:36Z</time>
      </trkpt>
      <trkpt lat="38.9161926415" lon="-6.3491914049">
        <ele>214.51</ele>
        <time>2020-07-13T04:53:44Z</time>
      </trkpt>
      <trkpt lat="38.9163999259" lon="-6.3494078256">
        <ele>217.40</ele>
        <time>2020-07-13T04:53:54Z</time>
      </trkpt>
      <trkpt lat="38.9165895246" lon="-6.3496094104">
        <ele>219.32</ele>
        <time>2020-07-13T04:54:02Z</time>
      </trkpt>
      <trkpt lat="38.9168351144" lon="-6.3498403318">
        <ele>223.16</ele>
        <time>2020-07-13T04:54:13Z</time>
      </trkpt>
      <trkpt lat="38.9170042612" lon="-6.3500381447">
        <ele>224.61</ele>
        <time>2020-07-13T04:54:21Z</time>
      </trkpt>
      <trkpt lat="38.9171733242" lon="-6.3502027653">
        <ele>225.57</ele>
        <time>2020-07-13T04:54:29Z</time>
      </trkpt>
      <trkpt lat="38.9173401240" lon="-6.3503652066">
        <ele>225.09</ele>
        <time>2020-07-13T04:54:37Z</time>
      </trkpt>
      <trkpt lat="38.9174823649" lon="-6.3505712338">
        <ele>224.61</ele>
        <time>2020-07-13T04:54:46Z</time>
      </trkpt>
      <trkpt lat="38.9176223427" lon="-6.3507459126">
        <ele>223.16</ele>
        <time>2020-07-13T04:54:54Z</time>
      </trkpt>
      <trkpt lat="38.9177317265" lon="-6.3507995568">
        <ele>221.72</ele>
        <time>2020-07-13T04:54:59Z</time>
      </trkpt>
      <trkpt lat="38.9178597182" lon="-6.3507449068">
        <ele>221.72</ele>
        <time>2020-07-13T04:55:05Z</time>
      </trkpt>
      <trkpt lat="38.9179247618" lon="-6.3507020753">
        <ele>220.28</ele>
        <time>2020-07-13T04:55:10Z</time>
      </trkpt>
      <trkpt lat="38.9179395977" lon="-6.3507115468">
        <ele>219.80</ele>
        <time>2020-07-13T04:55:11Z</time>
      </trkpt>
      <trkpt lat="38.9179519191" lon="-6.3507287297">
        <ele>219.32</ele>
        <time>2020-07-13T04:55:12Z</time>
      </trkpt>
      <trkpt lat="38.9179885481" lon="-6.3507916778">
        <ele>219.32</ele>
        <time>2020-07-13T04:55:15Z</time>
      </trkpt>
      <trkpt lat="38.9180701040" lon="-6.3508153986">
        <ele>218.84</ele>
        <time>2020-07-13T04:55:21Z</time>
      </trkpt>
      <trkpt lat="38.9181136061" lon="-6.3508551288">
        <ele>218.36</ele>
        <time>2020-07-13T04:55:23Z</time>
      </trkpt>
      <trkpt lat="38.9183671586" lon="-6.3510901574">
        <ele>218.36</ele>
        <time>2020-07-13T04:55:32Z</time>
      </trkpt>
      <trkpt lat="38.9185428433" lon="-6.3512396906">
        <ele>217.88</ele>
        <time>2020-07-13T04:55:40Z</time>
      </trkpt>
      <trkpt lat="38.9187541511" lon="-6.3514431193">
        <ele>218.84</ele>
        <time>2020-07-13T04:55:49Z</time>
      </trkpt>
      <trkpt lat="38.9189683087" lon="-6.3516476378">
        <ele>220.76</ele>
        <time>2020-07-13T04:55:58Z</time>
      </trkpt>
      <trkpt lat="38.9191508666" lon="-6.3518319558">
        <ele>221.24</ele>
        <time>2020-07-13T04:56:06Z</time>
      </trkpt>
      <trkpt lat="38.9191770181" lon="-6.3518441096">
        <ele>221.24</ele>
        <time>2020-07-13T04:56:07Z</time>
      </trkpt>
      <trkpt lat="38.9192106295" lon="-6.3518544193">
        <ele>221.24</ele>
        <time>2020-07-13T04:56:08Z</time>
      </trkpt>
      <trkpt lat="38.9193662815" lon="-6.3519097399">
        <ele>221.72</ele>
        <time>2020-07-13T04:56:15Z</time>
      </trkpt>
      <trkpt lat="38.9194330014" lon="-6.3519768789">
        <ele>222.20</ele>
        <time>2020-07-13T04:56:21Z</time>
      </trkpt>
      <trkpt lat="38.9194476698" lon="-6.3519906253">
        <ele>222.20</ele>
        <time>2020-07-13T04:56:22Z</time>
      </trkpt>
      <trkpt lat="38.9194667805" lon="-6.3520072214">
        <ele>222.68</ele>
        <time>2020-07-13T04:56:23Z</time>
      </trkpt>
      <trkpt lat="38.9194880705" lon="-6.3520255778">
        <ele>223.16</ele>
        <time>2020-07-13T04:56:24Z</time>
      </trkpt>
      <trkpt lat="38.9195080195" lon="-6.3520469517">
        <ele>223.16</ele>
        <time>2020-07-13T04:56:25Z</time>
      </trkpt>
      <trkpt lat="38.9195298962" lon="-6.3520716783">
        <ele>223.16</ele>
        <time>2020-07-13T04:56:26Z</time>
      </trkpt>
      <trkpt lat="38.9197319839" lon="-6.3522263244">
        <ele>223.64</ele>
        <time>2020-07-13T04:56:34Z</time>
      </trkpt>
      <trkpt lat="38.9199663419" lon="-6.3524602633">
        <ele>223.16</ele>
        <time>2020-07-13T04:56:43Z</time>
      </trkpt>
      <trkpt lat="38.9201531745" lon="-6.3526484370">
        <ele>222.68</ele>
        <time>2020-07-13T04:56:51Z</time>
      </trkpt>
      <trkpt lat="38.9201883785" lon="-6.3526814617">
        <ele>222.68</ele>
        <time>2020-07-13T04:56:53Z</time>
      </trkpt>
      <trkpt lat="38.9202044718" lon="-6.3526999857">
        <ele>222.20</ele>
        <time>2020-07-13T04:56:59Z</time>
      </trkpt>
      <trkpt lat="38.9201732073" lon="-6.3527032547">
        <ele>220.76</ele>
        <time>2020-07-13T04:57:05Z</time>
      </trkpt>
      <trkpt lat="38.9201554377" lon="-6.3527116366">
        <ele>221.24</ele>
        <time>2020-07-13T04:57:13Z</time>
      </trkpt>
      <trkpt lat="38.9201399311" lon="-6.3526978064">
        <ele>221.24</ele>
        <time>2020-07-13T04:57:37Z</time>
      </trkpt>
      <trkpt lat="38.9201706089" lon="-6.3526711520">
        <ele>218.84</ele>
        <time>2020-07-13T04:57:49Z</time>
      </trkpt>
      <trkpt lat="38.9201905578" lon="-6.3526797015">
        <ele>217.88</ele>
        <time>2020-07-13T04:58:00Z</time>
      </trkpt>
      <trkpt lat="38.9202410169" lon="-6.3527207728">
        <ele>218.36</ele>
        <time>2020-07-13T04:58:06Z</time>
      </trkpt>
      <trkpt lat="38.9203497302" lon="-6.3528278936">
        <ele>218.36</ele>
        <time>2020-07-13T04:58:13Z</time>
      </trkpt>
      <trkpt lat="38.9205184579" lon="-6.3529838808">
        <ele>218.36</ele>
        <time>2020-07-13T04:58:21Z</time>
      </trkpt>
      <trkpt lat="38.9207088109" lon="-6.3531640917">
        <ele>219.32</ele>
        <time>2020-07-13T04:58:30Z</time>
      </trkpt>
      <trkpt lat="38.9208823163" lon="-6.3533286285">
        <ele>219.32</ele>
        <time>2020-07-13T04:58:38Z</time>
      </trkpt>
      <trkpt lat="38.9211031795" lon="-6.3534629904">
        <ele>218.84</ele>
        <time>2020-07-13T04:58:47Z</time>
      </trkpt>
      <trkpt lat="38.9212939516" lon="-6.3535975199">
        <ele>218.84</ele>
        <time>2020-07-13T04:58:57Z</time>
      </trkpt>
      <trkpt lat="38.9213260543" lon="-6.3535920717">
        <ele>218.84</ele>
        <time>2020-07-13T04:58:59Z</time>
      </trkpt>
      <trkpt lat="38.9213442430" lon="-6.3535721228">
        <ele>218.36</ele>
        <time>2020-07-13T04:59:00Z</time>
      </trkpt>
      <trkpt lat="38.9213564806" lon="-6.3535497431">
        <ele>218.36</ele>
        <time>2020-07-13T04:59:01Z</time>
      </trkpt>
      <trkpt lat="38.9213941153" lon="-6.3534939196">
        <ele>218.36</ele>
        <time>2020-07-13T04:59:04Z</time>
      </trkpt>
      <trkpt lat="38.9214174170" lon="-6.3534857891">
        <ele>217.88</ele>
        <time>2020-07-13T04:59:05Z</time>
      </trkpt>
      <trkpt lat="38.9214479271" lon="-6.3534866273">
        <ele>217.88</ele>
        <time>2020-07-13T04:59:06Z</time>
      </trkpt>
      <trkpt lat="38.9216902480" lon="-6.3534358330">
        <ele>217.40</ele>
        <time>2020-07-13T04:59:13Z</time>
      </trkpt>
      <trkpt lat="38.9218137134" lon="-6.3532071747">
        <ele>216.43</ele>
        <time>2020-07-13T04:59:19Z</time>
      </trkpt>
      <trkpt lat="38.9220348280" lon="-6.3527465891">
        <ele>217.88</ele>
        <time>2020-07-13T04:59:30Z</time>
      </trkpt>
      <trkpt lat="38.9221762307" lon="-6.3524564076">
        <ele>218.36</ele>
        <time>2020-07-13T04:59:37Z</time>
      </trkpt>
      <trkpt lat="38.9223493170" lon="-6.3520472869">
        <ele>217.88</ele>
        <time>2020-07-13T04:59:46Z</time>
      </trkpt>
      <trkpt lat="38.9224678371" lon="-6.3519085664">
        <ele>217.88</ele>
        <time>2020-07-13T04:59:51Z</time>
      </trkpt>
      <trkpt lat="38.9225032926" lon="-6.3519184571">
        <ele>217.40</ele>
        <time>2020-07-13T04:59:52Z</time>
      </trkpt>
      <trkpt lat="38.9226923045" lon="-6.3520000968">
        <ele>216.43</ele>
        <time>2020-07-13T04:59:56Z</time>
      </trkpt>
      <trkpt lat="38.9227651432" lon="-6.3520363066">
        <ele>215.95</ele>
        <time>2020-07-13T04:59:57Z</time>
      </trkpt>
      <trkpt lat="38.9228323661" lon="-6.3520627934">
        <ele>215.47</ele>
        <time>2020-07-13T04:59:58Z</time>
      </trkpt>
      <trkpt lat="38.9232715778" lon="-6.3521679025">
        <ele>214.51</ele>
        <time>2020-07-13T05:00:05Z</time>
      </trkpt>
      <trkpt lat="38.9234814607" lon="-6.3521553297">
        <ele>214.99</ele>
        <time>2020-07-13T05:00:09Z</time>
      </trkpt>
      <trkpt lat="38.9235264715" lon="-6.3521544077">
        <ele>214.99</ele>
        <time>2020-07-13T05:00:10Z</time>
      </trkpt>
      <trkpt lat="38.9235661179" lon="-6.3521445170">
        <ele>214.99</ele>
        <time>2020-07-13T05:00:11Z</time>
      </trkpt>
      <trkpt lat="38.9236056805" lon="-6.3521189522">
        <ele>214.99</ele>
        <time>2020-07-13T05:00:12Z</time>
      </trkpt>
      <trkpt lat="38.9236373641" lon="-6.3520740252">
        <ele>214.99</ele>
        <time>2020-07-13T05:00:13Z</time>
      </trkpt>
      <trkpt lat="38.9236481767" lon="-6.3520279247">
        <ele>214.51</ele>
        <time>2020-07-13T05:00:14Z</time>
      </trkpt>
      <trkpt lat="38.9236476738" lon="-6.3519786391">
        <ele>214.51</ele>
        <time>2020-07-13T05:00:15Z</time>
      </trkpt>
      <trkpt lat="38.9236430638" lon="-6.3519222289">
        <ele>214.51</ele>
        <time>2020-07-13T05:00:16Z</time>
      </trkpt>
      <trkpt lat="38.9236377832" lon="-6.3512557000">
        <ele>212.11</ele>
        <time>2020-07-13T05:00:26Z</time>
      </trkpt>
      <trkpt lat="38.9237081911" lon="-6.3506267220">
        <ele>210.67</ele>
        <time>2020-07-13T05:00:35Z</time>
      </trkpt>
      <trkpt lat="38.9237800241" lon="-6.3502066210">
        <ele>210.19</ele>
        <time>2020-07-13T05:00:42Z</time>
      </trkpt>
      <trkpt lat="38.9237955306" lon="-6.3500353787">
        <ele>210.67</ele>
        <time>2020-07-13T05:00:47Z</time>
      </trkpt>
      <trkpt lat="38.9238212630" lon="-6.3498432655">
        <ele>210.67</ele>
        <time>2020-07-13T05:00:54Z</time>
      </trkpt>
      <trkpt lat="38.9238934312" lon="-6.3496177085">
        <ele>210.67</ele>
        <time>2020-07-13T05:01:01Z</time>
      </trkpt>
      <trkpt lat="38.9240179863" lon="-6.3493382558">
        <ele>211.63</ele>
        <time>2020-07-13T05:01:10Z</time>
      </trkpt>
      <trkpt lat="38.9242216665" lon="-6.3491107710">
        <ele>212.11</ele>
        <time>2020-07-13T05:01:19Z</time>
      </trkpt>
      <trkpt lat="38.9244377520" lon="-6.3490275387">
        <ele>214.03</ele>
        <time>2020-07-13T05:01:27Z</time>
      </trkpt>
      <trkpt lat="38.9244815893" lon="-6.3490117807">
        <ele>215.95</ele>
        <time>2020-07-13T05:01:30Z</time>
      </trkpt>
      <trkpt lat="38.9244876243" lon="-6.3490011357">
        <ele>216.43</ele>
        <time>2020-07-13T05:01:31Z</time>
      </trkpt>
      <trkpt lat="38.9244830981" lon="-6.3489885628">
        <ele>217.40</ele>
        <time>2020-07-13T05:01:32Z</time>
      </trkpt>
      <trkpt lat="38.9244697709" lon="-6.3489755709">
        <ele>217.88</ele>
        <time>2020-07-13T05:01:33Z</time>
      </trkpt>
      <trkpt lat="38.9244545996" lon="-6.3489672728">
        <ele>217.88</ele>
        <time>2020-07-13T05:01:35Z</time>
      </trkpt>
      <trkpt lat="38.9243725408" lon="-6.3489686139">
        <ele>218.36</ele>
        <time>2020-07-13T05:01:42Z</time>
      </trkpt>
      <trkpt lat="38.9243551064" lon="-6.3489819411">
        <ele>217.88</ele>
        <time>2020-07-13T05:01:43Z</time>
      </trkpt>
      <trkpt lat="38.9243336488" lon="-6.3489936758">
        <ele>217.40</ele>
        <time>2020-07-13T05:01:44Z</time>
      </trkpt>
      <trkpt lat="38.9243075810" lon="-6.3490017224">
        <ele>217.40</ele>
        <time>2020-07-13T05:01:45Z</time>
      </trkpt>
      <trkpt lat="38.9242794178" lon="-6.3490112778">
        <ele>216.91</ele>
        <time>2020-07-13T05:01:46Z</time>
      </trkpt>
      <trkpt lat="38.9242490754" lon="-6.3490185700">
        <ele>216.91</ele>
        <time>2020-07-13T05:01:47Z</time>
      </trkpt>
      <trkpt lat="38.9242221694" lon="-6.3490257785">
        <ele>216.91</ele>
        <time>2020-07-13T05:01:48Z</time>
      </trkpt>
      <trkpt lat="38.9241964370" lon="-6.3490365073">
        <ele>216.91</ele>
        <time>2020-07-13T05:01:49Z</time>
      </trkpt>
      <trkpt lat="38.9241701178" lon="-6.3490480743">
        <ele>216.43</ele>
        <time>2020-07-13T05:01:50Z</time>
      </trkpt>
      <trkpt lat="38.9239826985" lon="-6.3491000421">
        <ele>214.99</ele>
        <time>2020-07-13T05:01:59Z</time>
      </trkpt>
      <trkpt lat="38.9239272103" lon="-6.3491094299">
        <ele>214.51</ele>
        <time>2020-07-13T05:02:03Z</time>
      </trkpt>
      <trkpt lat="38.9239162300" lon="-6.3491023052">
        <ele>214.51</ele>
        <time>2020-07-13T05:02:04Z</time>
      </trkpt>
      <trkpt lat="38.9239137992" lon="-6.3490870502">
        <ele>215.47</ele>
        <time>2020-07-13T05:02:11Z</time>
      </trkpt>
      <trkpt lat="38.9239176549" lon="-6.3490948454">
        <ele>214.99</ele>
        <time>2020-07-13T05:02:24Z</time>
      </trkpt>
      <trkpt lat="38.9239109494" lon="-6.3490960188">
        <ele>215.95</ele>
        <time>2020-07-13T05:02:41Z</time>
      </trkpt>
      <trkpt lat="38.9239168167" lon="-6.3491021376">
        <ele>214.99</ele>
        <time>2020-07-13T05:02:55Z</time>
      </trkpt>
      <trkpt lat="38.9239170682" lon="-6.3490959350">
        <ele>216.43</ele>
        <time>2020-07-13T05:03:15Z</time>
      </trkpt>
      <trkpt lat="38.9239015616" lon="-6.3490924984">
        <ele>215.95</ele>
        <time>2020-07-13T05:03:26Z</time>
      </trkpt>
      <trkpt lat="38.9238880668" lon="-6.3490971085">
        <ele>215.47</ele>
        <time>2020-07-13T05:03:27Z</time>
      </trkpt>
      <trkpt lat="38.9238750748" lon="-6.3491054904">
        <ele>214.99</ele>
        <time>2020-07-13T05:03:28Z</time>
      </trkpt>
      <trkpt lat="38.9237480052" lon="-6.3491541054">
        <ele>214.99</ele>
        <time>2020-07-13T05:03:34Z</time>
      </trkpt>
      <trkpt lat="38.9234856516" lon="-6.3492399361">
        <ele>214.99</ele>
        <time>2020-07-13T05:03:43Z</time>
      </trkpt>
      <trkpt lat="38.9230716694" lon="-6.3493798301">
        <ele>216.43</ele>
        <time>2020-07-13T05:03:56Z</time>
      </trkpt>
      <trkpt lat="38.9230142534" lon="-6.3493532594">
        <ele>216.43</ele>
        <time>2020-07-13T05:03:58Z</time>
      </trkpt>
      <trkpt lat="38.9229963161" lon="-6.3493212406">
        <ele>216.91</ele>
        <time>2020-07-13T05:03:59Z</time>
      </trkpt>
      <trkpt lat="38.9229820669" lon="-6.3492850307">
        <ele>216.91</ele>
        <time>2020-07-13T05:04:00Z</time>
      </trkpt>
      <trkpt lat="38.9229663089" lon="-6.3492472284">
        <ele>216.91</ele>
        <time>2020-07-13T05:04:01Z</time>
      </trkpt>
      <trkpt lat="38.9229508024" lon="-6.3492129464">
        <ele>216.91</ele>
        <time>2020-07-13T05:04:02Z</time>
      </trkpt>
      <trkpt lat="38.9227975812" lon="-6.3488402031">
        <ele>216.43</ele>
        <time>2020-07-13T05:04:13Z</time>
      </trkpt>
      <trkpt lat="38.9228614513" lon="-6.3486528676">
        <ele>215.47</ele>
        <time>2020-07-13T05:04:19Z</time>
      </trkpt>
      <trkpt lat="38.9228961524" lon="-6.3486143108">
        <ele>215.47</ele>
        <time>2020-07-13T05:04:24Z</time>
      </trkpt>
      <trkpt lat="38.9229511376" lon="-6.3485753350">
        <ele>215.47</ele>
        <time>2020-07-13T05:04:35Z</time>
      </trkpt>
      <trkpt lat="38.9230161812" lon="-6.3484116364">
        <ele>215.47</ele>
        <time>2020-07-13T05:04:43Z</time>
      </trkpt>
      <trkpt lat="38.9229989983" lon="-6.3483266439">
        <ele>216.43</ele>
        <time>2020-07-13T05:04:50Z</time>
      </trkpt>
      <trkpt lat="38.9230052847" lon="-6.3482540566">
        <ele>216.43</ele>
        <time>2020-07-13T05:05:05Z</time>
      </trkpt>
      <trkpt lat="38.9230457693" lon="-6.3480592612">
        <ele>215.47</ele>
        <time>2020-07-13T05:05:13Z</time>
      </trkpt>
      <trkpt lat="38.9230936300" lon="-6.3478308544">
        <ele>214.03</ele>
        <time>2020-07-13T05:05:22Z</time>
      </trkpt>
      <trkpt lat="38.9231827296" lon="-6.3474729471">
        <ele>213.55</ele>
        <time>2020-07-13T05:05:33Z</time>
      </trkpt>
      <trkpt lat="38.9233043510" lon="-6.3471791614">
        <ele>213.07</ele>
        <time>2020-07-13T05:05:41Z</time>
      </trkpt>
      <trkpt lat="38.9234471787" lon="-6.3469219208">
        <ele>213.07</ele>
        <time>2020-07-13T05:05:49Z</time>
      </trkpt>
      <trkpt lat="38.9236071054" lon="-6.3467297237">
        <ele>213.07</ele>
        <time>2020-07-13T05:05:57Z</time>
      </trkpt>
      <trkpt lat="38.9236308262" lon="-6.3467303105">
        <ele>213.07</ele>
        <time>2020-07-13T05:05:58Z</time>
      </trkpt>
      <trkpt lat="38.9236487634" lon="-6.3467546180">
        <ele>212.59</ele>
        <time>2020-07-13T05:05:59Z</time>
      </trkpt>
      <trkpt lat="38.9236564748" lon="-6.3467790093">
        <ele>212.59</ele>
        <time>2020-07-13T05:06:00Z</time>
      </trkpt>
      <trkpt lat="38.9236628450" lon="-6.3468124531">
        <ele>212.59</ele>
        <time>2020-07-13T05:06:01Z</time>
      </trkpt>
      <trkpt lat="38.9236669522" lon="-6.3468476571">
        <ele>212.59</ele>
        <time>2020-07-13T05:06:02Z</time>
      </trkpt>
      <trkpt lat="38.9236715622" lon="-6.3468850404">
        <ele>212.59</ele>
        <time>2020-07-13T05:06:03Z</time>
      </trkpt>
      <trkpt lat="38.9236765075" lon="-6.3469187357">
        <ele>212.59</ele>
        <time>2020-07-13T05:06:04Z</time>
      </trkpt>
      <trkpt lat="38.9236831293" lon="-6.3469510060">
        <ele>212.59</ele>
        <time>2020-07-13T05:06:05Z</time>
      </trkpt>
      <trkpt lat="38.9237190038" lon="-6.3472281117">
        <ele>212.59</ele>
        <time>2020-07-13T05:06:13Z</time>
      </trkpt>
      <trkpt lat="38.9237244520" lon="-6.3474699296">
        <ele>213.07</ele>
        <time>2020-07-13T05:06:22Z</time>
      </trkpt>
      <trkpt lat="38.9237391204" lon="-6.3477094006">
        <ele>212.59</ele>
        <time>2020-07-13T05:06:30Z</time>
      </trkpt>
      <trkpt lat="38.9237567224" lon="-6.3479649648">
        <ele>211.63</ele>
        <time>2020-07-13T05:06:40Z</time>
      </trkpt>
      <trkpt lat="38.9237684570" lon="-6.3480632845">
        <ele>211.63</ele>
        <time>2020-07-13T05:06:44Z</time>
      </trkpt>
      <trkpt lat="38.9237691276" lon="-6.3480808027">
        <ele>211.15</ele>
        <time>2020-07-13T05:06:45Z</time>
      </trkpt>
      <trkpt lat="38.9237737376" lon="-6.3481243886">
        <ele>211.63</ele>
        <time>2020-07-13T05:06:48Z</time>
      </trkpt>
      <trkpt lat="38.9237523638" lon="-6.3481301721">
        <ele>211.63</ele>
        <time>2020-07-13T05:06:51Z</time>
      </trkpt>
      <trkpt lat="38.9237419702" lon="-6.3480985723">
        <ele>211.15</ele>
        <time>2020-07-13T05:06:54Z</time>
      </trkpt>
      <trkpt lat="38.9237458259" lon="-6.3480844069">
        <ele>211.15</ele>
        <time>2020-07-13T05:06:55Z</time>
      </trkpt>
      <trkpt lat="38.9237526990" lon="-6.3480698224">
        <ele>210.67</ele>
        <time>2020-07-13T05:06:56Z</time>
      </trkpt>
      <trkpt lat="38.9237640984" lon="-6.3480407372">
        <ele>210.67</ele>
        <time>2020-07-13T05:06:58Z</time>
      </trkpt>
      <trkpt lat="38.9237647690" lon="-6.3480221294">
        <ele>210.67</ele>
        <time>2020-07-13T05:06:59Z</time>
      </trkpt>
      <trkpt lat="38.9237632602" lon="-6.3480043598">
        <ele>210.67</ele>
        <time>2020-07-13T05:07:00Z</time>
      </trkpt>
      <trkpt lat="38.9237622544" lon="-6.3479841594">
        <ele>210.67</ele>
        <time>2020-07-13T05:07:01Z</time>
      </trkpt>
      <trkpt lat="38.9237610810" lon="-6.3479679823">
        <ele>210.67</ele>
        <time>2020-07-13T05:07:02Z</time>
      </trkpt>
      <trkpt lat="38.9237424731" lon="-6.3477858435">
        <ele>211.15</ele>
        <time>2020-07-13T05:07:11Z</time>
      </trkpt>
      <trkpt lat="38.9237262122" lon="-6.3475266751">
        <ele>211.63</ele>
        <time>2020-07-13T05:07:22Z</time>
      </trkpt>
      <trkpt lat="38.9237194229" lon="-6.3474469632">
        <ele>213.07</ele>
        <time>2020-07-13T05:07:30Z</time>
      </trkpt>
      <trkpt lat="38.9237226918" lon="-6.3474599551">
        <ele>214.03</ele>
        <time>2020-07-13T05:07:44Z</time>
      </trkpt>
      <trkpt lat="38.9237213507" lon="-6.3473519962">
        <ele>213.07</ele>
        <time>2020-07-13T05:07:52Z</time>
      </trkpt>
      <trkpt lat="38.9236718975" lon="-6.3469485752">
        <ele>211.63</ele>
        <time>2020-07-13T05:08:05Z</time>
      </trkpt>
      <trkpt lat="38.9236584026" lon="-6.3466805220">
        <ele>212.59</ele>
        <time>2020-07-13T05:08:14Z</time>
      </trkpt>
      <trkpt lat="38.9237600751" lon="-6.3465628400">
        <ele>214.03</ele>
        <time>2020-07-13T05:08:21Z</time>
      </trkpt>
      <trkpt lat="38.9238809422" lon="-6.3464877382">
        <ele>215.47</ele>
        <time>2020-07-13T05:08:28Z</time>
      </trkpt>
      <trkpt lat="38.9241331536" lon="-6.3463558070">
        <ele>215.47</ele>
        <time>2020-07-13T05:08:39Z</time>
      </trkpt>
      <trkpt lat="38.9242904820" lon="-6.3463884965">
        <ele>214.99</ele>
        <time>2020-07-13T05:08:45Z</time>
      </trkpt>
      <trkpt lat="38.9244362433" lon="-6.3466673624">
        <ele>214.03</ele>
        <time>2020-07-13T05:08:53Z</time>
      </trkpt>
      <trkpt lat="38.9245710243" lon="-6.3470535167">
        <ele>214.51</ele>
        <time>2020-07-13T05:09:02Z</time>
      </trkpt>
      <trkpt lat="38.9246265963" lon="-6.3473951630">
        <ele>214.51</ele>
        <time>2020-07-13T05:09:10Z</time>
      </trkpt>
      <trkpt lat="38.9246204775" lon="-6.3477512263">
        <ele>214.03</ele>
        <time>2020-07-13T05:09:19Z</time>
      </trkpt>
      <trkpt lat="38.9245399274" lon="-6.3480137475">
        <ele>214.51</ele>
        <time>2020-07-13T05:09:26Z</time>
      </trkpt>
      <trkpt lat="38.9245306235" lon="-6.3483626023">
        <ele>214.51</ele>
        <time>2020-07-13T05:09:34Z</time>
      </trkpt>
      <trkpt lat="38.9246212319" lon="-6.3486991357">
        <ele>215.95</ele>
        <time>2020-07-13T05:09:43Z</time>
      </trkpt>
      <trkpt lat="38.9246537536" lon="-6.3487884030">
        <ele>216.43</ele>
        <time>2020-07-13T05:09:47Z</time>
      </trkpt>
      <trkpt lat="38.9247565996" lon="-6.3487763330">
        <ele>216.43</ele>
        <time>2020-07-13T05:09:53Z</time>
      </trkpt>
      <trkpt lat="38.9248010237" lon="-6.3487580605">
        <ele>216.43</ele>
        <time>2020-07-13T05:09:55Z</time>
      </trkpt>
      <trkpt lat="38.9249550831" lon="-6.3487330824">
        <ele>218.84</ele>
        <time>2020-07-13T05:10:02Z</time>
      </trkpt>
      <trkpt lat="38.9250536542" lon="-6.3487094454">
        <ele>220.76</ele>
        <time>2020-07-13T05:10:07Z</time>
      </trkpt>
      <trkpt lat="38.9251289237" lon="-6.3486053422">
        <ele>222.68</ele>
        <time>2020-07-13T05:10:14Z</time>
      </trkpt>
      <trkpt lat="38.9251322765" lon="-6.3485895004">
        <ele>222.68</ele>
        <time>2020-07-13T05:10:15Z</time>
      </trkpt>
      <trkpt lat="38.9251373895" lon="-6.3484545518">
        <ele>221.24</ele>
        <time>2020-07-13T05:10:21Z</time>
      </trkpt>
      <trkpt lat="38.9251699951" lon="-6.3483429048">
        <ele>220.28</ele>
        <time>2020-07-13T05:10:26Z</time>
      </trkpt>
      <trkpt lat="38.9252420794" lon="-6.3480988238">
        <ele>219.32</ele>
        <time>2020-07-13T05:10:37Z</time>
      </trkpt>
      <trkpt lat="38.9252628665" lon="-6.3480394799">
        <ele>218.36</ele>
        <time>2020-07-13T05:10:43Z</time>
      </trkpt>
      <trkpt lat="38.9252702426" lon="-6.3480332773">
        <ele>217.88</ele>
        <time>2020-07-13T05:10:52Z</time>
      </trkpt>
      <trkpt lat="38.9252800494" lon="-6.3480083831">
        <ele>217.40</ele>
        <time>2020-07-13T05:10:55Z</time>
      </trkpt>
      <trkpt lat="38.9253230486" lon="-6.3480496220">
        <ele>217.40</ele>
        <time>2020-07-13T05:11:00Z</time>
      </trkpt>
      <trkpt lat="38.9253177680" lon="-6.3481639512">
        <ele>216.91</ele>
        <time>2020-07-13T05:11:03Z</time>
      </trkpt>
      <trkpt lat="38.9254007488" lon="-6.3484008238">
        <ele>217.40</ele>
        <time>2020-07-13T05:11:09Z</time>
      </trkpt>
      <trkpt lat="38.9255398046" lon="-6.3486044202">
        <ele>218.36</ele>
        <time>2020-07-13T05:11:16Z</time>
      </trkpt>
      <trkpt lat="38.9257237036" lon="-6.3485592417">
        <ele>219.32</ele>
        <time>2020-07-13T05:11:21Z</time>
      </trkpt>
      <trkpt lat="38.9260608237" lon="-6.3484986406">
        <ele>221.24</ele>
        <time>2020-07-13T05:11:31Z</time>
      </trkpt>
      <trkpt lat="38.9262790047" lon="-6.3485532068">
        <ele>222.20</ele>
        <time>2020-07-13T05:11:38Z</time>
      </trkpt>
      <trkpt lat="38.9263265301" lon="-6.3486262131">
        <ele>221.72</ele>
        <time>2020-07-13T05:11:40Z</time>
      </trkpt>
      <trkpt lat="38.9263644163" lon="-6.3489043247">
        <ele>219.80</ele>
        <time>2020-07-13T05:11:45Z</time>
      </trkpt>
      <trkpt lat="38.9263903163" lon="-6.3489625789">
        <ele>219.32</ele>
        <time>2020-07-13T05:11:46Z</time>
      </trkpt>
      <trkpt lat="38.9264370035" lon="-6.3490070868">
        <ele>219.80</ele>
        <time>2020-07-13T05:11:47Z</time>
      </trkpt>
      <trkpt lat="38.9264738001" lon="-6.3490249403">
        <ele>220.28</ele>
        <time>2020-07-13T05:11:48Z</time>
      </trkpt>
      <trkpt lat="38.9265193138" lon="-6.3490417041">
        <ele>220.76</ele>
        <time>2020-07-13T05:11:49Z</time>
      </trkpt>
      <trkpt lat="38.9265600499" lon="-6.3490500022">
        <ele>221.24</ele>
        <time>2020-07-13T05:11:50Z</time>
      </trkpt>
      <trkpt lat="38.9266032167" lon="-6.3490526844">
        <ele>222.20</ele>
        <time>2020-07-13T05:11:51Z</time>
      </trkpt>
      <trkpt lat="38.9266842697" lon="-6.3490590546">
        <ele>223.16</ele>
        <time>2020-07-13T05:11:53Z</time>
      </trkpt>
      <trkpt lat="38.9271441009" lon="-6.3491513394">
        <ele>228.45</ele>
        <time>2020-07-13T05:12:04Z</time>
      </trkpt>
      <trkpt lat="38.9275804628" lon="-6.3492168859">
        <ele>230.85</ele>
        <time>2020-07-13T05:12:15Z</time>
      </trkpt>
      <trkpt lat="38.9279843029" lon="-6.3493139483">
        <ele>233.26</ele>
        <time>2020-07-13T05:12:26Z</time>
      </trkpt>
      <trkpt lat="38.9283737261" lon="-6.3494151179">
        <ele>233.26</ele>
        <time>2020-07-13T05:12:37Z</time>
      </trkpt>
      <trkpt lat="38.9288462978" lon="-6.3495424390">
        <ele>231.33</ele>
        <time>2020-07-13T05:12:51Z</time>
      </trkpt>
      <trkpt lat="38.9291908778" lon="-6.3496224023">
        <ele>231.81</ele>
        <time>2020-07-13T05:13:02Z</time>
      </trkpt>
      <trkpt lat="38.9294917043" lon="-6.3497048803">
        <ele>231.81</ele>
        <time>2020-07-13T05:13:12Z</time>
      </trkpt>
      <trkpt lat="38.9297183510" lon="-6.3498100732">
        <ele>231.81</ele>
        <time>2020-07-13T05:13:20Z</time>
      </trkpt>
      <trkpt lat="38.9298983943" lon="-6.3498222269">
        <ele>232.30</ele>
        <time>2020-07-13T05:13:26Z</time>
      </trkpt>
      <trkpt lat="38.9301247057" lon="-6.3498340454">
        <ele>231.81</ele>
        <time>2020-07-13T05:13:33Z</time>
      </trkpt>
      <trkpt lat="38.9302176610" lon="-6.3500392344">
        <ele>230.85</ele>
        <time>2020-07-13T05:13:38Z</time>
      </trkpt>
      <trkpt lat="38.9303005580" lon="-6.3502629474">
        <ele>229.89</ele>
        <time>2020-07-13T05:13:43Z</time>
      </trkpt>
      <trkpt lat="38.9303330798" lon="-6.3502877578">
        <ele>229.41</ele>
        <time>2020-07-13T05:13:44Z</time>
      </trkpt>
      <trkpt lat="38.9306727145" lon="-6.3505321741">
        <ele>228.93</ele>
        <time>2020-07-13T05:13:54Z</time>
      </trkpt>
      <trkpt lat="38.9309701882" lon="-6.3507217728">
        <ele>230.85</ele>
        <time>2020-07-13T05:14:03Z</time>
      </trkpt>
      <trkpt lat="38.9312506467" lon="-6.3508956973">
        <ele>232.30</ele>
        <time>2020-07-13T05:14:12Z</time>
      </trkpt>
      <trkpt lat="38.9316184446" lon="-6.3511175662">
        <ele>233.74</ele>
        <time>2020-07-13T05:14:23Z</time>
      </trkpt>
      <trkpt lat="38.9319232106" lon="-6.3512955140">
        <ele>234.70</ele>
        <time>2020-07-13T05:14:32Z</time>
      </trkpt>
      <trkpt lat="38.9322587382" lon="-6.3514535129">
        <ele>237.10</ele>
        <time>2020-07-13T05:14:43Z</time>
      </trkpt>
      <trkpt lat="38.9326034859" lon="-6.3515596278">
        <ele>239.51</ele>
        <time>2020-07-13T05:14:54Z</time>
      </trkpt>
      <trkpt lat="38.9329391811" lon="-6.3516476378">
        <ele>239.99</ele>
        <time>2020-07-13T05:15:03Z</time>
      </trkpt>
      <trkpt lat="38.9331854414" lon="-6.3517035451">
        <ele>240.95</ele>
        <time>2020-07-13T05:15:10Z</time>
      </trkpt>
      <trkpt lat="38.9336190373" lon="-6.3518047985">
        <ele>239.99</ele>
        <time>2020-07-13T05:15:22Z</time>
      </trkpt>
      <trkpt lat="38.9339543134" lon="-6.3518787269">
        <ele>240.47</ele>
        <time>2020-07-13T05:15:32Z</time>
      </trkpt>
      <trkpt lat="38.9342168346" lon="-6.3519081473">
        <ele>242.87</ele>
        <time>2020-07-13T05:15:41Z</time>
      </trkpt>
      <trkpt lat="38.9345076866" lon="-6.3519005198">
        <ele>244.31</ele>
        <time>2020-07-13T05:15:52Z</time>
      </trkpt>
      <trkpt lat="38.9347619098" lon="-6.3518658187">
        <ele>244.79</ele>
        <time>2020-07-13T05:16:02Z</time>
      </trkpt>
      <trkpt lat="38.9350675140" lon="-6.3518348057">
        <ele>244.79</ele>
        <time>2020-07-13T05:16:14Z</time>
      </trkpt>
      <trkpt lat="38.9354042150" lon="-6.3518379908">
        <ele>246.23</ele>
        <time>2020-07-13T05:16:27Z</time>
      </trkpt>
      <trkpt lat="38.9356851764" lon="-6.3518799003">
        <ele>247.68</ele>
        <time>2020-07-13T05:16:38Z</time>
      </trkpt>
      <trkpt lat="38.9359088894" lon="-6.3519292697">
        <ele>250.08</ele>
        <time>2020-07-13T05:16:47Z</time>
      </trkpt>
      <trkpt lat="38.9361758530" lon="-6.3519857638">
        <ele>252.00</ele>
        <time>2020-07-13T05:16:58Z</time>
      </trkpt>
      <trkpt lat="38.9362471830" lon="-6.3519515656">
        <ele>251.04</ele>
        <time>2020-07-13T05:17:05Z</time>
      </trkpt>
      <trkpt lat="38.9362648688" lon="-6.3519421779">
        <ele>250.56</ele>
        <time>2020-07-13T05:17:11Z</time>
      </trkpt>
      <trkpt lat="38.9362776093" lon="-6.3519307785">
        <ele>250.08</ele>
        <time>2020-07-13T05:17:12Z</time>
      </trkpt>
      <trkpt lat="38.9362952113" lon="-6.3519156910">
        <ele>250.08</ele>
        <time>2020-07-13T05:17:13Z</time>
      </trkpt>
      <trkpt lat="38.9363132324" lon="-6.3518990111">
        <ele>250.08</ele>
        <time>2020-07-13T05:17:14Z</time>
      </trkpt>
      <trkpt lat="38.9363321755" lon="-6.3518802356">
        <ele>250.08</ele>
        <time>2020-07-13T05:17:15Z</time>
      </trkpt>
      <trkpt lat="38.9363532141" lon="-6.3518623821">
        <ele>250.08</ele>
        <time>2020-07-13T05:17:16Z</time>
      </trkpt>
      <trkpt lat="38.9363778569" lon="-6.3518480491">
        <ele>250.08</ele>
        <time>2020-07-13T05:17:17Z</time>
      </trkpt>
      <trkpt lat="38.9364192635" lon="-6.3518306147">
        <ele>250.08</ele>
        <time>2020-07-13T05:17:19Z</time>
      </trkpt>
      <trkpt lat="38.9366102032" lon="-6.3518701773">
        <ele>250.08</ele>
        <time>2020-07-13T05:17:25Z</time>
      </trkpt>
      <trkpt lat="38.9367496781" lon="-6.3520729356">
        <ele>249.60</ele>
        <time>2020-07-13T05:17:32Z</time>
      </trkpt>
      <trkpt lat="38.9368765801" lon="-6.3521839119">
        <ele>249.60</ele>
        <time>2020-07-13T05:17:38Z</time>
      </trkpt>
      <trkpt lat="38.9369867183" lon="-6.3521927129">
        <ele>250.56</ele>
        <time>2020-07-13T05:17:45Z</time>
      </trkpt>
      <trkpt lat="38.9369896520" lon="-6.3521929644">
        <ele>249.12</ele>
        <time>2020-07-13T05:17:59Z</time>
      </trkpt>
      <trkpt lat="38.9369901549" lon="-6.3521840796">
        <ele>250.08</ele>
        <time>2020-07-13T05:18:12Z</time>
      </trkpt>
      <trkpt lat="38.9370210003" lon="-6.3521969039">
        <ele>249.60</ele>
        <time>2020-07-13T05:18:20Z</time>
      </trkpt>
      <trkpt lat="38.9371801727" lon="-6.3522273302">
        <ele>251.04</ele>
        <time>2020-07-13T05:18:27Z</time>
      </trkpt>
      <trkpt lat="38.9374430291" lon="-6.3522872608">
        <ele>253.93</ele>
        <time>2020-07-13T05:18:38Z</time>
      </trkpt>
      <trkpt lat="38.9376935642" lon="-6.3523461018">
        <ele>254.89</ele>
        <time>2020-07-13T05:18:48Z</time>
      </trkpt>
      <trkpt lat="38.9379262459" lon="-6.3524194434">
        <ele>255.85</ele>
        <time>2020-07-13T05:18:57Z</time>
      </trkpt>
      <trkpt lat="38.9382229652" lon="-6.3525072858">
        <ele>256.33</ele>
        <time>2020-07-13T05:19:08Z</time>
      </trkpt>
      <trkpt lat="38.9384144917" lon="-6.3525594212">
        <ele>256.81</ele>
        <time>2020-07-13T05:19:16Z</time>
      </trkpt>
      <trkpt lat="38.9387429785" lon="-6.3526569866">
        <ele>258.25</ele>
        <time>2020-07-13T05:19:28Z</time>
      </trkpt>
      <trkpt lat="38.9390086010" lon="-6.3527384587">
        <ele>259.69</ele>
        <time>2020-07-13T05:19:38Z</time>
      </trkpt>
      <trkpt lat="38.9392641652" lon="-6.3528074417">
        <ele>260.17</ele>
        <time>2020-07-13T05:19:48Z</time>
      </trkpt>
      <trkpt lat="38.9395541791" lon="-6.3528839685">
        <ele>261.62</ele>
        <time>2020-07-13T05:20:00Z</time>
      </trkpt>
      <trkpt lat="38.9397833403" lon="-6.3529579807">
        <ele>262.58</ele>
        <time>2020-07-13T05:20:10Z</time>
      </trkpt>
      <trkpt lat="38.9400210511" lon="-6.3530500140">
        <ele>263.54</ele>
        <time>2020-07-13T05:20:20Z</time>
      </trkpt>
      <trkpt lat="38.9402083866" lon="-6.3531250320">
        <ele>264.02</ele>
        <time>2020-07-13T05:20:28Z</time>
      </trkpt>
      <trkpt lat="38.9404589217" lon="-6.3532373495">
        <ele>264.50</ele>
        <time>2020-07-13T05:20:38Z</time>
      </trkpt>
      <trkpt lat="38.9407077804" lon="-6.3533418719">
        <ele>265.46</ele>
        <time>2020-07-13T05:20:48Z</time>
      </trkpt>
      <trkpt lat="38.9409336727" lon="-6.3534311391">
        <ele>266.42</ele>
        <time>2020-07-13T05:20:57Z</time>
      </trkpt>
      <trkpt lat="38.9411609899" lon="-6.3535111025">
        <ele>266.42</ele>
        <time>2020-07-13T05:21:06Z</time>
      </trkpt>
      <trkpt lat="38.9414132014" lon="-6.3535860367">
        <ele>267.38</ele>
        <time>2020-07-13T05:21:16Z</time>
      </trkpt>
      <trkpt lat="38.9415975194" lon="-6.3536430337">
        <ele>268.35</ele>
        <time>2020-07-13T05:21:24Z</time>
      </trkpt>
      <trkpt lat="38.9418348949" lon="-6.3537021261">
        <ele>269.31</ele>
        <time>2020-07-13T05:21:33Z</time>
      </trkpt>
      <trkpt lat="38.9421389066" lon="-6.3537843525">
        <ele>269.79</ele>
        <time>2020-07-13T05:21:44Z</time>
      </trkpt>
      <trkpt lat="38.9424610231" lon="-6.3538545929">
        <ele>270.75</ele>
        <time>2020-07-13T05:21:56Z</time>
      </trkpt>
      <trkpt lat="38.9427688904" lon="-6.3539209776">
        <ele>270.27</ele>
        <time>2020-07-13T05:22:07Z</time>
      </trkpt>
      <trkpt lat="38.9430083614" lon="-6.3539866917">
        <ele>268.83</ele>
        <time>2020-07-13T05:22:16Z</time>
      </trkpt>
      <trkpt lat="38.9433037397" lon="-6.3540611230">
        <ele>267.86</ele>
        <time>2020-07-13T05:22:25Z</time>
      </trkpt>
      <trkpt lat="38.9435828570" lon="-6.3541239034">
        <ele>267.38</ele>
        <time>2020-07-13T05:22:33Z</time>
      </trkpt>
      <trkpt lat="38.9440135192" lon="-6.3542227261">
        <ele>265.94</ele>
        <time>2020-07-13T05:22:44Z</time>
      </trkpt>
      <trkpt lat="38.9444819000" lon="-6.3543776236">
        <ele>264.02</ele>
        <time>2020-07-13T05:22:56Z</time>
      </trkpt>
      <trkpt lat="38.9448274858" lon="-6.3544957247">
        <ele>264.50</ele>
        <time>2020-07-13T05:23:05Z</time>
      </trkpt>
      <trkpt lat="38.9451988041" lon="-6.3546514604">
        <ele>264.50</ele>
        <time>2020-07-13T05:23:14Z</time>
      </trkpt>
      <trkpt lat="38.9456127863" lon="-6.3548378740">
        <ele>265.94</ele>
        <time>2020-07-13T05:23:25Z</time>
      </trkpt>
      <trkpt lat="38.9459805842" lon="-6.3550056797">
        <ele>267.38</ele>
        <time>2020-07-13T05:23:36Z</time>
      </trkpt>
      <trkpt lat="38.9463199675" lon="-6.3550416380">
        <ele>269.79</ele>
        <time>2020-07-13T05:23:46Z</time>
      </trkpt>
      <trkpt lat="38.9466764499" lon="-6.3549729902">
        <ele>269.79</ele>
        <time>2020-07-13T05:23:57Z</time>
      </trkpt>
      <trkpt lat="38.9470684715" lon="-6.3548631035">
        <ele>270.27</ele>
        <time>2020-07-13T05:24:09Z</time>
      </trkpt>
      <trkpt lat="38.9474161528" lon="-6.3547905162">
        <ele>270.75</ele>
        <time>2020-07-13T05:24:20Z</time>
      </trkpt>
      <trkpt lat="38.9478060789" lon="-6.3547890075">
        <ele>271.71</ele>
        <time>2020-07-13T05:24:31Z</time>
      </trkpt>
      <trkpt lat="38.9481567778" lon="-6.3548004068">
        <ele>273.15</ele>
        <time>2020-07-13T05:24:42Z</time>
      </trkpt>
      <trkpt lat="38.9484884497" lon="-6.3547891751">
        <ele>276.52</ele>
        <time>2020-07-13T05:24:53Z</time>
      </trkpt>
      <trkpt lat="38.9487296809" lon="-6.3547983952">
        <ele>277.96</ele>
        <time>2020-07-13T05:25:03Z</time>
      </trkpt>
      <trkpt lat="38.9489065390" lon="-6.3548083697">
        <ele>279.40</ele>
        <time>2020-07-13T05:25:11Z</time>
      </trkpt>
      <trkpt lat="38.9491673000" lon="-6.3548273128">
        <ele>280.36</ele>
        <time>2020-07-13T05:25:22Z</time>
      </trkpt>
      <trkpt lat="38.9493904263" lon="-6.3548633549">
        <ele>280.84</ele>
        <time>2020-07-13T05:25:31Z</time>
      </trkpt>
      <trkpt lat="38.9496458229" lon="-6.3549614232">
        <ele>280.84</ele>
        <time>2020-07-13T05:25:42Z</time>
      </trkpt>
      <trkpt lat="38.9498997945" lon="-6.3550850563">
        <ele>281.32</ele>
        <time>2020-07-13T05:25:53Z</time>
      </trkpt>
      <trkpt lat="38.9501207415" lon="-6.3552059233">
        <ele>282.28</ele>
        <time>2020-07-13T05:26:03Z</time>
      </trkpt>
      <trkpt lat="38.9503567759" lon="-6.3553391956">
        <ele>282.77</ele>
        <time>2020-07-13T05:26:14Z</time>
      </trkpt>
      <trkpt lat="38.9505499788" lon="-6.3554445561">
        <ele>282.77</ele>
        <time>2020-07-13T05:26:23Z</time>
      </trkpt>
      <trkpt lat="38.9507236518" lon="-6.3555440493">
        <ele>283.73</ele>
        <time>2020-07-13T05:26:32Z</time>
      </trkpt>
      <trkpt lat="38.9508352987" lon="-6.3555808458">
        <ele>284.69</ele>
        <time>2020-07-13T05:26:39Z</time>
      </trkpt>
      <trkpt lat="38.9510663040" lon="-6.3556577079">
        <ele>285.65</ele>
        <time>2020-07-13T05:26:51Z</time>
      </trkpt>
      <trkpt lat="38.9512861613" lon="-6.3557572849">
        <ele>286.13</ele>
        <time>2020-07-13T05:27:03Z</time>
      </trkpt>
      <trkpt lat="38.9514828846" lon="-6.3558390085">
        <ele>287.57</ele>
        <time>2020-07-13T05:27:14Z</time>
      </trkpt>
      <trkpt lat="38.9516599104" lon="-6.3559224922">
        <ele>288.05</ele>
        <time>2020-07-13T05:27:24Z</time>
      </trkpt>
      <trkpt lat="38.9518060908" lon="-6.3559952471">
        <ele>289.01</ele>
        <time>2020-07-13T05:27:32Z</time>
      </trkpt>
      <trkpt lat="38.9519335795" lon="-6.3560574409">
        <ele>289.49</ele>
        <time>2020-07-13T05:27:40Z</time>
      </trkpt>
      <trkpt lat="38.9521065820" lon="-6.3561356440">
        <ele>290.46</ele>
        <time>2020-07-13T05:27:50Z</time>
      </trkpt>
      <trkpt lat="38.9522728790" lon="-6.3562187925">
        <ele>291.90</ele>
        <time>2020-07-13T05:28:00Z</time>
      </trkpt>
      <trkpt lat="38.9524397627" lon="-6.3562983368">
        <ele>293.34</ele>
        <time>2020-07-13T05:28:10Z</time>
      </trkpt>
      <trkpt lat="38.9525358193" lon="-6.3563446887">
        <ele>293.82</ele>
        <time>2020-07-13T05:28:17Z</time>
      </trkpt>
      <trkpt lat="38.9527171198" lon="-6.3564208802">
        <ele>295.26</ele>
        <time>2020-07-13T05:28:28Z</time>
      </trkpt>
      <trkpt lat="38.9528930560" lon="-6.3565056212">
        <ele>296.70</ele>
        <time>2020-07-13T05:28:39Z</time>
      </trkpt>
      <trkpt lat="38.9530413318" lon="-6.3565715030">
        <ele>298.15</ele>
        <time>2020-07-13T05:28:48Z</time>
      </trkpt>
      <trkpt lat="38.9531423338" lon="-6.3566142507">
        <ele>299.11</ele>
        <time>2020-07-13T05:28:54Z</time>
      </trkpt>
      <trkpt lat="38.9532891009" lon="-6.3566772826">
        <ele>300.07</ele>
        <time>2020-07-13T05:29:03Z</time>
      </trkpt>
      <trkpt lat="38.9534885902" lon="-6.3567521330">
        <ele>301.51</ele>
        <time>2020-07-13T05:29:15Z</time>
      </trkpt>
      <trkpt lat="38.9537036698" lon="-6.3568278216">
        <ele>302.47</ele>
        <time>2020-07-13T05:29:27Z</time>
      </trkpt>
      <trkpt lat="38.9538123831" lon="-6.3568381313">
        <ele>303.43</ele>
        <time>2020-07-13T05:29:34Z</time>
      </trkpt>
      <trkpt lat="38.9539686218" lon="-6.3567880075">
        <ele>303.43</ele>
        <time>2020-07-13T05:29:44Z</time>
      </trkpt>
      <trkpt lat="38.9541054983" lon="-6.3567170966">
        <ele>303.43</ele>
        <time>2020-07-13T05:29:52Z</time>
      </trkpt>
      <trkpt lat="38.9542774949" lon="-6.3566519693">
        <ele>304.39</ele>
        <time>2020-07-13T05:30:02Z</time>
      </trkpt>
      <trkpt lat="38.9544179756" lon="-6.3566752709">
        <ele>304.88</ele>
        <time>2020-07-13T05:30:09Z</time>
      </trkpt>
      <trkpt lat="38.9545816742" lon="-6.3567550667">
        <ele>305.36</ele>
        <time>2020-07-13T05:30:18Z</time>
      </trkpt>
      <trkpt lat="38.9546510763" lon="-6.3569441624">
        <ele>304.88</ele>
        <time>2020-07-13T05:30:26Z</time>
      </trkpt>
      <trkpt lat="38.9547964185" lon="-6.3571041729">
        <ele>302.95</ele>
        <time>2020-07-13T05:30:32Z</time>
      </trkpt>
      <trkpt lat="38.9548369870" lon="-6.3571224455">
        <ele>302.47</ele>
        <time>2020-07-13T05:30:33Z</time>
      </trkpt>
      <trkpt lat="38.9548749570" lon="-6.3571330067">
        <ele>302.47</ele>
        <time>2020-07-13T05:30:34Z</time>
      </trkpt>
      <trkpt lat="38.9549239911" lon="-6.3571412209">
        <ele>302.47</ele>
        <time>2020-07-13T05:30:35Z</time>
      </trkpt>
      <trkpt lat="38.9549779706" lon="-6.3571516983">
        <ele>301.99</ele>
        <time>2020-07-13T05:30:36Z</time>
      </trkpt>
      <trkpt lat="38.9554258157" lon="-6.3572291471">
        <ele>300.07</ele>
        <time>2020-07-13T05:30:43Z</time>
      </trkpt>
      <trkpt lat="38.9559625089" lon="-6.3573302329">
        <ele>295.26</ele>
        <time>2020-07-13T05:30:50Z</time>
      </trkpt>
      <trkpt lat="38.9566126931" lon="-6.3575189095">
        <ele>291.42</ele>
        <time>2020-07-13T05:30:58Z</time>
      </trkpt>
      <trkpt lat="38.9570715185" lon="-6.3578799181">
        <ele>289.01</ele>
        <time>2020-07-13T05:31:04Z</time>
      </trkpt>
      <trkpt lat="38.9574106503" lon="-6.3583496399">
        <ele>286.61</ele>
        <time>2020-07-13T05:31:10Z</time>
      </trkpt>
      <trkpt lat="38.9578562323" lon="-6.3591004908">
        <ele>282.28</ele>
        <time>2020-07-13T05:31:19Z</time>
      </trkpt>
      <trkpt lat="38.9583367668" lon="-6.3599240966">
        <ele>277.48</ele>
        <time>2020-07-13T05:31:28Z</time>
      </trkpt>
      <trkpt lat="38.9587850310" lon="-6.3606832456">
        <ele>271.23</ele>
        <time>2020-07-13T05:31:35Z</time>
      </trkpt>
      <trkpt lat="38.9592136815" lon="-6.3613974676">
        <ele>266.90</ele>
        <time>2020-07-13T05:31:42Z</time>
      </trkpt>
      <trkpt lat="38.9595855027" lon="-6.3620277029">
        <ele>263.54</ele>
        <time>2020-07-13T05:31:49Z</time>
      </trkpt>
      <trkpt lat="38.9600021672" lon="-6.3626343850">
        <ele>259.69</ele>
        <time>2020-07-13T05:31:56Z</time>
      </trkpt>
      <trkpt lat="38.9604101144" lon="-6.3629544899">
        <ele>257.77</ele>
        <time>2020-07-13T05:32:01Z</time>
      </trkpt>
      <trkpt lat="38.9610575326" lon="-6.3632599264">
        <ele>256.81</ele>
        <time>2020-07-13T05:32:09Z</time>
      </trkpt>
      <trkpt lat="38.9614125062" lon="-6.3634175900">
        <ele>256.33</ele>
        <time>2020-07-13T05:32:14Z</time>
      </trkpt>
      <trkpt lat="38.9620861597" lon="-6.3637122978">
        <ele>254.41</ele>
        <time>2020-07-13T05:32:24Z</time>
      </trkpt>
      <trkpt lat="38.9628111105" lon="-6.3640348334">
        <ele>250.08</ele>
        <time>2020-07-13T05:32:33Z</time>
      </trkpt>
      <trkpt lat="38.9634069800" lon="-6.3643009588">
        <ele>247.68</ele>
        <time>2020-07-13T05:32:40Z</time>
      </trkpt>
      <trkpt lat="38.9636175334" lon="-6.3643705286">
        <ele>247.20</ele>
        <time>2020-07-13T05:32:43Z</time>
      </trkpt>
      <trkpt lat="38.9636975806" lon="-6.3643625658">
        <ele>247.20</ele>
        <time>2020-07-13T05:32:44Z</time>
      </trkpt>
      <trkpt lat="38.9637598582" lon="-6.3643478137">
        <ele>247.20</ele>
        <time>2020-07-13T05:32:45Z</time>
      </trkpt>
      <trkpt lat="38.9639136661" lon="-6.3643176388">
        <ele>247.20</ele>
        <time>2020-07-13T05:32:48Z</time>
      </trkpt>
      <trkpt lat="38.9639517199" lon="-6.3643216621">
        <ele>247.20</ele>
        <time>2020-07-13T05:32:49Z</time>
      </trkpt>
      <trkpt lat="38.9639850799" lon="-6.3643333130">
        <ele>247.68</ele>
        <time>2020-07-13T05:32:50Z</time>
      </trkpt>
      <trkpt lat="38.9640054479" lon="-6.3643439580">
        <ele>247.68</ele>
        <time>2020-07-13T05:32:51Z</time>
      </trkpt>
      <trkpt lat="38.9640186913" lon="-6.3643558603">
        <ele>247.68</ele>
        <time>2020-07-13T05:32:52Z</time>
      </trkpt>
      <trkpt lat="38.9640359581" lon="-6.3643717859">
        <ele>247.68</ele>
        <time>2020-07-13T05:32:53Z</time>
      </trkpt>
      <trkpt lat="38.9641815517" lon="-6.3645577803">
        <ele>246.72</ele>
        <time>2020-07-13T05:33:00Z</time>
      </trkpt>
      <trkpt lat="38.9643346891" lon="-6.3647047989">
        <ele>246.23</ele>
        <time>2020-07-13T05:33:08Z</time>
      </trkpt>
      <trkpt lat="38.9646401256" lon="-6.3648476265">
        <ele>246.72</ele>
        <time>2020-07-13T05:33:19Z</time>
      </trkpt>
      <trkpt lat="38.9648922533" lon="-6.3649730198">
        <ele>247.20</ele>
        <time>2020-07-13T05:33:29Z</time>
      </trkpt>
      <trkpt lat="38.9651694428" lon="-6.3650756981">
        <ele>250.56</ele>
        <time>2020-07-13T05:33:40Z</time>
      </trkpt>
      <trkpt lat="38.9653892163" lon="-6.3651706651">
        <ele>252.96</ele>
        <time>2020-07-13T05:33:49Z</time>
      </trkpt>
      <trkpt lat="38.9656673279" lon="-6.3652799651">
        <ele>253.44</ele>
        <time>2020-07-13T05:33:58Z</time>
      </trkpt>
      <trkpt lat="38.9660233911" lon="-6.3654295821">
        <ele>256.33</ele>
        <time>2020-07-13T05:34:09Z</time>
      </trkpt>
      <trkpt lat="38.9663667139" lon="-6.3656448293">
        <ele>257.29</ele>
        <time>2020-07-13T05:34:19Z</time>
      </trkpt>
      <trkpt lat="38.9666356053" lon="-6.3659147266">
        <ele>256.33</ele>
        <time>2020-07-13T05:34:28Z</time>
      </trkpt>
      <trkpt lat="38.9667009842" lon="-6.3659481704">
        <ele>256.33</ele>
        <time>2020-07-13T05:34:30Z</time>
      </trkpt>
      <trkpt lat="38.9667334221" lon="-6.3659453206">
        <ele>256.33</ele>
        <time>2020-07-13T05:34:31Z</time>
      </trkpt>
      <trkpt lat="38.9669768326" lon="-6.3659502659">
        <ele>256.81</ele>
        <time>2020-07-13T05:34:39Z</time>
      </trkpt>
      <trkpt lat="38.9671394415" lon="-6.3660775870">
        <ele>256.33</ele>
        <time>2020-07-13T05:34:46Z</time>
      </trkpt>
      <trkpt lat="38.9672033954" lon="-6.3661216758">
        <ele>255.85</ele>
        <time>2020-07-13T05:34:50Z</time>
      </trkpt>
      <trkpt lat="38.9672138728" lon="-6.3661226816">
        <ele>255.37</ele>
        <time>2020-07-13T05:34:55Z</time>
      </trkpt>
      <trkpt lat="38.9672220871" lon="-6.3661201671">
        <ele>253.93</ele>
        <time>2020-07-13T05:35:12Z</time>
      </trkpt>
      <trkpt lat="38.9672228415" lon="-6.3661007211">
        <ele>252.96</ele>
        <time>2020-07-13T05:35:20Z</time>
      </trkpt>
      <trkpt lat="38.9672189020" lon="-6.3660905790">
        <ele>252.48</ele>
        <time>2020-07-13T05:35:21Z</time>
      </trkpt>
      <trkpt lat="38.9672046527" lon="-6.3660743181">
        <ele>252.48</ele>
        <time>2020-07-13T05:35:23Z</time>
      </trkpt>
      <trkpt lat="38.9671945106" lon="-6.3660687860">
        <ele>252.48</ele>
        <time>2020-07-13T05:35:24Z</time>
      </trkpt>
      <trkpt lat="38.9671626594" lon="-6.3660495076">
        <ele>252.48</ele>
        <time>2020-07-13T05:35:27Z</time>
      </trkpt>
      <trkpt lat="38.9671277907" lon="-6.3659435604">
        <ele>252.48</ele>
        <time>2020-07-13T05:35:35Z</time>
      </trkpt>
      <trkpt lat="38.9671513438" lon="-6.3659247849">
        <ele>252.48</ele>
        <time>2020-07-13T05:35:38Z</time>
      </trkpt>
      <trkpt lat="38.9671893977" lon="-6.3659268804">
        <ele>251.52</ele>
        <time>2020-07-13T05:35:47Z</time>
      </trkpt>
      <trkpt lat="38.9671911579" lon="-6.3659292273">
        <ele>251.04</ele>
        <time>2020-07-13T05:35:49Z</time>
      </trkpt>
      <trkpt lat="38.9672098495" lon="-6.3659641799">
        <ele>252.00</ele>
        <time>2020-07-13T05:35:52Z</time>
      </trkpt>
      <trkpt lat="38.9671886433" lon="-6.3661385234">
        <ele>252.48</ele>
        <time>2020-07-13T05:36:02Z</time>
      </trkpt>
      <trkpt lat="38.9671853743" lon="-6.3661560416">
        <ele>252.48</ele>
        <time>2020-07-13T05:36:03Z</time>
      </trkpt>
      <trkpt lat="38.9671769086" lon="-6.3663312234">
        <ele>253.44</ele>
        <time>2020-07-13T05:36:11Z</time>
      </trkpt>
      <trkpt lat="38.9671431296" lon="-6.3664009608">
        <ele>253.93</ele>
        <time>2020-07-13T05:36:15Z</time>
      </trkpt>
      <trkpt lat="38.9671940077" lon="-6.3664808404">
        <ele>254.41</ele>
        <time>2020-07-13T05:36:22Z</time>
      </trkpt>
      <trkpt lat="38.9672111068" lon="-6.3664876297">
        <ele>254.41</ele>
        <time>2020-07-13T05:36:26Z</time>
      </trkpt>
      <trkpt lat="38.9672244340" lon="-6.3664924912">
        <ele>255.37</ele>
        <time>2020-07-13T05:36:39Z</time>
      </trkpt>
      <trkpt lat="38.9673494082" lon="-6.3666132744">
        <ele>254.89</ele>
        <time>2020-07-13T05:36:48Z</time>
      </trkpt>
      <trkpt lat="38.9675186388" lon="-6.3667759672">
        <ele>254.41</ele>
        <time>2020-07-13T05:36:59Z</time>
      </trkpt>
      <trkpt lat="38.9676938206" lon="-6.3669602852">
        <ele>253.93</ele>
        <time>2020-07-13T05:37:09Z</time>
      </trkpt>
      <trkpt lat="38.9678521547" lon="-6.3670891989">
        <ele>253.44</ele>
        <time>2020-07-13T05:37:19Z</time>
      </trkpt>
      <trkpt lat="38.9680393226" lon="-6.3670779672">
        <ele>254.41</ele>
        <time>2020-07-13T05:37:26Z</time>
      </trkpt>
      <trkpt lat="38.9682612754" lon="-6.3669834193">
        <ele>254.41</ele>
        <time>2020-07-13T05:37:34Z</time>
      </trkpt>
      <trkpt lat="38.9684777800" lon="-6.3668966666">
        <ele>252.96</ele>
        <time>2020-07-13T05:37:43Z</time>
      </trkpt>
      <trkpt lat="38.9685656223" lon="-6.3668556791">
        <ele>252.00</ele>
        <time>2020-07-13T05:37:50Z</time>
      </trkpt>
      <trkpt lat="38.9685581625" lon="-6.3668495603">
        <ele>250.56</ele>
        <time>2020-07-13T05:38:04Z</time>
      </trkpt>
      <trkpt lat="38.9685517084" lon="-6.3668591157">
        <ele>249.60</ele>
        <time>2020-07-13T05:38:22Z</time>
      </trkpt>
      <trkpt lat="38.9685554802" lon="-6.3668567687">
        <ele>250.08</ele>
        <time>2020-07-13T05:38:38Z</time>
      </trkpt>
      <trkpt lat="38.9685616829" lon="-6.3668642286">
        <ele>249.60</ele>
        <time>2020-07-13T05:38:56Z</time>
      </trkpt>
      <trkpt lat="38.9685594197" lon="-6.3668528292">
        <ele>249.60</ele>
        <time>2020-07-13T05:39:15Z</time>
      </trkpt>
      <trkpt lat="38.9685879182" lon="-6.3668501470">
        <ele>249.60</ele>
        <time>2020-07-13T05:39:25Z</time>
      </trkpt>
      <trkpt lat="38.9686030056" lon="-6.3668422680">
        <ele>249.60</ele>
        <time>2020-07-13T05:39:26Z</time>
      </trkpt>
      <trkpt lat="38.9686225355" lon="-6.3668361492">
        <ele>249.12</ele>
        <time>2020-07-13T05:39:27Z</time>
      </trkpt>
      <trkpt lat="38.9688227791" lon="-6.3667517435">
        <ele>249.12</ele>
        <time>2020-07-13T05:39:35Z</time>
      </trkpt>
      <trkpt lat="38.9690785110" lon="-6.3666381687">
        <ele>249.60</ele>
        <time>2020-07-13T05:39:46Z</time>
      </trkpt>
      <trkpt lat="38.9691396151" lon="-6.3666521665">
        <ele>250.08</ele>
        <time>2020-07-13T05:39:52Z</time>
      </trkpt>
      <trkpt lat="38.9691454824" lon="-6.3666704390">
        <ele>249.12</ele>
        <time>2020-07-13T05:39:53Z</time>
      </trkpt>
      <trkpt lat="38.9691540319" lon="-6.3666834310">
        <ele>248.64</ele>
        <time>2020-07-13T05:39:54Z</time>
      </trkpt>
      <trkpt lat="38.9691688679" lon="-6.3666889630">
        <ele>248.64</ele>
        <time>2020-07-13T05:39:55Z</time>
      </trkpt>
      <trkpt lat="38.9691854641" lon="-6.3666855264">
        <ele>248.64</ele>
        <time>2020-07-13T05:39:56Z</time>
      </trkpt>
      <trkpt lat="38.9692033175" lon="-6.3666799944">
        <ele>248.64</ele>
        <time>2020-07-13T05:39:57Z</time>
      </trkpt>
      <trkpt lat="38.9692899026" lon="-6.3666736241">
        <ele>248.64</ele>
        <time>2020-07-13T05:40:03Z</time>
      </trkpt>
      <trkpt lat="38.9692993741" lon="-6.3666896336">
        <ele>248.64</ele>
        <time>2020-07-13T05:40:04Z</time>
      </trkpt>
      <trkpt lat="38.9693049900" lon="-6.3667065650">
        <ele>249.12</ele>
        <time>2020-07-13T05:40:05Z</time>
      </trkpt>
      <trkpt lat="38.9693089295" lon="-6.3667224906">
        <ele>248.64</ele>
        <time>2020-07-13T05:40:06Z</time>
      </trkpt>
      <trkpt lat="38.9693111088" lon="-6.3667492289">
        <ele>248.64</ele>
        <time>2020-07-13T05:40:13Z</time>
      </trkpt>
      <trkpt lat="38.9693432953" lon="-6.3667563535">
        <ele>250.08</ele>
        <time>2020-07-13T05:40:26Z</time>
      </trkpt>
      <trkpt lat="38.9693485759" lon="-6.3667459600">
        <ele>250.08</ele>
        <time>2020-07-13T05:40:27Z</time>
      </trkpt>
      <trkpt lat="38.9693499170" lon="-6.3667323813">
        <ele>250.08</ele>
        <time>2020-07-13T05:40:28Z</time>
      </trkpt>
      <trkpt lat="38.9693524316" lon="-6.3667201437">
        <ele>250.08</ele>
        <time>2020-07-13T05:40:29Z</time>
      </trkpt>
      <trkpt lat="38.9693617355" lon="-6.3667084090">
        <ele>250.08</ele>
        <time>2020-07-13T05:40:30Z</time>
      </trkpt>
      <trkpt lat="38.9693742245" lon="-6.3666974287">
        <ele>250.56</ele>
        <time>2020-07-13T05:40:31Z</time>
      </trkpt>
      <trkpt lat="38.9693880547" lon="-6.3666914776">
        <ele>250.56</ele>
        <time>2020-07-13T05:40:32Z</time>
      </trkpt>
      <trkpt lat="38.9694032259" lon="-6.3666899689">
        <ele>251.04</ele>
        <time>2020-07-13T05:40:33Z</time>
      </trkpt>
      <trkpt lat="38.9694185648" lon="-6.3666924834">
        <ele>251.04</ele>
        <time>2020-07-13T05:40:34Z</time>
      </trkpt>
      <trkpt lat="38.9694354963" lon="-6.3666977640">
        <ele>251.04</ele>
        <time>2020-07-13T05:40:35Z</time>
      </trkpt>
      <trkpt lat="38.9694521762" lon="-6.3667017873">
        <ele>251.04</ele>
        <time>2020-07-13T05:40:36Z</time>
      </trkpt>
      <trkpt lat="38.9694713708" lon="-6.3667052239">
        <ele>251.04</ele>
        <time>2020-07-13T05:40:37Z</time>
      </trkpt>
      <trkpt lat="38.9694919903" lon="-6.3667057268">
        <ele>251.04</ele>
        <time>2020-07-13T05:40:38Z</time>
      </trkpt>
      <trkpt lat="38.9696976822" lon="-6.3666749652">
        <ele>251.52</ele>
        <time>2020-07-13T05:40:46Z</time>
      </trkpt>
      <trkpt lat="38.9699520729" lon="-6.3666478917">
        <ele>251.52</ele>
        <time>2020-07-13T05:40:54Z</time>
      </trkpt>
      <trkpt lat="38.9702059608" lon="-6.3665572833">
        <ele>251.52</ele>
        <time>2020-07-13T05:41:02Z</time>
      </trkpt>
      <trkpt lat="38.9702590182" lon="-6.3665316347">
        <ele>251.52</ele>
        <time>2020-07-13T05:41:04Z</time>
      </trkpt>
      <trkpt lat="38.9704656322" lon="-6.3666095026">
        <ele>251.52</ele>
        <time>2020-07-13T05:41:12Z</time>
      </trkpt>
      <trkpt lat="38.9705041051" lon="-6.3666200638">
        <ele>251.52</ele>
        <time>2020-07-13T05:41:14Z</time>
      </trkpt>
      <trkpt lat="38.9705266524" lon="-6.3666126039">
        <ele>251.52</ele>
        <time>2020-07-13T05:41:15Z</time>
      </trkpt>
      <trkpt lat="38.9705504570" lon="-6.3665978517">
        <ele>252.00</ele>
        <time>2020-07-13T05:41:16Z</time>
      </trkpt>
      <trkpt lat="38.9706953801" lon="-6.3665592950">
        <ele>252.00</ele>
        <time>2020-07-13T05:41:22Z</time>
      </trkpt>
      <trkpt lat="38.9709243737" lon="-6.3665292878">
        <ele>252.48</ele>
        <time>2020-07-13T05:41:30Z</time>
      </trkpt>
      <trkpt lat="38.9712571353" lon="-6.3666271046">
        <ele>252.96</ele>
        <time>2020-07-13T05:41:45Z</time>
      </trkpt>
      <trkpt lat="38.9713827800" lon="-6.3666653261">
        <ele>252.96</ele>
        <time>2020-07-13T05:41:52Z</time>
      </trkpt>
      <trkpt lat="38.9715064131" lon="-6.3666672539">
        <ele>253.93</ele>
        <time>2020-07-13T05:41:59Z</time>
      </trkpt>
      <trkpt lat="38.9716116898" lon="-6.3666743785">
        <ele>254.89</ele>
        <time>2020-07-13T05:42:04Z</time>
      </trkpt>
      <trkpt lat="38.9717859495" lon="-6.3666692656">
        <ele>255.37</ele>
        <time>2020-07-13T05:42:12Z</time>
      </trkpt>
      <trkpt lat="38.9718588721" lon="-6.3666532561">
        <ele>254.89</ele>
        <time>2020-07-13T05:42:16Z</time>
      </trkpt>
      <trkpt lat="38.9718806650" lon="-6.3666331396">
        <ele>254.41</ele>
        <time>2020-07-13T05:42:17Z</time>
      </trkpt>
      <trkpt lat="38.9718926512" lon="-6.3666145317">
        <ele>254.41</ele>
        <time>2020-07-13T05:42:18Z</time>
      </trkpt>
      <trkpt lat="38.9719051402" lon="-6.3665991928">
        <ele>254.41</ele>
        <time>2020-07-13T05:42:19Z</time>
      </trkpt>
      <trkpt lat="38.9719223231" lon="-6.3665794954">
        <ele>254.41</ele>
        <time>2020-07-13T05:42:20Z</time>
      </trkpt>
      <trkpt lat="38.9721330442" lon="-6.3663758989">
        <ele>253.44</ele>
        <time>2020-07-13T05:42:29Z</time>
      </trkpt>
      <trkpt lat="38.9723505545" lon="-6.3661818579">
        <ele>252.00</ele>
        <time>2020-07-13T05:42:35Z</time>
      </trkpt>
      <trkpt lat="38.9723827410" lon="-6.3661381043">
        <ele>251.52</ele>
        <time>2020-07-13T05:42:36Z</time>
      </trkpt>
      <trkpt lat="38.9724142570" lon="-6.3660894055">
        <ele>251.52</ele>
        <time>2020-07-13T05:42:37Z</time>
      </trkpt>
      <trkpt lat="38.9725379739" lon="-6.3658513594">
        <ele>251.04</ele>
        <time>2020-07-13T05:42:43Z</time>
      </trkpt>
      <trkpt lat="38.9727201127" lon="-6.3657680433">
        <ele>251.04</ele>
        <time>2020-07-13T05:42:50Z</time>
      </trkpt>
      <trkpt lat="38.9729698934" lon="-6.3657123037">
        <ele>250.56</ele>
        <time>2020-07-13T05:42:59Z</time>
      </trkpt>
      <trkpt lat="38.9731616713" lon="-6.3655593339">
        <ele>250.56</ele>
        <time>2020-07-13T05:43:07Z</time>
      </trkpt>
      <trkpt lat="38.9733002242" lon="-6.3654050231">
        <ele>251.52</ele>
        <time>2020-07-13T05:43:15Z</time>
      </trkpt>
      <trkpt lat="38.9733051695" lon="-6.3654000778">
        <ele>252.00</ele>
        <time>2020-07-13T05:43:24Z</time>
      </trkpt>
      <trkpt lat="38.9733118750" lon="-6.3654013351">
        <ele>251.52</ele>
        <time>2020-07-13T05:43:40Z</time>
      </trkpt>
      <trkpt lat="38.9733089413" lon="-6.3653976470">
        <ele>250.56</ele>
        <time>2020-07-13T05:44:00Z</time>
      </trkpt>
      <trkpt lat="38.9733152278" lon="-6.3653893489">
        <ele>251.04</ele>
        <time>2020-07-13T05:44:08Z</time>
      </trkpt>
      <trkpt lat="38.9733251184" lon="-6.3653853256">
        <ele>251.04</ele>
        <time>2020-07-13T05:44:09Z</time>
      </trkpt>
      <trkpt lat="38.9733363502" lon="-6.3653802127">
        <ele>251.04</ele>
        <time>2020-07-13T05:44:10Z</time>
      </trkpt>
      <trkpt lat="38.9733511023" lon="-6.3653735910">
        <ele>251.52</ele>
        <time>2020-07-13T05:44:11Z</time>
      </trkpt>
      <trkpt lat="38.9733655192" lon="-6.3653642870">
        <ele>251.52</ele>
        <time>2020-07-13T05:44:12Z</time>
      </trkpt>
      <trkpt lat="38.9733788464" lon="-6.3653569948">
        <ele>251.52</ele>
        <time>2020-07-13T05:44:13Z</time>
      </trkpt>
      <trkpt lat="38.9733897429" lon="-6.3653510436">
        <ele>252.00</ele>
        <time>2020-07-13T05:44:14Z</time>
      </trkpt>
      <trkpt lat="38.9734000526" lon="-6.3653415721">
        <ele>252.00</ele>
        <time>2020-07-13T05:44:15Z</time>
      </trkpt>
      <trkpt lat="38.9734395314" lon="-6.3653189410">
        <ele>251.52</ele>
        <time>2020-07-13T05:44:18Z</time>
      </trkpt>
      <trkpt lat="38.9734567981" lon="-6.3653122354">
        <ele>252.00</ele>
        <time>2020-07-13T05:44:19Z</time>
      </trkpt>
      <trkpt lat="38.9736418705" lon="-6.3651621155">
        <ele>252.48</ele>
        <time>2020-07-13T05:44:29Z</time>
      </trkpt>
      <trkpt lat="38.9738052338" lon="-6.3649480417">
        <ele>252.48</ele>
        <time>2020-07-13T05:44:39Z</time>
      </trkpt>
      <trkpt lat="38.9739301242" lon="-6.3647757936">
        <ele>253.44</ele>
        <time>2020-07-13T05:44:47Z</time>
      </trkpt>
      <trkpt lat="38.9740015380" lon="-6.3645060640">
        <ele>254.41</ele>
        <time>2020-07-13T05:44:56Z</time>
      </trkpt>
      <trkpt lat="38.9740247559" lon="-6.3642529305">
        <ele>253.44</ele>
        <time>2020-07-13T05:45:04Z</time>
      </trkpt>
      <trkpt lat="38.9740993548" lon="-6.3640810177">
        <ele>253.44</ele>
        <time>2020-07-13T05:45:11Z</time>
      </trkpt>
      <trkpt lat="38.9742462896" lon="-6.3640473224">
        <ele>253.44</ele>
        <time>2020-07-13T05:45:17Z</time>
      </trkpt>
      <trkpt lat="38.9744284283" lon="-6.3640145492">
        <ele>253.44</ele>
        <time>2020-07-13T05:45:25Z</time>
      </trkpt>
      <trkpt lat="38.9745852537" lon="-6.3639141340">
        <ele>252.96</ele>
        <time>2020-07-13T05:45:34Z</time>
      </trkpt>
      <trkpt lat="38.9747027680" lon="-6.3638459891">
        <ele>252.48</ele>
        <time>2020-07-13T05:45:41Z</time>
      </trkpt>
      <trkpt lat="38.9748354536" lon="-6.3636490982">
        <ele>251.04</ele>
        <time>2020-07-13T05:45:47Z</time>
      </trkpt>
      <trkpt lat="38.9750051871" lon="-6.3634403888">
        <ele>252.00</ele>
        <time>2020-07-13T05:45:56Z</time>
      </trkpt>
      <trkpt lat="38.9751294069" lon="-6.3633040991">
        <ele>252.00</ele>
        <time>2020-07-13T05:46:03Z</time>
      </trkpt>
      <trkpt lat="38.9752373658" lon="-6.3632278237">
        <ele>252.96</ele>
        <time>2020-07-13T05:46:09Z</time>
      </trkpt>
      <trkpt lat="38.9752527885" lon="-6.3632327691">
        <ele>252.96</ele>
        <time>2020-07-13T05:46:10Z</time>
      </trkpt>
      <trkpt lat="38.9752699714" lon="-6.3632303383">
        <ele>252.96</ele>
        <time>2020-07-13T05:46:11Z</time>
      </trkpt>
      <trkpt lat="38.9752910100" lon="-6.3632213697">
        <ele>253.44</ele>
        <time>2020-07-13T05:46:12Z</time>
      </trkpt>
      <trkpt lat="38.9753143955" lon="-6.3632074557">
        <ele>253.44</ele>
        <time>2020-07-13T05:46:13Z</time>
      </trkpt>
      <trkpt lat="38.9753395412" lon="-6.3631933741">
        <ele>253.44</ele>
        <time>2020-07-13T05:46:14Z</time>
      </trkpt>
      <trkpt lat="38.9753674529" lon="-6.3631807175">
        <ele>252.96</ele>
        <time>2020-07-13T05:46:15Z</time>
      </trkpt>
      <trkpt lat="38.9753972087" lon="-6.3631687313">
        <ele>252.96</ele>
        <time>2020-07-13T05:46:16Z</time>
      </trkpt>
      <trkpt lat="38.9754247852" lon="-6.3631538115">
        <ele>252.96</ele>
        <time>2020-07-13T05:46:17Z</time>
      </trkpt>
      <trkpt lat="38.9756429661" lon="-6.3630100619">
        <ele>254.41</ele>
        <time>2020-07-13T05:46:25Z</time>
      </trkpt>
      <trkpt lat="38.9759314712" lon="-6.3628441002">
        <ele>254.41</ele>
        <time>2020-07-13T05:46:35Z</time>
      </trkpt>
      <trkpt lat="38.9762552641" lon="-6.3626498077">
        <ele>253.93</ele>
        <time>2020-07-13T05:46:44Z</time>
      </trkpt>
      <trkpt lat="38.9766995050" lon="-6.3623764738">
        <ele>254.89</ele>
        <time>2020-07-13T05:46:56Z</time>
      </trkpt>
      <trkpt lat="38.9770517126" lon="-6.3621635735">
        <ele>254.89</ele>
        <time>2020-07-13T05:47:06Z</time>
      </trkpt>
      <trkpt lat="38.9774356037" lon="-6.3619308081">
        <ele>253.44</ele>
        <time>2020-07-13T05:47:14Z</time>
      </trkpt>
      <trkpt lat="38.9777973667" lon="-6.3617140520">
        <ele>253.93</ele>
        <time>2020-07-13T05:47:22Z</time>
      </trkpt>
      <trkpt lat="38.9781857003" lon="-6.3614656124">
        <ele>254.41</ele>
        <time>2020-07-13T05:47:32Z</time>
      </trkpt>
      <trkpt lat="38.9786031190" lon="-6.3612114731">
        <ele>255.37</ele>
        <time>2020-07-13T05:47:43Z</time>
      </trkpt>
      <trkpt lat="38.9789892733" lon="-6.3609829824">
        <ele>256.33</ele>
        <time>2020-07-13T05:47:53Z</time>
      </trkpt>
      <trkpt lat="38.9792844839" lon="-6.3608261570">
        <ele>257.29</ele>
        <time>2020-07-13T05:48:02Z</time>
      </trkpt>
      <trkpt lat="38.9796412177" lon="-6.3607548270">
        <ele>257.29</ele>
        <time>2020-07-13T05:48:11Z</time>
      </trkpt>
      <trkpt lat="38.9798189141" lon="-6.3607254904">
        <ele>257.29</ele>
        <time>2020-07-13T05:48:15Z</time>
      </trkpt>
      <trkpt lat="38.9798591472" lon="-6.3607122470">
        <ele>257.29</ele>
        <time>2020-07-13T05:48:16Z</time>
      </trkpt>
      <trkpt lat="38.9800429624" lon="-6.3606156036">
        <ele>257.77</ele>
        <time>2020-07-13T05:48:21Z</time>
      </trkpt>
      <trkpt lat="38.9800791722" lon="-6.3605829142">
        <ele>257.77</ele>
        <time>2020-07-13T05:48:22Z</time>
      </trkpt>
      <trkpt lat="38.9803658333" lon="-6.3602840994">
        <ele>258.25</ele>
        <time>2020-07-13T05:48:32Z</time>
      </trkpt>
      <trkpt lat="38.9806982595" lon="-6.3599751424">
        <ele>259.21</ele>
        <time>2020-07-13T05:48:44Z</time>
      </trkpt>
      <trkpt lat="38.9809568413" lon="-6.3599053212">
        <ele>259.21</ele>
        <time>2020-07-13T05:48:51Z</time>
      </trkpt>
      <trkpt lat="38.9813756011" lon="-6.3599138707">
        <ele>259.21</ele>
        <time>2020-07-13T05:49:00Z</time>
      </trkpt>
      <trkpt lat="38.9819014817" lon="-6.3599244319">
        <ele>260.17</ele>
        <time>2020-07-13T05:49:11Z</time>
      </trkpt>
      <trkpt lat="38.9822694473" lon="-6.3599555288">
        <ele>262.10</ele>
        <time>2020-07-13T05:49:20Z</time>
      </trkpt>
      <trkpt lat="38.9826252591" lon="-6.3599466439">
        <ele>261.62</ele>
        <time>2020-07-13T05:49:28Z</time>
      </trkpt>
      <trkpt lat="38.9827305358" lon="-6.3599329814">
        <ele>261.14</ele>
        <time>2020-07-13T05:49:30Z</time>
      </trkpt>
      <trkpt lat="38.9827816654" lon="-6.3599227555">
        <ele>261.14</ele>
        <time>2020-07-13T05:49:31Z</time>
      </trkpt>
      <trkpt lat="38.9832777064" lon="-6.3598845340">
        <ele>260.17</ele>
        <time>2020-07-13T05:49:40Z</time>
      </trkpt>
      <trkpt lat="38.9833295904" lon="-6.3598906528">
        <ele>260.17</ele>
        <time>2020-07-13T05:49:41Z</time>
      </trkpt>
      <trkpt lat="38.9833775349" lon="-6.3598931674">
        <ele>260.17</ele>
        <time>2020-07-13T05:49:42Z</time>
      </trkpt>
      <trkpt lat="38.9836507849" lon="-6.3598674349">
        <ele>260.17</ele>
        <time>2020-07-13T05:49:48Z</time>
      </trkpt>
      <trkpt lat="38.9841284696" lon="-6.3598250225">
        <ele>260.65</ele>
        <time>2020-07-13T05:49:58Z</time>
      </trkpt>
      <trkpt lat="38.9845874626" lon="-6.3598009665">
        <ele>261.62</ele>
        <time>2020-07-13T05:50:08Z</time>
      </trkpt>
      <trkpt lat="38.9848715253" lon="-6.3597422093">
        <ele>262.58</ele>
        <time>2020-07-13T05:50:16Z</time>
      </trkpt>
      <trkpt lat="38.9850579388" lon="-6.3596109487">
        <ele>263.06</ele>
        <time>2020-07-13T05:50:24Z</time>
      </trkpt>
      <trkpt lat="38.9853067137" lon="-6.3594086096">
        <ele>263.06</ele>
        <time>2020-07-13T05:50:33Z</time>
      </trkpt>
      <trkpt lat="38.9856320992" lon="-6.3591310848">
        <ele>260.17</ele>
        <time>2020-07-13T05:50:40Z</time>
      </trkpt>
      <trkpt lat="38.9861977100" lon="-6.3586518914">
        <ele>257.29</ele>
        <time>2020-07-13T05:50:50Z</time>
      </trkpt>
      <trkpt lat="38.9868486486" lon="-6.3581014518">
        <ele>254.89</ele>
        <time>2020-07-13T05:51:02Z</time>
      </trkpt>
      <trkpt lat="38.9873777982" lon="-6.3576545287">
        <ele>253.44</ele>
        <time>2020-07-13T05:51:11Z</time>
      </trkpt>
      <trkpt lat="38.9876464382" lon="-6.3574011438">
        <ele>254.41</ele>
        <time>2020-07-13T05:51:18Z</time>
      </trkpt>
      <trkpt lat="38.9877842367" lon="-6.3570934441">
        <ele>254.41</ele>
        <time>2020-07-13T05:51:26Z</time>
      </trkpt>
      <trkpt lat="38.9877771121" lon="-6.3568576612">
        <ele>254.89</ele>
        <time>2020-07-13T05:51:33Z</time>
      </trkpt>
      <trkpt lat="38.9877324365" lon="-6.3566063717">
        <ele>254.89</ele>
        <time>2020-07-13T05:51:41Z</time>
      </trkpt>
      <trkpt lat="38.9877325203" lon="-6.3566021807">
        <ele>254.89</ele>
        <time>2020-07-13T05:51:51Z</time>
      </trkpt>
      <trkpt lat="38.9877310116" lon="-6.3566067908">
        <ele>255.37</ele>
        <time>2020-07-13T05:51:59Z</time>
      </trkpt>
      <trkpt lat="38.9877331909" lon="-6.3566139992">
        <ele>255.37</ele>
        <time>2020-07-13T05:52:24Z</time>
      </trkpt>
      <trkpt lat="38.9877336100" lon="-6.3566171005">
        <ele>255.85</ele>
        <time>2020-07-13T05:52:42Z</time>
      </trkpt>
      <trkpt lat="38.9877307601" lon="-6.3566124067">
        <ele>256.33</ele>
        <time>2020-07-13T05:53:01Z</time>
      </trkpt>
      <trkpt lat="38.9877293352" lon="-6.3566143345">
        <ele>255.85</ele>
        <time>2020-07-13T05:53:10Z</time>
      </trkpt>
      <trkpt lat="38.9877222106" lon="-6.3565095607">
        <ele>255.85</ele>
        <time>2020-07-13T05:53:17Z</time>
      </trkpt>
      <trkpt lat="38.9876919519" lon="-6.3561751228">
        <ele>256.81</ele>
        <time>2020-07-13T05:53:26Z</time>
      </trkpt>
      <trkpt lat="38.9877691492" lon="-6.3559036329">
        <ele>257.29</ele>
        <time>2020-07-13T05:53:33Z</time>
      </trkpt>
      <trkpt lat="38.9879826363" lon="-6.3556429558">
        <ele>256.81</ele>
        <time>2020-07-13T05:53:40Z</time>
      </trkpt>
      <trkpt lat="38.9882801939" lon="-6.3553444762">
        <ele>256.33</ele>
        <time>2020-07-13T05:53:49Z</time>
      </trkpt>
      <trkpt lat="38.9887888078" lon="-6.3548293244">
        <ele>255.37</ele>
        <time>2020-07-13T05:54:03Z</time>
      </trkpt>
      <trkpt lat="38.9892161172" lon="-6.3544031046">
        <ele>255.37</ele>
        <time>2020-07-13T05:54:14Z</time>
      </trkpt>
      <trkpt lat="38.9895543270" lon="-6.3540592790">
        <ele>256.33</ele>
        <time>2020-07-13T05:54:24Z</time>
      </trkpt>
      <trkpt lat="38.9898834005" lon="-6.3537260983">
        <ele>257.29</ele>
        <time>2020-07-13T05:54:35Z</time>
      </trkpt>
      <trkpt lat="38.9901732467" lon="-6.3534325641">
        <ele>257.77</ele>
        <time>2020-07-13T05:54:45Z</time>
      </trkpt>
      <trkpt lat="38.9905216824" lon="-6.3530834578">
        <ele>258.73</ele>
        <time>2020-07-13T05:54:56Z</time>
      </trkpt>
      <trkpt lat="38.9907966089" lon="-6.3528739940">
        <ele>260.65</ele>
        <time>2020-07-13T05:55:05Z</time>
      </trkpt>
      <trkpt lat="38.9911936596" lon="-6.3526990637">
        <ele>261.62</ele>
        <time>2020-07-13T05:55:16Z</time>
      </trkpt>
      <trkpt lat="38.9915526565" lon="-6.3525433280">
        <ele>262.58</ele>
        <time>2020-07-13T05:55:26Z</time>
      </trkpt>
      <trkpt lat="38.9918837417" lon="-6.3523960579">
        <ele>263.06</ele>
        <time>2020-07-13T05:55:36Z</time>
      </trkpt>
      <trkpt lat="38.9922772720" lon="-6.3522248156">
        <ele>262.10</ele>
        <time>2020-07-13T05:55:46Z</time>
      </trkpt>
      <trkpt lat="38.9927135501" lon="-6.3520421740">
        <ele>261.14</ele>
        <time>2020-07-13T05:55:55Z</time>
      </trkpt>
      <trkpt lat="38.9931396022" lon="-6.3518581912">
        <ele>261.14</ele>
        <time>2020-07-13T05:56:05Z</time>
      </trkpt>
      <trkpt lat="38.9935799036" lon="-6.3516719453">
        <ele>262.58</ele>
        <time>2020-07-13T05:56:16Z</time>
      </trkpt>
      <trkpt lat="38.9939897787" lon="-6.3514740486">
        <ele>263.54</ele>
        <time>2020-07-13T05:56:27Z</time>
      </trkpt>
      <trkpt lat="38.9941626135" lon="-6.3512337394">
        <ele>262.10</ele>
        <time>2020-07-13T05:56:34Z</time>
      </trkpt>
      <trkpt lat="38.9943725802" lon="-6.3507281430">
        <ele>260.65</ele>
        <time>2020-07-13T05:56:43Z</time>
      </trkpt>
      <trkpt lat="38.9945563115" lon="-6.3503064495">
        <ele>260.17</ele>
        <time>2020-07-13T05:56:51Z</time>
      </trkpt>
      <trkpt lat="38.9947006479" lon="-6.3499474525">
        <ele>259.69</ele>
        <time>2020-07-13T05:56:59Z</time>
      </trkpt>
      <trkpt lat="38.9948737342" lon="-6.3495141920">
        <ele>259.69</ele>
        <time>2020-07-13T05:57:09Z</time>
      </trkpt>
      <trkpt lat="38.9950282127" lon="-6.3490864635">
        <ele>259.69</ele>
        <time>2020-07-13T05:57:19Z</time>
      </trkpt>
      <trkpt lat="38.9950323198" lon="-6.3487586472">
        <ele>260.17</ele>
        <time>2020-07-13T05:57:26Z</time>
      </trkpt>
      <trkpt lat="38.9949360956" lon="-6.3483137358">
        <ele>261.62</ele>
        <time>2020-07-13T05:57:36Z</time>
      </trkpt>
      <trkpt lat="38.9948187489" lon="-6.3477353007">
        <ele>261.62</ele>
        <time>2020-07-13T05:57:48Z</time>
      </trkpt>
      <trkpt lat="38.9947285596" lon="-6.3472884614">
        <ele>262.10</ele>
        <time>2020-07-13T05:57:57Z</time>
      </trkpt>
      <trkpt lat="38.9946164936" lon="-6.3467422966">
        <ele>263.06</ele>
        <time>2020-07-13T05:58:08Z</time>
      </trkpt>
      <trkpt lat="38.9945241250" lon="-6.3462978043">
        <ele>263.06</ele>
        <time>2020-07-13T05:58:17Z</time>
      </trkpt>
      <trkpt lat="38.9944267273" lon="-6.3458100613">
        <ele>262.58</ele>
        <time>2020-07-13T05:58:28Z</time>
      </trkpt>
      <trkpt lat="38.9944634400" lon="-6.3456774596">
        <ele>262.10</ele>
        <time>2020-07-13T05:58:33Z</time>
      </trkpt>
      <trkpt lat="38.9945801999" lon="-6.3456674851">
        <ele>262.58</ele>
        <time>2020-07-13T05:58:39Z</time>
      </trkpt>
      <trkpt lat="38.9947578125" lon="-6.3456109073">
        <ele>264.02</ele>
        <time>2020-07-13T05:58:47Z</time>
      </trkpt>
      <trkpt lat="38.9950049110" lon="-6.3455456123">
        <ele>265.46</ele>
        <time>2020-07-13T05:58:58Z</time>
      </trkpt>
      <trkpt lat="38.9951823559" lon="-6.3455347996">
        <ele>267.38</ele>
        <time>2020-07-13T05:59:07Z</time>
      </trkpt>
      <trkpt lat="38.9953183942" lon="-6.3454874419">
        <ele>268.83</ele>
        <time>2020-07-13T05:59:15Z</time>
      </trkpt>
      <trkpt lat="38.9954988565" lon="-6.3454200514">
        <ele>270.27</ele>
        <time>2020-07-13T05:59:25Z</time>
      </trkpt>
      <trkpt lat="38.9956567716" lon="-6.3454062212">
        <ele>272.19</ele>
        <time>2020-07-13T05:59:34Z</time>
      </trkpt>
      <trkpt lat="38.9958170336" lon="-6.3454108313">
        <ele>273.15</ele>
        <time>2020-07-13T05:59:42Z</time>
      </trkpt>
      <trkpt lat="38.9960006811" lon="-6.3454119209">
        <ele>274.11</ele>
        <time>2020-07-13T05:59:52Z</time>
      </trkpt>
      <trkpt lat="38.9961316064" lon="-6.3454204705">
        <ele>275.07</ele>
        <time>2020-07-13T06:00:00Z</time>
      </trkpt>
      <trkpt lat="38.9962662198" lon="-6.3453468774">
        <ele>276.04</ele>
        <time>2020-07-13T06:00:08Z</time>
      </trkpt>
      <trkpt lat="38.9963627793" lon="-6.3451883756">
        <ele>275.56</ele>
        <time>2020-07-13T06:00:16Z</time>
      </trkpt>
      <trkpt lat="38.9964918606" lon="-6.3450832665">
        <ele>275.56</ele>
        <time>2020-07-13T06:00:24Z</time>
      </trkpt>
      <trkpt lat="38.9965376258" lon="-6.3450292032">
        <ele>275.07</ele>
        <time>2020-07-13T06:00:29Z</time>
      </trkpt>
      <trkpt lat="38.9965920243" lon="-6.3449713681">
        <ele>275.07</ele>
        <time>2020-07-13T06:00:34Z</time>
      </trkpt>
      <trkpt lat="38.9965920243" lon="-6.3449635729">
        <ele>275.07</ele>
        <time>2020-07-13T06:00:40Z</time>
      </trkpt>
      <trkpt lat="38.9966326766" lon="-6.3449802529">
        <ele>275.56</ele>
        <time>2020-07-13T06:00:47Z</time>
      </trkpt>
      <trkpt lat="38.9966556430" lon="-6.3449863717">
        <ele>276.04</ele>
        <time>2020-07-13T06:00:53Z</time>
      </trkpt>
      <trkpt lat="38.9967034198" lon="-6.3449983578">
        <ele>277.00</ele>
        <time>2020-07-13T06:01:01Z</time>
      </trkpt>
      <trkpt lat="38.9967677090" lon="-6.3449797500">
        <ele>277.96</ele>
        <time>2020-07-13T06:01:10Z</time>
      </trkpt>
      <trkpt lat="38.9967700560" lon="-6.3449850306">
        <ele>278.44</ele>
        <time>2020-07-13T06:01:22Z</time>
      </trkpt>
      <trkpt lat="38.9967815392" lon="-6.3449741341">
        <ele>277.96</ele>
        <time>2020-07-13T06:01:27Z</time>
      </trkpt>
      <trkpt lat="38.9968527853" lon="-6.3448810112">
        <ele>278.92</ele>
        <time>2020-07-13T06:01:34Z</time>
      </trkpt>
      <trkpt lat="38.9970447309" lon="-6.3447806798">
        <ele>278.92</ele>
        <time>2020-07-13T06:01:42Z</time>
      </trkpt>
      <trkpt lat="38.9973163884" lon="-6.3447608985">
        <ele>278.44</ele>
        <time>2020-07-13T06:01:51Z</time>
      </trkpt>
      <trkpt lat="38.9975931589" lon="-6.3446990401">
        <ele>278.44</ele>
        <time>2020-07-13T06:01:59Z</time>
      </trkpt>
      <trkpt lat="38.9979127608" lon="-6.3445937634">
        <ele>278.44</ele>
        <time>2020-07-13T06:02:08Z</time>
      </trkpt>
      <trkpt lat="38.9980726875" lon="-6.3445718028">
        <ele>278.44</ele>
        <time>2020-07-13T06:02:13Z</time>
      </trkpt>
      <trkpt lat="38.9983258210" lon="-6.3444684539">
        <ele>277.00</ele>
        <time>2020-07-13T06:02:19Z</time>
      </trkpt>
      <trkpt lat="38.9986073691" lon="-6.3443521969">
        <ele>275.56</ele>
        <time>2020-07-13T06:02:27Z</time>
      </trkpt>
      <trkpt lat="38.9988458343" lon="-6.3442438189">
        <ele>275.07</ele>
        <time>2020-07-13T06:02:34Z</time>
      </trkpt>
      <trkpt lat="38.9989946969" lon="-6.3441224489">
        <ele>274.59</ele>
        <time>2020-07-13T06:02:40Z</time>
      </trkpt>
      <trkpt lat="38.9991280530" lon="-6.3441068586">
        <ele>274.11</ele>
        <time>2020-07-13T06:02:46Z</time>
      </trkpt>
      <trkpt lat="38.9992251154" lon="-6.3441018295">
        <ele>274.11</ele>
        <time>2020-07-13T06:02:52Z</time>
      </trkpt>
      <trkpt lat="38.9994816855" lon="-6.3440671284">
        <ele>273.63</ele>
        <time>2020-07-13T06:02:59Z</time>
      </trkpt>
      <trkpt lat="38.9996743016" lon="-6.3440591656">
        <ele>273.63</ele>
        <time>2020-07-13T06:03:06Z</time>
      </trkpt>
      <trkpt lat="38.9998278581" lon="-6.3441437390">
        <ele>274.11</ele>
        <time>2020-07-13T06:03:13Z</time>
      </trkpt>
      <trkpt lat="39.0000667423" lon="-6.3441677112">
        <ele>274.11</ele>
        <time>2020-07-13T06:03:21Z</time>
      </trkpt>
      <trkpt lat="39.0003328677" lon="-6.3441937789">
        <ele>273.63</ele>
        <time>2020-07-13T06:03:30Z</time>
      </trkpt>
      <trkpt lat="39.0005384758" lon="-6.3442321680">
        <ele>274.11</ele>
        <time>2020-07-13T06:03:38Z</time>
      </trkpt>
      <trkpt lat="39.0008161683" lon="-6.3443036657">
        <ele>274.11</ele>
        <time>2020-07-13T06:03:49Z</time>
      </trkpt>
      <trkpt lat="39.0009730775" lon="-6.3442886621">
        <ele>275.07</ele>
        <time>2020-07-13T06:03:57Z</time>
      </trkpt>
      <trkpt lat="39.0010304097" lon="-6.3442846388">
        <ele>275.07</ele>
        <time>2020-07-13T06:04:02Z</time>
      </trkpt>
      <trkpt lat="39.0010432340" lon="-6.3442866504">
        <ele>275.07</ele>
        <time>2020-07-13T06:04:03Z</time>
      </trkpt>
      <trkpt lat="39.0010563098" lon="-6.3442858960">
        <ele>275.07</ele>
        <time>2020-07-13T06:04:04Z</time>
      </trkpt>
      <trkpt lat="39.0010677092" lon="-6.3442832138">
        <ele>275.07</ele>
        <time>2020-07-13T06:04:05Z</time>
      </trkpt>
      <trkpt lat="39.0010798629" lon="-6.3442808669">
        <ele>275.07</ele>
        <time>2020-07-13T06:04:06Z</time>
      </trkpt>
      <trkpt lat="39.0011098702" lon="-6.3442739937">
        <ele>275.07</ele>
        <time>2020-07-13T06:04:14Z</time>
      </trkpt>
      <trkpt lat="39.0011039190" lon="-6.3442869857">
        <ele>274.59</ele>
        <time>2020-07-13T06:04:26Z</time>
      </trkpt>
      <trkpt lat="39.0011160728" lon="-6.3442905899">
        <ele>274.11</ele>
        <time>2020-07-13T06:04:43Z</time>
      </trkpt>
      <trkpt lat="39.0011335071" lon="-6.3442982174">
        <ele>274.11</ele>
        <time>2020-07-13T06:04:46Z</time>
      </trkpt>
      <trkpt lat="39.0012553800" lon="-6.3443627581">
        <ele>274.59</ele>
        <time>2020-07-13T06:04:51Z</time>
      </trkpt>
      <trkpt lat="39.0015394427" lon="-6.3443871494">
        <ele>275.56</ele>
        <time>2020-07-13T06:05:01Z</time>
      </trkpt>
      <trkpt lat="39.0017727111" lon="-6.3444044162">
        <ele>276.04</ele>
        <time>2020-07-13T06:05:09Z</time>
      </trkpt>
      <trkpt lat="39.0019901376" lon="-6.3444501814">
        <ele>276.52</ele>
        <time>2020-07-13T06:05:16Z</time>
      </trkpt>
      <trkpt lat="39.0021690913" lon="-6.3444909174">
        <ele>277.96</ele>
        <time>2020-07-13T06:05:23Z</time>
      </trkpt>
      <trkpt lat="39.0023920499" lon="-6.3445080165">
        <ele>278.92</ele>
        <time>2020-07-13T06:05:30Z</time>
      </trkpt>
      <trkpt lat="39.0025554970" lon="-6.3445510995">
        <ele>278.92</ele>
        <time>2020-07-13T06:05:37Z</time>
      </trkpt>
      <trkpt lat="39.0026805550" lon="-6.3445624150">
        <ele>279.40</ele>
        <time>2020-07-13T06:05:44Z</time>
      </trkpt>
      <trkpt lat="39.0027800482" lon="-6.3445826992">
        <ele>279.88</ele>
        <time>2020-07-13T06:05:50Z</time>
      </trkpt>
      <trkpt lat="39.0028870851" lon="-6.3445718028">
        <ele>279.88</ele>
        <time>2020-07-13T06:05:56Z</time>
      </trkpt>
      <trkpt lat="39.0030359477" lon="-6.3446009718">
        <ele>280.36</ele>
        <time>2020-07-13T06:06:04Z</time>
      </trkpt>
      <trkpt lat="39.0032235347" lon="-6.3446025643">
        <ele>280.84</ele>
        <time>2020-07-13T06:06:12Z</time>
      </trkpt>
      <trkpt lat="39.0033544600" lon="-6.3446225971">
        <ele>281.80</ele>
        <time>2020-07-13T06:06:19Z</time>
      </trkpt>
      <trkpt lat="39.0034625027" lon="-6.3446626626">
        <ele>282.77</ele>
        <time>2020-07-13T06:06:28Z</time>
      </trkpt>
      <trkpt lat="39.0034749918" lon="-6.3446628302">
        <ele>282.77</ele>
        <time>2020-07-13T06:06:34Z</time>
      </trkpt>
      <trkpt lat="39.0034974553" lon="-6.3446515147">
        <ele>282.77</ele>
        <time>2020-07-13T06:06:43Z</time>
      </trkpt>
      <trkpt lat="39.0035096090" lon="-6.3446427137">
        <ele>283.25</ele>
        <time>2020-07-13T06:06:44Z</time>
      </trkpt>
      <trkpt lat="39.0035221819" lon="-6.3446336612">
        <ele>283.25</ele>
        <time>2020-07-13T06:06:45Z</time>
      </trkpt>
      <trkpt lat="39.0035427175" lon="-6.3446313143">
        <ele>283.25</ele>
        <time>2020-07-13T06:06:47Z</time>
      </trkpt>
      <trkpt lat="39.0035536978" lon="-6.3446403667">
        <ele>283.25</ele>
        <time>2020-07-13T06:06:48Z</time>
      </trkpt>
      <trkpt lat="39.0035645943" lon="-6.3446490001">
        <ele>283.25</ele>
        <time>2020-07-13T06:06:49Z</time>
      </trkpt>
      <trkpt lat="39.0035760775" lon="-6.3446509279">
        <ele>282.77</ele>
        <time>2020-07-13T06:06:50Z</time>
      </trkpt>
      <trkpt lat="39.0035864711" lon="-6.3446447253">
        <ele>282.77</ele>
        <time>2020-07-13T06:06:51Z</time>
      </trkpt>
      <trkpt lat="39.0035977867" lon="-6.3446342479">
        <ele>282.77</ele>
        <time>2020-07-13T06:06:52Z</time>
      </trkpt>
      <trkpt lat="39.0036073420" lon="-6.3446251955">
        <ele>282.77</ele>
        <time>2020-07-13T06:06:53Z</time>
      </trkpt>
      <trkpt lat="39.0036324877" lon="-6.3446161430">
        <ele>282.77</ele>
        <time>2020-07-13T06:06:56Z</time>
      </trkpt>
      <trkpt lat="39.0037544444" lon="-6.3446058333">
        <ele>283.25</ele>
        <time>2020-07-13T06:07:05Z</time>
      </trkpt>
      <trkpt lat="39.0038810112" lon="-6.3446206693">
        <ele>284.21</ele>
        <time>2020-07-13T06:07:13Z</time>
      </trkpt>
      <trkpt lat="39.0040263534" lon="-6.3446352538">
        <ele>284.21</ele>
        <time>2020-07-13T06:07:21Z</time>
      </trkpt>
      <trkpt lat="39.0042062290" lon="-6.3445905782">
        <ele>284.69</ele>
        <time>2020-07-13T06:07:30Z</time>
      </trkpt>
      <trkpt lat="39.0043493081" lon="-6.3445998821">
        <ele>285.17</ele>
        <time>2020-07-13T06:07:37Z</time>
      </trkpt>
      <trkpt lat="39.0045164432" lon="-6.3446338288">
        <ele>284.69</ele>
        <time>2020-07-13T06:07:46Z</time>
      </trkpt>
      <trkpt lat="39.0046356339" lon="-6.3446427137">
        <ele>285.65</ele>
        <time>2020-07-13T06:07:53Z</time>
      </trkpt>
      <trkpt lat="39.0046856739" lon="-6.3446602318">
        <ele>286.13</ele>
        <time>2020-07-13T06:07:57Z</time>
      </trkpt>
      <trkpt lat="39.0046974085" lon="-6.3446639199">
        <ele>286.13</ele>
        <time>2020-07-13T06:07:58Z</time>
      </trkpt>
      <trkpt lat="39.0047227219" lon="-6.3446641713">
        <ele>286.13</ele>
        <time>2020-07-13T06:08:00Z</time>
      </trkpt>
      <trkpt lat="39.0047361329" lon="-6.3446702901">
        <ele>286.13</ele>
        <time>2020-07-13T06:08:01Z</time>
      </trkpt>
      <trkpt lat="39.0047534835" lon="-6.3446761575">
        <ele>286.13</ele>
        <time>2020-07-13T06:08:02Z</time>
      </trkpt>
      <trkpt lat="39.0047741029" lon="-6.3446775824">
        <ele>286.13</ele>
        <time>2020-07-13T06:08:03Z</time>
      </trkpt>
      <trkpt lat="39.0047979914" lon="-6.3446770795">
        <ele>286.13</ele>
        <time>2020-07-13T06:08:04Z</time>
      </trkpt>
      <trkpt lat="39.0048233047" lon="-6.3446781691">
        <ele>286.13</ele>
        <time>2020-07-13T06:08:05Z</time>
      </trkpt>
      <trkpt lat="39.0050326847" lon="-6.3446783368">
        <ele>286.61</ele>
        <time>2020-07-13T06:08:14Z</time>
      </trkpt>
      <trkpt lat="39.0052733291" lon="-6.3445882313">
        <ele>287.57</ele>
        <time>2020-07-13T06:08:23Z</time>
      </trkpt>
      <trkpt lat="39.0055174101" lon="-6.3445146382">
        <ele>287.57</ele>
        <time>2020-07-13T06:08:32Z</time>
      </trkpt>
      <trkpt lat="39.0058241878" lon="-6.3444306515">
        <ele>287.57</ele>
        <time>2020-07-13T06:08:42Z</time>
      </trkpt>
      <trkpt lat="39.0060706995" lon="-6.3443599083">
        <ele>287.57</ele>
        <time>2020-07-13T06:08:50Z</time>
      </trkpt>
      <trkpt lat="39.0062382538" lon="-6.3443174120">
        <ele>289.01</ele>
        <time>2020-07-13T06:08:56Z</time>
      </trkpt>
      <trkpt lat="39.0065006074" lon="-6.3441890012">
        <ele>289.49</ele>
        <time>2020-07-13T06:09:06Z</time>
      </trkpt>
      <trkpt lat="39.0067050420" lon="-6.3440570701">
        <ele>289.97</ele>
        <time>2020-07-13T06:09:15Z</time>
      </trkpt>
      <trkpt lat="39.0069071297" lon="-6.3439400587">
        <ele>290.46</ele>
        <time>2020-07-13T06:09:23Z</time>
      </trkpt>
      <trkpt lat="39.0070512146" lon="-6.3440004084">
        <ele>290.94</ele>
        <time>2020-07-13T06:09:29Z</time>
      </trkpt>
      <trkpt lat="39.0071790386" lon="-6.3440937828">
        <ele>291.42</ele>
        <time>2020-07-13T06:09:35Z</time>
      </trkpt>
      <trkpt lat="39.0074362792" lon="-6.3442084473">
        <ele>292.38</ele>
        <time>2020-07-13T06:09:45Z</time>
      </trkpt>
      <trkpt lat="39.0076523647" lon="-6.3442558050">
        <ele>292.38</ele>
        <time>2020-07-13T06:09:53Z</time>
      </trkpt>
      <trkpt lat="39.0079153050" lon="-6.3442851417">
        <ele>292.38</ele>
        <time>2020-07-13T06:10:03Z</time>
      </trkpt>
      <trkpt lat="39.0081024729" lon="-6.3442540448">
        <ele>292.86</ele>
        <time>2020-07-13T06:10:10Z</time>
      </trkpt>
      <trkpt lat="39.0083530918" lon="-6.3441469241">
        <ele>294.30</ele>
        <time>2020-07-13T06:10:20Z</time>
      </trkpt>
      <trkpt lat="39.0086002741" lon="-6.3438875042">
        <ele>294.30</ele>
        <time>2020-07-13T06:10:31Z</time>
      </trkpt>
      <trkpt lat="39.0088333748" lon="-6.3437095564">
        <ele>294.78</ele>
        <time>2020-07-13T06:10:41Z</time>
      </trkpt>
      <trkpt lat="39.0091356263" lon="-6.3436106499">
        <ele>295.26</ele>
        <time>2020-07-13T06:10:52Z</time>
      </trkpt>
      <trkpt lat="39.0093367919" lon="-6.3434997573">
        <ele>295.74</ele>
        <time>2020-07-13T06:11:00Z</time>
      </trkpt>
      <trkpt lat="39.0095952898" lon="-6.3433700893">
        <ele>296.70</ele>
        <time>2020-07-13T06:11:10Z</time>
      </trkpt>
      <trkpt lat="39.0098676179" lon="-6.3433229830">
        <ele>297.18</ele>
        <time>2020-07-13T06:11:19Z</time>
      </trkpt>
      <trkpt lat="39.0101488307" lon="-6.3432454504">
        <ele>298.15</ele>
        <time>2020-07-13T06:11:29Z</time>
      </trkpt>
      <trkpt lat="39.0103981923" lon="-6.3431314565">
        <ele>299.59</ele>
        <time>2020-07-13T06:11:39Z</time>
      </trkpt>
      <trkpt lat="39.0106070694" lon="-6.3430583663">
        <ele>300.07</ele>
        <time>2020-07-13T06:11:47Z</time>
      </trkpt>
      <trkpt lat="39.0108538326" lon="-6.3429752178">
        <ele>301.51</ele>
        <time>2020-07-13T06:11:57Z</time>
      </trkpt>
      <trkpt lat="39.0110969916" lon="-6.3429358229">
        <ele>302.47</ele>
        <time>2020-07-13T06:12:06Z</time>
      </trkpt>
      <trkpt lat="39.0113538969" lon="-6.3428271096">
        <ele>303.43</ele>
        <time>2020-07-13T06:12:16Z</time>
      </trkpt>
      <trkpt lat="39.0115867462" lon="-6.3427117746">
        <ele>303.91</ele>
        <time>2020-07-13T06:12:25Z</time>
      </trkpt>
      <trkpt lat="39.0117953718" lon="-6.3426412828">
        <ele>304.39</ele>
        <time>2020-07-13T06:12:33Z</time>
      </trkpt>
      <trkpt lat="39.0119138081" lon="-6.3426162209">
        <ele>304.39</ele>
        <time>2020-07-13T06:12:41Z</time>
      </trkpt>
      <trkpt lat="39.0119091142" lon="-6.3426127844">
        <ele>303.91</ele>
        <time>2020-07-13T06:12:50Z</time>
      </trkpt>
      <trkpt lat="39.0119102038" lon="-6.3426260278">
        <ele>302.95</ele>
        <time>2020-07-13T06:13:07Z</time>
      </trkpt>
      <trkpt lat="39.0119205974" lon="-6.3426147960">
        <ele>302.47</ele>
        <time>2020-07-13T06:13:25Z</time>
      </trkpt>
      <trkpt lat="39.0120538697" lon="-6.3425940089">
        <ele>302.95</ele>
        <time>2020-07-13T06:13:32Z</time>
      </trkpt>
      <trkpt lat="39.0122936759" lon="-6.3425080944">
        <ele>304.39</ele>
        <time>2020-07-13T06:13:41Z</time>
      </trkpt>
      <trkpt lat="39.0125706978" lon="-6.3424034882">
        <ele>305.84</ele>
        <time>2020-07-13T06:13:52Z</time>
      </trkpt>
      <trkpt lat="39.0127827600" lon="-6.3423205074">
        <ele>307.28</ele>
        <time>2020-07-13T06:14:02Z</time>
      </trkpt>
      <trkpt lat="39.0129884519" lon="-6.3422178291">
        <ele>308.24</ele>
        <time>2020-07-13T06:14:13Z</time>
      </trkpt>
      <trkpt lat="39.0131555032" lon="-6.3421371114">
        <ele>309.68</ele>
        <time>2020-07-13T06:14:22Z</time>
      </trkpt>
      <trkpt lat="39.0133275837" lon="-6.3421013206">
        <ele>311.12</ele>
        <time>2020-07-13T06:14:31Z</time>
      </trkpt>
      <trkpt lat="39.0135537274" lon="-6.3420610875">
        <ele>313.05</ele>
        <time>2020-07-13T06:14:43Z</time>
      </trkpt>
      <trkpt lat="39.0137604252" lon="-6.3420159090">
        <ele>314.01</ele>
        <time>2020-07-13T06:14:54Z</time>
      </trkpt>
      <trkpt lat="39.0139227826" lon="-6.3419672940">
        <ele>315.45</ele>
        <time>2020-07-13T06:15:03Z</time>
      </trkpt>
      <trkpt lat="39.0140415542" lon="-6.3419079501">
        <ele>316.41</ele>
        <time>2020-07-13T06:15:11Z</time>
      </trkpt>
      <trkpt lat="39.0141863097" lon="-6.3418771047">
        <ele>317.37</ele>
        <time>2020-07-13T06:15:20Z</time>
      </trkpt>
      <trkpt lat="39.0143230185" lon="-6.3418703154">
        <ele>317.85</ele>
        <time>2020-07-13T06:15:28Z</time>
      </trkpt>
      <trkpt lat="39.0144971106" lon="-6.3418703992">
        <ele>316.89</ele>
        <time>2020-07-13T06:15:35Z</time>
      </trkpt>
      <trkpt lat="39.0147625655" lon="-6.3418565691">
        <ele>314.49</ele>
        <time>2020-07-13T06:15:42Z</time>
      </trkpt>
      <trkpt lat="39.0149788186" lon="-6.3418113906">
        <ele>312.57</ele>
        <time>2020-07-13T06:15:48Z</time>
      </trkpt>
      <trkpt lat="39.0152863506" lon="-6.3417960517">
        <ele>311.60</ele>
        <time>2020-07-13T06:15:56Z</time>
      </trkpt>
      <trkpt lat="39.0156309307" lon="-6.3417952135">
        <ele>310.64</ele>
        <time>2020-07-13T06:16:05Z</time>
      </trkpt>
      <trkpt lat="39.0159313381" lon="-6.3417981472">
        <ele>309.68</ele>
        <time>2020-07-13T06:16:13Z</time>
      </trkpt>
      <trkpt lat="39.0163179114" lon="-6.3417579979">
        <ele>310.16</ele>
        <time>2020-07-13T06:16:24Z</time>
      </trkpt>
      <trkpt lat="39.0165883955" lon="-6.3417471852">
        <ele>309.68</ele>
        <time>2020-07-13T06:16:32Z</time>
      </trkpt>
      <trkpt lat="39.0169710293" lon="-6.3416621089">
        <ele>308.24</ele>
        <time>2020-07-13T06:16:41Z</time>
      </trkpt>
      <trkpt lat="39.0172682516" lon="-6.3415778708">
        <ele>307.76</ele>
        <time>2020-07-13T06:16:47Z</time>
      </trkpt>
      <trkpt lat="39.0176558308" lon="-6.3415292557">
        <ele>306.32</ele>
        <time>2020-07-13T06:16:56Z</time>
      </trkpt>
      <trkpt lat="39.0179579146" lon="-6.3414364681">
        <ele>306.80</ele>
        <time>2020-07-13T06:17:04Z</time>
      </trkpt>
      <trkpt lat="39.0182297397" lon="-6.3413706701">
        <ele>307.28</ele>
        <time>2020-07-13T06:17:12Z</time>
      </trkpt>
      <trkpt lat="39.0185200050" lon="-6.3412455283">
        <ele>306.32</ele>
        <time>2020-07-13T06:17:20Z</time>
      </trkpt>
      <trkpt lat="39.0189250186" lon="-6.3410704304">
        <ele>306.32</ele>
        <time>2020-07-13T06:17:31Z</time>
      </trkpt>
      <trkpt lat="39.0192646533" lon="-6.3409000263">
        <ele>307.28</ele>
        <time>2020-07-13T06:17:41Z</time>
      </trkpt>
      <trkpt lat="39.0195076447" lon="-6.3407500740">
        <ele>307.28</ele>
        <time>2020-07-13T06:17:49Z</time>
      </trkpt>
      <trkpt lat="39.0198274143" lon="-6.3405997865">
        <ele>305.84</ele>
        <time>2020-07-13T06:17:57Z</time>
      </trkpt>
      <trkpt lat="39.0202305000" lon="-6.3404309750">
        <ele>304.88</ele>
        <time>2020-07-13T06:18:06Z</time>
      </trkpt>
      <trkpt lat="39.0204875730" lon="-6.3402470760">
        <ele>303.91</ele>
        <time>2020-07-13T06:18:14Z</time>
      </trkpt>
      <trkpt lat="39.0207408741" lon="-6.3400324155">
        <ele>302.47</ele>
        <time>2020-07-13T06:18:22Z</time>
      </trkpt>
      <trkpt lat="39.0211204067" lon="-6.3397677988">
        <ele>300.07</ele>
        <time>2020-07-13T06:18:33Z</time>
      </trkpt>
      <trkpt lat="39.0214164555" lon="-6.3395924494">
        <ele>297.67</ele>
        <time>2020-07-13T06:18:41Z</time>
      </trkpt>
      <trkpt lat="39.0216535795" lon="-6.3394855801">
        <ele>296.22</ele>
        <time>2020-07-13T06:18:49Z</time>
      </trkpt>
      <trkpt lat="39.0218128357" lon="-6.3393387292">
        <ele>295.74</ele>
        <time>2020-07-13T06:18:57Z</time>
      </trkpt>
      <trkpt lat="39.0219570044" lon="-6.3392726798">
        <ele>297.67</ele>
        <time>2020-07-13T06:19:04Z</time>
      </trkpt>
      <trkpt lat="39.0221388079" lon="-6.3391580153">
        <ele>299.59</ele>
        <time>2020-07-13T06:19:14Z</time>
      </trkpt>
      <trkpt lat="39.0222741757" lon="-6.3390086498">
        <ele>301.51</ele>
        <time>2020-07-13T06:19:23Z</time>
      </trkpt>
      <trkpt lat="39.0223504510" lon="-6.3389197178">
        <ele>302.95</ele>
        <time>2020-07-13T06:19:28Z</time>
      </trkpt>
      <trkpt lat="39.0223597549" lon="-6.3388993498">
        <ele>302.95</ele>
        <time>2020-07-13T06:19:29Z</time>
      </trkpt>
      <trkpt lat="39.0224007424" lon="-6.3388427719">
        <ele>303.91</ele>
        <time>2020-07-13T06:19:32Z</time>
      </trkpt>
      <trkpt lat="39.0224159136" lon="-6.3388195541">
        <ele>303.91</ele>
        <time>2020-07-13T06:19:33Z</time>
      </trkpt>
      <trkpt lat="39.0225167479" lon="-6.3386530895">
        <ele>304.88</ele>
        <time>2020-07-13T06:19:42Z</time>
      </trkpt>
      <trkpt lat="39.0226443205" lon="-6.3384738844">
        <ele>305.36</ele>
        <time>2020-07-13T06:19:52Z</time>
      </trkpt>
      <trkpt lat="39.0227516089" lon="-6.3382997923">
        <ele>304.88</ele>
        <time>2020-07-13T06:20:01Z</time>
      </trkpt>
      <trkpt lat="39.0228404570" lon="-6.3381874748">
        <ele>304.88</ele>
        <time>2020-07-13T06:20:08Z</time>
      </trkpt>
      <trkpt lat="39.0228565503" lon="-6.3381216768">
        <ele>304.88</ele>
        <time>2020-07-13T06:20:11Z</time>
      </trkpt>
      <trkpt lat="39.0227894951" lon="-6.3378887437">
        <ele>305.84</ele>
        <time>2020-07-13T06:20:20Z</time>
      </trkpt>
      <trkpt lat="39.0227101184" lon="-6.3375878334">
        <ele>306.80</ele>
        <time>2020-07-13T06:20:30Z</time>
      </trkpt>
      <trkpt lat="39.0227040835" lon="-6.3375144918">
        <ele>306.80</ele>
        <time>2020-07-13T06:20:35Z</time>
      </trkpt>
      <trkpt lat="39.0227291454" lon="-6.3375105523">
        <ele>307.28</ele>
        <time>2020-07-13T06:20:37Z</time>
      </trkpt>
      <trkpt lat="39.0227697138" lon="-6.3374955487">
        <ele>309.20</ele>
        <time>2020-07-13T06:20:42Z</time>
      </trkpt>
      <trkpt lat="39.0227693785" lon="-6.3375015836">
        <ele>309.68</ele>
        <time>2020-07-13T06:20:48Z</time>
      </trkpt>
      <trkpt lat="39.0227647685" lon="-6.3375158329">
        <ele>310.16</ele>
        <time>2020-07-13T06:21:05Z</time>
      </trkpt>
      <trkpt lat="39.0227482561" lon="-6.3375232928">
        <ele>310.16</ele>
        <time>2020-07-13T06:21:24Z</time>
      </trkpt>
      <trkpt lat="39.0227390360" lon="-6.3375243824">
        <ele>311.12</ele>
        <time>2020-07-13T06:21:36Z</time>
      </trkpt>
      <trkpt lat="39.0227443166" lon="-6.3375193533">
        <ele>311.60</ele>
        <time>2020-07-13T06:21:50Z</time>
      </trkpt>
      <trkpt lat="39.0227568056" lon="-6.3375174254">
        <ele>312.09</ele>
        <time>2020-07-13T06:22:03Z</time>
      </trkpt>
      <trkpt lat="39.0227650199" lon="-6.3375390507">
        <ele>312.57</ele>
        <time>2020-07-13T06:22:23Z</time>
      </trkpt>
      <trkpt lat="39.0227605775" lon="-6.3375561498">
        <ele>314.49</ele>
        <time>2020-07-13T06:22:43Z</time>
      </trkpt>
      <trkpt lat="39.0227613319" lon="-6.3375544734">
        <ele>315.93</ele>
        <time>2020-07-13T06:23:00Z</time>
      </trkpt>
      <trkpt lat="39.0227650199" lon="-6.3375510368">
        <ele>316.89</ele>
        <time>2020-07-13T06:23:15Z</time>
      </trkpt>
      <trkpt lat="39.0227488428" lon="-6.3375185151">
        <ele>317.37</ele>
        <time>2020-07-13T06:23:39Z</time>
      </trkpt>
      <trkpt lat="39.0227524471" lon="-6.3374998234">
        <ele>317.37</ele>
        <time>2020-07-13T06:24:00Z</time>
      </trkpt>
      <trkpt lat="39.0227550454" lon="-6.3375223707">
        <ele>315.93</ele>
        <time>2020-07-13T06:24:24Z</time>
      </trkpt>
      <trkpt lat="39.0227441490" lon="-6.3375331834">
        <ele>315.45</ele>
        <time>2020-07-13T06:24:45Z</time>
      </trkpt>
      <trkpt lat="39.0227308217" lon="-6.3375243824">
        <ele>316.41</ele>
        <time>2020-07-13T06:25:02Z</time>
      </trkpt>
      <trkpt lat="39.0227278043" lon="-6.3375279028">
        <ele>317.85</ele>
        <time>2020-07-13T06:25:20Z</time>
      </trkpt>
      <trkpt lat="39.0227352642" lon="-6.3375291601">
        <ele>317.37</ele>
        <time>2020-07-13T06:25:33Z</time>
      </trkpt>
      <trkpt lat="39.0227420535" lon="-6.3375274837">
        <ele>316.89</ele>
        <time>2020-07-13T06:25:53Z</time>
      </trkpt>
      <trkpt lat="39.0227548778" lon="-6.3375300821">
        <ele>315.93</ele>
        <time>2020-07-13T06:26:14Z</time>
      </trkpt>
      <trkpt lat="39.0227604937" lon="-6.3375217002">
        <ele>314.49</ele>
        <time>2020-07-13T06:26:31Z</time>
      </trkpt>
      <trkpt lat="39.0227636788" lon="-6.3375222031">
        <ele>312.57</ele>
        <time>2020-07-13T06:26:41Z</time>
      </trkpt>
      <trkpt lat="39.0227939375" lon="-6.3375078700">
        <ele>314.01</ele>
        <time>2020-07-13T06:26:52Z</time>
      </trkpt>
      <trkpt lat="39.0227923449" lon="-6.3374963868">
        <ele>314.49</ele>
        <time>2020-07-13T06:26:59Z</time>
      </trkpt>
      <trkpt lat="39.0227984637" lon="-6.3375085406">
        <ele>316.89</ele>
        <time>2020-07-13T06:27:15Z</time>
      </trkpt>
      <trkpt lat="39.0228147246" lon="-6.3375034276">
        <ele>317.37</ele>
        <time>2020-07-13T06:27:37Z</time>
      </trkpt>
      <trkpt lat="39.0228158142" lon="-6.3374905195">
        <ele>316.89</ele>
        <time>2020-07-13T06:27:52Z</time>
      </trkpt>
      <trkpt lat="39.0228138864" lon="-6.3374797907">
        <ele>316.89</ele>
        <time>2020-07-13T06:28:06Z</time>
      </trkpt>
      <trkpt lat="39.0228176583" lon="-6.3374832273">
        <ele>315.45</ele>
        <time>2020-07-13T06:28:25Z</time>
      </trkpt>
      <trkpt lat="39.0228107013" lon="-6.3374985661">
        <ele>314.49</ele>
        <time>2020-07-13T06:28:44Z</time>
      </trkpt>
      <trkpt lat="39.0228072647" lon="-6.3374932017">
        <ele>314.97</ele>
        <time>2020-07-13T06:29:04Z</time>
      </trkpt>
      <trkpt lat="39.0228128806" lon="-6.3375014160">
        <ele>315.45</ele>
        <time>2020-07-13T06:29:19Z</time>
      </trkpt>
      <trkpt lat="39.0228291415" lon="-6.3375027571">
        <ele>315.45</ele>
        <time>2020-07-13T06:29:37Z</time>
      </trkpt>
      <trkpt lat="39.0228300635" lon="-6.3375009131">
        <ele>314.49</ele>
        <time>2020-07-13T06:29:57Z</time>
      </trkpt>
      <trkpt lat="39.0228143893" lon="-6.3375024218">
        <ele>314.49</ele>
        <time>2020-07-13T06:30:13Z</time>
      </trkpt>
      <trkpt lat="39.0228174068" lon="-6.3375019189">
        <ele>314.97</ele>
        <time>2020-07-13T06:30:33Z</time>
      </trkpt>
      <trkpt lat="39.0228207596" lon="-6.3375064451">
        <ele>313.53</ele>
        <time>2020-07-13T06:30:48Z</time>
      </trkpt>
      <trkpt lat="39.0228164010" lon="-6.3375049364">
        <ele>313.05</ele>
        <time>2020-07-13T06:31:08Z</time>
      </trkpt>
      <trkpt lat="39.0228172392" lon="-6.3374999911">
        <ele>312.57</ele>
        <time>2020-07-13T06:31:21Z</time>
      </trkpt>
      <trkpt lat="39.0228218492" lon="-6.3374893460">
        <ele>314.01</ele>
        <time>2020-07-13T06:31:44Z</time>
      </trkpt>
      <trkpt lat="39.0228229389" lon="-6.3374885079">
        <ele>313.53</ele>
        <time>2020-07-13T06:32:02Z</time>
      </trkpt>
      <trkpt lat="39.0228198376" lon="-6.3374837302">
        <ele>312.09</ele>
        <time>2020-07-13T06:32:18Z</time>
      </trkpt>
      <trkpt lat="39.0228132997" lon="-6.3374844007">
        <ele>313.05</ele>
        <time>2020-07-13T06:32:34Z</time>
      </trkpt>
      <trkpt lat="39.0228031576" lon="-6.3374792039">
        <ele>314.97</ele>
        <time>2020-07-13T06:33:00Z</time>
      </trkpt>
      <trkpt lat="39.0227925964" lon="-6.3374761026">
        <ele>314.01</ele>
        <time>2020-07-13T06:33:20Z</time>
      </trkpt>
      <trkpt lat="39.0227916744" lon="-6.3374917768">
        <ele>314.49</ele>
        <time>2020-07-13T06:33:34Z</time>
      </trkpt>
      <trkpt lat="39.0228003077" lon="-6.3375001587">
        <ele>315.45</ele>
        <time>2020-07-13T06:33:49Z</time>
      </trkpt>
      <trkpt lat="39.0228096116" lon="-6.3374928664">
        <ele>315.93</ele>
        <time>2020-07-13T06:34:07Z</time>
      </trkpt>
      <trkpt lat="39.0228096116" lon="-6.3374835625">
        <ele>314.49</ele>
        <time>2020-07-13T06:34:19Z</time>
      </trkpt>
      <trkpt lat="39.0228101145" lon="-6.3374848198">
        <ele>312.09</ele>
        <time>2020-07-13T06:34:35Z</time>
      </trkpt>
      <trkpt lat="39.0228085220" lon="-6.3374890108">
        <ele>311.12</ele>
        <time>2020-07-13T06:34:53Z</time>
      </trkpt>
      <trkpt lat="39.0228001401" lon="-6.3374776114">
        <ele>311.12</ele>
        <time>2020-07-13T06:35:01Z</time>
      </trkpt>
      <trkpt lat="39.0227889083" lon="-6.3374864124">
        <ele>310.64</ele>
        <time>2020-07-13T06:35:08Z</time>
      </trkpt>
      <trkpt lat="39.0227661096" lon="-6.3374881726">
        <ele>309.68</ele>
        <time>2020-07-13T06:35:14Z</time>
      </trkpt>
      <trkpt lat="39.0227571409" lon="-6.3374750968">
        <ele>309.20</ele>
        <time>2020-07-13T06:35:25Z</time>
      </trkpt>
      <trkpt lat="39.0227563027" lon="-6.3374779467">
        <ele>310.16</ele>
        <time>2020-07-13T06:35:34Z</time>
      </trkpt>
      <trkpt lat="39.0226965398" lon="-6.3374129031">
        <ele>308.24</ele>
        <time>2020-07-13T06:35:40Z</time>
      </trkpt>
      <trkpt lat="39.0226828773" lon="-6.3373326045">
        <ele>308.24</ele>
        <time>2020-07-13T06:35:44Z</time>
      </trkpt>
      <trkpt lat="39.0226277243" lon="-6.3371626195">
        <ele>307.76</ele>
        <time>2020-07-13T06:35:53Z</time>
      </trkpt>
      <trkpt lat="39.0226345137" lon="-6.3371253200">
        <ele>307.76</ele>
        <time>2020-07-13T06:35:54Z</time>
      </trkpt>
      <trkpt lat="39.0226507746" lon="-6.3371023536">
        <ele>307.76</ele>
        <time>2020-07-13T06:35:55Z</time>
      </trkpt>
      <trkpt lat="39.0226768423" lon="-6.3370766211">
        <ele>308.24</ele>
        <time>2020-07-13T06:35:56Z</time>
      </trkpt>
      <trkpt lat="39.0226982161" lon="-6.3370609470">
        <ele>308.24</ele>
        <time>2020-07-13T06:35:57Z</time>
      </trkpt>
      <trkpt lat="39.0227241162" lon="-6.3370460272">
        <ele>308.24</ele>
        <time>2020-07-13T06:35:58Z</time>
      </trkpt>
      <trkpt lat="39.0227502678" lon="-6.3370345440">
        <ele>308.24</ele>
        <time>2020-07-13T06:35:59Z</time>
      </trkpt>
      <trkpt lat="39.0227758326" lon="-6.3370267488">
        <ele>308.24</ele>
        <time>2020-07-13T06:36:00Z</time>
      </trkpt>
      <trkpt lat="39.0228015650" lon="-6.3370238990">
        <ele>308.24</ele>
        <time>2020-07-13T06:36:01Z</time>
      </trkpt>
      <trkpt lat="39.0228257049" lon="-6.3370218035">
        <ele>308.24</ele>
        <time>2020-07-13T06:36:02Z</time>
      </trkpt>
      <trkpt lat="39.0229591448" lon="-6.3370221388">
        <ele>308.24</ele>
        <time>2020-07-13T06:36:08Z</time>
      </trkpt>
      <trkpt lat="39.0231879707" lon="-6.3372222148">
        <ele>305.84</ele>
        <time>2020-07-13T06:36:17Z</time>
      </trkpt>
      <trkpt lat="39.0234786551" lon="-6.3374517113">
        <ele>301.03</ele>
        <time>2020-07-13T06:36:22Z</time>
      </trkpt>
      <trkpt lat="39.0235500690" lon="-6.3375291601">
        <ele>300.07</ele>
        <time>2020-07-13T06:36:23Z</time>
      </trkpt>
      <trkpt lat="39.0239694994" lon="-6.3380377740">
        <ele>294.78</ele>
        <time>2020-07-13T06:36:29Z</time>
      </trkpt>
      <trkpt lat="39.0242880117" lon="-6.3383874670">
        <ele>290.94</ele>
        <time>2020-07-13T06:36:33Z</time>
      </trkpt>
      <trkpt lat="39.0243882593" lon="-6.3384679332">
        <ele>289.97</ele>
        <time>2020-07-13T06:36:34Z</time>
      </trkpt>
      <trkpt lat="39.0248433128" lon="-6.3387654070">
        <ele>287.09</ele>
        <time>2020-07-13T06:36:39Z</time>
      </trkpt>
      <trkpt lat="39.0250238590" lon="-6.3388277683">
        <ele>287.09</ele>
        <time>2020-07-13T06:36:43Z</time>
      </trkpt>
      <trkpt lat="39.0251190774" lon="-6.3388436940">
        <ele>287.57</ele>
        <time>2020-07-13T06:36:48Z</time>
      </trkpt>
      <trkpt lat="39.0251756553" lon="-6.3388360664">
        <ele>288.05</ele>
        <time>2020-07-13T06:36:52Z</time>
      </trkpt>
      <trkpt lat="39.0251872223" lon="-6.3388122618">
        <ele>288.53</ele>
        <time>2020-07-13T06:36:53Z</time>
      </trkpt>
      <trkpt lat="39.0251950175" lon="-6.3387985993">
        <ele>288.53</ele>
        <time>2020-07-13T06:36:54Z</time>
      </trkpt>
      <trkpt lat="39.0252075903" lon="-6.3387798239">
        <ele>288.53</ele>
        <time>2020-07-13T06:36:55Z</time>
      </trkpt>
      <trkpt lat="39.0252161399" lon="-6.3387609646">
        <ele>288.53</ele>
        <time>2020-07-13T06:36:56Z</time>
      </trkpt>
      <trkpt lat="39.0252537746" lon="-6.3386973459">
        <ele>288.05</ele>
        <time>2020-07-13T06:37:02Z</time>
      </trkpt>
      <trkpt lat="39.0252515953" lon="-6.3386918139">
        <ele>288.53</ele>
        <time>2020-07-13T06:37:15Z</time>
      </trkpt>
      <trkpt lat="39.0252614021" lon="-6.3386760559">
        <ele>288.53</ele>
        <time>2020-07-13T06:37:23Z</time>
      </trkpt>
      <trkpt lat="39.0252693649" lon="-6.3386571966">
        <ele>289.01</ele>
        <time>2020-07-13T06:37:37Z</time>
      </trkpt>
      <trkpt lat="39.0253590513" lon="-6.3385503273">
        <ele>289.49</ele>
        <time>2020-07-13T06:37:44Z</time>
      </trkpt>
      <trkpt lat="39.0254759789" lon="-6.3384703640">
        <ele>290.46</ele>
        <time>2020-07-13T06:37:51Z</time>
      </trkpt>
      <trkpt lat="39.0256255120" lon="-6.3384060748">
        <ele>291.42</ele>
        <time>2020-07-13T06:37:59Z</time>
      </trkpt>
      <trkpt lat="39.0258093271" lon="-6.3383147959">
        <ele>292.38</ele>
        <time>2020-07-13T06:38:10Z</time>
      </trkpt>
      <trkpt lat="39.0259590279" lon="-6.3382450584">
        <ele>293.34</ele>
        <time>2020-07-13T06:38:19Z</time>
      </trkpt>
      <trkpt lat="39.0261405800" lon="-6.3381697889">
        <ele>295.26</ele>
        <time>2020-07-13T06:38:30Z</time>
      </trkpt>
      <trkpt lat="39.0262896940" lon="-6.3380863890">
        <ele>296.70</ele>
        <time>2020-07-13T06:38:39Z</time>
      </trkpt>
      <trkpt lat="39.0264444239" lon="-6.3380046654">
        <ele>297.18</ele>
        <time>2020-07-13T06:38:48Z</time>
      </trkpt>
      <trkpt lat="39.0266299993" lon="-6.3379024062">
        <ele>298.15</ele>
        <time>2020-07-13T06:38:58Z</time>
      </trkpt>
      <trkpt lat="39.0268283989" lon="-6.3377998117">
        <ele>299.11</ele>
        <time>2020-07-13T06:39:09Z</time>
      </trkpt>
      <trkpt lat="39.0270039160" lon="-6.3377237879">
        <ele>300.55</ele>
        <time>2020-07-13T06:39:18Z</time>
      </trkpt>
      <trkpt lat="39.0271792654" lon="-6.3376611751">
        <ele>301.99</ele>
        <time>2020-07-13T06:39:27Z</time>
      </trkpt>
      <trkpt lat="39.0274313930" lon="-6.3376021665">
        <ele>302.47</ele>
        <time>2020-07-13T06:39:38Z</time>
      </trkpt>
      <trkpt lat="39.0276717860" lon="-6.3375840615">
        <ele>301.51</ele>
        <time>2020-07-13T06:39:46Z</time>
      </trkpt>
      <trkpt lat="39.0280199703" lon="-6.3375643641">
        <ele>299.11</ele>
        <time>2020-07-13T06:39:56Z</time>
      </trkpt>
      <trkpt lat="39.0283365548" lon="-6.3374983147">
        <ele>296.22</ele>
        <time>2020-07-13T06:40:02Z</time>
      </trkpt>
      <trkpt lat="39.0287376288" lon="-6.3373865839">
        <ele>293.82</ele>
        <time>2020-07-13T06:40:09Z</time>
      </trkpt>
      <trkpt lat="39.0288376249" lon="-6.3373574987">
        <ele>292.86</ele>
        <time>2020-07-13T06:40:11Z</time>
      </trkpt>
      <trkpt lat="39.0288844798" lon="-6.3373414055">
        <ele>292.86</ele>
        <time>2020-07-13T06:40:12Z</time>
      </trkpt>
      <trkpt lat="39.0292728972" lon="-6.3372404035">
        <ele>291.42</ele>
        <time>2020-07-13T06:40:20Z</time>
      </trkpt>
      <trkpt lat="39.0295948461" lon="-6.3371725939">
        <ele>290.94</ele>
        <time>2020-07-13T06:40:28Z</time>
      </trkpt>
      <trkpt lat="39.0299701877" lon="-6.3372129947">
        <ele>291.42</ele>
        <time>2020-07-13T06:40:37Z</time>
      </trkpt>
      <trkpt lat="39.0303161088" lon="-6.3372621965">
        <ele>291.90</ele>
        <time>2020-07-13T06:40:46Z</time>
      </trkpt>
      <trkpt lat="39.0306395665" lon="-6.3372656330">
        <ele>292.38</ele>
        <time>2020-07-13T06:40:55Z</time>
      </trkpt>
      <trkpt lat="39.0309941210" lon="-6.3372417446">
        <ele>292.38</ele>
        <time>2020-07-13T06:41:05Z</time>
      </trkpt>
      <trkpt lat="39.0313169081" lon="-6.3371399883">
        <ele>289.97</ele>
        <time>2020-07-13T06:41:12Z</time>
      </trkpt>
      <trkpt lat="39.0316819400" lon="-6.3369870186">
        <ele>286.61</ele>
        <time>2020-07-13T06:41:19Z</time>
      </trkpt>
      <trkpt lat="39.0320410207" lon="-6.3368806522">
        <ele>284.21</ele>
        <time>2020-07-13T06:41:26Z</time>
      </trkpt>
      <trkpt lat="39.0323439427" lon="-6.3368037902">
        <ele>282.77</ele>
        <time>2020-07-13T06:41:32Z</time>
      </trkpt>
      <trkpt lat="39.0324721858" lon="-6.3367408421">
        <ele>283.73</ele>
        <time>2020-07-13T06:41:37Z</time>
      </trkpt>
      <trkpt lat="39.0326433443" lon="-6.3367051352">
        <ele>283.25</ele>
        <time>2020-07-13T06:41:43Z</time>
      </trkpt>
      <trkpt lat="39.0331206936" lon="-6.3367060572">
        <ele>282.28</ele>
        <time>2020-07-13T06:41:54Z</time>
      </trkpt>
      <trkpt lat="39.0335283894" lon="-6.3367256708">
        <ele>282.28</ele>
        <time>2020-07-13T06:42:04Z</time>
      </trkpt>
      <trkpt lat="39.0338832792" lon="-6.3368552551">
        <ele>282.28</ele>
        <time>2020-07-13T06:42:13Z</time>
      </trkpt>
      <trkpt lat="39.0340100974" lon="-6.3369158562">
        <ele>282.28</ele>
        <time>2020-07-13T06:42:16Z</time>
      </trkpt>
      <trkpt lat="39.0341433696" lon="-6.3369808160">
        <ele>281.80</ele>
        <time>2020-07-13T06:42:19Z</time>
      </trkpt>
      <trkpt lat="39.0343552642" lon="-6.3370451052">
        <ele>281.80</ele>
        <time>2020-07-13T06:42:24Z</time>
      </trkpt>
      <trkpt lat="39.0344022866" lon="-6.3369761221">
        <ele>281.32</ele>
        <time>2020-07-13T06:42:26Z</time>
      </trkpt>
      <trkpt lat="39.0344278514" lon="-6.3368493039">
        <ele>281.80</ele>
        <time>2020-07-13T06:42:31Z</time>
      </trkpt>
      <trkpt lat="39.0344439447" lon="-6.3368334621">
        <ele>281.80</ele>
        <time>2020-07-13T06:42:34Z</time>
      </trkpt>
      <trkpt lat="39.0344270132" lon="-6.3369307760">
        <ele>282.28</ele>
        <time>2020-07-13T06:42:40Z</time>
      </trkpt>
      <trkpt lat="39.0344320424" lon="-6.3370343763">
        <ele>282.28</ele>
        <time>2020-07-13T06:42:45Z</time>
      </trkpt>
      <trkpt lat="39.0343979280" lon="-6.3370399084">
        <ele>282.28</ele>
        <time>2020-07-13T06:42:50Z</time>
      </trkpt>
      <trkpt lat="39.0344063099" lon="-6.3370078895">
        <ele>282.28</ele>
        <time>2020-07-13T06:42:52Z</time>
      </trkpt>
      <trkpt lat="39.0344545059" lon="-6.3369022775">
        <ele>282.28</ele>
        <time>2020-07-13T06:43:02Z</time>
      </trkpt>
      <trkpt lat="39.0344603732" lon="-6.3368909620">
        <ele>282.28</ele>
        <time>2020-07-13T06:43:03Z</time>
      </trkpt>
      <trkpt lat="39.0344720241" lon="-6.3368072268">
        <ele>281.80</ele>
        <time>2020-07-13T06:43:09Z</time>
      </trkpt>
      <trkpt lat="39.0345205553" lon="-6.3366158679">
        <ele>279.40</ele>
        <time>2020-07-13T06:43:23Z</time>
      </trkpt>
      <trkpt lat="39.0344751254" lon="-6.3366265129">
        <ele>279.40</ele>
        <time>2020-07-13T06:43:28Z</time>
      </trkpt>
      <trkpt lat="39.0343136899" lon="-6.3365524169">
        <ele>279.40</ele>
        <time>2020-07-13T06:43:39Z</time>
      </trkpt>
      <trkpt lat="39.0344472136" lon="-6.3363380916">
        <ele>279.40</ele>
        <time>2020-07-13T06:43:47Z</time>
      </trkpt>
      <trkpt lat="39.0346204676" lon="-6.3361258619">
        <ele>282.77</ele>
        <time>2020-07-13T06:43:54Z</time>
      </trkpt>
      <trkpt lat="39.0347492974" lon="-6.3358340878">
        <ele>284.69</ele>
        <time>2020-07-13T06:44:03Z</time>
      </trkpt>
      <trkpt lat="39.0349191148" lon="-6.3357129693">
        <ele>284.21</ele>
        <time>2020-07-13T06:44:10Z</time>
      </trkpt>
      <trkpt lat="39.0351393074" lon="-6.3356708921">
        <ele>285.17</ele>
        <time>2020-07-13T06:44:19Z</time>
      </trkpt>
      <trkpt lat="39.0352894273" lon="-6.3356261328">
        <ele>286.13</ele>
        <time>2020-07-13T06:44:27Z</time>
      </trkpt>
      <trkpt lat="39.0354833007" lon="-6.3355742488">
        <ele>288.05</ele>
        <time>2020-07-13T06:44:37Z</time>
      </trkpt>
      <trkpt lat="39.0356866457" lon="-6.3355148211">
        <ele>290.46</ele>
        <time>2020-07-13T06:44:48Z</time>
      </trkpt>
      <trkpt lat="39.0358267073" lon="-6.3354554772">
        <ele>292.38</ele>
        <time>2020-07-13T06:44:57Z</time>
      </trkpt>
      <trkpt lat="39.0359605663" lon="-6.3353857398">
        <ele>294.30</ele>
        <time>2020-07-13T06:45:07Z</time>
      </trkpt>
      <trkpt lat="39.0360681899" lon="-6.3353211153">
        <ele>296.22</ele>
        <time>2020-07-13T06:45:15Z</time>
      </trkpt>
      <trkpt lat="39.0361875482" lon="-6.3352366257">
        <ele>298.15</ele>
        <time>2020-07-13T06:45:25Z</time>
      </trkpt>
      <trkpt lat="39.0363102593" lon="-6.3351512142">
        <ele>300.07</ele>
        <time>2020-07-13T06:45:35Z</time>
      </trkpt>
      <trkpt lat="39.0364323836" lon="-6.3350863382">
        <ele>301.03</ele>
        <time>2020-07-13T06:45:43Z</time>
      </trkpt>
      <trkpt lat="39.0365881193" lon="-6.3350106496">
        <ele>302.47</ele>
        <time>2020-07-13T06:45:52Z</time>
      </trkpt>
      <trkpt lat="39.0367445257" lon="-6.3349349611">
        <ele>301.51</ele>
        <time>2020-07-13T06:46:01Z</time>
      </trkpt>
      <trkpt lat="39.0369078051" lon="-6.3348786347">
        <ele>300.07</ele>
        <time>2020-07-13T06:46:10Z</time>
      </trkpt>
      <trkpt lat="39.0371164307" lon="-6.3347795606">
        <ele>298.63</ele>
        <time>2020-07-13T06:46:17Z</time>
      </trkpt>
      <trkpt lat="39.0371617768" lon="-6.3347485475">
        <ele>298.15</ele>
        <time>2020-07-13T06:46:18Z</time>
      </trkpt>
      <trkpt lat="39.0372090507" lon="-6.3347083982">
        <ele>297.18</ele>
        <time>2020-07-13T06:46:19Z</time>
      </trkpt>
      <trkpt lat="39.0372556541" lon="-6.3346695900">
        <ele>296.70</ele>
        <time>2020-07-13T06:46:20Z</time>
      </trkpt>
      <trkpt lat="39.0373029280" lon="-6.3346337155">
        <ele>296.22</ele>
        <time>2020-07-13T06:46:21Z</time>
      </trkpt>
      <trkpt lat="39.0373572428" lon="-6.3345985115">
        <ele>295.26</ele>
        <time>2020-07-13T06:46:22Z</time>
      </trkpt>
      <trkpt lat="39.0374130663" lon="-6.3345666602">
        <ele>294.78</ele>
        <time>2020-07-13T06:46:23Z</time>
      </trkpt>
      <trkpt lat="39.0375236236" lon="-6.3344885409">
        <ele>293.82</ele>
        <time>2020-07-13T06:46:25Z</time>
      </trkpt>
      <trkpt lat="39.0375672095" lon="-6.3344356511">
        <ele>293.34</ele>
        <time>2020-07-13T06:46:26Z</time>
      </trkpt>
      <trkpt lat="39.0376082808" lon="-6.3343783189">
        <ele>292.86</ele>
        <time>2020-07-13T06:46:27Z</time>
      </trkpt>
      <trkpt lat="39.0376482625" lon="-6.3343148679">
        <ele>292.38</ele>
        <time>2020-07-13T06:46:28Z</time>
      </trkpt>
      <trkpt lat="39.0376843885" lon="-6.3342603017">
        <ele>292.38</ele>
        <time>2020-07-13T06:46:29Z</time>
      </trkpt>
      <trkpt lat="39.0377234481" lon="-6.3342137821">
        <ele>291.90</ele>
        <time>2020-07-13T06:46:30Z</time>
      </trkpt>
      <trkpt lat="39.0377669502" lon="-6.3341778237">
        <ele>291.90</ele>
        <time>2020-07-13T06:46:31Z</time>
      </trkpt>
      <trkpt lat="39.0378109552" lon="-6.3341542706">
        <ele>291.42</ele>
        <time>2020-07-13T06:46:32Z</time>
      </trkpt>
      <trkpt lat="39.0378546249" lon="-6.3341400214">
        <ele>291.42</ele>
        <time>2020-07-13T06:46:33Z</time>
      </trkpt>
      <trkpt lat="39.0378994681" lon="-6.3341329806">
        <ele>290.94</ele>
        <time>2020-07-13T06:46:34Z</time>
      </trkpt>
      <trkpt lat="39.0379460715" lon="-6.3341343217">
        <ele>290.46</ele>
        <time>2020-07-13T06:46:35Z</time>
      </trkpt>
      <trkpt lat="39.0379960276" lon="-6.3341380935">
        <ele>289.97</ele>
        <time>2020-07-13T06:46:36Z</time>
      </trkpt>
      <trkpt lat="39.0383891389" lon="-6.3341306336">
        <ele>286.13</ele>
        <time>2020-07-13T06:46:42Z</time>
      </trkpt>
      <trkpt lat="39.0388193820" lon="-6.3340401929">
        <ele>282.77</ele>
        <time>2020-07-13T06:46:49Z</time>
      </trkpt>
      <trkpt lat="39.0393346176" lon="-6.3338572159">
        <ele>278.92</ele>
        <time>2020-07-13T06:46:58Z</time>
      </trkpt>
      <trkpt lat="39.0397376195" lon="-6.3337663561">
        <ele>274.59</ele>
        <time>2020-07-13T06:47:06Z</time>
      </trkpt>
      <trkpt lat="39.0398630966" lon="-6.3337665237">
        <ele>273.63</ele>
        <time>2020-07-13T06:47:09Z</time>
      </trkpt>
      <trkpt lat="39.0400482528" lon="-6.3337509334">
        <ele>273.63</ele>
        <time>2020-07-13T06:47:15Z</time>
      </trkpt>
      <trkpt lat="39.0402418748" lon="-6.3337164838">
        <ele>274.11</ele>
        <time>2020-07-13T06:47:23Z</time>
      </trkpt>
      <trkpt lat="39.0405439585" lon="-6.3336744905">
        <ele>273.63</ele>
        <time>2020-07-13T06:47:32Z</time>
      </trkpt>
      <trkpt lat="39.0408056416" lon="-6.3336155657">
        <ele>271.23</ele>
        <time>2020-07-13T06:47:37Z</time>
      </trkpt>
      <trkpt lat="39.0411051270" lon="-6.3334630150">
        <ele>268.35</ele>
        <time>2020-07-13T06:47:41Z</time>
      </trkpt>
      <trkpt lat="39.0411789715" lon="-6.3334052637">
        <ele>267.86</ele>
        <time>2020-07-13T06:47:42Z</time>
      </trkpt>
      <trkpt lat="39.0412533190" lon="-6.3333409745">
        <ele>266.90</ele>
        <time>2020-07-13T06:47:43Z</time>
      </trkpt>
      <trkpt lat="39.0417457558" lon="-6.3329223823">
        <ele>263.06</ele>
        <time>2020-07-13T06:47:49Z</time>
      </trkpt>
      <trkpt lat="39.0418359451" lon="-6.3328806404">
        <ele>262.58</ele>
        <time>2020-07-13T06:47:50Z</time>
      </trkpt>
      <trkpt lat="39.0419252124" lon="-6.3328508008">
        <ele>262.58</ele>
        <time>2020-07-13T06:47:51Z</time>
      </trkpt>
      <trkpt lat="39.0423937608" lon="-6.3326545805">
        <ele>263.06</ele>
        <time>2020-07-13T06:47:57Z</time>
      </trkpt>
      <trkpt lat="39.0428151190" lon="-6.3324513193">
        <ele>263.54</ele>
        <time>2020-07-13T06:48:04Z</time>
      </trkpt>
      <trkpt lat="39.0430529974" lon="-6.3323479705">
        <ele>264.50</ele>
        <time>2020-07-13T06:48:10Z</time>
      </trkpt>
      <trkpt lat="39.0432145167" lon="-6.3321899716">
        <ele>265.46</ele>
        <time>2020-07-13T06:48:17Z</time>
      </trkpt>
      <trkpt lat="39.0434052050" lon="-6.3319806755">
        <ele>267.38</ele>
        <time>2020-07-13T06:48:26Z</time>
      </trkpt>
      <trkpt lat="39.0435009263" lon="-6.3316927571">
        <ele>268.83</ele>
        <time>2020-07-13T06:48:35Z</time>
      </trkpt>
      <trkpt lat="39.0436127409" lon="-6.3314746600">
        <ele>269.79</ele>
        <time>2020-07-13T06:48:45Z</time>
      </trkpt>
      <trkpt lat="39.0437512100" lon="-6.3313382864">
        <ele>270.27</ele>
        <time>2020-07-13T06:48:54Z</time>
      </trkpt>
      <trkpt lat="39.0438284073" lon="-6.3312690519">
        <ele>272.19</ele>
        <time>2020-07-13T06:49:00Z</time>
      </trkpt>
      <trkpt lat="39.0438715741" lon="-6.3312491030">
        <ele>274.59</ele>
        <time>2020-07-13T06:49:07Z</time>
      </trkpt>
      <trkpt lat="39.0438738372" lon="-6.3312444091">
        <ele>275.56</ele>
        <time>2020-07-13T06:49:16Z</time>
      </trkpt>
      <trkpt lat="39.0439056046" lon="-6.3312370330">
        <ele>276.04</ele>
        <time>2020-07-13T06:49:23Z</time>
      </trkpt>
      <trkpt lat="39.0440533776" lon="-6.3311895914">
        <ele>276.04</ele>
        <time>2020-07-13T06:49:34Z</time>
      </trkpt>
      <trkpt lat="39.0442316607" lon="-6.3310909364">
        <ele>274.59</ele>
        <time>2020-07-13T06:49:41Z</time>
      </trkpt>
      <trkpt lat="39.0444323234" lon="-6.3309533056">
        <ele>271.71</ele>
        <time>2020-07-13T06:49:48Z</time>
      </trkpt>
      <trkpt lat="39.0445707925" lon="-6.3308400661">
        <ele>269.79</ele>
        <time>2020-07-13T06:49:54Z</time>
      </trkpt>
      <trkpt lat="39.0447423700" lon="-6.3307067100">
        <ele>268.35</ele>
        <time>2020-07-13T06:50:00Z</time>
      </trkpt>
      <trkpt lat="39.0448096767" lon="-6.3306658063">
        <ele>267.38</ele>
        <time>2020-07-13T06:50:02Z</time>
      </trkpt>
      <trkpt lat="39.0450925659" lon="-6.3305592723">
        <ele>264.02</ele>
        <time>2020-07-13T06:50:08Z</time>
      </trkpt>
      <trkpt lat="39.0451959148" lon="-6.3304943964">
        <ele>262.58</ele>
        <time>2020-07-13T06:50:11Z</time>
      </trkpt>
      <trkpt lat="39.0452408418" lon="-6.3304667361">
        <ele>261.62</ele>
        <time>2020-07-13T06:50:12Z</time>
      </trkpt>
      <trkpt lat="39.0455851704" lon="-6.3303011935">
        <ele>258.73</ele>
        <time>2020-07-13T06:50:19Z</time>
      </trkpt>
      <trkpt lat="39.0456375573" lon="-6.3302888721">
        <ele>258.25</ele>
        <time>2020-07-13T06:50:20Z</time>
      </trkpt>
      <trkpt lat="39.0457393974" lon="-6.3302592840">
        <ele>257.77</ele>
        <time>2020-07-13T06:50:22Z</time>
      </trkpt>
      <trkpt lat="39.0457901079" lon="-6.3302372396">
        <ele>257.77</ele>
        <time>2020-07-13T06:50:23Z</time>
      </trkpt>
      <trkpt lat="39.0458394773" lon="-6.3302191347">
        <ele>257.77</ele>
        <time>2020-07-13T06:50:24Z</time>
      </trkpt>
      <trkpt lat="39.0462216083" lon="-6.3301442843">
        <ele>257.29</ele>
        <time>2020-07-13T06:50:32Z</time>
      </trkpt>
      <trkpt lat="39.0462687984" lon="-6.3301337231">
        <ele>256.81</ele>
        <time>2020-07-13T06:50:33Z</time>
      </trkpt>
      <trkpt lat="39.0464899130" lon="-6.3300728705">
        <ele>255.85</ele>
        <time>2020-07-13T06:50:38Z</time>
      </trkpt>
      <trkpt lat="39.0465246979" lon="-6.3300423604">
        <ele>255.37</ele>
        <time>2020-07-13T06:50:39Z</time>
      </trkpt>
      <trkpt lat="39.0465465747" lon="-6.3299998641">
        <ele>255.37</ele>
        <time>2020-07-13T06:50:40Z</time>
      </trkpt>
      <trkpt lat="39.0465571359" lon="-6.3299627323">
        <ele>254.89</ele>
        <time>2020-07-13T06:50:41Z</time>
      </trkpt>
      <trkpt lat="39.0465656854" lon="-6.3299157936">
        <ele>254.89</ele>
        <time>2020-07-13T06:50:42Z</time>
      </trkpt>
      <trkpt lat="39.0465733968" lon="-6.3298675139">
        <ele>254.41</ele>
        <time>2020-07-13T06:50:43Z</time>
      </trkpt>
      <trkpt lat="39.0466765780" lon="-6.3296241872">
        <ele>253.93</ele>
        <time>2020-07-13T06:50:50Z</time>
      </trkpt>
      <trkpt lat="39.0468608122" lon="-6.3294609915">
        <ele>255.85</ele>
        <time>2020-07-13T06:50:57Z</time>
      </trkpt>
      <trkpt lat="39.0471985191" lon="-6.3291619252">
        <ele>258.25</ele>
        <time>2020-07-13T06:51:06Z</time>
      </trkpt>
      <trkpt lat="39.0475090686" lon="-6.3288978115">
        <ele>257.29</ele>
        <time>2020-07-13T06:51:15Z</time>
      </trkpt>
      <trkpt lat="39.0475774650" lon="-6.3288328517">
        <ele>256.81</ele>
        <time>2020-07-13T06:51:17Z</time>
      </trkpt>
      <trkpt lat="39.0478394832" lon="-6.3284803927">
        <ele>255.85</ele>
        <time>2020-07-13T06:51:26Z</time>
      </trkpt>
      <trkpt lat="39.0480585024" lon="-6.3280588668">
        <ele>254.41</ele>
        <time>2020-07-13T06:51:35Z</time>
      </trkpt>
      <trkpt lat="39.0482703131" lon="-6.3276341558">
        <ele>253.93</ele>
        <time>2020-07-13T06:51:44Z</time>
      </trkpt>
      <trkpt lat="39.0483205207" lon="-6.3275344111">
        <ele>253.93</ele>
        <time>2020-07-13T06:51:46Z</time>
      </trkpt>
      <trkpt lat="39.0485099517" lon="-6.3271375280">
        <ele>253.93</ele>
        <time>2020-07-13T06:51:54Z</time>
      </trkpt>
      <trkpt lat="39.0487534460" lon="-6.3266478572">
        <ele>253.93</ele>
        <time>2020-07-13T06:52:04Z</time>
      </trkpt>
      <trkpt lat="39.0490173083" lon="-6.3261197135">
        <ele>254.41</ele>
        <time>2020-07-13T06:52:15Z</time>
      </trkpt>
      <trkpt lat="39.0492747165" lon="-6.3257451262">
        <ele>254.89</ele>
        <time>2020-07-13T06:52:24Z</time>
      </trkpt>
      <trkpt lat="39.0496083163" lon="-6.3254237641">
        <ele>254.89</ele>
        <time>2020-07-13T06:52:33Z</time>
      </trkpt>
      <trkpt lat="39.0499389824" lon="-6.3251108676">
        <ele>254.89</ele>
        <time>2020-07-13T06:52:42Z</time>
      </trkpt>
      <trkpt lat="39.0499716718" lon="-6.3250709698">
        <ele>254.89</ele>
        <time>2020-07-13T06:52:43Z</time>
      </trkpt>
      <trkpt lat="39.0502491128" lon="-6.3246333506">
        <ele>255.37</ele>
        <time>2020-07-13T06:52:53Z</time>
      </trkpt>
      <trkpt lat="39.0505561419" lon="-6.3240864314">
        <ele>255.37</ele>
        <time>2020-07-13T06:53:05Z</time>
      </trkpt>
      <trkpt lat="39.0508925077" lon="-6.3235056493">
        <ele>255.85</ele>
        <time>2020-07-13T06:53:17Z</time>
      </trkpt>
      <trkpt lat="39.0511335712" lon="-6.3230864704">
        <ele>256.33</ele>
        <time>2020-07-13T06:53:26Z</time>
      </trkpt>
      <trkpt lat="39.0514822584" lon="-6.3224845659">
        <ele>255.85</ele>
        <time>2020-07-13T06:53:38Z</time>
      </trkpt>
      <trkpt lat="39.0518366452" lon="-6.3218793925">
        <ele>255.85</ele>
        <time>2020-07-13T06:53:50Z</time>
      </trkpt>
      <trkpt lat="39.0520463604" lon="-6.3215210661">
        <ele>256.81</ele>
        <time>2020-07-13T06:53:59Z</time>
      </trkpt>
      <trkpt lat="39.0522920340" lon="-6.3211079221">
        <ele>258.73</ele>
        <time>2020-07-13T06:54:10Z</time>
      </trkpt>
      <trkpt lat="39.0524325147" lon="-6.3208733965">
        <ele>258.73</ele>
        <time>2020-07-13T06:54:18Z</time>
      </trkpt>
      <trkpt lat="39.0525354445" lon="-6.3207916729">
        <ele>259.21</ele>
        <time>2020-07-13T06:54:23Z</time>
      </trkpt>
      <trkpt lat="39.0527090337" lon="-6.3208498433">
        <ele>258.73</ele>
        <time>2020-07-13T06:54:29Z</time>
      </trkpt>
      <trkpt lat="39.0529687051" lon="-6.3209472410">
        <ele>258.73</ele>
        <time>2020-07-13T06:54:37Z</time>
      </trkpt>
      <trkpt lat="39.0532663465" lon="-6.3210759871">
        <ele>259.21</ele>
        <time>2020-07-13T06:54:46Z</time>
      </trkpt>
      <trkpt lat="39.0536589548" lon="-6.3212390989">
        <ele>259.21</ele>
        <time>2020-07-13T06:54:56Z</time>
      </trkpt>
      <trkpt lat="39.0540057980" lon="-6.3214006182">
        <ele>259.21</ele>
        <time>2020-07-13T06:55:06Z</time>
      </trkpt>
      <trkpt lat="39.0543950535" lon="-6.3215559348">
        <ele>260.17</ele>
        <time>2020-07-13T06:55:16Z</time>
      </trkpt>
      <trkpt lat="39.0548019111" lon="-6.3216455374">
        <ele>260.17</ele>
        <time>2020-07-13T06:55:26Z</time>
      </trkpt>
      <trkpt lat="39.0551319066" lon="-6.3216172066">
        <ele>259.69</ele>
        <time>2020-07-13T06:55:34Z</time>
      </trkpt>
      <trkpt lat="39.0555176418" lon="-6.3214747980">
        <ele>259.21</ele>
        <time>2020-07-13T06:55:44Z</time>
      </trkpt>
      <trkpt lat="39.0555911511" lon="-6.3214290328">
        <ele>259.21</ele>
        <time>2020-07-13T06:55:46Z</time>
      </trkpt>
      <trkpt lat="39.0558306221" lon="-6.3212296274">
        <ele>259.69</ele>
        <time>2020-07-13T06:55:54Z</time>
      </trkpt>
      <trkpt lat="39.0558970906" lon="-6.3211562019">
        <ele>259.69</ele>
        <time>2020-07-13T06:55:57Z</time>
      </trkpt>
      <trkpt lat="39.0559070650" lon="-6.3211156335">
        <ele>259.21</ele>
        <time>2020-07-13T06:55:58Z</time>
      </trkpt>
      <trkpt lat="39.0559105016" lon="-6.3210836146">
        <ele>259.21</ele>
        <time>2020-07-13T06:55:59Z</time>
      </trkpt>
      <trkpt lat="39.0559099149" lon="-6.3210477401">
        <ele>259.21</ele>
        <time>2020-07-13T06:56:00Z</time>
      </trkpt>
      <trkpt lat="39.0559046343" lon="-6.3210090995">
        <ele>259.21</ele>
        <time>2020-07-13T06:56:01Z</time>
      </trkpt>
      <trkpt lat="39.0559005272" lon="-6.3209818583">
        <ele>258.73</ele>
        <time>2020-07-13T06:56:02Z</time>
      </trkpt>
      <trkpt lat="39.0558450390" lon="-6.3207024056">
        <ele>257.77</ele>
        <time>2020-07-13T06:56:10Z</time>
      </trkpt>
      <trkpt lat="39.0558307897" lon="-6.3204726577">
        <ele>257.77</ele>
        <time>2020-07-13T06:56:17Z</time>
      </trkpt>
      <trkpt lat="39.0558426920" lon="-6.3203289919">
        <ele>257.29</ele>
        <time>2020-07-13T06:56:20Z</time>
      </trkpt>
      <trkpt lat="39.0559109207" lon="-6.3200180233">
        <ele>257.29</ele>
        <time>2020-07-13T06:56:27Z</time>
      </trkpt>
      <trkpt lat="39.0559815802" lon="-6.3196435198">
        <ele>257.29</ele>
        <time>2020-07-13T06:56:36Z</time>
      </trkpt>
      <trkpt lat="39.0560862701" lon="-6.3192796614">
        <ele>256.81</ele>
        <time>2020-07-13T06:56:45Z</time>
      </trkpt>
      <trkpt lat="39.0562765393" lon="-6.3189468160">
        <ele>256.33</ele>
        <time>2020-07-13T06:56:55Z</time>
      </trkpt>
      <trkpt lat="39.0563616995" lon="-6.3187448122">
        <ele>255.85</ele>
        <time>2020-07-13T06:57:04Z</time>
      </trkpt>
      <trkpt lat="39.0563969035" lon="-6.3186489232">
        <ele>255.37</ele>
        <time>2020-07-13T06:57:08Z</time>
      </trkpt>
      <trkpt lat="39.0564000886" lon="-6.3186221011">
        <ele>255.37</ele>
        <time>2020-07-13T06:57:09Z</time>
      </trkpt>
      <trkpt lat="39.0564643778" lon="-6.3184456620">
        <ele>255.85</ele>
        <time>2020-07-13T06:57:17Z</time>
      </trkpt>
      <trkpt lat="39.0565440897" lon="-6.3182193507">
        <ele>255.85</ele>
        <time>2020-07-13T06:57:27Z</time>
      </trkpt>
      <trkpt lat="39.0565923695" lon="-6.3179340307">
        <ele>256.33</ele>
        <time>2020-07-13T06:57:35Z</time>
      </trkpt>
      <trkpt lat="39.0566720814" lon="-6.3176332880">
        <ele>255.85</ele>
        <time>2020-07-13T06:57:43Z</time>
      </trkpt>
      <trkpt lat="39.0567851532" lon="-6.3173448667">
        <ele>255.85</ele>
        <time>2020-07-13T06:57:51Z</time>
      </trkpt>
      <trkpt lat="39.0569022484" lon="-6.3169922400">
        <ele>255.85</ele>
        <time>2020-07-13T06:58:00Z</time>
      </trkpt>
      <trkpt lat="39.0569107141" lon="-6.3169347402">
        <ele>255.37</ele>
        <time>2020-07-13T06:58:05Z</time>
      </trkpt>
      <trkpt lat="39.0569118876" lon="-6.3169366680">
        <ele>254.89</ele>
        <time>2020-07-13T06:58:16Z</time>
      </trkpt>
      <trkpt lat="39.0569145698" lon="-6.3169385958">
        <ele>253.93</ele>
        <time>2020-07-13T06:58:35Z</time>
      </trkpt>
      <trkpt lat="39.0569190122" lon="-6.3169299625">
        <ele>252.00</ele>
        <time>2020-07-13T06:58:54Z</time>
      </trkpt>
      <trkpt lat="39.0569164138" lon="-6.3169329800">
        <ele>252.96</ele>
        <time>2020-07-13T06:59:11Z</time>
      </trkpt>
      <trkpt lat="39.0569162462" lon="-6.3169262744">
        <ele>253.44</ele>
        <time>2020-07-13T06:59:23Z</time>
      </trkpt>
      <trkpt lat="39.0569105465" lon="-6.3169183955">
        <ele>254.89</ele>
        <time>2020-07-13T06:59:42Z</time>
      </trkpt>
      <trkpt lat="39.0568979736" lon="-6.3169362489">
        <ele>254.89</ele>
        <time>2020-07-13T07:00:00Z</time>
      </trkpt>
      <trkpt lat="39.0569075290" lon="-6.3169445470">
        <ele>255.37</ele>
        <time>2020-07-13T07:00:20Z</time>
      </trkpt>
      <trkpt lat="39.0569132287" lon="-6.3169446308">
        <ele>255.37</ele>
        <time>2020-07-13T07:00:38Z</time>
      </trkpt>
      <trkpt lat="39.0568960458" lon="-6.3169453852">
        <ele>257.77</ele>
        <time>2020-07-13T07:00:59Z</time>
      </trkpt>
      <trkpt lat="39.0569071099" lon="-6.3169288728">
        <ele>257.77</ele>
        <time>2020-07-13T07:01:24Z</time>
      </trkpt>
      <trkpt lat="39.0568988957" lon="-6.3169250172">
        <ele>256.33</ele>
        <time>2020-07-13T07:01:43Z</time>
      </trkpt>
      <trkpt lat="39.0568981413" lon="-6.3169346564">
        <ele>256.81</ele>
        <time>2020-07-13T07:02:04Z</time>
      </trkpt>
      <trkpt lat="39.0568983927" lon="-6.3169250172">
        <ele>257.77</ele>
        <time>2020-07-13T07:02:21Z</time>
      </trkpt>
      <trkpt lat="39.0569144860" lon="-6.3169493247">
        <ele>257.29</ele>
        <time>2020-07-13T07:02:45Z</time>
      </trkpt>
      <trkpt lat="39.0569066070" lon="-6.3169450499">
        <ele>257.29</ele>
        <time>2020-07-13T07:03:02Z</time>
      </trkpt>
      <trkpt lat="39.0569066908" lon="-6.3169494085">
        <ele>257.29</ele>
        <time>2020-07-13T07:03:15Z</time>
      </trkpt>
      <trkpt lat="39.0568983927" lon="-6.3169266935">
        <ele>257.77</ele>
        <time>2020-07-13T07:03:41Z</time>
      </trkpt>
      <trkpt lat="39.0569105465" lon="-6.3169391826">
        <ele>257.77</ele>
        <time>2020-07-13T07:04:01Z</time>
      </trkpt>
      <trkpt lat="39.0569088701" lon="-6.3169294596">
        <ele>256.81</ele>
        <time>2020-07-13T07:04:29Z</time>
      </trkpt>
      <trkpt lat="39.0569196828" lon="-6.3169345725">
        <ele>257.29</ele>
        <time>2020-07-13T07:04:55Z</time>
      </trkpt>
      <trkpt lat="39.0569127258" lon="-6.3169693574">
        <ele>255.85</ele>
        <time>2020-07-13T07:05:22Z</time>
      </trkpt>
      <trkpt lat="39.0569102112" lon="-6.3169449661">
        <ele>255.85</ele>
        <time>2020-07-13T07:05:42Z</time>
      </trkpt>
      <trkpt lat="39.0569157433" lon="-6.3169406075">
        <ele>256.33</ele>
        <time>2020-07-13T07:06:02Z</time>
      </trkpt>
      <trkpt lat="39.0569092892" lon="-6.3169359136">
        <ele>256.81</ele>
        <time>2020-07-13T07:06:20Z</time>
      </trkpt>
      <trkpt lat="39.0569104627" lon="-6.3169333991">
        <ele>255.37</ele>
        <time>2020-07-13T07:06:48Z</time>
      </trkpt>
      <trkpt lat="39.0568926092" lon="-6.3169273641">
        <ele>254.89</ele>
        <time>2020-07-13T07:07:11Z</time>
      </trkpt>
      <trkpt lat="39.0569050983" lon="-6.3169315550">
        <ele>254.89</ele>
        <time>2020-07-13T07:07:33Z</time>
      </trkpt>
      <trkpt lat="39.0569055174" lon="-6.3169321418">
        <ele>254.89</ele>
        <time>2020-07-13T07:07:49Z</time>
      </trkpt>
      <trkpt lat="39.0569166653" lon="-6.3169268612">
        <ele>255.85</ele>
        <time>2020-07-13T07:08:20Z</time>
      </trkpt>
      <trkpt lat="39.0569014940" lon="-6.3169328962">
        <ele>254.41</ele>
        <time>2020-07-13T07:08:50Z</time>
      </trkpt>
      <trkpt lat="39.0569120552" lon="-6.3169365842">
        <ele>254.89</ele>
        <time>2020-07-13T07:09:13Z</time>
      </trkpt>
      <trkpt lat="39.0569066908" lon="-6.3169416972">
        <ele>252.48</ele>
        <time>2020-07-13T07:09:29Z</time>
      </trkpt>
      <trkpt lat="39.0569101274" lon="-6.3169428706">
        <ele>252.96</ele>
        <time>2020-07-13T07:09:50Z</time>
      </trkpt>
      <trkpt lat="39.0569268074" lon="-6.3169392664">
        <ele>252.96</ele>
        <time>2020-07-13T07:10:04Z</time>
      </trkpt>
      <trkpt lat="39.0569259692" lon="-6.3169607241">
        <ele>253.93</ele>
        <time>2020-07-13T07:10:11Z</time>
      </trkpt>
      <trkpt lat="39.0569220297" lon="-6.3169799186">
        <ele>253.93</ele>
        <time>2020-07-13T07:10:12Z</time>
      </trkpt>
      <trkpt lat="39.0569145698" lon="-6.3169970177">
        <ele>254.41</ele>
        <time>2020-07-13T07:10:13Z</time>
      </trkpt>
      <trkpt lat="39.0569050983" lon="-6.3170214929">
        <ele>254.41</ele>
        <time>2020-07-13T07:10:14Z</time>
      </trkpt>
      <trkpt lat="39.0568943694" lon="-6.3170504943">
        <ele>254.41</ele>
        <time>2020-07-13T07:10:15Z</time>
      </trkpt>
      <trkpt lat="39.0568821318" lon="-6.3170851115">
        <ele>254.89</ele>
        <time>2020-07-13T07:10:16Z</time>
      </trkpt>
      <trkpt lat="39.0568691399" lon="-6.3171235006">
        <ele>254.89</ele>
        <time>2020-07-13T07:10:17Z</time>
      </trkpt>
      <trkpt lat="39.0567527991" lon="-6.3174694218">
        <ele>256.33</ele>
        <time>2020-07-13T07:10:25Z</time>
      </trkpt>
      <trkpt lat="39.0566320159" lon="-6.3178615272">
        <ele>257.29</ele>
        <time>2020-07-13T07:10:34Z</time>
      </trkpt>
      <trkpt lat="39.0565342829" lon="-6.3182809576">
        <ele>258.73</ele>
        <time>2020-07-13T07:10:43Z</time>
      </trkpt>
      <trkpt lat="39.0563922096" lon="-6.3186858036">
        <ele>258.25</ele>
        <time>2020-07-13T07:10:52Z</time>
      </trkpt>
      <trkpt lat="39.0562891960" lon="-6.3189027272">
        <ele>258.25</ele>
        <time>2020-07-13T07:10:58Z</time>
      </trkpt>
      <trkpt lat="39.0561130084" lon="-6.3192198146">
        <ele>259.69</ele>
        <time>2020-07-13T07:11:07Z</time>
      </trkpt>
      <trkpt lat="39.0559964161" lon="-6.3194981776">
        <ele>259.69</ele>
        <time>2020-07-13T07:11:14Z</time>
      </trkpt>
      <trkpt lat="39.0559135191" lon="-6.3198736031">
        <ele>260.65</ele>
        <time>2020-07-13T07:11:23Z</time>
      </trkpt>
      <trkpt lat="39.0558496490" lon="-6.3202075381">
        <ele>260.65</ele>
        <time>2020-07-13T07:11:31Z</time>
      </trkpt>
      <trkpt lat="39.0558252577" lon="-6.3205090351">
        <ele>260.65</ele>
        <time>2020-07-13T07:11:38Z</time>
      </trkpt>
      <trkpt lat="39.0558564384" lon="-6.3206698839">
        <ele>260.17</ele>
        <time>2020-07-13T07:11:44Z</time>
      </trkpt>
      <trkpt lat="39.0560019482" lon="-6.3207790162">
        <ele>259.69</ele>
        <time>2020-07-13T07:11:50Z</time>
      </trkpt>
      <trkpt lat="39.0561587736" lon="-6.3207803573">
        <ele>259.69</ele>
        <time>2020-07-13T07:11:56Z</time>
      </trkpt>
      <trkpt lat="39.0561811533" lon="-6.3207496796">
        <ele>260.17</ele>
        <time>2020-07-13T07:11:57Z</time>
      </trkpt>
      <trkpt lat="39.0562007669" lon="-6.3207147270">
        <ele>260.17</ele>
        <time>2020-07-13T07:11:58Z</time>
      </trkpt>
      <trkpt lat="39.0562203806" lon="-6.3206779305">
        <ele>260.17</ele>
        <time>2020-07-13T07:11:59Z</time>
      </trkpt>
      <trkpt lat="39.0562410001" lon="-6.3206429780">
        <ele>260.17</ele>
        <time>2020-07-13T07:12:00Z</time>
      </trkpt>
      <trkpt lat="39.0564181935" lon="-6.3203121442">
        <ele>261.14</ele>
        <time>2020-07-13T07:12:09Z</time>
      </trkpt>
      <trkpt lat="39.0566336922" lon="-6.3199160993">
        <ele>261.14</ele>
        <time>2020-07-13T07:12:19Z</time>
      </trkpt>
      <trkpt lat="39.0568905976" lon="-6.3194627222">
        <ele>262.58</ele>
        <time>2020-07-13T07:12:30Z</time>
      </trkpt>
      <trkpt lat="39.0571542084" lon="-6.3190159667">
        <ele>262.10</ele>
        <time>2020-07-13T07:12:41Z</time>
      </trkpt>
      <trkpt lat="39.0574480779" lon="-6.3186571375">
        <ele>262.10</ele>
        <time>2020-07-13T07:12:52Z</time>
      </trkpt>
      <trkpt lat="39.0577149577" lon="-6.3184271380">
        <ele>262.10</ele>
        <time>2020-07-13T07:13:02Z</time>
      </trkpt>
      <trkpt lat="39.0579821728" lon="-6.3182706479">
        <ele>262.58</ele>
        <time>2020-07-13T07:13:12Z</time>
      </trkpt>
      <trkpt lat="39.0582083166" lon="-6.3181804586">
        <ele>263.06</ele>
        <time>2020-07-13T07:13:21Z</time>
      </trkpt>
      <trkpt lat="39.0584721789" lon="-6.3180851564">
        <ele>264.02</ele>
        <time>2020-07-13T07:13:32Z</time>
      </trkpt>
      <trkpt lat="39.0587611869" lon="-6.3179976493">
        <ele>265.46</ele>
        <time>2020-07-13T07:13:44Z</time>
      </trkpt>
      <trkpt lat="39.0590587445" lon="-6.3179082982">
        <ele>267.38</ele>
        <time>2020-07-13T07:13:57Z</time>
      </trkpt>
      <trkpt lat="39.0591848083" lon="-6.3178709988">
        <ele>267.86</ele>
        <time>2020-07-13T07:14:04Z</time>
      </trkpt>
      <trkpt lat="39.0593425557" lon="-6.3178218808">
        <ele>269.31</ele>
        <time>2020-07-13T07:14:12Z</time>
      </trkpt>
      <trkpt lat="39.0595117863" lon="-6.3177685719">
        <ele>269.79</ele>
        <time>2020-07-13T07:14:21Z</time>
      </trkpt>
      <trkpt lat="39.0596845374" lon="-6.3177179452">
        <ele>270.27</ele>
        <time>2020-07-13T07:14:30Z</time>
      </trkpt>
      <trkpt lat="39.0598536842" lon="-6.3176556677">
        <ele>271.23</ele>
        <time>2020-07-13T07:14:39Z</time>
      </trkpt>
      <trkpt lat="39.0600561071" lon="-6.3175868522">
        <ele>271.23</ele>
        <time>2020-07-13T07:14:49Z</time>
      </trkpt>
      <trkpt lat="39.0602663253" lon="-6.3175254967">
        <ele>272.19</ele>
        <time>2020-07-13T07:14:59Z</time>
      </trkpt>
      <trkpt lat="39.0604996774" lon="-6.3174425159">
        <ele>272.67</ele>
        <time>2020-07-13T07:15:10Z</time>
      </trkpt>
      <trkpt lat="39.0607461054" lon="-6.3173570205">
        <ele>274.59</ele>
        <time>2020-07-13T07:15:22Z</time>
      </trkpt>
      <trkpt lat="39.0609432478" lon="-6.3172741234">
        <ele>276.04</ele>
        <time>2020-07-13T07:15:31Z</time>
      </trkpt>
      <trkpt lat="39.0612344351" lon="-6.3171506580">
        <ele>277.00</ele>
        <time>2020-07-13T07:15:44Z</time>
      </trkpt>
      <trkpt lat="39.0614829585" lon="-6.3170355745">
        <ele>278.44</ele>
        <time>2020-07-13T07:15:55Z</time>
      </trkpt>
      <trkpt lat="39.0617112815" lon="-6.3169254363">
        <ele>279.40</ele>
        <time>2020-07-13T07:16:05Z</time>
      </trkpt>
      <trkpt lat="39.0619529318" lon="-6.3168002944">
        <ele>279.88</ele>
        <time>2020-07-13T07:16:15Z</time>
      </trkpt>
      <trkpt lat="39.0622649901" lon="-6.3166347519">
        <ele>281.32</ele>
        <time>2020-07-13T07:16:28Z</time>
      </trkpt>
      <trkpt lat="39.0625016950" lon="-6.3165005576">
        <ele>282.28</ele>
        <time>2020-07-13T07:16:38Z</time>
      </trkpt>
      <trkpt lat="39.0627808962" lon="-6.3163322490">
        <ele>283.73</ele>
        <time>2020-07-13T07:16:50Z</time>
      </trkpt>
      <trkpt lat="39.0630275756" lon="-6.3161741663">
        <ele>285.65</ele>
        <time>2020-07-13T07:17:01Z</time>
      </trkpt>
      <trkpt lat="39.0632767696" lon="-6.3160045166">
        <ele>286.61</ele>
        <time>2020-07-13T07:17:12Z</time>
      </trkpt>
      <trkpt lat="39.0635794401" lon="-6.3157867547">
        <ele>287.57</ele>
        <time>2020-07-13T07:17:25Z</time>
      </trkpt>
      <trkpt lat="39.0638658497" lon="-6.3155622035">
        <ele>288.05</ele>
        <time>2020-07-13T07:17:37Z</time>
      </trkpt>
      <trkpt lat="39.0641431231" lon="-6.3153462019">
        <ele>289.49</ele>
        <time>2020-07-13T07:17:49Z</time>
      </trkpt>
      <trkpt lat="39.0644282755" lon="-6.3151188008">
        <ele>291.42</ele>
        <time>2020-07-13T07:18:02Z</time>
      </trkpt>
      <trkpt lat="39.0647341311" lon="-6.3148773182">
        <ele>293.34</ele>
        <time>2020-07-13T07:18:16Z</time>
      </trkpt>
      <trkpt lat="39.0649511386" lon="-6.3147085067">
        <ele>294.78</ele>
        <time>2020-07-13T07:18:26Z</time>
      </trkpt>
      <trkpt lat="39.0651936270" lon="-6.3145282120">
        <ele>296.22</ele>
        <time>2020-07-13T07:18:37Z</time>
      </trkpt>
      <trkpt lat="39.0654033422" lon="-6.3143753260">
        <ele>297.18</ele>
        <time>2020-07-13T07:18:47Z</time>
      </trkpt>
      <trkpt lat="39.0655721538" lon="-6.3142641820">
        <ele>298.15</ele>
        <time>2020-07-13T07:18:56Z</time>
      </trkpt>
      <trkpt lat="39.0657817014" lon="-6.3141221087">
        <ele>299.11</ele>
        <time>2020-07-13T07:19:07Z</time>
      </trkpt>
      <trkpt lat="39.0659548715" lon="-6.3140167482">
        <ele>299.59</ele>
        <time>2020-07-13T07:19:16Z</time>
      </trkpt>
      <trkpt lat="39.0662231762" lon="-6.3138636947">
        <ele>300.55</ele>
        <time>2020-07-13T07:19:29Z</time>
      </trkpt>
      <trkpt lat="39.0664231684" lon="-6.3137399778">
        <ele>301.51</ele>
        <time>2020-07-13T07:19:38Z</time>
      </trkpt>
      <trkpt lat="39.0667156130" lon="-6.3135855831">
        <ele>302.95</ele>
        <time>2020-07-13T07:19:51Z</time>
      </trkpt>
      <trkpt lat="39.0669417568" lon="-6.3134685718">
        <ele>303.91</ele>
        <time>2020-07-13T07:20:01Z</time>
      </trkpt>
      <trkpt lat="39.0671984944" lon="-6.3133420888">
        <ele>304.88</ele>
        <time>2020-07-13T07:20:12Z</time>
      </trkpt>
      <trkpt lat="39.0674595907" lon="-6.3132166117">
        <ele>305.84</ele>
        <time>2020-07-13T07:20:23Z</time>
      </trkpt>
      <trkpt lat="39.0676988941" lon="-6.3131012768">
        <ele>306.32</ele>
        <time>2020-07-13T07:20:33Z</time>
      </trkpt>
      <trkpt lat="39.0678988025" lon="-6.3130235765">
        <ele>307.28</ele>
        <time>2020-07-13T07:20:41Z</time>
      </trkpt>
      <trkpt lat="39.0680828691" lon="-6.3129379135">
        <ele>308.24</ele>
        <time>2020-07-13T07:20:49Z</time>
      </trkpt>
      <trkpt lat="39.0683162212" lon="-6.3128317147">
        <ele>309.68</ele>
        <time>2020-07-13T07:20:59Z</time>
      </trkpt>
      <trkpt lat="39.0685043950" lon="-6.3127493206">
        <ele>311.12</ele>
        <time>2020-07-13T07:21:08Z</time>
      </trkpt>
      <trkpt lat="39.0687654912" lon="-6.3126297109">
        <ele>313.05</ele>
        <time>2020-07-13T07:21:20Z</time>
      </trkpt>
      <trkpt lat="39.0690432675" lon="-6.3125127833">
        <ele>314.97</ele>
        <time>2020-07-13T07:21:32Z</time>
      </trkpt>
      <trkpt lat="39.0692186169" lon="-6.3124420401">
        <ele>316.41</ele>
        <time>2020-07-13T07:21:41Z</time>
      </trkpt>
      <trkpt lat="39.0694005881" lon="-6.3123964425">
        <ele>318.81</ele>
        <time>2020-07-13T07:21:51Z</time>
      </trkpt>
      <trkpt lat="39.0696203616" lon="-6.3123688661">
        <ele>320.74</ele>
        <time>2020-07-13T07:22:03Z</time>
      </trkpt>
      <trkpt lat="39.0698491037" lon="-6.3123640884">
        <ele>321.70</ele>
        <time>2020-07-13T07:22:15Z</time>
      </trkpt>
      <trkpt lat="39.0700299013" lon="-6.3123937603">
        <ele>323.62</ele>
        <time>2020-07-13T07:22:25Z</time>
      </trkpt>
      <trkpt lat="39.0701994672" lon="-6.3124432135">
        <ele>324.58</ele>
        <time>2020-07-13T07:22:34Z</time>
      </trkpt>
      <trkpt lat="39.0704694483" lon="-6.3125529326">
        <ele>325.54</ele>
        <time>2020-07-13T07:22:48Z</time>
      </trkpt>
      <trkpt lat="39.0706851147" lon="-6.3126406074">
        <ele>325.54</ele>
        <time>2020-07-13T07:22:59Z</time>
      </trkpt>
      <trkpt lat="39.0709283575" lon="-6.3127386756">
        <ele>326.99</ele>
        <time>2020-07-13T07:23:11Z</time>
      </trkpt>
      <trkpt lat="39.0711880289" lon="-6.3127973489">
        <ele>328.43</ele>
        <time>2020-07-13T07:23:23Z</time>
      </trkpt>
      <trkpt lat="39.0713689104" lon="-6.3128077425">
        <ele>329.39</ele>
        <time>2020-07-13T07:23:32Z</time>
      </trkpt>
      <trkpt lat="39.0715954732" lon="-6.3128079940">
        <ele>329.39</ele>
        <time>2020-07-13T07:23:43Z</time>
      </trkpt>
      <trkpt lat="39.0717879217" lon="-6.3127842732">
        <ele>329.87</ele>
        <time>2020-07-13T07:23:52Z</time>
      </trkpt>
      <trkpt lat="39.0719564818" lon="-6.3127539307">
        <ele>330.35</ele>
        <time>2020-07-13T07:24:00Z</time>
      </trkpt>
      <trkpt lat="39.0721691307" lon="-6.3127018791">
        <ele>331.31</ele>
        <time>2020-07-13T07:24:10Z</time>
      </trkpt>
      <trkpt lat="39.0723806061" lon="-6.3126282021">
        <ele>331.79</ele>
        <time>2020-07-13T07:24:20Z</time>
      </trkpt>
      <trkpt lat="39.0726267826" lon="-6.3125273678">
        <ele>332.75</ele>
        <time>2020-07-13T07:24:32Z</time>
      </trkpt>
      <trkpt lat="39.0728378389" lon="-6.3123986218">
        <ele>334.68</ele>
        <time>2020-07-13T07:24:43Z</time>
      </trkpt>
      <trkpt lat="39.0730130207" lon="-6.3122597337">
        <ele>335.64</ele>
        <time>2020-07-13T07:24:53Z</time>
      </trkpt>
      <trkpt lat="39.0731316246" lon="-6.3121288083">
        <ele>337.56</ele>
        <time>2020-07-13T07:25:02Z</time>
      </trkpt>
      <trkpt lat="39.0732725244" lon="-6.3119419757">
        <ele>339.96</ele>
        <time>2020-07-13T07:25:13Z</time>
      </trkpt>
      <trkpt lat="39.0734057128" lon="-6.3116928656">
        <ele>342.37</ele>
        <time>2020-07-13T07:25:25Z</time>
      </trkpt>
      <trkpt lat="39.0734650567" lon="-6.3115611020">
        <ele>343.33</ele>
        <time>2020-07-13T07:25:33Z</time>
      </trkpt>
      <trkpt lat="39.0735275857" lon="-6.3113858365">
        <ele>344.29</ele>
        <time>2020-07-13T07:25:43Z</time>
      </trkpt>
      <trkpt lat="39.0735813137" lon="-6.3111764565">
        <ele>344.77</ele>
        <time>2020-07-13T07:25:53Z</time>
      </trkpt>
      <trkpt lat="39.0736227203" lon="-6.3109435234">
        <ele>346.21</ele>
        <time>2020-07-13T07:26:03Z</time>
      </trkpt>
      <trkpt lat="39.0736481175" lon="-6.3107535895">
        <ele>347.17</ele>
        <time>2020-07-13T07:26:11Z</time>
      </trkpt>
      <trkpt lat="39.0736571699" lon="-6.3104812615">
        <ele>346.21</ele>
        <time>2020-07-13T07:26:22Z</time>
      </trkpt>
      <trkpt lat="39.0736445133" lon="-6.3101814408">
        <ele>346.21</ele>
        <time>2020-07-13T07:26:34Z</time>
      </trkpt>
      <trkpt lat="39.0736292582" lon="-6.3099821191">
        <ele>346.21</ele>
        <time>2020-07-13T07:26:42Z</time>
      </trkpt>
      <trkpt lat="39.0736053698" lon="-6.3097504433">
        <ele>347.17</ele>
        <time>2020-07-13T07:26:51Z</time>
      </trkpt>
      <trkpt lat="39.0735975746" lon="-6.3094971422">
        <ele>347.65</ele>
        <time>2020-07-13T07:27:01Z</time>
      </trkpt>
      <trkpt lat="39.0735994186" lon="-6.3092760276">
        <ele>347.65</ele>
        <time>2020-07-13T07:27:11Z</time>
      </trkpt>
      <trkpt lat="39.0736176074" lon="-6.3090466987">
        <ele>348.62</ele>
        <time>2020-07-13T07:27:20Z</time>
      </trkpt>
      <trkpt lat="39.0736621153" lon="-6.3087467942">
        <ele>350.06</ele>
        <time>2020-07-13T07:27:32Z</time>
      </trkpt>
      <trkpt lat="39.0737088025" lon="-6.3085703552">
        <ele>351.02</ele>
        <time>2020-07-13T07:27:39Z</time>
      </trkpt>
      <trkpt lat="39.0737383068" lon="-6.3084801659">
        <ele>351.50</ele>
        <time>2020-07-13T07:27:45Z</time>
      </trkpt>
      <trkpt lat="39.0738115646" lon="-6.3082869630">
        <ele>351.98</ele>
        <time>2020-07-13T07:27:54Z</time>
      </trkpt>
      <trkpt lat="39.0739262290" lon="-6.3080342487">
        <ele>352.46</ele>
        <time>2020-07-13T07:28:03Z</time>
      </trkpt>
      <trkpt lat="39.0741294902" lon="-6.3077123836">
        <ele>352.94</ele>
        <time>2020-07-13T07:28:13Z</time>
      </trkpt>
      <trkpt lat="39.0743065160" lon="-6.3074910175">
        <ele>352.94</ele>
        <time>2020-07-13T07:28:22Z</time>
      </trkpt>
      <trkpt lat="39.0744794346" lon="-6.3072824758">
        <ele>352.46</ele>
        <time>2020-07-13T07:28:31Z</time>
      </trkpt>
      <trkpt lat="39.0747269522" lon="-6.3069678191">
        <ele>351.98</ele>
        <time>2020-07-13T07:28:42Z</time>
      </trkpt>
      <trkpt lat="39.0747405309" lon="-6.3069416676">
        <ele>351.98</ele>
        <time>2020-07-13T07:28:47Z</time>
      </trkpt>
      <trkpt lat="39.0747414529" lon="-6.3069459423">
        <ele>352.94</ele>
        <time>2020-07-13T07:28:58Z</time>
      </trkpt>
      <trkpt lat="39.0747329034" lon="-6.3069456909">
        <ele>353.42</ele>
        <time>2020-07-13T07:29:16Z</time>
      </trkpt>
      <trkpt lat="39.0747337416" lon="-6.3069557492">
        <ele>352.94</ele>
        <time>2020-07-13T07:29:41Z</time>
      </trkpt>
      <trkpt lat="39.0747320652" lon="-6.3069182821">
        <ele>351.50</ele>
        <time>2020-07-13T07:30:12Z</time>
      </trkpt>
      <trkpt lat="39.0747313108" lon="-6.3069155160">
        <ele>352.94</ele>
        <time>2020-07-13T07:30:44Z</time>
      </trkpt>
      <trkpt lat="39.0747344121" lon="-6.3069264963">
        <ele>353.90</ele>
        <time>2020-07-13T07:31:10Z</time>
      </trkpt>
      <trkpt lat="39.0747385193" lon="-6.3069365546">
        <ele>352.46</ele>
        <time>2020-07-13T07:31:21Z</time>
      </trkpt>
      <trkpt lat="39.0748068318" lon="-6.3068686612">
        <ele>352.46</ele>
        <time>2020-07-13T07:31:27Z</time>
      </trkpt>
      <trkpt lat="39.0750231687" lon="-6.3066043798">
        <ele>352.94</ele>
        <time>2020-07-13T07:31:36Z</time>
      </trkpt>
      <trkpt lat="39.0752833430" lon="-6.3062787428">
        <ele>353.42</ele>
        <time>2020-07-13T07:31:45Z</time>
      </trkpt>
      <trkpt lat="39.0756292641" lon="-6.3058490027">
        <ele>353.42</ele>
        <time>2020-07-13T07:31:56Z</time>
      </trkpt>
      <trkpt lat="39.0759804659" lon="-6.3054024149">
        <ele>353.42</ele>
        <time>2020-07-13T07:32:07Z</time>
      </trkpt>
      <trkpt lat="39.0764186718" lon="-6.3048528135">
        <ele>353.90</ele>
        <time>2020-07-13T07:32:21Z</time>
      </trkpt>
      <trkpt lat="39.0768185724" lon="-6.3043555990">
        <ele>354.86</ele>
        <time>2020-07-13T07:32:34Z</time>
      </trkpt>
      <trkpt lat="39.0771401022" lon="-6.3039548602">
        <ele>355.83</ele>
        <time>2020-07-13T07:32:45Z</time>
      </trkpt>
      <trkpt lat="39.0773580316" lon="-6.3037044089">
        <ele>355.83</ele>
        <time>2020-07-13T07:32:53Z</time>
      </trkpt>
      <trkpt lat="39.0775814932" lon="-6.3034155685">
        <ele>356.31</ele>
        <time>2020-07-13T07:33:03Z</time>
      </trkpt>
      <trkpt lat="39.0778414160" lon="-6.3030838128">
        <ele>357.27</ele>
        <time>2020-07-13T07:33:14Z</time>
      </trkpt>
      <trkpt lat="39.0780282486" lon="-6.3028638717">
        <ele>356.79</ele>
        <time>2020-07-13T07:33:22Z</time>
      </trkpt>
      <trkpt lat="39.0781978145" lon="-6.3026341237">
        <ele>357.27</ele>
        <time>2020-07-13T07:33:29Z</time>
      </trkpt>
      <trkpt lat="39.0784520376" lon="-6.3023247477">
        <ele>357.75</ele>
        <time>2020-07-13T07:33:39Z</time>
      </trkpt>
      <trkpt lat="39.0786993876" lon="-6.3020163774">
        <ele>357.27</ele>
        <time>2020-07-13T07:33:49Z</time>
      </trkpt>
      <trkpt lat="39.0789845400" lon="-6.3016485795">
        <ele>357.27</ele>
        <time>2020-07-13T07:34:00Z</time>
      </trkpt>
      <trkpt lat="39.0791631583" lon="-6.3014254533">
        <ele>357.75</ele>
        <time>2020-07-13T07:34:07Z</time>
      </trkpt>
      <trkpt lat="39.0794405993" lon="-6.3010711502">
        <ele>357.75</ele>
        <time>2020-07-13T07:34:18Z</time>
      </trkpt>
      <trkpt lat="39.0797019470" lon="-6.3007486984">
        <ele>358.23</ele>
        <time>2020-07-13T07:34:28Z</time>
      </trkpt>
      <trkpt lat="39.0799244028" lon="-6.3004748616">
        <ele>357.75</ele>
        <time>2020-07-13T07:34:37Z</time>
      </trkpt>
      <trkpt lat="39.0801655501" lon="-6.3001740351">
        <ele>358.23</ele>
        <time>2020-07-13T07:34:46Z</time>
      </trkpt>
      <trkpt lat="39.0804711543" lon="-6.2997954246">
        <ele>357.75</ele>
        <time>2020-07-13T07:34:58Z</time>
      </trkpt>
      <trkpt lat="39.0807262994" lon="-6.2994762417">
        <ele>357.75</ele>
        <time>2020-07-13T07:35:08Z</time>
      </trkpt>
      <trkpt lat="39.0809137188" lon="-6.2992463261">
        <ele>357.75</ele>
        <time>2020-07-13T07:35:16Z</time>
      </trkpt>
      <trkpt lat="39.0811116993" lon="-6.2989952043">
        <ele>357.75</ele>
        <time>2020-07-13T07:35:24Z</time>
      </trkpt>
      <trkpt lat="39.0813315567" lon="-6.2987230439">
        <ele>358.23</ele>
        <time>2020-07-13T07:35:33Z</time>
      </trkpt>
      <trkpt lat="39.0815991908" lon="-6.2983824033">
        <ele>358.23</ele>
        <time>2020-07-13T07:35:44Z</time>
      </trkpt>
      <trkpt lat="39.0817831736" lon="-6.2981535774">
        <ele>358.71</ele>
        <time>2020-07-13T07:35:52Z</time>
      </trkpt>
      <trkpt lat="39.0820663143" lon="-6.2977980170">
        <ele>359.19</ele>
        <time>2020-07-13T07:36:04Z</time>
      </trkpt>
      <trkpt lat="39.0823101439" lon="-6.2974945921">
        <ele>359.67</ele>
        <time>2020-07-13T07:36:14Z</time>
      </trkpt>
      <trkpt lat="39.0825527161" lon="-6.2971888203">
        <ele>359.67</ele>
        <time>2020-07-13T07:36:24Z</time>
      </trkpt>
      <trkpt lat="39.0828028321" lon="-6.2968706433">
        <ele>360.15</ele>
        <time>2020-07-13T07:36:35Z</time>
      </trkpt>
      <trkpt lat="39.0830621682" lon="-6.2965528015">
        <ele>360.63</ele>
        <time>2020-07-13T07:36:46Z</time>
      </trkpt>
      <trkpt lat="39.0832465701" lon="-6.2963169347">
        <ele>361.59</ele>
        <time>2020-07-13T07:36:54Z</time>
      </trkpt>
      <trkpt lat="39.0834597219" lon="-6.2960486300">
        <ele>361.59</ele>
        <time>2020-07-13T07:37:03Z</time>
      </trkpt>
      <trkpt lat="39.0837272722" lon="-6.2957094144">
        <ele>361.59</ele>
        <time>2020-07-13T07:37:14Z</time>
      </trkpt>
      <trkpt lat="39.0840612072" lon="-6.2952894811">
        <ele>361.59</ele>
        <time>2020-07-13T07:37:27Z</time>
      </trkpt>
      <trkpt lat="39.0843597706" lon="-6.2949208450">
        <ele>362.07</ele>
        <time>2020-07-13T07:37:38Z</time>
      </trkpt>
      <trkpt lat="39.0845911112" lon="-6.2946259696">
        <ele>362.55</ele>
        <time>2020-07-13T07:37:47Z</time>
      </trkpt>
      <trkpt lat="39.0849288180" lon="-6.2942058686">
        <ele>362.55</ele>
        <time>2020-07-13T07:37:59Z</time>
      </trkpt>
      <trkpt lat="39.0852941852" lon="-6.2937430199">
        <ele>363.04</ele>
        <time>2020-07-13T07:38:11Z</time>
      </trkpt>
      <trkpt lat="39.0857126098" lon="-6.2932160497">
        <ele>363.52</ele>
        <time>2020-07-13T07:38:24Z</time>
      </trkpt>
      <trkpt lat="39.0860543400" lon="-6.2927785143">
        <ele>364.00</ele>
        <time>2020-07-13T07:38:35Z</time>
      </trkpt>
      <trkpt lat="39.0863625426" lon="-6.2923988141">
        <ele>364.00</ele>
        <time>2020-07-13T07:38:45Z</time>
      </trkpt>
      <trkpt lat="39.0868360363" lon="-6.2917938083">
        <ele>365.44</ele>
        <time>2020-07-13T07:39:00Z</time>
      </trkpt>
      <trkpt lat="39.0872576460" lon="-6.2912948336">
        <ele>366.40</ele>
        <time>2020-07-13T07:39:13Z</time>
      </trkpt>
      <trkpt lat="39.0876915772" lon="-6.2908682786">
        <ele>366.88</ele>
        <time>2020-07-13T07:39:26Z</time>
      </trkpt>
      <trkpt lat="39.0879981872" lon="-6.2906206772">
        <ele>366.88</ele>
        <time>2020-07-13T07:39:35Z</time>
      </trkpt>
      <trkpt lat="39.0883911308" lon="-6.2903508637">
        <ele>367.36</ele>
        <time>2020-07-13T07:39:46Z</time>
      </trkpt>
      <trkpt lat="39.0887761954" lon="-6.2900913600">
        <ele>367.84</ele>
        <time>2020-07-13T07:39:57Z</time>
      </trkpt>
      <trkpt lat="39.0892018285" lon="-6.2898150925">
        <ele>368.32</ele>
        <time>2020-07-13T07:40:09Z</time>
      </trkpt>
      <trkpt lat="39.0895278007" lon="-6.2895992585">
        <ele>368.32</ele>
        <time>2020-07-13T07:40:19Z</time>
      </trkpt>
      <trkpt lat="39.0899001248" lon="-6.2893584464">
        <ele>368.32</ele>
        <time>2020-07-13T07:40:30Z</time>
      </trkpt>
      <trkpt lat="39.0903392527" lon="-6.2890598830">
        <ele>368.32</ele>
        <time>2020-07-13T07:40:43Z</time>
      </trkpt>
      <trkpt lat="39.0908004250" lon="-6.2887577992">
        <ele>368.32</ele>
        <time>2020-07-13T07:40:56Z</time>
      </trkpt>
      <trkpt lat="39.0912184305" lon="-6.2884858903">
        <ele>368.80</ele>
        <time>2020-07-13T07:41:08Z</time>
      </trkpt>
      <trkpt lat="39.0917205065" lon="-6.2881496921">
        <ele>369.76</ele>
        <time>2020-07-13T07:41:22Z</time>
      </trkpt>
      <trkpt lat="39.0921815950" lon="-6.2878457643">
        <ele>369.76</ele>
        <time>2020-07-13T07:41:35Z</time>
      </trkpt>
      <trkpt lat="39.0925657377" lon="-6.2875881046">
        <ele>369.76</ele>
        <time>2020-07-13T07:41:46Z</time>
      </trkpt>
      <trkpt lat="39.0928471182" lon="-6.2873997632">
        <ele>370.24</ele>
        <time>2020-07-13T07:41:55Z</time>
      </trkpt>
      <trkpt lat="39.0932074562" lon="-6.2871696800">
        <ele>370.73</ele>
        <time>2020-07-13T07:42:05Z</time>
      </trkpt>
      <trkpt lat="39.0936526190" lon="-6.2868696917">
        <ele>370.73</ele>
        <time>2020-07-13T07:42:17Z</time>
      </trkpt>
      <trkpt lat="39.0940985363" lon="-6.2865782529">
        <ele>371.21</ele>
        <time>2020-07-13T07:42:29Z</time>
      </trkpt>
      <trkpt lat="39.0944791585" lon="-6.2863297295">
        <ele>371.21</ele>
        <time>2020-07-13T07:42:40Z</time>
      </trkpt>
      <trkpt lat="39.0948420949" lon="-6.2861321680">
        <ele>371.21</ele>
        <time>2020-07-13T07:42:50Z</time>
      </trkpt>
      <trkpt lat="39.0951953921" lon="-6.2859998178">
        <ele>371.21</ele>
        <time>2020-07-13T07:43:00Z</time>
      </trkpt>
      <trkpt lat="39.0953946300" lon="-6.2859512866">
        <ele>371.69</ele>
        <time>2020-07-13T07:43:08Z</time>
      </trkpt>
      <trkpt lat="39.0957282297" lon="-6.2859013304">
        <ele>372.17</ele>
        <time>2020-07-13T07:43:19Z</time>
      </trkpt>
      <trkpt lat="39.0962962713" lon="-6.2859009951">
        <ele>373.13</ele>
        <time>2020-07-13T07:43:35Z</time>
      </trkpt>
      <trkpt lat="39.0965904761" lon="-6.2859121431">
        <ele>373.61</ele>
        <time>2020-07-13T07:43:44Z</time>
      </trkpt>
      <trkpt lat="39.0969340503" lon="-6.2859253865">
        <ele>375.05</ele>
        <time>2020-07-13T07:43:55Z</time>
      </trkpt>
      <trkpt lat="39.0973548219" lon="-6.2859312538">
        <ele>375.53</ele>
        <time>2020-07-13T07:44:08Z</time>
      </trkpt>
      <trkpt lat="39.0976750944" lon="-6.2858892605">
        <ele>375.53</ele>
        <time>2020-07-13T07:44:19Z</time>
      </trkpt>
      <trkpt lat="39.0980131365" lon="-6.2857986521">
        <ele>376.01</ele>
        <time>2020-07-13T07:44:30Z</time>
      </trkpt>
      <trkpt lat="39.0984194912" lon="-6.2856341992">
        <ele>376.49</ele>
        <time>2020-07-13T07:44:43Z</time>
      </trkpt>
      <trkpt lat="39.0985518415" lon="-6.2855672278">
        <ele>376.49</ele>
        <time>2020-07-13T07:44:51Z</time>
      </trkpt>
      <trkpt lat="39.0985515900" lon="-6.2855701614">
        <ele>376.97</ele>
        <time>2020-07-13T07:44:57Z</time>
      </trkpt>
      <trkpt lat="39.0985313058" lon="-6.2855725922">
        <ele>376.01</ele>
        <time>2020-07-13T07:45:13Z</time>
      </trkpt>
      <trkpt lat="39.0985286236" lon="-6.2855802197">
        <ele>375.05</ele>
        <time>2020-07-13T07:45:29Z</time>
      </trkpt>
      <trkpt lat="39.0985400230" lon="-6.2855822314">
        <ele>377.45</ele>
        <time>2020-07-13T07:45:43Z</time>
      </trkpt>
      <trkpt lat="39.0985303000" lon="-6.2855862547">
        <ele>377.94</ele>
        <time>2020-07-13T07:46:05Z</time>
      </trkpt>
      <trkpt lat="39.0985327307" lon="-6.2855970673">
        <ele>377.94</ele>
        <time>2020-07-13T07:46:18Z</time>
      </trkpt>
      <trkpt lat="39.0985281207" lon="-6.2855823990">
        <ele>379.86</ele>
        <time>2020-07-13T07:46:44Z</time>
      </trkpt>
      <trkpt lat="39.0985341556" lon="-6.2855744362">
        <ele>379.86</ele>
        <time>2020-07-13T07:47:02Z</time>
      </trkpt>
      <trkpt lat="39.0985349100" lon="-6.2855833210">
        <ele>377.94</ele>
        <time>2020-07-13T07:47:25Z</time>
      </trkpt>
      <trkpt lat="39.0985377599" lon="-6.2855647132">
        <ele>377.94</ele>
        <time>2020-07-13T07:47:43Z</time>
      </trkpt>
      <trkpt lat="39.0986139514" lon="-6.2855290063">
        <ele>378.42</ele>
        <time>2020-07-13T07:47:50Z</time>
      </trkpt>
      <trkpt lat="39.0988354012" lon="-6.2853972428">
        <ele>378.90</ele>
        <time>2020-07-13T07:47:59Z</time>
      </trkpt>
      <trkpt lat="39.0991333779" lon="-6.2852114160">
        <ele>378.90</ele>
        <time>2020-07-13T07:48:09Z</time>
      </trkpt>
      <trkpt lat="39.0991612058" lon="-6.2852047943">
        <ele>378.90</ele>
        <time>2020-07-13T07:48:11Z</time>
      </trkpt>
      <trkpt lat="39.0991678275" lon="-6.2852156907">
        <ele>378.90</ele>
        <time>2020-07-13T07:48:12Z</time>
      </trkpt>
      <trkpt lat="39.0991618764" lon="-6.2852361426">
        <ele>378.90</ele>
        <time>2020-07-13T07:48:13Z</time>
      </trkpt>
      <trkpt lat="39.0991409216" lon="-6.2852551695">
        <ele>378.42</ele>
        <time>2020-07-13T07:48:14Z</time>
      </trkpt>
      <trkpt lat="39.0991185419" lon="-6.2852643058">
        <ele>378.42</ele>
        <time>2020-07-13T07:48:15Z</time>
      </trkpt>
      <trkpt lat="39.0990918037" lon="-6.2852719333">
        <ele>378.42</ele>
        <time>2020-07-13T07:48:16Z</time>
      </trkpt>
      <trkpt lat="39.0989333857" lon="-6.2853259128">
        <ele>377.45</ele>
        <time>2020-07-13T07:48:23Z</time>
      </trkpt>
      <trkpt lat="39.0989420190" lon="-6.2853197102">
        <ele>377.94</ele>
        <time>2020-07-13T07:48:34Z</time>
      </trkpt>
      <trkpt lat="39.0989431087" lon="-6.2853220571">
        <ele>378.42</ele>
        <time>2020-07-13T07:48:35Z</time>
      </trkpt>
      <trkpt lat="39.0989553463" lon="-6.2853693310">
        <ele>378.42</ele>
        <time>2020-07-13T07:48:41Z</time>
      </trkpt>
      <trkpt lat="39.0989675839" lon="-6.2853459455">
        <ele>377.94</ele>
        <time>2020-07-13T07:48:42Z</time>
      </trkpt>
      <trkpt lat="39.0989747085" lon="-6.2853279244">
        <ele>377.94</ele>
        <time>2020-07-13T07:48:43Z</time>
      </trkpt>
      <trkpt lat="39.0990723576" lon="-6.2852518167">
        <ele>377.94</ele>
        <time>2020-07-13T07:48:50Z</time>
      </trkpt>
      <trkpt lat="39.0992793068" lon="-6.2851244118">
        <ele>377.94</ele>
        <time>2020-07-13T07:48:58Z</time>
      </trkpt>
      <trkpt lat="39.0995222982" lon="-6.2849804107">
        <ele>378.42</ele>
        <time>2020-07-13T07:49:06Z</time>
      </trkpt>
      <trkpt lat="39.0998488571" lon="-6.2847759761">
        <ele>377.94</ele>
        <time>2020-07-13T07:49:16Z</time>
      </trkpt>
      <trkpt lat="39.1002114583" lon="-6.2845508382">
        <ele>377.94</ele>
        <time>2020-07-13T07:49:27Z</time>
      </trkpt>
      <trkpt lat="39.1006382648" lon="-6.2842872273">
        <ele>378.90</ele>
        <time>2020-07-13T07:49:40Z</time>
      </trkpt>
      <trkpt lat="39.1010278556" lon="-6.2840471696">
        <ele>379.38</ele>
        <time>2020-07-13T07:49:52Z</time>
      </trkpt>
      <trkpt lat="39.1013957374" lon="-6.2838243786">
        <ele>379.86</ele>
        <time>2020-07-13T07:50:03Z</time>
      </trkpt>
      <trkpt lat="39.1018445883" lon="-6.2835419923">
        <ele>380.34</ele>
        <time>2020-07-13T07:50:16Z</time>
      </trkpt>
      <trkpt lat="39.1021039244" lon="-6.2833803892">
        <ele>380.34</ele>
        <time>2020-07-13T07:50:24Z</time>
      </trkpt>
      <trkpt lat="39.1024391167" lon="-6.2831660639">
        <ele>381.30</ele>
        <time>2020-07-13T07:50:34Z</time>
      </trkpt>
      <trkpt lat="39.1028458066" lon="-6.2829140201">
        <ele>381.78</ele>
        <time>2020-07-13T07:50:46Z</time>
      </trkpt>
      <trkpt lat="39.1030931566" lon="-6.2827632297">
        <ele>381.78</ele>
        <time>2020-07-13T07:50:54Z</time>
      </trkpt>
      <trkpt lat="39.1035157721" lon="-6.2825086713">
        <ele>382.26</ele>
        <time>2020-07-13T07:51:07Z</time>
      </trkpt>
      <trkpt lat="39.1039424110" lon="-6.2822456472">
        <ele>382.74</ele>
        <time>2020-07-13T07:51:20Z</time>
      </trkpt>
      <trkpt lat="39.1042792797" lon="-6.2820361834">
        <ele>383.22</ele>
        <time>2020-07-13T07:51:30Z</time>
      </trkpt>
      <trkpt lat="39.1046717204" lon="-6.2817982212">
        <ele>384.18</ele>
        <time>2020-07-13T07:51:42Z</time>
      </trkpt>
      <trkpt lat="39.1050299630" lon="-6.2815761846">
        <ele>384.66</ele>
        <time>2020-07-13T07:51:53Z</time>
      </trkpt>
      <trkpt lat="39.1054098308" lon="-6.2813646253">
        <ele>385.15</ele>
        <time>2020-07-13T07:52:05Z</time>
      </trkpt>
      <trkpt lat="39.1057643853" lon="-6.2812061235">
        <ele>385.15</ele>
        <time>2020-07-13T07:52:16Z</time>
      </trkpt>
      <trkpt lat="39.1060657986" lon="-6.2811166886">
        <ele>385.15</ele>
        <time>2020-07-13T07:52:25Z</time>
      </trkpt>
      <trkpt lat="39.1063549742" lon="-6.2810403295">
        <ele>384.66</ele>
        <time>2020-07-13T07:52:34Z</time>
      </trkpt>
      <trkpt lat="39.1066975426" lon="-6.2809581030">
        <ele>384.66</ele>
        <time>2020-07-13T07:52:44Z</time>
      </trkpt>
      <trkpt lat="39.1069373488" lon="-6.2808972504">
        <ele>384.66</ele>
        <time>2020-07-13T07:52:52Z</time>
      </trkpt>
      <trkpt lat="39.1072774027" lon="-6.2808099110">
        <ele>385.15</ele>
        <time>2020-07-13T07:53:04Z</time>
      </trkpt>
      <trkpt lat="39.1075526644" lon="-6.2807474658">
        <ele>385.15</ele>
        <time>2020-07-13T07:53:14Z</time>
      </trkpt>
      <trkpt lat="39.1078619566" lon="-6.2806798238">
        <ele>385.15</ele>
        <time>2020-07-13T07:53:25Z</time>
      </trkpt>
      <trkpt lat="39.1080777068" lon="-6.2806266826">
        <ele>385.63</ele>
        <time>2020-07-13T07:53:33Z</time>
      </trkpt>
      <trkpt lat="39.1082512122" lon="-6.2805852760">
        <ele>385.15</ele>
        <time>2020-07-13T07:53:39Z</time>
      </trkpt>
      <trkpt lat="39.1085190140" lon="-6.2805219926">
        <ele>385.63</ele>
        <time>2020-07-13T07:53:48Z</time>
      </trkpt>
      <trkpt lat="39.1087923478" lon="-6.2804618105">
        <ele>385.63</ele>
        <time>2020-07-13T07:53:58Z</time>
      </trkpt>
      <trkpt lat="39.1089613270" lon="-6.2804080825">
        <ele>386.59</ele>
        <time>2020-07-13T07:54:05Z</time>
      </trkpt>
      <trkpt lat="39.1091210861" lon="-6.2803810090">
        <ele>386.11</ele>
        <time>2020-07-13T07:54:13Z</time>
      </trkpt>
      <trkpt lat="39.1091294680" lon="-6.2803784944">
        <ele>386.59</ele>
        <time>2020-07-13T07:54:19Z</time>
      </trkpt>
      <trkpt lat="39.1091275401" lon="-6.2803681009">
        <ele>386.59</ele>
        <time>2020-07-13T07:54:33Z</time>
      </trkpt>
      <trkpt lat="39.1091365088" lon="-6.2803692743">
        <ele>386.59</ele>
        <time>2020-07-13T07:54:42Z</time>
      </trkpt>
      <trkpt lat="39.1091292165" lon="-6.2803745549">
        <ele>388.03</ele>
        <time>2020-07-13T07:55:03Z</time>
      </trkpt>
      <trkpt lat="39.1091347486" lon="-6.2803705316">
        <ele>387.07</ele>
        <time>2020-07-13T07:55:20Z</time>
      </trkpt>
      <trkpt lat="39.1091438010" lon="-6.2803866249">
        <ele>387.07</ele>
        <time>2020-07-13T07:55:34Z</time>
      </trkpt>
      <trkpt lat="39.1091514286" lon="-6.2803875469">
        <ele>387.55</ele>
        <time>2020-07-13T07:55:51Z</time>
      </trkpt>
      <trkpt lat="39.1091389395" lon="-6.2803839426">
        <ele>387.55</ele>
        <time>2020-07-13T07:56:07Z</time>
      </trkpt>
      <trkpt lat="39.1091426276" lon="-6.2803733815">
        <ele>387.55</ele>
        <time>2020-07-13T07:56:24Z</time>
      </trkpt>
      <trkpt lat="39.1091461480" lon="-6.2803784106">
        <ele>386.59</ele>
        <time>2020-07-13T07:56:38Z</time>
      </trkpt>
      <trkpt lat="39.1091427114" lon="-6.2803716213">
        <ele>387.07</ele>
        <time>2020-07-13T07:56:57Z</time>
      </trkpt>
      <trkpt lat="39.1091557872" lon="-6.2803697772">
        <ele>387.55</ele>
        <time>2020-07-13T07:57:10Z</time>
      </trkpt>
      <trkpt lat="39.1092879698" lon="-6.2803371716">
        <ele>388.03</ele>
        <time>2020-07-13T07:57:17Z</time>
      </trkpt>
      <trkpt lat="39.1095820908" lon="-6.2802639138">
        <ele>387.55</ele>
        <time>2020-07-13T07:57:28Z</time>
      </trkpt>
      <trkpt lat="39.1098244954" lon="-6.2802059110">
        <ele>387.55</ele>
        <time>2020-07-13T07:57:37Z</time>
      </trkpt>
      <trkpt lat="39.1101162694" lon="-6.2801341619">
        <ele>387.07</ele>
        <time>2020-07-13T07:57:48Z</time>
      </trkpt>
      <trkpt lat="39.1103697382" lon="-6.2800728902">
        <ele>387.55</ele>
        <time>2020-07-13T07:57:57Z</time>
      </trkpt>
      <trkpt lat="39.1106841434" lon="-6.2799991295">
        <ele>387.55</ele>
        <time>2020-07-13T07:58:08Z</time>
      </trkpt>
      <trkpt lat="39.1109780967" lon="-6.2799306493">
        <ele>388.03</ele>
        <time>2020-07-13T07:58:19Z</time>
      </trkpt>
      <trkpt lat="39.1112821922" lon="-6.2798564695">
        <ele>388.03</ele>
        <time>2020-07-13T07:58:30Z</time>
      </trkpt>
      <trkpt lat="39.1116307955" lon="-6.2797839660">
        <ele>388.03</ele>
        <time>2020-07-13T07:58:42Z</time>
      </trkpt>
      <trkpt lat="39.1119850148" lon="-6.2796957884">
        <ele>388.51</ele>
        <time>2020-07-13T07:58:54Z</time>
      </trkpt>
      <trkpt lat="39.1124011762" lon="-6.2795968819">
        <ele>388.51</ele>
        <time>2020-07-13T07:59:08Z</time>
      </trkpt>
      <trkpt lat="39.1127076186" lon="-6.2795247138">
        <ele>389.47</ele>
        <time>2020-07-13T07:59:19Z</time>
      </trkpt>
      <trkpt lat="39.1130118817" lon="-6.2794553116">
        <ele>389.95</ele>
        <time>2020-07-13T07:59:30Z</time>
      </trkpt>
      <trkpt lat="39.1132599022" lon="-6.2793953810">
        <ele>390.91</ele>
        <time>2020-07-13T07:59:39Z</time>
      </trkpt>
      <trkpt lat="39.1135774087" lon="-6.2793194409">
        <ele>390.91</ele>
        <time>2020-07-13T07:59:50Z</time>
      </trkpt>
      <trkpt lat="39.1138885450" lon="-6.2792431656">
        <ele>391.39</ele>
        <time>2020-07-13T08:00:01Z</time>
      </trkpt>
      <trkpt lat="39.1142267548" lon="-6.2791613583">
        <ele>391.87</ele>
        <time>2020-07-13T08:00:13Z</time>
      </trkpt>
      <trkpt lat="39.1145344544" lon="-6.2790860888">
        <ele>391.87</ele>
        <time>2020-07-13T08:00:24Z</time>
      </trkpt>
      <trkpt lat="39.1148526315" lon="-6.2790142559">
        <ele>392.84</ele>
        <time>2020-07-13T08:00:35Z</time>
      </trkpt>
      <trkpt lat="39.1151261330" lon="-6.2789463624">
        <ele>392.84</ele>
        <time>2020-07-13T08:00:45Z</time>
      </trkpt>
      <trkpt lat="39.1153874807" lon="-6.2788802292">
        <ele>393.32</ele>
        <time>2020-07-13T08:00:55Z</time>
      </trkpt>
      <trkpt lat="39.1156632453" lon="-6.2788173649">
        <ele>393.80</ele>
        <time>2020-07-13T08:01:05Z</time>
      </trkpt>
      <trkpt lat="39.1158830188" lon="-6.2787625473">
        <ele>393.80</ele>
        <time>2020-07-13T08:01:13Z</time>
      </trkpt>
      <trkpt lat="39.1162260901" lon="-6.2786789797">
        <ele>394.28</ele>
        <time>2020-07-13T08:01:25Z</time>
      </trkpt>
      <trkpt lat="39.1165468656" lon="-6.2785993516">
        <ele>394.28</ele>
        <time>2020-07-13T08:01:37Z</time>
      </trkpt>
      <trkpt lat="39.1168159246" lon="-6.2785333861">
        <ele>394.28</ele>
        <time>2020-07-13T08:01:47Z</time>
      </trkpt>
      <trkpt lat="39.1170559824" lon="-6.2784747966">
        <ele>394.76</ele>
        <time>2020-07-13T08:01:56Z</time>
      </trkpt>
      <trkpt lat="39.1173056792" lon="-6.2784191407">
        <ele>394.76</ele>
        <time>2020-07-13T08:02:05Z</time>
      </trkpt>
      <trkpt lat="39.1175189987" lon="-6.2783612218">
        <ele>394.76</ele>
        <time>2020-07-13T08:02:13Z</time>
      </trkpt>
      <trkpt lat="39.1177991219" lon="-6.2782930769">
        <ele>395.24</ele>
        <time>2020-07-13T08:02:23Z</time>
      </trkpt>
      <trkpt lat="39.1181084141" lon="-6.2782230880">
        <ele>395.72</ele>
        <time>2020-07-13T08:02:34Z</time>
      </trkpt>
      <trkpt lat="39.1183627211" lon="-6.2781589665">
        <ele>396.20</ele>
        <time>2020-07-13T08:02:43Z</time>
      </trkpt>
      <trkpt lat="39.1186260805" lon="-6.2780919112">
        <ele>396.68</ele>
        <time>2020-07-13T08:02:52Z</time>
      </trkpt>
      <trkpt lat="39.1189703252" lon="-6.2780109420">
        <ele>397.16</ele>
        <time>2020-07-13T08:03:04Z</time>
      </trkpt>
      <trkpt lat="39.1191838961" lon="-6.2779583875">
        <ele>397.64</ele>
        <time>2020-07-13T08:03:12Z</time>
      </trkpt>
      <trkpt lat="39.1193529591" lon="-6.2779101077">
        <ele>397.16</ele>
        <time>2020-07-13T08:03:20Z</time>
      </trkpt>
      <trkpt lat="39.1195594892" lon="-6.2778534461">
        <ele>397.16</ele>
        <time>2020-07-13T08:03:28Z</time>
      </trkpt>
      <trkpt lat="39.1198441386" lon="-6.2777909171">
        <ele>398.12</ele>
        <time>2020-07-13T08:03:39Z</time>
      </trkpt>
      <trkpt lat="39.1200291272" lon="-6.2777500972">
        <ele>398.60</ele>
        <time>2020-07-13T08:03:46Z</time>
      </trkpt>
      <trkpt lat="39.1202677600" lon="-6.2776965369">
        <ele>399.08</ele>
        <time>2020-07-13T08:03:55Z</time>
      </trkpt>
      <trkpt lat="39.1205189656" lon="-6.2776321638">
        <ele>399.57</ele>
        <time>2020-07-13T08:04:05Z</time>
      </trkpt>
      <trkpt lat="39.1206998471" lon="-6.2775878236">
        <ele>399.57</ele>
        <time>2020-07-13T08:04:12Z</time>
      </trkpt>
      <trkpt lat="39.1209878493" lon="-6.2775194272">
        <ele>400.05</ele>
        <time>2020-07-13T08:04:23Z</time>
      </trkpt>
      <trkpt lat="39.1211341973" lon="-6.2774731591">
        <ele>400.05</ele>
        <time>2020-07-13T08:04:30Z</time>
      </trkpt>
      <trkpt lat="39.1212510411" lon="-6.2774419785">
        <ele>400.05</ele>
        <time>2020-07-13T08:04:37Z</time>
      </trkpt>
      <trkpt lat="39.1213912703" lon="-6.2774126418">
        <ele>400.53</ele>
        <time>2020-07-13T08:04:43Z</time>
      </trkpt>
      <trkpt lat="39.1217193380" lon="-6.2773369532">
        <ele>401.01</ele>
        <time>2020-07-13T08:04:54Z</time>
      </trkpt>
      <trkpt lat="39.1219806857" lon="-6.2772704847">
        <ele>401.01</ele>
        <time>2020-07-13T08:05:03Z</time>
      </trkpt>
      <trkpt lat="39.1221783310" lon="-6.2772230431">
        <ele>401.49</ele>
        <time>2020-07-13T08:05:11Z</time>
      </trkpt>
      <trkpt lat="39.1224286985" lon="-6.2771696504">
        <ele>401.49</ele>
        <time>2020-07-13T08:05:20Z</time>
      </trkpt>
      <trkpt lat="39.1227037925" lon="-6.2771114800">
        <ele>402.45</ele>
        <time>2020-07-13T08:05:30Z</time>
      </trkpt>
      <trkpt lat="39.1230188683" lon="-6.2770308461">
        <ele>402.93</ele>
        <time>2020-07-13T08:05:42Z</time>
      </trkpt>
      <trkpt lat="39.1232914478" lon="-6.2769620307">
        <ele>403.41</ele>
        <time>2020-07-13T08:05:52Z</time>
      </trkpt>
      <trkpt lat="39.1234847344" lon="-6.2769176904">
        <ele>404.37</ele>
        <time>2020-07-13T08:06:00Z</time>
      </trkpt>
      <trkpt lat="39.1236910131" lon="-6.2768670637">
        <ele>404.85</ele>
        <time>2020-07-13T08:06:08Z</time>
      </trkpt>
      <trkpt lat="39.1238929331" lon="-6.2768213823">
        <ele>405.33</ele>
        <time>2020-07-13T08:06:17Z</time>
      </trkpt>
      <trkpt lat="39.1240429692" lon="-6.2767741922">
        <ele>405.33</ele>
        <time>2020-07-13T08:06:24Z</time>
      </trkpt>
      <trkpt lat="39.1243102681" lon="-6.2767137587">
        <ele>405.81</ele>
        <time>2020-07-13T08:06:35Z</time>
      </trkpt>
      <trkpt lat="39.1245312151" lon="-6.2766644731">
        <ele>406.29</ele>
        <time>2020-07-13T08:06:44Z</time>
      </trkpt>
      <trkpt lat="39.1248245817" lon="-6.2765899580">
        <ele>407.26</ele>
        <time>2020-07-13T08:06:56Z</time>
      </trkpt>
      <trkpt lat="39.1249522381" lon="-6.2765622139">
        <ele>407.26</ele>
        <time>2020-07-13T08:07:03Z</time>
      </trkpt>
      <trkpt lat="39.1251979116" lon="-6.2764985114">
        <ele>407.26</ele>
        <time>2020-07-13T08:07:14Z</time>
      </trkpt>
      <trkpt lat="39.1252099816" lon="-6.2764929794">
        <ele>407.26</ele>
        <time>2020-07-13T08:07:15Z</time>
      </trkpt>
      <trkpt lat="39.1252212971" lon="-6.2764827535">
        <ele>407.74</ele>
        <time>2020-07-13T08:07:21Z</time>
      </trkpt>
      <trkpt lat="39.1252337024" lon="-6.2764909677">
        <ele>409.18</ele>
        <time>2020-07-13T08:07:32Z</time>
      </trkpt>
      <trkpt lat="39.1252311878" lon="-6.2764951587">
        <ele>409.66</ele>
        <time>2020-07-13T08:07:44Z</time>
      </trkpt>
      <trkpt lat="39.1252224706" lon="-6.2765031215">
        <ele>408.22</ele>
        <time>2020-07-13T08:08:03Z</time>
      </trkpt>
      <trkpt lat="39.1252257396" lon="-6.2764942367">
        <ele>408.22</ele>
        <time>2020-07-13T08:08:19Z</time>
      </trkpt>
      <trkpt lat="39.1252243984" lon="-6.2764902972">
        <ele>408.22</ele>
        <time>2020-07-13T08:08:36Z</time>
      </trkpt>
      <trkpt lat="39.1252270807" lon="-6.2764956616">
        <ele>410.62</ele>
        <time>2020-07-13T08:08:55Z</time>
      </trkpt>
      <trkpt lat="39.1252351273" lon="-6.2764901295">
        <ele>411.10</ele>
        <time>2020-07-13T08:09:14Z</time>
      </trkpt>
      <trkpt lat="39.1252135858" lon="-6.2764945719">
        <ele>409.18</ele>
        <time>2020-07-13T08:09:35Z</time>
      </trkpt>
      <trkpt lat="39.1252172738" lon="-6.2765105814">
        <ele>409.66</ele>
        <time>2020-07-13T08:10:06Z</time>
      </trkpt>
      <trkpt lat="39.1252237279" lon="-6.2765029538">
        <ele>410.14</ele>
        <time>2020-07-13T08:10:34Z</time>
      </trkpt>
      <trkpt lat="39.1252383124" lon="-6.2764916383">
        <ele>409.66</ele>
        <time>2020-07-13T08:10:46Z</time>
      </trkpt>
      <trkpt lat="39.1252379771" lon="-6.2764941528">
        <ele>409.66</ele>
        <time>2020-07-13T08:10:55Z</time>
      </trkpt>
      <trkpt lat="39.1253030207" lon="-6.2764814124">
        <ele>409.66</ele>
        <time>2020-07-13T08:11:01Z</time>
      </trkpt>
      <trkpt lat="39.1255406477" lon="-6.2764209788">
        <ele>410.62</ele>
        <time>2020-07-13T08:11:10Z</time>
      </trkpt>
      <trkpt lat="39.1257881653" lon="-6.2763649039">
        <ele>410.62</ele>
        <time>2020-07-13T08:11:20Z</time>
      </trkpt>
      <trkpt lat="39.1260496806" lon="-6.2763050571">
        <ele>410.62</ele>
        <time>2020-07-13T08:11:30Z</time>
      </trkpt>
      <trkpt lat="39.1263479088" lon="-6.2762349006">
        <ele>411.10</ele>
        <time>2020-07-13T08:11:41Z</time>
      </trkpt>
      <trkpt lat="39.1266280320" lon="-6.2761658337">
        <ele>411.58</ele>
        <time>2020-07-13T08:11:52Z</time>
      </trkpt>
      <trkpt lat="39.1268115118" lon="-6.2761281990">
        <ele>411.58</ele>
        <time>2020-07-13T08:11:59Z</time>
      </trkpt>
      <trkpt lat="39.1269956622" lon="-6.2760770693">
        <ele>412.06</ele>
        <time>2020-07-13T08:12:06Z</time>
      </trkpt>
      <trkpt lat="39.1272306070" lon="-6.2760245148">
        <ele>412.54</ele>
        <time>2020-07-13T08:12:15Z</time>
      </trkpt>
      <trkpt lat="39.1275120713" lon="-6.2759508379">
        <ele>412.54</ele>
        <time>2020-07-13T08:12:26Z</time>
      </trkpt>
      <trkpt lat="39.1277798731" lon="-6.2758820225">
        <ele>413.02</ele>
        <time>2020-07-13T08:12:36Z</time>
      </trkpt>
      <trkpt lat="39.1280628461" lon="-6.2758146320">
        <ele>413.02</ele>
        <time>2020-07-13T08:12:47Z</time>
      </trkpt>
      <trkpt lat="39.1283205897" lon="-6.2757502589">
        <ele>413.50</ele>
        <time>2020-07-13T08:12:57Z</time>
      </trkpt>
      <trkpt lat="39.1285560373" lon="-6.2757002190">
        <ele>413.98</ele>
        <time>2020-07-13T08:13:06Z</time>
      </trkpt>
      <trkpt lat="39.1287914850" lon="-6.2756411266">
        <ele>414.47</ele>
        <time>2020-07-13T08:13:15Z</time>
      </trkpt>
      <trkpt lat="39.1290005296" lon="-6.2755925953">
        <ele>414.95</ele>
        <time>2020-07-13T08:13:23Z</time>
      </trkpt>
      <trkpt lat="39.1292634699" lon="-6.2755260430">
        <ele>414.95</ele>
        <time>2020-07-13T08:13:33Z</time>
      </trkpt>
      <trkpt lat="39.1295310203" lon="-6.2754612509">
        <ele>415.91</ele>
        <time>2020-07-13T08:13:43Z</time>
      </trkpt>
      <trkpt lat="39.1297782864" lon="-6.2753996439">
        <ele>417.35</ele>
        <time>2020-07-13T08:13:52Z</time>
      </trkpt>
      <trkpt lat="39.1300091241" lon="-6.2753480114">
        <ele>417.35</ele>
        <time>2020-07-13T08:14:00Z</time>
      </trkpt>
      <trkpt lat="39.1302858945" lon="-6.2752791122">
        <ele>417.83</ele>
        <time>2020-07-13T08:14:10Z</time>
      </trkpt>
      <trkpt lat="39.1305509303" lon="-6.2752143200">
        <ele>417.35</ele>
        <time>2020-07-13T08:14:20Z</time>
      </trkpt>
      <trkpt lat="39.1307581309" lon="-6.2751653697">
        <ele>417.83</ele>
        <time>2020-07-13T08:14:28Z</time>
      </trkpt>
      <trkpt lat="39.1309972666" lon="-6.2751055229">
        <ele>418.31</ele>
        <time>2020-07-13T08:14:37Z</time>
      </trkpt>
      <trkpt lat="39.1311857756" lon="-6.2750616018">
        <ele>418.31</ele>
        <time>2020-07-13T08:14:44Z</time>
      </trkpt>
      <trkpt lat="39.1314311977" lon="-6.2750016712">
        <ele>418.31</ele>
        <time>2020-07-13T08:14:53Z</time>
      </trkpt>
      <trkpt lat="39.1317499615" lon="-6.2749241386">
        <ele>419.27</ele>
        <time>2020-07-13T08:15:04Z</time>
      </trkpt>
      <trkpt lat="39.1319864150" lon="-6.2748675607">
        <ele>419.27</ele>
        <time>2020-07-13T08:15:13Z</time>
      </trkpt>
      <trkpt lat="39.1323500220" lon="-6.2747808918">
        <ele>419.75</ele>
        <time>2020-07-13T08:15:25Z</time>
      </trkpt>
      <trkpt lat="39.1327233519" lon="-6.2746886909">
        <ele>420.23</ele>
        <time>2020-07-13T08:15:37Z</time>
      </trkpt>
      <trkpt lat="39.1331475601" lon="-6.2745873537">
        <ele>421.19</ele>
        <time>2020-07-13T08:15:51Z</time>
      </trkpt>
      <trkpt lat="39.1334452853" lon="-6.2745192088">
        <ele>421.68</ele>
        <time>2020-07-13T08:16:01Z</time>
      </trkpt>
      <trkpt lat="39.1336891148" lon="-6.2744611222">
        <ele>421.68</ele>
        <time>2020-07-13T08:16:09Z</time>
      </trkpt>
      <trkpt lat="39.1339297593" lon="-6.2743986771">
        <ele>421.68</ele>
        <time>2020-07-13T08:16:17Z</time>
      </trkpt>
      <trkpt lat="39.1342290770" lon="-6.2743257545">
        <ele>421.68</ele>
        <time>2020-07-13T08:16:27Z</time>
      </trkpt>
      <trkpt lat="39.1346142255" lon="-6.2742318772">
        <ele>422.64</ele>
        <time>2020-07-13T08:16:40Z</time>
      </trkpt>
      <trkpt lat="39.1348492540" lon="-6.2741719466">
        <ele>423.12</ele>
        <time>2020-07-13T08:16:48Z</time>
      </trkpt>
      <trkpt lat="39.1351914033" lon="-6.2740909774">
        <ele>423.12</ele>
        <time>2020-07-13T08:17:00Z</time>
      </trkpt>
      <trkpt lat="39.1353735421" lon="-6.2740416918">
        <ele>423.60</ele>
        <time>2020-07-13T08:17:07Z</time>
      </trkpt>
      <trkpt lat="39.1355976742" lon="-6.2739888020">
        <ele>424.08</ele>
        <time>2020-07-13T08:17:15Z</time>
      </trkpt>
      <trkpt lat="39.1358754504" lon="-6.2739209086">
        <ele>424.56</ele>
        <time>2020-07-13T08:17:25Z</time>
      </trkpt>
      <trkpt lat="39.1360948049" lon="-6.2738715392">
        <ele>425.04</ele>
        <time>2020-07-13T08:17:33Z</time>
      </trkpt>
      <trkpt lat="39.1363035981" lon="-6.2738168053">
        <ele>425.04</ele>
        <time>2020-07-13T08:17:41Z</time>
      </trkpt>
      <trkpt lat="39.1365649458" lon="-6.2737509236">
        <ele>426.00</ele>
        <time>2020-07-13T08:17:50Z</time>
      </trkpt>
      <trkpt lat="39.1368575580" lon="-6.2736744806">
        <ele>426.00</ele>
        <time>2020-07-13T08:18:00Z</time>
      </trkpt>
      <trkpt lat="39.1371512599" lon="-6.2736091018">
        <ele>426.48</ele>
        <time>2020-07-13T08:18:11Z</time>
      </trkpt>
      <trkpt lat="39.1373427026" lon="-6.2735593133">
        <ele>426.96</ele>
        <time>2020-07-13T08:18:20Z</time>
      </trkpt>
      <trkpt lat="39.1375862807" lon="-6.2735003047">
        <ele>427.44</ele>
        <time>2020-07-13T08:18:29Z</time>
      </trkpt>
      <trkpt lat="39.1378211416" lon="-6.2734428886">
        <ele>427.44</ele>
        <time>2020-07-13T08:18:37Z</time>
      </trkpt>
      <trkpt lat="39.1380762868" lon="-6.2733822875">
        <ele>427.92</ele>
        <time>2020-07-13T08:18:46Z</time>
      </trkpt>
      <trkpt lat="39.1382928751" lon="-6.2733294815">
        <ele>428.89</ele>
        <time>2020-07-13T08:18:54Z</time>
      </trkpt>
      <trkpt lat="39.1386124771" lon="-6.2732523680">
        <ele>429.37</ele>
        <time>2020-07-13T08:19:06Z</time>
      </trkpt>
      <trkpt lat="39.1388628446" lon="-6.2731846422">
        <ele>429.37</ele>
        <time>2020-07-13T08:19:16Z</time>
      </trkpt>
      <trkpt lat="39.1390526108" lon="-6.2731418107">
        <ele>430.33</ele>
        <time>2020-07-13T08:19:24Z</time>
      </trkpt>
      <trkpt lat="39.1392075922" lon="-6.2731076125">
        <ele>430.81</ele>
        <time>2020-07-13T08:19:31Z</time>
      </trkpt>
      <trkpt lat="39.1394662578" lon="-6.2730521243">
        <ele>431.29</ele>
        <time>2020-07-13T08:19:41Z</time>
      </trkpt>
      <trkpt lat="39.1396807507" lon="-6.2730076164">
        <ele>430.81</ele>
        <time>2020-07-13T08:19:50Z</time>
      </trkpt>
      <trkpt lat="39.1398671642" lon="-6.2729652878">
        <ele>430.81</ele>
        <time>2020-07-13T08:19:58Z</time>
      </trkpt>
      <trkpt lat="39.1400823276" lon="-6.2729232945">
        <ele>431.29</ele>
        <time>2020-07-13T08:20:07Z</time>
      </trkpt>
      <trkpt lat="39.1402713396" lon="-6.2728880066">
        <ele>431.77</ele>
        <time>2020-07-13T08:20:15Z</time>
      </trkpt>
      <trkpt lat="39.1404849105" lon="-6.2728539761">
        <ele>431.77</ele>
        <time>2020-07-13T08:20:24Z</time>
      </trkpt>
      <trkpt lat="39.1406617686" lon="-6.2728178501">
        <ele>431.77</ele>
        <time>2020-07-13T08:20:32Z</time>
      </trkpt>
      <trkpt lat="39.1409492679" lon="-6.2727768626">
        <ele>432.73</ele>
        <time>2020-07-13T08:20:44Z</time>
      </trkpt>
      <trkpt lat="39.1412081849" lon="-6.2727371324">
        <ele>433.69</ele>
        <time>2020-07-13T08:20:55Z</time>
      </trkpt>
      <trkpt lat="39.1415477358" lon="-6.2726870086">
        <ele>434.65</ele>
        <time>2020-07-13T08:21:09Z</time>
      </trkpt>
      <trkpt lat="39.1417958401" lon="-6.2726474460">
        <ele>435.61</ele>
        <time>2020-07-13T08:21:19Z</time>
      </trkpt>
      <trkpt lat="39.1420076508" lon="-6.2726203725">
        <ele>435.61</ele>
        <time>2020-07-13T08:21:28Z</time>
      </trkpt>
      <trkpt lat="39.1421953216" lon="-6.2725909520">
        <ele>436.10</ele>
        <time>2020-07-13T08:21:36Z</time>
      </trkpt>
      <trkpt lat="39.1424121615" lon="-6.2725539878">
        <ele>436.10</ele>
        <time>2020-07-13T08:21:45Z</time>
      </trkpt>
      <trkpt lat="39.1424938850" lon="-6.2725370564">
        <ele>436.10</ele>
        <time>2020-07-13T08:21:52Z</time>
      </trkpt>
      <trkpt lat="39.1424920410" lon="-6.2725494616">
        <ele>436.58</ele>
        <time>2020-07-13T08:22:04Z</time>
      </trkpt>
      <trkpt lat="39.1424946394" lon="-6.2725442648">
        <ele>435.61</ele>
        <time>2020-07-13T08:22:18Z</time>
      </trkpt>
      <trkpt lat="39.1424921248" lon="-6.2725481205">
        <ele>436.10</ele>
        <time>2020-07-13T08:22:34Z</time>
      </trkpt>
      <trkpt lat="39.1424944717" lon="-6.2725458574">
        <ele>436.10</ele>
        <time>2020-07-13T08:22:46Z</time>
      </trkpt>
      <trkpt lat="39.1425067093" lon="-6.2725373078">
        <ele>436.58</ele>
        <time>2020-07-13T08:22:54Z</time>
      </trkpt>
      <trkpt lat="39.1425113194" lon="-6.2725337874">
        <ele>436.58</ele>
        <time>2020-07-13T08:23:08Z</time>
      </trkpt>
      <trkpt lat="39.1425205395" lon="-6.2725396547">
        <ele>437.06</ele>
        <time>2020-07-13T08:23:27Z</time>
      </trkpt>
      <trkpt lat="39.1425266583" lon="-6.2725264113">
        <ele>436.58</ele>
        <time>2020-07-13T08:23:46Z</time>
      </trkpt>
      <trkpt lat="39.1425285023" lon="-6.2725252379">
        <ele>437.06</ele>
        <time>2020-07-13T08:24:06Z</time>
      </trkpt>
      <trkpt lat="39.1425436735" lon="-6.2725274172">
        <ele>436.58</ele>
        <time>2020-07-13T08:24:15Z</time>
      </trkpt>
      <trkpt lat="39.1425663885" lon="-6.2725253217">
        <ele>436.58</ele>
        <time>2020-07-13T08:24:17Z</time>
      </trkpt>
      <trkpt lat="39.1425825655" lon="-6.2725272495">
        <ele>436.58</ele>
        <time>2020-07-13T08:24:18Z</time>
      </trkpt>
      <trkpt lat="39.1427884251" lon="-6.2724965718">
        <ele>436.58</ele>
        <time>2020-07-13T08:24:28Z</time>
      </trkpt>
      <trkpt lat="39.1430300754" lon="-6.2724582665">
        <ele>437.54</ele>
        <time>2020-07-13T08:24:38Z</time>
      </trkpt>
      <trkpt lat="39.1433691233" lon="-6.2724050414">
        <ele>438.50</ele>
        <time>2020-07-13T08:24:51Z</time>
      </trkpt>
      <trkpt lat="39.1436650883" lon="-6.2723615393">
        <ele>439.46</ele>
        <time>2020-07-13T08:25:02Z</time>
      </trkpt>
      <trkpt lat="39.1439680103" lon="-6.2723215576">
        <ele>439.94</ele>
        <time>2020-07-13T08:25:13Z</time>
      </trkpt>
      <trkpt lat="39.1442918871" lon="-6.2722706795">
        <ele>439.94</ele>
        <time>2020-07-13T08:25:25Z</time>
      </trkpt>
      <trkpt lat="39.1446413286" lon="-6.2721996848">
        <ele>441.38</ele>
        <time>2020-07-13T08:25:38Z</time>
      </trkpt>
      <trkpt lat="39.1449314263" lon="-6.2721364014">
        <ele>442.82</ele>
        <time>2020-07-13T08:25:49Z</time>
      </trkpt>
      <trkpt lat="39.1452490166" lon="-6.2720686756">
        <ele>443.31</ele>
        <time>2020-07-13T08:26:01Z</time>
      </trkpt>
      <trkpt lat="39.1454575583" lon="-6.2721035443">
        <ele>444.27</ele>
        <time>2020-07-13T08:26:09Z</time>
      </trkpt>
      <trkpt lat="39.1457201634" lon="-6.2720741238">
        <ele>444.75</ele>
        <time>2020-07-13T08:26:19Z</time>
      </trkpt>
      <trkpt lat="39.1460686829" lon="-6.2720124330">
        <ele>446.19</ele>
        <time>2020-07-13T08:26:32Z</time>
      </trkpt>
      <trkpt lat="39.1463604569" lon="-6.2719462998">
        <ele>446.67</ele>
        <time>2020-07-13T08:26:43Z</time>
      </trkpt>
      <trkpt lat="39.1466352995" lon="-6.2718483992">
        <ele>447.63</ele>
        <time>2020-07-13T08:26:54Z</time>
      </trkpt>
      <trkpt lat="39.1469581705" lon="-6.2717132829">
        <ele>447.63</ele>
        <time>2020-07-13T08:27:07Z</time>
      </trkpt>
      <trkpt lat="39.1472342703" lon="-6.2715949304">
        <ele>449.07</ele>
        <time>2020-07-13T08:27:18Z</time>
      </trkpt>
      <trkpt lat="39.1475413833" lon="-6.2714538630">
        <ele>450.03</ele>
        <time>2020-07-13T08:27:31Z</time>
      </trkpt>
      <trkpt lat="39.1478598118" lon="-6.2713218480">
        <ele>451.00</ele>
        <time>2020-07-13T08:27:44Z</time>
      </trkpt>
      <trkpt lat="39.1482243408" lon="-6.2711584009">
        <ele>452.92</ele>
        <time>2020-07-13T08:27:59Z</time>
      </trkpt>
      <trkpt lat="39.1484335531" lon="-6.2710677925">
        <ele>453.88</ele>
        <time>2020-07-13T08:28:09Z</time>
      </trkpt>
      <trkpt lat="39.1486876924" lon="-6.2709640246">
        <ele>454.84</ele>
        <time>2020-07-13T08:28:21Z</time>
      </trkpt>
      <trkpt lat="39.1489203740" lon="-6.2708613463">
        <ele>456.76</ele>
        <time>2020-07-13T08:28:33Z</time>
      </trkpt>
      <trkpt lat="39.1491150018" lon="-6.2707815506">
        <ele>457.72</ele>
        <time>2020-07-13T08:28:43Z</time>
      </trkpt>
      <trkpt lat="39.1493833065" lon="-6.2706650421">
        <ele>459.17</ele>
        <time>2020-07-13T08:28:56Z</time>
      </trkpt>
      <trkpt lat="39.1496242862" lon="-6.2705547363">
        <ele>459.65</ele>
        <time>2020-07-13T08:29:07Z</time>
      </trkpt>
      <trkpt lat="39.1498319898" lon="-6.2704564165">
        <ele>461.09</ele>
        <time>2020-07-13T08:29:17Z</time>
      </trkpt>
      <trkpt lat="39.1499556229" lon="-6.2704091426">
        <ele>461.09</ele>
        <time>2020-07-13T08:29:24Z</time>
      </trkpt>
      <trkpt lat="39.1501807608" lon="-6.2703108229">
        <ele>462.53</ele>
        <time>2020-07-13T08:29:36Z</time>
      </trkpt>
      <trkpt lat="39.1503658332" lon="-6.2702302728">
        <ele>463.97</ele>
        <time>2020-07-13T08:29:46Z</time>
      </trkpt>
      <trkpt lat="39.1505711060" lon="-6.2701346353">
        <ele>464.93</ele>
        <time>2020-07-13T08:29:57Z</time>
      </trkpt>
      <trkpt lat="39.1508595273" lon="-6.2700110022">
        <ele>467.34</ele>
        <time>2020-07-13T08:30:12Z</time>
      </trkpt>
      <trkpt lat="39.1510745231" lon="-6.2699312903">
        <ele>468.30</ele>
        <time>2020-07-13T08:30:23Z</time>
      </trkpt>
      <trkpt lat="39.1513238847" lon="-6.2698584516">
        <ele>469.26</ele>
        <time>2020-07-13T08:30:36Z</time>
      </trkpt>
      <trkpt lat="39.1515367012" lon="-6.2698137760">
        <ele>470.70</ele>
        <time>2020-07-13T08:30:48Z</time>
      </trkpt>
      <trkpt lat="39.1516710632" lon="-6.2697879598">
        <ele>472.14</ele>
        <time>2020-07-13T08:30:55Z</time>
      </trkpt>
      <trkpt lat="39.1517594922" lon="-6.2697795779">
        <ele>472.63</ele>
        <time>2020-07-13T08:31:00Z</time>
      </trkpt>
      <trkpt lat="39.1517774295" lon="-6.2697780691">
        <ele>472.63</ele>
        <time>2020-07-13T08:31:01Z</time>
      </trkpt>
      <trkpt lat="39.1517946124" lon="-6.2697740458">
        <ele>472.63</ele>
        <time>2020-07-13T08:31:02Z</time>
      </trkpt>
      <trkpt lat="39.1518136393" lon="-6.2697713636">
        <ele>473.11</ele>
        <time>2020-07-13T08:31:03Z</time>
      </trkpt>
      <trkpt lat="39.1518300679" lon="-6.2697660830">
        <ele>473.11</ele>
        <time>2020-07-13T08:31:04Z</time>
      </trkpt>
      <trkpt lat="39.1518478375" lon="-6.2697662506">
        <ele>473.11</ele>
        <time>2020-07-13T08:31:05Z</time>
      </trkpt>
      <trkpt lat="39.1518673673" lon="-6.2697695196">
        <ele>473.11</ele>
        <time>2020-07-13T08:31:06Z</time>
      </trkpt>
      <trkpt lat="39.1518837120" lon="-6.2697716150">
        <ele>473.11</ele>
        <time>2020-07-13T08:31:07Z</time>
      </trkpt>
      <trkpt lat="39.1519024037" lon="-6.2697725371">
        <ele>473.11</ele>
        <time>2020-07-13T08:31:08Z</time>
      </trkpt>
      <trkpt lat="39.1519200057" lon="-6.2697708607">
        <ele>473.11</ele>
        <time>2020-07-13T08:31:09Z</time>
      </trkpt>
      <trkpt lat="39.1521595605" lon="-6.2697700225">
        <ele>474.07</ele>
        <time>2020-07-13T08:31:21Z</time>
      </trkpt>
      <trkpt lat="39.1523870453" lon="-6.2697875407">
        <ele>475.03</ele>
        <time>2020-07-13T08:31:32Z</time>
      </trkpt>
      <trkpt lat="39.1526440345" lon="-6.2698111776">
        <ele>475.51</ele>
        <time>2020-07-13T08:31:44Z</time>
      </trkpt>
      <trkpt lat="39.1528617963" lon="-6.2698266841">
        <ele>476.47</ele>
        <time>2020-07-13T08:31:54Z</time>
      </trkpt>
      <trkpt lat="39.1531443503" lon="-6.2698364072">
        <ele>477.43</ele>
        <time>2020-07-13T08:32:07Z</time>
      </trkpt>
      <trkpt lat="39.1533179395" lon="-6.2698224094">
        <ele>477.43</ele>
        <time>2020-07-13T08:32:15Z</time>
      </trkpt>
      <trkpt lat="39.1536300816" lon="-6.2697823439">
        <ele>477.43</ele>
        <time>2020-07-13T08:32:26Z</time>
      </trkpt>
      <trkpt lat="39.1538575664" lon="-6.2697313819">
        <ele>476.95</ele>
        <time>2020-07-13T08:32:35Z</time>
      </trkpt>
      <trkpt lat="39.1539256275" lon="-6.2697116844">
        <ele>476.47</ele>
        <time>2020-07-13T08:32:41Z</time>
      </trkpt>
      <trkpt lat="39.1539238673" lon="-6.2697133608">
        <ele>476.47</ele>
        <time>2020-07-13T08:32:51Z</time>
      </trkpt>
      <trkpt lat="39.1539289802" lon="-6.2697333936">
        <ele>476.47</ele>
        <time>2020-07-13T08:33:05Z</time>
      </trkpt>
      <trkpt lat="39.1539301537" lon="-6.2697467208">
        <ele>475.99</ele>
        <time>2020-07-13T08:33:27Z</time>
      </trkpt>
      <trkpt lat="39.1539236158" lon="-6.2697087508">
        <ele>475.03</ele>
        <time>2020-07-13T08:33:40Z</time>
      </trkpt>
      <trkpt lat="39.1539115459" lon="-6.2697040569">
        <ele>474.55</ele>
        <time>2020-07-13T08:34:00Z</time>
      </trkpt>
      <trkpt lat="39.1539145634" lon="-6.2697050627">
        <ele>475.03</ele>
        <time>2020-07-13T08:34:22Z</time>
      </trkpt>
      <trkpt lat="39.1539559700" lon="-6.2697051466">
        <ele>474.55</ele>
        <time>2020-07-13T08:34:30Z</time>
      </trkpt>
      <trkpt lat="39.1541042458" lon="-6.2696601357">
        <ele>474.55</ele>
        <time>2020-07-13T08:34:36Z</time>
      </trkpt>
      <trkpt lat="39.1544483230" lon="-6.2695272826">
        <ele>474.07</ele>
        <time>2020-07-13T08:34:46Z</time>
      </trkpt>
      <trkpt lat="39.1548970062" lon="-6.2693109456">
        <ele>473.11</ele>
        <time>2020-07-13T08:34:58Z</time>
      </trkpt>
      <trkpt lat="39.1553415824" lon="-6.2690708041">
        <ele>471.66</ele>
        <time>2020-07-13T08:35:08Z</time>
      </trkpt>
      <trkpt lat="39.1559553053" lon="-6.2687424850">
        <ele>469.74</ele>
        <time>2020-07-13T08:35:20Z</time>
      </trkpt>
      <trkpt lat="39.1564199980" lon="-6.2684805505">
        <ele>468.78</ele>
        <time>2020-07-13T08:35:30Z</time>
      </trkpt>
      <trkpt lat="39.1567449644" lon="-6.2683028542">
        <ele>467.82</ele>
        <time>2020-07-13T08:35:39Z</time>
      </trkpt>
      <trkpt lat="39.1569987684" lon="-6.2681569252">
        <ele>467.34</ele>
        <time>2020-07-13T08:35:47Z</time>
      </trkpt>
      <trkpt lat="39.1573564243" lon="-6.2679499760">
        <ele>467.34</ele>
        <time>2020-07-13T08:35:57Z</time>
      </trkpt>
      <trkpt lat="39.1577353701" lon="-6.2677338906">
        <ele>466.86</ele>
        <time>2020-07-13T08:36:08Z</time>
      </trkpt>
      <trkpt lat="39.1581107117" lon="-6.2675092556">
        <ele>466.86</ele>
        <time>2020-07-13T08:36:19Z</time>
      </trkpt>
      <trkpt lat="39.1585471574" lon="-6.2672429625">
        <ele>466.38</ele>
        <time>2020-07-13T08:36:32Z</time>
      </trkpt>
      <trkpt lat="39.1588779911" lon="-6.2670464069">
        <ele>466.38</ele>
        <time>2020-07-13T08:36:42Z</time>
      </trkpt>
      <trkpt lat="39.1592405923" lon="-6.2668112945">
        <ele>465.90</ele>
        <time>2020-07-13T08:36:53Z</time>
      </trkpt>
      <trkpt lat="39.1596777923" lon="-6.2665337697">
        <ele>465.90</ele>
        <time>2020-07-13T08:37:06Z</time>
      </trkpt>
      <trkpt lat="39.1600129846" lon="-6.2663295027">
        <ele>465.90</ele>
        <time>2020-07-13T08:37:16Z</time>
      </trkpt>
      <trkpt lat="39.1603574809" lon="-6.2661185302">
        <ele>465.42</ele>
        <time>2020-07-13T08:37:26Z</time>
      </trkpt>
      <trkpt lat="39.1607748158" lon="-6.2658606190">
        <ele>465.90</ele>
        <time>2020-07-13T08:37:38Z</time>
      </trkpt>
      <trkpt lat="39.1610380914" lon="-6.2656934001">
        <ele>466.38</ele>
        <time>2020-07-13T08:37:46Z</time>
      </trkpt>
      <trkpt lat="39.1613456234" lon="-6.2655116804">
        <ele>466.86</ele>
        <time>2020-07-13T08:37:55Z</time>
      </trkpt>
      <trkpt lat="39.1617122479" lon="-6.2652652524">
        <ele>467.82</ele>
        <time>2020-07-13T08:38:06Z</time>
      </trkpt>
      <trkpt lat="39.1620784532" lon="-6.2650349177">
        <ele>469.26</ele>
        <time>2020-07-13T08:38:17Z</time>
      </trkpt>
      <trkpt lat="39.1622743383" lon="-6.2649101112">
        <ele>470.22</ele>
        <time>2020-07-13T08:38:25Z</time>
      </trkpt>
      <trkpt lat="39.1624868196" lon="-6.2647801079">
        <ele>470.70</ele>
        <time>2020-07-13T08:38:34Z</time>
      </trkpt>
      <trkpt lat="39.1627346724" lon="-6.2646335084">
        <ele>472.14</ele>
        <time>2020-07-13T08:38:44Z</time>
      </trkpt>
      <trkpt lat="39.1629417893" lon="-6.2644996494">
        <ele>472.63</ele>
        <time>2020-07-13T08:38:53Z</time>
      </trkpt>
      <trkpt lat="39.1631320585" lon="-6.2642985675">
        <ele>472.14</ele>
        <time>2020-07-13T08:39:01Z</time>
      </trkpt>
      <trkpt lat="39.1632852796" lon="-6.2640624493">
        <ele>471.66</ele>
        <time>2020-07-13T08:39:09Z</time>
      </trkpt>
      <trkpt lat="39.1635278519" lon="-6.2637093198">
        <ele>472.63</ele>
        <time>2020-07-13T08:39:20Z</time>
      </trkpt>
      <trkpt lat="39.1637871880" lon="-6.2633273564">
        <ele>472.63</ele>
        <time>2020-07-13T08:39:31Z</time>
      </trkpt>
      <trkpt lat="39.1640390642" lon="-6.2629588880">
        <ele>473.11</ele>
        <time>2020-07-13T08:39:41Z</time>
      </trkpt>
      <trkpt lat="39.1643106379" lon="-6.2625454087">
        <ele>473.11</ele>
        <time>2020-07-13T08:39:52Z</time>
      </trkpt>
      <trkpt lat="39.1645587422" lon="-6.2621718273">
        <ele>473.59</ele>
        <time>2020-07-13T08:40:03Z</time>
      </trkpt>
      <trkpt lat="39.1647876520" lon="-6.2618283369">
        <ele>473.59</ele>
        <time>2020-07-13T08:40:13Z</time>
      </trkpt>
      <trkpt lat="39.1650305595" lon="-6.2614529114">
        <ele>474.07</ele>
        <time>2020-07-13T08:40:24Z</time>
      </trkpt>
      <trkpt lat="39.1652575415" lon="-6.2611050624">
        <ele>474.55</ele>
        <time>2020-07-13T08:40:34Z</time>
      </trkpt>
      <trkpt lat="39.1654940788" lon="-6.2607419584">
        <ele>475.51</ele>
        <time>2020-07-13T08:40:45Z</time>
      </trkpt>
      <trkpt lat="39.1656995192" lon="-6.2604378629">
        <ele>475.99</ele>
        <time>2020-07-13T08:40:55Z</time>
      </trkpt>
      <trkpt lat="39.1658659838" lon="-6.2601937819">
        <ele>476.47</ele>
        <time>2020-07-13T08:41:04Z</time>
      </trkpt>
      <trkpt lat="39.1660422552" lon="-6.2599350326">
        <ele>476.95</ele>
        <time>2020-07-13T08:41:14Z</time>
      </trkpt>
      <trkpt lat="39.1662392300" lon="-6.2596378103">
        <ele>477.43</ele>
        <time>2020-07-13T08:41:25Z</time>
      </trkpt>
      <trkpt lat="39.1664320976" lon="-6.2593501434">
        <ele>478.39</ele>
        <time>2020-07-13T08:41:36Z</time>
      </trkpt>
      <trkpt lat="39.1666021664" lon="-6.2590933219">
        <ele>478.87</ele>
        <time>2020-07-13T08:41:46Z</time>
      </trkpt>
      <trkpt lat="39.1668174136" lon="-6.2587762345">
        <ele>479.84</ele>
        <time>2020-07-13T08:41:58Z</time>
      </trkpt>
      <trkpt lat="39.1670164000" lon="-6.2584761623">
        <ele>480.80</ele>
        <time>2020-07-13T08:42:10Z</time>
      </trkpt>
      <trkpt lat="39.1671728902" lon="-6.2582518626">
        <ele>481.28</ele>
        <time>2020-07-13T08:42:19Z</time>
      </trkpt>
      <trkpt lat="39.1673600581" lon="-6.2579668779">
        <ele>480.80</ele>
        <time>2020-07-13T08:42:30Z</time>
      </trkpt>
      <trkpt lat="39.1675130278" lon="-6.2577448413">
        <ele>480.80</ele>
        <time>2020-07-13T08:42:39Z</time>
      </trkpt>
      <trkpt lat="39.1676685121" lon="-6.2575052865">
        <ele>480.32</ele>
        <time>2020-07-13T08:42:47Z</time>
      </trkpt>
      <trkpt lat="39.1678492259" lon="-6.2572420947">
        <ele>478.87</ele>
        <time>2020-07-13T08:42:54Z</time>
      </trkpt>
      <trkpt lat="39.1681184527" lon="-6.2568515819">
        <ele>476.95</ele>
        <time>2020-07-13T08:43:02Z</time>
      </trkpt>
      <trkpt lat="39.1684826463" lon="-6.2563136313">
        <ele>473.59</ele>
        <time>2020-07-13T08:43:11Z</time>
      </trkpt>
      <trkpt lat="39.1688650288" lon="-6.2557501160">
        <ele>471.18</ele>
        <time>2020-07-13T08:43:20Z</time>
      </trkpt>
      <trkpt lat="39.1692598164" lon="-6.2551618740">
        <ele>468.78</ele>
        <time>2020-07-13T08:43:30Z</time>
      </trkpt>
      <trkpt lat="39.1695449688" lon="-6.2547361571">
        <ele>467.34</ele>
        <time>2020-07-13T08:43:38Z</time>
      </trkpt>
      <trkpt lat="39.1699169576" lon="-6.2541774195">
        <ele>465.42</ele>
        <time>2020-07-13T08:43:49Z</time>
      </trkpt>
      <trkpt lat="39.1702000145" lon="-6.2537713163">
        <ele>464.93</ele>
        <time>2020-07-13T08:43:58Z</time>
      </trkpt>
      <trkpt lat="39.1704885196" lon="-6.2533479463">
        <ele>464.45</ele>
        <time>2020-07-13T08:44:08Z</time>
      </trkpt>
      <trkpt lat="39.1707301699" lon="-6.2529947329">
        <ele>464.45</ele>
        <time>2020-07-13T08:44:16Z</time>
      </trkpt>
      <trkpt lat="39.1710729059" lon="-6.2524834368">
        <ele>463.97</ele>
        <time>2020-07-13T08:44:27Z</time>
      </trkpt>
      <trkpt lat="39.1713084374" lon="-6.2521353364">
        <ele>464.45</ele>
        <time>2020-07-13T08:44:36Z</time>
      </trkpt>
      <trkpt lat="39.1715149675" lon="-6.2518274691">
        <ele>464.45</ele>
        <time>2020-07-13T08:44:44Z</time>
      </trkpt>
      <trkpt lat="39.1718053166" lon="-6.2514002435">
        <ele>464.45</ele>
        <time>2020-07-13T08:44:55Z</time>
      </trkpt>
      <trkpt lat="39.1719544306" lon="-6.2511756923">
        <ele>464.45</ele>
        <time>2020-07-13T08:45:01Z</time>
      </trkpt>
      <trkpt lat="39.1722809896" lon="-6.2507004384">
        <ele>464.93</ele>
        <time>2020-07-13T08:45:13Z</time>
      </trkpt>
      <trkpt lat="39.1726456862" lon="-6.2501589675">
        <ele>464.93</ele>
        <time>2020-07-13T08:45:26Z</time>
      </trkpt>
      <trkpt lat="39.1728866659" lon="-6.2498055864">
        <ele>465.42</ele>
        <time>2020-07-13T08:45:35Z</time>
      </trkpt>
      <trkpt lat="39.1731819604" lon="-6.2493664585">
        <ele>465.42</ele>
        <time>2020-07-13T08:45:46Z</time>
      </trkpt>
      <trkpt lat="39.1733785160" lon="-6.2490733434">
        <ele>465.42</ele>
        <time>2020-07-13T08:45:54Z</time>
      </trkpt>
      <trkpt lat="39.1735922545" lon="-6.2487628777">
        <ele>464.93</ele>
        <time>2020-07-13T08:46:02Z</time>
      </trkpt>
      <trkpt lat="39.1739345714" lon="-6.2482525874">
        <ele>463.01</ele>
        <time>2020-07-13T08:46:13Z</time>
      </trkpt>
      <trkpt lat="39.1743075661" lon="-6.2477024831">
        <ele>460.61</ele>
        <time>2020-07-13T08:46:24Z</time>
      </trkpt>
      <trkpt lat="39.1745741107" lon="-6.2473068573">
        <ele>459.17</ele>
        <time>2020-07-13T08:46:32Z</time>
      </trkpt>
      <trkpt lat="39.1748808883" lon="-6.2468478642">
        <ele>458.69</ele>
        <time>2020-07-13T08:46:42Z</time>
      </trkpt>
      <trkpt lat="39.1752147395" lon="-6.2463563494">
        <ele>458.21</ele>
        <time>2020-07-13T08:46:53Z</time>
      </trkpt>
      <trkpt lat="39.1753535438" lon="-6.2461561896">
        <ele>458.21</ele>
        <time>2020-07-13T08:46:58Z</time>
      </trkpt>
      <trkpt lat="39.1753816232" lon="-6.2461120170">
        <ele>458.21</ele>
        <time>2020-07-13T08:46:59Z</time>
      </trkpt>
      <trkpt lat="39.1756389476" lon="-6.2457265332">
        <ele>458.21</ele>
        <time>2020-07-13T08:47:08Z</time>
      </trkpt>
      <trkpt lat="39.1759449709" lon="-6.2452797778">
        <ele>458.21</ele>
        <time>2020-07-13T08:47:18Z</time>
      </trkpt>
      <trkpt lat="39.1762672551" lon="-6.2447989918">
        <ele>458.69</ele>
        <time>2020-07-13T08:47:29Z</time>
      </trkpt>
      <trkpt lat="39.1765991785" lon="-6.2443090696">
        <ele>459.17</ele>
        <time>2020-07-13T08:47:41Z</time>
      </trkpt>
      <trkpt lat="39.1769190319" lon="-6.2438348215">
        <ele>460.13</ele>
        <time>2020-07-13T08:47:53Z</time>
      </trkpt>
      <trkpt lat="39.1771704890" lon="-6.2434628326">
        <ele>460.13</ele>
        <time>2020-07-13T08:48:03Z</time>
      </trkpt>
      <trkpt lat="39.1774755064" lon="-6.2430144846">
        <ele>460.13</ele>
        <time>2020-07-13T08:48:14Z</time>
      </trkpt>
      <trkpt lat="39.1777853854" lon="-6.2425599340">
        <ele>458.21</ele>
        <time>2020-07-13T08:48:24Z</time>
      </trkpt>
      <trkpt lat="39.1780836973" lon="-6.2421156932">
        <ele>456.28</ele>
        <time>2020-07-13T08:48:32Z</time>
      </trkpt>
      <trkpt lat="39.1785186343" lon="-6.2414636649">
        <ele>453.40</ele>
        <time>2020-07-13T08:48:42Z</time>
      </trkpt>
      <trkpt lat="39.1789641324" lon="-6.2408004049">
        <ele>451.48</ele>
        <time>2020-07-13T08:48:52Z</time>
      </trkpt>
      <trkpt lat="39.1792472731" lon="-6.2403943017">
        <ele>450.52</ele>
        <time>2020-07-13T08:49:00Z</time>
      </trkpt>
      <trkpt lat="39.1794474330" lon="-6.2401011866">
        <ele>450.52</ele>
        <time>2020-07-13T08:49:07Z</time>
      </trkpt>
      <trkpt lat="39.1797745787" lon="-6.2396132760">
        <ele>451.00</ele>
        <time>2020-07-13T08:49:18Z</time>
      </trkpt>
      <trkpt lat="39.1801443882" lon="-6.2390685361">
        <ele>451.48</ele>
        <time>2020-07-13T08:49:31Z</time>
      </trkpt>
      <trkpt lat="39.1804348212" lon="-6.2386405561">
        <ele>451.96</ele>
        <time>2020-07-13T08:49:41Z</time>
      </trkpt>
      <trkpt lat="39.1806794889" lon="-6.2382774521">
        <ele>451.96</ele>
        <time>2020-07-13T08:49:50Z</time>
      </trkpt>
      <trkpt lat="39.1809830815" lon="-6.2378446944">
        <ele>452.92</ele>
        <time>2020-07-13T08:50:01Z</time>
      </trkpt>
      <trkpt lat="39.1811747756" lon="-6.2375495676">
        <ele>453.40</ele>
        <time>2020-07-13T08:50:10Z</time>
      </trkpt>
      <trkpt lat="39.1813513823" lon="-6.2373051513">
        <ele>453.40</ele>
        <time>2020-07-13T08:50:20Z</time>
      </trkpt>
      <trkpt lat="39.1814109776" lon="-6.2371957675">
        <ele>454.36</ele>
        <time>2020-07-13T08:50:27Z</time>
      </trkpt>
      <trkpt lat="39.1814270709" lon="-6.2371806800">
        <ele>453.88</ele>
        <time>2020-07-13T08:50:33Z</time>
      </trkpt>
      <trkpt lat="39.1814359557" lon="-6.2371682748">
        <ele>453.88</ele>
        <time>2020-07-13T08:50:34Z</time>
      </trkpt>
      <trkpt lat="39.1814425774" lon="-6.2371514272">
        <ele>453.88</ele>
        <time>2020-07-13T08:50:35Z</time>
      </trkpt>
      <trkpt lat="39.1814507917" lon="-6.2371285446">
        <ele>453.88</ele>
        <time>2020-07-13T08:50:36Z</time>
      </trkpt>
      <trkpt lat="39.1814616043" lon="-6.2371021416">
        <ele>453.88</ele>
        <time>2020-07-13T08:50:37Z</time>
      </trkpt>
      <trkpt lat="39.1815120634" lon="-6.2370049953">
        <ele>453.88</ele>
        <time>2020-07-13T08:50:42Z</time>
      </trkpt>
      <trkpt lat="39.1815136559" lon="-6.2369954400">
        <ele>453.88</ele>
        <time>2020-07-13T08:50:43Z</time>
      </trkpt>
      <trkpt lat="39.1815166734" lon="-6.2369816098">
        <ele>453.88</ele>
        <time>2020-07-13T08:50:49Z</time>
      </trkpt>
      <trkpt lat="39.1815197747" lon="-6.2370127905">
        <ele>454.36</ele>
        <time>2020-07-13T08:51:04Z</time>
      </trkpt>
      <trkpt lat="39.1815058608" lon="-6.2369913328">
        <ele>453.88</ele>
        <time>2020-07-13T08:51:25Z</time>
      </trkpt>
      <trkpt lat="39.1815153323" lon="-6.2369912490">
        <ele>455.32</ele>
        <time>2020-07-13T08:51:46Z</time>
      </trkpt>
      <trkpt lat="39.1815046873" lon="-6.2369966973">
        <ele>457.72</ele>
        <time>2020-07-13T08:52:22Z</time>
      </trkpt>
      <trkpt lat="39.1815115605" lon="-6.2369994633">
        <ele>458.21</ele>
        <time>2020-07-13T08:52:44Z</time>
      </trkpt>
      <trkpt lat="39.1815131530" lon="-6.2369904108">
        <ele>456.76</ele>
        <time>2020-07-13T08:52:55Z</time>
      </trkpt>
      <trkpt lat="39.1815133207" lon="-6.2369903270">
        <ele>456.28</ele>
        <time>2020-07-13T08:53:01Z</time>
      </trkpt>
      <trkpt lat="39.1815388016" lon="-6.2369342521">
        <ele>455.32</ele>
        <time>2020-07-13T08:53:12Z</time>
      </trkpt>
      <trkpt lat="39.1815338563" lon="-6.2367248721">
        <ele>455.80</ele>
        <time>2020-07-13T08:53:20Z</time>
      </trkpt>
      <trkpt lat="39.1815092135" lon="-6.2363742571">
        <ele>456.76</ele>
        <time>2020-07-13T08:53:30Z</time>
      </trkpt>
      <trkpt lat="39.1814853251" lon="-6.2360428367">
        <ele>456.76</ele>
        <time>2020-07-13T08:53:39Z</time>
      </trkpt>
      <trkpt lat="39.1814652085" lon="-6.2356939819">
        <ele>456.76</ele>
        <time>2020-07-13T08:53:49Z</time>
      </trkpt>
      <trkpt lat="39.1814277414" lon="-6.2354991864">
        <ele>457.24</ele>
        <time>2020-07-13T08:53:57Z</time>
      </trkpt>
      <trkpt lat="39.1814178508" lon="-6.2352188118">
        <ele>457.24</ele>
        <time>2020-07-13T08:54:06Z</time>
      </trkpt>
      <trkpt lat="39.1814119834" lon="-6.2349761557">
        <ele>457.24</ele>
        <time>2020-07-13T08:54:14Z</time>
      </trkpt>
      <trkpt lat="39.1814210359" lon="-6.2348995451">
        <ele>457.24</ele>
        <time>2020-07-13T08:54:17Z</time>
      </trkpt>
      <trkpt lat="39.1814292502" lon="-6.2348778360">
        <ele>457.24</ele>
        <time>2020-07-13T08:54:18Z</time>
      </trkpt>
      <trkpt lat="39.1814352013" lon="-6.2348495051">
        <ele>456.76</ele>
        <time>2020-07-13T08:54:19Z</time>
      </trkpt>
      <trkpt lat="39.1814357881" lon="-6.2348199170">
        <ele>456.76</ele>
        <time>2020-07-13T08:54:20Z</time>
      </trkpt>
      <trkpt lat="39.1814336088" lon="-6.2347920891">
        <ele>456.76</ele>
        <time>2020-07-13T08:54:21Z</time>
      </trkpt>
      <trkpt lat="39.1814300045" lon="-6.2344658654">
        <ele>457.24</ele>
        <time>2020-07-13T08:54:30Z</time>
      </trkpt>
      <trkpt lat="39.1814266518" lon="-6.2340808008">
        <ele>458.21</ele>
        <time>2020-07-13T08:54:40Z</time>
      </trkpt>
      <trkpt lat="39.1814340279" lon="-6.2336660642">
        <ele>459.17</ele>
        <time>2020-07-13T08:54:50Z</time>
      </trkpt>
      <trkpt lat="39.1814143304" lon="-6.2333292793">
        <ele>460.61</ele>
        <time>2020-07-13T08:54:58Z</time>
      </trkpt>
      <trkpt lat="39.1813297570" lon="-6.2329650857">
        <ele>461.57</ele>
        <time>2020-07-13T08:55:07Z</time>
      </trkpt>
      <trkpt lat="39.1812406573" lon="-6.2326620799">
        <ele>461.57</ele>
        <time>2020-07-13T08:55:16Z</time>
      </trkpt>
      <trkpt lat="39.1811040323" lon="-6.2323302403">
        <ele>462.53</ele>
        <time>2020-07-13T08:55:26Z</time>
      </trkpt>
      <trkpt lat="39.1809722688" lon="-6.2319801282">
        <ele>463.01</ele>
        <time>2020-07-13T08:55:37Z</time>
      </trkpt>
      <trkpt lat="39.1809327062" lon="-6.2318969797">
        <ele>463.49</ele>
        <time>2020-07-13T08:55:40Z</time>
      </trkpt>
      <trkpt lat="39.1808392480" lon="-6.2318435032">
        <ele>463.97</ele>
        <time>2020-07-13T08:55:45Z</time>
      </trkpt>
      <trkpt lat="39.1807264276" lon="-6.2318124902">
        <ele>465.90</ele>
        <time>2020-07-13T08:55:52Z</time>
      </trkpt>
      <trkpt lat="39.1806083266" lon="-6.2317737658">
        <ele>467.34</ele>
        <time>2020-07-13T08:55:58Z</time>
      </trkpt>
      <trkpt lat="39.1805164609" lon="-6.2317385618">
        <ele>467.34</ele>
        <time>2020-07-13T08:56:03Z</time>
      </trkpt>
      <trkpt lat="39.1804891359" lon="-6.2317255698">
        <ele>468.30</ele>
        <time>2020-07-13T08:56:09Z</time>
      </trkpt>
      <trkpt lat="39.1804937460" lon="-6.2317274138">
        <ele>468.78</ele>
        <time>2020-07-13T08:56:15Z</time>
      </trkpt>
      <trkpt lat="39.1805023793" lon="-6.2317457702">
        <ele>469.74</ele>
        <time>2020-07-13T08:56:29Z</time>
      </trkpt>
      <trkpt lat="39.1804982722" lon="-6.2317662220">
        <ele>471.66</ele>
        <time>2020-07-13T08:56:44Z</time>
      </trkpt>
      <trkpt lat="39.1804845259" lon="-6.2317634560">
        <ele>474.07</ele>
        <time>2020-07-13T08:57:03Z</time>
      </trkpt>
      <trkpt lat="39.1804862861" lon="-6.2317663059">
        <ele>476.95</ele>
        <time>2020-07-13T08:57:21Z</time>
      </trkpt>
      <trkpt lat="39.1804940812" lon="-6.2317470275">
        <ele>475.03</ele>
        <time>2020-07-13T08:57:38Z</time>
      </trkpt>
      <trkpt lat="39.1804999486" lon="-6.2317041960">
        <ele>472.14</ele>
        <time>2020-07-13T08:58:00Z</time>
      </trkpt>
      <trkpt lat="39.1804975178" lon="-6.2317023519">
        <ele>472.14</ele>
        <time>2020-07-13T08:58:24Z</time>
      </trkpt>
      <trkpt lat="39.1804958414" lon="-6.2316809781">
        <ele>471.18</ele>
        <time>2020-07-13T08:58:44Z</time>
      </trkpt>
      <trkpt lat="39.1805005353" lon="-6.2316869292">
        <ele>468.78</ele>
        <time>2020-07-13T08:59:11Z</time>
      </trkpt>
      <trkpt lat="39.1804919019" lon="-6.2317591812">
        <ele>476.47</ele>
        <time>2020-07-13T08:59:38Z</time>
      </trkpt>
      <trkpt lat="39.1804822627" lon="-6.2317907810">
        <ele>479.35</ele>
        <time>2020-07-13T09:00:04Z</time>
      </trkpt>
      <trkpt lat="39.1804935783" lon="-6.2317805551">
        <ele>482.72</ele>
        <time>2020-07-13T09:00:34Z</time>
      </trkpt>
      <trkpt lat="39.1804868728" lon="-6.2317779567">
        <ele>483.20</ele>
        <time>2020-07-13T09:01:04Z</time>
      </trkpt>
      <trkpt lat="39.1804781556" lon="-6.2317950558">
        <ele>480.32</ele>
        <time>2020-07-13T09:01:33Z</time>
      </trkpt>
      <trkpt lat="39.1804732103" lon="-6.2317849975">
        <ele>478.39</ele>
        <time>2020-07-13T09:01:57Z</time>
      </trkpt>
      <trkpt lat="39.1804662533" lon="-6.2317881826">
        <ele>477.91</ele>
        <time>2020-07-13T09:02:25Z</time>
      </trkpt>
      <trkpt lat="39.1804738808" lon="-6.2317728437">
        <ele>476.47</ele>
        <time>2020-07-13T09:02:52Z</time>
      </trkpt>
      <trkpt lat="39.1804910637" lon="-6.2317591812">
        <ele>475.51</ele>
        <time>2020-07-13T09:03:17Z</time>
      </trkpt>
      <trkpt lat="39.1804901417" lon="-6.2317566667">
        <ele>474.55</ele>
        <time>2020-07-13T09:03:33Z</time>
      </trkpt>
      <trkpt lat="39.1804948356" lon="-6.2317610253">
        <ele>475.51</ele>
        <time>2020-07-13T09:03:58Z</time>
      </trkpt>
      <trkpt lat="39.1804970987" lon="-6.2317860872">
        <ele>475.99</ele>
        <time>2020-07-13T09:04:20Z</time>
      </trkpt>
      <trkpt lat="39.1804846935" lon="-6.2318279129">
        <ele>477.43</ele>
        <time>2020-07-13T09:04:45Z</time>
      </trkpt>
      <trkpt lat="39.1804997809" lon="-6.2318279967">
        <ele>481.28</ele>
        <time>2020-07-13T09:05:08Z</time>
      </trkpt>
      <trkpt lat="39.1804949194" lon="-6.2318302598">
        <ele>484.16</ele>
        <time>2020-07-13T09:05:30Z</time>
      </trkpt>
      <trkpt lat="39.1804913990" lon="-6.2318341155">
        <ele>482.72</ele>
        <time>2020-07-13T09:05:44Z</time>
      </trkpt>
      <trkpt lat="39.1804900579" lon="-6.2318347022">
        <ele>483.68</ele>
        <time>2020-07-13T09:06:06Z</time>
      </trkpt>
      <trkpt lat="39.1804897226" lon="-6.2318272423">
        <ele>482.24</ele>
        <time>2020-07-13T09:06:21Z</time>
      </trkpt>
      <trkpt lat="39.1804946680" lon="-6.2318260688">
        <ele>480.32</ele>
        <time>2020-07-13T09:06:42Z</time>
      </trkpt>
      <trkpt lat="39.1804919858" lon="-6.2318260688">
        <ele>479.84</ele>
        <time>2020-07-13T09:06:55Z</time>
      </trkpt>
      <trkpt lat="39.1804918181" lon="-6.2318190280">
        <ele>479.35</ele>
        <time>2020-07-13T09:07:07Z</time>
      </trkpt>
      <trkpt lat="39.1804935783" lon="-6.2318192795">
        <ele>479.35</ele>
        <time>2020-07-13T09:07:31Z</time>
      </trkpt>
      <trkpt lat="39.1804989427" lon="-6.2318052817">
        <ele>477.91</ele>
        <time>2020-07-13T09:07:44Z</time>
      </trkpt>
      <trkpt lat="39.1805126891" lon="-6.2318224646">
        <ele>476.95</ele>
        <time>2020-07-13T09:08:04Z</time>
      </trkpt>
      <trkpt lat="39.1805114318" lon="-6.2318001688">
        <ele>476.95</ele>
        <time>2020-07-13T09:08:20Z</time>
      </trkpt>
      <trkpt lat="39.1804985236" lon="-6.2318026833">
        <ele>477.91</ele>
        <time>2020-07-13T09:08:34Z</time>
      </trkpt>
      <trkpt lat="39.1804902256" lon="-6.2317803036">
        <ele>476.47</ele>
        <time>2020-07-13T09:08:52Z</time>
      </trkpt>
      <trkpt lat="39.1804981884" lon="-6.2317631207">
        <ele>474.55</ele>
        <time>2020-07-13T09:09:10Z</time>
      </trkpt>
      <trkpt lat="39.1804969311" lon="-6.2317605224">
        <ele>472.14</ele>
        <time>2020-07-13T09:09:27Z</time>
      </trkpt>
      <trkpt lat="39.1805133596" lon="-6.2317436747">
        <ele>471.66</ele>
        <time>2020-07-13T09:09:42Z</time>
      </trkpt>
      <trkpt lat="39.1804996971" lon="-6.2317291740">
        <ele>471.18</ele>
        <time>2020-07-13T09:09:59Z</time>
      </trkpt>
      <trkpt lat="39.1805135272" lon="-6.2317376398">
        <ele>471.18</ele>
        <time>2020-07-13T09:10:22Z</time>
      </trkpt>
      <trkpt lat="39.1805066541" lon="-6.2317535654">
        <ele>469.74</ele>
        <time>2020-07-13T09:10:45Z</time>
      </trkpt>
      <trkpt lat="39.1805122700" lon="-6.2317796331">
        <ele>468.78</ele>
        <time>2020-07-13T09:11:06Z</time>
      </trkpt>
      <trkpt lat="39.1805082466" lon="-6.2317824829">
        <ele>469.26</ele>
        <time>2020-07-13T09:11:22Z</time>
      </trkpt>
      <trkpt lat="39.1804925725" lon="-6.2317569181">
        <ele>467.82</ele>
        <time>2020-07-13T09:11:36Z</time>
      </trkpt>
      <trkpt lat="39.1804805864" lon="-6.2317647133">
        <ele>469.26</ele>
        <time>2020-07-13T09:11:54Z</time>
      </trkpt>
      <trkpt lat="39.1804803349" lon="-6.2317608576">
        <ele>469.74</ele>
        <time>2020-07-13T09:12:04Z</time>
      </trkpt>
      <trkpt lat="39.1804789938" lon="-6.2317449320">
        <ele>473.59</ele>
        <time>2020-07-13T09:12:20Z</time>
      </trkpt>
      <trkpt lat="39.1804839391" lon="-6.2317611929">
        <ele>475.03</ele>
        <time>2020-07-13T09:12:39Z</time>
      </trkpt>
      <trkpt lat="39.1804842744" lon="-6.2317785434">
        <ele>476.47</ele>
        <time>2020-07-13T09:12:57Z</time>
      </trkpt>
      <trkpt lat="39.1804846097" lon="-6.2317865901">
        <ele>477.91</ele>
        <time>2020-07-13T09:13:18Z</time>
      </trkpt>
      <trkpt lat="39.1805000324" lon="-6.2317847461">
        <ele>480.32</ele>
        <time>2020-07-13T09:13:38Z</time>
      </trkpt>
      <trkpt lat="39.1805002000" lon="-6.2317751907">
        <ele>480.32</ele>
        <time>2020-07-13T09:13:52Z</time>
      </trkpt>
      <trkpt lat="39.1804883815" lon="-6.2317918707">
        <ele>479.84</ele>
        <time>2020-07-13T09:14:11Z</time>
      </trkpt>
      <trkpt lat="39.1804913990" lon="-6.2317818962">
        <ele>479.84</ele>
        <time>2020-07-13T09:14:32Z</time>
      </trkpt>
      <trkpt lat="39.1804966796" lon="-6.2317970674">
        <ele>480.80</ele>
        <time>2020-07-13T09:14:49Z</time>
      </trkpt>
      <trkpt lat="39.1804978531" lon="-6.2317912839">
        <ele>481.76</ele>
        <time>2020-07-13T09:15:06Z</time>
      </trkpt>
      <trkpt lat="39.1804897226" lon="-6.2317895237">
        <ele>479.35</ele>
        <time>2020-07-13T09:15:26Z</time>
      </trkpt>
      <trkpt lat="39.1804711148" lon="-6.2317738496">
        <ele>477.91</ele>
        <time>2020-07-13T09:15:44Z</time>
      </trkpt>
      <trkpt lat="39.1804818437" lon="-6.2317553256">
        <ele>475.51</ele>
        <time>2020-07-13T09:16:05Z</time>
      </trkpt>
      <trkpt lat="39.1804819275" lon="-6.2317535654">
        <ele>473.11</ele>
        <time>2020-07-13T09:16:22Z</time>
      </trkpt>
      <trkpt lat="39.1804867890" lon="-6.2317543197">
        <ele>475.51</ele>
        <time>2020-07-13T09:16:40Z</time>
      </trkpt>
      <trkpt lat="39.1804835200" lon="-6.2317434233">
        <ele>475.03</ele>
        <time>2020-07-13T09:16:55Z</time>
      </trkpt>
      <trkpt lat="39.1804826818" lon="-6.2317559961">
        <ele>475.03</ele>
        <time>2020-07-13T09:17:07Z</time>
      </trkpt>
      <trkpt lat="39.1804756410" lon="-6.2317834888">
        <ele>475.03</ele>
        <time>2020-07-13T09:17:14Z</time>
      </trkpt>
      <trkpt lat="39.1804666724" lon="-6.2318098918">
        <ele>475.51</ele>
        <time>2020-07-13T09:17:18Z</time>
      </trkpt>
      <trkpt lat="39.1804429516" lon="-6.2318131607">
        <ele>474.55</ele>
        <time>2020-07-13T09:17:25Z</time>
      </trkpt>
      <trkpt lat="39.1803712863" lon="-6.2317990791">
        <ele>474.07</ele>
        <time>2020-07-13T09:17:31Z</time>
      </trkpt>
      <trkpt lat="39.1801704559" lon="-6.2317767832">
        <ele>474.55</ele>
        <time>2020-07-13T09:17:41Z</time>
      </trkpt>
      <trkpt lat="39.1800153907" lon="-6.2318294216">
        <ele>476.95</ele>
        <time>2020-07-13T09:17:49Z</time>
      </trkpt>
      <trkpt lat="39.1799164005" lon="-6.2319670524">
        <ele>476.47</ele>
        <time>2020-07-13T09:17:57Z</time>
      </trkpt>
      <trkpt lat="39.1798853036" lon="-6.2320959661">
        <ele>476.95</ele>
        <time>2020-07-13T09:18:03Z</time>
      </trkpt>
      <trkpt lat="39.1798612475" lon="-6.2323430646">
        <ele>476.47</ele>
        <time>2020-07-13T09:18:10Z</time>
      </trkpt>
      <trkpt lat="39.1798292287" lon="-6.2326410413">
        <ele>476.47</ele>
        <time>2020-07-13T09:18:17Z</time>
      </trkpt>
      <trkpt lat="39.1798615828" lon="-6.2330966815">
        <ele>472.63</ele>
        <time>2020-07-13T09:18:27Z</time>
      </trkpt>
      <trkpt lat="39.1798715573" lon="-6.2333377451">
        <ele>472.14</ele>
        <time>2020-07-13T09:18:34Z</time>
      </trkpt>
      <trkpt lat="39.1798811965" lon="-6.2335718516">
        <ele>471.18</ele>
        <time>2020-07-13T09:18:41Z</time>
      </trkpt>
      <trkpt lat="39.1798402928" lon="-6.2339570001">
        <ele>469.74</ele>
        <time>2020-07-13T09:18:50Z</time>
      </trkpt>
      <trkpt lat="39.1797595751" lon="-6.2340461835">
        <ele>470.22</ele>
        <time>2020-07-13T09:18:55Z</time>
      </trkpt>
      <trkpt lat="39.1795993131" lon="-6.2340450939">
        <ele>471.18</ele>
        <time>2020-07-13T09:19:02Z</time>
      </trkpt>
      <trkpt lat="39.1793885082" lon="-6.2340364605">
        <ele>472.14</ele>
        <time>2020-07-13T09:19:11Z</time>
      </trkpt>
      <trkpt lat="39.1791352071" lon="-6.2340310961">
        <ele>473.11</ele>
        <time>2020-07-13T09:19:22Z</time>
      </trkpt>
      <trkpt lat="39.1790845804" lon="-6.2340042740">
        <ele>473.11</ele>
        <time>2020-07-13T09:19:26Z</time>
      </trkpt>
      <trkpt lat="39.1790657211" lon="-6.2339602690">
        <ele>473.59</ele>
        <time>2020-07-13T09:19:29Z</time>
      </trkpt>
      <trkpt lat="39.1790211294" lon="-6.2339439243">
        <ele>474.07</ele>
        <time>2020-07-13T09:19:35Z</time>
      </trkpt>
      <trkpt lat="39.1790224705" lon="-6.2339330278">
        <ele>472.63</ele>
        <time>2020-07-13T09:19:46Z</time>
      </trkpt>
      <trkpt lat="39.1789673176" lon="-6.2339631189">
        <ele>471.66</ele>
        <time>2020-07-13T09:19:51Z</time>
      </trkpt>
      <trkpt lat="39.1788407508" lon="-6.2339814752">
        <ele>472.63</ele>
        <time>2020-07-13T09:20:00Z</time>
      </trkpt>
      <trkpt lat="39.1788595263" lon="-6.2339878455">
        <ele>472.63</ele>
        <time>2020-07-13T09:20:05Z</time>
      </trkpt>
      <trkpt lat="39.1789352987" lon="-6.2339773681">
        <ele>472.63</ele>
        <time>2020-07-13T09:20:10Z</time>
      </trkpt>
      <trkpt lat="39.1790253203" lon="-6.2339782901">
        <ele>473.11</ele>
        <time>2020-07-13T09:20:18Z</time>
      </trkpt>
      <trkpt lat="39.1790295951" lon="-6.2339725066">
        <ele>472.14</ele>
        <time>2020-07-13T09:20:26Z</time>
      </trkpt>
      <trkpt lat="39.1790282540" lon="-6.2339769490">
        <ele>471.66</ele>
        <time>2020-07-13T09:20:36Z</time>
      </trkpt>
      <trkpt lat="39.1790339537" lon="-6.2339897733">
        <ele>473.59</ele>
        <time>2020-07-13T09:20:47Z</time>
      </trkpt>
      <trkpt lat="39.1790155973" lon="-6.2339897733">
        <ele>472.14</ele>
        <time>2020-07-13T09:21:03Z</time>
      </trkpt>
      <trkpt lat="39.1790234763" lon="-6.2339922041">
        <ele>469.26</ele>
        <time>2020-07-13T09:21:14Z</time>
      </trkpt>
      <trkpt lat="39.1790350433" lon="-6.2339987420">
        <ele>467.82</ele>
        <time>2020-07-13T09:21:25Z</time>
      </trkpt>
      <trkpt lat="39.1790378094" lon="-6.2339880969">
        <ele>466.86</ele>
        <time>2020-07-13T09:21:37Z</time>
      </trkpt>
      <trkpt lat="39.1790339537" lon="-6.2339789607">
        <ele>467.82</ele>
        <time>2020-07-13T09:21:44Z</time>
      </trkpt>
      <trkpt lat="39.1790628713" lon="-6.2339835707">
        <ele>467.82</ele>
        <time>2020-07-13T09:21:49Z</time>
      </trkpt>
      <trkpt lat="39.1791555751" lon="-6.2340254802">
        <ele>466.86</ele>
        <time>2020-07-13T09:21:55Z</time>
      </trkpt>
      <trkpt lat="39.1792326886" lon="-6.2340318505">
        <ele>466.86</ele>
        <time>2020-07-13T09:21:58Z</time>
      </trkpt>
      <trkpt lat="39.1794270650" lon="-6.2340414058">
        <ele>466.86</ele>
        <time>2020-07-13T09:22:06Z</time>
      </trkpt>
      <trkpt lat="39.1794331837" lon="-6.2340412382">
        <ele>469.26</ele>
        <time>2020-07-13T09:22:13Z</time>
      </trkpt>
      <trkpt lat="39.1795718204" lon="-6.2340324372">
        <ele>468.78</ele>
        <time>2020-07-13T09:22:19Z</time>
      </trkpt>
      <trkpt lat="39.1798749100" lon="-6.2340429984">
        <ele>467.82</ele>
        <time>2020-07-13T09:22:25Z</time>
      </trkpt>
      <trkpt lat="39.1803662572" lon="-6.2340459321">
        <ele>465.42</ele>
        <time>2020-07-13T09:22:33Z</time>
      </trkpt>
      <trkpt lat="39.1808169521" lon="-6.2340981513">
        <ele>463.97</ele>
        <time>2020-07-13T09:22:40Z</time>
      </trkpt>
      <trkpt lat="39.1811996698" lon="-6.2341768574">
        <ele>461.57</ele>
        <time>2020-07-13T09:22:46Z</time>
      </trkpt>
      <trkpt lat="39.1813958064" lon="-6.2342216168">
        <ele>461.57</ele>
        <time>2020-07-13T09:22:51Z</time>
      </trkpt>
      <trkpt lat="39.1814455949" lon="-6.2342874147">
        <ele>460.61</ele>
        <time>2020-07-13T09:22:55Z</time>
      </trkpt>
      <trkpt lat="39.1814740095" lon="-6.2345474213">
        <ele>461.09</ele>
        <time>2020-07-13T09:23:03Z</time>
      </trkpt>
      <trkpt lat="39.1814888455" lon="-6.2349647563">
        <ele>461.09</ele>
        <time>2020-07-13T09:23:13Z</time>
      </trkpt>
      <trkpt lat="39.1814890131" lon="-6.2352478970">
        <ele>459.17</ele>
        <time>2020-07-13T09:23:21Z</time>
      </trkpt>
      <trkpt lat="39.1815026756" lon="-6.2354908884">
        <ele>458.21</ele>
        <time>2020-07-13T09:23:28Z</time>
      </trkpt>
      <trkpt lat="39.1815377120" lon="-6.2357684132">
        <ele>456.76</ele>
        <time>2020-07-13T09:23:35Z</time>
      </trkpt>
      <trkpt lat="39.1815698147" lon="-6.2361678947">
        <ele>455.32</ele>
        <time>2020-07-13T09:23:44Z</time>
      </trkpt>
      <trkpt lat="39.1816228721" lon="-6.2366682105">
        <ele>453.40</ele>
        <time>2020-07-13T09:23:54Z</time>
      </trkpt>
      <trkpt lat="39.1816277336" lon="-6.2368443981">
        <ele>452.44</ele>
        <time>2020-07-13T09:24:00Z</time>
      </trkpt>
      <trkpt lat="39.1816128138" lon="-6.2368634250">
        <ele>452.92</ele>
        <time>2020-07-13T09:24:01Z</time>
      </trkpt>
      <trkpt lat="39.1816009954" lon="-6.2368747406">
        <ele>452.92</ele>
        <time>2020-07-13T09:24:02Z</time>
      </trkpt>
      <trkpt lat="39.1815846507" lon="-6.2368873972">
        <ele>452.92</ele>
        <time>2020-07-13T09:24:03Z</time>
      </trkpt>
      <trkpt lat="39.1815671325" lon="-6.2368966173">
        <ele>452.92</ele>
        <time>2020-07-13T09:24:04Z</time>
      </trkpt>
      <trkpt lat="39.1815531347" lon="-6.2369044125">
        <ele>452.92</ele>
        <time>2020-07-13T09:24:05Z</time>
      </trkpt>
      <trkpt lat="39.1815450042" lon="-6.2369179912">
        <ele>452.92</ele>
        <time>2020-07-13T09:24:06Z</time>
      </trkpt>
      <trkpt lat="39.1815358680" lon="-6.2369348388">
        <ele>452.92</ele>
        <time>2020-07-13T09:24:12Z</time>
      </trkpt>
      <trkpt lat="39.1815178469" lon="-6.2369555421">
        <ele>453.40</ele>
        <time>2020-07-13T09:24:19Z</time>
      </trkpt>
      <trkpt lat="39.1815113928" lon="-6.2369659357">
        <ele>453.40</ele>
        <time>2020-07-13T09:24:25Z</time>
      </trkpt>
      <trkpt lat="39.1815168411" lon="-6.2369667739">
        <ele>452.92</ele>
        <time>2020-07-13T09:24:40Z</time>
      </trkpt>
      <trkpt lat="39.1815243848" lon="-6.2369726412">
        <ele>452.92</ele>
        <time>2020-07-13T09:24:56Z</time>
      </trkpt>
      <trkpt lat="39.1815268993" lon="-6.2369544525">
        <ele>453.88</ele>
        <time>2020-07-13T09:25:17Z</time>
      </trkpt>
      <trkpt lat="39.1815240495" lon="-6.2369818613">
        <ele>453.40</ele>
        <time>2020-07-13T09:25:41Z</time>
      </trkpt>
      <trkpt lat="39.1815248877" lon="-6.2369708810">
        <ele>453.40</ele>
        <time>2020-07-13T09:26:09Z</time>
      </trkpt>
      <trkpt lat="39.1815248039" lon="-6.2369721383">
        <ele>451.96</ele>
        <time>2020-07-13T09:26:28Z</time>
      </trkpt>
      <trkpt lat="39.1815359518" lon="-6.2369757425">
        <ele>454.36</ele>
        <time>2020-07-13T09:26:51Z</time>
      </trkpt>
      <trkpt lat="39.1815291625" lon="-6.2369754072">
        <ele>455.32</ele>
        <time>2020-07-13T09:27:12Z</time>
      </trkpt>
      <trkpt lat="39.1815089621" lon="-6.2369692884">
        <ele>453.40</ele>
        <time>2020-07-13T09:27:37Z</time>
      </trkpt>
      <trkpt lat="39.1815143265" lon="-6.2369657680">
        <ele>451.96</ele>
        <time>2020-07-13T09:27:57Z</time>
      </trkpt>
      <trkpt lat="39.1815149970" lon="-6.2369723059">
        <ele>451.00</ele>
        <time>2020-07-13T09:28:20Z</time>
      </trkpt>
      <trkpt lat="39.1815133207" lon="-6.2369668577">
        <ele>451.48</ele>
        <time>2020-07-13T09:28:46Z</time>
      </trkpt>
      <trkpt lat="39.1815153323" lon="-6.2369600683">
        <ele>452.44</ele>
        <time>2020-07-13T09:29:12Z</time>
      </trkpt>
      <trkpt lat="39.1815170925" lon="-6.2369639240">
        <ele>453.40</ele>
        <time>2020-07-13T09:29:40Z</time>
      </trkpt>
      <trkpt lat="39.1815266479" lon="-6.2369573023">
        <ele>453.40</ele>
        <time>2020-07-13T09:30:03Z</time>
      </trkpt>
      <trkpt lat="39.1815133207" lon="-6.2369739823">
        <ele>453.40</ele>
        <time>2020-07-13T09:30:26Z</time>
      </trkpt>
      <trkpt lat="39.1815066151" lon="-6.2369743176">
        <ele>453.88</ele>
        <time>2020-07-13T09:30:50Z</time>
      </trkpt>
      <trkpt lat="39.1815181822" lon="-6.2369447295">
        <ele>453.88</ele>
        <time>2020-07-13T09:31:10Z</time>
      </trkpt>
      <trkpt lat="39.1815179307" lon="-6.2369720545">
        <ele>452.92</ele>
        <time>2020-07-13T09:31:35Z</time>
      </trkpt>
      <trkpt lat="39.1814994067" lon="-6.2369544525">
        <ele>452.44</ele>
        <time>2020-07-13T09:32:03Z</time>
      </trkpt>
      <trkpt lat="39.1815155838" lon="-6.2369587272">
        <ele>452.92</ele>
        <time>2020-07-13T09:32:32Z</time>
      </trkpt>
      <trkpt lat="39.1815246362" lon="-6.2369632535">
        <ele>454.36</ele>
        <time>2020-07-13T09:32:56Z</time>
      </trkpt>
      <trkpt lat="39.1815230437" lon="-6.2369786762">
        <ele>453.88</ele>
        <time>2020-07-13T09:33:16Z</time>
      </trkpt>
      <trkpt lat="39.1815228760" lon="-6.2369885668">
        <ele>454.36</ele>
        <time>2020-07-13T09:33:25Z</time>
      </trkpt>
      <trkpt lat="39.1815335210" lon="-6.2370100245">
        <ele>454.36</ele>
        <time>2020-07-13T09:33:28Z</time>
      </trkpt>
      <trkpt lat="39.1815507039" lon="-6.2370272912">
        <ele>454.36</ele>
        <time>2020-07-13T09:33:29Z</time>
      </trkpt>
      <trkpt lat="39.1815634444" lon="-6.2370372657">
        <ele>454.36</ele>
        <time>2020-07-13T09:33:30Z</time>
      </trkpt>
      <trkpt lat="39.1815859079" lon="-6.2370447256">
        <ele>454.36</ele>
        <time>2020-07-13T09:33:31Z</time>
      </trkpt>
      <trkpt lat="39.1815983132" lon="-6.2370465696">
        <ele>454.84</ele>
        <time>2020-07-13T09:33:32Z</time>
      </trkpt>
      <trkpt lat="39.1816999018" lon="-6.2371224258">
        <ele>453.88</ele>
        <time>2020-07-13T09:33:40Z</time>
      </trkpt>
      <trkpt lat="39.1816974711" lon="-6.2371318974">
        <ele>453.40</ele>
        <time>2020-07-13T09:33:48Z</time>
      </trkpt>
      <trkpt lat="39.1816868261" lon="-6.2371484935">
        <ele>453.40</ele>
        <time>2020-07-13T09:33:50Z</time>
      </trkpt>
      <trkpt lat="39.1816771030" lon="-6.2371504214">
        <ele>453.40</ele>
        <time>2020-07-13T09:33:51Z</time>
      </trkpt>
      <trkpt lat="39.1816634405" lon="-6.2371491641">
        <ele>453.88</ele>
        <time>2020-07-13T09:33:52Z</time>
      </trkpt>
      <trkpt lat="39.1816512030" lon="-6.2371483259">
        <ele>453.88</ele>
        <time>2020-07-13T09:33:53Z</time>
      </trkpt>
      <trkpt lat="39.1816351935" lon="-6.2371537741">
        <ele>453.88</ele>
        <time>2020-07-13T09:33:54Z</time>
      </trkpt>
      <trkpt lat="39.1816211119" lon="-6.2371633295">
        <ele>454.36</ele>
        <time>2020-07-13T09:33:55Z</time>
      </trkpt>
      <trkpt lat="39.1816118080" lon="-6.2371712923">
        <ele>454.36</ele>
        <time>2020-07-13T09:33:56Z</time>
      </trkpt>
      <trkpt lat="39.1816053540" lon="-6.2371775787">
        <ele>454.36</ele>
        <time>2020-07-13T09:33:57Z</time>
      </trkpt>
      <trkpt lat="39.1816090420" lon="-6.2371777464">
        <ele>454.36</ele>
        <time>2020-07-13T09:34:03Z</time>
      </trkpt>
      <trkpt lat="39.1816088744" lon="-6.2371739745">
        <ele>454.36</ele>
        <time>2020-07-13T09:34:14Z</time>
      </trkpt>
      <trkpt lat="39.1816102155" lon="-6.2371780816">
        <ele>455.32</ele>
        <time>2020-07-13T09:34:35Z</time>
      </trkpt>
      <trkpt lat="39.1816150770" lon="-6.2371810153">
        <ele>454.84</ele>
        <time>2020-07-13T09:34:45Z</time>
      </trkpt>
      <trkpt lat="39.1816232912" lon="-6.2371831108">
        <ele>454.84</ele>
        <time>2020-07-13T09:34:47Z</time>
      </trkpt>
      <trkpt lat="39.1816352773" lon="-6.2371839490">
        <ele>454.84</ele>
        <time>2020-07-13T09:34:48Z</time>
      </trkpt>
      <trkpt lat="39.1816462576" lon="-6.2371894810">
        <ele>454.84</ele>
        <time>2020-07-13T09:34:49Z</time>
      </trkpt>
      <trkpt lat="39.1817264725" lon="-6.2372195721">
        <ele>453.88</ele>
        <time>2020-07-13T09:34:56Z</time>
      </trkpt>
      <trkpt lat="39.1817377042" lon="-6.2372126989">
        <ele>453.88</ele>
        <time>2020-07-13T09:34:57Z</time>
      </trkpt>
      <trkpt lat="39.1817562282" lon="-6.2372184824">
        <ele>453.40</ele>
        <time>2020-07-13T09:34:59Z</time>
      </trkpt>
      <trkpt lat="39.1817646939" lon="-6.2372285407">
        <ele>452.92</ele>
        <time>2020-07-13T09:35:00Z</time>
      </trkpt>
      <trkpt lat="39.1817734111" lon="-6.2372377608">
        <ele>452.92</ele>
        <time>2020-07-13T09:35:01Z</time>
      </trkpt>
      <trkpt lat="39.1817780212" lon="-6.2372486573">
        <ele>452.92</ele>
        <time>2020-07-13T09:35:02Z</time>
      </trkpt>
      <trkpt lat="39.1817835532" lon="-6.2372608110">
        <ele>452.44</ele>
        <time>2020-07-13T09:35:03Z</time>
      </trkpt>
      <trkpt lat="39.1817904264" lon="-6.2372733001">
        <ele>452.44</ele>
        <time>2020-07-13T09:35:04Z</time>
      </trkpt>
      <trkpt lat="39.1818470042" lon="-6.2373677641">
        <ele>452.44</ele>
        <time>2020-07-13T09:35:10Z</time>
      </trkpt>
      <trkpt lat="39.1819567233" lon="-6.2374967616">
        <ele>451.48</ele>
        <time>2020-07-13T09:35:18Z</time>
      </trkpt>
      <trkpt lat="39.1821058374" lon="-6.2376942392">
        <ele>450.52</ele>
        <time>2020-07-13T09:35:26Z</time>
      </trkpt>
      <trkpt lat="39.1823129542" lon="-6.2379252445">
        <ele>449.07</ele>
        <time>2020-07-13T09:35:33Z</time>
      </trkpt>
      <trkpt lat="39.1826509964" lon="-6.2383161765">
        <ele>448.11</ele>
        <time>2020-07-13T09:35:42Z</time>
      </trkpt>
      <trkpt lat="39.1829703469" lon="-6.2387734093">
        <ele>445.71</ele>
        <time>2020-07-13T09:35:50Z</time>
      </trkpt>
      <trkpt lat="39.1832725983" lon="-6.2393052410">
        <ele>443.79</ele>
        <time>2020-07-13T09:35:58Z</time>
      </trkpt>
      <trkpt lat="39.1835340299" lon="-6.2397170439">
        <ele>442.82</ele>
        <time>2020-07-13T09:36:05Z</time>
      </trkpt>
      <trkpt lat="39.1838491894" lon="-6.2402157672">
        <ele>441.38</ele>
        <time>2020-07-13T09:36:14Z</time>
      </trkpt>
      <trkpt lat="39.1840962041" lon="-6.2406290788">
        <ele>440.42</ele>
        <time>2020-07-13T09:36:21Z</time>
      </trkpt>
      <trkpt lat="39.1842946038" lon="-6.2409591582">
        <ele>439.94</ele>
        <time>2020-07-13T09:36:28Z</time>
      </trkpt>
      <trkpt lat="39.1844705399" lon="-6.2412430532">
        <ele>440.42</ele>
        <time>2020-07-13T09:36:37Z</time>
      </trkpt>
      <trkpt lat="39.1846984439" lon="-6.2415939197">
        <ele>440.42</ele>
        <time>2020-07-13T09:36:46Z</time>
      </trkpt>
      <trkpt lat="39.1849382501" lon="-6.2419117615">
        <ele>439.94</ele>
        <time>2020-07-13T09:36:55Z</time>
      </trkpt>
      <trkpt lat="39.1851880308" lon="-6.2422275078">
        <ele>438.98</ele>
        <time>2020-07-13T09:37:03Z</time>
      </trkpt>
      <trkpt lat="39.1854839958" lon="-6.2425611913">
        <ele>438.50</ele>
        <time>2020-07-13T09:37:13Z</time>
      </trkpt>
      <trkpt lat="39.1858212836" lon="-6.2429310009">
        <ele>437.06</ele>
        <time>2020-07-13T09:37:23Z</time>
      </trkpt>
      <trkpt lat="39.1861654446" lon="-6.2432975415">
        <ele>436.10</ele>
        <time>2020-07-13T09:37:32Z</time>
      </trkpt>
      <trkpt lat="39.1862344276" lon="-6.2433665246">
        <ele>436.10</ele>
        <time>2020-07-13T09:37:34Z</time>
      </trkpt>
      <trkpt lat="39.1862685420" lon="-6.2434045784">
        <ele>435.61</ele>
        <time>2020-07-13T09:37:35Z</time>
      </trkpt>
      <trkpt lat="39.1863043327" lon="-6.2434371002">
        <ele>435.61</ele>
        <time>2020-07-13T09:37:36Z</time>
      </trkpt>
      <trkpt lat="39.1863898281" lon="-6.2435004674">
        <ele>435.13</ele>
        <time>2020-07-13T09:37:38Z</time>
      </trkpt>
      <trkpt lat="39.1864372697" lon="-6.2435242720">
        <ele>435.13</ele>
        <time>2020-07-13T09:37:39Z</time>
      </trkpt>
      <trkpt lat="39.1864785086" lon="-6.2435427122">
        <ele>434.65</ele>
        <time>2020-07-13T09:37:40Z</time>
      </trkpt>
      <trkpt lat="39.1865258664" lon="-6.2435632478">
        <ele>434.17</ele>
        <time>2020-07-13T09:37:41Z</time>
      </trkpt>
      <trkpt lat="39.1865806002" lon="-6.2435879745">
        <ele>434.17</ele>
        <time>2020-07-13T09:37:42Z</time>
      </trkpt>
      <trkpt lat="39.1866367590" lon="-6.2436089292">
        <ele>433.69</ele>
        <time>2020-07-13T09:37:43Z</time>
      </trkpt>
      <trkpt lat="39.1873103287" lon="-6.2439196464">
        <ele>431.29</ele>
        <time>2020-07-13T09:37:54Z</time>
      </trkpt>
      <trkpt lat="39.1874579340" lon="-6.2439840194">
        <ele>430.81</ele>
        <time>2020-07-13T09:37:57Z</time>
      </trkpt>
      <trkpt lat="39.1878085490" lon="-6.2441268470">
        <ele>430.81</ele>
        <time>2020-07-13T09:38:06Z</time>
      </trkpt>
      <trkpt lat="39.1880843975" lon="-6.2442029547">
        <ele>430.81</ele>
        <time>2020-07-13T09:38:14Z</time>
      </trkpt>
      <trkpt lat="39.1882278118" lon="-6.2442648970">
        <ele>430.33</ele>
        <time>2020-07-13T09:38:18Z</time>
      </trkpt>
      <trkpt lat="39.1883682925" lon="-6.2444068864">
        <ele>429.37</ele>
        <time>2020-07-13T09:38:22Z</time>
      </trkpt>
      <trkpt lat="39.1886065062" lon="-6.2447186094">
        <ele>428.40</ele>
        <time>2020-07-13T09:38:30Z</time>
      </trkpt>
      <trkpt lat="39.1888603941" lon="-6.2450474314">
        <ele>429.37</ele>
        <time>2020-07-13T09:38:39Z</time>
      </trkpt>
      <trkpt lat="39.1890383419" lon="-6.2452424783">
        <ele>429.85</ele>
        <time>2020-07-13T09:38:47Z</time>
      </trkpt>
      <trkpt lat="39.1890535969" lon="-6.2452475913">
        <ele>429.85</ele>
        <time>2020-07-13T09:38:51Z</time>
      </trkpt>
      <trkpt lat="39.1890328936" lon="-6.2452631816">
        <ele>429.85</ele>
        <time>2020-07-13T09:39:00Z</time>
      </trkpt>
      <trkpt lat="39.1890244279" lon="-6.2452539615">
        <ele>429.85</ele>
        <time>2020-07-13T09:39:01Z</time>
      </trkpt>
      <trkpt lat="39.1890162975" lon="-6.2452449091">
        <ele>429.85</ele>
        <time>2020-07-13T09:39:02Z</time>
      </trkpt>
      <trkpt lat="39.1890078317" lon="-6.2452371977">
        <ele>429.85</ele>
        <time>2020-07-13T09:39:03Z</time>
      </trkpt>
      <trkpt lat="39.1889991984" lon="-6.2452288158">
        <ele>429.85</ele>
        <time>2020-07-13T09:39:04Z</time>
      </trkpt>
      <trkpt lat="39.1889929119" lon="-6.2452206016">
        <ele>429.85</ele>
        <time>2020-07-13T09:39:05Z</time>
      </trkpt>
      <trkpt lat="39.1889821831" lon="-6.2452042568">
        <ele>429.85</ele>
        <time>2020-07-13T09:39:11Z</time>
      </trkpt>
      <trkpt lat="39.1889720410" lon="-6.2451988924">
        <ele>429.85</ele>
        <time>2020-07-13T09:39:20Z</time>
      </trkpt>
      <trkpt lat="39.1889874637" lon="-6.2451851461">
        <ele>430.33</ele>
        <time>2020-07-13T09:39:29Z</time>
      </trkpt>
      <trkpt lat="39.1889942531" lon="-6.2451931089">
        <ele>430.33</ele>
        <time>2020-07-13T09:39:30Z</time>
      </trkpt>
      <trkpt lat="39.1890639067" lon="-6.2452897523">
        <ele>430.33</ele>
        <time>2020-07-13T09:39:36Z</time>
      </trkpt>
      <trkpt lat="39.1892709397" lon="-6.2454731483">
        <ele>429.85</ele>
        <time>2020-07-13T09:39:43Z</time>
      </trkpt>
      <trkpt lat="39.1896324512" lon="-6.2458727974">
        <ele>428.40</ele>
        <time>2020-07-13T09:39:54Z</time>
      </trkpt>
      <trkpt lat="39.1897351295" lon="-6.2459958438">
        <ele>427.92</ele>
        <time>2020-07-13T09:39:57Z</time>
      </trkpt>
      <trkpt lat="39.1897585150" lon="-6.2460325565">
        <ele>427.92</ele>
        <time>2020-07-13T09:39:58Z</time>
      </trkpt>
      <trkpt lat="39.1899083834" lon="-6.2463006936">
        <ele>427.44</ele>
        <time>2020-07-13T09:40:06Z</time>
      </trkpt>
      <trkpt lat="39.1900307592" lon="-6.2463188823">
        <ele>427.92</ele>
        <time>2020-07-13T09:40:12Z</time>
      </trkpt>
      <trkpt lat="39.1901584156" lon="-6.2462896295">
        <ele>428.40</ele>
        <time>2020-07-13T09:40:19Z</time>
      </trkpt>
      <trkpt lat="39.1901650373" lon="-6.2462793197">
        <ele>428.40</ele>
        <time>2020-07-13T09:40:24Z</time>
      </trkpt>
      <trkpt lat="39.1901700664" lon="-6.2462710217">
        <ele>428.40</ele>
        <time>2020-07-13T09:40:32Z</time>
      </trkpt>
      <trkpt lat="39.1903180070" lon="-6.2461917289">
        <ele>428.40</ele>
        <time>2020-07-13T09:40:40Z</time>
      </trkpt>
      <trkpt lat="39.1904138960" lon="-6.2461848557">
        <ele>428.89</ele>
        <time>2020-07-13T09:40:45Z</time>
      </trkpt>
      <trkpt lat="39.1904268041" lon="-6.2461787369">
        <ele>428.89</ele>
        <time>2020-07-13T09:40:46Z</time>
      </trkpt>
      <trkpt lat="39.1904417239" lon="-6.2461775634">
        <ele>428.89</ele>
        <time>2020-07-13T09:40:47Z</time>
      </trkpt>
      <trkpt lat="39.1904556379" lon="-6.2461787369">
        <ele>428.89</ele>
        <time>2020-07-13T09:40:48Z</time>
      </trkpt>
      <trkpt lat="39.1904730722" lon="-6.2461804971">
        <ele>428.89</ele>
        <time>2020-07-13T09:40:49Z</time>
      </trkpt>
      <trkpt lat="39.1906003095" lon="-6.2462162040">
        <ele>429.85</ele>
        <time>2020-07-13T09:40:58Z</time>
      </trkpt>
      <trkpt lat="39.1907542851" lon="-6.2462695129">
        <ele>429.85</ele>
        <time>2020-07-13T09:41:07Z</time>
      </trkpt>
      <trkpt lat="39.1909374297" lon="-6.2463283539">
        <ele>430.33</ele>
        <time>2020-07-13T09:41:15Z</time>
      </trkpt>
      <trkpt lat="39.1912168823" lon="-6.2464466225">
        <ele>431.29</ele>
        <time>2020-07-13T09:41:26Z</time>
      </trkpt>
      <trkpt lat="39.1913660802" lon="-6.2465104088">
        <ele>432.25</ele>
        <time>2020-07-13T09:41:34Z</time>
      </trkpt>
      <trkpt lat="39.1914723627" lon="-6.2465669028">
        <ele>432.73</ele>
        <time>2020-07-13T09:41:40Z</time>
      </trkpt>
      <trkpt lat="39.1916005220" lon="-6.2467325293">
        <ele>433.21</ele>
        <time>2020-07-13T09:41:49Z</time>
      </trkpt>
      <trkpt lat="39.1917202994" lon="-6.2468845770">
        <ele>433.21</ele>
        <time>2020-07-13T09:41:57Z</time>
      </trkpt>
      <trkpt lat="39.1918717604" lon="-6.2470056117">
        <ele>433.21</ele>
        <time>2020-07-13T09:42:05Z</time>
      </trkpt>
      <trkpt lat="39.1918833274" lon="-6.2470226269">
        <ele>433.21</ele>
        <time>2020-07-13T09:42:06Z</time>
      </trkpt>
      <trkpt lat="39.1918976605" lon="-6.2470335234">
        <ele>433.21</ele>
        <time>2020-07-13T09:42:07Z</time>
      </trkpt>
      <trkpt lat="39.1919167712" lon="-6.2470464315">
        <ele>433.21</ele>
        <time>2020-07-13T09:42:08Z</time>
      </trkpt>
      <trkpt lat="39.1919366363" lon="-6.2470611837">
        <ele>433.21</ele>
        <time>2020-07-13T09:42:09Z</time>
      </trkpt>
      <trkpt lat="39.1919575911" lon="-6.2470750976">
        <ele>433.21</ele>
        <time>2020-07-13T09:42:10Z</time>
      </trkpt>
      <trkpt lat="39.1921319347" lon="-6.2471685559">
        <ele>432.25</ele>
        <time>2020-07-13T09:42:19Z</time>
      </trkpt>
      <trkpt lat="39.1921444237" lon="-6.2471772730">
        <ele>432.25</ele>
        <time>2020-07-13T09:42:20Z</time>
      </trkpt>
      <trkpt lat="39.1921596788" lon="-6.2471833080">
        <ele>432.25</ele>
        <time>2020-07-13T09:42:21Z</time>
      </trkpt>
      <trkpt lat="39.1921749339" lon="-6.2471921928">
        <ele>432.25</ele>
        <time>2020-07-13T09:42:22Z</time>
      </trkpt>
      <trkpt lat="39.1921885125" lon="-6.2472041789">
        <ele>432.25</ele>
        <time>2020-07-13T09:42:23Z</time>
      </trkpt>
      <trkpt lat="39.1922066174" lon="-6.2472180091">
        <ele>432.25</ele>
        <time>2020-07-13T09:42:24Z</time>
      </trkpt>
      <trkpt lat="39.1923692264" lon="-6.2473271415">
        <ele>431.77</ele>
        <time>2020-07-13T09:42:33Z</time>
      </trkpt>
      <trkpt lat="39.1924306657" lon="-6.2473987229">
        <ele>430.81</ele>
        <time>2020-07-13T09:42:39Z</time>
      </trkpt>
      <trkpt lat="39.1924731620" lon="-6.2474504393">
        <ele>430.33</ele>
        <time>2020-07-13T09:42:43Z</time>
      </trkpt>
      <trkpt lat="39.1924796160" lon="-6.2474646047">
        <ele>430.33</ele>
        <time>2020-07-13T09:42:44Z</time>
      </trkpt>
      <trkpt lat="39.1924888361" lon="-6.2474791892">
        <ele>429.85</ele>
        <time>2020-07-13T09:42:45Z</time>
      </trkpt>
      <trkpt lat="39.1925005708" lon="-6.2474939413">
        <ele>429.85</ele>
        <time>2020-07-13T09:42:46Z</time>
      </trkpt>
      <trkpt lat="39.1925128922" lon="-6.2475112919">
        <ele>429.85</ele>
        <time>2020-07-13T09:42:47Z</time>
      </trkpt>
      <trkpt lat="39.1926340945" lon="-6.2477107812">
        <ele>428.89</ele>
        <time>2020-07-13T09:42:57Z</time>
      </trkpt>
      <trkpt lat="39.1927114595" lon="-6.2479574606">
        <ele>427.44</ele>
        <time>2020-07-13T09:43:05Z</time>
      </trkpt>
      <trkpt lat="39.1927999724" lon="-6.2481831014">
        <ele>426.48</ele>
        <time>2020-07-13T09:43:12Z</time>
      </trkpt>
      <trkpt lat="39.1928290576" lon="-6.2482815050">
        <ele>426.00</ele>
        <time>2020-07-13T09:43:16Z</time>
      </trkpt>
      <trkpt lat="39.1928285547" lon="-6.2483055610">
        <ele>425.52</ele>
        <time>2020-07-13T09:43:17Z</time>
      </trkpt>
      <trkpt lat="39.1928267945" lon="-6.2483361550">
        <ele>425.52</ele>
        <time>2020-07-13T09:43:18Z</time>
      </trkpt>
      <trkpt lat="39.1928469948" lon="-6.2485754583">
        <ele>424.56</ele>
        <time>2020-07-13T09:43:25Z</time>
      </trkpt>
      <trkpt lat="39.1928652674" lon="-6.2486332934">
        <ele>424.56</ele>
        <time>2020-07-13T09:43:28Z</time>
      </trkpt>
      <trkpt lat="39.1928691231" lon="-6.2486587744">
        <ele>424.56</ele>
        <time>2020-07-13T09:43:29Z</time>
      </trkpt>
      <trkpt lat="39.1928877309" lon="-6.2488689926">
        <ele>424.08</ele>
        <time>2020-07-13T09:43:37Z</time>
      </trkpt>
      <trkpt lat="39.1929263715" lon="-6.2490316853">
        <ele>423.60</ele>
        <time>2020-07-13T09:43:45Z</time>
      </trkpt>
      <trkpt lat="39.1930187400" lon="-6.2493396364">
        <ele>422.64</ele>
        <time>2020-07-13T09:43:54Z</time>
      </trkpt>
      <trkpt lat="39.1931080073" lon="-6.2497416325">
        <ele>421.68</ele>
        <time>2020-07-13T09:44:04Z</time>
      </trkpt>
      <trkpt lat="39.1931287106" lon="-6.2498508487">
        <ele>421.68</ele>
        <time>2020-07-13T09:44:09Z</time>
      </trkpt>
      <trkpt lat="39.1931360029" lon="-6.2499081809">
        <ele>422.16</ele>
        <time>2020-07-13T09:44:17Z</time>
      </trkpt>
      <trkpt lat="39.1931935865" lon="-6.2502003741">
        <ele>422.16</ele>
        <time>2020-07-13T09:44:25Z</time>
      </trkpt>
      <trkpt lat="39.1932261921" lon="-6.2504403479">
        <ele>421.68</ele>
        <time>2020-07-13T09:44:32Z</time>
      </trkpt>
      <trkpt lat="39.1932321433" lon="-6.2506472971">
        <ele>421.68</ele>
        <time>2020-07-13T09:44:39Z</time>
      </trkpt>
      <trkpt lat="39.1933336481" lon="-6.2508936413">
        <ele>421.19</ele>
        <time>2020-07-13T09:44:45Z</time>
      </trkpt>
      <trkpt lat="39.1934409365" lon="-6.2511425838">
        <ele>420.71</ele>
        <time>2020-07-13T09:44:50Z</time>
      </trkpt>
      <trkpt lat="39.1934656631" lon="-6.2511903606">
        <ele>420.71</ele>
        <time>2020-07-13T09:44:51Z</time>
      </trkpt>
      <trkpt lat="39.1936146095" lon="-6.2514579110">
        <ele>420.71</ele>
        <time>2020-07-13T09:44:58Z</time>
      </trkpt>
      <trkpt lat="39.1937565990" lon="-6.2517288141">
        <ele>419.75</ele>
        <time>2020-07-13T09:45:05Z</time>
      </trkpt>
      <trkpt lat="39.1937839240" lon="-6.2517693825">
        <ele>419.75</ele>
        <time>2020-07-13T09:45:06Z</time>
      </trkpt>
      <trkpt lat="39.1940836608" lon="-6.2521353364">
        <ele>419.27</ele>
        <time>2020-07-13T09:45:15Z</time>
      </trkpt>
      <trkpt lat="39.1941891890" lon="-6.2522441335">
        <ele>419.27</ele>
        <time>2020-07-13T09:45:18Z</time>
      </trkpt>
      <trkpt lat="39.1943434998" lon="-6.2523438781">
        <ele>419.27</ele>
        <time>2020-07-13T09:45:22Z</time>
      </trkpt>
      <trkpt lat="39.1943826433" lon="-6.2523649167">
        <ele>419.27</ele>
        <time>2020-07-13T09:45:23Z</time>
      </trkpt>
      <trkpt lat="39.1948541254" lon="-6.2525563594">
        <ele>419.27</ele>
        <time>2020-07-13T09:45:33Z</time>
      </trkpt>
      <trkpt lat="39.1951186582" lon="-6.2526659947">
        <ele>419.27</ele>
        <time>2020-07-13T09:45:39Z</time>
      </trkpt>
      <trkpt lat="39.1951578856" lon="-6.2526908889">
        <ele>418.79</ele>
        <time>2020-07-13T09:45:40Z</time>
      </trkpt>
      <trkpt lat="39.1951930895" lon="-6.2527181301">
        <ele>418.79</ele>
        <time>2020-07-13T09:45:41Z</time>
      </trkpt>
      <trkpt lat="39.1952235997" lon="-6.2527490593">
        <ele>418.79</ele>
        <time>2020-07-13T09:45:42Z</time>
      </trkpt>
      <trkpt lat="39.1952545289" lon="-6.2527889572">
        <ele>419.27</ele>
        <time>2020-07-13T09:45:43Z</time>
      </trkpt>
      <trkpt lat="39.1952796746" lon="-6.2528298609">
        <ele>419.27</ele>
        <time>2020-07-13T09:45:44Z</time>
      </trkpt>
      <trkpt lat="39.1953004617" lon="-6.2528733630">
        <ele>419.27</ele>
        <time>2020-07-13T09:45:45Z</time>
      </trkpt>
      <trkpt lat="39.1953196563" lon="-6.2529289350">
        <ele>419.27</ele>
        <time>2020-07-13T09:45:46Z</time>
      </trkpt>
      <trkpt lat="39.1953344923" lon="-6.2529845908">
        <ele>418.79</ele>
        <time>2020-07-13T09:45:47Z</time>
      </trkpt>
      <trkpt lat="39.1953688581" lon="-6.2531017698">
        <ele>418.79</ele>
        <time>2020-07-13T09:45:49Z</time>
      </trkpt>
      <trkpt lat="39.1953966022" lon="-6.2531482894">
        <ele>418.79</ele>
        <time>2020-07-13T09:45:50Z</time>
      </trkpt>
      <trkpt lat="39.1954373382" lon="-6.2531827390">
        <ele>419.27</ele>
        <time>2020-07-13T09:45:51Z</time>
      </trkpt>
      <trkpt lat="39.1954783257" lon="-6.2532026879">
        <ele>419.27</ele>
        <time>2020-07-13T09:45:52Z</time>
      </trkpt>
      <trkpt lat="39.1955188103" lon="-6.2532171886">
        <ele>419.27</ele>
        <time>2020-07-13T09:45:53Z</time>
      </trkpt>
      <trkpt lat="39.1955628153" lon="-6.2532305997">
        <ele>419.27</ele>
        <time>2020-07-13T09:45:54Z</time>
      </trkpt>
      <trkpt lat="39.1958874464" lon="-6.2532905303">
        <ele>419.27</ele>
        <time>2020-07-13T09:46:02Z</time>
      </trkpt>
      <trkpt lat="39.1963937134" lon="-6.2533876766">
        <ele>418.79</ele>
        <time>2020-07-13T09:46:14Z</time>
      </trkpt>
      <trkpt lat="39.1967771016" lon="-6.2534804642">
        <ele>418.79</ele>
        <time>2020-07-13T09:46:24Z</time>
      </trkpt>
      <trkpt lat="39.1970034130" lon="-6.2536128145">
        <ele>419.27</ele>
        <time>2020-07-13T09:46:31Z</time>
      </trkpt>
      <trkpt lat="39.1973376833" lon="-6.2538412213">
        <ele>419.75</ele>
        <time>2020-07-13T09:46:40Z</time>
      </trkpt>
      <trkpt lat="39.1978098359" lon="-6.2542356737">
        <ele>419.75</ele>
        <time>2020-07-13T09:46:52Z</time>
      </trkpt>
      <trkpt lat="39.1979313735" lon="-6.2543780822">
        <ele>419.75</ele>
        <time>2020-07-13T09:46:56Z</time>
      </trkpt>
      <trkpt lat="39.1979613807" lon="-6.2544166390">
        <ele>419.75</ele>
        <time>2020-07-13T09:46:57Z</time>
      </trkpt>
      <trkpt lat="39.1980229877" lon="-6.2544927467">
        <ele>420.23</ele>
        <time>2020-07-13T09:46:59Z</time>
      </trkpt>
      <trkpt lat="39.1982094012" lon="-6.2548923958">
        <ele>420.23</ele>
        <time>2020-07-13T09:47:08Z</time>
      </trkpt>
      <trkpt lat="39.1982285120" lon="-6.2549400888">
        <ele>420.23</ele>
        <time>2020-07-13T09:47:09Z</time>
      </trkpt>
      <trkpt lat="39.1982472874" lon="-6.2549847644">
        <ele>420.23</ele>
        <time>2020-07-13T09:47:10Z</time>
      </trkpt>
      <trkpt lat="39.1983620357" lon="-6.2552964874">
        <ele>420.23</ele>
        <time>2020-07-13T09:47:16Z</time>
      </trkpt>
      <trkpt lat="39.1984400712" lon="-6.2555940449">
        <ele>419.75</ele>
        <time>2020-07-13T09:47:21Z</time>
      </trkpt>
      <trkpt lat="39.1984857526" lon="-6.2561465800">
        <ele>419.27</ele>
        <time>2020-07-13T09:47:30Z</time>
      </trkpt>
      <trkpt lat="39.1984888539" lon="-6.2562060915">
        <ele>419.27</ele>
        <time>2020-07-13T09:47:31Z</time>
      </trkpt>
      <trkpt lat="39.1984750237" lon="-6.2566346582">
        <ele>418.79</ele>
        <time>2020-07-13T09:47:38Z</time>
      </trkpt>
      <trkpt lat="39.1984729283" lon="-6.2566831894">
        <ele>418.79</ele>
        <time>2020-07-13T09:47:39Z</time>
      </trkpt>
      <trkpt lat="39.1984662227" lon="-6.2567205727">
        <ele>418.79</ele>
        <time>2020-07-13T09:47:40Z</time>
      </trkpt>
      <trkpt lat="39.1984630376" lon="-6.2567599677">
        <ele>418.79</ele>
        <time>2020-07-13T09:47:41Z</time>
      </trkpt>
      <trkpt lat="39.1984667256" lon="-6.2567978539">
        <ele>418.79</ele>
        <time>2020-07-13T09:47:42Z</time>
      </trkpt>
      <trkpt lat="39.1984720901" lon="-6.2568389252">
        <ele>418.79</ele>
        <time>2020-07-13T09:47:43Z</time>
      </trkpt>
      <trkpt lat="39.1984783765" lon="-6.2568797451">
        <ele>418.79</ele>
        <time>2020-07-13T09:47:44Z</time>
      </trkpt>
      <trkpt lat="39.1985304281" lon="-6.2572234031">
        <ele>418.31</ele>
        <time>2020-07-13T09:47:52Z</time>
      </trkpt>
      <trkpt lat="39.1985917836" lon="-6.2575343717">
        <ele>418.31</ele>
        <time>2020-07-13T09:47:59Z</time>
      </trkpt>
      <trkpt lat="39.1987171769" lon="-6.2580996472">
        <ele>418.31</ele>
        <time>2020-07-13T09:48:11Z</time>
      </trkpt>
      <trkpt lat="39.1988456715" lon="-6.2585971132">
        <ele>418.79</ele>
        <time>2020-07-13T09:48:21Z</time>
      </trkpt>
      <trkpt lat="39.1988843121" lon="-6.2587477360">
        <ele>418.79</ele>
        <time>2020-07-13T09:48:24Z</time>
      </trkpt>
      <trkpt lat="39.1989566479" lon="-6.2589934096">
        <ele>419.27</ele>
        <time>2020-07-13T09:48:29Z</time>
      </trkpt>
      <trkpt lat="39.1989724059" lon="-6.2590383366">
        <ele>419.27</ele>
        <time>2020-07-13T09:48:30Z</time>
      </trkpt>
      <trkpt lat="39.1989890020" lon="-6.2590855267">
        <ele>419.75</ele>
        <time>2020-07-13T09:48:31Z</time>
      </trkpt>
      <trkpt lat="39.1991473362" lon="-6.2594040390">
        <ele>420.23</ele>
        <time>2020-07-13T09:48:38Z</time>
      </trkpt>
      <trkpt lat="39.1991747450" lon="-6.2594434340">
        <ele>420.23</ele>
        <time>2020-07-13T09:48:39Z</time>
      </trkpt>
      <trkpt lat="39.1995201632" lon="-6.2598684803">
        <ele>420.23</ele>
        <time>2020-07-13T09:48:49Z</time>
      </trkpt>
      <trkpt lat="39.1997822654" lon="-6.2600931153">
        <ele>419.75</ele>
        <time>2020-07-13T09:48:55Z</time>
      </trkpt>
      <trkpt lat="39.1999592911" lon="-6.2602967955">
        <ele>419.75</ele>
        <time>2020-07-13T09:49:00Z</time>
      </trkpt>
      <trkpt lat="39.1999858618" lon="-6.2603371125">
        <ele>419.75</ele>
        <time>2020-07-13T09:49:01Z</time>
      </trkpt>
      <trkpt lat="39.2002830002" lon="-6.2607074250">
        <ele>418.79</ele>
        <time>2020-07-13T09:49:10Z</time>
      </trkpt>
      <trkpt lat="39.2005321104" lon="-6.2609639112">
        <ele>417.83</ele>
        <time>2020-07-13T09:49:18Z</time>
      </trkpt>
      <trkpt lat="39.2005675659" lon="-6.2609976903">
        <ele>417.83</ele>
        <time>2020-07-13T09:49:19Z</time>
      </trkpt>
      <trkpt lat="39.2005998362" lon="-6.2610282004">
        <ele>417.83</ele>
        <time>2020-07-13T09:49:20Z</time>
      </trkpt>
      <trkpt lat="39.2009493615" lon="-6.2613652367">
        <ele>418.79</ele>
        <time>2020-07-13T09:49:30Z</time>
      </trkpt>
      <trkpt lat="39.2013598233" lon="-6.2617071345">
        <ele>417.83</ele>
        <time>2020-07-13T09:49:40Z</time>
      </trkpt>
      <trkpt lat="39.2013983801" lon="-6.2617382314">
        <ele>417.83</ele>
        <time>2020-07-13T09:49:41Z</time>
      </trkpt>
      <trkpt lat="39.2016414553" lon="-6.2619095575">
        <ele>418.31</ele>
        <time>2020-07-13T09:49:48Z</time>
      </trkpt>
      <trkpt lat="39.2016753182" lon="-6.2619338650">
        <ele>418.31</ele>
        <time>2020-07-13T09:49:49Z</time>
      </trkpt>
      <trkpt lat="39.2017106060" lon="-6.2619554065">
        <ele>418.31</ele>
        <time>2020-07-13T09:49:50Z</time>
      </trkpt>
      <trkpt lat="39.2017397750" lon="-6.2619723380">
        <ele>418.31</ele>
        <time>2020-07-13T09:49:51Z</time>
      </trkpt>
      <trkpt lat="39.2017691955" lon="-6.2619907781">
        <ele>418.31</ele>
        <time>2020-07-13T09:49:52Z</time>
      </trkpt>
      <trkpt lat="39.2020466365" lon="-6.2622055225">
        <ele>418.79</ele>
        <time>2020-07-13T09:50:02Z</time>
      </trkpt>
      <trkpt lat="39.2022805754" lon="-6.2623860687">
        <ele>419.27</ele>
        <time>2020-07-13T09:50:10Z</time>
      </trkpt>
      <trkpt lat="39.2025105748" lon="-6.2625450734">
        <ele>419.75</ele>
        <time>2020-07-13T09:50:17Z</time>
      </trkpt>
      <trkpt lat="39.2028031871" lon="-6.2627514359">
        <ele>419.75</ele>
        <time>2020-07-13T09:50:26Z</time>
      </trkpt>
      <trkpt lat="39.2030072026" lon="-6.2630100176">
        <ele>419.75</ele>
        <time>2020-07-13T09:50:34Z</time>
      </trkpt>
      <trkpt lat="39.2033418082" lon="-6.2633903883">
        <ele>416.87</ele>
        <time>2020-07-13T09:50:44Z</time>
      </trkpt>
      <trkpt lat="39.2034469172" lon="-6.2635125965">
        <ele>416.87</ele>
        <time>2020-07-13T09:50:47Z</time>
      </trkpt>
      <trkpt lat="39.2034744937" lon="-6.2635581940">
        <ele>416.39</ele>
        <time>2020-07-13T09:50:48Z</time>
      </trkpt>
      <trkpt lat="39.2037547845" lon="-6.2640789617">
        <ele>415.43</ele>
        <time>2020-07-13T09:50:58Z</time>
      </trkpt>
      <trkpt lat="39.2039797548" lon="-6.2645488512">
        <ele>413.98</ele>
        <time>2020-07-13T09:51:06Z</time>
      </trkpt>
      <trkpt lat="39.2039985303" lon="-6.2646141462">
        <ele>413.50</ele>
        <time>2020-07-13T09:51:07Z</time>
      </trkpt>
      <trkpt lat="39.2040138692" lon="-6.2646780163">
        <ele>413.50</ele>
        <time>2020-07-13T09:51:08Z</time>
      </trkpt>
      <trkpt lat="39.2040509172" lon="-6.2648146413">
        <ele>413.02</ele>
        <time>2020-07-13T09:51:11Z</time>
      </trkpt>
      <trkpt lat="39.2040670104" lon="-6.2648235261">
        <ele>413.02</ele>
        <time>2020-07-13T09:51:16Z</time>
      </trkpt>
      <trkpt lat="39.2040682677" lon="-6.2648267113">
        <ele>413.02</ele>
        <time>2020-07-13T09:51:24Z</time>
      </trkpt>
      <trkpt lat="39.2040680163" lon="-6.2648296449">
        <ele>412.06</ele>
        <time>2020-07-13T09:51:44Z</time>
      </trkpt>
      <trkpt lat="39.2040685192" lon="-6.2648371048">
        <ele>412.54</ele>
        <time>2020-07-13T09:52:08Z</time>
      </trkpt>
      <trkpt lat="39.2040694412" lon="-6.2648319919">
        <ele>412.06</ele>
        <time>2020-07-13T09:52:31Z</time>
      </trkpt>
      <trkpt lat="39.2040659208" lon="-6.2648337521">
        <ele>411.58</ele>
        <time>2020-07-13T09:52:51Z</time>
      </trkpt>
      <trkpt lat="39.2040645797" lon="-6.2648278847">
        <ele>412.06</ele>
        <time>2020-07-13T09:53:05Z</time>
      </trkpt>
      <trkpt lat="39.2040454689" lon="-6.2648350094">
        <ele>412.54</ele>
        <time>2020-07-13T09:53:17Z</time>
      </trkpt>
      <trkpt lat="39.2040359974" lon="-6.2648281362">
        <ele>412.54</ele>
        <time>2020-07-13T09:53:18Z</time>
      </trkpt>
      <trkpt lat="39.2040266097" lon="-6.2648150604">
        <ele>413.02</ele>
        <time>2020-07-13T09:53:19Z</time>
      </trkpt>
      <trkpt lat="39.2040185630" lon="-6.2647987157">
        <ele>413.02</ele>
        <time>2020-07-13T09:53:20Z</time>
      </trkpt>
      <trkpt lat="39.2040152941" lon="-6.2647882383">
        <ele>413.02</ele>
        <time>2020-07-13T09:53:21Z</time>
      </trkpt>
      <trkpt lat="39.2040110193" lon="-6.2647742406">
        <ele>413.50</ele>
        <time>2020-07-13T09:53:22Z</time>
      </trkpt>
      <trkpt lat="39.2040072475" lon="-6.2647575606">
        <ele>413.50</ele>
        <time>2020-07-13T09:53:23Z</time>
      </trkpt>
      <trkpt lat="39.2040043976" lon="-6.2647434790">
        <ele>413.50</ele>
        <time>2020-07-13T09:53:24Z</time>
      </trkpt>
      <trkpt lat="39.2040086724" lon="-6.2647354323">
        <ele>413.98</ele>
        <time>2020-07-13T09:53:29Z</time>
      </trkpt>
      <trkpt lat="39.2040111870" lon="-6.2647421379">
        <ele>413.50</ele>
        <time>2020-07-13T09:53:35Z</time>
      </trkpt>
      <trkpt lat="39.2040142883" lon="-6.2647592369">
        <ele>413.50</ele>
        <time>2020-07-13T09:53:36Z</time>
      </trkpt>
      <trkpt lat="39.2040797509" lon="-6.2649265397">
        <ele>413.02</ele>
        <time>2020-07-13T09:53:41Z</time>
      </trkpt>
      <trkpt lat="39.2043336388" lon="-6.2652875483">
        <ele>412.54</ele>
        <time>2020-07-13T09:53:49Z</time>
      </trkpt>
      <trkpt lat="39.2043618020" lon="-6.2653245125">
        <ele>412.06</ele>
        <time>2020-07-13T09:53:51Z</time>
      </trkpt>
      <trkpt lat="39.2043689266" lon="-6.2653199863">
        <ele>412.54</ele>
        <time>2020-07-13T09:53:52Z</time>
      </trkpt>
      <trkpt lat="39.2043535877" lon="-6.2652874645">
        <ele>412.54</ele>
        <time>2020-07-13T09:53:55Z</time>
      </trkpt>
      <trkpt lat="39.2042467184" lon="-6.2651821878">
        <ele>413.02</ele>
        <time>2020-07-13T09:54:01Z</time>
      </trkpt>
      <trkpt lat="39.2040560301" lon="-6.2648961134">
        <ele>414.47</ele>
        <time>2020-07-13T09:54:09Z</time>
      </trkpt>
      <trkpt lat="39.2040597182" lon="-6.2648721412">
        <ele>414.47</ele>
        <time>2020-07-13T09:54:10Z</time>
      </trkpt>
      <trkpt lat="39.2040714528" lon="-6.2648600712">
        <ele>414.47</ele>
        <time>2020-07-13T09:54:11Z</time>
      </trkpt>
      <trkpt lat="39.2040842772" lon="-6.2648608256">
        <ele>414.47</ele>
        <time>2020-07-13T09:54:17Z</time>
      </trkpt>
      <trkpt lat="39.2040758952" lon="-6.2648723926">
        <ele>414.47</ele>
        <time>2020-07-13T09:54:29Z</time>
      </trkpt>
      <trkpt lat="39.2040708661" lon="-6.2648937665">
        <ele>414.47</ele>
        <time>2020-07-13T09:54:31Z</time>
      </trkpt>
      <trkpt lat="39.2040769011" lon="-6.2649138831">
        <ele>414.47</ele>
        <time>2020-07-13T09:54:32Z</time>
      </trkpt>
      <trkpt lat="39.2041740473" lon="-6.2650593091">
        <ele>413.98</ele>
        <time>2020-07-13T09:54:37Z</time>
      </trkpt>
      <trkpt lat="39.2044582777" lon="-6.2654349860">
        <ele>412.54</ele>
        <time>2020-07-13T09:54:45Z</time>
      </trkpt>
      <trkpt lat="39.2047386523" lon="-6.2659283448">
        <ele>411.10</ele>
        <time>2020-07-13T09:54:54Z</time>
      </trkpt>
      <trkpt lat="39.2047593556" lon="-6.2659917958">
        <ele>411.10</ele>
        <time>2020-07-13T09:54:55Z</time>
      </trkpt>
      <trkpt lat="39.2048891075" lon="-6.2667181715">
        <ele>410.14</ele>
        <time>2020-07-13T09:55:05Z</time>
      </trkpt>
      <trkpt lat="39.2049837392" lon="-6.2671840377">
        <ele>409.18</ele>
        <time>2020-07-13T09:55:12Z</time>
      </trkpt>
      <trkpt lat="39.2050291691" lon="-6.2674024701">
        <ele>409.66</ele>
        <time>2020-07-13T09:55:17Z</time>
      </trkpt>
      <trkpt lat="39.2051308416" lon="-6.2675636541">
        <ele>410.14</ele>
        <time>2020-07-13T09:55:22Z</time>
      </trkpt>
      <trkpt lat="39.2052574083" lon="-6.2677332200">
        <ele>411.10</ele>
        <time>2020-07-13T09:55:29Z</time>
      </trkpt>
      <trkpt lat="39.2055221088" lon="-6.2680140976">
        <ele>411.58</ele>
        <time>2020-07-13T09:55:40Z</time>
      </trkpt>
      <trkpt lat="39.2057365179" lon="-6.2681931350">
        <ele>412.06</ele>
        <time>2020-07-13T09:55:49Z</time>
      </trkpt>
      <trkpt lat="39.2059179023" lon="-6.2683988269">
        <ele>413.02</ele>
        <time>2020-07-13T09:55:59Z</time>
      </trkpt>
      <trkpt lat="39.2060329020" lon="-6.2686016690">
        <ele>413.98</ele>
        <time>2020-07-13T09:56:07Z</time>
      </trkpt>
      <trkpt lat="39.2061473150" lon="-6.2688405532">
        <ele>414.95</ele>
        <time>2020-07-13T09:56:15Z</time>
      </trkpt>
      <trkpt lat="39.2063017096" lon="-6.2691226043">
        <ele>414.95</ele>
        <time>2020-07-13T09:56:24Z</time>
      </trkpt>
      <trkpt lat="39.2063831817" lon="-6.2693336606">
        <ele>414.47</ele>
        <time>2020-07-13T09:56:31Z</time>
      </trkpt>
      <trkpt lat="39.2064929008" lon="-6.2696283683">
        <ele>413.98</ele>
        <time>2020-07-13T09:56:39Z</time>
      </trkpt>
      <trkpt lat="39.2066366505" lon="-6.2698060647">
        <ele>414.47</ele>
        <time>2020-07-13T09:56:45Z</time>
      </trkpt>
      <trkpt lat="39.2069109064" lon="-6.2700266764">
        <ele>414.47</ele>
        <time>2020-07-13T09:56:54Z</time>
      </trkpt>
      <trkpt lat="39.2070972361" lon="-6.2702088989">
        <ele>414.95</ele>
        <time>2020-07-13T09:57:01Z</time>
      </trkpt>
      <trkpt lat="39.2072891816" lon="-6.2704865914">
        <ele>415.43</ele>
        <time>2020-07-13T09:57:10Z</time>
      </trkpt>
      <trkpt lat="39.2074149102" lon="-6.2707504537">
        <ele>414.95</ele>
        <time>2020-07-13T09:57:17Z</time>
      </trkpt>
      <trkpt lat="39.2075460870" lon="-6.2710340973">
        <ele>414.47</ele>
        <time>2020-07-13T09:57:25Z</time>
      </trkpt>
      <trkpt lat="39.2076706421" lon="-6.2713362649">
        <ele>413.50</ele>
        <time>2020-07-13T09:57:32Z</time>
      </trkpt>
      <trkpt lat="39.2077944428" lon="-6.2716183998">
        <ele>413.02</ele>
        <time>2020-07-13T09:57:39Z</time>
      </trkpt>
      <trkpt lat="39.2079005577" lon="-6.2718019634">
        <ele>412.54</ele>
        <time>2020-07-13T09:57:46Z</time>
      </trkpt>
      <trkpt lat="39.2080386076" lon="-6.2719689310">
        <ele>413.50</ele>
        <time>2020-07-13T09:57:52Z</time>
      </trkpt>
      <trkpt lat="39.2082748935" lon="-6.2722317036">
        <ele>413.98</ele>
        <time>2020-07-13T09:58:01Z</time>
      </trkpt>
      <trkpt lat="39.2084910627" lon="-6.2724587694">
        <ele>413.98</ele>
        <time>2020-07-13T09:58:10Z</time>
      </trkpt>
      <trkpt lat="39.2086219881" lon="-6.2726159301">
        <ele>413.98</ele>
        <time>2020-07-13T09:58:17Z</time>
      </trkpt>
      <trkpt lat="39.2087294441" lon="-6.2727623619">
        <ele>413.50</ele>
        <time>2020-07-13T09:58:24Z</time>
      </trkpt>
      <trkpt lat="39.2089775484" lon="-6.2730562314">
        <ele>413.98</ele>
        <time>2020-07-13T09:58:34Z</time>
      </trkpt>
      <trkpt lat="39.2091969028" lon="-6.2733240332">
        <ele>414.47</ele>
        <time>2020-07-13T09:58:43Z</time>
      </trkpt>
      <trkpt lat="39.2093925364" lon="-6.2735505961">
        <ele>414.47</ele>
        <time>2020-07-13T09:58:52Z</time>
      </trkpt>
      <trkpt lat="39.2095268145" lon="-6.2737272028">
        <ele>413.98</ele>
        <time>2020-07-13T09:58:59Z</time>
      </trkpt>
      <trkpt lat="39.2097116355" lon="-6.2739547715">
        <ele>413.98</ele>
        <time>2020-07-13T09:59:08Z</time>
      </trkpt>
      <trkpt lat="39.2099122144" lon="-6.2742148619">
        <ele>413.50</ele>
        <time>2020-07-13T09:59:17Z</time>
      </trkpt>
      <trkpt lat="39.2101302277" lon="-6.2744465377">
        <ele>413.50</ele>
        <time>2020-07-13T09:59:26Z</time>
      </trkpt>
      <trkpt lat="39.2102907412" lon="-6.2746358849">
        <ele>413.50</ele>
        <time>2020-07-13T09:59:33Z</time>
      </trkpt>
      <trkpt lat="39.2104562838" lon="-6.2748243939">
        <ele>413.98</ele>
        <time>2020-07-13T09:59:40Z</time>
      </trkpt>
      <trkpt lat="39.2106555216" lon="-6.2750504538">
        <ele>413.50</ele>
        <time>2020-07-13T09:59:49Z</time>
      </trkpt>
      <trkpt lat="39.2108339723" lon="-6.2752682157">
        <ele>413.02</ele>
        <time>2020-07-13T09:59:57Z</time>
      </trkpt>
      <trkpt lat="39.2110651452" lon="-6.2755480874">
        <ele>413.50</ele>
        <time>2020-07-13T10:00:07Z</time>
      </trkpt>
      <trkpt lat="39.2113067955" lon="-6.2758267019">
        <ele>413.98</ele>
        <time>2020-07-13T10:00:18Z</time>
      </trkpt>
      <trkpt lat="39.2114596814" lon="-6.2759921607">
        <ele>413.98</ele>
        <time>2020-07-13T10:00:26Z</time>
      </trkpt>
      <trkpt lat="39.2116117291" lon="-6.2761974335">
        <ele>413.50</ele>
        <time>2020-07-13T10:00:33Z</time>
      </trkpt>
      <trkpt lat="39.2117611784" lon="-6.2763403449">
        <ele>413.50</ele>
        <time>2020-07-13T10:00:39Z</time>
      </trkpt>
      <trkpt lat="39.2119694687" lon="-6.2765848450">
        <ele>413.02</ele>
        <time>2020-07-13T10:00:47Z</time>
      </trkpt>
      <trkpt lat="39.2122008093" lon="-6.2768394034">
        <ele>412.06</ele>
        <time>2020-07-13T10:00:55Z</time>
      </trkpt>
      <trkpt lat="39.2124306411" lon="-6.2771015894">
        <ele>411.58</ele>
        <time>2020-07-13T10:01:04Z</time>
      </trkpt>
      <trkpt lat="39.2127356585" lon="-6.2774362788">
        <ele>411.58</ele>
        <time>2020-07-13T10:01:15Z</time>
      </trkpt>
      <trkpt lat="39.2129216529" lon="-6.2776626740">
        <ele>411.58</ele>
        <time>2020-07-13T10:01:23Z</time>
      </trkpt>
      <trkpt lat="39.2131450307" lon="-6.2779143825">
        <ele>411.10</ele>
        <time>2020-07-13T10:01:32Z</time>
      </trkpt>
      <trkpt lat="39.2133333720" lon="-6.2781284563">
        <ele>411.58</ele>
        <time>2020-07-13T10:01:40Z</time>
      </trkpt>
      <trkpt lat="39.2135375552" lon="-6.2783651613">
        <ele>411.58</ele>
        <time>2020-07-13T10:01:48Z</time>
      </trkpt>
      <trkpt lat="39.2138020042" lon="-6.2786718551">
        <ele>410.62</ele>
        <time>2020-07-13T10:01:57Z</time>
      </trkpt>
      <trkpt lat="39.2139964644" lon="-6.2788960710">
        <ele>410.14</ele>
        <time>2020-07-13T10:02:03Z</time>
      </trkpt>
      <trkpt lat="39.2142105382" lon="-6.2791399844">
        <ele>409.66</ele>
        <time>2020-07-13T10:02:11Z</time>
      </trkpt>
      <trkpt lat="39.2143890727" lon="-6.2792060338">
        <ele>409.66</ele>
        <time>2020-07-13T10:02:18Z</time>
      </trkpt>
      <trkpt lat="39.2145229317" lon="-6.2792066205">
        <ele>410.14</ele>
        <time>2020-07-13T10:02:24Z</time>
      </trkpt>
      <trkpt lat="39.2147360835" lon="-6.2792168465">
        <ele>410.14</ele>
        <time>2020-07-13T10:02:31Z</time>
      </trkpt>
      <trkpt lat="39.2149332259" lon="-6.2792211212">
        <ele>410.62</ele>
        <time>2020-07-13T10:02:38Z</time>
      </trkpt>
      <trkpt lat="39.2151222378" lon="-6.2792381365">
        <ele>411.10</ele>
        <time>2020-07-13T10:02:44Z</time>
      </trkpt>
      <trkpt lat="39.2153617926" lon="-6.2792414892">
        <ele>410.62</ele>
        <time>2020-07-13T10:02:51Z</time>
      </trkpt>
      <trkpt lat="39.2156274989" lon="-6.2792826444">
        <ele>411.10</ele>
        <time>2020-07-13T10:02:58Z</time>
      </trkpt>
      <trkpt lat="39.2158795428" lon="-6.2793745100">
        <ele>410.62</ele>
        <time>2020-07-13T10:03:05Z</time>
      </trkpt>
      <trkpt lat="39.2162064370" lon="-6.2794194371">
        <ele>410.62</ele>
        <time>2020-07-13T10:03:14Z</time>
      </trkpt>
      <trkpt lat="39.2164114583" lon="-6.2795331795">
        <ele>410.62</ele>
        <time>2020-07-13T10:03:21Z</time>
      </trkpt>
      <trkpt lat="39.2165670265" lon="-6.2796132267">
        <ele>410.62</ele>
        <time>2020-07-13T10:03:27Z</time>
      </trkpt>
      <trkpt lat="39.2167307250" lon="-6.2796850596">
        <ele>410.62</ele>
        <time>2020-07-13T10:03:34Z</time>
      </trkpt>
      <trkpt lat="39.2169446312" lon="-6.2797837984">
        <ele>411.10</ele>
        <time>2020-07-13T10:03:43Z</time>
      </trkpt>
      <trkpt lat="39.2171545140" lon="-6.2798362691">
        <ele>411.10</ele>
        <time>2020-07-13T10:03:50Z</time>
      </trkpt>
      <trkpt lat="39.2174336314" lon="-6.2798178289">
        <ele>410.62</ele>
        <time>2020-07-13T10:03:58Z</time>
      </trkpt>
      <trkpt lat="39.2177614477" lon="-6.2799246982">
        <ele>410.62</ele>
        <time>2020-07-13T10:04:08Z</time>
      </trkpt>
      <trkpt lat="39.2180385534" lon="-6.2800012249">
        <ele>410.62</ele>
        <time>2020-07-13T10:04:16Z</time>
      </trkpt>
      <trkpt lat="39.2182227038" lon="-6.2800250296">
        <ele>410.62</ele>
        <time>2020-07-13T10:04:22Z</time>
      </trkpt>
      <trkpt lat="39.2185530346" lon="-6.2800847087">
        <ele>410.14</ele>
        <time>2020-07-13T10:04:31Z</time>
      </trkpt>
      <trkpt lat="39.2187967803" lon="-6.2801388558">
        <ele>410.14</ele>
        <time>2020-07-13T10:04:38Z</time>
      </trkpt>
      <trkpt lat="39.2190042324" lon="-6.2802867126">
        <ele>410.14</ele>
        <time>2020-07-13T10:04:46Z</time>
      </trkpt>
      <trkpt lat="39.2192184739" lon="-6.2803432904">
        <ele>410.14</ele>
        <time>2020-07-13T10:04:52Z</time>
      </trkpt>
      <trkpt lat="39.2193662468" lon="-6.2804830167">
        <ele>410.14</ele>
        <time>2020-07-13T10:04:59Z</time>
      </trkpt>
      <trkpt lat="39.2193882912" lon="-6.2804867048">
        <ele>410.14</ele>
        <time>2020-07-13T10:05:00Z</time>
      </trkpt>
      <trkpt lat="39.2194158677" lon="-6.2804883812">
        <ele>410.14</ele>
        <time>2020-07-13T10:05:01Z</time>
      </trkpt>
      <trkpt lat="39.2194441147" lon="-6.2804950867">
        <ele>410.14</ele>
        <time>2020-07-13T10:05:02Z</time>
      </trkpt>
      <trkpt lat="39.2194742896" lon="-6.2805071566">
        <ele>410.14</ele>
        <time>2020-07-13T10:05:03Z</time>
      </trkpt>
      <trkpt lat="39.2195011117" lon="-6.2805204000">
        <ele>410.14</ele>
        <time>2020-07-13T10:05:04Z</time>
      </trkpt>
      <trkpt lat="39.2196747009" lon="-6.2806586176">
        <ele>409.66</ele>
        <time>2020-07-13T10:05:11Z</time>
      </trkpt>
      <trkpt lat="39.2198231444" lon="-6.2806876190">
        <ele>410.14</ele>
        <time>2020-07-13T10:05:17Z</time>
      </trkpt>
      <trkpt lat="39.2199780419" lon="-6.2807173748">
        <ele>410.14</ele>
        <time>2020-07-13T10:05:23Z</time>
      </trkpt>
      <trkpt lat="39.2200284172" lon="-6.2807473820">
        <ele>410.14</ele>
        <time>2020-07-13T10:05:25Z</time>
      </trkpt>
      <trkpt lat="39.2200481147" lon="-6.2807692587">
        <ele>410.14</ele>
        <time>2020-07-13T10:05:26Z</time>
      </trkpt>
      <trkpt lat="39.2202854902" lon="-6.2809399981">
        <ele>409.66</ele>
        <time>2020-07-13T10:05:36Z</time>
      </trkpt>
      <trkpt lat="39.2204756755" lon="-6.2810230628">
        <ele>409.18</ele>
        <time>2020-07-13T10:05:42Z</time>
      </trkpt>
      <trkpt lat="39.2207265459" lon="-6.2811940536">
        <ele>409.18</ele>
        <time>2020-07-13T10:05:50Z</time>
      </trkpt>
      <trkpt lat="39.2209097743" lon="-6.2812404055">
        <ele>409.66</ele>
        <time>2020-07-13T10:05:56Z</time>
      </trkpt>
      <trkpt lat="39.2211942561" lon="-6.2813362107">
        <ele>409.66</ele>
        <time>2020-07-13T10:06:05Z</time>
      </trkpt>
      <trkpt lat="39.2215165403" lon="-6.2813830655">
        <ele>410.14</ele>
        <time>2020-07-13T10:06:15Z</time>
      </trkpt>
      <trkpt lat="39.2217884492" lon="-6.2814352009">
        <ele>411.10</ele>
        <time>2020-07-13T10:06:23Z</time>
      </trkpt>
      <trkpt lat="39.2221425846" lon="-6.2815325987">
        <ele>411.10</ele>
        <time>2020-07-13T10:06:33Z</time>
      </trkpt>
      <trkpt lat="39.2223594245" lon="-6.2815583311">
        <ele>411.10</ele>
        <time>2020-07-13T10:06:41Z</time>
      </trkpt>
      <trkpt lat="39.2226218618" lon="-6.2816077005">
        <ele>411.10</ele>
        <time>2020-07-13T10:06:50Z</time>
      </trkpt>
      <trkpt lat="39.2228790186" lon="-6.2816652842">
        <ele>411.10</ele>
        <time>2020-07-13T10:06:59Z</time>
      </trkpt>
      <trkpt lat="39.2230929248" lon="-6.2817658670">
        <ele>411.10</ele>
        <time>2020-07-13T10:07:06Z</time>
      </trkpt>
      <trkpt lat="39.2234512512" lon="-6.2819615845">
        <ele>409.18</ele>
        <time>2020-07-13T10:07:17Z</time>
      </trkpt>
      <trkpt lat="39.2237284407" lon="-6.2820850499">
        <ele>409.18</ele>
        <time>2020-07-13T10:07:25Z</time>
      </trkpt>
      <trkpt lat="39.2239814065" lon="-6.2822526880">
        <ele>408.22</ele>
        <time>2020-07-13T10:07:33Z</time>
      </trkpt>
      <trkpt lat="39.2241684068" lon="-6.2824214995">
        <ele>407.74</ele>
        <time>2020-07-13T10:07:40Z</time>
      </trkpt>
      <trkpt lat="39.2243523058" lon="-6.2825453002">
        <ele>407.26</ele>
        <time>2020-07-13T10:07:47Z</time>
      </trkpt>
      <trkpt lat="39.2245849036" lon="-6.2827263493">
        <ele>406.77</ele>
        <time>2020-07-13T10:07:55Z</time>
      </trkpt>
      <trkpt lat="39.2247437406" lon="-6.2828664109">
        <ele>406.29</ele>
        <time>2020-07-13T10:08:02Z</time>
      </trkpt>
      <trkpt lat="39.2249765061" lon="-6.2830769643">
        <ele>406.29</ele>
        <time>2020-07-13T10:08:11Z</time>
      </trkpt>
      <trkpt lat="39.2250423878" lon="-6.2831398286">
        <ele>405.81</ele>
        <time>2020-07-13T10:08:13Z</time>
      </trkpt>
      <trkpt lat="39.2250748258" lon="-6.2831741106">
        <ele>405.81</ele>
        <time>2020-07-13T10:08:14Z</time>
      </trkpt>
      <trkpt lat="39.2254214175" lon="-6.2834733445">
        <ele>404.37</ele>
        <time>2020-07-13T10:08:23Z</time>
      </trkpt>
      <trkpt lat="39.2257090006" lon="-6.2837248016">
        <ele>403.89</ele>
        <time>2020-07-13T10:08:30Z</time>
      </trkpt>
      <trkpt lat="39.2260000203" lon="-6.2840207666">
        <ele>402.93</ele>
        <time>2020-07-13T10:08:37Z</time>
      </trkpt>
      <trkpt lat="39.2260323744" lon="-6.2840665318">
        <ele>402.93</ele>
        <time>2020-07-13T10:08:38Z</time>
      </trkpt>
      <trkpt lat="39.2261416744" lon="-6.2841797713">
        <ele>402.45</ele>
        <time>2020-07-13T10:08:42Z</time>
      </trkpt>
      <trkpt lat="39.2261659820" lon="-6.2841701321">
        <ele>402.45</ele>
        <time>2020-07-13T10:08:43Z</time>
      </trkpt>
      <trkpt lat="39.2261826620" lon="-6.2841589842">
        <ele>402.45</ele>
        <time>2020-07-13T10:08:44Z</time>
      </trkpt>
      <trkpt lat="39.2263913713" lon="-6.2840846367">
        <ele>402.45</ele>
        <time>2020-07-13T10:08:52Z</time>
      </trkpt>
      <trkpt lat="39.2265895195" lon="-6.2841800228">
        <ele>402.45</ele>
        <time>2020-07-13T10:08:59Z</time>
      </trkpt>
      <trkpt lat="39.2267849855" lon="-6.2843048293">
        <ele>401.97</ele>
        <time>2020-07-13T10:09:07Z</time>
      </trkpt>
      <trkpt lat="39.2269561440" lon="-6.2843917497">
        <ele>401.97</ele>
        <time>2020-07-13T10:09:15Z</time>
      </trkpt>
      <trkpt lat="39.2271951959" lon="-6.2845240161">
        <ele>401.97</ele>
        <time>2020-07-13T10:09:24Z</time>
      </trkpt>
      <trkpt lat="39.2274356727" lon="-6.2846541032">
        <ele>401.49</ele>
        <time>2020-07-13T10:09:32Z</time>
      </trkpt>
      <trkpt lat="39.2277042288" lon="-6.2848204002">
        <ele>401.49</ele>
        <time>2020-07-13T10:09:41Z</time>
      </trkpt>
      <trkpt lat="39.2279538419" lon="-6.2849709392">
        <ele>401.49</ele>
        <time>2020-07-13T10:09:49Z</time>
      </trkpt>
      <trkpt lat="39.2282350548" lon="-6.2851461209">
        <ele>401.49</ele>
        <time>2020-07-13T10:09:59Z</time>
      </trkpt>
      <trkpt lat="39.2284089793" lon="-6.2852484640">
        <ele>401.01</ele>
        <time>2020-07-13T10:10:06Z</time>
      </trkpt>
      <trkpt lat="39.2285787966" lon="-6.2853680737">
        <ele>401.49</ele>
        <time>2020-07-13T10:10:13Z</time>
      </trkpt>
      <trkpt lat="39.2287547328" lon="-6.2854736019">
        <ele>401.49</ele>
        <time>2020-07-13T10:10:20Z</time>
      </trkpt>
      <trkpt lat="39.2290747538" lon="-6.2856589258">
        <ele>401.97</ele>
        <time>2020-07-13T10:10:31Z</time>
      </trkpt>
      <trkpt lat="39.2292428110" lon="-6.2858263124">
        <ele>400.53</ele>
        <time>2020-07-13T10:10:38Z</time>
      </trkpt>
      <trkpt lat="39.2294562981" lon="-6.2860415597">
        <ele>400.53</ele>
        <time>2020-07-13T10:10:47Z</time>
      </trkpt>
      <trkpt lat="39.2296482436" lon="-6.2862427253">
        <ele>400.53</ele>
        <time>2020-07-13T10:10:56Z</time>
      </trkpt>
      <trkpt lat="39.2298593000" lon="-6.2864571344">
        <ele>401.01</ele>
        <time>2020-07-13T10:11:05Z</time>
      </trkpt>
      <trkpt lat="39.2300110962" lon="-6.2865891494">
        <ele>401.49</ele>
        <time>2020-07-13T10:11:12Z</time>
      </trkpt>
      <trkpt lat="39.2302513216" lon="-6.2868060730">
        <ele>401.97</ele>
        <time>2020-07-13T10:11:22Z</time>
      </trkpt>
      <trkpt lat="39.2304890323" lon="-6.2870260980">
        <ele>401.97</ele>
        <time>2020-07-13T10:11:32Z</time>
      </trkpt>
      <trkpt lat="39.2307054531" lon="-6.2872440275">
        <ele>402.45</ele>
        <time>2020-07-13T10:11:43Z</time>
      </trkpt>
      <trkpt lat="39.2308503762" lon="-6.2873640563">
        <ele>401.97</ele>
        <time>2020-07-13T10:11:49Z</time>
      </trkpt>
      <trkpt lat="39.2310160026" lon="-6.2874474563">
        <ele>401.01</ele>
        <time>2020-07-13T10:11:55Z</time>
      </trkpt>
      <trkpt lat="39.2310258932" lon="-6.2874549162">
        <ele>401.01</ele>
        <time>2020-07-13T10:12:00Z</time>
      </trkpt>
      <trkpt lat="39.2310776096" lon="-6.2874838337">
        <ele>401.01</ele>
        <time>2020-07-13T10:12:08Z</time>
      </trkpt>
      <trkpt lat="39.2312122229" lon="-6.2875661440">
        <ele>401.49</ele>
        <time>2020-07-13T10:12:15Z</time>
      </trkpt>
      <trkpt lat="39.2313675396" lon="-6.2876553275">
        <ele>400.53</ele>
        <time>2020-07-13T10:12:23Z</time>
      </trkpt>
      <trkpt lat="39.2315164860" lon="-6.2877367996">
        <ele>400.05</ele>
        <time>2020-07-13T10:12:30Z</time>
      </trkpt>
      <trkpt lat="39.2316701263" lon="-6.2878331915">
        <ele>400.05</ele>
        <time>2020-07-13T10:12:39Z</time>
      </trkpt>
      <trkpt lat="39.2316922545" lon="-6.2878372148">
        <ele>400.05</ele>
        <time>2020-07-13T10:12:45Z</time>
      </trkpt>
      <trkpt lat="39.2317396961" lon="-6.2878619414">
        <ele>399.57</ele>
        <time>2020-07-13T10:12:55Z</time>
      </trkpt>
      <trkpt lat="39.2318736389" lon="-6.2879381329">
        <ele>399.57</ele>
        <time>2020-07-13T10:13:01Z</time>
      </trkpt>
      <trkpt lat="39.2321056500" lon="-6.2880666275">
        <ele>399.57</ele>
        <time>2020-07-13T10:13:11Z</time>
      </trkpt>
      <trkpt lat="39.2322410177" lon="-6.2881669588">
        <ele>399.57</ele>
        <time>2020-07-13T10:13:18Z</time>
      </trkpt>
      <trkpt lat="39.2324288562" lon="-6.2883211859">
        <ele>399.57</ele>
        <time>2020-07-13T10:13:27Z</time>
      </trkpt>
      <trkpt lat="39.2325807363" lon="-6.2884722278">
        <ele>398.60</ele>
        <time>2020-07-13T10:13:34Z</time>
      </trkpt>
      <trkpt lat="39.2327388190" lon="-6.2886294723">
        <ele>397.16</ele>
        <time>2020-07-13T10:13:42Z</time>
      </trkpt>
      <trkpt lat="39.2328377254" lon="-6.2887163926">
        <ele>396.20</ele>
        <time>2020-07-13T10:13:49Z</time>
      </trkpt>
      <trkpt lat="39.2330554035" lon="-6.2889324781">
        <ele>395.72</ele>
        <time>2020-07-13T10:14:00Z</time>
      </trkpt>
      <trkpt lat="39.2331323493" lon="-6.2890106812">
        <ele>395.24</ele>
        <time>2020-07-13T10:14:05Z</time>
      </trkpt>
      <trkpt lat="39.2333342694" lon="-6.2891907245">
        <ele>393.80</ele>
        <time>2020-07-13T10:14:12Z</time>
      </trkpt>
      <trkpt lat="39.2336166557" lon="-6.2894829176">
        <ele>391.87</ele>
        <time>2020-07-13T10:14:22Z</time>
      </trkpt>
      <trkpt lat="39.2337328289" lon="-6.2896955665">
        <ele>391.39</ele>
        <time>2020-07-13T10:14:30Z</time>
      </trkpt>
      <trkpt lat="39.2337721400" lon="-6.2897985801">
        <ele>391.39</ele>
        <time>2020-07-13T10:14:37Z</time>
      </trkpt>
      <trkpt lat="39.2337640096" lon="-6.2897988316">
        <ele>390.43</ele>
        <time>2020-07-13T10:14:53Z</time>
      </trkpt>
      <trkpt lat="39.2337650992" lon="-6.2898037769">
        <ele>390.43</ele>
        <time>2020-07-13T10:15:12Z</time>
      </trkpt>
      <trkpt lat="39.2337733973" lon="-6.2897991668">
        <ele>389.47</ele>
        <time>2020-07-13T10:15:22Z</time>
      </trkpt>
      <trkpt lat="39.2337866407" lon="-6.2897989154">
        <ele>388.51</ele>
        <time>2020-07-13T10:15:40Z</time>
      </trkpt>
      <trkpt lat="39.2337764986" lon="-6.2897874322">
        <ele>387.55</ele>
        <time>2020-07-13T10:16:04Z</time>
      </trkpt>
      <trkpt lat="39.2337769177" lon="-6.2898038607">
        <ele>387.55</ele>
        <time>2020-07-13T10:16:22Z</time>
      </trkpt>
      <trkpt lat="39.2337798513" lon="-6.2898111530">
        <ele>386.11</ele>
        <time>2020-07-13T10:16:38Z</time>
      </trkpt>
      <trkpt lat="39.2337743193" lon="-6.2898368854">
        <ele>387.55</ele>
        <time>2020-07-13T10:16:56Z</time>
      </trkpt>
      <trkpt lat="39.2337664403" lon="-6.2898333650">
        <ele>388.51</ele>
        <time>2020-07-13T10:17:12Z</time>
      </trkpt>
      <trkpt lat="39.2337659374" lon="-6.2898258213">
        <ele>388.51</ele>
        <time>2020-07-13T10:17:26Z</time>
      </trkpt>
      <trkpt lat="39.2337903287" lon="-6.2898771185">
        <ele>389.47</ele>
        <time>2020-07-13T10:17:34Z</time>
      </trkpt>
      <trkpt lat="39.2338944320" lon="-6.2898974027">
        <ele>390.43</ele>
        <time>2020-07-13T10:17:44Z</time>
      </trkpt>
      <trkpt lat="39.2339878902" lon="-6.2898821477">
        <ele>391.39</ele>
        <time>2020-07-13T10:17:53Z</time>
      </trkpt>
      <trkpt lat="39.2340789177" lon="-6.2898653001">
        <ele>391.87</ele>
        <time>2020-07-13T10:18:03Z</time>
      </trkpt>
      <trkpt lat="39.2340977769" lon="-6.2898631208">
        <ele>391.87</ele>
        <time>2020-07-13T10:18:05Z</time>
      </trkpt>
      <trkpt lat="39.2341673467" lon="-6.2898502126">
        <ele>391.39</ele>
        <time>2020-07-13T10:18:13Z</time>
      </trkpt>
      <trkpt lat="39.2342478130" lon="-6.2898156792">
        <ele>390.91</ele>
        <time>2020-07-13T10:18:23Z</time>
      </trkpt>
      <trkpt lat="39.2342643254" lon="-6.2898232229">
        <ele>391.39</ele>
        <time>2020-07-13T10:18:31Z</time>
      </trkpt>
      <trkpt lat="39.2342716176" lon="-6.2898267433">
        <ele>390.91</ele>
        <time>2020-07-13T10:18:49Z</time>
      </trkpt>
      <trkpt lat="39.2342588771" lon="-6.2898081355">
        <ele>391.87</ele>
        <time>2020-07-13T10:19:12Z</time>
      </trkpt>
      <trkpt lat="39.2342558596" lon="-6.2898421660">
        <ele>393.32</ele>
        <time>2020-07-13T10:19:32Z</time>
      </trkpt>
      <trkpt lat="39.2342422809" lon="-6.2898417469">
        <ele>391.39</ele>
        <time>2020-07-13T10:19:53Z</time>
      </trkpt>
      <trkpt lat="39.2342466395" lon="-6.2898377236">
        <ele>390.43</ele>
        <time>2020-07-13T10:20:11Z</time>
      </trkpt>
      <trkpt lat="39.2342619784" lon="-6.2898175232">
        <ele>389.95</ele>
        <time>2020-07-13T10:20:31Z</time>
      </trkpt>
      <trkpt lat="39.2342611402" lon="-6.2898287550">
        <ele>391.39</ele>
        <time>2020-07-13T10:20:57Z</time>
      </trkpt>
      <trkpt lat="39.2342673428" lon="-6.2898461055">
        <ele>391.39</ele>
        <time>2020-07-13T10:21:22Z</time>
      </trkpt>
      <trkpt lat="39.2342528421" lon="-6.2898437586">
        <ele>390.91</ele>
        <time>2020-07-13T10:21:43Z</time>
      </trkpt>
      <trkpt lat="39.2342434544" lon="-6.2898374721">
        <ele>391.87</ele>
        <time>2020-07-13T10:22:04Z</time>
      </trkpt>
      <trkpt lat="39.2342402693" lon="-6.2898682337">
        <ele>391.39</ele>
        <time>2020-07-13T10:22:23Z</time>
      </trkpt>
      <trkpt lat="39.2342670076" lon="-6.2898474466">
        <ele>389.95</ele>
        <time>2020-07-13T10:22:42Z</time>
      </trkpt>
      <trkpt lat="39.2342730425" lon="-6.2898411602">
        <ele>389.47</ele>
        <time>2020-07-13T10:23:04Z</time>
      </trkpt>
      <trkpt lat="39.2342678457" lon="-6.2898327783">
        <ele>391.39</ele>
        <time>2020-07-13T10:23:34Z</time>
      </trkpt>
      <trkpt lat="39.2342606373" lon="-6.2898260728">
        <ele>392.36</ele>
        <time>2020-07-13T10:23:50Z</time>
      </trkpt>
      <trkpt lat="39.2342659179" lon="-6.2897739373">
        <ele>391.39</ele>
        <time>2020-07-13T10:23:58Z</time>
      </trkpt>
      <trkpt lat="39.2342991941" lon="-6.2896944769">
        <ele>392.36</ele>
        <time>2020-07-13T10:24:06Z</time>
      </trkpt>
      <trkpt lat="39.2343586218" lon="-6.2896246556">
        <ele>392.84</ele>
        <time>2020-07-13T10:24:16Z</time>
      </trkpt>
      <trkpt lat="39.2343841027" lon="-6.2896453589">
        <ele>392.84</ele>
        <time>2020-07-13T10:24:24Z</time>
      </trkpt>
      <trkpt lat="39.2343881261" lon="-6.2896663137">
        <ele>392.84</ele>
        <time>2020-07-13T10:24:25Z</time>
      </trkpt>
      <trkpt lat="39.2344306223" lon="-6.2898888532">
        <ele>392.36</ele>
        <time>2020-07-13T10:24:33Z</time>
      </trkpt>
      <trkpt lat="39.2345572729" lon="-6.2900300883">
        <ele>392.36</ele>
        <time>2020-07-13T10:24:40Z</time>
      </trkpt>
      <trkpt lat="39.2346756253" lon="-6.2901684735">
        <ele>393.80</ele>
        <time>2020-07-13T10:24:49Z</time>
      </trkpt>
      <trkpt lat="39.2348143458" lon="-6.2903625146">
        <ele>395.24</ele>
        <time>2020-07-13T10:24:59Z</time>
      </trkpt>
      <trkpt lat="39.2348974943" lon="-6.2905100361">
        <ele>396.20</ele>
        <time>2020-07-13T10:25:06Z</time>
      </trkpt>
      <trkpt lat="39.2350100633" lon="-6.2907112855">
        <ele>396.20</ele>
        <time>2020-07-13T10:25:15Z</time>
      </trkpt>
      <trkpt lat="39.2350886017" lon="-6.2908904906">
        <ele>397.64</ele>
        <time>2020-07-13T10:25:24Z</time>
      </trkpt>
      <trkpt lat="39.2351771984" lon="-6.2910574581">
        <ele>400.05</ele>
        <time>2020-07-13T10:25:34Z</time>
      </trkpt>
      <trkpt lat="39.2352096364" lon="-6.2910950091">
        <ele>401.01</ele>
        <time>2020-07-13T10:25:38Z</time>
      </trkpt>
      <trkpt lat="39.2352491152" lon="-6.2911387626">
        <ele>401.49</ele>
        <time>2020-07-13T10:25:42Z</time>
      </trkpt>
      <trkpt lat="39.2352745123" lon="-6.2911517546">
        <ele>401.97</ele>
        <time>2020-07-13T10:25:44Z</time>
      </trkpt>
      <trkpt lat="39.2352965567" lon="-6.2912121043">
        <ele>401.97</ele>
        <time>2020-07-13T10:25:48Z</time>
      </trkpt>
      <trkpt lat="39.2352809664" lon="-6.2912719510">
        <ele>402.45</ele>
        <time>2020-07-13T10:25:53Z</time>
      </trkpt>
      <trkpt lat="39.2352170125" lon="-6.2913224101">
        <ele>401.97</ele>
        <time>2020-07-13T10:26:00Z</time>
      </trkpt>
      <trkpt lat="39.2351689842" lon="-6.2913512439">
        <ele>401.49</ele>
        <time>2020-07-13T10:26:06Z</time>
      </trkpt>
      <trkpt lat="39.2351484485" lon="-6.2914409302">
        <ele>400.53</ele>
        <time>2020-07-13T10:26:11Z</time>
      </trkpt>
      <trkpt lat="39.2351470236" lon="-6.2916482985">
        <ele>400.05</ele>
        <time>2020-07-13T10:26:18Z</time>
      </trkpt>
      <trkpt lat="39.2351723369" lon="-6.2919403240">
        <ele>399.08</ele>
        <time>2020-07-13T10:26:28Z</time>
      </trkpt>
      <trkpt lat="39.2351832334" lon="-6.2920990773">
        <ele>399.57</ele>
        <time>2020-07-13T10:26:34Z</time>
      </trkpt>
      <trkpt lat="39.2351942137" lon="-6.2921118177">
        <ele>399.57</ele>
        <time>2020-07-13T10:26:35Z</time>
      </trkpt>
      <trkpt lat="39.2352759372" lon="-6.2921372987">
        <ele>401.49</ele>
        <time>2020-07-13T10:26:40Z</time>
      </trkpt>
      <trkpt lat="39.2352876719" lon="-6.2921565771">
        <ele>401.97</ele>
        <time>2020-07-13T10:26:42Z</time>
      </trkpt>
      <trkpt lat="39.2352225445" lon="-6.2921652943">
        <ele>401.97</ele>
        <time>2020-07-13T10:26:48Z</time>
      </trkpt>
      <trkpt lat="39.2351636197" lon="-6.2921996601">
        <ele>401.49</ele>
        <time>2020-07-13T10:26:52Z</time>
      </trkpt>
      <trkpt lat="39.2351555731" lon="-6.2922289129">
        <ele>401.01</ele>
        <time>2020-07-13T10:26:53Z</time>
      </trkpt>
      <trkpt lat="39.2351284996" lon="-6.2924577389">
        <ele>398.60</ele>
        <time>2020-07-13T10:27:00Z</time>
      </trkpt>
      <trkpt lat="39.2350770347" lon="-6.2927899975">
        <ele>397.64</ele>
        <time>2020-07-13T10:27:09Z</time>
      </trkpt>
      <trkpt lat="39.2350515537" lon="-6.2930080108">
        <ele>396.68</ele>
        <time>2020-07-13T10:27:15Z</time>
      </trkpt>
      <trkpt lat="39.2349636275" lon="-6.2933965120">
        <ele>394.28</ele>
        <time>2020-07-13T10:27:23Z</time>
      </trkpt>
      <trkpt lat="39.2348940577" lon="-6.2936794851">
        <ele>393.32</ele>
        <time>2020-07-13T10:27:29Z</time>
      </trkpt>
      <trkpt lat="39.2347640544" lon="-6.2939671520">
        <ele>393.32</ele>
        <time>2020-07-13T10:27:37Z</time>
      </trkpt>
      <trkpt lat="39.2347009387" lon="-6.2941299286">
        <ele>394.76</ele>
        <time>2020-07-13T10:27:45Z</time>
      </trkpt>
      <trkpt lat="39.2346522398" lon="-6.2943144981">
        <ele>394.28</ele>
        <time>2020-07-13T10:27:53Z</time>
      </trkpt>
      <trkpt lat="39.2346389964" lon="-6.2944619358">
        <ele>393.32</ele>
        <time>2020-07-13T10:27:59Z</time>
      </trkpt>
      <trkpt lat="39.2346324585" lon="-6.2944827229">
        <ele>393.32</ele>
        <time>2020-07-13T10:28:00Z</time>
      </trkpt>
      <trkpt lat="39.2346246634" lon="-6.2945040967">
        <ele>393.32</ele>
        <time>2020-07-13T10:28:01Z</time>
      </trkpt>
      <trkpt lat="39.2346187960" lon="-6.2945265602">
        <ele>393.80</ele>
        <time>2020-07-13T10:28:02Z</time>
      </trkpt>
      <trkpt lat="39.2346099950" lon="-6.2945522089">
        <ele>394.28</ele>
        <time>2020-07-13T10:28:03Z</time>
      </trkpt>
      <trkpt lat="39.2346021160" lon="-6.2945784442">
        <ele>394.28</ele>
        <time>2020-07-13T10:28:04Z</time>
      </trkpt>
      <trkpt lat="39.2345958296" lon="-6.2946021650">
        <ele>394.28</ele>
        <time>2020-07-13T10:28:05Z</time>
      </trkpt>
      <trkpt lat="39.2345894594" lon="-6.2946264725">
        <ele>394.28</ele>
        <time>2020-07-13T10:28:06Z</time>
      </trkpt>
      <trkpt lat="39.2345813289" lon="-6.2946465053">
        <ele>394.28</ele>
        <time>2020-07-13T10:28:07Z</time>
      </trkpt>
      <trkpt lat="39.2345742043" lon="-6.2946652807">
        <ele>394.76</ele>
        <time>2020-07-13T10:28:08Z</time>
      </trkpt>
      <trkpt lat="39.2345671635" lon="-6.2946827989">
        <ele>394.76</ele>
        <time>2020-07-13T10:28:09Z</time>
      </trkpt>
      <trkpt lat="39.2345628887" lon="-6.2947028317">
        <ele>394.76</ele>
        <time>2020-07-13T10:28:10Z</time>
      </trkpt>
      <trkpt lat="39.2345616315" lon="-6.2947226129">
        <ele>394.76</ele>
        <time>2020-07-13T10:28:11Z</time>
      </trkpt>
      <trkpt lat="39.2345622182" lon="-6.2947413046">
        <ele>394.76</ele>
        <time>2020-07-13T10:28:12Z</time>
      </trkpt>
      <trkpt lat="39.2345547583" lon="-6.2947681267">
        <ele>394.28</ele>
        <time>2020-07-13T10:28:19Z</time>
      </trkpt>
      <trkpt lat="39.2345533334" lon="-6.2947900034">
        <ele>393.32</ele>
        <time>2020-07-13T10:28:33Z</time>
      </trkpt>
      <trkpt lat="39.2345307022" lon="-6.2947986368">
        <ele>392.36</ele>
        <time>2020-07-13T10:28:43Z</time>
      </trkpt>
      <trkpt lat="39.2345217336" lon="-6.2948043365">
        <ele>392.36</ele>
        <time>2020-07-13T10:28:44Z</time>
      </trkpt>
      <trkpt lat="39.2345168721" lon="-6.2948214356">
        <ele>391.87</ele>
        <time>2020-07-13T10:28:45Z</time>
      </trkpt>
      <trkpt lat="39.2345157824" lon="-6.2948450726">
        <ele>391.87</ele>
        <time>2020-07-13T10:28:46Z</time>
      </trkpt>
      <trkpt lat="39.2345120944" lon="-6.2948760856">
        <ele>391.87</ele>
        <time>2020-07-13T10:28:47Z</time>
      </trkpt>
      <trkpt lat="39.2345074005" lon="-6.2949060090">
        <ele>392.36</ele>
        <time>2020-07-13T10:28:48Z</time>
      </trkpt>
      <trkpt lat="39.2345006112" lon="-6.2949362677">
        <ele>392.36</ele>
        <time>2020-07-13T10:28:49Z</time>
      </trkpt>
      <trkpt lat="39.2344928160" lon="-6.2949641794">
        <ele>392.84</ele>
        <time>2020-07-13T10:28:50Z</time>
      </trkpt>
      <trkpt lat="39.2344859429" lon="-6.2949914206">
        <ele>392.84</ele>
        <time>2020-07-13T10:28:51Z</time>
      </trkpt>
      <trkpt lat="39.2344805785" lon="-6.2950204220">
        <ele>392.84</ele>
        <time>2020-07-13T10:28:52Z</time>
      </trkpt>
      <trkpt lat="39.2344756331" lon="-6.2950474955">
        <ele>392.84</ele>
        <time>2020-07-13T10:28:53Z</time>
      </trkpt>
      <trkpt lat="39.2344177980" lon="-6.2953030597">
        <ele>392.84</ele>
        <time>2020-07-13T10:29:01Z</time>
      </trkpt>
      <trkpt lat="39.2343617231" lon="-6.2957088277">
        <ele>392.36</ele>
        <time>2020-07-13T10:29:10Z</time>
      </trkpt>
      <trkpt lat="39.2343849409" lon="-6.2960854266">
        <ele>391.87</ele>
        <time>2020-07-13T10:29:18Z</time>
      </trkpt>
      <trkpt lat="39.2344527505" lon="-6.2966118939">
        <ele>391.87</ele>
        <time>2020-07-13T10:29:29Z</time>
      </trkpt>
      <trkpt lat="39.2344897985" lon="-6.2970621698">
        <ele>391.87</ele>
        <time>2020-07-13T10:29:39Z</time>
      </trkpt>
      <trkpt lat="39.2345261760" lon="-6.2973346654">
        <ele>392.36</ele>
        <time>2020-07-13T10:29:46Z</time>
      </trkpt>
      <trkpt lat="39.2346692551" lon="-6.2974385172">
        <ele>391.87</ele>
        <time>2020-07-13T10:29:52Z</time>
      </trkpt>
      <trkpt lat="39.2348813172" lon="-6.2976191472">
        <ele>391.39</ele>
        <time>2020-07-13T10:30:00Z</time>
      </trkpt>
      <trkpt lat="39.2350595165" lon="-6.2977210712">
        <ele>391.39</ele>
        <time>2020-07-13T10:30:07Z</time>
      </trkpt>
      <trkpt lat="39.2351678107" lon="-6.2976566982">
        <ele>391.87</ele>
        <time>2020-07-13T10:30:13Z</time>
      </trkpt>
      <trkpt lat="39.2352067027" lon="-6.2976670079">
        <ele>391.87</ele>
        <time>2020-07-13T10:30:15Z</time>
      </trkpt>
      <trkpt lat="39.2352279928" lon="-6.2976841908">
        <ele>392.36</ele>
        <time>2020-07-13T10:30:16Z</time>
      </trkpt>
      <trkpt lat="39.2352418229" lon="-6.2976993620">
        <ele>392.36</ele>
        <time>2020-07-13T10:30:17Z</time>
      </trkpt>
      <trkpt lat="39.2352586705" lon="-6.2977198977">
        <ele>392.84</ele>
        <time>2020-07-13T10:30:18Z</time>
      </trkpt>
      <trkpt lat="39.2353800405" lon="-6.2979405932">
        <ele>394.76</ele>
        <time>2020-07-13T10:30:27Z</time>
      </trkpt>
      <trkpt lat="39.2354132328" lon="-6.2979953270">
        <ele>394.28</ele>
        <time>2020-07-13T10:30:33Z</time>
      </trkpt>
      <trkpt lat="39.2354373727" lon="-6.2980275974">
        <ele>393.32</ele>
        <time>2020-07-13T10:30:40Z</time>
      </trkpt>
      <trkpt lat="39.2354567349" lon="-6.2980508991">
        <ele>393.32</ele>
        <time>2020-07-13T10:30:42Z</time>
      </trkpt>
      <trkpt lat="39.2354723252" lon="-6.2980567664">
        <ele>393.32</ele>
        <time>2020-07-13T10:30:43Z</time>
      </trkpt>
      <trkpt lat="39.2354865745" lon="-6.2980643101">
        <ele>392.84</ele>
        <time>2020-07-13T10:30:44Z</time>
      </trkpt>
      <trkpt lat="39.2355018295" lon="-6.2980753742">
        <ele>392.84</ele>
        <time>2020-07-13T10:30:45Z</time>
      </trkpt>
      <trkpt lat="39.2355169170" lon="-6.2980912160">
        <ele>392.36</ele>
        <time>2020-07-13T10:30:46Z</time>
      </trkpt>
      <trkpt lat="39.2355342675" lon="-6.2981094047">
        <ele>392.36</ele>
        <time>2020-07-13T10:30:47Z</time>
      </trkpt>
      <trkpt lat="39.2355582397" lon="-6.2981254980">
        <ele>392.36</ele>
        <time>2020-07-13T10:30:48Z</time>
      </trkpt>
      <trkpt lat="39.2355845589" lon="-6.2981367297">
        <ele>391.87</ele>
        <time>2020-07-13T10:30:49Z</time>
      </trkpt>
      <trkpt lat="39.2356140632" lon="-6.2981453631">
        <ele>391.87</ele>
        <time>2020-07-13T10:30:50Z</time>
      </trkpt>
      <trkpt lat="39.2356411368" lon="-6.2981526554">
        <ele>391.87</ele>
        <time>2020-07-13T10:30:51Z</time>
      </trkpt>
      <trkpt lat="39.2358750757" lon="-6.2982451078">
        <ele>392.36</ele>
        <time>2020-07-13T10:30:59Z</time>
      </trkpt>
      <trkpt lat="39.2361032311" lon="-6.2983964011">
        <ele>391.87</ele>
        <time>2020-07-13T10:31:07Z</time>
      </trkpt>
      <trkpt lat="39.2362967692" lon="-6.2985696550">
        <ele>391.87</ele>
        <time>2020-07-13T10:31:15Z</time>
      </trkpt>
      <trkpt lat="39.2365271039" lon="-6.2987681385">
        <ele>390.91</ele>
        <time>2020-07-13T10:31:24Z</time>
      </trkpt>
      <trkpt lat="39.2367031239" lon="-6.2989698071">
        <ele>389.95</ele>
        <time>2020-07-13T10:31:31Z</time>
      </trkpt>
      <trkpt lat="39.2368845083" lon="-6.2991252076">
        <ele>390.43</ele>
        <time>2020-07-13T10:31:39Z</time>
      </trkpt>
      <trkpt lat="39.2372023501" lon="-6.2993337493">
        <ele>390.91</ele>
        <time>2020-07-13T10:31:50Z</time>
      </trkpt>
      <trkpt lat="39.2374896817" lon="-6.2995480746">
        <ele>391.39</ele>
        <time>2020-07-13T10:32:01Z</time>
      </trkpt>
      <trkpt lat="39.2376475129" lon="-6.2998002023">
        <ele>391.39</ele>
        <time>2020-07-13T10:32:10Z</time>
      </trkpt>
      <trkpt lat="39.2377709784" lon="-6.2999713607">
        <ele>391.87</ele>
        <time>2020-07-13T10:32:17Z</time>
      </trkpt>
      <trkpt lat="39.2379285581" lon="-6.3000730332">
        <ele>392.36</ele>
        <time>2020-07-13T10:32:24Z</time>
      </trkpt>
      <trkpt lat="39.2381370999" lon="-6.3001313712">
        <ele>392.84</ele>
        <time>2020-07-13T10:32:32Z</time>
      </trkpt>
      <trkpt lat="39.2384158820" lon="-6.3002878614">
        <ele>393.80</ele>
        <time>2020-07-13T10:32:43Z</time>
      </trkpt>
      <trkpt lat="39.2385881301" lon="-6.3003622089">
        <ele>393.80</ele>
        <time>2020-07-13T10:32:50Z</time>
      </trkpt>
      <trkpt lat="39.2388106696" lon="-6.3005409949">
        <ele>393.32</ele>
        <time>2020-07-13T10:32:59Z</time>
      </trkpt>
      <trkpt lat="39.2390014417" lon="-6.3006836548">
        <ele>393.32</ele>
        <time>2020-07-13T10:33:07Z</time>
      </trkpt>
      <trkpt lat="39.2390434351" lon="-6.3007086329">
        <ele>392.84</ele>
        <time>2020-07-13T10:33:10Z</time>
      </trkpt>
      <trkpt lat="39.2390609533" lon="-6.3007093873">
        <ele>392.84</ele>
        <time>2020-07-13T10:33:11Z</time>
      </trkpt>
      <trkpt lat="39.2392058764" lon="-6.3007124886">
        <ele>392.84</ele>
        <time>2020-07-13T10:33:19Z</time>
      </trkpt>
      <trkpt lat="39.2392210476" lon="-6.3007214572">
        <ele>392.84</ele>
        <time>2020-07-13T10:33:20Z</time>
      </trkpt>
      <trkpt lat="39.2392304353" lon="-6.3007322699">
        <ele>392.84</ele>
        <time>2020-07-13T10:33:21Z</time>
      </trkpt>
      <trkpt lat="39.2392351292" lon="-6.3007481117">
        <ele>393.32</ele>
        <time>2020-07-13T10:33:22Z</time>
      </trkpt>
      <trkpt lat="39.2392402422" lon="-6.3007652946">
        <ele>393.32</ele>
        <time>2020-07-13T10:33:23Z</time>
      </trkpt>
      <trkpt lat="39.2392502166" lon="-6.3007814717">
        <ele>393.32</ele>
        <time>2020-07-13T10:33:24Z</time>
      </trkpt>
      <trkpt lat="39.2392675672" lon="-6.3007926196">
        <ele>393.32</ele>
        <time>2020-07-13T10:33:25Z</time>
      </trkpt>
      <trkpt lat="39.2392887734" lon="-6.3008019235">
        <ele>393.32</ele>
        <time>2020-07-13T10:33:26Z</time>
      </trkpt>
      <trkpt lat="39.2395056132" lon="-6.3008456770">
        <ele>393.32</ele>
        <time>2020-07-13T10:33:34Z</time>
      </trkpt>
      <trkpt lat="39.2397883348" lon="-6.3009509537">
        <ele>393.32</ele>
        <time>2020-07-13T10:33:44Z</time>
      </trkpt>
      <trkpt lat="39.2399323359" lon="-6.3011280634">
        <ele>392.36</ele>
        <time>2020-07-13T10:33:51Z</time>
      </trkpt>
      <trkpt lat="39.2400894128" lon="-6.3013081905">
        <ele>391.39</ele>
        <time>2020-07-13T10:34:00Z</time>
      </trkpt>
      <trkpt lat="39.2402339168" lon="-6.3013902493">
        <ele>391.39</ele>
        <time>2020-07-13T10:34:08Z</time>
      </trkpt>
      <trkpt lat="39.2403303925" lon="-6.3014535327">
        <ele>390.91</ele>
        <time>2020-07-13T10:34:15Z</time>
      </trkpt>
      <trkpt lat="39.2404666822" lon="-6.3014635071">
        <ele>390.43</ele>
        <time>2020-07-13T10:34:22Z</time>
      </trkpt>
      <trkpt lat="39.2405971885" lon="-6.3014598191">
        <ele>389.95</ele>
        <time>2020-07-13T10:34:27Z</time>
      </trkpt>
      <trkpt lat="39.2406174727" lon="-6.3014539517">
        <ele>389.95</ele>
        <time>2020-07-13T10:34:28Z</time>
      </trkpt>
      <trkpt lat="39.2406396009" lon="-6.3014547061">
        <ele>389.95</ele>
        <time>2020-07-13T10:34:29Z</time>
      </trkpt>
      <trkpt lat="39.2408072390" lon="-6.3015055843">
        <ele>389.47</ele>
        <time>2020-07-13T10:34:36Z</time>
      </trkpt>
      <trkpt lat="39.2408763058" lon="-6.3015337475">
        <ele>389.47</ele>
        <time>2020-07-13T10:34:40Z</time>
      </trkpt>
      <trkpt lat="39.2408898845" lon="-6.3015389442">
        <ele>389.95</ele>
        <time>2020-07-13T10:34:41Z</time>
      </trkpt>
      <trkpt lat="39.2410768010" lon="-6.3016235176">
        <ele>389.47</ele>
        <time>2020-07-13T10:34:49Z</time>
      </trkpt>
      <trkpt lat="39.2411822453" lon="-6.3016691152">
        <ele>389.47</ele>
        <time>2020-07-13T10:34:54Z</time>
      </trkpt>
      <trkpt lat="39.2411918007" lon="-6.3016815204">
        <ele>389.47</ele>
        <time>2020-07-13T10:34:55Z</time>
      </trkpt>
      <trkpt lat="39.2412029486" lon="-6.3016915787">
        <ele>389.47</ele>
        <time>2020-07-13T10:34:56Z</time>
      </trkpt>
      <trkpt lat="39.2413349636" lon="-6.3017549459">
        <ele>388.99</ele>
        <time>2020-07-13T10:35:03Z</time>
      </trkpt>
      <trkpt lat="39.2415131629" lon="-6.3018577080">
        <ele>388.99</ele>
        <time>2020-07-13T10:35:12Z</time>
      </trkpt>
      <trkpt lat="39.2416974809" lon="-6.3019480649">
        <ele>389.95</ele>
        <time>2020-07-13T10:35:20Z</time>
      </trkpt>
      <trkpt lat="39.2418523785" lon="-6.3020612206">
        <ele>390.91</ele>
        <time>2020-07-13T10:35:28Z</time>
      </trkpt>
      <trkpt lat="39.2420158256" lon="-6.3021685090">
        <ele>391.39</ele>
        <time>2020-07-13T10:35:36Z</time>
      </trkpt>
      <trkpt lat="39.2421716452" lon="-6.3022762164">
        <ele>391.39</ele>
        <time>2020-07-13T10:35:43Z</time>
      </trkpt>
      <trkpt lat="39.2423941847" lon="-6.3023982570">
        <ele>391.39</ele>
        <time>2020-07-13T10:35:52Z</time>
      </trkpt>
      <trkpt lat="39.2426677700" lon="-6.3025383186">
        <ele>390.91</ele>
        <time>2020-07-13T10:36:02Z</time>
      </trkpt>
      <trkpt lat="39.2429225799" lon="-6.3026568387">
        <ele>390.91</ele>
        <time>2020-07-13T10:36:11Z</time>
      </trkpt>
      <trkpt lat="39.2431778088" lon="-6.3027440943">
        <ele>390.43</ele>
        <time>2020-07-13T10:36:20Z</time>
      </trkpt>
      <trkpt lat="39.2433817405" lon="-6.3028280810">
        <ele>390.43</ele>
        <time>2020-07-13T10:36:28Z</time>
      </trkpt>
      <trkpt lat="39.2435942218" lon="-6.3029839005">
        <ele>390.43</ele>
        <time>2020-07-13T10:36:36Z</time>
      </trkpt>
      <trkpt lat="39.2436173558" lon="-6.3029890973">
        <ele>390.43</ele>
        <time>2020-07-13T10:36:37Z</time>
      </trkpt>
      <trkpt lat="39.2436414119" lon="-6.3029885106">
        <ele>390.91</ele>
        <time>2020-07-13T10:36:41Z</time>
      </trkpt>
      <trkpt lat="39.2436630372" lon="-6.3029823080">
        <ele>390.91</ele>
        <time>2020-07-13T10:36:50Z</time>
      </trkpt>
      <trkpt lat="39.2436683178" lon="-6.3029864151">
        <ele>391.39</ele>
        <time>2020-07-13T10:36:57Z</time>
      </trkpt>
      <trkpt lat="39.2436586786" lon="-6.3029769436">
        <ele>389.95</ele>
        <time>2020-07-13T10:37:07Z</time>
      </trkpt>
      <trkpt lat="39.2436545715" lon="-6.3029962219">
        <ele>389.95</ele>
        <time>2020-07-13T10:37:23Z</time>
      </trkpt>
      <trkpt lat="39.2436685693" lon="-6.3029903546">
        <ele>392.36</ele>
        <time>2020-07-13T10:37:34Z</time>
      </trkpt>
      <trkpt lat="39.2436781246" lon="-6.3029864989">
        <ele>392.36</ele>
        <time>2020-07-13T10:37:51Z</time>
      </trkpt>
      <trkpt lat="39.2436760291" lon="-6.3029905222">
        <ele>391.87</ele>
        <time>2020-07-13T10:38:08Z</time>
      </trkpt>
      <trkpt lat="39.2436813936" lon="-6.3029858284">
        <ele>392.84</ele>
        <time>2020-07-13T10:38:22Z</time>
      </trkpt>
      <trkpt lat="39.2436742689" lon="-6.3029775303">
        <ele>391.87</ele>
        <time>2020-07-13T10:38:32Z</time>
      </trkpt>
      <trkpt lat="39.2436711676" lon="-6.3029991556">
        <ele>390.91</ele>
        <time>2020-07-13T10:38:45Z</time>
      </trkpt>
      <trkpt lat="39.2436716706" lon="-6.3030025084">
        <ele>390.91</ele>
        <time>2020-07-13T10:38:58Z</time>
      </trkpt>
      <trkpt lat="39.2436704971" lon="-6.3029982336">
        <ele>390.91</ele>
        <time>2020-07-13T10:39:11Z</time>
      </trkpt>
      <trkpt lat="39.2436578404" lon="-6.3029871695">
        <ele>391.87</ele>
        <time>2020-07-13T10:39:26Z</time>
      </trkpt>
      <trkpt lat="39.2436554097" lon="-6.3029894326">
        <ele>391.87</ele>
        <time>2020-07-13T10:39:37Z</time>
      </trkpt>
      <trkpt lat="39.2436553258" lon="-6.3029900193">
        <ele>391.87</ele>
        <time>2020-07-13T10:39:52Z</time>
      </trkpt>
      <trkpt lat="39.2436583433" lon="-6.3029797934">
        <ele>392.36</ele>
        <time>2020-07-13T10:40:03Z</time>
      </trkpt>
      <trkpt lat="39.2436799686" lon="-6.3029779494">
        <ele>392.36</ele>
        <time>2020-07-13T10:40:11Z</time>
      </trkpt>
      <trkpt lat="39.2438140791" lon="-6.3030606788">
        <ele>391.87</ele>
        <time>2020-07-13T10:40:17Z</time>
      </trkpt>
      <trkpt lat="39.2440355290" lon="-6.3031519577">
        <ele>391.39</ele>
        <time>2020-07-13T10:40:24Z</time>
      </trkpt>
      <trkpt lat="39.2442732397" lon="-6.3032657001">
        <ele>390.43</ele>
        <time>2020-07-13T10:40:32Z</time>
      </trkpt>
      <trkpt lat="39.2445496749" lon="-6.3033815380">
        <ele>389.95</ele>
        <time>2020-07-13T10:40:41Z</time>
      </trkpt>
      <trkpt lat="39.2448857054" lon="-6.3035357650">
        <ele>389.47</ele>
        <time>2020-07-13T10:40:50Z</time>
      </trkpt>
      <trkpt lat="39.2450890504" lon="-6.3036428858">
        <ele>389.47</ele>
        <time>2020-07-13T10:40:57Z</time>
      </trkpt>
      <trkpt lat="39.2453099135" lon="-6.3037839532">
        <ele>388.99</ele>
        <time>2020-07-13T10:41:05Z</time>
      </trkpt>
      <trkpt lat="39.2455156054" lon="-6.3039187342">
        <ele>388.51</ele>
        <time>2020-07-13T10:41:13Z</time>
      </trkpt>
      <trkpt lat="39.2456577625" lon="-6.3040039781">
        <ele>388.03</ele>
        <time>2020-07-13T10:41:20Z</time>
      </trkpt>
      <trkpt lat="39.2457937170" lon="-6.3040614780">
        <ele>388.03</ele>
        <time>2020-07-13T10:41:27Z</time>
      </trkpt>
      <trkpt lat="39.2459202837" lon="-6.3041087519">
        <ele>388.51</ele>
        <time>2020-07-13T10:41:33Z</time>
      </trkpt>
      <trkpt lat="39.2461351957" lon="-6.3041486498">
        <ele>388.51</ele>
        <time>2020-07-13T10:41:41Z</time>
      </trkpt>
      <trkpt lat="39.2462810408" lon="-6.3041967619">
        <ele>388.51</ele>
        <time>2020-07-13T10:41:48Z</time>
      </trkpt>
      <trkpt lat="39.2464200128" lon="-6.3042588718">
        <ele>388.51</ele>
        <time>2020-07-13T10:41:56Z</time>
      </trkpt>
      <trkpt lat="39.2465333361" lon="-6.3043173775">
        <ele>388.99</ele>
        <time>2020-07-13T10:42:03Z</time>
      </trkpt>
      <trkpt lat="39.2466822825" lon="-6.3043784816">
        <ele>388.99</ele>
        <time>2020-07-13T10:42:09Z</time>
      </trkpt>
      <trkpt lat="39.2468617391" lon="-6.3044686709">
        <ele>388.99</ele>
        <time>2020-07-13T10:42:16Z</time>
      </trkpt>
      <trkpt lat="39.2470198218" lon="-6.3045367319">
        <ele>388.51</ele>
        <time>2020-07-13T10:42:23Z</time>
      </trkpt>
      <trkpt lat="39.2472118512" lon="-6.3046645559">
        <ele>388.99</ele>
        <time>2020-07-13T10:42:33Z</time>
      </trkpt>
      <trkpt lat="39.2473896313" lon="-6.3048140891">
        <ele>389.47</ele>
        <time>2020-07-13T10:42:42Z</time>
      </trkpt>
      <trkpt lat="39.2475610413" lon="-6.3049357943">
        <ele>389.47</ele>
        <time>2020-07-13T10:42:50Z</time>
      </trkpt>
      <trkpt lat="39.2477741092" lon="-6.3051025104">
        <ele>389.47</ele>
        <time>2020-07-13T10:43:00Z</time>
      </trkpt>
      <trkpt lat="39.2479825672" lon="-6.3052495290">
        <ele>389.95</ele>
        <time>2020-07-13T10:43:10Z</time>
      </trkpt>
      <trkpt lat="39.2481776141" lon="-6.3053669594">
        <ele>389.95</ele>
        <time>2020-07-13T10:43:19Z</time>
      </trkpt>
      <trkpt lat="39.2484265566" lon="-6.3055365253">
        <ele>389.95</ele>
        <time>2020-07-13T10:43:30Z</time>
      </trkpt>
      <trkpt lat="39.2486823723" lon="-6.3056717254">
        <ele>390.91</ele>
        <time>2020-07-13T10:43:41Z</time>
      </trkpt>
      <trkpt lat="39.2489396129" lon="-6.3058031537">
        <ele>391.87</ele>
        <time>2020-07-13T10:43:52Z</time>
      </trkpt>
      <trkpt lat="39.2489718832" lon="-6.3058109488">
        <ele>391.87</ele>
        <time>2020-07-13T10:43:54Z</time>
      </trkpt>
      <trkpt lat="39.2489868030" lon="-6.3058186602">
        <ele>391.87</ele>
        <time>2020-07-13T10:43:55Z</time>
      </trkpt>
      <trkpt lat="39.2490990367" lon="-6.3058610726">
        <ele>391.87</ele>
        <time>2020-07-13T10:44:01Z</time>
      </trkpt>
      <trkpt lat="39.2491147947" lon="-6.3058769982">
        <ele>391.87</ele>
        <time>2020-07-13T10:44:02Z</time>
      </trkpt>
      <trkpt lat="39.2491339054" lon="-6.3058884814">
        <ele>391.87</ele>
        <time>2020-07-13T10:44:03Z</time>
      </trkpt>
      <trkpt lat="39.2491545249" lon="-6.3058963604">
        <ele>391.87</ele>
        <time>2020-07-13T10:44:04Z</time>
      </trkpt>
      <trkpt lat="39.2491793353" lon="-6.3059061673">
        <ele>392.36</ele>
        <time>2020-07-13T10:44:05Z</time>
      </trkpt>
      <trkpt lat="39.2492020503" lon="-6.3059146330">
        <ele>392.36</ele>
        <time>2020-07-13T10:44:06Z</time>
      </trkpt>
      <trkpt lat="39.2492254358" lon="-6.3059247751">
        <ele>392.36</ele>
        <time>2020-07-13T10:44:07Z</time>
      </trkpt>
      <trkpt lat="39.2492945865" lon="-6.3059539441">
        <ele>392.36</ele>
        <time>2020-07-13T10:44:10Z</time>
      </trkpt>
      <trkpt lat="39.2493182234" lon="-6.3059551176">
        <ele>392.84</ele>
        <time>2020-07-13T10:44:11Z</time>
      </trkpt>
      <trkpt lat="39.2493400164" lon="-6.3059598114">
        <ele>392.84</ele>
        <time>2020-07-13T10:44:12Z</time>
      </trkpt>
      <trkpt lat="39.2493615579" lon="-6.3059711270">
        <ele>393.32</ele>
        <time>2020-07-13T10:44:13Z</time>
      </trkpt>
      <trkpt lat="39.2493825965" lon="-6.3059842028">
        <ele>393.32</ele>
        <time>2020-07-13T10:44:14Z</time>
      </trkpt>
      <trkpt lat="39.2495172098" lon="-6.3060740568">
        <ele>393.80</ele>
        <time>2020-07-13T10:44:21Z</time>
      </trkpt>
      <trkpt lat="39.2496639770" lon="-6.3061359152">
        <ele>393.80</ele>
        <time>2020-07-13T10:44:28Z</time>
      </trkpt>
      <trkpt lat="39.2499842495" lon="-6.3061905652">
        <ele>393.32</ele>
        <time>2020-07-13T10:44:39Z</time>
      </trkpt>
      <trkpt lat="39.2502302583" lon="-6.3062605541">
        <ele>392.84</ele>
        <time>2020-07-13T10:44:47Z</time>
      </trkpt>
      <trkpt lat="39.2503392231" lon="-6.3063983526">
        <ele>391.87</ele>
        <time>2020-07-13T10:44:51Z</time>
      </trkpt>
      <trkpt lat="39.2504631076" lon="-6.3065643981">
        <ele>390.91</ele>
        <time>2020-07-13T10:44:56Z</time>
      </trkpt>
      <trkpt lat="39.2507037520" lon="-6.3066643942">
        <ele>389.95</ele>
        <time>2020-07-13T10:45:04Z</time>
      </trkpt>
      <trkpt lat="39.2508926801" lon="-6.3067267556">
        <ele>389.95</ele>
        <time>2020-07-13T10:45:12Z</time>
      </trkpt>
      <trkpt lat="39.2511361744" lon="-6.3067632169">
        <ele>388.99</ele>
        <time>2020-07-13T10:45:22Z</time>
      </trkpt>
      <trkpt lat="39.2513416987" lon="-6.3067809865">
        <ele>388.51</ele>
        <time>2020-07-13T10:45:31Z</time>
      </trkpt>
      <trkpt lat="39.2514745519" lon="-6.3069040328">
        <ele>388.51</ele>
        <time>2020-07-13T10:45:38Z</time>
      </trkpt>
      <trkpt lat="39.2515851930" lon="-6.3069853373">
        <ele>388.51</ele>
        <time>2020-07-13T10:45:43Z</time>
      </trkpt>
      <trkpt lat="39.2518269271" lon="-6.3071401510">
        <ele>388.03</ele>
        <time>2020-07-13T10:45:52Z</time>
      </trkpt>
      <trkpt lat="39.2520410009" lon="-6.3072889298">
        <ele>388.03</ele>
        <time>2020-07-13T10:46:01Z</time>
      </trkpt>
      <trkpt lat="39.2521275021" lon="-6.3073443342">
        <ele>387.55</ele>
        <time>2020-07-13T10:46:07Z</time>
      </trkpt>
      <trkpt lat="39.2522145901" lon="-6.3074166700">
        <ele>387.55</ele>
        <time>2020-07-13T10:46:13Z</time>
      </trkpt>
      <trkpt lat="39.2523047794" lon="-6.3074693922">
        <ele>388.03</ele>
        <time>2020-07-13T10:46:19Z</time>
      </trkpt>
      <trkpt lat="39.2524156719" lon="-6.3075499423">
        <ele>387.55</ele>
        <time>2020-07-13T10:46:27Z</time>
      </trkpt>
      <trkpt lat="39.2524155043" lon="-6.3075353578">
        <ele>387.55</ele>
        <time>2020-07-13T10:46:41Z</time>
      </trkpt>
      <trkpt lat="39.2524027638" lon="-6.3075382076">
        <ele>387.07</ele>
        <time>2020-07-13T10:46:56Z</time>
      </trkpt>
      <trkpt lat="39.2524036020" lon="-6.3075379562">
        <ele>387.55</ele>
        <time>2020-07-13T10:47:03Z</time>
      </trkpt>
      <trkpt lat="39.2523948010" lon="-6.3075293228">
        <ele>387.55</ele>
        <time>2020-07-13T10:47:06Z</time>
      </trkpt>
      <trkpt lat="39.2523802165" lon="-6.3075170852">
        <ele>387.55</ele>
        <time>2020-07-13T10:47:07Z</time>
      </trkpt>
      <trkpt lat="39.2523623630" lon="-6.3075038418">
        <ele>387.55</ele>
        <time>2020-07-13T10:47:08Z</time>
      </trkpt>
      <trkpt lat="39.2523495387" lon="-6.3074952923">
        <ele>388.03</ele>
        <time>2020-07-13T10:47:09Z</time>
      </trkpt>
      <trkpt lat="39.2523281649" lon="-6.3074802887">
        <ele>388.03</ele>
        <time>2020-07-13T10:47:10Z</time>
      </trkpt>
      <trkpt lat="39.2523076292" lon="-6.3074640278">
        <ele>388.03</ele>
        <time>2020-07-13T10:47:11Z</time>
      </trkpt>
      <trkpt lat="39.2522685695" lon="-6.3074409775">
        <ele>388.51</ele>
        <time>2020-07-13T10:47:13Z</time>
      </trkpt>
      <trkpt lat="39.2522467766" lon="-6.3074414805">
        <ele>388.51</ele>
        <time>2020-07-13T10:47:14Z</time>
      </trkpt>
      <trkpt lat="39.2522251513" lon="-6.3074519578">
        <ele>388.51</ele>
        <time>2020-07-13T10:47:15Z</time>
      </trkpt>
      <trkpt lat="39.2522115726" lon="-6.3074685540">
        <ele>388.51</ele>
        <time>2020-07-13T10:47:16Z</time>
      </trkpt>
      <trkpt lat="39.2521976586" lon="-6.3074939512">
        <ele>388.51</ele>
        <time>2020-07-13T10:47:17Z</time>
      </trkpt>
      <trkpt lat="39.2521872651" lon="-6.3075218629">
        <ele>388.51</ele>
        <time>2020-07-13T10:47:18Z</time>
      </trkpt>
      <trkpt lat="39.2521802243" lon="-6.3075575698">
        <ele>388.51</ele>
        <time>2020-07-13T10:47:19Z</time>
      </trkpt>
      <trkpt lat="39.2521783803" lon="-6.3075895887">
        <ele>388.51</ele>
        <time>2020-07-13T10:47:20Z</time>
      </trkpt>
      <trkpt lat="39.2521811463" lon="-6.3076168299">
        <ele>388.99</ele>
        <time>2020-07-13T10:47:21Z</time>
      </trkpt>
      <trkpt lat="39.2521880195" lon="-6.3076439034">
        <ele>388.99</ele>
        <time>2020-07-13T10:47:22Z</time>
      </trkpt>
      <trkpt lat="39.2522011790" lon="-6.3076722343">
        <ele>388.99</ele>
        <time>2020-07-13T10:47:23Z</time>
      </trkpt>
      <trkpt lat="39.2522215471" lon="-6.3076915964">
        <ele>388.99</ele>
        <time>2020-07-13T10:47:24Z</time>
      </trkpt>
      <trkpt lat="39.2522387300" lon="-6.3077027444">
        <ele>388.99</ele>
        <time>2020-07-13T10:47:25Z</time>
      </trkpt>
      <trkpt lat="39.2522642948" lon="-6.3077169098">
        <ele>388.99</ele>
        <time>2020-07-13T10:47:26Z</time>
      </trkpt>
      <trkpt lat="39.2522899434" lon="-6.3077288959">
        <ele>388.99</ele>
        <time>2020-07-13T10:47:27Z</time>
      </trkpt>
      <trkpt lat="39.2525055259" lon="-6.3078412134">
        <ele>388.99</ele>
        <time>2020-07-13T10:47:37Z</time>
      </trkpt>
      <trkpt lat="39.2526687216" lon="-6.3079246972">
        <ele>388.99</ele>
        <time>2020-07-13T10:47:44Z</time>
      </trkpt>
      <trkpt lat="39.2528562248" lon="-6.3080101088">
        <ele>388.99</ele>
        <time>2020-07-13T10:47:52Z</time>
      </trkpt>
      <trkpt lat="39.2530563008" lon="-6.3081154693">
        <ele>388.51</ele>
        <time>2020-07-13T10:48:00Z</time>
      </trkpt>
      <trkpt lat="39.2533911578" lon="-6.3082842808">
        <ele>388.03</ele>
        <time>2020-07-13T10:48:11Z</time>
      </trkpt>
      <trkpt lat="39.2536653299" lon="-6.3084225822">
        <ele>387.55</ele>
        <time>2020-07-13T10:48:21Z</time>
      </trkpt>
      <trkpt lat="39.2539306171" lon="-6.3085582014">
        <ele>387.07</ele>
        <time>2020-07-13T10:48:30Z</time>
      </trkpt>
      <trkpt lat="39.2541834991" lon="-6.3086840976">
        <ele>387.07</ele>
        <time>2020-07-13T10:48:38Z</time>
      </trkpt>
      <trkpt lat="39.2544459365" lon="-6.3088156935">
        <ele>387.55</ele>
        <time>2020-07-13T10:48:47Z</time>
      </trkpt>
      <trkpt lat="39.2546025105" lon="-6.3088956568">
        <ele>387.55</ele>
        <time>2020-07-13T10:48:56Z</time>
      </trkpt>
      <trkpt lat="39.2546070367" lon="-6.3088881131">
        <ele>387.55</ele>
        <time>2020-07-13T10:49:05Z</time>
      </trkpt>
      <trkpt lat="39.2546497844" lon="-6.3089234009">
        <ele>387.55</ele>
        <time>2020-07-13T10:49:13Z</time>
      </trkpt>
      <trkpt lat="39.2546749301" lon="-6.3089356385">
        <ele>387.07</ele>
        <time>2020-07-13T10:49:19Z</time>
      </trkpt>
      <trkpt lat="39.2546812166" lon="-6.3089408353">
        <ele>387.07</ele>
        <time>2020-07-13T10:49:25Z</time>
      </trkpt>
      <trkpt lat="39.2546888441" lon="-6.3089482952">
        <ele>387.55</ele>
        <time>2020-07-13T10:49:35Z</time>
      </trkpt>
      <trkpt lat="39.2546866648" lon="-6.3089484628">
        <ele>388.51</ele>
        <time>2020-07-13T10:49:59Z</time>
      </trkpt>
      <trkpt lat="39.2546897661" lon="-6.3089474570">
        <ele>388.03</ele>
        <time>2020-07-13T10:50:19Z</time>
      </trkpt>
      <trkpt lat="39.2546889279" lon="-6.3089447748">
        <ele>387.55</ele>
        <time>2020-07-13T10:50:39Z</time>
      </trkpt>
      <trkpt lat="39.2546840664" lon="-6.3089342974">
        <ele>388.99</ele>
        <time>2020-07-13T10:50:59Z</time>
      </trkpt>
      <trkpt lat="39.2546858266" lon="-6.3089290168">
        <ele>388.03</ele>
        <time>2020-07-13T10:51:14Z</time>
      </trkpt>
      <trkpt lat="39.2546840664" lon="-6.3089457806">
        <ele>388.03</ele>
        <time>2020-07-13T10:51:36Z</time>
      </trkpt>
      <trkpt lat="39.2546848208" lon="-6.3089380693">
        <ele>387.55</ele>
        <time>2020-07-13T10:51:57Z</time>
      </trkpt>
      <trkpt lat="39.2546836473" lon="-6.3089411706">
        <ele>387.55</ele>
        <time>2020-07-13T10:52:15Z</time>
      </trkpt>
      <trkpt lat="39.2546972260" lon="-6.3089446072">
        <ele>386.59</ele>
        <time>2020-07-13T10:52:36Z</time>
      </trkpt>
      <trkpt lat="39.2546969745" lon="-6.3089383207">
        <ele>386.59</ele>
        <time>2020-07-13T10:52:54Z</time>
      </trkpt>
      <trkpt lat="39.2546945438" lon="-6.3089396618">
        <ele>386.59</ele>
        <time>2020-07-13T10:53:11Z</time>
      </trkpt>
      <trkpt lat="39.2546971422" lon="-6.3089346327">
        <ele>386.11</ele>
        <time>2020-07-13T10:53:22Z</time>
      </trkpt>
      <trkpt lat="39.2546999082" lon="-6.3089418411">
        <ele>387.55</ele>
        <time>2020-07-13T10:53:43Z</time>
      </trkpt>
      <trkpt lat="39.2546917778" lon="-6.3089388236">
        <ele>387.55</ele>
        <time>2020-07-13T10:53:57Z</time>
      </trkpt>
      <trkpt lat="39.2546906043" lon="-6.3089415897">
        <ele>388.03</ele>
        <time>2020-07-13T10:54:14Z</time>
      </trkpt>
      <trkpt lat="39.2546872515" lon="-6.3089405838">
        <ele>387.55</ele>
        <time>2020-07-13T10:54:31Z</time>
      </trkpt>
      <trkpt lat="39.2546921968" lon="-6.3089473732">
        <ele>388.03</ele>
        <time>2020-07-13T10:54:49Z</time>
      </trkpt>
      <trkpt lat="39.2546886764" lon="-6.3089389913">
        <ele>388.51</ele>
        <time>2020-07-13T10:55:02Z</time>
      </trkpt>
      <trkpt lat="39.2547211982" lon="-6.3089548331">
        <ele>388.51</ele>
        <time>2020-07-13T10:55:09Z</time>
      </trkpt>
      <trkpt lat="39.2548725754" lon="-6.3090303540">
        <ele>388.51</ele>
        <time>2020-07-13T10:55:15Z</time>
      </trkpt>
      <trkpt lat="39.2552008107" lon="-6.3091972377">
        <ele>388.51</ele>
        <time>2020-07-13T10:55:25Z</time>
      </trkpt>
      <trkpt lat="39.2556313053" lon="-6.3094117306">
        <ele>388.99</ele>
        <time>2020-07-13T10:55:37Z</time>
      </trkpt>
      <trkpt lat="39.2560445331" lon="-6.3096179254">
        <ele>388.51</ele>
        <time>2020-07-13T10:55:47Z</time>
      </trkpt>
      <trkpt lat="39.2564611137" lon="-6.3098330051">
        <ele>388.51</ele>
        <time>2020-07-13T10:55:57Z</time>
      </trkpt>
      <trkpt lat="39.2567995749" lon="-6.3100020681">
        <ele>388.99</ele>
        <time>2020-07-13T10:56:06Z</time>
      </trkpt>
      <trkpt lat="39.2571802810" lon="-6.3101979531">
        <ele>388.03</ele>
        <time>2020-07-13T10:56:16Z</time>
      </trkpt>
      <trkpt lat="39.2572201788" lon="-6.3102154713">
        <ele>388.03</ele>
        <time>2020-07-13T10:56:17Z</time>
      </trkpt>
      <trkpt lat="39.2574918363" lon="-6.3103597239">
        <ele>387.07</ele>
        <time>2020-07-13T10:56:26Z</time>
      </trkpt>
      <trkpt lat="39.2577812634" lon="-6.3104977738">
        <ele>387.07</ele>
        <time>2020-07-13T10:56:34Z</time>
      </trkpt>
      <trkpt lat="39.2582511529" lon="-6.3107276894">
        <ele>385.63</ele>
        <time>2020-07-13T10:56:46Z</time>
      </trkpt>
      <trkpt lat="39.2586433422" lon="-6.3109296095">
        <ele>385.63</ele>
        <time>2020-07-13T10:56:55Z</time>
      </trkpt>
      <trkpt lat="39.2590904329" lon="-6.3111486286">
        <ele>384.66</ele>
        <time>2020-07-13T10:57:05Z</time>
      </trkpt>
      <trkpt lat="39.2592093721" lon="-6.3112188689">
        <ele>384.66</ele>
        <time>2020-07-13T10:57:08Z</time>
      </trkpt>
      <trkpt lat="39.2595306505" lon="-6.3113719225">
        <ele>384.18</ele>
        <time>2020-07-13T10:57:16Z</time>
      </trkpt>
      <trkpt lat="39.2598676868" lon="-6.3115392253">
        <ele>383.70</ele>
        <time>2020-07-13T10:57:25Z</time>
      </trkpt>
      <trkpt lat="39.2602527514" lon="-6.3117308356">
        <ele>383.22</ele>
        <time>2020-07-13T10:57:35Z</time>
      </trkpt>
      <trkpt lat="39.2606552504" lon="-6.3119411375">
        <ele>382.26</ele>
        <time>2020-07-13T10:57:45Z</time>
      </trkpt>
      <trkpt lat="39.2607391533" lon="-6.3119806163">
        <ele>382.26</ele>
        <time>2020-07-13T10:57:47Z</time>
      </trkpt>
      <trkpt lat="39.2607875168" lon="-6.3120032474">
        <ele>382.26</ele>
        <time>2020-07-13T10:57:48Z</time>
      </trkpt>
      <trkpt lat="39.2609127425" lon="-6.3120688777">
        <ele>382.26</ele>
        <time>2020-07-13T10:57:51Z</time>
      </trkpt>
      <trkpt lat="39.2614249606" lon="-6.3123313151">
        <ele>381.30</ele>
        <time>2020-07-13T10:58:03Z</time>
      </trkpt>
      <trkpt lat="39.2615058459" lon="-6.3123699557">
        <ele>381.30</ele>
        <time>2020-07-13T10:58:05Z</time>
      </trkpt>
      <trkpt lat="39.2619809322" lon="-6.3126121927">
        <ele>381.78</ele>
        <time>2020-07-13T10:58:18Z</time>
      </trkpt>
      <trkpt lat="39.2622519191" lon="-6.3127484825">
        <ele>381.78</ele>
        <time>2020-07-13T10:58:27Z</time>
      </trkpt>
      <trkpt lat="39.2626204714" lon="-6.3129314594">
        <ele>381.78</ele>
        <time>2020-07-13T10:58:39Z</time>
      </trkpt>
      <trkpt lat="39.2628503870" lon="-6.3130535837">
        <ele>382.74</ele>
        <time>2020-07-13T10:58:48Z</time>
      </trkpt>
      <trkpt lat="39.2630427517" lon="-6.3131471258">
        <ele>382.74</ele>
        <time>2020-07-13T10:58:57Z</time>
      </trkpt>
      <trkpt lat="39.2633039318" lon="-6.3132746145">
        <ele>382.74</ele>
        <time>2020-07-13T10:59:06Z</time>
      </trkpt>
      <trkpt lat="39.2636513617" lon="-6.3134471979">
        <ele>383.22</ele>
        <time>2020-07-13T10:59:18Z</time>
      </trkpt>
      <trkpt lat="39.2638920061" lon="-6.3135685679">
        <ele>383.22</ele>
        <time>2020-07-13T10:59:27Z</time>
      </trkpt>
      <trkpt lat="39.2641574610" lon="-6.3137144130">
        <ele>383.70</ele>
        <time>2020-07-13T10:59:38Z</time>
      </trkpt>
      <trkpt lat="39.2643277813" lon="-6.3137929514">
        <ele>383.70</ele>
        <time>2020-07-13T10:59:46Z</time>
      </trkpt>
      <trkpt lat="39.2645468842" lon="-6.3138956297">
        <ele>383.70</ele>
        <time>2020-07-13T10:59:54Z</time>
      </trkpt>
      <trkpt lat="39.2645473871" lon="-6.3138926122">
        <ele>383.70</ele>
        <time>2020-07-13T10:59:59Z</time>
      </trkpt>
      <trkpt lat="39.2645502370" lon="-6.3138989825">
        <ele>384.18</ele>
        <time>2020-07-13T11:00:15Z</time>
      </trkpt>
      <trkpt lat="39.2645436991" lon="-6.3138941210">
        <ele>384.66</ele>
        <time>2020-07-13T11:00:29Z</time>
      </trkpt>
      <trkpt lat="39.2645465489" lon="-6.3138895109">
        <ele>383.70</ele>
        <time>2020-07-13T11:00:43Z</time>
      </trkpt>
      <trkpt lat="39.2645489797" lon="-6.3139116392">
        <ele>383.22</ele>
        <time>2020-07-13T11:00:58Z</time>
      </trkpt>
      <trkpt lat="39.2645456269" lon="-6.3139072806">
        <ele>382.26</ele>
        <time>2020-07-13T11:01:11Z</time>
      </trkpt>
      <trkpt lat="39.2646265961" lon="-6.3139474299">
        <ele>382.74</ele>
        <time>2020-07-13T11:01:16Z</time>
      </trkpt>
      <trkpt lat="39.2648528237" lon="-6.3140609208">
        <ele>383.22</ele>
        <time>2020-07-13T11:01:24Z</time>
      </trkpt>
      <trkpt lat="39.2651743535" lon="-6.3142081909">
        <ele>383.22</ele>
        <time>2020-07-13T11:01:33Z</time>
      </trkpt>
      <trkpt lat="39.2655695602" lon="-6.3144046627">
        <ele>383.22</ele>
        <time>2020-07-13T11:01:43Z</time>
      </trkpt>
      <trkpt lat="39.2658963706" lon="-6.3145811018">
        <ele>382.74</ele>
        <time>2020-07-13T11:01:51Z</time>
      </trkpt>
      <trkpt lat="39.2663896456" lon="-6.3148271106">
        <ele>383.70</ele>
        <time>2020-07-13T11:02:03Z</time>
      </trkpt>
      <trkpt lat="39.2667125165" lon="-6.3149816729">
        <ele>384.18</ele>
        <time>2020-07-13T11:02:11Z</time>
      </trkpt>
      <trkpt lat="39.2671613675" lon="-6.3152049668">
        <ele>386.11</ele>
        <time>2020-07-13T11:02:22Z</time>
      </trkpt>
      <trkpt lat="39.2675158381" lon="-6.3153824955">
        <ele>387.07</ele>
        <time>2020-07-13T11:02:32Z</time>
      </trkpt>
      <trkpt lat="39.2677395511" lon="-6.3154984172">
        <ele>388.51</ele>
        <time>2020-07-13T11:02:40Z</time>
      </trkpt>
      <trkpt lat="39.2680758331" lon="-6.3156705815">
        <ele>389.47</ele>
        <time>2020-07-13T11:02:52Z</time>
      </trkpt>
      <trkpt lat="39.2683566269" lon="-6.3157987408">
        <ele>389.95</ele>
        <time>2020-07-13T11:03:02Z</time>
      </trkpt>
      <trkpt lat="39.2686248478" lon="-6.3159102201">
        <ele>389.95</ele>
        <time>2020-07-13T11:03:12Z</time>
      </trkpt>
      <trkpt lat="39.2689133529" lon="-6.3159968890">
        <ele>389.95</ele>
        <time>2020-07-13T11:03:22Z</time>
      </trkpt>
      <trkpt lat="39.2693086434" lon="-6.3160739187">
        <ele>389.95</ele>
        <time>2020-07-13T11:03:34Z</time>
      </trkpt>
      <trkpt lat="39.2697066162" lon="-6.3161379565">
        <ele>389.47</ele>
        <time>2020-07-13T11:03:46Z</time>
      </trkpt>
      <trkpt lat="39.2699862365" lon="-6.3161776029">
        <ele>388.51</ele>
        <time>2020-07-13T11:03:54Z</time>
      </trkpt>
      <trkpt lat="39.2703833710" lon="-6.3162397966">
        <ele>388.03</ele>
        <time>2020-07-13T11:04:04Z</time>
      </trkpt>
      <trkpt lat="39.2707176413" lon="-6.3162852265">
        <ele>387.55</ele>
        <time>2020-07-13T11:04:13Z</time>
      </trkpt>
      <trkpt lat="39.2711374909" lon="-6.3163405471">
        <ele>387.07</ele>
        <time>2020-07-13T11:04:23Z</time>
      </trkpt>
      <trkpt lat="39.2715778761" lon="-6.3164154813">
        <ele>386.59</ele>
        <time>2020-07-13T11:04:33Z</time>
      </trkpt>
      <trkpt lat="39.2719833925" lon="-6.3164716400">
        <ele>386.59</ele>
        <time>2020-07-13T11:04:43Z</time>
      </trkpt>
      <trkpt lat="39.2723567225" lon="-6.3165262900">
        <ele>386.59</ele>
        <time>2020-07-13T11:04:52Z</time>
      </trkpt>
      <trkpt lat="39.2728583794" lon="-6.3165990449">
        <ele>386.59</ele>
        <time>2020-07-13T11:05:04Z</time>
      </trkpt>
      <trkpt lat="39.2732649017" lon="-6.3166615739">
        <ele>387.07</ele>
        <time>2020-07-13T11:05:14Z</time>
      </trkpt>
      <trkpt lat="39.2737036943" lon="-6.3167261984">
        <ele>388.03</ele>
        <time>2020-07-13T11:05:25Z</time>
      </trkpt>
      <trkpt lat="39.2739024293" lon="-6.3167489134">
        <ele>388.03</ele>
        <time>2020-07-13T11:05:30Z</time>
      </trkpt>
      <trkpt lat="39.2744002305" lon="-6.3168272842">
        <ele>387.55</ele>
        <time>2020-07-13T11:05:42Z</time>
      </trkpt>
      <trkpt lat="39.2747773323" lon="-6.3168856222">
        <ele>388.51</ele>
        <time>2020-07-13T11:05:51Z</time>
      </trkpt>
      <trkpt lat="39.2752302065" lon="-6.3169473130">
        <ele>388.51</ele>
        <time>2020-07-13T11:06:02Z</time>
      </trkpt>
      <trkpt lat="39.2757911235" lon="-6.3170312997">
        <ele>388.99</ele>
        <time>2020-07-13T11:06:15Z</time>
      </trkpt>
      <trkpt lat="39.2761772778" lon="-6.3170856982">
        <ele>389.47</ele>
        <time>2020-07-13T11:06:24Z</time>
      </trkpt>
      <trkpt lat="39.2766071018" lon="-6.3171571121">
        <ele>389.47</ele>
        <time>2020-07-13T11:06:34Z</time>
      </trkpt>
      <trkpt lat="39.2769583035" lon="-6.3172074873">
        <ele>389.47</ele>
        <time>2020-07-13T11:06:43Z</time>
      </trkpt>
      <trkpt lat="39.2773592938" lon="-6.3172627240">
        <ele>388.99</ele>
        <time>2020-07-13T11:06:52Z</time>
      </trkpt>
      <trkpt lat="39.2777205538" lon="-6.3173167035">
        <ele>388.99</ele>
        <time>2020-07-13T11:07:01Z</time>
      </trkpt>
      <trkpt lat="39.2779185344" lon="-6.3173455372">
        <ele>389.47</ele>
        <time>2020-07-13T11:07:06Z</time>
      </trkpt>
      <trkpt lat="39.2784077022" lon="-6.3174179569">
        <ele>388.99</ele>
        <time>2020-07-13T11:07:18Z</time>
      </trkpt>
      <trkpt lat="39.2787720636" lon="-6.3174703438">
        <ele>388.51</ele>
        <time>2020-07-13T11:07:27Z</time>
      </trkpt>
      <trkpt lat="39.2791687790" lon="-6.3175336272">
        <ele>388.03</ele>
        <time>2020-07-13T11:07:37Z</time>
      </trkpt>
      <trkpt lat="39.2795959208" lon="-6.3175901212">
        <ele>387.07</ele>
        <time>2020-07-13T11:07:47Z</time>
      </trkpt>
      <trkpt lat="39.2800718453" lon="-6.3176639657">
        <ele>386.59</ele>
        <time>2020-07-13T11:07:58Z</time>
      </trkpt>
      <trkpt lat="39.2805328500" lon="-6.3177326974">
        <ele>386.11</ele>
        <time>2020-07-13T11:08:09Z</time>
      </trkpt>
      <trkpt lat="39.2809540406" lon="-6.3178005069">
        <ele>387.07</ele>
        <time>2020-07-13T11:08:19Z</time>
      </trkpt>
      <trkpt lat="39.2813585512" lon="-6.3178601861">
        <ele>387.07</ele>
        <time>2020-07-13T11:08:29Z</time>
      </trkpt>
      <trkpt lat="39.2817757186" lon="-6.3179222960">
        <ele>387.55</ele>
        <time>2020-07-13T11:08:40Z</time>
      </trkpt>
      <trkpt lat="39.2821710929" lon="-6.3179802988">
        <ele>388.99</ele>
        <time>2020-07-13T11:08:51Z</time>
      </trkpt>
      <trkpt lat="39.2825909425" lon="-6.3180367928">
        <ele>389.95</ele>
        <time>2020-07-13T11:09:03Z</time>
      </trkpt>
      <trkpt lat="39.2829397973" lon="-6.3180926163">
        <ele>389.95</ele>
        <time>2020-07-13T11:09:13Z</time>
      </trkpt>
      <trkpt lat="39.2833070923" lon="-6.3181407284">
        <ele>390.43</ele>
        <time>2020-07-13T11:09:23Z</time>
      </trkpt>
      <trkpt lat="39.2837122735" lon="-6.3182118069">
        <ele>389.95</ele>
        <time>2020-07-13T11:09:34Z</time>
      </trkpt>
      <trkpt lat="39.2841933109" lon="-6.3182860706">
        <ele>391.39</ele>
        <time>2020-07-13T11:09:47Z</time>
      </trkpt>
      <trkpt lat="39.2845839076" lon="-6.3183858152">
        <ele>392.36</ele>
        <time>2020-07-13T11:09:58Z</time>
      </trkpt>
      <trkpt lat="39.2848556489" lon="-6.3184316643">
        <ele>392.36</ele>
        <time>2020-07-13T11:10:06Z</time>
      </trkpt>
      <trkpt lat="39.2850924376" lon="-6.3184416387">
        <ele>392.84</ele>
        <time>2020-07-13T11:10:15Z</time>
      </trkpt>
      <trkpt lat="39.2852759175" lon="-6.3184993900">
        <ele>392.84</ele>
        <time>2020-07-13T11:10:23Z</time>
      </trkpt>
      <trkpt lat="39.2855408695" lon="-6.3187334128">
        <ele>393.80</ele>
        <time>2020-07-13T11:10:32Z</time>
      </trkpt>
      <trkpt lat="39.2857658397" lon="-6.3190618996">
        <ele>395.24</ele>
        <time>2020-07-13T11:10:42Z</time>
      </trkpt>
      <trkpt lat="39.2858153768" lon="-6.3191220816">
        <ele>395.24</ele>
        <time>2020-07-13T11:10:45Z</time>
      </trkpt>
      <trkpt lat="39.2858358286" lon="-6.3191198185">
        <ele>395.24</ele>
        <time>2020-07-13T11:10:46Z</time>
      </trkpt>
      <trkpt lat="39.2858604714" lon="-6.3191116881">
        <ele>395.24</ele>
        <time>2020-07-13T11:10:47Z</time>
      </trkpt>
      <trkpt lat="39.2859958392" lon="-6.3191091735">
        <ele>396.20</ele>
        <time>2020-07-13T11:10:54Z</time>
      </trkpt>
      <trkpt lat="39.2860033829" lon="-6.3191165496">
        <ele>396.20</ele>
        <time>2020-07-13T11:10:55Z</time>
      </trkpt>
      <trkpt lat="39.2860101722" lon="-6.3191289548">
        <ele>396.20</ele>
        <time>2020-07-13T11:10:56Z</time>
      </trkpt>
      <trkpt lat="39.2860186379" lon="-6.3191392645">
        <ele>396.20</ele>
        <time>2020-07-13T11:10:57Z</time>
      </trkpt>
      <trkpt lat="39.2860313784" lon="-6.3191422820">
        <ele>396.20</ele>
        <time>2020-07-13T11:10:58Z</time>
      </trkpt>
      <trkpt lat="39.2860460468" lon="-6.3191390131">
        <ele>396.68</ele>
        <time>2020-07-13T11:10:59Z</time>
      </trkpt>
      <trkpt lat="39.2860635649" lon="-6.3191363309">
        <ele>396.68</ele>
        <time>2020-07-13T11:11:00Z</time>
      </trkpt>
      <trkpt lat="39.2860836815" lon="-6.3191407733">
        <ele>396.68</ele>
        <time>2020-07-13T11:11:01Z</time>
      </trkpt>
      <trkpt lat="39.2861023732" lon="-6.3191543519">
        <ele>396.68</ele>
        <time>2020-07-13T11:11:02Z</time>
      </trkpt>
      <trkpt lat="39.2861168738" lon="-6.3191763125">
        <ele>397.16</ele>
        <time>2020-07-13T11:11:03Z</time>
      </trkpt>
      <trkpt lat="39.2861267645" lon="-6.3191990275">
        <ele>397.16</ele>
        <time>2020-07-13T11:11:04Z</time>
      </trkpt>
      <trkpt lat="39.2861333862" lon="-6.3192240056">
        <ele>397.16</ele>
        <time>2020-07-13T11:11:05Z</time>
      </trkpt>
      <trkpt lat="39.2861371581" lon="-6.3192507438">
        <ele>397.16</ele>
        <time>2020-07-13T11:11:06Z</time>
      </trkpt>
      <trkpt lat="39.2861410137" lon="-6.3192752190">
        <ele>397.16</ele>
        <time>2020-07-13T11:11:07Z</time>
      </trkpt>
      <trkpt lat="39.2861460429" lon="-6.3192987721">
        <ele>397.16</ele>
        <time>2020-07-13T11:11:08Z</time>
      </trkpt>
      <trkpt lat="39.2861506529" lon="-6.3193674199">
        <ele>397.64</ele>
        <time>2020-07-13T11:11:12Z</time>
      </trkpt>
      <trkpt lat="39.2861228250" lon="-6.3193941582">
        <ele>397.64</ele>
        <time>2020-07-13T11:11:15Z</time>
      </trkpt>
      <trkpt lat="39.2861084081" lon="-6.3193880394">
        <ele>397.64</ele>
        <time>2020-07-13T11:11:16Z</time>
      </trkpt>
      <trkpt lat="39.2861024570" lon="-6.3193788193">
        <ele>397.64</ele>
        <time>2020-07-13T11:11:17Z</time>
      </trkpt>
      <trkpt lat="39.2861000262" lon="-6.3193656597">
        <ele>397.16</ele>
        <time>2020-07-13T11:11:18Z</time>
      </trkpt>
      <trkpt lat="39.2861051392" lon="-6.3193495665">
        <ele>397.16</ele>
        <time>2020-07-13T11:11:19Z</time>
      </trkpt>
      <trkpt lat="39.2861157004" lon="-6.3193302881">
        <ele>397.16</ele>
        <time>2020-07-13T11:11:20Z</time>
      </trkpt>
      <trkpt lat="39.2861196399" lon="-6.3191656675">
        <ele>396.68</ele>
        <time>2020-07-13T11:11:26Z</time>
      </trkpt>
      <trkpt lat="39.2861043848" lon="-6.3191389292">
        <ele>396.68</ele>
        <time>2020-07-13T11:11:27Z</time>
      </trkpt>
      <trkpt lat="39.2860821728" lon="-6.3191210758">
        <ele>396.20</ele>
        <time>2020-07-13T11:11:28Z</time>
      </trkpt>
      <trkpt lat="39.2860540934" lon="-6.3191120233">
        <ele>396.20</ele>
        <time>2020-07-13T11:11:29Z</time>
      </trkpt>
      <trkpt lat="39.2860219069" lon="-6.3191139512">
        <ele>396.20</ele>
        <time>2020-07-13T11:11:30Z</time>
      </trkpt>
      <trkpt lat="39.2859924864" lon="-6.3191197347">
        <ele>396.20</ele>
        <time>2020-07-13T11:11:31Z</time>
      </trkpt>
      <trkpt lat="39.2859635688" lon="-6.3191232551">
        <ele>396.68</ele>
        <time>2020-07-13T11:11:32Z</time>
      </trkpt>
      <trkpt lat="39.2859320529" lon="-6.3191218302">
        <ele>396.68</ele>
        <time>2020-07-13T11:11:33Z</time>
      </trkpt>
      <trkpt lat="39.2857854534" lon="-6.3190767355">
        <ele>396.20</ele>
        <time>2020-07-13T11:11:39Z</time>
      </trkpt>
      <trkpt lat="39.2856426258" lon="-6.3188491669">
        <ele>395.72</ele>
        <time>2020-07-13T11:11:45Z</time>
      </trkpt>
      <trkpt lat="39.2853723094" lon="-6.3185597397">
        <ele>394.28</ele>
        <time>2020-07-13T11:11:53Z</time>
      </trkpt>
      <trkpt lat="39.2851378676" lon="-6.3184385374">
        <ele>393.32</ele>
        <time>2020-07-13T11:12:00Z</time>
      </trkpt>
      <trkpt lat="39.2850672919" lon="-6.3184187561">
        <ele>392.84</ele>
        <time>2020-07-13T11:12:03Z</time>
      </trkpt>
      <trkpt lat="39.2850494385" lon="-6.3184245396">
        <ele>392.84</ele>
        <time>2020-07-13T11:12:04Z</time>
      </trkpt>
      <trkpt lat="39.2850350216" lon="-6.3184214383">
        <ele>392.84</ele>
        <time>2020-07-13T11:12:05Z</time>
      </trkpt>
      <trkpt lat="39.2850268912" lon="-6.3184161577">
        <ele>392.36</ele>
        <time>2020-07-13T11:12:10Z</time>
      </trkpt>
      <trkpt lat="39.2849968001" lon="-6.3184308261">
        <ele>392.84</ele>
        <time>2020-07-13T11:12:18Z</time>
      </trkpt>
      <trkpt lat="39.2849827185" lon="-6.3183890004">
        <ele>392.84</ele>
        <time>2020-07-13T11:12:24Z</time>
      </trkpt>
      <trkpt lat="39.2849882506" lon="-6.3183686323">
        <ele>392.84</ele>
        <time>2020-07-13T11:12:31Z</time>
      </trkpt>
      <trkpt lat="39.2849926930" lon="-6.3183691353">
        <ele>394.28</ele>
        <time>2020-07-13T11:12:41Z</time>
      </trkpt>
      <trkpt lat="39.2849888373" lon="-6.3183667883">
        <ele>394.76</ele>
        <time>2020-07-13T11:12:59Z</time>
      </trkpt>
      <trkpt lat="39.2849879153" lon="-6.3183801994">
        <ele>394.76</ele>
        <time>2020-07-13T11:13:21Z</time>
      </trkpt>
      <trkpt lat="39.2849781923" lon="-6.3183884975">
        <ele>395.72</ele>
        <time>2020-07-13T11:13:39Z</time>
      </trkpt>
      <trkpt lat="39.2849872448" lon="-6.3183963764">
        <ele>393.80</ele>
        <time>2020-07-13T11:13:58Z</time>
      </trkpt>
      <trkpt lat="39.2849854007" lon="-6.3183936104">
        <ele>391.87</ele>
        <time>2020-07-13T11:14:18Z</time>
      </trkpt>
      <trkpt lat="39.2850014102" lon="-6.3183827978">
        <ele>392.36</ele>
        <time>2020-07-13T11:14:42Z</time>
      </trkpt>
      <trkpt lat="39.2850017454" lon="-6.3183517009">
        <ele>393.80</ele>
        <time>2020-07-13T11:15:08Z</time>
      </trkpt>
      <trkpt lat="39.2849972192" lon="-6.3183408882">
        <ele>394.76</ele>
        <time>2020-07-13T11:15:36Z</time>
      </trkpt>
      <trkpt lat="39.2849890050" lon="-6.3183635194">
        <ele>393.80</ele>
        <time>2020-07-13T11:16:02Z</time>
      </trkpt>
      <trkpt lat="39.2849781923" lon="-6.3183717337">
        <ele>390.43</ele>
        <time>2020-07-13T11:16:23Z</time>
      </trkpt>
      <trkpt lat="39.2849721573" lon="-6.3183774333">
        <ele>390.43</ele>
        <time>2020-07-13T11:16:52Z</time>
      </trkpt>
      <trkpt lat="39.2849698942" lon="-6.3183767628">
        <ele>391.87</ele>
        <time>2020-07-13T11:17:16Z</time>
      </trkpt>
      <trkpt lat="39.2849745043" lon="-6.3183746673">
        <ele>390.91</ele>
        <time>2020-07-13T11:17:38Z</time>
      </trkpt>
      <trkpt lat="39.2849782761" lon="-6.3183746673">
        <ele>391.87</ele>
        <time>2020-07-13T11:17:57Z</time>
      </trkpt>
      <trkpt lat="39.2849750910" lon="-6.3183660340">
        <ele>392.36</ele>
        <time>2020-07-13T11:18:23Z</time>
      </trkpt>
      <trkpt lat="39.2849713191" lon="-6.3183736615">
        <ele>392.84</ele>
        <time>2020-07-13T11:18:48Z</time>
      </trkpt>
      <trkpt lat="39.2849788629" lon="-6.3183869049">
        <ele>393.32</ele>
        <time>2020-07-13T11:19:13Z</time>
      </trkpt>
      <trkpt lat="39.2849928606" lon="-6.3183850609">
        <ele>393.80</ele>
        <time>2020-07-13T11:19:29Z</time>
      </trkpt>
      <trkpt lat="39.2849968001" lon="-6.3183725718">
        <ele>394.76</ele>
        <time>2020-07-13T11:19:48Z</time>
      </trkpt>
      <trkpt lat="39.2849914357" lon="-6.3183840550">
        <ele>395.72</ele>
        <time>2020-07-13T11:20:07Z</time>
      </trkpt>
      <trkpt lat="39.2849714030" lon="-6.3183953706">
        <ele>395.24</ele>
        <time>2020-07-13T11:20:30Z</time>
      </trkpt>
      <trkpt lat="39.2849646974" lon="-6.3184007350">
        <ele>393.80</ele>
        <time>2020-07-13T11:21:00Z</time>
      </trkpt>
      <trkpt lat="39.2849788629" lon="-6.3183994778">
        <ele>394.76</ele>
        <time>2020-07-13T11:21:19Z</time>
      </trkpt>
      <trkpt lat="39.2849822156" lon="-6.3183946162">
        <ele>394.28</ele>
        <time>2020-07-13T11:21:40Z</time>
      </trkpt>
      <trkpt lat="39.2849846464" lon="-6.3183995616">
        <ele>394.28</ele>
        <time>2020-07-13T11:21:57Z</time>
      </trkpt>
      <trkpt lat="39.2849836405" lon="-6.3183882460">
        <ele>394.76</ele>
        <time>2020-07-13T11:22:19Z</time>
      </trkpt>
      <trkpt lat="39.2849705648" lon="-6.3184138108">
        <ele>396.20</ele>
        <time>2020-07-13T11:22:43Z</time>
      </trkpt>
      <trkpt lat="39.2849685531" lon="-6.3183941972">
        <ele>396.20</ele>
        <time>2020-07-13T11:23:05Z</time>
      </trkpt>
      <trkpt lat="39.2849789467" lon="-6.3183826301">
        <ele>394.76</ele>
        <time>2020-07-13T11:23:27Z</time>
      </trkpt>
      <trkpt lat="39.2849777732" lon="-6.3183933590">
        <ele>394.76</ele>
        <time>2020-07-13T11:23:44Z</time>
      </trkpt>
      <trkpt lat="39.2849768512" lon="-6.3183949515">
        <ele>393.32</ele>
        <time>2020-07-13T11:24:07Z</time>
      </trkpt>
      <trkpt lat="39.2849708162" lon="-6.3183890842">
        <ele>394.28</ele>
        <time>2020-07-13T11:24:26Z</time>
      </trkpt>
      <trkpt lat="39.2849711515" lon="-6.3184058480">
        <ele>394.76</ele>
        <time>2020-07-13T11:24:46Z</time>
      </trkpt>
      <trkpt lat="39.2849620990" lon="-6.3183819596">
        <ele>393.80</ele>
        <time>2020-07-13T11:25:05Z</time>
      </trkpt>
      <trkpt lat="39.2849532142" lon="-6.3183966279">
        <ele>394.28</ele>
        <time>2020-07-13T11:25:23Z</time>
      </trkpt>
      <trkpt lat="39.2849615961" lon="-6.3183909282">
        <ele>394.76</ele>
        <time>2020-07-13T11:25:34Z</time>
      </trkpt>
      <trkpt lat="39.2849764321" lon="-6.3183888327">
        <ele>394.28</ele>
        <time>2020-07-13T11:25:53Z</time>
      </trkpt>
      <trkpt lat="39.2849786952" lon="-6.3183860667">
        <ele>394.28</ele>
        <time>2020-07-13T11:26:18Z</time>
      </trkpt>
      <trkpt lat="39.2849915195" lon="-6.3183935266">
        <ele>393.32</ele>
        <time>2020-07-13T11:26:42Z</time>
      </trkpt>
      <trkpt lat="39.2849770188" lon="-6.3184074406">
        <ele>394.76</ele>
        <time>2020-07-13T11:27:05Z</time>
      </trkpt>
      <trkpt lat="39.2849724088" lon="-6.3184106257">
        <ele>393.32</ele>
        <time>2020-07-13T11:27:31Z</time>
      </trkpt>
      <trkpt lat="39.2849707324" lon="-6.3184071891">
        <ele>393.80</ele>
        <time>2020-07-13T11:27:54Z</time>
      </trkpt>
      <trkpt lat="39.2849750910" lon="-6.3184123859">
        <ele>395.72</ele>
        <time>2020-07-13T11:28:15Z</time>
      </trkpt>
      <trkpt lat="39.2849851493" lon="-6.3184180856">
        <ele>394.76</ele>
        <time>2020-07-13T11:28:40Z</time>
      </trkpt>
      <trkpt lat="39.2849703133" lon="-6.3184304908">
        <ele>393.32</ele>
        <time>2020-07-13T11:29:00Z</time>
      </trkpt>
      <trkpt lat="39.2849869095" lon="-6.3184107933">
        <ele>394.76</ele>
        <time>2020-07-13T11:29:23Z</time>
      </trkpt>
      <trkpt lat="39.2849788629" lon="-6.3183882460">
        <ele>395.72</ele>
        <time>2020-07-13T11:29:50Z</time>
      </trkpt>
      <trkpt lat="39.2849841435" lon="-6.3183957897">
        <ele>392.84</ele>
        <time>2020-07-13T11:30:13Z</time>
      </trkpt>
      <trkpt lat="39.2849699780" lon="-6.3184131403">
        <ele>392.84</ele>
        <time>2020-07-13T11:30:33Z</time>
      </trkpt>
      <trkpt lat="39.2849720735" lon="-6.3183910958">
        <ele>393.80</ele>
        <time>2020-07-13T11:31:00Z</time>
      </trkpt>
      <trkpt lat="39.2849471793" lon="-6.3183877431">
        <ele>392.36</ele>
        <time>2020-07-13T11:31:20Z</time>
      </trkpt>
      <trkpt lat="39.2849682178" lon="-6.3183752540">
        <ele>390.91</ele>
        <time>2020-07-13T11:31:45Z</time>
      </trkpt>
      <trkpt lat="39.2849746719" lon="-6.3183809537">
        <ele>390.43</ele>
        <time>2020-07-13T11:32:04Z</time>
      </trkpt>
      <trkpt lat="39.2849669605" lon="-6.3183922693">
        <ele>390.91</ele>
        <time>2020-07-13T11:32:22Z</time>
      </trkpt>
      <trkpt lat="39.2849943694" lon="-6.3183869887">
        <ele>391.39</ele>
        <time>2020-07-13T11:32:49Z</time>
      </trkpt>
      <trkpt lat="39.2849817127" lon="-6.3183833845">
        <ele>391.39</ele>
        <time>2020-07-13T11:33:07Z</time>
      </trkpt>
      <trkpt lat="39.2849758454" lon="-6.3183804508">
        <ele>392.36</ele>
        <time>2020-07-13T11:33:30Z</time>
      </trkpt>
      <trkpt lat="39.2849770188" lon="-6.3183838036">
        <ele>394.76</ele>
        <time>2020-07-13T11:33:53Z</time>
      </trkpt>
      <trkpt lat="39.2849791981" lon="-6.3183656987">
        <ele>395.24</ele>
        <time>2020-07-13T11:34:19Z</time>
      </trkpt>
      <trkpt lat="39.2849765159" lon="-6.3183729909">
        <ele>396.20</ele>
        <time>2020-07-13T11:34:42Z</time>
      </trkpt>
      <trkpt lat="39.2849759292" lon="-6.3183833007">
        <ele>393.80</ele>
        <time>2020-07-13T11:35:03Z</time>
      </trkpt>
      <trkpt lat="39.2849842273" lon="-6.3183852285">
        <ele>392.84</ele>
        <time>2020-07-13T11:35:23Z</time>
      </trkpt>
      <trkpt lat="39.2849839758" lon="-6.3183937781">
        <ele>393.80</ele>
        <time>2020-07-13T11:35:46Z</time>
      </trkpt>
      <trkpt lat="39.2849936988" lon="-6.3183833007">
        <ele>393.80</ele>
        <time>2020-07-13T11:36:05Z</time>
      </trkpt>
      <trkpt lat="39.2849765159" lon="-6.3183825463">
        <ele>392.84</ele>
        <time>2020-07-13T11:36:26Z</time>
      </trkpt>
      <trkpt lat="39.2849778570" lon="-6.3183811214">
        <ele>394.76</ele>
        <time>2020-07-13T11:36:53Z</time>
      </trkpt>
      <trkpt lat="39.2849620152" lon="-6.3183981366">
        <ele>395.72</ele>
        <time>2020-07-13T11:37:18Z</time>
      </trkpt>
      <trkpt lat="39.2849661224" lon="-6.3183952030">
        <ele>395.72</ele>
        <time>2020-07-13T11:37:37Z</time>
      </trkpt>
      <trkpt lat="39.2849768512" lon="-6.3184031658">
        <ele>396.20</ele>
        <time>2020-07-13T11:38:03Z</time>
      </trkpt>
      <trkpt lat="39.2849770188" lon="-6.3183961250">
        <ele>395.24</ele>
        <time>2020-07-13T11:38:19Z</time>
      </trkpt>
      <trkpt lat="39.2849836405" lon="-6.3183914311">
        <ele>395.24</ele>
        <time>2020-07-13T11:38:34Z</time>
      </trkpt>
      <trkpt lat="39.2849848140" lon="-6.3183836360">
        <ele>394.76</ele>
        <time>2020-07-13T11:38:53Z</time>
      </trkpt>
      <trkpt lat="39.2849796172" lon="-6.3183996454">
        <ele>394.76</ele>
        <time>2020-07-13T11:39:13Z</time>
      </trkpt>
      <trkpt lat="39.2849781085" lon="-6.3183822948">
        <ele>397.16</ele>
        <time>2020-07-13T11:39:34Z</time>
      </trkpt>
      <trkpt lat="39.2849799525" lon="-6.3183773495">
        <ele>397.64</ele>
        <time>2020-07-13T11:39:55Z</time>
      </trkpt>
      <trkpt lat="39.2849757615" lon="-6.3183717337">
        <ele>397.16</ele>
        <time>2020-07-13T11:40:18Z</time>
      </trkpt>
      <trkpt lat="39.2849702295" lon="-6.3183841389">
        <ele>394.76</ele>
        <time>2020-07-13T11:40:42Z</time>
      </trkpt>
      <trkpt lat="39.2849703971" lon="-6.3183897547">
        <ele>394.28</ele>
        <time>2020-07-13T11:41:08Z</time>
      </trkpt>
      <trkpt lat="39.2849684693" lon="-6.3183931913">
        <ele>393.32</ele>
        <time>2020-07-13T11:41:29Z</time>
      </trkpt>
      <trkpt lat="39.2849698942" lon="-6.3184021600">
        <ele>393.32</ele>
        <time>2020-07-13T11:42:01Z</time>
      </trkpt>
      <trkpt lat="39.2849702295" lon="-6.3184006512">
        <ele>393.32</ele>
        <time>2020-07-13T11:42:28Z</time>
      </trkpt>
      <trkpt lat="39.2849690560" lon="-6.3183827978">
        <ele>393.32</ele>
        <time>2020-07-13T11:42:52Z</time>
      </trkpt>
      <trkpt lat="39.2849713191" lon="-6.3183802832">
        <ele>393.32</ele>
        <time>2020-07-13T11:43:15Z</time>
      </trkpt>
      <trkpt lat="39.2849695589" lon="-6.3183901738">
        <ele>393.80</ele>
        <time>2020-07-13T11:43:39Z</time>
      </trkpt>
      <trkpt lat="39.2849827185" lon="-6.3183838036">
        <ele>392.84</ele>
        <time>2020-07-13T11:44:00Z</time>
      </trkpt>
      <trkpt lat="39.2849686369" lon="-6.3183726557">
        <ele>392.36</ele>
        <time>2020-07-13T11:44:21Z</time>
      </trkpt>
      <trkpt lat="39.2849769350" lon="-6.3183836360">
        <ele>391.87</ele>
        <time>2020-07-13T11:44:33Z</time>
      </trkpt>
      <trkpt lat="39.2849727441" lon="-6.3183989748">
        <ele>394.76</ele>
        <time>2020-07-13T11:44:50Z</time>
      </trkpt>
      <trkpt lat="39.2849667929" lon="-6.3184195105">
        <ele>395.72</ele>
        <time>2020-07-13T11:45:14Z</time>
      </trkpt>
      <trkpt lat="39.2849602550" lon="-6.3184108771">
        <ele>395.72</ele>
        <time>2020-07-13T11:45:42Z</time>
      </trkpt>
      <trkpt lat="39.2849606741" lon="-6.3183975499">
        <ele>395.24</ele>
        <time>2020-07-13T11:46:06Z</time>
      </trkpt>
      <trkpt lat="39.2849616800" lon="-6.3183838874">
        <ele>396.68</ele>
        <time>2020-07-13T11:46:25Z</time>
      </trkpt>
      <trkpt lat="39.2849689722" lon="-6.3183693867">
        <ele>393.80</ele>
        <time>2020-07-13T11:46:44Z</time>
      </trkpt>
      <trkpt lat="39.2849820480" lon="-6.3183737453">
        <ele>394.76</ele>
        <time>2020-07-13T11:47:06Z</time>
      </trkpt>
      <trkpt lat="39.2849694751" lon="-6.3183896709">
        <ele>392.36</ele>
        <time>2020-07-13T11:47:29Z</time>
      </trkpt>
      <trkpt lat="39.2849671282" lon="-6.3183862343">
        <ele>393.32</ele>
        <time>2020-07-13T11:47:56Z</time>
      </trkpt>
      <trkpt lat="39.2849641107" lon="-6.3184033334">
        <ele>394.76</ele>
        <time>2020-07-13T11:48:16Z</time>
      </trkpt>
      <trkpt lat="39.2849719897" lon="-6.3183911797">
        <ele>394.28</ele>
        <time>2020-07-13T11:48:39Z</time>
      </trkpt>
      <trkpt lat="39.2849719897" lon="-6.3183988910">
        <ele>393.32</ele>
        <time>2020-07-13T11:49:01Z</time>
      </trkpt>
      <trkpt lat="39.2849747557" lon="-6.3184009027">
        <ele>395.72</ele>
        <time>2020-07-13T11:49:13Z</time>
      </trkpt>
      <trkpt lat="39.2849774379" lon="-6.3183810376">
        <ele>394.28</ele>
        <time>2020-07-13T11:49:32Z</time>
      </trkpt>
      <trkpt lat="39.2849816289" lon="-6.3183790259">
        <ele>394.76</ele>
        <time>2020-07-13T11:49:56Z</time>
      </trkpt>
      <trkpt lat="39.2849887535" lon="-6.3183884975">
        <ele>395.24</ele>
        <time>2020-07-13T11:50:24Z</time>
      </trkpt>
      <trkpt lat="39.2849838082" lon="-6.3183899224">
        <ele>394.76</ele>
        <time>2020-07-13T11:50:49Z</time>
      </trkpt>
      <trkpt lat="39.2849698942" lon="-6.3183934428">
        <ele>394.76</ele>
        <time>2020-07-13T11:51:06Z</time>
      </trkpt>
      <trkpt lat="39.2849676311" lon="-6.3183933590">
        <ele>395.24</ele>
        <time>2020-07-13T11:51:28Z</time>
      </trkpt>
      <trkpt lat="39.2849673796" lon="-6.3183894195">
        <ele>395.24</ele>
        <time>2020-07-13T11:51:50Z</time>
      </trkpt>
      <trkpt lat="39.2849764321" lon="-6.3183869887">
        <ele>395.24</ele>
        <time>2020-07-13T11:52:13Z</time>
      </trkpt>
      <trkpt lat="39.2849732470" lon="-6.3183919340">
        <ele>395.24</ele>
        <time>2020-07-13T11:52:35Z</time>
      </trkpt>
      <trkpt lat="39.2849728279" lon="-6.3183770981">
        <ele>395.24</ele>
        <time>2020-07-13T11:52:56Z</time>
      </trkpt>
      <trkpt lat="39.2849744204" lon="-6.3183822948">
        <ele>393.80</ele>
        <time>2020-07-13T11:53:18Z</time>
      </trkpt>
      <trkpt lat="39.2849730793" lon="-6.3183754217">
        <ele>393.80</ele>
        <time>2020-07-13T11:53:47Z</time>
      </trkpt>
      <trkpt lat="39.2849644460" lon="-6.3183895033">
        <ele>392.84</ele>
        <time>2020-07-13T11:54:14Z</time>
      </trkpt>
      <trkpt lat="39.2849685531" lon="-6.3183921855">
        <ele>392.36</ele>
        <time>2020-07-13T11:54:35Z</time>
      </trkpt>
      <trkpt lat="39.2849742528" lon="-6.3183981366">
        <ele>392.84</ele>
        <time>2020-07-13T11:54:49Z</time>
      </trkpt>
      <trkpt lat="39.2849758454" lon="-6.3183897547">
        <ele>394.28</ele>
        <time>2020-07-13T11:55:14Z</time>
      </trkpt>
      <trkpt lat="39.2849798687" lon="-6.3183863182">
        <ele>393.80</ele>
        <time>2020-07-13T11:55:32Z</time>
      </trkpt>
      <trkpt lat="39.2849762645" lon="-6.3183900062">
        <ele>396.20</ele>
        <time>2020-07-13T11:56:02Z</time>
      </trkpt>
      <trkpt lat="39.2849663738" lon="-6.3184020761">
        <ele>397.64</ele>
        <time>2020-07-13T11:56:25Z</time>
      </trkpt>
      <trkpt lat="39.2849672120" lon="-6.3183944486">
        <ele>397.64</ele>
        <time>2020-07-13T11:56:43Z</time>
      </trkpt>
      <trkpt lat="39.2849743366" lon="-6.3183946162">
        <ele>398.60</ele>
        <time>2020-07-13T11:57:10Z</time>
      </trkpt>
      <trkpt lat="39.2849694751" lon="-6.3184022438">
        <ele>395.72</ele>
        <time>2020-07-13T11:57:29Z</time>
      </trkpt>
      <trkpt lat="39.2849690560" lon="-6.3183905929">
        <ele>395.72</ele>
        <time>2020-07-13T11:57:48Z</time>
      </trkpt>
      <trkpt lat="39.2849469278" lon="-6.3183790259">
        <ele>395.72</ele>
        <time>2020-07-13T11:57:57Z</time>
      </trkpt>
      <trkpt lat="39.2849377077" lon="-6.3184237015">
        <ele>395.24</ele>
        <time>2020-07-13T11:58:04Z</time>
      </trkpt>
      <trkpt lat="39.2849393841" lon="-6.3184250426">
        <ele>394.76</ele>
        <time>2020-07-13T11:58:10Z</time>
      </trkpt>
      <trkpt lat="39.2849403899" lon="-6.3185455743">
        <ele>394.76</ele>
        <time>2020-07-13T11:58:17Z</time>
      </trkpt>
      <trkpt lat="39.2850112170" lon="-6.3185967878">
        <ele>394.76</ele>
        <time>2020-07-13T11:58:21Z</time>
      </trkpt>
      <trkpt lat="39.2850332614" lon="-6.3186101988">
        <ele>394.76</ele>
        <time>2020-07-13T11:58:22Z</time>
      </trkpt>
      <trkpt lat="39.2850450799" lon="-6.3186178263">
        <ele>394.76</ele>
        <time>2020-07-13T11:58:23Z</time>
      </trkpt>
      <trkpt lat="39.2850638554" lon="-6.3186293934">
        <ele>395.24</ele>
        <time>2020-07-13T11:58:24Z</time>
      </trkpt>
      <trkpt lat="39.2850831337" lon="-6.3186418824">
        <ele>395.24</ele>
        <time>2020-07-13T11:58:25Z</time>
      </trkpt>
      <trkpt lat="39.2851009872" lon="-6.3186531141">
        <ele>395.24</ele>
        <time>2020-07-13T11:58:26Z</time>
      </trkpt>
      <trkpt lat="39.2851200141" lon="-6.3186641783">
        <ele>395.24</ele>
        <time>2020-07-13T11:58:27Z</time>
      </trkpt>
      <trkpt lat="39.2851384543" lon="-6.3186777569">
        <ele>395.24</ele>
        <time>2020-07-13T11:58:28Z</time>
      </trkpt>
      <trkpt lat="39.2853036616" lon="-6.3188013062">
        <ele>394.76</ele>
        <time>2020-07-13T11:58:37Z</time>
      </trkpt>
      <trkpt lat="39.2854792625" lon="-6.3189624902">
        <ele>395.24</ele>
        <time>2020-07-13T11:58:46Z</time>
      </trkpt>
      <trkpt lat="39.2856634129" lon="-6.3191484008">
        <ele>396.20</ele>
        <time>2020-07-13T11:58:55Z</time>
      </trkpt>
      <trkpt lat="39.2858564481" lon="-6.3193548471">
        <ele>396.68</ele>
        <time>2020-07-13T11:59:05Z</time>
      </trkpt>
      <trkpt lat="39.2860622238" lon="-6.3195690047">
        <ele>396.68</ele>
        <time>2020-07-13T11:59:15Z</time>
      </trkpt>
      <trkpt lat="39.2862013634" lon="-6.3197120838">
        <ele>397.64</ele>
        <time>2020-07-13T11:59:23Z</time>
      </trkpt>
      <trkpt lat="39.2863085680" lon="-6.3198164385">
        <ele>397.64</ele>
        <time>2020-07-13T11:59:30Z</time>
      </trkpt>
      <trkpt lat="39.2864928860" lon="-6.3200057019">
        <ele>398.12</ele>
        <time>2020-07-13T11:59:40Z</time>
      </trkpt>
      <trkpt lat="39.2866725940" lon="-6.3201798778">
        <ele>397.64</ele>
        <time>2020-07-13T11:59:49Z</time>
      </trkpt>
      <trkpt lat="39.2868722510" lon="-6.3203751761">
        <ele>397.64</ele>
        <time>2020-07-13T11:59:59Z</time>
      </trkpt>
      <trkpt lat="39.2870968021" lon="-6.3205646910">
        <ele>398.12</ele>
        <time>2020-07-13T12:00:09Z</time>
      </trkpt>
      <trkpt lat="39.2873552162" lon="-6.3207844645">
        <ele>398.12</ele>
        <time>2020-07-13T12:00:20Z</time>
      </trkpt>
      <trkpt lat="39.2875032406" lon="-6.3209030684">
        <ele>398.60</ele>
        <time>2020-07-13T12:00:26Z</time>
      </trkpt>
      <trkpt lat="39.2877277080" lon="-6.3210842013">
        <ele>399.08</ele>
        <time>2020-07-13T12:00:35Z</time>
      </trkpt>
      <trkpt lat="39.2879811767" lon="-6.3213015441">
        <ele>400.53</ele>
        <time>2020-07-13T12:00:45Z</time>
      </trkpt>
      <trkpt lat="39.2882261798" lon="-6.3215005305">
        <ele>401.97</ele>
        <time>2020-07-13T12:00:55Z</time>
      </trkpt>
      <trkpt lat="39.2884539161" lon="-6.3216845971">
        <ele>402.45</ele>
        <time>2020-07-13T12:01:04Z</time>
      </trkpt>
      <trkpt lat="39.2886852566" lon="-6.3218550012">
        <ele>402.45</ele>
        <time>2020-07-13T12:01:12Z</time>
      </trkpt>
      <trkpt lat="39.2889506277" lon="-6.3219893631">
        <ele>402.45</ele>
        <time>2020-07-13T12:01:20Z</time>
      </trkpt>
      <trkpt lat="39.2893224489" lon="-6.3221228868">
        <ele>402.45</ele>
        <time>2020-07-13T12:01:31Z</time>
      </trkpt>
      <trkpt lat="39.2896210961" lon="-6.3222027663">
        <ele>401.97</ele>
        <time>2020-07-13T12:01:40Z</time>
      </trkpt>
      <trkpt lat="39.2899522651" lon="-6.3222806342">
        <ele>401.97</ele>
        <time>2020-07-13T12:01:50Z</time>
      </trkpt>
      <trkpt lat="39.2902781535" lon="-6.3223543111">
        <ele>401.97</ele>
        <time>2020-07-13T12:02:00Z</time>
      </trkpt>
      <trkpt lat="39.2906086519" lon="-6.3224356994">
        <ele>401.49</ele>
        <time>2020-07-13T12:02:10Z</time>
      </trkpt>
      <trkpt lat="39.2909649666" lon="-6.3225143217">
        <ele>401.49</ele>
        <time>2020-07-13T12:02:21Z</time>
      </trkpt>
      <trkpt lat="39.2912970576" lon="-6.3225967996">
        <ele>401.97</ele>
        <time>2020-07-13T12:02:31Z</time>
      </trkpt>
      <trkpt lat="39.2917180806" lon="-6.3226980530">
        <ele>401.49</ele>
        <time>2020-07-13T12:02:44Z</time>
      </trkpt>
      <trkpt lat="39.2921198253" lon="-6.3227964565">
        <ele>401.49</ele>
        <time>2020-07-13T12:02:56Z</time>
      </trkpt>
      <trkpt lat="39.2924712785" lon="-6.3228810299">
        <ele>401.49</ele>
        <time>2020-07-13T12:03:06Z</time>
      </trkpt>
      <trkpt lat="39.2928076442" lon="-6.3229629211">
        <ele>401.49</ele>
        <time>2020-07-13T12:03:16Z</time>
      </trkpt>
      <trkpt lat="39.2932110652" lon="-6.3230522722">
        <ele>401.49</ele>
        <time>2020-07-13T12:03:27Z</time>
      </trkpt>
      <trkpt lat="39.2936578207" lon="-6.3231597282">
        <ele>401.97</ele>
        <time>2020-07-13T12:03:39Z</time>
      </trkpt>
      <trkpt lat="39.2940579727" lon="-6.3232456427">
        <ele>402.45</ele>
        <time>2020-07-13T12:03:50Z</time>
      </trkpt>
      <trkpt lat="39.2944461387" lon="-6.3233420346">
        <ele>402.45</ele>
        <time>2020-07-13T12:04:01Z</time>
      </trkpt>
      <trkpt lat="39.2947064806" lon="-6.3234085031">
        <ele>402.93</ele>
        <time>2020-07-13T12:04:10Z</time>
      </trkpt>
      <trkpt lat="39.2950591072" lon="-6.3234862033">
        <ele>404.37</ele>
        <time>2020-07-13T12:04:22Z</time>
      </trkpt>
      <trkpt lat="39.2953580897" lon="-6.3235551026">
        <ele>405.33</ele>
        <time>2020-07-13T12:04:32Z</time>
      </trkpt>
      <trkpt lat="39.2957408912" lon="-6.3236418553">
        <ele>405.81</ele>
        <time>2020-07-13T12:04:45Z</time>
      </trkpt>
      <trkpt lat="39.2961193342" lon="-6.3237337209">
        <ele>406.77</ele>
        <time>2020-07-13T12:04:57Z</time>
      </trkpt>
      <trkpt lat="39.2964836117" lon="-6.3238220662">
        <ele>406.77</ele>
        <time>2020-07-13T12:05:07Z</time>
      </trkpt>
      <trkpt lat="39.2969615478" lon="-6.3239401672">
        <ele>406.77</ele>
        <time>2020-07-13T12:05:20Z</time>
      </trkpt>
      <trkpt lat="39.2973612808" lon="-6.3240327034">
        <ele>406.77</ele>
        <time>2020-07-13T12:05:30Z</time>
      </trkpt>
      <trkpt lat="39.2974927090" lon="-6.3240620401">
        <ele>406.77</ele>
        <time>2020-07-13T12:05:33Z</time>
      </trkpt>
      <trkpt lat="39.2978808749" lon="-6.3241585158">
        <ele>406.29</ele>
        <time>2020-07-13T12:05:43Z</time>
      </trkpt>
      <trkpt lat="39.2982765008" lon="-6.3242476992">
        <ele>406.77</ele>
        <time>2020-07-13T12:05:53Z</time>
      </trkpt>
      <trkpt lat="39.2986753955" lon="-6.3243440073">
        <ele>406.77</ele>
        <time>2020-07-13T12:06:04Z</time>
      </trkpt>
      <trkpt lat="39.2989596259" lon="-6.3244078774">
        <ele>408.22</ele>
        <time>2020-07-13T12:06:13Z</time>
      </trkpt>
      <trkpt lat="39.2993021943" lon="-6.3244903553">
        <ele>408.70</ele>
        <time>2020-07-13T12:06:25Z</time>
      </trkpt>
      <trkpt lat="39.2996103130" lon="-6.3245647028">
        <ele>409.18</ele>
        <time>2020-07-13T12:06:36Z</time>
      </trkpt>
      <trkpt lat="39.2998478562" lon="-6.3246217836">
        <ele>410.14</ele>
        <time>2020-07-13T12:06:45Z</time>
      </trkpt>
      <trkpt lat="39.3001675420" lon="-6.3246900123">
        <ele>411.58</ele>
        <time>2020-07-13T12:06:57Z</time>
      </trkpt>
      <trkpt lat="39.3004282191" lon="-6.3247552235">
        <ele>413.02</ele>
        <time>2020-07-13T12:07:07Z</time>
      </trkpt>
      <trkpt lat="39.3006958533" lon="-6.3248240389">
        <ele>413.98</ele>
        <time>2020-07-13T12:07:17Z</time>
      </trkpt>
      <trkpt lat="39.3010507431" lon="-6.3249158207">
        <ele>414.47</ele>
        <time>2020-07-13T12:07:30Z</time>
      </trkpt>
      <trkpt lat="39.3013756257" lon="-6.3249889109">
        <ele>415.43</ele>
        <time>2020-07-13T12:07:42Z</time>
      </trkpt>
      <trkpt lat="39.3016549945" lon="-6.3250532839">
        <ele>416.39</ele>
        <time>2020-07-13T12:07:52Z</time>
      </trkpt>
      <trkpt lat="39.3019553181" lon="-6.3251218479">
        <ele>416.87</ele>
        <time>2020-07-13T12:08:03Z</time>
      </trkpt>
      <trkpt lat="39.3022682145" lon="-6.3251894061">
        <ele>417.83</ele>
        <time>2020-07-13T12:08:15Z</time>
      </trkpt>
      <trkpt lat="39.3025220186" lon="-6.3252502587">
        <ele>417.83</ele>
        <time>2020-07-13T12:08:25Z</time>
      </trkpt>
      <trkpt lat="39.3028700352" lon="-6.3253407832">
        <ele>420.23</ele>
        <time>2020-07-13T12:08:38Z</time>
      </trkpt>
      <trkpt lat="39.3031191453" lon="-6.3254252728">
        <ele>421.19</ele>
        <time>2020-07-13T12:08:48Z</time>
      </trkpt>
      <trkpt lat="39.3034067284" lon="-6.3255529292">
        <ele>421.68</ele>
        <time>2020-07-13T12:08:59Z</time>
      </trkpt>
      <trkpt lat="39.3036504742" lon="-6.3256779872">
        <ele>421.68</ele>
        <time>2020-07-13T12:09:08Z</time>
      </trkpt>
      <trkpt lat="39.3039208744" lon="-6.3258499000">
        <ele>420.71</ele>
        <time>2020-07-13T12:09:16Z</time>
      </trkpt>
      <trkpt lat="39.3041937053" lon="-6.3260230701">
        <ele>419.75</ele>
        <time>2020-07-13T12:09:22Z</time>
      </trkpt>
      <trkpt lat="39.3046178296" lon="-6.3263080548">
        <ele>417.35</ele>
        <time>2020-07-13T12:09:30Z</time>
      </trkpt>
      <trkpt lat="39.3051594682" lon="-6.3266223762">
        <ele>415.43</ele>
        <time>2020-07-13T12:09:39Z</time>
      </trkpt>
      <trkpt lat="39.3057324551" lon="-6.3268570695">
        <ele>413.02</ele>
        <time>2020-07-13T12:09:47Z</time>
      </trkpt>
      <trkpt lat="39.3065103795" lon="-6.3270498533">
        <ele>410.62</ele>
        <time>2020-07-13T12:09:57Z</time>
      </trkpt>
      <trkpt lat="39.3070777506" lon="-6.3270991389">
        <ele>409.66</ele>
        <time>2020-07-13T12:10:05Z</time>
      </trkpt>
      <trkpt lat="39.3074545171" lon="-6.3270885777">
        <ele>409.66</ele>
        <time>2020-07-13T12:10:12Z</time>
      </trkpt>
      <trkpt lat="39.3077636417" lon="-6.3270596601">
        <ele>409.66</ele>
        <time>2020-07-13T12:10:20Z</time>
      </trkpt>
      <trkpt lat="39.3081204593" lon="-6.3270081952">
        <ele>409.66</ele>
        <time>2020-07-13T12:10:29Z</time>
      </trkpt>
      <trkpt lat="39.3084594235" lon="-6.3269662857">
        <ele>409.18</ele>
        <time>2020-07-13T12:10:38Z</time>
      </trkpt>
      <trkpt lat="39.3088388722" lon="-6.3269200176">
        <ele>409.18</ele>
        <time>2020-07-13T12:10:48Z</time>
      </trkpt>
      <trkpt lat="39.3091520201" lon="-6.3268816285">
        <ele>409.18</ele>
        <time>2020-07-13T12:10:57Z</time>
      </trkpt>
      <trkpt lat="39.3094914872" lon="-6.3268398028">
        <ele>409.18</ele>
        <time>2020-07-13T12:11:06Z</time>
      </trkpt>
      <trkpt lat="39.3098138552" lon="-6.3267947081">
        <ele>409.18</ele>
        <time>2020-07-13T12:11:16Z</time>
      </trkpt>
      <trkpt lat="39.3099976704" lon="-6.3267710712">
        <ele>409.18</ele>
        <time>2020-07-13T12:11:23Z</time>
      </trkpt>
      <trkpt lat="39.3100147694" lon="-6.3267771062">
        <ele>408.70</ele>
        <time>2020-07-13T12:11:27Z</time>
      </trkpt>
      <trkpt lat="39.3100052979" lon="-6.3267578278">
        <ele>408.22</ele>
        <time>2020-07-13T12:11:39Z</time>
      </trkpt>
      <trkpt lat="39.3100115005" lon="-6.3267750107">
        <ele>410.14</ele>
        <time>2020-07-13T12:11:50Z</time>
      </trkpt>
      <trkpt lat="39.3100165296" lon="-6.3267726637">
        <ele>409.66</ele>
        <time>2020-07-13T12:12:04Z</time>
      </trkpt>
      <trkpt lat="39.3100279290" lon="-6.3267768547">
        <ele>409.66</ele>
        <time>2020-07-13T12:12:17Z</time>
      </trkpt>
      <trkpt lat="39.3101764563" lon="-6.3267571572">
        <ele>409.66</ele>
        <time>2020-07-13T12:12:24Z</time>
      </trkpt>
      <trkpt lat="39.3104643747" lon="-6.3267161697">
        <ele>409.66</ele>
        <time>2020-07-13T12:12:33Z</time>
      </trkpt>
      <trkpt lat="39.3108061887" lon="-6.3266776130">
        <ele>409.66</ele>
        <time>2020-07-13T12:12:43Z</time>
      </trkpt>
      <trkpt lat="39.3111596536" lon="-6.3266303390">
        <ele>410.14</ele>
        <time>2020-07-13T12:12:54Z</time>
      </trkpt>
      <trkpt lat="39.3113868870" lon="-6.3265979849">
        <ele>410.62</ele>
        <time>2020-07-13T12:13:03Z</time>
      </trkpt>
      <trkpt lat="39.3116280343" lon="-6.3265642058">
        <ele>411.10</ele>
        <time>2020-07-13T12:13:12Z</time>
      </trkpt>
      <trkpt lat="39.3119260110" lon="-6.3265296724">
        <ele>412.06</ele>
        <time>2020-07-13T12:13:23Z</time>
      </trkpt>
      <trkpt lat="39.3122043740" lon="-6.3264997490">
        <ele>412.54</ele>
        <time>2020-07-13T12:13:33Z</time>
      </trkpt>
      <trkpt lat="39.3125255685" lon="-6.3264616951">
        <ele>413.50</ele>
        <time>2020-07-13T12:13:45Z</time>
      </trkpt>
      <trkpt lat="39.3127642013" lon="-6.3264342025">
        <ele>413.98</ele>
        <time>2020-07-13T12:13:54Z</time>
      </trkpt>
      <trkpt lat="39.3129814602" lon="-6.3264097273">
        <ele>414.47</ele>
        <time>2020-07-13T12:14:02Z</time>
      </trkpt>
      <trkpt lat="39.3132738210" lon="-6.3263723440">
        <ele>414.95</ele>
        <time>2020-07-13T12:14:13Z</time>
      </trkpt>
      <trkpt lat="39.3135596439" lon="-6.3263406605">
        <ele>415.43</ele>
        <time>2020-07-13T12:14:24Z</time>
      </trkpt>
      <trkpt lat="39.3138380069" lon="-6.3263043668">
        <ele>416.39</ele>
        <time>2020-07-13T12:14:35Z</time>
      </trkpt>
      <trkpt lat="39.3141324632" lon="-6.3262649719">
        <ele>417.35</ele>
        <time>2020-07-13T12:14:46Z</time>
      </trkpt>
      <trkpt lat="39.3144194596" lon="-6.3262322824">
        <ele>418.31</ele>
        <time>2020-07-13T12:14:57Z</time>
      </trkpt>
      <trkpt lat="39.3147525564" lon="-6.3261871878">
        <ele>418.31</ele>
        <time>2020-07-13T12:15:10Z</time>
      </trkpt>
      <trkpt lat="39.3150494434" lon="-6.3261502236">
        <ele>419.27</ele>
        <time>2020-07-13T12:15:21Z</time>
      </trkpt>
      <trkpt lat="39.3153328355" lon="-6.3261135109">
        <ele>420.23</ele>
        <time>2020-07-13T12:15:32Z</time>
      </trkpt>
      <trkpt lat="39.3156044092" lon="-6.3260831684">
        <ele>421.68</ele>
        <time>2020-07-13T12:15:43Z</time>
      </trkpt>
      <trkpt lat="39.3158453051" lon="-6.3260539994">
        <ele>422.64</ele>
        <time>2020-07-13T12:15:53Z</time>
      </trkpt>
      <trkpt lat="39.3161005341" lon="-6.3260209747">
        <ele>423.60</ele>
        <time>2020-07-13T12:16:04Z</time>
      </trkpt>
      <trkpt lat="39.3163893744" lon="-6.3259966671">
        <ele>424.08</ele>
        <time>2020-07-13T12:16:16Z</time>
      </trkpt>
      <trkpt lat="39.3167171068" lon="-6.3259949069">
        <ele>425.04</ele>
        <time>2020-07-13T12:16:29Z</time>
      </trkpt>
      <trkpt lat="39.3169507105" lon="-6.3260281831">
        <ele>426.00</ele>
        <time>2020-07-13T12:16:38Z</time>
      </trkpt>
      <trkpt lat="39.3171853200" lon="-6.3260793127">
        <ele>426.48</ele>
        <time>2020-07-13T12:16:47Z</time>
      </trkpt>
      <trkpt lat="39.3173959572" lon="-6.3261296880">
        <ele>426.48</ele>
        <time>2020-07-13T12:16:55Z</time>
      </trkpt>
      <trkpt lat="39.3176260404" lon="-6.3261888642">
        <ele>426.00</ele>
        <time>2020-07-13T12:17:05Z</time>
      </trkpt>
      <trkpt lat="39.3178800959" lon="-6.3262452744">
        <ele>425.52</ele>
        <time>2020-07-13T12:17:13Z</time>
      </trkpt>
      <trkpt lat="39.3181721214" lon="-6.3263242319">
        <ele>425.04</ele>
        <time>2020-07-13T12:17:22Z</time>
      </trkpt>
      <trkpt lat="39.3184540048" lon="-6.3263965677">
        <ele>425.52</ele>
        <time>2020-07-13T12:17:30Z</time>
      </trkpt>
      <trkpt lat="39.3187891971" lon="-6.3264868408">
        <ele>425.04</ele>
        <time>2020-07-13T12:17:40Z</time>
      </trkpt>
      <trkpt lat="39.3191502057" lon="-6.3265866693">
        <ele>424.56</ele>
        <time>2020-07-13T12:17:50Z</time>
      </trkpt>
      <trkpt lat="39.3195361923" lon="-6.3266852405">
        <ele>424.08</ele>
        <time>2020-07-13T12:18:00Z</time>
      </trkpt>
      <trkpt lat="39.3199697882" lon="-6.3268005755">
        <ele>424.08</ele>
        <time>2020-07-13T12:18:11Z</time>
      </trkpt>
      <trkpt lat="39.3203816749" lon="-6.3269090373">
        <ele>422.64</ele>
        <time>2020-07-13T12:18:22Z</time>
      </trkpt>
      <trkpt lat="39.3207463715" lon="-6.3270117994">
        <ele>422.64</ele>
        <time>2020-07-13T12:18:32Z</time>
      </trkpt>
      <trkpt lat="39.3210439291" lon="-6.3270907570">
        <ele>422.16</ele>
        <time>2020-07-13T12:18:40Z</time>
      </trkpt>
      <trkpt lat="39.3213749304" lon="-6.3271772582">
        <ele>422.16</ele>
        <time>2020-07-13T12:18:49Z</time>
      </trkpt>
      <trkpt lat="39.3217398785" lon="-6.3272758294">
        <ele>422.16</ele>
        <time>2020-07-13T12:18:59Z</time>
      </trkpt>
      <trkpt lat="39.3221764918" lon="-6.3273899909">
        <ele>422.16</ele>
        <time>2020-07-13T12:19:11Z</time>
      </trkpt>
      <trkpt lat="39.3224840239" lon="-6.3274728041">
        <ele>422.64</ele>
        <time>2020-07-13T12:19:20Z</time>
      </trkpt>
      <trkpt lat="39.3227860238" lon="-6.3275531866">
        <ele>422.64</ele>
        <time>2020-07-13T12:19:29Z</time>
      </trkpt>
      <trkpt lat="39.3232054543" lon="-6.3276657555">
        <ele>422.64</ele>
        <time>2020-07-13T12:19:42Z</time>
      </trkpt>
      <trkpt lat="39.3235714920" lon="-6.3277675956">
        <ele>423.12</ele>
        <time>2020-07-13T12:19:53Z</time>
      </trkpt>
      <trkpt lat="39.3239699677" lon="-6.3278738782">
        <ele>423.60</ele>
        <time>2020-07-13T12:20:05Z</time>
      </trkpt>
      <trkpt lat="39.3242914136" lon="-6.3279551826">
        <ele>423.60</ele>
        <time>2020-07-13T12:20:14Z</time>
      </trkpt>
      <trkpt lat="39.3245850317" lon="-6.3280305360">
        <ele>423.12</ele>
        <time>2020-07-13T12:20:23Z</time>
      </trkpt>
      <trkpt lat="39.3248860259" lon="-6.3281176239">
        <ele>423.12</ele>
        <time>2020-07-13T12:20:32Z</time>
      </trkpt>
      <trkpt lat="39.3252915423" lon="-6.3282208890">
        <ele>423.12</ele>
        <time>2020-07-13T12:20:43Z</time>
      </trkpt>
      <trkpt lat="39.3256564904" lon="-6.3283213042">
        <ele>423.12</ele>
        <time>2020-07-13T12:20:53Z</time>
      </trkpt>
      <trkpt lat="39.3259484321" lon="-6.3283992559">
        <ele>423.12</ele>
        <time>2020-07-13T12:21:01Z</time>
      </trkpt>
      <trkpt lat="39.3262344226" lon="-6.3284756150">
        <ele>423.12</ele>
        <time>2020-07-13T12:21:09Z</time>
      </trkpt>
      <trkpt lat="39.3266121950" lon="-6.3285727613">
        <ele>423.60</ele>
        <time>2020-07-13T12:21:20Z</time>
      </trkpt>
      <trkpt lat="39.3269641511" lon="-6.3286644593">
        <ele>423.12</ele>
        <time>2020-07-13T12:21:30Z</time>
      </trkpt>
      <trkpt lat="39.3273171969" lon="-6.3287623599">
        <ele>423.12</ele>
        <time>2020-07-13T12:21:40Z</time>
      </trkpt>
      <trkpt lat="39.3276431691" lon="-6.3288496155">
        <ele>423.12</ele>
        <time>2020-07-13T12:21:49Z</time>
      </trkpt>
      <trkpt lat="39.3280278984" lon="-6.3289476000">
        <ele>423.12</ele>
        <time>2020-07-13T12:21:59Z</time>
      </trkpt>
      <trkpt lat="39.3283686228" lon="-6.3290355261">
        <ele>423.60</ele>
        <time>2020-07-13T12:22:08Z</time>
      </trkpt>
      <trkpt lat="39.3287499994" lon="-6.3291414734">
        <ele>422.64</ele>
        <time>2020-07-13T12:22:17Z</time>
      </trkpt>
      <trkpt lat="39.3292388320" lon="-6.3292604964">
        <ele>421.19</ele>
        <time>2020-07-13T12:22:27Z</time>
      </trkpt>
      <trkpt lat="39.3297510501" lon="-6.3294024859">
        <ele>419.27</ele>
        <time>2020-07-13T12:22:37Z</time>
      </trkpt>
      <trkpt lat="39.3301400542" lon="-6.3295144681">
        <ele>419.27</ele>
        <time>2020-07-13T12:22:46Z</time>
      </trkpt>
      <trkpt lat="39.3304572254" lon="-6.3295972813">
        <ele>419.27</ele>
        <time>2020-07-13T12:22:55Z</time>
      </trkpt>
      <trkpt lat="39.3308909051" lon="-6.3297095988">
        <ele>419.27</ele>
        <time>2020-07-13T12:23:07Z</time>
      </trkpt>
      <trkpt lat="39.3313491438" lon="-6.3298401050">
        <ele>419.75</ele>
        <time>2020-07-13T12:23:20Z</time>
      </trkpt>
      <trkpt lat="39.3317187019" lon="-6.3299328927">
        <ele>419.27</ele>
        <time>2020-07-13T12:23:30Z</time>
      </trkpt>
      <trkpt lat="39.3320694007" lon="-6.3300131075">
        <ele>418.79</ele>
        <time>2020-07-13T12:23:40Z</time>
      </trkpt>
      <trkpt lat="39.3324123882" lon="-6.3301079068">
        <ele>418.79</ele>
        <time>2020-07-13T12:23:50Z</time>
      </trkpt>
      <trkpt lat="39.3327557109" lon="-6.3301969226">
        <ele>419.27</ele>
        <time>2020-07-13T12:24:00Z</time>
      </trkpt>
      <trkpt lat="39.3331825174" lon="-6.3303095754">
        <ele>419.27</ele>
        <time>2020-07-13T12:24:12Z</time>
      </trkpt>
      <trkpt lat="39.3335405085" lon="-6.3304032851">
        <ele>419.27</ele>
        <time>2020-07-13T12:24:22Z</time>
      </trkpt>
      <trkpt lat="39.3339637108" lon="-6.3305156026">
        <ele>419.27</ele>
        <time>2020-07-13T12:24:34Z</time>
      </trkpt>
      <trkpt lat="39.3342894316" lon="-6.3306033611">
        <ele>418.79</ele>
        <time>2020-07-13T12:24:44Z</time>
      </trkpt>
      <trkpt lat="39.3345879950" lon="-6.3306769542">
        <ele>419.27</ele>
        <time>2020-07-13T12:24:53Z</time>
      </trkpt>
      <trkpt lat="39.3349747360" lon="-6.3307784591">
        <ele>419.27</ele>
        <time>2020-07-13T12:25:04Z</time>
      </trkpt>
      <trkpt lat="39.3353889696" lon="-6.3308891002">
        <ele>419.75</ele>
        <time>2020-07-13T12:25:16Z</time>
      </trkpt>
      <trkpt lat="39.3356662430" lon="-6.3309640344">
        <ele>419.75</ele>
        <time>2020-07-13T12:25:25Z</time>
      </trkpt>
      <trkpt lat="39.3360100687" lon="-6.3310518768">
        <ele>419.75</ele>
        <time>2020-07-13T12:25:35Z</time>
      </trkpt>
      <trkpt lat="39.3363910262" lon="-6.3311492745">
        <ele>420.23</ele>
        <time>2020-07-13T12:25:46Z</time>
      </trkpt>
      <trkpt lat="39.3367578182" lon="-6.3312475942">
        <ele>420.23</ele>
        <time>2020-07-13T12:25:57Z</time>
      </trkpt>
      <trkpt lat="39.3370543700" lon="-6.3313304074">
        <ele>420.23</ele>
        <time>2020-07-13T12:26:06Z</time>
      </trkpt>
      <trkpt lat="39.3374736328" lon="-6.3314375281">
        <ele>419.75</ele>
        <time>2020-07-13T12:26:18Z</time>
      </trkpt>
      <trkpt lat="39.3378700130" lon="-6.3315426372">
        <ele>419.75</ele>
        <time>2020-07-13T12:26:29Z</time>
      </trkpt>
      <trkpt lat="39.3382096477" lon="-6.3316262886">
        <ele>419.75</ele>
        <time>2020-07-13T12:26:39Z</time>
      </trkpt>
      <trkpt lat="39.3384231348" lon="-6.3316827826">
        <ele>419.75</ele>
        <time>2020-07-13T12:26:46Z</time>
      </trkpt>
      <trkpt lat="39.3386957981" lon="-6.3317616563">
        <ele>420.71</ele>
        <time>2020-07-13T12:26:56Z</time>
      </trkpt>
      <trkpt lat="39.3389958702" lon="-6.3318355847">
        <ele>421.68</ele>
        <time>2020-07-13T12:27:07Z</time>
      </trkpt>
      <trkpt lat="39.3392293900" lon="-6.3319032267">
        <ele>422.16</ele>
        <time>2020-07-13T12:27:15Z</time>
      </trkpt>
      <trkpt lat="39.3395148776" lon="-6.3319781609">
        <ele>423.60</ele>
        <time>2020-07-13T12:27:26Z</time>
      </trkpt>
      <trkpt lat="39.3397755548" lon="-6.3320488203">
        <ele>424.56</ele>
        <time>2020-07-13T12:27:36Z</time>
      </trkpt>
      <trkpt lat="39.3400084879" lon="-6.3321076613">
        <ele>425.52</ele>
        <time>2020-07-13T12:27:45Z</time>
      </trkpt>
      <trkpt lat="39.3403570913" lon="-6.3321964256">
        <ele>426.00</ele>
        <time>2020-07-13T12:27:58Z</time>
      </trkpt>
      <trkpt lat="39.3406739272" lon="-6.3322793227">
        <ele>425.52</ele>
        <time>2020-07-13T12:28:09Z</time>
      </trkpt>
      <trkpt lat="39.3409874942" lon="-6.3323588669">
        <ele>425.04</ele>
        <time>2020-07-13T12:28:18Z</time>
      </trkpt>
      <trkpt lat="39.3412968703" lon="-6.3324391656">
        <ele>424.08</ele>
        <time>2020-07-13T12:28:27Z</time>
      </trkpt>
      <trkpt lat="39.3414529413" lon="-6.3324814942">
        <ele>423.60</ele>
        <time>2020-07-13T12:28:33Z</time>
      </trkpt>
      <trkpt lat="39.3417962641" lon="-6.3325709291">
        <ele>422.64</ele>
        <time>2020-07-13T12:28:42Z</time>
      </trkpt>
      <trkpt lat="39.3422437739" lon="-6.3326933887">
        <ele>421.68</ele>
        <time>2020-07-13T12:28:53Z</time>
      </trkpt>
      <trkpt lat="39.3426022679" lon="-6.3327855896">
        <ele>421.19</ele>
        <time>2020-07-13T12:29:02Z</time>
      </trkpt>
      <trkpt lat="39.3430779409" lon="-6.3329322729">
        <ele>420.23</ele>
        <time>2020-07-13T12:29:13Z</time>
      </trkpt>
      <trkpt lat="39.3432082795" lon="-6.3329831511">
        <ele>420.23</ele>
        <time>2020-07-13T12:29:16Z</time>
      </trkpt>
      <trkpt lat="39.3436517660" lon="-6.3331662118">
        <ele>419.27</ele>
        <time>2020-07-13T12:29:26Z</time>
      </trkpt>
      <trkpt lat="39.3443089072" lon="-6.3335104566">
        <ele>417.83</ele>
        <time>2020-07-13T12:29:40Z</time>
      </trkpt>
      <trkpt lat="39.3448504619" lon="-6.3337940164">
        <ele>415.43</ele>
        <time>2020-07-13T12:29:51Z</time>
      </trkpt>
      <trkpt lat="39.3453216087" lon="-6.3340473175">
        <ele>412.54</ele>
        <time>2020-07-13T12:30:00Z</time>
      </trkpt>
      <trkpt lat="39.3458281271" lon="-6.3343233336">
        <ele>410.14</ele>
        <time>2020-07-13T12:30:10Z</time>
      </trkpt>
      <trkpt lat="39.3463248387" lon="-6.3345851004">
        <ele>407.74</ele>
        <time>2020-07-13T12:30:19Z</time>
      </trkpt>
      <trkpt lat="39.3467083946" lon="-6.3348016050">
        <ele>406.29</ele>
        <time>2020-07-13T12:30:26Z</time>
      </trkpt>
      <trkpt lat="39.3469103146" lon="-6.3348706719">
        <ele>405.33</ele>
        <time>2020-07-13T12:30:32Z</time>
      </trkpt>
      <trkpt lat="39.3470110651" lon="-6.3347733580">
        <ele>405.33</ele>
        <time>2020-07-13T12:30:39Z</time>
      </trkpt>
      <trkpt lat="39.3469958939" lon="-6.3346728589">
        <ele>405.33</ele>
        <time>2020-07-13T12:30:46Z</time>
      </trkpt>
      <trkpt lat="39.3469977379" lon="-6.3346731104">
        <ele>405.33</ele>
        <time>2020-07-13T12:30:56Z</time>
      </trkpt>
      <trkpt lat="39.3469984084" lon="-6.3346691709">
        <ele>405.33</ele>
        <time>2020-07-13T12:31:07Z</time>
      </trkpt>
      <trkpt lat="39.3469948880" lon="-6.3346680813">
        <ele>405.81</ele>
        <time>2020-07-13T12:31:30Z</time>
      </trkpt>
      <trkpt lat="39.3470052816" lon="-6.3346691709">
        <ele>406.29</ele>
        <time>2020-07-13T12:31:55Z</time>
      </trkpt>
      <trkpt lat="39.3470108975" lon="-6.3346700929">
        <ele>406.29</ele>
        <time>2020-07-13T12:32:16Z</time>
      </trkpt>
      <trkpt lat="39.3470140826" lon="-6.3346695062">
        <ele>404.85</ele>
        <time>2020-07-13T12:32:43Z</time>
      </trkpt>
      <trkpt lat="39.3470119033" lon="-6.3346679136">
        <ele>404.85</ele>
        <time>2020-07-13T12:33:04Z</time>
      </trkpt>
      <trkpt lat="39.3470045272" lon="-6.3346656505">
        <ele>405.33</ele>
        <time>2020-07-13T12:33:20Z</time>
      </trkpt>
      <trkpt lat="39.3470020965" lon="-6.3346690871">
        <ele>405.81</ele>
        <time>2020-07-13T12:33:37Z</time>
      </trkpt>
      <trkpt lat="39.3470075447" lon="-6.3346723560">
        <ele>405.81</ele>
        <time>2020-07-13T12:34:00Z</time>
      </trkpt>
      <trkpt lat="39.3470118195" lon="-6.3346747030">
        <ele>405.33</ele>
        <time>2020-07-13T12:34:23Z</time>
      </trkpt>
      <trkpt lat="39.3470095564" lon="-6.3346734457">
        <ele>405.81</ele>
        <time>2020-07-13T12:34:42Z</time>
      </trkpt>
      <trkpt lat="39.3470078800" lon="-6.3346675783">
        <ele>405.81</ele>
        <time>2020-07-13T12:35:05Z</time>
      </trkpt>
      <trkpt lat="39.3470009230" lon="-6.3346739486">
        <ele>405.81</ele>
        <time>2020-07-13T12:35:22Z</time>
      </trkpt>
      <trkpt lat="39.3470041919" lon="-6.3346752059">
        <ele>406.29</ele>
        <time>2020-07-13T12:35:44Z</time>
      </trkpt>
      <trkpt lat="39.3470055331" lon="-6.3346709311">
        <ele>406.29</ele>
        <time>2020-07-13T12:36:01Z</time>
      </trkpt>
      <trkpt lat="39.3470051140" lon="-6.3346881140">
        <ele>406.29</ele>
        <time>2020-07-13T12:36:12Z</time>
      </trkpt>
      <trkpt lat="39.3470035214" lon="-6.3346975017">
        <ele>406.29</ele>
        <time>2020-07-13T12:36:18Z</time>
      </trkpt>
      <trkpt lat="39.3470065389" lon="-6.3347228989">
        <ele>406.29</ele>
        <time>2020-07-13T12:36:23Z</time>
      </trkpt>
      <trkpt lat="39.3470116518" lon="-6.3347499724">
        <ele>406.29</ele>
        <time>2020-07-13T12:36:24Z</time>
      </trkpt>
      <trkpt lat="39.3470823951" lon="-6.3349606935">
        <ele>405.33</ele>
        <time>2020-07-13T12:36:30Z</time>
      </trkpt>
      <trkpt lat="39.3471387215" lon="-6.3350163493">
        <ele>405.33</ele>
        <time>2020-07-13T12:36:32Z</time>
      </trkpt>
      <trkpt lat="39.3471766077" lon="-6.3350397348">
        <ele>405.33</ele>
        <time>2020-07-13T12:36:33Z</time>
      </trkpt>
      <trkpt lat="39.3475953676" lon="-6.3352682255">
        <ele>403.89</ele>
        <time>2020-07-13T12:36:43Z</time>
      </trkpt>
      <trkpt lat="39.3479820248" lon="-6.3354787789">
        <ele>403.89</ele>
        <time>2020-07-13T12:36:52Z</time>
      </trkpt>
      <trkpt lat="39.3483858649" lon="-6.3356911764">
        <ele>403.41</ele>
        <time>2020-07-13T12:37:01Z</time>
      </trkpt>
      <trkpt lat="39.3489089794" lon="-6.3359196670">
        <ele>401.97</ele>
        <time>2020-07-13T12:37:12Z</time>
      </trkpt>
      <trkpt lat="39.3492906913" lon="-6.3360606506">
        <ele>400.53</ele>
        <time>2020-07-13T12:37:21Z</time>
      </trkpt>
      <trkpt lat="39.3496924359" lon="-6.3361973595">
        <ele>399.57</ele>
        <time>2020-07-13T12:37:31Z</time>
      </trkpt>
      <trkpt lat="39.3499433901" lon="-6.3362857886">
        <ele>399.57</ele>
        <time>2020-07-13T12:37:39Z</time>
      </trkpt>
      <trkpt lat="39.3502049055" lon="-6.3363812584">
        <ele>399.08</ele>
        <time>2020-07-13T12:37:47Z</time>
      </trkpt>
      <trkpt lat="39.3504859507" lon="-6.3364709448">
        <ele>399.57</ele>
        <time>2020-07-13T12:37:56Z</time>
      </trkpt>
      <trkpt lat="39.3508688360" lon="-6.3366043009">
        <ele>399.08</ele>
        <time>2020-07-13T12:38:07Z</time>
      </trkpt>
      <trkpt lat="39.3511758652" lon="-6.3367084879">
        <ele>400.05</ele>
        <time>2020-07-13T12:38:16Z</time>
      </trkpt>
      <trkpt lat="39.3515245523" lon="-6.3368303608">
        <ele>399.57</ele>
        <time>2020-07-13T12:38:26Z</time>
      </trkpt>
      <trkpt lat="39.3518755864" lon="-6.3369494677">
        <ele>399.08</ele>
        <time>2020-07-13T12:38:35Z</time>
      </trkpt>
      <trkpt lat="39.3522821926" lon="-6.3370931335">
        <ele>398.12</ele>
        <time>2020-07-13T12:38:45Z</time>
      </trkpt>
      <trkpt lat="39.3527118489" lon="-6.3372402359">
        <ele>397.16</ele>
        <time>2020-07-13T12:38:55Z</time>
      </trkpt>
      <trkpt lat="39.3531601131" lon="-6.3373935409">
        <ele>395.72</ele>
        <time>2020-07-13T12:39:05Z</time>
      </trkpt>
      <trkpt lat="39.3536901847" lon="-6.3375783619">
        <ele>394.76</ele>
        <time>2020-07-13T12:39:16Z</time>
      </trkpt>
      <trkpt lat="39.3541340064" lon="-6.3377289847">
        <ele>393.32</ele>
        <time>2020-07-13T12:39:25Z</time>
      </trkpt>
      <trkpt lat="39.3547679298" lon="-6.3379422203">
        <ele>391.87</ele>
        <time>2020-07-13T12:39:38Z</time>
      </trkpt>
      <trkpt lat="39.3549652398" lon="-6.3380105328">
        <ele>391.39</ele>
        <time>2020-07-13T12:39:42Z</time>
      </trkpt>
      <trkpt lat="39.3550175428" lon="-6.3380294759">
        <ele>391.39</ele>
        <time>2020-07-13T12:39:43Z</time>
      </trkpt>
      <trkpt lat="39.3555284198" lon="-6.3381163124">
        <ele>390.91</ele>
        <time>2020-07-13T12:39:53Z</time>
      </trkpt>
      <trkpt lat="39.3558691442" lon="-6.3381217606">
        <ele>391.39</ele>
        <time>2020-07-13T12:40:01Z</time>
      </trkpt>
      <trkpt lat="39.3562066834" lon="-6.3380542025">
        <ele>391.87</ele>
        <time>2020-07-13T12:40:10Z</time>
      </trkpt>
      <trkpt lat="39.3565962743" lon="-6.3379273005">
        <ele>393.32</ele>
        <time>2020-07-13T12:40:21Z</time>
      </trkpt>
      <trkpt lat="39.3568505812" lon="-6.3378161564">
        <ele>393.80</ele>
        <time>2020-07-13T12:40:29Z</time>
      </trkpt>
      <trkpt lat="39.3571610469" lon="-6.3376895059">
        <ele>394.76</ele>
        <time>2020-07-13T12:40:39Z</time>
      </trkpt>
      <trkpt lat="39.3575246539" lon="-6.3375731651">
        <ele>395.72</ele>
        <time>2020-07-13T12:40:51Z</time>
      </trkpt>
      <trkpt lat="39.3578332756" lon="-6.3375155814">
        <ele>397.16</ele>
        <time>2020-07-13T12:41:01Z</time>
      </trkpt>
      <trkpt lat="39.3581491895" lon="-6.3375082053">
        <ele>397.16</ele>
        <time>2020-07-13T12:41:11Z</time>
      </trkpt>
      <trkpt lat="39.3584190868" lon="-6.3375310879">
        <ele>398.12</ele>
        <time>2020-07-13T12:41:20Z</time>
      </trkpt>
      <trkpt lat="39.3586855475" lon="-6.3375921082">
        <ele>398.12</ele>
        <time>2020-07-13T12:41:29Z</time>
      </trkpt>
      <trkpt lat="39.3588292971" lon="-6.3376301620">
        <ele>398.60</ele>
        <time>2020-07-13T12:41:36Z</time>
      </trkpt>
      <trkpt lat="39.3588337395" lon="-6.3376360293">
        <ele>398.12</ele>
        <time>2020-07-13T12:41:45Z</time>
      </trkpt>
      <trkpt lat="39.3589239288" lon="-6.3376803696">
        <ele>398.12</ele>
        <time>2020-07-13T12:41:52Z</time>
      </trkpt>
      <trkpt lat="39.3590333965" lon="-6.3377359416">
        <ele>397.64</ele>
        <time>2020-07-13T12:42:00Z</time>
      </trkpt>
      <trkpt lat="39.3590581231" lon="-6.3377503585">
        <ele>398.12</ele>
        <time>2020-07-13T12:42:02Z</time>
      </trkpt>
      <trkpt lat="39.3592424411" lon="-6.3378515281">
        <ele>397.64</ele>
        <time>2020-07-13T12:42:11Z</time>
      </trkpt>
      <trkpt lat="39.3594965804" lon="-6.3380220160">
        <ele>397.64</ele>
        <time>2020-07-13T12:42:20Z</time>
      </trkpt>
      <trkpt lat="39.3598031905" lon="-6.3382823579">
        <ele>397.16</ele>
        <time>2020-07-13T12:42:30Z</time>
      </trkpt>
      <trkpt lat="39.3601004966" lon="-6.3385833520">
        <ele>397.16</ele>
        <time>2020-07-13T12:42:40Z</time>
      </trkpt>
      <trkpt lat="39.3603166658" lon="-6.3388245832">
        <ele>397.64</ele>
        <time>2020-07-13T12:42:48Z</time>
      </trkpt>
      <trkpt lat="39.3605957832" lon="-6.3391305227">
        <ele>397.16</ele>
        <time>2020-07-13T12:42:59Z</time>
      </trkpt>
      <trkpt lat="39.3608103599" lon="-6.3393588457">
        <ele>396.68</ele>
        <time>2020-07-13T12:43:07Z</time>
      </trkpt>
      <trkpt lat="39.3610716239" lon="-6.3396534696">
        <ele>395.24</ele>
        <time>2020-07-13T12:43:15Z</time>
      </trkpt>
      <trkpt lat="39.3615077343" lon="-6.3400801085">
        <ele>393.32</ele>
        <time>2020-07-13T12:43:25Z</time>
      </trkpt>
      <trkpt lat="39.3620606884" lon="-6.3404403627">
        <ele>391.39</ele>
        <time>2020-07-13T12:43:35Z</time>
      </trkpt>
      <trkpt lat="39.3628303986" lon="-6.3407179713">
        <ele>388.51</ele>
        <time>2020-07-13T12:43:47Z</time>
      </trkpt>
      <trkpt lat="39.3636027910" lon="-6.3409875333">
        <ele>386.11</ele>
        <time>2020-07-13T12:43:59Z</time>
      </trkpt>
      <trkpt lat="39.3643896841" lon="-6.3412592746">
        <ele>383.22</ele>
        <time>2020-07-13T12:44:11Z</time>
      </trkpt>
      <trkpt lat="39.3652562890" lon="-6.3415577542">
        <ele>380.82</ele>
        <time>2020-07-13T12:44:23Z</time>
      </trkpt>
      <trkpt lat="39.3658125959" lon="-6.3417511247">
        <ele>380.82</ele>
        <time>2020-07-13T12:44:32Z</time>
      </trkpt>
      <trkpt lat="39.3663839903" lon="-6.3419469260">
        <ele>380.34</ele>
        <time>2020-07-13T12:44:43Z</time>
      </trkpt>
      <trkpt lat="39.3667756766" lon="-6.3420844730">
        <ele>380.34</ele>
        <time>2020-07-13T12:44:52Z</time>
      </trkpt>
      <trkpt lat="39.3672407884" lon="-6.3422454894">
        <ele>380.34</ele>
        <time>2020-07-13T12:45:04Z</time>
      </trkpt>
      <trkpt lat="39.3675357476" lon="-6.3423482515">
        <ele>380.34</ele>
        <time>2020-07-13T12:45:13Z</time>
      </trkpt>
      <trkpt lat="39.3679257575" lon="-6.3424828649">
        <ele>380.34</ele>
        <time>2020-07-13T12:45:23Z</time>
      </trkpt>
      <trkpt lat="39.3683469482" lon="-6.3426256087">
        <ele>380.82</ele>
        <time>2020-07-13T12:45:34Z</time>
      </trkpt>
      <trkpt lat="39.3687382992" lon="-6.3427608926">
        <ele>380.82</ele>
        <time>2020-07-13T12:45:44Z</time>
      </trkpt>
      <trkpt lat="39.3691528682" lon="-6.3428980205">
        <ele>380.82</ele>
        <time>2020-07-13T12:45:55Z</time>
      </trkpt>
      <trkpt lat="39.3693441432" lon="-6.3429586217">
        <ele>380.82</ele>
        <time>2020-07-13T12:46:00Z</time>
      </trkpt>
      <trkpt lat="39.3697239272" lon="-6.3430936541">
        <ele>381.30</ele>
        <time>2020-07-13T12:46:10Z</time>
      </trkpt>
      <trkpt lat="39.3700609636" lon="-6.3432094920">
        <ele>381.30</ele>
        <time>2020-07-13T12:46:19Z</time>
      </trkpt>
      <trkpt lat="39.3704176135" lon="-6.3433379866">
        <ele>381.78</ele>
        <time>2020-07-13T12:46:29Z</time>
      </trkpt>
      <trkpt lat="39.3708117306" lon="-6.3434755336">
        <ele>381.78</ele>
        <time>2020-07-13T12:46:40Z</time>
      </trkpt>
      <trkpt lat="39.3713128008" lon="-6.3436497934">
        <ele>382.26</ele>
        <time>2020-07-13T12:46:54Z</time>
      </trkpt>
      <trkpt lat="39.3717220053" lon="-6.3437898550">
        <ele>382.74</ele>
        <time>2020-07-13T12:47:06Z</time>
      </trkpt>
      <trkpt lat="39.3721130211" lon="-6.3439230435">
        <ele>383.70</ele>
        <time>2020-07-13T12:47:18Z</time>
      </trkpt>
      <trkpt lat="39.3725041207" lon="-6.3440564834">
        <ele>384.18</ele>
        <time>2020-07-13T12:47:30Z</time>
      </trkpt>
      <trkpt lat="39.3728811387" lon="-6.3441884145">
        <ele>385.15</ele>
        <time>2020-07-13T12:47:41Z</time>
      </trkpt>
      <trkpt lat="39.3733242899" lon="-6.3443377800">
        <ele>385.63</ele>
        <time>2020-07-13T12:47:53Z</time>
      </trkpt>
      <trkpt lat="39.3736881483" lon="-6.3444617484">
        <ele>385.63</ele>
        <time>2020-07-13T12:48:03Z</time>
      </trkpt>
      <trkpt lat="39.3740498275" lon="-6.3445875607">
        <ele>386.11</ele>
        <time>2020-07-13T12:48:14Z</time>
      </trkpt>
      <trkpt lat="39.3744301144" lon="-6.3447240181">
        <ele>386.11</ele>
        <time>2020-07-13T12:48:27Z</time>
      </trkpt>
      <trkpt lat="39.3747531530" lon="-6.3448348269">
        <ele>386.59</ele>
        <time>2020-07-13T12:48:39Z</time>
      </trkpt>
      <trkpt lat="39.3751013372" lon="-6.3449504972">
        <ele>387.55</ele>
        <time>2020-07-13T12:48:52Z</time>
      </trkpt>
      <trkpt lat="39.3753466755" lon="-6.3450333104">
        <ele>388.51</ele>
        <time>2020-07-13T12:49:01Z</time>
      </trkpt>
      <trkpt lat="39.3757483363" lon="-6.3451705221">
        <ele>388.99</ele>
        <time>2020-07-13T12:49:16Z</time>
      </trkpt>
      <trkpt lat="39.3761291262" lon="-6.3452960830">
        <ele>389.47</ele>
        <time>2020-07-13T12:49:30Z</time>
      </trkpt>
      <trkpt lat="39.3764554337" lon="-6.3454136811">
        <ele>390.43</ele>
        <time>2020-07-13T12:49:42Z</time>
      </trkpt>
      <trkpt lat="39.3766836729" lon="-6.3455000147">
        <ele>390.91</ele>
        <time>2020-07-13T12:49:51Z</time>
      </trkpt>
      <trkpt lat="39.3768680748" lon="-6.3455148507">
        <ele>391.39</ele>
        <time>2020-07-13T12:49:59Z</time>
      </trkpt>
      <trkpt lat="39.3768820725" lon="-6.3454899564">
        <ele>391.87</ele>
        <time>2020-07-13T12:50:00Z</time>
      </trkpt>
      <trkpt lat="39.3768882751" lon="-6.3454721868">
        <ele>391.87</ele>
        <time>2020-07-13T12:50:01Z</time>
      </trkpt>
      <trkpt lat="39.3768913765" lon="-6.3454529084">
        <ele>391.87</ele>
        <time>2020-07-13T12:50:02Z</time>
      </trkpt>
      <trkpt lat="39.3768928852" lon="-6.3454288524">
        <ele>391.39</ele>
        <time>2020-07-13T12:50:08Z</time>
      </trkpt>
      <trkpt lat="39.3769047875" lon="-6.3454360608">
        <ele>390.43</ele>
        <time>2020-07-13T12:50:27Z</time>
      </trkpt>
      <trkpt lat="39.3768817373" lon="-6.3454291038">
        <ele>390.43</ele>
        <time>2020-07-13T12:50:55Z</time>
      </trkpt>
      <trkpt lat="39.3768922985" lon="-6.3454440236">
        <ele>390.91</ele>
        <time>2020-07-13T12:51:20Z</time>
      </trkpt>
      <trkpt lat="39.3769019376" lon="-6.3454434369">
        <ele>389.95</ele>
        <time>2020-07-13T12:51:37Z</time>
      </trkpt>
      <trkpt lat="39.3769083917" lon="-6.3454421796">
        <ele>390.91</ele>
        <time>2020-07-13T12:51:48Z</time>
      </trkpt>
      <trkpt lat="39.3769030273" lon="-6.3454305287">
        <ele>389.95</ele>
        <time>2020-07-13T12:52:14Z</time>
      </trkpt>
      <trkpt lat="39.3768931367" lon="-6.3454420958">
        <ele>388.51</ele>
        <time>2020-07-13T12:52:40Z</time>
      </trkpt>
      <trkpt lat="39.3768985849" lon="-6.3454283495">
        <ele>389.47</ele>
        <time>2020-07-13T12:52:48Z</time>
      </trkpt>
      <trkpt lat="39.3769202102" lon="-6.3454557583">
        <ele>389.47</ele>
        <time>2020-07-13T12:52:54Z</time>
      </trkpt>
      <trkpt lat="39.3769267481" lon="-6.3455454446">
        <ele>389.95</ele>
        <time>2020-07-13T12:52:59Z</time>
      </trkpt>
      <trkpt lat="39.3769377284" lon="-6.3455626275">
        <ele>389.95</ele>
        <time>2020-07-13T12:53:00Z</time>
      </trkpt>
      <trkpt lat="39.3769515585" lon="-6.3455726020">
        <ele>390.43</ele>
        <time>2020-07-13T12:53:01Z</time>
      </trkpt>
      <trkpt lat="39.3769663107" lon="-6.3455744460">
        <ele>390.91</ele>
        <time>2020-07-13T12:53:07Z</time>
      </trkpt>
      <trkpt lat="39.3769666459" lon="-6.3455747813">
        <ele>391.87</ele>
        <time>2020-07-13T12:53:15Z</time>
      </trkpt>
      <trkpt lat="39.3769693282" lon="-6.3455834147">
        <ele>391.39</ele>
        <time>2020-07-13T12:53:34Z</time>
      </trkpt>
      <trkpt lat="39.3769746926" lon="-6.3455860130">
        <ele>390.91</ele>
        <time>2020-07-13T12:53:53Z</time>
      </trkpt>
      <trkpt lat="39.3769776262" lon="-6.3455881923">
        <ele>390.91</ele>
        <time>2020-07-13T12:53:59Z</time>
      </trkpt>
      <trkpt lat="39.3769933004" lon="-6.3456073869">
        <ele>390.91</ele>
        <time>2020-07-13T12:54:04Z</time>
      </trkpt>
      <trkpt lat="39.3770088069" lon="-6.3456142601">
        <ele>390.91</ele>
        <time>2020-07-13T12:54:05Z</time>
      </trkpt>
      <trkpt lat="39.3770267442" lon="-6.3456194568">
        <ele>391.39</ele>
        <time>2020-07-13T12:54:06Z</time>
      </trkpt>
      <trkpt lat="39.3772550672" lon="-6.3456906192">
        <ele>391.87</ele>
        <time>2020-07-13T12:54:15Z</time>
      </trkpt>
      <trkpt lat="39.3776092865" lon="-6.3458189461">
        <ele>392.36</ele>
        <time>2020-07-13T12:54:27Z</time>
      </trkpt>
      <trkpt lat="39.3779182434" lon="-6.3459211215">
        <ele>392.84</ele>
        <time>2020-07-13T12:54:38Z</time>
      </trkpt>
      <trkpt lat="39.3780808523" lon="-6.3459939603">
        <ele>393.32</ele>
        <time>2020-07-13T12:54:45Z</time>
      </trkpt>
      <trkpt lat="39.3780925870" lon="-6.3460196089">
        <ele>393.32</ele>
        <time>2020-07-13T12:54:46Z</time>
      </trkpt>
      <trkpt lat="39.3780984543" lon="-6.3460467663">
        <ele>393.32</ele>
        <time>2020-07-13T12:54:47Z</time>
      </trkpt>
      <trkpt lat="39.3780995440" lon="-6.3460752647">
        <ele>393.32</ele>
        <time>2020-07-13T12:54:48Z</time>
      </trkpt>
      <trkpt lat="39.3780992925" lon="-6.3461082894">
        <ele>393.32</ele>
        <time>2020-07-13T12:54:49Z</time>
      </trkpt>
      <trkpt lat="39.3780735601" lon="-6.3463045936">
        <ele>392.84</ele>
        <time>2020-07-13T12:54:56Z</time>
      </trkpt>
      <trkpt lat="39.3780846242" lon="-6.3463330921">
        <ele>392.84</ele>
        <time>2020-07-13T12:54:57Z</time>
      </trkpt>
      <trkpt lat="39.3780977838" lon="-6.3463596627">
        <ele>392.84</ele>
        <time>2020-07-13T12:54:58Z</time>
      </trkpt>
      <trkpt lat="39.3781199958" lon="-6.3464170787">
        <ele>392.84</ele>
        <time>2020-07-13T12:55:01Z</time>
      </trkpt>
      <trkpt lat="39.3781136256" lon="-6.3464925159">
        <ele>391.87</ele>
        <time>2020-07-13T12:55:08Z</time>
      </trkpt>
      <trkpt lat="39.3781175651" lon="-6.3465029933">
        <ele>392.84</ele>
        <time>2020-07-13T12:55:17Z</time>
      </trkpt>
      <trkpt lat="39.3781075906" lon="-6.3465065975">
        <ele>393.80</ele>
        <time>2020-07-13T12:55:26Z</time>
      </trkpt>
      <trkpt lat="39.3781046569" lon="-6.3465061784">
        <ele>394.28</ele>
        <time>2020-07-13T12:55:39Z</time>
      </trkpt>
      <trkpt lat="39.3780982029" lon="-6.3464985508">
        <ele>393.80</ele>
        <time>2020-07-13T12:55:52Z</time>
      </trkpt>
      <trkpt lat="39.3781032320" lon="-6.3464989699">
        <ele>393.32</ele>
        <time>2020-07-13T12:56:06Z</time>
      </trkpt>
      <trkpt lat="39.3781065848" lon="-6.3464994729">
        <ele>392.36</ele>
        <time>2020-07-13T12:56:23Z</time>
      </trkpt>
      <trkpt lat="39.3780985381" lon="-6.3464905042">
        <ele>392.36</ele>
        <time>2020-07-13T12:56:38Z</time>
      </trkpt>
      <trkpt lat="39.3780907430" lon="-6.3464936893">
        <ele>392.36</ele>
        <time>2020-07-13T12:56:52Z</time>
      </trkpt>
      <trkpt lat="39.3780965265" lon="-6.3465070166">
        <ele>393.32</ele>
        <time>2020-07-13T12:57:07Z</time>
      </trkpt>
      <trkpt lat="39.3781034835" lon="-6.3465054240">
        <ele>394.28</ele>
        <time>2020-07-13T12:57:19Z</time>
      </trkpt>
      <trkpt lat="39.3780978676" lon="-6.3464960363">
        <ele>393.80</ele>
        <time>2020-07-13T12:57:32Z</time>
      </trkpt>
      <trkpt lat="39.3781018909" lon="-6.3464910071">
        <ele>393.32</ele>
        <time>2020-07-13T12:57:49Z</time>
      </trkpt>
      <trkpt lat="39.3781003822" lon="-6.3464983832">
        <ele>394.28</ele>
        <time>2020-07-13T12:58:06Z</time>
      </trkpt>
      <trkpt lat="39.3780952692" lon="-6.3465089444">
        <ele>393.80</ele>
        <time>2020-07-13T12:58:22Z</time>
      </trkpt>
      <trkpt lat="39.3781090993" lon="-6.3465205114">
        <ele>392.84</ele>
        <time>2020-07-13T12:58:36Z</time>
      </trkpt>
      <trkpt lat="39.3780994602" lon="-6.3465478364">
        <ele>392.84</ele>
        <time>2020-07-13T12:58:47Z</time>
      </trkpt>
      <trkpt lat="39.3780986220" lon="-6.3465620857">
        <ele>392.36</ele>
        <time>2020-07-13T12:58:55Z</time>
      </trkpt>
      <trkpt lat="39.3781076744" lon="-6.3465763349">
        <ele>389.95</ele>
        <time>2020-07-13T12:59:16Z</time>
      </trkpt>
      <trkpt lat="39.3781127036" lon="-6.3465687074">
        <ele>390.43</ele>
        <time>2020-07-13T12:59:32Z</time>
      </trkpt>
      <trkpt lat="39.3781023938" lon="-6.3465977088">
        <ele>390.43</ele>
        <time>2020-07-13T12:59:40Z</time>
      </trkpt>
      <trkpt lat="39.3780951854" lon="-6.3466099463">
        <ele>390.91</ele>
        <time>2020-07-13T12:59:41Z</time>
      </trkpt>
      <trkpt lat="39.3780319020" lon="-6.3466175739">
        <ele>390.43</ele>
        <time>2020-07-13T12:59:46Z</time>
      </trkpt>
      <trkpt lat="39.3779940158" lon="-6.3465076871">
        <ele>390.43</ele>
        <time>2020-07-13T12:59:50Z</time>
      </trkpt>
      <trkpt lat="39.3780383561" lon="-6.3462382928">
        <ele>390.91</ele>
        <time>2020-07-13T12:59:58Z</time>
      </trkpt>
      <trkpt lat="39.3780543655" lon="-6.3460975606">
        <ele>391.87</ele>
        <time>2020-07-13T13:00:04Z</time>
      </trkpt>
      <trkpt lat="39.3780774157" lon="-6.3460443355">
        <ele>391.87</ele>
        <time>2020-07-13T13:00:06Z</time>
      </trkpt>
      <trkpt lat="39.3781023100" lon="-6.3460237999">
        <ele>391.87</ele>
        <time>2020-07-13T13:00:07Z</time>
      </trkpt>
      <trkpt lat="39.3781246897" lon="-6.3460150827">
        <ele>391.87</ele>
        <time>2020-07-13T13:00:08Z</time>
      </trkpt>
      <trkpt lat="39.3781531882" lon="-6.3460106403">
        <ele>392.36</ele>
        <time>2020-07-13T13:00:09Z</time>
      </trkpt>
      <trkpt lat="39.3781821895" lon="-6.3460135739">
        <ele>392.36</ele>
        <time>2020-07-13T13:00:10Z</time>
      </trkpt>
      <trkpt lat="39.3782118615" lon="-6.3460202795">
        <ele>392.36</ele>
        <time>2020-07-13T13:00:11Z</time>
      </trkpt>
      <trkpt lat="39.3785769772" lon="-6.3461466786">
        <ele>393.80</ele>
        <time>2020-07-13T13:00:24Z</time>
      </trkpt>
      <trkpt lat="39.3788483832" lon="-6.3462454174">
        <ele>394.28</ele>
        <time>2020-07-13T13:00:34Z</time>
      </trkpt>
      <trkpt lat="39.3791383971" lon="-6.3463487662">
        <ele>394.28</ele>
        <time>2020-07-13T13:00:45Z</time>
      </trkpt>
      <trkpt lat="39.3794508744" lon="-6.3464506064">
        <ele>393.80</ele>
        <time>2020-07-13T13:00:56Z</time>
      </trkpt>
      <trkpt lat="39.3797801994" lon="-6.3465678692">
        <ele>393.80</ele>
        <time>2020-07-13T13:01:07Z</time>
      </trkpt>
      <trkpt lat="39.3801017292" lon="-6.3466841262">
        <ele>393.80</ele>
        <time>2020-07-13T13:01:18Z</time>
      </trkpt>
      <trkpt lat="39.3804683536" lon="-6.3468041550">
        <ele>393.80</ele>
        <time>2020-07-13T13:01:31Z</time>
      </trkpt>
      <trkpt lat="39.3807578646" lon="-6.3469058275">
        <ele>393.80</ele>
        <time>2020-07-13T13:01:41Z</time>
      </trkpt>
      <trkpt lat="39.3810410053" lon="-6.3470064104">
        <ele>394.28</ele>
        <time>2020-07-13T13:01:51Z</time>
      </trkpt>
      <trkpt lat="39.3812990841" lon="-6.3470913190">
        <ele>394.28</ele>
        <time>2020-07-13T13:02:00Z</time>
      </trkpt>
      <trkpt lat="39.3815487809" lon="-6.3471825980">
        <ele>394.28</ele>
        <time>2020-07-13T13:02:09Z</time>
      </trkpt>
      <trkpt lat="39.3817874976" lon="-6.3472680096">
        <ele>394.76</ele>
        <time>2020-07-13T13:02:18Z</time>
      </trkpt>
      <trkpt lat="39.3820158206" lon="-6.3473364897">
        <ele>395.24</ele>
        <time>2020-07-13T13:02:27Z</time>
      </trkpt>
      <trkpt lat="39.3822742347" lon="-6.3474335521">
        <ele>395.72</ele>
        <time>2020-07-13T13:02:37Z</time>
      </trkpt>
      <trkpt lat="39.3825680204" lon="-6.3475332968">
        <ele>396.68</ele>
        <time>2020-07-13T13:02:48Z</time>
      </trkpt>
      <trkpt lat="39.3828918133" lon="-6.3476477936">
        <ele>396.68</ele>
        <time>2020-07-13T13:03:00Z</time>
      </trkpt>
      <trkpt lat="39.3831650633" lon="-6.3477445208">
        <ele>397.64</ele>
        <time>2020-07-13T13:03:10Z</time>
      </trkpt>
      <trkpt lat="39.3835463561" lon="-6.3478710037">
        <ele>397.64</ele>
        <time>2020-07-13T13:03:25Z</time>
      </trkpt>
      <trkpt lat="39.3836684804" lon="-6.3479191996">
        <ele>398.12</ele>
        <time>2020-07-13T13:03:33Z</time>
      </trkpt>
      <trkpt lat="39.3838811293" lon="-6.3479877636">
        <ele>398.60</ele>
        <time>2020-07-13T13:03:42Z</time>
      </trkpt>
      <trkpt lat="39.3841531221" lon="-6.3480888493">
        <ele>399.57</ele>
        <time>2020-07-13T13:03:53Z</time>
      </trkpt>
      <trkpt lat="39.3843728118" lon="-6.3481999096">
        <ele>400.05</ele>
        <time>2020-07-13T13:04:02Z</time>
      </trkpt>
      <trkpt lat="39.3845917471" lon="-6.3483255543">
        <ele>400.05</ele>
        <time>2020-07-13T13:04:11Z</time>
      </trkpt>
      <trkpt lat="39.3848136999" lon="-6.3485087827">
        <ele>400.53</ele>
        <time>2020-07-13T13:04:21Z</time>
      </trkpt>
      <trkpt lat="39.3850318808" lon="-6.3487076852">
        <ele>401.49</ele>
        <time>2020-07-13T13:04:31Z</time>
      </trkpt>
      <trkpt lat="39.3852187134" lon="-6.3489142992">
        <ele>401.49</ele>
        <time>2020-07-13T13:04:40Z</time>
      </trkpt>
      <trkpt lat="39.3854016904" lon="-6.3491661754">
        <ele>402.45</ele>
        <time>2020-07-13T13:04:50Z</time>
      </trkpt>
      <trkpt lat="39.3855746929" lon="-6.3494493160">
        <ele>403.41</ele>
        <time>2020-07-13T13:05:00Z</time>
      </trkpt>
      <trkpt lat="39.3857458513" lon="-6.3497599494">
        <ele>404.37</ele>
        <time>2020-07-13T13:05:10Z</time>
      </trkpt>
      <trkpt lat="39.3859393895" lon="-6.3500903640">
        <ele>405.33</ele>
        <time>2020-07-13T13:05:21Z</time>
      </trkpt>
      <trkpt lat="39.3860870786" lon="-6.3503025100">
        <ele>405.81</ele>
        <time>2020-07-13T13:05:29Z</time>
      </trkpt>
      <trkpt lat="39.3862853944" lon="-6.3504806254">
        <ele>406.77</ele>
        <time>2020-07-13T13:05:38Z</time>
      </trkpt>
      <trkpt lat="39.3865101133" lon="-6.3504834753">
        <ele>407.26</ele>
        <time>2020-07-13T13:05:46Z</time>
      </trkpt>
      <trkpt lat="39.3867684435" lon="-6.3505050167">
        <ele>407.74</ele>
        <time>2020-07-13T13:05:55Z</time>
      </trkpt>
      <trkpt lat="39.3869328965" lon="-6.3506650273">
        <ele>407.74</ele>
        <time>2020-07-13T13:06:02Z</time>
      </trkpt>
      <trkpt lat="39.3870817591" lon="-6.3508712221">
        <ele>407.26</ele>
        <time>2020-07-13T13:06:09Z</time>
      </trkpt>
      <trkpt lat="39.3872509059" lon="-6.3509329129">
        <ele>407.26</ele>
        <time>2020-07-13T13:06:15Z</time>
      </trkpt>
      <trkpt lat="39.3875114154" lon="-6.3509288896">
        <ele>407.74</ele>
        <time>2020-07-13T13:06:24Z</time>
      </trkpt>
      <trkpt lat="39.3878222164" lon="-6.3509286381">
        <ele>408.22</ele>
        <time>2020-07-13T13:06:34Z</time>
      </trkpt>
      <trkpt lat="39.3880868331" lon="-6.3509288896">
        <ele>409.18</ele>
        <time>2020-07-13T13:06:43Z</time>
      </trkpt>
      <trkpt lat="39.3884359393" lon="-6.3509326614">
        <ele>410.62</ele>
        <time>2020-07-13T13:06:55Z</time>
      </trkpt>
      <trkpt lat="39.3887342513" lon="-6.3509399537">
        <ele>411.58</ele>
        <time>2020-07-13T13:07:06Z</time>
      </trkpt>
      <trkpt lat="39.3890494108" lon="-6.3509340025">
        <ele>412.54</ele>
        <time>2020-07-13T13:07:18Z</time>
      </trkpt>
      <trkpt lat="39.3893423583" lon="-6.3509420492">
        <ele>412.54</ele>
        <time>2020-07-13T13:07:28Z</time>
      </trkpt>
      <trkpt lat="39.3896331266" lon="-6.3509434741">
        <ele>412.06</ele>
        <time>2020-07-13T13:07:36Z</time>
      </trkpt>
      <trkpt lat="39.3900545686" lon="-6.3509509340">
        <ele>410.14</ele>
        <time>2020-07-13T13:07:44Z</time>
      </trkpt>
      <trkpt lat="39.3908018991" lon="-6.3509483356">
        <ele>408.70</ele>
        <time>2020-07-13T13:07:56Z</time>
      </trkpt>
      <trkpt lat="39.3908533640" lon="-6.3509357627">
        <ele>409.18</ele>
        <time>2020-07-13T13:07:57Z</time>
      </trkpt>
      <trkpt lat="39.3909030687" lon="-6.3509122096">
        <ele>409.18</ele>
        <time>2020-07-13T13:07:58Z</time>
      </trkpt>
      <trkpt lat="39.3909516837" lon="-6.3508765027">
        <ele>409.18</ele>
        <time>2020-07-13T13:07:59Z</time>
      </trkpt>
      <trkpt lat="39.3909860495" lon="-6.3508423045">
        <ele>409.18</ele>
        <time>2020-07-13T13:08:00Z</time>
      </trkpt>
      <trkpt lat="39.3910212535" lon="-6.3507951144">
        <ele>409.18</ele>
        <time>2020-07-13T13:08:01Z</time>
      </trkpt>
      <trkpt lat="39.3910432979" lon="-6.3507563062">
        <ele>409.18</ele>
        <time>2020-07-13T13:08:02Z</time>
      </trkpt>
      <trkpt lat="39.3910612352" lon="-6.3507203478">
        <ele>409.18</ele>
        <time>2020-07-13T13:08:03Z</time>
      </trkpt>
      <trkpt lat="39.3912346568" lon="-6.3505303301">
        <ele>409.66</ele>
        <time>2020-07-13T13:08:10Z</time>
      </trkpt>
      <trkpt lat="39.3914485630" lon="-6.3504868280">
        <ele>409.66</ele>
        <time>2020-07-13T13:08:17Z</time>
      </trkpt>
      <trkpt lat="39.3916535843" lon="-6.3506112993">
        <ele>409.18</ele>
        <time>2020-07-13T13:08:25Z</time>
      </trkpt>
      <trkpt lat="39.3918378185" lon="-6.3508578949">
        <ele>408.70</ele>
        <time>2020-07-13T13:08:33Z</time>
      </trkpt>
      <trkpt lat="39.3920496292" lon="-6.3509523589">
        <ele>408.70</ele>
        <time>2020-07-13T13:08:40Z</time>
      </trkpt>
      <trkpt lat="39.3923336919" lon="-6.3510024827">
        <ele>409.66</ele>
        <time>2020-07-13T13:08:49Z</time>
      </trkpt>
      <trkpt lat="39.3926288188" lon="-6.3510657661">
        <ele>410.62</ele>
        <time>2020-07-13T13:08:58Z</time>
      </trkpt>
      <trkpt lat="39.3929855525" lon="-6.3511730544">
        <ele>410.14</ele>
        <time>2020-07-13T13:09:09Z</time>
      </trkpt>
      <trkpt lat="39.3933986966" lon="-6.3513131160">
        <ele>409.66</ele>
        <time>2020-07-13T13:09:22Z</time>
      </trkpt>
      <trkpt lat="39.3937418517" lon="-6.3514251821">
        <ele>410.14</ele>
        <time>2020-07-13T13:09:33Z</time>
      </trkpt>
      <trkpt lat="39.3940475397" lon="-6.3515343983">
        <ele>410.14</ele>
        <time>2020-07-13T13:09:43Z</time>
      </trkpt>
      <trkpt lat="39.3943101447" lon="-6.3516292814">
        <ele>410.62</ele>
        <time>2020-07-13T13:09:53Z</time>
      </trkpt>
      <trkpt lat="39.3943292554" lon="-6.3516397588">
        <ele>410.62</ele>
        <time>2020-07-13T13:09:58Z</time>
      </trkpt>
      <trkpt lat="39.3943236396" lon="-6.3516378310">
        <ele>411.10</ele>
        <time>2020-07-13T13:10:13Z</time>
      </trkpt>
      <trkpt lat="39.3943273276" lon="-6.3516372442">
        <ele>410.62</ele>
        <time>2020-07-13T13:10:26Z</time>
      </trkpt>
      <trkpt lat="39.3943217117" lon="-6.3516351487">
        <ele>411.58</ele>
        <time>2020-07-13T13:10:42Z</time>
      </trkpt>
      <trkpt lat="39.3943827320" lon="-6.3516660780">
        <ele>411.58</ele>
        <time>2020-07-13T13:10:54Z</time>
      </trkpt>
      <trkpt lat="39.3944940437" lon="-6.3517195545">
        <ele>411.10</ele>
        <time>2020-07-13T13:10:59Z</time>
      </trkpt>
      <trkpt lat="39.3946704827" lon="-6.3517772220">
        <ele>411.10</ele>
        <time>2020-07-13T13:11:05Z</time>
      </trkpt>
      <trkpt lat="39.3950608280" lon="-6.3519228995">
        <ele>411.10</ele>
        <time>2020-07-13T13:11:17Z</time>
      </trkpt>
      <trkpt lat="39.3954456411" lon="-6.3520829100">
        <ele>411.58</ele>
        <time>2020-07-13T13:11:29Z</time>
      </trkpt>
      <trkpt lat="39.3957544304" lon="-6.3522042800">
        <ele>412.06</ele>
        <time>2020-07-13T13:11:39Z</time>
      </trkpt>
      <trkpt lat="39.3960468750" lon="-6.3523264881">
        <ele>413.02</ele>
        <time>2020-07-13T13:11:49Z</time>
      </trkpt>
      <trkpt lat="39.3962710910" lon="-6.3524219580">
        <ele>413.50</ele>
        <time>2020-07-13T13:11:57Z</time>
      </trkpt>
      <trkpt lat="39.3966371287" lon="-6.3525534701">
        <ele>414.95</ele>
        <time>2020-07-13T13:12:10Z</time>
      </trkpt>
      <trkpt lat="39.3969344348" lon="-6.3526402228">
        <ele>415.91</ele>
        <time>2020-07-13T13:12:21Z</time>
      </trkpt>
      <trkpt lat="39.3971827906" lon="-6.3526860718">
        <ele>416.87</ele>
        <time>2020-07-13T13:12:30Z</time>
      </trkpt>
      <trkpt lat="39.3975399435" lon="-6.3527153246">
        <ele>417.83</ele>
        <time>2020-07-13T13:12:42Z</time>
      </trkpt>
      <trkpt lat="39.3978551868" lon="-6.3527140673">
        <ele>418.31</ele>
        <time>2020-07-13T13:12:53Z</time>
      </trkpt>
      <trkpt lat="39.3981312867" lon="-6.3526939508">
        <ele>418.79</ele>
        <time>2020-07-13T13:13:03Z</time>
      </trkpt>
      <trkpt lat="39.3984337058" lon="-6.3526601717">
        <ele>419.27</ele>
        <time>2020-07-13T13:13:14Z</time>
      </trkpt>
      <trkpt lat="39.3987469375" lon="-6.3526071981">
        <ele>420.71</ele>
        <time>2020-07-13T13:13:26Z</time>
      </trkpt>
      <trkpt lat="39.3989874981" lon="-6.3525646180">
        <ele>422.16</ele>
        <time>2020-07-13T13:13:36Z</time>
      </trkpt>
      <trkpt lat="39.3991671223" lon="-6.3525348622">
        <ele>423.12</ele>
        <time>2020-07-13T13:13:45Z</time>
      </trkpt>
      <trkpt lat="39.3993367720" lon="-6.3525030948">
        <ele>424.08</ele>
        <time>2020-07-13T13:13:54Z</time>
      </trkpt>
      <trkpt lat="39.3994673621" lon="-6.3524819724">
        <ele>424.56</ele>
        <time>2020-07-13T13:14:01Z</time>
      </trkpt>
      <trkpt lat="39.3996701203" lon="-6.3524627779">
        <ele>425.52</ele>
        <time>2020-07-13T13:14:12Z</time>
      </trkpt>
      <trkpt lat="39.3998881336" lon="-6.3524523005">
        <ele>426.00</ele>
        <time>2020-07-13T13:14:23Z</time>
      </trkpt>
      <trkpt lat="39.4000651594" lon="-6.3524680585">
        <ele>426.48</ele>
        <time>2020-07-13T13:14:32Z</time>
      </trkpt>
      <trkpt lat="39.4002248347" lon="-6.3524999097">
        <ele>426.48</ele>
        <time>2020-07-13T13:14:40Z</time>
      </trkpt>
      <trkpt lat="39.4004424289" lon="-6.3525585830">
        <ele>426.96</ele>
        <time>2020-07-13T13:14:51Z</time>
      </trkpt>
      <trkpt lat="39.4006611966" lon="-6.3526345231">
        <ele>426.48</ele>
        <time>2020-07-13T13:15:02Z</time>
      </trkpt>
      <trkpt lat="39.4008624461" lon="-6.3527227007">
        <ele>426.96</ele>
        <time>2020-07-13T13:15:12Z</time>
      </trkpt>
      <trkpt lat="39.4010511227" lon="-6.3528261334">
        <ele>427.92</ele>
        <time>2020-07-13T13:15:22Z</time>
      </trkpt>
      <trkpt lat="39.4012419786" lon="-6.3529440667">
        <ele>428.40</ele>
        <time>2020-07-13T13:15:32Z</time>
      </trkpt>
      <trkpt lat="39.4014126342" lon="-6.3530849665">
        <ele>428.89</ele>
        <time>2020-07-13T13:15:42Z</time>
      </trkpt>
      <trkpt lat="39.4015446492" lon="-6.3532136288">
        <ele>429.37</ele>
        <time>2020-07-13T13:15:50Z</time>
      </trkpt>
      <trkpt lat="39.4016755745" lon="-6.3533601444">
        <ele>429.37</ele>
        <time>2020-07-13T13:15:58Z</time>
      </trkpt>
      <trkpt lat="39.4018619042" lon="-6.3535744697">
        <ele>429.85</ele>
        <time>2020-07-13T13:16:09Z</time>
      </trkpt>
      <trkpt lat="39.4020177238" lon="-6.3537696842">
        <ele>430.33</ele>
        <time>2020-07-13T13:16:19Z</time>
      </trkpt>
      <trkpt lat="39.4021821767" lon="-6.3539687544">
        <ele>430.81</ele>
        <time>2020-07-13T13:16:29Z</time>
      </trkpt>
      <trkpt lat="39.4023679197" lon="-6.3541808166">
        <ele>431.77</ele>
        <time>2020-07-13T13:16:40Z</time>
      </trkpt>
      <trkpt lat="39.4025558420" lon="-6.3543658052">
        <ele>432.73</ele>
        <time>2020-07-13T13:16:51Z</time>
      </trkpt>
      <trkpt lat="39.4027377293" lon="-6.3545314316">
        <ele>433.21</ele>
        <time>2020-07-13T13:17:01Z</time>
      </trkpt>
      <trkpt lat="39.4029093906" lon="-6.3546545617">
        <ele>433.69</ele>
        <time>2020-07-13T13:17:10Z</time>
      </trkpt>
      <trkpt lat="39.4031289127" lon="-6.3547760993">
        <ele>434.17</ele>
        <time>2020-07-13T13:17:21Z</time>
      </trkpt>
      <trkpt lat="39.4033174217" lon="-6.3548608404">
        <ele>435.61</ele>
        <time>2020-07-13T13:17:30Z</time>
      </trkpt>
      <trkpt lat="39.4034953695" lon="-6.3549286500">
        <ele>437.06</ele>
        <time>2020-07-13T13:17:39Z</time>
      </trkpt>
      <trkpt lat="39.4036767539" lon="-6.3549770135">
        <ele>438.02</ele>
        <time>2020-07-13T13:17:48Z</time>
      </trkpt>
      <trkpt lat="39.4039069209" lon="-6.3550168276">
        <ele>439.94</ele>
        <time>2020-07-13T13:17:59Z</time>
      </trkpt>
      <trkpt lat="39.4041002914" lon="-6.3550181687">
        <ele>439.94</ele>
        <time>2020-07-13T13:18:08Z</time>
      </trkpt>
      <trkpt lat="39.4042851124" lon="-6.3550116308">
        <ele>440.42</ele>
        <time>2020-07-13T13:18:17Z</time>
      </trkpt>
      <trkpt lat="39.4044361543" lon="-6.3549851440">
        <ele>441.38</ele>
        <time>2020-07-13T13:18:25Z</time>
      </trkpt>
      <trkpt lat="39.4046538323" lon="-6.3549562264">
        <ele>441.38</ele>
        <time>2020-07-13T13:18:35Z</time>
      </trkpt>
      <trkpt lat="39.4048593566" lon="-6.3549255487">
        <ele>441.86</ele>
        <time>2020-07-13T13:18:44Z</time>
      </trkpt>
      <trkpt lat="39.4050809741" lon="-6.3548830524">
        <ele>442.82</ele>
        <time>2020-07-13T13:18:53Z</time>
      </trkpt>
      <trkpt lat="39.4053317606" lon="-6.3548401371">
        <ele>443.31</ele>
        <time>2020-07-13T13:19:03Z</time>
      </trkpt>
      <trkpt lat="39.4056503568" lon="-6.3547767699">
        <ele>443.79</ele>
        <time>2020-07-13T13:19:16Z</time>
      </trkpt>
      <trkpt lat="39.4058821164" lon="-6.3547318429">
        <ele>444.75</ele>
        <time>2020-07-13T13:19:26Z</time>
      </trkpt>
      <trkpt lat="39.4060605671" lon="-6.3546991535">
        <ele>445.23</ele>
        <time>2020-07-13T13:19:34Z</time>
      </trkpt>
      <trkpt lat="39.4063228369" lon="-6.3546481077">
        <ele>446.67</ele>
        <time>2020-07-13T13:19:45Z</time>
      </trkpt>
      <trkpt lat="39.4064222462" lon="-6.3546245545">
        <ele>447.63</ele>
        <time>2020-07-13T13:19:53Z</time>
      </trkpt>
      <trkpt lat="39.4064227492" lon="-6.3546199445">
        <ele>447.63</ele>
        <time>2020-07-13T13:20:04Z</time>
      </trkpt>
      <trkpt lat="39.4064188097" lon="-6.3546260633">
        <ele>447.15</ele>
        <time>2020-07-13T13:20:20Z</time>
      </trkpt>
      <trkpt lat="39.4064640719" lon="-6.3546165079">
        <ele>447.63</ele>
        <time>2020-07-13T13:20:32Z</time>
      </trkpt>
      <trkpt lat="39.4066874497" lon="-6.3545744307">
        <ele>448.59</ele>
        <time>2020-07-13T13:20:41Z</time>
      </trkpt>
      <trkpt lat="39.4069495518" lon="-6.3545261510">
        <ele>449.07</ele>
        <time>2020-07-13T13:20:51Z</time>
      </trkpt>
      <trkpt lat="39.4072328601" lon="-6.3544697408">
        <ele>449.55</ele>
        <time>2020-07-13T13:21:02Z</time>
      </trkpt>
      <trkpt lat="39.4075265620" lon="-6.3544175215">
        <ele>450.52</ele>
        <time>2020-07-13T13:21:13Z</time>
      </trkpt>
      <trkpt lat="39.4077564776" lon="-6.3543709181">
        <ele>451.00</ele>
        <time>2020-07-13T13:21:22Z</time>
      </trkpt>
      <trkpt lat="39.4080402888" lon="-6.3543176930">
        <ele>451.96</ele>
        <time>2020-07-13T13:21:33Z</time>
      </trkpt>
      <trkpt lat="39.4082442205" lon="-6.3542757835">
        <ele>452.44</ele>
        <time>2020-07-13T13:21:41Z</time>
      </trkpt>
      <trkpt lat="39.4085357431" lon="-6.3542299345">
        <ele>453.40</ele>
        <time>2020-07-13T13:21:52Z</time>
      </trkpt>
      <trkpt lat="39.4087473024" lon="-6.3541833311">
        <ele>453.88</ele>
        <time>2020-07-13T13:22:00Z</time>
      </trkpt>
      <trkpt lat="39.4089987595" lon="-6.3541382365">
        <ele>454.36</ele>
        <time>2020-07-13T13:22:09Z</time>
      </trkpt>
      <trkpt lat="39.4092251547" lon="-6.3540920522">
        <ele>454.84</ele>
        <time>2020-07-13T13:22:18Z</time>
      </trkpt>
      <trkpt lat="39.4094520528" lon="-6.3540497236">
        <ele>455.32</ele>
        <time>2020-07-13T13:22:28Z</time>
      </trkpt>
      <trkpt lat="39.4096921105" lon="-6.3540068921">
        <ele>456.28</ele>
        <time>2020-07-13T13:22:40Z</time>
      </trkpt>
      <trkpt lat="39.4098924380" lon="-6.3539762981">
        <ele>456.76</ele>
        <time>2020-07-13T13:22:50Z</time>
      </trkpt>
      <trkpt lat="39.4100562204" lon="-6.3539549243">
        <ele>458.21</ele>
        <time>2020-07-13T13:22:58Z</time>
      </trkpt>
      <trkpt lat="39.4102350902" lon="-6.3539320417">
        <ele>458.21</ele>
        <time>2020-07-13T13:23:07Z</time>
      </trkpt>
      <trkpt lat="39.4104549475" lon="-6.3539182115">
        <ele>458.69</ele>
        <time>2020-07-13T13:23:18Z</time>
      </trkpt>
      <trkpt lat="39.4106794987" lon="-6.3539108355">
        <ele>459.17</ele>
        <time>2020-07-13T13:23:29Z</time>
      </trkpt>
      <trkpt lat="39.4108819216" lon="-6.3539202232">
        <ele>459.65</ele>
        <time>2020-07-13T13:23:39Z</time>
      </trkpt>
      <trkpt lat="39.4110571034" lon="-6.3539366517">
        <ele>460.13</ele>
        <time>2020-07-13T13:23:48Z</time>
      </trkpt>
      <trkpt lat="39.4112383202" lon="-6.3539644796">
        <ele>460.13</ele>
        <time>2020-07-13T13:23:57Z</time>
      </trkpt>
      <trkpt lat="39.4114264939" lon="-6.3539960794">
        <ele>460.61</ele>
        <time>2020-07-13T13:24:06Z</time>
      </trkpt>
      <trkpt lat="39.4115910307" lon="-6.3540386595">
        <ele>461.09</ele>
        <time>2020-07-13T13:24:14Z</time>
      </trkpt>
      <trkpt lat="39.4117832277" lon="-6.3540923875">
        <ele>461.09</ele>
        <time>2020-07-13T13:24:24Z</time>
      </trkpt>
      <trkpt lat="39.4120100420" lon="-6.3541727699">
        <ele>461.57</ele>
        <time>2020-07-13T13:24:35Z</time>
      </trkpt>
      <trkpt lat="39.4122345094" lon="-6.3542560861">
        <ele>462.05</ele>
        <time>2020-07-13T13:24:46Z</time>
      </trkpt>
      <trkpt lat="39.4124356750" lon="-6.3543392345">
        <ele>462.05</ele>
        <time>2020-07-13T13:24:56Z</time>
      </trkpt>
      <trkpt lat="39.4126289617" lon="-6.3544107322">
        <ele>463.01</ele>
        <time>2020-07-13T13:25:06Z</time>
      </trkpt>
      <trkpt lat="39.4128255174" lon="-6.3544947188">
        <ele>463.49</ele>
        <time>2020-07-13T13:25:16Z</time>
      </trkpt>
      <trkpt lat="39.4130449556" lon="-6.3545871712">
        <ele>463.49</ele>
        <time>2020-07-13T13:25:27Z</time>
      </trkpt>
      <trkpt lat="39.4132812414" lon="-6.3546828926">
        <ele>463.97</ele>
        <time>2020-07-13T13:25:39Z</time>
      </trkpt>
      <trkpt lat="39.4134775456" lon="-6.3547596708">
        <ele>464.93</ele>
        <time>2020-07-13T13:25:49Z</time>
      </trkpt>
      <trkpt lat="39.4136790466" lon="-6.3548458368">
        <ele>465.42</ele>
        <time>2020-07-13T13:25:59Z</time>
      </trkpt>
      <trkpt lat="39.4138865825" lon="-6.3549314160">
        <ele>466.38</ele>
        <time>2020-07-13T13:26:09Z</time>
      </trkpt>
      <trkpt lat="39.4141027518" lon="-6.3550231140">
        <ele>466.86</ele>
        <time>2020-07-13T13:26:20Z</time>
      </trkpt>
      <trkpt lat="39.4143227767" lon="-6.3551162370">
        <ele>467.82</ele>
        <time>2020-07-13T13:26:31Z</time>
      </trkpt>
      <trkpt lat="39.4145450648" lon="-6.3552025706">
        <ele>468.78</ele>
        <time>2020-07-13T13:26:42Z</time>
      </trkpt>
      <trkpt lat="39.4147442188" lon="-6.3552784268">
        <ele>469.74</ele>
        <time>2020-07-13T13:26:52Z</time>
      </trkpt>
      <trkpt lat="39.4149468932" lon="-6.3553510979">
        <ele>470.70</ele>
        <time>2020-07-13T13:27:00Z</time>
      </trkpt>
      <trkpt lat="39.4152747095" lon="-6.3554592244">
        <ele>471.66</ele>
        <time>2020-07-13T13:27:12Z</time>
      </trkpt>
      <trkpt lat="39.4155512284" lon="-6.3555173110">
        <ele>472.63</ele>
        <time>2020-07-13T13:27:22Z</time>
      </trkpt>
      <trkpt lat="39.4158263225" lon="-6.3555547781">
        <ele>473.11</ele>
        <time>2020-07-13T13:27:32Z</time>
      </trkpt>
      <trkpt lat="39.4161795359" lon="-6.3555601425">
        <ele>473.59</ele>
        <time>2020-07-13T13:27:44Z</time>
      </trkpt>
      <trkpt lat="39.4164447393" lon="-6.3555410318">
        <ele>474.55</ele>
        <time>2020-07-13T13:27:54Z</time>
      </trkpt>
      <trkpt lat="39.4167131279" lon="-6.3555083424">
        <ele>475.03</ele>
        <time>2020-07-13T13:28:04Z</time>
      </trkpt>
      <trkpt lat="39.4169706199" lon="-6.3554748986">
        <ele>476.47</ele>
        <time>2020-07-13T13:28:14Z</time>
      </trkpt>
      <trkpt lat="39.4172832649" lon="-6.3554421254">
        <ele>476.47</ele>
        <time>2020-07-13T13:28:26Z</time>
      </trkpt>
      <trkpt lat="39.4175695069" lon="-6.3554113638">
        <ele>477.91</ele>
        <time>2020-07-13T13:28:37Z</time>
      </trkpt>
      <trkpt lat="39.4178793021" lon="-6.3553777523">
        <ele>478.87</ele>
        <time>2020-07-13T13:28:49Z</time>
      </trkpt>
      <trkpt lat="39.4181865826" lon="-6.3553561270">
        <ele>480.32</ele>
        <time>2020-07-13T13:29:00Z</time>
      </trkpt>
      <trkpt lat="39.4183696434" lon="-6.3553495053">
        <ele>480.80</ele>
        <time>2020-07-13T13:29:07Z</time>
      </trkpt>
      <trkpt lat="39.4186629262" lon="-6.3553431351">
        <ele>480.80</ele>
        <time>2020-07-13T13:29:18Z</time>
      </trkpt>
      <trkpt lat="39.4189017266" lon="-6.3553437218">
        <ele>480.80</ele>
        <time>2020-07-13T13:29:26Z</time>
      </trkpt>
      <trkpt lat="39.4189460669" lon="-6.3553475775">
        <ele>480.32</ele>
        <time>2020-07-13T13:29:31Z</time>
      </trkpt>
      <trkpt lat="39.4189531077" lon="-6.3553433027">
        <ele>480.32</ele>
        <time>2020-07-13T13:29:46Z</time>
      </trkpt>
      <trkpt lat="39.4189480785" lon="-6.3553396985">
        <ele>480.32</ele>
        <time>2020-07-13T13:29:59Z</time>
      </trkpt>
      <trkpt lat="39.4189823605" lon="-6.3553403690">
        <ele>479.84</ele>
        <time>2020-07-13T13:30:09Z</time>
      </trkpt>
      <trkpt lat="39.4191446342" lon="-6.3553497568">
        <ele>479.84</ele>
        <time>2020-07-13T13:30:16Z</time>
      </trkpt>
      <trkpt lat="39.4194367435" lon="-6.3553709630">
        <ele>479.84</ele>
        <time>2020-07-13T13:30:25Z</time>
      </trkpt>
      <trkpt lat="39.4196528289" lon="-6.3553852960">
        <ele>479.84</ele>
        <time>2020-07-13T13:30:32Z</time>
      </trkpt>
      <trkpt lat="39.4199371431" lon="-6.3554189913">
        <ele>479.84</ele>
        <time>2020-07-13T13:30:41Z</time>
      </trkpt>
      <trkpt lat="39.4202339463" lon="-6.3554590568">
        <ele>479.84</ele>
        <time>2020-07-13T13:30:50Z</time>
      </trkpt>
      <trkpt lat="39.4205511175" lon="-6.3555076718">
        <ele>479.35</ele>
        <time>2020-07-13T13:30:58Z</time>
      </trkpt>
      <trkpt lat="39.4209862221" lon="-6.3555883057">
        <ele>477.91</ele>
        <time>2020-07-13T13:31:07Z</time>
      </trkpt>
      <trkpt lat="39.4215504918" lon="-6.3557639066">
        <ele>477.43</ele>
        <time>2020-07-13T13:31:19Z</time>
      </trkpt>
      <trkpt lat="39.4219969120" lon="-6.3560092449">
        <ele>477.43</ele>
        <time>2020-07-13T13:31:29Z</time>
      </trkpt>
      <trkpt lat="39.4223101437" lon="-6.3562461175">
        <ele>477.43</ele>
        <time>2020-07-13T13:31:38Z</time>
      </trkpt>
      <trkpt lat="39.4225898478" lon="-6.3565248996">
        <ele>478.39</ele>
        <time>2020-07-13T13:31:49Z</time>
      </trkpt>
      <trkpt lat="39.4227926899" lon="-6.3567108940">
        <ele>477.91</ele>
        <time>2020-07-13T13:31:58Z</time>
      </trkpt>
      <trkpt lat="39.4229982980" lon="-6.3568020891">
        <ele>475.99</ele>
        <time>2020-07-13T13:32:04Z</time>
      </trkpt>
      <trkpt lat="39.4234085083" lon="-6.3569550589">
        <ele>474.07</ele>
        <time>2020-07-13T13:32:13Z</time>
      </trkpt>
      <trkpt lat="39.4234491605" lon="-6.3569624349">
        <ele>474.55</ele>
        <time>2020-07-13T13:32:14Z</time>
      </trkpt>
      <trkpt lat="39.4236606359" lon="-6.3570413087">
        <ele>474.07</ele>
        <time>2020-07-13T13:32:20Z</time>
      </trkpt>
      <trkpt lat="39.4238755479" lon="-6.3571250439">
        <ele>474.07</ele>
        <time>2020-07-13T13:32:26Z</time>
      </trkpt>
      <trkpt lat="39.4240899570" lon="-6.3571739942">
        <ele>474.55</ele>
        <time>2020-07-13T13:32:32Z</time>
      </trkpt>
      <trkpt lat="39.4242610317" lon="-6.3572532032">
        <ele>474.55</ele>
        <time>2020-07-13T13:32:37Z</time>
      </trkpt>
      <trkpt lat="39.4243254885" lon="-6.3572716434">
        <ele>474.55</ele>
        <time>2020-07-13T13:32:39Z</time>
      </trkpt>
      <trkpt lat="39.4243551604" lon="-6.3572675362">
        <ele>474.55</ele>
        <time>2020-07-13T13:32:40Z</time>
      </trkpt>
      <trkpt lat="39.4243798032" lon="-6.3572724815">
        <ele>474.55</ele>
        <time>2020-07-13T13:32:41Z</time>
      </trkpt>
      <trkpt lat="39.4244026020" lon="-6.3572889939">
        <ele>474.55</ele>
        <time>2020-07-13T13:32:42Z</time>
      </trkpt>
      <trkpt lat="39.4244266581" lon="-6.3573050871">
        <ele>474.55</ele>
        <time>2020-07-13T13:32:43Z</time>
      </trkpt>
      <trkpt lat="39.4244564977" lon="-6.3573161513">
        <ele>474.55</ele>
        <time>2020-07-13T13:32:44Z</time>
      </trkpt>
      <trkpt lat="39.4244897738" lon="-6.3573247008">
        <ele>474.07</ele>
        <time>2020-07-13T13:32:45Z</time>
      </trkpt>
      <trkpt lat="39.4246760197" lon="-6.3574380241">
        <ele>474.07</ele>
        <time>2020-07-13T13:32:51Z</time>
      </trkpt>
      <trkpt lat="39.4249467552" lon="-6.3575894013">
        <ele>473.59</ele>
        <time>2020-07-13T13:33:01Z</time>
      </trkpt>
      <trkpt lat="39.4251819514" lon="-6.3576651737">
        <ele>474.07</ele>
        <time>2020-07-13T13:33:10Z</time>
      </trkpt>
      <trkpt lat="39.4254267868" lon="-6.3577924110">
        <ele>475.03</ele>
        <time>2020-07-13T13:33:20Z</time>
      </trkpt>
      <trkpt lat="39.4254965242" lon="-6.3578352425">
        <ele>475.51</ele>
        <time>2020-07-13T13:33:24Z</time>
      </trkpt>
      <trkpt lat="39.4255551137" lon="-6.3578625675">
        <ele>475.99</ele>
        <time>2020-07-13T13:33:28Z</time>
      </trkpt>
      <trkpt lat="39.4256953429" lon="-6.3579825126">
        <ele>477.43</ele>
        <time>2020-07-13T13:33:37Z</time>
      </trkpt>
      <trkpt lat="39.4258327223" lon="-6.3580214884">
        <ele>478.39</ele>
        <time>2020-07-13T13:33:45Z</time>
      </trkpt>
      <trkpt lat="39.4259429444" lon="-6.3580317143">
        <ele>479.35</ele>
        <time>2020-07-13T13:33:52Z</time>
      </trkpt>
      <trkpt lat="39.4259556849" lon="-6.3580326363">
        <ele>479.35</ele>
        <time>2020-07-13T13:33:53Z</time>
      </trkpt>
      <trkpt lat="39.4259698503" lon="-6.3580365758">
        <ele>479.84</ele>
        <time>2020-07-13T13:33:54Z</time>
      </trkpt>
      <trkpt lat="39.4259856921" lon="-6.3580421917">
        <ele>479.84</ele>
        <time>2020-07-13T13:33:55Z</time>
      </trkpt>
      <trkpt lat="39.4260027073" lon="-6.3580479752">
        <ele>479.84</ele>
        <time>2020-07-13T13:33:56Z</time>
      </trkpt>
      <trkpt lat="39.4261780567" lon="-6.3581161201">
        <ele>480.80</ele>
        <time>2020-07-13T13:34:06Z</time>
      </trkpt>
      <trkpt lat="39.4263670687" lon="-6.3582356460">
        <ele>482.24</ele>
        <time>2020-07-13T13:34:17Z</time>
      </trkpt>
      <trkpt lat="39.4264925458" lon="-6.3583247457">
        <ele>481.28</ele>
        <time>2020-07-13T13:34:24Z</time>
      </trkpt>
      <trkpt lat="39.4266492873" lon="-6.3584148511">
        <ele>479.84</ele>
        <time>2020-07-13T13:34:31Z</time>
      </trkpt>
      <trkpt lat="39.4268241338" lon="-6.3584929705">
        <ele>478.39</ele>
        <time>2020-07-13T13:34:39Z</time>
      </trkpt>
      <trkpt lat="39.4269294105" lon="-6.3585179485">
        <ele>477.91</ele>
        <time>2020-07-13T13:34:44Z</time>
      </trkpt>
      <trkpt lat="39.4269497786" lon="-6.3585227262">
        <ele>477.91</ele>
        <time>2020-07-13T13:34:45Z</time>
      </trkpt>
      <trkpt lat="39.4272017386" lon="-6.3585358858">
        <ele>475.99</ele>
        <time>2020-07-13T13:34:55Z</time>
      </trkpt>
      <trkpt lat="39.4274361804" lon="-6.3584695011">
        <ele>476.47</ele>
        <time>2020-07-13T13:35:05Z</time>
      </trkpt>
      <trkpt lat="39.4276602287" lon="-6.3584680762">
        <ele>475.99</ele>
        <time>2020-07-13T13:35:13Z</time>
      </trkpt>
      <trkpt lat="39.4278465584" lon="-6.3584550843">
        <ele>475.99</ele>
        <time>2020-07-13T13:35:20Z</time>
      </trkpt>
      <trkpt lat="39.4280460477" lon="-6.3585070521">
        <ele>475.03</ele>
        <time>2020-07-13T13:35:28Z</time>
      </trkpt>
      <trkpt lat="39.4282008614" lon="-6.3585130032">
        <ele>474.55</ele>
        <time>2020-07-13T13:35:35Z</time>
      </trkpt>
      <trkpt lat="39.4283909630" lon="-6.3585098181">
        <ele>474.55</ele>
        <time>2020-07-13T13:35:43Z</time>
      </trkpt>
      <trkpt lat="39.4285408314" lon="-6.3585510571">
        <ele>473.59</ele>
        <time>2020-07-13T13:35:50Z</time>
      </trkpt>
      <trkpt lat="39.4287656341" lon="-6.3586295117">
        <ele>472.14</ele>
        <time>2020-07-13T13:35:58Z</time>
      </trkpt>
      <trkpt lat="39.4289262313" lon="-6.3587845769">
        <ele>470.22</ele>
        <time>2020-07-13T13:36:05Z</time>
      </trkpt>
      <trkpt lat="39.4290040154" lon="-6.3589568250">
        <ele>468.78</ele>
        <time>2020-07-13T13:36:12Z</time>
      </trkpt>
      <trkpt lat="39.4292062707" lon="-6.3590864930">
        <ele>466.86</ele>
        <time>2020-07-13T13:36:18Z</time>
      </trkpt>
      <trkpt lat="39.4293310773" lon="-6.3591646124">
        <ele>465.90</ele>
        <time>2020-07-13T13:36:21Z</time>
      </trkpt>
      <trkpt lat="39.4296796806" lon="-6.3593410514">
        <ele>464.93</ele>
        <time>2020-07-13T13:36:28Z</time>
      </trkpt>
      <trkpt lat="39.4298071694" lon="-6.3594251219">
        <ele>464.45</ele>
        <time>2020-07-13T13:36:33Z</time>
      </trkpt>
      <trkpt lat="39.4299833570" lon="-6.3595259562">
        <ele>464.93</ele>
        <time>2020-07-13T13:36:40Z</time>
      </trkpt>
      <trkpt lat="39.4302392565" lon="-6.3596075960">
        <ele>464.93</ele>
        <time>2020-07-13T13:36:49Z</time>
      </trkpt>
      <trkpt lat="39.4304410089" lon="-6.3596769143">
        <ele>465.42</ele>
        <time>2020-07-13T13:36:56Z</time>
      </trkpt>
      <trkpt lat="39.4307540730" lon="-6.3598417863">
        <ele>466.86</ele>
        <time>2020-07-13T13:37:06Z</time>
      </trkpt>
      <trkpt lat="39.4311221223" lon="-6.3600648288">
        <ele>468.30</ele>
        <time>2020-07-13T13:37:18Z</time>
      </trkpt>
      <trkpt lat="39.4314176682" lon="-6.3602599595">
        <ele>469.26</ele>
        <time>2020-07-13T13:37:28Z</time>
      </trkpt>
      <trkpt lat="39.4317038264" lon="-6.3604089897">
        <ele>470.22</ele>
        <time>2020-07-13T13:37:38Z</time>
      </trkpt>
      <trkpt lat="39.4319523498" lon="-6.3605923858">
        <ele>470.22</ele>
        <time>2020-07-13T13:37:48Z</time>
      </trkpt>
      <trkpt lat="39.4321924914" lon="-6.3607750274">
        <ele>470.70</ele>
        <time>2020-07-13T13:37:58Z</time>
      </trkpt>
      <trkpt lat="39.4324117620" lon="-6.3609380554">
        <ele>471.18</ele>
        <time>2020-07-13T13:38:07Z</time>
      </trkpt>
      <trkpt lat="39.4326659013" lon="-6.3611075375">
        <ele>471.18</ele>
        <time>2020-07-13T13:38:17Z</time>
      </trkpt>
      <trkpt lat="39.4329254050" lon="-6.3612853177">
        <ele>471.66</ele>
        <time>2020-07-13T13:38:27Z</time>
      </trkpt>
      <trkpt lat="39.4330712501" lon="-6.3614345156">
        <ele>472.14</ele>
        <time>2020-07-13T13:38:35Z</time>
      </trkpt>
      <trkpt lat="39.4331338629" lon="-6.3614918478">
        <ele>472.14</ele>
        <time>2020-07-13T13:38:39Z</time>
      </trkpt>
      <trkpt lat="39.4333214499" lon="-6.3616121281">
        <ele>473.11</ele>
        <time>2020-07-13T13:38:49Z</time>
      </trkpt>
      <trkpt lat="39.4334957097" lon="-6.3617277145">
        <ele>475.03</ele>
        <time>2020-07-13T13:38:59Z</time>
      </trkpt>
      <trkpt lat="39.4336577319" lon="-6.3618723862">
        <ele>475.03</ele>
        <time>2020-07-13T13:39:09Z</time>
      </trkpt>
      <trkpt lat="39.4338525273" lon="-6.3620132860">
        <ele>475.99</ele>
        <time>2020-07-13T13:39:20Z</time>
      </trkpt>
      <trkpt lat="39.4340530224" lon="-6.3621800859">
        <ele>475.99</ele>
        <time>2020-07-13T13:39:30Z</time>
      </trkpt>
      <trkpt lat="39.4342479855" lon="-6.3623322174">
        <ele>475.51</ele>
        <time>2020-07-13T13:39:39Z</time>
      </trkpt>
      <trkpt lat="39.4344293699" lon="-6.3624874502">
        <ele>475.03</ele>
        <time>2020-07-13T13:39:47Z</time>
      </trkpt>
      <trkpt lat="39.4346282724" lon="-6.3626671582">
        <ele>475.99</ele>
        <time>2020-07-13T13:39:55Z</time>
      </trkpt>
      <trkpt lat="39.4347983412" lon="-6.3628494646">
        <ele>475.99</ele>
        <time>2020-07-13T13:40:03Z</time>
      </trkpt>
      <trkpt lat="39.4349759538" lon="-6.3630434219">
        <ele>476.47</ele>
        <time>2020-07-13T13:40:11Z</time>
      </trkpt>
      <trkpt lat="39.4351531472" lon="-6.3632062823">
        <ele>476.95</ele>
        <time>2020-07-13T13:40:19Z</time>
      </trkpt>
      <trkpt lat="39.4353457633" lon="-6.3634247147">
        <ele>476.95</ele>
        <time>2020-07-13T13:40:28Z</time>
      </trkpt>
      <trkpt lat="39.4355739187" lon="-6.3636421412">
        <ele>476.47</ele>
        <time>2020-07-13T13:40:38Z</time>
      </trkpt>
      <trkpt lat="39.4358023256" lon="-6.3637946080">
        <ele>475.99</ele>
        <time>2020-07-13T13:40:47Z</time>
      </trkpt>
      <trkpt lat="39.4360577222" lon="-6.3638792653">
        <ele>475.51</ele>
        <time>2020-07-13T13:40:57Z</time>
      </trkpt>
      <trkpt lat="39.4362737238" lon="-6.3639390282">
        <ele>475.03</ele>
        <time>2020-07-13T13:41:04Z</time>
      </trkpt>
      <trkpt lat="39.4365218282" lon="-6.3640607335">
        <ele>474.55</ele>
        <time>2020-07-13T13:41:13Z</time>
      </trkpt>
      <trkpt lat="39.4367275201" lon="-6.3642670959">
        <ele>473.59</ele>
        <time>2020-07-13T13:41:22Z</time>
      </trkpt>
      <trkpt lat="39.4368976727" lon="-6.3644138630">
        <ele>472.63</ele>
        <time>2020-07-13T13:41:30Z</time>
      </trkpt>
      <trkpt lat="39.4370631315" lon="-6.3644395955">
        <ele>471.66</ele>
        <time>2020-07-13T13:41:38Z</time>
      </trkpt>
      <trkpt lat="39.4371034484" lon="-6.3644359913">
        <ele>471.66</ele>
        <time>2020-07-13T13:41:44Z</time>
      </trkpt>
      <trkpt lat="39.4370995928" lon="-6.3644417748">
        <ele>471.18</ele>
        <time>2020-07-13T13:41:56Z</time>
      </trkpt>
      <trkpt lat="39.4370971620" lon="-6.3644478936">
        <ele>471.18</ele>
        <time>2020-07-13T13:42:07Z</time>
      </trkpt>
      <trkpt lat="39.4371167757" lon="-6.3644317165">
        <ele>471.66</ele>
        <time>2020-07-13T13:42:18Z</time>
      </trkpt>
      <trkpt lat="39.4372202922" lon="-6.3643649966">
        <ele>471.18</ele>
        <time>2020-07-13T13:42:25Z</time>
      </trkpt>
      <trkpt lat="39.4374008384" lon="-6.3643524237">
        <ele>470.70</ele>
        <time>2020-07-13T13:42:34Z</time>
      </trkpt>
      <trkpt lat="39.4375549816" lon="-6.3643330615">
        <ele>469.26</ele>
        <time>2020-07-13T13:42:42Z</time>
      </trkpt>
      <trkpt lat="39.4377598353" lon="-6.3642732147">
        <ele>468.30</ele>
        <time>2020-07-13T13:42:50Z</time>
      </trkpt>
      <trkpt lat="39.4379857276" lon="-6.3642209955">
        <ele>467.82</ele>
        <time>2020-07-13T13:42:58Z</time>
      </trkpt>
      <trkpt lat="39.4381829537" lon="-6.3641892280">
        <ele>467.82</ele>
        <time>2020-07-13T13:43:07Z</time>
      </trkpt>
      <trkpt lat="39.4384524319" lon="-6.3641992025">
        <ele>467.82</ele>
        <time>2020-07-13T13:43:18Z</time>
      </trkpt>
      <trkpt lat="39.4386162143" lon="-6.3642219175">
        <ele>466.86</ele>
        <time>2020-07-13T13:43:25Z</time>
      </trkpt>
      <trkpt lat="39.4388263486" lon="-6.3642049860">
        <ele>466.38</ele>
        <time>2020-07-13T13:43:33Z</time>
      </trkpt>
      <trkpt lat="39.4390508160" lon="-6.3641874678">
        <ele>465.90</ele>
        <time>2020-07-13T13:43:42Z</time>
      </trkpt>
      <trkpt lat="39.4392408337" lon="-6.3641268667">
        <ele>465.90</ele>
        <time>2020-07-13T13:43:50Z</time>
      </trkpt>
      <trkpt lat="39.4394704979" lon="-6.3640294690">
        <ele>465.42</ele>
        <time>2020-07-13T13:44:00Z</time>
      </trkpt>
      <trkpt lat="39.4396628626" lon="-6.3639954384">
        <ele>464.45</ele>
        <time>2020-07-13T13:44:07Z</time>
      </trkpt>
      <trkpt lat="39.4398455042" lon="-6.3639998809">
        <ele>463.97</ele>
        <time>2020-07-13T13:44:15Z</time>
      </trkpt>
      <trkpt lat="39.4399947021" lon="-6.3640026469">
        <ele>463.49</ele>
        <time>2020-07-13T13:44:22Z</time>
      </trkpt>
      <trkpt lat="39.4401600771" lon="-6.3640082628">
        <ele>462.53</ele>
        <time>2020-07-13T13:44:29Z</time>
      </trkpt>
      <trkpt lat="39.4403258711" lon="-6.3640168123">
        <ele>462.05</ele>
        <time>2020-07-13T13:44:36Z</time>
      </trkpt>
      <trkpt lat="39.4405521825" lon="-6.3640041556">
        <ele>461.57</ele>
        <time>2020-07-13T13:44:45Z</time>
      </trkpt>
      <trkpt lat="39.4408021308" lon="-6.3640060835">
        <ele>460.61</ele>
        <time>2020-07-13T13:44:54Z</time>
      </trkpt>
      <trkpt lat="39.4409948308" lon="-6.3639946841">
        <ele>459.65</ele>
        <time>2020-07-13T13:45:01Z</time>
      </trkpt>
      <trkpt lat="39.4412524067" lon="-6.3639753219">
        <ele>459.65</ele>
        <time>2020-07-13T13:45:10Z</time>
      </trkpt>
      <trkpt lat="39.4415197056" lon="-6.3639775012">
        <ele>459.17</ele>
        <time>2020-07-13T13:45:19Z</time>
      </trkpt>
      <trkpt lat="39.4418687280" lon="-6.3640091009">
        <ele>458.69</ele>
        <time>2020-07-13T13:45:30Z</time>
      </trkpt>
      <trkpt lat="39.4421303272" lon="-6.3640373480">
        <ele>457.72</ele>
        <time>2020-07-13T13:45:38Z</time>
      </trkpt>
      <trkpt lat="39.4423630927" lon="-6.3640902378">
        <ele>457.24</ele>
        <time>2020-07-13T13:45:46Z</time>
      </trkpt>
      <trkpt lat="39.4426573813" lon="-6.3641626574">
        <ele>457.24</ele>
        <time>2020-07-13T13:45:54Z</time>
      </trkpt>
      <trkpt lat="39.4429157954" lon="-6.3641979452">
        <ele>456.28</ele>
        <time>2020-07-13T13:46:02Z</time>
      </trkpt>
      <trkpt lat="39.4432189688" lon="-6.3642590493">
        <ele>456.28</ele>
        <time>2020-07-13T13:46:10Z</time>
      </trkpt>
      <trkpt lat="39.4433793984" lon="-6.3642960973">
        <ele>455.80</ele>
        <time>2020-07-13T13:46:14Z</time>
      </trkpt>
      <trkpt lat="39.4434650615" lon="-6.3643113524">
        <ele>455.32</ele>
        <time>2020-07-13T13:46:16Z</time>
      </trkpt>
      <trkpt lat="39.4438746013" lon="-6.3643921539">
        <ele>455.32</ele>
        <time>2020-07-13T13:46:26Z</time>
      </trkpt>
      <trkpt lat="39.4442802016" lon="-6.3644741289">
        <ele>454.84</ele>
        <time>2020-07-13T13:46:36Z</time>
      </trkpt>
      <trkpt lat="39.4447153900" lon="-6.3645442855">
        <ele>454.36</ele>
        <time>2020-07-13T13:46:46Z</time>
      </trkpt>
      <trkpt lat="39.4451847766" lon="-6.3646172918">
        <ele>453.88</ele>
        <time>2020-07-13T13:46:57Z</time>
      </trkpt>
      <trkpt lat="39.4456742797" lon="-6.3646781445">
        <ele>452.92</ele>
        <time>2020-07-13T13:47:08Z</time>
      </trkpt>
      <trkpt lat="39.4460690673" lon="-6.3647334650">
        <ele>451.96</ele>
        <time>2020-07-13T13:47:17Z</time>
      </trkpt>
      <trkpt lat="39.4461139105" lon="-6.3647375721">
        <ele>451.96</ele>
        <time>2020-07-13T13:47:18Z</time>
      </trkpt>
      <trkpt lat="39.4466765039" lon="-6.3647972513">
        <ele>451.96</ele>
        <time>2020-07-13T13:47:30Z</time>
      </trkpt>
      <trkpt lat="39.4468049984" lon="-6.3648124225">
        <ele>451.96</ele>
        <time>2020-07-13T13:47:33Z</time>
      </trkpt>
      <trkpt lat="39.4471638277" lon="-6.3647845946">
        <ele>452.44</ele>
        <time>2020-07-13T13:47:41Z</time>
      </trkpt>
      <trkpt lat="39.4475853536" lon="-6.3647672441">
        <ele>451.96</ele>
        <time>2020-07-13T13:47:51Z</time>
      </trkpt>
      <trkpt lat="39.4479742739" lon="-6.3647816610">
        <ele>451.96</ele>
        <time>2020-07-13T13:48:00Z</time>
      </trkpt>
      <trkpt lat="39.4484781940" lon="-6.3648228999">
        <ele>451.00</ele>
        <time>2020-07-13T13:48:11Z</time>
      </trkpt>
      <trkpt lat="39.4488697127" lon="-6.3648727722">
        <ele>450.52</ele>
        <time>2020-07-13T13:48:20Z</time>
      </trkpt>
      <trkpt lat="39.4491489138" lon="-6.3649256621">
        <ele>450.03</ele>
        <time>2020-07-13T13:48:27Z</time>
      </trkpt>
      <trkpt lat="39.4491846208" lon="-6.3649621233">
        <ele>450.03</ele>
        <time>2020-07-13T13:48:28Z</time>
      </trkpt>
      <trkpt lat="39.4492114428" lon="-6.3650022727">
        <ele>450.03</ele>
        <time>2020-07-13T13:48:29Z</time>
      </trkpt>
      <trkpt lat="39.4493634067" lon="-6.3652558252">
        <ele>449.55</ele>
        <time>2020-07-13T13:48:35Z</time>
      </trkpt>
      <trkpt lat="39.4494279474" lon="-6.3653275743">
        <ele>449.55</ele>
        <time>2020-07-13T13:48:37Z</time>
      </trkpt>
      <trkpt lat="39.4494641572" lon="-6.3653544802">
        <ele>449.55</ele>
        <time>2020-07-13T13:48:38Z</time>
      </trkpt>
      <trkpt lat="39.4494971819" lon="-6.3653735910">
        <ele>449.55</ele>
        <time>2020-07-13T13:48:39Z</time>
      </trkpt>
      <trkpt lat="39.4498101622" lon="-6.3654876687">
        <ele>449.55</ele>
        <time>2020-07-13T13:48:48Z</time>
      </trkpt>
      <trkpt lat="39.4498937298" lon="-6.3655043487">
        <ele>448.59</ele>
        <time>2020-07-13T13:48:53Z</time>
      </trkpt>
      <trkpt lat="39.4498983398" lon="-6.3654998224">
        <ele>449.55</ele>
        <time>2020-07-13T13:49:05Z</time>
      </trkpt>
      <trkpt lat="39.4499008544" lon="-6.3654893450">
        <ele>450.52</ele>
        <time>2020-07-13T13:49:18Z</time>
      </trkpt>
      <trkpt lat="39.4499033689" lon="-6.3654794544">
        <ele>451.48</ele>
        <time>2020-07-13T13:49:29Z</time>
      </trkpt>
      <trkpt lat="39.4499089010" lon="-6.3654719945">
        <ele>452.44</ele>
        <time>2020-07-13T13:49:46Z</time>
      </trkpt>
      <trkpt lat="39.4499254134" lon="-6.3654653728">
        <ele>453.88</ele>
        <time>2020-07-13T13:50:05Z</time>
      </trkpt>
      <trkpt lat="39.4499303587" lon="-6.3654729165">
        <ele>454.36</ele>
        <time>2020-07-13T13:50:18Z</time>
      </trkpt>
      <trkpt lat="39.4499301910" lon="-6.3654766884">
        <ele>454.36</ele>
        <time>2020-07-13T13:50:37Z</time>
      </trkpt>
      <trkpt lat="39.4499150198" lon="-6.3654775266">
        <ele>454.36</ele>
        <time>2020-07-13T13:50:50Z</time>
      </trkpt>
      <trkpt lat="39.4499049615" lon="-6.3654720783">
        <ele>454.84</ele>
        <time>2020-07-13T13:51:04Z</time>
      </trkpt>
      <trkpt lat="39.4498974178" lon="-6.3654686417">
        <ele>455.32</ele>
        <time>2020-07-13T13:51:17Z</time>
      </trkpt>
      <trkpt lat="39.4499283470" lon="-6.3654750958">
        <ele>454.84</ele>
        <time>2020-07-13T13:51:36Z</time>
      </trkpt>
      <trkpt lat="39.4500245713" lon="-6.3654773589">
        <ele>454.84</ele>
        <time>2020-07-13T13:51:40Z</time>
      </trkpt>
      <trkpt lat="39.4500507228" lon="-6.3654855732">
        <ele>454.84</ele>
        <time>2020-07-13T13:51:41Z</time>
      </trkpt>
      <trkpt lat="39.4502321072" lon="-6.3655303326">
        <ele>456.76</ele>
        <time>2020-07-13T13:51:49Z</time>
      </trkpt>
      <trkpt lat="39.4504253939" lon="-6.3655708171">
        <ele>456.28</ele>
        <time>2020-07-13T13:51:57Z</time>
      </trkpt>
      <trkpt lat="39.4506496098" lon="-6.3656321727">
        <ele>455.32</ele>
        <time>2020-07-13T13:52:05Z</time>
      </trkpt>
      <trkpt lat="39.4509452395" lon="-6.3656827994">
        <ele>453.88</ele>
        <time>2020-07-13T13:52:14Z</time>
      </trkpt>
      <trkpt lat="39.4511575531" lon="-6.3656971324">
        <ele>452.92</ele>
        <time>2020-07-13T13:52:20Z</time>
      </trkpt>
      <trkpt lat="39.4514510874" lon="-6.3657784369">
        <ele>450.52</ele>
        <time>2020-07-13T13:52:28Z</time>
      </trkpt>
      <trkpt lat="39.4517176319" lon="-6.3658353500">
        <ele>450.03</ele>
        <time>2020-07-13T13:52:36Z</time>
      </trkpt>
      <trkpt lat="39.4519586954" lon="-6.3658523653">
        <ele>450.52</ele>
        <time>2020-07-13T13:52:44Z</time>
      </trkpt>
      <trkpt lat="39.4521886110" lon="-6.3659331668">
        <ele>451.00</ele>
        <time>2020-07-13T13:52:52Z</time>
      </trkpt>
      <trkpt lat="39.4523925427" lon="-6.3659687899">
        <ele>451.00</ele>
        <time>2020-07-13T13:52:59Z</time>
      </trkpt>
      <trkpt lat="39.4526635297" lon="-6.3660539500">
        <ele>451.00</ele>
        <time>2020-07-13T13:53:08Z</time>
      </trkpt>
      <trkpt lat="39.4528973848" lon="-6.3661210891">
        <ele>451.00</ele>
        <time>2020-07-13T13:53:16Z</time>
      </trkpt>
      <trkpt lat="39.4530716445" lon="-6.3661447261">
        <ele>451.00</ele>
        <time>2020-07-13T13:53:22Z</time>
      </trkpt>
      <trkpt lat="39.4532472454" lon="-6.3661909942">
        <ele>451.96</ele>
        <time>2020-07-13T13:53:30Z</time>
      </trkpt>
      <trkpt lat="39.4534826092" lon="-6.3662555348">
        <ele>451.96</ele>
        <time>2020-07-13T13:53:39Z</time>
      </trkpt>
      <trkpt lat="39.4537107646" lon="-6.3663412817">
        <ele>451.00</ele>
        <time>2020-07-13T13:53:47Z</time>
      </trkpt>
      <trkpt lat="39.4539424405" lon="-6.3665081654">
        <ele>448.59</ele>
        <time>2020-07-13T13:53:55Z</time>
      </trkpt>
      <trkpt lat="39.4542280957" lon="-6.3667421043">
        <ele>447.63</ele>
        <time>2020-07-13T13:54:05Z</time>
      </trkpt>
      <trkpt lat="39.4543966558" lon="-6.3668672461">
        <ele>449.55</ele>
        <time>2020-07-13T13:54:12Z</time>
      </trkpt>
      <trkpt lat="39.4544211309" lon="-6.3668630552">
        <ele>451.00</ele>
        <time>2020-07-13T13:54:15Z</time>
      </trkpt>
      <trkpt lat="39.4544341229" lon="-6.3668717723">
        <ele>451.00</ele>
        <time>2020-07-13T13:54:16Z</time>
      </trkpt>
      <trkpt lat="39.4544470310" lon="-6.3668870274">
        <ele>451.00</ele>
        <time>2020-07-13T13:54:17Z</time>
      </trkpt>
      <trkpt lat="39.4544642139" lon="-6.3669009414">
        <ele>451.00</ele>
        <time>2020-07-13T13:54:18Z</time>
      </trkpt>
      <trkpt lat="39.4544809777" lon="-6.3669146039">
        <ele>450.52</ele>
        <time>2020-07-13T13:54:19Z</time>
      </trkpt>
      <trkpt lat="39.4544973224" lon="-6.3669273444">
        <ele>450.52</ele>
        <time>2020-07-13T13:54:20Z</time>
      </trkpt>
      <trkpt lat="39.4545121584" lon="-6.3669370674">
        <ele>450.52</ele>
        <time>2020-07-13T13:54:21Z</time>
      </trkpt>
      <trkpt lat="39.4545243960" lon="-6.3669468742">
        <ele>450.52</ele>
        <time>2020-07-13T13:54:22Z</time>
      </trkpt>
      <trkpt lat="39.4545987435" lon="-6.3669685833">
        <ele>449.55</ele>
        <time>2020-07-13T13:54:29Z</time>
      </trkpt>
      <trkpt lat="39.4546051975" lon="-6.3669656496">
        <ele>449.07</ele>
        <time>2020-07-13T13:54:35Z</time>
      </trkpt>
      <trkpt lat="39.4546006713" lon="-6.3669625483">
        <ele>449.07</ele>
        <time>2020-07-13T13:54:45Z</time>
      </trkpt>
      <trkpt lat="39.4546073768" lon="-6.3669739477">
        <ele>449.07</ele>
        <time>2020-07-13T13:54:58Z</time>
      </trkpt>
      <trkpt lat="39.4546127412" lon="-6.3669610396">
        <ele>451.48</ele>
        <time>2020-07-13T13:55:14Z</time>
      </trkpt>
      <trkpt lat="39.4546115678" lon="-6.3669484667">
        <ele>451.48</ele>
        <time>2020-07-13T13:55:16Z</time>
      </trkpt>
      <trkpt lat="39.4546145014" lon="-6.3669316191">
        <ele>451.48</ele>
        <time>2020-07-13T13:55:17Z</time>
      </trkpt>
      <trkpt lat="39.4546160102" lon="-6.3669198006">
        <ele>451.48</ele>
        <time>2020-07-13T13:55:18Z</time>
      </trkpt>
      <trkpt lat="39.4546167646" lon="-6.3668995164">
        <ele>451.48</ele>
        <time>2020-07-13T13:55:19Z</time>
      </trkpt>
      <trkpt lat="39.4546156749" lon="-6.3668692578">
        <ele>451.96</ele>
        <time>2020-07-13T13:55:20Z</time>
      </trkpt>
      <trkpt lat="39.4546147529" lon="-6.3668369874">
        <ele>451.96</ele>
        <time>2020-07-13T13:55:21Z</time>
      </trkpt>
      <trkpt lat="39.4546096399" lon="-6.3668043818">
        <ele>451.96</ele>
        <time>2020-07-13T13:55:22Z</time>
      </trkpt>
      <trkpt lat="39.4546033535" lon="-6.3667720277">
        <ele>451.48</ele>
        <time>2020-07-13T13:55:23Z</time>
      </trkpt>
      <trkpt lat="39.4545979891" lon="-6.3667372428">
        <ele>451.00</ele>
        <time>2020-07-13T13:55:24Z</time>
      </trkpt>
      <trkpt lat="39.4546457659" lon="-6.3665343169">
        <ele>448.59</ele>
        <time>2020-07-13T13:55:30Z</time>
      </trkpt>
      <trkpt lat="39.4547707401" lon="-6.3665062375">
        <ele>448.11</ele>
        <time>2020-07-13T13:55:34Z</time>
      </trkpt>
      <trkpt lat="39.4550840557" lon="-6.3666276913">
        <ele>446.19</ele>
        <time>2020-07-13T13:55:43Z</time>
      </trkpt>
      <trkpt lat="39.4554970320" lon="-6.3668080699">
        <ele>445.71</ele>
        <time>2020-07-13T13:55:54Z</time>
      </trkpt>
      <trkpt lat="39.4559908938" lon="-6.3670081459">
        <ele>445.71</ele>
        <time>2020-07-13T13:56:06Z</time>
      </trkpt>
      <trkpt lat="39.4563424308" lon="-6.3671452738">
        <ele>446.19</ele>
        <time>2020-07-13T13:56:14Z</time>
      </trkpt>
      <trkpt lat="39.4568134099" lon="-6.3673145883">
        <ele>444.75</ele>
        <time>2020-07-13T13:56:24Z</time>
      </trkpt>
      <trkpt lat="39.4572854787" lon="-6.3674223796">
        <ele>443.31</ele>
        <time>2020-07-13T13:56:34Z</time>
      </trkpt>
      <trkpt lat="39.4574232772" lon="-6.3674145844">
        <ele>442.34</ele>
        <time>2020-07-13T13:56:37Z</time>
      </trkpt>
      <trkpt lat="39.4574639294" lon="-6.3673958927">
        <ele>442.34</ele>
        <time>2020-07-13T13:56:38Z</time>
      </trkpt>
      <trkpt lat="39.4575037435" lon="-6.3673783746">
        <ele>442.34</ele>
        <time>2020-07-13T13:56:39Z</time>
      </trkpt>
      <trkpt lat="39.4575443957" lon="-6.3673723396">
        <ele>442.34</ele>
        <time>2020-07-13T13:56:40Z</time>
      </trkpt>
      <trkpt lat="39.4575826172" lon="-6.3673830684">
        <ele>441.86</ele>
        <time>2020-07-13T13:56:41Z</time>
      </trkpt>
      <trkpt lat="39.4576225989" lon="-6.3674032688">
        <ele>441.86</ele>
        <time>2020-07-13T13:56:42Z</time>
      </trkpt>
      <trkpt lat="39.4576654304" lon="-6.3674316835">
        <ele>441.38</ele>
        <time>2020-07-13T13:56:43Z</time>
      </trkpt>
      <trkpt lat="39.4577054959" lon="-6.3674527220">
        <ele>440.90</ele>
        <time>2020-07-13T13:56:44Z</time>
      </trkpt>
      <trkpt lat="39.4577489141" lon="-6.3674657140">
        <ele>440.90</ele>
        <time>2020-07-13T13:56:45Z</time>
      </trkpt>
      <trkpt lat="39.4581562746" lon="-6.3675109763">
        <ele>440.42</ele>
        <time>2020-07-13T13:56:54Z</time>
      </trkpt>
      <trkpt lat="39.4586667325" lon="-6.3675212022">
        <ele>440.90</ele>
        <time>2020-07-13T13:57:05Z</time>
      </trkpt>
      <trkpt lat="39.4590647053" lon="-6.3674538955">
        <ele>441.38</ele>
        <time>2020-07-13T13:57:14Z</time>
      </trkpt>
      <trkpt lat="39.4594201818" lon="-6.3673766982">
        <ele>442.82</ele>
        <time>2020-07-13T13:57:23Z</time>
      </trkpt>
      <trkpt lat="39.4598538615" lon="-6.3672767021">
        <ele>443.79</ele>
        <time>2020-07-13T13:57:34Z</time>
      </trkpt>
      <trkpt lat="39.4602386747" lon="-6.3671978284">
        <ele>444.27</ele>
        <time>2020-07-13T13:57:43Z</time>
      </trkpt>
      <trkpt lat="39.4606538303" lon="-6.3671260793">
        <ele>442.82</ele>
        <time>2020-07-13T13:57:52Z</time>
      </trkpt>
      <trkpt lat="39.4612305891" lon="-6.3670358062">
        <ele>442.34</ele>
        <time>2020-07-13T13:58:04Z</time>
      </trkpt>
      <trkpt lat="39.4615752529" lon="-6.3669718523">
        <ele>443.31</ele>
        <time>2020-07-13T13:58:12Z</time>
      </trkpt>
      <trkpt lat="39.4619718846" lon="-6.3669498917">
        <ele>443.31</ele>
        <time>2020-07-13T13:58:22Z</time>
      </trkpt>
      <trkpt lat="39.4620513450" lon="-6.3669635542">
        <ele>443.31</ele>
        <time>2020-07-13T13:58:24Z</time>
      </trkpt>
      <trkpt lat="39.4624277763" lon="-6.3670199644">
        <ele>442.82</ele>
        <time>2020-07-13T13:58:33Z</time>
      </trkpt>
      <trkpt lat="39.4627357274" lon="-6.3670612872">
        <ele>442.34</ele>
        <time>2020-07-13T13:58:40Z</time>
      </trkpt>
      <trkpt lat="39.4631554931" lon="-6.3671192061">
        <ele>442.34</ele>
        <time>2020-07-13T13:58:50Z</time>
      </trkpt>
      <trkpt lat="39.4633630291" lon="-6.3671756163">
        <ele>442.82</ele>
        <time>2020-07-13T13:58:55Z</time>
      </trkpt>
      <trkpt lat="39.4638417196" lon="-6.3671601936">
        <ele>447.15</ele>
        <time>2020-07-13T13:59:06Z</time>
      </trkpt>
      <trkpt lat="39.4642168935" lon="-6.3671591040">
        <ele>446.19</ele>
        <time>2020-07-13T13:59:14Z</time>
      </trkpt>
      <trkpt lat="39.4647039659" lon="-6.3672062103">
        <ele>444.75</ele>
        <time>2020-07-13T13:59:25Z</time>
      </trkpt>
      <trkpt lat="39.4651032798" lon="-6.3673296757">
        <ele>443.31</ele>
        <time>2020-07-13T13:59:34Z</time>
      </trkpt>
      <trkpt lat="39.4655260630" lon="-6.3674975652">
        <ele>442.34</ele>
        <time>2020-07-13T13:59:43Z</time>
      </trkpt>
      <trkpt lat="39.4660062622" lon="-6.3676789496">
        <ele>441.38</ele>
        <time>2020-07-13T13:59:52Z</time>
      </trkpt>
      <trkpt lat="39.4663242716" lon="-6.3678108808">
        <ele>441.86</ele>
        <time>2020-07-13T13:59:59Z</time>
      </trkpt>
      <trkpt lat="39.4664855395" lon="-6.3678610884">
        <ele>443.31</ele>
        <time>2020-07-13T14:00:05Z</time>
      </trkpt>
      <trkpt lat="39.4665217493" lon="-6.3678819593">
        <ele>444.27</ele>
        <time>2020-07-13T14:00:08Z</time>
      </trkpt>
      <trkpt lat="39.4666607212" lon="-6.3679389562">
        <ele>444.75</ele>
        <time>2020-07-13T14:00:14Z</time>
      </trkpt>
      <trkpt lat="39.4667346496" lon="-6.3679675385">
        <ele>444.27</ele>
        <time>2020-07-13T14:00:16Z</time>
      </trkpt>
      <trkpt lat="39.4670955744" lon="-6.3681367692">
        <ele>440.90</ele>
        <time>2020-07-13T14:00:24Z</time>
      </trkpt>
      <trkpt lat="39.4672982488" lon="-6.3682228513">
        <ele>439.94</ele>
        <time>2020-07-13T14:00:28Z</time>
      </trkpt>
      <trkpt lat="39.4677823037" lon="-6.3684144616">
        <ele>439.94</ele>
        <time>2020-07-13T14:00:37Z</time>
      </trkpt>
      <trkpt lat="39.4681279734" lon="-6.3685391843">
        <ele>438.50</ele>
        <time>2020-07-13T14:00:44Z</time>
      </trkpt>
      <trkpt lat="39.4685736392" lon="-6.3687140308">
        <ele>437.54</ele>
        <time>2020-07-13T14:00:54Z</time>
      </trkpt>
      <trkpt lat="39.4686650857" lon="-6.3687482290">
        <ele>437.54</ele>
        <time>2020-07-13T14:00:56Z</time>
      </trkpt>
      <trkpt lat="39.4689904712" lon="-6.3690036256">
        <ele>437.06</ele>
        <time>2020-07-13T14:01:05Z</time>
      </trkpt>
      <trkpt lat="39.4692796469" lon="-6.3693175279">
        <ele>436.10</ele>
        <time>2020-07-13T14:01:13Z</time>
      </trkpt>
      <trkpt lat="39.4695956446" lon="-6.3696665503">
        <ele>435.61</ele>
        <time>2020-07-13T14:01:22Z</time>
      </trkpt>
      <trkpt lat="39.4696982391" lon="-6.3697740063">
        <ele>436.58</ele>
        <time>2020-07-13T14:01:26Z</time>
      </trkpt>
      <trkpt lat="39.4699514564" lon="-6.3698611781">
        <ele>434.65</ele>
        <time>2020-07-13T14:01:33Z</time>
      </trkpt>
      <trkpt lat="39.4701412227" lon="-6.3698511198">
        <ele>433.21</ele>
        <time>2020-07-13T14:01:39Z</time>
      </trkpt>
      <trkpt lat="39.4703615829" lon="-6.3697643671">
        <ele>432.73</ele>
        <time>2020-07-13T14:01:45Z</time>
      </trkpt>
      <trkpt lat="39.4706127886" lon="-6.3696592581">
        <ele>432.25</ele>
        <time>2020-07-13T14:01:52Z</time>
      </trkpt>
      <trkpt lat="39.4709475618" lon="-6.3695725054">
        <ele>433.69</ele>
        <time>2020-07-13T14:02:01Z</time>
      </trkpt>
      <trkpt lat="39.4712179620" lon="-6.3695865870">
        <ele>434.17</ele>
        <time>2020-07-13T14:02:08Z</time>
      </trkpt>
      <trkpt lat="39.4713436905" lon="-6.3696244732">
        <ele>432.73</ele>
        <time>2020-07-13T14:02:11Z</time>
      </trkpt>
      <trkpt lat="39.4715746958" lon="-6.3696072903">
        <ele>432.73</ele>
        <time>2020-07-13T14:02:16Z</time>
      </trkpt>
      <trkpt lat="39.4718368817" lon="-6.3694192003">
        <ele>431.29</ele>
        <time>2020-07-13T14:02:24Z</time>
      </trkpt>
      <trkpt lat="39.4718450122" lon="-6.3694031909">
        <ele>429.85</ele>
        <time>2020-07-13T14:02:29Z</time>
      </trkpt>
      <trkpt lat="39.4718527235" lon="-6.3693777937">
        <ele>428.40</ele>
        <time>2020-07-13T14:02:37Z</time>
      </trkpt>
      <trkpt lat="39.4718409050" lon="-6.3693834934">
        <ele>426.96</ele>
        <time>2020-07-13T14:02:47Z</time>
      </trkpt>
      <trkpt lat="39.4718595129" lon="-6.3694626186">
        <ele>426.48</ele>
        <time>2020-07-13T14:02:54Z</time>
      </trkpt>
      <trkpt lat="39.4717774540" lon="-6.3695594296">
        <ele>428.40</ele>
        <time>2020-07-13T14:03:04Z</time>
      </trkpt>
      <trkpt lat="39.4717042800" lon="-6.3696809672">
        <ele>429.37</ele>
        <time>2020-07-13T14:03:15Z</time>
      </trkpt>
      <trkpt lat="39.4716846664" lon="-6.3697421551">
        <ele>430.33</ele>
        <time>2020-07-13T14:03:23Z</time>
      </trkpt>
      <trkpt lat="39.4716725964" lon="-6.3697934523">
        <ele>430.81</ele>
        <time>2020-07-13T14:03:32Z</time>
      </trkpt>
      <trkpt lat="39.4716509711" lon="-6.3698854018">
        <ele>430.33</ele>
        <time>2020-07-13T14:03:40Z</time>
      </trkpt>
      <trkpt lat="39.4716330338" lon="-6.3699765131">
        <ele>431.77</ele>
        <time>2020-07-13T14:03:48Z</time>
      </trkpt>
      <trkpt lat="39.4716276694" lon="-6.3700375333">
        <ele>432.73</ele>
        <time>2020-07-13T14:03:56Z</time>
      </trkpt>
      <trkpt lat="39.4716279209" lon="-6.3700799458">
        <ele>434.17</ele>
        <time>2020-07-13T14:04:04Z</time>
      </trkpt>
      <trkpt lat="39.4715675712" lon="-6.3701721467">
        <ele>435.61</ele>
        <time>2020-07-13T14:04:13Z</time>
      </trkpt>
      <trkpt lat="39.4714476261" lon="-6.3702271320">
        <ele>438.02</ele>
        <time>2020-07-13T14:04:24Z</time>
      </trkpt>
      <trkpt lat="39.4714209717" lon="-6.3702440634">
        <ele>439.94</ele>
        <time>2020-07-13T14:04:32Z</time>
      </trkpt>
      <trkpt lat="39.4714204688" lon="-6.3702605758">
        <ele>440.90</ele>
        <time>2020-07-13T14:04:48Z</time>
      </trkpt>
      <trkpt lat="39.4713318720" lon="-6.3703030720">
        <ele>439.94</ele>
        <time>2020-07-13T14:04:56Z</time>
      </trkpt>
      <trkpt lat="39.4712959975" lon="-6.3703232724">
        <ele>439.46</ele>
        <time>2020-07-13T14:04:59Z</time>
      </trkpt>
      <trkpt lat="39.4712452870" lon="-6.3703508489">
        <ele>439.46</ele>
        <time>2020-07-13T14:05:05Z</time>
      </trkpt>
      <trkpt lat="39.4712777250" lon="-6.3704428822">
        <ele>439.94</ele>
        <time>2020-07-13T14:05:14Z</time>
      </trkpt>
      <trkpt lat="39.4713387452" lon="-6.3705123682">
        <ele>440.90</ele>
        <time>2020-07-13T14:05:21Z</time>
      </trkpt>
      <trkpt lat="39.4714246597" lon="-6.3705904037">
        <ele>443.31</ele>
        <time>2020-07-13T14:05:31Z</time>
      </trkpt>
      <trkpt lat="39.4714959059" lon="-6.3706789166">
        <ele>444.27</ele>
        <time>2020-07-13T14:05:40Z</time>
      </trkpt>
      <trkpt lat="39.4715269189" lon="-6.3707210775">
        <ele>444.75</ele>
        <time>2020-07-13T14:05:44Z</time>
      </trkpt>
      <trkpt lat="39.4715495501" lon="-6.3708088361">
        <ele>445.23</ele>
        <time>2020-07-13T14:05:53Z</time>
      </trkpt>
      <trkpt lat="39.4715652242" lon="-6.3708566129">
        <ele>446.19</ele>
        <time>2020-07-13T14:06:03Z</time>
      </trkpt>
      <trkpt lat="39.4715919625" lon="-6.3709519990">
        <ele>447.15</ele>
        <time>2020-07-13T14:06:10Z</time>
      </trkpt>
      <trkpt lat="39.4716061279" lon="-6.3710199762">
        <ele>448.11</ele>
        <time>2020-07-13T14:06:17Z</time>
      </trkpt>
      <trkpt lat="39.4716278370" lon="-6.3710675854">
        <ele>450.03</ele>
        <time>2020-07-13T14:06:30Z</time>
      </trkpt>
      <trkpt lat="39.4716647174" lon="-6.3712489698">
        <ele>452.44</ele>
        <time>2020-07-13T14:06:40Z</time>
      </trkpt>
      <trkpt lat="39.4717082195" lon="-6.3713615388">
        <ele>456.76</ele>
        <time>2020-07-13T14:06:49Z</time>
      </trkpt>
      <trkpt lat="39.4717658032" lon="-6.3715155981">
        <ele>458.69</ele>
        <time>2020-07-13T14:07:00Z</time>
      </trkpt>
      <trkpt lat="39.4717713352" lon="-6.3715706673">
        <ele>458.69</ele>
        <time>2020-07-13T14:07:08Z</time>
      </trkpt>
      <trkpt lat="39.4717668090" lon="-6.3715647161">
        <ele>458.69</ele>
        <time>2020-07-13T14:07:21Z</time>
      </trkpt>
      <trkpt lat="39.4717490394" lon="-6.3715742715">
        <ele>455.80</ele>
        <time>2020-07-13T14:07:41Z</time>
      </trkpt>
      <trkpt lat="39.4717481174" lon="-6.3715808094">
        <ele>457.24</ele>
        <time>2020-07-13T14:08:16Z</time>
      </trkpt>
      <trkpt lat="39.4717445131" lon="-6.3715791330">
        <ele>460.13</ele>
        <time>2020-07-13T14:08:44Z</time>
      </trkpt>
      <trkpt lat="39.4717433397" lon="-6.3715935498">
        <ele>459.17</ele>
        <time>2020-07-13T14:09:16Z</time>
      </trkpt>
      <trkpt lat="39.4717619475" lon="-6.3715472817">
        <ele>454.36</ele>
        <time>2020-07-13T14:09:41Z</time>
      </trkpt>
      <trkpt lat="39.4717684854" lon="-6.3715492096">
        <ele>452.92</ele>
        <time>2020-07-13T14:10:02Z</time>
      </trkpt>
      <trkpt lat="39.4717702456" lon="-6.3715695776">
        <ele>453.88</ele>
        <time>2020-07-13T14:10:23Z</time>
      </trkpt>
      <trkpt lat="39.4717628695" lon="-6.3715875987">
        <ele>454.84</ele>
        <time>2020-07-13T14:10:39Z</time>
      </trkpt>
      <trkpt lat="39.4717666414" lon="-6.3715895265">
        <ele>454.36</ele>
        <time>2020-07-13T14:10:48Z</time>
      </trkpt>
      <trkpt lat="39.4718174357" lon="-6.3716292568">
        <ele>453.88</ele>
        <time>2020-07-13T14:10:54Z</time>
      </trkpt>
      <trkpt lat="39.4719627779" lon="-6.3716019318">
        <ele>455.32</ele>
        <time>2020-07-13T14:11:05Z</time>
      </trkpt>
      <trkpt lat="39.4720433280" lon="-6.3715635426">
        <ele>456.76</ele>
        <time>2020-07-13T14:11:13Z</time>
      </trkpt>
      <trkpt lat="39.4720351137" lon="-6.3715689909">
        <ele>455.80</ele>
        <time>2020-07-13T14:11:21Z</time>
      </trkpt>
      <trkpt lat="39.4720362034" lon="-6.3715824019">
        <ele>456.28</ele>
        <time>2020-07-13T14:11:34Z</time>
      </trkpt>
      <trkpt lat="39.4720363710" lon="-6.3715896104">
        <ele>455.80</ele>
        <time>2020-07-13T14:11:46Z</time>
      </trkpt>
      <trkpt lat="39.4720335212" lon="-6.3715932984">
        <ele>456.28</ele>
        <time>2020-07-13T14:11:55Z</time>
      </trkpt>
      <trkpt lat="39.4720232952" lon="-6.3716015965">
        <ele>456.28</ele>
        <time>2020-07-13T14:12:04Z</time>
      </trkpt>
      <trkpt lat="39.4720175955" lon="-6.3715994172">
        <ele>456.76</ele>
        <time>2020-07-13T14:12:11Z</time>
      </trkpt>
      <trkpt lat="39.4720172603" lon="-6.3716135826">
        <ele>457.72</ele>
        <time>2020-07-13T14:12:17Z</time>
      </trkpt>
      <trkpt lat="39.4720133208" lon="-6.3716346212">
        <ele>459.65</ele>
        <time>2020-07-13T14:12:29Z</time>
      </trkpt>
      <trkpt lat="39.4720140751" lon="-6.3716626167">
        <ele>461.09</ele>
        <time>2020-07-13T14:12:44Z</time>
      </trkpt>
      <trkpt lat="39.4720243011" lon="-6.3716283347">
        <ele>462.05</ele>
        <time>2020-07-13T14:12:56Z</time>
      </trkpt>
      <trkpt lat="39.4719733391" lon="-6.3716368843">
        <ele>462.53</ele>
        <time>2020-07-13T14:13:11Z</time>
      </trkpt>
      <trkpt lat="39.4720137399" lon="-6.3715986628">
        <ele>462.53</ele>
        <time>2020-07-13T14:13:27Z</time>
      </trkpt>
      <trkpt lat="39.4720288273" lon="-6.3716086373">
        <ele>463.01</ele>
        <time>2020-07-13T14:13:43Z</time>
      </trkpt>
      <trkpt lat="39.4720134884" lon="-6.3715931308">
        <ele>463.01</ele>
        <time>2020-07-13T14:13:58Z</time>
      </trkpt>
      <trkpt lat="39.4718856644" lon="-6.3716568332">
        <ele>463.01</ele>
        <time>2020-07-13T14:14:12Z</time>
      </trkpt>
      <trkpt lat="39.4719607662" lon="-6.3717028499">
        <ele>464.93</ele>
        <time>2020-07-13T14:14:29Z</time>
      </trkpt>
      <trkpt lat="39.4719718304" lon="-6.3716466073">
        <ele>467.34</ele>
        <time>2020-07-13T14:14:42Z</time>
      </trkpt>
      <trkpt lat="39.4720211998" lon="-6.3716731779">
        <ele>468.30</ele>
        <time>2020-07-13T14:14:56Z</time>
      </trkpt>
      <trkpt lat="39.4720322639" lon="-6.3716398180">
        <ele>469.26</ele>
        <time>2020-07-13T14:15:10Z</time>
      </trkpt>
      <trkpt lat="39.4720191881" lon="-6.3715141732">
        <ele>469.26</ele>
        <time>2020-07-13T14:15:25Z</time>
      </trkpt>
      <trkpt lat="39.4720180985" lon="-6.3714911230">
        <ele>469.26</ele>
        <time>2020-07-13T14:15:38Z</time>
      </trkpt>
      <trkpt lat="39.4720312580" lon="-6.3715333678">
        <ele>469.26</ele>
        <time>2020-07-13T14:15:53Z</time>
      </trkpt>
      <trkpt lat="39.4720546436" lon="-6.3715411630">
        <ele>469.26</ele>
        <time>2020-07-13T14:16:03Z</time>
      </trkpt>
      <trkpt lat="39.4720232114" lon="-6.3714659773">
        <ele>469.26</ele>
        <time>2020-07-13T14:16:17Z</time>
      </trkpt>
      <trkpt lat="39.4720305875" lon="-6.3716933783">
        <ele>470.22</ele>
        <time>2020-07-13T14:16:22Z</time>
      </trkpt>
      <trkpt lat="39.4721004926" lon="-6.3718323503">
        <ele>471.18</ele>
        <time>2020-07-13T14:16:33Z</time>
      </trkpt>
      <trkpt lat="39.4720663782" lon="-6.3717471901">
        <ele>471.66</ele>
        <time>2020-07-13T14:17:08Z</time>
      </trkpt>
      <trkpt lat="39.4719898514" lon="-6.3716775365">
        <ele>471.66</ele>
        <time>2020-07-13T14:17:24Z</time>
      </trkpt>
      <trkpt lat="39.4719399791" lon="-6.3716640417">
        <ele>471.66</ele>
        <time>2020-07-13T14:17:39Z</time>
      </trkpt>
      <trkpt lat="39.4719319325" lon="-6.3716937974">
        <ele>471.66</ele>
        <time>2020-07-13T14:17:57Z</time>
      </trkpt>
      <trkpt lat="39.4719303399" lon="-6.3717166800">
        <ele>471.18</ele>
        <time>2020-07-13T14:18:10Z</time>
      </trkpt>
      <trkpt lat="39.4719203655" lon="-6.3716970664">
        <ele>470.70</ele>
        <time>2020-07-13T14:18:21Z</time>
      </trkpt>
      <trkpt lat="39.4718867540" lon="-6.3715603575">
        <ele>473.11</ele>
        <time>2020-07-13T14:18:36Z</time>
      </trkpt>
      <trkpt lat="39.4718631171" lon="-6.3715500478">
        <ele>470.70</ele>
        <time>2020-07-13T14:18:51Z</time>
      </trkpt>
      <trkpt lat="39.4718384743" lon="-6.3716057874">
        <ele>468.30</ele>
        <time>2020-07-13T14:19:05Z</time>
      </trkpt>
      <trkpt lat="39.4718984049" lon="-6.3716180250">
        <ele>469.74</ele>
        <time>2020-07-13T14:19:19Z</time>
      </trkpt>
      <trkpt lat="39.4718911964" lon="-6.3715979923">
        <ele>472.63</ele>
        <time>2020-07-13T14:19:33Z</time>
      </trkpt>
      <trkpt lat="39.4718771148" lon="-6.3715941366">
        <ele>472.14</ele>
        <time>2020-07-13T14:19:46Z</time>
      </trkpt>
      <trkpt lat="39.4717886858" lon="-6.3715466112">
        <ele>474.07</ele>
        <time>2020-07-13T14:20:02Z</time>
      </trkpt>
      <trkpt lat="39.4717893563" lon="-6.3714998402">
        <ele>474.07</ele>
        <time>2020-07-13T14:20:16Z</time>
      </trkpt>
      <trkpt lat="39.4717828184" lon="-6.3714915421">
        <ele>473.59</ele>
        <time>2020-07-13T14:20:32Z</time>
      </trkpt>
      <trkpt lat="39.4717205409" lon="-6.3715303503">
        <ele>477.43</ele>
        <time>2020-07-13T14:20:45Z</time>
      </trkpt>
      <trkpt lat="39.4717173558" lon="-6.3715207111">
        <ele>478.39</ele>
        <time>2020-07-13T14:20:57Z</time>
      </trkpt>
      <trkpt lat="39.4717911165" lon="-6.3715186156">
        <ele>480.32</ele>
        <time>2020-07-13T14:21:12Z</time>
      </trkpt>
      <trkpt lat="39.4719015900" lon="-6.3715208787">
        <ele>480.32</ele>
        <time>2020-07-13T14:21:30Z</time>
      </trkpt>
      <trkpt lat="39.4719328545" lon="-6.3715528976">
        <ele>480.32</ele>
        <time>2020-07-13T14:21:44Z</time>
      </trkpt>
      <trkpt lat="39.4719834812" lon="-6.3716102298">
        <ele>480.32</ele>
        <time>2020-07-13T14:22:00Z</time>
      </trkpt>
      <trkpt lat="39.4719950482" lon="-6.3715978246">
        <ele>480.32</ele>
        <time>2020-07-13T14:22:14Z</time>
      </trkpt>
      <trkpt lat="39.4720025919" lon="-6.3715506345">
        <ele>479.35</ele>
        <time>2020-07-13T14:22:27Z</time>
      </trkpt>
      <trkpt lat="39.4720242172" lon="-6.3715256564">
        <ele>479.35</ele>
        <time>2020-07-13T14:22:42Z</time>
      </trkpt>
      <trkpt lat="39.4720403105" lon="-6.3714807294">
        <ele>479.35</ele>
        <time>2020-07-13T14:22:55Z</time>
      </trkpt>
      <trkpt lat="39.4720115606" lon="-6.3714702521">
        <ele>479.35</ele>
        <time>2020-07-13T14:23:08Z</time>
      </trkpt>
      <trkpt lat="39.4719132408" lon="-6.3714654744">
        <ele>479.35</ele>
        <time>2020-07-13T14:23:20Z</time>
      </trkpt>
      <trkpt lat="39.4718206208" lon="-6.3714796398">
        <ele>479.35</ele>
        <time>2020-07-13T14:23:29Z</time>
      </trkpt>
      <trkpt lat="39.4716937188" lon="-6.3714361377">
        <ele>479.35</ele>
        <time>2020-07-13T14:23:44Z</time>
      </trkpt>
      <trkpt lat="39.4716815650" lon="-6.3714258280">
        <ele>479.35</ele>
        <time>2020-07-13T14:24:00Z</time>
      </trkpt>
      <trkpt lat="39.4717149250" lon="-6.3714453578">
        <ele>479.35</ele>
        <time>2020-07-13T14:24:14Z</time>
      </trkpt>
      <trkpt lat="39.4717477821" lon="-6.3714943919">
        <ele>479.35</ele>
        <time>2020-07-13T14:24:31Z</time>
      </trkpt>
      <trkpt lat="39.4716790505" lon="-6.3714718446">
        <ele>479.35</ele>
        <time>2020-07-13T14:24:45Z</time>
      </trkpt>
      <trkpt lat="39.4716422539" lon="-6.3714863453">
        <ele>479.35</ele>
        <time>2020-07-13T14:24:57Z</time>
      </trkpt>
      <trkpt lat="39.4715648051" lon="-6.3714772929">
        <ele>479.35</ele>
        <time>2020-07-13T14:25:12Z</time>
      </trkpt>
      <trkpt lat="39.4715666492" lon="-6.3714673184">
        <ele>479.35</ele>
        <time>2020-07-13T14:25:29Z</time>
      </trkpt>
      <trkpt lat="39.4715707563" lon="-6.3714038674">
        <ele>478.39</ele>
        <time>2020-07-13T14:25:44Z</time>
      </trkpt>
      <trkpt lat="39.4715950638" lon="-6.3713662326">
        <ele>478.39</ele>
        <time>2020-07-13T14:26:00Z</time>
      </trkpt>
      <trkpt lat="39.4716832414" lon="-6.3713797275">
        <ele>476.47</ele>
        <time>2020-07-13T14:26:13Z</time>
      </trkpt>
      <trkpt lat="39.4717463572" lon="-6.3713809848">
        <ele>475.99</ele>
        <time>2020-07-13T14:26:28Z</time>
      </trkpt>
      <trkpt lat="39.4718400668" lon="-6.3713940606">
        <ele>475.51</ele>
        <time>2020-07-13T14:26:40Z</time>
      </trkpt>
      <trkpt lat="39.4718892686" lon="-6.3714145962">
        <ele>475.51</ele>
        <time>2020-07-13T14:26:50Z</time>
      </trkpt>
      <trkpt lat="39.4719423261" lon="-6.3716146722">
        <ele>482.72</ele>
        <time>2020-07-15T05:03:24Z</time>
      </trkpt>
      <trkpt lat="39.4719367102" lon="-6.3716321904">
        <ele>484.64</ele>
        <time>2020-07-15T05:03:37Z</time>
      </trkpt>
      <trkpt lat="39.4719148334" lon="-6.3716349564">
        <ele>489.93</ele>
        <time>2020-07-15T05:04:00Z</time>
      </trkpt>
      <trkpt lat="39.4719146658" lon="-6.3716402370">
        <ele>490.41</ele>
        <time>2020-07-15T05:04:10Z</time>
      </trkpt>
      <trkpt lat="39.4719117321" lon="-6.3716475293">
        <ele>490.89</ele>
        <time>2020-07-15T05:04:17Z</time>
      </trkpt>
      <trkpt lat="39.4718401507" lon="-6.3716315199">
        <ele>473.11</ele>
        <time>2020-07-15T05:04:25Z</time>
      </trkpt>
      <trkpt lat="39.4717390649" lon="-6.3716687355">
        <ele>468.30</ele>
        <time>2020-07-15T05:04:32Z</time>
      </trkpt>
      <trkpt lat="39.4717009272" lon="-6.3717087172">
        <ele>467.82</ele>
        <time>2020-07-15T05:04:34Z</time>
      </trkpt>
      <trkpt lat="39.4716549944" lon="-6.3719123136">
        <ele>463.97</ele>
        <time>2020-07-15T05:04:41Z</time>
      </trkpt>
      <trkpt lat="39.4716636278" lon="-6.3719463442">
        <ele>463.49</ele>
        <time>2020-07-15T05:04:42Z</time>
      </trkpt>
      <trkpt lat="39.4716799725" lon="-6.3720301632">
        <ele>460.61</ele>
        <time>2020-07-15T05:04:49Z</time>
      </trkpt>
      <trkpt lat="39.4716826547" lon="-6.3720206078">
        <ele>459.65</ele>
        <time>2020-07-15T05:04:51Z</time>
      </trkpt>
      <trkpt lat="39.4716957305" lon="-6.3719163369">
        <ele>456.76</ele>
        <time>2020-07-15T05:04:58Z</time>
      </trkpt>
      <trkpt lat="39.4715963211" lon="-6.3719242997">
        <ele>453.88</ele>
        <time>2020-07-15T05:05:03Z</time>
      </trkpt>
      <trkpt lat="39.4714254141" lon="-6.3720277324">
        <ele>452.44</ele>
        <time>2020-07-15T05:05:11Z</time>
      </trkpt>
      <trkpt lat="39.4713151082" lon="-6.3721620943">
        <ele>451.96</ele>
        <time>2020-07-15T05:05:16Z</time>
      </trkpt>
      <trkpt lat="39.4712244160" lon="-6.3722766750">
        <ele>450.52</ele>
        <time>2020-07-15T05:05:22Z</time>
      </trkpt>
      <trkpt lat="39.4711940736" lon="-6.3723561354">
        <ele>448.11</ele>
        <time>2020-07-15T05:05:30Z</time>
      </trkpt>
      <trkpt lat="39.4711586181" lon="-6.3723737374">
        <ele>448.11</ele>
        <time>2020-07-15T05:05:36Z</time>
      </trkpt>
      <trkpt lat="39.4711246714" lon="-6.3724287227">
        <ele>447.63</ele>
        <time>2020-07-15T05:05:41Z</time>
      </trkpt>
      <trkpt lat="39.4710773975" lon="-6.3724827860">
        <ele>445.71</ele>
        <time>2020-07-15T05:05:47Z</time>
      </trkpt>
      <trkpt lat="39.4710343983" lon="-6.3725260366">
        <ele>444.75</ele>
        <time>2020-07-15T05:05:53Z</time>
      </trkpt>
      <trkpt lat="39.4709935784" lon="-6.3725553732">
        <ele>442.34</ele>
        <time>2020-07-15T05:05:59Z</time>
      </trkpt>
      <trkpt lat="39.4709537644" lon="-6.3725909125">
        <ele>440.42</ele>
        <time>2020-07-15T05:06:04Z</time>
      </trkpt>
      <trkpt lat="39.4709007069" lon="-6.3726394437">
        <ele>437.54</ele>
        <time>2020-07-15T05:06:10Z</time>
      </trkpt>
      <trkpt lat="39.4708708674" lon="-6.3726915792">
        <ele>432.73</ele>
        <time>2020-07-15T05:06:17Z</time>
      </trkpt>
      <trkpt lat="39.4708309695" lon="-6.3727500848">
        <ele>430.33</ele>
        <time>2020-07-15T05:06:23Z</time>
      </trkpt>
      <trkpt lat="39.4708453026" lon="-6.3728271145">
        <ele>429.37</ele>
        <time>2020-07-15T05:06:27Z</time>
      </trkpt>
      <trkpt lat="39.4708605576" lon="-6.3728696108">
        <ele>429.85</ele>
        <time>2020-07-15T05:06:35Z</time>
      </trkpt>
      <trkpt lat="39.4708646648" lon="-6.3728956785">
        <ele>431.29</ele>
        <time>2020-07-15T05:06:50Z</time>
      </trkpt>
      <trkpt lat="39.4708545227" lon="-6.3729220815">
        <ele>432.73</ele>
        <time>2020-07-15T05:07:05Z</time>
      </trkpt>
      <trkpt lat="39.4708614796" lon="-6.3729463052">
        <ele>433.21</ele>
        <time>2020-07-15T05:07:08Z</time>
      </trkpt>
      <trkpt lat="39.4709385931" lon="-6.3731027953">
        <ele>435.13</ele>
        <time>2020-07-15T05:07:15Z</time>
      </trkpt>
      <trkpt lat="39.4710910600" lon="-6.3733083196">
        <ele>434.65</ele>
        <time>2020-07-15T05:07:23Z</time>
      </trkpt>
      <trkpt lat="39.4713028707" lon="-6.3735694159">
        <ele>434.17</ele>
        <time>2020-07-15T05:07:32Z</time>
      </trkpt>
      <trkpt lat="39.4714394119" lon="-6.3737621997">
        <ele>434.17</ele>
        <time>2020-07-15T05:07:38Z</time>
      </trkpt>
      <trkpt lat="39.4716537371" lon="-6.3740447536">
        <ele>435.13</ele>
        <time>2020-07-15T05:07:47Z</time>
      </trkpt>
      <trkpt lat="39.4718846586" lon="-6.3743320853">
        <ele>437.06</ele>
        <time>2020-07-15T05:07:57Z</time>
      </trkpt>
      <trkpt lat="39.4720553141" lon="-6.3745470811">
        <ele>439.46</ele>
        <time>2020-07-15T05:08:06Z</time>
      </trkpt>
      <trkpt lat="39.4721951243" lon="-6.3746110350">
        <ele>444.75</ele>
        <time>2020-07-15T05:08:11Z</time>
      </trkpt>
      <trkpt lat="39.4723569788" lon="-6.3745968696">
        <ele>452.44</ele>
        <time>2020-07-15T05:08:19Z</time>
      </trkpt>
      <trkpt lat="39.4724896643" lon="-6.3745663594">
        <ele>453.40</ele>
        <time>2020-07-15T05:08:26Z</time>
      </trkpt>
      <trkpt lat="39.4725801889" lon="-6.3744907547">
        <ele>452.44</ele>
        <time>2020-07-15T05:08:32Z</time>
      </trkpt>
      <trkpt lat="39.4726478308" lon="-6.3744339254">
        <ele>454.36</ele>
        <time>2020-07-15T05:08:38Z</time>
      </trkpt>
      <trkpt lat="39.4727781694" lon="-6.3743226975">
        <ele>455.80</ele>
        <time>2020-07-15T05:08:48Z</time>
      </trkpt>
      <trkpt lat="39.4728831109" lon="-6.3742207736">
        <ele>456.28</ele>
        <time>2020-07-15T05:08:56Z</time>
      </trkpt>
      <trkpt lat="39.4729625713" lon="-6.3741390500">
        <ele>456.76</ele>
        <time>2020-07-15T05:09:03Z</time>
      </trkpt>
      <trkpt lat="39.4730568677" lon="-6.3740678038">
        <ele>454.84</ele>
        <time>2020-07-15T05:09:10Z</time>
      </trkpt>
      <trkpt lat="39.4731120206" lon="-6.3740360364">
        <ele>453.88</ele>
        <time>2020-07-15T05:09:13Z</time>
      </trkpt>
      <trkpt lat="39.4732519146" lon="-6.3739543967">
        <ele>451.48</ele>
        <time>2020-07-15T05:09:22Z</time>
      </trkpt>
      <trkpt lat="39.4733612146" lon="-6.3738642912">
        <ele>450.03</ele>
        <time>2020-07-15T05:09:29Z</time>
      </trkpt>
      <trkpt lat="39.4734228216" lon="-6.3737680670">
        <ele>451.48</ele>
        <time>2020-07-15T05:09:37Z</time>
      </trkpt>
      <trkpt lat="39.4734440278" lon="-6.3737363834">
        <ele>451.48</ele>
        <time>2020-07-15T05:09:40Z</time>
      </trkpt>
      <trkpt lat="39.4734633900" lon="-6.3737344556">
        <ele>451.96</ele>
        <time>2020-07-15T05:09:42Z</time>
      </trkpt>
      <trkpt lat="39.4735258352" lon="-6.3737917878">
        <ele>452.44</ele>
        <time>2020-07-15T05:09:50Z</time>
      </trkpt>
      <trkpt lat="39.4735793117" lon="-6.3737060409">
        <ele>452.44</ele>
        <time>2020-07-15T05:09:56Z</time>
      </trkpt>
      <trkpt lat="39.4735958241" lon="-6.3735162746">
        <ele>451.48</ele>
        <time>2020-07-15T05:10:04Z</time>
      </trkpt>
      <trkpt lat="39.4735891186" lon="-6.3733847626">
        <ele>451.48</ele>
        <time>2020-07-15T05:10:09Z</time>
      </trkpt>
      <trkpt lat="39.4734719396" lon="-6.3732127659">
        <ele>452.92</ele>
        <time>2020-07-15T05:10:19Z</time>
      </trkpt>
      <trkpt lat="39.4734635577" lon="-6.3731722813">
        <ele>452.92</ele>
        <time>2020-07-15T05:10:21Z</time>
      </trkpt>
      <trkpt lat="39.4734965824" lon="-6.3730989397">
        <ele>452.44</ele>
        <time>2020-07-15T05:10:25Z</time>
      </trkpt>
      <trkpt lat="39.4736285973" lon="-6.3729509152">
        <ele>450.52</ele>
        <time>2020-07-15T05:10:34Z</time>
      </trkpt>
      <trkpt lat="39.4737806451" lon="-6.3727853727">
        <ele>448.59</ele>
        <time>2020-07-15T05:10:43Z</time>
      </trkpt>
      <trkpt lat="39.4739496242" lon="-6.3725051656">
        <ele>447.15</ele>
        <time>2020-07-15T05:10:53Z</time>
      </trkpt>
      <trkpt lat="39.4741152506" lon="-6.3724423014">
        <ele>447.15</ele>
        <time>2020-07-15T05:10:59Z</time>
      </trkpt>
      <trkpt lat="39.4743396342" lon="-6.3722505234">
        <ele>445.71</ele>
        <time>2020-07-15T05:11:07Z</time>
      </trkpt>
      <trkpt lat="39.4745287299" lon="-6.3720895909">
        <ele>441.86</ele>
        <time>2020-07-15T05:11:14Z</time>
      </trkpt>
      <trkpt lat="39.4746859744" lon="-6.3719341904">
        <ele>439.94</ele>
        <time>2020-07-15T05:11:23Z</time>
      </trkpt>
      <trkpt lat="39.4748083502" lon="-6.3718329370">
        <ele>438.02</ele>
        <time>2020-07-15T05:11:30Z</time>
      </trkpt>
      <trkpt lat="39.4748223480" lon="-6.3718263991">
        <ele>438.02</ele>
        <time>2020-07-15T05:11:31Z</time>
      </trkpt>
      <trkpt lat="39.4748666044" lon="-6.3717035204">
        <ele>437.54</ele>
        <time>2020-07-15T05:11:37Z</time>
      </trkpt>
      <trkpt lat="39.4748501759" lon="-6.3716223836">
        <ele>437.54</ele>
        <time>2020-07-15T05:11:41Z</time>
      </trkpt>
      <trkpt lat="39.4748441409" lon="-6.3716651313">
        <ele>437.54</ele>
        <time>2020-07-15T05:11:45Z</time>
      </trkpt>
      <trkpt lat="39.4748598989" lon="-6.3717128243">
        <ele>437.06</ele>
        <time>2020-07-15T05:11:49Z</time>
      </trkpt>
      <trkpt lat="39.4748955220" lon="-6.3717498723">
        <ele>437.06</ele>
        <time>2020-07-15T05:11:52Z</time>
      </trkpt>
      <trkpt lat="39.4749822747" lon="-6.3717566617">
        <ele>436.10</ele>
        <time>2020-07-15T05:11:59Z</time>
      </trkpt>
      <trkpt lat="39.4749267865" lon="-6.3717783708">
        <ele>436.10</ele>
        <time>2020-07-15T05:12:04Z</time>
      </trkpt>
      <trkpt lat="39.4748578034" lon="-6.3718190230">
        <ele>436.58</ele>
        <time>2020-07-15T05:12:10Z</time>
      </trkpt>
      <trkpt lat="39.4748629164" lon="-6.3718564063">
        <ele>436.10</ele>
        <time>2020-07-15T05:12:13Z</time>
      </trkpt>
      <trkpt lat="39.4749091007" lon="-6.3718325179">
        <ele>435.61</ele>
        <time>2020-07-15T05:12:21Z</time>
      </trkpt>
      <trkpt lat="39.4749210030" lon="-6.3718229625">
        <ele>437.06</ele>
        <time>2020-07-15T05:12:34Z</time>
      </trkpt>
      <trkpt lat="39.4749713782" lon="-6.3717937935">
        <ele>437.54</ele>
        <time>2020-07-15T05:12:38Z</time>
      </trkpt>
      <trkpt lat="39.4750759844" lon="-6.3715729304">
        <ele>437.06</ele>
        <time>2020-07-15T05:12:47Z</time>
      </trkpt>
      <trkpt lat="39.4751614798" lon="-6.3713608682">
        <ele>436.58</ele>
        <time>2020-07-15T05:12:55Z</time>
      </trkpt>
      <trkpt lat="39.4753229152" lon="-6.3711939007">
        <ele>434.65</ele>
        <time>2020-07-15T05:13:03Z</time>
      </trkpt>
      <trkpt lat="39.4755846821" lon="-6.3710738719">
        <ele>432.25</ele>
        <time>2020-07-15T05:13:12Z</time>
      </trkpt>
      <trkpt lat="39.4757643901" lon="-6.3709720317">
        <ele>430.33</ele>
        <time>2020-07-15T05:13:19Z</time>
      </trkpt>
      <trkpt lat="39.4759114087" lon="-6.3707683515">
        <ele>425.52</ele>
        <time>2020-07-15T05:13:26Z</time>
      </trkpt>
      <trkpt lat="39.4760288391" lon="-6.3706281222">
        <ele>423.12</ele>
        <time>2020-07-15T05:13:32Z</time>
      </trkpt>
      <trkpt lat="39.4760922063" lon="-6.3706619851">
        <ele>422.16</ele>
        <time>2020-07-15T05:13:36Z</time>
      </trkpt>
      <trkpt lat="39.4762248080" lon="-6.3709187228">
        <ele>421.19</ele>
        <time>2020-07-15T05:13:44Z</time>
      </trkpt>
      <trkpt lat="39.4763098005" lon="-6.3711854350">
        <ele>420.71</ele>
        <time>2020-07-15T05:13:49Z</time>
      </trkpt>
      <trkpt lat="39.4763962179" lon="-6.3714477886">
        <ele>420.23</ele>
        <time>2020-07-15T05:13:53Z</time>
      </trkpt>
      <trkpt lat="39.4765759259" lon="-6.3717527222">
        <ele>420.71</ele>
        <time>2020-07-15T05:14:00Z</time>
      </trkpt>
      <trkpt lat="39.4766627625" lon="-6.3718735892">
        <ele>421.19</ele>
        <time>2020-07-15T05:14:06Z</time>
      </trkpt>
      <trkpt lat="39.4767681230" lon="-6.3720376231">
        <ele>423.12</ele>
        <time>2020-07-15T05:14:13Z</time>
      </trkpt>
      <trkpt lat="39.4769028202" lon="-6.3722382020">
        <ele>425.52</ele>
        <time>2020-07-15T05:14:20Z</time>
      </trkpt>
      <trkpt lat="39.4770784210" lon="-6.3724838756">
        <ele>428.40</ele>
        <time>2020-07-15T05:14:29Z</time>
      </trkpt>
      <trkpt lat="39.4772427063" lon="-6.3727044035">
        <ele>429.85</ele>
        <time>2020-07-15T05:14:37Z</time>
      </trkpt>
      <trkpt lat="39.4774033874" lon="-6.3729217462">
        <ele>432.73</ele>
        <time>2020-07-15T05:14:45Z</time>
      </trkpt>
      <trkpt lat="39.4775616378" lon="-6.3730760571">
        <ele>435.13</ele>
        <time>2020-07-15T05:14:52Z</time>
      </trkpt>
      <trkpt lat="39.4777949899" lon="-6.3733032905">
        <ele>438.98</ele>
        <time>2020-07-15T05:15:02Z</time>
      </trkpt>
      <trkpt lat="39.4780656416" lon="-6.3735606149">
        <ele>442.34</ele>
        <time>2020-07-15T05:15:13Z</time>
      </trkpt>
      <trkpt lat="39.4782474451" lon="-6.3737000898">
        <ele>444.27</ele>
        <time>2020-07-15T05:15:20Z</time>
      </trkpt>
      <trkpt lat="39.4784958847" lon="-6.3739600126">
        <ele>444.75</ele>
        <time>2020-07-15T05:15:30Z</time>
      </trkpt>
      <trkpt lat="39.4787263032" lon="-6.3742255513">
        <ele>446.67</ele>
        <time>2020-07-15T05:15:40Z</time>
      </trkpt>
      <trkpt lat="39.4789603259" lon="-6.3744765054">
        <ele>447.15</ele>
        <time>2020-07-15T05:15:50Z</time>
      </trkpt>
      <trkpt lat="39.4792005513" lon="-6.3746925071">
        <ele>447.63</ele>
        <time>2020-07-15T05:15:59Z</time>
      </trkpt>
      <trkpt lat="39.4794660900" lon="-6.3748727180">
        <ele>448.11</ele>
        <time>2020-07-15T05:16:07Z</time>
      </trkpt>
      <trkpt lat="39.4796923175" lon="-6.3750321418">
        <ele>450.03</ele>
        <time>2020-07-15T05:16:15Z</time>
      </trkpt>
      <trkpt lat="39.4798150286" lon="-6.3751250971">
        <ele>450.52</ele>
        <time>2020-07-15T05:16:23Z</time>
      </trkpt>
      <trkpt lat="39.4798177108" lon="-6.3751289528">
        <ele>450.03</ele>
        <time>2020-07-15T05:16:30Z</time>
      </trkpt>
      <trkpt lat="39.4798633084" lon="-6.3751590438">
        <ele>450.03</ele>
        <time>2020-07-15T05:16:37Z</time>
      </trkpt>
      <trkpt lat="39.4799497258" lon="-6.3753316272">
        <ele>449.07</ele>
        <time>2020-07-15T05:16:43Z</time>
      </trkpt>
      <trkpt lat="39.4799456187" lon="-6.3756316155">
        <ele>445.71</ele>
        <time>2020-07-15T05:16:52Z</time>
      </trkpt>
      <trkpt lat="39.4800306112" lon="-6.3759141695">
        <ele>445.23</ele>
        <time>2020-07-15T05:17:00Z</time>
      </trkpt>
      <trkpt lat="39.4801756181" lon="-6.3760901056">
        <ele>443.79</ele>
        <time>2020-07-15T05:17:07Z</time>
      </trkpt>
      <trkpt lat="39.4802866783" lon="-6.3761947118">
        <ele>442.34</ele>
        <time>2020-07-15T05:17:14Z</time>
      </trkpt>
      <trkpt lat="39.4802976586" lon="-6.3763218652">
        <ele>441.38</ele>
        <time>2020-07-15T05:17:20Z</time>
      </trkpt>
      <trkpt lat="39.4803104829" lon="-6.3762939535">
        <ele>441.38</ele>
        <time>2020-07-15T05:17:34Z</time>
      </trkpt>
      <trkpt lat="39.4802978262" lon="-6.3763051853">
        <ele>440.42</ele>
        <time>2020-07-15T05:17:53Z</time>
      </trkpt>
      <trkpt lat="39.4803070463" lon="-6.3763233740">
        <ele>437.54</ele>
        <time>2020-07-15T05:18:05Z</time>
      </trkpt>
      <trkpt lat="39.4802958984" lon="-6.3763045985">
        <ele>436.58</ele>
        <time>2020-07-15T05:18:18Z</time>
      </trkpt>
      <trkpt lat="39.4802922942" lon="-6.3763250504">
        <ele>438.50</ele>
        <time>2020-07-15T05:18:41Z</time>
      </trkpt>
      <trkpt lat="39.4803100638" lon="-6.3763146568">
        <ele>437.54</ele>
        <time>2020-07-15T05:18:59Z</time>
      </trkpt>
      <trkpt lat="39.4803058729" lon="-6.3763120584">
        <ele>436.58</ele>
        <time>2020-07-15T05:19:11Z</time>
      </trkpt>
      <trkpt lat="39.4802485406" lon="-6.3763379585">
        <ele>447.63</ele>
        <time>2020-07-15T05:19:46Z</time>
      </trkpt>
      <trkpt lat="39.4802814815" lon="-6.3763303310">
        <ele>442.34</ele>
        <time>2020-07-15T05:20:09Z</time>
      </trkpt>
      <trkpt lat="39.4802888576" lon="-6.3763224520">
        <ele>439.46</ele>
        <time>2020-07-15T05:20:28Z</time>
      </trkpt>
      <trkpt lat="39.4802972395" lon="-6.3763097115">
        <ele>440.90</ele>
        <time>2020-07-15T05:20:38Z</time>
      </trkpt>
      <trkpt lat="39.4802899472" lon="-6.3765163254">
        <ele>440.42</ele>
        <time>2020-07-15T05:20:45Z</time>
      </trkpt>
      <trkpt lat="39.4802619517" lon="-6.3768798485">
        <ele>438.98</ele>
        <time>2020-07-15T05:20:51Z</time>
      </trkpt>
      <trkpt lat="39.4802213833" lon="-6.3773459662">
        <ele>437.06</ele>
        <time>2020-07-15T05:20:57Z</time>
      </trkpt>
      <trkpt lat="39.4802158512" lon="-6.3774123508">
        <ele>436.10</ele>
        <time>2020-07-15T05:20:58Z</time>
      </trkpt>
      <trkpt lat="39.4802154321" lon="-6.3774789870">
        <ele>435.61</ele>
        <time>2020-07-15T05:20:59Z</time>
      </trkpt>
      <trkpt lat="39.4802130852" lon="-6.3776073139">
        <ele>435.13</ele>
        <time>2020-07-15T05:21:01Z</time>
      </trkpt>
      <trkpt lat="39.4802062120" lon="-6.3776782248">
        <ele>434.65</ele>
        <time>2020-07-15T05:21:02Z</time>
      </trkpt>
      <trkpt lat="39.4801832456" lon="-6.3778829947">
        <ele>433.21</ele>
        <time>2020-07-15T05:21:05Z</time>
      </trkpt>
      <trkpt lat="39.4801748637" lon="-6.3784264773">
        <ele>429.85</ele>
        <time>2020-07-15T05:21:13Z</time>
      </trkpt>
      <trkpt lat="39.4801879395" lon="-6.3784847315">
        <ele>428.89</ele>
        <time>2020-07-15T05:21:14Z</time>
      </trkpt>
      <trkpt lat="39.4802105706" lon="-6.3785351068">
        <ele>428.40</ele>
        <time>2020-07-15T05:21:15Z</time>
      </trkpt>
      <trkpt lat="39.4802937191" lon="-6.3786702231">
        <ele>426.00</ele>
        <time>2020-07-15T05:21:18Z</time>
      </trkpt>
      <trkpt lat="39.4803250674" lon="-6.3787089474">
        <ele>425.52</ele>
        <time>2020-07-15T05:21:19Z</time>
      </trkpt>
      <trkpt lat="39.4803683180" lon="-6.3787507731">
        <ele>425.04</ele>
        <time>2020-07-15T05:21:20Z</time>
      </trkpt>
      <trkpt lat="39.4804027677" lon="-6.3787775952">
        <ele>424.08</ele>
        <time>2020-07-15T05:21:21Z</time>
      </trkpt>
      <trkpt lat="39.4804502092" lon="-6.3788109552">
        <ele>423.60</ele>
        <time>2020-07-15T05:21:22Z</time>
      </trkpt>
      <trkpt lat="39.4807306677" lon="-6.3790101930">
        <ele>419.27</ele>
        <time>2020-07-15T05:21:28Z</time>
      </trkpt>
      <trkpt lat="39.4807953760" lon="-6.3790483307">
        <ele>418.79</ele>
        <time>2020-07-15T05:21:29Z</time>
      </trkpt>
      <trkpt lat="39.4811963663" lon="-6.3792760670">
        <ele>414.47</ele>
        <time>2020-07-15T05:21:35Z</time>
      </trkpt>
      <trkpt lat="39.4812957756" lon="-6.3793563657">
        <ele>413.50</ele>
        <time>2020-07-15T05:21:37Z</time>
      </trkpt>
      <trkpt lat="39.4814006332" lon="-6.3794237562">
        <ele>412.06</ele>
        <time>2020-07-15T05:21:39Z</time>
      </trkpt>
      <trkpt lat="39.4817989413" lon="-6.3797650672">
        <ele>408.22</ele>
        <time>2020-07-15T05:21:45Z</time>
      </trkpt>
      <trkpt lat="39.4823031127" lon="-6.3800884411">
        <ele>404.37</ele>
        <time>2020-07-15T05:21:51Z</time>
      </trkpt>
      <trkpt lat="39.4828934502" lon="-6.3804054447">
        <ele>402.45</ele>
        <time>2020-07-15T05:21:58Z</time>
      </trkpt>
      <trkpt lat="39.4836199936" lon="-6.3808848895">
        <ele>398.60</ele>
        <time>2020-07-15T05:22:08Z</time>
      </trkpt>
      <trkpt lat="39.4844675716" lon="-6.3814525120">
        <ele>394.76</ele>
        <time>2020-07-15T05:22:19Z</time>
      </trkpt>
      <trkpt lat="39.4851024169" lon="-6.3818724453">
        <ele>394.28</ele>
        <time>2020-07-15T05:22:28Z</time>
      </trkpt>
      <trkpt lat="39.4854379445" lon="-6.3820884470">
        <ele>395.24</ele>
        <time>2020-07-15T05:22:35Z</time>
      </trkpt>
      <trkpt lat="39.4855107833" lon="-6.3820995111">
        <ele>395.24</ele>
        <time>2020-07-15T05:22:39Z</time>
      </trkpt>
      <trkpt lat="39.4855213445" lon="-6.3820958231">
        <ele>398.60</ele>
        <time>2020-07-15T05:22:59Z</time>
      </trkpt>
      <trkpt lat="39.4855150580" lon="-6.3820954878">
        <ele>399.08</ele>
        <time>2020-07-15T05:23:07Z</time>
      </trkpt>
      <trkpt lat="39.4855278824" lon="-6.3820850104">
        <ele>398.60</ele>
        <time>2020-07-15T05:23:11Z</time>
      </trkpt>
      <trkpt lat="39.4855366834" lon="-6.3820795622">
        <ele>398.60</ele>
        <time>2020-07-15T05:23:12Z</time>
      </trkpt>
      <trkpt lat="39.4855630025" lon="-6.3820748683">
        <ele>398.60</ele>
        <time>2020-07-15T05:23:19Z</time>
      </trkpt>
      <trkpt lat="39.4855666906" lon="-6.3820867706">
        <ele>398.12</ele>
        <time>2020-07-15T05:23:27Z</time>
      </trkpt>
      <trkpt lat="39.4855749048" lon="-6.3820946496">
        <ele>397.16</ele>
        <time>2020-07-15T05:23:53Z</time>
      </trkpt>
      <trkpt lat="39.4855674449" lon="-6.3820999302">
        <ele>396.20</ele>
        <time>2020-07-15T05:24:10Z</time>
      </trkpt>
      <trkpt lat="39.4855547883" lon="-6.3821013551">
        <ele>397.16</ele>
        <time>2020-07-15T05:24:47Z</time>
      </trkpt>
      <trkpt lat="39.4855530281" lon="-6.3820895366">
        <ele>397.64</ele>
        <time>2020-07-15T05:25:12Z</time>
      </trkpt>
      <trkpt lat="39.4855557103" lon="-6.3820830826">
        <ele>397.16</ele>
        <time>2020-07-15T05:25:31Z</time>
      </trkpt>
      <trkpt lat="39.4855665229" lon="-6.3820830826">
        <ele>397.64</ele>
        <time>2020-07-15T05:25:55Z</time>
      </trkpt>
      <trkpt lat="39.4855604041" lon="-6.3821001817">
        <ele>397.16</ele>
        <time>2020-07-15T05:26:21Z</time>
      </trkpt>
      <trkpt lat="39.4855620805" lon="-6.3820938114">
        <ele>397.64</ele>
        <time>2020-07-15T05:26:43Z</time>
      </trkpt>
      <trkpt lat="39.4855630863" lon="-6.3820866030">
        <ele>397.16</ele>
        <time>2020-07-15T05:26:59Z</time>
      </trkpt>
      <trkpt lat="39.4856127072" lon="-6.3820839208">
        <ele>396.68</ele>
        <time>2020-07-15T05:27:06Z</time>
      </trkpt>
      <trkpt lat="39.4856479950" lon="-6.3820788078">
        <ele>396.68</ele>
        <time>2020-07-15T05:27:09Z</time>
      </trkpt>
      <trkpt lat="39.4856588077" lon="-6.3820816576">
        <ele>396.68</ele>
        <time>2020-07-15T05:27:10Z</time>
      </trkpt>
      <trkpt lat="39.4856711291" lon="-6.3820783049">
        <ele>397.16</ele>
        <time>2020-07-15T05:27:11Z</time>
      </trkpt>
      <trkpt lat="39.4857990369" lon="-6.3819928095">
        <ele>397.64</ele>
        <time>2020-07-15T05:27:19Z</time>
      </trkpt>
      <trkpt lat="39.4859646633" lon="-6.3818925619">
        <ele>397.16</ele>
        <time>2020-07-15T05:27:26Z</time>
      </trkpt>
      <trkpt lat="39.4862017035" lon="-6.3818993513">
        <ele>397.16</ele>
        <time>2020-07-15T05:27:34Z</time>
      </trkpt>
      <trkpt lat="39.4864336308" lon="-6.3819033746">
        <ele>397.16</ele>
        <time>2020-07-15T05:27:42Z</time>
      </trkpt>
      <trkpt lat="39.4865949824" lon="-6.3818404265">
        <ele>396.20</ele>
        <time>2020-07-15T05:27:48Z</time>
      </trkpt>
      <trkpt lat="39.4866042864" lon="-6.3818435278">
        <ele>395.72</ele>
        <time>2020-07-15T05:27:53Z</time>
      </trkpt>
      <trkpt lat="39.4866152667" lon="-6.3818524126">
        <ele>396.68</ele>
        <time>2020-07-15T05:28:01Z</time>
      </trkpt>
      <trkpt lat="39.4866793044" lon="-6.3819726091">
        <ele>397.64</ele>
        <time>2020-07-15T05:28:08Z</time>
      </trkpt>
      <trkpt lat="39.4867360499" lon="-6.3821346313">
        <ele>398.60</ele>
        <time>2020-07-15T05:28:14Z</time>
      </trkpt>
      <trkpt lat="39.4867208786" lon="-6.3821557537">
        <ele>398.60</ele>
        <time>2020-07-15T05:28:15Z</time>
      </trkpt>
      <trkpt lat="39.4866990019" lon="-6.3821632136">
        <ele>398.12</ele>
        <time>2020-07-15T05:28:16Z</time>
      </trkpt>
      <trkpt lat="39.4866735209" lon="-6.3821729366">
        <ele>398.12</ele>
        <time>2020-07-15T05:28:17Z</time>
      </trkpt>
      <trkpt lat="39.4866419211" lon="-6.3821912929">
        <ele>398.12</ele>
        <time>2020-07-15T05:28:18Z</time>
      </trkpt>
      <trkpt lat="39.4866182003" lon="-6.3822024409">
        <ele>398.12</ele>
        <time>2020-07-15T05:28:19Z</time>
      </trkpt>
      <trkpt lat="39.4865859300" lon="-6.3822173607">
        <ele>397.64</ele>
        <time>2020-07-15T05:28:20Z</time>
      </trkpt>
      <trkpt lat="39.4865506422" lon="-6.3822340406">
        <ele>397.64</ele>
        <time>2020-07-15T05:28:21Z</time>
      </trkpt>
      <trkpt lat="39.4865184557" lon="-6.3822565041">
        <ele>397.64</ele>
        <time>2020-07-15T05:28:23Z</time>
      </trkpt>
      <trkpt lat="39.4864802342" lon="-6.3822997548">
        <ele>398.60</ele>
        <time>2020-07-15T05:28:24Z</time>
      </trkpt>
      <trkpt lat="39.4864464551" lon="-6.3824728411">
        <ele>399.08</ele>
        <time>2020-07-15T05:28:30Z</time>
      </trkpt>
      <trkpt lat="39.4864674937" lon="-6.3824984059">
        <ele>399.08</ele>
        <time>2020-07-15T05:28:31Z</time>
      </trkpt>
      <trkpt lat="39.4864842575" lon="-6.3825119846">
        <ele>399.08</ele>
        <time>2020-07-15T05:28:32Z</time>
      </trkpt>
      <trkpt lat="39.4865472894" lon="-6.3825502899">
        <ele>399.57</ele>
        <time>2020-07-15T05:28:35Z</time>
      </trkpt>
      <trkpt lat="39.4865823258" lon="-6.3825823925">
        <ele>400.05</ele>
        <time>2020-07-15T05:28:37Z</time>
      </trkpt>
      <trkpt lat="39.4867464434" lon="-6.3826388866">
        <ele>401.01</ele>
        <time>2020-07-15T05:28:44Z</time>
      </trkpt>
      <trkpt lat="39.4869482797" lon="-6.3827136531">
        <ele>401.49</ele>
        <time>2020-07-15T05:28:52Z</time>
      </trkpt>
      <trkpt lat="39.4872051850" lon="-6.3828149904">
        <ele>403.89</ele>
        <time>2020-07-15T05:29:02Z</time>
      </trkpt>
      <trkpt lat="39.4874712266" lon="-6.3829185069">
        <ele>404.37</ele>
        <time>2020-07-15T05:29:12Z</time>
      </trkpt>
      <trkpt lat="39.4877518527" lon="-6.3830285612">
        <ele>403.89</ele>
        <time>2020-07-15T05:29:22Z</time>
      </trkpt>
      <trkpt lat="39.4880024716" lon="-6.3831191696">
        <ele>404.85</ele>
        <time>2020-07-15T05:29:30Z</time>
      </trkpt>
      <trkpt lat="39.4883492310" lon="-6.3832432218">
        <ele>403.89</ele>
        <time>2020-07-15T05:29:40Z</time>
      </trkpt>
      <trkpt lat="39.4887731876" lon="-6.3833999634">
        <ele>401.49</ele>
        <time>2020-07-15T05:29:50Z</time>
      </trkpt>
      <trkpt lat="39.4891861640" lon="-6.3835530169">
        <ele>399.08</ele>
        <time>2020-07-15T05:29:57Z</time>
      </trkpt>
      <trkpt lat="39.4897100329" lon="-6.3837458007">
        <ele>396.20</ele>
        <time>2020-07-15T05:30:05Z</time>
      </trkpt>
      <trkpt lat="39.4903586246" lon="-6.3839915581">
        <ele>393.32</ele>
        <time>2020-07-15T05:30:15Z</time>
      </trkpt>
      <trkpt lat="39.4910836592" lon="-6.3842610363">
        <ele>391.39</ele>
        <time>2020-07-15T05:30:25Z</time>
      </trkpt>
      <trkpt lat="39.4918327499" lon="-6.3845378906">
        <ele>390.43</ele>
        <time>2020-07-15T05:30:36Z</time>
      </trkpt>
      <trkpt lat="39.4928289391" lon="-6.3849061914">
        <ele>388.51</ele>
        <time>2020-07-15T05:30:51Z</time>
      </trkpt>
      <trkpt lat="39.4934847392" lon="-6.3851530384">
        <ele>388.03</ele>
        <time>2020-07-15T05:31:01Z</time>
      </trkpt>
      <trkpt lat="39.4940696284" lon="-6.3853697944">
        <ele>386.59</ele>
        <time>2020-07-15T05:31:10Z</time>
      </trkpt>
      <trkpt lat="39.4946758077" lon="-6.3856147137">
        <ele>385.63</ele>
        <time>2020-07-15T05:31:20Z</time>
      </trkpt>
      <trkpt lat="39.4952830765" lon="-6.3859183900">
        <ele>384.18</ele>
        <time>2020-07-15T05:31:31Z</time>
      </trkpt>
      <trkpt lat="39.4958438259" lon="-6.3861980941">
        <ele>381.78</ele>
        <time>2020-07-15T05:31:40Z</time>
      </trkpt>
      <trkpt lat="39.4964623265" lon="-6.3865142595">
        <ele>378.90</ele>
        <time>2020-07-15T05:31:48Z</time>
      </trkpt>
      <trkpt lat="39.4971979223" lon="-6.3868853264">
        <ele>376.01</ele>
        <time>2020-07-15T05:31:57Z</time>
      </trkpt>
      <trkpt lat="39.4977715798" lon="-6.3871711493">
        <ele>376.49</ele>
        <time>2020-07-15T05:32:05Z</time>
      </trkpt>
      <trkpt lat="39.4982599933" lon="-6.3874190859">
        <ele>378.42</ele>
        <time>2020-07-15T05:32:14Z</time>
      </trkpt>
      <trkpt lat="39.4988099299" lon="-6.3877013884">
        <ele>379.38</ele>
        <time>2020-07-15T05:32:26Z</time>
      </trkpt>
      <trkpt lat="39.4994472899" lon="-6.3880134467">
        <ele>379.38</ele>
        <time>2020-07-15T05:32:39Z</time>
      </trkpt>
      <trkpt lat="39.4999561552" lon="-6.3882656582">
        <ele>378.90</ele>
        <time>2020-07-15T05:32:49Z</time>
      </trkpt>
      <trkpt lat="39.5004416350" lon="-6.3885133434">
        <ele>377.94</ele>
        <time>2020-07-15T05:32:59Z</time>
      </trkpt>
      <trkpt lat="39.5008752309" lon="-6.3887299318">
        <ele>376.97</ele>
        <time>2020-07-15T05:33:08Z</time>
      </trkpt>
      <trkpt lat="39.5014202222" lon="-6.3890015054">
        <ele>375.05</ele>
        <time>2020-07-15T05:33:18Z</time>
      </trkpt>
      <trkpt lat="39.5019626990" lon="-6.3892732468">
        <ele>373.13</ele>
        <time>2020-07-15T05:33:27Z</time>
      </trkpt>
      <trkpt lat="39.5025483426" lon="-6.3895649370">
        <ele>370.73</ele>
        <time>2020-07-15T05:33:36Z</time>
      </trkpt>
      <trkpt lat="39.5031966828" lon="-6.3898920827">
        <ele>367.84</ele>
        <time>2020-07-15T05:33:45Z</time>
      </trkpt>
      <trkpt lat="39.5039937180" lon="-6.3902943302">
        <ele>364.96</ele>
        <time>2020-07-15T05:33:55Z</time>
      </trkpt>
      <trkpt lat="39.5046787709" lon="-6.3906340487">
        <ele>364.00</ele>
        <time>2020-07-15T05:34:04Z</time>
      </trkpt>
      <trkpt lat="39.5054173004" lon="-6.3910069596">
        <ele>363.04</ele>
        <time>2020-07-15T05:34:15Z</time>
      </trkpt>
      <trkpt lat="39.5058842562" lon="-6.3912460953">
        <ele>363.04</ele>
        <time>2020-07-15T05:34:23Z</time>
      </trkpt>
      <trkpt lat="39.5063808840" lon="-6.3914921880">
        <ele>363.04</ele>
        <time>2020-07-15T05:34:32Z</time>
      </trkpt>
      <trkpt lat="39.5070220996" lon="-6.3918137178">
        <ele>362.55</ele>
        <time>2020-07-15T05:34:44Z</time>
      </trkpt>
      <trkpt lat="39.5073433779" lon="-6.3919804338">
        <ele>362.07</ele>
        <time>2020-07-15T05:34:51Z</time>
      </trkpt>
      <trkpt lat="39.5074851997" lon="-6.3921582978">
        <ele>362.07</ele>
        <time>2020-07-15T05:34:57Z</time>
      </trkpt>
      <trkpt lat="39.5074780751" lon="-6.3921828568">
        <ele>361.59</ele>
        <time>2020-07-15T05:34:58Z</time>
      </trkpt>
      <trkpt lat="39.5074209105" lon="-6.3923683483">
        <ele>361.11</ele>
        <time>2020-07-15T05:35:03Z</time>
      </trkpt>
      <trkpt lat="39.5074261911" lon="-6.3926296961">
        <ele>361.59</ele>
        <time>2020-07-15T05:35:11Z</time>
      </trkpt>
      <trkpt lat="39.5074946713" lon="-6.3927125931">
        <ele>362.07</ele>
        <time>2020-07-15T05:35:17Z</time>
      </trkpt>
      <trkpt lat="39.5076457970" lon="-6.3927915506">
        <ele>361.11</ele>
        <time>2020-07-15T05:35:24Z</time>
      </trkpt>
      <trkpt lat="39.5077896304" lon="-6.3929062150">
        <ele>360.15</ele>
        <time>2020-07-15T05:35:33Z</time>
      </trkpt>
      <trkpt lat="39.5079928916" lon="-6.3929803111">
        <ele>360.15</ele>
        <time>2020-07-15T05:35:39Z</time>
      </trkpt>
      <trkpt lat="39.5082642976" lon="-6.3930388168">
        <ele>361.59</ele>
        <time>2020-07-15T05:35:48Z</time>
      </trkpt>
      <trkpt lat="39.5083877631" lon="-6.3930875156">
        <ele>362.07</ele>
        <time>2020-07-15T05:35:53Z</time>
      </trkpt>
      <trkpt lat="39.5084103942" lon="-6.3931015134">
        <ele>362.07</ele>
        <time>2020-07-15T05:35:54Z</time>
      </trkpt>
      <trkpt lat="39.5084357914" lon="-6.3931118231">
        <ele>362.07</ele>
        <time>2020-07-15T05:35:55Z</time>
      </trkpt>
      <trkpt lat="39.5084745158" lon="-6.3931300119">
        <ele>362.55</ele>
        <time>2020-07-15T05:35:56Z</time>
      </trkpt>
      <trkpt lat="39.5084937941" lon="-6.3931395672">
        <ele>362.55</ele>
        <time>2020-07-15T05:35:57Z</time>
      </trkpt>
      <trkpt lat="39.5087851491" lon="-6.3933444209">
        <ele>362.55</ele>
        <time>2020-07-15T05:36:08Z</time>
      </trkpt>
      <trkpt lat="39.5090276375" lon="-6.3934706524">
        <ele>362.07</ele>
        <time>2020-07-15T05:36:17Z</time>
      </trkpt>
      <trkpt lat="39.5092777535" lon="-6.3935646135">
        <ele>362.07</ele>
        <time>2020-07-15T05:36:26Z</time>
      </trkpt>
      <trkpt lat="39.5095708687" lon="-6.3936868217">
        <ele>362.55</ele>
        <time>2020-07-15T05:36:36Z</time>
      </trkpt>
      <trkpt lat="39.5097948331" lon="-6.3937268872">
        <ele>364.00</ele>
        <time>2020-07-15T05:36:44Z</time>
      </trkpt>
      <trkpt lat="39.5101223979" lon="-6.3938569743">
        <ele>365.92</ele>
        <time>2020-07-15T05:36:55Z</time>
      </trkpt>
      <trkpt lat="39.5104233082" lon="-6.3939765841">
        <ele>367.36</ele>
        <time>2020-07-15T05:37:06Z</time>
      </trkpt>
      <trkpt lat="39.5107288286" lon="-6.3940915000">
        <ele>367.84</ele>
        <time>2020-07-15T05:37:17Z</time>
      </trkpt>
      <trkpt lat="39.5110272244" lon="-6.3942165580">
        <ele>367.84</ele>
        <time>2020-07-15T05:37:28Z</time>
      </trkpt>
      <trkpt lat="39.5112615824" lon="-6.3943224214">
        <ele>367.36</ele>
        <time>2020-07-15T05:37:37Z</time>
      </trkpt>
      <trkpt lat="39.5113663562" lon="-6.3943691924">
        <ele>367.36</ele>
        <time>2020-07-15T05:37:43Z</time>
      </trkpt>
      <trkpt lat="39.5113821141" lon="-6.3943647500">
        <ele>367.36</ele>
        <time>2020-07-15T05:37:49Z</time>
      </trkpt>
      <trkpt lat="39.5114082657" lon="-6.3943806756">
        <ele>367.84</ele>
        <time>2020-07-15T05:37:55Z</time>
      </trkpt>
      <trkpt lat="39.5114224311" lon="-6.3943938352">
        <ele>367.84</ele>
        <time>2020-07-15T05:37:56Z</time>
      </trkpt>
      <trkpt lat="39.5115293004" lon="-6.3945053983">
        <ele>368.80</ele>
        <time>2020-07-15T05:38:02Z</time>
      </trkpt>
      <trkpt lat="39.5116996206" lon="-6.3946964219">
        <ele>369.76</ele>
        <time>2020-07-15T05:38:10Z</time>
      </trkpt>
      <trkpt lat="39.5118923206" lon="-6.3949102443">
        <ele>370.24</ele>
        <time>2020-07-15T05:38:19Z</time>
      </trkpt>
      <trkpt lat="39.5121676661" lon="-6.3952124119">
        <ele>371.69</ele>
        <time>2020-07-15T05:38:31Z</time>
      </trkpt>
      <trkpt lat="39.5124539081" lon="-6.3955212850">
        <ele>372.65</ele>
        <time>2020-07-15T05:38:43Z</time>
      </trkpt>
      <trkpt lat="39.5127334446" lon="-6.3958287332">
        <ele>374.57</ele>
        <time>2020-07-15T05:38:55Z</time>
      </trkpt>
      <trkpt lat="39.5130131487" lon="-6.3961277157">
        <ele>375.05</ele>
        <time>2020-07-15T05:39:07Z</time>
      </trkpt>
      <trkpt lat="39.5132516976" lon="-6.3964037318">
        <ele>375.05</ele>
        <time>2020-07-15T05:39:18Z</time>
      </trkpt>
      <trkpt lat="39.5134746563" lon="-6.3966412749">
        <ele>373.61</ele>
        <time>2020-07-15T05:39:26Z</time>
      </trkpt>
      <trkpt lat="39.5136965252" lon="-6.3967981841">
        <ele>371.69</ele>
        <time>2020-07-15T05:39:33Z</time>
      </trkpt>
      <trkpt lat="39.5137728844" lon="-6.3968368247">
        <ele>371.69</ele>
        <time>2020-07-15T05:39:35Z</time>
      </trkpt>
      <trkpt lat="39.5141159557" lon="-6.3969341386">
        <ele>369.76</ele>
        <time>2020-07-15T05:39:43Z</time>
      </trkpt>
      <trkpt lat="39.5145674888" lon="-6.3970129285">
        <ele>367.36</ele>
        <time>2020-07-15T05:39:52Z</time>
      </trkpt>
      <trkpt lat="39.5151258074" lon="-6.3971189596">
        <ele>364.00</ele>
        <time>2020-07-15T05:40:02Z</time>
      </trkpt>
      <trkpt lat="39.5157749020" lon="-6.3972410001">
        <ele>361.11</ele>
        <time>2020-07-15T05:40:13Z</time>
      </trkpt>
      <trkpt lat="39.5163006987" lon="-6.3973461930">
        <ele>359.19</ele>
        <time>2020-07-15T05:40:23Z</time>
      </trkpt>
      <trkpt lat="39.5163637307" lon="-6.3973761164">
        <ele>358.71</ele>
        <time>2020-07-15T05:40:24Z</time>
      </trkpt>
      <trkpt lat="39.5163920615" lon="-6.3973963168">
        <ele>358.71</ele>
        <time>2020-07-15T05:40:25Z</time>
      </trkpt>
      <trkpt lat="39.5164301991" lon="-6.3974265754">
        <ele>358.71</ele>
        <time>2020-07-15T05:40:26Z</time>
      </trkpt>
      <trkpt lat="39.5164742041" lon="-6.3974623661">
        <ele>358.71</ele>
        <time>2020-07-15T05:40:27Z</time>
      </trkpt>
      <trkpt lat="39.5168299321" lon="-6.3976786193">
        <ele>358.23</ele>
        <time>2020-07-15T05:40:36Z</time>
      </trkpt>
      <trkpt lat="39.5171525516" lon="-6.3978097960">
        <ele>356.31</ele>
        <time>2020-07-15T05:40:43Z</time>
      </trkpt>
      <trkpt lat="39.5174045954" lon="-6.3978802040">
        <ele>354.86</ele>
        <time>2020-07-15T05:40:50Z</time>
      </trkpt>
      <trkpt lat="39.5175107941" lon="-6.3978974707">
        <ele>353.90</ele>
        <time>2020-07-15T05:40:56Z</time>
      </trkpt>
      <trkpt lat="39.5176383667" lon="-6.3979156595">
        <ele>355.83</ele>
        <time>2020-07-15T05:41:02Z</time>
      </trkpt>
      <trkpt lat="39.5178490877" lon="-6.3979666214">
        <ele>357.75</ele>
        <time>2020-07-15T05:41:11Z</time>
      </trkpt>
      <trkpt lat="39.5180853736" lon="-6.3980724849">
        <ele>358.23</ele>
        <time>2020-07-15T05:41:22Z</time>
      </trkpt>
      <trkpt lat="39.5183074102" lon="-6.3981811143">
        <ele>359.19</ele>
        <time>2020-07-15T05:41:33Z</time>
      </trkpt>
      <trkpt lat="39.5185140241" lon="-6.3983329944">
        <ele>360.15</ele>
        <time>2020-07-15T05:41:43Z</time>
      </trkpt>
      <trkpt lat="39.5186832547" lon="-6.3984602317">
        <ele>360.63</ele>
        <time>2020-07-15T05:41:52Z</time>
      </trkpt>
      <trkpt lat="39.5188607834" lon="-6.3986121118">
        <ele>360.63</ele>
        <time>2020-07-15T05:42:02Z</time>
      </trkpt>
      <trkpt lat="39.5189999230" lon="-6.3987426180">
        <ele>360.63</ele>
        <time>2020-07-15T05:42:09Z</time>
      </trkpt>
      <trkpt lat="39.5192693174" lon="-6.3989385031">
        <ele>359.67</ele>
        <time>2020-07-15T05:42:18Z</time>
      </trkpt>
      <trkpt lat="39.5194496959" lon="-6.3990441989">
        <ele>359.19</ele>
        <time>2020-07-15T05:42:23Z</time>
      </trkpt>
      <trkpt lat="39.5194813795" lon="-6.3990627229">
        <ele>359.19</ele>
        <time>2020-07-15T05:42:24Z</time>
      </trkpt>
      <trkpt lat="39.5198742393" lon="-6.3993187901">
        <ele>357.75</ele>
        <time>2020-07-15T05:42:33Z</time>
      </trkpt>
      <trkpt lat="39.5203892235" lon="-6.3996636216">
        <ele>356.31</ele>
        <time>2020-07-15T05:42:45Z</time>
      </trkpt>
      <trkpt lat="39.5208442770" lon="-6.3999104686">
        <ele>355.34</ele>
        <time>2020-07-15T05:42:55Z</time>
      </trkpt>
      <trkpt lat="39.5208840910" lon="-6.3999390509">
        <ele>355.34</ele>
        <time>2020-07-15T05:42:56Z</time>
      </trkpt>
      <trkpt lat="39.5209183730" lon="-6.3999696448">
        <ele>355.34</ele>
        <time>2020-07-15T05:42:57Z</time>
      </trkpt>
      <trkpt lat="39.5211481210" lon="-6.4002202637">
        <ele>355.83</ele>
        <time>2020-07-15T05:43:05Z</time>
      </trkpt>
      <trkpt lat="39.5214668848" lon="-6.4005726390">
        <ele>356.31</ele>
        <time>2020-07-15T05:43:15Z</time>
      </trkpt>
      <trkpt lat="39.5217335969" lon="-6.4009254333">
        <ele>356.79</ele>
        <time>2020-07-15T05:43:25Z</time>
      </trkpt>
      <trkpt lat="39.5219178312" lon="-6.4010453783">
        <ele>355.83</ele>
        <time>2020-07-15T05:43:31Z</time>
      </trkpt>
      <trkpt lat="39.5222194120" lon="-6.4010545146">
        <ele>356.31</ele>
        <time>2020-07-15T05:43:39Z</time>
      </trkpt>
      <trkpt lat="39.5224811789" lon="-6.4011224080">
        <ele>357.27</ele>
        <time>2020-07-15T05:43:48Z</time>
      </trkpt>
      <trkpt lat="39.5227825921" lon="-6.4012889564">
        <ele>358.23</ele>
        <time>2020-07-15T05:43:58Z</time>
      </trkpt>
      <trkpt lat="39.5230538305" lon="-6.4014155231">
        <ele>360.15</ele>
        <time>2020-07-15T05:44:08Z</time>
      </trkpt>
      <trkpt lat="39.5232466143" lon="-6.4015984163">
        <ele>361.59</ele>
        <time>2020-07-15T05:44:18Z</time>
      </trkpt>
      <trkpt lat="39.5234098937" lon="-6.4018199500">
        <ele>364.48</ele>
        <time>2020-07-15T05:44:27Z</time>
      </trkpt>
      <trkpt lat="39.5235362090" lon="-6.4020551462">
        <ele>366.40</ele>
        <time>2020-07-15T05:44:36Z</time>
      </trkpt>
      <trkpt lat="39.5236155018" lon="-6.4021857362">
        <ele>367.84</ele>
        <time>2020-07-15T05:44:43Z</time>
      </trkpt>
      <trkpt lat="39.5236574952" lon="-6.4022398833">
        <ele>368.32</ele>
        <time>2020-07-15T05:44:49Z</time>
      </trkpt>
      <trkpt lat="39.5236569084" lon="-6.4022419788">
        <ele>368.80</ele>
        <time>2020-07-15T05:45:10Z</time>
      </trkpt>
      <trkpt lat="39.5236476045" lon="-6.4022249635">
        <ele>368.80</ele>
        <time>2020-07-15T05:45:22Z</time>
      </trkpt>
      <trkpt lat="39.5236589201" lon="-6.4022351056">
        <ele>368.80</ele>
        <time>2020-07-15T05:45:38Z</time>
      </trkpt>
      <trkpt lat="39.5236558188" lon="-6.4022345189">
        <ele>368.32</ele>
        <time>2020-07-15T05:45:47Z</time>
      </trkpt>
      <trkpt lat="39.5236497000" lon="-6.4022286516">
        <ele>367.84</ele>
        <time>2020-07-15T05:46:06Z</time>
      </trkpt>
      <trkpt lat="39.5236591715" lon="-6.4022354409">
        <ele>368.32</ele>
        <time>2020-07-15T05:46:20Z</time>
      </trkpt>
      <trkpt lat="39.5237595867" lon="-6.4023609180">
        <ele>368.80</ele>
        <time>2020-07-15T05:46:27Z</time>
      </trkpt>
      <trkpt lat="39.5239704754" lon="-6.4025663584">
        <ele>368.80</ele>
        <time>2020-07-15T05:46:36Z</time>
      </trkpt>
      <trkpt lat="39.5242304821" lon="-6.4028265327">
        <ele>368.80</ele>
        <time>2020-07-15T05:46:46Z</time>
      </trkpt>
      <trkpt lat="39.5245106891" lon="-6.4031263534">
        <ele>370.24</ele>
        <time>2020-07-15T05:46:57Z</time>
      </trkpt>
      <trkpt lat="39.5247681811" lon="-6.4033519104">
        <ele>370.24</ele>
        <time>2020-07-15T05:47:06Z</time>
      </trkpt>
      <trkpt lat="39.5250917226" lon="-6.4036327042">
        <ele>370.73</ele>
        <time>2020-07-15T05:47:18Z</time>
      </trkpt>
      <trkpt lat="39.5253835805" lon="-6.4038184471">
        <ele>370.24</ele>
        <time>2020-07-15T05:47:29Z</time>
      </trkpt>
      <trkpt lat="39.5257159229" lon="-6.4040773641">
        <ele>369.28</ele>
        <time>2020-07-15T05:47:40Z</time>
      </trkpt>
      <trkpt lat="39.5260229520" lon="-6.4043020830">
        <ele>368.80</ele>
        <time>2020-07-15T05:47:50Z</time>
      </trkpt>
      <trkpt lat="39.5263368543" lon="-6.4045238681">
        <ele>367.84</ele>
        <time>2020-07-15T05:47:59Z</time>
      </trkpt>
      <trkpt lat="39.5266698673" lon="-6.4048438892">
        <ele>366.88</ele>
        <time>2020-07-15T05:48:09Z</time>
      </trkpt>
      <trkpt lat="39.5269696042" lon="-6.4051976893">
        <ele>364.96</ele>
        <time>2020-07-15T05:48:18Z</time>
      </trkpt>
      <trkpt lat="39.5272792317" lon="-6.4055665769">
        <ele>363.04</ele>
        <time>2020-07-15T05:48:26Z</time>
      </trkpt>
      <trkpt lat="39.5273736119" lon="-6.4056406729">
        <ele>363.04</ele>
        <time>2020-07-15T05:48:28Z</time>
      </trkpt>
      <trkpt lat="39.5276369713" lon="-6.4057618752">
        <ele>363.52</ele>
        <time>2020-07-15T05:48:35Z</time>
      </trkpt>
      <trkpt lat="39.5280434098" lon="-6.4059687406">
        <ele>363.04</ele>
        <time>2020-07-15T05:48:47Z</time>
      </trkpt>
      <trkpt lat="39.5283592399" lon="-6.4061984047">
        <ele>361.11</ele>
        <time>2020-07-15T05:48:56Z</time>
      </trkpt>
      <trkpt lat="39.5286678616" lon="-6.4065634366">
        <ele>359.19</ele>
        <time>2020-07-15T05:49:03Z</time>
      </trkpt>
      <trkpt lat="39.5289953426" lon="-6.4070039056">
        <ele>358.71</ele>
        <time>2020-07-15T05:49:10Z</time>
      </trkpt>
      <trkpt lat="39.5290732104" lon="-6.4070774987">
        <ele>358.71</ele>
        <time>2020-07-15T05:49:12Z</time>
      </trkpt>
      <trkpt lat="39.5291113481" lon="-6.4071186539">
        <ele>359.19</ele>
        <time>2020-07-15T05:49:13Z</time>
      </trkpt>
      <trkpt lat="39.5293409284" lon="-6.4073203225">
        <ele>360.15</ele>
        <time>2020-07-15T05:49:21Z</time>
      </trkpt>
      <trkpt lat="39.5295436028" lon="-6.4074872900">
        <ele>362.07</ele>
        <time>2020-07-15T05:49:30Z</time>
      </trkpt>
      <trkpt lat="39.5297792181" lon="-6.4076618850">
        <ele>364.00</ele>
        <time>2020-07-15T05:49:40Z</time>
      </trkpt>
      <trkpt lat="39.5299712475" lon="-6.4078374859">
        <ele>366.40</ele>
        <time>2020-07-15T05:49:50Z</time>
      </trkpt>
      <trkpt lat="39.5301522966" lon="-6.4080291800">
        <ele>368.80</ele>
        <time>2020-07-15T05:50:00Z</time>
      </trkpt>
      <trkpt lat="39.5303220302" lon="-6.4081311878">
        <ele>369.28</ele>
        <time>2020-07-15T05:50:08Z</time>
      </trkpt>
      <trkpt lat="39.5305668656" lon="-6.4081950579">
        <ele>367.84</ele>
        <time>2020-07-15T05:50:17Z</time>
      </trkpt>
      <trkpt lat="39.5306534506" lon="-6.4082027692">
        <ele>367.36</ele>
        <time>2020-07-15T05:50:19Z</time>
      </trkpt>
      <trkpt lat="39.5309747290" lon="-6.4082348719">
        <ele>364.96</ele>
        <time>2020-07-15T05:50:25Z</time>
      </trkpt>
      <trkpt lat="39.5313260145" lon="-6.4084265660">
        <ele>364.48</ele>
        <time>2020-07-15T05:50:32Z</time>
      </trkpt>
      <trkpt lat="39.5316455327" lon="-6.4086204395">
        <ele>362.55</ele>
        <time>2020-07-15T05:50:39Z</time>
      </trkpt>
      <trkpt lat="39.5318331197" lon="-6.4086833876">
        <ele>361.11</ele>
        <time>2020-07-15T05:50:42Z</time>
      </trkpt>
      <trkpt lat="39.5318929665" lon="-6.4087211061">
        <ele>361.11</ele>
        <time>2020-07-15T05:50:43Z</time>
      </trkpt>
      <trkpt lat="39.5319452696" lon="-6.4087653626">
        <ele>360.63</ele>
        <time>2020-07-15T05:50:44Z</time>
      </trkpt>
      <trkpt lat="39.5321087167" lon="-6.4089388680">
        <ele>361.11</ele>
        <time>2020-07-15T05:50:48Z</time>
      </trkpt>
      <trkpt lat="39.5322701521" lon="-6.4090878982">
        <ele>362.55</ele>
        <time>2020-07-15T05:50:54Z</time>
      </trkpt>
      <trkpt lat="39.5324343536" lon="-6.4092370961">
        <ele>364.96</ele>
        <time>2020-07-15T05:51:02Z</time>
      </trkpt>
      <trkpt lat="39.5326444041" lon="-6.4093733858">
        <ele>367.36</ele>
        <time>2020-07-15T05:51:13Z</time>
      </trkpt>
      <trkpt lat="39.5328401215" lon="-6.4094008785">
        <ele>368.80</ele>
        <time>2020-07-15T05:51:22Z</time>
      </trkpt>
      <trkpt lat="39.5329884812" lon="-6.4093756489">
        <ele>370.24</ele>
        <time>2020-07-15T05:51:29Z</time>
      </trkpt>
      <trkpt lat="39.5331546944" lon="-6.4093633275">
        <ele>371.21</ele>
        <time>2020-07-15T05:51:38Z</time>
      </trkpt>
      <trkpt lat="39.5333216619" lon="-6.4093366731">
        <ele>372.65</ele>
        <time>2020-07-15T05:51:45Z</time>
      </trkpt>
      <trkpt lat="39.5334922336" lon="-6.4092474058">
        <ele>373.13</ele>
        <time>2020-07-15T05:51:53Z</time>
      </trkpt>
      <trkpt lat="39.5336622186" lon="-6.4091104455">
        <ele>372.17</ele>
        <time>2020-07-15T05:52:02Z</time>
      </trkpt>
      <trkpt lat="39.5339087304" lon="-6.4089795202">
        <ele>371.21</ele>
        <time>2020-07-15T05:52:11Z</time>
      </trkpt>
      <trkpt lat="39.5342663862" lon="-6.4088698849">
        <ele>369.76</ele>
        <time>2020-07-15T05:52:21Z</time>
      </trkpt>
      <trkpt lat="39.5349463262" lon="-6.4087387919">
        <ele>367.84</ele>
        <time>2020-07-15T05:52:39Z</time>
      </trkpt>
      <trkpt lat="39.5349511877" lon="-6.4087187592">
        <ele>367.84</ele>
        <time>2020-07-15T05:52:40Z</time>
      </trkpt>
      <trkpt lat="39.5349573903" lon="-6.4086896740">
        <ele>367.84</ele>
        <time>2020-07-15T05:52:41Z</time>
      </trkpt>
      <trkpt lat="39.5349644311" lon="-6.4086609241">
        <ele>367.84</ele>
        <time>2020-07-15T05:52:42Z</time>
      </trkpt>
      <trkpt lat="39.5349738188" lon="-6.4086234570">
        <ele>367.84</ele>
        <time>2020-07-15T05:52:43Z</time>
      </trkpt>
      <trkpt lat="39.5350940153" lon="-6.4083259832">
        <ele>368.32</ele>
        <time>2020-07-15T05:52:51Z</time>
      </trkpt>
      <trkpt lat="39.5352293830" lon="-6.4080351312">
        <ele>369.28</ele>
        <time>2020-07-15T05:53:00Z</time>
      </trkpt>
      <trkpt lat="39.5353454724" lon="-6.4077669103">
        <ele>368.80</ele>
        <time>2020-07-15T05:53:09Z</time>
      </trkpt>
      <trkpt lat="39.5353886392" lon="-6.4076660760">
        <ele>368.80</ele>
        <time>2020-07-15T05:53:15Z</time>
      </trkpt>
      <trkpt lat="39.5354033913" lon="-6.4076230768">
        <ele>368.80</ele>
        <time>2020-07-15T05:53:22Z</time>
      </trkpt>
      <trkpt lat="39.5353996195" lon="-6.4076566882">
        <ele>369.28</ele>
        <time>2020-07-15T05:53:27Z</time>
      </trkpt>
      <trkpt lat="39.5353916567" lon="-6.4076704346">
        <ele>369.28</ele>
        <time>2020-07-15T05:53:28Z</time>
      </trkpt>
      <trkpt lat="39.5353209972" lon="-6.4078183752">
        <ele>369.28</ele>
        <time>2020-07-15T05:53:33Z</time>
      </trkpt>
      <trkpt lat="39.5351606514" lon="-6.4082010090">
        <ele>368.80</ele>
        <time>2020-07-15T05:53:43Z</time>
      </trkpt>
      <trkpt lat="39.5350055862" lon="-6.4085928630">
        <ele>367.36</ele>
        <time>2020-07-15T05:53:52Z</time>
      </trkpt>
      <trkpt lat="39.5349976234" lon="-6.4088521153">
        <ele>367.84</ele>
        <time>2020-07-15T05:53:58Z</time>
      </trkpt>
      <trkpt lat="39.5351492520" lon="-6.4090441447">
        <ele>368.80</ele>
        <time>2020-07-15T05:54:05Z</time>
      </trkpt>
      <trkpt lat="39.5353911538" lon="-6.4093479887">
        <ele>369.28</ele>
        <time>2020-07-15T05:54:15Z</time>
      </trkpt>
      <trkpt lat="39.5356201474" lon="-6.4096436184">
        <ele>370.24</ele>
        <time>2020-07-15T05:54:25Z</time>
      </trkpt>
      <trkpt lat="39.5357678365" lon="-6.4098831732">
        <ele>371.21</ele>
        <time>2020-07-15T05:54:33Z</time>
      </trkpt>
      <trkpt lat="39.5359374862" lon="-6.4100490510">
        <ele>371.69</ele>
        <time>2020-07-15T05:54:40Z</time>
      </trkpt>
      <trkpt lat="39.5361519791" lon="-6.4099759609">
        <ele>372.17</ele>
        <time>2020-07-15T05:54:47Z</time>
      </trkpt>
      <trkpt lat="39.5364390593" lon="-6.4098426048">
        <ele>373.13</ele>
        <time>2020-07-15T05:54:58Z</time>
      </trkpt>
      <trkpt lat="39.5366501156" lon="-6.4097646531">
        <ele>375.05</ele>
        <time>2020-07-15T05:55:08Z</time>
      </trkpt>
      <trkpt lat="39.5368742477" lon="-6.4097058121">
        <ele>376.97</ele>
        <time>2020-07-15T05:55:18Z</time>
      </trkpt>
      <trkpt lat="39.5370880701" lon="-6.4096463844">
        <ele>377.45</ele>
        <time>2020-07-15T05:55:27Z</time>
      </trkpt>
      <trkpt lat="39.5373160578" lon="-6.4095783234">
        <ele>377.94</ele>
        <time>2020-07-15T05:55:37Z</time>
      </trkpt>
      <trkpt lat="39.5374443848" lon="-6.4095400181">
        <ele>377.45</ele>
        <time>2020-07-15T05:55:45Z</time>
      </trkpt>
      <trkpt lat="39.5376370009" lon="-6.4094541874">
        <ele>376.97</ele>
        <time>2020-07-15T05:55:52Z</time>
      </trkpt>
      <trkpt lat="39.5378617197" lon="-6.4093647525">
        <ele>376.49</ele>
        <time>2020-07-15T05:56:00Z</time>
      </trkpt>
      <trkpt lat="39.5380111691" lon="-6.4093650877">
        <ele>375.05</ele>
        <time>2020-07-15T05:56:04Z</time>
      </trkpt>
      <trkpt lat="39.5380730275" lon="-6.4093895629">
        <ele>375.05</ele>
        <time>2020-07-15T05:56:05Z</time>
      </trkpt>
      <trkpt lat="39.5381156076" lon="-6.4094112720">
        <ele>375.05</ele>
        <time>2020-07-15T05:56:06Z</time>
      </trkpt>
      <trkpt lat="39.5383214671" lon="-6.4095427841">
        <ele>375.05</ele>
        <time>2020-07-15T05:56:13Z</time>
      </trkpt>
      <trkpt lat="39.5385318529" lon="-6.4096822590">
        <ele>376.49</ele>
        <time>2020-07-15T05:56:21Z</time>
      </trkpt>
      <trkpt lat="39.5387745090" lon="-6.4097933192">
        <ele>377.45</ele>
        <time>2020-07-15T05:56:30Z</time>
      </trkpt>
      <trkpt lat="39.5389928576" lon="-6.4098857716">
        <ele>379.38</ele>
        <time>2020-07-15T05:56:38Z</time>
      </trkpt>
      <trkpt lat="39.5391797740" lon="-6.4099628851">
        <ele>380.34</ele>
        <time>2020-07-15T05:56:45Z</time>
      </trkpt>
      <trkpt lat="39.5394400321" lon="-6.4100673236">
        <ele>381.30</ele>
        <time>2020-07-15T05:56:55Z</time>
      </trkpt>
      <trkpt lat="39.5396275353" lon="-6.4101464488">
        <ele>381.30</ele>
        <time>2020-07-15T05:57:03Z</time>
      </trkpt>
      <trkpt lat="39.5398478955" lon="-6.4102024399">
        <ele>380.82</ele>
        <time>2020-07-15T05:57:11Z</time>
      </trkpt>
      <trkpt lat="39.5401318744" lon="-6.4102318604">
        <ele>380.34</ele>
        <time>2020-07-15T05:57:19Z</time>
      </trkpt>
      <trkpt lat="39.5402155258" lon="-6.4102448523">
        <ele>379.86</ele>
        <time>2020-07-15T05:57:21Z</time>
      </trkpt>
      <trkpt lat="39.5406896900" lon="-6.4103754424">
        <ele>378.90</ele>
        <time>2020-07-15T05:57:32Z</time>
      </trkpt>
      <trkpt lat="39.5410267264" lon="-6.4105117321">
        <ele>378.42</ele>
        <time>2020-07-15T05:57:40Z</time>
      </trkpt>
      <trkpt lat="39.5413762517" lon="-6.4106654562">
        <ele>378.42</ele>
        <time>2020-07-15T05:57:48Z</time>
      </trkpt>
      <trkpt lat="39.5418423694" lon="-6.4108237065">
        <ele>378.42</ele>
        <time>2020-07-15T05:57:59Z</time>
      </trkpt>
      <trkpt lat="39.5424257498" lon="-6.4110340923">
        <ele>378.90</ele>
        <time>2020-07-15T05:58:12Z</time>
      </trkpt>
      <trkpt lat="39.5428528078" lon="-6.4111946896">
        <ele>378.90</ele>
        <time>2020-07-15T05:58:22Z</time>
      </trkpt>
      <trkpt lat="39.5432116371" lon="-6.4113622438">
        <ele>378.90</ele>
        <time>2020-07-15T05:58:31Z</time>
      </trkpt>
      <trkpt lat="39.5435709693" lon="-6.4115112741">
        <ele>378.90</ele>
        <time>2020-07-15T05:58:40Z</time>
      </trkpt>
      <trkpt lat="39.5440049004" lon="-6.4116427861">
        <ele>379.38</ele>
        <time>2020-07-15T05:58:52Z</time>
      </trkpt>
      <trkpt lat="39.5444701798" lon="-6.4118099213">
        <ele>380.82</ele>
        <time>2020-07-15T05:59:05Z</time>
      </trkpt>
      <trkpt lat="39.5447751135" lon="-6.4119445346">
        <ele>380.82</ele>
        <time>2020-07-15T05:59:14Z</time>
      </trkpt>
      <trkpt lat="39.5450880937" lon="-6.4120936487">
        <ele>380.34</ele>
        <time>2020-07-15T05:59:23Z</time>
      </trkpt>
      <trkpt lat="39.5454591606" lon="-6.4122763742">
        <ele>380.34</ele>
        <time>2020-07-15T05:59:33Z</time>
      </trkpt>
      <trkpt lat="39.5457568020" lon="-6.4124052040">
        <ele>380.82</ele>
        <time>2020-07-15T05:59:41Z</time>
      </trkpt>
      <trkpt lat="39.5461567026" lon="-6.4125636220">
        <ele>380.34</ele>
        <time>2020-07-15T05:59:52Z</time>
      </trkpt>
      <trkpt lat="39.5466227364" lon="-6.4126955532">
        <ele>380.82</ele>
        <time>2020-07-15T06:00:04Z</time>
      </trkpt>
      <trkpt lat="39.5468934719" lon="-6.4127830602">
        <ele>380.82</ele>
        <time>2020-07-15T06:00:11Z</time>
      </trkpt>
      <trkpt lat="39.5471628662" lon="-6.4128901809">
        <ele>380.82</ele>
        <time>2020-07-15T06:00:18Z</time>
      </trkpt>
      <trkpt lat="39.5475625154" lon="-6.4131238684">
        <ele>380.82</ele>
        <time>2020-07-15T06:00:29Z</time>
      </trkpt>
      <trkpt lat="39.5480358414" lon="-6.4133485872">
        <ele>381.78</ele>
        <time>2020-07-15T06:00:42Z</time>
      </trkpt>
      <trkpt lat="39.5482779108" lon="-6.4134828653">
        <ele>381.78</ele>
        <time>2020-07-15T06:00:49Z</time>
      </trkpt>
      <trkpt lat="39.5485997759" lon="-6.4136345778">
        <ele>381.78</ele>
        <time>2020-07-15T06:00:58Z</time>
      </trkpt>
      <trkpt lat="39.5489245746" lon="-6.4137468953">
        <ele>382.26</ele>
        <time>2020-07-15T06:01:07Z</time>
      </trkpt>
      <trkpt lat="39.5492136665" lon="-6.4138799999">
        <ele>381.78</ele>
        <time>2020-07-15T06:01:15Z</time>
      </trkpt>
      <trkpt lat="39.5493936259" lon="-6.4139680937">
        <ele>381.30</ele>
        <time>2020-07-15T06:01:20Z</time>
      </trkpt>
      <trkpt lat="39.5497849770" lon="-6.4141654875">
        <ele>380.82</ele>
        <time>2020-07-15T06:01:30Z</time>
      </trkpt>
      <trkpt lat="39.5502168126" lon="-6.4143671561">
        <ele>379.38</ele>
        <time>2020-07-15T06:01:41Z</time>
      </trkpt>
      <trkpt lat="39.5506118517" lon="-6.4145558327">
        <ele>378.42</ele>
        <time>2020-07-15T06:01:50Z</time>
      </trkpt>
      <trkpt lat="39.5509832539" lon="-6.4147511311">
        <ele>377.45</ele>
        <time>2020-07-15T06:01:59Z</time>
      </trkpt>
      <trkpt lat="39.5513689891" lon="-6.4149742573">
        <ele>376.97</ele>
        <time>2020-07-15T06:02:09Z</time>
      </trkpt>
      <trkpt lat="39.5517188497" lon="-6.4151718188">
        <ele>376.01</ele>
        <time>2020-07-15T06:02:19Z</time>
      </trkpt>
      <trkpt lat="39.5519678760" lon="-6.4152653608">
        <ele>375.53</ele>
        <time>2020-07-15T06:02:27Z</time>
      </trkpt>
      <trkpt lat="39.5519972965" lon="-6.4152470883">
        <ele>376.01</ele>
        <time>2020-07-15T06:02:29Z</time>
      </trkpt>
      <trkpt lat="39.5520138927" lon="-6.4152237866">
        <ele>375.53</ele>
        <time>2020-07-15T06:02:30Z</time>
      </trkpt>
      <trkpt lat="39.5520250406" lon="-6.4151960425">
        <ele>376.01</ele>
        <time>2020-07-15T06:02:31Z</time>
      </trkpt>
      <trkpt lat="39.5520368591" lon="-6.4151685499">
        <ele>376.01</ele>
        <time>2020-07-15T06:02:32Z</time>
      </trkpt>
      <trkpt lat="39.5520495158" lon="-6.4151403029">
        <ele>376.01</ele>
        <time>2020-07-15T06:02:33Z</time>
      </trkpt>
      <trkpt lat="39.5520596579" lon="-6.4151152410">
        <ele>376.49</ele>
        <time>2020-07-15T06:02:34Z</time>
      </trkpt>
      <trkpt lat="39.5520699676" lon="-6.4150929451">
        <ele>376.49</ele>
        <time>2020-07-15T06:02:35Z</time>
      </trkpt>
      <trkpt lat="39.5520780142" lon="-6.4150767680">
        <ele>376.49</ele>
        <time>2020-07-15T06:02:36Z</time>
      </trkpt>
      <trkpt lat="39.5520903356" lon="-6.4150662906">
        <ele>376.49</ele>
        <time>2020-07-15T06:02:42Z</time>
      </trkpt>
      <trkpt lat="39.5521076024" lon="-6.4150720742">
        <ele>376.49</ele>
        <time>2020-07-15T06:02:52Z</time>
      </trkpt>
      <trkpt lat="39.5521127153" lon="-6.4150879160">
        <ele>376.49</ele>
        <time>2020-07-15T06:02:53Z</time>
      </trkpt>
      <trkpt lat="39.5521130506" lon="-6.4151043445">
        <ele>376.49</ele>
        <time>2020-07-15T06:02:54Z</time>
      </trkpt>
      <trkpt lat="39.5521065965" lon="-6.4151201863">
        <ele>376.49</ele>
        <time>2020-07-15T06:02:55Z</time>
      </trkpt>
      <trkpt lat="39.5520987175" lon="-6.4151359443">
        <ele>376.97</ele>
        <time>2020-07-15T06:02:56Z</time>
      </trkpt>
      <trkpt lat="39.5520982146" lon="-6.4151465893">
        <ele>376.97</ele>
        <time>2020-07-15T06:02:57Z</time>
      </trkpt>
      <trkpt lat="39.5520974603" lon="-6.4151654486">
        <ele>376.97</ele>
        <time>2020-07-15T06:02:58Z</time>
      </trkpt>
      <trkpt lat="39.5520978794" lon="-6.4151936118">
        <ele>376.97</ele>
        <time>2020-07-15T06:03:00Z</time>
      </trkpt>
      <trkpt lat="39.5520987175" lon="-6.4152024128">
        <ele>376.97</ele>
        <time>2020-07-15T06:03:06Z</time>
      </trkpt>
      <trkpt lat="39.5520994719" lon="-6.4151940309">
        <ele>376.97</ele>
        <time>2020-07-15T06:03:18Z</time>
      </trkpt>
      <trkpt lat="39.5520881563" lon="-6.4151983056">
        <ele>377.94</ele>
        <time>2020-07-15T06:03:25Z</time>
      </trkpt>
      <trkpt lat="39.5520943590" lon="-6.4151723217">
        <ele>377.45</ele>
        <time>2020-07-15T06:03:36Z</time>
      </trkpt>
      <trkpt lat="39.5520970412" lon="-6.4151640236">
        <ele>377.45</ele>
        <time>2020-07-15T06:03:37Z</time>
      </trkpt>
      <trkpt lat="39.5521112904" lon="-6.4151012432">
        <ele>376.97</ele>
        <time>2020-07-15T06:03:40Z</time>
      </trkpt>
      <trkpt lat="39.5521516912" lon="-6.4149292465">
        <ele>376.97</ele>
        <time>2020-07-15T06:03:48Z</time>
      </trkpt>
      <trkpt lat="39.5521710534" lon="-6.4147849102">
        <ele>377.94</ele>
        <time>2020-07-15T06:03:57Z</time>
      </trkpt>
      <trkpt lat="39.5521779265" lon="-6.4147714153">
        <ele>377.94</ele>
        <time>2020-07-15T06:03:58Z</time>
      </trkpt>
      <trkpt lat="39.5521998033" lon="-6.4147524722">
        <ele>377.94</ele>
        <time>2020-07-15T06:04:00Z</time>
      </trkpt>
      <trkpt lat="39.5523550361" lon="-6.4146744367">
        <ele>378.42</ele>
        <time>2020-07-15T06:04:08Z</time>
      </trkpt>
      <trkpt lat="39.5524356700" lon="-6.4146282524">
        <ele>377.94</ele>
        <time>2020-07-15T06:04:13Z</time>
      </trkpt>
      <trkpt lat="39.5525487419" lon="-6.4146038610">
        <ele>378.42</ele>
        <time>2020-07-15T06:04:19Z</time>
      </trkpt>
      <trkpt lat="39.5525533520" lon="-6.4146026876">
        <ele>378.42</ele>
        <time>2020-07-15T06:04:24Z</time>
      </trkpt>
      <trkpt lat="39.5525578782" lon="-6.4146081358">
        <ele>378.90</ele>
        <time>2020-07-15T06:04:32Z</time>
      </trkpt>
      <trkpt lat="39.5525572915" lon="-6.4146064594">
        <ele>377.94</ele>
        <time>2020-07-15T06:04:44Z</time>
      </trkpt>
      <trkpt lat="39.5525629073" lon="-6.4145973232">
        <ele>377.94</ele>
        <time>2020-07-15T06:05:07Z</time>
      </trkpt>
      <trkpt lat="39.5525484905" lon="-6.4145971555">
        <ele>376.97</ele>
        <time>2020-07-15T06:05:25Z</time>
      </trkpt>
      <trkpt lat="39.5525358338" lon="-6.4145953953">
        <ele>376.49</ele>
        <time>2020-07-15T06:05:45Z</time>
      </trkpt>
      <trkpt lat="39.5525373425" lon="-6.4145841636">
        <ele>378.42</ele>
        <time>2020-07-15T06:05:54Z</time>
      </trkpt>
      <trkpt lat="39.5525377616" lon="-6.4145876840">
        <ele>377.94</ele>
        <time>2020-07-15T06:06:09Z</time>
      </trkpt>
      <trkpt lat="39.5525390189" lon="-6.4145691600">
        <ele>378.42</ele>
        <time>2020-07-15T06:06:20Z</time>
      </trkpt>
      <trkpt lat="39.5525441319" lon="-6.4145436790">
        <ele>377.94</ele>
        <time>2020-07-15T06:06:24Z</time>
      </trkpt>
      <trkpt lat="39.5525530167" lon="-6.4145296812">
        <ele>377.94</ele>
        <time>2020-07-15T06:06:25Z</time>
      </trkpt>
      <trkpt lat="39.5525670983" lon="-6.4145220537">
        <ele>378.42</ele>
        <time>2020-07-15T06:06:26Z</time>
      </trkpt>
      <trkpt lat="39.5525836106" lon="-6.4145192876">
        <ele>378.42</ele>
        <time>2020-07-15T06:06:27Z</time>
      </trkpt>
      <trkpt lat="39.5526021346" lon="-6.4145200420">
        <ele>378.42</ele>
        <time>2020-07-15T06:06:28Z</time>
      </trkpt>
      <trkpt lat="39.5526207425" lon="-6.4145205449">
        <ele>378.42</ele>
        <time>2020-07-15T06:06:29Z</time>
      </trkpt>
      <trkpt lat="39.5526402723" lon="-6.4145193715">
        <ele>378.42</ele>
        <time>2020-07-15T06:06:30Z</time>
      </trkpt>
      <trkpt lat="39.5526598021" lon="-6.4145243168">
        <ele>378.42</ele>
        <time>2020-07-15T06:06:31Z</time>
      </trkpt>
      <trkpt lat="39.5526893903" lon="-6.4145371411">
        <ele>378.42</ele>
        <time>2020-07-15T06:06:33Z</time>
      </trkpt>
      <trkpt lat="39.5527174696" lon="-6.4145457745">
        <ele>378.42</ele>
        <time>2020-07-15T06:06:34Z</time>
      </trkpt>
      <trkpt lat="39.5529302862" lon="-6.4146175236">
        <ele>378.42</ele>
        <time>2020-07-15T06:06:43Z</time>
      </trkpt>
      <trkpt lat="39.5531819947" lon="-6.4146978222">
        <ele>378.42</ele>
        <time>2020-07-15T06:06:53Z</time>
      </trkpt>
      <trkpt lat="39.5534687396" lon="-6.4147898555">
        <ele>379.38</ele>
        <time>2020-07-15T06:07:02Z</time>
      </trkpt>
      <trkpt lat="39.5535171870" lon="-6.4148182701">
        <ele>379.38</ele>
        <time>2020-07-15T06:07:04Z</time>
      </trkpt>
      <trkpt lat="39.5535364654" lon="-6.4148398954">
        <ele>379.86</ele>
        <time>2020-07-15T06:07:05Z</time>
      </trkpt>
      <trkpt lat="39.5535565820" lon="-6.4148590062">
        <ele>379.86</ele>
        <time>2020-07-15T06:07:06Z</time>
      </trkpt>
      <trkpt lat="39.5535817277" lon="-6.4148757700">
        <ele>379.86</ele>
        <time>2020-07-15T06:07:07Z</time>
      </trkpt>
      <trkpt lat="39.5536039397" lon="-6.4148848224">
        <ele>379.86</ele>
        <time>2020-07-15T06:07:08Z</time>
      </trkpt>
      <trkpt lat="39.5536289178" lon="-6.4148905221">
        <ele>379.86</ele>
        <time>2020-07-15T06:07:09Z</time>
      </trkpt>
      <trkpt lat="39.5536561590" lon="-6.4148974791">
        <ele>379.38</ele>
        <time>2020-07-15T06:07:10Z</time>
      </trkpt>
      <trkpt lat="39.5536834002" lon="-6.4149078727">
        <ele>379.38</ele>
        <time>2020-07-15T06:07:11Z</time>
      </trkpt>
      <trkpt lat="39.5539754257" lon="-6.4149978943">
        <ele>377.94</ele>
        <time>2020-07-15T06:07:21Z</time>
      </trkpt>
      <trkpt lat="39.5541975461" lon="-6.4150587469">
        <ele>378.42</ele>
        <time>2020-07-15T06:07:29Z</time>
      </trkpt>
      <trkpt lat="39.5543956105" lon="-6.4150608424">
        <ele>378.42</ele>
        <time>2020-07-15T06:07:37Z</time>
      </trkpt>
      <trkpt lat="39.5545784198" lon="-6.4150658716">
        <ele>378.42</ele>
        <time>2020-07-15T06:07:43Z</time>
      </trkpt>
      <trkpt lat="39.5548168011" lon="-6.4151372015">
        <ele>381.30</ele>
        <time>2020-07-15T06:07:52Z</time>
      </trkpt>
      <trkpt lat="39.5550397597" lon="-6.4151879121">
        <ele>382.74</ele>
        <time>2020-07-15T06:08:01Z</time>
      </trkpt>
      <trkpt lat="39.5552311186" lon="-6.4152513631">
        <ele>384.18</ele>
        <time>2020-07-15T06:08:10Z</time>
      </trkpt>
      <trkpt lat="39.5553809032" lon="-6.4152940270">
        <ele>384.18</ele>
        <time>2020-07-15T06:08:16Z</time>
      </trkpt>
      <trkpt lat="39.5555703342" lon="-6.4153478388">
        <ele>384.18</ele>
        <time>2020-07-15T06:08:24Z</time>
      </trkpt>
      <trkpt lat="39.5558000822" lon="-6.4154171571">
        <ele>384.18</ele>
        <time>2020-07-15T06:08:33Z</time>
      </trkpt>
      <trkpt lat="39.5560381282" lon="-6.4155069273">
        <ele>382.74</ele>
        <time>2020-07-15T06:08:43Z</time>
      </trkpt>
      <trkpt lat="39.5562163275" lon="-6.4156133775">
        <ele>381.78</ele>
        <time>2020-07-15T06:08:50Z</time>
      </trkpt>
      <trkpt lat="39.5564503502" lon="-6.4157054108">
        <ele>380.82</ele>
        <time>2020-07-15T06:08:58Z</time>
      </trkpt>
      <trkpt lat="39.5567173976" lon="-6.4157941751">
        <ele>381.78</ele>
        <time>2020-07-15T06:09:08Z</time>
      </trkpt>
      <trkpt lat="39.5569424517" lon="-6.4158595540">
        <ele>382.74</ele>
        <time>2020-07-15T06:09:16Z</time>
      </trkpt>
      <trkpt lat="39.5571739599" lon="-6.4159373380">
        <ele>381.30</ele>
        <time>2020-07-15T06:09:24Z</time>
      </trkpt>
      <trkpt lat="39.5573505666" lon="-6.4159550238">
        <ele>381.30</ele>
        <time>2020-07-15T06:09:31Z</time>
      </trkpt>
      <trkpt lat="39.5573960803" lon="-6.4159545209">
        <ele>380.82</ele>
        <time>2020-07-15T06:09:38Z</time>
      </trkpt>
      <trkpt lat="39.5574071445" lon="-6.4159499947">
        <ele>380.82</ele>
        <time>2020-07-15T06:09:40Z</time>
      </trkpt>
      <trkpt lat="39.5574681647" lon="-6.4158963505">
        <ele>380.34</ele>
        <time>2020-07-15T06:09:46Z</time>
      </trkpt>
      <trkpt lat="39.5574809890" lon="-6.4158742223">
        <ele>379.86</ele>
        <time>2020-07-15T06:09:47Z</time>
      </trkpt>
      <trkpt lat="39.5574961603" lon="-6.4158562850">
        <ele>379.86</ele>
        <time>2020-07-15T06:09:48Z</time>
      </trkpt>
      <trkpt lat="39.5575192105" lon="-6.4158479869">
        <ele>379.86</ele>
        <time>2020-07-15T06:09:49Z</time>
      </trkpt>
      <trkpt lat="39.5575429313" lon="-6.4158505853">
        <ele>379.86</ele>
        <time>2020-07-15T06:09:50Z</time>
      </trkpt>
      <trkpt lat="39.5575669035" lon="-6.4158567879">
        <ele>379.86</ele>
        <time>2020-07-15T06:09:51Z</time>
      </trkpt>
      <trkpt lat="39.5575935580" lon="-6.4158650860">
        <ele>379.86</ele>
        <time>2020-07-15T06:09:52Z</time>
      </trkpt>
      <trkpt lat="39.5578832366" lon="-6.4159452170">
        <ele>379.38</ele>
        <time>2020-07-15T06:10:01Z</time>
      </trkpt>
      <trkpt lat="39.5581274014" lon="-6.4160103444">
        <ele>378.90</ele>
        <time>2020-07-15T06:10:09Z</time>
      </trkpt>
      <trkpt lat="39.5584164094" lon="-6.4161001146">
        <ele>378.90</ele>
        <time>2020-07-15T06:10:18Z</time>
      </trkpt>
      <trkpt lat="39.5587334130" lon="-6.4162208978">
        <ele>378.42</ele>
        <time>2020-07-15T06:10:27Z</time>
      </trkpt>
      <trkpt lat="39.5591069106" lon="-6.4163599536">
        <ele>377.45</ele>
        <time>2020-07-15T06:10:38Z</time>
      </trkpt>
      <trkpt lat="39.5594439469" lon="-6.4164721034">
        <ele>376.49</ele>
        <time>2020-07-15T06:10:49Z</time>
      </trkpt>
      <trkpt lat="39.5596791431" lon="-6.4165725186">
        <ele>374.57</ele>
        <time>2020-07-15T06:10:58Z</time>
      </trkpt>
      <trkpt lat="39.5599264931" lon="-6.4166758675">
        <ele>373.61</ele>
        <time>2020-07-15T06:11:06Z</time>
      </trkpt>
      <trkpt lat="39.5602284092" lon="-6.4167605247">
        <ele>373.13</ele>
        <time>2020-07-15T06:11:15Z</time>
      </trkpt>
      <trkpt lat="39.5603961311" lon="-6.4167678170">
        <ele>373.13</ele>
        <time>2020-07-15T06:11:20Z</time>
      </trkpt>
      <trkpt lat="39.5605829637" lon="-6.4168258198">
        <ele>372.65</ele>
        <time>2020-07-15T06:11:28Z</time>
      </trkpt>
      <trkpt lat="39.5607777592" lon="-6.4168705791">
        <ele>374.09</ele>
        <time>2020-07-15T06:11:35Z</time>
      </trkpt>
      <trkpt lat="39.5610163081" lon="-6.4169377182">
        <ele>374.57</ele>
        <time>2020-07-15T06:11:44Z</time>
      </trkpt>
      <trkpt lat="39.5611884724" lon="-6.4170196932">
        <ele>376.01</ele>
        <time>2020-07-15T06:11:53Z</time>
      </trkpt>
      <trkpt lat="39.5612159651" lon="-6.4170293324">
        <ele>376.01</ele>
        <time>2020-07-15T06:11:55Z</time>
      </trkpt>
      <trkpt lat="39.5612283703" lon="-6.4170365408">
        <ele>376.01</ele>
        <time>2020-07-15T06:11:56Z</time>
      </trkpt>
      <trkpt lat="39.5613823459" lon="-6.4170636982">
        <ele>376.97</ele>
        <time>2020-07-15T06:12:06Z</time>
      </trkpt>
      <trkpt lat="39.5614862815" lon="-6.4170769416">
        <ele>377.45</ele>
        <time>2020-07-15T06:12:14Z</time>
      </trkpt>
      <trkpt lat="39.5614972617" lon="-6.4170773607">
        <ele>376.97</ele>
        <time>2020-07-15T06:12:15Z</time>
      </trkpt>
      <trkpt lat="39.5615087450" lon="-6.4170785341">
        <ele>376.97</ele>
        <time>2020-07-15T06:12:16Z</time>
      </trkpt>
      <trkpt lat="39.5615198091" lon="-6.4170765225">
        <ele>376.49</ele>
        <time>2020-07-15T06:12:17Z</time>
      </trkpt>
      <trkpt lat="39.5615307894" lon="-6.4170752652">
        <ele>376.49</ele>
        <time>2020-07-15T06:12:18Z</time>
      </trkpt>
      <trkpt lat="39.5615421049" lon="-6.4170764387">
        <ele>376.49</ele>
        <time>2020-07-15T06:12:19Z</time>
      </trkpt>
      <trkpt lat="39.5615530852" lon="-6.4170756843">
        <ele>376.49</ele>
        <time>2020-07-15T06:12:20Z</time>
      </trkpt>
      <trkpt lat="39.5615641493" lon="-6.4170758519">
        <ele>376.49</ele>
        <time>2020-07-15T06:12:21Z</time>
      </trkpt>
      <trkpt lat="39.5615742076" lon="-6.4170823060">
        <ele>376.97</ele>
        <time>2020-07-15T06:12:22Z</time>
      </trkpt>
      <trkpt lat="39.5615822542" lon="-6.4170926996">
        <ele>376.97</ele>
        <time>2020-07-15T06:12:23Z</time>
      </trkpt>
      <trkpt lat="39.5615921449" lon="-6.4171009976">
        <ele>376.97</ele>
        <time>2020-07-15T06:12:24Z</time>
      </trkpt>
      <trkpt lat="39.5616037119" lon="-6.4171074517">
        <ele>376.97</ele>
        <time>2020-07-15T06:12:25Z</time>
      </trkpt>
      <trkpt lat="39.5616182964" lon="-6.4171091281">
        <ele>376.97</ele>
        <time>2020-07-15T06:12:26Z</time>
      </trkpt>
      <trkpt lat="39.5616332162" lon="-6.4171055239">
        <ele>376.49</ele>
        <time>2020-07-15T06:12:27Z</time>
      </trkpt>
      <trkpt lat="39.5616479684" lon="-6.4170995727">
        <ele>376.01</ele>
        <time>2020-07-15T06:12:28Z</time>
      </trkpt>
      <trkpt lat="39.5616649836" lon="-6.4170962200">
        <ele>375.53</ele>
        <time>2020-07-15T06:12:29Z</time>
      </trkpt>
      <trkpt lat="39.5616792329" lon="-6.4170974772">
        <ele>375.05</ele>
        <time>2020-07-15T06:12:30Z</time>
      </trkpt>
      <trkpt lat="39.5616954938" lon="-6.4170978963">
        <ele>375.05</ele>
        <time>2020-07-15T06:12:31Z</time>
      </trkpt>
      <trkpt lat="39.5617149398" lon="-6.4170981478">
        <ele>375.05</ele>
        <time>2020-07-15T06:12:32Z</time>
      </trkpt>
      <trkpt lat="39.5618822426" lon="-6.4171321783">
        <ele>376.01</ele>
        <time>2020-07-15T06:12:40Z</time>
      </trkpt>
      <trkpt lat="39.5621557441" lon="-6.4171910193">
        <ele>377.45</ele>
        <time>2020-07-15T06:12:51Z</time>
      </trkpt>
      <trkpt lat="39.5623439178" lon="-6.4172387123">
        <ele>376.49</ele>
        <time>2020-07-15T06:12:59Z</time>
      </trkpt>
      <trkpt lat="39.5625620987" lon="-6.4173246268">
        <ele>375.53</ele>
        <time>2020-07-15T06:13:09Z</time>
      </trkpt>
      <trkpt lat="39.5627915114" lon="-6.4173690509">
        <ele>377.45</ele>
        <time>2020-07-15T06:13:18Z</time>
      </trkpt>
      <trkpt lat="39.5629954431" lon="-6.4174236171">
        <ele>377.45</ele>
        <time>2020-07-15T06:13:25Z</time>
      </trkpt>
      <trkpt lat="39.5632792544" lon="-6.4174821228">
        <ele>377.45</ele>
        <time>2020-07-15T06:13:33Z</time>
      </trkpt>
      <trkpt lat="39.5634525083" lon="-6.4175348449">
        <ele>377.94</ele>
        <time>2020-07-15T06:13:37Z</time>
      </trkpt>
      <trkpt lat="39.5635379199" lon="-6.4175780956">
        <ele>378.42</ele>
        <time>2020-07-15T06:13:39Z</time>
      </trkpt>
      <trkpt lat="39.5638746209" lon="-6.4177357592">
        <ele>376.49</ele>
        <time>2020-07-15T06:13:47Z</time>
      </trkpt>
      <trkpt lat="39.5640482940" lon="-6.4177929237">
        <ele>374.57</ele>
        <time>2020-07-15T06:13:51Z</time>
      </trkpt>
      <trkpt lat="39.5643563289" lon="-6.4179814328">
        <ele>369.76</ele>
        <time>2020-07-15T06:13:59Z</time>
      </trkpt>
      <trkpt lat="39.5643985737" lon="-6.4180017170">
        <ele>369.28</ele>
        <time>2020-07-15T06:14:00Z</time>
      </trkpt>
      <trkpt lat="39.5644808002" lon="-6.4180435427">
        <ele>368.80</ele>
        <time>2020-07-15T06:14:02Z</time>
      </trkpt>
      <trkpt lat="39.5645189378" lon="-6.4180698618">
        <ele>368.80</ele>
        <time>2020-07-15T06:14:03Z</time>
      </trkpt>
      <trkpt lat="39.5647926070" lon="-6.4182467200">
        <ele>367.84</ele>
        <time>2020-07-15T06:14:10Z</time>
      </trkpt>
      <trkpt lat="39.5648315828" lon="-6.4182708599">
        <ele>367.84</ele>
        <time>2020-07-15T06:14:11Z</time>
      </trkpt>
      <trkpt lat="39.5648747496" lon="-6.4182917308">
        <ele>367.36</ele>
        <time>2020-07-15T06:14:12Z</time>
      </trkpt>
      <trkpt lat="39.5651021507" lon="-6.4184420183">
        <ele>364.96</ele>
        <time>2020-07-15T06:14:19Z</time>
      </trkpt>
      <trkpt lat="39.5652207546" lon="-6.4185146894">
        <ele>364.00</ele>
        <time>2020-07-15T06:14:27Z</time>
      </trkpt>
      <trkpt lat="39.5652407873" lon="-6.4185287710">
        <ele>362.55</ele>
        <time>2020-07-15T06:14:30Z</time>
      </trkpt>
      <trkpt lat="39.5652506780" lon="-6.4185364824">
        <ele>362.07</ele>
        <time>2020-07-15T06:14:31Z</time>
      </trkpt>
      <trkpt lat="39.5652939286" lon="-6.4185779728">
        <ele>359.67</ele>
        <time>2020-07-15T06:14:36Z</time>
      </trkpt>
      <trkpt lat="39.5653054956" lon="-6.4185802359">
        <ele>359.67</ele>
        <time>2020-07-15T06:14:37Z</time>
      </trkpt>
      <trkpt lat="39.5653184876" lon="-6.4185875282">
        <ele>359.67</ele>
        <time>2020-07-15T06:14:38Z</time>
      </trkpt>
      <trkpt lat="39.5653283782" lon="-6.4185955748">
        <ele>359.67</ele>
        <time>2020-07-15T06:14:39Z</time>
      </trkpt>
      <trkpt lat="39.5653378498" lon="-6.4186027832">
        <ele>359.67</ele>
        <time>2020-07-15T06:14:40Z</time>
      </trkpt>
      <trkpt lat="39.5653494168" lon="-6.4186083153">
        <ele>359.19</ele>
        <time>2020-07-15T06:14:41Z</time>
      </trkpt>
      <trkpt lat="39.5653604809" lon="-6.4186123386">
        <ele>359.19</ele>
        <time>2020-07-15T06:14:42Z</time>
      </trkpt>
      <trkpt lat="39.5653811004" lon="-6.4186166134">
        <ele>358.23</ele>
        <time>2020-07-15T06:14:49Z</time>
      </trkpt>
      <trkpt lat="39.5653729700" lon="-6.4186276775">
        <ele>357.75</ele>
        <time>2020-07-15T06:15:03Z</time>
      </trkpt>
      <trkpt lat="39.5653918292" lon="-6.4186216425">
        <ele>358.23</ele>
        <time>2020-07-15T06:15:12Z</time>
      </trkpt>
      <trkpt lat="39.5653818548" lon="-6.4186310302">
        <ele>358.23</ele>
        <time>2020-07-15T06:15:25Z</time>
      </trkpt>
      <trkpt lat="39.5653947629" lon="-6.4186330419">
        <ele>357.75</ele>
        <time>2020-07-15T06:15:48Z</time>
      </trkpt>
      <trkpt lat="39.5654071681" lon="-6.4186437707">
        <ele>356.79</ele>
        <time>2020-07-15T06:16:05Z</time>
      </trkpt>
      <trkpt lat="39.5654096827" lon="-6.4186089020">
        <ele>357.75</ele>
        <time>2020-07-15T06:16:19Z</time>
      </trkpt>
      <trkpt lat="39.5654079225" lon="-6.4186140988">
        <ele>357.27</ele>
        <time>2020-07-15T06:16:36Z</time>
      </trkpt>
      <trkpt lat="39.5653945114" lon="-6.4186325390">
        <ele>356.79</ele>
        <time>2020-07-15T06:16:52Z</time>
      </trkpt>
      <trkpt lat="39.5654528495" lon="-6.4186608698">
        <ele>357.27</ele>
        <time>2020-07-15T06:16:59Z</time>
      </trkpt>
      <trkpt lat="39.5656061545" lon="-6.4187414199">
        <ele>356.79</ele>
        <time>2020-07-15T06:17:06Z</time>
      </trkpt>
      <trkpt lat="39.5658260118" lon="-6.4188565034">
        <ele>355.34</ele>
        <time>2020-07-15T06:17:13Z</time>
      </trkpt>
      <trkpt lat="39.5659170393" lon="-6.4189530630">
        <ele>354.38</ele>
        <time>2020-07-15T06:17:16Z</time>
      </trkpt>
      <trkpt lat="39.5659458730" lon="-6.4189911168">
        <ele>354.38</ele>
        <time>2020-07-15T06:17:17Z</time>
      </trkpt>
      <trkpt lat="39.5659762155" lon="-6.4190248121">
        <ele>354.38</ele>
        <time>2020-07-15T06:17:18Z</time>
      </trkpt>
      <trkpt lat="39.5662260801" lon="-6.4191806316">
        <ele>353.90</ele>
        <time>2020-07-15T06:17:26Z</time>
      </trkpt>
      <trkpt lat="39.5665681455" lon="-6.4193511195">
        <ele>354.86</ele>
        <time>2020-07-15T06:17:36Z</time>
      </trkpt>
      <trkpt lat="39.5668139029" lon="-6.4194923546">
        <ele>354.38</ele>
        <time>2020-07-15T06:17:44Z</time>
      </trkpt>
      <trkpt lat="39.5671288110" lon="-6.4196057618">
        <ele>354.86</ele>
        <time>2020-07-15T06:17:53Z</time>
      </trkpt>
      <trkpt lat="39.5674866345" lon="-6.4196646865">
        <ele>355.34</ele>
        <time>2020-07-15T06:18:03Z</time>
      </trkpt>
      <trkpt lat="39.5678400993" lon="-6.4197975397">
        <ele>354.38</ele>
        <time>2020-07-15T06:18:13Z</time>
      </trkpt>
      <trkpt lat="39.5681042969" lon="-6.4199127071">
        <ele>353.90</ele>
        <time>2020-07-15T06:18:22Z</time>
      </trkpt>
      <trkpt lat="39.5684274193" lon="-6.4200546127">
        <ele>354.38</ele>
        <time>2020-07-15T06:18:33Z</time>
      </trkpt>
      <trkpt lat="39.5687150862" lon="-6.4201471489">
        <ele>355.83</ele>
        <time>2020-07-15T06:18:44Z</time>
      </trkpt>
      <trkpt lat="39.5689646155" lon="-6.4202404395">
        <ele>357.27</ele>
        <time>2020-07-15T06:18:54Z</time>
      </trkpt>
      <trkpt lat="39.5691512804" lon="-6.4203748852">
        <ele>358.71</ele>
        <time>2020-07-15T06:19:02Z</time>
      </trkpt>
      <trkpt lat="39.5693444833" lon="-6.4205266815">
        <ele>359.19</ele>
        <time>2020-07-15T06:19:11Z</time>
      </trkpt>
      <trkpt lat="39.5695914142" lon="-6.4207493048">
        <ele>360.15</ele>
        <time>2020-07-15T06:19:22Z</time>
      </trkpt>
      <trkpt lat="39.5697468147" lon="-6.4209126681">
        <ele>360.63</ele>
        <time>2020-07-15T06:19:30Z</time>
      </trkpt>
      <trkpt lat="39.5698202401" lon="-6.4210037794">
        <ele>361.59</ele>
        <time>2020-07-15T06:19:36Z</time>
      </trkpt>
      <trkpt lat="39.5700704399" lon="-6.4212751016">
        <ele>361.59</ele>
        <time>2020-07-15T06:19:48Z</time>
      </trkpt>
      <trkpt lat="39.5702793170" lon="-6.4215190150">
        <ele>363.04</ele>
        <time>2020-07-15T06:19:58Z</time>
      </trkpt>
      <trkpt lat="39.5704620425" lon="-6.4217287302">
        <ele>364.00</ele>
        <time>2020-07-15T06:20:08Z</time>
      </trkpt>
      <trkpt lat="39.5706426725" lon="-6.4219177421">
        <ele>365.44</ele>
        <time>2020-07-15T06:20:18Z</time>
      </trkpt>
      <trkpt lat="39.5708009228" lon="-6.4220802672">
        <ele>366.40</ele>
        <time>2020-07-15T06:20:27Z</time>
      </trkpt>
      <trkpt lat="39.5709372126" lon="-6.4222756494">
        <ele>366.88</ele>
        <time>2020-07-15T06:20:38Z</time>
      </trkpt>
      <trkpt lat="39.5710616838" lon="-6.4224988595">
        <ele>367.36</ele>
        <time>2020-07-15T06:20:47Z</time>
      </trkpt>
      <trkpt lat="39.5712123904" lon="-6.4227866102">
        <ele>366.88</ele>
        <time>2020-07-15T06:20:57Z</time>
      </trkpt>
      <trkpt lat="39.5713996422" lon="-6.4230944775">
        <ele>366.88</ele>
        <time>2020-07-15T06:21:07Z</time>
      </trkpt>
      <trkpt lat="39.5715823676" lon="-6.4233663864">
        <ele>368.32</ele>
        <time>2020-07-15T06:21:17Z</time>
      </trkpt>
      <trkpt lat="39.5717629138" lon="-6.4236243814">
        <ele>369.28</ele>
        <time>2020-07-15T06:21:27Z</time>
      </trkpt>
      <trkpt lat="39.5719334017" lon="-6.4238845557">
        <ele>370.24</ele>
        <time>2020-07-15T06:21:37Z</time>
      </trkpt>
      <trkpt lat="39.5720929094" lon="-6.4241755754">
        <ele>371.69</ele>
        <time>2020-07-15T06:21:48Z</time>
      </trkpt>
      <trkpt lat="39.5722303726" lon="-6.4244691096">
        <ele>373.13</ele>
        <time>2020-07-15T06:21:59Z</time>
      </trkpt>
      <trkpt lat="39.5723752119" lon="-6.4247509092">
        <ele>374.57</ele>
        <time>2020-07-15T06:22:10Z</time>
      </trkpt>
      <trkpt lat="39.5725545008" lon="-6.4250454493">
        <ele>375.53</ele>
        <time>2020-07-15T06:22:23Z</time>
      </trkpt>
      <trkpt lat="39.5726461988" lon="-6.4251922164">
        <ele>376.49</ele>
        <time>2020-07-15T06:22:32Z</time>
      </trkpt>
      <trkpt lat="39.5727515593" lon="-6.4253413305">
        <ele>377.94</ele>
        <time>2020-07-15T06:22:41Z</time>
      </trkpt>
      <trkpt lat="39.5727846678" lon="-6.4253910352">
        <ele>378.42</ele>
        <time>2020-07-15T06:22:44Z</time>
      </trkpt>
      <trkpt lat="39.5727979112" lon="-6.4254056197">
        <ele>378.42</ele>
        <time>2020-07-15T06:22:45Z</time>
      </trkpt>
      <trkpt lat="39.5728104841" lon="-6.4254236408">
        <ele>378.42</ele>
        <time>2020-07-15T06:22:46Z</time>
      </trkpt>
      <trkpt lat="39.5729414932" lon="-6.4256292488">
        <ele>379.86</ele>
        <time>2020-07-15T06:22:58Z</time>
      </trkpt>
      <trkpt lat="39.5730739273" lon="-6.4258085378">
        <ele>381.30</ele>
        <time>2020-07-15T06:23:09Z</time>
      </trkpt>
      <trkpt lat="39.5731799584" lon="-6.4259675425">
        <ele>382.74</ele>
        <time>2020-07-15T06:23:18Z</time>
      </trkpt>
      <trkpt lat="39.5733252168" lon="-6.4261600748">
        <ele>384.18</ele>
        <time>2020-07-15T06:23:29Z</time>
      </trkpt>
      <trkpt lat="39.5734753367" lon="-6.4263663534">
        <ele>385.63</ele>
        <time>2020-07-15T06:23:41Z</time>
      </trkpt>
      <trkpt lat="39.5736204274" lon="-6.4265971072">
        <ele>387.55</ele>
        <time>2020-07-15T06:23:53Z</time>
      </trkpt>
      <trkpt lat="39.5737138018" lon="-6.4267620631">
        <ele>387.55</ele>
        <time>2020-07-15T06:24:03Z</time>
      </trkpt>
      <trkpt lat="39.5738046616" lon="-6.4269332215">
        <ele>387.55</ele>
        <time>2020-07-15T06:24:10Z</time>
      </trkpt>
      <trkpt lat="39.5739795081" lon="-6.4272529911">
        <ele>386.59</ele>
        <time>2020-07-15T06:24:17Z</time>
      </trkpt>
      <trkpt lat="39.5742224157" lon="-6.4277218748">
        <ele>386.59</ele>
        <time>2020-07-15T06:24:26Z</time>
      </trkpt>
      <trkpt lat="39.5743096713" lon="-6.4279299974">
        <ele>387.55</ele>
        <time>2020-07-15T06:24:33Z</time>
      </trkpt>
      <trkpt lat="39.5744291134" lon="-6.4282424748">
        <ele>388.99</ele>
        <time>2020-07-15T06:24:45Z</time>
      </trkpt>
      <trkpt lat="39.5745013654" lon="-6.4284702111">
        <ele>390.91</ele>
        <time>2020-07-15T06:24:54Z</time>
      </trkpt>
      <trkpt lat="39.5745800715" lon="-6.4286562894">
        <ele>392.84</ele>
        <time>2020-07-15T06:25:02Z</time>
      </trkpt>
      <trkpt lat="39.5746182092" lon="-6.4287311397">
        <ele>393.32</ele>
        <time>2020-07-15T06:25:08Z</time>
      </trkpt>
      <trkpt lat="39.5747104101" lon="-6.4288754761">
        <ele>394.28</ele>
        <time>2020-07-15T06:25:16Z</time>
      </trkpt>
      <trkpt lat="39.5748312771" lon="-6.4289594628">
        <ele>395.24</ele>
        <time>2020-07-15T06:25:24Z</time>
      </trkpt>
      <trkpt lat="39.5749456901" lon="-6.4289939124">
        <ele>396.20</ele>
        <time>2020-07-15T06:25:33Z</time>
      </trkpt>
      <trkpt lat="39.5751054492" lon="-6.4290288649">
        <ele>397.16</ele>
        <time>2020-07-15T06:25:43Z</time>
      </trkpt>
      <trkpt lat="39.5752447564" lon="-6.4290523343">
        <ele>398.12</ele>
        <time>2020-07-15T06:25:50Z</time>
      </trkpt>
      <trkpt lat="39.5753964689" lon="-6.4290890470">
        <ele>397.64</ele>
        <time>2020-07-15T06:25:59Z</time>
      </trkpt>
      <trkpt lat="39.5754090417" lon="-6.4290980157">
        <ele>397.64</ele>
        <time>2020-07-15T06:26:04Z</time>
      </trkpt>
      <trkpt lat="39.5754145738" lon="-6.4290967584">
        <ele>397.64</ele>
        <time>2020-07-15T06:26:22Z</time>
      </trkpt>
      <trkpt lat="39.5754106343" lon="-6.4290950820">
        <ele>396.68</ele>
        <time>2020-07-15T06:26:42Z</time>
      </trkpt>
      <trkpt lat="39.5754101314" lon="-6.4290987700">
        <ele>396.68</ele>
        <time>2020-07-15T06:26:49Z</time>
      </trkpt>
      <trkpt lat="39.5754086226" lon="-6.4291038830">
        <ele>397.16</ele>
        <time>2020-07-15T06:27:05Z</time>
      </trkpt>
      <trkpt lat="39.5754037611" lon="-6.4291011170">
        <ele>397.16</ele>
        <time>2020-07-15T06:27:23Z</time>
      </trkpt>
      <trkpt lat="39.5754090417" lon="-6.4290965069">
        <ele>396.20</ele>
        <time>2020-07-15T06:27:36Z</time>
      </trkpt>
      <trkpt lat="39.5754150767" lon="-6.4290944114">
        <ele>396.68</ele>
        <time>2020-07-15T06:27:47Z</time>
      </trkpt>
      <trkpt lat="39.5754343551" lon="-6.4290904719">
        <ele>396.68</ele>
        <time>2020-07-15T06:27:54Z</time>
      </trkpt>
      <trkpt lat="39.5754489396" lon="-6.4290868677">
        <ele>396.68</ele>
        <time>2020-07-15T06:27:55Z</time>
      </trkpt>
      <trkpt lat="39.5754666254" lon="-6.4290841855">
        <ele>396.68</ele>
        <time>2020-07-15T06:27:56Z</time>
      </trkpt>
      <trkpt lat="39.5756775979" lon="-6.4290841855">
        <ele>396.68</ele>
        <time>2020-07-15T06:28:04Z</time>
      </trkpt>
      <trkpt lat="39.5760114491" lon="-6.4291270170">
        <ele>396.20</ele>
        <time>2020-07-15T06:28:15Z</time>
      </trkpt>
      <trkpt lat="39.5763774868" lon="-6.4291844331">
        <ele>395.72</ele>
        <time>2020-07-15T06:28:24Z</time>
      </trkpt>
      <trkpt lat="39.5767388307" lon="-6.4292428549">
        <ele>395.24</ele>
        <time>2020-07-15T06:28:34Z</time>
      </trkpt>
      <trkpt lat="39.5771790482" lon="-6.4293222316">
        <ele>395.24</ele>
        <time>2020-07-15T06:28:46Z</time>
      </trkpt>
      <trkpt lat="39.5775365364" lon="-6.4293780550">
        <ele>394.76</ele>
        <time>2020-07-15T06:28:55Z</time>
      </trkpt>
      <trkpt lat="39.5779350121" lon="-6.4294441044">
        <ele>395.72</ele>
        <time>2020-07-15T06:29:06Z</time>
      </trkpt>
      <trkpt lat="39.5783010498" lon="-6.4295084774">
        <ele>396.68</ele>
        <time>2020-07-15T06:29:16Z</time>
      </trkpt>
      <trkpt lat="39.5786341466" lon="-6.4295618702">
        <ele>397.64</ele>
        <time>2020-07-15T06:29:26Z</time>
      </trkpt>
      <trkpt lat="39.5789422654" lon="-6.4296116587">
        <ele>399.57</ele>
        <time>2020-07-15T06:29:36Z</time>
      </trkpt>
      <trkpt lat="39.5792306028" lon="-6.4296486229">
        <ele>400.53</ele>
        <time>2020-07-15T06:29:45Z</time>
      </trkpt>
      <trkpt lat="39.5795216225" lon="-6.4296850841">
        <ele>399.57</ele>
        <time>2020-07-15T06:29:54Z</time>
      </trkpt>
      <trkpt lat="39.5798923541" lon="-6.4297585934">
        <ele>398.60</ele>
        <time>2020-07-15T06:30:05Z</time>
      </trkpt>
      <trkpt lat="39.5802512672" lon="-6.4298332762">
        <ele>398.12</ele>
        <time>2020-07-15T06:30:15Z</time>
      </trkpt>
      <trkpt lat="39.5806173887" lon="-6.4298945479">
        <ele>399.08</ele>
        <time>2020-07-15T06:30:26Z</time>
      </trkpt>
      <trkpt lat="39.5808898844" lon="-6.4299362060">
        <ele>399.57</ele>
        <time>2020-07-15T06:30:34Z</time>
      </trkpt>
      <trkpt lat="39.5813549962" lon="-6.4300241321">
        <ele>398.60</ele>
        <time>2020-07-15T06:30:47Z</time>
      </trkpt>
      <trkpt lat="39.5815837383" lon="-6.4300550614">
        <ele>398.60</ele>
        <time>2020-07-15T06:30:54Z</time>
      </trkpt>
      <trkpt lat="39.5819546375" lon="-6.4301079512">
        <ele>398.60</ele>
        <time>2020-07-15T06:31:05Z</time>
      </trkpt>
      <trkpt lat="39.5823394507" lon="-6.4301741682">
        <ele>399.57</ele>
        <time>2020-07-15T06:31:17Z</time>
      </trkpt>
      <trkpt lat="39.5826821867" lon="-6.4302349370">
        <ele>401.49</ele>
        <time>2020-07-15T06:31:29Z</time>
      </trkpt>
      <trkpt lat="39.5829026308" lon="-6.4302738290">
        <ele>402.93</ele>
        <time>2020-07-15T06:31:38Z</time>
      </trkpt>
      <trkpt lat="39.5831182972" lon="-6.4303066023">
        <ele>404.37</ele>
        <time>2020-07-15T06:31:47Z</time>
      </trkpt>
      <trkpt lat="39.5833824947" lon="-6.4303474221">
        <ele>405.81</ele>
        <time>2020-07-15T06:31:57Z</time>
      </trkpt>
      <trkpt lat="39.5836663898" lon="-6.4303871524">
        <ele>405.81</ele>
        <time>2020-07-15T06:32:07Z</time>
      </trkpt>
      <trkpt lat="39.5839368738" lon="-6.4304368570">
        <ele>404.85</ele>
        <time>2020-07-15T06:32:16Z</time>
      </trkpt>
      <trkpt lat="39.5843061805" lon="-6.4304962009">
        <ele>404.37</ele>
        <time>2020-07-15T06:32:26Z</time>
      </trkpt>
      <trkpt lat="39.5846477430" lon="-6.4305467438">
        <ele>404.37</ele>
        <time>2020-07-15T06:32:35Z</time>
      </trkpt>
      <trkpt lat="39.5850770641" lon="-6.4306189958">
        <ele>402.93</ele>
        <time>2020-07-15T06:32:45Z</time>
      </trkpt>
      <trkpt lat="39.5856002625" lon="-6.4307104424">
        <ele>401.97</ele>
        <time>2020-07-15T06:32:57Z</time>
      </trkpt>
      <trkpt lat="39.5860745106" lon="-6.4307835326">
        <ele>401.01</ele>
        <time>2020-07-15T06:33:08Z</time>
      </trkpt>
      <trkpt lat="39.5864652749" lon="-6.4308420382">
        <ele>399.57</ele>
        <time>2020-07-15T06:33:16Z</time>
      </trkpt>
      <trkpt lat="39.5867256168" lon="-6.4308762364">
        <ele>400.05</ele>
        <time>2020-07-15T06:33:22Z</time>
      </trkpt>
      <trkpt lat="39.5867698733" lon="-6.4308810141">
        <ele>400.05</ele>
        <time>2020-07-15T06:33:23Z</time>
      </trkpt>
      <trkpt lat="39.5872793254" lon="-6.4309774060">
        <ele>398.60</ele>
        <time>2020-07-15T06:33:34Z</time>
      </trkpt>
      <trkpt lat="39.5878004283" lon="-6.4310683496">
        <ele>396.20</ele>
        <time>2020-07-15T06:33:43Z</time>
      </trkpt>
      <trkpt lat="39.5882784482" lon="-6.4311259333">
        <ele>395.72</ele>
        <time>2020-07-15T06:33:52Z</time>
      </trkpt>
      <trkpt lat="39.5887533668" lon="-6.4312105067">
        <ele>396.20</ele>
        <time>2020-07-15T06:34:02Z</time>
      </trkpt>
      <trkpt lat="39.5892830193" lon="-6.4312897157">
        <ele>395.72</ele>
        <time>2020-07-15T06:34:13Z</time>
      </trkpt>
      <trkpt lat="39.5897098258" lon="-6.4313644823">
        <ele>395.24</ele>
        <time>2020-07-15T06:34:22Z</time>
      </trkpt>
      <trkpt lat="39.5898926351" lon="-6.4313923940">
        <ele>395.72</ele>
        <time>2020-07-15T06:34:26Z</time>
      </trkpt>
      <trkpt lat="39.5902834833" lon="-6.4314579405">
        <ele>393.32</ele>
        <time>2020-07-15T06:34:34Z</time>
      </trkpt>
      <trkpt lat="39.5906474255" lon="-6.4315106627">
        <ele>392.84</ele>
        <time>2020-07-15T06:34:41Z</time>
      </trkpt>
      <trkpt lat="39.5909977052" lon="-6.4315609541">
        <ele>393.80</ele>
        <time>2020-07-15T06:34:50Z</time>
      </trkpt>
      <trkpt lat="39.5913721249" lon="-6.4316647220">
        <ele>392.36</ele>
        <time>2020-07-15T06:34:58Z</time>
      </trkpt>
      <trkpt lat="39.5914186444" lon="-6.4316881914">
        <ele>391.87</ele>
        <time>2020-07-15T06:34:59Z</time>
      </trkpt>
      <trkpt lat="39.5914639905" lon="-6.4317170251">
        <ele>391.87</ele>
        <time>2020-07-15T06:35:00Z</time>
      </trkpt>
      <trkpt lat="39.5915828459" lon="-6.4318059571">
        <ele>392.36</ele>
        <time>2020-07-15T06:35:03Z</time>
      </trkpt>
      <trkpt lat="39.5916111767" lon="-6.4318364672">
        <ele>392.36</ele>
        <time>2020-07-15T06:35:04Z</time>
      </trkpt>
      <trkpt lat="39.5916397590" lon="-6.4318649657">
        <ele>392.36</ele>
        <time>2020-07-15T06:35:05Z</time>
      </trkpt>
      <trkpt lat="39.5919902902" lon="-6.4321289957">
        <ele>394.28</ele>
        <time>2020-07-15T06:35:15Z</time>
      </trkpt>
      <trkpt lat="39.5923330262" lon="-6.4322830550">
        <ele>394.28</ele>
        <time>2020-07-15T06:35:23Z</time>
      </trkpt>
      <trkpt lat="39.5926652011" lon="-6.4325193409">
        <ele>393.80</ele>
        <time>2020-07-15T06:35:31Z</time>
      </trkpt>
      <trkpt lat="39.5927035064" lon="-6.4325504377">
        <ele>394.28</ele>
        <time>2020-07-15T06:35:32Z</time>
      </trkpt>
      <trkpt lat="39.5930163190" lon="-6.4327418804">
        <ele>394.28</ele>
        <time>2020-07-15T06:35:41Z</time>
      </trkpt>
      <trkpt lat="39.5934200753" lon="-6.4328359254">
        <ele>393.80</ele>
        <time>2020-07-15T06:35:51Z</time>
      </trkpt>
      <trkpt lat="39.5938908868" lon="-6.4329238515">
        <ele>393.32</ele>
        <time>2020-07-15T06:36:02Z</time>
      </trkpt>
      <trkpt lat="39.5942460280" lon="-6.4330051560">
        <ele>392.84</ele>
        <time>2020-07-15T06:36:11Z</time>
      </trkpt>
      <trkpt lat="39.5945467707" lon="-6.4332016278">
        <ele>393.80</ele>
        <time>2020-07-15T06:36:19Z</time>
      </trkpt>
      <trkpt lat="39.5949593280" lon="-6.4335381612">
        <ele>393.80</ele>
        <time>2020-07-15T06:36:30Z</time>
      </trkpt>
      <trkpt lat="39.5952368528" lon="-6.4336742833">
        <ele>394.76</ele>
        <time>2020-07-15T06:36:38Z</time>
      </trkpt>
      <trkpt lat="39.5956440456" lon="-6.4337159414">
        <ele>395.24</ele>
        <time>2020-07-15T06:36:48Z</time>
      </trkpt>
      <trkpt lat="39.5960098319" lon="-6.4337131754">
        <ele>395.24</ele>
        <time>2020-07-15T06:36:58Z</time>
      </trkpt>
      <trkpt lat="39.5964145940" lon="-6.4337477926">
        <ele>396.68</ele>
        <time>2020-07-15T06:37:09Z</time>
      </trkpt>
      <trkpt lat="39.5967077091" lon="-6.4339030255">
        <ele>396.68</ele>
        <time>2020-07-15T06:37:17Z</time>
      </trkpt>
      <trkpt lat="39.5970776025" lon="-6.4340068772">
        <ele>397.16</ele>
        <time>2020-07-15T06:37:26Z</time>
      </trkpt>
      <trkpt lat="39.5974553749" lon="-6.4341060352">
        <ele>397.64</ele>
        <time>2020-07-15T06:37:36Z</time>
      </trkpt>
      <trkpt lat="39.5978110190" lon="-6.4342964720">
        <ele>396.68</ele>
        <time>2020-07-15T06:37:45Z</time>
      </trkpt>
      <trkpt lat="39.5982237440" lon="-6.4344954584">
        <ele>395.72</ele>
        <time>2020-07-15T06:37:55Z</time>
      </trkpt>
      <trkpt lat="39.5986233093" lon="-6.4345802832">
        <ele>394.76</ele>
        <time>2020-07-15T06:38:03Z</time>
      </trkpt>
      <trkpt lat="39.5986729302" lon="-6.4345773496">
        <ele>394.76</ele>
        <time>2020-07-15T06:38:04Z</time>
      </trkpt>
      <trkpt lat="39.5992191788" lon="-6.4345429000">
        <ele>395.24</ele>
        <time>2020-07-15T06:38:16Z</time>
      </trkpt>
      <trkpt lat="39.5993822068" lon="-6.4345348533">
        <ele>395.72</ele>
        <time>2020-07-15T06:38:20Z</time>
      </trkpt>
      <trkpt lat="39.5997430477" lon="-6.4345159102">
        <ele>395.72</ele>
        <time>2020-07-15T06:38:29Z</time>
      </trkpt>
      <trkpt lat="39.6001210716" lon="-6.4345324226">
        <ele>394.76</ele>
        <time>2020-07-15T06:38:38Z</time>
      </trkpt>
      <trkpt lat="39.6005567629" lon="-6.4347029943">
        <ele>394.28</ele>
        <time>2020-07-15T06:38:48Z</time>
      </trkpt>
      <trkpt lat="39.6008690726" lon="-6.4348397031">
        <ele>393.80</ele>
        <time>2020-07-15T06:38:56Z</time>
      </trkpt>
      <trkpt lat="39.6009141672" lon="-6.4348650165">
        <ele>393.80</ele>
        <time>2020-07-15T06:38:57Z</time>
      </trkpt>
      <trkpt lat="39.6009520534" lon="-6.4348873962">
        <ele>393.80</ele>
        <time>2020-07-15T06:38:58Z</time>
      </trkpt>
      <trkpt lat="39.6012996510" lon="-6.4351142105">
        <ele>392.84</ele>
        <time>2020-07-15T06:39:07Z</time>
      </trkpt>
      <trkpt lat="39.6013791952" lon="-6.4351531025">
        <ele>392.84</ele>
        <time>2020-07-15T06:39:09Z</time>
      </trkpt>
      <trkpt lat="39.6018579695" lon="-6.4353255183">
        <ele>392.84</ele>
        <time>2020-07-15T06:39:21Z</time>
      </trkpt>
      <trkpt lat="39.6022860333" lon="-6.4354821760">
        <ele>392.36</ele>
        <time>2020-07-15T06:39:32Z</time>
      </trkpt>
      <trkpt lat="39.6026635543" lon="-6.4356068149">
        <ele>391.39</ele>
        <time>2020-07-15T06:39:41Z</time>
      </trkpt>
      <trkpt lat="39.6031663008" lon="-6.4357853495">
        <ele>392.36</ele>
        <time>2020-07-15T06:39:53Z</time>
      </trkpt>
      <trkpt lat="39.6036053449" lon="-6.4359372295">
        <ele>392.84</ele>
        <time>2020-07-15T06:40:04Z</time>
      </trkpt>
      <trkpt lat="39.6039788425" lon="-6.4360681549">
        <ele>393.80</ele>
        <time>2020-07-15T06:40:14Z</time>
      </trkpt>
      <trkpt lat="39.6043981053" lon="-6.4362131618">
        <ele>393.80</ele>
        <time>2020-07-15T06:40:25Z</time>
      </trkpt>
      <trkpt lat="39.6047651488" lon="-6.4363426622">
        <ele>393.80</ele>
        <time>2020-07-15T06:40:35Z</time>
      </trkpt>
      <trkpt lat="39.6051710006" lon="-6.4364850707">
        <ele>393.32</ele>
        <time>2020-07-15T06:40:46Z</time>
      </trkpt>
      <trkpt lat="39.6056200191" lon="-6.4366397168">
        <ele>391.87</ele>
        <time>2020-07-15T06:40:57Z</time>
      </trkpt>
      <trkpt lat="39.6061199997" lon="-6.4368149824">
        <ele>390.91</ele>
        <time>2020-07-15T06:41:08Z</time>
      </trkpt>
      <trkpt lat="39.6064838581" lon="-6.4369373582">
        <ele>391.39</ele>
        <time>2020-07-15T06:41:17Z</time>
      </trkpt>
      <trkpt lat="39.6067451220" lon="-6.4370342530">
        <ele>393.32</ele>
        <time>2020-07-15T06:41:25Z</time>
      </trkpt>
      <trkpt lat="39.6069885325" lon="-6.4371231850">
        <ele>394.28</ele>
        <time>2020-07-15T06:41:34Z</time>
      </trkpt>
      <trkpt lat="39.6072280873" lon="-6.4372040704">
        <ele>394.76</ele>
        <time>2020-07-15T06:41:43Z</time>
      </trkpt>
      <trkpt lat="39.6074867528" lon="-6.4372524340">
        <ele>394.28</ele>
        <time>2020-07-15T06:41:51Z</time>
      </trkpt>
      <trkpt lat="39.6078863181" lon="-6.4372192416">
        <ele>392.84</ele>
        <time>2020-07-15T06:42:01Z</time>
      </trkpt>
      <trkpt lat="39.6082402021" lon="-6.4371645916">
        <ele>393.32</ele>
        <time>2020-07-15T06:42:10Z</time>
      </trkpt>
      <trkpt lat="39.6086099278" lon="-6.4369808603">
        <ele>393.80</ele>
        <time>2020-07-15T06:42:20Z</time>
      </trkpt>
      <trkpt lat="39.6089444496" lon="-6.4367858972">
        <ele>393.80</ele>
        <time>2020-07-15T06:42:30Z</time>
      </trkpt>
      <trkpt lat="39.6091943979" lon="-6.4367759228">
        <ele>393.80</ele>
        <time>2020-07-15T06:42:37Z</time>
      </trkpt>
      <trkpt lat="39.6095651295" lon="-6.4368962869">
        <ele>393.80</ele>
        <time>2020-07-15T06:42:46Z</time>
      </trkpt>
      <trkpt lat="39.6100678761" lon="-6.4370691217">
        <ele>393.80</ele>
        <time>2020-07-15T06:42:58Z</time>
      </trkpt>
      <trkpt lat="39.6105662640" lon="-6.4372370951">
        <ele>392.36</ele>
        <time>2020-07-15T06:43:10Z</time>
      </trkpt>
      <trkpt lat="39.6110157855" lon="-6.4373865444">
        <ele>391.87</ele>
        <time>2020-07-15T06:43:21Z</time>
      </trkpt>
      <trkpt lat="39.6114679053" lon="-6.4375235885">
        <ele>391.87</ele>
        <time>2020-07-15T06:43:31Z</time>
      </trkpt>
      <trkpt lat="39.6118724160" lon="-6.4376615547">
        <ele>391.87</ele>
        <time>2020-07-15T06:43:41Z</time>
      </trkpt>
      <trkpt lat="39.6122159064" lon="-6.4377866127">
        <ele>391.87</ele>
        <time>2020-07-15T06:43:50Z</time>
      </trkpt>
      <trkpt lat="39.6125763282" lon="-6.4379014447">
        <ele>391.87</ele>
        <time>2020-07-15T06:43:59Z</time>
      </trkpt>
      <trkpt lat="39.6129459701" lon="-6.4380356390">
        <ele>390.91</ele>
        <time>2020-07-15T06:44:08Z</time>
      </trkpt>
      <trkpt lat="39.6133478824" lon="-6.4381708391">
        <ele>390.43</ele>
        <time>2020-07-15T06:44:17Z</time>
      </trkpt>
      <trkpt lat="39.6138106473" lon="-6.4382922091">
        <ele>389.47</ele>
        <time>2020-07-15T06:44:27Z</time>
      </trkpt>
      <trkpt lat="39.6142327599" lon="-6.4384542312">
        <ele>388.03</ele>
        <time>2020-07-15T06:44:36Z</time>
      </trkpt>
      <trkpt lat="39.6146241110" lon="-6.4386968873">
        <ele>388.51</ele>
        <time>2020-07-15T06:44:45Z</time>
      </trkpt>
      <trkpt lat="39.6149248537" lon="-6.4388716500">
        <ele>388.99</ele>
        <time>2020-07-15T06:44:52Z</time>
      </trkpt>
      <trkpt lat="39.6153318789" lon="-6.4390948601">
        <ele>388.03</ele>
        <time>2020-07-15T06:45:01Z</time>
      </trkpt>
      <trkpt lat="39.6153746266" lon="-6.4391332492">
        <ele>388.03</ele>
        <time>2020-07-15T06:45:02Z</time>
      </trkpt>
      <trkpt lat="39.6154179610" lon="-6.4391821157">
        <ele>387.55</ele>
        <time>2020-07-15T06:45:03Z</time>
      </trkpt>
      <trkpt lat="39.6154577751" lon="-6.4392335806">
        <ele>387.55</ele>
        <time>2020-07-15T06:45:04Z</time>
      </trkpt>
      <trkpt lat="39.6157482080" lon="-6.4397454634">
        <ele>385.63</ele>
        <time>2020-07-15T06:45:12Z</time>
      </trkpt>
      <trkpt lat="39.6159419138" lon="-6.4400506485">
        <ele>385.15</ele>
        <time>2020-07-15T06:45:17Z</time>
      </trkpt>
      <trkpt lat="39.6162988991" lon="-6.4404228050">
        <ele>384.18</ele>
        <time>2020-07-15T06:45:25Z</time>
      </trkpt>
      <trkpt lat="39.6167101152" lon="-6.4408565685">
        <ele>383.22</ele>
        <time>2020-07-15T06:45:35Z</time>
      </trkpt>
      <trkpt lat="39.6171234269" lon="-6.4413314033">
        <ele>382.74</ele>
        <time>2020-07-15T06:45:45Z</time>
      </trkpt>
      <trkpt lat="39.6173550189" lon="-6.4415707905">
        <ele>382.74</ele>
        <time>2020-07-15T06:45:51Z</time>
      </trkpt>
      <trkpt lat="39.6173998620" lon="-6.4415978640">
        <ele>382.74</ele>
        <time>2020-07-15T06:45:52Z</time>
      </trkpt>
      <trkpt lat="39.6174511593" lon="-6.4416223392">
        <ele>382.74</ele>
        <time>2020-07-15T06:45:53Z</time>
      </trkpt>
      <trkpt lat="39.6174940746" lon="-6.4416378457">
        <ele>382.74</ele>
        <time>2020-07-15T06:45:54Z</time>
      </trkpt>
      <trkpt lat="39.6175457072" lon="-6.4416541904">
        <ele>382.74</ele>
        <time>2020-07-15T06:45:55Z</time>
      </trkpt>
      <trkpt lat="39.6180318575" lon="-6.4417945035">
        <ele>381.30</ele>
        <time>2020-07-15T06:46:04Z</time>
      </trkpt>
      <trkpt lat="39.6184558980" lon="-6.4419656619">
        <ele>379.86</ele>
        <time>2020-07-15T06:46:11Z</time>
      </trkpt>
      <trkpt lat="39.6188197564" lon="-6.4420970064">
        <ele>380.82</ele>
        <time>2020-07-15T06:46:18Z</time>
      </trkpt>
      <trkpt lat="39.6193121932" lon="-6.4422615431">
        <ele>382.26</ele>
        <time>2020-07-15T06:46:28Z</time>
      </trkpt>
      <trkpt lat="39.6194850281" lon="-6.4423231501">
        <ele>382.74</ele>
        <time>2020-07-15T06:46:32Z</time>
      </trkpt>
      <trkpt lat="39.6199853439" lon="-6.4425247349">
        <ele>382.26</ele>
        <time>2020-07-15T06:46:44Z</time>
      </trkpt>
      <trkpt lat="39.6201578435" lon="-6.4425695781">
        <ele>381.78</ele>
        <time>2020-07-15T06:46:48Z</time>
      </trkpt>
      <trkpt lat="39.6202052850" lon="-6.4425775409">
        <ele>381.78</ele>
        <time>2020-07-15T06:46:49Z</time>
      </trkpt>
      <trkpt lat="39.6206152439" lon="-6.4426073804">
        <ele>381.78</ele>
        <time>2020-07-15T06:46:57Z</time>
      </trkpt>
      <trkpt lat="39.6210735664" lon="-6.4426263236">
        <ele>381.78</ele>
        <time>2020-07-15T06:47:07Z</time>
      </trkpt>
      <trkpt lat="39.6214024723" lon="-6.4426433388">
        <ele>382.26</ele>
        <time>2020-07-15T06:47:15Z</time>
      </trkpt>
      <trkpt lat="39.6217965055" lon="-6.4426798839">
        <ele>383.70</ele>
        <time>2020-07-15T06:47:26Z</time>
      </trkpt>
      <trkpt lat="39.6221023612" lon="-6.4427595120">
        <ele>385.15</ele>
        <time>2020-07-15T06:47:36Z</time>
      </trkpt>
      <trkpt lat="39.6224435885" lon="-6.4428757690">
        <ele>386.59</ele>
        <time>2020-07-15T06:47:47Z</time>
      </trkpt>
      <trkpt lat="39.6227451693" lon="-6.4429772738">
        <ele>385.63</ele>
        <time>2020-07-15T06:47:57Z</time>
      </trkpt>
      <trkpt lat="39.6230476722" lon="-6.4430631045">
        <ele>384.66</ele>
        <time>2020-07-15T06:48:05Z</time>
      </trkpt>
      <trkpt lat="39.6235031448" lon="-6.4431939460">
        <ele>383.70</ele>
        <time>2020-07-15T06:48:15Z</time>
      </trkpt>
      <trkpt lat="39.6238288656" lon="-6.4432274736">
        <ele>383.22</ele>
        <time>2020-07-15T06:48:21Z</time>
      </trkpt>
      <trkpt lat="39.6239878703" lon="-6.4432084467">
        <ele>383.22</ele>
        <time>2020-07-15T06:48:24Z</time>
      </trkpt>
      <trkpt lat="39.6240383293" lon="-6.4431922697">
        <ele>382.74</ele>
        <time>2020-07-15T06:48:25Z</time>
      </trkpt>
      <trkpt lat="39.6241023671" lon="-6.4431583229">
        <ele>382.74</ele>
        <time>2020-07-15T06:48:26Z</time>
      </trkpt>
      <trkpt lat="39.6241384931" lon="-6.4431286510">
        <ele>383.22</ele>
        <time>2020-07-15T06:48:27Z</time>
      </trkpt>
      <trkpt lat="39.6241690870" lon="-6.4431021642">
        <ele>383.22</ele>
        <time>2020-07-15T06:48:28Z</time>
      </trkpt>
      <trkpt lat="39.6243696660" lon="-6.4429583307">
        <ele>384.66</ele>
        <time>2020-07-15T06:48:34Z</time>
      </trkpt>
      <trkpt lat="39.6245983243" lon="-6.4430024195">
        <ele>386.11</ele>
        <time>2020-07-15T06:48:41Z</time>
      </trkpt>
      <trkpt lat="39.6248812973" lon="-6.4430714864">
        <ele>386.11</ele>
        <time>2020-07-15T06:48:50Z</time>
      </trkpt>
      <trkpt lat="39.6251823753" lon="-6.4431566466">
        <ele>386.59</ele>
        <time>2020-07-15T06:48:58Z</time>
      </trkpt>
      <trkpt lat="39.6253678668" lon="-6.4433414675">
        <ele>386.11</ele>
        <time>2020-07-15T06:49:04Z</time>
      </trkpt>
      <trkpt lat="39.6255924180" lon="-6.4435683656">
        <ele>386.11</ele>
        <time>2020-07-15T06:49:12Z</time>
      </trkpt>
      <trkpt lat="39.6258546039" lon="-6.4436784200">
        <ele>386.59</ele>
        <time>2020-07-15T06:49:20Z</time>
      </trkpt>
      <trkpt lat="39.6261183824" lon="-6.4437852055">
        <ele>386.59</ele>
        <time>2020-07-15T06:49:27Z</time>
      </trkpt>
      <trkpt lat="39.6265091468" lon="-6.4437711239">
        <ele>386.11</ele>
        <time>2020-07-15T06:49:36Z</time>
      </trkpt>
      <trkpt lat="39.6266409103" lon="-6.4437874686">
        <ele>386.11</ele>
        <time>2020-07-15T06:49:39Z</time>
      </trkpt>
      <trkpt lat="39.6270640288" lon="-6.4439031389">
        <ele>386.59</ele>
        <time>2020-07-15T06:49:49Z</time>
      </trkpt>
      <trkpt lat="39.6271096263" lon="-6.4439235907">
        <ele>386.59</ele>
        <time>2020-07-15T06:49:50Z</time>
      </trkpt>
      <trkpt lat="39.6274285577" lon="-6.4440691844">
        <ele>385.63</ele>
        <time>2020-07-15T06:49:56Z</time>
      </trkpt>
      <trkpt lat="39.6278525982" lon="-6.4441680070">
        <ele>384.66</ele>
        <time>2020-07-15T06:50:04Z</time>
      </trkpt>
      <trkpt lat="39.6281742956" lon="-6.4442552626">
        <ele>385.15</ele>
        <time>2020-07-15T06:50:12Z</time>
      </trkpt>
      <trkpt lat="39.6284045465" lon="-6.4443286043">
        <ele>384.18</ele>
        <time>2020-07-15T06:50:18Z</time>
      </trkpt>
      <trkpt lat="39.6284497250" lon="-6.4443248324">
        <ele>383.70</ele>
        <time>2020-07-15T06:50:19Z</time>
      </trkpt>
      <trkpt lat="39.6284990106" lon="-6.4443121757">
        <ele>383.22</ele>
        <time>2020-07-15T06:50:20Z</time>
      </trkpt>
      <trkpt lat="39.6285401657" lon="-6.4442950767">
        <ele>383.22</ele>
        <time>2020-07-15T06:50:21Z</time>
      </trkpt>
      <trkpt lat="39.6285787225" lon="-6.4442758821">
        <ele>382.74</ele>
        <time>2020-07-15T06:50:22Z</time>
      </trkpt>
      <trkpt lat="39.6287087258" lon="-6.4442068990">
        <ele>382.26</ele>
        <time>2020-07-15T06:50:25Z</time>
      </trkpt>
      <trkpt lat="39.6287572570" lon="-6.4441896323">
        <ele>381.78</ele>
        <time>2020-07-15T06:50:26Z</time>
      </trkpt>
      <trkpt lat="39.6288105659" lon="-6.4441780653">
        <ele>381.78</ele>
        <time>2020-07-15T06:50:27Z</time>
      </trkpt>
      <trkpt lat="39.6288615279" lon="-6.4441758860">
        <ele>381.30</ele>
        <time>2020-07-15T06:50:28Z</time>
      </trkpt>
      <trkpt lat="39.6289088856" lon="-6.4441776462">
        <ele>381.30</ele>
        <time>2020-07-15T06:50:29Z</time>
      </trkpt>
      <trkpt lat="39.6289583389" lon="-6.4441855252">
        <ele>381.30</ele>
        <time>2020-07-15T06:50:30Z</time>
      </trkpt>
      <trkpt lat="39.6294194274" lon="-6.4441986009">
        <ele>379.86</ele>
        <time>2020-07-15T06:50:39Z</time>
      </trkpt>
      <trkpt lat="39.6299799252" lon="-6.4442343079">
        <ele>378.90</ele>
        <time>2020-07-15T06:50:50Z</time>
      </trkpt>
      <trkpt lat="39.6305773873" lon="-6.4442996029">
        <ele>377.94</ele>
        <time>2020-07-15T06:51:01Z</time>
      </trkpt>
      <trkpt lat="39.6309910342" lon="-6.4443652332">
        <ele>377.94</ele>
        <time>2020-07-15T06:51:09Z</time>
      </trkpt>
      <trkpt lat="39.6312474366" lon="-6.4443852659">
        <ele>377.94</ele>
        <time>2020-07-15T06:51:14Z</time>
      </trkpt>
      <trkpt lat="39.6316050086" lon="-6.4444616251">
        <ele>376.97</ele>
        <time>2020-07-15T06:51:22Z</time>
      </trkpt>
      <trkpt lat="39.6319185756" lon="-6.4445458632">
        <ele>376.01</ele>
        <time>2020-07-15T06:51:29Z</time>
      </trkpt>
      <trkpt lat="39.6322257724" lon="-6.4446390700">
        <ele>375.05</ele>
        <time>2020-07-15T06:51:38Z</time>
      </trkpt>
      <trkpt lat="39.6325508226" lon="-6.4448998310">
        <ele>373.61</ele>
        <time>2020-07-15T06:51:47Z</time>
      </trkpt>
      <trkpt lat="39.6329570096" lon="-6.4452184271">
        <ele>373.13</ele>
        <time>2020-07-15T06:51:57Z</time>
      </trkpt>
      <trkpt lat="39.6331512183" lon="-6.4453572314">
        <ele>373.13</ele>
        <time>2020-07-15T06:52:02Z</time>
      </trkpt>
      <trkpt lat="39.6335812099" lon="-6.4454612508">
        <ele>374.09</ele>
        <time>2020-07-15T06:52:12Z</time>
      </trkpt>
      <trkpt lat="39.6337018255" lon="-6.4455172420">
        <ele>374.57</ele>
        <time>2020-07-15T06:52:17Z</time>
      </trkpt>
      <trkpt lat="39.6338315774" lon="-6.4456055034">
        <ele>375.05</ele>
        <time>2020-07-15T06:52:24Z</time>
      </trkpt>
      <trkpt lat="39.6338565554" lon="-6.4456340857">
        <ele>375.53</ele>
        <time>2020-07-15T06:52:30Z</time>
      </trkpt>
      <trkpt lat="39.6338491794" lon="-6.4456591476">
        <ele>375.05</ele>
        <time>2020-07-15T06:52:38Z</time>
      </trkpt>
      <trkpt lat="39.6338652726" lon="-6.4456598181">
        <ele>375.05</ele>
        <time>2020-07-15T06:52:45Z</time>
      </trkpt>
      <trkpt lat="39.6338666975" lon="-6.4456570521">
        <ele>375.53</ele>
        <time>2020-07-15T06:52:55Z</time>
      </trkpt>
      <trkpt lat="39.6338951122" lon="-6.4456955250">
        <ele>374.57</ele>
        <time>2020-07-15T06:53:05Z</time>
      </trkpt>
      <trkpt lat="39.6338924300" lon="-6.4456929266">
        <ele>373.61</ele>
        <time>2020-07-15T06:53:24Z</time>
      </trkpt>
      <trkpt lat="39.6338868979" lon="-6.4456946030">
        <ele>372.65</ele>
        <time>2020-07-15T06:53:37Z</time>
      </trkpt>
      <trkpt lat="39.6338848025" lon="-6.4456948545">
        <ele>374.09</ele>
        <time>2020-07-15T06:54:00Z</time>
      </trkpt>
      <trkpt lat="39.6339046676" lon="-6.4456940163">
        <ele>373.61</ele>
        <time>2020-07-15T06:54:19Z</time>
      </trkpt>
      <trkpt lat="39.6339025721" lon="-6.4456899092">
        <ele>375.05</ele>
        <time>2020-07-15T06:54:40Z</time>
      </trkpt>
      <trkpt lat="39.6338946093" lon="-6.4457026497">
        <ele>373.61</ele>
        <time>2020-07-15T06:55:02Z</time>
      </trkpt>
      <trkpt lat="39.6338916756" lon="-6.4457087684">
        <ele>374.09</ele>
        <time>2020-07-15T06:55:20Z</time>
      </trkpt>
      <trkpt lat="39.6338870656" lon="-6.4456864726">
        <ele>373.13</ele>
        <time>2020-07-15T06:55:38Z</time>
      </trkpt>
      <trkpt lat="39.6338834614" lon="-6.4456904959">
        <ele>373.13</ele>
        <time>2020-07-15T06:55:57Z</time>
      </trkpt>
      <trkpt lat="39.6338946931" lon="-6.4456939325">
        <ele>373.13</ele>
        <time>2020-07-15T06:56:13Z</time>
      </trkpt>
      <trkpt lat="39.6338962018" lon="-6.4456887357">
        <ele>373.61</ele>
        <time>2020-07-15T06:56:30Z</time>
      </trkpt>
      <trkpt lat="39.6338931844" lon="-6.4457014762">
        <ele>375.05</ele>
        <time>2020-07-15T06:56:50Z</time>
      </trkpt>
      <trkpt lat="39.6338926814" lon="-6.4456941839">
        <ele>373.13</ele>
        <time>2020-07-15T06:57:12Z</time>
      </trkpt>
      <trkpt lat="39.6338960342" lon="-6.4456992131">
        <ele>373.61</ele>
        <time>2020-07-15T06:57:30Z</time>
      </trkpt>
      <trkpt lat="39.6338882390" lon="-6.4456921723">
        <ele>374.57</ele>
        <time>2020-07-15T06:57:51Z</time>
      </trkpt>
      <trkpt lat="39.6338978782" lon="-6.4456956089">
        <ele>374.57</ele>
        <time>2020-07-15T06:58:18Z</time>
      </trkpt>
      <trkpt lat="39.6339035779" lon="-6.4457003027">
        <ele>374.09</ele>
        <time>2020-07-15T06:58:39Z</time>
      </trkpt>
      <trkpt lat="39.6338944416" lon="-6.4456951059">
        <ele>373.61</ele>
        <time>2020-07-15T06:59:02Z</time>
      </trkpt>
      <trkpt lat="39.6338953637" lon="-6.4456994645">
        <ele>373.61</ele>
        <time>2020-07-15T06:59:20Z</time>
      </trkpt>
      <trkpt lat="39.6338977944" lon="-6.4456944354">
        <ele>373.61</ele>
        <time>2020-07-15T06:59:35Z</time>
      </trkpt>
      <trkpt lat="39.6339487564" lon="-6.4457241073">
        <ele>374.09</ele>
        <time>2020-07-15T06:59:42Z</time>
      </trkpt>
      <trkpt lat="39.6340872254" lon="-6.4458489139">
        <ele>375.05</ele>
        <time>2020-07-15T06:59:49Z</time>
      </trkpt>
      <trkpt lat="39.6342602279" lon="-6.4460630715">
        <ele>376.01</ele>
        <time>2020-07-15T06:59:57Z</time>
      </trkpt>
      <trkpt lat="39.6344548557" lon="-6.4461630676">
        <ele>376.97</ele>
        <time>2020-07-15T07:00:04Z</time>
      </trkpt>
      <trkpt lat="39.6346841007" lon="-6.4463320468">
        <ele>378.90</ele>
        <time>2020-07-15T07:00:13Z</time>
      </trkpt>
      <trkpt lat="39.6348863561" lon="-6.4465021156">
        <ele>379.38</ele>
        <time>2020-07-15T07:00:22Z</time>
      </trkpt>
      <trkpt lat="39.6351365559" lon="-6.4466797281">
        <ele>378.42</ele>
        <time>2020-07-15T07:00:31Z</time>
      </trkpt>
      <trkpt lat="39.6351679880" lon="-6.4467112441">
        <ele>377.94</ele>
        <time>2020-07-15T07:00:32Z</time>
      </trkpt>
      <trkpt lat="39.6351979114" lon="-6.4467501361">
        <ele>377.94</ele>
        <time>2020-07-15T07:00:33Z</time>
      </trkpt>
      <trkpt lat="39.6352271643" lon="-6.4467938058">
        <ele>377.45</ele>
        <time>2020-07-15T07:00:34Z</time>
      </trkpt>
      <trkpt lat="39.6354642045" lon="-6.4472121466">
        <ele>376.49</ele>
        <time>2020-07-15T07:00:42Z</time>
      </trkpt>
      <trkpt lat="39.6356140729" lon="-6.4475085307">
        <ele>376.01</ele>
        <time>2020-07-15T07:00:49Z</time>
      </trkpt>
      <trkpt lat="39.6357250493" lon="-6.4477511030">
        <ele>376.49</ele>
        <time>2020-07-15T07:00:57Z</time>
      </trkpt>
      <trkpt lat="39.6358121373" lon="-6.4479238540">
        <ele>376.97</ele>
        <time>2020-07-15T07:01:06Z</time>
      </trkpt>
      <trkpt lat="39.6359326690" lon="-6.4481028914">
        <ele>377.94</ele>
        <time>2020-07-15T07:01:15Z</time>
      </trkpt>
      <trkpt lat="39.6359623410" lon="-6.4482666738">
        <ele>378.42</ele>
        <time>2020-07-15T07:01:23Z</time>
      </trkpt>
      <trkpt lat="39.6359595750" lon="-6.4482802525">
        <ele>378.42</ele>
        <time>2020-07-15T07:01:24Z</time>
      </trkpt>
      <trkpt lat="39.6359615028" lon="-6.4482949208">
        <ele>378.90</ele>
        <time>2020-07-15T07:01:25Z</time>
      </trkpt>
      <trkpt lat="39.6359636821" lon="-6.4483121876">
        <ele>378.90</ele>
        <time>2020-07-15T07:01:26Z</time>
      </trkpt>
      <trkpt lat="39.6359660290" lon="-6.4483320527">
        <ele>378.90</ele>
        <time>2020-07-15T07:01:27Z</time>
      </trkpt>
      <trkpt lat="39.6359699685" lon="-6.4483529236">
        <ele>378.90</ele>
        <time>2020-07-15T07:01:28Z</time>
      </trkpt>
      <trkpt lat="39.6359724831" lon="-6.4483743813">
        <ele>379.38</ele>
        <time>2020-07-15T07:01:29Z</time>
      </trkpt>
      <trkpt lat="39.6359742433" lon="-6.4483964257">
        <ele>379.86</ele>
        <time>2020-07-15T07:01:30Z</time>
      </trkpt>
      <trkpt lat="39.6360288095" lon="-6.4485956635">
        <ele>381.30</ele>
        <time>2020-07-15T07:01:39Z</time>
      </trkpt>
      <trkpt lat="39.6361431386" lon="-6.4487363957">
        <ele>382.74</ele>
        <time>2020-07-15T07:01:48Z</time>
      </trkpt>
      <trkpt lat="39.6361760795" lon="-6.4487617090">
        <ele>383.22</ele>
        <time>2020-07-15T07:01:56Z</time>
      </trkpt>
      <trkpt lat="39.6361759119" lon="-6.4487618767">
        <ele>383.70</ele>
        <time>2020-07-15T07:02:10Z</time>
      </trkpt>
      <trkpt lat="39.6361601539" lon="-6.4487539977">
        <ele>384.18</ele>
        <time>2020-07-15T07:02:29Z</time>
      </trkpt>
      <trkpt lat="39.6361852158" lon="-6.4487788081">
        <ele>383.22</ele>
        <time>2020-07-15T07:02:44Z</time>
      </trkpt>
      <trkpt lat="39.6362900734" lon="-6.4489162713">
        <ele>383.22</ele>
        <time>2020-07-15T07:02:51Z</time>
      </trkpt>
      <trkpt lat="39.6364929155" lon="-6.4490687381">
        <ele>383.70</ele>
        <time>2020-07-15T07:02:59Z</time>
      </trkpt>
      <trkpt lat="39.6366944164" lon="-6.4493061975">
        <ele>383.70</ele>
        <time>2020-07-15T07:03:07Z</time>
      </trkpt>
      <trkpt lat="39.6368738730" lon="-6.4495790284">
        <ele>382.74</ele>
        <time>2020-07-15T07:03:16Z</time>
      </trkpt>
      <trkpt lat="39.6370004397" lon="-6.4498399571">
        <ele>381.78</ele>
        <time>2020-07-15T07:03:24Z</time>
      </trkpt>
      <trkpt lat="39.6371210553" lon="-6.4501418732">
        <ele>382.26</ele>
        <time>2020-07-15T07:03:33Z</time>
      </trkpt>
      <trkpt lat="39.6371524036" lon="-6.4502311405">
        <ele>382.74</ele>
        <time>2020-07-15T07:03:37Z</time>
      </trkpt>
      <trkpt lat="39.6371606179" lon="-6.4502418693">
        <ele>383.22</ele>
        <time>2020-07-15T07:03:38Z</time>
      </trkpt>
      <trkpt lat="39.6371674072" lon="-6.4502556156">
        <ele>383.22</ele>
        <time>2020-07-15T07:03:39Z</time>
      </trkpt>
      <trkpt lat="39.6371751186" lon="-6.4502706192">
        <ele>383.22</ele>
        <time>2020-07-15T07:03:40Z</time>
      </trkpt>
      <trkpt lat="39.6371815726" lon="-6.4502859581">
        <ele>383.22</ele>
        <time>2020-07-15T07:03:41Z</time>
      </trkpt>
      <trkpt lat="39.6371820755" lon="-6.4503026381">
        <ele>383.22</ele>
        <time>2020-07-15T07:03:42Z</time>
      </trkpt>
      <trkpt lat="39.6371842548" lon="-6.4503200725">
        <ele>383.22</ele>
        <time>2020-07-15T07:03:43Z</time>
      </trkpt>
      <trkpt lat="39.6371895354" lon="-6.4503372554">
        <ele>383.22</ele>
        <time>2020-07-15T07:03:44Z</time>
      </trkpt>
      <trkpt lat="39.6371969953" lon="-6.4503556956">
        <ele>383.22</ele>
        <time>2020-07-15T07:03:45Z</time>
      </trkpt>
      <trkpt lat="39.6372157708" lon="-6.4504005387">
        <ele>383.22</ele>
        <time>2020-07-15T07:03:51Z</time>
      </trkpt>
      <trkpt lat="39.6372151002" lon="-6.4504060708">
        <ele>384.18</ele>
        <time>2020-07-15T07:04:03Z</time>
      </trkpt>
      <trkpt lat="39.6372163575" lon="-6.4503772371">
        <ele>383.70</ele>
        <time>2020-07-15T07:04:20Z</time>
      </trkpt>
      <trkpt lat="39.6372139268" lon="-6.4503637422">
        <ele>383.70</ele>
        <time>2020-07-15T07:04:21Z</time>
      </trkpt>
      <trkpt lat="39.6372082271" lon="-6.4503484871">
        <ele>383.22</ele>
        <time>2020-07-15T07:04:22Z</time>
      </trkpt>
      <trkpt lat="39.6371730231" lon="-6.4502634108">
        <ele>383.22</ele>
        <time>2020-07-15T07:04:31Z</time>
      </trkpt>
      <trkpt lat="39.6371829137" lon="-6.4502766542">
        <ele>383.22</ele>
        <time>2020-07-15T07:04:38Z</time>
      </trkpt>
      <trkpt lat="39.6371876076" lon="-6.4502896462">
        <ele>383.22</ele>
        <time>2020-07-15T07:04:39Z</time>
      </trkpt>
      <trkpt lat="39.6371957380" lon="-6.4503091760">
        <ele>383.22</ele>
        <time>2020-07-15T07:04:40Z</time>
      </trkpt>
      <trkpt lat="39.6372742765" lon="-6.4504858665">
        <ele>382.74</ele>
        <time>2020-07-15T07:04:46Z</time>
      </trkpt>
      <trkpt lat="39.6374551579" lon="-6.4507012814">
        <ele>382.26</ele>
        <time>2020-07-15T07:04:54Z</time>
      </trkpt>
      <trkpt lat="39.6375618596" lon="-6.4507655706">
        <ele>381.30</ele>
        <time>2020-07-15T07:05:00Z</time>
      </trkpt>
      <trkpt lat="39.6375610214" lon="-6.4507539198">
        <ele>381.30</ele>
        <time>2020-07-15T07:05:08Z</time>
      </trkpt>
      <trkpt lat="39.6375661343" lon="-6.4507581107">
        <ele>383.70</ele>
        <time>2020-07-15T07:05:35Z</time>
      </trkpt>
      <trkpt lat="39.6375558246" lon="-6.4507592004">
        <ele>383.70</ele>
        <time>2020-07-15T07:06:00Z</time>
      </trkpt>
      <trkpt lat="39.6375566628" lon="-6.4507428557">
        <ele>382.74</ele>
        <time>2020-07-15T07:06:25Z</time>
      </trkpt>
      <trkpt lat="39.6375578362" lon="-6.4507469628">
        <ele>383.22</ele>
        <time>2020-07-15T07:06:44Z</time>
      </trkpt>
      <trkpt lat="39.6375740133" lon="-6.4507751260">
        <ele>382.26</ele>
        <time>2020-07-15T07:06:51Z</time>
      </trkpt>
      <trkpt lat="39.6376795415" lon="-6.4508673269">
        <ele>381.78</ele>
        <time>2020-07-15T07:06:57Z</time>
      </trkpt>
      <trkpt lat="39.6378689725" lon="-6.4508873597">
        <ele>381.30</ele>
        <time>2020-07-15T07:07:04Z</time>
      </trkpt>
      <trkpt lat="39.6379492711" lon="-6.4509917144">
        <ele>380.34</ele>
        <time>2020-07-15T07:07:10Z</time>
      </trkpt>
      <trkpt lat="39.6379672922" lon="-6.4511054568">
        <ele>379.38</ele>
        <time>2020-07-15T07:07:17Z</time>
      </trkpt>
      <trkpt lat="39.6379743330" lon="-6.4511103183">
        <ele>378.90</ele>
        <time>2020-07-15T07:07:28Z</time>
      </trkpt>
      <trkpt lat="39.6379927732" lon="-6.4511169400">
        <ele>378.42</ele>
        <time>2020-07-15T07:07:36Z</time>
      </trkpt>
      <trkpt lat="39.6380103752" lon="-6.4511479530">
        <ele>377.45</ele>
        <time>2020-07-15T07:07:46Z</time>
      </trkpt>
      <trkpt lat="39.6380145662" lon="-6.4511529822">
        <ele>378.42</ele>
        <time>2020-07-15T07:07:56Z</time>
      </trkpt>
      <trkpt lat="39.6380034182" lon="-6.4511531498">
        <ele>379.38</ele>
        <time>2020-07-15T07:08:09Z</time>
      </trkpt>
      <trkpt lat="39.6380175836" lon="-6.4511629567">
        <ele>379.38</ele>
        <time>2020-07-15T07:08:14Z</time>
      </trkpt>
      <trkpt lat="39.6380310785" lon="-6.4511780441">
        <ele>379.38</ele>
        <time>2020-07-15T07:08:15Z</time>
      </trkpt>
      <trkpt lat="39.6381917596" lon="-6.4513427485">
        <ele>378.42</ele>
        <time>2020-07-15T07:08:23Z</time>
      </trkpt>
      <trkpt lat="39.6384064201" lon="-6.4516127296">
        <ele>376.97</ele>
        <time>2020-07-15T07:08:32Z</time>
      </trkpt>
      <trkpt lat="39.6385942586" lon="-6.4517652802">
        <ele>377.94</ele>
        <time>2020-07-15T07:08:40Z</time>
      </trkpt>
      <trkpt lat="39.6387136169" lon="-6.4520084392">
        <ele>378.42</ele>
        <time>2020-07-15T07:08:49Z</time>
      </trkpt>
      <trkpt lat="39.6388678439" lon="-6.4521728922">
        <ele>378.42</ele>
        <time>2020-07-15T07:08:58Z</time>
      </trkpt>
      <trkpt lat="39.6390043013" lon="-6.4522658475">
        <ele>380.82</ele>
        <time>2020-07-15T07:09:06Z</time>
      </trkpt>
      <trkpt lat="39.6391618811" lon="-6.4523458108">
        <ele>382.26</ele>
        <time>2020-07-15T07:09:15Z</time>
      </trkpt>
      <trkpt lat="39.6392933931" lon="-6.4524087589">
        <ele>383.70</ele>
        <time>2020-07-15T07:09:23Z</time>
      </trkpt>
      <trkpt lat="39.6394749451" lon="-6.4524998702">
        <ele>386.11</ele>
        <time>2020-07-15T07:09:33Z</time>
      </trkpt>
      <trkpt lat="39.6396309324" lon="-6.4525677636">
        <ele>387.07</ele>
        <time>2020-07-15T07:09:42Z</time>
      </trkpt>
      <trkpt lat="39.6398168430" lon="-6.4526509959">
        <ele>385.63</ele>
        <time>2020-07-15T07:09:49Z</time>
      </trkpt>
      <trkpt lat="39.6399919409" lon="-6.4527234994">
        <ele>385.63</ele>
        <time>2020-07-15T07:09:56Z</time>
      </trkpt>
      <trkpt lat="39.6402349323" lon="-6.4528531674">
        <ele>385.15</ele>
        <time>2020-07-15T07:10:05Z</time>
      </trkpt>
      <trkpt lat="39.6405127924" lon="-6.4529370703">
        <ele>383.70</ele>
        <time>2020-07-15T07:10:14Z</time>
      </trkpt>
      <trkpt lat="39.6407082584" lon="-6.4530332107">
        <ele>382.26</ele>
        <time>2020-07-15T07:10:20Z</time>
      </trkpt>
      <trkpt lat="39.6409768984" lon="-6.4532468654">
        <ele>380.82</ele>
        <time>2020-07-15T07:10:29Z</time>
      </trkpt>
      <trkpt lat="39.6412185486" lon="-6.4534232207">
        <ele>380.34</ele>
        <time>2020-07-15T07:10:37Z</time>
      </trkpt>
      <trkpt lat="39.6414519008" lon="-6.4535562415">
        <ele>379.38</ele>
        <time>2020-07-15T07:10:46Z</time>
      </trkpt>
      <trkpt lat="39.6416820679" lon="-6.4536973927">
        <ele>378.90</ele>
        <time>2020-07-15T07:10:56Z</time>
      </trkpt>
      <trkpt lat="39.6418455988" lon="-6.4538376220">
        <ele>378.90</ele>
        <time>2020-07-15T07:11:03Z</time>
      </trkpt>
      <trkpt lat="39.6420741733" lon="-6.4540549647">
        <ele>377.94</ele>
        <time>2020-07-15T07:11:13Z</time>
      </trkpt>
      <trkpt lat="39.6423056815" lon="-6.4542389475">
        <ele>377.94</ele>
        <time>2020-07-15T07:11:22Z</time>
      </trkpt>
      <trkpt lat="39.6425900795" lon="-6.4543929230">
        <ele>377.94</ele>
        <time>2020-07-15T07:11:31Z</time>
      </trkpt>
      <trkpt lat="39.6428365912" lon="-6.4544950984">
        <ele>377.94</ele>
        <time>2020-07-15T07:11:39Z</time>
      </trkpt>
      <trkpt lat="39.6430460550" lon="-6.4545829408">
        <ele>378.42</ele>
        <time>2020-07-15T07:11:47Z</time>
      </trkpt>
      <trkpt lat="39.6432206500" lon="-6.4546552766">
        <ele>378.42</ele>
        <time>2020-07-15T07:11:54Z</time>
      </trkpt>
      <trkpt lat="39.6434419323" lon="-6.4546637423">
        <ele>378.90</ele>
        <time>2020-07-15T07:12:01Z</time>
      </trkpt>
      <trkpt lat="39.6436757874" lon="-6.4546073321">
        <ele>378.90</ele>
        <time>2020-07-15T07:12:09Z</time>
      </trkpt>
      <trkpt lat="39.6438254882" lon="-6.4545712061">
        <ele>379.38</ele>
        <time>2020-07-15T07:12:17Z</time>
      </trkpt>
      <trkpt lat="39.6441380493" lon="-6.4545178134">
        <ele>380.34</ele>
        <time>2020-07-15T07:12:27Z</time>
      </trkpt>
      <trkpt lat="39.6444171667" lon="-6.4545157179">
        <ele>380.82</ele>
        <time>2020-07-15T07:12:37Z</time>
      </trkpt>
      <trkpt lat="39.6445965394" lon="-6.4545112755">
        <ele>379.86</ele>
        <time>2020-07-15T07:12:45Z</time>
      </trkpt>
      <trkpt lat="39.6447937656" lon="-6.4545015525">
        <ele>379.38</ele>
        <time>2020-07-15T07:12:54Z</time>
      </trkpt>
      <trkpt lat="39.6450100187" lon="-6.4544774126">
        <ele>379.38</ele>
        <time>2020-07-15T07:13:02Z</time>
      </trkpt>
      <trkpt lat="39.6452539321" lon="-6.4544764906">
        <ele>378.42</ele>
        <time>2020-07-15T07:13:10Z</time>
      </trkpt>
      <trkpt lat="39.6454794053" lon="-6.4545111917">
        <ele>378.42</ele>
        <time>2020-07-15T07:13:18Z</time>
      </trkpt>
      <trkpt lat="39.6456910484" lon="-6.4545190707">
        <ele>378.90</ele>
        <time>2020-07-15T07:13:27Z</time>
      </trkpt>
      <trkpt lat="39.6458404977" lon="-6.4545309730">
        <ele>378.90</ele>
        <time>2020-07-15T07:13:35Z</time>
      </trkpt>
      <trkpt lat="39.6458776295" lon="-6.4545364212">
        <ele>378.90</ele>
        <time>2020-07-15T07:13:41Z</time>
      </trkpt>
      <trkpt lat="39.6458820719" lon="-6.4545323141">
        <ele>379.38</ele>
        <time>2020-07-15T07:13:49Z</time>
      </trkpt>
      <trkpt lat="39.6458817367" lon="-6.4545325655">
        <ele>379.38</ele>
        <time>2020-07-15T07:14:03Z</time>
      </trkpt>
      <trkpt lat="39.6458896995" lon="-6.4545273688">
        <ele>379.38</ele>
        <time>2020-07-15T07:14:17Z</time>
      </trkpt>
      <trkpt lat="39.6459199581" lon="-6.4545329846">
        <ele>379.38</ele>
        <time>2020-07-15T07:14:26Z</time>
      </trkpt>
      <trkpt lat="39.6459334530" lon="-6.4545344096">
        <ele>379.38</ele>
        <time>2020-07-15T07:14:39Z</time>
      </trkpt>
      <trkpt lat="39.6459747758" lon="-6.4545277879">
        <ele>379.38</ele>
        <time>2020-07-15T07:14:46Z</time>
      </trkpt>
      <trkpt lat="39.6461094730" lon="-6.4545159694">
        <ele>379.38</ele>
        <time>2020-07-15T07:14:54Z</time>
      </trkpt>
      <trkpt lat="39.6462615207" lon="-6.4544780832">
        <ele>379.38</ele>
        <time>2020-07-15T07:15:01Z</time>
      </trkpt>
      <trkpt lat="39.6463935357" lon="-6.4544114470">
        <ele>379.86</ele>
        <time>2020-07-15T07:15:08Z</time>
      </trkpt>
      <trkpt lat="39.6463948768" lon="-6.4544495009">
        <ele>379.86</ele>
        <time>2020-07-15T07:15:12Z</time>
      </trkpt>
      <trkpt lat="39.6463794541" lon="-6.4544603974">
        <ele>379.86</ele>
        <time>2020-07-15T07:15:13Z</time>
      </trkpt>
      <trkpt lat="39.6462519653" lon="-6.4545897301">
        <ele>380.82</ele>
        <time>2020-07-15T07:15:20Z</time>
      </trkpt>
      <trkpt lat="39.6462561563" lon="-6.4546105172">
        <ele>381.30</ele>
        <time>2020-07-15T07:15:21Z</time>
      </trkpt>
      <trkpt lat="39.6462662145" lon="-6.4546217490">
        <ele>381.30</ele>
        <time>2020-07-15T07:15:22Z</time>
      </trkpt>
      <trkpt lat="39.6462870017" lon="-6.4546299633">
        <ele>381.78</ele>
        <time>2020-07-15T07:15:23Z</time>
      </trkpt>
      <trkpt lat="39.6463139914" lon="-6.4546358306">
        <ele>381.78</ele>
        <time>2020-07-15T07:15:24Z</time>
      </trkpt>
      <trkpt lat="39.6465475950" lon="-6.4546981081">
        <ele>381.30</ele>
        <time>2020-07-15T07:15:33Z</time>
      </trkpt>
      <trkpt lat="39.6467625909" lon="-6.4547803346">
        <ele>379.86</ele>
        <time>2020-07-15T07:15:40Z</time>
      </trkpt>
      <trkpt lat="39.6471022256" lon="-6.4548804983">
        <ele>378.42</ele>
        <time>2020-07-15T07:15:50Z</time>
      </trkpt>
      <trkpt lat="39.6473639924" lon="-6.4550051372">
        <ele>377.45</ele>
        <time>2020-07-15T07:15:58Z</time>
      </trkpt>
      <trkpt lat="39.6475153696" lon="-6.4550212305">
        <ele>376.49</ele>
        <time>2020-07-15T07:16:03Z</time>
      </trkpt>
      <trkpt lat="39.6477488056" lon="-6.4550203085">
        <ele>374.57</ele>
        <time>2020-07-15T07:16:11Z</time>
      </trkpt>
      <trkpt lat="39.6479316149" lon="-6.4550391678">
        <ele>372.65</ele>
        <time>2020-07-15T07:16:18Z</time>
      </trkpt>
      <trkpt lat="39.6481523942" lon="-6.4549712744">
        <ele>371.21</ele>
        <time>2020-07-15T07:16:26Z</time>
      </trkpt>
      <trkpt lat="39.6484465152" lon="-6.4547765628">
        <ele>369.76</ele>
        <time>2020-07-15T07:16:36Z</time>
      </trkpt>
      <trkpt lat="39.6486987267" lon="-6.4546723757">
        <ele>369.28</ele>
        <time>2020-07-15T07:16:44Z</time>
      </trkpt>
      <trkpt lat="39.6490312368" lon="-6.4544699527">
        <ele>368.32</ele>
        <time>2020-07-15T07:16:54Z</time>
      </trkpt>
      <trkpt lat="39.6493199933" lon="-6.4542800188">
        <ele>367.36</ele>
        <time>2020-07-15T07:17:02Z</time>
      </trkpt>
      <trkpt lat="39.6496231668" lon="-6.4540811162">
        <ele>367.36</ele>
        <time>2020-07-15T07:17:11Z</time>
      </trkpt>
      <trkpt lat="39.6498796530" lon="-6.4539175853">
        <ele>365.92</ele>
        <time>2020-07-15T07:17:20Z</time>
      </trkpt>
      <trkpt lat="39.6500824112" lon="-6.4538716525">
        <ele>365.92</ele>
        <time>2020-07-15T07:17:29Z</time>
      </trkpt>
      <trkpt lat="39.6501201298" lon="-6.4538549725">
        <ele>366.40</ele>
        <time>2020-07-15T07:17:35Z</time>
      </trkpt>
      <trkpt lat="39.6501678228" lon="-6.4538577385">
        <ele>367.84</ele>
        <time>2020-07-15T07:17:42Z</time>
      </trkpt>
      <trkpt lat="39.6502927132" lon="-6.4538398013">
        <ele>367.84</ele>
        <time>2020-07-15T07:17:51Z</time>
      </trkpt>
      <trkpt lat="39.6504165977" lon="-6.4538649470">
        <ele>368.32</ele>
        <time>2020-07-15T07:18:00Z</time>
      </trkpt>
      <trkpt lat="39.6505704895" lon="-6.4539188426">
        <ele>368.80</ele>
        <time>2020-07-15T07:18:08Z</time>
      </trkpt>
      <trkpt lat="39.6507772710" lon="-6.4539743308">
        <ele>370.24</ele>
        <time>2020-07-15T07:18:17Z</time>
      </trkpt>
      <trkpt lat="39.6510049235" lon="-6.4540407155">
        <ele>370.73</ele>
        <time>2020-07-15T07:18:27Z</time>
      </trkpt>
      <trkpt lat="39.6511361841" lon="-6.4540705550">
        <ele>370.24</ele>
        <time>2020-07-15T07:18:35Z</time>
      </trkpt>
      <trkpt lat="39.6511464939" lon="-6.4540661126">
        <ele>370.73</ele>
        <time>2020-07-15T07:18:42Z</time>
      </trkpt>
      <trkpt lat="39.6511529479" lon="-6.4540857263">
        <ele>370.73</ele>
        <time>2020-07-15T07:18:52Z</time>
      </trkpt>
      <trkpt lat="39.6511653531" lon="-6.4540792722">
        <ele>370.73</ele>
        <time>2020-07-15T07:19:00Z</time>
      </trkpt>
      <trkpt lat="39.6511574741" lon="-6.4540718962">
        <ele>370.24</ele>
        <time>2020-07-15T07:19:10Z</time>
      </trkpt>
      <trkpt lat="39.6511749923" lon="-6.4540701360">
        <ele>370.24</ele>
        <time>2020-07-15T07:19:21Z</time>
      </trkpt>
      <trkpt lat="39.6512593143" lon="-6.4540940244">
        <ele>369.76</ele>
        <time>2020-07-15T07:19:26Z</time>
      </trkpt>
      <trkpt lat="39.6514292154" lon="-6.4541480038">
        <ele>370.24</ele>
        <time>2020-07-15T07:19:34Z</time>
      </trkpt>
      <trkpt lat="39.6517250966" lon="-6.4542373549">
        <ele>369.76</ele>
        <time>2020-07-15T07:19:43Z</time>
      </trkpt>
      <trkpt lat="39.6520786453" lon="-6.4543288015">
        <ele>368.80</ele>
        <time>2020-07-15T07:19:53Z</time>
      </trkpt>
      <trkpt lat="39.6523549128" lon="-6.4544041548">
        <ele>368.80</ele>
        <time>2020-07-15T07:20:02Z</time>
      </trkpt>
      <trkpt lat="39.6525646280" lon="-6.4545357507">
        <ele>367.84</ele>
        <time>2020-07-15T07:20:09Z</time>
      </trkpt>
      <trkpt lat="39.6528388001" lon="-6.4546473976">
        <ele>366.40</ele>
        <time>2020-07-15T07:20:17Z</time>
      </trkpt>
      <trkpt lat="39.6531988867" lon="-6.4548269380">
        <ele>364.96</ele>
        <time>2020-07-15T07:20:27Z</time>
      </trkpt>
      <trkpt lat="39.6535046585" lon="-6.4548682608">
        <ele>364.00</ele>
        <time>2020-07-15T07:20:35Z</time>
      </trkpt>
      <trkpt lat="39.6537301317" lon="-6.4549280237">
        <ele>363.52</ele>
        <time>2020-07-15T07:20:42Z</time>
      </trkpt>
      <trkpt lat="39.6539422777" lon="-6.4550201409">
        <ele>364.00</ele>
        <time>2020-07-15T07:20:50Z</time>
      </trkpt>
      <trkpt lat="39.6542104147" lon="-6.4550545067">
        <ele>364.48</ele>
        <time>2020-07-15T07:20:59Z</time>
      </trkpt>
      <trkpt lat="39.6545020211" lon="-6.4550934825">
        <ele>365.44</ele>
        <time>2020-07-15T07:21:09Z</time>
      </trkpt>
      <trkpt lat="39.6548154205" lon="-6.4551363140">
        <ele>366.88</ele>
        <time>2020-07-15T07:21:20Z</time>
      </trkpt>
      <trkpt lat="39.6550599206" lon="-6.4551824983">
        <ele>365.44</ele>
        <time>2020-07-15T07:21:28Z</time>
      </trkpt>
      <trkpt lat="39.6553267166" lon="-6.4551895391">
        <ele>364.00</ele>
        <time>2020-07-15T07:21:35Z</time>
      </trkpt>
      <trkpt lat="39.6556281298" lon="-6.4551666565">
        <ele>361.11</ele>
        <time>2020-07-15T07:21:43Z</time>
      </trkpt>
      <trkpt lat="39.6557852905" lon="-6.4551940653">
        <ele>360.63</ele>
        <time>2020-07-15T07:21:50Z</time>
      </trkpt>
      <trkpt lat="39.6557861287" lon="-6.4551982563">
        <ele>360.15</ele>
        <time>2020-07-15T07:21:59Z</time>
      </trkpt>
      <trkpt lat="39.6557825245" lon="-6.4552074764">
        <ele>361.11</ele>
        <time>2020-07-15T07:22:12Z</time>
      </trkpt>
      <trkpt lat="39.6557867993" lon="-6.4551947359">
        <ele>361.11</ele>
        <time>2020-07-15T07:22:22Z</time>
      </trkpt>
      <trkpt lat="39.6558077540" lon="-6.4551990945">
        <ele>360.63</ele>
        <time>2020-07-15T07:22:29Z</time>
      </trkpt>
      <trkpt lat="39.6558090113" lon="-6.4552096557">
        <ele>362.07</ele>
        <time>2020-07-15T07:22:39Z</time>
      </trkpt>
      <trkpt lat="39.6558085922" lon="-6.4552035369">
        <ele>363.04</ele>
        <time>2020-07-15T07:23:03Z</time>
      </trkpt>
      <trkpt lat="39.6558019705" lon="-6.4552133437">
        <ele>364.00</ele>
        <time>2020-07-15T07:23:32Z</time>
      </trkpt>
      <trkpt lat="39.6558060776" lon="-6.4552073926">
        <ele>363.52</ele>
        <time>2020-07-15T07:23:44Z</time>
      </trkpt>
      <trkpt lat="39.6558012161" lon="-6.4551988430">
        <ele>364.48</ele>
        <time>2020-07-15T07:24:13Z</time>
      </trkpt>
      <trkpt lat="39.6557957679" lon="-6.4551970828">
        <ele>364.48</ele>
        <time>2020-07-15T07:24:38Z</time>
      </trkpt>
      <trkpt lat="39.6557974443" lon="-6.4551963285">
        <ele>364.00</ele>
        <time>2020-07-15T07:24:49Z</time>
      </trkpt>
      <trkpt lat="39.6558729652" lon="-6.4552304428">
        <ele>363.52</ele>
        <time>2020-07-15T07:24:55Z</time>
      </trkpt>
      <trkpt lat="39.6560793277" lon="-6.4553307742">
        <ele>363.04</ele>
        <time>2020-07-15T07:25:04Z</time>
      </trkpt>
      <trkpt lat="39.6561588719" lon="-6.4553721808">
        <ele>363.04</ele>
        <time>2020-07-15T07:25:10Z</time>
      </trkpt>
      <trkpt lat="39.6561727021" lon="-6.4553783834">
        <ele>362.55</ele>
        <time>2020-07-15T07:25:11Z</time>
      </trkpt>
      <trkpt lat="39.6561911423" lon="-6.4553865138">
        <ele>362.55</ele>
        <time>2020-07-15T07:25:12Z</time>
      </trkpt>
      <trkpt lat="39.6562113427" lon="-6.4553968236">
        <ele>362.55</ele>
        <time>2020-07-15T07:25:13Z</time>
      </trkpt>
      <trkpt lat="39.6562339738" lon="-6.4554094803">
        <ele>362.55</ele>
        <time>2020-07-15T07:25:14Z</time>
      </trkpt>
      <trkpt lat="39.6562561020" lon="-6.4554215502">
        <ele>362.07</ele>
        <time>2020-07-15T07:25:15Z</time>
      </trkpt>
      <trkpt lat="39.6564020310" lon="-6.4555159304">
        <ele>361.59</ele>
        <time>2020-07-15T07:25:23Z</time>
      </trkpt>
      <trkpt lat="39.6565131750" lon="-6.4556080475">
        <ele>361.11</ele>
        <time>2020-07-15T07:25:31Z</time>
      </trkpt>
      <trkpt lat="39.6566534042" lon="-6.4557129890">
        <ele>360.63</ele>
        <time>2020-07-15T07:25:40Z</time>
      </trkpt>
      <trkpt lat="39.6568195336" lon="-6.4558414835">
        <ele>360.63</ele>
        <time>2020-07-15T07:25:48Z</time>
      </trkpt>
      <trkpt lat="39.6570718288" lon="-6.4560532942">
        <ele>360.15</ele>
        <time>2020-07-15T07:26:00Z</time>
      </trkpt>
      <trkpt lat="39.6573093720" lon="-6.4562479220">
        <ele>360.63</ele>
        <time>2020-07-15T07:26:11Z</time>
      </trkpt>
      <trkpt lat="39.6575381979" lon="-6.4564267080">
        <ele>361.59</ele>
        <time>2020-07-15T07:26:21Z</time>
      </trkpt>
      <trkpt lat="39.6577374358" lon="-6.4565687813">
        <ele>362.07</ele>
        <time>2020-07-15T07:26:30Z</time>
      </trkpt>
      <trkpt lat="39.6579110250" lon="-6.4567130338">
        <ele>361.11</ele>
        <time>2020-07-15T07:26:37Z</time>
      </trkpt>
      <trkpt lat="39.6581598837" lon="-6.4569929056">
        <ele>361.59</ele>
        <time>2020-07-15T07:26:47Z</time>
      </trkpt>
      <trkpt lat="39.6583173797" lon="-6.4572330471">
        <ele>362.55</ele>
        <time>2020-07-15T07:26:55Z</time>
      </trkpt>
      <trkpt lat="39.6584776416" lon="-6.4573993441">
        <ele>361.59</ele>
        <time>2020-07-15T07:27:03Z</time>
      </trkpt>
      <trkpt lat="39.6586555056" lon="-6.4575824048">
        <ele>362.55</ele>
        <time>2020-07-15T07:27:11Z</time>
      </trkpt>
      <trkpt lat="39.6587524004" lon="-6.4577063732">
        <ele>363.52</ele>
        <time>2020-07-15T07:27:17Z</time>
      </trkpt>
      <trkpt lat="39.6588539891" lon="-6.4578989055">
        <ele>364.96</ele>
        <time>2020-07-15T07:27:25Z</time>
      </trkpt>
      <trkpt lat="39.6589254867" lon="-6.4580384642">
        <ele>364.96</ele>
        <time>2020-07-15T07:27:30Z</time>
      </trkpt>
      <trkpt lat="39.6589983255" lon="-6.4581497759">
        <ele>364.48</ele>
        <time>2020-07-15T07:27:33Z</time>
      </trkpt>
      <trkpt lat="39.6592626907" lon="-6.4583936892">
        <ele>362.55</ele>
        <time>2020-07-15T07:27:41Z</time>
      </trkpt>
      <trkpt lat="39.6595956199" lon="-6.4585875627">
        <ele>361.11</ele>
        <time>2020-07-15T07:27:49Z</time>
      </trkpt>
      <trkpt lat="39.6598821972" lon="-6.4587570447">
        <ele>359.67</ele>
        <time>2020-07-15T07:27:57Z</time>
      </trkpt>
      <trkpt lat="39.6600839496" lon="-6.4589425363">
        <ele>358.71</ele>
        <time>2020-07-15T07:28:04Z</time>
      </trkpt>
      <trkpt lat="39.6603104286" lon="-6.4592212345">
        <ele>356.79</ele>
        <time>2020-07-15T07:28:12Z</time>
      </trkpt>
      <trkpt lat="39.6605122648" lon="-6.4594546705">
        <ele>355.34</ele>
        <time>2020-07-15T07:28:20Z</time>
      </trkpt>
      <trkpt lat="39.6607138496" lon="-6.4596516453">
        <ele>353.42</ele>
        <time>2020-07-15T07:28:28Z</time>
      </trkpt>
      <trkpt lat="39.6608658135" lon="-6.4598138351">
        <ele>352.46</ele>
        <time>2020-07-15T07:28:35Z</time>
      </trkpt>
      <trkpt lat="39.6609987505" lon="-6.4599905256">
        <ele>352.46</ele>
        <time>2020-07-15T07:28:44Z</time>
      </trkpt>
      <trkpt lat="39.6610946395" lon="-6.4601700660">
        <ele>351.50</ele>
        <time>2020-07-15T07:28:51Z</time>
      </trkpt>
      <trkpt lat="39.6611992456" lon="-6.4603559766">
        <ele>351.02</ele>
        <time>2020-07-15T07:28:58Z</time>
      </trkpt>
      <trkpt lat="39.6613495331" lon="-6.4605704695">
        <ele>350.54</ele>
        <time>2020-07-15T07:29:06Z</time>
      </trkpt>
      <trkpt lat="39.6615595836" lon="-6.4608267043">
        <ele>350.06</ele>
        <time>2020-07-15T07:29:15Z</time>
      </trkpt>
      <trkpt lat="39.6617744118" lon="-6.4609756507">
        <ele>350.06</ele>
        <time>2020-07-15T07:29:23Z</time>
      </trkpt>
      <trkpt lat="39.6620531101" lon="-6.4610380959">
        <ele>350.54</ele>
        <time>2020-07-15T07:29:32Z</time>
      </trkpt>
      <trkpt lat="39.6622895636" lon="-6.4611041453">
        <ele>351.50</ele>
        <time>2020-07-15T07:29:40Z</time>
      </trkpt>
      <trkpt lat="39.6625236701" lon="-6.4611971844">
        <ele>351.50</ele>
        <time>2020-07-15T07:29:49Z</time>
      </trkpt>
      <trkpt lat="39.6627706848" lon="-6.4612147864">
        <ele>351.50</ele>
        <time>2020-07-15T07:29:57Z</time>
      </trkpt>
      <trkpt lat="39.6630551666" lon="-6.4612389263">
        <ele>351.02</ele>
        <time>2020-07-15T07:30:06Z</time>
      </trkpt>
      <trkpt lat="39.6632957272" lon="-6.4612493198">
        <ele>351.02</ele>
        <time>2020-07-15T07:30:14Z</time>
      </trkpt>
      <trkpt lat="39.6634834819" lon="-6.4612507448">
        <ele>350.54</ele>
        <time>2020-07-15T07:30:20Z</time>
      </trkpt>
      <trkpt lat="39.6637578215" lon="-6.4612787403">
        <ele>350.54</ele>
        <time>2020-07-15T07:30:29Z</time>
      </trkpt>
      <trkpt lat="39.6639303211" lon="-6.4612934086">
        <ele>350.54</ele>
        <time>2020-07-15T07:30:35Z</time>
      </trkpt>
      <trkpt lat="39.6641242784" lon="-6.4613110106">
        <ele>350.54</ele>
        <time>2020-07-15T07:30:42Z</time>
      </trkpt>
      <trkpt lat="39.6644145437" lon="-6.4613971766">
        <ele>350.54</ele>
        <time>2020-07-15T07:30:52Z</time>
      </trkpt>
      <trkpt lat="39.6646421961" lon="-6.4615452848">
        <ele>350.06</ele>
        <time>2020-07-15T07:30:59Z</time>
      </trkpt>
      <trkpt lat="39.6649273485" lon="-6.4617916290">
        <ele>349.58</ele>
        <time>2020-07-15T07:31:08Z</time>
      </trkpt>
      <trkpt lat="39.6650982555" lon="-6.4619439282">
        <ele>349.10</ele>
        <time>2020-07-15T07:31:14Z</time>
      </trkpt>
      <trkpt lat="39.6652309410" lon="-6.4620469417">
        <ele>349.58</ele>
        <time>2020-07-15T07:31:21Z</time>
      </trkpt>
      <trkpt lat="39.6654212102" lon="-6.4621958043">
        <ele>350.06</ele>
        <time>2020-07-15T07:31:29Z</time>
      </trkpt>
      <trkpt lat="39.6656701528" lon="-6.4623475168">
        <ele>351.02</ele>
        <time>2020-07-15T07:31:38Z</time>
      </trkpt>
      <trkpt lat="39.6658237092" lon="-6.4624933619">
        <ele>350.54</ele>
        <time>2020-07-15T07:31:45Z</time>
      </trkpt>
      <trkpt lat="39.6659880783" lon="-6.4626570605">
        <ele>349.58</ele>
        <time>2020-07-15T07:31:52Z</time>
      </trkpt>
      <trkpt lat="39.6661272179" lon="-6.4627466630">
        <ele>349.10</ele>
        <time>2020-07-15T07:31:59Z</time>
      </trkpt>
      <trkpt lat="39.6663492545" lon="-6.4628485870">
        <ele>348.13</ele>
        <time>2020-07-15T07:32:05Z</time>
      </trkpt>
      <trkpt lat="39.6666369215" lon="-6.4629844576">
        <ele>347.65</ele>
        <time>2020-07-15T07:32:14Z</time>
      </trkpt>
      <trkpt lat="39.6668478101" lon="-6.4630317315">
        <ele>346.69</ele>
        <time>2020-07-15T07:32:21Z</time>
      </trkpt>
      <trkpt lat="39.6671011951" lon="-6.4631541912">
        <ele>346.69</ele>
        <time>2020-07-15T07:32:29Z</time>
      </trkpt>
      <trkpt lat="39.6674156003" lon="-6.4633570332">
        <ele>347.65</ele>
        <time>2020-07-15T07:32:40Z</time>
      </trkpt>
      <trkpt lat="39.6675469447" lon="-6.4634908922">
        <ele>348.13</ele>
        <time>2020-07-15T07:32:47Z</time>
      </trkpt>
      <trkpt lat="39.6677296702" lon="-6.4636822511">
        <ele>349.10</ele>
        <time>2020-07-15T07:32:56Z</time>
      </trkpt>
      <trkpt lat="39.6678648703" lon="-6.4639425091">
        <ele>349.58</ele>
        <time>2020-07-15T07:33:05Z</time>
      </trkpt>
      <trkpt lat="39.6679773554" lon="-6.4641077165">
        <ele>351.02</ele>
        <time>2020-07-15T07:33:13Z</time>
      </trkpt>
      <trkpt lat="39.6681180876" lon="-6.4642658830">
        <ele>351.50</ele>
        <time>2020-07-15T07:33:22Z</time>
      </trkpt>
      <trkpt lat="39.6682436485" lon="-6.4643744286">
        <ele>351.50</ele>
        <time>2020-07-15T07:33:30Z</time>
      </trkpt>
      <trkpt lat="39.6683097817" lon="-6.4644512068">
        <ele>350.54</ele>
        <time>2020-07-15T07:33:37Z</time>
      </trkpt>
      <trkpt lat="39.6684366837" lon="-6.4645049348">
        <ele>349.10</ele>
        <time>2020-07-15T07:33:43Z</time>
      </trkpt>
      <trkpt lat="39.6686168108" lon="-6.4645197708">
        <ele>348.13</ele>
        <time>2020-07-15T07:33:50Z</time>
      </trkpt>
      <trkpt lat="39.6688594669" lon="-6.4645773545">
        <ele>347.17</ele>
        <time>2020-07-15T07:33:58Z</time>
      </trkpt>
      <trkpt lat="39.6690993570" lon="-6.4647182543">
        <ele>346.21</ele>
        <time>2020-07-15T07:34:07Z</time>
      </trkpt>
      <trkpt lat="39.6692441124" lon="-6.4649315737">
        <ele>344.29</ele>
        <time>2020-07-15T07:34:15Z</time>
      </trkpt>
      <trkpt lat="39.6693118382" lon="-6.4650211763">
        <ele>343.81</ele>
        <time>2020-07-15T07:34:20Z</time>
      </trkpt>
      <trkpt lat="39.6693292726" lon="-6.4650344197">
        <ele>343.33</ele>
        <time>2020-07-15T07:34:22Z</time>
      </trkpt>
      <trkpt lat="39.6693367325" lon="-6.4650469087">
        <ele>343.33</ele>
        <time>2020-07-15T07:34:23Z</time>
      </trkpt>
      <trkpt lat="39.6693481319" lon="-6.4650620800">
        <ele>342.85</ele>
        <time>2020-07-15T07:34:24Z</time>
      </trkpt>
      <trkpt lat="39.6694995090" lon="-6.4651833661">
        <ele>342.37</ele>
        <time>2020-07-15T07:34:32Z</time>
      </trkpt>
      <trkpt lat="39.6697608568" lon="-6.4653275348">
        <ele>341.89</ele>
        <time>2020-07-15T07:34:42Z</time>
      </trkpt>
      <trkpt lat="39.6699826419" lon="-6.4654431213">
        <ele>341.41</ele>
        <time>2020-07-15T07:34:50Z</time>
      </trkpt>
      <trkpt lat="39.6702370327" lon="-6.4655168820">
        <ele>341.41</ele>
        <time>2020-07-15T07:34:58Z</time>
      </trkpt>
      <trkpt lat="39.6703791060" lon="-6.4655707777">
        <ele>340.92</ele>
        <time>2020-07-15T07:35:02Z</time>
      </trkpt>
      <trkpt lat="39.6707492508" lon="-6.4657552633">
        <ele>339.48</ele>
        <time>2020-07-15T07:35:11Z</time>
      </trkpt>
      <trkpt lat="39.6710050665" lon="-6.4658651501">
        <ele>339.96</ele>
        <time>2020-07-15T07:35:19Z</time>
      </trkpt>
      <trkpt lat="39.6712273546" lon="-6.4659843408">
        <ele>340.44</ele>
        <time>2020-07-15T07:35:27Z</time>
      </trkpt>
      <trkpt lat="39.6714806557" lon="-6.4661296830">
        <ele>339.96</ele>
        <time>2020-07-15T07:35:34Z</time>
      </trkpt>
      <trkpt lat="39.6717204619" lon="-6.4662378933">
        <ele>339.96</ele>
        <time>2020-07-15T07:35:42Z</time>
      </trkpt>
      <trkpt lat="39.6720132418" lon="-6.4663634542">
        <ele>339.96</ele>
        <time>2020-07-15T07:35:51Z</time>
      </trkpt>
      <trkpt lat="39.6723189298" lon="-6.4665055275">
        <ele>339.96</ele>
        <time>2020-07-15T07:36:01Z</time>
      </trkpt>
      <trkpt lat="39.6726480871" lon="-6.4666688908">
        <ele>341.89</ele>
        <time>2020-07-15T07:36:13Z</time>
      </trkpt>
      <trkpt lat="39.6728202514" lon="-6.4667558949">
        <ele>342.85</ele>
        <time>2020-07-15T07:36:20Z</time>
      </trkpt>
      <trkpt lat="39.6730787493" lon="-6.4668736607">
        <ele>343.81</ele>
        <time>2020-07-15T07:36:30Z</time>
      </trkpt>
      <trkpt lat="39.6732565295" lon="-6.4669778477">
        <ele>343.81</ele>
        <time>2020-07-15T07:36:38Z</time>
      </trkpt>
      <trkpt lat="39.6733713616" lon="-6.4670640975">
        <ele>343.33</ele>
        <time>2020-07-15T07:36:45Z</time>
      </trkpt>
      <trkpt lat="39.6733644884" lon="-6.4670656063">
        <ele>342.85</ele>
        <time>2020-07-15T07:36:58Z</time>
      </trkpt>
      <trkpt lat="39.6733680926" lon="-6.4670623373">
        <ele>342.85</ele>
        <time>2020-07-15T07:37:11Z</time>
      </trkpt>
      <trkpt lat="39.6734104212" lon="-6.4671022352">
        <ele>342.37</ele>
        <time>2020-07-15T07:37:19Z</time>
      </trkpt>
      <trkpt lat="39.6735802386" lon="-6.4672475774">
        <ele>339.96</ele>
        <time>2020-07-15T07:37:26Z</time>
      </trkpt>
      <trkpt lat="39.6738367248" lon="-6.4673941769">
        <ele>337.56</ele>
        <time>2020-07-15T07:37:34Z</time>
      </trkpt>
      <trkpt lat="39.6740628686" lon="-6.4674914069">
        <ele>337.56</ele>
        <time>2020-07-15T07:37:42Z</time>
      </trkpt>
      <trkpt lat="39.6741196979" lon="-6.4675324783">
        <ele>338.04</ele>
        <time>2020-07-15T07:37:45Z</time>
      </trkpt>
      <trkpt lat="39.6741340309" lon="-6.4675457217">
        <ele>338.04</ele>
        <time>2020-07-15T07:37:46Z</time>
      </trkpt>
      <trkpt lat="39.6741483640" lon="-6.4675558638">
        <ele>338.04</ele>
        <time>2020-07-15T07:37:47Z</time>
      </trkpt>
      <trkpt lat="39.6741614398" lon="-6.4675608929">
        <ele>338.04</ele>
        <time>2020-07-15T07:37:48Z</time>
      </trkpt>
      <trkpt lat="39.6741822269" lon="-6.4675759804">
        <ele>338.04</ele>
        <time>2020-07-15T07:37:54Z</time>
      </trkpt>
      <trkpt lat="39.6742023434" lon="-6.4675795846">
        <ele>338.04</ele>
        <time>2020-07-15T07:38:10Z</time>
      </trkpt>
      <trkpt lat="39.6743698977" lon="-6.4675703645">
        <ele>336.12</ele>
        <time>2020-07-15T07:38:17Z</time>
      </trkpt>
      <trkpt lat="39.6746007353" lon="-6.4674674347">
        <ele>333.23</ele>
        <time>2020-07-15T07:38:24Z</time>
      </trkpt>
      <trkpt lat="39.6749562956" lon="-6.4673136268">
        <ele>328.91</ele>
        <time>2020-07-15T07:38:34Z</time>
      </trkpt>
      <trkpt lat="39.6752001252" lon="-6.4671774209">
        <ele>326.50</ele>
        <time>2020-07-15T07:38:41Z</time>
      </trkpt>
      <trkpt lat="39.6754212398" lon="-6.4670118783">
        <ele>325.54</ele>
        <time>2020-07-15T07:38:48Z</time>
      </trkpt>
      <trkpt lat="39.6755747125" lon="-6.4668888319">
        <ele>326.02</ele>
        <time>2020-07-15T07:38:54Z</time>
      </trkpt>
      <trkpt lat="39.6756733675" lon="-6.4669489302">
        <ele>326.50</ele>
        <time>2020-07-15T07:38:59Z</time>
      </trkpt>
      <trkpt lat="39.6757549234" lon="-6.4671372715">
        <ele>326.99</ele>
        <time>2020-07-15T07:39:06Z</time>
      </trkpt>
      <trkpt lat="39.6758635528" lon="-6.4674448874">
        <ele>327.95</ele>
        <time>2020-07-15T07:39:16Z</time>
      </trkpt>
      <trkpt lat="39.6758522373" lon="-6.4676302951">
        <ele>328.91</ele>
        <time>2020-07-15T07:39:22Z</time>
      </trkpt>
      <trkpt lat="39.6757955756" lon="-6.4677227475">
        <ele>330.35</ele>
        <time>2020-07-15T07:39:28Z</time>
      </trkpt>
      <trkpt lat="39.6756141074" lon="-6.4678161219">
        <ele>332.27</ele>
        <time>2020-07-15T07:39:38Z</time>
      </trkpt>
      <trkpt lat="39.6754490677" lon="-6.4679082390">
        <ele>334.20</ele>
        <time>2020-07-15T07:39:47Z</time>
      </trkpt>
      <trkpt lat="39.6753047314" lon="-6.4680238254">
        <ele>335.64</ele>
        <time>2020-07-15T07:39:57Z</time>
      </trkpt>
      <trkpt lat="39.6751980297" lon="-6.4682122506">
        <ele>337.56</ele>
        <time>2020-07-15T07:40:07Z</time>
      </trkpt>
      <trkpt lat="39.6751963533" lon="-6.4683229756">
        <ele>338.52</ele>
        <time>2020-07-15T07:40:12Z</time>
      </trkpt>
      <trkpt lat="39.6752903145" lon="-6.4684943855">
        <ele>339.00</ele>
        <time>2020-07-15T07:40:21Z</time>
      </trkpt>
      <trkpt lat="39.6754225809" lon="-6.4686220419">
        <ele>338.52</ele>
        <time>2020-07-15T07:40:30Z</time>
      </trkpt>
      <trkpt lat="39.6754677594" lon="-6.4686976466">
        <ele>337.56</ele>
        <time>2020-07-15T07:40:35Z</time>
      </trkpt>
      <trkpt lat="39.6754685976" lon="-6.4687121473">
        <ele>337.56</ele>
        <time>2020-07-15T07:40:36Z</time>
      </trkpt>
      <trkpt lat="39.6754690167" lon="-6.4687292464">
        <ele>337.56</ele>
        <time>2020-07-15T07:40:37Z</time>
      </trkpt>
      <trkpt lat="39.6754706092" lon="-6.4687473513">
        <ele>337.56</ele>
        <time>2020-07-15T07:40:38Z</time>
      </trkpt>
      <trkpt lat="39.6754714474" lon="-6.4687678870">
        <ele>337.08</ele>
        <time>2020-07-15T07:40:39Z</time>
      </trkpt>
      <trkpt lat="39.6754706930" lon="-6.4687885065">
        <ele>337.08</ele>
        <time>2020-07-15T07:40:40Z</time>
      </trkpt>
      <trkpt lat="39.6754654124" lon="-6.4688115567">
        <ele>337.08</ele>
        <time>2020-07-15T07:40:41Z</time>
      </trkpt>
      <trkpt lat="39.6754546836" lon="-6.4688403904">
        <ele>337.08</ele>
        <time>2020-07-15T07:40:42Z</time>
      </trkpt>
      <trkpt lat="39.6754379198" lon="-6.4688721579">
        <ele>336.60</ele>
        <time>2020-07-15T07:40:43Z</time>
      </trkpt>
      <trkpt lat="39.6754164621" lon="-6.4689053502">
        <ele>336.60</ele>
        <time>2020-07-15T07:40:44Z</time>
      </trkpt>
      <trkpt lat="39.6753892209" lon="-6.4689405542">
        <ele>336.12</ele>
        <time>2020-07-15T07:40:45Z</time>
      </trkpt>
      <trkpt lat="39.6753551066" lon="-6.4689790271">
        <ele>336.12</ele>
        <time>2020-07-15T07:40:46Z</time>
      </trkpt>
      <trkpt lat="39.6751187369" lon="-6.4692695439">
        <ele>334.20</ele>
        <time>2020-07-15T07:40:52Z</time>
      </trkpt>
      <trkpt lat="39.6747986320" lon="-6.4695978630">
        <ele>331.79</ele>
        <time>2020-07-15T07:40:58Z</time>
      </trkpt>
      <trkpt lat="39.6746949479" lon="-6.4696771558">
        <ele>332.27</ele>
        <time>2020-07-15T07:41:00Z</time>
      </trkpt>
      <trkpt lat="39.6745341830" lon="-6.4698262699">
        <ele>333.23</ele>
        <time>2020-07-15T07:41:05Z</time>
      </trkpt>
      <trkpt lat="39.6744099632" lon="-6.4699112624">
        <ele>332.75</ele>
        <time>2020-07-15T07:41:11Z</time>
      </trkpt>
      <trkpt lat="39.6742122341" lon="-6.4700827561">
        <ele>331.79</ele>
        <time>2020-07-15T07:41:18Z</time>
      </trkpt>
      <trkpt lat="39.6741856635" lon="-6.4701202232">
        <ele>331.79</ele>
        <time>2020-07-15T07:41:19Z</time>
      </trkpt>
      <trkpt lat="39.6741595119" lon="-6.4701643120">
        <ele>331.31</ele>
        <time>2020-07-15T07:41:20Z</time>
      </trkpt>
      <trkpt lat="39.6741384733" lon="-6.4702086523">
        <ele>330.83</ele>
        <time>2020-07-15T07:41:21Z</time>
      </trkpt>
      <trkpt lat="39.6740164328" lon="-6.4705465268">
        <ele>328.91</ele>
        <time>2020-07-15T07:41:29Z</time>
      </trkpt>
      <trkpt lat="39.6738570929" lon="-6.4708654583">
        <ele>326.02</ele>
        <time>2020-07-15T07:41:37Z</time>
      </trkpt>
      <trkpt lat="39.6737335436" lon="-6.4709512889">
        <ele>325.54</ele>
        <time>2020-07-15T07:41:42Z</time>
      </trkpt>
      <trkpt lat="39.6736493893" lon="-6.4709907677">
        <ele>326.02</ele>
        <time>2020-07-15T07:41:48Z</time>
      </trkpt>
      <trkpt lat="39.6736457013" lon="-6.4710056875">
        <ele>326.02</ele>
        <time>2020-07-15T07:41:49Z</time>
      </trkpt>
      <trkpt lat="39.6736462042" lon="-6.4710204396">
        <ele>325.54</ele>
        <time>2020-07-15T07:41:50Z</time>
      </trkpt>
      <trkpt lat="39.6736462042" lon="-6.4710367844">
        <ele>325.54</ele>
        <time>2020-07-15T07:41:56Z</time>
      </trkpt>
      <trkpt lat="39.6736426838" lon="-6.4710390475">
        <ele>325.54</ele>
        <time>2020-07-15T07:42:13Z</time>
      </trkpt>
      <trkpt lat="39.6736422647" lon="-6.4710351080">
        <ele>326.02</ele>
        <time>2020-07-15T07:42:36Z</time>
      </trkpt>
      <trkpt lat="39.6736441925" lon="-6.4710398018">
        <ele>326.02</ele>
        <time>2020-07-15T07:43:04Z</time>
      </trkpt>
      <trkpt lat="39.6736440249" lon="-6.4710432384">
        <ele>325.06</ele>
        <time>2020-07-15T07:43:22Z</time>
      </trkpt>
      <trkpt lat="39.6736410074" lon="-6.4710417297">
        <ele>325.06</ele>
        <time>2020-07-15T07:43:44Z</time>
      </trkpt>
      <trkpt lat="39.6736395825" lon="-6.4710429870">
        <ele>324.10</ele>
        <time>2020-07-15T07:44:00Z</time>
      </trkpt>
      <trkpt lat="39.6736443602" lon="-6.4710434899">
        <ele>324.58</ele>
        <time>2020-07-15T07:44:17Z</time>
      </trkpt>
      <trkpt lat="39.6736470424" lon="-6.4710379578">
        <ele>324.10</ele>
        <time>2020-07-15T07:44:30Z</time>
      </trkpt>
      <trkpt lat="39.6736480482" lon="-6.4710408915">
        <ele>323.14</ele>
        <time>2020-07-15T07:44:45Z</time>
      </trkpt>
      <trkpt lat="39.6736474615" lon="-6.4710412268">
        <ele>322.66</ele>
        <time>2020-07-15T07:45:03Z</time>
      </trkpt>
      <trkpt lat="39.6736512333" lon="-6.4710404724">
        <ele>323.14</ele>
        <time>2020-07-15T07:45:18Z</time>
      </trkpt>
      <trkpt lat="39.6736554243" lon="-6.4710280672">
        <ele>324.10</ele>
        <time>2020-07-15T07:45:40Z</time>
      </trkpt>
      <trkpt lat="39.6736563463" lon="-6.4710296597">
        <ele>325.06</ele>
        <time>2020-07-15T07:45:55Z</time>
      </trkpt>
      <trkpt lat="39.6736571006" lon="-6.4710275643">
        <ele>325.54</ele>
        <time>2020-07-15T07:46:13Z</time>
      </trkpt>
      <trkpt lat="39.6736587770" lon="-6.4710307494">
        <ele>325.54</ele>
        <time>2020-07-15T07:46:30Z</time>
      </trkpt>
      <trkpt lat="39.6736576874" lon="-6.4710335992">
        <ele>326.02</ele>
        <time>2020-07-15T07:46:44Z</time>
      </trkpt>
      <trkpt lat="39.6736581903" lon="-6.4710335154">
        <ele>326.02</ele>
        <time>2020-07-15T07:47:03Z</time>
      </trkpt>
      <trkpt lat="39.6736609563" lon="-6.4710383769">
        <ele>325.06</ele>
        <time>2020-07-15T07:47:19Z</time>
      </trkpt>
      <trkpt lat="39.6736609563" lon="-6.4710375387">
        <ele>324.58</ele>
        <time>2020-07-15T07:47:34Z</time>
      </trkpt>
      <trkpt lat="39.6736596990" lon="-6.4710304979">
        <ele>324.10</ele>
        <time>2020-07-15T07:47:53Z</time>
      </trkpt>
      <trkpt lat="39.6736420970" lon="-6.4710356947">
        <ele>324.58</ele>
        <time>2020-07-15T07:48:00Z</time>
      </trkpt>
      <trkpt lat="39.6736264229" lon="-6.4710389636">
        <ele>324.58</ele>
        <time>2020-07-15T07:48:02Z</time>
      </trkpt>
      <trkpt lat="39.6735127643" lon="-6.4710262232">
        <ele>325.54</ele>
        <time>2020-07-15T07:48:09Z</time>
      </trkpt>
      <trkpt lat="39.6733424440" lon="-6.4709009137">
        <ele>326.02</ele>
        <time>2020-07-15T07:48:18Z</time>
      </trkpt>
      <trkpt lat="39.6731123608" lon="-6.4707427472">
        <ele>323.62</ele>
        <time>2020-07-15T07:48:24Z</time>
      </trkpt>
      <trkpt lat="39.6729765739" lon="-6.4706812240">
        <ele>323.14</ele>
        <time>2020-07-15T07:48:27Z</time>
      </trkpt>
      <trkpt lat="39.6729425434" lon="-6.4706733450">
        <ele>323.14</ele>
        <time>2020-07-15T07:48:28Z</time>
      </trkpt>
      <trkpt lat="39.6729107760" lon="-6.4706709981">
        <ele>323.14</ele>
        <time>2020-07-15T07:48:29Z</time>
      </trkpt>
      <trkpt lat="39.6728787571" lon="-6.4706731774">
        <ele>322.66</ele>
        <time>2020-07-15T07:48:30Z</time>
      </trkpt>
      <trkpt lat="39.6728433017" lon="-6.4706819784">
        <ele>322.66</ele>
        <time>2020-07-15T07:48:31Z</time>
      </trkpt>
      <trkpt lat="39.6728062537" lon="-6.4706998318">
        <ele>322.66</ele>
        <time>2020-07-15T07:48:32Z</time>
      </trkpt>
      <trkpt lat="39.6727664396" lon="-6.4707271568">
        <ele>322.18</ele>
        <time>2020-07-15T07:48:33Z</time>
      </trkpt>
      <trkpt lat="39.6727296431" lon="-6.4707569964">
        <ele>322.18</ele>
        <time>2020-07-15T07:48:34Z</time>
      </trkpt>
      <trkpt lat="39.6726168226" lon="-6.4708657097">
        <ele>321.22</ele>
        <time>2020-07-15T07:48:38Z</time>
      </trkpt>
      <trkpt lat="39.6726100333" lon="-6.4709020872">
        <ele>321.22</ele>
        <time>2020-07-15T07:48:39Z</time>
      </trkpt>
      <trkpt lat="39.6726193372" lon="-6.4709356148">
        <ele>321.22</ele>
        <time>2020-07-15T07:48:40Z</time>
      </trkpt>
      <trkpt lat="39.6726385318" lon="-6.4709610958">
        <ele>321.22</ele>
        <time>2020-07-15T07:48:41Z</time>
      </trkpt>
      <trkpt lat="39.6726575587" lon="-6.4709754288">
        <ele>321.22</ele>
        <time>2020-07-15T07:48:42Z</time>
      </trkpt>
      <trkpt lat="39.6726792678" lon="-6.4709900972">
        <ele>320.74</ele>
        <time>2020-07-15T07:48:43Z</time>
      </trkpt>
      <trkpt lat="39.6727071796" lon="-6.4710086212">
        <ele>320.74</ele>
        <time>2020-07-15T07:48:44Z</time>
      </trkpt>
      <trkpt lat="39.6729568765" lon="-6.4711708110">
        <ele>320.26</ele>
        <time>2020-07-15T07:48:51Z</time>
      </trkpt>
      <trkpt lat="39.6733827610" lon="-6.4714654349">
        <ele>318.33</ele>
        <time>2020-07-15T07:49:00Z</time>
      </trkpt>
      <trkpt lat="39.6738976613" lon="-6.4718287066">
        <ele>316.89</ele>
        <time>2020-07-15T07:49:10Z</time>
      </trkpt>
      <trkpt lat="39.6742963884" lon="-6.4722001925">
        <ele>315.45</ele>
        <time>2020-07-15T07:49:18Z</time>
      </trkpt>
      <trkpt lat="39.6746379510" lon="-6.4727063756">
        <ele>313.53</ele>
        <time>2020-07-15T07:49:26Z</time>
      </trkpt>
      <trkpt lat="39.6749729756" lon="-6.4734377805">
        <ele>311.12</ele>
        <time>2020-07-15T07:49:35Z</time>
      </trkpt>
      <trkpt lat="39.6752888896" lon="-6.4739139564">
        <ele>309.20</ele>
        <time>2020-07-15T07:49:41Z</time>
      </trkpt>
      <trkpt lat="39.6753559448" lon="-6.4739738870">
        <ele>308.72</ele>
        <time>2020-07-15T07:49:42Z</time>
      </trkpt>
      <trkpt lat="39.6755079087" lon="-6.4740761463">
        <ele>307.76</ele>
        <time>2020-07-15T07:49:44Z</time>
      </trkpt>
      <trkpt lat="39.6755802445" lon="-6.4741116855">
        <ele>307.28</ele>
        <time>2020-07-15T07:49:45Z</time>
      </trkpt>
      <trkpt lat="39.6756637283" lon="-6.4741418604">
        <ele>306.80</ele>
        <time>2020-07-15T07:49:46Z</time>
      </trkpt>
      <trkpt lat="39.6757420991" lon="-6.4741628151">
        <ele>306.80</ele>
        <time>2020-07-15T07:49:47Z</time>
      </trkpt>
      <trkpt lat="39.6758202184" lon="-6.4741763938">
        <ele>306.32</ele>
        <time>2020-07-15T07:49:48Z</time>
      </trkpt>
      <trkpt lat="39.6758956555" lon="-6.4741817582">
        <ele>305.84</ele>
        <time>2020-07-15T07:49:49Z</time>
      </trkpt>
      <trkpt lat="39.6759751160" lon="-6.4741815906">
        <ele>305.36</ele>
        <time>2020-07-15T07:49:50Z</time>
      </trkpt>
      <trkpt lat="39.6760578454" lon="-6.4741742983">
        <ele>304.88</ele>
        <time>2020-07-15T07:49:51Z</time>
      </trkpt>
      <trkpt lat="39.6761288401" lon="-6.4741587918">
        <ele>304.39</ele>
        <time>2020-07-15T07:49:52Z</time>
      </trkpt>
      <trkpt lat="39.6761973202" lon="-6.4741377532">
        <ele>304.39</ele>
        <time>2020-07-15T07:49:53Z</time>
      </trkpt>
      <trkpt lat="39.6767580695" lon="-6.4739489928">
        <ele>301.99</ele>
        <time>2020-07-15T07:50:02Z</time>
      </trkpt>
      <trkpt lat="39.6773387678" lon="-6.4738260303">
        <ele>300.55</ele>
        <time>2020-07-15T07:50:12Z</time>
      </trkpt>
      <trkpt lat="39.6777383331" lon="-6.4739577938">
        <ele>298.15</ele>
        <time>2020-07-15T07:50:19Z</time>
      </trkpt>
      <trkpt lat="39.6781758685" lon="-6.4742705226">
        <ele>295.74</ele>
        <time>2020-07-15T07:50:26Z</time>
      </trkpt>
      <trkpt lat="39.6787981410" lon="-6.4747178648">
        <ele>291.90</ele>
        <time>2020-07-15T07:50:35Z</time>
      </trkpt>
      <trkpt lat="39.6792390291" lon="-6.4748964831">
        <ele>289.01</ele>
        <time>2020-07-15T07:50:41Z</time>
      </trkpt>
      <trkpt lat="39.6797131095" lon="-6.4748684876">
        <ele>286.13</ele>
        <time>2020-07-15T07:50:47Z</time>
      </trkpt>
      <trkpt lat="39.6804613620" lon="-6.4747612830">
        <ele>281.80</ele>
        <time>2020-07-15T07:50:56Z</time>
      </trkpt>
      <trkpt lat="39.6809791122" lon="-6.4746534079">
        <ele>278.92</ele>
        <time>2020-07-15T07:51:03Z</time>
      </trkpt>
      <trkpt lat="39.6814427152" lon="-6.4743369073">
        <ele>277.00</ele>
        <time>2020-07-15T07:51:10Z</time>
      </trkpt>
      <trkpt lat="39.6819556039" lon="-6.4739437960">
        <ele>275.56</ele>
        <time>2020-07-15T07:51:18Z</time>
      </trkpt>
      <trkpt lat="39.6820925642" lon="-6.4738911577">
        <ele>275.56</ele>
        <time>2020-07-15T07:51:20Z</time>
      </trkpt>
      <trkpt lat="39.6821586974" lon="-6.4738758188">
        <ele>275.56</ele>
        <time>2020-07-15T07:51:21Z</time>
      </trkpt>
      <trkpt lat="39.6826359630" lon="-6.4738278743">
        <ele>275.56</ele>
        <time>2020-07-15T07:51:29Z</time>
      </trkpt>
      <trkpt lat="39.6829065308" lon="-6.4738090988">
        <ele>275.56</ele>
        <time>2020-07-15T07:51:35Z</time>
      </trkpt>
      <trkpt lat="39.6830831375" lon="-6.4737825282">
        <ele>275.56</ele>
        <time>2020-07-15T07:51:39Z</time>
      </trkpt>
      <trkpt lat="39.6835065912" lon="-6.4735868946">
        <ele>276.04</ele>
        <time>2020-07-15T07:51:49Z</time>
      </trkpt>
      <trkpt lat="39.6837858763" lon="-6.4732517861">
        <ele>277.00</ele>
        <time>2020-07-15T07:51:58Z</time>
      </trkpt>
      <trkpt lat="39.6839563642" lon="-6.4728413243">
        <ele>278.44</ele>
        <time>2020-07-15T07:52:07Z</time>
      </trkpt>
      <trkpt lat="39.6840806678" lon="-6.4723419305">
        <ele>278.92</ele>
        <time>2020-07-15T07:52:17Z</time>
      </trkpt>
      <trkpt lat="39.6842219867" lon="-6.4718598872">
        <ele>277.48</ele>
        <time>2020-07-15T07:52:26Z</time>
      </trkpt>
      <trkpt lat="39.6842962503" lon="-6.4716944285">
        <ele>277.00</ele>
        <time>2020-07-15T07:52:29Z</time>
      </trkpt>
      <trkpt lat="39.6844865195" lon="-6.4714279678">
        <ele>275.07</ele>
        <time>2020-07-15T07:52:34Z</time>
      </trkpt>
      <trkpt lat="39.6848837379" lon="-6.4711445756">
        <ele>273.15</ele>
        <time>2020-07-15T07:52:41Z</time>
      </trkpt>
      <trkpt lat="39.6851794515" lon="-6.4710818790">
        <ele>271.23</ele>
        <time>2020-07-15T07:52:45Z</time>
      </trkpt>
      <trkpt lat="39.6852578223" lon="-6.4710855670">
        <ele>270.75</ele>
        <time>2020-07-15T07:52:46Z</time>
      </trkpt>
      <trkpt lat="39.6853377856" lon="-6.4710971341">
        <ele>270.27</ele>
        <time>2020-07-15T07:52:47Z</time>
      </trkpt>
      <trkpt lat="39.6854153182" lon="-6.4711158257">
        <ele>270.27</ele>
        <time>2020-07-15T07:52:48Z</time>
      </trkpt>
      <trkpt lat="39.6855001431" lon="-6.4711454138">
        <ele>269.79</ele>
        <time>2020-07-15T07:52:49Z</time>
      </trkpt>
      <trkpt lat="39.6855793521" lon="-6.4711779356">
        <ele>268.83</ele>
        <time>2020-07-15T07:52:50Z</time>
      </trkpt>
      <trkpt lat="39.6860645805" lon="-6.4714444801">
        <ele>264.98</ele>
        <time>2020-07-15T07:52:56Z</time>
      </trkpt>
      <trkpt lat="39.6864242479" lon="-6.4716030657">
        <ele>262.10</ele>
        <time>2020-07-15T07:53:01Z</time>
      </trkpt>
      <trkpt lat="39.6868275013" lon="-6.4715951867">
        <ele>259.21</ele>
        <time>2020-07-15T07:53:07Z</time>
      </trkpt>
      <trkpt lat="39.6869585104" lon="-6.4715448953">
        <ele>258.73</ele>
        <time>2020-07-15T07:53:09Z</time>
      </trkpt>
      <trkpt lat="39.6870823111" lon="-6.4714673627">
        <ele>257.77</ele>
        <time>2020-07-15T07:53:11Z</time>
      </trkpt>
      <trkpt lat="39.6874998137" lon="-6.4710805379">
        <ele>255.37</ele>
        <time>2020-07-15T07:53:19Z</time>
      </trkpt>
      <trkpt lat="39.6877423860" lon="-6.4708639495">
        <ele>255.37</ele>
        <time>2020-07-15T07:53:24Z</time>
      </trkpt>
      <trkpt lat="39.6881706174" lon="-6.4706658013">
        <ele>253.44</ele>
        <time>2020-07-15T07:53:32Z</time>
      </trkpt>
      <trkpt lat="39.6888197120" lon="-6.4705093112">
        <ele>250.56</ele>
        <time>2020-07-15T07:53:42Z</time>
      </trkpt>
      <trkpt lat="39.6892401483" lon="-6.4702630509">
        <ele>248.64</ele>
        <time>2020-07-15T07:53:49Z</time>
      </trkpt>
      <trkpt lat="39.6894828882" lon="-6.4699310437">
        <ele>247.68</ele>
        <time>2020-07-15T07:53:55Z</time>
      </trkpt>
      <trkpt lat="39.6895118896" lon="-6.4698707778">
        <ele>247.68</ele>
        <time>2020-07-15T07:53:56Z</time>
      </trkpt>
      <trkpt lat="39.6896252129" lon="-6.4695994556">
        <ele>247.20</ele>
        <time>2020-07-15T07:54:01Z</time>
      </trkpt>
      <trkpt lat="39.6898019034" lon="-6.4691167418">
        <ele>246.23</ele>
        <time>2020-07-15T07:54:10Z</time>
      </trkpt>
      <trkpt lat="39.6899621654" lon="-6.4686844032">
        <ele>245.75</ele>
        <time>2020-07-15T07:54:19Z</time>
      </trkpt>
      <trkpt lat="39.6900509298" lon="-6.4684590977">
        <ele>244.79</ele>
        <time>2020-07-15T07:54:25Z</time>
      </trkpt>
      <trkpt lat="39.6900750697" lon="-6.4684391487">
        <ele>244.79</ele>
        <time>2020-07-15T07:54:26Z</time>
      </trkpt>
      <trkpt lat="39.6901017241" lon="-6.4684250671">
        <ele>244.79</ele>
        <time>2020-07-15T07:54:27Z</time>
      </trkpt>
      <trkpt lat="39.6901290491" lon="-6.4684115723">
        <ele>244.31</ele>
        <time>2020-07-15T07:54:28Z</time>
      </trkpt>
      <trkpt lat="39.6901505906" lon="-6.4683931321">
        <ele>244.31</ele>
        <time>2020-07-15T07:54:29Z</time>
      </trkpt>
      <trkpt lat="39.6901647560" lon="-6.4683683217">
        <ele>243.83</ele>
        <time>2020-07-15T07:54:30Z</time>
      </trkpt>
      <trkpt lat="39.6901732218" lon="-6.4683426730">
        <ele>243.83</ele>
        <time>2020-07-15T07:54:31Z</time>
      </trkpt>
      <trkpt lat="39.6902610641" lon="-6.4681044593">
        <ele>243.83</ele>
        <time>2020-07-15T07:54:41Z</time>
      </trkpt>
      <trkpt lat="39.6903569531" lon="-6.4678455424">
        <ele>243.83</ele>
        <time>2020-07-15T07:54:51Z</time>
      </trkpt>
      <trkpt lat="39.6904313006" lon="-6.4676426165">
        <ele>243.35</ele>
        <time>2020-07-15T07:55:00Z</time>
      </trkpt>
      <trkpt lat="39.6905246750" lon="-6.4673888125">
        <ele>243.35</ele>
        <time>2020-07-15T07:55:10Z</time>
      </trkpt>
      <trkpt lat="39.6905988548" lon="-6.4671828691">
        <ele>243.35</ele>
        <time>2020-07-15T07:55:20Z</time>
      </trkpt>
      <trkpt lat="39.6906029619" lon="-6.4671614114">
        <ele>242.39</ele>
        <time>2020-07-15T07:55:38Z</time>
      </trkpt>
      <trkpt lat="39.6906150319" lon="-6.4671684522">
        <ele>241.91</ele>
        <time>2020-07-15T07:55:54Z</time>
      </trkpt>
      <trkpt lat="39.6906245034" lon="-6.4671485033">
        <ele>242.39</ele>
        <time>2020-07-15T07:56:09Z</time>
      </trkpt>
      <trkpt lat="39.6907046344" lon="-6.4669140615">
        <ele>242.39</ele>
        <time>2020-07-15T07:56:19Z</time>
      </trkpt>
      <trkpt lat="39.6907876991" lon="-6.4666898455">
        <ele>242.39</ele>
        <time>2020-07-15T07:56:28Z</time>
      </trkpt>
      <trkpt lat="39.6909091529" lon="-6.4663616940">
        <ele>242.39</ele>
        <time>2020-07-15T07:56:39Z</time>
      </trkpt>
      <trkpt lat="39.6910425927" lon="-6.4660144318">
        <ele>242.87</ele>
        <time>2020-07-15T07:56:51Z</time>
      </trkpt>
      <trkpt lat="39.6911864262" lon="-6.4656184707">
        <ele>242.87</ele>
        <time>2020-07-15T07:57:03Z</time>
      </trkpt>
      <trkpt lat="39.6913088020" lon="-6.4652883075">
        <ele>243.35</ele>
        <time>2020-07-15T07:57:13Z</time>
      </trkpt>
      <trkpt lat="39.6914410684" lon="-6.4649476670">
        <ele>243.83</ele>
        <time>2020-07-15T07:57:24Z</time>
      </trkpt>
      <trkpt lat="39.6916042641" lon="-6.4645330142">
        <ele>244.31</ele>
        <time>2020-07-15T07:57:36Z</time>
      </trkpt>
      <trkpt lat="39.6917912643" lon="-6.4642261527">
        <ele>244.31</ele>
        <time>2020-07-15T07:57:47Z</time>
      </trkpt>
      <trkpt lat="39.6918452438" lon="-6.4641694911">
        <ele>243.83</ele>
        <time>2020-07-15T07:57:53Z</time>
      </trkpt>
      <trkpt lat="39.6918317489" lon="-6.4641659707">
        <ele>243.35</ele>
        <time>2020-07-15T07:58:04Z</time>
      </trkpt>
      <trkpt lat="39.6918423101" lon="-6.4641756937">
        <ele>242.87</ele>
        <time>2020-07-15T07:58:14Z</time>
      </trkpt>
      <trkpt lat="39.6918702219" lon="-6.4641641267">
        <ele>241.91</ele>
        <time>2020-07-15T07:58:38Z</time>
      </trkpt>
      <trkpt lat="39.6918616723" lon="-6.4641571697">
        <ele>240.95</ele>
        <time>2020-07-15T07:58:58Z</time>
      </trkpt>
      <trkpt lat="39.6918624267" lon="-6.4641559962">
        <ele>240.95</ele>
        <time>2020-07-15T07:59:24Z</time>
      </trkpt>
      <trkpt lat="39.6919169091" lon="-6.4641030226">
        <ele>241.43</ele>
        <time>2020-07-15T07:59:32Z</time>
      </trkpt>
      <trkpt lat="39.6919076052" lon="-6.4641068783">
        <ele>241.91</ele>
        <time>2020-07-15T07:59:39Z</time>
      </trkpt>
      <trkpt lat="39.6919000614" lon="-6.4640939701">
        <ele>242.39</ele>
        <time>2020-07-15T07:59:47Z</time>
      </trkpt>
      <trkpt lat="39.6919053420" lon="-6.4640938025">
        <ele>242.39</ele>
        <time>2020-07-15T07:59:59Z</time>
      </trkpt>
      <trkpt lat="39.6919099521" lon="-6.4640907850">
        <ele>242.39</ele>
        <time>2020-07-15T08:00:07Z</time>
      </trkpt>
      <trkpt lat="39.6919081081" lon="-6.4640777931">
        <ele>242.87</ele>
        <time>2020-07-15T08:00:08Z</time>
      </trkpt>
      <trkpt lat="39.6919018216" lon="-6.4640308544">
        <ele>243.35</ele>
        <time>2020-07-15T08:00:11Z</time>
      </trkpt>
      <trkpt lat="39.6919048391" lon="-6.4640174434">
        <ele>243.35</ele>
        <time>2020-07-15T08:00:12Z</time>
      </trkpt>
      <trkpt lat="39.6919088624" lon="-6.4640040323">
        <ele>243.35</ele>
        <time>2020-07-15T08:00:13Z</time>
      </trkpt>
      <trkpt lat="39.6919130534" lon="-6.4639917947">
        <ele>242.87</ele>
        <time>2020-07-15T08:00:14Z</time>
      </trkpt>
      <trkpt lat="39.6919148974" lon="-6.4639877714">
        <ele>243.35</ele>
        <time>2020-07-15T08:00:19Z</time>
      </trkpt>
      <trkpt lat="39.6919278894" lon="-6.4639829937">
        <ele>243.35</ele>
        <time>2020-07-15T08:00:21Z</time>
      </trkpt>
      <trkpt lat="39.6919386182" lon="-6.4639762044">
        <ele>242.87</ele>
        <time>2020-07-15T08:00:22Z</time>
      </trkpt>
      <trkpt lat="39.6919493470" lon="-6.4639706723">
        <ele>242.87</ele>
        <time>2020-07-15T08:00:23Z</time>
      </trkpt>
      <trkpt lat="39.6920589823" lon="-6.4639027789">
        <ele>242.39</ele>
        <time>2020-07-15T08:00:30Z</time>
      </trkpt>
      <trkpt lat="39.6923001297" lon="-6.4638133440">
        <ele>242.39</ele>
        <time>2020-07-15T08:00:38Z</time>
      </trkpt>
      <trkpt lat="39.6926193126" lon="-6.4638093207">
        <ele>241.43</ele>
        <time>2020-07-15T08:00:46Z</time>
      </trkpt>
      <trkpt lat="39.6930982545" lon="-6.4639734384">
        <ele>239.99</ele>
        <time>2020-07-15T08:00:56Z</time>
      </trkpt>
      <trkpt lat="39.6935968939" lon="-6.4642298408">
        <ele>238.54</ele>
        <time>2020-07-15T08:01:06Z</time>
      </trkpt>
      <trkpt lat="39.6941381972" lon="-6.4645129815">
        <ele>237.58</ele>
        <time>2020-07-15T08:01:17Z</time>
      </trkpt>
      <trkpt lat="39.6945567895" lon="-6.4647238702">
        <ele>238.06</ele>
        <time>2020-07-15T08:01:26Z</time>
      </trkpt>
      <trkpt lat="39.6949443687" lon="-6.4648163226">
        <ele>239.99</ele>
        <time>2020-07-15T08:01:36Z</time>
      </trkpt>
      <trkpt lat="39.6951292735" lon="-6.4647972956">
        <ele>240.95</ele>
        <time>2020-07-15T08:01:43Z</time>
      </trkpt>
      <trkpt lat="39.6953549981" lon="-6.4647139795">
        <ele>241.43</ele>
        <time>2020-07-15T08:01:51Z</time>
      </trkpt>
      <trkpt lat="39.6955795493" lon="-6.4645619318">
        <ele>241.91</ele>
        <time>2020-07-15T08:02:00Z</time>
      </trkpt>
      <trkpt lat="39.6957797091" lon="-6.4643488638">
        <ele>242.39</ele>
        <time>2020-07-15T08:02:10Z</time>
      </trkpt>
      <trkpt lat="39.6959481854" lon="-6.4641496260">
        <ele>242.87</ele>
        <time>2020-07-15T08:02:19Z</time>
      </trkpt>
      <trkpt lat="39.6961288992" lon="-6.4639320318">
        <ele>243.83</ele>
        <time>2020-07-15T08:02:29Z</time>
      </trkpt>
      <trkpt lat="39.6962905023" lon="-6.4637433551">
        <ele>244.79</ele>
        <time>2020-07-15T08:02:38Z</time>
      </trkpt>
      <trkpt lat="39.6964271273" lon="-6.4636132680">
        <ele>245.27</ele>
        <time>2020-07-15T08:02:45Z</time>
      </trkpt>
      <trkpt lat="39.6966844518" lon="-6.4634566940">
        <ele>246.23</ele>
        <time>2020-07-15T08:02:56Z</time>
      </trkpt>
      <trkpt lat="39.6969351545" lon="-6.4633774851">
        <ele>246.72</ele>
        <time>2020-07-15T08:03:06Z</time>
      </trkpt>
      <trkpt lat="39.6971799899" lon="-6.4633270260">
        <ele>247.20</ele>
        <time>2020-07-15T08:03:15Z</time>
      </trkpt>
      <trkpt lat="39.6974233165" lon="-6.4632824343">
        <ele>247.68</ele>
        <time>2020-07-15T08:03:24Z</time>
      </trkpt>
      <trkpt lat="39.6977048647" lon="-6.4632300474">
        <ele>248.16</ele>
        <time>2020-07-15T08:03:35Z</time>
      </trkpt>
      <trkpt lat="39.6979561541" lon="-6.4631830249">
        <ele>249.12</ele>
        <time>2020-07-15T08:03:45Z</time>
      </trkpt>
      <trkpt lat="39.6981807053" lon="-6.4631137904">
        <ele>249.60</ele>
        <time>2020-07-15T08:03:55Z</time>
      </trkpt>
      <trkpt lat="39.6983619221" lon="-6.4630315639">
        <ele>250.08</ele>
        <time>2020-07-15T08:04:04Z</time>
      </trkpt>
      <trkpt lat="39.6985539515" lon="-6.4628792647">
        <ele>251.52</ele>
        <time>2020-07-15T08:04:14Z</time>
      </trkpt>
      <trkpt lat="39.6987491660" lon="-6.4626256283">
        <ele>252.96</ele>
        <time>2020-07-15T08:04:26Z</time>
      </trkpt>
      <trkpt lat="39.6988788340" lon="-6.4624135662">
        <ele>253.93</ele>
        <time>2020-07-15T08:04:35Z</time>
      </trkpt>
      <trkpt lat="39.6990221646" lon="-6.4621645398">
        <ele>253.93</ele>
        <time>2020-07-15T08:04:45Z</time>
      </trkpt>
      <trkpt lat="39.6991642378" lon="-6.4618804771">
        <ele>256.33</ele>
        <time>2020-07-15T08:04:57Z</time>
      </trkpt>
      <trkpt lat="39.6992848534" lon="-6.4616763778">
        <ele>256.81</ele>
        <time>2020-07-15T08:05:06Z</time>
      </trkpt>
      <trkpt lat="39.6994043794" lon="-6.4614615496">
        <ele>257.77</ele>
        <time>2020-07-15T08:05:15Z</time>
      </trkpt>
      <trkpt lat="39.6995246597" lon="-6.4612393454">
        <ele>258.25</ele>
        <time>2020-07-15T08:05:24Z</time>
      </trkpt>
      <trkpt lat="39.6996005159" lon="-6.4610977750">
        <ele>258.73</ele>
        <time>2020-07-15T08:05:31Z</time>
      </trkpt>
      <trkpt lat="39.6996125020" lon="-6.4610839449">
        <ele>258.73</ele>
        <time>2020-07-15T08:05:32Z</time>
      </trkpt>
      <trkpt lat="39.6996245719" lon="-6.4610654209">
        <ele>258.73</ele>
        <time>2020-07-15T08:05:33Z</time>
      </trkpt>
      <trkpt lat="39.6996368933" lon="-6.4610432927">
        <ele>259.21</ele>
        <time>2020-07-15T08:05:34Z</time>
      </trkpt>
      <trkpt lat="39.6996496338" lon="-6.4610179793">
        <ele>259.21</ele>
        <time>2020-07-15T08:05:35Z</time>
      </trkpt>
      <trkpt lat="39.6996623743" lon="-6.4609926660">
        <ele>259.21</ele>
        <time>2020-07-15T08:05:36Z</time>
      </trkpt>
      <trkpt lat="39.6996751148" lon="-6.4609679393">
        <ele>259.21</ele>
        <time>2020-07-15T08:05:37Z</time>
      </trkpt>
      <trkpt lat="39.6998170204" lon="-6.4607066754">
        <ele>260.17</ele>
        <time>2020-07-15T08:05:47Z</time>
      </trkpt>
      <trkpt lat="39.6999755222" lon="-6.4603990596">
        <ele>260.65</ele>
        <time>2020-07-15T08:05:58Z</time>
      </trkpt>
      <trkpt lat="39.7000977304" lon="-6.4600905217">
        <ele>261.14</ele>
        <time>2020-07-15T08:06:09Z</time>
      </trkpt>
      <trkpt lat="39.7001796216" lon="-6.4598368853">
        <ele>262.58</ele>
        <time>2020-07-15T08:06:18Z</time>
      </trkpt>
      <trkpt lat="39.7002558969" lon="-6.4595738612">
        <ele>263.06</ele>
        <time>2020-07-15T08:06:27Z</time>
      </trkpt>
      <trkpt lat="39.7003375366" lon="-6.4592756331">
        <ele>264.02</ele>
        <time>2020-07-15T08:06:37Z</time>
      </trkpt>
      <trkpt lat="39.7004164103" lon="-6.4589850325">
        <ele>264.98</ele>
        <time>2020-07-15T08:06:47Z</time>
      </trkpt>
      <trkpt lat="39.7004936915" lon="-6.4586957730">
        <ele>265.94</ele>
        <time>2020-07-15T08:06:57Z</time>
      </trkpt>
      <trkpt lat="39.7005691286" lon="-6.4584329166">
        <ele>266.42</ele>
        <time>2020-07-15T08:07:06Z</time>
      </trkpt>
      <trkpt lat="39.7006401233" lon="-6.4582031686">
        <ele>266.42</ele>
        <time>2020-07-15T08:07:14Z</time>
      </trkpt>
      <trkpt lat="39.7007306479" lon="-6.4579042699">
        <ele>266.90</ele>
        <time>2020-07-15T08:07:23Z</time>
      </trkpt>
      <trkpt lat="39.7008377686" lon="-6.4576484542">
        <ele>266.90</ele>
        <time>2020-07-15T08:07:31Z</time>
      </trkpt>
      <trkpt lat="39.7009731364" lon="-6.4574270882">
        <ele>266.90</ele>
        <time>2020-07-15T08:07:39Z</time>
      </trkpt>
      <trkpt lat="39.7010977753" lon="-6.4572808240">
        <ele>266.90</ele>
        <time>2020-07-15T08:07:47Z</time>
      </trkpt>
      <trkpt lat="39.7013161238" lon="-6.4571105037">
        <ele>266.90</ele>
        <time>2020-07-15T08:07:57Z</time>
      </trkpt>
      <trkpt lat="39.7015433572" lon="-6.4570219908">
        <ele>266.42</ele>
        <time>2020-07-15T08:08:06Z</time>
      </trkpt>
      <trkpt lat="39.7017413378" lon="-6.4569805842">
        <ele>265.94</ele>
        <time>2020-07-15T08:08:14Z</time>
      </trkpt>
      <trkpt lat="39.7020730935" lon="-6.4569373336">
        <ele>265.94</ele>
        <time>2020-07-15T08:08:23Z</time>
      </trkpt>
      <trkpt lat="39.7024745028" lon="-6.4568924066">
        <ele>266.90</ele>
        <time>2020-07-15T08:08:33Z</time>
      </trkpt>
      <trkpt lat="39.7028632555" lon="-6.4568473119">
        <ele>267.38</ele>
        <time>2020-07-15T08:08:43Z</time>
      </trkpt>
      <trkpt lat="39.7032741364" lon="-6.4568024687">
        <ele>268.35</ele>
        <time>2020-07-15T08:08:54Z</time>
      </trkpt>
      <trkpt lat="39.7036677506" lon="-6.4567639958">
        <ele>268.35</ele>
        <time>2020-07-15T08:09:05Z</time>
      </trkpt>
      <trkpt lat="39.7039791383" lon="-6.4567358326">
        <ele>268.83</ele>
        <time>2020-07-15T08:09:13Z</time>
      </trkpt>
      <trkpt lat="39.7043837328" lon="-6.4566856250">
        <ele>267.38</ele>
        <time>2020-07-15T08:09:24Z</time>
      </trkpt>
      <trkpt lat="39.7048297338" lon="-6.4566368423">
        <ele>266.42</ele>
        <time>2020-07-15T08:09:35Z</time>
      </trkpt>
      <trkpt lat="39.7051375173" lon="-6.4566095173">
        <ele>265.94</ele>
        <time>2020-07-15T08:09:43Z</time>
      </trkpt>
      <trkpt lat="39.7055616416" lon="-6.4565593936">
        <ele>265.94</ele>
        <time>2020-07-15T08:09:53Z</time>
      </trkpt>
      <trkpt lat="39.7059115861" lon="-6.4565240219">
        <ele>266.42</ele>
        <time>2020-07-15T08:10:02Z</time>
      </trkpt>
      <trkpt lat="39.7063122410" lon="-6.4565104432">
        <ele>267.86</ele>
        <time>2020-07-15T08:10:13Z</time>
      </trkpt>
      <trkpt lat="39.7066623531" lon="-6.4565602317">
        <ele>268.35</ele>
        <time>2020-07-15T08:10:23Z</time>
      </trkpt>
      <trkpt lat="39.7070764191" lon="-6.4566437993">
        <ele>268.83</ele>
        <time>2020-07-15T08:10:35Z</time>
      </trkpt>
      <trkpt lat="39.7072730586" lon="-6.4566754829">
        <ele>268.83</ele>
        <time>2020-07-15T08:10:41Z</time>
      </trkpt>
      <trkpt lat="39.7076078318" lon="-6.4567407779">
        <ele>268.83</ele>
        <time>2020-07-15T08:10:50Z</time>
      </trkpt>
      <trkpt lat="39.7077368293" lon="-6.4567654207">
        <ele>268.35</ele>
        <time>2020-07-15T08:10:53Z</time>
      </trkpt>
      <trkpt lat="39.7078782320" lon="-6.4567694440">
        <ele>267.86</ele>
        <time>2020-07-15T08:10:56Z</time>
      </trkpt>
      <trkpt lat="39.7081816569" lon="-6.4567207452">
        <ele>266.90</ele>
        <time>2020-07-15T08:11:02Z</time>
      </trkpt>
      <trkpt lat="39.7085357923" lon="-6.4565309789">
        <ele>265.94</ele>
        <time>2020-07-15T08:11:10Z</time>
      </trkpt>
      <trkpt lat="39.7088259738" lon="-6.4563171566">
        <ele>264.98</ele>
        <time>2020-07-15T08:11:18Z</time>
      </trkpt>
      <trkpt lat="39.7092480026" lon="-6.4560092892">
        <ele>263.54</ele>
        <time>2020-07-15T08:11:30Z</time>
      </trkpt>
      <trkpt lat="39.7095156368" lon="-6.4558152482">
        <ele>262.58</ele>
        <time>2020-07-15T08:11:38Z</time>
      </trkpt>
      <trkpt lat="39.7099034674" lon="-6.4555295091">
        <ele>261.14</ele>
        <time>2020-07-15T08:11:48Z</time>
      </trkpt>
      <trkpt lat="39.7103408352" lon="-6.4552087337">
        <ele>259.21</ele>
        <time>2020-07-15T08:11:59Z</time>
      </trkpt>
      <trkpt lat="39.7107378859" lon="-6.4549356513">
        <ele>257.77</ele>
        <time>2020-07-15T08:12:08Z</time>
      </trkpt>
      <trkpt lat="39.7111874912" lon="-6.4545992017">
        <ele>255.85</ele>
        <time>2020-07-15T08:12:18Z</time>
      </trkpt>
      <trkpt lat="39.7113273013" lon="-6.4544855431">
        <ele>255.37</ele>
        <time>2020-07-15T08:12:21Z</time>
      </trkpt>
      <trkpt lat="39.7116777487" lon="-6.4540696330">
        <ele>253.93</ele>
        <time>2020-07-15T08:12:30Z</time>
      </trkpt>
      <trkpt lat="39.7119105142" lon="-6.4537361171">
        <ele>253.44</ele>
        <time>2020-07-15T08:12:38Z</time>
      </trkpt>
      <trkpt lat="39.7122203931" lon="-6.4533057902">
        <ele>252.48</ele>
        <time>2020-07-15T08:12:49Z</time>
      </trkpt>
      <trkpt lat="39.7124876082" lon="-6.4529741183">
        <ele>251.04</ele>
        <time>2020-07-15T08:12:58Z</time>
      </trkpt>
      <trkpt lat="39.7127247322" lon="-6.4527692646">
        <ele>250.08</ele>
        <time>2020-07-15T08:13:04Z</time>
      </trkpt>
      <trkpt lat="39.7127716709" lon="-6.4527431130">
        <ele>250.08</ele>
        <time>2020-07-15T08:13:05Z</time>
      </trkpt>
      <trkpt lat="39.7130222060" lon="-6.4526349027">
        <ele>248.64</ele>
        <time>2020-07-15T08:13:10Z</time>
      </trkpt>
      <trkpt lat="39.7134697996" lon="-6.4525232557">
        <ele>246.23</ele>
        <time>2020-07-15T08:13:18Z</time>
      </trkpt>
      <trkpt lat="39.7139890585" lon="-6.4523567911">
        <ele>244.79</ele>
        <time>2020-07-15T08:13:28Z</time>
      </trkpt>
      <trkpt lat="39.7143152822" lon="-6.4520950243">
        <ele>243.83</ele>
        <time>2020-07-15T08:13:36Z</time>
      </trkpt>
      <trkpt lat="39.7145512328" lon="-6.4517266396">
        <ele>243.35</ele>
        <time>2020-07-15T08:13:45Z</time>
      </trkpt>
      <trkpt lat="39.7147363052" lon="-6.4512803871">
        <ele>243.35</ele>
        <time>2020-07-15T08:13:54Z</time>
      </trkpt>
      <trkpt lat="39.7149140015" lon="-6.4509105776">
        <ele>242.87</ele>
        <time>2020-07-15T08:14:02Z</time>
      </trkpt>
      <trkpt lat="39.7152083740" lon="-6.4505358227">
        <ele>242.87</ele>
        <time>2020-07-15T08:14:12Z</time>
      </trkpt>
      <trkpt lat="39.7155276407" lon="-6.4503466431">
        <ele>241.43</ele>
        <time>2020-07-15T08:14:21Z</time>
      </trkpt>
      <trkpt lat="39.7158817761" lon="-6.4501781669">
        <ele>240.47</ele>
        <time>2020-07-15T08:14:29Z</time>
      </trkpt>
      <trkpt lat="39.7163779009" lon="-6.4499589801">
        <ele>239.51</ele>
        <time>2020-07-15T08:14:40Z</time>
      </trkpt>
      <trkpt lat="39.7166736145" lon="-6.4498239476">
        <ele>239.02</ele>
        <time>2020-07-15T08:14:49Z</time>
      </trkpt>
      <trkpt lat="39.7168119997" lon="-6.4497559704">
        <ele>239.02</ele>
        <time>2020-07-15T08:14:56Z</time>
      </trkpt>
      <trkpt lat="39.7168088984" lon="-6.4497541264">
        <ele>239.51</ele>
        <time>2020-07-15T08:15:10Z</time>
      </trkpt>
      <trkpt lat="39.7168681584" lon="-6.4497403800">
        <ele>239.02</ele>
        <time>2020-07-15T08:15:16Z</time>
      </trkpt>
      <trkpt lat="39.7170657199" lon="-6.4496465027">
        <ele>238.54</ele>
        <time>2020-07-15T08:15:25Z</time>
      </trkpt>
      <trkpt lat="39.7173564881" lon="-6.4495132305">
        <ele>238.54</ele>
        <time>2020-07-15T08:15:36Z</time>
      </trkpt>
      <trkpt lat="39.7174415644" lon="-6.4494646993">
        <ele>238.54</ele>
        <time>2020-07-15T08:15:43Z</time>
      </trkpt>
      <trkpt lat="39.7174667940" lon="-6.4494597539">
        <ele>239.02</ele>
        <time>2020-07-15T08:15:56Z</time>
      </trkpt>
      <trkpt lat="39.7174807079" lon="-6.4494524617">
        <ele>239.02</ele>
        <time>2020-07-15T08:15:57Z</time>
      </trkpt>
      <trkpt lat="39.7174971364" lon="-6.4494469296">
        <ele>239.02</ele>
        <time>2020-07-15T08:15:58Z</time>
      </trkpt>
      <trkpt lat="39.7175153252" lon="-6.4494401403">
        <ele>239.02</ele>
        <time>2020-07-15T08:15:59Z</time>
      </trkpt>
      <trkpt lat="39.7176449932" lon="-6.4493937884">
        <ele>239.02</ele>
        <time>2020-07-15T08:16:08Z</time>
      </trkpt>
      <trkpt lat="39.7176488489" lon="-6.4493859094">
        <ele>239.51</ele>
        <time>2020-07-15T08:16:21Z</time>
      </trkpt>
      <trkpt lat="39.7176607512" lon="-6.4493968897">
        <ele>238.06</ele>
        <time>2020-07-15T08:16:33Z</time>
      </trkpt>
      <trkpt lat="39.7176655289" lon="-6.4494019188">
        <ele>239.02</ele>
        <time>2020-07-15T08:16:46Z</time>
      </trkpt>
      <trkpt lat="39.7176713962" lon="-6.4494019188">
        <ele>239.02</ele>
        <time>2020-07-15T08:16:47Z</time>
      </trkpt>
      <trkpt lat="39.7176820412" lon="-6.4493978955">
        <ele>239.02</ele>
        <time>2020-07-15T08:16:48Z</time>
      </trkpt>
      <trkpt lat="39.7176981345" lon="-6.4493917767">
        <ele>238.54</ele>
        <time>2020-07-15T08:16:49Z</time>
      </trkpt>
      <trkpt lat="39.7178957798" lon="-6.4493174292">
        <ele>238.54</ele>
        <time>2020-07-15T08:16:57Z</time>
      </trkpt>
      <trkpt lat="39.7181460634" lon="-6.4491859172">
        <ele>238.06</ele>
        <time>2020-07-15T08:17:06Z</time>
      </trkpt>
      <trkpt lat="39.7183933295" lon="-6.4490736835">
        <ele>238.54</ele>
        <time>2020-07-15T08:17:14Z</time>
      </trkpt>
      <trkpt lat="39.7186505701" lon="-6.4489250723">
        <ele>238.54</ele>
        <time>2020-07-15T08:17:22Z</time>
      </trkpt>
      <trkpt lat="39.7189567611" lon="-6.4487841725">
        <ele>238.54</ele>
        <time>2020-07-15T08:17:31Z</time>
      </trkpt>
      <trkpt lat="39.7192464396" lon="-6.4486521576">
        <ele>238.06</ele>
        <time>2020-07-15T08:17:39Z</time>
      </trkpt>
      <trkpt lat="39.7196120583" lon="-6.4484905545">
        <ele>238.54</ele>
        <time>2020-07-15T08:17:49Z</time>
      </trkpt>
      <trkpt lat="39.7198536247" lon="-6.4484603796">
        <ele>239.02</ele>
        <time>2020-07-15T08:17:55Z</time>
      </trkpt>
      <trkpt lat="39.7202184051" lon="-6.4485418517">
        <ele>239.51</ele>
        <time>2020-07-15T08:18:04Z</time>
      </trkpt>
      <trkpt lat="39.7205322236" lon="-6.4487172849">
        <ele>240.95</ele>
        <time>2020-07-15T08:18:14Z</time>
      </trkpt>
      <trkpt lat="39.7208555974" lon="-6.4489257429">
        <ele>242.39</ele>
        <time>2020-07-15T08:18:26Z</time>
      </trkpt>
      <trkpt lat="39.7211316973" lon="-6.4490471128">
        <ele>244.79</ele>
        <time>2020-07-15T08:18:37Z</time>
      </trkpt>
      <trkpt lat="39.7212839127" lon="-6.4490616973">
        <ele>245.75</ele>
        <time>2020-07-15T08:18:45Z</time>
      </trkpt>
      <trkpt lat="39.7214038577" lon="-6.4490654692">
        <ele>246.23</ele>
        <time>2020-07-15T08:18:52Z</time>
      </trkpt>
      <trkpt lat="39.7215856612" lon="-6.4490231406">
        <ele>246.72</ele>
        <time>2020-07-15T08:19:01Z</time>
      </trkpt>
      <trkpt lat="39.7218366992" lon="-6.4489312749">
        <ele>247.68</ele>
        <time>2020-07-15T08:19:13Z</time>
      </trkpt>
      <trkpt lat="39.7220280580" lon="-6.4488441870">
        <ele>249.60</ele>
        <time>2020-07-15T08:19:23Z</time>
      </trkpt>
      <trkpt lat="39.7222138848" lon="-6.4487606194">
        <ele>250.56</ele>
        <time>2020-07-15T08:19:33Z</time>
      </trkpt>
      <trkpt lat="39.7223997116" lon="-6.4486770518">
        <ele>251.52</ele>
        <time>2020-07-15T08:19:44Z</time>
      </trkpt>
      <trkpt lat="39.7225500830" lon="-6.4486052189">
        <ele>252.96</ele>
        <time>2020-07-15T08:19:53Z</time>
      </trkpt>
      <trkpt lat="39.7227220796" lon="-6.4485303685">
        <ele>253.44</ele>
        <time>2020-07-15T08:20:03Z</time>
      </trkpt>
      <trkpt lat="39.7228912264" lon="-6.4484577812">
        <ele>254.41</ele>
        <time>2020-07-15T08:20:13Z</time>
      </trkpt>
      <trkpt lat="39.7230428550" lon="-6.4483987726">
        <ele>255.37</ele>
        <time>2020-07-15T08:20:22Z</time>
      </trkpt>
      <trkpt lat="39.7232161090" lon="-6.4483214077">
        <ele>256.81</ele>
        <time>2020-07-15T08:20:32Z</time>
      </trkpt>
      <trkpt lat="39.7232324537" lon="-6.4483152889">
        <ele>256.81</ele>
        <time>2020-07-15T08:20:33Z</time>
      </trkpt>
      <trkpt lat="39.7232488822" lon="-6.4483055659">
        <ele>257.29</ele>
        <time>2020-07-15T08:20:34Z</time>
      </trkpt>
      <trkpt lat="39.7234380618" lon="-6.4482196514">
        <ele>258.73</ele>
        <time>2020-07-15T08:20:45Z</time>
      </trkpt>
      <trkpt lat="39.7235772852" lon="-6.4481541049">
        <ele>258.73</ele>
        <time>2020-07-15T08:20:53Z</time>
      </trkpt>
      <trkpt lat="39.7238118947" lon="-6.4480657596">
        <ele>260.17</ele>
        <time>2020-07-15T08:21:06Z</time>
      </trkpt>
      <trkpt lat="39.7239696421" lon="-6.4480014704">
        <ele>260.65</ele>
        <time>2020-07-15T08:21:15Z</time>
      </trkpt>
      <trkpt lat="39.7240976337" lon="-6.4479638357">
        <ele>261.62</ele>
        <time>2020-07-15T08:21:22Z</time>
      </trkpt>
      <trkpt lat="39.7242487594" lon="-6.4479535259">
        <ele>262.58</ele>
        <time>2020-07-15T08:21:31Z</time>
      </trkpt>
      <trkpt lat="39.7242785990" lon="-6.4479570463">
        <ele>263.06</ele>
        <time>2020-07-15T08:21:33Z</time>
      </trkpt>
      <trkpt lat="39.7242955305" lon="-6.4479580522">
        <ele>263.06</ele>
        <time>2020-07-15T08:21:34Z</time>
      </trkpt>
      <trkpt lat="39.7243122105" lon="-6.4479577169">
        <ele>263.06</ele>
        <time>2020-07-15T08:21:35Z</time>
      </trkpt>
      <trkpt lat="39.7243306506" lon="-6.4479603153">
        <ele>263.06</ele>
        <time>2020-07-15T08:21:36Z</time>
      </trkpt>
      <trkpt lat="39.7243509348" lon="-6.4479614887">
        <ele>263.06</ele>
        <time>2020-07-15T08:21:37Z</time>
      </trkpt>
      <trkpt lat="39.7246147972" lon="-6.4480185695">
        <ele>264.50</ele>
        <time>2020-07-15T08:21:50Z</time>
      </trkpt>
      <trkpt lat="39.7248511668" lon="-6.4480884746">
        <ele>265.94</ele>
        <time>2020-07-15T08:22:02Z</time>
      </trkpt>
      <trkpt lat="39.7250597924" lon="-6.4481427893">
        <ele>266.90</ele>
        <time>2020-07-15T08:22:13Z</time>
      </trkpt>
      <trkpt lat="39.7252419312" lon="-6.4481923264">
        <ele>268.35</ele>
        <time>2020-07-15T08:22:23Z</time>
      </trkpt>
      <trkpt lat="39.7254876047" lon="-6.4482647460">
        <ele>269.79</ele>
        <time>2020-07-15T08:22:36Z</time>
      </trkpt>
      <trkpt lat="39.7256903630" lon="-6.4483207371">
        <ele>270.75</ele>
        <time>2020-07-15T08:22:47Z</time>
      </trkpt>
      <trkpt lat="39.7258950491" lon="-6.4483813383">
        <ele>272.19</ele>
        <time>2020-07-15T08:22:58Z</time>
      </trkpt>
      <trkpt lat="39.7261377051" lon="-6.4484523330">
        <ele>273.15</ele>
        <time>2020-07-15T08:23:10Z</time>
      </trkpt>
      <trkpt lat="39.7263506055" lon="-6.4485060610">
        <ele>274.11</ele>
        <time>2020-07-15T08:23:21Z</time>
      </trkpt>
      <trkpt lat="39.7263698839" lon="-6.4485079050">
        <ele>274.11</ele>
        <time>2020-07-15T08:23:22Z</time>
      </trkpt>
      <trkpt lat="39.7263898328" lon="-6.4485130180">
        <ele>274.11</ele>
        <time>2020-07-15T08:23:23Z</time>
      </trkpt>
      <trkpt lat="39.7264101170" lon="-6.4485183824">
        <ele>274.11</ele>
        <time>2020-07-15T08:23:24Z</time>
      </trkpt>
      <trkpt lat="39.7264317423" lon="-6.4485255070">
        <ele>274.11</ele>
        <time>2020-07-15T08:23:25Z</time>
      </trkpt>
      <trkpt lat="39.7264558822" lon="-6.4485333022">
        <ele>274.11</ele>
        <time>2020-07-15T08:23:26Z</time>
      </trkpt>
      <trkpt lat="39.7264782619" lon="-6.4485401753">
        <ele>274.11</ele>
        <time>2020-07-15T08:23:27Z</time>
      </trkpt>
      <trkpt lat="39.7264996357" lon="-6.4485449530">
        <ele>274.11</ele>
        <time>2020-07-15T08:23:28Z</time>
      </trkpt>
      <trkpt lat="39.7265205067" lon="-6.4485514071">
        <ele>274.11</ele>
        <time>2020-07-15T08:23:29Z</time>
      </trkpt>
      <trkpt lat="39.7266987059" lon="-6.4486117568">
        <ele>274.11</ele>
        <time>2020-07-15T08:23:38Z</time>
      </trkpt>
      <trkpt lat="39.7269461397" lon="-6.4486836735">
        <ele>273.63</ele>
        <time>2020-07-15T08:23:46Z</time>
      </trkpt>
      <trkpt lat="39.7272569407" lon="-6.4487714320">
        <ele>272.67</ele>
        <time>2020-07-15T08:23:54Z</time>
      </trkpt>
      <trkpt lat="39.7277181130" lon="-6.4488970768">
        <ele>270.27</ele>
        <time>2020-07-15T08:24:04Z</time>
      </trkpt>
      <trkpt lat="39.7279418260" lon="-6.4489326999">
        <ele>268.83</ele>
        <time>2020-07-15T08:24:10Z</time>
      </trkpt>
      <trkpt lat="39.7283076961" lon="-6.4489290118">
        <ele>266.42</ele>
        <time>2020-07-15T08:24:17Z</time>
      </trkpt>
      <trkpt lat="39.7288635839" lon="-6.4489381481">
        <ele>264.50</ele>
        <time>2020-07-15T08:24:25Z</time>
      </trkpt>
      <trkpt lat="39.7292554379" lon="-6.4490824006">
        <ele>262.58</ele>
        <time>2020-07-15T08:24:30Z</time>
      </trkpt>
      <trkpt lat="39.7296112496" lon="-6.4494271483">
        <ele>260.17</ele>
        <time>2020-07-15T08:24:35Z</time>
      </trkpt>
      <trkpt lat="39.7301083803" lon="-6.4501620736">
        <ele>256.81</ele>
        <time>2020-07-15T08:24:43Z</time>
      </trkpt>
      <trkpt lat="39.7301818896" lon="-6.4502394386">
        <ele>256.33</ele>
        <time>2020-07-15T08:24:44Z</time>
      </trkpt>
      <trkpt lat="39.7302591708" lon="-6.4503069129">
        <ele>255.85</ele>
        <time>2020-07-15T08:24:45Z</time>
      </trkpt>
      <trkpt lat="39.7303413134" lon="-6.4503674302">
        <ele>255.37</ele>
        <time>2020-07-15T08:24:46Z</time>
      </trkpt>
      <trkpt lat="39.7304236237" lon="-6.4504165482">
        <ele>254.41</ele>
        <time>2020-07-15T08:24:47Z</time>
      </trkpt>
      <trkpt lat="39.7305087000" lon="-6.4504572004">
        <ele>253.93</ele>
        <time>2020-07-15T08:24:48Z</time>
      </trkpt>
      <trkpt lat="39.7305952013" lon="-6.4504869562">
        <ele>253.44</ele>
        <time>2020-07-15T08:24:49Z</time>
      </trkpt>
      <trkpt lat="39.7306643520" lon="-6.4505018760">
        <ele>252.96</ele>
        <time>2020-07-15T08:24:50Z</time>
      </trkpt>
      <trkpt lat="39.7307408787" lon="-6.4505087491">
        <ele>252.48</ele>
        <time>2020-07-15T08:24:51Z</time>
      </trkpt>
      <trkpt lat="39.7308199201" lon="-6.4505084138">
        <ele>252.00</ele>
        <time>2020-07-15T08:24:52Z</time>
      </trkpt>
      <trkpt lat="39.7311244346" lon="-6.4504430350">
        <ele>250.08</ele>
        <time>2020-07-15T08:24:56Z</time>
      </trkpt>
      <trkpt lat="39.7312006261" lon="-6.4504074119">
        <ele>249.60</ele>
        <time>2020-07-15T08:24:57Z</time>
      </trkpt>
      <trkpt lat="39.7312685195" lon="-6.4503691066">
        <ele>249.12</ele>
        <time>2020-07-15T08:24:58Z</time>
      </trkpt>
      <trkpt lat="39.7316742875" lon="-6.4500289690">
        <ele>247.68</ele>
        <time>2020-07-15T08:25:05Z</time>
      </trkpt>
      <trkpt lat="39.7320871800" lon="-6.4496732410">
        <ele>244.31</ele>
        <time>2020-07-15T08:25:13Z</time>
      </trkpt>
      <trkpt lat="39.7323600948" lon="-6.4494507015">
        <ele>242.39</ele>
        <time>2020-07-15T08:25:20Z</time>
      </trkpt>
      <trkpt lat="39.7325341869" lon="-6.4492987376">
        <ele>241.91</ele>
        <time>2020-07-15T08:25:27Z</time>
      </trkpt>
      <trkpt lat="39.7325857356" lon="-6.4492558222">
        <ele>241.43</ele>
        <time>2020-07-15T08:25:32Z</time>
      </trkpt>
      <trkpt lat="39.7325931117" lon="-6.4492585044">
        <ele>241.43</ele>
        <time>2020-07-15T08:25:48Z</time>
      </trkpt>
      <trkpt lat="39.7326031700" lon="-6.4492584206">
        <ele>241.43</ele>
        <time>2020-07-15T08:25:52Z</time>
      </trkpt>
      <trkpt lat="39.7327449080" lon="-6.4491256513">
        <ele>240.47</ele>
        <time>2020-07-15T08:26:00Z</time>
      </trkpt>
      <trkpt lat="39.7330163978" lon="-6.4488994237">
        <ele>239.51</ele>
        <time>2020-07-15T08:26:10Z</time>
      </trkpt>
      <trkpt lat="39.7332553659" lon="-6.4486905467">
        <ele>239.51</ele>
        <time>2020-07-15T08:26:20Z</time>
      </trkpt>
      <trkpt lat="39.7335131094" lon="-6.4484944101">
        <ele>239.02</ele>
        <time>2020-07-15T08:26:31Z</time>
      </trkpt>
      <trkpt lat="39.7337073181" lon="-6.4483518340">
        <ele>238.54</ele>
        <time>2020-07-15T08:26:40Z</time>
      </trkpt>
      <trkpt lat="39.7339293547" lon="-6.4482118562">
        <ele>238.06</ele>
        <time>2020-07-15T08:26:49Z</time>
      </trkpt>
      <trkpt lat="39.7341545764" lon="-6.4480935875">
        <ele>238.06</ele>
        <time>2020-07-15T08:26:57Z</time>
      </trkpt>
      <trkpt lat="39.7344117332" lon="-6.4479880594">
        <ele>237.58</ele>
        <time>2020-07-15T08:27:05Z</time>
      </trkpt>
      <trkpt lat="39.7347600851" lon="-6.4478474949">
        <ele>237.58</ele>
        <time>2020-07-15T08:27:14Z</time>
      </trkpt>
      <trkpt lat="39.7351148073" lon="-6.4477161504">
        <ele>237.58</ele>
        <time>2020-07-15T08:27:24Z</time>
      </trkpt>
      <trkpt lat="39.7355011292" lon="-6.4475799445">
        <ele>237.58</ele>
        <time>2020-07-15T08:27:34Z</time>
      </trkpt>
      <trkpt lat="39.7358123492" lon="-6.4474703092">
        <ele>237.10</ele>
        <time>2020-07-15T08:27:43Z</time>
      </trkpt>
      <trkpt lat="39.7361864336" lon="-6.4473334327">
        <ele>236.14</ele>
        <time>2020-07-15T08:27:53Z</time>
      </trkpt>
      <trkpt lat="39.7365609370" lon="-6.4471996576">
        <ele>236.14</ele>
        <time>2020-07-15T08:28:03Z</time>
      </trkpt>
      <trkpt lat="39.7368852329" lon="-6.4470775332">
        <ele>235.18</ele>
        <time>2020-07-15T08:28:12Z</time>
      </trkpt>
      <trkpt lat="39.7372191679" lon="-6.4469549060">
        <ele>234.70</ele>
        <time>2020-07-15T08:28:21Z</time>
      </trkpt>
      <trkpt lat="39.7375383507" lon="-6.4468010981">
        <ele>234.22</ele>
        <time>2020-07-15T08:28:30Z</time>
      </trkpt>
      <trkpt lat="39.7378241736" lon="-6.4466410875">
        <ele>233.74</ele>
        <time>2020-07-15T08:28:39Z</time>
      </trkpt>
      <trkpt lat="39.7381707653" lon="-6.4463660773">
        <ele>234.22</ele>
        <time>2020-07-15T08:28:50Z</time>
      </trkpt>
      <trkpt lat="39.7385078017" lon="-6.4460417815">
        <ele>234.70</ele>
        <time>2020-07-15T08:29:01Z</time>
      </trkpt>
      <trkpt lat="39.7387514636" lon="-6.4457693696">
        <ele>234.22</ele>
        <time>2020-07-15T08:29:10Z</time>
      </trkpt>
      <trkpt lat="39.7389738355" lon="-6.4454923477">
        <ele>234.22</ele>
        <time>2020-07-15T08:29:19Z</time>
      </trkpt>
      <trkpt lat="39.7391711455" lon="-6.4452411421">
        <ele>234.70</ele>
        <time>2020-07-15T08:29:27Z</time>
      </trkpt>
      <trkpt lat="39.7393754125" lon="-6.4449993242">
        <ele>235.18</ele>
        <time>2020-07-15T08:29:35Z</time>
      </trkpt>
      <trkpt lat="39.7395906597" lon="-6.4447508845">
        <ele>235.18</ele>
        <time>2020-07-15T08:29:43Z</time>
      </trkpt>
      <trkpt lat="39.7398437094" lon="-6.4444782212">
        <ele>234.70</ele>
        <time>2020-07-15T08:29:52Z</time>
      </trkpt>
      <trkpt lat="39.7401324660" lon="-6.4442006126">
        <ele>234.22</ele>
        <time>2020-07-15T08:30:02Z</time>
      </trkpt>
      <trkpt lat="39.7403721884" lon="-6.4439976029">
        <ele>233.26</ele>
        <time>2020-07-15T08:30:10Z</time>
      </trkpt>
      <trkpt lat="39.7406164370" lon="-6.4437992033">
        <ele>232.78</ele>
        <time>2020-07-15T08:30:19Z</time>
      </trkpt>
      <trkpt lat="39.7408077959" lon="-6.4436532743">
        <ele>232.78</ele>
        <time>2020-07-15T08:30:26Z</time>
      </trkpt>
      <trkpt lat="39.7411102988" lon="-6.4434213471">
        <ele>232.30</ele>
        <time>2020-07-15T08:30:36Z</time>
      </trkpt>
      <trkpt lat="39.7413530387" lon="-6.4432351012">
        <ele>232.30</ele>
        <time>2020-07-15T08:30:44Z</time>
      </trkpt>
      <trkpt lat="39.7416977026" lon="-6.4429674670">
        <ele>231.81</ele>
        <time>2020-07-15T08:30:55Z</time>
      </trkpt>
      <trkpt lat="39.7419096809" lon="-6.4428085461">
        <ele>231.81</ele>
        <time>2020-07-15T08:31:02Z</time>
      </trkpt>
      <trkpt lat="39.7422400117" lon="-6.4425566699">
        <ele>231.33</ele>
        <time>2020-07-15T08:31:12Z</time>
      </trkpt>
      <trkpt lat="39.7425462864" lon="-6.4423284307">
        <ele>230.85</ele>
        <time>2020-07-15T08:31:21Z</time>
      </trkpt>
      <trkpt lat="39.7428783774" lon="-6.4420797396">
        <ele>230.37</ele>
        <time>2020-07-15T08:31:31Z</time>
      </trkpt>
      <trkpt lat="39.7432304174" lon="-6.4418064058">
        <ele>229.89</ele>
        <time>2020-07-15T08:31:41Z</time>
      </trkpt>
      <trkpt lat="39.7435407992" lon="-6.4415773284">
        <ele>229.89</ele>
        <time>2020-07-15T08:31:50Z</time>
      </trkpt>
      <trkpt lat="39.7438788414" lon="-6.4413157292">
        <ele>228.93</ele>
        <time>2020-07-15T08:32:00Z</time>
      </trkpt>
      <trkpt lat="39.7441914026" lon="-6.4410874061">
        <ele>227.97</ele>
        <time>2020-07-15T08:32:09Z</time>
      </trkpt>
      <trkpt lat="39.7445699293" lon="-6.4407914411">
        <ele>228.45</ele>
        <time>2020-07-15T08:32:20Z</time>
      </trkpt>
      <trkpt lat="39.7449044511" lon="-6.4405409060">
        <ele>227.97</ele>
        <time>2020-07-15T08:32:30Z</time>
      </trkpt>
      <trkpt lat="39.7451797966" lon="-6.4403248206">
        <ele>228.45</ele>
        <time>2020-07-15T08:32:39Z</time>
      </trkpt>
      <trkpt lat="39.7454251349" lon="-6.4401453640">
        <ele>228.93</ele>
        <time>2020-07-15T08:32:47Z</time>
      </trkpt>
      <trkpt lat="39.7456661146" lon="-6.4399533346">
        <ele>228.45</ele>
        <time>2020-07-15T08:32:55Z</time>
      </trkpt>
      <trkpt lat="39.7459275462" lon="-6.4397599641">
        <ele>228.45</ele>
        <time>2020-07-15T08:33:04Z</time>
      </trkpt>
      <trkpt lat="39.7461645026" lon="-6.4395836927">
        <ele>228.93</ele>
        <time>2020-07-15T08:33:12Z</time>
      </trkpt>
      <trkpt lat="39.7465451248" lon="-6.4392937627">
        <ele>228.45</ele>
        <time>2020-07-15T08:33:24Z</time>
      </trkpt>
      <trkpt lat="39.7468052153" lon="-6.4390899148">
        <ele>228.93</ele>
        <time>2020-07-15T08:33:33Z</time>
      </trkpt>
      <trkpt lat="39.7471390665" lon="-6.4388370328">
        <ele>229.41</ele>
        <time>2020-07-15T08:33:44Z</time>
      </trkpt>
      <trkpt lat="39.7474918608" lon="-6.4385679737">
        <ele>229.41</ele>
        <time>2020-07-15T08:33:56Z</time>
      </trkpt>
      <trkpt lat="39.7478088643" lon="-6.4383282512">
        <ele>229.89</ele>
        <time>2020-07-15T08:34:06Z</time>
      </trkpt>
      <trkpt lat="39.7481665201" lon="-6.4380798955">
        <ele>229.89</ele>
        <time>2020-07-15T08:34:17Z</time>
      </trkpt>
      <trkpt lat="39.7485614754" lon="-6.4378659055">
        <ele>230.37</ele>
        <time>2020-07-15T08:34:29Z</time>
      </trkpt>
      <trkpt lat="39.7488408443" lon="-6.4377436973">
        <ele>230.37</ele>
        <time>2020-07-15T08:34:38Z</time>
      </trkpt>
      <trkpt lat="39.7490650602" lon="-6.4376592916">
        <ele>231.33</ele>
        <time>2020-07-15T08:34:46Z</time>
      </trkpt>
      <trkpt lat="39.7493549902" lon="-6.4375707787">
        <ele>231.33</ele>
        <time>2020-07-15T08:34:54Z</time>
      </trkpt>
      <trkpt lat="39.7496828064" lon="-6.4374660049">
        <ele>230.85</ele>
        <time>2020-07-15T08:35:03Z</time>
      </trkpt>
      <trkpt lat="39.7500267997" lon="-6.4373538550">
        <ele>230.85</ele>
        <time>2020-07-15T08:35:12Z</time>
      </trkpt>
      <trkpt lat="39.7503842879" lon="-6.4372073393">
        <ele>230.37</ele>
        <time>2020-07-15T08:35:22Z</time>
      </trkpt>
      <trkpt lat="39.7506582085" lon="-6.4370539505">
        <ele>230.37</ele>
        <time>2020-07-15T08:35:31Z</time>
      </trkpt>
      <trkpt lat="39.7508079931" lon="-6.4369440638">
        <ele>230.37</ele>
        <time>2020-07-15T08:35:39Z</time>
      </trkpt>
      <trkpt lat="39.7508157045" lon="-6.4369407110">
        <ele>230.37</ele>
        <time>2020-07-15T08:35:44Z</time>
      </trkpt>
      <trkpt lat="39.7508156206" lon="-6.4369503502">
        <ele>230.37</ele>
        <time>2020-07-15T08:35:57Z</time>
      </trkpt>
      <trkpt lat="39.7508154530" lon="-6.4369251207">
        <ele>231.33</ele>
        <time>2020-07-15T08:36:19Z</time>
      </trkpt>
      <trkpt lat="39.7508113459" lon="-6.4369518589">
        <ele>231.81</ele>
        <time>2020-07-15T08:36:47Z</time>
      </trkpt>
      <trkpt lat="39.7508128546" lon="-6.4369377773">
        <ele>230.85</ele>
        <time>2020-07-15T08:37:09Z</time>
      </trkpt>
      <trkpt lat="39.7508056462" lon="-6.4369419683">
        <ele>233.26</ele>
        <time>2020-07-15T08:37:30Z</time>
      </trkpt>
      <trkpt lat="39.7508144472" lon="-6.4369272999">
        <ele>230.37</ele>
        <time>2020-07-15T08:37:54Z</time>
      </trkpt>
      <trkpt lat="39.7508121841" lon="-6.4369377773">
        <ele>230.85</ele>
        <time>2020-07-15T08:38:16Z</time>
      </trkpt>
      <trkpt lat="39.7508104239" lon="-6.4369249530">
        <ele>232.30</ele>
        <time>2020-07-15T08:38:37Z</time>
      </trkpt>
      <trkpt lat="39.7508084122" lon="-6.4369292278">
        <ele>231.81</ele>
        <time>2020-07-15T08:39:01Z</time>
      </trkpt>
      <trkpt lat="39.7508139443" lon="-6.4369241148">
        <ele>231.33</ele>
        <time>2020-07-15T08:39:17Z</time>
      </trkpt>
      <trkpt lat="39.7508735396" lon="-6.4368894137">
        <ele>231.33</ele>
        <time>2020-07-15T08:39:25Z</time>
      </trkpt>
      <trkpt lat="39.7509710211" lon="-6.4368171617">
        <ele>231.81</ele>
        <time>2020-07-15T08:39:37Z</time>
      </trkpt>
      <trkpt lat="39.7509727813" lon="-6.4368009847">
        <ele>233.74</ele>
        <time>2020-07-15T08:39:56Z</time>
      </trkpt>
      <trkpt lat="39.7509726137" lon="-6.4368136413">
        <ele>232.78</ele>
        <time>2020-07-15T08:40:09Z</time>
      </trkpt>
      <trkpt lat="39.7509700153" lon="-6.4368095342">
        <ele>234.22</ele>
        <time>2020-07-15T08:40:26Z</time>
      </trkpt>
      <trkpt lat="39.7509757988" lon="-6.4368014876">
        <ele>233.26</ele>
        <time>2020-07-15T08:40:46Z</time>
      </trkpt>
      <trkpt lat="39.7509569395" lon="-6.4368157368">
        <ele>233.74</ele>
        <time>2020-07-15T08:41:13Z</time>
      </trkpt>
      <trkpt lat="39.7509623878" lon="-6.4368209336">
        <ele>234.70</ele>
        <time>2020-07-15T08:41:44Z</time>
      </trkpt>
      <trkpt lat="39.7509700991" lon="-6.4368238673">
        <ele>234.70</ele>
        <time>2020-07-15T08:42:05Z</time>
      </trkpt>
      <trkpt lat="39.7509702668" lon="-6.4368260466">
        <ele>233.74</ele>
        <time>2020-07-15T08:42:31Z</time>
      </trkpt>
      <trkpt lat="39.7509617172" lon="-6.4368238673">
        <ele>233.26</ele>
        <time>2020-07-15T08:42:54Z</time>
      </trkpt>
      <trkpt lat="39.7509571072" lon="-6.4368152339">
        <ele>235.18</ele>
        <time>2020-07-15T08:43:15Z</time>
      </trkpt>
      <trkpt lat="39.7509619687" lon="-6.4368167426">
        <ele>234.70</ele>
        <time>2020-07-15T08:43:30Z</time>
      </trkpt>
      <trkpt lat="39.7509586997" lon="-6.4368247055">
        <ele>233.74</ele>
        <time>2020-07-15T08:43:38Z</time>
      </trkpt>
      <trkpt lat="39.7510123439" lon="-6.4367822930">
        <ele>233.26</ele>
        <time>2020-07-15T08:43:44Z</time>
      </trkpt>
      <trkpt lat="39.7512372304" lon="-6.4365911018">
        <ele>233.26</ele>
        <time>2020-07-15T08:43:54Z</time>
      </trkpt>
      <trkpt lat="39.7514912859" lon="-6.4363917802">
        <ele>233.74</ele>
        <time>2020-07-15T08:44:03Z</time>
      </trkpt>
      <trkpt lat="39.7517662961" lon="-6.4361609425">
        <ele>233.74</ele>
        <time>2020-07-15T08:44:13Z</time>
      </trkpt>
      <trkpt lat="39.7521473374" lon="-6.4358385745">
        <ele>233.26</ele>
        <time>2020-07-15T08:44:25Z</time>
      </trkpt>
      <trkpt lat="39.7524360940" lon="-6.4355687611">
        <ele>233.26</ele>
        <time>2020-07-15T08:44:35Z</time>
      </trkpt>
      <trkpt lat="39.7528089210" lon="-6.4351665974">
        <ele>233.26</ele>
        <time>2020-07-15T08:44:49Z</time>
      </trkpt>
      <trkpt lat="39.7530580312" lon="-6.4348446485">
        <ele>233.74</ele>
        <time>2020-07-15T08:44:58Z</time>
      </trkpt>
      <trkpt lat="39.7533565946" lon="-6.4344548900">
        <ele>233.74</ele>
        <time>2020-07-15T08:45:09Z</time>
      </trkpt>
      <trkpt lat="39.7536277492" lon="-6.4340943005">
        <ele>233.74</ele>
        <time>2020-07-15T08:45:20Z</time>
      </trkpt>
      <trkpt lat="39.7538486961" lon="-6.4337860979">
        <ele>233.74</ele>
        <time>2020-07-15T08:45:30Z</time>
      </trkpt>
      <trkpt lat="39.7539716586" lon="-6.4336334635">
        <ele>234.22</ele>
        <time>2020-07-15T08:45:36Z</time>
      </trkpt>
      <trkpt lat="39.7541279811" lon="-6.4334133547">
        <ele>234.70</ele>
        <time>2020-07-15T08:45:44Z</time>
      </trkpt>
      <trkpt lat="39.7543599084" lon="-6.4331122767">
        <ele>234.70</ele>
        <time>2020-07-15T08:45:54Z</time>
      </trkpt>
      <trkpt lat="39.7545619961" lon="-6.4328418765">
        <ele>235.66</ele>
        <time>2020-07-15T08:46:03Z</time>
      </trkpt>
      <trkpt lat="39.7548457235" lon="-6.4324713126">
        <ele>235.18</ele>
        <time>2020-07-15T08:46:15Z</time>
      </trkpt>
      <trkpt lat="39.7550624795" lon="-6.4321965538">
        <ele>235.18</ele>
        <time>2020-07-15T08:46:24Z</time>
      </trkpt>
      <trkpt lat="39.7553560976" lon="-6.4318570029">
        <ele>235.18</ele>
        <time>2020-07-15T08:46:36Z</time>
      </trkpt>
      <trkpt lat="39.7556382325" lon="-6.4316132572">
        <ele>234.70</ele>
        <time>2020-07-15T08:46:45Z</time>
      </trkpt>
      <trkpt lat="39.7560244706" lon="-6.4313771389">
        <ele>234.70</ele>
        <time>2020-07-15T08:46:55Z</time>
      </trkpt>
      <trkpt lat="39.7560632788" lon="-6.4313612971">
        <ele>234.70</ele>
        <time>2020-07-15T08:46:56Z</time>
      </trkpt>
      <trkpt lat="39.7562168352" lon="-6.4312935714">
        <ele>234.22</ele>
        <time>2020-07-15T08:47:00Z</time>
      </trkpt>
      <trkpt lat="39.7562591638" lon="-6.4312788192">
        <ele>234.22</ele>
        <time>2020-07-15T08:47:01Z</time>
      </trkpt>
      <trkpt lat="39.7565643489" lon="-6.4311858639">
        <ele>233.74</ele>
        <time>2020-07-15T08:47:09Z</time>
      </trkpt>
      <trkpt lat="39.7568187397" lon="-6.4311584551">
        <ele>233.74</ele>
        <time>2020-07-15T08:47:15Z</time>
      </trkpt>
      <trkpt lat="39.7572561074" lon="-6.4311827626">
        <ele>233.74</ele>
        <time>2020-07-15T08:47:25Z</time>
      </trkpt>
      <trkpt lat="39.7577217221" lon="-6.4313159510">
        <ele>233.26</ele>
        <time>2020-07-15T08:47:36Z</time>
      </trkpt>
      <trkpt lat="39.7582308389" lon="-6.4315494709">
        <ele>232.30</ele>
        <time>2020-07-15T08:47:48Z</time>
      </trkpt>
      <trkpt lat="39.7586307395" lon="-6.4317397401">
        <ele>232.30</ele>
        <time>2020-07-15T08:47:58Z</time>
      </trkpt>
      <trkpt lat="39.7587165702" lon="-6.4317752793">
        <ele>232.30</ele>
        <time>2020-07-15T08:48:00Z</time>
      </trkpt>
      <trkpt lat="39.7591788322" lon="-6.4319687337">
        <ele>232.78</ele>
        <time>2020-07-15T08:48:11Z</time>
      </trkpt>
      <trkpt lat="39.7596028727" lon="-6.4321711566">
        <ele>233.74</ele>
        <time>2020-07-15T08:48:22Z</time>
      </trkpt>
      <trkpt lat="39.7598981671" lon="-6.4323186781">
        <ele>233.74</ele>
        <time>2020-07-15T08:48:30Z</time>
      </trkpt>
      <trkpt lat="39.7602724191" lon="-6.4325053431">
        <ele>234.22</ele>
        <time>2020-07-15T08:48:40Z</time>
      </trkpt>
      <trkpt lat="39.7606529575" lon="-6.4326850511">
        <ele>234.22</ele>
        <time>2020-07-15T08:48:50Z</time>
      </trkpt>
      <trkpt lat="39.7609699611" lon="-6.4328456484">
        <ele>234.22</ele>
        <time>2020-07-15T08:48:59Z</time>
      </trkpt>
      <trkpt lat="39.7613539360" lon="-6.4330327325">
        <ele>234.70</ele>
        <time>2020-07-15T08:49:10Z</time>
      </trkpt>
      <trkpt lat="39.7617174592" lon="-6.4331889711">
        <ele>235.66</ele>
        <time>2020-07-15T08:49:20Z</time>
      </trkpt>
      <trkpt lat="39.7620487958" lon="-6.4332732931">
        <ele>236.14</ele>
        <time>2020-07-15T08:49:29Z</time>
      </trkpt>
      <trkpt lat="39.7623587586" lon="-6.4332810044">
        <ele>237.10</ele>
        <time>2020-07-15T08:49:38Z</time>
      </trkpt>
      <trkpt lat="39.7626584955" lon="-6.4332356583">
        <ele>237.58</ele>
        <time>2020-07-15T08:49:46Z</time>
      </trkpt>
      <trkpt lat="39.7630283050" lon="-6.4330927469">
        <ele>237.58</ele>
        <time>2020-07-15T08:49:57Z</time>
      </trkpt>
      <trkpt lat="39.7633265331" lon="-6.4329127874">
        <ele>238.06</ele>
        <time>2020-07-15T08:50:06Z</time>
      </trkpt>
      <trkpt lat="39.7635582928" lon="-6.4327125438">
        <ele>237.58</ele>
        <time>2020-07-15T08:50:14Z</time>
      </trkpt>
      <trkpt lat="39.7638146114" lon="-6.4324777666">
        <ele>237.58</ele>
        <time>2020-07-15T08:50:23Z</time>
      </trkpt>
      <trkpt lat="39.7641306091" lon="-6.4321531355">
        <ele>238.06</ele>
        <time>2020-07-15T08:50:34Z</time>
      </trkpt>
      <trkpt lat="39.7644121572" lon="-6.4318403229">
        <ele>239.51</ele>
        <time>2020-07-15T08:50:44Z</time>
      </trkpt>
      <trkpt lat="39.7646914423" lon="-6.4315449446">
        <ele>239.99</ele>
        <time>2020-07-15T08:50:54Z</time>
      </trkpt>
      <trkpt lat="39.7649102937" lon="-6.4313439466">
        <ele>240.47</ele>
        <time>2020-07-15T08:51:02Z</time>
      </trkpt>
      <trkpt lat="39.7650947794" lon="-6.4312150329">
        <ele>240.47</ele>
        <time>2020-07-15T08:51:10Z</time>
      </trkpt>
      <trkpt lat="39.7652494255" lon="-6.4311236702">
        <ele>241.91</ele>
        <time>2020-07-15T08:51:17Z</time>
      </trkpt>
      <trkpt lat="39.7655032296" lon="-6.4310024679">
        <ele>243.35</ele>
        <time>2020-07-15T08:51:28Z</time>
      </trkpt>
      <trkpt lat="39.7657221649" lon="-6.4309369214">
        <ele>243.35</ele>
        <time>2020-07-15T08:51:37Z</time>
      </trkpt>
      <trkpt lat="39.7659423575" lon="-6.4308750629">
        <ele>244.79</ele>
        <time>2020-07-15T08:51:46Z</time>
      </trkpt>
      <trkpt lat="39.7660433594" lon="-6.4308396913">
        <ele>245.75</ele>
        <time>2020-07-15T08:51:53Z</time>
      </trkpt>
      <trkpt lat="39.7660394199" lon="-6.4308457263">
        <ele>245.75</ele>
        <time>2020-07-15T08:52:01Z</time>
      </trkpt>
      <trkpt lat="39.7660456225" lon="-6.4308303036">
        <ele>247.68</ele>
        <time>2020-07-15T08:52:25Z</time>
      </trkpt>
      <trkpt lat="39.7660479695" lon="-6.4308663458">
        <ele>248.64</ele>
        <time>2020-07-15T08:52:57Z</time>
      </trkpt>
      <trkpt lat="39.7660572734" lon="-6.4308670163">
        <ele>249.12</ele>
        <time>2020-07-15T08:53:29Z</time>
      </trkpt>
      <trkpt lat="39.7660527471" lon="-6.4308525156">
        <ele>247.68</ele>
        <time>2020-07-15T08:53:39Z</time>
      </trkpt>
      <trkpt lat="39.7660823353" lon="-6.4308540244">
        <ele>245.27</ele>
        <time>2020-07-15T08:53:54Z</time>
      </trkpt>
      <trkpt lat="39.7661488876" lon="-6.4308209997">
        <ele>245.27</ele>
        <time>2020-07-15T08:54:03Z</time>
      </trkpt>
      <trkpt lat="39.7661887016" lon="-6.4308138750">
        <ele>245.27</ele>
        <time>2020-07-15T08:54:10Z</time>
      </trkpt>
      <trkpt lat="39.7663865145" lon="-6.4307378512">
        <ele>246.72</ele>
        <time>2020-07-15T08:54:19Z</time>
      </trkpt>
      <trkpt lat="39.7667073738" lon="-6.4306479134">
        <ele>247.20</ele>
        <time>2020-07-15T08:54:32Z</time>
      </trkpt>
      <trkpt lat="39.7669328470" lon="-6.4305987954">
        <ele>247.68</ele>
        <time>2020-07-15T08:54:41Z</time>
      </trkpt>
      <trkpt lat="39.7671609186" lon="-6.4305509347">
        <ele>248.64</ele>
        <time>2020-07-15T08:54:50Z</time>
      </trkpt>
      <trkpt lat="39.7674078494" lon="-6.4305013977">
        <ele>249.12</ele>
        <time>2020-07-15T08:54:59Z</time>
      </trkpt>
      <trkpt lat="39.7676318139" lon="-6.4303736575">
        <ele>249.12</ele>
        <time>2020-07-15T08:55:07Z</time>
      </trkpt>
      <trkpt lat="39.7678813431" lon="-6.4301750064">
        <ele>248.16</ele>
        <time>2020-07-15T08:55:17Z</time>
      </trkpt>
      <trkpt lat="39.7681056429" lon="-6.4299986511">
        <ele>248.16</ele>
        <time>2020-07-15T08:55:26Z</time>
      </trkpt>
      <trkpt lat="39.7683482990" lon="-6.4297871757">
        <ele>248.16</ele>
        <time>2020-07-15T08:55:36Z</time>
      </trkpt>
      <trkpt lat="39.7686018515" lon="-6.4295635466">
        <ele>247.20</ele>
        <time>2020-07-15T08:55:47Z</time>
      </trkpt>
      <trkpt lat="39.7688238043" lon="-6.4293459523">
        <ele>247.68</ele>
        <time>2020-07-15T08:55:57Z</time>
      </trkpt>
      <trkpt lat="39.7690193541" lon="-6.4291486423">
        <ele>248.16</ele>
        <time>2020-07-15T08:56:06Z</time>
      </trkpt>
      <trkpt lat="39.7692687158" lon="-6.4289086685">
        <ele>249.12</ele>
        <time>2020-07-15T08:56:17Z</time>
      </trkpt>
      <trkpt lat="39.7694874834" lon="-6.4286732208">
        <ele>249.12</ele>
        <time>2020-07-15T08:56:27Z</time>
      </trkpt>
      <trkpt lat="39.7696645092" lon="-6.4283214323">
        <ele>250.08</ele>
        <time>2020-07-15T08:56:38Z</time>
      </trkpt>
      <trkpt lat="39.7697095200" lon="-6.4280569833">
        <ele>251.04</ele>
        <time>2020-07-15T08:56:45Z</time>
      </trkpt>
      <trkpt lat="39.7697562911" lon="-6.4277577493">
        <ele>252.00</ele>
        <time>2020-07-15T08:56:53Z</time>
      </trkpt>
      <trkpt lat="39.7698132042" lon="-6.4275043644">
        <ele>252.96</ele>
        <time>2020-07-15T08:57:02Z</time>
      </trkpt>
      <trkpt lat="39.7699158825" lon="-6.4272308629">
        <ele>252.96</ele>
        <time>2020-07-15T08:57:12Z</time>
      </trkpt>
      <trkpt lat="39.7700380906" lon="-6.4270180464">
        <ele>252.48</ele>
        <time>2020-07-15T08:57:20Z</time>
      </trkpt>
      <trkpt lat="39.7702100873" lon="-6.4267536812">
        <ele>252.00</ele>
        <time>2020-07-15T08:57:30Z</time>
      </trkpt>
      <trkpt lat="39.7704267595" lon="-6.4264258649">
        <ele>252.48</ele>
        <time>2020-07-15T08:57:42Z</time>
      </trkpt>
      <trkpt lat="39.7705948167" lon="-6.4261472505">
        <ele>253.44</ele>
        <time>2020-07-15T08:57:52Z</time>
      </trkpt>
      <trkpt lat="39.7706961539" lon="-6.4258150756">
        <ele>253.93</ele>
        <time>2020-07-15T08:58:02Z</time>
      </trkpt>
      <trkpt lat="39.7707192879" lon="-6.4254883491">
        <ele>254.89</ele>
        <time>2020-07-15T08:58:12Z</time>
      </trkpt>
      <trkpt lat="39.7707636282" lon="-6.4251885284">
        <ele>255.37</ele>
        <time>2020-07-15T08:58:21Z</time>
      </trkpt>
      <trkpt lat="39.7708509676" lon="-6.4248683397">
        <ele>255.85</ele>
        <time>2020-07-15T08:58:31Z</time>
      </trkpt>
      <trkpt lat="39.7709730919" lon="-6.4245152939">
        <ele>256.33</ele>
        <time>2020-07-15T08:58:42Z</time>
      </trkpt>
      <trkpt lat="39.7710381355" lon="-6.4243151341">
        <ele>256.33</ele>
        <time>2020-07-15T08:58:48Z</time>
      </trkpt>
      <trkpt lat="39.7711462621" lon="-6.4240020700">
        <ele>255.85</ele>
        <time>2020-07-15T08:58:57Z</time>
      </trkpt>
      <trkpt lat="39.7712509520" lon="-6.4236857370">
        <ele>255.85</ele>
        <time>2020-07-15T08:59:06Z</time>
      </trkpt>
      <trkpt lat="39.7713483498" lon="-6.4233684819">
        <ele>255.37</ele>
        <time>2020-07-15T08:59:15Z</time>
      </trkpt>
      <trkpt lat="39.7714361083" lon="-6.4230684936">
        <ele>254.41</ele>
        <time>2020-07-15T08:59:23Z</time>
      </trkpt>
      <trkpt lat="39.7715097014" lon="-6.4227204770">
        <ele>254.89</ele>
        <time>2020-07-15T08:59:32Z</time>
      </trkpt>
      <trkpt lat="39.7715760022" lon="-6.4223267790">
        <ele>254.41</ele>
        <time>2020-07-15T08:59:42Z</time>
      </trkpt>
      <trkpt lat="39.7716277186" lon="-6.4220361784">
        <ele>253.44</ele>
        <time>2020-07-15T08:59:50Z</time>
      </trkpt>
      <trkpt lat="39.7717003059" lon="-6.4216454141">
        <ele>254.41</ele>
        <time>2020-07-15T09:00:00Z</time>
      </trkpt>
      <trkpt lat="39.7717706300" lon="-6.4212379698">
        <ele>254.41</ele>
        <time>2020-07-15T09:00:11Z</time>
      </trkpt>
      <trkpt lat="39.7719083447" lon="-6.4208117500">
        <ele>254.41</ele>
        <time>2020-07-15T09:00:23Z</time>
      </trkpt>
      <trkpt lat="39.7721132822" lon="-6.4204535075">
        <ele>254.41</ele>
        <time>2020-07-15T09:00:34Z</time>
      </trkpt>
      <trkpt lat="39.7723312117" lon="-6.4200935885">
        <ele>254.41</ele>
        <time>2020-07-15T09:00:45Z</time>
      </trkpt>
      <trkpt lat="39.7725045495" lon="-6.4198060054">
        <ele>254.89</ele>
        <time>2020-07-15T09:00:55Z</time>
      </trkpt>
      <trkpt lat="39.7726836707" lon="-6.4195287321">
        <ele>255.37</ele>
        <time>2020-07-15T09:01:05Z</time>
      </trkpt>
      <trkpt lat="39.7728209663" lon="-6.4193150774">
        <ele>255.85</ele>
        <time>2020-07-15T09:01:13Z</time>
      </trkpt>
      <trkpt lat="39.7729289252" lon="-6.4191386383">
        <ele>256.81</ele>
        <time>2020-07-15T09:01:20Z</time>
      </trkpt>
      <trkpt lat="39.7730589285" lon="-6.4189270791">
        <ele>256.81</ele>
        <time>2020-07-15T09:01:29Z</time>
      </trkpt>
      <trkpt lat="39.7732347809" lon="-6.4186595287">
        <ele>257.29</ele>
        <time>2020-07-15T09:01:40Z</time>
      </trkpt>
      <trkpt lat="39.7734168358" lon="-6.4184252545">
        <ele>257.77</ele>
        <time>2020-07-15T09:01:50Z</time>
      </trkpt>
      <trkpt lat="39.7735870723" lon="-6.4182165451">
        <ele>258.25</ele>
        <time>2020-07-15T09:01:59Z</time>
      </trkpt>
      <trkpt lat="39.7736828774" lon="-6.4180991985">
        <ele>258.73</ele>
        <time>2020-07-15T09:02:06Z</time>
      </trkpt>
      <trkpt lat="39.7738071810" lon="-6.4179706201">
        <ele>259.69</ele>
        <time>2020-07-15T09:02:12Z</time>
      </trkpt>
      <trkpt lat="39.7739643417" lon="-6.4177674428">
        <ele>260.65</ele>
        <time>2020-07-15T09:02:20Z</time>
      </trkpt>
      <trkpt lat="39.7741510905" lon="-6.4175737370">
        <ele>260.65</ele>
        <time>2020-07-15T09:02:29Z</time>
      </trkpt>
      <trkpt lat="39.7743834369" lon="-6.4173726551">
        <ele>260.65</ele>
        <time>2020-07-15T09:02:40Z</time>
      </trkpt>
      <trkpt lat="39.7745976783" lon="-6.4172154106">
        <ele>261.14</ele>
        <time>2020-07-15T09:02:50Z</time>
      </trkpt>
      <trkpt lat="39.7748414241" lon="-6.4170540590">
        <ele>261.62</ele>
        <time>2020-07-15T09:03:01Z</time>
      </trkpt>
      <trkpt lat="39.7751117405" lon="-6.4168732613">
        <ele>262.10</ele>
        <time>2020-07-15T09:03:13Z</time>
      </trkpt>
      <trkpt lat="39.7753279097" lon="-6.4167329483">
        <ele>262.10</ele>
        <time>2020-07-15T09:03:22Z</time>
      </trkpt>
      <trkpt lat="39.7755611781" lon="-6.4165767096">
        <ele>262.10</ele>
        <time>2020-07-15T09:03:32Z</time>
      </trkpt>
      <trkpt lat="39.7758016549" lon="-6.4163766336">
        <ele>262.58</ele>
        <time>2020-07-15T09:03:43Z</time>
      </trkpt>
      <trkpt lat="39.7759724781" lon="-6.4161853585">
        <ele>263.54</ele>
        <time>2020-07-15T09:03:52Z</time>
      </trkpt>
      <trkpt lat="39.7761158925" lon="-6.4159678482">
        <ele>264.50</ele>
        <time>2020-07-15T09:04:01Z</time>
      </trkpt>
      <trkpt lat="39.7762422077" lon="-6.4156974480">
        <ele>265.94</ele>
        <time>2020-07-15T09:04:11Z</time>
      </trkpt>
      <trkpt lat="39.7763665114" lon="-6.4153518621">
        <ele>266.90</ele>
        <time>2020-07-15T09:04:23Z</time>
      </trkpt>
      <trkpt lat="39.7764886357" lon="-6.4150042646">
        <ele>267.38</ele>
        <time>2020-07-15T09:04:35Z</time>
      </trkpt>
      <trkpt lat="39.7765706107" lon="-6.4147818089">
        <ele>268.35</ele>
        <time>2020-07-15T09:04:43Z</time>
      </trkpt>
      <trkpt lat="39.7766597103" lon="-6.4145325311">
        <ele>268.35</ele>
        <time>2020-07-15T09:04:52Z</time>
      </trkpt>
      <trkpt lat="39.7767651547" lon="-6.4142171200">
        <ele>269.31</ele>
        <time>2020-07-15T09:05:03Z</time>
      </trkpt>
      <trkpt lat="39.7768597864" lon="-6.4139500726">
        <ele>269.79</ele>
        <time>2020-07-15T09:05:13Z</time>
      </trkpt>
      <trkpt lat="39.7769397497" lon="-6.4137214143">
        <ele>270.27</ele>
        <time>2020-07-15T09:05:22Z</time>
      </trkpt>
      <trkpt lat="39.7770287655" lon="-6.4134837035">
        <ele>270.75</ele>
        <time>2020-07-15T09:05:31Z</time>
      </trkpt>
      <trkpt lat="39.7771191224" lon="-6.4132397063">
        <ele>271.23</ele>
        <time>2020-07-15T09:05:40Z</time>
      </trkpt>
      <trkpt lat="39.7772126645" lon="-6.4129791129">
        <ele>271.23</ele>
        <time>2020-07-15T09:05:49Z</time>
      </trkpt>
      <trkpt lat="39.7772935499" lon="-6.4127486944">
        <ele>271.23</ele>
        <time>2020-07-15T09:05:57Z</time>
      </trkpt>
      <trkpt lat="39.7773748543" lon="-6.4125313517">
        <ele>271.23</ele>
        <time>2020-07-15T09:06:05Z</time>
      </trkpt>
      <trkpt lat="39.7774422448" lon="-6.4122549165">
        <ele>271.23</ele>
        <time>2020-07-15T09:06:14Z</time>
      </trkpt>
      <trkpt lat="39.7774322703" lon="-6.4119550958">
        <ele>271.71</ele>
        <time>2020-07-15T09:06:22Z</time>
      </trkpt>
      <trkpt lat="39.7773912828" lon="-6.4115430415">
        <ele>271.23</ele>
        <time>2020-07-15T09:06:33Z</time>
      </trkpt>
      <trkpt lat="39.7773534805" lon="-6.4112188295">
        <ele>271.71</ele>
        <time>2020-07-15T09:06:42Z</time>
      </trkpt>
      <trkpt lat="39.7772518080" lon="-6.4107615966">
        <ele>272.19</ele>
        <time>2020-07-15T09:06:55Z</time>
      </trkpt>
      <trkpt lat="39.7771421727" lon="-6.4103464410">
        <ele>273.15</ele>
        <time>2020-07-15T09:07:08Z</time>
      </trkpt>
      <trkpt lat="39.7770773806" lon="-6.4100440219">
        <ele>274.59</ele>
        <time>2020-07-15T09:07:18Z</time>
      </trkpt>
      <trkpt lat="39.7770725191" lon="-6.4096973464">
        <ele>275.56</ele>
        <time>2020-07-15T09:07:29Z</time>
      </trkpt>
      <trkpt lat="39.7771561705" lon="-6.4093091805">
        <ele>276.52</ele>
        <time>2020-07-15T09:07:41Z</time>
      </trkpt>
      <trkpt lat="39.7772205435" lon="-6.4090602379">
        <ele>276.52</ele>
        <time>2020-07-15T09:07:49Z</time>
      </trkpt>
      <trkpt lat="39.7773109842" lon="-6.4087579865">
        <ele>277.00</ele>
        <time>2020-07-15T09:07:59Z</time>
      </trkpt>
      <trkpt lat="39.7774536442" lon="-6.4083850756">
        <ele>278.44</ele>
        <time>2020-07-15T09:08:12Z</time>
      </trkpt>
      <trkpt lat="39.7775294166" lon="-6.4081971534">
        <ele>278.92</ele>
        <time>2020-07-15T09:08:19Z</time>
      </trkpt>
      <trkpt lat="39.7776457574" lon="-6.4079278428">
        <ele>279.40</ele>
        <time>2020-07-15T09:08:29Z</time>
      </trkpt>
      <trkpt lat="39.7777873278" lon="-6.4076203946">
        <ele>279.88</ele>
        <time>2020-07-15T09:08:40Z</time>
      </trkpt>
      <trkpt lat="39.7779309098" lon="-6.4073436242">
        <ele>280.36</ele>
        <time>2020-07-15T09:08:50Z</time>
      </trkpt>
      <trkpt lat="39.7780766711" lon="-6.4071258623">
        <ele>280.36</ele>
        <time>2020-07-15T09:08:58Z</time>
      </trkpt>
      <trkpt lat="39.7782524396" lon="-6.4068997186">
        <ele>279.88</ele>
        <time>2020-07-15T09:09:07Z</time>
      </trkpt>
      <trkpt lat="39.7784589697" lon="-6.4066677075">
        <ele>279.88</ele>
        <time>2020-07-15T09:09:17Z</time>
      </trkpt>
      <trkpt lat="39.7786666732" lon="-6.4064353611">
        <ele>280.36</ele>
        <time>2020-07-15T09:09:27Z</time>
      </trkpt>
      <trkpt lat="39.7788726166" lon="-6.4062126540">
        <ele>281.32</ele>
        <time>2020-07-15T09:09:37Z</time>
      </trkpt>
      <trkpt lat="39.7790646460" lon="-6.4059989154">
        <ele>281.32</ele>
        <time>2020-07-15T09:09:47Z</time>
      </trkpt>
      <trkpt lat="39.7792916279" lon="-6.4057494700">
        <ele>282.77</ele>
        <time>2020-07-15T09:09:59Z</time>
      </trkpt>
      <trkpt lat="39.7794923745" lon="-6.4055193029">
        <ele>283.25</ele>
        <time>2020-07-15T09:10:10Z</time>
      </trkpt>
      <trkpt lat="39.7795706615" lon="-6.4054151997">
        <ele>283.25</ele>
        <time>2020-07-15T09:10:16Z</time>
      </trkpt>
      <trkpt lat="39.7795798816" lon="-6.4054136071">
        <ele>282.28</ele>
        <time>2020-07-15T09:10:25Z</time>
      </trkpt>
      <trkpt lat="39.7796266526" lon="-6.4053571131">
        <ele>281.80</ele>
        <time>2020-07-15T09:10:35Z</time>
      </trkpt>
      <trkpt lat="39.7796384711" lon="-6.4053383376">
        <ele>282.77</ele>
        <time>2020-07-15T09:10:44Z</time>
      </trkpt>
      <trkpt lat="39.7796304245" lon="-6.4053353202">
        <ele>282.77</ele>
        <time>2020-07-15T09:10:54Z</time>
      </trkpt>
      <trkpt lat="39.7796225455" lon="-6.4053602982">
        <ele>282.28</ele>
        <time>2020-07-15T09:11:14Z</time>
      </trkpt>
      <trkpt lat="39.7796341125" lon="-6.4053366613">
        <ele>283.73</ele>
        <time>2020-07-15T09:11:27Z</time>
      </trkpt>
      <trkpt lat="39.7796375491" lon="-6.4053359069">
        <ele>283.73</ele>
        <time>2020-07-15T09:11:43Z</time>
      </trkpt>
      <trkpt lat="39.7796335258" lon="-6.4053448755">
        <ele>283.25</ele>
        <time>2020-07-15T09:11:51Z</time>
      </trkpt>
      <trkpt lat="39.7796383873" lon="-6.4053441212">
        <ele>282.77</ele>
        <time>2020-07-15T09:12:05Z</time>
      </trkpt>
      <trkpt lat="39.7796444222" lon="-6.4053299557">
        <ele>283.25</ele>
        <time>2020-07-15T09:12:10Z</time>
      </trkpt>
      <trkpt lat="39.7796538938" lon="-6.4053202327">
        <ele>283.25</ele>
        <time>2020-07-15T09:12:11Z</time>
      </trkpt>
      <trkpt lat="39.7796634492" lon="-6.4053081628">
        <ele>283.25</ele>
        <time>2020-07-15T09:12:12Z</time>
      </trkpt>
      <trkpt lat="39.7796751000" lon="-6.4052929077">
        <ele>283.25</ele>
        <time>2020-07-15T09:12:13Z</time>
      </trkpt>
      <trkpt lat="39.7796875890" lon="-6.4052767307">
        <ele>283.73</ele>
        <time>2020-07-15T09:12:14Z</time>
      </trkpt>
      <trkpt lat="39.7797019221" lon="-6.4052597992">
        <ele>283.73</ele>
        <time>2020-07-15T09:12:15Z</time>
      </trkpt>
      <trkpt lat="39.7797191050" lon="-6.4052413590">
        <ele>283.73</ele>
        <time>2020-07-15T09:12:16Z</time>
      </trkpt>
      <trkpt lat="39.7799078654" lon="-6.4050297160">
        <ele>284.69</ele>
        <time>2020-07-15T09:12:26Z</time>
      </trkpt>
      <trkpt lat="39.7801026609" lon="-6.4047834557">
        <ele>284.69</ele>
        <time>2020-07-15T09:12:36Z</time>
      </trkpt>
      <trkpt lat="39.7802184150" lon="-6.4044980519">
        <ele>284.69</ele>
        <time>2020-07-15T09:12:45Z</time>
      </trkpt>
      <trkpt lat="39.7802583128" lon="-6.4041139092">
        <ele>285.65</ele>
        <time>2020-07-15T09:12:56Z</time>
      </trkpt>
      <trkpt lat="39.7803021502" lon="-6.4037803095">
        <ele>286.61</ele>
        <time>2020-07-15T09:13:06Z</time>
      </trkpt>
      <trkpt lat="39.7803672776" lon="-6.4034191333">
        <ele>287.57</ele>
        <time>2020-07-15T09:13:17Z</time>
      </trkpt>
      <trkpt lat="39.7804490849" lon="-6.4030023012">
        <ele>288.05</ele>
        <time>2020-07-15T09:13:30Z</time>
      </trkpt>
      <trkpt lat="39.7804876417" lon="-6.4027231839">
        <ele>289.49</ele>
        <time>2020-07-15T09:13:39Z</time>
      </trkpt>
      <trkpt lat="39.7805143800" lon="-6.4024136402">
        <ele>290.46</ele>
        <time>2020-07-15T09:13:49Z</time>
      </trkpt>
      <trkpt lat="39.7805228457" lon="-6.4020427410">
        <ele>291.42</ele>
        <time>2020-07-15T09:14:01Z</time>
      </trkpt>
      <trkpt lat="39.7805071715" lon="-6.4016989991">
        <ele>292.86</ele>
        <time>2020-07-15T09:14:12Z</time>
      </trkpt>
      <trkpt lat="39.7804689500" lon="-6.4014149364">
        <ele>293.82</ele>
        <time>2020-07-15T09:14:22Z</time>
      </trkpt>
      <trkpt lat="39.7804164793" lon="-6.4011286944">
        <ele>294.78</ele>
        <time>2020-07-15T09:14:32Z</time>
      </trkpt>
      <trkpt lat="39.7803889029" lon="-6.4009737130">
        <ele>295.26</ele>
        <time>2020-07-15T09:14:39Z</time>
      </trkpt>
      <trkpt lat="39.7803579737" lon="-6.4006801788">
        <ele>296.70</ele>
        <time>2020-07-15T09:14:52Z</time>
      </trkpt>
      <trkpt lat="39.7803688701" lon="-6.4004139695">
        <ele>297.67</ele>
        <time>2020-07-15T09:15:03Z</time>
      </trkpt>
      <trkpt lat="39.7804074269" lon="-6.4001548011">
        <ele>297.67</ele>
        <time>2020-07-15T09:15:14Z</time>
      </trkpt>
      <trkpt lat="39.7804597300" lon="-6.3999761827">
        <ele>298.15</ele>
        <time>2020-07-15T09:15:22Z</time>
      </trkpt>
      <trkpt lat="39.7805438004" lon="-6.3997098058">
        <ele>298.63</ele>
        <time>2020-07-15T09:15:34Z</time>
      </trkpt>
      <trkpt lat="39.7806171421" lon="-6.3995247334">
        <ele>299.11</ele>
        <time>2020-07-15T09:15:42Z</time>
      </trkpt>
      <trkpt lat="39.7807204071" lon="-6.3992330432">
        <ele>299.59</ele>
        <time>2020-07-15T09:15:54Z</time>
      </trkpt>
      <trkpt lat="39.7808153741" lon="-6.3989794906">
        <ele>300.07</ele>
        <time>2020-07-15T09:16:05Z</time>
      </trkpt>
      <trkpt lat="39.7809041385" lon="-6.3987346552">
        <ele>301.03</ele>
        <time>2020-07-15T09:16:15Z</time>
      </trkpt>
      <trkpt lat="39.7809861135" lon="-6.3985281251">
        <ele>301.99</ele>
        <time>2020-07-15T09:16:24Z</time>
      </trkpt>
      <trkpt lat="39.7810897138" lon="-6.3982828707">
        <ele>302.95</ele>
        <time>2020-07-15T09:16:35Z</time>
      </trkpt>
      <trkpt lat="39.7811773047" lon="-6.3981155679">
        <ele>303.43</ele>
        <time>2020-07-15T09:16:43Z</time>
      </trkpt>
      <trkpt lat="39.7812938131" lon="-6.3979303278">
        <ele>304.39</ele>
        <time>2020-07-15T09:16:53Z</time>
      </trkpt>
      <trkpt lat="39.7813323699" lon="-6.3978778571">
        <ele>304.88</ele>
        <time>2020-07-15T09:16:56Z</time>
      </trkpt>
      <trkpt lat="39.7813425958" lon="-6.3978590816">
        <ele>305.36</ele>
        <time>2020-07-15T09:16:57Z</time>
      </trkpt>
      <trkpt lat="39.7814570088" lon="-6.3977056090">
        <ele>305.84</ele>
        <time>2020-07-15T09:17:06Z</time>
      </trkpt>
      <trkpt lat="39.7816210426" lon="-6.3974668924">
        <ele>307.28</ele>
        <time>2020-07-15T09:17:19Z</time>
      </trkpt>
      <trkpt lat="39.7817258164" lon="-6.3973034453">
        <ele>307.76</ele>
        <time>2020-07-15T09:17:28Z</time>
      </trkpt>
      <trkpt lat="39.7818558197" lon="-6.3970940653">
        <ele>309.20</ele>
        <time>2020-07-15T09:17:39Z</time>
      </trkpt>
      <trkpt lat="39.7819493618" lon="-6.3969175424">
        <ele>310.16</ele>
        <time>2020-07-15T09:17:48Z</time>
      </trkpt>
      <trkpt lat="39.7820360307" lon="-6.3967355713">
        <ele>310.64</ele>
        <time>2020-07-15T09:17:57Z</time>
      </trkpt>
      <trkpt lat="39.7821189277" lon="-6.3965474814">
        <ele>311.60</ele>
        <time>2020-07-15T09:18:06Z</time>
      </trkpt>
      <trkpt lat="39.7821942810" lon="-6.3963838667">
        <ele>313.05</ele>
        <time>2020-07-15T09:18:14Z</time>
      </trkpt>
      <trkpt lat="39.7822998092" lon="-6.3961692061">
        <ele>314.49</ele>
        <time>2020-07-15T09:18:25Z</time>
      </trkpt>
      <trkpt lat="39.7823996376" lon="-6.3959865645">
        <ele>315.45</ele>
        <time>2020-07-15T09:18:35Z</time>
      </trkpt>
      <trkpt lat="39.7825153917" lon="-6.3958110474">
        <ele>315.93</ele>
        <time>2020-07-15T09:18:45Z</time>
      </trkpt>
      <trkpt lat="39.7826477420" lon="-6.3956236281">
        <ele>317.37</ele>
        <time>2020-07-15T09:18:56Z</time>
      </trkpt>
      <trkpt lat="39.7827905696" lon="-6.3954380527">
        <ele>318.33</ele>
        <time>2020-07-15T09:19:07Z</time>
      </trkpt>
      <trkpt lat="39.7829245962" lon="-6.3952773716">
        <ele>319.30</ele>
        <time>2020-07-15T09:19:17Z</time>
      </trkpt>
      <trkpt lat="39.7830510791" lon="-6.3951108232">
        <ele>320.26</ele>
        <time>2020-07-15T09:19:27Z</time>
      </trkpt>
      <trkpt lat="39.7832151130" lon="-6.3949502259">
        <ele>320.74</ele>
        <time>2020-07-15T09:19:39Z</time>
      </trkpt>
      <trkpt lat="39.7833400872" lon="-6.3948669098">
        <ele>322.66</ele>
        <time>2020-07-15T09:19:47Z</time>
      </trkpt>
      <trkpt lat="39.7835018579" lon="-6.3948306162">
        <ele>324.10</ele>
        <time>2020-07-15T09:19:56Z</time>
      </trkpt>
      <trkpt lat="39.7836684901" lon="-6.3948045485">
        <ele>325.06</ele>
        <time>2020-07-15T09:20:05Z</time>
      </trkpt>
      <trkpt lat="39.7838167660" lon="-6.3947876170">
        <ele>325.54</ele>
        <time>2020-07-15T09:20:13Z</time>
      </trkpt>
      <trkpt lat="39.7839876730" lon="-6.3947565202">
        <ele>326.99</ele>
        <time>2020-07-15T09:20:23Z</time>
      </trkpt>
      <trkpt lat="39.7841788642" lon="-6.3947293628">
        <ele>328.91</ele>
        <time>2020-07-15T09:20:34Z</time>
      </trkpt>
      <trkpt lat="39.7843148187" lon="-6.3947085757">
        <ele>330.35</ele>
        <time>2020-07-15T09:20:42Z</time>
      </trkpt>
      <trkpt lat="39.7844522819" lon="-6.3946902193">
        <ele>330.83</ele>
        <time>2020-07-15T09:20:50Z</time>
      </trkpt>
      <trkpt lat="39.7846267093" lon="-6.3946765568">
        <ele>331.79</ele>
        <time>2020-07-15T09:21:00Z</time>
      </trkpt>
      <trkpt lat="39.7847693693" lon="-6.3946683425">
        <ele>332.75</ele>
        <time>2020-07-15T09:21:08Z</time>
      </trkpt>
      <trkpt lat="39.7849501669" lon="-6.3946589548">
        <ele>333.23</ele>
        <time>2020-07-15T09:21:18Z</time>
      </trkpt>
      <trkpt lat="39.7850941680" lon="-6.3946509082">
        <ele>333.71</ele>
        <time>2020-07-15T09:21:26Z</time>
      </trkpt>
      <trkpt lat="39.7852183878" lon="-6.3946366590">
        <ele>334.68</ele>
        <time>2020-07-15T09:21:33Z</time>
      </trkpt>
      <trkpt lat="39.7852335591" lon="-6.3946405146">
        <ele>334.68</ele>
        <time>2020-07-15T09:21:34Z</time>
      </trkpt>
      <trkpt lat="39.7852493171" lon="-6.3946468849">
        <ele>334.68</ele>
        <time>2020-07-15T09:21:35Z</time>
      </trkpt>
      <trkpt lat="39.7852658294" lon="-6.3946557697">
        <ele>334.20</ele>
        <time>2020-07-15T09:21:36Z</time>
      </trkpt>
      <trkpt lat="39.7852797434" lon="-6.3946680073">
        <ele>334.20</ele>
        <time>2020-07-15T09:21:37Z</time>
      </trkpt>
      <trkpt lat="39.7852925677" lon="-6.3946815021">
        <ele>334.20</ele>
        <time>2020-07-15T09:21:38Z</time>
      </trkpt>
      <trkpt lat="39.7853196412" lon="-6.3947234116">
        <ele>334.68</ele>
        <time>2020-07-15T09:21:41Z</time>
      </trkpt>
      <trkpt lat="39.7853209823" lon="-6.3947397564">
        <ele>334.20</ele>
        <time>2020-07-15T09:21:42Z</time>
      </trkpt>
      <trkpt lat="39.7853258438" lon="-6.3947549276">
        <ele>334.20</ele>
        <time>2020-07-15T09:21:43Z</time>
      </trkpt>
      <trkpt lat="39.7853272688" lon="-6.3947692607">
        <ele>334.20</ele>
        <time>2020-07-15T09:21:44Z</time>
      </trkpt>
      <trkpt lat="39.7853192221" lon="-6.3947851863">
        <ele>333.71</ele>
        <time>2020-07-15T09:21:45Z</time>
      </trkpt>
      <trkpt lat="39.7853022069" lon="-6.3947965857">
        <ele>333.71</ele>
        <time>2020-07-15T09:21:46Z</time>
      </trkpt>
      <trkpt lat="39.7852846049" lon="-6.3948004413">
        <ele>333.71</ele>
        <time>2020-07-15T09:21:47Z</time>
      </trkpt>
      <trkpt lat="39.7852706071" lon="-6.3948032074">
        <ele>333.71</ele>
        <time>2020-07-15T09:21:48Z</time>
      </trkpt>
      <trkpt lat="39.7851250973" lon="-6.3948206417">
        <ele>332.75</ele>
        <time>2020-07-15T09:21:56Z</time>
      </trkpt>
      <trkpt lat="39.7849701997" lon="-6.3948449492">
        <ele>332.27</ele>
        <time>2020-07-15T09:22:04Z</time>
      </trkpt>
      <trkpt lat="39.7849096823" lon="-6.3948668260">
        <ele>332.75</ele>
        <time>2020-07-15T09:22:10Z</time>
      </trkpt>
      <trkpt lat="39.7849085089" lon="-6.3948663231">
        <ele>333.23</ele>
        <time>2020-07-15T09:22:16Z</time>
      </trkpt>
      <trkpt lat="39.7849153820" lon="-6.3948621321">
        <ele>332.75</ele>
        <time>2020-07-15T09:22:32Z</time>
      </trkpt>
      <trkpt lat="39.7849120293" lon="-6.3948637247">
        <ele>332.27</ele>
        <time>2020-07-15T09:22:53Z</time>
      </trkpt>
      <trkpt lat="39.7849046532" lon="-6.3948609587">
        <ele>333.23</ele>
        <time>2020-07-15T09:23:10Z</time>
      </trkpt>
      <trkpt lat="39.7849205788" lon="-6.3948630542">
        <ele>333.71</ele>
        <time>2020-07-15T09:23:31Z</time>
      </trkpt>
      <trkpt lat="39.7849208303" lon="-6.3948705979">
        <ele>335.16</ele>
        <time>2020-07-15T09:23:46Z</time>
      </trkpt>
      <trkpt lat="39.7849537712" lon="-6.3948634733">
        <ele>334.68</ele>
        <time>2020-07-15T09:23:52Z</time>
      </trkpt>
      <trkpt lat="39.7849637456" lon="-6.3948594499">
        <ele>334.68</ele>
        <time>2020-07-15T09:23:53Z</time>
      </trkpt>
      <trkpt lat="39.7849754803" lon="-6.3948546723">
        <ele>334.68</ele>
        <time>2020-07-15T09:23:54Z</time>
      </trkpt>
      <trkpt lat="39.7849883046" lon="-6.3948477991">
        <ele>334.68</ele>
        <time>2020-07-15T09:23:55Z</time>
      </trkpt>
      <trkpt lat="39.7849991173" lon="-6.3948446978">
        <ele>334.68</ele>
        <time>2020-07-15T09:23:56Z</time>
      </trkpt>
      <trkpt lat="39.7850107681" lon="-6.3948451169">
        <ele>334.68</ele>
        <time>2020-07-15T09:23:57Z</time>
      </trkpt>
      <trkpt lat="39.7850236762" lon="-6.3948473800">
        <ele>334.68</ele>
        <time>2020-07-15T09:23:58Z</time>
      </trkpt>
      <trkpt lat="39.7850362491" lon="-6.3948479667">
        <ele>334.68</ele>
        <time>2020-07-15T09:23:59Z</time>
      </trkpt>
      <trkpt lat="39.7851577867" lon="-6.3948219828">
        <ele>334.68</ele>
        <time>2020-07-15T09:24:09Z</time>
      </trkpt>
      <trkpt lat="39.7852894664" lon="-6.3948108349">
        <ele>335.16</ele>
        <time>2020-07-15T09:24:20Z</time>
      </trkpt>
      <trkpt lat="39.7853030451" lon="-6.3948294427">
        <ele>335.16</ele>
        <time>2020-07-15T09:24:28Z</time>
      </trkpt>
      <trkpt lat="39.7853304539" lon="-6.3948161993">
        <ele>335.16</ele>
        <time>2020-07-15T09:24:36Z</time>
      </trkpt>
      <trkpt lat="39.7853416856" lon="-6.3947851863">
        <ele>335.16</ele>
        <time>2020-07-15T09:24:41Z</time>
      </trkpt>
      <trkpt lat="39.7853364889" lon="-6.3947700150">
        <ele>335.16</ele>
        <time>2020-07-15T09:24:42Z</time>
      </trkpt>
      <trkpt lat="39.7853305377" lon="-6.3947529159">
        <ele>335.16</ele>
        <time>2020-07-15T09:24:43Z</time>
      </trkpt>
      <trkpt lat="39.7853266820" lon="-6.3947384153">
        <ele>335.16</ele>
        <time>2020-07-15T09:24:44Z</time>
      </trkpt>
      <trkpt lat="39.7853242513" lon="-6.3947201427">
        <ele>335.16</ele>
        <time>2020-07-15T09:24:45Z</time>
      </trkpt>
      <trkpt lat="39.7853245866" lon="-6.3947010320">
        <ele>335.16</ele>
        <time>2020-07-15T09:24:46Z</time>
      </trkpt>
      <trkpt lat="39.7853238322" lon="-6.3946823403">
        <ele>335.16</ele>
        <time>2020-07-15T09:24:47Z</time>
      </trkpt>
      <trkpt lat="39.7853253409" lon="-6.3946623076">
        <ele>335.16</ele>
        <time>2020-07-15T09:24:48Z</time>
      </trkpt>
      <trkpt lat="39.7853275202" lon="-6.3946431968">
        <ele>335.16</ele>
        <time>2020-07-15T09:24:49Z</time>
      </trkpt>
      <trkpt lat="39.7853343096" lon="-6.3946267683">
        <ele>335.16</ele>
        <time>2020-07-15T09:24:50Z</time>
      </trkpt>
      <trkpt lat="39.7853438649" lon="-6.3946152851">
        <ele>334.68</ele>
        <time>2020-07-15T09:24:51Z</time>
      </trkpt>
      <trkpt lat="39.7853879537" lon="-6.3945815898">
        <ele>335.16</ele>
        <time>2020-07-15T09:24:56Z</time>
      </trkpt>
      <trkpt lat="39.7855276801" lon="-6.3945911452">
        <ele>334.68</ele>
        <time>2020-07-15T09:25:04Z</time>
      </trkpt>
      <trkpt lat="39.7856904566" lon="-6.3945701066">
        <ele>335.16</ele>
        <time>2020-07-15T09:25:12Z</time>
      </trkpt>
      <trkpt lat="39.7859087214" lon="-6.3945105113">
        <ele>336.12</ele>
        <time>2020-07-15T09:25:23Z</time>
      </trkpt>
      <trkpt lat="39.7861223761" lon="-6.3944273628">
        <ele>337.56</ele>
        <time>2020-07-15T09:25:34Z</time>
      </trkpt>
      <trkpt lat="39.7863356955" lon="-6.3943333179">
        <ele>339.00</ele>
        <time>2020-07-15T09:25:45Z</time>
      </trkpt>
      <trkpt lat="39.7865478415" lon="-6.3942281250">
        <ele>340.44</ele>
        <time>2020-07-15T09:25:56Z</time>
      </trkpt>
      <trkpt lat="39.7867392004" lon="-6.3941355050">
        <ele>340.92</ele>
        <time>2020-07-15T09:26:06Z</time>
      </trkpt>
      <trkpt lat="39.7868966963" lon="-6.3940662704">
        <ele>341.41</ele>
        <time>2020-07-15T09:26:14Z</time>
      </trkpt>
      <trkpt lat="39.7870470677" lon="-6.3939961977">
        <ele>342.37</ele>
        <time>2020-07-15T09:26:22Z</time>
      </trkpt>
      <trkpt lat="39.7872493230" lon="-6.3939033262">
        <ele>342.37</ele>
        <time>2020-07-15T09:26:33Z</time>
      </trkpt>
      <trkpt lat="39.7874249239" lon="-6.3938130531">
        <ele>343.81</ele>
        <time>2020-07-15T09:26:43Z</time>
      </trkpt>
      <trkpt lat="39.7876012791" lon="-6.3937300723">
        <ele>344.29</ele>
        <time>2020-07-15T09:26:53Z</time>
      </trkpt>
      <trkpt lat="39.7877705935" lon="-6.3936488517">
        <ele>344.77</ele>
        <time>2020-07-15T09:27:03Z</time>
      </trkpt>
      <trkpt lat="39.7877974994" lon="-6.3936356083">
        <ele>345.25</ele>
        <time>2020-07-15T09:27:10Z</time>
      </trkpt>
      <trkpt lat="39.7878560051" lon="-6.3936112169">
        <ele>346.21</ele>
        <time>2020-07-15T09:27:20Z</time>
      </trkpt>
      <trkpt lat="39.7879843321" lon="-6.3935560640">
        <ele>348.13</ele>
        <time>2020-07-15T09:27:28Z</time>
      </trkpt>
      <trkpt lat="39.7881004214" lon="-6.3935756776">
        <ele>348.13</ele>
        <time>2020-07-15T09:27:34Z</time>
      </trkpt>
      <trkpt lat="39.7882735915" lon="-6.3936329260">
        <ele>349.58</ele>
        <time>2020-07-15T09:27:43Z</time>
      </trkpt>
      <trkpt lat="39.7882968094" lon="-6.3936432358">
        <ele>350.54</ele>
        <time>2020-07-15T09:27:47Z</time>
      </trkpt>
      <trkpt lat="39.7882956360" lon="-6.3936423976">
        <ele>351.98</ele>
        <time>2020-07-15T09:28:02Z</time>
      </trkpt>
      <trkpt lat="39.7883302532" lon="-6.3936392963">
        <ele>352.46</ele>
        <time>2020-07-15T09:28:10Z</time>
      </trkpt>
      <trkpt lat="39.7885104641" lon="-6.3936259691">
        <ele>352.94</ele>
        <time>2020-07-15T09:28:19Z</time>
      </trkpt>
      <trkpt lat="39.7886821255" lon="-6.3936621789">
        <ele>354.86</ele>
        <time>2020-07-15T09:28:27Z</time>
      </trkpt>
      <trkpt lat="39.7888023220" lon="-6.3936835527">
        <ele>359.19</ele>
        <time>2020-07-15T09:28:34Z</time>
      </trkpt>
      <trkpt lat="39.7889297269" lon="-6.3937177509">
        <ele>359.67</ele>
        <time>2020-07-15T09:28:41Z</time>
      </trkpt>
      <trkpt lat="39.7890823614" lon="-6.3937765080">
        <ele>359.19</ele>
        <time>2020-07-15T09:28:50Z</time>
      </trkpt>
      <trkpt lat="39.7891285457" lon="-6.3937960379">
        <ele>359.19</ele>
        <time>2020-07-15T09:28:57Z</time>
      </trkpt>
      <trkpt lat="39.7891293000" lon="-6.3937755022">
        <ele>359.67</ele>
        <time>2020-07-15T09:29:09Z</time>
      </trkpt>
      <trkpt lat="39.7891996242" lon="-6.3938144781">
        <ele>359.67</ele>
        <time>2020-07-15T09:29:16Z</time>
      </trkpt>
      <trkpt lat="39.7893187311" lon="-6.3938971236">
        <ele>360.15</ele>
        <time>2020-07-15T09:29:23Z</time>
      </trkpt>
      <trkpt lat="39.7894510813" lon="-6.3939531986">
        <ele>359.67</ele>
        <time>2020-07-15T09:29:30Z</time>
      </trkpt>
      <trkpt lat="39.7895868681" lon="-6.3940050825">
        <ele>357.75</ele>
        <time>2020-07-15T09:29:37Z</time>
      </trkpt>
      <trkpt lat="39.7897498962" lon="-6.3940531109">
        <ele>356.79</ele>
        <time>2020-07-15T09:29:45Z</time>
      </trkpt>
      <trkpt lat="39.7897857707" lon="-6.3940572180">
        <ele>357.75</ele>
        <time>2020-07-15T09:29:47Z</time>
      </trkpt>
      <trkpt lat="39.7898107488" lon="-6.3939762488">
        <ele>361.59</ele>
        <time>2020-07-15T09:29:53Z</time>
      </trkpt>
      <trkpt lat="39.7898101620" lon="-6.3939645980">
        <ele>363.52</ele>
        <time>2020-07-15T09:29:59Z</time>
      </trkpt>
      <trkpt lat="39.7898094077" lon="-6.3939827867">
        <ele>364.96</ele>
        <time>2020-07-15T09:30:12Z</time>
      </trkpt>
      <trkpt lat="39.7898093238" lon="-6.3940044120">
        <ele>366.88</ele>
        <time>2020-07-15T09:30:27Z</time>
      </trkpt>
      <trkpt lat="39.7898282669" lon="-6.3940053340">
        <ele>368.32</ele>
        <time>2020-07-15T09:30:39Z</time>
      </trkpt>
      <trkpt lat="39.7898348887" lon="-6.3940299768">
        <ele>371.69</ele>
        <time>2020-07-15T09:30:55Z</time>
      </trkpt>
      <trkpt lat="39.7898563463" lon="-6.3940395322">
        <ele>369.76</ele>
        <time>2020-07-15T09:31:19Z</time>
      </trkpt>
      <trkpt lat="39.7898857668" lon="-6.3940391969">
        <ele>368.80</ele>
        <time>2020-07-15T09:31:37Z</time>
      </trkpt>
      <trkpt lat="39.7898933943" lon="-6.3940360118">
        <ele>369.76</ele>
        <time>2020-07-15T09:31:46Z</time>
      </trkpt>
      <trkpt lat="39.7898745351" lon="-6.3940342516">
        <ele>370.24</ele>
        <time>2020-07-15T09:32:08Z</time>
      </trkpt>
      <trkpt lat="39.7898794804" lon="-6.3940351736">
        <ele>369.28</ele>
        <time>2020-07-15T09:32:22Z</time>
      </trkpt>
      <trkpt lat="39.7898783069" lon="-6.3940396160">
        <ele>368.80</ele>
        <time>2020-07-15T09:32:36Z</time>
      </trkpt>
      <trkpt lat="39.7898650635" lon="-6.3940596487">
        <ele>368.80</ele>
        <time>2020-07-15T09:32:50Z</time>
      </trkpt>
      <trkpt lat="39.7898562625" lon="-6.3940617442">
        <ele>371.69</ele>
        <time>2020-07-15T09:33:17Z</time>
      </trkpt>
      <trkpt lat="39.7898698412" lon="-6.3940912485">
        <ele>376.49</ele>
        <time>2020-07-15T09:33:44Z</time>
      </trkpt>
      <trkpt lat="39.7898628842" lon="-6.3940844592">
        <ele>376.49</ele>
        <time>2020-07-15T09:34:03Z</time>
      </trkpt>
      <trkpt lat="39.7898514848" lon="-6.3940553740">
        <ele>376.97</ele>
        <time>2020-07-15T09:34:27Z</time>
      </trkpt>
      <trkpt lat="39.7898476291" lon="-6.3940286357">
        <ele>376.01</ele>
        <time>2020-07-15T09:34:43Z</time>
      </trkpt>
      <trkpt lat="39.7898697574" lon="-6.3940285519">
        <ele>375.53</ele>
        <time>2020-07-15T09:34:45Z</time>
      </trkpt>
      <trkpt lat="39.7899031173" lon="-6.3940494228">
        <ele>377.45</ele>
        <time>2020-07-15T09:34:50Z</time>
      </trkpt>
      <trkpt lat="39.7898817435" lon="-6.3941191602">
        <ele>374.09</ele>
        <time>2020-07-15T09:34:56Z</time>
      </trkpt>
      <trkpt lat="39.7898610402" lon="-6.3942588866">
        <ele>369.28</ele>
        <time>2020-07-15T09:35:05Z</time>
      </trkpt>
      <trkpt lat="39.7898516525" lon="-6.3943736348">
        <ele>367.84</ele>
        <time>2020-07-15T09:35:12Z</time>
      </trkpt>
      <trkpt lat="39.7898664884" lon="-6.3944081683">
        <ele>367.84</ele>
        <time>2020-07-15T09:35:15Z</time>
      </trkpt>
      <trkpt lat="39.7898867726" lon="-6.3945119362">
        <ele>365.44</ele>
        <time>2020-07-15T09:35:24Z</time>
      </trkpt>
      <trkpt lat="39.7898766305" lon="-6.3945202343">
        <ele>363.52</ele>
        <time>2020-07-15T09:35:36Z</time>
      </trkpt>
      <trkpt lat="39.7898786422" lon="-6.3945221622">
        <ele>359.19</ele>
        <time>2020-07-15T09:35:54Z</time>
      </trkpt>
      <trkpt lat="39.7898847610" lon="-6.3944899756">
        <ele>358.71</ele>
        <time>2020-07-15T09:36:15Z</time>
      </trkpt>
      <trkpt lat="39.7899021953" lon="-6.3945037220">
        <ele>360.15</ele>
        <time>2020-07-15T09:36:34Z</time>
      </trkpt>
      <trkpt lat="39.7899023630" lon="-6.3945314661">
        <ele>360.63</ele>
        <time>2020-07-15T09:36:59Z</time>
      </trkpt>
      <trkpt lat="39.7899027821" lon="-6.3945288677">
        <ele>359.67</ele>
        <time>2020-07-15T09:37:20Z</time>
      </trkpt>
      <trkpt lat="39.7898982558" lon="-6.3945029676">
        <ele>359.67</ele>
        <time>2020-07-15T09:37:44Z</time>
      </trkpt>
      <trkpt lat="39.7898980882" lon="-6.3944938313">
        <ele>358.71</ele>
        <time>2020-07-15T09:38:05Z</time>
      </trkpt>
      <trkpt lat="39.7898986749" lon="-6.3945328910">
        <ele>359.19</ele>
        <time>2020-07-15T09:38:25Z</time>
      </trkpt>
      <trkpt lat="39.7898991778" lon="-6.3944830187">
        <ele>360.15</ele>
        <time>2020-07-15T09:38:47Z</time>
      </trkpt>
      <trkpt lat="39.7898929752" lon="-6.3944693562">
        <ele>358.71</ele>
        <time>2020-07-15T09:39:07Z</time>
      </trkpt>
      <trkpt lat="39.7898700088" lon="-6.3944416121">
        <ele>356.79</ele>
        <time>2020-07-15T09:39:30Z</time>
      </trkpt>
      <trkpt lat="39.7898685001" lon="-6.3944885507">
        <ele>359.67</ele>
        <time>2020-07-15T09:39:55Z</time>
      </trkpt>
      <trkpt lat="39.7898660693" lon="-6.3945022132">
        <ele>363.04</ele>
        <time>2020-07-15T09:40:21Z</time>
      </trkpt>
      <trkpt lat="39.7898806538" lon="-6.3945131935">
        <ele>363.52</ele>
        <time>2020-07-15T09:40:33Z</time>
      </trkpt>
      <trkpt lat="39.7898881976" lon="-6.3945277780">
        <ele>364.00</ele>
        <time>2020-07-15T09:40:51Z</time>
      </trkpt>
      <trkpt lat="39.7898706794" lon="-6.3945200667">
        <ele>364.48</ele>
        <time>2020-07-15T09:41:15Z</time>
      </trkpt>
      <trkpt lat="39.7899013571" lon="-6.3945179712">
        <ele>362.55</ele>
        <time>2020-07-15T09:41:37Z</time>
      </trkpt>
      <trkpt lat="39.7898970824" lon="-6.3944935799">
        <ele>360.15</ele>
        <time>2020-07-15T09:41:58Z</time>
      </trkpt>
      <trkpt lat="39.7898848448" lon="-6.3945085835">
        <ele>358.71</ele>
        <time>2020-07-15T09:42:19Z</time>
      </trkpt>
      <trkpt lat="39.7898817435" lon="-6.3944934960">
        <ele>361.59</ele>
        <time>2020-07-15T09:42:44Z</time>
      </trkpt>
      <trkpt lat="39.7898959089" lon="-6.3944854494">
        <ele>361.11</ele>
        <time>2020-07-15T09:43:06Z</time>
      </trkpt>
      <trkpt lat="39.7898941487" lon="-6.3945021294">
        <ele>360.15</ele>
        <time>2020-07-15T09:43:29Z</time>
      </trkpt>
      <trkpt lat="39.7898715176" lon="-6.3945424464">
        <ele>361.11</ele>
        <time>2020-07-15T09:43:48Z</time>
      </trkpt>
      <trkpt lat="39.7898722719" lon="-6.3945549354">
        <ele>359.19</ele>
        <time>2020-07-15T09:44:02Z</time>
      </trkpt>
      <trkpt lat="39.7898633871" lon="-6.3945275266">
        <ele>356.31</ele>
        <time>2020-07-15T09:44:28Z</time>
      </trkpt>
      <trkpt lat="39.7898800671" lon="-6.3944963459">
        <ele>358.23</ele>
        <time>2020-07-15T09:44:55Z</time>
      </trkpt>
      <trkpt lat="39.7898882814" lon="-6.3945053145">
        <ele>358.71</ele>
        <time>2020-07-15T09:45:17Z</time>
      </trkpt>
      <trkpt lat="39.7898947354" lon="-6.3944938313">
        <ele>358.23</ele>
        <time>2020-07-15T09:45:47Z</time>
      </trkpt>
      <trkpt lat="39.7899102420" lon="-6.3944828510">
        <ele>356.31</ele>
        <time>2020-07-15T09:46:14Z</time>
      </trkpt>
      <trkpt lat="39.7899150196" lon="-6.3945072424">
        <ele>355.83</ele>
        <time>2020-07-15T09:46:34Z</time>
      </trkpt>
      <trkpt lat="39.7899118345" lon="-6.3945477270">
        <ele>354.86</ele>
        <time>2020-07-15T09:47:02Z</time>
      </trkpt>
      <trkpt lat="39.7899112478" lon="-6.3945700228">
        <ele>356.79</ele>
        <time>2020-07-15T09:47:26Z</time>
      </trkpt>
      <trkpt lat="39.7899047099" lon="-6.3945608865">
        <ele>358.71</ele>
        <time>2020-07-15T09:47:52Z</time>
      </trkpt>
      <trkpt lat="39.7898936458" lon="-6.3945050631">
        <ele>359.19</ele>
        <time>2020-07-15T09:48:16Z</time>
      </trkpt>
      <trkpt lat="39.7898937296" lon="-6.3945145346">
        <ele>362.07</ele>
        <time>2020-07-15T09:48:42Z</time>
      </trkpt>
      <trkpt lat="39.7899002675" lon="-6.3945443742">
        <ele>360.63</ele>
        <time>2020-07-15T09:49:01Z</time>
      </trkpt>
      <trkpt lat="39.7899133433" lon="-6.3945512474">
        <ele>360.63</ele>
        <time>2020-07-15T09:49:20Z</time>
      </trkpt>
      <trkpt lat="39.7898998484" lon="-6.3945338968">
        <ele>361.11</ele>
        <time>2020-07-15T09:49:41Z</time>
      </trkpt>
      <trkpt lat="39.7898788936" lon="-6.3945403509">
        <ele>361.11</ele>
        <time>2020-07-15T09:50:09Z</time>
      </trkpt>
      <trkpt lat="39.7898824979" lon="-6.3945451286">
        <ele>359.19</ele>
        <time>2020-07-15T09:50:28Z</time>
      </trkpt>
      <trkpt lat="39.7898807377" lon="-6.3945269398">
        <ele>359.19</ele>
        <time>2020-07-15T09:50:50Z</time>
      </trkpt>
      <trkpt lat="39.7898783907" lon="-6.3945402671">
        <ele>361.59</ele>
        <time>2020-07-15T09:51:16Z</time>
      </trkpt>
      <trkpt lat="39.7898690030" lon="-6.3945542648">
        <ele>364.96</ele>
        <time>2020-07-15T09:51:38Z</time>
      </trkpt>
      <trkpt lat="39.7898723558" lon="-6.3945344836">
        <ele>364.96</ele>
        <time>2020-07-15T09:51:53Z</time>
      </trkpt>
      <trkpt lat="39.7898653150" lon="-6.3945413567">
        <ele>363.52</ele>
        <time>2020-07-15T09:52:25Z</time>
      </trkpt>
      <trkpt lat="39.7898808215" lon="-6.3945101760">
        <ele>363.04</ele>
        <time>2020-07-15T09:52:43Z</time>
      </trkpt>
      <trkpt lat="39.7898943163" lon="-6.3945017103">
        <ele>363.52</ele>
        <time>2020-07-15T09:52:58Z</time>
      </trkpt>
      <trkpt lat="39.7898878623" lon="-6.3945199829">
        <ele>364.96</ele>
        <time>2020-07-15T09:53:22Z</time>
      </trkpt>
      <trkpt lat="39.7898896225" lon="-6.3945457991">
        <ele>364.96</ele>
        <time>2020-07-15T09:53:38Z</time>
      </trkpt>
      <trkpt lat="39.7898966633" lon="-6.3945430331">
        <ele>363.52</ele>
        <time>2020-07-15T09:53:55Z</time>
      </trkpt>
      <trkpt lat="39.7899292689" lon="-6.3945378363">
        <ele>363.52</ele>
        <time>2020-07-15T09:54:11Z</time>
      </trkpt>
      <trkpt lat="39.7899188753" lon="-6.3944608904">
        <ele>364.00</ele>
        <time>2020-07-15T09:54:19Z</time>
      </trkpt>
      <trkpt lat="39.7899078112" lon="-6.3944451325">
        <ele>364.00</ele>
        <time>2020-07-15T09:54:26Z</time>
      </trkpt>
      <trkpt lat="39.7899035364" lon="-6.3944412768">
        <ele>364.48</ele>
        <time>2020-07-15T09:54:27Z</time>
      </trkpt>
      <trkpt lat="39.7898341343" lon="-6.3943407778">
        <ele>364.00</ele>
        <time>2020-07-15T09:54:34Z</time>
      </trkpt>
      <trkpt lat="39.7898537479" lon="-6.3941813540">
        <ele>364.96</ele>
        <time>2020-07-15T09:54:40Z</time>
      </trkpt>
      <trkpt lat="39.7898607049" lon="-6.3941592257">
        <ele>365.44</ele>
        <time>2020-07-15T09:54:41Z</time>
      </trkpt>
      <trkpt lat="39.7899819072" lon="-6.3939712197">
        <ele>366.40</ele>
        <time>2020-07-15T09:54:51Z</time>
      </trkpt>
      <trkpt lat="39.7900798917" lon="-6.3938677870">
        <ele>365.44</ele>
        <time>2020-07-15T09:54:58Z</time>
      </trkpt>
      <trkpt lat="39.7901373077" lon="-6.3936468400">
        <ele>364.00</ele>
        <time>2020-07-15T09:55:07Z</time>
      </trkpt>
      <trkpt lat="39.7902191151" lon="-6.3934960496">
        <ele>364.00</ele>
        <time>2020-07-15T09:55:15Z</time>
      </trkpt>
      <trkpt lat="39.7903074604" lon="-6.3933838997">
        <ele>362.07</ele>
        <time>2020-07-15T09:55:22Z</time>
      </trkpt>
      <trkpt lat="39.7904945444" lon="-6.3934347779">
        <ele>363.04</ele>
        <time>2020-07-15T09:55:31Z</time>
      </trkpt>
      <trkpt lat="39.7905290779" lon="-6.3934338558">
        <ele>364.00</ele>
        <time>2020-07-15T09:55:33Z</time>
      </trkpt>
      <trkpt lat="39.7905921936" lon="-6.3933666330">
        <ele>364.48</ele>
        <time>2020-07-15T09:55:38Z</time>
      </trkpt>
      <trkpt lat="39.7906567343" lon="-6.3932709955">
        <ele>363.04</ele>
        <time>2020-07-15T09:55:44Z</time>
      </trkpt>
      <trkpt lat="39.7906929441" lon="-6.3932121545">
        <ele>362.07</ele>
        <time>2020-07-15T09:55:47Z</time>
      </trkpt>
      <trkpt lat="39.7908334248" lon="-6.3930611964">
        <ele>362.07</ele>
        <time>2020-07-15T09:55:56Z</time>
      </trkpt>
      <trkpt lat="39.7909518611" lon="-6.3929124177">
        <ele>363.04</ele>
        <time>2020-07-15T09:56:02Z</time>
      </trkpt>
      <trkpt lat="39.7910801880" lon="-6.3927425165">
        <ele>363.52</ele>
        <time>2020-07-15T09:56:09Z</time>
      </trkpt>
      <trkpt lat="39.7912545316" lon="-6.3925444521">
        <ele>364.00</ele>
        <time>2020-07-15T09:56:17Z</time>
      </trkpt>
      <trkpt lat="39.7913949285" lon="-6.3923707791">
        <ele>364.48</ele>
        <time>2020-07-15T09:56:25Z</time>
      </trkpt>
      <trkpt lat="39.7914258577" lon="-6.3923299592">
        <ele>364.00</ele>
        <time>2020-07-15T09:56:27Z</time>
      </trkpt>
      <trkpt lat="39.7914998699" lon="-6.3921577949">
        <ele>366.40</ele>
        <time>2020-07-15T09:56:34Z</time>
      </trkpt>
      <trkpt lat="39.7915971838" lon="-6.3919780031">
        <ele>369.28</ele>
        <time>2020-07-15T09:56:44Z</time>
      </trkpt>
      <trkpt lat="39.7916721180" lon="-6.3918267097">
        <ele>371.21</ele>
        <time>2020-07-15T09:56:51Z</time>
      </trkpt>
      <trkpt lat="39.7918127663" lon="-6.3915915973">
        <ele>371.69</ele>
        <time>2020-07-15T09:57:00Z</time>
      </trkpt>
      <trkpt lat="39.7919406742" lon="-6.3913640287">
        <ele>371.21</ele>
        <time>2020-07-15T09:57:09Z</time>
      </trkpt>
      <trkpt lat="39.7920571826" lon="-6.3911835663">
        <ele>370.73</ele>
        <time>2020-07-15T09:57:16Z</time>
      </trkpt>
      <trkpt lat="39.7922388185" lon="-6.3909342885">
        <ele>369.76</ele>
        <time>2020-07-15T09:57:25Z</time>
      </trkpt>
      <trkpt lat="39.7923092265" lon="-6.3908119127">
        <ele>369.28</ele>
        <time>2020-07-15T09:57:30Z</time>
      </trkpt>
      <trkpt lat="39.7924127430" lon="-6.3907270879">
        <ele>368.32</ele>
        <time>2020-07-15T09:57:35Z</time>
      </trkpt>
      <trkpt lat="39.7925863322" lon="-6.3907088153">
        <ele>368.32</ele>
        <time>2020-07-15T09:57:41Z</time>
      </trkpt>
      <trkpt lat="39.7927896772" lon="-6.3905871101">
        <ele>366.88</ele>
        <time>2020-07-15T09:57:48Z</time>
      </trkpt>
      <trkpt lat="39.7928773519" lon="-6.3903673366">
        <ele>366.88</ele>
        <time>2020-07-15T09:57:54Z</time>
      </trkpt>
      <trkpt lat="39.7928547207" lon="-6.3900214154">
        <ele>368.32</ele>
        <time>2020-07-15T09:58:02Z</time>
      </trkpt>
      <trkpt lat="39.7928176727" lon="-6.3896880671">
        <ele>368.32</ele>
        <time>2020-07-15T09:58:10Z</time>
      </trkpt>
      <trkpt lat="39.7927843127" lon="-6.3893636875">
        <ele>368.80</ele>
        <time>2020-07-15T09:58:18Z</time>
      </trkpt>
      <trkpt lat="39.7927427385" lon="-6.3890170958">
        <ele>369.28</ele>
        <time>2020-07-15T09:58:27Z</time>
      </trkpt>
      <trkpt lat="39.7927624360" lon="-6.3886891957">
        <ele>369.28</ele>
        <time>2020-07-15T09:58:35Z</time>
      </trkpt>
      <trkpt lat="39.7928476799" lon="-6.3882754650">
        <ele>369.28</ele>
        <time>2020-07-15T09:58:45Z</time>
      </trkpt>
      <trkpt lat="39.7929503582" lon="-6.3879810926">
        <ele>370.24</ele>
        <time>2020-07-15T09:58:54Z</time>
      </trkpt>
      <trkpt lat="39.7929889150" lon="-6.3878971897">
        <ele>370.73</ele>
        <time>2020-07-15T09:59:00Z</time>
      </trkpt>
      <trkpt lat="39.7929827962" lon="-6.3878976926">
        <ele>370.73</ele>
        <time>2020-07-15T09:59:11Z</time>
      </trkpt>
      <trkpt lat="39.7930184193" lon="-6.3878537714">
        <ele>369.76</ele>
        <time>2020-07-15T09:59:18Z</time>
      </trkpt>
      <trkpt lat="39.7930264659" lon="-6.3878413662">
        <ele>369.76</ele>
        <time>2020-07-15T09:59:19Z</time>
      </trkpt>
      <trkpt lat="39.7930455767" lon="-6.3878112752">
        <ele>370.24</ele>
        <time>2020-07-15T09:59:25Z</time>
      </trkpt>
      <trkpt lat="39.7930709738" lon="-6.3877913263">
        <ele>370.73</ele>
        <time>2020-07-15T09:59:35Z</time>
      </trkpt>
      <trkpt lat="39.7930815350" lon="-6.3877754845">
        <ele>370.73</ele>
        <time>2020-07-15T09:59:36Z</time>
      </trkpt>
      <trkpt lat="39.7932172380" lon="-6.3875500113">
        <ele>370.24</ele>
        <time>2020-07-15T09:59:44Z</time>
      </trkpt>
      <trkpt lat="39.7933521867" lon="-6.3872671220">
        <ele>371.21</ele>
        <time>2020-07-15T09:59:51Z</time>
      </trkpt>
      <trkpt lat="39.7935291287" lon="-6.3869261462">
        <ele>370.24</ele>
        <time>2020-07-15T10:00:00Z</time>
      </trkpt>
      <trkpt lat="39.7937341500" lon="-6.3865560852">
        <ele>368.80</ele>
        <time>2020-07-15T10:00:09Z</time>
      </trkpt>
      <trkpt lat="39.7939578630" lon="-6.3861530833">
        <ele>369.28</ele>
        <time>2020-07-15T10:00:19Z</time>
      </trkpt>
      <trkpt lat="39.7941400856" lon="-6.3858411927">
        <ele>369.76</ele>
        <time>2020-07-15T10:00:28Z</time>
      </trkpt>
      <trkpt lat="39.7942909598" lon="-6.3855614047">
        <ele>370.73</ele>
        <time>2020-07-15T10:00:37Z</time>
      </trkpt>
      <trkpt lat="39.7944398224" lon="-6.3852872327">
        <ele>371.69</ele>
        <time>2020-07-15T10:00:47Z</time>
      </trkpt>
      <trkpt lat="39.7945751064" lon="-6.3850115519">
        <ele>372.65</ele>
        <time>2020-07-15T10:00:57Z</time>
      </trkpt>
      <trkpt lat="39.7947037686" lon="-6.3847692311">
        <ele>373.61</ele>
        <time>2020-07-15T10:01:06Z</time>
      </trkpt>
      <trkpt lat="39.7948258929" lon="-6.3845421653">
        <ele>374.09</ele>
        <time>2020-07-15T10:01:15Z</time>
      </trkpt>
      <trkpt lat="39.7949612606" lon="-6.3842906244">
        <ele>375.05</ele>
        <time>2020-07-15T10:01:25Z</time>
      </trkpt>
      <trkpt lat="39.7950739972" lon="-6.3840814959">
        <ele>375.53</ele>
        <time>2020-07-15T10:01:33Z</time>
      </trkpt>
      <trkpt lat="39.7952485085" lon="-6.3837501593">
        <ele>376.49</ele>
        <time>2020-07-15T10:01:46Z</time>
      </trkpt>
      <trkpt lat="39.7953766678" lon="-6.3835096825">
        <ele>378.90</ele>
        <time>2020-07-15T10:01:55Z</time>
      </trkpt>
      <trkpt lat="39.7954622470" lon="-6.3831980433">
        <ele>380.34</ele>
        <time>2020-07-15T10:02:06Z</time>
      </trkpt>
      <trkpt lat="39.7954660188" lon="-6.3828998152">
        <ele>381.30</ele>
        <time>2020-07-15T10:02:16Z</time>
      </trkpt>
      <trkpt lat="39.7954389453" lon="-6.3826057781">
        <ele>381.30</ele>
        <time>2020-07-15T10:02:26Z</time>
      </trkpt>
      <trkpt lat="39.7953986283" lon="-6.3822635449">
        <ele>382.26</ele>
        <time>2020-07-15T10:02:38Z</time>
      </trkpt>
      <trkpt lat="39.7953655198" lon="-6.3819840923">
        <ele>382.74</ele>
        <time>2020-07-15T10:02:48Z</time>
      </trkpt>
      <trkpt lat="39.7953383625" lon="-6.3817021251">
        <ele>384.18</ele>
        <time>2020-07-15T10:02:58Z</time>
      </trkpt>
      <trkpt lat="39.7953055892" lon="-6.3814335689">
        <ele>385.63</ele>
        <time>2020-07-15T10:03:08Z</time>
      </trkpt>
      <trkpt lat="39.7952937707" lon="-6.3811828662">
        <ele>386.59</ele>
        <time>2020-07-15T10:03:17Z</time>
      </trkpt>
      <trkpt lat="39.7953221016" lon="-6.3808705565">
        <ele>387.55</ele>
        <time>2020-07-15T10:03:28Z</time>
      </trkpt>
      <trkpt lat="39.7953913361" lon="-6.3805688079">
        <ele>388.99</ele>
        <time>2020-07-15T10:03:39Z</time>
      </trkpt>
      <trkpt lat="39.7954630852" lon="-6.3803341985">
        <ele>388.99</ele>
        <time>2020-07-15T10:03:47Z</time>
      </trkpt>
      <trkpt lat="39.7955821082" lon="-6.3800035324">
        <ele>390.91</ele>
        <time>2020-07-15T10:03:59Z</time>
      </trkpt>
      <trkpt lat="39.7956955992" lon="-6.3796895463">
        <ele>391.39</ele>
        <time>2020-07-15T10:04:10Z</time>
      </trkpt>
      <trkpt lat="39.7958115209" lon="-6.3793786615">
        <ele>391.87</ele>
        <time>2020-07-15T10:04:21Z</time>
      </trkpt>
      <trkpt lat="39.7959007882" lon="-6.3791137096">
        <ele>392.36</ele>
        <time>2020-07-15T10:04:30Z</time>
      </trkpt>
      <trkpt lat="39.7959930729" lon="-6.3788596541">
        <ele>392.84</ele>
        <time>2020-07-15T10:04:39Z</time>
      </trkpt>
      <trkpt lat="39.7961140238" lon="-6.3785343524">
        <ele>393.32</ele>
        <time>2020-07-15T10:04:50Z</time>
      </trkpt>
      <trkpt lat="39.7962337174" lon="-6.3781975675">
        <ele>393.80</ele>
        <time>2020-07-15T10:05:01Z</time>
      </trkpt>
      <trkpt lat="39.7963431850" lon="-6.3778734393">
        <ele>394.28</ele>
        <time>2020-07-15T10:05:12Z</time>
      </trkpt>
      <trkpt lat="39.7964364756" lon="-6.3775205612">
        <ele>394.76</ele>
        <time>2020-07-15T10:05:23Z</time>
      </trkpt>
      <trkpt lat="39.7964970767" lon="-6.3771941699">
        <ele>395.24</ele>
        <time>2020-07-15T10:05:33Z</time>
      </trkpt>
      <trkpt lat="39.7965549119" lon="-6.3768986240">
        <ele>395.72</ele>
        <time>2020-07-15T10:05:42Z</time>
      </trkpt>
      <trkpt lat="39.7966013476" lon="-6.3766085263">
        <ele>396.20</ele>
        <time>2020-07-15T10:05:51Z</time>
      </trkpt>
      <trkpt lat="39.7966618650" lon="-6.3762740884">
        <ele>397.16</ele>
        <time>2020-07-15T10:06:02Z</time>
      </trkpt>
      <trkpt lat="39.7967186943" lon="-6.3760255650">
        <ele>398.12</ele>
        <time>2020-07-15T10:06:11Z</time>
      </trkpt>
      <trkpt lat="39.7967559937" lon="-6.3757952303">
        <ele>398.60</ele>
        <time>2020-07-15T10:06:19Z</time>
      </trkpt>
      <trkpt lat="39.7968180198" lon="-6.3755402528">
        <ele>399.57</ele>
        <time>2020-07-15T10:06:28Z</time>
      </trkpt>
      <trkpt lat="39.7968584206" lon="-6.3751996960">
        <ele>400.05</ele>
        <time>2020-07-15T10:06:39Z</time>
      </trkpt>
      <trkpt lat="39.7968049441" lon="-6.3749177288">
        <ele>400.05</ele>
        <time>2020-07-15T10:06:48Z</time>
      </trkpt>
      <trkpt lat="39.7966986615" lon="-6.3746201713">
        <ele>399.08</ele>
        <time>2020-07-15T10:06:57Z</time>
      </trkpt>
      <trkpt lat="39.7967352904" lon="-6.3744027447">
        <ele>400.05</ele>
        <time>2020-07-15T10:07:03Z</time>
      </trkpt>
      <trkpt lat="39.7968984023" lon="-6.3742683828">
        <ele>400.53</ele>
        <time>2020-07-15T10:07:10Z</time>
      </trkpt>
      <trkpt lat="39.7970970534" lon="-6.3742741663">
        <ele>401.01</ele>
        <time>2020-07-15T10:07:17Z</time>
      </trkpt>
      <trkpt lat="39.7973018233" lon="-6.3743573986">
        <ele>401.01</ele>
        <time>2020-07-15T10:07:25Z</time>
      </trkpt>
      <trkpt lat="39.7974899132" lon="-6.3743211050">
        <ele>401.97</ele>
        <time>2020-07-15T10:07:32Z</time>
      </trkpt>
      <trkpt lat="39.7976998799" lon="-6.3741257228">
        <ele>403.41</ele>
        <time>2020-07-15T10:07:42Z</time>
      </trkpt>
      <trkpt lat="39.7979119420" lon="-6.3739818055">
        <ele>404.37</ele>
        <time>2020-07-15T10:07:51Z</time>
      </trkpt>
      <trkpt lat="39.7981374152" lon="-6.3738499582">
        <ele>404.37</ele>
        <time>2020-07-15T10:08:00Z</time>
      </trkpt>
      <trkpt lat="39.7983696777" lon="-6.3737240620">
        <ele>403.89</ele>
        <time>2020-07-15T10:08:09Z</time>
      </trkpt>
      <trkpt lat="39.7986425925" lon="-6.3735686615">
        <ele>404.37</ele>
        <time>2020-07-15T10:08:20Z</time>
      </trkpt>
      <trkpt lat="39.7988080513" lon="-6.3734890334">
        <ele>404.37</ele>
        <time>2020-07-15T10:08:27Z</time>
      </trkpt>
      <trkpt lat="39.7990342788" lon="-6.3733680826">
        <ele>404.37</ele>
        <time>2020-07-15T10:08:35Z</time>
      </trkpt>
      <trkpt lat="39.7992836405" lon="-6.3732319605">
        <ele>404.37</ele>
        <time>2020-07-15T10:08:44Z</time>
      </trkpt>
      <trkpt lat="39.7995672002" lon="-6.3730706088">
        <ele>404.85</ele>
        <time>2020-07-15T10:08:54Z</time>
      </trkpt>
      <trkpt lat="39.7998767439" lon="-6.3728851173">
        <ele>405.33</ele>
        <time>2020-07-15T10:09:06Z</time>
      </trkpt>
      <trkpt lat="39.8001197353" lon="-6.3726906572">
        <ele>405.81</ele>
        <time>2020-07-15T10:09:15Z</time>
      </trkpt>
      <trkpt lat="39.8003481422" lon="-6.3724195864">
        <ele>405.33</ele>
        <time>2020-07-15T10:09:24Z</time>
      </trkpt>
      <trkpt lat="39.8005565163" lon="-6.3720852323">
        <ele>405.81</ele>
        <time>2020-07-15T10:09:34Z</time>
      </trkpt>
      <trkpt lat="39.8007197957" lon="-6.3717721682">
        <ele>405.81</ele>
        <time>2020-07-15T10:09:42Z</time>
      </trkpt>
      <trkpt lat="39.8008678202" lon="-6.3714487106">
        <ele>406.29</ele>
        <time>2020-07-15T10:09:50Z</time>
      </trkpt>
      <trkpt lat="39.8010017630" lon="-6.3711290248">
        <ele>405.81</ele>
        <time>2020-07-15T10:09:58Z</time>
      </trkpt>
      <trkpt lat="39.8011440877" lon="-6.3707751408">
        <ele>405.81</ele>
        <time>2020-07-15T10:10:07Z</time>
      </trkpt>
      <trkpt lat="39.8013057746" lon="-6.3704210054">
        <ele>405.33</ele>
        <time>2020-07-15T10:10:16Z</time>
      </trkpt>
      <trkpt lat="39.8015006538" lon="-6.3699719030">
        <ele>406.77</ele>
        <time>2020-07-15T10:10:29Z</time>
      </trkpt>
      <trkpt lat="39.8016340099" lon="-6.3696756866">
        <ele>407.26</ele>
        <time>2020-07-15T10:10:38Z</time>
      </trkpt>
      <trkpt lat="39.8018196691" lon="-6.3693751115">
        <ele>407.74</ele>
        <time>2020-07-15T10:10:48Z</time>
      </trkpt>
      <trkpt lat="39.8020838667" lon="-6.3690572698">
        <ele>407.74</ele>
        <time>2020-07-15T10:11:00Z</time>
      </trkpt>
      <trkpt lat="39.8023496568" lon="-6.3688260969">
        <ele>407.74</ele>
        <time>2020-07-15T10:11:11Z</time>
      </trkpt>
      <trkpt lat="39.8025734536" lon="-6.3686774857">
        <ele>408.22</ele>
        <time>2020-07-15T10:11:20Z</time>
      </trkpt>
      <trkpt lat="39.8028260004" lon="-6.3685601391">
        <ele>408.70</ele>
        <time>2020-07-15T10:11:30Z</time>
      </trkpt>
      <trkpt lat="39.8031337839" lon="-6.3684624061">
        <ele>409.18</ele>
        <time>2020-07-15T10:11:41Z</time>
      </trkpt>
      <trkpt lat="39.8034418188" lon="-6.3683791738">
        <ele>409.66</ele>
        <time>2020-07-15T10:11:52Z</time>
      </trkpt>
      <trkpt lat="39.8036946170" lon="-6.3683112804">
        <ele>409.18</ele>
        <time>2020-07-15T10:12:01Z</time>
      </trkpt>
      <trkpt lat="39.8039719742" lon="-6.3682523556">
        <ele>409.66</ele>
        <time>2020-07-15T10:12:11Z</time>
      </trkpt>
      <trkpt lat="39.8042119481" lon="-6.3681920059">
        <ele>409.18</ele>
        <time>2020-07-15T10:12:20Z</time>
      </trkpt>
      <trkpt lat="39.8043714557" lon="-6.3681507669">
        <ele>409.66</ele>
        <time>2020-07-15T10:12:26Z</time>
      </trkpt>
      <trkpt lat="39.8046603799" lon="-6.3680882379">
        <ele>410.14</ele>
        <time>2020-07-15T10:12:37Z</time>
      </trkpt>
      <trkpt lat="39.8048191331" lon="-6.3680465799">
        <ele>411.58</ele>
        <time>2020-07-15T10:12:45Z</time>
      </trkpt>
      <trkpt lat="39.8049720190" lon="-6.3680108730">
        <ele>412.54</ele>
        <time>2020-07-15T10:12:53Z</time>
      </trkpt>
      <trkpt lat="39.8051674012" lon="-6.3679620065">
        <ele>413.50</ele>
        <time>2020-07-15T10:13:03Z</time>
      </trkpt>
      <trkpt lat="39.8052217998" lon="-6.3679501880">
        <ele>413.98</ele>
        <time>2020-07-15T10:13:06Z</time>
      </trkpt>
      <trkpt lat="39.8053536471" lon="-6.3679141458">
        <ele>414.95</ele>
        <time>2020-07-15T10:13:13Z</time>
      </trkpt>
      <trkpt lat="39.8055434972" lon="-6.3678632677">
        <ele>416.39</ele>
        <time>2020-07-15T10:13:23Z</time>
      </trkpt>
      <trkpt lat="39.8057030886" lon="-6.3678260520">
        <ele>417.35</ele>
        <time>2020-07-15T10:13:32Z</time>
      </trkpt>
      <trkpt lat="39.8058673739" lon="-6.3677886687">
        <ele>418.31</ele>
        <time>2020-07-15T10:13:41Z</time>
      </trkpt>
      <trkpt lat="39.8060190026" lon="-6.3677520398">
        <ele>418.79</ele>
        <time>2020-07-15T10:13:49Z</time>
      </trkpt>
      <trkpt lat="39.8062254488" lon="-6.3676987309">
        <ele>419.75</ele>
        <time>2020-07-15T10:14:00Z</time>
      </trkpt>
      <trkpt lat="39.8064045701" lon="-6.3676633593">
        <ele>420.23</ele>
        <time>2020-07-15T10:14:10Z</time>
      </trkpt>
      <trkpt lat="39.8065510858" lon="-6.3676243834">
        <ele>421.19</ele>
        <time>2020-07-15T10:14:19Z</time>
      </trkpt>
      <trkpt lat="39.8067629803" lon="-6.3675724994">
        <ele>421.68</ele>
        <time>2020-07-15T10:14:31Z</time>
      </trkpt>
      <trkpt lat="39.8069103342" lon="-6.3675384689">
        <ele>422.64</ele>
        <time>2020-07-15T10:14:40Z</time>
      </trkpt>
      <trkpt lat="39.8070242442" lon="-6.3675144967">
        <ele>423.60</ele>
        <time>2020-07-15T10:14:47Z</time>
      </trkpt>
      <trkpt lat="39.8072342109" lon="-6.3675082941">
        <ele>424.56</ele>
        <time>2020-07-15T10:14:59Z</time>
      </trkpt>
      <trkpt lat="39.8074389808" lon="-6.3675550651">
        <ele>425.04</ele>
        <time>2020-07-15T10:15:11Z</time>
      </trkpt>
      <trkpt lat="39.8075811379" lon="-6.3676345255">
        <ele>425.52</ele>
        <time>2020-07-15T10:15:20Z</time>
      </trkpt>
      <trkpt lat="39.8076960538" lon="-6.3677285705">
        <ele>426.00</ele>
        <time>2020-07-15T10:15:28Z</time>
      </trkpt>
      <trkpt lat="39.8078283202" lon="-6.3678716496">
        <ele>426.96</ele>
        <time>2020-07-15T10:15:38Z</time>
      </trkpt>
      <trkpt lat="39.8080026638" lon="-6.3680996373">
        <ele>428.40</ele>
        <time>2020-07-15T10:15:52Z</time>
      </trkpt>
      <trkpt lat="39.8081413005" lon="-6.3683017250">
        <ele>429.37</ele>
        <time>2020-07-15T10:16:04Z</time>
      </trkpt>
      <trkpt lat="39.8082684539" lon="-6.3685214985">
        <ele>430.81</ele>
        <time>2020-07-15T10:16:16Z</time>
      </trkpt>
      <trkpt lat="39.8083718866" lon="-6.3687561918">
        <ele>432.73</ele>
        <time>2020-07-15T10:16:27Z</time>
      </trkpt>
      <trkpt lat="39.8084710445" lon="-6.3690128457">
        <ele>433.69</ele>
        <time>2020-07-15T10:16:39Z</time>
      </trkpt>
      <trkpt lat="39.8085756507" lon="-6.3692804798">
        <ele>435.13</ele>
        <time>2020-07-15T10:16:51Z</time>
      </trkpt>
      <trkpt lat="39.8086493276" lon="-6.3694716711">
        <ele>435.61</ele>
        <time>2020-07-15T10:17:00Z</time>
      </trkpt>
      <trkpt lat="39.8087429535" lon="-6.3697486091">
        <ele>436.58</ele>
        <time>2020-07-15T10:17:12Z</time>
      </trkpt>
      <trkpt lat="39.8088414408" lon="-6.3700330909">
        <ele>437.54</ele>
        <time>2020-07-15T10:17:24Z</time>
      </trkpt>
      <trkpt lat="39.8089405987" lon="-6.3702942710">
        <ele>438.98</ele>
        <time>2020-07-15T10:17:36Z</time>
      </trkpt>
      <trkpt lat="39.8090696801" lon="-6.3705341611">
        <ele>438.50</ele>
        <time>2020-07-15T10:17:47Z</time>
      </trkpt>
      <trkpt lat="39.8092801496" lon="-6.3706898130">
        <ele>439.94</ele>
        <time>2020-07-15T10:17:59Z</time>
      </trkpt>
      <trkpt lat="39.8094635457" lon="-6.3707186468">
        <ele>440.42</ele>
        <time>2020-07-15T10:18:08Z</time>
      </trkpt>
      <trkpt lat="39.8095843289" lon="-6.3707035594">
        <ele>441.38</ele>
        <time>2020-07-15T10:18:15Z</time>
      </trkpt>
      <trkpt lat="39.8097295035" lon="-6.3706695288">
        <ele>442.82</ele>
        <time>2020-07-15T10:18:23Z</time>
      </trkpt>
      <trkpt lat="39.8099181801" lon="-6.3706219196">
        <ele>444.75</ele>
        <time>2020-07-15T10:18:33Z</time>
      </trkpt>
      <trkpt lat="39.8101252131" lon="-6.3705728017">
        <ele>445.23</ele>
        <time>2020-07-15T10:18:44Z</time>
      </trkpt>
      <trkpt lat="39.8102809489" lon="-6.3705362566">
        <ele>445.71</ele>
        <time>2020-07-15T10:18:53Z</time>
      </trkpt>
      <trkpt lat="39.8103069328" lon="-6.3705331553">
        <ele>446.19</ele>
        <time>2020-07-15T10:18:59Z</time>
      </trkpt>
      <trkpt lat="39.8103006463" lon="-6.3705292158">
        <ele>447.15</ele>
        <time>2020-07-15T10:19:06Z</time>
      </trkpt>
      <trkpt lat="39.8103033286" lon="-6.3705263659">
        <ele>447.63</ele>
        <time>2020-07-15T10:19:14Z</time>
      </trkpt>
      <trkpt lat="39.8102980480" lon="-6.3705264498">
        <ele>447.63</ele>
        <time>2020-07-15T10:19:22Z</time>
      </trkpt>
      <trkpt lat="39.8102926835" lon="-6.3705212530">
        <ele>449.07</ele>
        <time>2020-07-15T10:19:47Z</time>
      </trkpt>
      <trkpt lat="39.8102976289" lon="-6.3705339935">
        <ele>448.59</ele>
        <time>2020-07-15T10:20:03Z</time>
      </trkpt>
      <trkpt lat="39.8103083577" lon="-6.3705294672">
        <ele>448.11</ele>
        <time>2020-07-15T10:20:27Z</time>
      </trkpt>
      <trkpt lat="39.8102920968" lon="-6.3705046568">
        <ele>447.63</ele>
        <time>2020-07-15T10:21:00Z</time>
      </trkpt>
      <trkpt lat="39.8102819547" lon="-6.3705269527">
        <ele>445.71</ele>
        <time>2020-07-15T10:21:37Z</time>
      </trkpt>
      <trkpt lat="39.8102980480" lon="-6.3705078419">
        <ele>444.75</ele>
        <time>2020-07-15T10:22:08Z</time>
      </trkpt>
      <trkpt lat="39.8102864809" lon="-6.3705510926">
        <ele>444.27</ele>
        <time>2020-07-15T10:22:41Z</time>
      </trkpt>
      <trkpt lat="39.8102903366" lon="-6.3705493324">
        <ele>444.75</ele>
        <time>2020-07-15T10:23:15Z</time>
      </trkpt>
      <trkpt lat="39.8102968745" lon="-6.3705387712">
        <ele>446.19</ele>
        <time>2020-07-15T10:23:34Z</time>
      </trkpt>
      <trkpt lat="39.8103133868" lon="-6.3705314789">
        <ele>445.23</ele>
        <time>2020-07-15T10:23:43Z</time>
      </trkpt>
      <trkpt lat="39.8103630077" lon="-6.3705192413">
        <ele>444.75</ele>
        <time>2020-07-15T10:23:51Z</time>
      </trkpt>
      <trkpt lat="39.8105304781" lon="-6.3704883959">
        <ele>446.19</ele>
        <time>2020-07-15T10:24:00Z</time>
      </trkpt>
      <trkpt lat="39.8107621539" lon="-6.3704184908">
        <ele>448.11</ele>
        <time>2020-07-15T10:24:11Z</time>
      </trkpt>
      <trkpt lat="39.8109873757" lon="-6.3703231886">
        <ele>450.03</ele>
        <time>2020-07-15T10:24:23Z</time>
      </trkpt>
      <trkpt lat="39.8111030459" lon="-6.3702297304">
        <ele>451.48</ele>
        <time>2020-07-15T10:24:30Z</time>
      </trkpt>
      <trkpt lat="39.8112373240" lon="-6.3700730726">
        <ele>452.92</ele>
        <time>2020-07-15T10:24:39Z</time>
      </trkpt>
      <trkpt lat="39.8113333806" lon="-6.3698861562">
        <ele>453.88</ele>
        <time>2020-07-15T10:24:48Z</time>
      </trkpt>
      <trkpt lat="39.8114015255" lon="-6.3697067834">
        <ele>454.84</ele>
        <time>2020-07-15T10:24:56Z</time>
      </trkpt>
      <trkpt lat="39.8114667367" lon="-6.3695231359">
        <ele>455.80</ele>
        <time>2020-07-15T10:25:04Z</time>
      </trkpt>
      <trkpt lat="39.8115275893" lon="-6.3693139236">
        <ele>456.28</ele>
        <time>2020-07-15T10:25:13Z</time>
      </trkpt>
      <trkpt lat="39.8115970753" lon="-6.3690866902">
        <ele>458.69</ele>
        <time>2020-07-15T10:25:23Z</time>
      </trkpt>
      <trkpt lat="39.8116616160" lon="-6.3688942418">
        <ele>459.65</ele>
        <time>2020-07-15T10:25:32Z</time>
      </trkpt>
      <trkpt lat="39.8117497936" lon="-6.3686741330">
        <ele>459.65</ele>
        <time>2020-07-15T10:25:42Z</time>
      </trkpt>
      <trkpt lat="39.8118617758" lon="-6.3684738893">
        <ele>459.65</ele>
        <time>2020-07-15T10:25:52Z</time>
      </trkpt>
      <trkpt lat="39.8120139912" lon="-6.3682981208">
        <ele>460.13</ele>
        <time>2020-07-15T10:26:03Z</time>
      </trkpt>
      <trkpt lat="39.8121361155" lon="-6.3682163972">
        <ele>461.57</ele>
        <time>2020-07-15T10:26:11Z</time>
      </trkpt>
      <trkpt lat="39.8123424780" lon="-6.3680661097">
        <ele>462.05</ele>
        <time>2020-07-15T10:26:22Z</time>
      </trkpt>
      <trkpt lat="39.8125046678" lon="-6.3679680414">
        <ele>462.53</ele>
        <time>2020-07-15T10:26:31Z</time>
      </trkpt>
      <trkpt lat="39.8126811907" lon="-6.3678430673">
        <ele>463.97</ele>
        <time>2020-07-15T10:26:41Z</time>
      </trkpt>
      <trkpt lat="39.8128290474" lon="-6.3677585777">
        <ele>463.97</ele>
        <time>2020-07-15T10:26:49Z</time>
      </trkpt>
      <trkpt lat="39.8129703663" lon="-6.3676609285">
        <ele>465.42</ele>
        <time>2020-07-15T10:26:57Z</time>
      </trkpt>
      <trkpt lat="39.8131263535" lon="-6.3675648719">
        <ele>465.90</ele>
        <time>2020-07-15T10:27:06Z</time>
      </trkpt>
      <trkpt lat="39.8132682592" lon="-6.3674700726">
        <ele>466.38</ele>
        <time>2020-07-15T10:27:14Z</time>
      </trkpt>
      <trkpt lat="39.8133970890" lon="-6.3673871756">
        <ele>466.38</ele>
        <time>2020-07-15T10:27:21Z</time>
      </trkpt>
      <trkpt lat="39.8136097379" lon="-6.3672553282">
        <ele>467.82</ele>
        <time>2020-07-15T10:27:33Z</time>
      </trkpt>
      <trkpt lat="39.8137750290" lon="-6.3671494648">
        <ele>468.30</ele>
        <time>2020-07-15T10:27:42Z</time>
      </trkpt>
      <trkpt lat="39.8139383923" lon="-6.3670332078">
        <ele>468.78</ele>
        <time>2020-07-15T10:27:51Z</time>
      </trkpt>
      <trkpt lat="39.8140740953" lon="-6.3669446111">
        <ele>468.78</ele>
        <time>2020-07-15T10:27:59Z</time>
      </trkpt>
      <trkpt lat="39.8142460082" lon="-6.3668442797">
        <ele>469.74</ele>
        <time>2020-07-15T10:28:09Z</time>
      </trkpt>
      <trkpt lat="39.8143641930" lon="-6.3667724468">
        <ele>470.22</ele>
        <time>2020-07-15T10:28:16Z</time>
      </trkpt>
      <trkpt lat="39.8144952860" lon="-6.3667086605">
        <ele>471.66</ele>
        <time>2020-07-15T10:28:24Z</time>
      </trkpt>
      <trkpt lat="39.8146567214" lon="-6.3666446228">
        <ele>473.59</ele>
        <time>2020-07-15T10:28:33Z</time>
      </trkpt>
      <trkpt lat="39.8148117028" lon="-6.3665937446">
        <ele>475.51</ele>
        <time>2020-07-15T10:28:42Z</time>
      </trkpt>
      <trkpt lat="39.8149821907" lon="-6.3665411063">
        <ele>477.43</ele>
        <time>2020-07-15T10:28:51Z</time>
      </trkpt>
      <trkpt lat="39.8151596356" lon="-6.3664853666">
        <ele>477.91</ele>
        <time>2020-07-15T10:29:00Z</time>
      </trkpt>
      <trkpt lat="39.8154336400" lon="-6.3664125279">
        <ele>477.91</ele>
        <time>2020-07-15T10:29:14Z</time>
      </trkpt>
      <trkpt lat="39.8156098276" lon="-6.3663643319">
        <ele>478.39</ele>
        <time>2020-07-15T10:29:24Z</time>
      </trkpt>
      <trkpt lat="39.8157826625" lon="-6.3663171418">
        <ele>479.35</ele>
        <time>2020-07-15T10:29:33Z</time>
      </trkpt>
      <trkpt lat="39.8159549106" lon="-6.3662782498">
        <ele>479.35</ele>
        <time>2020-07-15T10:29:42Z</time>
      </trkpt>
      <trkpt lat="39.8160979059" lon="-6.3662398607">
        <ele>480.80</ele>
        <time>2020-07-15T10:29:50Z</time>
      </trkpt>
      <trkpt lat="39.8162849899" lon="-6.3661922514">
        <ele>481.76</ele>
        <time>2020-07-15T10:29:59Z</time>
      </trkpt>
      <trkpt lat="39.8164804559" lon="-6.3661345001">
        <ele>482.24</ele>
        <time>2020-07-15T10:30:09Z</time>
      </trkpt>
      <trkpt lat="39.8166963737" lon="-6.3660736475">
        <ele>483.20</ele>
        <time>2020-07-15T10:30:20Z</time>
      </trkpt>
      <trkpt lat="39.8168709688" lon="-6.3659987971">
        <ele>484.16</ele>
        <time>2020-07-15T10:30:29Z</time>
      </trkpt>
      <trkpt lat="39.8170245253" lon="-6.3659180794">
        <ele>484.16</ele>
        <time>2020-07-15T10:30:37Z</time>
      </trkpt>
      <trkpt lat="39.8171896487" lon="-6.3658036664">
        <ele>485.12</ele>
        <time>2020-07-15T10:30:47Z</time>
      </trkpt>
      <trkpt lat="39.8173200712" lon="-6.3657064363">
        <ele>485.12</ele>
        <time>2020-07-15T10:30:55Z</time>
      </trkpt>
      <trkpt lat="39.8174426146" lon="-6.3656066917">
        <ele>486.08</ele>
        <time>2020-07-15T10:31:03Z</time>
      </trkpt>
      <trkpt lat="39.8175886273" lon="-6.3654910214">
        <ele>487.05</ele>
        <time>2020-07-15T10:31:12Z</time>
      </trkpt>
      <trkpt lat="39.8177487217" lon="-6.3653669693">
        <ele>487.05</ele>
        <time>2020-07-15T10:31:22Z</time>
      </trkpt>
      <trkpt lat="39.8179336265" lon="-6.3652431685">
        <ele>487.53</ele>
        <time>2020-07-15T10:31:33Z</time>
      </trkpt>
      <trkpt lat="39.8181228060" lon="-6.3651368860">
        <ele>487.53</ele>
        <time>2020-07-15T10:31:44Z</time>
      </trkpt>
      <trkpt lat="39.8183134943" lon="-6.3650544081">
        <ele>488.97</ele>
        <time>2020-07-15T10:31:54Z</time>
      </trkpt>
      <trkpt lat="39.8185699806" lon="-6.3650025241">
        <ele>489.93</ele>
        <time>2020-07-15T10:32:07Z</time>
      </trkpt>
      <trkpt lat="39.8187900055" lon="-6.3649787195">
        <ele>491.37</ele>
        <time>2020-07-15T10:32:18Z</time>
      </trkpt>
      <trkpt lat="39.8189797718" lon="-6.3649770431">
        <ele>492.33</ele>
        <time>2020-07-15T10:32:28Z</time>
      </trkpt>
      <trkpt lat="39.8192442209" lon="-6.3650154322">
        <ele>494.26</ele>
        <time>2020-07-15T10:32:39Z</time>
      </trkpt>
      <trkpt lat="39.8195419461" lon="-6.3650923781">
        <ele>494.74</ele>
        <time>2020-07-15T10:32:50Z</time>
      </trkpt>
      <trkpt lat="39.8196808342" lon="-6.3650497142">
        <ele>494.74</ele>
        <time>2020-07-15T10:32:55Z</time>
      </trkpt>
      <trkpt lat="39.8197734542" lon="-6.3648413401">
        <ele>495.22</ele>
        <time>2020-07-15T10:33:02Z</time>
      </trkpt>
      <trkpt lat="39.8199622985" lon="-6.3646226563">
        <ele>494.74</ele>
        <time>2020-07-15T10:33:10Z</time>
      </trkpt>
      <trkpt lat="39.8201699182" lon="-6.3646462094">
        <ele>494.74</ele>
        <time>2020-07-15T10:33:17Z</time>
      </trkpt>
      <trkpt lat="39.8203986604" lon="-6.3646951597">
        <ele>494.26</ele>
        <time>2020-07-15T10:33:24Z</time>
      </trkpt>
      <trkpt lat="39.8206385504" lon="-6.3647188805">
        <ele>493.77</ele>
        <time>2020-07-15T10:33:31Z</time>
      </trkpt>
      <trkpt lat="39.8209296539" lon="-6.3647801522">
        <ele>493.77</ele>
        <time>2020-07-15T10:33:39Z</time>
      </trkpt>
      <trkpt lat="39.8210514430" lon="-6.3647822477">
        <ele>493.77</ele>
        <time>2020-07-15T10:33:42Z</time>
      </trkpt>
      <trkpt lat="39.8213346675" lon="-6.3646984287">
        <ele>494.26</ele>
        <time>2020-07-15T10:33:50Z</time>
      </trkpt>
      <trkpt lat="39.8216340691" lon="-6.3646022882">
        <ele>494.74</ele>
        <time>2020-07-15T10:33:58Z</time>
      </trkpt>
      <trkpt lat="39.8220043816" lon="-6.3644654956">
        <ele>495.22</ele>
        <time>2020-07-15T10:34:08Z</time>
      </trkpt>
      <trkpt lat="39.8224611953" lon="-6.3643153757">
        <ele>494.74</ele>
        <time>2020-07-15T10:34:20Z</time>
      </trkpt>
      <trkpt lat="39.8225009255" lon="-6.3643022999">
        <ele>494.74</ele>
        <time>2020-07-15T10:34:21Z</time>
      </trkpt>
      <trkpt lat="39.8228600062" lon="-6.3641761523">
        <ele>494.26</ele>
        <time>2020-07-15T10:34:30Z</time>
      </trkpt>
      <trkpt lat="39.8233470786" lon="-6.3640160579">
        <ele>493.77</ele>
        <time>2020-07-15T10:34:41Z</time>
      </trkpt>
      <trkpt lat="39.8236944247" lon="-6.3639053330">
        <ele>494.74</ele>
        <time>2020-07-15T10:34:49Z</time>
      </trkpt>
      <trkpt lat="39.8241742048" lon="-6.3637455739">
        <ele>494.26</ele>
        <time>2020-07-15T10:35:00Z</time>
      </trkpt>
      <trkpt lat="39.8246186972" lon="-6.3636024110">
        <ele>495.22</ele>
        <time>2020-07-15T10:35:10Z</time>
      </trkpt>
      <trkpt lat="39.8250494432" lon="-6.3634529617">
        <ele>494.26</ele>
        <time>2020-07-15T10:35:20Z</time>
      </trkpt>
      <trkpt lat="39.8255122919" lon="-6.3632917777">
        <ele>494.26</ele>
        <time>2020-07-15T10:35:30Z</time>
      </trkpt>
      <trkpt lat="39.8258658405" lon="-6.3631691504">
        <ele>493.77</ele>
        <time>2020-07-15T10:35:38Z</time>
      </trkpt>
      <trkpt lat="39.8259067442" lon="-6.3631554041">
        <ele>493.77</ele>
        <time>2020-07-15T10:35:39Z</time>
      </trkpt>
      <trkpt lat="39.8262883723" lon="-6.3630371355">
        <ele>494.26</ele>
        <time>2020-07-15T10:35:47Z</time>
      </trkpt>
      <trkpt lat="39.8267876823" lon="-6.3628741074">
        <ele>494.74</ele>
        <time>2020-07-15T10:35:57Z</time>
      </trkpt>
      <trkpt lat="39.8272579908" lon="-6.3627121691">
        <ele>494.74</ele>
        <time>2020-07-15T10:36:07Z</time>
      </trkpt>
      <trkpt lat="39.8276323266" lon="-6.3625825010">
        <ele>493.77</ele>
        <time>2020-07-15T10:36:15Z</time>
      </trkpt>
      <trkpt lat="39.8281071614" lon="-6.3624294475">
        <ele>493.77</ele>
        <time>2020-07-15T10:36:25Z</time>
      </trkpt>
      <trkpt lat="39.8285776377" lon="-6.3622765616">
        <ele>493.77</ele>
        <time>2020-07-15T10:36:35Z</time>
      </trkpt>
      <trkpt lat="39.8288585991" lon="-6.3621976040">
        <ele>495.70</ele>
        <time>2020-07-15T10:36:42Z</time>
      </trkpt>
      <trkpt lat="39.8289130814" lon="-6.3621866237">
        <ele>496.18</ele>
        <time>2020-07-15T10:36:43Z</time>
      </trkpt>
      <trkpt lat="39.8293270636" lon="-6.3620308880">
        <ele>496.66</ele>
        <time>2020-07-15T10:36:52Z</time>
      </trkpt>
      <trkpt lat="39.8297608271" lon="-6.3618854620">
        <ele>495.70</ele>
        <time>2020-07-15T10:37:01Z</time>
      </trkpt>
      <trkpt lat="39.8301619012" lon="-6.3617303129">
        <ele>493.29</ele>
        <time>2020-07-15T10:37:10Z</time>
      </trkpt>
      <trkpt lat="39.8306845967" lon="-6.3615455758">
        <ele>491.37</ele>
        <time>2020-07-15T10:37:22Z</time>
      </trkpt>
      <trkpt lat="39.8310407437" lon="-6.3614271395">
        <ele>490.41</ele>
        <time>2020-07-15T10:37:30Z</time>
      </trkpt>
      <trkpt lat="39.8314618506" lon="-6.3612848148">
        <ele>489.45</ele>
        <time>2020-07-15T10:37:39Z</time>
      </trkpt>
      <trkpt lat="39.8319696262" lon="-6.3611067832">
        <ele>487.53</ele>
        <time>2020-07-15T10:37:49Z</time>
      </trkpt>
      <trkpt lat="39.8324473109" lon="-6.3609510474">
        <ele>484.64</ele>
        <time>2020-07-15T10:37:57Z</time>
      </trkpt>
      <trkpt lat="39.8331254907" lon="-6.3607185334">
        <ele>480.32</ele>
        <time>2020-07-15T10:38:08Z</time>
      </trkpt>
      <trkpt lat="39.8336352780" lon="-6.3605340477">
        <ele>476.47</ele>
        <time>2020-07-15T10:38:16Z</time>
      </trkpt>
      <trkpt lat="39.8342585564" lon="-6.3602761365">
        <ele>472.14</ele>
        <time>2020-07-15T10:38:26Z</time>
      </trkpt>
      <trkpt lat="39.8348140251" lon="-6.3600377552">
        <ele>469.26</ele>
        <time>2020-07-15T10:38:35Z</time>
      </trkpt>
      <trkpt lat="39.8349902127" lon="-6.3599429559">
        <ele>468.78</ele>
        <time>2020-07-15T10:38:38Z</time>
      </trkpt>
      <trkpt lat="39.8350323737" lon="-6.3598941732">
        <ele>468.78</ele>
        <time>2020-07-15T10:38:39Z</time>
      </trkpt>
      <trkpt lat="39.8350632191" lon="-6.3598283753">
        <ele>469.26</ele>
        <time>2020-07-15T10:38:40Z</time>
      </trkpt>
      <trkpt lat="39.8350804858" lon="-6.3597640861">
        <ele>469.26</ele>
        <time>2020-07-15T10:38:41Z</time>
      </trkpt>
      <trkpt lat="39.8350974172" lon="-6.3597052451">
        <ele>469.26</ele>
        <time>2020-07-15T10:38:42Z</time>
      </trkpt>
      <trkpt lat="39.8351170309" lon="-6.3596443087">
        <ele>469.26</ele>
        <time>2020-07-15T10:38:43Z</time>
      </trkpt>
      <trkpt lat="39.8351376504" lon="-6.3595923409">
        <ele>469.26</ele>
        <time>2020-07-15T10:38:44Z</time>
      </trkpt>
      <trkpt lat="39.8352213018" lon="-6.3593905047">
        <ele>468.78</ele>
        <time>2020-07-15T10:38:48Z</time>
      </trkpt>
      <trkpt lat="39.8352386523" lon="-6.3593239523">
        <ele>468.30</ele>
        <time>2020-07-15T10:38:49Z</time>
      </trkpt>
      <trkpt lat="39.8352456093" lon="-6.3592682127">
        <ele>467.82</ele>
        <time>2020-07-15T10:38:50Z</time>
      </trkpt>
      <trkpt lat="39.8352480400" lon="-6.3592057675">
        <ele>467.34</ele>
        <time>2020-07-15T10:38:51Z</time>
      </trkpt>
      <trkpt lat="39.8352421727" lon="-6.3591407239">
        <ele>467.34</ele>
        <time>2020-07-15T10:38:52Z</time>
      </trkpt>
      <trkpt lat="39.8352346290" lon="-6.3590760157">
        <ele>466.86</ele>
        <time>2020-07-15T10:38:53Z</time>
      </trkpt>
      <trkpt lat="39.8351601139" lon="-6.3585197926">
        <ele>464.93</ele>
        <time>2020-07-15T10:39:01Z</time>
      </trkpt>
      <trkpt lat="39.8351588566" lon="-6.3580244221">
        <ele>464.45</ele>
        <time>2020-07-15T10:39:09Z</time>
      </trkpt>
      <trkpt lat="39.8351659812" lon="-6.3579116017">
        <ele>464.93</ele>
        <time>2020-07-15T10:39:11Z</time>
      </trkpt>
      <trkpt lat="39.8352175299" lon="-6.3575094379">
        <ele>466.86</ele>
        <time>2020-07-15T10:39:20Z</time>
      </trkpt>
      <trkpt lat="39.8352673184" lon="-6.3572374452">
        <ele>468.30</ele>
        <time>2020-07-15T10:39:28Z</time>
      </trkpt>
      <trkpt lat="39.8353623692" lon="-6.3568796217">
        <ele>469.74</ele>
        <time>2020-07-15T10:39:40Z</time>
      </trkpt>
      <trkpt lat="39.8354757763" lon="-6.3565627020">
        <ele>471.18</ele>
        <time>2020-07-15T10:39:51Z</time>
      </trkpt>
      <trkpt lat="39.8355881777" lon="-6.3563194592">
        <ele>471.66</ele>
        <time>2020-07-15T10:40:00Z</time>
      </trkpt>
      <trkpt lat="39.8357072007" lon="-6.3560831733">
        <ele>472.63</ele>
        <time>2020-07-15T10:40:09Z</time>
      </trkpt>
      <trkpt lat="39.8358862381" lon="-6.3557416946">
        <ele>473.11</ele>
        <time>2020-07-15T10:40:21Z</time>
      </trkpt>
      <trkpt lat="39.8360296525" lon="-6.3554889802">
        <ele>472.14</ele>
        <time>2020-07-15T10:40:30Z</time>
      </trkpt>
      <trkpt lat="39.8362149764" lon="-6.3551516924">
        <ele>472.63</ele>
        <time>2020-07-15T10:40:42Z</time>
      </trkpt>
      <trkpt lat="39.8363897391" lon="-6.3548212778">
        <ele>473.11</ele>
        <time>2020-07-15T10:40:53Z</time>
      </trkpt>
      <trkpt lat="39.8365397751" lon="-6.3545674738">
        <ele>472.63</ele>
        <time>2020-07-15T10:41:01Z</time>
      </trkpt>
      <trkpt lat="39.8367546871" lon="-6.3541811518">
        <ele>472.14</ele>
        <time>2020-07-15T10:41:12Z</time>
      </trkpt>
      <trkpt lat="39.8369380832" lon="-6.3538287766">
        <ele>471.18</ele>
        <time>2020-07-15T10:41:22Z</time>
      </trkpt>
      <trkpt lat="39.8370505683" lon="-6.3535438757">
        <ele>470.22</ele>
        <time>2020-07-15T10:41:28Z</time>
      </trkpt>
      <trkpt lat="39.8372100759" lon="-6.3529814500">
        <ele>468.78</ele>
        <time>2020-07-15T10:41:37Z</time>
      </trkpt>
      <trkpt lat="39.8373469524" lon="-6.3522497099">
        <ele>464.93</ele>
        <time>2020-07-15T10:41:46Z</time>
      </trkpt>
      <trkpt lat="39.8375300970" lon="-6.3515441213">
        <ele>462.53</ele>
        <time>2020-07-15T10:41:54Z</time>
      </trkpt>
      <trkpt lat="39.8377007525" lon="-6.3511828613">
        <ele>463.49</ele>
        <time>2020-07-15T10:41:59Z</time>
      </trkpt>
      <trkpt lat="39.8378549796" lon="-6.3509559631">
        <ele>464.45</ele>
        <time>2020-07-15T10:42:05Z</time>
      </trkpt>
      <trkpt lat="39.8380267248" lon="-6.3507785182">
        <ele>466.38</ele>
        <time>2020-07-15T10:42:13Z</time>
      </trkpt>
      <trkpt lat="39.8382020742" lon="-6.3505875785">
        <ele>467.34</ele>
        <time>2020-07-15T10:42:21Z</time>
      </trkpt>
      <trkpt lat="39.8383986298" lon="-6.3503770251">
        <ele>468.78</ele>
        <time>2020-07-15T10:42:31Z</time>
      </trkpt>
      <trkpt lat="39.8384531122" lon="-6.3503030967">
        <ele>469.26</ele>
        <time>2020-07-15T10:42:37Z</time>
      </trkpt>
      <trkpt lat="39.8386223428" lon="-6.3501694892">
        <ele>469.74</ele>
        <time>2020-07-15T10:42:45Z</time>
      </trkpt>
      <trkpt lat="39.8387870472" lon="-6.3499948941">
        <ele>470.70</ele>
        <time>2020-07-15T10:42:55Z</time>
      </trkpt>
      <trkpt lat="39.8389551882" lon="-6.3498434331">
        <ele>471.66</ele>
        <time>2020-07-15T10:43:05Z</time>
      </trkpt>
      <trkpt lat="39.8390956689" lon="-6.3496757951">
        <ele>472.63</ele>
        <time>2020-07-15T10:43:15Z</time>
      </trkpt>
      <trkpt lat="39.8391816672" lon="-6.3495208975">
        <ele>473.11</ele>
        <time>2020-07-15T10:43:25Z</time>
      </trkpt>
      <trkpt lat="39.8391856905" lon="-6.3495241664">
        <ele>473.59</ele>
        <time>2020-07-15T10:43:37Z</time>
      </trkpt>
      <trkpt lat="39.8392015323" lon="-6.3495198078">
        <ele>473.59</ele>
        <time>2020-07-15T10:43:51Z</time>
      </trkpt>
      <trkpt lat="39.8392058909" lon="-6.3495132700">
        <ele>473.59</ele>
        <time>2020-07-15T10:44:05Z</time>
      </trkpt>
      <trkpt lat="39.8391991854" lon="-6.3495038822">
        <ele>473.59</ele>
        <time>2020-07-15T10:44:16Z</time>
      </trkpt>
      <trkpt lat="39.8391984310" lon="-6.3495048042">
        <ele>473.11</ele>
        <time>2020-07-15T10:44:26Z</time>
      </trkpt>
      <trkpt lat="39.8391921446" lon="-6.3495067321">
        <ele>472.63</ele>
        <time>2020-07-15T10:44:35Z</time>
      </trkpt>
      <trkpt lat="39.8391919769" lon="-6.3495197240">
        <ele>473.11</ele>
        <time>2020-07-15T10:44:50Z</time>
      </trkpt>
      <trkpt lat="39.8391971737" lon="-6.3495238312">
        <ele>472.63</ele>
        <time>2020-07-15T10:45:02Z</time>
      </trkpt>
      <trkpt lat="39.8391869478" lon="-6.3495492283">
        <ele>473.59</ele>
        <time>2020-07-15T10:45:15Z</time>
      </trkpt>
      <trkpt lat="39.8391866963" lon="-6.3495678362">
        <ele>474.55</ele>
        <time>2020-07-15T10:45:27Z</time>
      </trkpt>
      <trkpt lat="39.8391838465" lon="-6.3495635614">
        <ele>477.43</ele>
        <time>2020-07-15T10:45:41Z</time>
      </trkpt>
      <trkpt lat="39.8391714413" lon="-6.3495615497">
        <ele>479.35</ele>
        <time>2020-07-15T10:45:56Z</time>
      </trkpt>
      <trkpt lat="39.8391677532" lon="-6.3495699316">
        <ele>479.84</ele>
        <time>2020-07-15T10:46:10Z</time>
      </trkpt>
      <trkpt lat="39.8391787335" lon="-6.3495685067">
        <ele>478.87</ele>
        <time>2020-07-15T10:46:26Z</time>
      </trkpt>
      <trkpt lat="39.8391892947" lon="-6.3495697640">
        <ele>478.39</ele>
        <time>2020-07-15T10:46:43Z</time>
      </trkpt>
      <trkpt lat="39.8391979281" lon="-6.3495690096">
        <ele>478.87</ele>
        <time>2020-07-15T10:46:59Z</time>
      </trkpt>
      <trkpt lat="39.8391885404" lon="-6.3495558500">
        <ele>478.87</ele>
        <time>2020-07-15T10:47:19Z</time>
      </trkpt>
      <trkpt lat="39.8391597066" lon="-6.3495436125">
        <ele>477.43</ele>
        <time>2020-07-15T10:47:36Z</time>
      </trkpt>
      <trkpt lat="39.8391571082" lon="-6.3495658245">
        <ele>475.99</ele>
        <time>2020-07-15T10:47:53Z</time>
      </trkpt>
      <trkpt lat="39.8391758837" lon="-6.3495522458">
        <ele>477.43</ele>
        <time>2020-07-15T10:48:07Z</time>
      </trkpt>
      <trkpt lat="39.8391711898" lon="-6.3495382480">
        <ele>478.39</ele>
        <time>2020-07-15T10:48:20Z</time>
      </trkpt>
      <trkpt lat="39.8391519114" lon="-6.3495303690">
        <ele>477.43</ele>
        <time>2020-07-15T10:48:37Z</time>
      </trkpt>
      <trkpt lat="39.8391675856" lon="-6.3495361526">
        <ele>475.03</ele>
        <time>2020-07-15T10:48:54Z</time>
      </trkpt>
      <trkpt lat="39.8391753808" lon="-6.3495549280">
        <ele>473.59</ele>
        <time>2020-07-15T10:49:07Z</time>
      </trkpt>
      <trkpt lat="39.8391788173" lon="-6.3495388348">
        <ele>472.63</ele>
        <time>2020-07-15T10:49:23Z</time>
      </trkpt>
      <trkpt lat="39.8391840141" lon="-6.3494997751">
        <ele>473.59</ele>
        <time>2020-07-15T10:49:39Z</time>
      </trkpt>
      <trkpt lat="39.8391778953" lon="-6.3495058101">
        <ele>473.59</ele>
        <time>2020-07-15T10:49:51Z</time>
      </trkpt>
      <trkpt lat="39.8391749617" lon="-6.3495206460">
        <ele>472.63</ele>
        <time>2020-07-15T10:50:09Z</time>
      </trkpt>
      <trkpt lat="39.8391730338" lon="-6.3495196402">
        <ele>472.63</ele>
        <time>2020-07-15T10:50:22Z</time>
      </trkpt>
      <trkpt lat="39.8391890433" lon="-6.3495166227">
        <ele>474.07</ele>
        <time>2020-07-15T10:50:40Z</time>
      </trkpt>
      <trkpt lat="39.8391922284" lon="-6.3495177962">
        <ele>473.59</ele>
        <time>2020-07-15T10:50:53Z</time>
      </trkpt>
      <trkpt lat="39.8391861096" lon="-6.3495177962">
        <ele>473.11</ele>
        <time>2020-07-15T10:51:02Z</time>
      </trkpt>
      <trkpt lat="39.8391871154" lon="-6.3495121803">
        <ele>473.11</ele>
        <time>2020-07-15T10:51:12Z</time>
      </trkpt>
      <trkpt lat="39.8392027058" lon="-6.3495089114">
        <ele>473.59</ele>
        <time>2020-07-15T10:51:20Z</time>
      </trkpt>
      <trkpt lat="39.8392753769" lon="-6.3494730368">
        <ele>474.55</ele>
        <time>2020-07-15T10:51:27Z</time>
      </trkpt>
      <trkpt lat="39.8393955734" lon="-6.3493321370">
        <ele>475.03</ele>
        <time>2020-07-15T10:51:36Z</time>
      </trkpt>
      <trkpt lat="39.8394748662" lon="-6.3491966855">
        <ele>475.99</ele>
        <time>2020-07-15T10:51:43Z</time>
      </trkpt>
      <trkpt lat="39.8395113274" lon="-6.3491266966">
        <ele>475.99</ele>
        <time>2020-07-15T10:51:47Z</time>
      </trkpt>
      <trkpt lat="39.8395166919" lon="-6.3491033111">
        <ele>475.99</ele>
        <time>2020-07-15T10:51:48Z</time>
      </trkpt>
      <trkpt lat="39.8395818193" lon="-6.3489265367">
        <ele>475.99</ele>
        <time>2020-07-15T10:51:56Z</time>
      </trkpt>
      <trkpt lat="39.8396580946" lon="-6.3487345073">
        <ele>476.47</ele>
        <time>2020-07-15T10:52:04Z</time>
      </trkpt>
      <trkpt lat="39.8397174384" lon="-6.3485034183">
        <ele>475.99</ele>
        <time>2020-07-15T10:52:13Z</time>
      </trkpt>
      <trkpt lat="39.8397233896" lon="-6.3484861515">
        <ele>475.99</ele>
        <time>2020-07-15T10:52:14Z</time>
      </trkpt>
      <trkpt lat="39.8397273291" lon="-6.3484692201">
        <ele>475.99</ele>
        <time>2020-07-15T10:52:20Z</time>
      </trkpt>
      <trkpt lat="39.8397299275" lon="-6.3484591618">
        <ele>475.51</ele>
        <time>2020-07-15T10:52:29Z</time>
      </trkpt>
      <trkpt lat="39.8397118226" lon="-6.3484605867">
        <ele>476.47</ele>
        <time>2020-07-15T10:52:41Z</time>
      </trkpt>
      <trkpt lat="39.8396896943" lon="-6.3484594133">
        <ele>475.99</ele>
        <time>2020-07-15T10:53:02Z</time>
      </trkpt>
      <trkpt lat="39.8396884371" lon="-6.3484557252">
        <ele>474.55</ele>
        <time>2020-07-15T10:53:23Z</time>
      </trkpt>
      <trkpt lat="39.8396869283" lon="-6.3484619278">
        <ele>475.51</ele>
        <time>2020-07-15T10:53:38Z</time>
      </trkpt>
      <trkpt lat="39.8396865930" lon="-6.3484729920">
        <ele>475.51</ele>
        <time>2020-07-15T10:53:57Z</time>
      </trkpt>
      <trkpt lat="39.8396921251" lon="-6.3484664541">
        <ele>476.47</ele>
        <time>2020-07-15T10:54:09Z</time>
      </trkpt>
      <trkpt lat="39.8397020157" lon="-6.3484703936">
        <ele>475.99</ele>
        <time>2020-07-15T10:54:19Z</time>
      </trkpt>
      <trkpt lat="39.8396963999" lon="-6.3484995626">
        <ele>475.99</ele>
        <time>2020-07-15T10:54:26Z</time>
      </trkpt>
      <trkpt lat="39.8397088051" lon="-6.3484980538">
        <ele>476.47</ele>
        <time>2020-07-15T10:54:33Z</time>
      </trkpt>
      <trkpt lat="39.8397180252" lon="-6.3484890014">
        <ele>475.99</ele>
        <time>2020-07-15T10:54:34Z</time>
      </trkpt>
      <trkpt lat="39.8397274967" lon="-6.3484765962">
        <ele>475.99</ele>
        <time>2020-07-15T10:54:35Z</time>
      </trkpt>
      <trkpt lat="39.8398078792" lon="-6.3483089581">
        <ele>476.47</ele>
        <time>2020-07-15T10:54:43Z</time>
      </trkpt>
      <trkpt lat="39.8399051931" lon="-6.3480856642">
        <ele>476.47</ele>
        <time>2020-07-15T10:54:51Z</time>
      </trkpt>
      <trkpt lat="39.8400355317" lon="-6.3477748632">
        <ele>476.95</ele>
        <time>2020-07-15T10:55:00Z</time>
      </trkpt>
      <trkpt lat="39.8401435744" lon="-6.3474702649">
        <ele>476.95</ele>
        <time>2020-07-15T10:55:08Z</time>
      </trkpt>
      <trkpt lat="39.8403031658" lon="-6.3470494095">
        <ele>477.91</ele>
        <time>2020-07-15T10:55:21Z</time>
      </trkpt>
      <trkpt lat="39.8404096160" lon="-6.3467816915">
        <ele>478.87</ele>
        <time>2020-07-15T10:55:30Z</time>
      </trkpt>
      <trkpt lat="39.8405175749" lon="-6.3464780152">
        <ele>480.32</ele>
        <time>2020-07-15T10:55:41Z</time>
      </trkpt>
      <trkpt lat="39.8405033257" lon="-6.3464593235">
        <ele>480.32</ele>
        <time>2020-07-15T10:55:42Z</time>
      </trkpt>
      <trkpt lat="39.8404881544" lon="-6.3464633469">
        <ele>480.80</ele>
        <time>2020-07-15T10:55:43Z</time>
      </trkpt>
      <trkpt lat="39.8404777609" lon="-6.3464701362">
        <ele>480.80</ele>
        <time>2020-07-15T10:55:44Z</time>
      </trkpt>
      <trkpt lat="39.8404666129" lon="-6.3464819547">
        <ele>480.80</ele>
        <time>2020-07-15T10:55:45Z</time>
      </trkpt>
      <trkpt lat="39.8404573090" lon="-6.3464936893">
        <ele>480.80</ele>
        <time>2020-07-15T10:55:46Z</time>
      </trkpt>
      <trkpt lat="39.8404131364" lon="-6.3466179091">
        <ele>480.80</ele>
        <time>2020-07-15T10:55:54Z</time>
      </trkpt>
      <trkpt lat="39.8403908405" lon="-6.3466639258">
        <ele>480.80</ele>
        <time>2020-07-15T10:56:00Z</time>
      </trkpt>
      <trkpt lat="39.8403879907" lon="-6.3466663565">
        <ele>480.32</ele>
        <time>2020-07-15T10:56:07Z</time>
      </trkpt>
      <trkpt lat="39.8403944448" lon="-6.3466552086">
        <ele>480.32</ele>
        <time>2020-07-15T10:56:17Z</time>
      </trkpt>
      <trkpt lat="39.8404010665" lon="-6.3466527779">
        <ele>479.84</ele>
        <time>2020-07-15T10:56:32Z</time>
      </trkpt>
      <trkpt lat="39.8403999768" lon="-6.3466593158">
        <ele>481.28</ele>
        <time>2020-07-15T10:57:01Z</time>
      </trkpt>
      <trkpt lat="39.8404039163" lon="-6.3466444798">
        <ele>480.80</ele>
        <time>2020-07-15T10:57:17Z</time>
      </trkpt>
      <trkpt lat="39.8403993901" lon="-6.3466515206">
        <ele>480.32</ele>
        <time>2020-07-15T10:57:30Z</time>
      </trkpt>
      <trkpt lat="39.8403962888" lon="-6.3466543704">
        <ele>479.84</ele>
        <time>2020-07-15T10:57:48Z</time>
      </trkpt>
      <trkpt lat="39.8403912596" lon="-6.3466499280">
        <ele>479.84</ele>
        <time>2020-07-15T10:58:08Z</time>
      </trkpt>
      <trkpt lat="39.8403855599" lon="-6.3466454856">
        <ele>480.80</ele>
        <time>2020-07-15T10:58:30Z</time>
      </trkpt>
      <trkpt lat="39.8403928522" lon="-6.3466467429">
        <ele>481.28</ele>
        <time>2020-07-15T10:58:45Z</time>
      </trkpt>
      <trkpt lat="39.8403869011" lon="-6.3466516044">
        <ele>480.80</ele>
        <time>2020-07-15T10:59:05Z</time>
      </trkpt>
      <trkpt lat="39.8404058442" lon="-6.3466518559">
        <ele>480.80</ele>
        <time>2020-07-15T10:59:29Z</time>
      </trkpt>
      <trkpt lat="39.8404027428" lon="-6.3466397859">
        <ele>481.28</ele>
        <time>2020-07-15T10:59:52Z</time>
      </trkpt>
      <trkpt lat="39.8403905891" lon="-6.3466414623">
        <ele>481.28</ele>
        <time>2020-07-15T11:00:10Z</time>
      </trkpt>
      <trkpt lat="39.8403891642" lon="-6.3466411270">
        <ele>480.80</ele>
        <time>2020-07-15T11:00:30Z</time>
      </trkpt>
      <trkpt lat="39.8403929360" lon="-6.3466518559">
        <ele>480.32</ele>
        <time>2020-07-15T11:00:53Z</time>
      </trkpt>
      <trkpt lat="39.8403849732" lon="-6.3466546219">
        <ele>480.80</ele>
        <time>2020-07-15T11:01:17Z</time>
      </trkpt>
      <trkpt lat="39.8403942771" lon="-6.3466495089">
        <ele>480.32</ele>
        <time>2020-07-15T11:01:37Z</time>
      </trkpt>
      <trkpt lat="39.8403869011" lon="-6.3466480002">
        <ele>479.84</ele>
        <time>2020-07-15T11:01:56Z</time>
      </trkpt>
      <trkpt lat="39.8403945286" lon="-6.3466426358">
        <ele>480.80</ele>
        <time>2020-07-15T11:02:19Z</time>
      </trkpt>
      <trkpt lat="39.8403933551" lon="-6.3466464914">
        <ele>480.32</ele>
        <time>2020-07-15T11:02:42Z</time>
      </trkpt>
      <trkpt lat="39.8403947800" lon="-6.3466610759">
        <ele>479.84</ele>
        <time>2020-07-15T11:03:06Z</time>
      </trkpt>
      <trkpt lat="39.8404087778" lon="-6.3466685358">
        <ele>479.35</ele>
        <time>2020-07-15T11:03:30Z</time>
      </trkpt>
      <trkpt lat="39.8404003959" lon="-6.3466668595">
        <ele>479.35</ele>
        <time>2020-07-15T11:03:49Z</time>
      </trkpt>
      <trkpt lat="39.8403918464" lon="-6.3466660213">
        <ele>479.35</ele>
        <time>2020-07-15T11:04:07Z</time>
      </trkpt>
      <trkpt lat="39.8403985519" lon="-6.3466611598">
        <ele>479.84</ele>
        <time>2020-07-15T11:04:23Z</time>
      </trkpt>
      <trkpt lat="39.8403959535" lon="-6.3466636743">
        <ele>480.80</ele>
        <time>2020-07-15T11:04:39Z</time>
      </trkpt>
      <trkpt lat="39.8404089455" lon="-6.3466704637">
        <ele>482.24</ele>
        <time>2020-07-15T11:05:03Z</time>
      </trkpt>
      <trkpt lat="39.8404229432" lon="-6.3466634229">
        <ele>481.28</ele>
        <time>2020-07-15T11:05:19Z</time>
      </trkpt>
      <trkpt lat="39.8404238652" lon="-6.3466628361">
        <ele>480.80</ele>
        <time>2020-07-15T11:05:31Z</time>
      </trkpt>
      <trkpt lat="39.8404219374" lon="-6.3466644287">
        <ele>480.80</ele>
        <time>2020-07-15T11:05:55Z</time>
      </trkpt>
      <trkpt lat="39.8404211830" lon="-6.3466542028">
        <ele>481.28</ele>
        <time>2020-07-15T11:06:13Z</time>
      </trkpt>
      <trkpt lat="39.8404281400" lon="-6.3466478325">
        <ele>480.80</ele>
        <time>2020-07-15T11:06:30Z</time>
      </trkpt>
      <trkpt lat="39.8404349294" lon="-6.3466523588">
        <ele>480.80</ele>
        <time>2020-07-15T11:06:48Z</time>
      </trkpt>
      <trkpt lat="39.8404295649" lon="-6.3466522750">
        <ele>480.80</ele>
        <time>2020-07-15T11:07:01Z</time>
      </trkpt>
      <trkpt lat="39.8404290620" lon="-6.3466560468">
        <ele>480.32</ele>
        <time>2020-07-15T11:07:25Z</time>
      </trkpt>
      <trkpt lat="39.8404197581" lon="-6.3466586452">
        <ele>481.76</ele>
        <time>2020-07-15T11:07:44Z</time>
      </trkpt>
      <trkpt lat="39.8404153995" lon="-6.3466521073">
        <ele>481.76</ele>
        <time>2020-07-15T11:08:09Z</time>
      </trkpt>
      <trkpt lat="39.8404311575" lon="-6.3466518559">
        <ele>480.80</ele>
        <time>2020-07-15T11:08:27Z</time>
      </trkpt>
      <trkpt lat="39.8404407967" lon="-6.3466651831">
        <ele>482.24</ele>
        <time>2020-07-15T11:08:46Z</time>
      </trkpt>
      <trkpt lat="39.8404465802" lon="-6.3466690388">
        <ele>481.76</ele>
        <time>2020-07-15T11:09:03Z</time>
      </trkpt>
      <trkpt lat="39.8404503521" lon="-6.3466679491">
        <ele>481.76</ele>
        <time>2020-07-15T11:09:23Z</time>
      </trkpt>
      <trkpt lat="39.8404518608" lon="-6.3466655184">
        <ele>482.72</ele>
        <time>2020-07-15T11:09:35Z</time>
      </trkpt>
      <trkpt lat="39.8404506035" lon="-6.3466656022">
        <ele>483.20</ele>
        <time>2020-07-15T11:09:44Z</time>
      </trkpt>
      <trkpt lat="39.8404397909" lon="-6.3466498442">
        <ele>483.68</ele>
        <time>2020-07-15T11:10:06Z</time>
      </trkpt>
      <trkpt lat="39.8404362705" lon="-6.3466521073">
        <ele>483.20</ele>
        <time>2020-07-15T11:10:18Z</time>
      </trkpt>
      <trkpt lat="39.8404413834" lon="-6.3466596510">
        <ele>483.68</ele>
        <time>2020-07-15T11:10:36Z</time>
      </trkpt>
      <trkpt lat="39.8404621705" lon="-6.3466556277">
        <ele>484.64</ele>
        <time>2020-07-15T11:10:57Z</time>
      </trkpt>
      <trkpt lat="39.8404554650" lon="-6.3466517720">
        <ele>485.12</ele>
        <time>2020-07-15T11:11:16Z</time>
      </trkpt>
      <trkpt lat="39.8404528666" lon="-6.3466587290">
        <ele>484.16</ele>
        <time>2020-07-15T11:11:32Z</time>
      </trkpt>
      <trkpt lat="39.8404487595" lon="-6.3466545381">
        <ele>483.20</ele>
        <time>2020-07-15T11:11:48Z</time>
      </trkpt>
      <trkpt lat="39.8404542916" lon="-6.3466542866">
        <ele>482.24</ele>
        <time>2020-07-15T11:12:00Z</time>
      </trkpt>
      <trkpt lat="39.8404473346" lon="-6.3466389477">
        <ele>482.24</ele>
        <time>2020-07-15T11:12:16Z</time>
      </trkpt>
      <trkpt lat="39.8404475022" lon="-6.3466498442">
        <ele>482.24</ele>
        <time>2020-07-15T11:12:30Z</time>
      </trkpt>
      <trkpt lat="39.8404357675" lon="-6.3466445636">
        <ele>482.24</ele>
        <time>2020-07-15T11:12:43Z</time>
      </trkpt>
      <trkpt lat="39.8404360190" lon="-6.3466485869">
        <ele>481.76</ele>
        <time>2020-07-15T11:12:57Z</time>
      </trkpt>
      <trkpt lat="39.8404227756" lon="-6.3466521911">
        <ele>480.80</ele>
        <time>2020-07-15T11:13:14Z</time>
      </trkpt>
      <trkpt lat="39.8404236138" lon="-6.3466520235">
        <ele>480.32</ele>
        <time>2020-07-15T11:13:30Z</time>
      </trkpt>
      <trkpt lat="39.8404224403" lon="-6.3466438092">
        <ele>481.28</ele>
        <time>2020-07-15T11:13:44Z</time>
      </trkpt>
      <trkpt lat="39.8404397909" lon="-6.3466386963">
        <ele>481.76</ele>
        <time>2020-07-15T11:13:59Z</time>
      </trkpt>
      <trkpt lat="39.8404529504" lon="-6.3466464914">
        <ele>481.28</ele>
        <time>2020-07-15T11:14:13Z</time>
      </trkpt>
      <trkpt lat="39.8404547106" lon="-6.3466539513">
        <ele>481.28</ele>
        <time>2020-07-15T11:14:32Z</time>
      </trkpt>
      <trkpt lat="39.8404392879" lon="-6.3466525264">
        <ele>479.35</ele>
        <time>2020-07-15T11:14:46Z</time>
      </trkpt>
      <trkpt lat="39.8404407967" lon="-6.3466526102">
        <ele>480.32</ele>
        <time>2020-07-15T11:15:01Z</time>
      </trkpt>
      <trkpt lat="39.8404432274" lon="-6.3466496766">
        <ele>479.84</ele>
        <time>2020-07-15T11:15:14Z</time>
      </trkpt>
      <trkpt lat="39.8404482566" lon="-6.3466437254">
        <ele>479.84</ele>
        <time>2020-07-15T11:15:30Z</time>
      </trkpt>
      <trkpt lat="39.8404393718" lon="-6.3466508500">
        <ele>480.80</ele>
        <time>2020-07-15T11:15:51Z</time>
      </trkpt>
      <trkpt lat="39.8404449038" lon="-6.3466505148">
        <ele>480.80</ele>
        <time>2020-07-15T11:16:07Z</time>
      </trkpt>
      <trkpt lat="39.8404470831" lon="-6.3466495089">
        <ele>480.80</ele>
        <time>2020-07-15T11:16:21Z</time>
      </trkpt>
      <trkpt lat="39.8404629249" lon="-6.3466539513">
        <ele>481.28</ele>
        <time>2020-07-15T11:16:37Z</time>
      </trkpt>
      <trkpt lat="39.8404640146" lon="-6.3466567174">
        <ele>480.80</ele>
        <time>2020-07-15T11:17:01Z</time>
      </trkpt>
      <trkpt lat="39.8404667806" lon="-6.3466488384">
        <ele>480.80</ele>
        <time>2020-07-15T11:17:16Z</time>
      </trkpt>
      <trkpt lat="39.8404611647" lon="-6.3466465753">
        <ele>480.32</ele>
        <time>2020-07-15T11:17:32Z</time>
      </trkpt>
      <trkpt lat="39.8404556327" lon="-6.3466431387">
        <ele>480.32</ele>
        <time>2020-07-15T11:17:42Z</time>
      </trkpt>
      <trkpt lat="39.8404485080" lon="-6.3466407079">
        <ele>480.32</ele>
        <time>2020-07-15T11:17:55Z</time>
      </trkpt>
      <trkpt lat="39.8404415511" lon="-6.3466548733">
        <ele>480.32</ele>
        <time>2020-07-15T11:18:10Z</time>
      </trkpt>
      <trkpt lat="39.8404430598" lon="-6.3466603216">
        <ele>479.35</ele>
        <time>2020-07-15T11:18:29Z</time>
      </trkpt>
      <trkpt lat="39.8404482566" lon="-6.3466532808">
        <ele>481.28</ele>
        <time>2020-07-15T11:18:40Z</time>
      </trkpt>
      <trkpt lat="39.8404342588" lon="-6.3466458209">
        <ele>481.28</ele>
        <time>2020-07-15T11:18:53Z</time>
      </trkpt>
      <trkpt lat="39.8404433951" lon="-6.3466472458">
        <ele>480.80</ele>
        <time>2020-07-15T11:19:13Z</time>
      </trkpt>
      <trkpt lat="39.8404470831" lon="-6.3466464914">
        <ele>480.80</ele>
        <time>2020-07-15T11:19:27Z</time>
      </trkpt>
      <trkpt lat="39.8404612485" lon="-6.3466427196">
        <ele>480.32</ele>
        <time>2020-07-15T11:19:44Z</time>
      </trkpt>
      <trkpt lat="39.8404635955" lon="-6.3466564659">
        <ele>480.80</ele>
        <time>2020-07-15T11:20:00Z</time>
      </trkpt>
      <trkpt lat="39.8404588178" lon="-6.3466410432">
        <ele>480.32</ele>
        <time>2020-07-15T11:20:15Z</time>
      </trkpt>
      <trkpt lat="39.8404505197" lon="-6.3466513529">
        <ele>480.32</ele>
        <time>2020-07-15T11:20:30Z</time>
      </trkpt>
      <trkpt lat="39.8404616676" lon="-6.3466616627">
        <ele>481.28</ele>
        <time>2020-07-15T11:20:53Z</time>
      </trkpt>
      <trkpt lat="39.8404568899" lon="-6.3466498442">
        <ele>479.84</ele>
        <time>2020-07-15T11:21:06Z</time>
      </trkpt>
      <trkpt lat="39.8404457420" lon="-6.3466422167">
        <ele>479.35</ele>
        <time>2020-07-15T11:21:23Z</time>
      </trkpt>
      <trkpt lat="39.8404507712" lon="-6.3466408756">
        <ele>479.35</ele>
        <time>2020-07-15T11:21:43Z</time>
      </trkpt>
      <trkpt lat="39.8404492624" lon="-6.3466438092">
        <ele>479.35</ele>
        <time>2020-07-15T11:21:56Z</time>
      </trkpt>
      <trkpt lat="39.8404494300" lon="-6.3466421328">
        <ele>480.32</ele>
        <time>2020-07-15T11:22:11Z</time>
      </trkpt>
      <trkpt lat="39.8404460773" lon="-6.3466470782">
        <ele>480.80</ele>
        <time>2020-07-15T11:22:22Z</time>
      </trkpt>
      <trkpt lat="39.8404593207" lon="-6.3466483355">
        <ele>480.32</ele>
        <time>2020-07-15T11:22:39Z</time>
      </trkpt>
      <trkpt lat="39.8404473346" lon="-6.3466585614">
        <ele>479.84</ele>
        <time>2020-07-15T11:22:56Z</time>
      </trkpt>
      <trkpt lat="39.8404458258" lon="-6.3466533646">
        <ele>478.87</ele>
        <time>2020-07-15T11:23:08Z</time>
      </trkpt>
      <trkpt lat="39.8404296488" lon="-6.3466469105">
        <ele>479.35</ele>
        <time>2020-07-15T11:23:16Z</time>
      </trkpt>
      <trkpt lat="39.8404193390" lon="-6.3466356788">
        <ele>479.35</ele>
        <time>2020-07-15T11:23:24Z</time>
      </trkpt>
      <trkpt lat="39.8404156510" lon="-6.3466208428">
        <ele>479.84</ele>
        <time>2020-07-15T11:23:32Z</time>
      </trkpt>
      <trkpt lat="39.8404040840" lon="-6.3466120418">
        <ele>479.35</ele>
        <time>2020-07-15T11:23:40Z</time>
      </trkpt>
      <trkpt lat="39.8404062632" lon="-6.3466102816">
        <ele>479.35</ele>
        <time>2020-07-15T11:23:52Z</time>
      </trkpt>
      <trkpt lat="39.8403993063" lon="-6.3466081861">
        <ele>478.39</ele>
        <time>2020-07-15T11:24:04Z</time>
      </trkpt>
      <trkpt lat="39.8403977137" lon="-6.3466200884">
        <ele>479.35</ele>
        <time>2020-07-15T11:24:20Z</time>
      </trkpt>
      <trkpt lat="39.8403962050" lon="-6.3466115389">
        <ele>479.35</ele>
        <time>2020-07-15T11:24:33Z</time>
      </trkpt>
      <trkpt lat="39.8404069338" lon="-6.3466127962">
        <ele>479.35</ele>
        <time>2020-07-15T11:24:49Z</time>
      </trkpt>
      <trkpt lat="39.8404036649" lon="-6.3466158137">
        <ele>479.84</ele>
        <time>2020-07-15T11:25:00Z</time>
      </trkpt>
      <trkpt lat="39.8404057603" lon="-6.3466136344">
        <ele>479.84</ele>
        <time>2020-07-15T11:25:10Z</time>
      </trkpt>
      <trkpt lat="39.8404185846" lon="-6.3465943560">
        <ele>481.28</ele>
        <time>2020-07-15T11:25:18Z</time>
      </trkpt>
      <trkpt lat="39.8404280562" lon="-6.3465905841">
        <ele>481.28</ele>
        <time>2020-07-15T11:25:25Z</time>
      </trkpt>
      <trkpt lat="39.8404946085" lon="-6.3464559708">
        <ele>481.76</ele>
        <time>2020-07-15T11:25:33Z</time>
      </trkpt>
      <trkpt lat="39.8406134639" lon="-6.3462761790">
        <ele>480.80</ele>
        <time>2020-07-15T11:25:40Z</time>
      </trkpt>
      <trkpt lat="39.8407080956" lon="-6.3460466824">
        <ele>480.80</ele>
        <time>2020-07-15T11:25:48Z</time>
      </trkpt>
      <trkpt lat="39.8408147972" lon="-6.3457543217">
        <ele>481.28</ele>
        <time>2020-07-15T11:25:57Z</time>
      </trkpt>
      <trkpt lat="39.8409553617" lon="-6.3453859370">
        <ele>481.76</ele>
        <time>2020-07-15T11:26:08Z</time>
      </trkpt>
      <trkpt lat="39.8410756420" lon="-6.3450718671">
        <ele>481.28</ele>
        <time>2020-07-15T11:26:17Z</time>
      </trkpt>
      <trkpt lat="39.8412034661" lon="-6.3447359204">
        <ele>482.24</ele>
        <time>2020-07-15T11:26:26Z</time>
      </trkpt>
      <trkpt lat="39.8413752113" lon="-6.3443190884">
        <ele>482.72</ele>
        <time>2020-07-15T11:26:37Z</time>
      </trkpt>
      <trkpt lat="39.8415399995" lon="-6.3439774420">
        <ele>482.24</ele>
        <time>2020-07-15T11:26:47Z</time>
      </trkpt>
      <trkpt lat="39.8417014349" lon="-6.3436829858">
        <ele>482.24</ele>
        <time>2020-07-15T11:26:55Z</time>
      </trkpt>
      <trkpt lat="39.8418573383" lon="-6.3433719333">
        <ele>481.76</ele>
        <time>2020-07-15T11:27:04Z</time>
      </trkpt>
      <trkpt lat="39.8420771118" lon="-6.3429732062">
        <ele>481.28</ele>
        <time>2020-07-15T11:27:14Z</time>
      </trkpt>
      <trkpt lat="39.8421345279" lon="-6.3428906444">
        <ele>480.80</ele>
        <time>2020-07-15T11:27:16Z</time>
      </trkpt>
      <trkpt lat="39.8422671296" lon="-6.3426781632">
        <ele>480.32</ele>
        <time>2020-07-15T11:27:21Z</time>
      </trkpt>
      <trkpt lat="39.8423226178" lon="-6.3426179811">
        <ele>479.84</ele>
        <time>2020-07-15T11:27:23Z</time>
      </trkpt>
      <trkpt lat="39.8423756752" lon="-6.3425788376">
        <ele>479.84</ele>
        <time>2020-07-15T11:27:24Z</time>
      </trkpt>
      <trkpt lat="39.8424128070" lon="-6.3425559551">
        <ele>479.35</ele>
        <time>2020-07-15T11:27:25Z</time>
      </trkpt>
      <trkpt lat="39.8424505256" lon="-6.3425370120">
        <ele>479.35</ele>
        <time>2020-07-15T11:27:26Z</time>
      </trkpt>
      <trkpt lat="39.8424822092" lon="-6.3425237685">
        <ele>479.35</ele>
        <time>2020-07-15T11:27:27Z</time>
      </trkpt>
      <trkpt lat="39.8426985461" lon="-6.3424137980">
        <ele>479.84</ele>
        <time>2020-07-15T11:27:35Z</time>
      </trkpt>
      <trkpt lat="39.8429758195" lon="-6.3422562182">
        <ele>480.32</ele>
        <time>2020-07-15T11:27:45Z</time>
      </trkpt>
      <trkpt lat="39.8433049768" lon="-6.3421003148">
        <ele>482.24</ele>
        <time>2020-07-15T11:27:57Z</time>
      </trkpt>
      <trkpt lat="39.8436079826" lon="-6.3419885840">
        <ele>484.64</ele>
        <time>2020-07-15T11:28:08Z</time>
      </trkpt>
      <trkpt lat="39.8439266626" lon="-6.3418958802">
        <ele>486.56</ele>
        <time>2020-07-15T11:28:19Z</time>
      </trkpt>
      <trkpt lat="39.8441793770" lon="-6.3418590836">
        <ele>487.05</ele>
        <time>2020-07-15T11:28:28Z</time>
      </trkpt>
      <trkpt lat="39.8444210272" lon="-6.3419387117">
        <ele>487.05</ele>
        <time>2020-07-15T11:28:37Z</time>
      </trkpt>
      <trkpt lat="39.8446972948" lon="-6.3421899173">
        <ele>485.12</ele>
        <time>2020-07-15T11:28:45Z</time>
      </trkpt>
      <trkpt lat="39.8447703850" lon="-6.3423072640">
        <ele>484.16</ele>
        <time>2020-07-15T11:28:47Z</time>
      </trkpt>
      <trkpt lat="39.8449285515" lon="-6.3427579589">
        <ele>480.32</ele>
        <time>2020-07-15T11:28:52Z</time>
      </trkpt>
      <trkpt lat="39.8450052459" lon="-6.3433803990">
        <ele>475.99</ele>
        <time>2020-07-15T11:28:57Z</time>
      </trkpt>
      <trkpt lat="39.8451071698" lon="-6.3444630895">
        <ele>469.26</ele>
        <time>2020-07-15T11:29:04Z</time>
      </trkpt>
      <trkpt lat="39.8452396039" lon="-6.3455500547">
        <ele>461.09</ele>
        <time>2020-07-15T11:29:11Z</time>
      </trkpt>
      <trkpt lat="39.8454560246" lon="-6.3461348601">
        <ele>457.24</ele>
        <time>2020-07-15T11:29:15Z</time>
      </trkpt>
      <trkpt lat="39.8455335572" lon="-6.3462741673">
        <ele>456.76</ele>
        <time>2020-07-15T11:29:16Z</time>
      </trkpt>
      <trkpt lat="39.8456953280" lon="-6.3465078548">
        <ele>455.80</ele>
        <time>2020-07-15T11:29:18Z</time>
      </trkpt>
      <trkpt lat="39.8458707612" lon="-6.3466964476">
        <ele>455.32</ele>
        <time>2020-07-15T11:29:20Z</time>
      </trkpt>
      <trkpt lat="39.8459487967" lon="-6.3467563782">
        <ele>455.32</ele>
        <time>2020-07-15T11:29:21Z</time>
      </trkpt>
      <trkpt lat="39.8460302688" lon="-6.3468082622">
        <ele>455.32</ele>
        <time>2020-07-15T11:29:22Z</time>
      </trkpt>
      <trkpt lat="39.8462753557" lon="-6.3469360024">
        <ele>455.80</ele>
        <time>2020-07-15T11:29:25Z</time>
      </trkpt>
      <trkpt lat="39.8463559058" lon="-6.3469587173">
        <ele>455.80</ele>
        <time>2020-07-15T11:29:26Z</time>
      </trkpt>
      <trkpt lat="39.8468577303" lon="-6.3470561989">
        <ele>455.80</ele>
        <time>2020-07-15T11:29:33Z</time>
      </trkpt>
      <trkpt lat="39.8470164835" lon="-6.3470641617">
        <ele>455.80</ele>
        <time>2020-07-15T11:29:37Z</time>
      </trkpt>
      <trkpt lat="39.8470615782" lon="-6.3470473140">
        <ele>455.32</ele>
        <time>2020-07-15T11:29:42Z</time>
      </trkpt>
      <trkpt lat="39.8470604885" lon="-6.3470477331">
        <ele>455.32</ele>
        <time>2020-07-15T11:29:58Z</time>
      </trkpt>
      <trkpt lat="39.8470826168" lon="-6.3470269460">
        <ele>454.84</ele>
        <time>2020-07-15T11:30:14Z</time>
      </trkpt>
      <trkpt lat="39.8471034877" lon="-6.3469695300">
        <ele>454.36</ele>
        <time>2020-07-15T11:30:21Z</time>
      </trkpt>
      <trkpt lat="39.8471001349" lon="-6.3469702005">
        <ele>455.32</ele>
        <time>2020-07-15T11:30:38Z</time>
      </trkpt>
      <trkpt lat="39.8471031524" lon="-6.3469710387">
        <ele>455.80</ele>
        <time>2020-07-15T11:30:50Z</time>
      </trkpt>
      <trkpt lat="39.8471033201" lon="-6.3469734695">
        <ele>455.80</ele>
        <time>2020-07-15T11:31:17Z</time>
      </trkpt>
      <trkpt lat="39.8471146356" lon="-6.3469370082">
        <ele>455.32</ele>
        <time>2020-07-15T11:31:28Z</time>
      </trkpt>
      <trkpt lat="39.8471191619" lon="-6.3469392713">
        <ele>455.32</ele>
        <time>2020-07-15T11:31:36Z</time>
      </trkpt>
      <trkpt lat="39.8471172340" lon="-6.3469391875">
        <ele>455.32</ele>
        <time>2020-07-15T11:31:52Z</time>
      </trkpt>
      <trkpt lat="39.8471662682" lon="-6.3468623254">
        <ele>455.32</ele>
        <time>2020-07-15T11:31:58Z</time>
      </trkpt>
      <trkpt lat="39.8472355865" lon="-6.3467383571">
        <ele>454.84</ele>
        <time>2020-07-15T11:32:04Z</time>
      </trkpt>
      <trkpt lat="39.8473375943" lon="-6.3465769216">
        <ele>454.84</ele>
        <time>2020-07-15T11:32:11Z</time>
      </trkpt>
      <trkpt lat="39.8474835232" lon="-6.3462980557">
        <ele>455.32</ele>
        <time>2020-07-15T11:32:21Z</time>
      </trkpt>
      <trkpt lat="39.8476277757" lon="-6.3460579980">
        <ele>454.84</ele>
        <time>2020-07-15T11:32:29Z</time>
      </trkpt>
      <trkpt lat="39.8477606289" lon="-6.3458141685">
        <ele>455.32</ele>
        <time>2020-07-15T11:32:37Z</time>
      </trkpt>
      <trkpt lat="39.8478926439" lon="-6.3455813192">
        <ele>456.28</ele>
        <time>2020-07-15T11:32:45Z</time>
      </trkpt>
      <trkpt lat="39.8480142653" lon="-6.3453659881">
        <ele>456.28</ele>
        <time>2020-07-15T11:32:53Z</time>
      </trkpt>
      <trkpt lat="39.8481752817" lon="-6.3451507408">
        <ele>456.76</ele>
        <time>2020-07-15T11:33:01Z</time>
      </trkpt>
      <trkpt lat="39.8483778723" lon="-6.3448244333">
        <ele>456.76</ele>
        <time>2020-07-15T11:33:12Z</time>
      </trkpt>
      <trkpt lat="39.8485352006" lon="-6.3445502613">
        <ele>456.28</ele>
        <time>2020-07-15T11:33:21Z</time>
      </trkpt>
      <trkpt lat="39.8487149086" lon="-6.3442096207">
        <ele>456.28</ele>
        <time>2020-07-15T11:33:31Z</time>
      </trkpt>
      <trkpt lat="39.8488895874" lon="-6.3438686449">
        <ele>456.28</ele>
        <time>2020-07-15T11:33:41Z</time>
      </trkpt>
      <trkpt lat="39.8490708042" lon="-6.3434859272">
        <ele>456.28</ele>
        <time>2020-07-15T11:33:52Z</time>
      </trkpt>
      <trkpt lat="39.8492172360" lon="-6.3432227354">
        <ele>455.80</ele>
        <time>2020-07-15T11:34:01Z</time>
      </trkpt>
      <trkpt lat="39.8493744805" lon="-6.3429141138">
        <ele>454.84</ele>
        <time>2020-07-15T11:34:10Z</time>
      </trkpt>
      <trkpt lat="39.8494859599" lon="-6.3426924963">
        <ele>454.84</ele>
        <time>2020-07-15T11:34:18Z</time>
      </trkpt>
      <trkpt lat="39.8495694436" lon="-6.3424496725">
        <ele>455.80</ele>
        <time>2020-07-15T11:34:27Z</time>
      </trkpt>
      <trkpt lat="39.8496452998" lon="-6.3422535360">
        <ele>456.28</ele>
        <time>2020-07-15T11:34:35Z</time>
      </trkpt>
      <trkpt lat="39.8497701064" lon="-6.3420967106">
        <ele>456.28</ele>
        <time>2020-07-15T11:34:42Z</time>
      </trkpt>
      <trkpt lat="39.8498762213" lon="-6.3419636898">
        <ele>455.80</ele>
        <time>2020-07-15T11:34:48Z</time>
      </trkpt>
      <trkpt lat="39.8500179593" lon="-6.3417087123">
        <ele>456.76</ele>
        <time>2020-07-15T11:34:57Z</time>
      </trkpt>
      <trkpt lat="39.8501907103" lon="-6.3414120767">
        <ele>458.21</ele>
        <time>2020-07-15T11:35:08Z</time>
      </trkpt>
      <trkpt lat="39.8503242340" lon="-6.3412207179">
        <ele>458.21</ele>
        <time>2020-07-15T11:35:16Z</time>
      </trkpt>
      <trkpt lat="39.8504544050" lon="-6.3409931492">
        <ele>459.17</ele>
        <time>2020-07-15T11:35:25Z</time>
      </trkpt>
      <trkpt lat="39.8505120724" lon="-6.3408768084">
        <ele>460.61</ele>
        <time>2020-07-15T11:35:32Z</time>
      </trkpt>
      <trkpt lat="39.8505150899" lon="-6.3408709411">
        <ele>460.61</ele>
        <time>2020-07-15T11:35:40Z</time>
      </trkpt>
      <trkpt lat="39.8505216278" lon="-6.3408511598">
        <ele>460.13</ele>
        <time>2020-07-15T11:35:51Z</time>
      </trkpt>
      <trkpt lat="39.8505223822" lon="-6.3408280257">
        <ele>460.13</ele>
        <time>2020-07-15T11:36:00Z</time>
      </trkpt>
      <trkpt lat="39.8505285848" lon="-6.3408328872">
        <ele>459.65</ele>
        <time>2020-07-15T11:36:12Z</time>
      </trkpt>
      <trkpt lat="39.8505699076" lon="-6.3408041373">
        <ele>459.65</ele>
        <time>2020-07-15T11:36:17Z</time>
      </trkpt>
      <trkpt lat="39.8505808040" lon="-6.3408066519">
        <ele>459.65</ele>
        <time>2020-07-15T11:36:18Z</time>
      </trkpt>
      <trkpt lat="39.8506030999" lon="-6.3408002816">
        <ele>459.17</ele>
        <time>2020-07-15T11:36:20Z</time>
      </trkpt>
      <trkpt lat="39.8506085481" lon="-6.3407894690">
        <ele>459.65</ele>
        <time>2020-07-15T11:36:25Z</time>
      </trkpt>
      <trkpt lat="39.8506204505" lon="-6.3407469727">
        <ele>460.13</ele>
        <time>2020-07-15T11:36:34Z</time>
      </trkpt>
      <trkpt lat="39.8506373819" lon="-6.3406966813">
        <ele>460.61</ele>
        <time>2020-07-15T11:36:43Z</time>
      </trkpt>
      <trkpt lat="39.8506547324" lon="-6.3406643271">
        <ele>460.13</ele>
        <time>2020-07-15T11:36:50Z</time>
      </trkpt>
      <trkpt lat="39.8506482784" lon="-6.3406699430">
        <ele>459.65</ele>
        <time>2020-07-15T11:36:58Z</time>
      </trkpt>
      <trkpt lat="39.8506373819" lon="-6.3406671770">
        <ele>459.65</ele>
        <time>2020-07-15T11:37:21Z</time>
      </trkpt>
      <trkpt lat="39.8506405670" lon="-6.3406667579">
        <ele>459.65</ele>
        <time>2020-07-15T11:37:37Z</time>
      </trkpt>
      <trkpt lat="39.8506521340" lon="-6.3406681828">
        <ele>460.13</ele>
        <time>2020-07-15T11:38:01Z</time>
      </trkpt>
      <trkpt lat="39.8506493680" lon="-6.3406654168">
        <ele>459.17</ele>
        <time>2020-07-15T11:38:10Z</time>
      </trkpt>
      <trkpt lat="39.8506817222" lon="-6.3406194001">
        <ele>459.17</ele>
        <time>2020-07-15T11:38:14Z</time>
      </trkpt>
      <trkpt lat="39.8506898526" lon="-6.3405959308">
        <ele>459.17</ele>
        <time>2020-07-15T11:38:15Z</time>
      </trkpt>
      <trkpt lat="39.8508016672" lon="-6.3403714634">
        <ele>459.65</ele>
        <time>2020-07-15T11:38:24Z</time>
      </trkpt>
      <trkpt lat="39.8509435728" lon="-6.3400506880">
        <ele>460.13</ele>
        <time>2020-07-15T11:38:35Z</time>
      </trkpt>
      <trkpt lat="39.8510799464" lon="-6.3397728279">
        <ele>460.13</ele>
        <time>2020-07-15T11:38:44Z</time>
      </trkpt>
      <trkpt lat="39.8511970416" lon="-6.3394687325">
        <ele>458.69</ele>
        <time>2020-07-15T11:38:53Z</time>
      </trkpt>
      <trkpt lat="39.8513426352" lon="-6.3391207997">
        <ele>457.24</ele>
        <time>2020-07-15T11:39:02Z</time>
      </trkpt>
      <trkpt lat="39.8514355067" lon="-6.3389331289">
        <ele>456.76</ele>
        <time>2020-07-15T11:39:08Z</time>
      </trkpt>
      <trkpt lat="39.8515528534" lon="-6.3386563584">
        <ele>455.80</ele>
        <time>2020-07-15T11:39:16Z</time>
      </trkpt>
      <trkpt lat="39.8517225031" lon="-6.3382823579">
        <ele>455.32</ele>
        <time>2020-07-15T11:39:25Z</time>
      </trkpt>
      <trkpt lat="39.8518805020" lon="-6.3379242830">
        <ele>455.32</ele>
        <time>2020-07-15T11:39:34Z</time>
      </trkpt>
      <trkpt lat="39.8519654106" lon="-6.3376739156">
        <ele>453.40</ele>
        <time>2020-07-15T11:39:41Z</time>
      </trkpt>
      <trkpt lat="39.8521025386" lon="-6.3374149147">
        <ele>451.48</ele>
        <time>2020-07-15T11:39:49Z</time>
      </trkpt>
      <trkpt lat="39.8521765508" lon="-6.3371656369">
        <ele>451.00</ele>
        <time>2020-07-15T11:39:55Z</time>
      </trkpt>
      <trkpt lat="39.8522664048" lon="-6.3370000105">
        <ele>450.52</ele>
        <time>2020-07-15T11:40:00Z</time>
      </trkpt>
      <trkpt lat="39.8523581028" lon="-6.3368148543">
        <ele>450.52</ele>
        <time>2020-07-15T11:40:07Z</time>
      </trkpt>
      <trkpt lat="39.8523752857" lon="-6.3366630580">
        <ele>450.52</ele>
        <time>2020-07-15T11:40:14Z</time>
      </trkpt>
      <trkpt lat="39.8524306063" lon="-6.3365758024">
        <ele>450.03</ele>
        <time>2020-07-15T11:40:18Z</time>
      </trkpt>
      <trkpt lat="39.8525169399" lon="-6.3364493195">
        <ele>450.03</ele>
        <time>2020-07-15T11:40:24Z</time>
      </trkpt>
      <trkpt lat="39.8526238091" lon="-6.3362926617">
        <ele>450.03</ele>
        <time>2020-07-15T11:40:30Z</time>
      </trkpt>
      <trkpt lat="39.8526453506" lon="-6.3362727128">
        <ele>450.52</ele>
        <time>2020-07-15T11:40:31Z</time>
      </trkpt>
      <trkpt lat="39.8526630364" lon="-6.3362496626">
        <ele>450.52</ele>
        <time>2020-07-15T11:40:32Z</time>
      </trkpt>
      <trkpt lat="39.8526781239" lon="-6.3362229243">
        <ele>450.52</ele>
        <time>2020-07-15T11:40:33Z</time>
      </trkpt>
      <trkpt lat="39.8526914511" lon="-6.3361957669">
        <ele>450.52</ele>
        <time>2020-07-15T11:40:34Z</time>
      </trkpt>
      <trkpt lat="39.8527773656" lon="-6.3359345868">
        <ele>451.48</ele>
        <time>2020-07-15T11:40:43Z</time>
      </trkpt>
      <trkpt lat="39.8528798763" lon="-6.3357253745">
        <ele>451.48</ele>
        <time>2020-07-15T11:40:52Z</time>
      </trkpt>
      <trkpt lat="39.8529728316" lon="-6.3354960456">
        <ele>452.44</ele>
        <time>2020-07-15T11:41:01Z</time>
      </trkpt>
      <trkpt lat="39.8530493584" lon="-6.3353227917">
        <ele>453.40</ele>
        <time>2020-07-15T11:41:08Z</time>
      </trkpt>
      <trkpt lat="39.8531398829" lon="-6.3351000845">
        <ele>453.40</ele>
        <time>2020-07-15T11:41:17Z</time>
      </trkpt>
      <trkpt lat="39.8532652762" lon="-6.3348775450">
        <ele>453.88</ele>
        <time>2020-07-15T11:41:26Z</time>
      </trkpt>
      <trkpt lat="39.8533477541" lon="-6.3346386608">
        <ele>453.40</ele>
        <time>2020-07-15T11:41:34Z</time>
      </trkpt>
      <trkpt lat="39.8534447327" lon="-6.3342495728">
        <ele>452.92</ele>
        <time>2020-07-15T11:41:45Z</time>
      </trkpt>
      <trkpt lat="39.8535063397" lon="-6.3340010494">
        <ele>452.44</ele>
        <time>2020-07-15T11:41:52Z</time>
      </trkpt>
      <trkpt lat="39.8535683658" lon="-6.3338113669">
        <ele>451.96</ele>
        <time>2020-07-15T11:41:58Z</time>
      </trkpt>
      <trkpt lat="39.8536198307" lon="-6.3337184954">
        <ele>451.96</ele>
        <time>2020-07-15T11:42:03Z</time>
      </trkpt>
      <trkpt lat="39.8537515104" lon="-6.3335153181">
        <ele>451.96</ele>
        <time>2020-07-15T11:42:12Z</time>
      </trkpt>
      <trkpt lat="39.8538558651" lon="-6.3333352748">
        <ele>452.44</ele>
        <time>2020-07-15T11:42:19Z</time>
      </trkpt>
      <trkpt lat="39.8539276142" lon="-6.3332173415">
        <ele>452.44</ele>
        <time>2020-07-15T11:42:26Z</time>
      </trkpt>
      <trkpt lat="39.8539267760" lon="-6.3332149945">
        <ele>453.40</ele>
        <time>2020-07-15T11:42:39Z</time>
      </trkpt>
      <trkpt lat="39.8539298773" lon="-6.3332118094">
        <ele>454.84</ele>
        <time>2020-07-15T11:42:55Z</time>
      </trkpt>
      <trkpt lat="39.8539323919" lon="-6.3332086243">
        <ele>455.32</ele>
        <time>2020-07-15T11:43:09Z</time>
      </trkpt>
      <trkpt lat="39.8539272789" lon="-6.3332104683">
        <ele>455.80</ele>
        <time>2020-07-15T11:43:29Z</time>
      </trkpt>
      <trkpt lat="39.8539595492" lon="-6.3331600931">
        <ele>455.32</ele>
        <time>2020-07-15T11:43:39Z</time>
      </trkpt>
      <trkpt lat="39.8540852778" lon="-6.3329580054">
        <ele>455.32</ele>
        <time>2020-07-15T11:43:47Z</time>
      </trkpt>
      <trkpt lat="39.8542353138" lon="-6.3327145949">
        <ele>455.80</ele>
        <time>2020-07-15T11:43:56Z</time>
      </trkpt>
      <trkpt lat="39.8543916363" lon="-6.3325513154">
        <ele>454.84</ele>
        <time>2020-07-15T11:44:03Z</time>
      </trkpt>
      <trkpt lat="39.8546463624" lon="-6.3323190529">
        <ele>453.88</ele>
        <time>2020-07-15T11:44:14Z</time>
      </trkpt>
      <trkpt lat="39.8547574226" lon="-6.3321440388">
        <ele>453.88</ele>
        <time>2020-07-15T11:44:21Z</time>
      </trkpt>
      <trkpt lat="39.8548667226" lon="-6.3319277856">
        <ele>454.36</ele>
        <time>2020-07-15T11:44:29Z</time>
      </trkpt>
      <trkpt lat="39.8550056107" lon="-6.3317561243">
        <ele>454.84</ele>
        <time>2020-07-15T11:44:37Z</time>
      </trkpt>
      <trkpt lat="39.8551413976" lon="-6.3315666094">
        <ele>455.32</ele>
        <time>2020-07-15T11:44:45Z</time>
      </trkpt>
      <trkpt lat="39.8553034198" lon="-6.3313584030">
        <ele>455.80</ele>
        <time>2020-07-15T11:44:54Z</time>
      </trkpt>
      <trkpt lat="39.8554004822" lon="-6.3312110491">
        <ele>456.28</ele>
        <time>2020-07-15T11:45:01Z</time>
      </trkpt>
      <trkpt lat="39.8555532005" lon="-6.3310195226">
        <ele>457.24</ele>
        <time>2020-07-15T11:45:09Z</time>
      </trkpt>
      <trkpt lat="39.8556601536" lon="-6.3308385573">
        <ele>457.24</ele>
        <time>2020-07-15T11:45:16Z</time>
      </trkpt>
      <trkpt lat="39.8557674419" lon="-6.3306958973">
        <ele>457.72</ele>
        <time>2020-07-15T11:45:23Z</time>
      </trkpt>
      <trkpt lat="39.8558825254" lon="-6.3305546623">
        <ele>458.21</ele>
        <time>2020-07-15T11:45:30Z</time>
      </trkpt>
      <trkpt lat="39.8560546897" lon="-6.3303249981">
        <ele>458.69</ele>
        <time>2020-07-15T11:45:40Z</time>
      </trkpt>
      <trkpt lat="39.8561670911" lon="-6.3301152829">
        <ele>459.17</ele>
        <time>2020-07-15T11:45:48Z</time>
      </trkpt>
      <trkpt lat="39.8562737927" lon="-6.3299099263">
        <ele>460.13</ele>
        <time>2020-07-15T11:45:56Z</time>
      </trkpt>
      <trkpt lat="39.8563825898" lon="-6.3297582977">
        <ele>461.09</ele>
        <time>2020-07-15T11:46:03Z</time>
      </trkpt>
      <trkpt lat="39.8564000241" lon="-6.3297158014">
        <ele>461.09</ele>
        <time>2020-07-15T11:46:05Z</time>
      </trkpt>
      <trkpt lat="39.8564048856" lon="-6.3296920806">
        <ele>461.09</ele>
        <time>2020-07-15T11:46:06Z</time>
      </trkpt>
      <trkpt lat="39.8564104177" lon="-6.3296657614">
        <ele>461.09</ele>
        <time>2020-07-15T11:46:07Z</time>
      </trkpt>
      <trkpt lat="39.8564154468" lon="-6.3296376821">
        <ele>461.09</ele>
        <time>2020-07-15T11:46:08Z</time>
      </trkpt>
      <trkpt lat="39.8564218171" lon="-6.3296095189">
        <ele>461.09</ele>
        <time>2020-07-15T11:46:09Z</time>
      </trkpt>
      <trkpt lat="39.8564275168" lon="-6.3295805175">
        <ele>461.57</ele>
        <time>2020-07-15T11:46:10Z</time>
      </trkpt>
      <trkpt lat="39.8564328812" lon="-6.3295508455">
        <ele>461.57</ele>
        <time>2020-07-15T11:46:11Z</time>
      </trkpt>
      <trkpt lat="39.8564409278" lon="-6.3295202516">
        <ele>461.57</ele>
        <time>2020-07-15T11:46:12Z</time>
      </trkpt>
      <trkpt lat="39.8565315362" lon="-6.3292421401">
        <ele>463.01</ele>
        <time>2020-07-15T11:46:23Z</time>
      </trkpt>
      <trkpt lat="39.8565940652" lon="-6.3290947862">
        <ele>463.49</ele>
        <time>2020-07-15T11:46:30Z</time>
      </trkpt>
      <trkpt lat="39.8566951510" lon="-6.3288645353">
        <ele>463.97</ele>
        <time>2020-07-15T11:46:39Z</time>
      </trkpt>
      <trkpt lat="39.8568402417" lon="-6.3287287485">
        <ele>464.45</ele>
        <time>2020-07-15T11:46:48Z</time>
      </trkpt>
      <trkpt lat="39.8569502123" lon="-6.3286181074">
        <ele>465.42</ele>
        <time>2020-07-15T11:46:56Z</time>
      </trkpt>
      <trkpt lat="39.8570766952" lon="-6.3284483738">
        <ele>465.42</ele>
        <time>2020-07-15T11:47:05Z</time>
      </trkpt>
      <trkpt lat="39.8571761046" lon="-6.3282758743">
        <ele>465.90</ele>
        <time>2020-07-15T11:47:13Z</time>
      </trkpt>
      <trkpt lat="39.8572191875" lon="-6.3281796500">
        <ele>465.90</ele>
        <time>2020-07-15T11:47:18Z</time>
      </trkpt>
      <trkpt lat="39.8573494423" lon="-6.3280402590">
        <ele>465.90</ele>
        <time>2020-07-15T11:47:27Z</time>
      </trkpt>
      <trkpt lat="39.8575215228" lon="-6.3278755546">
        <ele>465.90</ele>
        <time>2020-07-15T11:47:38Z</time>
      </trkpt>
      <trkpt lat="39.8576547951" lon="-6.3277201541">
        <ele>466.38</ele>
        <time>2020-07-15T11:47:47Z</time>
      </trkpt>
      <trkpt lat="39.8577871453" lon="-6.3275379315">
        <ele>467.34</ele>
        <time>2020-07-15T11:47:57Z</time>
      </trkpt>
      <trkpt lat="39.8578799330" lon="-6.3274010550">
        <ele>467.82</ele>
        <time>2020-07-15T11:48:04Z</time>
      </trkpt>
      <trkpt lat="39.8579743970" lon="-6.3272369374">
        <ele>468.30</ele>
        <time>2020-07-15T11:48:13Z</time>
      </trkpt>
      <trkpt lat="39.8579975311" lon="-6.3272091094">
        <ele>468.30</ele>
        <time>2020-07-15T11:48:15Z</time>
      </trkpt>
      <trkpt lat="39.8580120318" lon="-6.3271977939">
        <ele>468.30</ele>
        <time>2020-07-15T11:48:16Z</time>
      </trkpt>
      <trkpt lat="39.8580269516" lon="-6.3271836285">
        <ele>468.30</ele>
        <time>2020-07-15T11:48:17Z</time>
      </trkpt>
      <trkpt lat="39.8580413684" lon="-6.3271726482">
        <ele>468.30</ele>
        <time>2020-07-15T11:48:18Z</time>
      </trkpt>
      <trkpt lat="39.8580555338" lon="-6.3271583151">
        <ele>468.30</ele>
        <time>2020-07-15T11:48:19Z</time>
      </trkpt>
      <trkpt lat="39.8581699468" lon="-6.3270321675">
        <ele>469.26</ele>
        <time>2020-07-15T11:48:28Z</time>
      </trkpt>
      <trkpt lat="39.8582537659" lon="-6.3269017451">
        <ele>469.26</ele>
        <time>2020-07-15T11:48:35Z</time>
      </trkpt>
      <trkpt lat="39.8583743814" lon="-6.3267568219">
        <ele>469.26</ele>
        <time>2020-07-15T11:48:44Z</time>
      </trkpt>
      <trkpt lat="39.8584372457" lon="-6.3266675547">
        <ele>469.74</ele>
        <time>2020-07-15T11:48:52Z</time>
      </trkpt>
      <trkpt lat="39.8584354017" lon="-6.3266654592">
        <ele>470.22</ele>
        <time>2020-07-15T11:49:08Z</time>
      </trkpt>
      <trkpt lat="39.8584421072" lon="-6.3266416546">
        <ele>471.18</ele>
        <time>2020-07-15T11:49:26Z</time>
      </trkpt>
      <trkpt lat="39.8584357370" lon="-6.3266540598">
        <ele>469.74</ele>
        <time>2020-07-15T11:49:45Z</time>
      </trkpt>
      <trkpt lat="39.8584433645" lon="-6.3266564906">
        <ele>470.22</ele>
        <time>2020-07-15T11:50:00Z</time>
      </trkpt>
      <trkpt lat="39.8584526684" lon="-6.3266482763">
        <ele>471.66</ele>
        <time>2020-07-15T11:50:09Z</time>
      </trkpt>
      <trkpt lat="39.8584661633" lon="-6.3266383018">
        <ele>471.66</ele>
        <time>2020-07-15T11:50:16Z</time>
      </trkpt>
      <trkpt lat="39.8585286923" lon="-6.3265682291">
        <ele>471.66</ele>
        <time>2020-07-15T11:50:23Z</time>
      </trkpt>
      <trkpt lat="39.8586108349" lon="-6.3265080471">
        <ele>472.14</ele>
        <time>2020-07-15T11:50:28Z</time>
      </trkpt>
      <trkpt lat="39.8586275149" lon="-6.3265017606">
        <ele>472.63</ele>
        <time>2020-07-15T11:50:29Z</time>
      </trkpt>
      <trkpt lat="39.8586413451" lon="-6.3264905289">
        <ele>472.63</ele>
        <time>2020-07-15T11:50:30Z</time>
      </trkpt>
      <trkpt lat="39.8586539179" lon="-6.3264761120">
        <ele>473.11</ele>
        <time>2020-07-15T11:50:31Z</time>
      </trkpt>
      <trkpt lat="39.8586690053" lon="-6.3264594320">
        <ele>473.11</ele>
        <time>2020-07-15T11:50:32Z</time>
      </trkpt>
      <trkpt lat="39.8586847633" lon="-6.3264449313">
        <ele>473.11</ele>
        <time>2020-07-15T11:50:33Z</time>
      </trkpt>
      <trkpt lat="39.8587437719" lon="-6.3263439294">
        <ele>473.11</ele>
        <time>2020-07-15T11:50:40Z</time>
      </trkpt>
      <trkpt lat="39.8587651458" lon="-6.3262927998">
        <ele>473.11</ele>
        <time>2020-07-15T11:50:47Z</time>
      </trkpt>
      <trkpt lat="39.8587653972" lon="-6.3262906205">
        <ele>472.63</ele>
        <time>2020-07-15T11:50:54Z</time>
      </trkpt>
      <trkpt lat="39.8588300217" lon="-6.3262194581">
        <ele>472.63</ele>
        <time>2020-07-15T11:51:04Z</time>
      </trkpt>
      <trkpt lat="39.8588633817" lon="-6.3261792250">
        <ele>473.59</ele>
        <time>2020-07-15T11:51:13Z</time>
      </trkpt>
      <trkpt lat="39.8588657286" lon="-6.3261716813">
        <ele>473.59</ele>
        <time>2020-07-15T11:51:29Z</time>
      </trkpt>
      <trkpt lat="39.8588660639" lon="-6.3261742797">
        <ele>473.11</ele>
        <time>2020-07-15T11:51:41Z</time>
      </trkpt>
      <trkpt lat="39.8588662315" lon="-6.3261794765">
        <ele>473.11</ele>
        <time>2020-07-15T11:51:57Z</time>
      </trkpt>
      <trkpt lat="39.8589088116" lon="-6.3261351362">
        <ele>473.59</ele>
        <time>2020-07-15T11:52:03Z</time>
      </trkpt>
      <trkpt lat="39.8590435088" lon="-6.3260034565">
        <ele>474.55</ele>
        <time>2020-07-15T11:52:12Z</time>
      </trkpt>
      <trkpt lat="39.8592233006" lon="-6.3259109203">
        <ele>474.07</ele>
        <time>2020-07-15T11:52:21Z</time>
      </trkpt>
      <trkpt lat="39.8593871668" lon="-6.3257820904">
        <ele>474.55</ele>
        <time>2020-07-15T11:52:30Z</time>
      </trkpt>
      <trkpt lat="39.8595487699" lon="-6.3256209064">
        <ele>474.55</ele>
        <time>2020-07-15T11:52:39Z</time>
      </trkpt>
      <trkpt lat="39.8596971296" lon="-6.3254435454">
        <ele>474.55</ele>
        <time>2020-07-15T11:52:48Z</time>
      </trkpt>
      <trkpt lat="39.8598834593" lon="-6.3252715487">
        <ele>474.55</ele>
        <time>2020-07-15T11:52:57Z</time>
      </trkpt>
      <trkpt lat="39.8600676935" lon="-6.3251230214">
        <ele>474.55</ele>
        <time>2020-07-15T11:53:05Z</time>
      </trkpt>
      <trkpt lat="39.8601717968" lon="-6.3250475843">
        <ele>474.55</ele>
        <time>2020-07-15T11:53:11Z</time>
      </trkpt>
      <trkpt lat="39.8603508342" lon="-6.3249186706">
        <ele>474.55</ele>
        <time>2020-07-15T11:53:20Z</time>
      </trkpt>
      <trkpt lat="39.8604931589" lon="-6.3248317502">
        <ele>474.07</ele>
        <time>2020-07-15T11:53:28Z</time>
      </trkpt>
      <trkpt lat="39.8606693465" lon="-6.3246941194">
        <ele>474.55</ele>
        <time>2020-07-15T11:53:37Z</time>
      </trkpt>
      <trkpt lat="39.8608691711" lon="-6.3245837297">
        <ele>475.03</ele>
        <time>2020-07-15T11:53:46Z</time>
      </trkpt>
      <trkpt lat="39.8609203845" lon="-6.3245548122">
        <ele>475.03</ele>
        <time>2020-07-15T11:53:52Z</time>
      </trkpt>
      <trkpt lat="39.8609487992" lon="-6.3245481905">
        <ele>475.03</ele>
        <time>2020-07-15T11:54:00Z</time>
      </trkpt>
      <trkpt lat="39.8610432632" lon="-6.3244914450">
        <ele>475.51</ele>
        <time>2020-07-15T11:54:07Z</time>
      </trkpt>
      <trkpt lat="39.8610671517" lon="-6.3244709931">
        <ele>475.51</ele>
        <time>2020-07-15T11:54:09Z</time>
      </trkpt>
      <trkpt lat="39.8610804789" lon="-6.3244646229">
        <ele>475.99</ele>
        <time>2020-07-15T11:54:10Z</time>
      </trkpt>
      <trkpt lat="39.8610955663" lon="-6.3244561572">
        <ele>475.99</ele>
        <time>2020-07-15T11:54:11Z</time>
      </trkpt>
      <trkpt lat="39.8612863384" lon="-6.3243535627">
        <ele>476.47</ele>
        <time>2020-07-15T11:54:20Z</time>
      </trkpt>
      <trkpt lat="39.8614779487" lon="-6.3242202904">
        <ele>476.47</ele>
        <time>2020-07-15T11:54:30Z</time>
      </trkpt>
      <trkpt lat="39.8615051061" lon="-6.3241901994">
        <ele>476.95</ele>
        <time>2020-07-15T11:54:35Z</time>
      </trkpt>
      <trkpt lat="39.8615048546" lon="-6.3241886906">
        <ele>475.99</ele>
        <time>2020-07-15T11:54:48Z</time>
      </trkpt>
      <trkpt lat="39.8615320958" lon="-6.3241481222">
        <ele>475.51</ele>
        <time>2020-07-15T11:54:56Z</time>
      </trkpt>
      <trkpt lat="39.8616929445" lon="-6.3240477070">
        <ele>476.47</ele>
        <time>2020-07-15T11:55:05Z</time>
      </trkpt>
      <trkpt lat="39.8618478421" lon="-6.3239276782">
        <ele>476.47</ele>
        <time>2020-07-15T11:55:14Z</time>
      </trkpt>
      <trkpt lat="39.8620099481" lon="-6.3238130976">
        <ele>476.47</ele>
        <time>2020-07-15T11:55:23Z</time>
      </trkpt>
      <trkpt lat="39.8621419631" lon="-6.3237162866">
        <ele>477.43</ele>
        <time>2020-07-15T11:55:31Z</time>
      </trkpt>
      <trkpt lat="39.8623037338" lon="-6.3235779852">
        <ele>477.91</ele>
        <time>2020-07-15T11:55:41Z</time>
      </trkpt>
      <trkpt lat="39.8624490760" lon="-6.3234684337">
        <ele>478.39</ele>
        <time>2020-07-15T11:55:50Z</time>
      </trkpt>
      <trkpt lat="39.8625717871" lon="-6.3234107662">
        <ele>478.39</ele>
        <time>2020-07-15T11:55:57Z</time>
      </trkpt>
      <trkpt lat="39.8626561090" lon="-6.3233534340">
        <ele>477.91</ele>
        <time>2020-07-15T11:56:03Z</time>
      </trkpt>
      <trkpt lat="39.8627907224" lon="-6.3232457265">
        <ele>477.43</ele>
        <time>2020-07-15T11:56:12Z</time>
      </trkpt>
      <trkpt lat="39.8629600368" lon="-6.3231163099">
        <ele>476.95</ele>
        <time>2020-07-15T11:56:22Z</time>
      </trkpt>
      <trkpt lat="39.8631146830" lon="-6.3229956105">
        <ele>476.47</ele>
        <time>2020-07-15T11:56:30Z</time>
      </trkpt>
      <trkpt lat="39.8633010965" lon="-6.3228531182">
        <ele>476.95</ele>
        <time>2020-07-15T11:56:41Z</time>
      </trkpt>
      <trkpt lat="39.8634399008" lon="-6.3227448240">
        <ele>476.47</ele>
        <time>2020-07-15T11:56:49Z</time>
      </trkpt>
      <trkpt lat="39.8635387234" lon="-6.3226610050">
        <ele>476.95</ele>
        <time>2020-07-15T11:56:56Z</time>
      </trkpt>
      <trkpt lat="39.8636761867" lon="-6.3225711510">
        <ele>476.95</ele>
        <time>2020-07-15T11:57:05Z</time>
      </trkpt>
      <trkpt lat="39.8638098780" lon="-6.3224721607">
        <ele>476.95</ele>
        <time>2020-07-15T11:57:14Z</time>
      </trkpt>
      <trkpt lat="39.8638489377" lon="-6.3224392198">
        <ele>476.95</ele>
        <time>2020-07-15T11:57:17Z</time>
      </trkpt>
      <trkpt lat="39.8638601694" lon="-6.3224260602">
        <ele>476.95</ele>
        <time>2020-07-15T11:57:18Z</time>
      </trkpt>
      <trkpt lat="39.8638716526" lon="-6.3224145770">
        <ele>476.95</ele>
        <time>2020-07-15T11:57:19Z</time>
      </trkpt>
      <trkpt lat="39.8638844769" lon="-6.3224026747">
        <ele>476.95</ele>
        <time>2020-07-15T11:57:20Z</time>
      </trkpt>
      <trkpt lat="39.8638965469" lon="-6.3223934546">
        <ele>476.95</ele>
        <time>2020-07-15T11:57:21Z</time>
      </trkpt>
      <trkpt lat="39.8639097903" lon="-6.3223833963">
        <ele>477.43</ele>
        <time>2020-07-15T11:57:22Z</time>
      </trkpt>
      <trkpt lat="39.8639239557" lon="-6.3223727513">
        <ele>477.43</ele>
        <time>2020-07-15T11:57:23Z</time>
      </trkpt>
      <trkpt lat="39.8639394622" lon="-6.3223635312">
        <ele>477.43</ele>
        <time>2020-07-15T11:57:24Z</time>
      </trkpt>
      <trkpt lat="39.8639547173" lon="-6.3223543111">
        <ele>477.43</ele>
        <time>2020-07-15T11:57:25Z</time>
      </trkpt>
      <trkpt lat="39.8639685474" lon="-6.3223448396">
        <ele>477.43</ele>
        <time>2020-07-15T11:57:26Z</time>
      </trkpt>
      <trkpt lat="39.8641173262" lon="-6.3222301751">
        <ele>476.95</ele>
        <time>2020-07-15T11:57:37Z</time>
      </trkpt>
      <trkpt lat="39.8642342538" lon="-6.3221566658">
        <ele>476.95</ele>
        <time>2020-07-15T11:57:47Z</time>
      </trkpt>
      <trkpt lat="39.8643672746" lon="-6.3220494613">
        <ele>477.43</ele>
        <time>2020-07-15T11:57:56Z</time>
      </trkpt>
      <trkpt lat="39.8644883092" lon="-6.3219562545">
        <ele>477.91</ele>
        <time>2020-07-15T11:58:05Z</time>
      </trkpt>
      <trkpt lat="39.8645987827" lon="-6.3219109923">
        <ele>477.91</ele>
        <time>2020-07-15T11:58:13Z</time>
      </trkpt>
      <trkpt lat="39.8647225834" lon="-6.3218166959">
        <ele>477.43</ele>
        <time>2020-07-15T11:58:20Z</time>
      </trkpt>
      <trkpt lat="39.8648355715" lon="-6.3217042107">
        <ele>476.95</ele>
        <time>2020-07-15T11:58:28Z</time>
      </trkpt>
      <trkpt lat="39.8649162892" lon="-6.3216234092">
        <ele>476.47</ele>
        <time>2020-07-15T11:58:34Z</time>
      </trkpt>
      <trkpt lat="39.8649287783" lon="-6.3216082379">
        <ele>476.47</ele>
        <time>2020-07-15T11:58:35Z</time>
      </trkpt>
      <trkpt lat="39.8650154471" lon="-6.3215227425">
        <ele>475.03</ele>
        <time>2020-07-15T11:58:42Z</time>
      </trkpt>
      <trkpt lat="39.8651182093" lon="-6.3214137778">
        <ele>474.55</ele>
        <time>2020-07-15T11:58:48Z</time>
      </trkpt>
      <trkpt lat="39.8652592767" lon="-6.3212552760">
        <ele>473.59</ele>
        <time>2020-07-15T11:58:56Z</time>
      </trkpt>
      <trkpt lat="39.8653609492" lon="-6.3211060781">
        <ele>473.11</ele>
        <time>2020-07-15T11:59:04Z</time>
      </trkpt>
      <trkpt lat="39.8654494621" lon="-6.3209923357">
        <ele>472.63</ele>
        <time>2020-07-15T11:59:12Z</time>
      </trkpt>
      <trkpt lat="39.8655507155" lon="-6.3208974525">
        <ele>472.63</ele>
        <time>2020-07-15T11:59:19Z</time>
      </trkpt>
      <trkpt lat="39.8656673916" lon="-6.3207480870">
        <ele>472.63</ele>
        <time>2020-07-15T11:59:28Z</time>
      </trkpt>
      <trkpt lat="39.8658162542" lon="-6.3206273038">
        <ele>472.14</ele>
        <time>2020-07-15T11:59:39Z</time>
      </trkpt>
      <trkpt lat="39.8659552261" lon="-6.3204580732">
        <ele>472.63</ele>
        <time>2020-07-15T11:59:48Z</time>
      </trkpt>
      <trkpt lat="39.8660875764" lon="-6.3202983979">
        <ele>472.63</ele>
        <time>2020-07-15T11:59:58Z</time>
      </trkpt>
      <trkpt lat="39.8661354370" lon="-6.3202433288">
        <ele>472.63</ele>
        <time>2020-07-15T12:00:05Z</time>
      </trkpt>
      <trkpt lat="39.8661501892" lon="-6.3202072028">
        <ele>472.63</ele>
        <time>2020-07-15T12:00:20Z</time>
      </trkpt>
      <trkpt lat="39.8662211839" lon="-6.3201258145">
        <ele>472.63</ele>
        <time>2020-07-15T12:00:27Z</time>
      </trkpt>
      <trkpt lat="39.8663511034" lon="-6.3199600205">
        <ele>473.11</ele>
        <time>2020-07-15T12:00:37Z</time>
      </trkpt>
      <trkpt lat="39.8665125389" lon="-6.3197321165">
        <ele>473.59</ele>
        <time>2020-07-15T12:00:49Z</time>
      </trkpt>
      <trkpt lat="39.8666607309" lon="-6.3195574377">
        <ele>474.07</ele>
        <time>2020-07-15T12:00:58Z</time>
      </trkpt>
      <trkpt lat="39.8667722940" lon="-6.3194053899">
        <ele>473.11</ele>
        <time>2020-07-15T12:01:05Z</time>
      </trkpt>
      <trkpt lat="39.8668981064" lon="-6.3192484807">
        <ele>471.66</ele>
        <time>2020-07-15T12:01:13Z</time>
      </trkpt>
      <trkpt lat="39.8670343123" lon="-6.3190834410">
        <ele>471.66</ele>
        <time>2020-07-15T12:01:22Z</time>
      </trkpt>
      <trkpt lat="39.8671417683" lon="-6.3189469837">
        <ele>471.18</ele>
        <time>2020-07-15T12:01:30Z</time>
      </trkpt>
      <trkpt lat="39.8673069756" lon="-6.3187219296">
        <ele>470.70</ele>
        <time>2020-07-15T12:01:41Z</time>
      </trkpt>
      <trkpt lat="39.8674627952" lon="-6.3185085263">
        <ele>470.22</ele>
        <time>2020-07-15T12:01:51Z</time>
      </trkpt>
      <trkpt lat="39.8675373942" lon="-6.3184008189">
        <ele>469.74</ele>
        <time>2020-07-15T12:01:58Z</time>
      </trkpt>
      <trkpt lat="39.8675605282" lon="-6.3183861505">
        <ele>469.74</ele>
        <time>2020-07-15T12:02:07Z</time>
      </trkpt>
      <trkpt lat="39.8675573431" lon="-6.3183779363">
        <ele>470.70</ele>
        <time>2020-07-15T12:02:14Z</time>
      </trkpt>
      <trkpt lat="39.8675892781" lon="-6.3183283154">
        <ele>471.18</ele>
        <time>2020-07-15T12:02:23Z</time>
      </trkpt>
      <trkpt lat="39.8676745221" lon="-6.3181977253">
        <ele>471.18</ele>
        <time>2020-07-15T12:02:30Z</time>
      </trkpt>
      <trkpt lat="39.8677795473" lon="-6.3179434184">
        <ele>471.18</ele>
        <time>2020-07-15T12:02:39Z</time>
      </trkpt>
      <trkpt lat="39.8678643722" lon="-6.3177690748">
        <ele>470.22</ele>
        <time>2020-07-15T12:02:46Z</time>
      </trkpt>
      <trkpt lat="39.8679061979" lon="-6.3176877704">
        <ele>470.22</ele>
        <time>2020-07-15T12:02:52Z</time>
      </trkpt>
      <trkpt lat="39.8679115623" lon="-6.3176991697">
        <ele>470.70</ele>
        <time>2020-07-15T12:03:07Z</time>
      </trkpt>
      <trkpt lat="39.8679181002" lon="-6.3177077193">
        <ele>471.18</ele>
        <time>2020-07-15T12:03:19Z</time>
      </trkpt>
      <trkpt lat="39.8679193575" lon="-6.3177021872">
        <ele>471.18</ele>
        <time>2020-07-15T12:03:27Z</time>
      </trkpt>
      <trkpt lat="39.8679280747" lon="-6.3176828250">
        <ele>470.22</ele>
        <time>2020-07-15T12:03:38Z</time>
      </trkpt>
      <trkpt lat="39.8679339420" lon="-6.3176661450">
        <ele>469.74</ele>
        <time>2020-07-15T12:03:39Z</time>
      </trkpt>
      <trkpt lat="39.8679416534" lon="-6.3176477049">
        <ele>469.74</ele>
        <time>2020-07-15T12:03:40Z</time>
      </trkpt>
      <trkpt lat="39.8679520469" lon="-6.3176211342">
        <ele>469.74</ele>
        <time>2020-07-15T12:03:41Z</time>
      </trkpt>
      <trkpt lat="39.8679636139" lon="-6.3175915461">
        <ele>469.26</ele>
        <time>2020-07-15T12:03:42Z</time>
      </trkpt>
      <trkpt lat="39.8679729179" lon="-6.3175647240">
        <ele>469.26</ele>
        <time>2020-07-15T12:03:43Z</time>
      </trkpt>
      <trkpt lat="39.8680805415" lon="-6.3172992691">
        <ele>469.26</ele>
        <time>2020-07-15T12:03:53Z</time>
      </trkpt>
      <trkpt lat="39.8681249656" lon="-6.3171727024">
        <ele>469.26</ele>
        <time>2020-07-15T12:03:59Z</time>
      </trkpt>
      <trkpt lat="39.8681543022" lon="-6.3170383405">
        <ele>470.22</ele>
        <time>2020-07-15T12:04:06Z</time>
      </trkpt>
      <trkpt lat="39.8681781907" lon="-6.3169551082">
        <ele>470.22</ele>
        <time>2020-07-15T12:04:14Z</time>
      </trkpt>
      <trkpt lat="39.8681796156" lon="-6.3169582933">
        <ele>470.22</ele>
        <time>2020-07-15T12:04:27Z</time>
      </trkpt>
      <trkpt lat="39.8681938648" lon="-6.3169473968">
        <ele>469.74</ele>
        <time>2020-07-15T12:04:46Z</time>
      </trkpt>
      <trkpt lat="39.8682041746" lon="-6.3169271965">
        <ele>469.74</ele>
        <time>2020-07-15T12:04:57Z</time>
      </trkpt>
      <trkpt lat="39.8682236206" lon="-6.3168720435">
        <ele>469.74</ele>
        <time>2020-07-15T12:05:03Z</time>
      </trkpt>
      <trkpt lat="39.8682828806" lon="-6.3167369273">
        <ele>470.22</ele>
        <time>2020-07-15T12:05:10Z</time>
      </trkpt>
      <trkpt lat="39.8683592398" lon="-6.3165036589">
        <ele>470.70</ele>
        <time>2020-07-15T12:05:19Z</time>
      </trkpt>
      <trkpt lat="39.8684366047" lon="-6.3162922673">
        <ele>470.22</ele>
        <time>2020-07-15T12:05:27Z</time>
      </trkpt>
      <trkpt lat="39.8685227707" lon="-6.3160978071">
        <ele>470.70</ele>
        <time>2020-07-15T12:05:35Z</time>
      </trkpt>
      <trkpt lat="39.8686238565" lon="-6.3158548996">
        <ele>471.18</ele>
        <time>2020-07-15T12:05:44Z</time>
      </trkpt>
      <trkpt lat="39.8687256966" lon="-6.3155955635">
        <ele>471.18</ele>
        <time>2020-07-15T12:05:54Z</time>
      </trkpt>
      <trkpt lat="39.8688258603" lon="-6.3153377362">
        <ele>471.18</ele>
        <time>2020-07-15T12:06:04Z</time>
      </trkpt>
      <trkpt lat="39.8689510021" lon="-6.3150074054">
        <ele>472.14</ele>
        <time>2020-07-15T12:06:17Z</time>
      </trkpt>
      <trkpt lat="39.8690085020" lon="-6.3148271106">
        <ele>473.59</ele>
        <time>2020-07-15T12:06:26Z</time>
      </trkpt>
      <trkpt lat="39.8690850288" lon="-6.3146197423">
        <ele>474.55</ele>
        <time>2020-07-15T12:06:36Z</time>
      </trkpt>
      <trkpt lat="39.8691949155" lon="-6.3144109491">
        <ele>475.51</ele>
        <time>2020-07-15T12:06:46Z</time>
      </trkpt>
      <trkpt lat="39.8692960013" lon="-6.3142193388">
        <ele>475.51</ele>
        <time>2020-07-15T12:06:55Z</time>
      </trkpt>
      <trkpt lat="39.8693830892" lon="-6.3140741643">
        <ele>475.99</ele>
        <time>2020-07-15T12:07:03Z</time>
      </trkpt>
      <trkpt lat="39.8694514018" lon="-6.3139155786">
        <ele>476.47</ele>
        <time>2020-07-15T12:07:10Z</time>
      </trkpt>
      <trkpt lat="39.8695383221" lon="-6.3137531374">
        <ele>475.51</ele>
        <time>2020-07-15T12:07:17Z</time>
      </trkpt>
      <trkpt lat="39.8696599435" lon="-6.3135431707">
        <ele>474.55</ele>
        <time>2020-07-15T12:07:26Z</time>
      </trkpt>
      <trkpt lat="39.8697497137" lon="-6.3133604452">
        <ele>474.07</ele>
        <time>2020-07-15T12:07:33Z</time>
      </trkpt>
      <trkpt lat="39.8698818963" lon="-6.3130767178">
        <ele>473.59</ele>
        <time>2020-07-15T12:07:43Z</time>
      </trkpt>
      <trkpt lat="39.8699826468" lon="-6.3128916454">
        <ele>473.59</ele>
        <time>2020-07-15T12:07:51Z</time>
      </trkpt>
      <trkpt lat="39.8700811341" lon="-6.3126543537">
        <ele>473.59</ele>
        <time>2020-07-15T12:08:01Z</time>
      </trkpt>
      <trkpt lat="39.8701144103" lon="-6.3125922438">
        <ele>474.07</ele>
        <time>2020-07-15T12:08:04Z</time>
      </trkpt>
      <trkpt lat="39.8701270670" lon="-6.3125715405">
        <ele>474.07</ele>
        <time>2020-07-15T12:08:05Z</time>
      </trkpt>
      <trkpt lat="39.8701377120" lon="-6.3125504181">
        <ele>474.07</ele>
        <time>2020-07-15T12:08:06Z</time>
      </trkpt>
      <trkpt lat="39.8701489437" lon="-6.3125291280">
        <ele>474.07</ele>
        <time>2020-07-15T12:08:07Z</time>
      </trkpt>
      <trkpt lat="39.8701581638" lon="-6.3125082571">
        <ele>474.07</ele>
        <time>2020-07-15T12:08:08Z</time>
      </trkpt>
      <trkpt lat="39.8702394683" lon="-6.3124002144">
        <ele>473.59</ele>
        <time>2020-07-15T12:08:15Z</time>
      </trkpt>
      <trkpt lat="39.8703856487" lon="-6.3122240268">
        <ele>472.14</ele>
        <time>2020-07-15T12:08:23Z</time>
      </trkpt>
      <trkpt lat="39.8705600761" lon="-6.3120197598">
        <ele>471.66</ele>
        <time>2020-07-15T12:08:33Z</time>
      </trkpt>
      <trkpt lat="39.8706700467" lon="-6.3118853979">
        <ele>471.66</ele>
        <time>2020-07-15T12:08:40Z</time>
      </trkpt>
      <trkpt lat="39.8708003014" lon="-6.3117052708">
        <ele>471.66</ele>
        <time>2020-07-15T12:08:48Z</time>
      </trkpt>
      <trkpt lat="39.8709408659" lon="-6.3115157560">
        <ele>472.14</ele>
        <time>2020-07-15T12:08:57Z</time>
      </trkpt>
      <trkpt lat="39.8710460588" lon="-6.3113454357">
        <ele>470.70</ele>
        <time>2020-07-15T12:09:06Z</time>
      </trkpt>
      <trkpt lat="39.8711325601" lon="-6.3112280890">
        <ele>469.26</ele>
        <time>2020-07-15T12:09:13Z</time>
      </trkpt>
      <trkpt lat="39.8712498229" lon="-6.3110535778">
        <ele>468.30</ele>
        <time>2020-07-15T12:09:21Z</time>
      </trkpt>
      <trkpt lat="39.8713387549" lon="-6.3108736183">
        <ele>469.26</ele>
        <time>2020-07-15T12:09:29Z</time>
      </trkpt>
      <trkpt lat="39.8714198917" lon="-6.3107160386">
        <ele>468.78</ele>
        <time>2020-07-15T12:09:36Z</time>
      </trkpt>
      <trkpt lat="39.8715157807" lon="-6.3104874641">
        <ele>469.26</ele>
        <time>2020-07-15T12:09:46Z</time>
      </trkpt>
      <trkpt lat="39.8716154415" lon="-6.3102610689">
        <ele>470.70</ele>
        <time>2020-07-15T12:09:56Z</time>
      </trkpt>
      <trkpt lat="39.8716886155" lon="-6.3101110328">
        <ele>471.66</ele>
        <time>2020-07-15T12:10:05Z</time>
      </trkpt>
      <trkpt lat="39.8717003502" lon="-6.3100932632">
        <ele>471.66</ele>
        <time>2020-07-15T12:10:06Z</time>
      </trkpt>
      <trkpt lat="39.8718073033" lon="-6.3098930195">
        <ele>472.14</ele>
        <time>2020-07-15T12:10:16Z</time>
      </trkpt>
      <trkpt lat="39.8719176091" lon="-6.3097094558">
        <ele>472.14</ele>
        <time>2020-07-15T12:10:25Z</time>
      </trkpt>
      <trkpt lat="39.8720363807" lon="-6.3095726632">
        <ele>471.66</ele>
        <time>2020-07-15T12:10:32Z</time>
      </trkpt>
      <trkpt lat="39.8722353671" lon="-6.3094383013">
        <ele>470.70</ele>
        <time>2020-07-15T12:10:41Z</time>
      </trkpt>
      <trkpt lat="39.8724804539" lon="-6.3093060348">
        <ele>469.74</ele>
        <time>2020-07-15T12:10:49Z</time>
      </trkpt>
      <trkpt lat="39.8726307414" lon="-6.3092155103">
        <ele>469.26</ele>
        <time>2020-07-15T12:10:56Z</time>
      </trkpt>
      <trkpt lat="39.8727868125" lon="-6.3091187831">
        <ele>468.78</ele>
        <time>2020-07-15T12:11:04Z</time>
      </trkpt>
      <trkpt lat="39.8729332443" lon="-6.3090218045">
        <ele>469.26</ele>
        <time>2020-07-15T12:11:12Z</time>
      </trkpt>
      <trkpt lat="39.8729541153" lon="-6.3090140093">
        <ele>469.26</ele>
        <time>2020-07-15T12:11:13Z</time>
      </trkpt>
      <trkpt lat="39.8729746509" lon="-6.3090072200">
        <ele>469.26</ele>
        <time>2020-07-15T12:11:14Z</time>
      </trkpt>
      <trkpt lat="39.8729938455" lon="-6.3089991733">
        <ele>469.26</ele>
        <time>2020-07-15T12:11:15Z</time>
      </trkpt>
      <trkpt lat="39.8730118666" lon="-6.3089872710">
        <ele>469.26</ele>
        <time>2020-07-15T12:11:16Z</time>
      </trkpt>
      <trkpt lat="39.8730314802" lon="-6.3089752011">
        <ele>469.26</ele>
        <time>2020-07-15T12:11:17Z</time>
      </trkpt>
      <trkpt lat="39.8731405288" lon="-6.3089015242">
        <ele>469.26</ele>
        <time>2020-07-15T12:11:23Z</time>
      </trkpt>
      <trkpt lat="39.8731557000" lon="-6.3088894542">
        <ele>469.74</ele>
        <time>2020-07-15T12:11:24Z</time>
      </trkpt>
      <trkpt lat="39.8731703684" lon="-6.3088768814">
        <ele>469.74</ele>
        <time>2020-07-15T12:11:25Z</time>
      </trkpt>
      <trkpt lat="39.8731894791" lon="-6.3088669907">
        <ele>469.74</ele>
        <time>2020-07-15T12:11:26Z</time>
      </trkpt>
      <trkpt lat="39.8732089251" lon="-6.3088569324">
        <ele>470.22</ele>
        <time>2020-07-15T12:11:27Z</time>
      </trkpt>
      <trkpt lat="39.8732292932" lon="-6.3088448625">
        <ele>470.22</ele>
        <time>2020-07-15T12:11:28Z</time>
      </trkpt>
      <trkpt lat="39.8733735457" lon="-6.3087493088">
        <ele>470.70</ele>
        <time>2020-07-15T12:11:36Z</time>
      </trkpt>
      <trkpt lat="39.8733911477" lon="-6.3087364845">
        <ele>470.70</ele>
        <time>2020-07-15T12:11:37Z</time>
      </trkpt>
      <trkpt lat="39.8735902179" lon="-6.3086558506">
        <ele>470.22</ele>
        <time>2020-07-15T12:11:47Z</time>
      </trkpt>
      <trkpt lat="39.8737814929" lon="-6.3085965905">
        <ele>468.78</ele>
        <time>2020-07-15T12:11:56Z</time>
      </trkpt>
      <trkpt lat="39.8738285992" lon="-6.3085753005">
        <ele>468.30</ele>
        <time>2020-07-15T12:11:59Z</time>
      </trkpt>
      <trkpt lat="39.8738423456" lon="-6.3085670862">
        <ele>467.82</ele>
        <time>2020-07-15T12:12:00Z</time>
      </trkpt>
      <trkpt lat="39.8738581873" lon="-6.3085628115">
        <ele>467.82</ele>
        <time>2020-07-15T12:12:01Z</time>
      </trkpt>
      <trkpt lat="39.8738970794" lon="-6.3085526694">
        <ele>467.34</ele>
        <time>2020-07-15T12:12:04Z</time>
      </trkpt>
      <trkpt lat="39.8739125859" lon="-6.3085442875">
        <ele>466.86</ele>
        <time>2020-07-15T12:12:05Z</time>
      </trkpt>
      <trkpt lat="39.8739257455" lon="-6.3085401803">
        <ele>466.86</ele>
        <time>2020-07-15T12:12:06Z</time>
      </trkpt>
      <trkpt lat="39.8739374802" lon="-6.3085383363">
        <ele>466.86</ele>
        <time>2020-07-15T12:12:07Z</time>
      </trkpt>
      <trkpt lat="39.8739520647" lon="-6.3085373305">
        <ele>466.86</ele>
        <time>2020-07-15T12:12:08Z</time>
      </trkpt>
      <trkpt lat="39.8740643822" lon="-6.3085314631">
        <ele>466.38</ele>
        <time>2020-07-15T12:12:15Z</time>
      </trkpt>
      <trkpt lat="39.8741295934" lon="-6.3085297029">
        <ele>465.90</ele>
        <time>2020-07-15T12:12:21Z</time>
      </trkpt>
      <trkpt lat="39.8741543200" lon="-6.3085295353">
        <ele>465.90</ele>
        <time>2020-07-15T12:12:33Z</time>
      </trkpt>
      <trkpt lat="39.8741798848" lon="-6.3085285295">
        <ele>465.90</ele>
        <time>2020-07-15T12:12:40Z</time>
      </trkpt>
      <trkpt lat="39.8741980735" lon="-6.3085150346">
        <ele>465.42</ele>
        <time>2020-07-15T12:12:51Z</time>
      </trkpt>
      <trkpt lat="39.8742668889" lon="-6.3084773161">
        <ele>464.45</ele>
        <time>2020-07-15T12:12:57Z</time>
      </trkpt>
      <trkpt lat="39.8742878437" lon="-6.3084724545">
        <ele>464.45</ele>
        <time>2020-07-15T12:12:59Z</time>
      </trkpt>
      <trkpt lat="39.8742991593" lon="-6.3084722031">
        <ele>464.45</ele>
        <time>2020-07-15T12:13:00Z</time>
      </trkpt>
      <trkpt lat="39.8743218742" lon="-6.3084592111">
        <ele>463.97</ele>
        <time>2020-07-15T12:13:03Z</time>
      </trkpt>
      <trkpt lat="39.8743330222" lon="-6.3084517512">
        <ele>463.97</ele>
        <time>2020-07-15T12:13:04Z</time>
      </trkpt>
      <trkpt lat="39.8743467685" lon="-6.3084467221">
        <ele>463.97</ele>
        <time>2020-07-15T12:13:05Z</time>
      </trkpt>
      <trkpt lat="39.8743595928" lon="-6.3084416091">
        <ele>463.49</ele>
        <time>2020-07-15T12:13:06Z</time>
      </trkpt>
      <trkpt lat="39.8743705731" lon="-6.3084346522">
        <ele>463.49</ele>
        <time>2020-07-15T12:13:07Z</time>
      </trkpt>
      <trkpt lat="39.8744734190" lon="-6.3083795831">
        <ele>462.05</ele>
        <time>2020-07-15T12:13:14Z</time>
      </trkpt>
      <trkpt lat="39.8745070305" lon="-6.3083666749">
        <ele>462.05</ele>
        <time>2020-07-15T12:13:21Z</time>
      </trkpt>
      <trkpt lat="39.8746259697" lon="-6.3083367515">
        <ele>461.09</ele>
        <time>2020-07-15T12:13:28Z</time>
      </trkpt>
      <trkpt lat="39.8747746646" lon="-6.3083271962">
        <ele>461.09</ele>
        <time>2020-07-15T12:13:35Z</time>
      </trkpt>
      <trkpt lat="39.8749199230" lon="-6.3083152939">
        <ele>459.65</ele>
        <time>2020-07-15T12:13:42Z</time>
      </trkpt>
      <trkpt lat="39.8750098608" lon="-6.3082774915">
        <ele>458.69</ele>
        <time>2020-07-15T12:13:49Z</time>
      </trkpt>
      <trkpt lat="39.8749984615" lon="-6.3082880527">
        <ele>460.13</ele>
        <time>2020-07-15T12:14:05Z</time>
      </trkpt>
      <trkpt lat="39.8749875650" lon="-6.3082828559">
        <ele>460.61</ele>
        <time>2020-07-15T12:14:18Z</time>
      </trkpt>
      <trkpt lat="39.8749900796" lon="-6.3082848676">
        <ele>460.13</ele>
        <time>2020-07-15T12:14:27Z</time>
      </trkpt>
      <trkpt lat="39.8749910854" lon="-6.3082814310">
        <ele>459.65</ele>
        <time>2020-07-15T12:14:42Z</time>
      </trkpt>
      <trkpt lat="39.8749948572" lon="-6.3082848676">
        <ele>460.13</ele>
        <time>2020-07-15T12:14:52Z</time>
      </trkpt>
      <trkpt lat="39.8750212602" lon="-6.3082753960">
        <ele>460.61</ele>
        <time>2020-07-15T12:15:04Z</time>
      </trkpt>
      <trkpt lat="39.8751765769" lon="-6.3082676847">
        <ele>460.13</ele>
        <time>2020-07-15T12:15:12Z</time>
      </trkpt>
      <trkpt lat="39.8753054906" lon="-6.3082495797">
        <ele>459.17</ele>
        <time>2020-07-15T12:15:18Z</time>
      </trkpt>
      <trkpt lat="39.8754546046" lon="-6.3082557824">
        <ele>457.72</ele>
        <time>2020-07-15T12:15:26Z</time>
      </trkpt>
      <trkpt lat="39.8755662516" lon="-6.3082783297">
        <ele>456.28</ele>
        <time>2020-07-15T12:15:33Z</time>
      </trkpt>
      <trkpt lat="39.8756679241" lon="-6.3083084207">
        <ele>454.84</ele>
        <time>2020-07-15T12:15:40Z</time>
      </trkpt>
      <trkpt lat="39.8757570237" lon="-6.3083409425">
        <ele>452.92</ele>
        <time>2020-07-15T12:15:47Z</time>
      </trkpt>
      <trkpt lat="39.8758742865" lon="-6.3083831035">
        <ele>450.52</ele>
        <time>2020-07-15T12:15:54Z</time>
      </trkpt>
      <trkpt lat="39.8759018630" lon="-6.3083814271">
        <ele>450.03</ele>
        <time>2020-07-15T12:15:59Z</time>
      </trkpt>
      <trkpt lat="39.8759015277" lon="-6.3083834387">
        <ele>450.03</ele>
        <time>2020-07-15T12:16:07Z</time>
      </trkpt>
      <trkpt lat="39.8759114183" lon="-6.3083769847">
        <ele>449.55</ele>
        <time>2020-07-15T12:16:09Z</time>
      </trkpt>
      <trkpt lat="39.8759175371" lon="-6.3083660044">
        <ele>449.55</ele>
        <time>2020-07-15T12:16:10Z</time>
      </trkpt>
      <trkpt lat="39.8759161960" lon="-6.3083520904">
        <ele>450.03</ele>
        <time>2020-07-15T12:16:17Z</time>
      </trkpt>
      <trkpt lat="39.8759094067" lon="-6.3083272800">
        <ele>450.03</ele>
        <time>2020-07-15T12:16:30Z</time>
      </trkpt>
      <trkpt lat="39.8759308644" lon="-6.3082955964">
        <ele>450.52</ele>
        <time>2020-07-15T12:16:37Z</time>
      </trkpt>
      <trkpt lat="39.8759438563" lon="-6.3082805090">
        <ele>450.52</ele>
        <time>2020-07-15T12:16:44Z</time>
      </trkpt>
      <trkpt lat="39.8759721033" lon="-6.3082811795">
        <ele>450.52</ele>
        <time>2020-07-15T12:16:57Z</time>
      </trkpt>
      <trkpt lat="39.8759850953" lon="-6.3082862925">
        <ele>450.52</ele>
        <time>2020-07-15T12:16:58Z</time>
      </trkpt>
      <trkpt lat="39.8759997636" lon="-6.3082845323">
        <ele>450.03</ele>
        <time>2020-07-15T12:16:59Z</time>
      </trkpt>
      <trkpt lat="39.8760110792" lon="-6.3082784973">
        <ele>450.03</ele>
        <time>2020-07-15T12:17:00Z</time>
      </trkpt>
      <trkpt lat="39.8760232329" lon="-6.3082701154">
        <ele>450.03</ele>
        <time>2020-07-15T12:17:01Z</time>
      </trkpt>
      <trkpt lat="39.8760327883" lon="-6.3082593866">
        <ele>449.55</ele>
        <time>2020-07-15T12:17:02Z</time>
      </trkpt>
      <trkpt lat="39.8760425951" lon="-6.3082401920">
        <ele>449.55</ele>
        <time>2020-07-15T12:17:03Z</time>
      </trkpt>
      <trkpt lat="39.8760943953" lon="-6.3081381842">
        <ele>448.59</ele>
        <time>2020-07-15T12:17:10Z</time>
      </trkpt>
      <trkpt lat="39.8760956526" lon="-6.3081377652">
        <ele>448.59</ele>
        <time>2020-07-15T12:17:16Z</time>
      </trkpt>
      <trkpt lat="39.8761197086" lon="-6.3080802653">
        <ele>449.07</ele>
        <time>2020-07-15T12:17:24Z</time>
      </trkpt>
      <trkpt lat="39.8761842493" lon="-6.3079911657">
        <ele>448.59</ele>
        <time>2020-07-15T12:17:29Z</time>
      </trkpt>
      <trkpt lat="39.8763220478" lon="-6.3078996353">
        <ele>447.15</ele>
        <time>2020-07-15T12:17:37Z</time>
      </trkpt>
      <trkpt lat="39.8763428349" lon="-6.3078956958">
        <ele>447.63</ele>
        <time>2020-07-15T12:17:45Z</time>
      </trkpt>
      <trkpt lat="39.8763514683" lon="-6.3078982104">
        <ele>447.63</ele>
        <time>2020-07-15T12:17:53Z</time>
      </trkpt>
      <trkpt lat="39.8763662204" lon="-6.3078901637">
        <ele>446.67</ele>
        <time>2020-07-15T12:17:59Z</time>
      </trkpt>
      <trkpt lat="39.8764064535" lon="-6.3078741543">
        <ele>446.19</ele>
        <time>2020-07-15T12:18:08Z</time>
      </trkpt>
      <trkpt lat="39.8764043581" lon="-6.3078606594">
        <ele>446.67</ele>
        <time>2020-07-15T12:18:16Z</time>
      </trkpt>
      <trkpt lat="39.8764092196" lon="-6.3078423031">
        <ele>445.71</ele>
        <time>2020-07-15T12:18:24Z</time>
      </trkpt>
      <trkpt lat="39.8764156736" lon="-6.3078408781">
        <ele>445.71</ele>
        <time>2020-07-15T12:18:25Z</time>
      </trkpt>
      <trkpt lat="39.8764915299" lon="-6.3077254593">
        <ele>445.23</ele>
        <time>2020-07-15T12:18:32Z</time>
      </trkpt>
      <trkpt lat="39.8765505385" lon="-6.3077031635">
        <ele>444.27</ele>
        <time>2020-07-15T12:18:35Z</time>
      </trkpt>
      <trkpt lat="39.8766935337" lon="-6.3077031635">
        <ele>442.34</ele>
        <time>2020-07-15T12:18:42Z</time>
      </trkpt>
      <trkpt lat="39.8768282309" lon="-6.3077390380">
        <ele>441.38</ele>
        <time>2020-07-15T12:18:49Z</time>
      </trkpt>
      <trkpt lat="39.8768567294" lon="-6.3077418040">
        <ele>440.90</ele>
        <time>2020-07-15T12:18:51Z</time>
      </trkpt>
      <trkpt lat="39.8769398779" lon="-6.3076571468">
        <ele>439.94</ele>
        <time>2020-07-15T12:18:58Z</time>
      </trkpt>
      <trkpt lat="39.8769788537" lon="-6.3076314982">
        <ele>439.94</ele>
        <time>2020-07-15T12:19:00Z</time>
      </trkpt>
      <trkpt lat="39.8771212623" lon="-6.3074548077">
        <ele>437.54</ele>
        <time>2020-07-15T12:19:08Z</time>
      </trkpt>
      <trkpt lat="39.8772155587" lon="-6.3072440866">
        <ele>436.58</ele>
        <time>2020-07-15T12:19:16Z</time>
      </trkpt>
      <trkpt lat="39.8773262836" lon="-6.3069410808">
        <ele>435.13</ele>
        <time>2020-07-15T12:19:26Z</time>
      </trkpt>
      <trkpt lat="39.8773841187" lon="-6.3067054655">
        <ele>434.17</ele>
        <time>2020-07-15T12:19:35Z</time>
      </trkpt>
      <trkpt lat="39.8774126172" lon="-6.3065786473">
        <ele>434.17</ele>
        <time>2020-07-15T12:19:41Z</time>
      </trkpt>
      <trkpt lat="39.8775038123" lon="-6.3063065708">
        <ele>433.69</ele>
        <time>2020-07-15T12:19:51Z</time>
      </trkpt>
      <trkpt lat="39.8775551934" lon="-6.3061266951">
        <ele>432.73</ele>
        <time>2020-07-15T12:19:57Z</time>
      </trkpt>
      <trkpt lat="39.8775863741" lon="-6.3059352525">
        <ele>432.25</ele>
        <time>2020-07-15T12:20:05Z</time>
      </trkpt>
      <trkpt lat="39.8776782397" lon="-6.3057320751">
        <ele>430.81</ele>
        <time>2020-07-15T12:20:13Z</time>
      </trkpt>
      <trkpt lat="39.8777148686" lon="-6.3055218570">
        <ele>430.33</ele>
        <time>2020-07-15T12:20:20Z</time>
      </trkpt>
      <trkpt lat="39.8777416069" lon="-6.3053196017">
        <ele>429.85</ele>
        <time>2020-07-15T12:20:29Z</time>
      </trkpt>
      <trkpt lat="39.8777478933" lon="-6.3053007424">
        <ele>429.85</ele>
        <time>2020-07-15T12:20:31Z</time>
      </trkpt>
      <trkpt lat="39.8777633160" lon="-6.3052549772">
        <ele>429.37</ele>
        <time>2020-07-15T12:20:38Z</time>
      </trkpt>
      <trkpt lat="39.8777804151" lon="-6.3052392192">
        <ele>429.37</ele>
        <time>2020-07-15T12:20:44Z</time>
      </trkpt>
      <trkpt lat="39.8778425250" lon="-6.3051852398">
        <ele>429.37</ele>
        <time>2020-07-15T12:20:54Z</time>
      </trkpt>
      <trkpt lat="39.8779039644" lon="-6.3051554840">
        <ele>429.85</ele>
        <time>2020-07-15T12:21:02Z</time>
      </trkpt>
      <trkpt lat="39.8779377434" lon="-6.3051486108">
        <ele>429.85</ele>
        <time>2020-07-15T12:21:06Z</time>
      </trkpt>
      <trkpt lat="39.8780626338" lon="-6.3051129039">
        <ele>428.89</ele>
        <time>2020-07-15T12:21:17Z</time>
      </trkpt>
      <trkpt lat="39.8781445250" lon="-6.3050150033">
        <ele>428.89</ele>
        <time>2020-07-15T12:21:26Z</time>
      </trkpt>
      <trkpt lat="39.8781660665" lon="-6.3049908634">
        <ele>428.89</ele>
        <time>2020-07-15T12:21:33Z</time>
      </trkpt>
      <trkpt lat="39.8781805672" lon="-6.3049694058">
        <ele>429.37</ele>
        <time>2020-07-15T12:21:43Z</time>
      </trkpt>
      <trkpt lat="39.8782042041" lon="-6.3049168512">
        <ele>428.89</ele>
        <time>2020-07-15T12:21:51Z</time>
      </trkpt>
      <trkpt lat="39.8782232311" lon="-6.3049031049">
        <ele>427.44</ele>
        <time>2020-07-15T12:22:03Z</time>
      </trkpt>
      <trkpt lat="39.8782209679" lon="-6.3048996683">
        <ele>426.00</ele>
        <time>2020-07-15T12:22:18Z</time>
      </trkpt>
      <trkpt lat="39.8782240693" lon="-6.3048808929">
        <ele>425.52</ele>
        <time>2020-07-15T12:22:34Z</time>
      </trkpt>
      <trkpt lat="39.8782177828" lon="-6.3048984949">
        <ele>426.00</ele>
        <time>2020-07-15T12:22:49Z</time>
      </trkpt>
      <trkpt lat="39.8782138433" lon="-6.3048971538">
        <ele>426.48</ele>
        <time>2020-07-15T12:23:03Z</time>
      </trkpt>
      <trkpt lat="39.8782166094" lon="-6.3049052004">
        <ele>426.96</ele>
        <time>2020-07-15T12:23:17Z</time>
      </trkpt>
      <trkpt lat="39.8782093171" lon="-6.3049004227">
        <ele>426.96</ele>
        <time>2020-07-15T12:23:35Z</time>
      </trkpt>
      <trkpt lat="39.8782100715" lon="-6.3048975728">
        <ele>426.00</ele>
        <time>2020-07-15T12:23:51Z</time>
      </trkpt>
      <trkpt lat="39.8782047071" lon="-6.3049026858">
        <ele>426.96</ele>
        <time>2020-07-15T12:23:56Z</time>
      </trkpt>
      <trkpt lat="39.8782758694" lon="-6.3047394063">
        <ele>427.92</ele>
        <time>2020-07-15T12:24:05Z</time>
      </trkpt>
      <trkpt lat="39.8783896118" lon="-6.3045493886">
        <ele>427.92</ele>
        <time>2020-07-15T12:24:14Z</time>
      </trkpt>
      <trkpt lat="39.8785258178" lon="-6.3043250889">
        <ele>426.96</ele>
        <time>2020-07-15T12:24:21Z</time>
      </trkpt>
      <trkpt lat="39.8786177672" lon="-6.3041666709">
        <ele>427.44</ele>
        <time>2020-07-15T12:24:27Z</time>
      </trkpt>
      <trkpt lat="39.8787494469" lon="-6.3039593026">
        <ele>428.89</ele>
        <time>2020-07-15T12:24:36Z</time>
      </trkpt>
      <trkpt lat="39.8788775224" lon="-6.3037614059">
        <ele>427.44</ele>
        <time>2020-07-15T12:24:44Z</time>
      </trkpt>
      <trkpt lat="39.8790569790" lon="-6.3034948613">
        <ele>425.52</ele>
        <time>2020-07-15T12:24:51Z</time>
      </trkpt>
      <trkpt lat="39.8791568913" lon="-6.3033552188">
        <ele>425.52</ele>
        <time>2020-07-15T12:24:57Z</time>
      </trkpt>
      <trkpt lat="39.8793019820" lon="-6.3031665422">
        <ele>427.44</ele>
        <time>2020-07-15T12:25:06Z</time>
      </trkpt>
      <trkpt lat="39.8794373497" lon="-6.3029998261">
        <ele>426.96</ele>
        <time>2020-07-15T12:25:14Z</time>
      </trkpt>
      <trkpt lat="39.8795392737" lon="-6.3028626982">
        <ele>425.52</ele>
        <time>2020-07-15T12:25:21Z</time>
      </trkpt>
      <trkpt lat="39.8796712887" lon="-6.3026524801">
        <ele>423.60</ele>
        <time>2020-07-15T12:25:29Z</time>
      </trkpt>
      <trkpt lat="39.8798012082" lon="-6.3024938945">
        <ele>422.16</ele>
        <time>2020-07-15T12:25:36Z</time>
      </trkpt>
      <trkpt lat="39.8799394257" lon="-6.3023466244">
        <ele>423.60</ele>
        <time>2020-07-15T12:25:45Z</time>
      </trkpt>
      <trkpt lat="39.8800814152" lon="-6.3021688443">
        <ele>424.56</ele>
        <time>2020-07-15T12:25:56Z</time>
      </trkpt>
      <trkpt lat="39.8801871110" lon="-6.3020312972">
        <ele>422.64</ele>
        <time>2020-07-15T12:26:03Z</time>
      </trkpt>
      <trkpt lat="39.8803073913" lon="-6.3018845301">
        <ele>422.64</ele>
        <time>2020-07-15T12:26:10Z</time>
      </trkpt>
      <trkpt lat="39.8804958165" lon="-6.3016629964">
        <ele>423.12</ele>
        <time>2020-07-15T12:26:20Z</time>
      </trkpt>
      <trkpt lat="39.8806942161" lon="-6.3014288060">
        <ele>422.64</ele>
        <time>2020-07-15T12:26:28Z</time>
      </trkpt>
      <trkpt lat="39.8808211181" lon="-6.3012953661">
        <ele>422.16</ele>
        <time>2020-07-15T12:26:35Z</time>
      </trkpt>
      <trkpt lat="39.8809429910" lon="-6.3011820428">
        <ele>423.60</ele>
        <time>2020-07-15T12:26:43Z</time>
      </trkpt>
      <trkpt lat="39.8810201045" lon="-6.3010786939">
        <ele>424.56</ele>
        <time>2020-07-15T12:26:50Z</time>
      </trkpt>
      <trkpt lat="39.8810320068" lon="-6.3010707311">
        <ele>425.04</ele>
        <time>2020-07-15T12:26:51Z</time>
      </trkpt>
      <trkpt lat="39.8810411431" lon="-6.3010586612">
        <ele>424.56</ele>
        <time>2020-07-15T12:26:52Z</time>
      </trkpt>
      <trkpt lat="39.8811053485" lon="-6.3009457570">
        <ele>424.56</ele>
        <time>2020-07-15T12:26:58Z</time>
      </trkpt>
      <trkpt lat="39.8811136466" lon="-6.3009236287">
        <ele>424.56</ele>
        <time>2020-07-15T12:26:59Z</time>
      </trkpt>
      <trkpt lat="39.8811234534" lon="-6.3009014167">
        <ele>424.08</ele>
        <time>2020-07-15T12:27:00Z</time>
      </trkpt>
      <trkpt lat="39.8811332602" lon="-6.3008739240">
        <ele>424.08</ele>
        <time>2020-07-15T12:27:01Z</time>
      </trkpt>
      <trkpt lat="39.8811402172" lon="-6.3008456770">
        <ele>423.60</ele>
        <time>2020-07-15T12:27:02Z</time>
      </trkpt>
      <trkpt lat="39.8811496049" lon="-6.3008151669">
        <ele>423.60</ele>
        <time>2020-07-15T12:27:03Z</time>
      </trkpt>
      <trkpt lat="39.8811604176" lon="-6.3007851597">
        <ele>423.60</ele>
        <time>2020-07-15T12:27:04Z</time>
      </trkpt>
      <trkpt lat="39.8811698891" lon="-6.3007562421">
        <ele>423.60</ele>
        <time>2020-07-15T12:27:05Z</time>
      </trkpt>
      <trkpt lat="39.8812394589" lon="-6.3005462755">
        <ele>422.64</ele>
        <time>2020-07-15T12:27:13Z</time>
      </trkpt>
      <trkpt lat="39.8813058436" lon="-6.3003223948">
        <ele>422.64</ele>
        <time>2020-07-15T12:27:21Z</time>
      </trkpt>
      <trkpt lat="39.8813993856" lon="-6.3000699319">
        <ele>421.68</ele>
        <time>2020-07-15T12:27:30Z</time>
      </trkpt>
      <trkpt lat="39.8814846296" lon="-6.2998404354">
        <ele>422.16</ele>
        <time>2020-07-15T12:27:39Z</time>
      </trkpt>
      <trkpt lat="39.8815570492" lon="-6.2996330671">
        <ele>421.68</ele>
        <time>2020-07-15T12:27:47Z</time>
      </trkpt>
      <trkpt lat="39.8816247750" lon="-6.2994303927">
        <ele>420.71</ele>
        <time>2020-07-15T12:27:55Z</time>
      </trkpt>
      <trkpt lat="39.8816854600" lon="-6.2992534507">
        <ele>419.75</ele>
        <time>2020-07-15T12:28:03Z</time>
      </trkpt>
      <trkpt lat="39.8817857914" lon="-6.2990427297">
        <ele>418.31</ele>
        <time>2020-07-15T12:28:11Z</time>
      </trkpt>
      <trkpt lat="39.8819031380" lon="-6.2987714075">
        <ele>415.91</ele>
        <time>2020-07-15T12:28:20Z</time>
      </trkpt>
      <trkpt lat="39.8819991108" lon="-6.2985919509">
        <ele>414.95</ele>
        <time>2020-07-15T12:28:28Z</time>
      </trkpt>
      <trkpt lat="39.8820485640" lon="-6.2985067908">
        <ele>414.47</ele>
        <time>2020-07-15T12:28:33Z</time>
      </trkpt>
      <trkpt lat="39.8820559401" lon="-6.2984867580">
        <ele>413.98</ele>
        <time>2020-07-15T12:28:34Z</time>
      </trkpt>
      <trkpt lat="39.8820667528" lon="-6.2984661385">
        <ele>413.98</ele>
        <time>2020-07-15T12:28:35Z</time>
      </trkpt>
      <trkpt lat="39.8820773978" lon="-6.2984439265">
        <ele>413.98</ele>
        <time>2020-07-15T12:28:36Z</time>
      </trkpt>
      <trkpt lat="39.8820889648" lon="-6.2984185293">
        <ele>413.50</ele>
        <time>2020-07-15T12:28:37Z</time>
      </trkpt>
      <trkpt lat="39.8822335526" lon="-6.2981658150">
        <ele>412.06</ele>
        <time>2020-07-15T12:28:45Z</time>
      </trkpt>
      <trkpt lat="39.8824856803" lon="-6.2978094164">
        <ele>410.62</ele>
        <time>2020-07-15T12:28:55Z</time>
      </trkpt>
      <trkpt lat="39.8826450203" lon="-6.2976096757">
        <ele>409.66</ele>
        <time>2020-07-15T12:29:03Z</time>
      </trkpt>
      <trkpt lat="39.8827491235" lon="-6.2974503357">
        <ele>408.22</ele>
        <time>2020-07-15T12:29:11Z</time>
      </trkpt>
      <trkpt lat="39.8828178551" lon="-6.2972989585">
        <ele>406.77</ele>
        <time>2020-07-15T12:29:18Z</time>
      </trkpt>
      <trkpt lat="39.8828421626" lon="-6.2972495891">
        <ele>406.77</ele>
        <time>2020-07-15T12:29:24Z</time>
      </trkpt>
      <trkpt lat="39.8828432523" lon="-6.2972567976">
        <ele>407.26</ele>
        <time>2020-07-15T12:29:34Z</time>
      </trkpt>
      <trkpt lat="39.8828429170" lon="-6.2972505111">
        <ele>406.77</ele>
        <time>2020-07-15T12:29:49Z</time>
      </trkpt>
      <trkpt lat="39.8828517180" lon="-6.2972391117">
        <ele>406.29</ele>
        <time>2020-07-15T12:30:01Z</time>
      </trkpt>
      <trkpt lat="39.8828967288" lon="-6.2971679494">
        <ele>406.77</ele>
        <time>2020-07-15T12:30:08Z</time>
      </trkpt>
      <trkpt lat="39.8828984890" lon="-6.2971490901">
        <ele>406.77</ele>
        <time>2020-07-15T12:30:14Z</time>
      </trkpt>
      <trkpt lat="39.8828992434" lon="-6.2971412949">
        <ele>406.77</ele>
        <time>2020-07-15T12:30:26Z</time>
      </trkpt>
      <trkpt lat="39.8828937951" lon="-6.2971427198">
        <ele>407.26</ele>
        <time>2020-07-15T12:30:41Z</time>
      </trkpt>
      <trkpt lat="39.8828942142" lon="-6.2971432228">
        <ele>407.74</ele>
        <time>2020-07-15T12:30:57Z</time>
      </trkpt>
      <trkpt lat="39.8829703219" lon="-6.2970041670">
        <ele>406.77</ele>
        <time>2020-07-15T12:31:03Z</time>
      </trkpt>
      <trkpt lat="39.8830641992" lon="-6.2968637701">
        <ele>406.77</ele>
        <time>2020-07-15T12:31:09Z</time>
      </trkpt>
      <trkpt lat="39.8832288198" lon="-6.2966506183">
        <ele>407.26</ele>
        <time>2020-07-15T12:31:19Z</time>
      </trkpt>
      <trkpt lat="39.8833589908" lon="-6.2964642886">
        <ele>408.70</ele>
        <time>2020-07-15T12:31:28Z</time>
      </trkpt>
      <trkpt lat="39.8834586516" lon="-6.2962519750">
        <ele>409.18</ele>
        <time>2020-07-15T12:31:37Z</time>
      </trkpt>
      <trkpt lat="39.8835112900" lon="-6.2960575987">
        <ele>408.22</ele>
        <time>2020-07-15T12:31:45Z</time>
      </trkpt>
      <trkpt lat="39.8836077657" lon="-6.2958052196">
        <ele>407.26</ele>
        <time>2020-07-15T12:31:52Z</time>
      </trkpt>
      <trkpt lat="39.8837059177" lon="-6.2955637369">
        <ele>405.33</ele>
        <time>2020-07-15T12:31:59Z</time>
      </trkpt>
      <trkpt lat="39.8837612383" lon="-6.2953252718">
        <ele>405.81</ele>
        <time>2020-07-15T12:32:06Z</time>
      </trkpt>
      <trkpt lat="39.8838402797" lon="-6.2950412929">
        <ele>406.29</ele>
        <time>2020-07-15T12:32:15Z</time>
      </trkpt>
      <trkpt lat="39.8839337379" lon="-6.2948852219">
        <ele>407.26</ele>
        <time>2020-07-15T12:32:22Z</time>
      </trkpt>
      <trkpt lat="39.8839896452" lon="-6.2947816215">
        <ele>408.22</ele>
        <time>2020-07-15T12:32:29Z</time>
      </trkpt>
      <trkpt lat="39.8840745538" lon="-6.2946081161">
        <ele>409.66</ele>
        <time>2020-07-15T12:32:38Z</time>
      </trkpt>
      <trkpt lat="39.8841445427" lon="-6.2944017537">
        <ele>410.14</ele>
        <time>2020-07-15T12:32:47Z</time>
      </trkpt>
      <trkpt lat="39.8841817584" lon="-6.2942839041">
        <ele>411.10</ele>
        <time>2020-07-15T12:32:54Z</time>
      </trkpt>
      <trkpt lat="39.8841926549" lon="-6.2942720857">
        <ele>410.62</ele>
        <time>2020-07-15T12:33:04Z</time>
      </trkpt>
      <trkpt lat="39.8842080776" lon="-6.2942588422">
        <ele>410.62</ele>
        <time>2020-07-15T12:33:20Z</time>
      </trkpt>
      <trkpt lat="39.8842382524" lon="-6.2941500451">
        <ele>411.10</ele>
        <time>2020-07-15T12:33:28Z</time>
      </trkpt>
      <trkpt lat="39.8842415214" lon="-6.2941245642">
        <ele>411.10</ele>
        <time>2020-07-15T12:33:35Z</time>
      </trkpt>
      <trkpt lat="39.8842520826" lon="-6.2941280846">
        <ele>411.58</ele>
        <time>2020-07-15T12:33:54Z</time>
      </trkpt>
      <trkpt lat="39.8842519149" lon="-6.2941233069">
        <ele>412.06</ele>
        <time>2020-07-15T12:34:11Z</time>
      </trkpt>
      <trkpt lat="39.8842516635" lon="-6.2941264920">
        <ele>412.06</ele>
        <time>2020-07-15T12:34:27Z</time>
      </trkpt>
      <trkpt lat="39.8842506576" lon="-6.2941224687">
        <ele>412.54</ele>
        <time>2020-07-15T12:34:42Z</time>
      </trkpt>
      <trkpt lat="39.8842442874" lon="-6.2941233069">
        <ele>412.06</ele>
        <time>2020-07-15T12:35:03Z</time>
      </trkpt>
      <trkpt lat="39.8842479754" lon="-6.2941122428">
        <ele>412.06</ele>
        <time>2020-07-15T12:35:07Z</time>
      </trkpt>
      <trkpt lat="39.8842552677" lon="-6.2941010110">
        <ele>412.06</ele>
        <time>2020-07-15T12:35:08Z</time>
      </trkpt>
      <trkpt lat="39.8842638172" lon="-6.2940862589">
        <ele>412.06</ele>
        <time>2020-07-15T12:35:09Z</time>
      </trkpt>
      <trkpt lat="39.8842696007" lon="-6.2940674834">
        <ele>412.06</ele>
        <time>2020-07-15T12:35:10Z</time>
      </trkpt>
      <trkpt lat="39.8842766415" lon="-6.2940478697">
        <ele>412.06</ele>
        <time>2020-07-15T12:35:11Z</time>
      </trkpt>
      <trkpt lat="39.8842858616" lon="-6.2940254062">
        <ele>412.54</ele>
        <time>2020-07-15T12:35:12Z</time>
      </trkpt>
      <trkpt lat="39.8842961714" lon="-6.2940068822">
        <ele>412.54</ele>
        <time>2020-07-15T12:35:13Z</time>
      </trkpt>
      <trkpt lat="39.8843088280" lon="-6.2939881068">
        <ele>412.54</ele>
        <time>2020-07-15T12:35:14Z</time>
      </trkpt>
      <trkpt lat="39.8843969218" lon="-6.2938288506">
        <ele>413.98</ele>
        <time>2020-07-15T12:35:22Z</time>
      </trkpt>
      <trkpt lat="39.8845675774" lon="-6.2935655750">
        <ele>414.95</ele>
        <time>2020-07-15T12:35:34Z</time>
      </trkpt>
      <trkpt lat="39.8846612033" lon="-6.2933700252">
        <ele>414.95</ele>
        <time>2020-07-15T12:35:43Z</time>
      </trkpt>
      <trkpt lat="39.8847254924" lon="-6.2931838632">
        <ele>413.50</ele>
        <time>2020-07-15T12:35:49Z</time>
      </trkpt>
      <trkpt lat="39.8848622013" lon="-6.2927901652">
        <ele>411.10</ele>
        <time>2020-07-15T12:35:57Z</time>
      </trkpt>
      <trkpt lat="39.8849766143" lon="-6.2925912626">
        <ele>413.02</ele>
        <time>2020-07-15T12:36:04Z</time>
      </trkpt>
      <trkpt lat="39.8851391394" lon="-6.2923663761">
        <ele>413.02</ele>
        <time>2020-07-15T12:36:13Z</time>
      </trkpt>
      <trkpt lat="39.8853420652" lon="-6.2920676451">
        <ele>414.47</ele>
        <time>2020-07-15T12:36:23Z</time>
      </trkpt>
      <trkpt lat="39.8855310772" lon="-6.2918243185">
        <ele>415.91</ele>
        <time>2020-07-15T12:36:33Z</time>
      </trkpt>
      <trkpt lat="39.8856908362" lon="-6.2916425988">
        <ele>416.87</ele>
        <time>2020-07-15T12:36:43Z</time>
      </trkpt>
      <trkpt lat="39.8858531099" lon="-6.2915164512">
        <ele>418.79</ele>
        <time>2020-07-15T12:36:53Z</time>
      </trkpt>
      <trkpt lat="39.8859817721" lon="-6.2914125994">
        <ele>420.71</ele>
        <time>2020-07-15T12:37:02Z</time>
      </trkpt>
      <trkpt lat="39.8859944288" lon="-6.2913971767">
        <ele>420.71</ele>
        <time>2020-07-15T12:37:08Z</time>
      </trkpt>
      <trkpt lat="39.8860283755" lon="-6.2913498189">
        <ele>420.71</ele>
        <time>2020-07-15T12:37:15Z</time>
      </trkpt>
      <trkpt lat="39.8860778287" lon="-6.2912867032">
        <ele>421.68</ele>
        <time>2020-07-15T12:37:24Z</time>
      </trkpt>
      <trkpt lat="39.8861427046" lon="-6.2911919039">
        <ele>423.12</ele>
        <time>2020-07-15T12:37:34Z</time>
      </trkpt>
      <trkpt lat="39.8862045631" lon="-6.2911016308">
        <ele>422.64</ele>
        <time>2020-07-15T12:37:43Z</time>
      </trkpt>
      <trkpt lat="39.8863009550" lon="-6.2910074182">
        <ele>424.56</ele>
        <time>2020-07-15T12:37:54Z</time>
      </trkpt>
      <trkpt lat="39.8863975145" lon="-6.2908951845">
        <ele>426.00</ele>
        <time>2020-07-15T12:38:06Z</time>
      </trkpt>
      <trkpt lat="39.8865032103" lon="-6.2907915004">
        <ele>426.96</ele>
        <time>2020-07-15T12:38:17Z</time>
      </trkpt>
      <trkpt lat="39.8866140191" lon="-6.2906872295">
        <ele>428.40</ele>
        <time>2020-07-15T12:38:29Z</time>
      </trkpt>
      <trkpt lat="39.8866980057" lon="-6.2905876525">
        <ele>429.37</ele>
        <time>2020-07-15T12:38:39Z</time>
      </trkpt>
      <trkpt lat="39.8867161106" lon="-6.2905618362">
        <ele>429.85</ele>
        <time>2020-07-15T12:38:47Z</time>
      </trkpt>
      <trkpt lat="39.8867968284" lon="-6.2904954515">
        <ele>430.33</ele>
        <time>2020-07-15T12:38:58Z</time>
      </trkpt>
      <trkpt lat="39.8868769594" lon="-6.2904675398">
        <ele>431.29</ele>
        <time>2020-07-15T12:39:09Z</time>
      </trkpt>
      <trkpt lat="39.8868761212" lon="-6.2904568948">
        <ele>430.33</ele>
        <time>2020-07-15T12:39:20Z</time>
      </trkpt>
      <trkpt lat="39.8868812341" lon="-6.2904581521">
        <ele>429.85</ele>
        <time>2020-07-15T12:39:38Z</time>
      </trkpt>
      <trkpt lat="39.8869100679" lon="-6.2904666178">
        <ele>429.85</ele>
        <time>2020-07-15T12:39:48Z</time>
      </trkpt>
      <trkpt lat="39.8869295139" lon="-6.2904726528">
        <ele>429.85</ele>
        <time>2020-07-15T12:39:50Z</time>
      </trkpt>
      <trkpt lat="39.8870264925" lon="-6.2904973794">
        <ele>430.81</ele>
        <time>2020-07-15T12:40:00Z</time>
      </trkpt>
      <trkpt lat="39.8870352935" lon="-6.2905045878">
        <ele>431.29</ele>
        <time>2020-07-15T12:40:09Z</time>
      </trkpt>
      <trkpt lat="39.8870317731" lon="-6.2905143946">
        <ele>432.73</ele>
        <time>2020-07-15T12:40:30Z</time>
      </trkpt>
      <trkpt lat="39.8870248999" lon="-6.2905017380">
        <ele>433.69</ele>
        <time>2020-07-15T12:40:47Z</time>
      </trkpt>
      <trkpt lat="39.8870401550" lon="-6.2905019056">
        <ele>432.73</ele>
        <time>2020-07-15T12:40:56Z</time>
      </trkpt>
      <trkpt lat="39.8870393168" lon="-6.2904853933">
        <ele>432.25</ele>
        <time>2020-07-15T12:41:08Z</time>
      </trkpt>
      <trkpt lat="39.8870819807" lon="-6.2904982176">
        <ele>433.21</ele>
        <time>2020-07-15T12:41:15Z</time>
      </trkpt>
      <trkpt lat="39.8871970642" lon="-6.2905953638">
        <ele>433.69</ele>
        <time>2020-07-15T12:41:24Z</time>
      </trkpt>
      <trkpt lat="39.8872046079" lon="-6.2906164862">
        <ele>433.69</ele>
        <time>2020-07-15T12:41:25Z</time>
      </trkpt>
      <trkpt lat="39.8872141633" lon="-6.2906399556">
        <ele>433.69</ele>
        <time>2020-07-15T12:41:26Z</time>
      </trkpt>
      <trkpt lat="39.8872222099" lon="-6.2906602398">
        <ele>433.69</ele>
        <time>2020-07-15T12:41:27Z</time>
      </trkpt>
      <trkpt lat="39.8872278258" lon="-6.2906807754">
        <ele>434.17</ele>
        <time>2020-07-15T12:41:28Z</time>
      </trkpt>
      <trkpt lat="39.8872322682" lon="-6.2907028198">
        <ele>434.17</ele>
        <time>2020-07-15T12:41:29Z</time>
      </trkpt>
      <trkpt lat="39.8872377165" lon="-6.2907220144">
        <ele>434.17</ele>
        <time>2020-07-15T12:41:30Z</time>
      </trkpt>
      <trkpt lat="39.8872453440" lon="-6.2907419633">
        <ele>434.65</ele>
        <time>2020-07-15T12:41:31Z</time>
      </trkpt>
      <trkpt lat="39.8873543926" lon="-6.2909129541">
        <ele>435.13</ele>
        <time>2020-07-15T12:41:40Z</time>
      </trkpt>
      <trkpt lat="39.8875014950" lon="-6.2911293749">
        <ele>434.65</ele>
        <time>2020-07-15T12:41:50Z</time>
      </trkpt>
      <trkpt lat="39.8876272235" lon="-6.2912825122">
        <ele>432.73</ele>
        <time>2020-07-15T12:41:57Z</time>
      </trkpt>
      <trkpt lat="39.8877852224" lon="-6.2914426066">
        <ele>431.29</ele>
        <time>2020-07-15T12:42:03Z</time>
      </trkpt>
      <trkpt lat="39.8879140522" lon="-6.2917471211">
        <ele>431.29</ele>
        <time>2020-07-15T12:42:11Z</time>
      </trkpt>
      <trkpt lat="39.8879879806" lon="-6.2919621170">
        <ele>431.77</ele>
        <time>2020-07-15T12:42:18Z</time>
      </trkpt>
      <trkpt lat="39.8881251086" lon="-6.2922397256">
        <ele>431.29</ele>
        <time>2020-07-15T12:42:25Z</time>
      </trkpt>
      <trkpt lat="39.8883448821" lon="-6.2924469262">
        <ele>431.77</ele>
        <time>2020-07-15T12:42:33Z</time>
      </trkpt>
      <trkpt lat="39.8885929864" lon="-6.2926341780">
        <ele>432.25</ele>
        <time>2020-07-15T12:42:42Z</time>
      </trkpt>
      <trkpt lat="39.8887311202" lon="-6.2928388640">
        <ele>429.85</ele>
        <time>2020-07-15T12:42:50Z</time>
      </trkpt>
      <trkpt lat="39.8888762109" lon="-6.2930662651">
        <ele>427.44</ele>
        <time>2020-07-15T12:42:58Z</time>
      </trkpt>
      <trkpt lat="39.8889989220" lon="-6.2932537682">
        <ele>426.96</ele>
        <time>2020-07-15T12:43:04Z</time>
      </trkpt>
      <trkpt lat="39.8891832400" lon="-6.2935326342">
        <ele>425.52</ele>
        <time>2020-07-15T12:43:12Z</time>
      </trkpt>
      <trkpt lat="39.8892782070" lon="-6.2936945725">
        <ele>425.52</ele>
        <time>2020-07-15T12:43:18Z</time>
      </trkpt>
      <trkpt lat="39.8893920332" lon="-6.2938589416">
        <ele>425.04</ele>
        <time>2020-07-15T12:43:24Z</time>
      </trkpt>
      <trkpt lat="39.8895750940" lon="-6.2941071298">
        <ele>425.04</ele>
        <time>2020-07-15T12:43:32Z</time>
      </trkpt>
      <trkpt lat="39.8897446599" lon="-6.2943538092">
        <ele>425.52</ele>
        <time>2020-07-15T12:43:41Z</time>
      </trkpt>
      <trkpt lat="39.8898356874" lon="-6.2945812941">
        <ele>426.48</ele>
        <time>2020-07-15T12:43:49Z</time>
      </trkpt>
      <trkpt lat="39.8900044151" lon="-6.2948206812">
        <ele>428.89</ele>
        <time>2020-07-15T12:43:59Z</time>
      </trkpt>
      <trkpt lat="39.8901586421" lon="-6.2950249482">
        <ele>430.33</ele>
        <time>2020-07-15T12:44:07Z</time>
      </trkpt>
      <trkpt lat="39.8903203290" lon="-6.2952557020">
        <ele>430.33</ele>
        <time>2020-07-15T12:44:16Z</time>
      </trkpt>
      <trkpt lat="39.8904976062" lon="-6.2955031358">
        <ele>428.40</ele>
        <time>2020-07-15T12:44:24Z</time>
      </trkpt>
      <trkpt lat="39.8906554375" lon="-6.2956701871">
        <ele>425.04</ele>
        <time>2020-07-15T12:44:31Z</time>
      </trkpt>
      <trkpt lat="39.8907932360" lon="-6.2958319578">
        <ele>420.71</ele>
        <time>2020-07-15T12:44:38Z</time>
      </trkpt>
      <trkpt lat="39.8908976745" lon="-6.2961397413">
        <ele>417.83</ele>
        <time>2020-07-15T12:44:47Z</time>
      </trkpt>
      <trkpt lat="39.8910385743" lon="-6.2964086328">
        <ele>416.39</ele>
        <time>2020-07-15T12:44:54Z</time>
      </trkpt>
      <trkpt lat="39.8911682423" lon="-6.2965791207">
        <ele>415.91</ele>
        <time>2020-07-15T12:45:00Z</time>
      </trkpt>
      <trkpt lat="39.8912875168" lon="-6.2966942880">
        <ele>415.91</ele>
        <time>2020-07-15T12:45:07Z</time>
      </trkpt>
      <trkpt lat="39.8914563283" lon="-6.2968187593">
        <ele>412.54</ele>
        <time>2020-07-15T12:45:16Z</time>
      </trkpt>
      <trkpt lat="39.8916745931" lon="-6.2969923485">
        <ele>412.06</ele>
        <time>2020-07-15T12:45:22Z</time>
      </trkpt>
      <trkpt lat="39.8920303211" lon="-6.2973396946">
        <ele>413.02</ele>
        <time>2020-07-15T12:45:31Z</time>
      </trkpt>
      <trkpt lat="39.8922726419" lon="-6.2975955103">
        <ele>413.02</ele>
        <time>2020-07-15T12:45:39Z</time>
      </trkpt>
      <trkpt lat="39.8924921639" lon="-6.2978980131">
        <ele>412.06</ele>
        <time>2020-07-15T12:45:48Z</time>
      </trkpt>
      <trkpt lat="39.8926860373" lon="-6.2981566787">
        <ele>411.58</ele>
        <time>2020-07-15T12:45:56Z</time>
      </trkpt>
      <trkpt lat="39.8930116743" lon="-6.2984851655">
        <ele>411.58</ele>
        <time>2020-07-15T12:46:08Z</time>
      </trkpt>
      <trkpt lat="39.8931742832" lon="-6.2986081280">
        <ele>413.02</ele>
        <time>2020-07-15T12:46:16Z</time>
      </trkpt>
      <trkpt lat="39.8933335394" lon="-6.2986489478">
        <ele>412.54</ele>
        <time>2020-07-15T12:46:23Z</time>
      </trkpt>
      <trkpt lat="39.8935193662" lon="-6.2987418193">
        <ele>410.14</ele>
        <time>2020-07-15T12:46:32Z</time>
      </trkpt>
      <trkpt lat="39.8936833162" lon="-6.2988779414">
        <ele>406.29</ele>
        <time>2020-07-15T12:46:39Z</time>
      </trkpt>
      <trkpt lat="39.8938849848" lon="-6.2990504410">
        <ele>401.01</ele>
        <time>2020-07-15T12:46:48Z</time>
      </trkpt>
      <trkpt lat="39.8940347694" lon="-6.2991545442">
        <ele>398.12</ele>
        <time>2020-07-15T12:46:56Z</time>
      </trkpt>
      <trkpt lat="39.8941786028" lon="-6.2992637604">
        <ele>394.28</ele>
        <time>2020-07-15T12:47:04Z</time>
      </trkpt>
      <trkpt lat="39.8943721410" lon="-6.2994098570">
        <ele>390.43</ele>
        <time>2020-07-15T12:47:13Z</time>
      </trkpt>
      <trkpt lat="39.8945805989" lon="-6.2995286286">
        <ele>388.99</ele>
        <time>2020-07-15T12:47:21Z</time>
      </trkpt>
      <trkpt lat="39.8947370891" lon="-6.2996336538">
        <ele>388.03</ele>
        <time>2020-07-15T12:47:29Z</time>
      </trkpt>
      <trkpt lat="39.8948730435" lon="-6.2996902317">
        <ele>386.59</ele>
        <time>2020-07-15T12:47:37Z</time>
      </trkpt>
      <trkpt lat="39.8950131051" lon="-6.2997489050">
        <ele>384.66</ele>
        <time>2020-07-15T12:47:44Z</time>
      </trkpt>
      <trkpt lat="39.8951814137" lon="-6.2998204026">
        <ele>380.82</ele>
        <time>2020-07-15T12:47:51Z</time>
      </trkpt>
      <trkpt lat="39.8953716829" lon="-6.2998794112">
        <ele>379.86</ele>
        <time>2020-07-15T12:47:58Z</time>
      </trkpt>
      <trkpt lat="39.8955840804" lon="-6.2998629827">
        <ele>378.90</ele>
        <time>2020-07-15T12:48:04Z</time>
      </trkpt>
      <trkpt lat="39.8958736751" lon="-6.2998388428">
        <ele>377.94</ele>
        <time>2020-07-15T12:48:13Z</time>
      </trkpt>
      <trkpt lat="39.8960851505" lon="-6.2998562772">
        <ele>375.05</ele>
        <time>2020-07-15T12:48:21Z</time>
      </trkpt>
      <trkpt lat="39.8962966260" lon="-6.2999078259">
        <ele>372.65</ele>
        <time>2020-07-15T12:48:29Z</time>
      </trkpt>
      <trkpt lat="39.8964889068" lon="-6.2999772280">
        <ele>372.17</ele>
        <time>2020-07-15T12:48:36Z</time>
      </trkpt>
      <trkpt lat="39.8967339098" lon="-6.3000861928">
        <ele>370.24</ele>
        <time>2020-07-15T12:48:43Z</time>
      </trkpt>
      <trkpt lat="39.8968231771" lon="-6.3001177926">
        <ele>369.28</ele>
        <time>2020-07-15T12:48:48Z</time>
      </trkpt>
      <trkpt lat="39.8968073353" lon="-6.3001189660">
        <ele>370.24</ele>
        <time>2020-07-15T12:49:04Z</time>
      </trkpt>
      <trkpt lat="39.8968198244" lon="-6.3001135178">
        <ele>369.28</ele>
        <time>2020-07-15T12:49:15Z</time>
      </trkpt>
      <trkpt lat="39.8968216684" lon="-6.3001181278">
        <ele>370.73</ele>
        <time>2020-07-15T12:49:33Z</time>
      </trkpt>
      <trkpt lat="39.8968251888" lon="-6.3001165353">
        <ele>371.21</ele>
        <time>2020-07-15T12:49:49Z</time>
      </trkpt>
      <trkpt lat="39.8968274519" lon="-6.3001134340">
        <ele>371.21</ele>
        <time>2020-07-15T12:50:07Z</time>
      </trkpt>
      <trkpt lat="39.8968387675" lon="-6.3001208100">
        <ele>371.21</ele>
        <time>2020-07-15T12:50:21Z</time>
      </trkpt>
      <trkpt lat="39.8968552798" lon="-6.3001360651">
        <ele>371.21</ele>
        <time>2020-07-15T12:50:22Z</time>
      </trkpt>
      <trkpt lat="39.8968776595" lon="-6.3001534157">
        <ele>370.73</ele>
        <time>2020-07-15T12:50:23Z</time>
      </trkpt>
      <trkpt lat="39.8971007857" lon="-6.3002808206">
        <ele>367.36</ele>
        <time>2020-07-15T12:50:30Z</time>
      </trkpt>
      <trkpt lat="39.8973391671" lon="-6.3004109915">
        <ele>364.00</ele>
        <time>2020-07-15T12:50:38Z</time>
      </trkpt>
      <trkpt lat="39.8976239003" lon="-6.3005448505">
        <ele>359.67</ele>
        <time>2020-07-15T12:50:46Z</time>
      </trkpt>
      <trkpt lat="39.8977735173" lon="-6.3006070442">
        <ele>358.71</ele>
        <time>2020-07-15T12:50:50Z</time>
      </trkpt>
      <trkpt lat="39.8978141695" lon="-6.3006198686">
        <ele>358.71</ele>
        <time>2020-07-15T12:50:51Z</time>
      </trkpt>
      <trkpt lat="39.8978540674" lon="-6.3006386440">
        <ele>358.71</ele>
        <time>2020-07-15T12:50:52Z</time>
      </trkpt>
      <trkpt lat="39.8978922050" lon="-6.3006579224">
        <ele>358.23</ele>
        <time>2020-07-15T12:50:53Z</time>
      </trkpt>
      <trkpt lat="39.8979353718" lon="-6.3006752729">
        <ele>358.23</ele>
        <time>2020-07-15T12:50:54Z</time>
      </trkpt>
      <trkpt lat="39.8983792774" lon="-6.3008769415">
        <ele>357.27</ele>
        <time>2020-07-15T12:51:05Z</time>
      </trkpt>
      <trkpt lat="39.8985594045" lon="-6.3009662926">
        <ele>357.27</ele>
        <time>2020-07-15T12:51:12Z</time>
      </trkpt>
      <trkpt lat="39.8988011386" lon="-6.3010916021">
        <ele>357.27</ele>
        <time>2020-07-15T12:51:19Z</time>
      </trkpt>
      <trkpt lat="39.8991354089" lon="-6.3012870681">
        <ele>359.19</ele>
        <time>2020-07-15T12:51:30Z</time>
      </trkpt>
      <trkpt lat="39.8993221577" lon="-6.3013868127">
        <ele>359.19</ele>
        <time>2020-07-15T12:51:38Z</time>
      </trkpt>
      <trkpt lat="39.8995804880" lon="-6.3015272096">
        <ele>357.27</ele>
        <time>2020-07-15T12:51:47Z</time>
      </trkpt>
      <trkpt lat="39.8998237308" lon="-6.3016271219">
        <ele>354.38</ele>
        <time>2020-07-15T12:51:52Z</time>
      </trkpt>
      <trkpt lat="39.9001504574" lon="-6.3017257769">
        <ele>354.86</ele>
        <time>2020-07-15T12:51:59Z</time>
      </trkpt>
      <trkpt lat="39.9003167544" lon="-6.3017819356">
        <ele>356.79</ele>
        <time>2020-07-15T12:52:06Z</time>
      </trkpt>
      <trkpt lat="39.9005418923" lon="-6.3018781599">
        <ele>358.23</ele>
        <time>2020-07-15T12:52:15Z</time>
      </trkpt>
      <trkpt lat="39.9007520266" lon="-6.3019496575">
        <ele>359.67</ele>
        <time>2020-07-15T12:52:24Z</time>
      </trkpt>
      <trkpt lat="39.9008812755" lon="-6.3019684330">
        <ele>361.11</ele>
        <time>2020-07-15T12:52:32Z</time>
      </trkpt>
      <trkpt lat="39.9009559583" lon="-6.3019939139">
        <ele>361.59</ele>
        <time>2020-07-15T12:52:38Z</time>
      </trkpt>
      <trkpt lat="39.9011158012" lon="-6.3020411879">
        <ele>363.04</ele>
        <time>2020-07-15T12:52:48Z</time>
      </trkpt>
      <trkpt lat="39.9013179727" lon="-6.3020854443">
        <ele>364.48</ele>
        <time>2020-07-15T12:52:59Z</time>
      </trkpt>
      <trkpt lat="39.9015069008" lon="-6.3020902220">
        <ele>364.96</ele>
        <time>2020-07-15T12:53:09Z</time>
      </trkpt>
      <trkpt lat="39.9016916379" lon="-6.3020931557">
        <ele>366.88</ele>
        <time>2020-07-15T12:53:19Z</time>
      </trkpt>
      <trkpt lat="39.9018884450" lon="-6.3021118473">
        <ele>367.36</ele>
        <time>2020-07-15T12:53:29Z</time>
      </trkpt>
      <trkpt lat="39.9020849168" lon="-6.3021529187">
        <ele>366.88</ele>
        <time>2020-07-15T12:53:39Z</time>
      </trkpt>
      <trkpt lat="39.9022388924" lon="-6.3022308704">
        <ele>366.40</ele>
        <time>2020-07-15T12:53:49Z</time>
      </trkpt>
      <trkpt lat="39.9023490306" lon="-6.3022965845">
        <ele>364.48</ele>
        <time>2020-07-15T12:53:57Z</time>
      </trkpt>
      <trkpt lat="39.9025549740" lon="-6.3024462014">
        <ele>361.11</ele>
        <time>2020-07-15T12:54:03Z</time>
      </trkpt>
      <trkpt lat="39.9027893320" lon="-6.3026268315">
        <ele>356.31</ele>
        <time>2020-07-15T12:54:10Z</time>
      </trkpt>
      <trkpt lat="39.9029614963" lon="-6.3027427532">
        <ele>353.90</ele>
        <time>2020-07-15T12:54:15Z</time>
      </trkpt>
      <trkpt lat="39.9033402745" lon="-6.3030027598">
        <ele>348.13</ele>
        <time>2020-07-15T12:54:24Z</time>
      </trkpt>
      <trkpt lat="39.9035748001" lon="-6.3031729124">
        <ele>345.25</ele>
        <time>2020-07-15T12:54:31Z</time>
      </trkpt>
      <trkpt lat="39.9038142711" lon="-6.3033329230">
        <ele>341.89</ele>
        <time>2020-07-15T12:54:39Z</time>
      </trkpt>
      <trkpt lat="39.9039888661" lon="-6.3034570590">
        <ele>339.00</ele>
        <time>2020-07-15T12:54:45Z</time>
      </trkpt>
      <trkpt lat="39.9041909538" lon="-6.3036034070">
        <ele>335.64</ele>
        <time>2020-07-15T12:54:51Z</time>
      </trkpt>
      <trkpt lat="39.9045028444" lon="-6.3038218394">
        <ele>331.31</ele>
        <time>2020-07-15T12:54:57Z</time>
      </trkpt>
      <trkpt lat="39.9048206862" lon="-6.3040586282">
        <ele>328.43</ele>
        <time>2020-07-15T12:55:02Z</time>
      </trkpt>
      <trkpt lat="39.9052219279" lon="-6.3043299504">
        <ele>327.47</ele>
        <time>2020-07-15T12:55:09Z</time>
      </trkpt>
      <trkpt lat="39.9055022188" lon="-6.3045213092">
        <ele>327.95</ele>
        <time>2020-07-15T12:55:16Z</time>
      </trkpt>
      <trkpt lat="39.9056924880" lon="-6.3046167791">
        <ele>328.43</ele>
        <time>2020-07-15T12:55:23Z</time>
      </trkpt>
      <trkpt lat="39.9059113394" lon="-6.3047073036">
        <ele>329.87</ele>
        <time>2020-07-15T12:55:33Z</time>
      </trkpt>
      <trkpt lat="39.9062260799" lon="-6.3048186991">
        <ele>332.75</ele>
        <time>2020-07-15T12:55:47Z</time>
      </trkpt>
      <trkpt lat="39.9064171873" lon="-6.3048861735">
        <ele>334.20</ele>
        <time>2020-07-15T12:55:56Z</time>
      </trkpt>
      <trkpt lat="39.9065653794" lon="-6.3049349561">
        <ele>334.20</ele>
        <time>2020-07-15T12:56:05Z</time>
      </trkpt>
      <trkpt lat="39.9067145772" lon="-6.3049785420">
        <ele>333.23</ele>
        <time>2020-07-15T12:56:14Z</time>
      </trkpt>
      <trkpt lat="39.9069257174" lon="-6.3050486147">
        <ele>330.35</ele>
        <time>2020-07-15T12:56:22Z</time>
      </trkpt>
      <trkpt lat="39.9071431439" lon="-6.3051084615">
        <ele>327.95</ele>
        <time>2020-07-15T12:56:27Z</time>
      </trkpt>
      <trkpt lat="39.9074822757" lon="-6.3052219525">
        <ele>326.02</ele>
        <time>2020-07-15T12:56:32Z</time>
      </trkpt>
      <trkpt lat="39.9079173803" lon="-6.3053533807">
        <ele>325.54</ele>
        <time>2020-07-15T12:56:39Z</time>
      </trkpt>
      <trkpt lat="39.9082267564" lon="-6.3054486830">
        <ele>326.50</ele>
        <time>2020-07-15T12:56:46Z</time>
      </trkpt>
      <trkpt lat="39.9083632976" lon="-6.3054840546">
        <ele>327.47</ele>
        <time>2020-07-15T12:56:52Z</time>
      </trkpt>
      <trkpt lat="39.9085688218" lon="-6.3055505231">
        <ele>329.39</ele>
        <time>2020-07-15T12:57:01Z</time>
      </trkpt>
      <trkpt lat="39.9087176006" lon="-6.3055948634">
        <ele>330.83</ele>
        <time>2020-07-15T12:57:08Z</time>
      </trkpt>
      <trkpt lat="39.9088515434" lon="-6.3056454062">
        <ele>330.83</ele>
        <time>2020-07-15T12:57:16Z</time>
      </trkpt>
      <trkpt lat="39.9090423156" lon="-6.3057176583">
        <ele>328.91</ele>
        <time>2020-07-15T12:57:24Z</time>
      </trkpt>
      <trkpt lat="39.9092562217" lon="-6.3057797682">
        <ele>326.50</ele>
        <time>2020-07-15T12:57:30Z</time>
      </trkpt>
      <trkpt lat="39.9093061779" lon="-6.3057984598">
        <ele>326.02</ele>
        <time>2020-07-15T12:57:31Z</time>
      </trkpt>
      <trkpt lat="39.9096646719" lon="-6.3059263676">
        <ele>324.10</ele>
        <time>2020-07-15T12:57:37Z</time>
      </trkpt>
      <trkpt lat="39.9101979285" lon="-6.3061072491">
        <ele>320.74</ele>
        <time>2020-07-15T12:57:45Z</time>
      </trkpt>
      <trkpt lat="39.9106897786" lon="-6.3062724564">
        <ele>319.30</ele>
        <time>2020-07-15T12:57:52Z</time>
      </trkpt>
      <trkpt lat="39.9108129088" lon="-6.3063067384">
        <ele>318.81</ele>
        <time>2020-07-15T12:57:54Z</time>
      </trkpt>
      <trkpt lat="39.9109215382" lon="-6.3063451275">
        <ele>318.81</ele>
        <time>2020-07-15T12:57:56Z</time>
      </trkpt>
      <trkpt lat="39.9109831452" lon="-6.3063631486">
        <ele>318.33</ele>
        <time>2020-07-15T12:57:57Z</time>
      </trkpt>
      <trkpt lat="39.9113879912" lon="-6.3064999413">
        <ele>314.97</ele>
        <time>2020-07-15T12:58:04Z</time>
      </trkpt>
      <trkpt lat="39.9117258657" lon="-6.3066109177">
        <ele>311.12</ele>
        <time>2020-07-15T12:58:10Z</time>
      </trkpt>
      <trkpt lat="39.9122245051" lon="-6.3067672402">
        <ele>304.88</ele>
        <time>2020-07-15T12:58:18Z</time>
      </trkpt>
      <trkpt lat="39.9125569314" lon="-6.3068679906">
        <ele>300.55</ele>
        <time>2020-07-15T12:58:25Z</time>
      </trkpt>
      <trkpt lat="39.9127591029" lon="-6.3069067150">
        <ele>299.11</ele>
        <time>2020-07-15T12:58:32Z</time>
      </trkpt>
      <trkpt lat="39.9127845839" lon="-6.3068836648">
        <ele>299.59</ele>
        <time>2020-07-15T12:58:34Z</time>
      </trkpt>
      <trkpt lat="39.9127860088" lon="-6.3068683259">
        <ele>299.59</ele>
        <time>2020-07-15T12:58:35Z</time>
      </trkpt>
      <trkpt lat="39.9127838295" lon="-6.3068605307">
        <ele>299.11</ele>
        <time>2020-07-15T12:58:41Z</time>
      </trkpt>
      <trkpt lat="39.9127780460" lon="-6.3068543281">
        <ele>298.15</ele>
        <time>2020-07-15T12:58:57Z</time>
      </trkpt>
      <trkpt lat="39.9127732683" lon="-6.3068521488">
        <ele>298.63</ele>
        <time>2020-07-15T12:59:18Z</time>
      </trkpt>
      <trkpt lat="39.9127876852" lon="-6.3067573495">
        <ele>298.15</ele>
        <time>2020-07-15T12:59:24Z</time>
      </trkpt>
      <trkpt lat="39.9128400721" lon="-6.3064766396">
        <ele>298.15</ele>
        <time>2020-07-15T12:59:32Z</time>
      </trkpt>
      <trkpt lat="39.9129485339" lon="-6.3063765597">
        <ele>298.15</ele>
        <time>2020-07-15T12:59:38Z</time>
      </trkpt>
      <trkpt lat="39.9131899327" lon="-6.3063628133">
        <ele>298.15</ele>
        <time>2020-07-15T12:59:46Z</time>
      </trkpt>
      <trkpt lat="39.9134299066" lon="-6.3062693551">
        <ele>298.15</ele>
        <time>2020-07-15T12:59:54Z</time>
      </trkpt>
      <trkpt lat="39.9136181641" lon="-6.3060024753">
        <ele>297.67</ele>
        <time>2020-07-15T13:00:03Z</time>
      </trkpt>
      <trkpt lat="39.9139117822" lon="-6.3056044187">
        <ele>297.67</ele>
        <time>2020-07-15T13:00:15Z</time>
      </trkpt>
      <trkpt lat="39.9142252654" lon="-6.3052704837">
        <ele>297.18</ele>
        <time>2020-07-15T13:00:27Z</time>
      </trkpt>
      <trkpt lat="39.9144952465" lon="-6.3049920369">
        <ele>296.70</ele>
        <time>2020-07-15T13:00:38Z</time>
      </trkpt>
      <trkpt lat="39.9147228152" lon="-6.3047327846">
        <ele>297.18</ele>
        <time>2020-07-15T13:00:48Z</time>
      </trkpt>
      <trkpt lat="39.9148544949" lon="-6.3044485543">
        <ele>296.70</ele>
        <time>2020-07-15T13:00:57Z</time>
      </trkpt>
      <trkpt lat="39.9149966519" lon="-6.3041359093">
        <ele>296.22</ele>
        <time>2020-07-15T13:01:05Z</time>
      </trkpt>
      <trkpt lat="39.9151518010" lon="-6.3039205782">
        <ele>296.22</ele>
        <time>2020-07-15T13:01:12Z</time>
      </trkpt>
      <trkpt lat="39.9154525436" lon="-6.3037323207">
        <ele>297.18</ele>
        <time>2020-07-15T13:01:21Z</time>
      </trkpt>
      <trkpt lat="39.9156739097" lon="-6.3035288919">
        <ele>297.18</ele>
        <time>2020-07-15T13:01:29Z</time>
      </trkpt>
      <trkpt lat="39.9157443177" lon="-6.3032345194">
        <ele>297.67</ele>
        <time>2020-07-15T13:01:36Z</time>
      </trkpt>
      <trkpt lat="39.9156945292" lon="-6.3030087948">
        <ele>297.67</ele>
        <time>2020-07-15T13:01:43Z</time>
      </trkpt>
      <trkpt lat="39.9156304915" lon="-6.3028896041">
        <ele>298.15</ele>
        <time>2020-07-15T13:01:50Z</time>
      </trkpt>
      <trkpt lat="39.9156344309" lon="-6.3028941303">
        <ele>299.59</ele>
        <time>2020-07-15T13:02:04Z</time>
      </trkpt>
      <trkpt lat="39.9156294018" lon="-6.3028813899">
        <ele>300.07</ele>
        <time>2020-07-15T13:02:28Z</time>
      </trkpt>
      <trkpt lat="39.9156202655" lon="-6.3028737623">
        <ele>300.55</ele>
        <time>2020-07-15T13:02:37Z</time>
      </trkpt>
      <trkpt lat="39.9156206008" lon="-6.3028889336">
        <ele>301.03</ele>
        <time>2020-07-15T13:02:57Z</time>
      </trkpt>
      <trkpt lat="39.9156042561" lon="-6.3028865866">
        <ele>301.03</ele>
        <time>2020-07-15T13:03:04Z</time>
      </trkpt>
      <trkpt lat="39.9156156555" lon="-6.3028889336">
        <ele>301.03</ele>
        <time>2020-07-15T13:03:18Z</time>
      </trkpt>
      <trkpt lat="39.9156252947" lon="-6.3028957229">
        <ele>300.55</ele>
        <time>2020-07-15T13:03:25Z</time>
      </trkpt>
      <trkpt lat="39.9156340118" lon="-6.3029005006">
        <ele>300.55</ele>
        <time>2020-07-15T13:03:27Z</time>
      </trkpt>
      <trkpt lat="39.9156440701" lon="-6.3029098883">
        <ele>300.55</ele>
        <time>2020-07-15T13:03:28Z</time>
      </trkpt>
      <trkpt lat="39.9157222733" lon="-6.3030450046">
        <ele>301.03</ele>
        <time>2020-07-15T13:03:34Z</time>
      </trkpt>
      <trkpt lat="39.9157341756" lon="-6.3033577334">
        <ele>300.55</ele>
        <time>2020-07-15T13:03:41Z</time>
      </trkpt>
      <trkpt lat="39.9156317487" lon="-6.3035782613">
        <ele>300.07</ele>
        <time>2020-07-15T13:03:47Z</time>
      </trkpt>
      <trkpt lat="39.9153776094" lon="-6.3037657645">
        <ele>299.59</ele>
        <time>2020-07-15T13:03:55Z</time>
      </trkpt>
      <trkpt lat="39.9151093885" lon="-6.3039538544">
        <ele>299.59</ele>
        <time>2020-07-15T13:04:03Z</time>
      </trkpt>
      <trkpt lat="39.9149864260" lon="-6.3041640725">
        <ele>299.59</ele>
        <time>2020-07-15T13:04:09Z</time>
      </trkpt>
      <trkpt lat="39.9148544110" lon="-6.3044569362">
        <ele>298.63</ele>
        <time>2020-07-15T13:04:16Z</time>
      </trkpt>
      <trkpt lat="39.9146972504" lon="-6.3047694135">
        <ele>298.15</ele>
        <time>2020-07-15T13:04:24Z</time>
      </trkpt>
      <trkpt lat="39.9144592043" lon="-6.3050343655">
        <ele>297.67</ele>
        <time>2020-07-15T13:04:32Z</time>
      </trkpt>
      <trkpt lat="39.9141655024" lon="-6.3053410593">
        <ele>298.63</ele>
        <time>2020-07-15T13:04:42Z</time>
      </trkpt>
      <trkpt lat="39.9138730578" lon="-6.3056441490">
        <ele>298.63</ele>
        <time>2020-07-15T13:04:51Z</time>
      </trkpt>
      <trkpt lat="39.9137153942" lon="-6.3058521040">
        <ele>298.15</ele>
        <time>2020-07-15T13:04:58Z</time>
      </trkpt>
      <trkpt lat="39.9137197528" lon="-6.3058466557">
        <ele>298.15</ele>
        <time>2020-07-15T13:05:02Z</time>
      </trkpt>
      <trkpt lat="39.9137150589" lon="-6.3058493380">
        <ele>298.15</ele>
        <time>2020-07-15T13:05:14Z</time>
      </trkpt>
      <trkpt lat="39.9136738200" lon="-6.3059121184">
        <ele>297.67</ele>
        <time>2020-07-15T13:05:21Z</time>
      </trkpt>
      <trkpt lat="39.9135544617" lon="-6.3061256893">
        <ele>297.67</ele>
        <time>2020-07-15T13:05:28Z</time>
      </trkpt>
      <trkpt lat="39.9133568164" lon="-6.3063310459">
        <ele>297.18</ele>
        <time>2020-07-15T13:05:35Z</time>
      </trkpt>
      <trkpt lat="39.9133171700" lon="-6.3063478936">
        <ele>297.67</ele>
        <time>2020-07-15T13:05:36Z</time>
      </trkpt>
      <trkpt lat="39.9132377934" lon="-6.3063700218">
        <ele>297.67</ele>
        <time>2020-07-15T13:05:38Z</time>
      </trkpt>
      <trkpt lat="39.9131956324" lon="-6.3063727878">
        <ele>298.15</ele>
        <time>2020-07-15T13:05:39Z</time>
      </trkpt>
      <trkpt lat="39.9131539743" lon="-6.3063722849">
        <ele>298.15</ele>
        <time>2020-07-15T13:05:40Z</time>
      </trkpt>
      <trkpt lat="39.9128653016" lon="-6.3064482249">
        <ele>298.63</ele>
        <time>2020-07-15T13:05:48Z</time>
      </trkpt>
      <trkpt lat="39.9128093943" lon="-6.3066759612">
        <ele>298.63</ele>
        <time>2020-07-15T13:05:53Z</time>
      </trkpt>
      <trkpt lat="39.9128160998" lon="-6.3068378158">
        <ele>299.11</ele>
        <time>2020-07-15T13:05:58Z</time>
      </trkpt>
      <trkpt lat="39.9128318578" lon="-6.3068477064">
        <ele>298.63</ele>
        <time>2020-07-15T13:05:59Z</time>
      </trkpt>
      <trkpt lat="39.9128565844" lon="-6.3068500534">
        <ele>298.15</ele>
        <time>2020-07-15T13:06:00Z</time>
      </trkpt>
      <trkpt lat="39.9128800537" lon="-6.3068438508">
        <ele>298.15</ele>
        <time>2020-07-15T13:06:01Z</time>
      </trkpt>
      <trkpt lat="39.9129186943" lon="-6.3068311103">
        <ele>297.18</ele>
        <time>2020-07-15T13:06:02Z</time>
      </trkpt>
      <trkpt lat="39.9130011722" lon="-6.3068031985">
        <ele>296.22</ele>
        <time>2020-07-15T13:06:04Z</time>
      </trkpt>
      <trkpt lat="39.9130460154" lon="-6.3067949004">
        <ele>295.74</ele>
        <time>2020-07-15T13:06:05Z</time>
      </trkpt>
      <trkpt lat="39.9131360371" lon="-6.3067905419">
        <ele>294.78</ele>
        <time>2020-07-15T13:06:07Z</time>
      </trkpt>
      <trkpt lat="39.9133438244" lon="-6.3068119995">
        <ele>292.86</ele>
        <time>2020-07-15T13:06:13Z</time>
      </trkpt>
      <trkpt lat="39.9134546332" lon="-6.3068214711">
        <ele>292.38</ele>
        <time>2020-07-15T13:06:18Z</time>
      </trkpt>
      <trkpt lat="39.9137003906" lon="-6.3067978341">
        <ele>292.38</ele>
        <time>2020-07-15T13:06:27Z</time>
      </trkpt>
      <trkpt lat="39.9139456451" lon="-6.3067120034">
        <ele>291.42</ele>
        <time>2020-07-15T13:06:35Z</time>
      </trkpt>
      <trkpt lat="39.9142380897" lon="-6.3066126779">
        <ele>290.46</ele>
        <time>2020-07-15T13:06:43Z</time>
      </trkpt>
      <trkpt lat="39.9144970067" lon="-6.3065376598">
        <ele>289.01</ele>
        <time>2020-07-15T13:06:50Z</time>
      </trkpt>
      <trkpt lat="39.9147929717" lon="-6.3063761406">
        <ele>288.05</ele>
        <time>2020-07-15T13:06:58Z</time>
      </trkpt>
      <trkpt lat="39.9149743561" lon="-6.3062463887">
        <ele>287.09</ele>
        <time>2020-07-15T13:07:04Z</time>
      </trkpt>
      <trkpt lat="39.9151849933" lon="-6.3061172236">
        <ele>285.65</ele>
        <time>2020-07-15T13:07:11Z</time>
      </trkpt>
      <trkpt lat="39.9154180940" lon="-6.3059680257">
        <ele>284.21</ele>
        <time>2020-07-15T13:07:19Z</time>
      </trkpt>
      <trkpt lat="39.9156617559" lon="-6.3057371043">
        <ele>283.25</ele>
        <time>2020-07-15T13:07:27Z</time>
      </trkpt>
      <trkpt lat="39.9158884864" lon="-6.3055172469">
        <ele>282.77</ele>
        <time>2020-07-15T13:07:34Z</time>
      </trkpt>
      <trkpt lat="39.9159211759" lon="-6.3054796960">
        <ele>282.28</ele>
        <time>2020-07-15T13:07:35Z</time>
      </trkpt>
      <trkpt lat="39.9161406141" lon="-6.3052700646">
        <ele>281.80</ele>
        <time>2020-07-15T13:07:42Z</time>
      </trkpt>
      <trkpt lat="39.9163717870" lon="-6.3050540630">
        <ele>281.32</ele>
        <time>2020-07-15T13:07:49Z</time>
      </trkpt>
      <trkpt lat="39.9165669177" lon="-6.3049259037">
        <ele>280.84</ele>
        <time>2020-07-15T13:07:54Z</time>
      </trkpt>
      <trkpt lat="39.9168219790" lon="-6.3048229739">
        <ele>280.36</ele>
        <time>2020-07-15T13:08:00Z</time>
      </trkpt>
      <trkpt lat="39.9170084763" lon="-6.3047899492">
        <ele>279.88</ele>
        <time>2020-07-15T13:08:04Z</time>
      </trkpt>
      <trkpt lat="39.9170452729" lon="-6.3047882728">
        <ele>279.88</ele>
        <time>2020-07-15T13:08:05Z</time>
      </trkpt>
      <trkpt lat="39.9172564968" lon="-6.3047893625">
        <ele>279.88</ele>
        <time>2020-07-15T13:08:10Z</time>
      </trkpt>
      <trkpt lat="39.9175478518" lon="-6.3048425037">
        <ele>279.40</ele>
        <time>2020-07-15T13:08:18Z</time>
      </trkpt>
      <trkpt lat="39.9177165795" lon="-6.3048250694">
        <ele>278.92</ele>
        <time>2020-07-15T13:08:25Z</time>
      </trkpt>
      <trkpt lat="39.9178990535" lon="-6.3047278393">
        <ele>277.48</ele>
        <time>2020-07-15T13:08:32Z</time>
      </trkpt>
      <trkpt lat="39.9179700483" lon="-6.3046896178">
        <ele>277.00</ele>
        <time>2020-07-15T13:08:34Z</time>
      </trkpt>
      <trkpt lat="39.9181365129" lon="-6.3046270050">
        <ele>276.52</ele>
        <time>2020-07-15T13:08:38Z</time>
      </trkpt>
      <trkpt lat="39.9184833560" lon="-6.3045269251">
        <ele>275.07</ele>
        <time>2020-07-15T13:08:47Z</time>
      </trkpt>
      <trkpt lat="39.9187063985" lon="-6.3044472970">
        <ele>274.59</ele>
        <time>2020-07-15T13:08:54Z</time>
      </trkpt>
      <trkpt lat="39.9189933110" lon="-6.3043607119">
        <ele>275.07</ele>
        <time>2020-07-15T13:09:03Z</time>
      </trkpt>
      <trkpt lat="39.9190715142" lon="-6.3043190539">
        <ele>275.07</ele>
        <time>2020-07-15T13:09:09Z</time>
      </trkpt>
      <trkpt lat="39.9192415830" lon="-6.3042656612">
        <ele>275.07</ele>
        <time>2020-07-15T13:09:16Z</time>
      </trkpt>
      <trkpt lat="39.9195163418" lon="-6.3041569479">
        <ele>274.59</ele>
        <time>2020-07-15T13:09:25Z</time>
      </trkpt>
      <trkpt lat="39.9197993148" lon="-6.3040724583">
        <ele>273.63</ele>
        <time>2020-07-15T13:09:34Z</time>
      </trkpt>
      <trkpt lat="39.9200192560" lon="-6.3039639127">
        <ele>273.15</ele>
        <time>2020-07-15T13:09:42Z</time>
      </trkpt>
      <trkpt lat="39.9201489240" lon="-6.3040261902">
        <ele>273.63</ele>
        <time>2020-07-15T13:09:48Z</time>
      </trkpt>
      <trkpt lat="39.9201745726" lon="-6.3041169662">
        <ele>273.15</ele>
        <time>2020-07-15T13:09:51Z</time>
      </trkpt>
      <trkpt lat="39.9202806037" lon="-6.3041597977">
        <ele>272.19</ele>
        <time>2020-07-15T13:09:56Z</time>
      </trkpt>
      <trkpt lat="39.9204376806" lon="-6.3040687703">
        <ele>271.71</ele>
        <time>2020-07-15T13:10:04Z</time>
      </trkpt>
      <trkpt lat="39.9204705376" lon="-6.3040468097">
        <ele>271.71</ele>
        <time>2020-07-15T13:10:10Z</time>
      </trkpt>
      <trkpt lat="39.9204774108" lon="-6.3040425349">
        <ele>272.67</ele>
        <time>2020-07-15T13:10:22Z</time>
      </trkpt>
      <trkpt lat="39.9204833619" lon="-6.3040398527">
        <ele>272.67</ele>
        <time>2020-07-15T13:10:29Z</time>
      </trkpt>
      <trkpt lat="39.9205634091" lon="-6.3039966859">
        <ele>273.15</ele>
        <time>2020-07-15T13:10:35Z</time>
      </trkpt>
      <trkpt lat="39.9206794985" lon="-6.3039116096">
        <ele>276.04</ele>
        <time>2020-07-15T13:10:44Z</time>
      </trkpt>
      <trkpt lat="39.9207526725" lon="-6.3038502540">
        <ele>274.11</ele>
        <time>2020-07-15T13:10:51Z</time>
      </trkpt>
      <trkpt lat="39.9207750522" lon="-6.3038090151">
        <ele>273.63</ele>
        <time>2020-07-15T13:10:54Z</time>
      </trkpt>
      <trkpt lat="39.9208526686" lon="-6.3037480786">
        <ele>273.15</ele>
        <time>2020-07-15T13:11:01Z</time>
      </trkpt>
      <trkpt lat="39.9208810832" lon="-6.3037163112">
        <ele>272.67</ele>
        <time>2020-07-15T13:11:04Z</time>
      </trkpt>
      <trkpt lat="39.9209037982" lon="-6.3036708813">
        <ele>272.19</ele>
        <time>2020-07-15T13:11:07Z</time>
      </trkpt>
      <trkpt lat="39.9209066480" lon="-6.3036328275">
        <ele>272.67</ele>
        <time>2020-07-15T13:11:14Z</time>
      </trkpt>
      <trkpt lat="39.9208932370" lon="-6.3036282174">
        <ele>273.15</ele>
        <time>2020-07-15T13:11:27Z</time>
      </trkpt>
      <trkpt lat="39.9208863638" lon="-6.3036343362">
        <ele>271.71</ele>
        <time>2020-07-15T13:11:43Z</time>
      </trkpt>
      <trkpt lat="39.9208681751" lon="-6.3035703823">
        <ele>272.19</ele>
        <time>2020-07-15T13:11:49Z</time>
      </trkpt>
      <trkpt lat="39.9208096694" lon="-6.3036428858">
        <ele>272.67</ele>
        <time>2020-07-15T13:11:55Z</time>
      </trkpt>
      <trkpt lat="39.9207772315" lon="-6.3037399482">
        <ele>272.19</ele>
        <time>2020-07-15T13:11:59Z</time>
      </trkpt>
      <trkpt lat="39.9206966814" lon="-6.3039009646">
        <ele>272.67</ele>
        <time>2020-07-15T13:12:06Z</time>
      </trkpt>
      <trkpt lat="39.9205140397" lon="-6.3040254358">
        <ele>272.67</ele>
        <time>2020-07-15T13:12:14Z</time>
      </trkpt>
      <trkpt lat="39.9202679470" lon="-6.3041742146">
        <ele>270.75</ele>
        <time>2020-07-15T13:12:24Z</time>
      </trkpt>
      <trkpt lat="39.9202423822" lon="-6.3041763101">
        <ele>270.75</ele>
        <time>2020-07-15T13:12:25Z</time>
      </trkpt>
      <trkpt lat="39.9201029073" lon="-6.3039986137">
        <ele>272.19</ele>
        <time>2020-07-15T13:12:31Z</time>
      </trkpt>
      <trkpt lat="39.9200776778" lon="-6.3039662596">
        <ele>272.19</ele>
        <time>2020-07-15T13:12:32Z</time>
      </trkpt>
      <trkpt lat="39.9198784400" lon="-6.3040269446">
        <ele>272.67</ele>
        <time>2020-07-15T13:12:38Z</time>
      </trkpt>
      <trkpt lat="39.9195499532" lon="-6.3041430339">
        <ele>274.59</ele>
        <time>2020-07-15T13:12:48Z</time>
      </trkpt>
      <trkpt lat="39.9193002563" lon="-6.3042412698">
        <ele>274.59</ele>
        <time>2020-07-15T13:12:56Z</time>
      </trkpt>
      <trkpt lat="39.9191646371" lon="-6.3042586204">
        <ele>275.07</ele>
        <time>2020-07-15T13:13:02Z</time>
      </trkpt>
      <trkpt lat="39.9190806504" lon="-6.3041539304">
        <ele>275.07</ele>
        <time>2020-07-15T13:13:07Z</time>
      </trkpt>
      <trkpt lat="39.9190407526" lon="-6.3039525971">
        <ele>275.07</ele>
        <time>2020-07-15T13:13:15Z</time>
      </trkpt>
      <trkpt lat="39.9190462008" lon="-6.3039869629">
        <ele>274.59</ele>
        <time>2020-07-15T13:13:25Z</time>
      </trkpt>
      <trkpt lat="39.9190480448" lon="-6.3039668463">
        <ele>276.04</ele>
        <time>2020-07-15T13:13:37Z</time>
      </trkpt>
      <trkpt lat="39.9190455303" lon="-6.3039417844">
        <ele>274.59</ele>
        <time>2020-07-15T13:13:45Z</time>
      </trkpt>
      <trkpt lat="39.9190329574" lon="-6.3039423712">
        <ele>273.63</ele>
        <time>2020-07-15T13:13:59Z</time>
      </trkpt>
      <trkpt lat="39.9190336280" lon="-6.3039418682">
        <ele>275.07</ele>
        <time>2020-07-15T13:14:12Z</time>
      </trkpt>
      <trkpt lat="39.9190451112" lon="-6.3039356656">
        <ele>277.48</ele>
        <time>2020-07-15T13:14:35Z</time>
      </trkpt>
      <trkpt lat="39.9190187082" lon="-6.3038546965">
        <ele>277.48</ele>
        <time>2020-07-15T13:14:45Z</time>
      </trkpt>
      <trkpt lat="39.9189695064" lon="-6.3036087714">
        <ele>276.52</ele>
        <time>2020-07-15T13:14:52Z</time>
      </trkpt>
      <trkpt lat="39.9189226516" lon="-6.3032061048">
        <ele>277.00</ele>
        <time>2020-07-15T13:15:01Z</time>
      </trkpt>
      <trkpt lat="39.9189561792" lon="-6.3028257340">
        <ele>276.52</ele>
        <time>2020-07-15T13:15:10Z</time>
      </trkpt>
      <trkpt lat="39.9190218933" lon="-6.3024684973">
        <ele>276.52</ele>
        <time>2020-07-15T13:15:19Z</time>
      </trkpt>
      <trkpt lat="39.9190912955" lon="-6.3020616397">
        <ele>276.04</ele>
        <time>2020-07-15T13:15:28Z</time>
      </trkpt>
      <trkpt lat="39.9191561714" lon="-6.3016495015">
        <ele>275.07</ele>
        <time>2020-07-15T13:15:37Z</time>
      </trkpt>
      <trkpt lat="39.9192495458" lon="-6.3010812085">
        <ele>274.11</ele>
        <time>2020-07-15T13:15:48Z</time>
      </trkpt>
      <trkpt lat="39.9193575047" lon="-6.3007074594">
        <ele>273.63</ele>
        <time>2020-07-15T13:15:56Z</time>
      </trkpt>
      <trkpt lat="39.9194404855" lon="-6.3004608639">
        <ele>273.63</ele>
        <time>2020-07-15T13:16:03Z</time>
      </trkpt>
      <trkpt lat="39.9194560759" lon="-6.3003331237">
        <ele>273.63</ele>
        <time>2020-07-15T13:16:09Z</time>
      </trkpt>
      <trkpt lat="39.9194937106" lon="-6.3002832513">
        <ele>273.63</ele>
        <time>2020-07-15T13:16:13Z</time>
      </trkpt>
      <trkpt lat="39.9195063673" lon="-6.3002779707">
        <ele>273.63</ele>
        <time>2020-07-15T13:16:14Z</time>
      </trkpt>
      <trkpt lat="39.9195206165" lon="-6.3002806529">
        <ele>274.11</ele>
        <time>2020-07-15T13:16:15Z</time>
      </trkpt>
      <trkpt lat="39.9195365421" lon="-6.3002876937">
        <ele>274.11</ele>
        <time>2020-07-15T13:16:16Z</time>
      </trkpt>
      <trkpt lat="39.9195473548" lon="-6.3002990093">
        <ele>274.11</ele>
        <time>2020-07-15T13:16:17Z</time>
      </trkpt>
      <trkpt lat="39.9195575807" lon="-6.3003153540">
        <ele>273.63</ele>
        <time>2020-07-15T13:16:18Z</time>
      </trkpt>
      <trkpt lat="39.9195683934" lon="-6.3003317825">
        <ele>273.63</ele>
        <time>2020-07-15T13:16:19Z</time>
      </trkpt>
      <trkpt lat="39.9195792899" lon="-6.3003472053">
        <ele>273.15</ele>
        <time>2020-07-15T13:16:20Z</time>
      </trkpt>
      <trkpt lat="39.9195889290" lon="-6.3003783859">
        <ele>272.67</ele>
        <time>2020-07-15T13:16:26Z</time>
      </trkpt>
      <trkpt lat="39.9195807148" lon="-6.3004083093">
        <ele>273.15</ele>
        <time>2020-07-15T13:16:42Z</time>
      </trkpt>
      <trkpt lat="39.9195792060" lon="-6.3004263304">
        <ele>273.15</ele>
        <time>2020-07-15T13:16:43Z</time>
      </trkpt>
      <trkpt lat="39.9195787031" lon="-6.3004466146">
        <ele>273.63</ele>
        <time>2020-07-15T13:16:44Z</time>
      </trkpt>
      <trkpt lat="39.9195772782" lon="-6.3004733529">
        <ele>273.63</ele>
        <time>2020-07-15T13:16:45Z</time>
      </trkpt>
      <trkpt lat="39.9195710756" lon="-6.3004941400">
        <ele>273.63</ele>
        <time>2020-07-15T13:16:46Z</time>
      </trkpt>
      <trkpt lat="39.9195598438" lon="-6.3005166035">
        <ele>273.63</ele>
        <time>2020-07-15T13:16:47Z</time>
      </trkpt>
      <trkpt lat="39.9195462652" lon="-6.3005402405">
        <ele>273.63</ele>
        <time>2020-07-15T13:16:48Z</time>
      </trkpt>
      <trkpt lat="39.9193839077" lon="-6.3007684797">
        <ele>274.11</ele>
        <time>2020-07-15T13:16:56Z</time>
      </trkpt>
      <trkpt lat="39.9192953110" lon="-6.3010747544">
        <ele>274.11</ele>
        <time>2020-07-15T13:17:03Z</time>
      </trkpt>
      <trkpt lat="39.9192442652" lon="-6.3013801910">
        <ele>273.63</ele>
        <time>2020-07-15T13:17:09Z</time>
      </trkpt>
      <trkpt lat="39.9191597756" lon="-6.3019473944">
        <ele>273.15</ele>
        <time>2020-07-15T13:17:19Z</time>
      </trkpt>
      <trkpt lat="39.9190766271" lon="-6.3024190441">
        <ele>273.15</ele>
        <time>2020-07-15T13:17:28Z</time>
      </trkpt>
      <trkpt lat="39.9190001842" lon="-6.3028851617">
        <ele>272.67</ele>
        <time>2020-07-15T13:17:36Z</time>
      </trkpt>
      <trkpt lat="39.9189728592" lon="-6.3031524606">
        <ele>271.71</ele>
        <time>2020-07-15T13:17:40Z</time>
      </trkpt>
      <trkpt lat="39.9190380704" lon="-6.3037007209">
        <ele>272.19</ele>
        <time>2020-07-15T13:17:48Z</time>
      </trkpt>
      <trkpt lat="39.9191648047" lon="-6.3043729495">
        <ele>274.59</ele>
        <time>2020-07-15T13:17:58Z</time>
      </trkpt>
      <trkpt lat="39.9193020165" lon="-6.3050660491">
        <ele>274.59</ele>
        <time>2020-07-15T13:18:08Z</time>
      </trkpt>
      <trkpt lat="39.9194347020" lon="-6.3057587296">
        <ele>274.11</ele>
        <time>2020-07-15T13:18:18Z</time>
      </trkpt>
      <trkpt lat="39.9195750151" lon="-6.3064126018">
        <ele>273.15</ele>
        <time>2020-07-15T13:18:27Z</time>
      </trkpt>
      <trkpt lat="39.9197351933" lon="-6.3072337769">
        <ele>272.19</ele>
        <time>2020-07-15T13:18:37Z</time>
      </trkpt>
      <trkpt lat="39.9198808707" lon="-6.3079582248">
        <ele>270.75</ele>
        <time>2020-07-15T13:18:46Z</time>
      </trkpt>
      <trkpt lat="39.9200304039" lon="-6.3086854387">
        <ele>269.79</ele>
        <time>2020-07-15T13:18:56Z</time>
      </trkpt>
      <trkpt lat="39.9201848824" lon="-6.3092942163">
        <ele>268.83</ele>
        <time>2020-07-15T13:19:06Z</time>
      </trkpt>
      <trkpt lat="39.9202314019" lon="-6.3094597589">
        <ele>268.83</ele>
        <time>2020-07-15T13:19:09Z</time>
      </trkpt>
      <trkpt lat="39.9202525243" lon="-6.3095015008">
        <ele>268.83</ele>
        <time>2020-07-15T13:19:10Z</time>
      </trkpt>
      <trkpt lat="39.9202882312" lon="-6.3095309213">
        <ele>268.83</ele>
        <time>2020-07-15T13:19:11Z</time>
      </trkpt>
      <trkpt lat="39.9203262851" lon="-6.3095405605">
        <ele>268.83</ele>
        <time>2020-07-15T13:19:12Z</time>
      </trkpt>
      <trkpt lat="39.9203530233" lon="-6.3095443323">
        <ele>268.83</ele>
        <time>2020-07-15T13:19:13Z</time>
      </trkpt>
      <trkpt lat="39.9203888979" lon="-6.3095471822">
        <ele>268.83</ele>
        <time>2020-07-15T13:19:14Z</time>
      </trkpt>
      <trkpt lat="39.9206111860" lon="-6.3095940370">
        <ele>268.35</ele>
        <time>2020-07-15T13:19:20Z</time>
      </trkpt>
      <trkpt lat="39.9206513353" lon="-6.3096191827">
        <ele>267.86</ele>
        <time>2020-07-15T13:19:21Z</time>
      </trkpt>
      <trkpt lat="39.9206888024" lon="-6.3096496928">
        <ele>267.86</ele>
        <time>2020-07-15T13:19:22Z</time>
      </trkpt>
      <trkpt lat="39.9207222462" lon="-6.3096850645">
        <ele>267.86</ele>
        <time>2020-07-15T13:19:23Z</time>
      </trkpt>
      <trkpt lat="39.9207525048" lon="-6.3097264711">
        <ele>267.86</ele>
        <time>2020-07-15T13:19:24Z</time>
      </trkpt>
      <trkpt lat="39.9207772315" lon="-6.3097734097">
        <ele>267.86</ele>
        <time>2020-07-15T13:19:25Z</time>
      </trkpt>
      <trkpt lat="39.9207980186" lon="-6.3098237850">
        <ele>267.86</ele>
        <time>2020-07-15T13:19:26Z</time>
      </trkpt>
      <trkpt lat="39.9208158720" lon="-6.3098781835">
        <ele>267.86</ele>
        <time>2020-07-15T13:19:27Z</time>
      </trkpt>
      <trkpt lat="39.9208322167" lon="-6.3099303190">
        <ele>268.35</ele>
        <time>2020-07-15T13:19:28Z</time>
      </trkpt>
      <trkpt lat="39.9209383316" lon="-6.3103525992">
        <ele>268.35</ele>
        <time>2020-07-15T13:19:35Z</time>
      </trkpt>
      <trkpt lat="39.9209490605" lon="-6.3104142901">
        <ele>268.35</ele>
        <time>2020-07-15T13:19:36Z</time>
      </trkpt>
      <trkpt lat="39.9209629744" lon="-6.3104764000">
        <ele>267.86</ele>
        <time>2020-07-15T13:19:37Z</time>
      </trkpt>
      <trkpt lat="39.9211608712" lon="-6.3111377321">
        <ele>266.90</ele>
        <time>2020-07-15T13:19:47Z</time>
      </trkpt>
      <trkpt lat="39.9214360490" lon="-6.3117583282">
        <ele>266.42</ele>
        <time>2020-07-15T13:19:57Z</time>
      </trkpt>
      <trkpt lat="39.9217835627" lon="-6.3123066723">
        <ele>266.90</ele>
        <time>2020-07-15T13:20:07Z</time>
      </trkpt>
      <trkpt lat="39.9220506940" lon="-6.3128013723">
        <ele>266.42</ele>
        <time>2020-07-15T13:20:16Z</time>
      </trkpt>
      <trkpt lat="39.9222968705" lon="-6.3133195415">
        <ele>266.42</ele>
        <time>2020-07-15T13:20:25Z</time>
      </trkpt>
      <trkpt lat="39.9226040673" lon="-6.3139025029">
        <ele>266.90</ele>
        <time>2020-07-15T13:20:35Z</time>
      </trkpt>
      <trkpt lat="39.9229148682" lon="-6.3144947682">
        <ele>266.90</ele>
        <time>2020-07-15T13:20:45Z</time>
      </trkpt>
      <trkpt lat="39.9232368171" lon="-6.3151183818">
        <ele>265.46</ele>
        <time>2020-07-15T13:20:55Z</time>
      </trkpt>
      <trkpt lat="39.9236329459" lon="-6.3158373814">
        <ele>264.98</ele>
        <time>2020-07-15T13:21:07Z</time>
      </trkpt>
      <trkpt lat="39.9239816330" lon="-6.3163931016">
        <ele>264.50</ele>
        <time>2020-07-15T13:21:17Z</time>
      </trkpt>
      <trkpt lat="39.9242786039" lon="-6.3168531843">
        <ele>264.50</ele>
        <time>2020-07-15T13:21:26Z</time>
      </trkpt>
      <trkpt lat="39.9245815258" lon="-6.3173089083">
        <ele>264.50</ele>
        <time>2020-07-15T13:21:35Z</time>
      </trkpt>
      <trkpt lat="39.9250256829" lon="-6.3178935461">
        <ele>263.54</ele>
        <time>2020-07-15T13:21:46Z</time>
      </trkpt>
      <trkpt lat="39.9254352227" lon="-6.3184465840">
        <ele>262.58</ele>
        <time>2020-07-15T13:21:56Z</time>
      </trkpt>
      <trkpt lat="39.9257098977" lon="-6.3188174833">
        <ele>263.54</ele>
        <time>2020-07-15T13:22:04Z</time>
      </trkpt>
      <trkpt lat="39.9257667270" lon="-6.3188520167">
        <ele>263.54</ele>
        <time>2020-07-15T13:22:06Z</time>
      </trkpt>
      <trkpt lat="39.9257952254" lon="-6.3188481610">
        <ele>263.54</ele>
        <time>2020-07-15T13:22:07Z</time>
      </trkpt>
      <trkpt lat="39.9258202035" lon="-6.3188373484">
        <ele>263.54</ele>
        <time>2020-07-15T13:22:08Z</time>
      </trkpt>
      <trkpt lat="39.9258409068" lon="-6.3188232668">
        <ele>263.54</ele>
        <time>2020-07-15T13:22:09Z</time>
      </trkpt>
      <trkpt lat="39.9258586764" lon="-6.3188099395">
        <ele>263.54</ele>
        <time>2020-07-15T13:22:10Z</time>
      </trkpt>
      <trkpt lat="39.9258803856" lon="-6.3187955227">
        <ele>263.54</ele>
        <time>2020-07-15T13:22:11Z</time>
      </trkpt>
      <trkpt lat="39.9259021785" lon="-6.3187806029">
        <ele>263.54</ele>
        <time>2020-07-15T13:22:12Z</time>
      </trkpt>
      <trkpt lat="39.9259222951" lon="-6.3187644258">
        <ele>263.06</ele>
        <time>2020-07-15T13:22:13Z</time>
      </trkpt>
      <trkpt lat="39.9259457644" lon="-6.3187433034">
        <ele>263.06</ele>
        <time>2020-07-15T13:22:14Z</time>
      </trkpt>
      <trkpt lat="39.9261726625" lon="-6.3185219374">
        <ele>262.10</ele>
        <time>2020-07-15T13:22:21Z</time>
      </trkpt>
      <trkpt lat="39.9266474973" lon="-6.3181028422">
        <ele>260.65</ele>
        <time>2020-07-15T13:22:32Z</time>
      </trkpt>
      <trkpt lat="39.9270599708" lon="-6.3177539874">
        <ele>259.69</ele>
        <time>2020-07-15T13:22:41Z</time>
      </trkpt>
      <trkpt lat="39.9276532419" lon="-6.3172751293">
        <ele>256.81</ele>
        <time>2020-07-15T13:22:53Z</time>
      </trkpt>
      <trkpt lat="39.9278989155" lon="-6.3171100896">
        <ele>256.81</ele>
        <time>2020-07-15T13:22:58Z</time>
      </trkpt>
      <trkpt lat="39.9283694755" lon="-6.3169585448">
        <ele>256.81</ele>
        <time>2020-07-15T13:23:07Z</time>
      </trkpt>
      <trkpt lat="39.9290670175" lon="-6.3169073313">
        <ele>257.29</ele>
        <time>2020-07-15T13:23:20Z</time>
      </trkpt>
      <trkpt lat="39.9296248332" lon="-6.3168319780">
        <ele>258.25</ele>
        <time>2020-07-15T13:23:31Z</time>
      </trkpt>
      <trkpt lat="39.9300659727" lon="-6.3165591471">
        <ele>258.25</ele>
        <time>2020-07-15T13:23:41Z</time>
      </trkpt>
      <trkpt lat="39.9305416457" lon="-6.3161999825">
        <ele>257.77</ele>
        <time>2020-07-15T13:23:52Z</time>
      </trkpt>
      <trkpt lat="39.9309961963" lon="-6.3158572465">
        <ele>258.25</ele>
        <time>2020-07-15T13:24:03Z</time>
      </trkpt>
      <trkpt lat="39.9314228352" lon="-6.3155327830">
        <ele>258.25</ele>
        <time>2020-07-15T13:24:14Z</time>
      </trkpt>
      <trkpt lat="39.9318430200" lon="-6.3152191322">
        <ele>258.25</ele>
        <time>2020-07-15T13:24:25Z</time>
      </trkpt>
      <trkpt lat="39.9322497100" lon="-6.3149113487">
        <ele>259.21</ele>
        <time>2020-07-15T13:24:37Z</time>
      </trkpt>
      <trkpt lat="39.9327218626" lon="-6.3145500887">
        <ele>260.65</ele>
        <time>2020-07-15T13:24:52Z</time>
      </trkpt>
      <trkpt lat="39.9330081046" lon="-6.3143393677">
        <ele>260.65</ele>
        <time>2020-07-15T13:25:01Z</time>
      </trkpt>
      <trkpt lat="39.9333138764" lon="-6.3141610846">
        <ele>261.14</ele>
        <time>2020-07-15T13:25:10Z</time>
      </trkpt>
      <trkpt lat="39.9335882999" lon="-6.3140259683">
        <ele>261.62</ele>
        <time>2020-07-15T13:25:18Z</time>
      </trkpt>
      <trkpt lat="39.9339292757" lon="-6.3138631918">
        <ele>262.10</ele>
        <time>2020-07-15T13:25:28Z</time>
      </trkpt>
      <trkpt lat="39.9342878535" lon="-6.3136764430">
        <ele>263.06</ele>
        <time>2020-07-15T13:25:39Z</time>
      </trkpt>
      <trkpt lat="39.9347165041" lon="-6.3134636264">
        <ele>263.54</ele>
        <time>2020-07-15T13:25:51Z</time>
      </trkpt>
      <trkpt lat="39.9351240322" lon="-6.3132582698">
        <ele>263.54</ele>
        <time>2020-07-15T13:26:02Z</time>
      </trkpt>
      <trkpt lat="39.9355929159" lon="-6.3130665757">
        <ele>263.06</ele>
        <time>2020-07-15T13:26:14Z</time>
      </trkpt>
      <trkpt lat="39.9360568542" lon="-6.3128921483">
        <ele>263.06</ele>
        <time>2020-07-15T13:26:26Z</time>
      </trkpt>
      <trkpt lat="39.9363970757" lon="-6.3127672579">
        <ele>263.54</ele>
        <time>2020-07-15T13:26:35Z</time>
      </trkpt>
      <trkpt lat="39.9367375486" lon="-6.3126384281">
        <ele>263.06</ele>
        <time>2020-07-15T13:26:44Z</time>
      </trkpt>
      <trkpt lat="39.9370734952" lon="-6.3125063293">
        <ele>263.54</ele>
        <time>2020-07-15T13:26:53Z</time>
      </trkpt>
      <trkpt lat="39.9374630861" lon="-6.3123693690">
        <ele>264.50</ele>
        <time>2020-07-15T13:27:04Z</time>
      </trkpt>
      <trkpt lat="39.9378427863" lon="-6.3122295588">
        <ele>264.50</ele>
        <time>2020-07-15T13:27:14Z</time>
      </trkpt>
      <trkpt lat="39.9382270128" lon="-6.3120806962">
        <ele>264.50</ele>
        <time>2020-07-15T13:27:24Z</time>
      </trkpt>
      <trkpt lat="39.9385776278" lon="-6.3119429816">
        <ele>264.50</ele>
        <time>2020-07-15T13:27:33Z</time>
      </trkpt>
      <trkpt lat="39.9390055239" lon="-6.3117613457">
        <ele>263.06</ele>
        <time>2020-07-15T13:27:44Z</time>
      </trkpt>
      <trkpt lat="39.9394126330" lon="-6.3115938753">
        <ele>262.10</ele>
        <time>2020-07-15T13:27:54Z</time>
      </trkpt>
      <trkpt lat="39.9398779124" lon="-6.3114067912">
        <ele>261.14</ele>
        <time>2020-07-15T13:28:04Z</time>
      </trkpt>
      <trkpt lat="39.9401362427" lon="-6.3112992514">
        <ele>261.14</ele>
        <time>2020-07-15T13:28:10Z</time>
      </trkpt>
      <trkpt lat="39.9406013545" lon="-6.3111025281">
        <ele>260.65</ele>
        <time>2020-07-15T13:28:21Z</time>
      </trkpt>
      <trkpt lat="39.9410800450" lon="-6.3109147735">
        <ele>259.69</ele>
        <time>2020-07-15T13:28:31Z</time>
      </trkpt>
      <trkpt lat="39.9415587354" lon="-6.3107002806">
        <ele>259.21</ele>
        <time>2020-07-15T13:28:41Z</time>
      </trkpt>
      <trkpt lat="39.9419700354" lon="-6.3104417827">
        <ele>258.25</ele>
        <time>2020-07-15T13:28:51Z</time>
      </trkpt>
      <trkpt lat="39.9423128553" lon="-6.3102061674">
        <ele>257.29</ele>
        <time>2020-07-15T13:28:58Z</time>
      </trkpt>
      <trkpt lat="39.9424939882" lon="-6.3100682013">
        <ele>257.29</ele>
        <time>2020-07-15T13:29:02Z</time>
      </trkpt>
      <trkpt lat="39.9425361492" lon="-6.3100391999">
        <ele>257.29</ele>
        <time>2020-07-15T13:29:03Z</time>
      </trkpt>
      <trkpt lat="39.9428640492" lon="-6.3097853120">
        <ele>257.29</ele>
        <time>2020-07-15T13:29:11Z</time>
      </trkpt>
      <trkpt lat="39.9433358666" lon="-6.3094215374">
        <ele>256.81</ele>
        <time>2020-07-15T13:29:22Z</time>
      </trkpt>
      <trkpt lat="39.9437463284" lon="-6.3090972416">
        <ele>256.81</ele>
        <time>2020-07-15T13:29:32Z</time>
      </trkpt>
      <trkpt lat="39.9441455584" lon="-6.3087892905">
        <ele>256.81</ele>
        <time>2020-07-15T13:29:42Z</time>
      </trkpt>
      <trkpt lat="39.9443418626" lon="-6.3086328842">
        <ele>256.81</ele>
        <time>2020-07-15T13:29:47Z</time>
      </trkpt>
      <trkpt lat="39.9447618797" lon="-6.3082992844">
        <ele>256.81</ele>
        <time>2020-07-15T13:29:58Z</time>
      </trkpt>
      <trkpt lat="39.9451159313" lon="-6.3080227654">
        <ele>256.81</ele>
        <time>2020-07-15T13:30:08Z</time>
      </trkpt>
      <trkpt lat="39.9453450087" lon="-6.3077671174">
        <ele>256.33</ele>
        <time>2020-07-15T13:30:16Z</time>
      </trkpt>
      <trkpt lat="39.9455455877" lon="-6.3074466772">
        <ele>255.85</ele>
        <time>2020-07-15T13:30:25Z</time>
      </trkpt>
      <trkpt lat="39.9456014950" lon="-6.3073691446">
        <ele>255.37</ele>
        <time>2020-07-15T13:30:27Z</time>
      </trkpt>
      <trkpt lat="39.9456357770" lon="-6.3073315099">
        <ele>255.37</ele>
        <time>2020-07-15T13:30:28Z</time>
      </trkpt>
      <trkpt lat="39.9457547162" lon="-6.3072093856">
        <ele>254.41</ele>
        <time>2020-07-15T13:30:31Z</time>
      </trkpt>
      <trkpt lat="39.9458321650" lon="-6.3071114011">
        <ele>253.93</ele>
        <time>2020-07-15T13:30:33Z</time>
      </trkpt>
      <trkpt lat="39.9458736554" lon="-6.3070699945">
        <ele>253.44</ele>
        <time>2020-07-15T13:30:34Z</time>
      </trkpt>
      <trkpt lat="39.9460108671" lon="-6.3069240656">
        <ele>252.48</ele>
        <time>2020-07-15T13:30:37Z</time>
      </trkpt>
      <trkpt lat="39.9460566323" lon="-6.3068565913">
        <ele>252.48</ele>
        <time>2020-07-15T13:30:38Z</time>
      </trkpt>
      <trkpt lat="39.9460923392" lon="-6.3067885302">
        <ele>252.00</ele>
        <time>2020-07-15T13:30:39Z</time>
      </trkpt>
      <trkpt lat="39.9461966939" lon="-6.3065625541">
        <ele>250.56</ele>
        <time>2020-07-15T13:30:42Z</time>
      </trkpt>
      <trkpt lat="39.9462259468" lon="-6.3064730354">
        <ele>250.08</ele>
        <time>2020-07-15T13:30:43Z</time>
      </trkpt>
      <trkpt lat="39.9464541860" lon="-6.3057286385">
        <ele>246.72</ele>
        <time>2020-07-15T13:30:51Z</time>
      </trkpt>
      <trkpt lat="39.9466941599" lon="-6.3049226347">
        <ele>245.75</ele>
        <time>2020-07-15T13:31:00Z</time>
      </trkpt>
      <trkpt lat="39.9468742870" lon="-6.3043068163">
        <ele>244.79</ele>
        <time>2020-07-15T13:31:09Z</time>
      </trkpt>
      <trkpt lat="39.9471250735" lon="-6.3034688774">
        <ele>244.31</ele>
        <time>2020-07-15T13:31:22Z</time>
      </trkpt>
      <trkpt lat="39.9473559111" lon="-6.3026905339">
        <ele>244.31</ele>
        <time>2020-07-15T13:31:35Z</time>
      </trkpt>
      <trkpt lat="39.9475036841" lon="-6.3021843508">
        <ele>244.79</ele>
        <time>2020-07-15T13:31:44Z</time>
      </trkpt>
      <trkpt lat="39.9477021676" lon="-6.3015297242">
        <ele>245.27</ele>
        <time>2020-07-15T13:31:56Z</time>
      </trkpt>
      <trkpt lat="39.9478786066" lon="-6.3009297475">
        <ele>245.27</ele>
        <time>2020-07-15T13:32:07Z</time>
      </trkpt>
      <trkpt lat="39.9480586499" lon="-6.3003508933">
        <ele>245.27</ele>
        <time>2020-07-15T13:32:18Z</time>
      </trkpt>
      <trkpt lat="39.9482349213" lon="-6.2997478154">
        <ele>245.75</ele>
        <time>2020-07-15T13:32:29Z</time>
      </trkpt>
      <trkpt lat="39.9483028986" lon="-6.2995272875">
        <ele>245.75</ele>
        <time>2020-07-15T13:32:33Z</time>
      </trkpt>
      <trkpt lat="39.9483184889" lon="-6.2994685303">
        <ele>245.75</ele>
        <time>2020-07-15T13:32:34Z</time>
      </trkpt>
      <trkpt lat="39.9485130329" lon="-6.2987958826">
        <ele>246.23</ele>
        <time>2020-07-15T13:32:46Z</time>
      </trkpt>
      <trkpt lat="39.9486612249" lon="-6.2983042840">
        <ele>246.23</ele>
        <time>2020-07-15T13:32:55Z</time>
      </trkpt>
      <trkpt lat="39.9488520809" lon="-6.2977389246">
        <ele>246.72</ele>
        <time>2020-07-15T13:33:06Z</time>
      </trkpt>
      <trkpt lat="39.9488965049" lon="-6.2976391800">
        <ele>246.72</ele>
        <time>2020-07-15T13:33:08Z</time>
      </trkpt>
      <trkpt lat="39.9491368979" lon="-6.2972476613">
        <ele>246.23</ele>
        <time>2020-07-15T13:33:17Z</time>
      </trkpt>
      <trkpt lat="39.9493420031" lon="-6.2970245350">
        <ele>246.72</ele>
        <time>2020-07-15T13:33:25Z</time>
      </trkpt>
      <trkpt lat="39.9493828230" lon="-6.2969859783">
        <ele>247.68</ele>
        <time>2020-07-15T13:33:30Z</time>
      </trkpt>
      <trkpt lat="39.9493856728" lon="-6.2969824579">
        <ele>247.68</ele>
        <time>2020-07-15T13:33:45Z</time>
      </trkpt>
      <trkpt lat="39.9493777100" lon="-6.2969813682">
        <ele>248.16</ele>
        <time>2020-07-15T13:33:57Z</time>
      </trkpt>
      <trkpt lat="39.9493919592" lon="-6.2969904207">
        <ele>248.64</ele>
        <time>2020-07-15T13:34:11Z</time>
      </trkpt>
      <trkpt lat="39.9493926298" lon="-6.2969781831">
        <ele>249.12</ele>
        <time>2020-07-15T13:34:32Z</time>
      </trkpt>
      <trkpt lat="39.9493922107" lon="-6.2969946954">
        <ele>249.12</ele>
        <time>2020-07-15T13:34:47Z</time>
      </trkpt>
      <trkpt lat="39.9494377244" lon="-6.2969491817">
        <ele>249.12</ele>
        <time>2020-07-15T13:34:59Z</time>
      </trkpt>
      <trkpt lat="39.9496241380" lon="-6.2967941165">
        <ele>249.12</ele>
        <time>2020-07-15T13:35:07Z</time>
      </trkpt>
      <trkpt lat="39.9499645270" lon="-6.2965243030">
        <ele>248.64</ele>
        <time>2020-07-15T13:35:16Z</time>
      </trkpt>
      <trkpt lat="39.9500429817" lon="-6.2964637019">
        <ele>248.64</ele>
        <time>2020-07-15T13:35:18Z</time>
      </trkpt>
      <trkpt lat="39.9503785931" lon="-6.2962150946">
        <ele>247.68</ele>
        <time>2020-07-15T13:35:27Z</time>
      </trkpt>
      <trkpt lat="39.9508059025" lon="-6.2958859373">
        <ele>247.68</ele>
        <time>2020-07-15T13:35:38Z</time>
      </trkpt>
      <trkpt lat="39.9512165319" lon="-6.2955790758">
        <ele>247.68</ele>
        <time>2020-07-15T13:35:49Z</time>
      </trkpt>
      <trkpt lat="39.9516659696" lon="-6.2952406984">
        <ele>247.68</ele>
        <time>2020-07-15T13:36:00Z</time>
      </trkpt>
      <trkpt lat="39.9520193506" lon="-6.2949783448">
        <ele>247.20</ele>
        <time>2020-07-15T13:36:09Z</time>
      </trkpt>
      <trkpt lat="39.9524378590" lon="-6.2946610060">
        <ele>247.68</ele>
        <time>2020-07-15T13:36:19Z</time>
      </trkpt>
      <trkpt lat="39.9528901465" lon="-6.2943196949">
        <ele>248.16</ele>
        <time>2020-07-15T13:36:31Z</time>
      </trkpt>
      <trkpt lat="39.9532736186" lon="-6.2940338720">
        <ele>249.60</ele>
        <time>2020-07-15T13:36:42Z</time>
      </trkpt>
      <trkpt lat="39.9536962342" lon="-6.2937161140">
        <ele>251.52</ele>
        <time>2020-07-15T13:36:55Z</time>
      </trkpt>
      <trkpt lat="39.9539478589" lon="-6.2934697699">
        <ele>252.48</ele>
        <time>2020-07-15T13:37:05Z</time>
      </trkpt>
      <trkpt lat="39.9540723301" lon="-6.2932422850">
        <ele>253.44</ele>
        <time>2020-07-15T13:37:14Z</time>
      </trkpt>
      <trkpt lat="39.9541454203" lon="-6.2929789256">
        <ele>253.93</ele>
        <time>2020-07-15T13:37:22Z</time>
      </trkpt>
      <trkpt lat="39.9542304128" lon="-6.2926340103">
        <ele>255.37</ele>
        <time>2020-07-15T13:37:33Z</time>
      </trkpt>
      <trkpt lat="39.9543119688" lon="-6.2922809646">
        <ele>256.33</ele>
        <time>2020-07-15T13:37:44Z</time>
      </trkpt>
      <trkpt lat="39.9543931894" lon="-6.2919330318">
        <ele>258.25</ele>
        <time>2020-07-15T13:37:55Z</time>
      </trkpt>
      <trkpt lat="39.9544231128" lon="-6.2916068919">
        <ele>259.21</ele>
        <time>2020-07-15T13:38:05Z</time>
      </trkpt>
      <trkpt lat="39.9544066004" lon="-6.2913259305">
        <ele>260.65</ele>
        <time>2020-07-15T13:38:13Z</time>
      </trkpt>
      <trkpt lat="39.9543751683" lon="-6.2909551151">
        <ele>263.06</ele>
        <time>2020-07-15T13:38:24Z</time>
      </trkpt>
      <trkpt lat="39.9543575663" lon="-6.2907636724">
        <ele>264.02</ele>
        <time>2020-07-15T13:38:31Z</time>
      </trkpt>
      <trkpt lat="39.9543314986" lon="-6.2904920988">
        <ele>265.46</ele>
        <time>2020-07-15T13:38:41Z</time>
      </trkpt>
      <trkpt lat="39.9543077778" lon="-6.2902258895">
        <ele>266.42</ele>
        <time>2020-07-15T13:38:51Z</time>
      </trkpt>
      <trkpt lat="39.9542878289" lon="-6.2899410725">
        <ele>267.86</ele>
        <time>2020-07-15T13:39:02Z</time>
      </trkpt>
      <trkpt lat="39.9542657007" lon="-6.2896941416">
        <ele>268.83</ele>
        <time>2020-07-15T13:39:12Z</time>
      </trkpt>
      <trkpt lat="39.9542488530" lon="-6.2894390803">
        <ele>269.31</ele>
        <time>2020-07-15T13:39:22Z</time>
      </trkpt>
      <trkpt lat="39.9542475957" lon="-6.2891255971">
        <ele>269.79</ele>
        <time>2020-07-15T13:39:34Z</time>
      </trkpt>
      <trkpt lat="39.9542683829" lon="-6.2889271136">
        <ele>270.27</ele>
        <time>2020-07-15T13:39:42Z</time>
      </trkpt>
      <trkpt lat="39.9542669579" lon="-6.2889043987">
        <ele>270.27</ele>
        <time>2020-07-15T13:39:43Z</time>
      </trkpt>
      <trkpt lat="39.9543007370" lon="-6.2886882294">
        <ele>270.75</ele>
        <time>2020-07-15T13:39:51Z</time>
      </trkpt>
      <trkpt lat="39.9543215241" lon="-6.2884476688">
        <ele>271.23</ele>
        <time>2020-07-15T13:39:59Z</time>
      </trkpt>
      <trkpt lat="39.9543430656" lon="-6.2882580701">
        <ele>271.23</ele>
        <time>2020-07-15T13:40:06Z</time>
      </trkpt>
      <trkpt lat="39.9543956202" lon="-6.2878665514">
        <ele>271.71</ele>
        <time>2020-07-15T13:40:16Z</time>
      </trkpt>
      <trkpt lat="39.9544832110" lon="-6.2873871904">
        <ele>272.67</ele>
        <time>2020-07-15T13:40:28Z</time>
      </trkpt>
      <trkpt lat="39.9546158127" lon="-6.2869836017">
        <ele>273.15</ele>
        <time>2020-07-15T13:40:39Z</time>
      </trkpt>
      <trkpt lat="39.9547938444" lon="-6.2867751438">
        <ele>273.63</ele>
        <time>2020-07-15T13:40:47Z</time>
      </trkpt>
      <trkpt lat="39.9550437089" lon="-6.2866483256">
        <ele>274.11</ele>
        <time>2020-07-15T13:40:55Z</time>
      </trkpt>
      <trkpt lat="39.9553934019" lon="-6.2865790911">
        <ele>273.63</ele>
        <time>2020-07-15T13:41:04Z</time>
      </trkpt>
      <trkpt lat="39.9557005987" lon="-6.2865458988">
        <ele>274.11</ele>
        <time>2020-07-15T13:41:13Z</time>
      </trkpt>
      <trkpt lat="39.9559394829" lon="-6.2865120359">
        <ele>274.11</ele>
        <time>2020-07-15T13:41:21Z</time>
      </trkpt>
      <trkpt lat="39.9561590888" lon="-6.2864824478">
        <ele>273.63</ele>
        <time>2020-07-15T13:41:27Z</time>
      </trkpt>
      <trkpt lat="39.9562070332" lon="-6.2864786759">
        <ele>273.63</ele>
        <time>2020-07-15T13:41:28Z</time>
      </trkpt>
      <trkpt lat="39.9565970432" lon="-6.2863692082">
        <ele>270.75</ele>
        <time>2020-07-15T13:41:35Z</time>
      </trkpt>
      <trkpt lat="39.9570345785" lon="-6.2861439865">
        <ele>267.38</ele>
        <time>2020-07-15T13:41:41Z</time>
      </trkpt>
      <trkpt lat="39.9576744530" lon="-6.2858201936">
        <ele>262.10</ele>
        <time>2020-07-15T13:41:48Z</time>
      </trkpt>
      <trkpt lat="39.9586436525" lon="-6.2853510585">
        <ele>253.44</ele>
        <time>2020-07-15T13:41:57Z</time>
      </trkpt>
      <trkpt lat="39.9595726188" lon="-6.2848913949">
        <ele>247.20</ele>
        <time>2020-07-15T13:42:05Z</time>
      </trkpt>
      <trkpt lat="39.9601135030" lon="-6.2846172228">
        <ele>246.72</ele>
        <time>2020-07-15T13:42:11Z</time>
      </trkpt>
      <trkpt lat="39.9606162496" lon="-6.2843604013">
        <ele>247.68</ele>
        <time>2020-07-15T13:42:18Z</time>
      </trkpt>
      <trkpt lat="39.9609723128" lon="-6.2841799390">
        <ele>249.12</ele>
        <time>2020-07-15T13:42:25Z</time>
      </trkpt>
      <trkpt lat="39.9611474108" lon="-6.2840901688">
        <ele>251.04</ele>
        <time>2020-07-15T13:42:31Z</time>
      </trkpt>
      <trkpt lat="39.9614149611" lon="-6.2839586567">
        <ele>253.93</ele>
        <time>2020-07-15T13:42:41Z</time>
      </trkpt>
      <trkpt lat="39.9615214951" lon="-6.2839022465">
        <ele>254.41</ele>
        <time>2020-07-15T13:42:47Z</time>
      </trkpt>
      <trkpt lat="39.9616588745" lon="-6.2838409748">
        <ele>255.85</ele>
        <time>2020-07-15T13:42:54Z</time>
      </trkpt>
      <trkpt lat="39.9618281052" lon="-6.2837642804">
        <ele>257.29</ele>
        <time>2020-07-15T13:43:02Z</time>
      </trkpt>
      <trkpt lat="39.9620509800" lon="-6.2836499512">
        <ele>259.69</ele>
        <time>2020-07-15T13:43:13Z</time>
      </trkpt>
      <trkpt lat="39.9622308556" lon="-6.2835612707">
        <ele>260.65</ele>
        <time>2020-07-15T13:43:22Z</time>
      </trkpt>
      <trkpt lat="39.9624254834" lon="-6.2834676448">
        <ele>263.06</ele>
        <time>2020-07-15T13:43:32Z</time>
      </trkpt>
      <trkpt lat="39.9626350310" lon="-6.2833509687">
        <ele>264.98</ele>
        <time>2020-07-15T13:43:43Z</time>
      </trkpt>
      <trkpt lat="39.9628489371" lon="-6.2832518946">
        <ele>266.42</ele>
        <time>2020-07-15T13:43:54Z</time>
      </trkpt>
      <trkpt lat="39.9630458280" lon="-6.2831520662">
        <ele>267.86</ele>
        <time>2020-07-15T13:44:04Z</time>
      </trkpt>
      <trkpt lat="39.9632482510" lon="-6.2830520701">
        <ele>268.83</ele>
        <time>2020-07-15T13:44:15Z</time>
      </trkpt>
      <trkpt lat="39.9634438008" lon="-6.2829610426">
        <ele>270.27</ele>
        <time>2020-07-15T13:44:26Z</time>
      </trkpt>
      <trkpt lat="39.9636098463" lon="-6.2828784809">
        <ele>272.19</ele>
        <time>2020-07-15T13:44:35Z</time>
      </trkpt>
      <trkpt lat="39.9637653306" lon="-6.2828067318">
        <ele>273.63</ele>
        <time>2020-07-15T13:44:44Z</time>
      </trkpt>
      <trkpt lat="39.9639771413" lon="-6.2827025447">
        <ele>275.56</ele>
        <time>2020-07-15T13:44:55Z</time>
      </trkpt>
      <trkpt lat="39.9641322903" lon="-6.2826312985">
        <ele>276.04</ele>
        <time>2020-07-15T13:45:03Z</time>
      </trkpt>
      <trkpt lat="39.9643296842" lon="-6.2825320568">
        <ele>277.00</ele>
        <time>2020-07-15T13:45:13Z</time>
      </trkpt>
      <trkpt lat="39.9645145051" lon="-6.2824391015">
        <ele>277.00</ele>
        <time>2020-07-15T13:45:22Z</time>
      </trkpt>
      <trkpt lat="39.9646585062" lon="-6.2823531870">
        <ele>277.00</ele>
        <time>2020-07-15T13:45:29Z</time>
      </trkpt>
      <trkpt lat="39.9649442453" lon="-6.2821808551">
        <ele>277.48</ele>
        <time>2020-07-15T13:45:39Z</time>
      </trkpt>
      <trkpt lat="39.9651987199" lon="-6.2818664499">
        <ele>277.96</ele>
        <time>2020-07-15T13:45:50Z</time>
      </trkpt>
      <trkpt lat="39.9653605744" lon="-6.2816320080">
        <ele>278.92</ele>
        <time>2020-07-15T13:45:58Z</time>
      </trkpt>
      <trkpt lat="39.9655404501" lon="-6.2813270744">
        <ele>279.40</ele>
        <time>2020-07-15T13:46:08Z</time>
      </trkpt>
      <trkpt lat="39.9656640831" lon="-6.2810047064">
        <ele>279.88</ele>
        <time>2020-07-15T13:46:17Z</time>
      </trkpt>
      <trkpt lat="39.9657400232" lon="-6.2806964200">
        <ele>278.92</ele>
        <time>2020-07-15T13:46:25Z</time>
      </trkpt>
      <trkpt lat="39.9658683501" lon="-6.2802125327">
        <ele>277.96</ele>
        <time>2020-07-15T13:46:35Z</time>
      </trkpt>
      <trkpt lat="39.9659986049" lon="-6.2796996441">
        <ele>276.52</ele>
        <time>2020-07-15T13:46:44Z</time>
      </trkpt>
      <trkpt lat="39.9661685061" lon="-6.2790437602">
        <ele>274.59</ele>
        <time>2020-07-15T13:46:54Z</time>
      </trkpt>
      <trkpt lat="39.9663500581" lon="-6.2783500738">
        <ele>272.67</ele>
        <time>2020-07-15T13:47:04Z</time>
      </trkpt>
      <trkpt lat="39.9663886148" lon="-6.2782162987">
        <ele>272.19</ele>
        <time>2020-07-15T13:47:06Z</time>
      </trkpt>
      <trkpt lat="39.9664299376" lon="-6.2780823559">
        <ele>271.71</ele>
        <time>2020-07-15T13:47:08Z</time>
      </trkpt>
      <trkpt lat="39.9666312709" lon="-6.2772855721">
        <ele>269.79</ele>
        <time>2020-07-15T13:47:19Z</time>
      </trkpt>
      <trkpt lat="39.9667885993" lon="-6.2766972464">
        <ele>269.31</ele>
        <time>2020-07-15T13:47:28Z</time>
      </trkpt>
      <trkpt lat="39.9668722507" lon="-6.2763631437">
        <ele>269.79</ele>
        <time>2020-07-15T13:47:35Z</time>
      </trkpt>
      <trkpt lat="39.9669179320" lon="-6.2762134429">
        <ele>270.27</ele>
        <time>2020-07-15T13:47:38Z</time>
      </trkpt>
      <trkpt lat="39.9669627752" lon="-6.2761138659">
        <ele>270.27</ele>
        <time>2020-07-15T13:47:40Z</time>
      </trkpt>
      <trkpt lat="39.9671065249" lon="-6.2758954335">
        <ele>270.75</ele>
        <time>2020-07-15T13:47:45Z</time>
      </trkpt>
      <trkpt lat="39.9671417288" lon="-6.2758586369">
        <ele>270.75</ele>
        <time>2020-07-15T13:47:46Z</time>
      </trkpt>
      <trkpt lat="39.9674769212" lon="-6.2756584771">
        <ele>269.79</ele>
        <time>2020-07-15T13:47:54Z</time>
      </trkpt>
      <trkpt lat="39.9679496605" lon="-6.2755816989">
        <ele>269.79</ele>
        <time>2020-07-15T13:48:04Z</time>
      </trkpt>
      <trkpt lat="39.9684129283" lon="-6.2755206786">
        <ele>269.31</ele>
        <time>2020-07-15T13:48:13Z</time>
      </trkpt>
      <trkpt lat="39.9689880107" lon="-6.2754331715">
        <ele>269.31</ele>
        <time>2020-07-15T13:48:24Z</time>
      </trkpt>
      <trkpt lat="39.9694527872" lon="-6.2753655296">
        <ele>269.31</ele>
        <time>2020-07-15T13:48:33Z</time>
      </trkpt>
      <trkpt lat="39.9699774105" lon="-6.2752868235">
        <ele>269.79</ele>
        <time>2020-07-15T13:48:43Z</time>
      </trkpt>
      <trkpt lat="39.9703556858" lon="-6.2752402201">
        <ele>270.27</ele>
        <time>2020-07-15T13:48:51Z</time>
      </trkpt>
      <trkpt lat="39.9707828276" lon="-6.2751976401">
        <ele>270.75</ele>
        <time>2020-07-15T13:49:01Z</time>
      </trkpt>
      <trkpt lat="39.9709970690" lon="-6.2751600891">
        <ele>271.23</ele>
        <time>2020-07-15T13:49:08Z</time>
      </trkpt>
      <trkpt lat="39.9712269846" lon="-6.2751278188">
        <ele>271.23</ele>
        <time>2020-07-15T13:49:17Z</time>
      </trkpt>
      <trkpt lat="39.9715257157" lon="-6.2750702351">
        <ele>271.23</ele>
        <time>2020-07-15T13:49:26Z</time>
      </trkpt>
      <trkpt lat="39.9717553798" lon="-6.2750418205">
        <ele>271.23</ele>
        <time>2020-07-15T13:49:33Z</time>
      </trkpt>
      <trkpt lat="39.9721567053" lon="-6.2749760225">
        <ele>270.75</ele>
        <time>2020-07-15T13:49:42Z</time>
      </trkpt>
      <trkpt lat="39.9726659060" lon="-6.2749030162">
        <ele>270.27</ele>
        <time>2020-07-15T13:49:52Z</time>
      </trkpt>
      <trkpt lat="39.9731305148" lon="-6.2748313509">
        <ele>270.27</ele>
        <time>2020-07-15T13:50:01Z</time>
      </trkpt>
      <trkpt lat="39.9734968040" lon="-6.2747839931">
        <ele>270.27</ele>
        <time>2020-07-15T13:50:10Z</time>
      </trkpt>
      <trkpt lat="39.9738783482" lon="-6.2747325283">
        <ele>270.75</ele>
        <time>2020-07-15T13:50:19Z</time>
      </trkpt>
      <trkpt lat="39.9741888139" lon="-6.2746780459">
        <ele>271.23</ele>
        <time>2020-07-15T13:50:27Z</time>
      </trkpt>
      <trkpt lat="39.9744565319" lon="-6.2745311111">
        <ele>270.27</ele>
        <time>2020-07-15T13:50:34Z</time>
      </trkpt>
      <trkpt lat="39.9744819291" lon="-6.2745054625">
        <ele>269.79</ele>
        <time>2020-07-15T13:50:35Z</time>
      </trkpt>
      <trkpt lat="39.9745152891" lon="-6.2744670734">
        <ele>269.79</ele>
        <time>2020-07-15T13:50:36Z</time>
      </trkpt>
      <trkpt lat="39.9748097453" lon="-6.2740505766">
        <ele>268.83</ele>
        <time>2020-07-15T13:50:45Z</time>
      </trkpt>
      <trkpt lat="39.9749840889" lon="-6.2736364268">
        <ele>266.90</ele>
        <time>2020-07-15T13:50:53Z</time>
      </trkpt>
      <trkpt lat="39.9752083048" lon="-6.2730358634">
        <ele>264.50</ele>
        <time>2020-07-15T13:51:02Z</time>
      </trkpt>
      <trkpt lat="39.9755262304" lon="-6.2722190470">
        <ele>263.54</ele>
        <time>2020-07-15T13:51:14Z</time>
      </trkpt>
      <trkpt lat="39.9756040983" lon="-6.2720365729">
        <ele>264.50</ele>
        <time>2020-07-15T13:51:19Z</time>
      </trkpt>
      <trkpt lat="39.9756154139" lon="-6.2717786618">
        <ele>266.42</ele>
        <time>2020-07-15T13:51:26Z</time>
      </trkpt>
      <trkpt lat="39.9755634461" lon="-6.2715189904">
        <ele>267.38</ele>
        <time>2020-07-15T13:51:33Z</time>
      </trkpt>
      <trkpt lat="39.9756356981" lon="-6.2713168189">
        <ele>267.38</ele>
        <time>2020-07-15T13:51:39Z</time>
      </trkpt>
      <trkpt lat="39.9757242110" lon="-6.2710996438">
        <ele>267.86</ele>
        <time>2020-07-15T13:51:47Z</time>
      </trkpt>
      <trkpt lat="39.9757113028" lon="-6.2710559741">
        <ele>268.35</ele>
        <time>2020-07-15T13:51:52Z</time>
      </trkpt>
      <trkpt lat="39.9757075310" lon="-6.2710503582">
        <ele>268.35</ele>
        <time>2020-07-15T13:52:05Z</time>
      </trkpt>
      <trkpt lat="39.9757112190" lon="-6.2710487656">
        <ele>269.31</ele>
        <time>2020-07-15T13:52:24Z</time>
      </trkpt>
      <trkpt lat="39.9757071957" lon="-6.2710547168">
        <ele>269.31</ele>
        <time>2020-07-15T13:52:41Z</time>
      </trkpt>
      <trkpt lat="39.9757075310" lon="-6.2710429821">
        <ele>269.31</ele>
        <time>2020-07-15T13:52:43Z</time>
      </trkpt>
      <trkpt lat="39.9757021666" lon="-6.2709237076">
        <ele>270.27</ele>
        <time>2020-07-15T13:52:49Z</time>
      </trkpt>
      <trkpt lat="39.9757372867" lon="-6.2707084604">
        <ele>271.23</ele>
        <time>2020-07-15T13:52:58Z</time>
      </trkpt>
      <trkpt lat="39.9758379534" lon="-6.2705481984">
        <ele>272.67</ele>
        <time>2020-07-15T13:53:06Z</time>
      </trkpt>
      <trkpt lat="39.9759709742" lon="-6.2703708373">
        <ele>274.59</ele>
        <time>2020-07-15T13:53:16Z</time>
      </trkpt>
      <trkpt lat="39.9760787655" lon="-6.2702436000">
        <ele>275.56</ele>
        <time>2020-07-15T13:53:24Z</time>
      </trkpt>
      <trkpt lat="39.9762172345" lon="-6.2700884510">
        <ele>277.96</ele>
        <time>2020-07-15T13:53:35Z</time>
      </trkpt>
      <trkpt lat="39.9763116147" lon="-6.2699786481">
        <ele>280.36</ele>
        <time>2020-07-15T13:53:43Z</time>
      </trkpt>
      <trkpt lat="39.9764308054" lon="-6.2698621396">
        <ele>283.25</ele>
        <time>2020-07-15T13:53:53Z</time>
      </trkpt>
      <trkpt lat="39.9765447155" lon="-6.2697846070">
        <ele>284.21</ele>
        <time>2020-07-15T13:54:01Z</time>
      </trkpt>
      <trkpt lat="39.9766012095" lon="-6.2697421946">
        <ele>284.69</ele>
        <time>2020-07-15T13:54:07Z</time>
      </trkpt>
      <trkpt lat="39.9767177179" lon="-6.2697148696">
        <ele>284.69</ele>
        <time>2020-07-15T13:54:16Z</time>
      </trkpt>
      <trkpt lat="39.9767446239" lon="-6.2696970161">
        <ele>284.21</ele>
        <time>2020-07-15T13:54:23Z</time>
      </trkpt>
      <trkpt lat="39.9767548498" lon="-6.2697152887">
        <ele>284.21</ele>
        <time>2020-07-15T13:54:28Z</time>
      </trkpt>
      <trkpt lat="39.9767648242" lon="-6.2697376683">
        <ele>283.73</ele>
        <time>2020-07-15T13:54:37Z</time>
      </trkpt>
      <trkpt lat="39.9767618068" lon="-6.2697520014">
        <ele>282.77</ele>
        <time>2020-07-15T13:54:54Z</time>
      </trkpt>
      <trkpt lat="39.9767496530" lon="-6.2697366625">
        <ele>284.69</ele>
        <time>2020-07-15T13:55:08Z</time>
      </trkpt>
      <trkpt lat="39.9767561909" lon="-6.2697375007">
        <ele>284.69</ele>
        <time>2020-07-15T13:55:23Z</time>
      </trkpt>
      <trkpt lat="39.9767595436" lon="-6.2697426975">
        <ele>285.17</ele>
        <time>2020-07-15T13:55:35Z</time>
      </trkpt>
      <trkpt lat="39.9767597113" lon="-6.2697412726">
        <ele>284.21</ele>
        <time>2020-07-15T13:55:49Z</time>
      </trkpt>
      <trkpt lat="39.9767594598" lon="-6.2697429489">
        <ele>283.73</ele>
        <time>2020-07-15T13:56:04Z</time>
      </trkpt>
      <trkpt lat="39.9767547660" lon="-6.2697449606">
        <ele>283.73</ele>
        <time>2020-07-15T13:56:20Z</time>
      </trkpt>
      <trkpt lat="39.9767537601" lon="-6.2697288673">
        <ele>286.13</ele>
        <time>2020-07-15T13:56:33Z</time>
      </trkpt>
      <trkpt lat="39.9767628964" lon="-6.2697296217">
        <ele>286.61</ele>
        <time>2020-07-15T13:56:44Z</time>
      </trkpt>
      <trkpt lat="39.9767584540" lon="-6.2697257660">
        <ele>287.57</ele>
        <time>2020-07-15T13:57:02Z</time>
      </trkpt>
      <trkpt lat="39.9767494854" lon="-6.2697408535">
        <ele>286.61</ele>
        <time>2020-07-15T13:57:13Z</time>
      </trkpt>
      <trkpt lat="39.9767436180" lon="-6.2697535101">
        <ele>286.13</ele>
        <time>2020-07-15T13:57:14Z</time>
      </trkpt>
      <trkpt lat="39.9767333921" lon="-6.2697566114">
        <ele>286.13</ele>
        <time>2020-07-15T13:57:15Z</time>
      </trkpt>
      <trkpt lat="39.9767312966" lon="-6.2697535101">
        <ele>285.65</ele>
        <time>2020-07-15T13:57:20Z</time>
      </trkpt>
      <trkpt lat="39.9767417740" lon="-6.2697267719">
        <ele>285.65</ele>
        <time>2020-07-15T13:57:39Z</time>
      </trkpt>
      <trkpt lat="39.9767555203" lon="-6.2697328068">
        <ele>287.09</ele>
        <time>2020-07-15T13:58:01Z</time>
      </trkpt>
      <trkpt lat="39.9766867887" lon="-6.2696214113">
        <ele>295.74</ele>
        <time>2020-07-16T04:57:33Z</time>
      </trkpt>
      <trkpt lat="39.9767247587" lon="-6.2696361635">
        <ele>300.55</ele>
        <time>2020-07-16T04:57:52Z</time>
      </trkpt>
      <trkpt lat="39.9768424407" lon="-6.2695816811">
        <ele>300.55</ele>
        <time>2020-07-16T04:58:27Z</time>
      </trkpt>
      <trkpt lat="39.9768189713" lon="-6.2696209922">
        <ele>299.59</ele>
        <time>2020-07-16T04:58:43Z</time>
      </trkpt>
      <trkpt lat="39.9768116791" lon="-6.2696529273">
        <ele>294.30</ele>
        <time>2020-07-16T04:58:56Z</time>
      </trkpt>
      <trkpt lat="39.9768072367" lon="-6.2696908973">
        <ele>291.42</ele>
        <time>2020-07-16T04:59:05Z</time>
      </trkpt>
      <trkpt lat="39.9768153671" lon="-6.2696643267">
        <ele>288.53</ele>
        <time>2020-07-16T04:59:15Z</time>
      </trkpt>
      <trkpt lat="39.9769058917" lon="-6.2696473952">
        <ele>286.61</ele>
        <time>2020-07-16T04:59:22Z</time>
      </trkpt>
      <trkpt lat="39.9769282714" lon="-6.2696447130">
        <ele>286.13</ele>
        <time>2020-07-16T04:59:23Z</time>
      </trkpt>
      <trkpt lat="39.9771407526" lon="-6.2696212437">
        <ele>284.69</ele>
        <time>2020-07-16T04:59:30Z</time>
      </trkpt>
      <trkpt lat="39.9773610290" lon="-6.2696263567">
        <ele>283.25</ele>
        <time>2020-07-16T04:59:37Z</time>
      </trkpt>
      <trkpt lat="39.9776603468" lon="-6.2696950044">
        <ele>280.36</ele>
        <time>2020-07-16T04:59:45Z</time>
      </trkpt>
      <trkpt lat="39.9780320842" lon="-6.2697247602">
        <ele>277.00</ele>
        <time>2020-07-16T04:59:52Z</time>
      </trkpt>
      <trkpt lat="39.9784071743" lon="-6.2697029673">
        <ele>273.15</ele>
        <time>2020-07-16T04:59:59Z</time>
      </trkpt>
      <trkpt lat="39.9787499942" lon="-6.2696965132">
        <ele>269.31</ele>
        <time>2020-07-16T05:00:07Z</time>
      </trkpt>
      <trkpt lat="39.9789363239" lon="-6.2697570305">
        <ele>265.94</ele>
        <time>2020-07-16T05:00:13Z</time>
      </trkpt>
      <trkpt lat="39.9792461190" lon="-6.2699711882">
        <ele>262.10</ele>
        <time>2020-07-16T05:00:20Z</time>
      </trkpt>
      <trkpt lat="39.9796321895" lon="-6.2703339569">
        <ele>258.73</ele>
        <time>2020-07-16T05:00:27Z</time>
      </trkpt>
      <trkpt lat="39.9799842294" lon="-6.2707362045">
        <ele>255.85</ele>
        <time>2020-07-16T05:00:35Z</time>
      </trkpt>
      <trkpt lat="39.9801621772" lon="-6.2709261384">
        <ele>254.89</ele>
        <time>2020-07-16T05:00:39Z</time>
      </trkpt>
      <trkpt lat="39.9803194217" lon="-6.2710450776">
        <ele>254.41</ele>
        <time>2020-07-16T05:00:42Z</time>
      </trkpt>
      <trkpt lat="39.9807028938" lon="-6.2712356821">
        <ele>253.93</ele>
        <time>2020-07-16T05:00:51Z</time>
      </trkpt>
      <trkpt lat="39.9809020478" lon="-6.2713299785">
        <ele>253.93</ele>
        <time>2020-07-16T05:00:58Z</time>
      </trkpt>
      <trkpt lat="39.9810939934" lon="-6.2713526934">
        <ele>255.37</ele>
        <time>2020-07-16T05:01:09Z</time>
      </trkpt>
      <trkpt lat="39.9812894594" lon="-6.2713848799">
        <ele>256.33</ele>
        <time>2020-07-16T05:01:19Z</time>
      </trkpt>
      <trkpt lat="39.9815211352" lon="-6.2714298069">
        <ele>257.77</ele>
        <time>2020-07-16T05:01:31Z</time>
      </trkpt>
      <trkpt lat="39.9816032778" lon="-6.2714393623">
        <ele>258.25</ele>
        <time>2020-07-16T05:01:36Z</time>
      </trkpt>
      <trkpt lat="39.9816155154" lon="-6.2714377698">
        <ele>257.77</ele>
        <time>2020-07-16T05:01:43Z</time>
      </trkpt>
      <trkpt lat="39.9816064630" lon="-6.2714320701">
        <ele>257.29</ele>
        <time>2020-07-16T05:01:57Z</time>
      </trkpt>
      <trkpt lat="39.9816092290" lon="-6.2713931780">
        <ele>256.33</ele>
        <time>2020-07-16T05:02:04Z</time>
      </trkpt>
      <trkpt lat="39.9816124979" lon="-6.2714023981">
        <ele>256.81</ele>
        <time>2020-07-16T05:02:17Z</time>
      </trkpt>
      <trkpt lat="39.9816076364" lon="-6.2714024819">
        <ele>257.29</ele>
        <time>2020-07-16T05:02:37Z</time>
      </trkpt>
      <trkpt lat="39.9816029426" lon="-6.2714045774">
        <ele>258.25</ele>
        <time>2020-07-16T05:02:49Z</time>
      </trkpt>
      <trkpt lat="39.9816074688" lon="-6.2714008894">
        <ele>257.77</ele>
        <time>2020-07-16T05:03:05Z</time>
      </trkpt>
      <trkpt lat="39.9816050380" lon="-6.2714056671">
        <ele>258.73</ele>
        <time>2020-07-16T05:03:25Z</time>
      </trkpt>
      <trkpt lat="39.9816160183" lon="-6.2714134622">
        <ele>259.21</ele>
        <time>2020-07-16T05:03:33Z</time>
      </trkpt>
      <trkpt lat="39.9816207960" lon="-6.2713948544">
        <ele>258.25</ele>
        <time>2020-07-16T05:03:45Z</time>
      </trkpt>
      <trkpt lat="39.9816320278" lon="-6.2713900767">
        <ele>258.73</ele>
        <time>2020-07-16T05:04:00Z</time>
      </trkpt>
      <trkpt lat="39.9816781282" lon="-6.2713906635">
        <ele>258.25</ele>
        <time>2020-07-16T05:04:06Z</time>
      </trkpt>
      <trkpt lat="39.9816790503" lon="-6.2714122888">
        <ele>259.21</ele>
        <time>2020-07-16T05:04:25Z</time>
      </trkpt>
      <trkpt lat="39.9816857558" lon="-6.2714051642">
        <ele>258.73</ele>
        <time>2020-07-16T05:04:38Z</time>
      </trkpt>
      <trkpt lat="39.9817806389" lon="-6.2714149710">
        <ele>257.77</ele>
        <time>2020-07-16T05:04:44Z</time>
      </trkpt>
      <trkpt lat="39.9817950558" lon="-6.2714171503">
        <ele>257.77</ele>
        <time>2020-07-16T05:04:45Z</time>
      </trkpt>
      <trkpt lat="39.9818085507" lon="-6.2714216765">
        <ele>257.77</ele>
        <time>2020-07-16T05:04:46Z</time>
      </trkpt>
      <trkpt lat="39.9819257297" lon="-6.2714261189">
        <ele>256.33</ele>
        <time>2020-07-16T05:04:55Z</time>
      </trkpt>
      <trkpt lat="39.9819270708" lon="-6.2714251131">
        <ele>255.85</ele>
        <time>2020-07-16T05:05:09Z</time>
      </trkpt>
      <trkpt lat="39.9819705728" lon="-6.2714469060">
        <ele>255.37</ele>
        <time>2020-07-16T05:05:12Z</time>
      </trkpt>
      <trkpt lat="39.9822125584" lon="-6.2714582216">
        <ele>253.93</ele>
        <time>2020-07-16T05:05:18Z</time>
      </trkpt>
      <trkpt lat="39.9823123869" lon="-6.2714759074">
        <ele>253.93</ele>
        <time>2020-07-16T05:05:20Z</time>
      </trkpt>
      <trkpt lat="39.9824711401" lon="-6.2715251092">
        <ele>255.37</ele>
        <time>2020-07-16T05:05:25Z</time>
      </trkpt>
      <trkpt lat="39.9826066755" lon="-6.2715781666">
        <ele>257.77</ele>
        <time>2020-07-16T05:05:33Z</time>
      </trkpt>
      <trkpt lat="39.9827811867" lon="-6.2716216687">
        <ele>260.65</ele>
        <time>2020-07-16T05:05:43Z</time>
      </trkpt>
      <trkpt lat="39.9829186499" lon="-6.2716011330">
        <ele>262.58</ele>
        <time>2020-07-16T05:05:51Z</time>
      </trkpt>
      <trkpt lat="39.9830609746" lon="-6.2715221755">
        <ele>263.54</ele>
        <time>2020-07-16T05:06:00Z</time>
      </trkpt>
      <trkpt lat="39.9831716157" lon="-6.2714168150">
        <ele>264.98</ele>
        <time>2020-07-16T05:06:09Z</time>
      </trkpt>
      <trkpt lat="39.9832100887" lon="-6.2713644281">
        <ele>265.46</ele>
        <time>2020-07-16T05:06:15Z</time>
      </trkpt>
      <trkpt lat="39.9832194764" lon="-6.2713538669">
        <ele>265.46</ele>
        <time>2020-07-16T05:06:16Z</time>
      </trkpt>
      <trkpt lat="39.9832301214" lon="-6.2713423837">
        <ele>265.46</ele>
        <time>2020-07-16T05:06:17Z</time>
      </trkpt>
      <trkpt lat="39.9833349790" lon="-6.2712251209">
        <ele>266.90</ele>
        <time>2020-07-16T05:06:26Z</time>
      </trkpt>
      <trkpt lat="39.9834690895" lon="-6.2710996438">
        <ele>267.38</ele>
        <time>2020-07-16T05:06:35Z</time>
      </trkpt>
      <trkpt lat="39.9835089035" lon="-6.2710145675">
        <ele>267.38</ele>
        <time>2020-07-16T05:06:42Z</time>
      </trkpt>
      <trkpt lat="39.9835263379" lon="-6.2709796987">
        <ele>269.31</ele>
        <time>2020-07-16T05:07:00Z</time>
      </trkpt>
      <trkpt lat="39.9835728575" lon="-6.2707947101">
        <ele>268.35</ele>
        <time>2020-07-16T05:07:07Z</time>
      </trkpt>
      <trkpt lat="39.9836067203" lon="-6.2704338692">
        <ele>266.90</ele>
        <time>2020-07-16T05:07:15Z</time>
      </trkpt>
      <trkpt lat="39.9836158566" lon="-6.2702509761">
        <ele>266.42</ele>
        <time>2020-07-16T05:07:18Z</time>
      </trkpt>
      <trkpt lat="39.9837271683" lon="-6.2699355651">
        <ele>265.46</ele>
        <time>2020-07-16T05:07:23Z</time>
      </trkpt>
      <trkpt lat="39.9838249851" lon="-6.2697660830">
        <ele>264.98</ele>
        <time>2020-07-16T05:07:26Z</time>
      </trkpt>
      <trkpt lat="39.9838744383" lon="-6.2696469761">
        <ele>264.98</ele>
        <time>2020-07-16T05:07:28Z</time>
      </trkpt>
      <trkpt lat="39.9840775318" lon="-6.2694500014">
        <ele>264.50</ele>
        <time>2020-07-16T05:07:33Z</time>
      </trkpt>
      <trkpt lat="39.9841382168" lon="-6.2694497500">
        <ele>264.50</ele>
        <time>2020-07-16T05:07:34Z</time>
      </trkpt>
      <trkpt lat="39.9841749296" lon="-6.2694605626">
        <ele>264.02</ele>
        <time>2020-07-16T05:07:35Z</time>
      </trkpt>
      <trkpt lat="39.9842266459" lon="-6.2694862951">
        <ele>263.54</ele>
        <time>2020-07-16T05:07:36Z</time>
      </trkpt>
      <trkpt lat="39.9842770211" lon="-6.2695172243">
        <ele>263.54</ele>
        <time>2020-07-16T05:07:37Z</time>
      </trkpt>
      <trkpt lat="39.9843829684" lon="-6.2695777416">
        <ele>263.06</ele>
        <time>2020-07-16T05:07:39Z</time>
      </trkpt>
      <trkpt lat="39.9844403844" lon="-6.2695949245">
        <ele>262.58</ele>
        <time>2020-07-16T05:07:40Z</time>
      </trkpt>
      <trkpt lat="39.9845048413" lon="-6.2696022168">
        <ele>262.10</ele>
        <time>2020-07-16T05:07:41Z</time>
      </trkpt>
      <trkpt lat="39.9845617544" lon="-6.2695981935">
        <ele>262.10</ele>
        <time>2020-07-16T05:07:42Z</time>
      </trkpt>
      <trkpt lat="39.9846213497" lon="-6.2695894763">
        <ele>262.10</ele>
        <time>2020-07-16T05:07:43Z</time>
      </trkpt>
      <trkpt lat="39.9850783311" lon="-6.2695036456">
        <ele>261.62</ele>
        <time>2020-07-16T05:07:51Z</time>
      </trkpt>
      <trkpt lat="39.9851824343" lon="-6.2694838643">
        <ele>261.62</ele>
        <time>2020-07-16T05:07:53Z</time>
      </trkpt>
      <trkpt lat="39.9854151998" lon="-6.2694403622">
        <ele>262.10</ele>
        <time>2020-07-16T05:07:59Z</time>
      </trkpt>
      <trkpt lat="39.9857177865" lon="-6.2693722174">
        <ele>263.06</ele>
        <time>2020-07-16T05:08:07Z</time>
      </trkpt>
      <trkpt lat="39.9859460257" lon="-6.2692190800">
        <ele>263.54</ele>
        <time>2020-07-16T05:08:14Z</time>
      </trkpt>
      <trkpt lat="39.9861500412" lon="-6.2689469196">
        <ele>264.02</ele>
        <time>2020-07-16T05:08:22Z</time>
      </trkpt>
      <trkpt lat="39.9862217903" lon="-6.2687574886">
        <ele>263.54</ele>
        <time>2020-07-16T05:08:26Z</time>
      </trkpt>
      <trkpt lat="39.9862655438" lon="-6.2682092283">
        <ele>263.54</ele>
        <time>2020-07-16T05:08:36Z</time>
      </trkpt>
      <trkpt lat="39.9862769432" lon="-6.2681042869">
        <ele>263.54</ele>
        <time>2020-07-16T05:08:38Z</time>
      </trkpt>
      <trkpt lat="39.9862970598" lon="-6.2678732816">
        <ele>263.54</ele>
        <time>2020-07-16T05:08:42Z</time>
      </trkpt>
      <trkpt lat="39.9863729998" lon="-6.2676001154">
        <ele>264.02</ele>
        <time>2020-07-16T05:08:47Z</time>
      </trkpt>
      <trkpt lat="39.9865138158" lon="-6.2673916575">
        <ele>263.54</ele>
        <time>2020-07-16T05:08:52Z</time>
      </trkpt>
      <trkpt lat="39.9865506124" lon="-6.2673560344">
        <ele>263.54</ele>
        <time>2020-07-16T05:08:53Z</time>
      </trkpt>
      <trkpt lat="39.9870214239" lon="-6.2669775076">
        <ele>262.58</ele>
        <time>2020-07-16T05:09:04Z</time>
      </trkpt>
      <trkpt lat="39.9876080733" lon="-6.2665271480">
        <ele>262.58</ele>
        <time>2020-07-16T05:09:17Z</time>
      </trkpt>
      <trkpt lat="39.9881596025" lon="-6.2660964020">
        <ele>261.62</ele>
        <time>2020-07-16T05:09:30Z</time>
      </trkpt>
      <trkpt lat="39.9886565655" lon="-6.2657068111">
        <ele>261.62</ele>
        <time>2020-07-16T05:09:42Z</time>
      </trkpt>
      <trkpt lat="39.9891008064" lon="-6.2653594650">
        <ele>261.62</ele>
        <time>2020-07-16T05:09:53Z</time>
      </trkpt>
      <trkpt lat="39.9895152077" lon="-6.2650268711">
        <ele>262.58</ele>
        <time>2020-07-16T05:10:04Z</time>
      </trkpt>
      <trkpt lat="39.9898583628" lon="-6.2647563871">
        <ele>263.06</ele>
        <time>2020-07-16T05:10:14Z</time>
      </trkpt>
      <trkpt lat="39.9900997616" lon="-6.2646341790">
        <ele>262.58</ele>
        <time>2020-07-16T05:10:20Z</time>
      </trkpt>
      <trkpt lat="39.9902392365" lon="-6.2646100391">
        <ele>261.62</ele>
        <time>2020-07-16T05:10:23Z</time>
      </trkpt>
      <trkpt lat="39.9902941380" lon="-6.2646098714">
        <ele>261.62</ele>
        <time>2020-07-16T05:10:24Z</time>
      </trkpt>
      <trkpt lat="39.9907152448" lon="-6.2647019047">
        <ele>257.77</ele>
        <time>2020-07-16T05:10:30Z</time>
      </trkpt>
      <trkpt lat="39.9914232641" lon="-6.2649514340">
        <ele>255.37</ele>
        <time>2020-07-16T05:10:39Z</time>
      </trkpt>
      <trkpt lat="39.9919516593" lon="-6.2651448045">
        <ele>255.37</ele>
        <time>2020-07-16T05:10:47Z</time>
      </trkpt>
      <trkpt lat="39.9923627917" lon="-6.2652906496">
        <ele>256.33</ele>
        <time>2020-07-16T05:10:55Z</time>
      </trkpt>
      <trkpt lat="39.9928004947" lon="-6.2654438708">
        <ele>256.33</ele>
        <time>2020-07-16T05:11:04Z</time>
      </trkpt>
      <trkpt lat="39.9932516925" lon="-6.2656001933">
        <ele>256.81</ele>
        <time>2020-07-16T05:11:14Z</time>
      </trkpt>
      <trkpt lat="39.9936650041" lon="-6.2656945735">
        <ele>256.81</ele>
        <time>2020-07-16T05:11:23Z</time>
      </trkpt>
      <trkpt lat="39.9940709397" lon="-6.2655619718">
        <ele>256.81</ele>
        <time>2020-07-16T05:11:32Z</time>
      </trkpt>
      <trkpt lat="39.9946264084" lon="-6.2653269432">
        <ele>256.33</ele>
        <time>2020-07-16T05:11:44Z</time>
      </trkpt>
      <trkpt lat="39.9950965494" lon="-6.2651355844">
        <ele>256.33</ele>
        <time>2020-07-16T05:11:54Z</time>
      </trkpt>
      <trkpt lat="39.9954991322" lon="-6.2649655156">
        <ele>255.85</ele>
        <time>2020-07-16T05:12:03Z</time>
      </trkpt>
      <trkpt lat="39.9960843567" lon="-6.2647127174">
        <ele>256.81</ele>
        <time>2020-07-16T05:12:17Z</time>
      </trkpt>
      <trkpt lat="39.9963835068" lon="-6.2644841429">
        <ele>256.81</ele>
        <time>2020-07-16T05:12:25Z</time>
      </trkpt>
      <trkpt lat="39.9968636222" lon="-6.2639156822">
        <ele>255.37</ele>
        <time>2020-07-16T05:12:39Z</time>
      </trkpt>
      <trkpt lat="39.9972537160" lon="-6.2634607963">
        <ele>255.37</ele>
        <time>2020-07-16T05:12:50Z</time>
      </trkpt>
      <trkpt lat="39.9976948556" lon="-6.2629269529">
        <ele>255.37</ele>
        <time>2020-07-16T05:13:03Z</time>
      </trkpt>
      <trkpt lat="39.9979994539" lon="-6.2625292316">
        <ele>255.37</ele>
        <time>2020-07-16T05:13:12Z</time>
      </trkpt>
      <trkpt lat="39.9982685968" lon="-6.2619414926">
        <ele>255.37</ele>
        <time>2020-07-16T05:13:23Z</time>
      </trkpt>
      <trkpt lat="39.9985237420" lon="-6.2613205612">
        <ele>255.37</ele>
        <time>2020-07-16T05:13:34Z</time>
      </trkpt>
      <trkpt lat="39.9987555016" lon="-6.2607572135">
        <ele>255.37</ele>
        <time>2020-07-16T05:13:44Z</time>
      </trkpt>
      <trkpt lat="39.9990575854" lon="-6.2600923609">
        <ele>254.89</ele>
        <time>2020-07-16T05:13:56Z</time>
      </trkpt>
      <trkpt lat="39.9993819650" lon="-6.2595767062">
        <ele>254.89</ele>
        <time>2020-07-16T05:14:07Z</time>
      </trkpt>
      <trkpt lat="39.9996759184" lon="-6.2591444515">
        <ele>254.41</ele>
        <time>2020-07-16T05:14:17Z</time>
      </trkpt>
      <trkpt lat="40.0000061654" lon="-6.2586258631">
        <ele>253.93</ele>
        <time>2020-07-16T05:14:28Z</time>
      </trkpt>
      <trkpt lat="40.0004341453" lon="-6.2579740863">
        <ele>254.41</ele>
        <time>2020-07-16T05:14:42Z</time>
      </trkpt>
      <trkpt lat="40.0007160287" lon="-6.2575331982">
        <ele>255.37</ele>
        <time>2020-07-16T05:14:52Z</time>
      </trkpt>
      <trkpt lat="40.0009743590" lon="-6.2570283562">
        <ele>255.85</ele>
        <time>2020-07-16T05:15:03Z</time>
      </trkpt>
      <trkpt lat="40.0011706632" lon="-6.2565976940">
        <ele>256.33</ele>
        <time>2020-07-16T05:15:12Z</time>
      </trkpt>
      <trkpt lat="40.0014320109" lon="-6.2560226955">
        <ele>256.81</ele>
        <time>2020-07-16T05:15:24Z</time>
      </trkpt>
      <trkpt lat="40.0017335918" lon="-6.2553870957">
        <ele>256.81</ele>
        <time>2020-07-16T05:15:37Z</time>
      </trkpt>
      <trkpt lat="40.0020268746" lon="-6.2547632307">
        <ele>255.85</ele>
        <time>2020-07-16T05:15:49Z</time>
      </trkpt>
      <trkpt lat="40.0023297966" lon="-6.2541189138">
        <ele>255.37</ele>
        <time>2020-07-16T05:16:01Z</time>
      </trkpt>
      <trkpt lat="40.0026354007" lon="-6.2534732558">
        <ele>255.37</ele>
        <time>2020-07-16T05:16:13Z</time>
      </trkpt>
      <trkpt lat="40.0027918909" lon="-6.2529655639">
        <ele>255.85</ele>
        <time>2020-07-16T05:16:22Z</time>
      </trkpt>
      <trkpt lat="40.0028549228" lon="-6.2523170561">
        <ele>256.81</ele>
        <time>2020-07-16T05:16:33Z</time>
      </trkpt>
      <trkpt lat="40.0029167812" lon="-6.2516423129">
        <ele>256.33</ele>
        <time>2020-07-16T05:16:44Z</time>
      </trkpt>
      <trkpt lat="40.0029814895" lon="-6.2509627920">
        <ele>256.33</ele>
        <time>2020-07-16T05:16:55Z</time>
      </trkpt>
      <trkpt lat="40.0030306913" lon="-6.2504045572">
        <ele>256.33</ele>
        <time>2020-07-16T05:17:05Z</time>
      </trkpt>
      <trkpt lat="40.0031053741" lon="-6.2498965301">
        <ele>257.29</ele>
        <time>2020-07-16T05:17:14Z</time>
      </trkpt>
      <trkpt lat="40.0031311065" lon="-6.2497839611">
        <ele>257.77</ele>
        <time>2020-07-16T05:17:16Z</time>
      </trkpt>
      <trkpt lat="40.0031484570" lon="-6.2497305684">
        <ele>257.77</ele>
        <time>2020-07-16T05:17:17Z</time>
      </trkpt>
      <trkpt lat="40.0032779574" lon="-6.2494341005">
        <ele>258.73</ele>
        <time>2020-07-16T05:17:23Z</time>
      </trkpt>
      <trkpt lat="40.0035661273" lon="-6.2489694916">
        <ele>259.21</ele>
        <time>2020-07-16T05:17:34Z</time>
      </trkpt>
      <trkpt lat="40.0038822927" lon="-6.2484611291">
        <ele>259.21</ele>
        <time>2020-07-16T05:17:47Z</time>
      </trkpt>
      <trkpt lat="40.0041770004" lon="-6.2480494939">
        <ele>260.65</ele>
        <time>2020-07-16T05:17:58Z</time>
      </trkpt>
      <trkpt lat="40.0044340733" lon="-6.2478217576">
        <ele>261.62</ele>
        <time>2020-07-16T05:18:06Z</time>
      </trkpt>
      <trkpt lat="40.0047297869" lon="-6.2476231065">
        <ele>263.06</ele>
        <time>2020-07-16T05:18:15Z</time>
      </trkpt>
      <trkpt lat="40.0050618779" lon="-6.2474034168">
        <ele>264.98</ele>
        <time>2020-07-16T05:18:25Z</time>
      </trkpt>
      <trkpt lat="40.0054217968" lon="-6.2471188512">
        <ele>265.46</ele>
        <time>2020-07-16T05:18:36Z</time>
      </trkpt>
      <trkpt lat="40.0056323502" lon="-6.2468076311">
        <ele>265.94</ele>
        <time>2020-07-16T05:18:44Z</time>
      </trkpt>
      <trkpt lat="40.0058465917" lon="-6.2464000192">
        <ele>265.46</ele>
        <time>2020-07-16T05:18:53Z</time>
      </trkpt>
      <trkpt lat="40.0061377790" lon="-6.2458506692">
        <ele>265.46</ele>
        <time>2020-07-16T05:19:05Z</time>
      </trkpt>
      <trkpt lat="40.0064039882" lon="-6.2453566398">
        <ele>266.90</ele>
        <time>2020-07-16T05:19:16Z</time>
      </trkpt>
      <trkpt lat="40.0066885538" lon="-6.2448394764">
        <ele>267.38</ele>
        <time>2020-07-16T05:19:27Z</time>
      </trkpt>
      <trkpt lat="40.0069556851" lon="-6.2443721015">
        <ele>267.38</ele>
        <time>2020-07-16T05:19:37Z</time>
      </trkpt>
      <trkpt lat="40.0073453598" lon="-6.2436737213">
        <ele>267.86</ele>
        <time>2020-07-16T05:19:52Z</time>
      </trkpt>
      <trkpt lat="40.0076552387" lon="-6.2431092001">
        <ele>267.86</ele>
        <time>2020-07-16T05:20:04Z</time>
      </trkpt>
      <trkpt lat="40.0079017505" lon="-6.2426543981">
        <ele>267.86</ele>
        <time>2020-07-16T05:20:14Z</time>
      </trkpt>
      <trkpt lat="40.0081975479" lon="-6.2421306130">
        <ele>269.31</ele>
        <time>2020-07-16T05:20:26Z</time>
      </trkpt>
      <trkpt lat="40.0083338376" lon="-6.2419472169">
        <ele>269.79</ele>
        <time>2020-07-16T05:20:31Z</time>
      </trkpt>
      <trkpt lat="40.0086699519" lon="-6.2416339852">
        <ele>270.75</ele>
        <time>2020-07-16T05:20:41Z</time>
      </trkpt>
      <trkpt lat="40.0090323016" lon="-6.2413266208">
        <ele>269.31</ele>
        <time>2020-07-16T05:20:51Z</time>
      </trkpt>
      <trkpt lat="40.0093781389" lon="-6.2410237826">
        <ele>266.90</ele>
        <time>2020-07-16T05:20:58Z</time>
      </trkpt>
      <trkpt lat="40.0097899418" lon="-6.2406528834">
        <ele>264.02</ele>
        <time>2020-07-16T05:21:05Z</time>
      </trkpt>
      <trkpt lat="40.0102434028" lon="-6.2402231432">
        <ele>263.54</ele>
        <time>2020-07-16T05:21:13Z</time>
      </trkpt>
      <trkpt lat="40.0102830492" lon="-6.2401661463">
        <ele>264.02</ele>
        <time>2020-07-16T05:21:14Z</time>
      </trkpt>
      <trkpt lat="40.0103174988" lon="-6.2401094846">
        <ele>264.02</ele>
        <time>2020-07-16T05:21:15Z</time>
      </trkpt>
      <trkpt lat="40.0104569737" lon="-6.2398610450">
        <ele>265.94</ele>
        <time>2020-07-16T05:21:21Z</time>
      </trkpt>
      <trkpt lat="40.0105424691" lon="-6.2396804150">
        <ele>267.38</ele>
        <time>2020-07-16T05:21:29Z</time>
      </trkpt>
      <trkpt lat="40.0105409604" lon="-6.2396566942">
        <ele>267.38</ele>
        <time>2020-07-16T05:21:30Z</time>
      </trkpt>
      <trkpt lat="40.0105372723" lon="-6.2396372482">
        <ele>267.38</ele>
        <time>2020-07-16T05:21:31Z</time>
      </trkpt>
      <trkpt lat="40.0105360150" lon="-6.2396192271">
        <ele>267.38</ele>
        <time>2020-07-16T05:21:32Z</time>
      </trkpt>
      <trkpt lat="40.0105411280" lon="-6.2396027148">
        <ele>267.86</ele>
        <time>2020-07-16T05:21:33Z</time>
      </trkpt>
      <trkpt lat="40.0105504319" lon="-6.2395898905">
        <ele>267.86</ele>
        <time>2020-07-16T05:21:34Z</time>
      </trkpt>
      <trkpt lat="40.0106188282" lon="-6.2394722085">
        <ele>268.83</ele>
        <time>2020-07-16T05:21:40Z</time>
      </trkpt>
      <trkpt lat="40.0107293855" lon="-6.2393417861">
        <ele>270.27</ele>
        <time>2020-07-16T05:21:47Z</time>
      </trkpt>
      <trkpt lat="40.0108826067" lon="-6.2391905766">
        <ele>271.23</ele>
        <time>2020-07-16T05:21:55Z</time>
      </trkpt>
      <trkpt lat="40.0110694394" lon="-6.2390695419">
        <ele>273.15</ele>
        <time>2020-07-16T05:22:04Z</time>
      </trkpt>
      <trkpt lat="40.0111891329" lon="-6.2390552927">
        <ele>273.15</ele>
        <time>2020-07-16T05:22:12Z</time>
      </trkpt>
      <trkpt lat="40.0112953316" lon="-6.2389816158">
        <ele>273.63</ele>
        <time>2020-07-16T05:22:18Z</time>
      </trkpt>
      <trkpt lat="40.0114277657" lon="-6.2388859782">
        <ele>272.19</ele>
        <time>2020-07-16T05:22:24Z</time>
      </trkpt>
      <trkpt lat="40.0115801487" lon="-6.2387920171">
        <ele>271.71</ele>
        <time>2020-07-16T05:22:30Z</time>
      </trkpt>
      <trkpt lat="40.0117316935" lon="-6.2386843935">
        <ele>272.19</ele>
        <time>2020-07-16T05:22:35Z</time>
      </trkpt>
      <trkpt lat="40.0118699949" lon="-6.2385399733">
        <ele>270.27</ele>
        <time>2020-07-16T05:22:42Z</time>
      </trkpt>
      <trkpt lat="40.0119873416" lon="-6.2384165917">
        <ele>270.27</ele>
        <time>2020-07-16T05:22:48Z</time>
      </trkpt>
      <trkpt lat="40.0122015830" lon="-6.2382088043">
        <ele>269.79</ele>
        <time>2020-07-16T05:22:57Z</time>
      </trkpt>
      <trkpt lat="40.0123603363" lon="-6.2379240710">
        <ele>268.35</ele>
        <time>2020-07-16T05:23:04Z</time>
      </trkpt>
      <trkpt lat="40.0125212688" lon="-6.2375494838">
        <ele>267.38</ele>
        <time>2020-07-16T05:23:12Z</time>
      </trkpt>
      <trkpt lat="40.0125413854" lon="-6.2375035509">
        <ele>267.38</ele>
        <time>2020-07-16T05:23:13Z</time>
      </trkpt>
      <trkpt lat="40.0126384478" lon="-6.2372691929">
        <ele>267.38</ele>
        <time>2020-07-16T05:23:19Z</time>
      </trkpt>
      <trkpt lat="40.0127864722" lon="-6.2369184103">
        <ele>265.94</ele>
        <time>2020-07-16T05:23:28Z</time>
      </trkpt>
      <trkpt lat="40.0128583051" lon="-6.2367266323">
        <ele>265.46</ele>
        <time>2020-07-16T05:23:35Z</time>
      </trkpt>
      <trkpt lat="40.0128757395" lon="-6.2366906740">
        <ele>266.42</ele>
        <time>2020-07-16T05:23:42Z</time>
      </trkpt>
      <trkpt lat="40.0128836185" lon="-6.2366874889">
        <ele>267.86</ele>
        <time>2020-07-16T05:24:03Z</time>
      </trkpt>
      <trkpt lat="40.0128830317" lon="-6.2366761733">
        <ele>267.86</ele>
        <time>2020-07-16T05:24:16Z</time>
      </trkpt>
      <trkpt lat="40.0128904078" lon="-6.2366918474">
        <ele>267.86</ele>
        <time>2020-07-16T05:24:35Z</time>
      </trkpt>
      <trkpt lat="40.0128856301" lon="-6.2366895843">
        <ele>266.90</ele>
        <time>2020-07-16T05:24:48Z</time>
      </trkpt>
      <trkpt lat="40.0128818583" lon="-6.2366932724">
        <ele>266.42</ele>
        <time>2020-07-16T05:25:04Z</time>
      </trkpt>
      <trkpt lat="40.0128851272" lon="-6.2366887461">
        <ele>266.42</ele>
        <time>2020-07-16T05:25:07Z</time>
      </trkpt>
      <trkpt lat="40.0128940120" lon="-6.2366794422">
        <ele>266.42</ele>
        <time>2020-07-16T05:25:08Z</time>
      </trkpt>
      <trkpt lat="40.0129054952" lon="-6.2366765924">
        <ele>266.42</ele>
        <time>2020-07-16T05:25:09Z</time>
      </trkpt>
      <trkpt lat="40.0129146315" lon="-6.2366888300">
        <ele>266.42</ele>
        <time>2020-07-16T05:25:10Z</time>
      </trkpt>
      <trkpt lat="40.0129116140" lon="-6.2367112096">
        <ele>266.42</ele>
        <time>2020-07-16T05:25:11Z</time>
      </trkpt>
      <trkpt lat="40.0129063334" lon="-6.2367262971">
        <ele>266.42</ele>
        <time>2020-07-16T05:25:12Z</time>
      </trkpt>
      <trkpt lat="40.0128188264" lon="-6.2369224336">
        <ele>266.42</ele>
        <time>2020-07-16T05:25:19Z</time>
      </trkpt>
      <trkpt lat="40.0127159804" lon="-6.2371718790">
        <ele>266.42</ele>
        <time>2020-07-16T05:25:27Z</time>
      </trkpt>
      <trkpt lat="40.0126147270" lon="-6.2374047283">
        <ele>266.90</ele>
        <time>2020-07-16T05:25:36Z</time>
      </trkpt>
      <trkpt lat="40.0125801098" lon="-6.2374645751">
        <ele>266.42</ele>
        <time>2020-07-16T05:25:39Z</time>
      </trkpt>
      <trkpt lat="40.0125639327" lon="-6.2374670897">
        <ele>266.42</ele>
        <time>2020-07-16T05:25:40Z</time>
      </trkpt>
      <trkpt lat="40.0125538744" lon="-6.2374505773">
        <ele>266.42</ele>
        <time>2020-07-16T05:25:41Z</time>
      </trkpt>
      <trkpt lat="40.0125590712" lon="-6.2374212407">
        <ele>266.42</ele>
        <time>2020-07-16T05:25:42Z</time>
      </trkpt>
      <trkpt lat="40.0125684589" lon="-6.2373937480">
        <ele>266.42</ele>
        <time>2020-07-16T05:25:43Z</time>
      </trkpt>
      <trkpt lat="40.0126836263" lon="-6.2371520977">
        <ele>266.90</ele>
        <time>2020-07-16T05:25:50Z</time>
      </trkpt>
      <trkpt lat="40.0128048286" lon="-6.2368437275">
        <ele>266.42</ele>
        <time>2020-07-16T05:25:58Z</time>
      </trkpt>
      <trkpt lat="40.0127784256" lon="-6.2367299013">
        <ele>266.90</ele>
        <time>2020-07-16T05:26:02Z</time>
      </trkpt>
      <trkpt lat="40.0127894897" lon="-6.2366995588">
        <ele>267.38</ele>
        <time>2020-07-16T05:26:08Z</time>
      </trkpt>
      <trkpt lat="40.0127788447" lon="-6.2367108744">
        <ele>267.86</ele>
        <time>2020-07-16T05:26:22Z</time>
      </trkpt>
      <trkpt lat="40.0128060859" lon="-6.2366730720">
        <ele>267.38</ele>
        <time>2020-07-16T05:26:31Z</time>
      </trkpt>
      <trkpt lat="40.0128165632" lon="-6.2366511952">
        <ele>267.38</ele>
        <time>2020-07-16T05:26:36Z</time>
      </trkpt>
      <trkpt lat="40.0128417090" lon="-6.2366449926">
        <ele>267.86</ele>
        <time>2020-07-16T05:26:43Z</time>
      </trkpt>
      <trkpt lat="40.0128703751" lon="-6.2366543803">
        <ele>268.35</ele>
        <time>2020-07-16T05:26:48Z</time>
      </trkpt>
      <trkpt lat="40.0128708780" lon="-6.2366469204">
        <ele>268.35</ele>
        <time>2020-07-16T05:27:04Z</time>
      </trkpt>
      <trkpt lat="40.0128655136" lon="-6.2366472557">
        <ele>270.27</ele>
        <time>2020-07-16T05:27:19Z</time>
      </trkpt>
      <trkpt lat="40.0128609035" lon="-6.2366540451">
        <ele>269.31</ele>
        <time>2020-07-16T05:27:43Z</time>
      </trkpt>
      <trkpt lat="40.0128680281" lon="-6.2366479263">
        <ele>269.79</ele>
        <time>2020-07-16T05:28:00Z</time>
      </trkpt>
      <trkpt lat="40.0128679443" lon="-6.2366449088">
        <ele>269.31</ele>
        <time>2020-07-16T05:28:15Z</time>
      </trkpt>
      <trkpt lat="40.0128672738" lon="-6.2366490159">
        <ele>268.83</ele>
        <time>2020-07-16T05:28:19Z</time>
      </trkpt>
      <trkpt lat="40.0129197445" lon="-6.2366071064">
        <ele>268.35</ele>
        <time>2020-07-16T05:28:23Z</time>
      </trkpt>
      <trkpt lat="40.0129328202" lon="-6.2365802005">
        <ele>268.35</ele>
        <time>2020-07-16T05:28:24Z</time>
      </trkpt>
      <trkpt lat="40.0129420403" lon="-6.2365517858">
        <ele>268.35</ele>
        <time>2020-07-16T05:28:25Z</time>
      </trkpt>
      <trkpt lat="40.0130966026" lon="-6.2361847423">
        <ele>268.83</ele>
        <time>2020-07-16T05:28:35Z</time>
      </trkpt>
      <trkpt lat="40.0132561941" lon="-6.2358530704">
        <ele>268.35</ele>
        <time>2020-07-16T05:28:44Z</time>
      </trkpt>
      <trkpt lat="40.0134391710" lon="-6.2355281040">
        <ele>268.35</ele>
        <time>2020-07-16T05:28:53Z</time>
      </trkpt>
      <trkpt lat="40.0136735290" lon="-6.2351707835">
        <ele>268.35</ele>
        <time>2020-07-16T05:29:03Z</time>
      </trkpt>
      <trkpt lat="40.0138939731" lon="-6.2348521873">
        <ele>267.86</ele>
        <time>2020-07-16T05:29:12Z</time>
      </trkpt>
      <trkpt lat="40.0141814724" lon="-6.2344056834">
        <ele>268.35</ele>
        <time>2020-07-16T05:29:23Z</time>
      </trkpt>
      <trkpt lat="40.0144495256" lon="-6.2340052798">
        <ele>269.31</ele>
        <time>2020-07-16T05:29:34Z</time>
      </trkpt>
      <trkpt lat="40.0147100352" lon="-6.2336575985">
        <ele>268.83</ele>
        <time>2020-07-16T05:29:43Z</time>
      </trkpt>
      <trkpt lat="40.0150935072" lon="-6.2332240865">
        <ele>268.35</ele>
        <time>2020-07-16T05:29:53Z</time>
      </trkpt>
      <trkpt lat="40.0153929926" lon="-6.2328996230">
        <ele>268.35</ele>
        <time>2020-07-16T05:30:02Z</time>
      </trkpt>
      <trkpt lat="40.0157437753" lon="-6.2325323280">
        <ele>267.86</ele>
        <time>2020-07-16T05:30:13Z</time>
      </trkpt>
      <trkpt lat="40.0160067994" lon="-6.2322476786">
        <ele>266.90</ele>
        <time>2020-07-16T05:30:20Z</time>
      </trkpt>
      <trkpt lat="40.0164202787" lon="-6.2318027671">
        <ele>264.50</ele>
        <time>2020-07-16T05:30:28Z</time>
      </trkpt>
      <trkpt lat="40.0168838818" lon="-6.2313165329">
        <ele>264.02</ele>
        <time>2020-07-16T05:30:36Z</time>
      </trkpt>
      <trkpt lat="40.0171880610" lon="-6.2309948355">
        <ele>264.98</ele>
        <time>2020-07-16T05:30:43Z</time>
      </trkpt>
      <trkpt lat="40.0172884762" lon="-6.2308942527">
        <ele>264.98</ele>
        <time>2020-07-16T05:30:46Z</time>
      </trkpt>
      <trkpt lat="40.0173249375" lon="-6.2308582105">
        <ele>264.98</ele>
        <time>2020-07-16T05:30:47Z</time>
      </trkpt>
      <trkpt lat="40.0176597945" lon="-6.2305632513">
        <ele>264.50</ele>
        <time>2020-07-16T05:30:57Z</time>
      </trkpt>
      <trkpt lat="40.0179653149" lon="-6.2303138897">
        <ele>263.54</ele>
        <time>2020-07-16T05:31:05Z</time>
      </trkpt>
      <trkpt lat="40.0184740964" lon="-6.2298663799">
        <ele>261.62</ele>
        <time>2020-07-16T05:31:16Z</time>
      </trkpt>
      <trkpt lat="40.0189565588" lon="-6.2294634618">
        <ele>261.62</ele>
        <time>2020-07-16T05:31:26Z</time>
      </trkpt>
      <trkpt lat="40.0195308030" lon="-6.2289680075">
        <ele>261.14</ele>
        <time>2020-07-16T05:31:38Z</time>
      </trkpt>
      <trkpt lat="40.0200368185" lon="-6.2285295501">
        <ele>261.14</ele>
        <time>2020-07-16T05:31:49Z</time>
      </trkpt>
      <trkpt lat="40.0205380563" lon="-6.2281045876">
        <ele>261.62</ele>
        <time>2020-07-16T05:32:01Z</time>
      </trkpt>
      <trkpt lat="40.0209842250" lon="-6.2277223729">
        <ele>261.62</ele>
        <time>2020-07-16T05:32:12Z</time>
      </trkpt>
      <trkpt lat="40.0214220956" lon="-6.2273560837">
        <ele>261.62</ele>
        <time>2020-07-16T05:32:23Z</time>
      </trkpt>
      <trkpt lat="40.0218815915" lon="-6.2269625533">
        <ele>261.62</ele>
        <time>2020-07-16T05:32:35Z</time>
      </trkpt>
      <trkpt lat="40.0223001000" lon="-6.2265962642">
        <ele>261.62</ele>
        <time>2020-07-16T05:32:46Z</time>
      </trkpt>
      <trkpt lat="40.0226642936" lon="-6.2262842897">
        <ele>261.14</ele>
        <time>2020-07-16T05:32:56Z</time>
      </trkpt>
      <trkpt lat="40.0230640266" lon="-6.2259332556">
        <ele>261.62</ele>
        <time>2020-07-16T05:33:07Z</time>
      </trkpt>
      <trkpt lat="40.0234388653" lon="-6.2256164197">
        <ele>262.10</ele>
        <time>2020-07-16T05:33:17Z</time>
      </trkpt>
      <trkpt lat="40.0237821881" lon="-6.2253187783">
        <ele>262.58</ele>
        <time>2020-07-16T05:33:27Z</time>
      </trkpt>
      <trkpt lat="40.0242478028" lon="-6.2249130104">
        <ele>263.06</ele>
        <time>2020-07-16T05:33:40Z</time>
      </trkpt>
      <trkpt lat="40.0244680792" lon="-6.2247170415">
        <ele>264.02</ele>
        <time>2020-07-16T05:33:48Z</time>
      </trkpt>
      <trkpt lat="40.0247238111" lon="-6.2245043088">
        <ele>266.42</ele>
        <time>2020-07-16T05:33:58Z</time>
      </trkpt>
      <trkpt lat="40.0250233803" lon="-6.2242416199">
        <ele>268.83</ele>
        <time>2020-07-16T05:34:10Z</time>
      </trkpt>
      <trkpt lat="40.0252947025" lon="-6.2240168173">
        <ele>271.23</ele>
        <time>2020-07-16T05:34:21Z</time>
      </trkpt>
      <trkpt lat="40.0255346764" lon="-6.2238022406">
        <ele>270.75</ele>
        <time>2020-07-16T05:34:31Z</time>
      </trkpt>
      <trkpt lat="40.0257043261" lon="-6.2236557249">
        <ele>271.23</ele>
        <time>2020-07-16T05:34:38Z</time>
      </trkpt>
      <trkpt lat="40.0260195695" lon="-6.2233812176">
        <ele>271.23</ele>
        <time>2020-07-16T05:34:48Z</time>
      </trkpt>
      <trkpt lat="40.0264166202" lon="-6.2230459414">
        <ele>272.19</ele>
        <time>2020-07-16T05:35:00Z</time>
      </trkpt>
      <trkpt lat="40.0267754495" lon="-6.2227351405">
        <ele>272.67</ele>
        <time>2020-07-16T05:35:10Z</time>
      </trkpt>
      <trkpt lat="40.0271833129" lon="-6.2223822623">
        <ele>273.15</ele>
        <time>2020-07-16T05:35:21Z</time>
      </trkpt>
      <trkpt lat="40.0275270548" lon="-6.2220902368">
        <ele>273.15</ele>
        <time>2020-07-16T05:35:31Z</time>
      </trkpt>
      <trkpt lat="40.0280413684" lon="-6.2216490135">
        <ele>272.19</ele>
        <time>2020-07-16T05:35:46Z</time>
      </trkpt>
      <trkpt lat="40.0283799134" lon="-6.2213684712">
        <ele>272.19</ele>
        <time>2020-07-16T05:35:56Z</time>
      </trkpt>
      <trkpt lat="40.0286423508" lon="-6.2211364601">
        <ele>272.19</ele>
        <time>2020-07-16T05:36:04Z</time>
      </trkpt>
      <trkpt lat="40.0286769681" lon="-6.2211043574">
        <ele>272.19</ele>
        <time>2020-07-16T05:36:05Z</time>
      </trkpt>
      <trkpt lat="40.0287099089" lon="-6.2210750207">
        <ele>272.19</ele>
        <time>2020-07-16T05:36:06Z</time>
      </trkpt>
      <trkpt lat="40.0287426822" lon="-6.2210472766">
        <ele>272.19</ele>
        <time>2020-07-16T05:36:07Z</time>
      </trkpt>
      <trkpt lat="40.0287804008" lon="-6.2210135814">
        <ele>272.19</ele>
        <time>2020-07-16T05:36:08Z</time>
      </trkpt>
      <trkpt lat="40.0288141798" lon="-6.2209803052">
        <ele>272.19</ele>
        <time>2020-07-16T05:36:09Z</time>
      </trkpt>
      <trkpt lat="40.0291490369" lon="-6.2207031157">
        <ele>271.71</ele>
        <time>2020-07-16T05:36:18Z</time>
      </trkpt>
      <trkpt lat="40.0295255519" lon="-6.2203739583">
        <ele>271.23</ele>
        <time>2020-07-16T05:36:28Z</time>
      </trkpt>
      <trkpt lat="40.0298740715" lon="-6.2200738024">
        <ele>271.23</ele>
        <time>2020-07-16T05:36:38Z</time>
      </trkpt>
      <trkpt lat="40.0301259477" lon="-6.2198628299">
        <ele>271.23</ele>
        <time>2020-07-16T05:36:45Z</time>
      </trkpt>
      <trkpt lat="40.0305124372" lon="-6.2195288111">
        <ele>271.71</ele>
        <time>2020-07-16T05:36:56Z</time>
      </trkpt>
      <trkpt lat="40.0308731105" lon="-6.2192203570">
        <ele>272.19</ele>
        <time>2020-07-16T05:37:06Z</time>
      </trkpt>
      <trkpt lat="40.0310126692" lon="-6.2191007473">
        <ele>271.71</ele>
        <time>2020-07-16T05:37:10Z</time>
      </trkpt>
      <trkpt lat="40.0313766114" lon="-6.2187867612">
        <ele>271.71</ele>
        <time>2020-07-16T05:37:20Z</time>
      </trkpt>
      <trkpt lat="40.0317828823" lon="-6.2184346374">
        <ele>271.23</ele>
        <time>2020-07-16T05:37:31Z</time>
      </trkpt>
      <trkpt lat="40.0322479103" lon="-6.2180400174">
        <ele>269.79</ele>
        <time>2020-07-16T05:37:43Z</time>
      </trkpt>
      <trkpt lat="40.0326737110" lon="-6.2177293841">
        <ele>268.83</ele>
        <time>2020-07-16T05:37:53Z</time>
      </trkpt>
      <trkpt lat="40.0332048722" lon="-6.2174710538">
        <ele>267.38</ele>
        <time>2020-07-16T05:38:03Z</time>
      </trkpt>
      <trkpt lat="40.0339599978" lon="-6.2171407230">
        <ele>264.98</ele>
        <time>2020-07-16T05:38:15Z</time>
      </trkpt>
      <trkpt lat="40.0344829448" lon="-6.2169096339">
        <ele>263.54</ele>
        <time>2020-07-16T05:38:23Z</time>
      </trkpt>
      <trkpt lat="40.0348388404" lon="-6.2167538144">
        <ele>264.02</ele>
        <time>2020-07-16T05:38:30Z</time>
      </trkpt>
      <trkpt lat="40.0350466277" lon="-6.2166612782">
        <ele>264.98</ele>
        <time>2020-07-16T05:38:35Z</time>
      </trkpt>
      <trkpt lat="40.0350882020" lon="-6.2166427542">
        <ele>265.46</ele>
        <time>2020-07-16T05:38:36Z</time>
      </trkpt>
      <trkpt lat="40.0353080593" lon="-6.2165440992">
        <ele>267.38</ele>
        <time>2020-07-16T05:38:41Z</time>
      </trkpt>
      <trkpt lat="40.0356522202" lon="-6.2163980864">
        <ele>269.31</ele>
        <time>2020-07-16T05:38:50Z</time>
      </trkpt>
      <trkpt lat="40.0359180942" lon="-6.2162755430">
        <ele>270.27</ele>
        <time>2020-07-16T05:38:59Z</time>
      </trkpt>
      <trkpt lat="40.0362516940" lon="-6.2161352299">
        <ele>272.19</ele>
        <time>2020-07-16T05:39:11Z</time>
      </trkpt>
      <trkpt lat="40.0365214236" lon="-6.2160143629">
        <ele>273.15</ele>
        <time>2020-07-16T05:39:21Z</time>
      </trkpt>
      <trkpt lat="40.0367251877" lon="-6.2159152050">
        <ele>273.63</ele>
        <time>2020-07-16T05:39:29Z</time>
      </trkpt>
      <trkpt lat="40.0370277744" lon="-6.2157869618">
        <ele>272.67</ele>
        <time>2020-07-16T05:39:37Z</time>
      </trkpt>
      <trkpt lat="40.0374409184" lon="-6.2155835330">
        <ele>270.27</ele>
        <time>2020-07-16T05:39:44Z</time>
      </trkpt>
      <trkpt lat="40.0379528012" lon="-6.2153481692">
        <ele>267.86</ele>
        <time>2020-07-16T05:39:51Z</time>
      </trkpt>
      <trkpt lat="40.0383794401" lon="-6.2151549663">
        <ele>266.90</ele>
        <time>2020-07-16T05:39:58Z</time>
      </trkpt>
      <trkpt lat="40.0389818475" lon="-6.2148815487">
        <ele>266.42</ele>
        <time>2020-07-16T05:40:09Z</time>
      </trkpt>
      <trkpt lat="40.0394770503" lon="-6.2146648765">
        <ele>266.42</ele>
        <time>2020-07-16T05:40:19Z</time>
      </trkpt>
      <trkpt lat="40.0399312656" lon="-6.2144660577">
        <ele>265.94</ele>
        <time>2020-07-16T05:40:28Z</time>
      </trkpt>
      <trkpt lat="40.0403494388" lon="-6.2142747827">
        <ele>264.50</ele>
        <time>2020-07-16T05:40:36Z</time>
      </trkpt>
      <trkpt lat="40.0408344157" lon="-6.2140498124">
        <ele>264.98</ele>
        <time>2020-07-16T05:40:46Z</time>
      </trkpt>
      <trkpt lat="40.0412628986" lon="-6.2138603814">
        <ele>263.54</ele>
        <time>2020-07-16T05:40:55Z</time>
      </trkpt>
      <trkpt lat="40.0416638050" lon="-6.2136795837">
        <ele>263.06</ele>
        <time>2020-07-16T05:41:04Z</time>
      </trkpt>
      <trkpt lat="40.0421933737" lon="-6.2134364247">
        <ele>264.50</ele>
        <time>2020-07-16T05:41:16Z</time>
      </trkpt>
      <trkpt lat="40.0426674541" lon="-6.2132289726">
        <ele>264.98</ele>
        <time>2020-07-16T05:41:27Z</time>
      </trkpt>
      <trkpt lat="40.0431435462" lon="-6.2130173296">
        <ele>264.98</ele>
        <time>2020-07-16T05:41:39Z</time>
      </trkpt>
      <trkpt lat="40.0435403455" lon="-6.2128672097">
        <ele>265.46</ele>
        <time>2020-07-16T05:41:49Z</time>
      </trkpt>
      <trkpt lat="40.0440627057" lon="-6.2127964664">
        <ele>264.98</ele>
        <time>2020-07-16T05:42:00Z</time>
      </trkpt>
      <trkpt lat="40.0444541406" lon="-6.2127784453">
        <ele>264.02</ele>
        <time>2020-07-16T05:42:08Z</time>
      </trkpt>
      <trkpt lat="40.0449326634" lon="-6.2127398886">
        <ele>264.50</ele>
        <time>2020-07-16T05:42:18Z</time>
      </trkpt>
      <trkpt lat="40.0453989487" lon="-6.2126903515">
        <ele>264.98</ele>
        <time>2020-07-16T05:42:28Z</time>
      </trkpt>
      <trkpt lat="40.0455776509" lon="-6.2126500346">
        <ele>265.46</ele>
        <time>2020-07-16T05:42:32Z</time>
      </trkpt>
      <trkpt lat="40.0456206501" lon="-6.2126288284">
        <ele>265.46</ele>
        <time>2020-07-16T05:42:33Z</time>
      </trkpt>
      <trkpt lat="40.0459510647" lon="-6.2123649660">
        <ele>266.90</ele>
        <time>2020-07-16T05:42:42Z</time>
      </trkpt>
      <trkpt lat="40.0463864207" lon="-6.2119765487">
        <ele>266.42</ele>
        <time>2020-07-16T05:42:53Z</time>
      </trkpt>
      <trkpt lat="40.0468441565" lon="-6.2117007002">
        <ele>265.46</ele>
        <time>2020-07-16T05:43:03Z</time>
      </trkpt>
      <trkpt lat="40.0472988747" lon="-6.2114634085">
        <ele>264.98</ele>
        <time>2020-07-16T05:43:13Z</time>
      </trkpt>
      <trkpt lat="40.0474317279" lon="-6.2113697827">
        <ele>264.50</ele>
        <time>2020-07-16T05:43:19Z</time>
      </trkpt>
      <trkpt lat="40.0474661775" lon="-6.2113421224">
        <ele>264.98</ele>
        <time>2020-07-16T05:43:25Z</time>
      </trkpt>
      <trkpt lat="40.0475200731" lon="-6.2113141268">
        <ele>264.98</ele>
        <time>2020-07-16T05:43:34Z</time>
      </trkpt>
      <trkpt lat="40.0475433748" lon="-6.2113156356">
        <ele>264.98</ele>
        <time>2020-07-16T05:43:35Z</time>
      </trkpt>
      <trkpt lat="40.0475660060" lon="-6.2113284599">
        <ele>264.98</ele>
        <time>2020-07-16T05:43:36Z</time>
      </trkpt>
      <trkpt lat="40.0475810934" lon="-6.2113429606">
        <ele>264.98</ele>
        <time>2020-07-16T05:43:37Z</time>
      </trkpt>
      <trkpt lat="40.0475985277" lon="-6.2113629095">
        <ele>264.98</ele>
        <time>2020-07-16T05:43:38Z</time>
      </trkpt>
      <trkpt lat="40.0477514137" lon="-6.2114893924">
        <ele>265.46</ele>
        <time>2020-07-16T05:43:45Z</time>
      </trkpt>
      <trkpt lat="40.0478690956" lon="-6.2115881313">
        <ele>265.94</ele>
        <time>2020-07-16T05:43:53Z</time>
      </trkpt>
      <trkpt lat="40.0478779804" lon="-6.2115973514">
        <ele>266.42</ele>
        <time>2020-07-16T05:43:54Z</time>
      </trkpt>
      <trkpt lat="40.0478851888" lon="-6.2116092537">
        <ele>266.42</ele>
        <time>2020-07-16T05:43:55Z</time>
      </trkpt>
      <trkpt lat="40.0478910562" lon="-6.2116214912">
        <ele>266.42</ele>
        <time>2020-07-16T05:43:56Z</time>
      </trkpt>
      <trkpt lat="40.0479145255" lon="-6.2116417754">
        <ele>266.42</ele>
        <time>2020-07-16T05:44:03Z</time>
      </trkpt>
      <trkpt lat="40.0479239970" lon="-6.2116514146">
        <ele>266.42</ele>
        <time>2020-07-16T05:44:12Z</time>
      </trkpt>
      <trkpt lat="40.0479404256" lon="-6.2116500735">
        <ele>266.42</ele>
        <time>2020-07-16T05:44:17Z</time>
      </trkpt>
      <trkpt lat="40.0479527470" lon="-6.2116662506">
        <ele>266.90</ele>
        <time>2020-07-16T05:44:19Z</time>
      </trkpt>
      <trkpt lat="40.0479586143" lon="-6.2116779853">
        <ele>266.42</ele>
        <time>2020-07-16T05:44:20Z</time>
      </trkpt>
      <trkpt lat="40.0479619671" lon="-6.2116918154">
        <ele>266.42</ele>
        <time>2020-07-16T05:44:21Z</time>
      </trkpt>
      <trkpt lat="40.0479639787" lon="-6.2117058132">
        <ele>266.42</ele>
        <time>2020-07-16T05:44:22Z</time>
      </trkpt>
      <trkpt lat="40.0479765516" lon="-6.2117233314">
        <ele>266.90</ele>
        <time>2020-07-16T05:44:28Z</time>
      </trkpt>
      <trkpt lat="40.0479824189" lon="-6.2117217388">
        <ele>266.90</ele>
        <time>2020-07-16T05:44:57Z</time>
      </trkpt>
      <trkpt lat="40.0479800720" lon="-6.2117258459">
        <ele>266.42</ele>
        <time>2020-07-16T05:45:18Z</time>
      </trkpt>
      <trkpt lat="40.0479732826" lon="-6.2117167935">
        <ele>266.42</ele>
        <time>2020-07-16T05:45:41Z</time>
      </trkpt>
      <trkpt lat="40.0479814969" lon="-6.2117144465">
        <ele>265.94</ele>
        <time>2020-07-16T05:45:54Z</time>
      </trkpt>
      <trkpt lat="40.0479864422" lon="-6.2117180508">
        <ele>265.46</ele>
        <time>2020-07-16T05:46:11Z</time>
      </trkpt>
      <trkpt lat="40.0479892083" lon="-6.2117227446">
        <ele>266.90</ele>
        <time>2020-07-16T05:46:32Z</time>
      </trkpt>
      <trkpt lat="40.0479936507" lon="-6.2117281929">
        <ele>267.86</ele>
        <time>2020-07-16T05:46:51Z</time>
      </trkpt>
      <trkpt lat="40.0479937345" lon="-6.2117321324">
        <ele>267.38</ele>
        <time>2020-07-16T05:47:10Z</time>
      </trkpt>
      <trkpt lat="40.0479843467" lon="-6.2117180508">
        <ele>266.42</ele>
        <time>2020-07-16T05:47:33Z</time>
      </trkpt>
      <trkpt lat="40.0479800720" lon="-6.2117169611">
        <ele>266.42</ele>
        <time>2020-07-16T05:47:45Z</time>
      </trkpt>
      <trkpt lat="40.0479842629" lon="-6.2117131054">
        <ele>266.90</ele>
        <time>2020-07-16T05:48:02Z</time>
      </trkpt>
      <trkpt lat="40.0479821675" lon="-6.2117182184">
        <ele>267.38</ele>
        <time>2020-07-16T05:48:22Z</time>
      </trkpt>
      <trkpt lat="40.0479685888" lon="-6.2117281090">
        <ele>267.86</ele>
        <time>2020-07-16T05:48:34Z</time>
      </trkpt>
      <trkpt lat="40.0479633082" lon="-6.2117955834">
        <ele>267.86</ele>
        <time>2020-07-16T05:48:42Z</time>
      </trkpt>
      <trkpt lat="40.0479756296" lon="-6.2118353974">
        <ele>267.86</ele>
        <time>2020-07-16T05:48:49Z</time>
      </trkpt>
      <trkpt lat="40.0479872804" lon="-6.2118639797">
        <ele>267.86</ele>
        <time>2020-07-16T05:48:55Z</time>
      </trkpt>
      <trkpt lat="40.0479980931" lon="-6.2118789833">
        <ele>267.86</ele>
        <time>2020-07-16T05:48:56Z</time>
      </trkpt>
      <trkpt lat="40.0480094086" lon="-6.2118930649">
        <ele>267.86</ele>
        <time>2020-07-16T05:48:57Z</time>
      </trkpt>
      <trkpt lat="40.0480166171" lon="-6.2119046319">
        <ele>267.86</ele>
        <time>2020-07-16T05:48:58Z</time>
      </trkpt>
      <trkpt lat="40.0480270945" lon="-6.2119208090">
        <ele>267.86</ele>
        <time>2020-07-16T05:48:59Z</time>
      </trkpt>
      <trkpt lat="40.0481257495" lon="-6.2120110821">
        <ele>268.35</ele>
        <time>2020-07-16T05:49:07Z</time>
      </trkpt>
      <trkpt lat="40.0481358916" lon="-6.2120280974">
        <ele>268.83</ele>
        <time>2020-07-16T05:49:08Z</time>
      </trkpt>
      <trkpt lat="40.0481443573" lon="-6.2120477948">
        <ele>268.83</ele>
        <time>2020-07-16T05:49:09Z</time>
      </trkpt>
      <trkpt lat="40.0482384022" lon="-6.2122075539">
        <ele>269.31</ele>
        <time>2020-07-16T05:49:17Z</time>
      </trkpt>
      <trkpt lat="40.0483334530" lon="-6.2124186102">
        <ele>270.27</ele>
        <time>2020-07-16T05:49:26Z</time>
      </trkpt>
      <trkpt lat="40.0484269951" lon="-6.2126310077">
        <ele>270.75</ele>
        <time>2020-07-16T05:49:34Z</time>
      </trkpt>
      <trkpt lat="40.0485124066" lon="-6.2128937803">
        <ele>270.75</ele>
        <time>2020-07-16T05:49:43Z</time>
      </trkpt>
      <trkpt lat="40.0485610217" lon="-6.2130512763">
        <ele>270.27</ele>
        <time>2020-07-16T05:49:49Z</time>
      </trkpt>
      <trkpt lat="40.0485740975" lon="-6.2130698841">
        <ele>270.27</ele>
        <time>2020-07-16T05:49:50Z</time>
      </trkpt>
      <trkpt lat="40.0485922024" lon="-6.2130817026">
        <ele>270.27</ele>
        <time>2020-07-16T05:49:51Z</time>
      </trkpt>
      <trkpt lat="40.0486160908" lon="-6.2130815350">
        <ele>270.75</ele>
        <time>2020-07-16T05:49:52Z</time>
      </trkpt>
      <trkpt lat="40.0486392248" lon="-6.2130782660">
        <ele>270.75</ele>
        <time>2020-07-16T05:49:53Z</time>
      </trkpt>
      <trkpt lat="40.0488227047" lon="-6.2130242866">
        <ele>274.11</ele>
        <time>2020-07-16T05:50:01Z</time>
      </trkpt>
      <trkpt lat="40.0490261335" lon="-6.2130542099">
        <ele>280.36</ele>
        <time>2020-07-16T05:50:09Z</time>
      </trkpt>
      <trkpt lat="40.0491756666" lon="-6.2131664436">
        <ele>280.36</ele>
        <time>2020-07-16T05:50:16Z</time>
      </trkpt>
      <trkpt lat="40.0492949411" lon="-6.2132101133">
        <ele>279.88</ele>
        <time>2020-07-16T05:50:23Z</time>
      </trkpt>
      <trkpt lat="40.0493096933" lon="-6.2132107001">
        <ele>279.88</ele>
        <time>2020-07-16T05:50:24Z</time>
      </trkpt>
      <trkpt lat="40.0493243616" lon="-6.2132059224">
        <ele>279.88</ele>
        <time>2020-07-16T05:50:25Z</time>
      </trkpt>
      <trkpt lat="40.0493365154" lon="-6.2131034955">
        <ele>278.92</ele>
        <time>2020-07-16T05:50:30Z</time>
      </trkpt>
      <trkpt lat="40.0492873974" lon="-6.2129755877">
        <ele>276.52</ele>
        <time>2020-07-16T05:50:39Z</time>
      </trkpt>
      <trkpt lat="40.0492876489" lon="-6.2129544653">
        <ele>276.52</ele>
        <time>2020-07-16T05:50:45Z</time>
      </trkpt>
      <trkpt lat="40.0492877327" lon="-6.2129408866">
        <ele>279.88</ele>
        <time>2020-07-16T05:50:54Z</time>
      </trkpt>
      <trkpt lat="40.0493114535" lon="-6.2129409704">
        <ele>281.80</ele>
        <time>2020-07-16T05:51:08Z</time>
      </trkpt>
      <trkpt lat="40.0493237749" lon="-6.2129350193">
        <ele>281.32</ele>
        <time>2020-07-16T05:51:20Z</time>
      </trkpt>
      <trkpt lat="40.0493205898" lon="-6.2129340135">
        <ele>280.84</ele>
        <time>2020-07-16T05:51:31Z</time>
      </trkpt>
      <trkpt lat="40.0493167341" lon="-6.2129462510">
        <ele>282.28</ele>
        <time>2020-07-16T05:51:43Z</time>
      </trkpt>
      <trkpt lat="40.0493061729" lon="-6.2129610870">
        <ele>284.69</ele>
        <time>2020-07-16T05:51:58Z</time>
      </trkpt>
      <trkpt lat="40.0493260380" lon="-6.2129578181">
        <ele>283.73</ele>
        <time>2020-07-16T05:52:09Z</time>
      </trkpt>
      <trkpt lat="40.0493340008" lon="-6.2129585724">
        <ele>283.25</ele>
        <time>2020-07-16T05:52:14Z</time>
      </trkpt>
      <trkpt lat="40.0493331626" lon="-6.2130627595">
        <ele>281.32</ele>
        <time>2020-07-16T05:52:22Z</time>
      </trkpt>
      <trkpt lat="40.0493612420" lon="-6.2131169904">
        <ele>279.88</ele>
        <time>2020-07-16T05:52:26Z</time>
      </trkpt>
      <trkpt lat="40.0495187379" lon="-6.2132058386">
        <ele>278.44</ele>
        <time>2020-07-16T05:52:35Z</time>
      </trkpt>
      <trkpt lat="40.0497397687" lon="-6.2132245302">
        <ele>278.92</ele>
        <time>2020-07-16T05:52:42Z</time>
      </trkpt>
      <trkpt lat="40.0499975961" lon="-6.2131712213">
        <ele>279.40</ele>
        <time>2020-07-16T05:52:51Z</time>
      </trkpt>
      <trkpt lat="40.0502072275" lon="-6.2130861450">
        <ele>280.36</ele>
        <time>2020-07-16T05:52:59Z</time>
      </trkpt>
      <trkpt lat="40.0503733568" lon="-6.2128398009">
        <ele>280.36</ele>
        <time>2020-07-16T05:53:08Z</time>
      </trkpt>
      <trkpt lat="40.0505482033" lon="-6.2126421556">
        <ele>278.44</ele>
        <time>2020-07-16T05:53:16Z</time>
      </trkpt>
      <trkpt lat="40.0507512130" lon="-6.2124115694">
        <ele>276.04</ele>
        <time>2020-07-16T05:53:23Z</time>
      </trkpt>
      <trkpt lat="40.0509367045" lon="-6.2122031953">
        <ele>274.59</ele>
        <time>2020-07-16T05:53:31Z</time>
      </trkpt>
      <trkpt lat="40.0510259718" lon="-6.2121316139">
        <ele>274.11</ele>
        <time>2020-07-16T05:53:36Z</time>
      </trkpt>
      <trkpt lat="40.0510357786" lon="-6.2121436000">
        <ele>274.11</ele>
        <time>2020-07-16T05:53:37Z</time>
      </trkpt>
      <trkpt lat="40.0510446634" lon="-6.2121605314">
        <ele>273.63</ele>
        <time>2020-07-16T05:53:38Z</time>
      </trkpt>
      <trkpt lat="40.0510413945" lon="-6.2121763732">
        <ele>273.15</ele>
        <time>2020-07-16T05:53:44Z</time>
      </trkpt>
      <trkpt lat="40.0510587450" lon="-6.2121783849">
        <ele>272.67</ele>
        <time>2020-07-16T05:53:48Z</time>
      </trkpt>
      <trkpt lat="40.0510759279" lon="-6.2121730205">
        <ele>272.67</ele>
        <time>2020-07-16T05:53:49Z</time>
      </trkpt>
      <trkpt lat="40.0510860700" lon="-6.2121740263">
        <ele>272.67</ele>
        <time>2020-07-16T05:53:50Z</time>
      </trkpt>
      <trkpt lat="40.0511046778" lon="-6.2121706735">
        <ele>272.67</ele>
        <time>2020-07-16T05:53:51Z</time>
      </trkpt>
      <trkpt lat="40.0511235371" lon="-6.2121599447">
        <ele>272.67</ele>
        <time>2020-07-16T05:53:52Z</time>
      </trkpt>
      <trkpt lat="40.0511353556" lon="-6.2121530715">
        <ele>272.67</ele>
        <time>2020-07-16T05:53:53Z</time>
      </trkpt>
      <trkpt lat="40.0512130558" lon="-6.2121176161">
        <ele>272.67</ele>
        <time>2020-07-16T05:54:00Z</time>
      </trkpt>
      <trkpt lat="40.0512148160" lon="-6.2121316977">
        <ele>272.19</ele>
        <time>2020-07-16T05:54:13Z</time>
      </trkpt>
      <trkpt lat="40.0512088649" lon="-6.2121468689">
        <ele>271.71</ele>
        <time>2020-07-16T05:54:25Z</time>
      </trkpt>
      <trkpt lat="40.0512058474" lon="-6.2121524010">
        <ele>270.75</ele>
        <time>2020-07-16T05:54:38Z</time>
      </trkpt>
      <trkpt lat="40.0512082782" lon="-6.2121507246">
        <ele>270.75</ele>
        <time>2020-07-16T05:54:51Z</time>
      </trkpt>
      <trkpt lat="40.0512008183" lon="-6.2121441029">
        <ele>270.75</ele>
        <time>2020-07-16T05:54:59Z</time>
      </trkpt>
      <trkpt lat="40.0511825457" lon="-6.2121133413">
        <ele>270.75</ele>
        <time>2020-07-16T05:55:05Z</time>
      </trkpt>
      <trkpt lat="40.0511506107" lon="-6.2120506447">
        <ele>270.75</ele>
        <time>2020-07-16T05:55:10Z</time>
      </trkpt>
      <trkpt lat="40.0511523709" lon="-6.2120260857">
        <ele>270.75</ele>
        <time>2020-07-16T05:55:11Z</time>
      </trkpt>
      <trkpt lat="40.0511550531" lon="-6.2120057177">
        <ele>270.75</ele>
        <time>2020-07-16T05:55:12Z</time>
      </trkpt>
      <trkpt lat="40.0511587411" lon="-6.2119932286">
        <ele>270.27</ele>
        <time>2020-07-16T05:55:13Z</time>
      </trkpt>
      <trkpt lat="40.0511678774" lon="-6.2119752914">
        <ele>270.75</ele>
        <time>2020-07-16T05:55:14Z</time>
      </trkpt>
      <trkpt lat="40.0511789415" lon="-6.2119507324">
        <ele>270.75</ele>
        <time>2020-07-16T05:55:15Z</time>
      </trkpt>
      <trkpt lat="40.0511893351" lon="-6.2119245809">
        <ele>270.75</ele>
        <time>2020-07-16T05:55:16Z</time>
      </trkpt>
      <trkpt lat="40.0512024108" lon="-6.2118961662">
        <ele>270.27</ele>
        <time>2020-07-16T05:55:17Z</time>
      </trkpt>
      <trkpt lat="40.0513481721" lon="-6.2116608862">
        <ele>269.31</ele>
        <time>2020-07-16T05:55:25Z</time>
      </trkpt>
      <trkpt lat="40.0515293051" lon="-6.2112777494">
        <ele>268.35</ele>
        <time>2020-07-16T05:55:35Z</time>
      </trkpt>
      <trkpt lat="40.0516731385" lon="-6.2108512782">
        <ele>266.42</ele>
        <time>2020-07-16T05:55:44Z</time>
      </trkpt>
      <trkpt lat="40.0517624896" lon="-6.2104917783">
        <ele>263.54</ele>
        <time>2020-07-16T05:55:52Z</time>
      </trkpt>
      <trkpt lat="40.0517886411" lon="-6.2100564223">
        <ele>261.14</ele>
        <time>2020-07-16T05:56:01Z</time>
      </trkpt>
      <trkpt lat="40.0518277846" lon="-6.2097517401">
        <ele>259.69</ele>
        <time>2020-07-16T05:56:09Z</time>
      </trkpt>
      <trkpt lat="40.0518753100" lon="-6.2094237562">
        <ele>260.17</ele>
        <time>2020-07-16T05:56:17Z</time>
      </trkpt>
      <trkpt lat="40.0518277846" lon="-6.2090619095">
        <ele>262.10</ele>
        <time>2020-07-16T05:56:26Z</time>
      </trkpt>
      <trkpt lat="40.0516788382" lon="-6.2087976281">
        <ele>264.02</ele>
        <time>2020-07-16T05:56:34Z</time>
      </trkpt>
      <trkpt lat="40.0514756609" lon="-6.2085351907">
        <ele>264.02</ele>
        <time>2020-07-16T05:56:43Z</time>
      </trkpt>
      <trkpt lat="40.0512289815" lon="-6.2082398962">
        <ele>264.02</ele>
        <time>2020-07-16T05:56:53Z</time>
      </trkpt>
      <trkpt lat="40.0509802904" lon="-6.2079423387">
        <ele>264.02</ele>
        <time>2020-07-16T05:57:03Z</time>
      </trkpt>
      <trkpt lat="40.0509731658" lon="-6.2077562604">
        <ele>264.50</ele>
        <time>2020-07-16T05:57:08Z</time>
      </trkpt>
      <trkpt lat="40.0511055160" lon="-6.2075622194">
        <ele>264.50</ele>
        <time>2020-07-16T05:57:14Z</time>
      </trkpt>
      <trkpt lat="40.0513652712" lon="-6.2072179746">
        <ele>265.46</ele>
        <time>2020-07-16T05:57:25Z</time>
      </trkpt>
      <trkpt lat="40.0515560433" lon="-6.2069603149">
        <ele>266.42</ele>
        <time>2020-07-16T05:57:34Z</time>
      </trkpt>
      <trkpt lat="40.0517188199" lon="-6.2068154756">
        <ele>267.38</ele>
        <time>2020-07-16T05:57:42Z</time>
      </trkpt>
      <trkpt lat="40.0518383458" lon="-6.2067996338">
        <ele>267.38</ele>
        <time>2020-07-16T05:57:48Z</time>
      </trkpt>
      <trkpt lat="40.0520084146" lon="-6.2068139669">
        <ele>267.86</ele>
        <time>2020-07-16T05:57:55Z</time>
      </trkpt>
      <trkpt lat="40.0521559361" lon="-6.2068198342">
        <ele>268.83</ele>
        <time>2020-07-16T05:58:01Z</time>
      </trkpt>
      <trkpt lat="40.0523217302" lon="-6.2068215944">
        <ele>269.31</ele>
        <time>2020-07-16T05:58:08Z</time>
      </trkpt>
      <trkpt lat="40.0525026955" lon="-6.2068259530">
        <ele>270.27</ele>
        <time>2020-07-16T05:58:16Z</time>
      </trkpt>
      <trkpt lat="40.0528665539" lon="-6.2068192475">
        <ele>272.19</ele>
        <time>2020-07-16T05:58:31Z</time>
      </trkpt>
      <trkpt lat="40.0530793704" lon="-6.2068231031">
        <ele>272.19</ele>
        <time>2020-07-16T05:58:40Z</time>
      </trkpt>
      <trkpt lat="40.0533279777" lon="-6.2068292219">
        <ele>272.67</ele>
        <time>2020-07-16T05:58:50Z</time>
      </trkpt>
      <trkpt lat="40.0535434764" lon="-6.2068364304">
        <ele>272.67</ele>
        <time>2020-07-16T05:58:59Z</time>
      </trkpt>
      <trkpt lat="40.0537463184" lon="-6.2068581395">
        <ele>273.15</ele>
        <time>2020-07-16T05:59:07Z</time>
      </trkpt>
      <trkpt lat="40.0540142879" lon="-6.2068759091">
        <ele>274.59</ele>
        <time>2020-07-16T05:59:17Z</time>
      </trkpt>
      <trkpt lat="40.0542828441" lon="-6.2068755738">
        <ele>276.04</ele>
        <time>2020-07-16T05:59:27Z</time>
      </trkpt>
      <trkpt lat="40.0544575229" lon="-6.2068710476">
        <ele>277.00</ele>
        <time>2020-07-16T05:59:35Z</time>
      </trkpt>
      <trkpt lat="40.0546354707" lon="-6.2068576366">
        <ele>277.48</ele>
        <time>2020-07-16T05:59:43Z</time>
      </trkpt>
      <trkpt lat="40.0547241513" lon="-6.2068493385">
        <ele>277.48</ele>
        <time>2020-07-16T05:59:50Z</time>
      </trkpt>
      <trkpt lat="40.0547271688" lon="-6.2068547029">
        <ele>277.96</ele>
        <time>2020-07-16T05:59:55Z</time>
      </trkpt>
      <trkpt lat="40.0548085570" lon="-6.2068699580">
        <ele>277.48</ele>
        <time>2020-07-16T06:00:01Z</time>
      </trkpt>
      <trkpt lat="40.0550450943" lon="-6.2068675272">
        <ele>278.92</ele>
        <time>2020-07-16T06:00:13Z</time>
      </trkpt>
      <trkpt lat="40.0552513730" lon="-6.2068680301">
        <ele>280.36</ele>
        <time>2020-07-16T06:00:23Z</time>
      </trkpt>
      <trkpt lat="40.0555201806" lon="-6.2068650126">
        <ele>281.32</ele>
        <time>2020-07-16T06:00:35Z</time>
      </trkpt>
      <trkpt lat="40.0557790976" lon="-6.2068755738">
        <ele>281.80</ele>
        <time>2020-07-16T06:00:46Z</time>
      </trkpt>
      <trkpt lat="40.0559427124" lon="-6.2068770826">
        <ele>281.80</ele>
        <time>2020-07-16T06:00:53Z</time>
      </trkpt>
      <trkpt lat="40.0562127773" lon="-6.2068872247">
        <ele>282.28</ele>
        <time>2020-07-16T06:01:04Z</time>
      </trkpt>
      <trkpt lat="40.0564177148" lon="-6.2068909965">
        <ele>283.73</ele>
        <time>2020-07-16T06:01:13Z</time>
      </trkpt>
      <trkpt lat="40.0565982610" lon="-6.2069405336">
        <ele>284.69</ele>
        <time>2020-07-16T06:01:22Z</time>
      </trkpt>
      <trkpt lat="40.0567913800" lon="-6.2071209121">
        <ele>286.13</ele>
        <time>2020-07-16T06:01:34Z</time>
      </trkpt>
      <trkpt lat="40.0569642149" lon="-6.2072089221">
        <ele>286.13</ele>
        <time>2020-07-16T06:01:43Z</time>
      </trkpt>
      <trkpt lat="40.0571209565" lon="-6.2071189005">
        <ele>286.13</ele>
        <time>2020-07-16T06:01:51Z</time>
      </trkpt>
      <trkpt lat="40.0572544802" lon="-6.2069082633">
        <ele>285.17</ele>
        <time>2020-07-16T06:02:00Z</time>
      </trkpt>
      <trkpt lat="40.0572745968" lon="-6.2066213507">
        <ele>284.69</ele>
        <time>2020-07-16T06:02:08Z</time>
      </trkpt>
      <trkpt lat="40.0573081244" lon="-6.2063880824">
        <ele>285.17</ele>
        <time>2020-07-16T06:02:15Z</time>
      </trkpt>
      <trkpt lat="40.0574509520" lon="-6.2061125692">
        <ele>286.61</ele>
        <time>2020-07-16T06:02:24Z</time>
      </trkpt>
      <trkpt lat="40.0576485135" lon="-6.2058756966">
        <ele>286.61</ele>
        <time>2020-07-16T06:02:34Z</time>
      </trkpt>
      <trkpt lat="40.0578495115" lon="-6.2057048734">
        <ele>287.09</ele>
        <time>2020-07-16T06:02:43Z</time>
      </trkpt>
      <trkpt lat="40.0580044929" lon="-6.2055750377">
        <ele>288.53</ele>
        <time>2020-07-16T06:02:51Z</time>
      </trkpt>
      <trkpt lat="40.0581529364" lon="-6.2054742873">
        <ele>290.46</ele>
        <time>2020-07-16T06:03:00Z</time>
      </trkpt>
      <trkpt lat="40.0582436286" lon="-6.2053849362">
        <ele>290.94</ele>
        <time>2020-07-16T06:03:08Z</time>
      </trkpt>
      <trkpt lat="40.0584044773" lon="-6.2052823417">
        <ele>291.90</ele>
        <time>2020-07-16T06:03:18Z</time>
      </trkpt>
      <trkpt lat="40.0585798267" lon="-6.2052623089">
        <ele>292.38</ele>
        <time>2020-07-16T06:03:27Z</time>
      </trkpt>
      <trkpt lat="40.0587597024" lon="-6.2053991854">
        <ele>292.86</ele>
        <time>2020-07-16T06:03:36Z</time>
      </trkpt>
      <trkpt lat="40.0589478761" lon="-6.2055838387">
        <ele>293.34</ele>
        <time>2020-07-16T06:03:45Z</time>
      </trkpt>
      <trkpt lat="40.0592322741" lon="-6.2057952303">
        <ele>293.34</ele>
        <time>2020-07-16T06:03:56Z</time>
      </trkpt>
      <trkpt lat="40.0595079549" lon="-6.2058182806">
        <ele>292.86</ele>
        <time>2020-07-16T06:04:05Z</time>
      </trkpt>
      <trkpt lat="40.0596848968" lon="-6.2058325298">
        <ele>292.86</ele>
        <time>2020-07-16T06:04:12Z</time>
      </trkpt>
      <trkpt lat="40.0599014014" lon="-6.2057791371">
        <ele>292.86</ele>
        <time>2020-07-16T06:04:20Z</time>
      </trkpt>
      <trkpt lat="40.0601549540" lon="-6.2056719325">
        <ele>293.82</ele>
        <time>2020-07-16T06:04:29Z</time>
      </trkpt>
      <trkpt lat="40.0604054891" lon="-6.2055721879">
        <ele>293.34</ele>
        <time>2020-07-16T06:04:37Z</time>
      </trkpt>
      <trkpt lat="40.0606164616" lon="-6.2054142728">
        <ele>293.34</ele>
        <time>2020-07-16T06:04:45Z</time>
      </trkpt>
      <trkpt lat="40.0608017016" lon="-6.2051325571">
        <ele>293.34</ele>
        <time>2020-07-16T06:04:54Z</time>
      </trkpt>
      <trkpt lat="40.0609380752" lon="-6.2049639970">
        <ele>292.86</ele>
        <time>2020-07-16T06:05:00Z</time>
      </trkpt>
      <trkpt lat="40.0610957388" lon="-6.2047524378">
        <ele>292.86</ele>
        <time>2020-07-16T06:05:08Z</time>
      </trkpt>
      <trkpt lat="40.0612808950" lon="-6.2045380287">
        <ele>293.34</ele>
        <time>2020-07-16T06:05:16Z</time>
      </trkpt>
      <trkpt lat="40.0614839885" lon="-6.2044991367">
        <ele>293.34</ele>
        <time>2020-07-16T06:05:23Z</time>
      </trkpt>
      <trkpt lat="40.0616843998" lon="-6.2044604123">
        <ele>293.34</ele>
        <time>2020-07-16T06:05:31Z</time>
      </trkpt>
      <trkpt lat="40.0617456716" lon="-6.2044325005">
        <ele>293.34</ele>
        <time>2020-07-16T06:05:34Z</time>
      </trkpt>
      <trkpt lat="40.0617590826" lon="-6.2044126354">
        <ele>293.34</ele>
        <time>2020-07-16T06:05:35Z</time>
      </trkpt>
      <trkpt lat="40.0617696438" lon="-6.2043893337">
        <ele>293.34</ele>
        <time>2020-07-16T06:05:36Z</time>
      </trkpt>
      <trkpt lat="40.0618674606" lon="-6.2041608430">
        <ele>293.34</ele>
        <time>2020-07-16T06:05:44Z</time>
      </trkpt>
      <trkpt lat="40.0619022455" lon="-6.2038350385">
        <ele>292.86</ele>
        <time>2020-07-16T06:05:52Z</time>
      </trkpt>
      <trkpt lat="40.0618746690" lon="-6.2034573499">
        <ele>291.42</ele>
        <time>2020-07-16T06:06:00Z</time>
      </trkpt>
      <trkpt lat="40.0619427301" lon="-6.2031512428">
        <ele>291.42</ele>
        <time>2020-07-16T06:06:07Z</time>
      </trkpt>
      <trkpt lat="40.0621167384" lon="-6.2030206528">
        <ele>291.90</ele>
        <time>2020-07-16T06:06:13Z</time>
      </trkpt>
      <trkpt lat="40.0623683631" lon="-6.2029211596">
        <ele>291.90</ele>
        <time>2020-07-16T06:06:21Z</time>
      </trkpt>
      <trkpt lat="40.0626319740" lon="-6.2027748954">
        <ele>292.38</ele>
        <time>2020-07-16T06:06:31Z</time>
      </trkpt>
      <trkpt lat="40.0628815871" lon="-6.2026744802">
        <ele>292.86</ele>
        <time>2020-07-16T06:06:40Z</time>
      </trkpt>
      <trkpt lat="40.0630794000" lon="-6.2025673594">
        <ele>292.86</ele>
        <time>2020-07-16T06:06:48Z</time>
      </trkpt>
      <trkpt lat="40.0633014366" lon="-6.2024790980">
        <ele>292.86</ele>
        <time>2020-07-16T06:06:56Z</time>
      </trkpt>
      <trkpt lat="40.0634342059" lon="-6.2024243642">
        <ele>293.34</ele>
        <time>2020-07-16T06:07:03Z</time>
      </trkpt>
      <trkpt lat="40.0636518840" lon="-6.2023247033">
        <ele>293.34</ele>
        <time>2020-07-16T06:07:11Z</time>
      </trkpt>
      <trkpt lat="40.0639127288" lon="-6.2022024114">
        <ele>294.30</ele>
        <time>2020-07-16T06:07:22Z</time>
      </trkpt>
      <trkpt lat="40.0641009863" lon="-6.2021043431">
        <ele>294.78</ele>
        <time>2020-07-16T06:07:30Z</time>
      </trkpt>
      <trkpt lat="40.0642883219" lon="-6.2020191830">
        <ele>294.30</ele>
        <time>2020-07-16T06:07:38Z</time>
      </trkpt>
      <trkpt lat="40.0644920859" lon="-6.2019046023">
        <ele>294.78</ele>
        <time>2020-07-16T06:07:46Z</time>
      </trkpt>
      <trkpt lat="40.0646872167" lon="-6.2018147483">
        <ele>294.78</ele>
        <time>2020-07-16T06:07:54Z</time>
      </trkpt>
      <trkpt lat="40.0648945011" lon="-6.2017294206">
        <ele>295.26</ele>
        <time>2020-07-16T06:08:02Z</time>
      </trkpt>
      <trkpt lat="40.0651106704" lon="-6.2016352080">
        <ele>295.26</ele>
        <time>2020-07-16T06:08:11Z</time>
      </trkpt>
      <trkpt lat="40.0652671605" lon="-6.2015674822">
        <ele>295.26</ele>
        <time>2020-07-16T06:08:17Z</time>
      </trkpt>
      <trkpt lat="40.0655673165" lon="-6.2014473695">
        <ele>295.74</ele>
        <time>2020-07-16T06:08:28Z</time>
      </trkpt>
      <trkpt lat="40.0657564122" lon="-6.2013389915">
        <ele>296.22</ele>
        <time>2020-07-16T06:08:36Z</time>
      </trkpt>
      <trkpt lat="40.0660364516" lon="-6.2012229022">
        <ele>297.18</ele>
        <time>2020-07-16T06:08:47Z</time>
      </trkpt>
      <trkpt lat="40.0662126392" lon="-6.2010660768">
        <ele>298.15</ele>
        <time>2020-07-16T06:08:56Z</time>
      </trkpt>
      <trkpt lat="40.0663336739" lon="-6.2009346485">
        <ele>297.67</ele>
        <time>2020-07-16T06:09:02Z</time>
      </trkpt>
      <trkpt lat="40.0665023178" lon="-6.2008736283">
        <ele>297.67</ele>
        <time>2020-07-16T06:09:09Z</time>
      </trkpt>
      <trkpt lat="40.0666633341" lon="-6.2007871270">
        <ele>298.15</ele>
        <time>2020-07-16T06:09:16Z</time>
      </trkpt>
      <trkpt lat="40.0668802578" lon="-6.2006551959">
        <ele>297.67</ele>
        <time>2020-07-16T06:09:24Z</time>
      </trkpt>
      <trkpt lat="40.0671435334" lon="-6.2004920002">
        <ele>297.67</ele>
        <time>2020-07-16T06:09:33Z</time>
      </trkpt>
      <trkpt lat="40.0673999358" lon="-6.2003264576">
        <ele>298.15</ele>
        <time>2020-07-16T06:09:43Z</time>
      </trkpt>
      <trkpt lat="40.0676279236" lon="-6.2001869828">
        <ele>298.63</ele>
        <time>2020-07-16T06:09:52Z</time>
      </trkpt>
      <trkpt lat="40.0679432508" lon="-6.1999824643">
        <ele>298.63</ele>
        <time>2020-07-16T06:10:04Z</time>
      </trkpt>
      <trkpt lat="40.0681790337" lon="-6.1998365354">
        <ele>298.63</ele>
        <time>2020-07-16T06:10:13Z</time>
      </trkpt>
      <trkpt lat="40.0684732385" lon="-6.1997036822">
        <ele>298.63</ele>
        <time>2020-07-16T06:10:24Z</time>
      </trkpt>
      <trkpt lat="40.0687242765" lon="-6.1996977311">
        <ele>299.11</ele>
        <time>2020-07-16T06:10:33Z</time>
      </trkpt>
      <trkpt lat="40.0689406134" lon="-6.1997375451">
        <ele>298.63</ele>
        <time>2020-07-16T06:10:41Z</time>
      </trkpt>
      <trkpt lat="40.0691233389" lon="-6.1997393891">
        <ele>299.11</ele>
        <time>2020-07-16T06:10:48Z</time>
      </trkpt>
      <trkpt lat="40.0693312939" lon="-6.1996647902">
        <ele>298.63</ele>
        <time>2020-07-16T06:10:56Z</time>
      </trkpt>
      <trkpt lat="40.0695496425" lon="-6.1995404027">
        <ele>298.63</ele>
        <time>2020-07-16T06:11:04Z</time>
      </trkpt>
      <trkpt lat="40.0698296819" lon="-6.1994833220">
        <ele>299.11</ele>
        <time>2020-07-16T06:11:14Z</time>
      </trkpt>
      <trkpt lat="40.0700097252" lon="-6.1994386464">
        <ele>298.63</ele>
        <time>2020-07-16T06:11:21Z</time>
      </trkpt>
      <trkpt lat="40.0701507926" lon="-6.1993121635">
        <ele>298.63</ele>
        <time>2020-07-16T06:11:27Z</time>
      </trkpt>
      <trkpt lat="40.0702896807" lon="-6.1991065554">
        <ele>298.63</ele>
        <time>2020-07-16T06:11:34Z</time>
      </trkpt>
      <trkpt lat="40.0704004895" lon="-6.1989078205">
        <ele>298.63</ele>
        <time>2020-07-16T06:11:41Z</time>
      </trkpt>
      <trkpt lat="40.0705734082" lon="-6.1985911522">
        <ele>299.11</ele>
        <time>2020-07-16T06:11:51Z</time>
      </trkpt>
      <trkpt lat="40.0706933532" lon="-6.1983598955">
        <ele>299.11</ele>
        <time>2020-07-16T06:11:59Z</time>
      </trkpt>
      <trkpt lat="40.0708262064" lon="-6.1981293932">
        <ele>299.11</ele>
        <time>2020-07-16T06:12:07Z</time>
      </trkpt>
      <trkpt lat="40.0709638372" lon="-6.1978897545">
        <ele>300.07</ele>
        <time>2020-07-16T06:12:16Z</time>
      </trkpt>
      <trkpt lat="40.0711002946" lon="-6.1978066061">
        <ele>300.55</ele>
        <time>2020-07-16T06:12:23Z</time>
      </trkpt>
      <trkpt lat="40.0712643284" lon="-6.1976933666">
        <ele>300.55</ele>
        <time>2020-07-16T06:12:31Z</time>
      </trkpt>
      <trkpt lat="40.0714937411" lon="-6.1975339428">
        <ele>300.55</ele>
        <time>2020-07-16T06:12:41Z</time>
      </trkpt>
      <trkpt lat="40.0716534164" lon="-6.1974218767">
        <ele>300.55</ele>
        <time>2020-07-16T06:12:48Z</time>
      </trkpt>
      <trkpt lat="40.0718601141" lon="-6.1973012611">
        <ele>301.51</ele>
        <time>2020-07-16T06:12:57Z</time>
      </trkpt>
      <trkpt lat="40.0720685720" lon="-6.1971707549">
        <ele>301.99</ele>
        <time>2020-07-16T06:13:05Z</time>
      </trkpt>
      <trkpt lat="40.0722962245" lon="-6.1970353033">
        <ele>302.47</ele>
        <time>2020-07-16T06:13:14Z</time>
      </trkpt>
      <trkpt lat="40.0725306664" lon="-6.1968172900">
        <ele>301.99</ele>
        <time>2020-07-16T06:13:24Z</time>
      </trkpt>
      <trkpt lat="40.0725906808" lon="-6.1965941638">
        <ele>301.99</ele>
        <time>2020-07-16T06:13:31Z</time>
      </trkpt>
      <trkpt lat="40.0725807063" lon="-6.1963241827">
        <ele>301.51</ele>
        <time>2020-07-16T06:13:38Z</time>
      </trkpt>
      <trkpt lat="40.0725501962" lon="-6.1959853861">
        <ele>301.51</ele>
        <time>2020-07-16T06:13:47Z</time>
      </trkpt>
      <trkpt lat="40.0724661257" lon="-6.1957538780">
        <ele>301.51</ele>
        <time>2020-07-16T06:13:54Z</time>
      </trkpt>
      <trkpt lat="40.0723521318" lon="-6.1955517903">
        <ele>301.03</ele>
        <time>2020-07-16T06:14:00Z</time>
      </trkpt>
      <trkpt lat="40.0723939575" lon="-6.1953456793">
        <ele>301.03</ele>
        <time>2020-07-16T06:14:05Z</time>
      </trkpt>
      <trkpt lat="40.0725126453" lon="-6.1951410770">
        <ele>301.99</ele>
        <time>2020-07-16T06:14:12Z</time>
      </trkpt>
      <trkpt lat="40.0726696383" lon="-6.1948793102">
        <ele>302.47</ele>
        <time>2020-07-16T06:14:21Z</time>
      </trkpt>
      <trkpt lat="40.0728714745" lon="-6.1945567746">
        <ele>302.95</ele>
        <time>2020-07-16T06:14:32Z</time>
      </trkpt>
      <trkpt lat="40.0730423816" lon="-6.1945136916">
        <ele>302.95</ele>
        <time>2020-07-16T06:14:38Z</time>
      </trkpt>
      <trkpt lat="40.0733494107" lon="-6.1945500690">
        <ele>302.47</ele>
        <time>2020-07-16T06:14:49Z</time>
      </trkpt>
      <trkpt lat="40.0735273585" lon="-6.1944085825">
        <ele>301.99</ele>
        <time>2020-07-16T06:14:57Z</time>
      </trkpt>
      <trkpt lat="40.0736669172" lon="-6.1941436306">
        <ele>301.03</ele>
        <time>2020-07-16T06:15:05Z</time>
      </trkpt>
      <trkpt lat="40.0737386663" lon="-6.1938610766">
        <ele>301.51</ele>
        <time>2020-07-16T06:15:13Z</time>
      </trkpt>
      <trkpt lat="40.0736623909" lon="-6.1936305743">
        <ele>301.99</ele>
        <time>2020-07-16T06:15:20Z</time>
      </trkpt>
      <trkpt lat="40.0736243371" lon="-6.1935499404">
        <ele>301.99</ele>
        <time>2020-07-16T06:15:23Z</time>
      </trkpt>
      <trkpt lat="40.0736216549" lon="-6.1935163289">
        <ele>301.51</ele>
        <time>2020-07-16T06:15:24Z</time>
      </trkpt>
      <trkpt lat="40.0736227445" lon="-6.1934789456">
        <ele>301.51</ele>
        <time>2020-07-16T06:15:25Z</time>
      </trkpt>
      <trkpt lat="40.0736271869" lon="-6.1934381258">
        <ele>301.51</ele>
        <time>2020-07-16T06:15:26Z</time>
      </trkpt>
      <trkpt lat="40.0736375805" lon="-6.1934047658">
        <ele>301.03</ele>
        <time>2020-07-16T06:15:27Z</time>
      </trkpt>
      <trkpt lat="40.0736541767" lon="-6.1933730822">
        <ele>301.03</ele>
        <time>2020-07-16T06:15:28Z</time>
      </trkpt>
      <trkpt lat="40.0736750476" lon="-6.1933456734">
        <ele>301.03</ele>
        <time>2020-07-16T06:15:29Z</time>
      </trkpt>
      <trkpt lat="40.0737024564" lon="-6.1933231261">
        <ele>301.03</ele>
        <time>2020-07-16T06:15:30Z</time>
      </trkpt>
      <trkpt lat="40.0737301167" lon="-6.1933058593">
        <ele>301.03</ele>
        <time>2020-07-16T06:15:31Z</time>
      </trkpt>
      <trkpt lat="40.0737593696" lon="-6.1932907719">
        <ele>301.03</ele>
        <time>2020-07-16T06:15:32Z</time>
      </trkpt>
      <trkpt lat="40.0740113296" lon="-6.1931225471">
        <ele>300.55</ele>
        <time>2020-07-16T06:15:41Z</time>
      </trkpt>
      <trkpt lat="40.0742342044" lon="-6.1929847486">
        <ele>300.55</ele>
        <time>2020-07-16T06:15:50Z</time>
      </trkpt>
      <trkpt lat="40.0744491164" lon="-6.1928435974">
        <ele>301.03</ele>
        <time>2020-07-16T06:15:58Z</time>
      </trkpt>
      <trkpt lat="40.0746481866" lon="-6.1927150190">
        <ele>301.51</ele>
        <time>2020-07-16T06:16:05Z</time>
      </trkpt>
      <trkpt lat="40.0747949537" lon="-6.1926296074">
        <ele>301.51</ele>
        <time>2020-07-16T06:16:12Z</time>
      </trkpt>
      <trkpt lat="40.0749517791" lon="-6.1925415974">
        <ele>302.47</ele>
        <time>2020-07-16T06:16:19Z</time>
      </trkpt>
      <trkpt lat="40.0751606561" lon="-6.1923557706">
        <ele>303.43</ele>
        <time>2020-07-16T06:16:29Z</time>
      </trkpt>
      <trkpt lat="40.0752049126" lon="-6.1923177168">
        <ele>303.91</ele>
        <time>2020-07-16T06:16:32Z</time>
      </trkpt>
      <trkpt lat="40.0752232689" lon="-6.1922934093">
        <ele>303.91</ele>
        <time>2020-07-16T06:16:34Z</time>
      </trkpt>
      <trkpt lat="40.0752404518" lon="-6.1922982708">
        <ele>303.91</ele>
        <time>2020-07-16T06:16:35Z</time>
      </trkpt>
      <trkpt lat="40.0752638374" lon="-6.1923168786">
        <ele>303.91</ele>
        <time>2020-07-16T06:16:36Z</time>
      </trkpt>
      <trkpt lat="40.0752848759" lon="-6.1923351511">
        <ele>303.91</ele>
        <time>2020-07-16T06:16:37Z</time>
      </trkpt>
      <trkpt lat="40.0753073394" lon="-6.1923589557">
        <ele>303.91</ele>
        <time>2020-07-16T06:16:38Z</time>
      </trkpt>
      <trkpt lat="40.0753278751" lon="-6.1923823413">
        <ele>303.91</ele>
        <time>2020-07-16T06:16:39Z</time>
      </trkpt>
      <trkpt lat="40.0753476564" lon="-6.1924031284">
        <ele>303.91</ele>
        <time>2020-07-16T06:16:40Z</time>
      </trkpt>
      <trkpt lat="40.0754943397" lon="-6.1925715208">
        <ele>303.91</ele>
        <time>2020-07-16T06:16:47Z</time>
      </trkpt>
      <trkpt lat="40.0756458845" lon="-6.1928635463">
        <ele>304.39</ele>
        <time>2020-07-16T06:16:55Z</time>
      </trkpt>
      <trkpt lat="40.0757469703" lon="-6.1932054441">
        <ele>304.88</ele>
        <time>2020-07-16T06:17:04Z</time>
      </trkpt>
      <trkpt lat="40.0757832639" lon="-6.1932920292">
        <ele>304.39</ele>
        <time>2020-07-16T06:17:07Z</time>
      </trkpt>
      <trkpt lat="40.0758026261" lon="-6.1933004949">
        <ele>304.39</ele>
        <time>2020-07-16T06:17:08Z</time>
      </trkpt>
      <trkpt lat="40.0758219045" lon="-6.1932921130">
        <ele>304.39</ele>
        <time>2020-07-16T06:17:09Z</time>
      </trkpt>
      <trkpt lat="40.0758376624" lon="-6.1932789534">
        <ele>304.39</ele>
        <time>2020-07-16T06:17:10Z</time>
      </trkpt>
      <trkpt lat="40.0758555997" lon="-6.1932708230">
        <ele>303.91</ele>
        <time>2020-07-16T06:17:11Z</time>
      </trkpt>
      <trkpt lat="40.0758788176" lon="-6.1932690628">
        <ele>303.91</ele>
        <time>2020-07-16T06:17:12Z</time>
      </trkpt>
      <trkpt lat="40.0759046338" lon="-6.1932771932">
        <ele>304.39</ele>
        <time>2020-07-16T06:17:13Z</time>
      </trkpt>
      <trkpt lat="40.0759280194" lon="-6.1932948790">
        <ele>304.39</ele>
        <time>2020-07-16T06:17:14Z</time>
      </trkpt>
      <trkpt lat="40.0759493094" lon="-6.1933226231">
        <ele>304.39</ele>
        <time>2020-07-16T06:17:15Z</time>
      </trkpt>
      <trkpt lat="40.0759662408" lon="-6.1933523789">
        <ele>304.39</ele>
        <time>2020-07-16T06:17:16Z</time>
      </trkpt>
      <trkpt lat="40.0759824179" lon="-6.1933875829">
        <ele>304.39</ele>
        <time>2020-07-16T06:17:17Z</time>
      </trkpt>
      <trkpt lat="40.0759941526" lon="-6.1934222840">
        <ele>304.39</ele>
        <time>2020-07-16T06:17:18Z</time>
      </trkpt>
      <trkpt lat="40.0760055520" lon="-6.1934585776">
        <ele>304.39</ele>
        <time>2020-07-16T06:17:19Z</time>
      </trkpt>
      <trkpt lat="40.0760960765" lon="-6.1937313247">
        <ele>304.88</ele>
        <time>2020-07-16T06:17:28Z</time>
      </trkpt>
      <trkpt lat="40.0760993455" lon="-6.1937433109">
        <ele>304.88</ele>
        <time>2020-07-16T06:17:34Z</time>
      </trkpt>
      <trkpt lat="40.0760950707" lon="-6.1937480047">
        <ele>304.88</ele>
        <time>2020-07-16T06:17:46Z</time>
      </trkpt>
      <trkpt lat="40.0760911312" lon="-6.1937300675">
        <ele>304.88</ele>
        <time>2020-07-16T06:18:02Z</time>
      </trkpt>
      <trkpt lat="40.0761017762" lon="-6.1937484238">
        <ele>305.36</ele>
        <time>2020-07-16T06:18:15Z</time>
      </trkpt>
      <trkpt lat="40.0760989264" lon="-6.1937498488">
        <ele>305.36</ele>
        <time>2020-07-16T06:18:28Z</time>
      </trkpt>
      <trkpt lat="40.0760977529" lon="-6.1937375274">
        <ele>304.88</ele>
        <time>2020-07-16T06:18:41Z</time>
      </trkpt>
      <trkpt lat="40.0760949031" lon="-6.1937302351">
        <ele>303.43</ele>
        <time>2020-07-16T06:19:03Z</time>
      </trkpt>
      <trkpt lat="40.0760995131" lon="-6.1937513575">
        <ele>303.91</ele>
        <time>2020-07-16T06:19:28Z</time>
      </trkpt>
      <trkpt lat="40.0760994293" lon="-6.1937521957">
        <ele>304.88</ele>
        <time>2020-07-16T06:19:47Z</time>
      </trkpt>
      <trkpt lat="40.0761134271" lon="-6.1937704682">
        <ele>304.88</ele>
        <time>2020-07-16T06:20:00Z</time>
      </trkpt>
      <trkpt lat="40.0761213060" lon="-6.1938034091">
        <ele>305.84</ele>
        <time>2020-07-16T06:20:10Z</time>
      </trkpt>
      <trkpt lat="40.0761802308" lon="-6.1939475778">
        <ele>306.80</ele>
        <time>2020-07-16T06:20:21Z</time>
      </trkpt>
      <trkpt lat="40.0762309413" lon="-6.1941028945">
        <ele>307.76</ele>
        <time>2020-07-16T06:20:32Z</time>
      </trkpt>
      <trkpt lat="40.0762818195" lon="-6.1942525115">
        <ele>309.20</ele>
        <time>2020-07-16T06:20:44Z</time>
      </trkpt>
      <trkpt lat="40.0763588492" lon="-6.1943923216">
        <ele>310.64</ele>
        <time>2020-07-16T06:20:55Z</time>
      </trkpt>
      <trkpt lat="40.0764637068" lon="-6.1945244204">
        <ele>311.12</ele>
        <time>2020-07-16T06:21:06Z</time>
      </trkpt>
      <trkpt lat="40.0765572488" lon="-6.1946176272">
        <ele>311.60</ele>
        <time>2020-07-16T06:21:16Z</time>
      </trkpt>
      <trkpt lat="40.0766450912" lon="-6.1947025359">
        <ele>312.57</ele>
        <time>2020-07-16T06:21:26Z</time>
      </trkpt>
      <trkpt lat="40.0767029263" lon="-6.1948072258">
        <ele>314.01</ele>
        <time>2020-07-16T06:21:37Z</time>
      </trkpt>
      <trkpt lat="40.0767694786" lon="-6.1949175317">
        <ele>314.49</ele>
        <time>2020-07-16T06:21:48Z</time>
      </trkpt>
      <trkpt lat="40.0768089574" lon="-6.1949501373">
        <ele>315.45</ele>
        <time>2020-07-16T06:21:53Z</time>
      </trkpt>
      <trkpt lat="40.0768198539" lon="-6.1949606985">
        <ele>315.45</ele>
        <time>2020-07-16T06:21:54Z</time>
      </trkpt>
      <trkpt lat="40.0769274775" lon="-6.1949732713">
        <ele>316.89</ele>
        <time>2020-07-16T06:22:04Z</time>
      </trkpt>
      <trkpt lat="40.0769848935" lon="-6.1948716827">
        <ele>317.37</ele>
        <time>2020-07-16T06:22:13Z</time>
      </trkpt>
      <trkpt lat="40.0770064350" lon="-6.1947358958">
        <ele>318.81</ele>
        <time>2020-07-16T06:22:23Z</time>
      </trkpt>
      <trkpt lat="40.0769796129" lon="-6.1945861112">
        <ele>318.81</ele>
        <time>2020-07-16T06:22:33Z</time>
      </trkpt>
      <trkpt lat="40.0769386254" lon="-6.1944682617">
        <ele>319.30</ele>
        <time>2020-07-16T06:22:42Z</time>
      </trkpt>
      <trkpt lat="40.0769318361" lon="-6.1944334768">
        <ele>319.78</ele>
        <time>2020-07-16T06:22:50Z</time>
      </trkpt>
      <trkpt lat="40.0769151561" lon="-6.1943776533">
        <ele>319.78</ele>
        <time>2020-07-16T06:23:02Z</time>
      </trkpt>
      <trkpt lat="40.0769284833" lon="-6.1942873802">
        <ele>320.26</ele>
        <time>2020-07-16T06:23:10Z</time>
      </trkpt>
      <trkpt lat="40.0769459177" lon="-6.1942314729">
        <ele>320.26</ele>
        <time>2020-07-16T06:23:15Z</time>
      </trkpt>
      <trkpt lat="40.0769504439" lon="-6.1942193191">
        <ele>320.26</ele>
        <time>2020-07-16T06:23:16Z</time>
      </trkpt>
      <trkpt lat="40.0769805349" lon="-6.1941168923">
        <ele>321.22</ele>
        <time>2020-07-16T06:23:25Z</time>
      </trkpt>
      <trkpt lat="40.0770255458" lon="-6.1939844582">
        <ele>322.66</ele>
        <time>2020-07-16T06:23:35Z</time>
      </trkpt>
      <trkpt lat="40.0770739932" lon="-6.1938512698">
        <ele>324.10</ele>
        <time>2020-07-16T06:23:45Z</time>
      </trkpt>
      <trkpt lat="40.0771300681" lon="-6.1937325820">
        <ele>324.58</ele>
        <time>2020-07-16T06:23:55Z</time>
      </trkpt>
      <trkpt lat="40.0772039127" lon="-6.1935869046">
        <ele>325.06</ele>
        <time>2020-07-16T06:24:06Z</time>
      </trkpt>
      <trkpt lat="40.0772131328" lon="-6.1935765110">
        <ele>325.06</ele>
        <time>2020-07-16T06:24:07Z</time>
      </trkpt>
      <trkpt lat="40.0772221852" lon="-6.1935652792">
        <ele>325.06</ele>
        <time>2020-07-16T06:24:08Z</time>
      </trkpt>
      <trkpt lat="40.0772303157" lon="-6.1935537122">
        <ele>325.06</ele>
        <time>2020-07-16T06:24:09Z</time>
      </trkpt>
      <trkpt lat="40.0772373565" lon="-6.1935427319">
        <ele>325.06</ele>
        <time>2020-07-16T06:24:10Z</time>
      </trkpt>
      <trkpt lat="40.0773177389" lon="-6.1933973059">
        <ele>326.02</ele>
        <time>2020-07-16T06:24:21Z</time>
      </trkpt>
      <trkpt lat="40.0773293898" lon="-6.1933592521">
        <ele>326.02</ele>
        <time>2020-07-16T06:24:28Z</time>
      </trkpt>
      <trkpt lat="40.0773350894" lon="-6.1933046021">
        <ele>326.02</ele>
        <time>2020-07-16T06:24:34Z</time>
      </trkpt>
      <trkpt lat="40.0774295535" lon="-6.1931134108">
        <ele>326.99</ele>
        <time>2020-07-16T06:24:44Z</time>
      </trkpt>
      <trkpt lat="40.0775079243" lon="-6.1929093115">
        <ele>327.95</ele>
        <time>2020-07-16T06:24:53Z</time>
      </trkpt>
      <trkpt lat="40.0775261130" lon="-6.1928876024">
        <ele>327.95</ele>
        <time>2020-07-16T06:24:57Z</time>
      </trkpt>
      <trkpt lat="40.0775872171" lon="-6.1927740276">
        <ele>327.95</ele>
        <time>2020-07-16T06:25:04Z</time>
      </trkpt>
      <trkpt lat="40.0776512548" lon="-6.1926035397">
        <ele>328.91</ele>
        <time>2020-07-16T06:25:12Z</time>
      </trkpt>
      <trkpt lat="40.0777527597" lon="-6.1924040504">
        <ele>329.87</ele>
        <time>2020-07-16T06:25:21Z</time>
      </trkpt>
      <trkpt lat="40.0778295379" lon="-6.1922085844">
        <ele>331.31</ele>
        <time>2020-07-16T06:25:31Z</time>
      </trkpt>
      <trkpt lat="40.0778367463" lon="-6.1921838578">
        <ele>331.79</ele>
        <time>2020-07-16T06:25:37Z</time>
      </trkpt>
      <trkpt lat="40.0778354891" lon="-6.1921772361">
        <ele>331.79</ele>
        <time>2020-07-16T06:25:44Z</time>
      </trkpt>
      <trkpt lat="40.0778803322" lon="-6.1920717079">
        <ele>332.75</ele>
        <time>2020-07-16T06:25:53Z</time>
      </trkpt>
      <trkpt lat="40.0779400114" lon="-6.1919239350">
        <ele>333.23</ele>
        <time>2020-07-16T06:26:03Z</time>
      </trkpt>
      <trkpt lat="40.0780155323" lon="-6.1917751562">
        <ele>333.71</ele>
        <time>2020-07-16T06:26:13Z</time>
      </trkpt>
      <trkpt lat="40.0780827552" lon="-6.1916690413">
        <ele>335.16</ele>
        <time>2020-07-16T06:26:21Z</time>
      </trkpt>
      <trkpt lat="40.0782071427" lon="-6.1915338412">
        <ele>336.60</ele>
        <time>2020-07-16T06:26:33Z</time>
      </trkpt>
      <trkpt lat="40.0782912970" lon="-6.1914541293">
        <ele>338.04</ele>
        <time>2020-07-16T06:26:41Z</time>
      </trkpt>
      <trkpt lat="40.0783925503" lon="-6.1913694721">
        <ele>339.00</ele>
        <time>2020-07-16T06:26:51Z</time>
      </trkpt>
      <trkpt lat="40.0785173569" lon="-6.1912949570">
        <ele>339.96</ele>
        <time>2020-07-16T06:27:02Z</time>
      </trkpt>
      <trkpt lat="40.0786061212" lon="-6.1912431568">
        <ele>340.44</ele>
        <time>2020-07-16T06:27:11Z</time>
      </trkpt>
      <trkpt lat="40.0787305925" lon="-6.1911567394">
        <ele>342.37</ele>
        <time>2020-07-16T06:27:22Z</time>
      </trkpt>
      <trkpt lat="40.0787704904" lon="-6.1911303364">
        <ele>342.37</ele>
        <time>2020-07-16T06:27:26Z</time>
      </trkpt>
      <trkpt lat="40.0788667146" lon="-6.1910660472">
        <ele>342.85</ele>
        <time>2020-07-16T06:27:35Z</time>
      </trkpt>
      <trkpt lat="40.0789720751" lon="-6.1909794621">
        <ele>343.81</ele>
        <time>2020-07-16T06:27:45Z</time>
      </trkpt>
      <trkpt lat="40.0789842289" lon="-6.1909651291">
        <ele>343.81</ele>
        <time>2020-07-16T06:27:51Z</time>
      </trkpt>
      <trkpt lat="40.0789773557" lon="-6.1909616087">
        <ele>342.85</ele>
        <time>2020-07-16T06:28:04Z</time>
      </trkpt>
      <trkpt lat="40.0790139008" lon="-6.1909285001">
        <ele>343.33</ele>
        <time>2020-07-16T06:28:16Z</time>
      </trkpt>
      <trkpt lat="40.0791097060" lon="-6.1908245645">
        <ele>343.81</ele>
        <time>2020-07-16T06:28:26Z</time>
      </trkpt>
      <trkpt lat="40.0791191775" lon="-6.1908039451">
        <ele>344.29</ele>
        <time>2020-07-16T06:28:32Z</time>
      </trkpt>
      <trkpt lat="40.0791789405" lon="-6.1907419190">
        <ele>344.29</ele>
        <time>2020-07-16T06:28:39Z</time>
      </trkpt>
      <trkpt lat="40.0793151464" lon="-6.1906145979">
        <ele>345.25</ele>
        <time>2020-07-16T06:28:48Z</time>
      </trkpt>
      <trkpt lat="40.0794273801" lon="-6.1904645618">
        <ele>346.21</ele>
        <time>2020-07-16T06:28:56Z</time>
      </trkpt>
      <trkpt lat="40.0796035677" lon="-6.1902752146">
        <ele>347.17</ele>
        <time>2020-07-16T06:29:07Z</time>
      </trkpt>
      <trkpt lat="40.0797522627" lon="-6.1901599634">
        <ele>347.65</ele>
        <time>2020-07-16T06:29:15Z</time>
      </trkpt>
      <trkpt lat="40.0799273606" lon="-6.1900680978">
        <ele>349.10</ele>
        <time>2020-07-16T06:29:24Z</time>
      </trkpt>
      <trkpt lat="40.0801374111" lon="-6.1899425369">
        <ele>349.58</ele>
        <time>2020-07-16T06:29:35Z</time>
      </trkpt>
      <trkpt lat="40.0801600423" lon="-6.1899253540">
        <ele>349.10</ele>
        <time>2020-07-16T06:29:40Z</time>
      </trkpt>
      <trkpt lat="40.0802405085" lon="-6.1898875516">
        <ele>350.06</ele>
        <time>2020-07-16T06:29:46Z</time>
      </trkpt>
      <trkpt lat="40.0803660695" lon="-6.1898242682">
        <ele>350.54</ele>
        <time>2020-07-16T06:29:54Z</time>
      </trkpt>
      <trkpt lat="40.0804806501" lon="-6.1897640023">
        <ele>351.50</ele>
        <time>2020-07-16T06:30:02Z</time>
      </trkpt>
      <trkpt lat="40.0806309376" lon="-6.1897317320">
        <ele>352.94</ele>
        <time>2020-07-16T06:30:11Z</time>
      </trkpt>
      <trkpt lat="40.0807551574" lon="-6.1897804309">
        <ele>353.90</ele>
        <time>2020-07-16T06:30:20Z</time>
      </trkpt>
      <trkpt lat="40.0808220450" lon="-6.1897555366">
        <ele>354.86</ele>
        <time>2020-07-16T06:30:27Z</time>
      </trkpt>
      <trkpt lat="40.0808318518" lon="-6.1897517648">
        <ele>355.34</ele>
        <time>2020-07-16T06:30:33Z</time>
      </trkpt>
      <trkpt lat="40.0808921177" lon="-6.1897076759">
        <ele>355.83</ele>
        <time>2020-07-16T06:30:42Z</time>
      </trkpt>
      <trkpt lat="40.0809923653" lon="-6.1896650959">
        <ele>357.27</ele>
        <time>2020-07-16T06:30:52Z</time>
      </trkpt>
      <trkpt lat="40.0810573250" lon="-6.1896383576">
        <ele>357.75</ele>
        <time>2020-07-16T06:30:58Z</time>
      </trkpt>
      <trkpt lat="40.0811420660" lon="-6.1895965319">
        <ele>359.19</ele>
        <time>2020-07-16T06:31:07Z</time>
      </trkpt>
      <trkpt lat="40.0812334288" lon="-6.1895506829">
        <ele>361.11</ele>
        <time>2020-07-16T06:31:16Z</time>
      </trkpt>
      <trkpt lat="40.0813299883" lon="-6.1895018164">
        <ele>362.07</ele>
        <time>2020-07-16T06:31:26Z</time>
      </trkpt>
      <trkpt lat="40.0814425573" lon="-6.1894342583">
        <ele>363.04</ele>
        <time>2020-07-16T06:31:37Z</time>
      </trkpt>
      <trkpt lat="40.0815745723" lon="-6.1893228628">
        <ele>364.00</ele>
        <time>2020-07-16T06:31:50Z</time>
      </trkpt>
      <trkpt lat="40.0816060044" lon="-6.1892787740">
        <ele>364.48</ele>
        <time>2020-07-16T06:31:59Z</time>
      </trkpt>
      <trkpt lat="40.0816091057" lon="-6.1892662011">
        <ele>364.00</ele>
        <time>2020-07-16T06:32:09Z</time>
      </trkpt>
      <trkpt lat="40.0816239417" lon="-6.1892590765">
        <ele>364.48</ele>
        <time>2020-07-16T06:32:17Z</time>
      </trkpt>
      <trkpt lat="40.0816330779" lon="-6.1892460845">
        <ele>362.55</ele>
        <time>2020-07-16T06:32:30Z</time>
      </trkpt>
      <trkpt lat="40.0816453993" lon="-6.1892504431">
        <ele>362.55</ele>
        <time>2020-07-16T06:32:44Z</time>
      </trkpt>
      <trkpt lat="40.0816441420" lon="-6.1892593279">
        <ele>363.52</ele>
        <time>2020-07-16T06:33:00Z</time>
      </trkpt>
      <trkpt lat="40.0816428848" lon="-6.1892534606">
        <ele>363.52</ele>
        <time>2020-07-16T06:33:15Z</time>
      </trkpt>
      <trkpt lat="40.0816360116" lon="-6.1892562266">
        <ele>364.48</ele>
        <time>2020-07-16T06:33:31Z</time>
      </trkpt>
      <trkpt lat="40.0816188287" lon="-6.1892484315">
        <ele>364.96</ele>
        <time>2020-07-16T06:33:42Z</time>
      </trkpt>
      <trkpt lat="40.0816136319" lon="-6.1892497726">
        <ele>364.96</ele>
        <time>2020-07-16T06:33:57Z</time>
      </trkpt>
      <trkpt lat="40.0816177391" lon="-6.1892730743">
        <ele>364.96</ele>
        <time>2020-07-16T06:34:09Z</time>
      </trkpt>
      <trkpt lat="40.0816345867" lon="-6.1892739125">
        <ele>365.44</ele>
        <time>2020-07-16T06:34:25Z</time>
      </trkpt>
      <trkpt lat="40.0816276297" lon="-6.1892681289">
        <ele>365.92</ele>
        <time>2020-07-16T06:34:39Z</time>
      </trkpt>
      <trkpt lat="40.0816604029" lon="-6.1891790293">
        <ele>364.96</ele>
        <time>2020-07-16T06:34:48Z</time>
      </trkpt>
      <trkpt lat="40.0817520171" lon="-6.1889814679">
        <ele>364.96</ele>
        <time>2020-07-16T06:34:56Z</time>
      </trkpt>
      <trkpt lat="40.0819118600" lon="-6.1888294201">
        <ele>364.48</ele>
        <time>2020-07-16T06:35:05Z</time>
      </trkpt>
      <trkpt lat="40.0820698589" lon="-6.1887290888">
        <ele>364.96</ele>
        <time>2020-07-16T06:35:12Z</time>
      </trkpt>
      <trkpt lat="40.0823087431" lon="-6.1885876022">
        <ele>364.96</ele>
        <time>2020-07-16T06:35:22Z</time>
      </trkpt>
      <trkpt lat="40.0825466216" lon="-6.1884592753">
        <ele>365.92</ele>
        <time>2020-07-16T06:35:31Z</time>
      </trkpt>
      <trkpt lat="40.0826531556" lon="-6.1884017754">
        <ele>365.92</ele>
        <time>2020-07-16T06:35:38Z</time>
      </trkpt>
      <trkpt lat="40.0826578494" lon="-6.1884037033">
        <ele>364.48</ele>
        <time>2020-07-16T06:35:46Z</time>
      </trkpt>
      <trkpt lat="40.0826531556" lon="-6.1884058826">
        <ele>363.04</ele>
        <time>2020-07-16T06:36:00Z</time>
      </trkpt>
      <trkpt lat="40.0826711766" lon="-6.1884028651">
        <ele>364.00</ele>
        <time>2020-07-16T06:36:21Z</time>
      </trkpt>
      <trkpt lat="40.0826565083" lon="-6.1884182040">
        <ele>364.00</ele>
        <time>2020-07-16T06:36:37Z</time>
      </trkpt>
      <trkpt lat="40.0826271717" lon="-6.1884256639">
        <ele>364.48</ele>
        <time>2020-07-16T06:36:40Z</time>
      </trkpt>
      <trkpt lat="40.0825539976" lon="-6.1884588562">
        <ele>364.96</ele>
        <time>2020-07-16T06:36:48Z</time>
      </trkpt>
      <trkpt lat="40.0825683307" lon="-6.1884393264">
        <ele>365.44</ele>
        <time>2020-07-16T06:36:54Z</time>
      </trkpt>
      <trkpt lat="40.0825699233" lon="-6.1884360574">
        <ele>365.44</ele>
        <time>2020-07-16T06:36:56Z</time>
      </trkpt>
      <trkpt lat="40.0825811550" lon="-6.1884252448">
        <ele>365.44</ele>
        <time>2020-07-16T06:36:57Z</time>
      </trkpt>
      <trkpt lat="40.0825941470" lon="-6.1884177011">
        <ele>365.44</ele>
        <time>2020-07-16T06:36:58Z</time>
      </trkpt>
      <trkpt lat="40.0826150179" lon="-6.1884089839">
        <ele>365.44</ele>
        <time>2020-07-16T06:36:59Z</time>
      </trkpt>
      <trkpt lat="40.0826389063" lon="-6.1884018593">
        <ele>364.96</ele>
        <time>2020-07-16T06:37:00Z</time>
      </trkpt>
      <trkpt lat="40.0826650579" lon="-6.1883926392">
        <ele>364.96</ele>
        <time>2020-07-16T06:37:01Z</time>
      </trkpt>
      <trkpt lat="40.0826958194" lon="-6.1883788090">
        <ele>364.96</ele>
        <time>2020-07-16T06:37:02Z</time>
      </trkpt>
      <trkpt lat="40.0829767808" lon="-6.1882428546">
        <ele>364.48</ele>
        <time>2020-07-16T06:37:11Z</time>
      </trkpt>
      <trkpt lat="40.0830053631" lon="-6.1882317066">
        <ele>364.48</ele>
        <time>2020-07-16T06:37:13Z</time>
      </trkpt>
      <trkpt lat="40.0830161758" lon="-6.1882573552">
        <ele>364.96</ele>
        <time>2020-07-16T06:37:17Z</time>
      </trkpt>
      <trkpt lat="40.0830025971" lon="-6.1882611271">
        <ele>364.96</ele>
        <time>2020-07-16T06:37:18Z</time>
      </trkpt>
      <trkpt lat="40.0828481186" lon="-6.1883209739">
        <ele>365.44</ele>
        <time>2020-07-16T06:37:24Z</time>
      </trkpt>
      <trkpt lat="40.0826487970" lon="-6.1884126719">
        <ele>366.40</ele>
        <time>2020-07-16T06:37:30Z</time>
      </trkpt>
      <trkpt lat="40.0826416723" lon="-6.1883757915">
        <ele>365.92</ele>
        <time>2020-07-16T06:37:35Z</time>
      </trkpt>
      <trkpt lat="40.0826417562" lon="-6.1883662362">
        <ele>366.40</ele>
        <time>2020-07-16T06:37:45Z</time>
      </trkpt>
      <trkpt lat="40.0826534908" lon="-6.1883869395">
        <ele>367.36</ele>
        <time>2020-07-16T06:37:56Z</time>
      </trkpt>
      <trkpt lat="40.0826661475" lon="-6.1883860175">
        <ele>367.36</ele>
        <time>2020-07-16T06:37:57Z</time>
      </trkpt>
      <trkpt lat="40.0826801453" lon="-6.1883818265">
        <ele>367.84</ele>
        <time>2020-07-16T06:37:58Z</time>
      </trkpt>
      <trkpt lat="40.0826946460" lon="-6.1883743666">
        <ele>367.84</ele>
        <time>2020-07-16T06:37:59Z</time>
      </trkpt>
      <trkpt lat="40.0827169418" lon="-6.1883635540">
        <ele>367.84</ele>
        <time>2020-07-16T06:38:00Z</time>
      </trkpt>
      <trkpt lat="40.0827464461" lon="-6.1883488018">
        <ele>367.36</ele>
        <time>2020-07-16T06:38:01Z</time>
      </trkpt>
      <trkpt lat="40.0830647070" lon="-6.1882123444">
        <ele>366.40</ele>
        <time>2020-07-16T06:38:10Z</time>
      </trkpt>
      <trkpt lat="40.0833612587" lon="-6.1880972609">
        <ele>364.48</ele>
        <time>2020-07-16T06:38:17Z</time>
      </trkpt>
      <trkpt lat="40.0837450661" lon="-6.1878804211">
        <ele>363.04</ele>
        <time>2020-07-16T06:38:25Z</time>
      </trkpt>
      <trkpt lat="40.0839712936" lon="-6.1876880564">
        <ele>363.52</ele>
        <time>2020-07-16T06:38:32Z</time>
      </trkpt>
      <trkpt lat="40.0842110999" lon="-6.1875018943">
        <ele>364.48</ele>
        <time>2020-07-16T06:38:40Z</time>
      </trkpt>
      <trkpt lat="40.0843357388" lon="-6.1874920037">
        <ele>365.44</ele>
        <time>2020-07-16T06:38:45Z</time>
      </trkpt>
      <trkpt lat="40.0843471382" lon="-6.1874827836">
        <ele>365.44</ele>
        <time>2020-07-16T06:38:46Z</time>
      </trkpt>
      <trkpt lat="40.0843608845" lon="-6.1874707974">
        <ele>365.44</ele>
        <time>2020-07-16T06:38:52Z</time>
      </trkpt>
      <trkpt lat="40.0843632314" lon="-6.1874802690">
        <ele>365.92</ele>
        <time>2020-07-16T06:39:05Z</time>
      </trkpt>
      <trkpt lat="40.0843671709" lon="-6.1874770001">
        <ele>365.44</ele>
        <time>2020-07-16T06:39:11Z</time>
      </trkpt>
      <trkpt lat="40.0843803305" lon="-6.1874759104">
        <ele>365.44</ele>
        <time>2020-07-16T06:39:12Z</time>
      </trkpt>
      <trkpt lat="40.0843924005" lon="-6.1874768324">
        <ele>365.44</ele>
        <time>2020-07-16T06:39:13Z</time>
      </trkpt>
      <trkpt lat="40.0844123494" lon="-6.1874701269">
        <ele>365.92</ele>
        <time>2020-07-16T06:39:15Z</time>
      </trkpt>
      <trkpt lat="40.0844187196" lon="-6.1874584761">
        <ele>365.92</ele>
        <time>2020-07-16T06:39:16Z</time>
      </trkpt>
      <trkpt lat="40.0844282750" lon="-6.1874319892">
        <ele>365.92</ele>
        <time>2020-07-16T06:39:23Z</time>
      </trkpt>
      <trkpt lat="40.0844341423" lon="-6.1874321569">
        <ele>365.92</ele>
        <time>2020-07-16T06:39:34Z</time>
      </trkpt>
      <trkpt lat="40.0844357349" lon="-6.1874384433">
        <ele>364.96</ele>
        <time>2020-07-16T06:39:49Z</time>
      </trkpt>
      <trkpt lat="40.0844483078" lon="-6.1874329112">
        <ele>364.96</ele>
        <time>2020-07-16T06:40:03Z</time>
      </trkpt>
      <trkpt lat="40.0846346375" lon="-6.1873546243">
        <ele>365.92</ele>
        <time>2020-07-16T06:40:13Z</time>
      </trkpt>
      <trkpt lat="40.0848945603" lon="-6.1873019021">
        <ele>366.40</ele>
        <time>2020-07-16T06:40:24Z</time>
      </trkpt>
      <trkpt lat="40.0851202849" lon="-6.1872167420">
        <ele>366.88</ele>
        <time>2020-07-16T06:40:33Z</time>
      </trkpt>
      <trkpt lat="40.0853755139" lon="-6.1870829668">
        <ele>366.88</ele>
        <time>2020-07-16T06:40:43Z</time>
      </trkpt>
      <trkpt lat="40.0855462532" lon="-6.1869294103">
        <ele>366.88</ele>
        <time>2020-07-16T06:40:51Z</time>
      </trkpt>
      <trkpt lat="40.0856747478" lon="-6.1868311744">
        <ele>366.88</ele>
        <time>2020-07-16T06:40:57Z</time>
      </trkpt>
      <trkpt lat="40.0858024042" lon="-6.1867298372">
        <ele>367.84</ele>
        <time>2020-07-16T06:41:06Z</time>
      </trkpt>
      <trkpt lat="40.0858111214" lon="-6.1867308430">
        <ele>367.84</ele>
        <time>2020-07-16T06:41:16Z</time>
      </trkpt>
      <trkpt lat="40.0858121272" lon="-6.1867279094">
        <ele>367.36</ele>
        <time>2020-07-16T06:41:30Z</time>
      </trkpt>
      <trkpt lat="40.0858526118" lon="-6.1867138278">
        <ele>366.88</ele>
        <time>2020-07-16T06:41:43Z</time>
      </trkpt>
      <trkpt lat="40.0860222615" lon="-6.1866831500">
        <ele>367.36</ele>
        <time>2020-07-16T06:41:52Z</time>
      </trkpt>
      <trkpt lat="40.0862090103" lon="-6.1866740976">
        <ele>368.32</ele>
        <time>2020-07-16T06:42:02Z</time>
      </trkpt>
      <trkpt lat="40.0862015504" lon="-6.1866671406">
        <ele>367.36</ele>
        <time>2020-07-16T06:42:08Z</time>
      </trkpt>
      <trkpt lat="40.0861778297" lon="-6.1866534781">
        <ele>367.36</ele>
        <time>2020-07-16T06:42:14Z</time>
      </trkpt>
      <trkpt lat="40.0861660950" lon="-6.1866552383">
        <ele>367.36</ele>
        <time>2020-07-16T06:42:15Z</time>
      </trkpt>
      <trkpt lat="40.0861560367" lon="-6.1866585072">
        <ele>367.36</ele>
        <time>2020-07-16T06:42:16Z</time>
      </trkpt>
      <trkpt lat="40.0861422066" lon="-6.1866626143">
        <ele>366.88</ele>
        <time>2020-07-16T06:42:17Z</time>
      </trkpt>
      <trkpt lat="40.0861251075" lon="-6.1866684817">
        <ele>367.36</ele>
        <time>2020-07-16T06:42:18Z</time>
      </trkpt>
      <trkpt lat="40.0861053262" lon="-6.1866725888">
        <ele>367.36</ele>
        <time>2020-07-16T06:42:19Z</time>
      </trkpt>
      <trkpt lat="40.0860863831" lon="-6.1866746843">
        <ele>366.88</ele>
        <time>2020-07-16T06:42:20Z</time>
      </trkpt>
      <trkpt lat="40.0859432202" lon="-6.1867067032">
        <ele>365.92</ele>
        <time>2020-07-16T06:42:27Z</time>
      </trkpt>
      <trkpt lat="40.0858258735" lon="-6.1867489479">
        <ele>365.44</ele>
        <time>2020-07-16T06:42:33Z</time>
      </trkpt>
      <trkpt lat="40.0857697986" lon="-6.1867532227">
        <ele>364.96</ele>
        <time>2020-07-16T06:42:37Z</time>
      </trkpt>
      <trkpt lat="40.0857620873" lon="-6.1867439188">
        <ele>365.44</ele>
        <time>2020-07-16T06:42:38Z</time>
      </trkpt>
      <trkpt lat="40.0857586507" lon="-6.1867308430">
        <ele>365.44</ele>
        <time>2020-07-16T06:42:39Z</time>
      </trkpt>
      <trkpt lat="40.0857593212" lon="-6.1867162585">
        <ele>365.44</ele>
        <time>2020-07-16T06:42:40Z</time>
      </trkpt>
      <trkpt lat="40.0857629254" lon="-6.1866999138">
        <ele>365.44</ele>
        <time>2020-07-16T06:42:41Z</time>
      </trkpt>
      <trkpt lat="40.0857633445" lon="-6.1866792105">
        <ele>365.44</ele>
        <time>2020-07-16T06:42:42Z</time>
      </trkpt>
      <trkpt lat="40.0857644342" lon="-6.1866603512">
        <ele>365.44</ele>
        <time>2020-07-16T06:42:43Z</time>
      </trkpt>
      <trkpt lat="40.0857676193" lon="-6.1866387259">
        <ele>364.96</ele>
        <time>2020-07-16T06:42:44Z</time>
      </trkpt>
      <trkpt lat="40.0857879873" lon="-6.1864339560">
        <ele>363.52</ele>
        <time>2020-07-16T06:42:49Z</time>
      </trkpt>
      <trkpt lat="40.0858191680" lon="-6.1863015220">
        <ele>364.00</ele>
        <time>2020-07-16T06:42:54Z</time>
      </trkpt>
      <trkpt lat="40.0858852174" lon="-6.1861006077">
        <ele>365.92</ele>
        <time>2020-07-16T06:43:03Z</time>
      </trkpt>
      <trkpt lat="40.0859584752" lon="-6.1859535053">
        <ele>366.88</ele>
        <time>2020-07-16T06:43:11Z</time>
      </trkpt>
      <trkpt lat="40.0860649254" lon="-6.1858181376">
        <ele>368.80</ele>
        <time>2020-07-16T06:43:19Z</time>
      </trkpt>
      <trkpt lat="40.0862143748" lon="-6.1856989469">
        <ele>370.24</ele>
        <time>2020-07-16T06:43:28Z</time>
      </trkpt>
      <trkpt lat="40.0863689370" lon="-6.1856053211">
        <ele>371.21</ele>
        <time>2020-07-16T06:43:37Z</time>
      </trkpt>
      <trkpt lat="40.0865272712" lon="-6.1854972783">
        <ele>372.17</ele>
        <time>2020-07-16T06:43:46Z</time>
      </trkpt>
      <trkpt lat="40.0866796542" lon="-6.1853852961">
        <ele>373.61</ele>
        <time>2020-07-16T06:43:55Z</time>
      </trkpt>
      <trkpt lat="40.0867777225" lon="-6.1852786783">
        <ele>374.09</ele>
        <time>2020-07-16T06:44:02Z</time>
      </trkpt>
      <trkpt lat="40.0869217236" lon="-6.1851816159">
        <ele>373.61</ele>
        <time>2020-07-16T06:44:10Z</time>
      </trkpt>
      <trkpt lat="40.0870868471" lon="-6.1850648560">
        <ele>373.13</ele>
        <time>2020-07-16T06:44:17Z</time>
      </trkpt>
      <trkpt lat="40.0873013400" lon="-6.1849630158">
        <ele>372.17</ele>
        <time>2020-07-16T06:44:26Z</time>
      </trkpt>
      <trkpt lat="40.0873932056" lon="-6.1848662049">
        <ele>371.69</ele>
        <time>2020-07-16T06:44:32Z</time>
      </trkpt>
      <trkpt lat="40.0874721631" lon="-6.1847893428">
        <ele>370.73</ele>
        <time>2020-07-16T06:44:37Z</time>
      </trkpt>
      <trkpt lat="40.0874744263" lon="-6.1847841460">
        <ele>370.24</ele>
        <time>2020-07-16T06:44:43Z</time>
      </trkpt>
      <trkpt lat="40.0875106361" lon="-6.1847923603">
        <ele>369.76</ele>
        <time>2020-07-16T06:44:49Z</time>
      </trkpt>
      <trkpt lat="40.0875380449" lon="-6.1847926117">
        <ele>369.76</ele>
        <time>2020-07-16T06:44:51Z</time>
      </trkpt>
      <trkpt lat="40.0875519589" lon="-6.1847821344">
        <ele>369.76</ele>
        <time>2020-07-16T06:44:52Z</time>
      </trkpt>
      <trkpt lat="40.0875657890" lon="-6.1847679690">
        <ele>369.76</ele>
        <time>2020-07-16T06:44:53Z</time>
      </trkpt>
      <trkpt lat="40.0875792000" lon="-6.1847525463">
        <ele>369.76</ele>
        <time>2020-07-16T06:44:54Z</time>
      </trkpt>
      <trkpt lat="40.0875919405" lon="-6.1847334355">
        <ele>369.28</ele>
        <time>2020-07-16T06:44:55Z</time>
      </trkpt>
      <trkpt lat="40.0876035914" lon="-6.1847110558">
        <ele>369.28</ele>
        <time>2020-07-16T06:44:56Z</time>
      </trkpt>
      <trkpt lat="40.0876124762" lon="-6.1846869998">
        <ele>369.28</ele>
        <time>2020-07-16T06:44:57Z</time>
      </trkpt>
      <trkpt lat="40.0876188464" lon="-6.1846645363">
        <ele>369.28</ele>
        <time>2020-07-16T06:44:58Z</time>
      </trkpt>
      <trkpt lat="40.0876870751" lon="-6.1845160089">
        <ele>369.76</ele>
        <time>2020-07-16T06:45:05Z</time>
      </trkpt>
      <trkpt lat="40.0878033321" lon="-6.1844252329">
        <ele>369.76</ele>
        <time>2020-07-16T06:45:12Z</time>
      </trkpt>
      <trkpt lat="40.0878466666" lon="-6.1843938008">
        <ele>370.24</ele>
        <time>2020-07-16T06:45:20Z</time>
      </trkpt>
      <trkpt lat="40.0879532006" lon="-6.1843097303">
        <ele>370.73</ele>
        <time>2020-07-16T06:45:27Z</time>
      </trkpt>
      <trkpt lat="40.0880639255" lon="-6.1842018552">
        <ele>372.17</ele>
        <time>2020-07-16T06:45:35Z</time>
      </trkpt>
      <trkpt lat="40.0881458167" lon="-6.1841033679">
        <ele>373.13</ele>
        <time>2020-07-16T06:45:44Z</time>
      </trkpt>
      <trkpt lat="40.0881581381" lon="-6.1841000989">
        <ele>372.65</ele>
        <time>2020-07-16T06:45:58Z</time>
      </trkpt>
      <trkpt lat="40.0881674420" lon="-6.1840964947">
        <ele>373.13</ele>
        <time>2020-07-16T06:46:16Z</time>
      </trkpt>
      <trkpt lat="40.0881665200" lon="-6.1840987578">
        <ele>374.09</ele>
        <time>2020-07-16T06:46:33Z</time>
      </trkpt>
      <trkpt lat="40.0881811883" lon="-6.1841011886">
        <ele>374.09</ele>
        <time>2020-07-16T06:46:43Z</time>
      </trkpt>
      <trkpt lat="40.0881806854" lon="-6.1841058824">
        <ele>373.61</ele>
        <time>2020-07-16T06:47:05Z</time>
      </trkpt>
      <trkpt lat="40.0881863013" lon="-6.1841125041">
        <ele>373.13</ele>
        <time>2020-07-16T06:47:21Z</time>
      </trkpt>
      <trkpt lat="40.0881843735" lon="-6.1841091514">
        <ele>372.17</ele>
        <time>2020-07-16T06:47:34Z</time>
      </trkpt>
      <trkpt lat="40.0882074237" lon="-6.1840380728">
        <ele>372.17</ele>
        <time>2020-07-16T06:47:43Z</time>
      </trkpt>
      <trkpt lat="40.0882609002" lon="-6.1839721911">
        <ele>373.61</ele>
        <time>2020-07-16T06:47:50Z</time>
      </trkpt>
      <trkpt lat="40.0882997923" lon="-6.1839571875">
        <ele>374.09</ele>
        <time>2020-07-16T06:47:55Z</time>
      </trkpt>
      <trkpt lat="40.0883298833" lon="-6.1839412618">
        <ele>374.57</ele>
        <time>2020-07-16T06:48:03Z</time>
      </trkpt>
      <trkpt lat="40.0883668475" lon="-6.1839329638">
        <ele>375.05</ele>
        <time>2020-07-16T06:48:12Z</time>
      </trkpt>
      <trkpt lat="40.0884639937" lon="-6.1839291919">
        <ele>375.53</ele>
        <time>2020-07-16T06:48:19Z</time>
      </trkpt>
      <trkpt lat="40.0885320548" lon="-6.1839199718">
        <ele>375.05</ele>
        <time>2020-07-16T06:48:26Z</time>
      </trkpt>
      <trkpt lat="40.0885359943" lon="-6.1839180440">
        <ele>374.57</ele>
        <time>2020-07-16T06:48:37Z</time>
      </trkpt>
      <trkpt lat="40.0885330606" lon="-6.1839082371">
        <ele>375.05</ele>
        <time>2020-07-16T06:48:51Z</time>
      </trkpt>
      <trkpt lat="40.0885567814" lon="-6.1839206424">
        <ele>373.61</ele>
        <time>2020-07-16T06:49:01Z</time>
      </trkpt>
      <trkpt lat="40.0886415225" lon="-6.1839032080">
        <ele>374.57</ele>
        <time>2020-07-16T06:49:07Z</time>
      </trkpt>
      <trkpt lat="40.0887629762" lon="-6.1838740390">
        <ele>375.53</ele>
        <time>2020-07-16T06:49:15Z</time>
      </trkpt>
      <trkpt lat="40.0889721047" lon="-6.1838181317">
        <ele>376.49</ele>
        <time>2020-07-16T06:49:26Z</time>
      </trkpt>
      <trkpt lat="40.0891184527" lon="-6.1837992724">
        <ele>376.01</ele>
        <time>2020-07-16T06:49:33Z</time>
      </trkpt>
      <trkpt lat="40.0893312693" lon="-6.1837309599">
        <ele>376.01</ele>
        <time>2020-07-16T06:49:41Z</time>
      </trkpt>
      <trkpt lat="40.0895100553" lon="-6.1836447101">
        <ele>376.49</ele>
        <time>2020-07-16T06:49:48Z</time>
      </trkpt>
      <trkpt lat="40.0897456706" lon="-6.1835374217">
        <ele>376.49</ele>
        <time>2020-07-16T06:49:57Z</time>
      </trkpt>
      <trkpt lat="40.0900330022" lon="-6.1834576260">
        <ele>376.49</ele>
        <time>2020-07-16T06:50:06Z</time>
      </trkpt>
      <trkpt lat="40.0902540330" lon="-6.1833568756">
        <ele>376.49</ele>
        <time>2020-07-16T06:50:14Z</time>
      </trkpt>
      <trkpt lat="40.0904349983" lon="-6.1833252758">
        <ele>376.49</ele>
        <time>2020-07-16T06:50:21Z</time>
      </trkpt>
      <trkpt lat="40.0904547796" lon="-6.1833322328">
        <ele>375.53</ele>
        <time>2020-07-16T06:50:25Z</time>
      </trkpt>
      <trkpt lat="40.0904753152" lon="-6.1833352502">
        <ele>376.01</ele>
        <time>2020-07-16T06:50:32Z</time>
      </trkpt>
      <trkpt lat="40.0905127823" lon="-6.1833489127">
        <ele>376.01</ele>
        <time>2020-07-16T06:50:39Z</time>
      </trkpt>
      <trkpt lat="40.0905991998" lon="-6.1833644193">
        <ele>376.97</ele>
        <time>2020-07-16T06:50:46Z</time>
      </trkpt>
      <trkpt lat="40.0906121917" lon="-6.1833641678">
        <ele>376.97</ele>
        <time>2020-07-16T06:50:47Z</time>
      </trkpt>
      <trkpt lat="40.0907505769" lon="-6.1833364237">
        <ele>377.94</ele>
        <time>2020-07-16T06:50:54Z</time>
      </trkpt>
      <trkpt lat="40.0910001062" lon="-6.1832312308">
        <ele>377.94</ele>
        <time>2020-07-16T06:51:05Z</time>
      </trkpt>
      <trkpt lat="40.0910418481" lon="-6.1832221784">
        <ele>378.42</ele>
        <time>2020-07-16T06:51:07Z</time>
      </trkpt>
      <trkpt lat="40.0910622161" lon="-6.1832256988">
        <ele>378.42</ele>
        <time>2020-07-16T06:51:08Z</time>
      </trkpt>
      <trkpt lat="40.0910825003" lon="-6.1832221784">
        <ele>378.42</ele>
        <time>2020-07-16T06:51:09Z</time>
      </trkpt>
      <trkpt lat="40.0912347157" lon="-6.1831898242">
        <ele>378.90</ele>
        <time>2020-07-16T06:51:17Z</time>
      </trkpt>
      <trkpt lat="40.0913752802" lon="-6.1831003055">
        <ele>379.38</ele>
        <time>2020-07-16T06:51:24Z</time>
      </trkpt>
      <trkpt lat="40.0915066246" lon="-6.1830612458">
        <ele>379.86</ele>
        <time>2020-07-16T06:51:31Z</time>
      </trkpt>
      <trkpt lat="40.0916579179" lon="-6.1830798537">
        <ele>380.82</ele>
        <time>2020-07-16T06:51:39Z</time>
      </trkpt>
      <trkpt lat="40.0918055233" lon="-6.1831521057">
        <ele>381.30</ele>
        <time>2020-07-16T06:51:46Z</time>
      </trkpt>
      <trkpt lat="40.0920308288" lon="-6.1831179913">
        <ele>380.82</ele>
        <time>2020-07-16T06:51:54Z</time>
      </trkpt>
      <trkpt lat="40.0922442321" lon="-6.1830608267">
        <ele>379.86</ele>
        <time>2020-07-16T06:52:02Z</time>
      </trkpt>
      <trkpt lat="40.0924735609" lon="-6.1829894967">
        <ele>379.38</ele>
        <time>2020-07-16T06:52:10Z</time>
      </trkpt>
      <trkpt lat="40.0927140377" lon="-6.1829174962">
        <ele>379.86</ele>
        <time>2020-07-16T06:52:18Z</time>
      </trkpt>
      <trkpt lat="40.0929136947" lon="-6.1828694679">
        <ele>380.34</ele>
        <time>2020-07-16T06:52:25Z</time>
      </trkpt>
      <trkpt lat="40.0931250863" lon="-6.1828190088">
        <ele>380.34</ele>
        <time>2020-07-16T06:52:33Z</time>
      </trkpt>
      <trkpt lat="40.0932384934" lon="-6.1826951243">
        <ele>380.82</ele>
        <time>2020-07-16T06:52:40Z</time>
      </trkpt>
      <trkpt lat="40.0933463685" lon="-6.1826163344">
        <ele>380.34</ele>
        <time>2020-07-16T06:52:45Z</time>
      </trkpt>
      <trkpt lat="40.0935080554" lon="-6.1825786997">
        <ele>380.82</ele>
        <time>2020-07-16T06:52:52Z</time>
      </trkpt>
      <trkpt lat="40.0936697423" lon="-6.1825289950">
        <ele>381.30</ele>
        <time>2020-07-16T06:53:00Z</time>
      </trkpt>
      <trkpt lat="40.0938528031" lon="-6.1825368740">
        <ele>382.26</ele>
        <time>2020-07-16T06:53:08Z</time>
      </trkpt>
      <trkpt lat="40.0939923618" lon="-6.1825358681">
        <ele>383.70</ele>
        <time>2020-07-16T06:53:15Z</time>
      </trkpt>
      <trkpt lat="40.0941290706" lon="-6.1825130694">
        <ele>384.66</ele>
        <time>2020-07-16T06:53:21Z</time>
      </trkpt>
      <trkpt lat="40.0942859799" lon="-6.1824699026">
        <ele>385.15</ele>
        <time>2020-07-16T06:53:28Z</time>
      </trkpt>
      <trkpt lat="40.0944215991" lon="-6.1824573297">
        <ele>384.66</ele>
        <time>2020-07-16T06:53:34Z</time>
      </trkpt>
      <trkpt lat="40.0945481658" lon="-6.1824549828">
        <ele>384.66</ele>
        <time>2020-07-16T06:53:39Z</time>
      </trkpt>
      <trkpt lat="40.0947578810" lon="-6.1824410688">
        <ele>384.18</ele>
        <time>2020-07-16T06:53:48Z</time>
      </trkpt>
      <trkpt lat="40.0949588791" lon="-6.1824288312">
        <ele>384.66</ele>
        <time>2020-07-16T06:53:56Z</time>
      </trkpt>
      <trkpt lat="40.0951480586" lon="-6.1823945493">
        <ele>385.15</ele>
        <time>2020-07-16T06:54:04Z</time>
      </trkpt>
      <trkpt lat="40.0954015274" lon="-6.1823758576">
        <ele>385.15</ele>
        <time>2020-07-16T06:54:13Z</time>
      </trkpt>
      <trkpt lat="40.0955777150" lon="-6.1823041923">
        <ele>385.63</ele>
        <time>2020-07-16T06:54:20Z</time>
      </trkpt>
      <trkpt lat="40.0957770366" lon="-6.1822419148">
        <ele>386.11</ele>
        <time>2020-07-16T06:54:27Z</time>
      </trkpt>
      <trkpt lat="40.0959944632" lon="-6.1821714230">
        <ele>387.07</ele>
        <time>2020-07-16T06:54:35Z</time>
      </trkpt>
      <trkpt lat="40.0962603372" lon="-6.1820504721">
        <ele>385.63</ele>
        <time>2020-07-16T06:54:44Z</time>
      </trkpt>
      <trkpt lat="40.0964753330" lon="-6.1819433514">
        <ele>385.63</ele>
        <time>2020-07-16T06:54:52Z</time>
      </trkpt>
      <trkpt lat="40.0965148117" lon="-6.1819197144">
        <ele>385.63</ele>
        <time>2020-07-16T06:54:57Z</time>
      </trkpt>
      <trkpt lat="40.0965366047" lon="-6.1819134280">
        <ele>386.11</ele>
        <time>2020-07-16T06:55:07Z</time>
      </trkpt>
      <trkpt lat="40.0966082700" lon="-6.1818740331">
        <ele>386.11</ele>
        <time>2020-07-16T06:55:13Z</time>
      </trkpt>
      <trkpt lat="40.0966165680" lon="-6.1818534974">
        <ele>386.11</ele>
        <time>2020-07-16T06:55:20Z</time>
      </trkpt>
      <trkpt lat="40.0966351759" lon="-6.1818273459">
        <ele>386.11</ele>
        <time>2020-07-16T06:55:23Z</time>
      </trkpt>
      <trkpt lat="40.0966355111" lon="-6.1818123423">
        <ele>386.11</ele>
        <time>2020-07-16T06:55:24Z</time>
      </trkpt>
      <trkpt lat="40.0966357626" lon="-6.1817968357">
        <ele>386.11</ele>
        <time>2020-07-16T06:55:25Z</time>
      </trkpt>
      <trkpt lat="40.0966332480" lon="-6.1817049701">
        <ele>385.63</ele>
        <time>2020-07-16T06:55:33Z</time>
      </trkpt>
      <trkpt lat="40.0966322422" lon="-6.1817165371">
        <ele>384.66</ele>
        <time>2020-07-16T06:55:42Z</time>
      </trkpt>
      <trkpt lat="40.0966298115" lon="-6.1817081552">
        <ele>383.22</ele>
        <time>2020-07-16T06:56:11Z</time>
      </trkpt>
      <trkpt lat="40.0966308173" lon="-6.1816891283">
        <ele>382.26</ele>
        <time>2020-07-16T06:56:31Z</time>
      </trkpt>
      <trkpt lat="40.0966428872" lon="-6.1816978455">
        <ele>384.18</ele>
        <time>2020-07-16T06:56:42Z</time>
      </trkpt>
      <trkpt lat="40.0966671109" lon="-6.1816911399">
        <ele>384.18</ele>
        <time>2020-07-16T06:56:52Z</time>
      </trkpt>
      <trkpt lat="40.0966764148" lon="-6.1816896312">
        <ele>384.18</ele>
        <time>2020-07-16T06:56:53Z</time>
      </trkpt>
      <trkpt lat="40.0968657620" lon="-6.1816229951">
        <ele>386.11</ele>
        <time>2020-07-16T06:57:03Z</time>
      </trkpt>
      <trkpt lat="40.0970567018" lon="-6.1815123539">
        <ele>386.11</ele>
        <time>2020-07-16T06:57:11Z</time>
      </trkpt>
      <trkpt lat="40.0972131919" lon="-6.1814254336">
        <ele>387.07</ele>
        <time>2020-07-16T06:57:18Z</time>
      </trkpt>
      <trkpt lat="40.0973808300" lon="-6.1813069135">
        <ele>388.03</ele>
        <time>2020-07-16T06:57:26Z</time>
      </trkpt>
      <trkpt lat="40.0975396670" lon="-6.1813224200">
        <ele>388.99</ele>
        <time>2020-07-16T06:57:33Z</time>
      </trkpt>
      <trkpt lat="40.0977210514" lon="-6.1813102663">
        <ele>389.47</ele>
        <time>2020-07-16T06:57:42Z</time>
      </trkpt>
      <trkpt lat="40.0978874322" lon="-6.1812674347">
        <ele>390.43</ele>
        <time>2020-07-16T06:57:50Z</time>
      </trkpt>
      <trkpt lat="40.0980370492" lon="-6.1812047381">
        <ele>390.43</ele>
        <time>2020-07-16T06:57:57Z</time>
      </trkpt>
      <trkpt lat="40.0982277375" lon="-6.1811083462">
        <ele>389.95</ele>
        <time>2020-07-16T06:58:05Z</time>
      </trkpt>
      <trkpt lat="40.0984180067" lon="-6.1809707992">
        <ele>390.43</ele>
        <time>2020-07-16T06:58:13Z</time>
      </trkpt>
      <trkpt lat="40.0986323319" lon="-6.1809088569">
        <ele>390.43</ele>
        <time>2020-07-16T06:58:22Z</time>
      </trkpt>
      <trkpt lat="40.0988321565" lon="-6.1808262952">
        <ele>391.39</ele>
        <time>2020-07-16T06:58:31Z</time>
      </trkpt>
      <trkpt lat="40.0990296341" lon="-6.1807247065">
        <ele>391.39</ele>
        <time>2020-07-16T06:58:39Z</time>
      </trkpt>
      <trkpt lat="40.0992041454" lon="-6.1806601658">
        <ele>391.87</ele>
        <time>2020-07-16T06:58:47Z</time>
      </trkpt>
      <trkpt lat="40.0993281975" lon="-6.1806816235">
        <ele>391.39</ele>
        <time>2020-07-16T06:58:53Z</time>
      </trkpt>
      <trkpt lat="40.0993491523" lon="-6.1806744989">
        <ele>391.39</ele>
        <time>2020-07-16T06:58:54Z</time>
      </trkpt>
      <trkpt lat="40.0993665028" lon="-6.1806630995">
        <ele>391.39</ele>
        <time>2020-07-16T06:58:55Z</time>
      </trkpt>
      <trkpt lat="40.0993838534" lon="-6.1806496885">
        <ele>391.87</ele>
        <time>2020-07-16T06:58:56Z</time>
      </trkpt>
      <trkpt lat="40.0994064845" lon="-6.1806387082">
        <ele>391.87</ele>
        <time>2020-07-16T06:58:57Z</time>
      </trkpt>
      <trkpt lat="40.0994265173" lon="-6.1806317512">
        <ele>392.36</ele>
        <time>2020-07-16T06:58:58Z</time>
      </trkpt>
      <trkpt lat="40.0994473882" lon="-6.1806267221">
        <ele>392.36</ele>
        <time>2020-07-16T06:58:59Z</time>
      </trkpt>
      <trkpt lat="40.0994675886" lon="-6.1806226149">
        <ele>392.84</ele>
        <time>2020-07-16T06:59:00Z</time>
      </trkpt>
      <trkpt lat="40.0994867831" lon="-6.1806181725">
        <ele>392.84</ele>
        <time>2020-07-16T06:59:01Z</time>
      </trkpt>
      <trkpt lat="40.0995077379" lon="-6.1806079466">
        <ele>392.84</ele>
        <time>2020-07-16T06:59:02Z</time>
      </trkpt>
      <trkpt lat="40.0995294470" lon="-6.1805956252">
        <ele>392.84</ele>
        <time>2020-07-16T06:59:03Z</time>
      </trkpt>
      <trkpt lat="40.0995457079" lon="-6.1805775203">
        <ele>392.84</ele>
        <time>2020-07-16T06:59:04Z</time>
      </trkpt>
      <trkpt lat="40.0995632261" lon="-6.1805607565">
        <ele>392.84</ele>
        <time>2020-07-16T06:59:05Z</time>
      </trkpt>
      <trkpt lat="40.0995802414" lon="-6.1805470940">
        <ele>393.32</ele>
        <time>2020-07-16T06:59:06Z</time>
      </trkpt>
      <trkpt lat="40.0995993521" lon="-6.1805349402">
        <ele>393.32</ele>
        <time>2020-07-16T06:59:07Z</time>
      </trkpt>
      <trkpt lat="40.0996167865" lon="-6.1805264745">
        <ele>393.80</ele>
        <time>2020-07-16T06:59:08Z</time>
      </trkpt>
      <trkpt lat="40.0996337179" lon="-6.1805191822">
        <ele>393.80</ele>
        <time>2020-07-16T06:59:09Z</time>
      </trkpt>
      <trkpt lat="40.0997797307" lon="-6.1804945394">
        <ele>393.80</ele>
        <time>2020-07-16T06:59:16Z</time>
      </trkpt>
      <trkpt lat="40.0999946427" lon="-6.1804298311">
        <ele>394.28</ele>
        <time>2020-07-16T06:59:26Z</time>
      </trkpt>
      <trkpt lat="40.1001909468" lon="-6.1804008298">
        <ele>395.24</ele>
        <time>2020-07-16T06:59:35Z</time>
      </trkpt>
      <trkpt lat="40.1002740115" lon="-6.1803535558">
        <ele>394.76</ele>
        <time>2020-07-16T06:59:39Z</time>
      </trkpt>
      <trkpt lat="40.1002905238" lon="-6.1803336907">
        <ele>394.76</ele>
        <time>2020-07-16T06:59:40Z</time>
      </trkpt>
      <trkpt lat="40.1003089640" lon="-6.1803164240">
        <ele>395.24</ele>
        <time>2020-07-16T06:59:41Z</time>
      </trkpt>
      <trkpt lat="40.1003283262" lon="-6.1803042702">
        <ele>395.24</ele>
        <time>2020-07-16T06:59:42Z</time>
      </trkpt>
      <trkpt lat="40.1003502030" lon="-6.1802962236">
        <ele>395.24</ele>
        <time>2020-07-16T06:59:43Z</time>
      </trkpt>
      <trkpt lat="40.1003709063" lon="-6.1802913621">
        <ele>395.24</ele>
        <time>2020-07-16T06:59:44Z</time>
      </trkpt>
      <trkpt lat="40.1003911905" lon="-6.1802890990">
        <ele>395.72</ele>
        <time>2020-07-16T06:59:45Z</time>
      </trkpt>
      <trkpt lat="40.1004108880" lon="-6.1802889314">
        <ele>395.72</ele>
        <time>2020-07-16T06:59:46Z</time>
      </trkpt>
      <trkpt lat="40.1005351916" lon="-6.1802240554">
        <ele>396.68</ele>
        <time>2020-07-16T06:59:53Z</time>
      </trkpt>
      <trkpt lat="40.1006869040" lon="-6.1801775359">
        <ele>397.64</ele>
        <time>2020-07-16T07:00:01Z</time>
      </trkpt>
      <trkpt lat="40.1008184999" lon="-6.1801109836">
        <ele>397.16</ele>
        <time>2020-07-16T07:00:08Z</time>
      </trkpt>
      <trkpt lat="40.1009650156" lon="-6.1800740194">
        <ele>397.16</ele>
        <time>2020-07-16T07:00:16Z</time>
      </trkpt>
      <trkpt lat="40.1011148840" lon="-6.1800521426">
        <ele>397.64</ele>
        <time>2020-07-16T07:00:24Z</time>
      </trkpt>
      <trkpt lat="40.1011313125" lon="-6.1800419167">
        <ele>397.64</ele>
        <time>2020-07-16T07:00:25Z</time>
      </trkpt>
      <trkpt lat="40.1011480764" lon="-6.1800315231">
        <ele>397.64</ele>
        <time>2020-07-16T07:00:26Z</time>
      </trkpt>
      <trkpt lat="40.1011658460" lon="-6.1800201237">
        <ele>397.64</ele>
        <time>2020-07-16T07:00:27Z</time>
      </trkpt>
      <trkpt lat="40.1011852082" lon="-6.1800105684">
        <ele>397.64</ele>
        <time>2020-07-16T07:00:28Z</time>
      </trkpt>
      <trkpt lat="40.1012047380" lon="-6.1800043657">
        <ele>398.12</ele>
        <time>2020-07-16T07:00:29Z</time>
      </trkpt>
      <trkpt lat="40.1012243517" lon="-6.1799979117">
        <ele>398.12</ele>
        <time>2020-07-16T07:00:30Z</time>
      </trkpt>
      <trkpt lat="40.1012450550" lon="-6.1799910385">
        <ele>398.12</ele>
        <time>2020-07-16T07:00:31Z</time>
      </trkpt>
      <trkpt lat="40.1013939176" lon="-6.1799259949">
        <ele>399.08</ele>
        <time>2020-07-16T07:00:39Z</time>
      </trkpt>
      <trkpt lat="40.1015043911" lon="-6.1798457801">
        <ele>399.57</ele>
        <time>2020-07-16T07:00:46Z</time>
      </trkpt>
      <trkpt lat="40.1016094163" lon="-6.1798315309">
        <ele>400.53</ele>
        <time>2020-07-16T07:00:53Z</time>
      </trkpt>
      <trkpt lat="40.1017229073" lon="-6.1798826605">
        <ele>400.53</ele>
        <time>2020-07-16T07:01:00Z</time>
      </trkpt>
      <trkpt lat="40.1018123422" lon="-6.1799043696">
        <ele>401.01</ele>
        <time>2020-07-16T07:01:06Z</time>
      </trkpt>
      <trkpt lat="40.1018283516" lon="-6.1799027771">
        <ele>401.01</ele>
        <time>2020-07-16T07:01:07Z</time>
      </trkpt>
      <trkpt lat="40.1018462051" lon="-6.1799019389">
        <ele>401.01</ele>
        <time>2020-07-16T07:01:08Z</time>
      </trkpt>
      <trkpt lat="40.1020022761" lon="-6.1798850074">
        <ele>401.97</ele>
        <time>2020-07-16T07:01:17Z</time>
      </trkpt>
      <trkpt lat="40.1021399908" lon="-6.1798675731">
        <ele>402.93</ele>
        <time>2020-07-16T07:01:23Z</time>
      </trkpt>
      <trkpt lat="40.1022718381" lon="-6.1798235681">
        <ele>403.41</ele>
        <time>2020-07-16T07:01:29Z</time>
      </trkpt>
      <trkpt lat="40.1024392247" lon="-6.1797721032">
        <ele>402.93</ele>
        <time>2020-07-16T07:01:36Z</time>
      </trkpt>
      <trkpt lat="40.1026020851" lon="-6.1797364801">
        <ele>402.45</ele>
        <time>2020-07-16T07:01:44Z</time>
      </trkpt>
      <trkpt lat="40.1027321722" lon="-6.1797169503">
        <ele>403.41</ele>
        <time>2020-07-16T07:01:51Z</time>
      </trkpt>
      <trkpt lat="40.1028739940" lon="-6.1797001865">
        <ele>404.37</ele>
        <time>2020-07-16T07:01:58Z</time>
      </trkpt>
      <trkpt lat="40.1030696277" lon="-6.1796517391">
        <ele>403.89</ele>
        <time>2020-07-16T07:02:06Z</time>
      </trkpt>
      <trkpt lat="40.1032883115" lon="-6.1796017829">
        <ele>403.89</ele>
        <time>2020-07-16T07:02:13Z</time>
      </trkpt>
      <trkpt lat="40.1035099290" lon="-6.1795842648">
        <ele>402.45</ele>
        <time>2020-07-16T07:02:21Z</time>
      </trkpt>
      <trkpt lat="40.1037380006" lon="-6.1794923991">
        <ele>401.49</ele>
        <time>2020-07-16T07:02:28Z</time>
      </trkpt>
      <trkpt lat="40.1039314549" lon="-6.1794570275">
        <ele>401.01</ele>
        <time>2020-07-16T07:02:35Z</time>
      </trkpt>
      <trkpt lat="40.1041731052" lon="-6.1794061493">
        <ele>401.97</ele>
        <time>2020-07-16T07:02:43Z</time>
      </trkpt>
      <trkpt lat="40.1044488698" lon="-6.1793452129">
        <ele>402.93</ele>
        <time>2020-07-16T07:02:52Z</time>
      </trkpt>
      <trkpt lat="40.1046753488" lon="-6.1793486495">
        <ele>403.41</ele>
        <time>2020-07-16T07:03:00Z</time>
      </trkpt>
      <trkpt lat="40.1048636064" lon="-6.1793128587">
        <ele>404.85</ele>
        <time>2020-07-16T07:03:08Z</time>
      </trkpt>
      <trkpt lat="40.1049485151" lon="-6.1793188937">
        <ele>406.29</ele>
        <time>2020-07-16T07:03:13Z</time>
      </trkpt>
      <trkpt lat="40.1049619261" lon="-6.1793113500">
        <ele>406.29</ele>
        <time>2020-07-16T07:03:14Z</time>
      </trkpt>
      <trkpt lat="40.1049779356" lon="-6.1793020461">
        <ele>406.77</ele>
        <time>2020-07-16T07:03:15Z</time>
      </trkpt>
      <trkpt lat="40.1050876547" lon="-6.1792658363">
        <ele>407.74</ele>
        <time>2020-07-16T07:03:23Z</time>
      </trkpt>
      <trkpt lat="40.1051506866" lon="-6.1792597175">
        <ele>407.26</ele>
        <time>2020-07-16T07:03:37Z</time>
      </trkpt>
      <trkpt lat="40.1051627565" lon="-6.1792598851">
        <ele>407.26</ele>
        <time>2020-07-16T07:03:38Z</time>
      </trkpt>
      <trkpt lat="40.1052862220" lon="-6.1792759784">
        <ele>406.29</ele>
        <time>2020-07-16T07:03:46Z</time>
      </trkpt>
      <trkpt lat="40.1054398622" lon="-6.1792888027">
        <ele>405.81</ele>
        <time>2020-07-16T07:03:52Z</time>
      </trkpt>
      <trkpt lat="40.1054589730" lon="-6.1792826839">
        <ele>405.81</ele>
        <time>2020-07-16T07:03:53Z</time>
      </trkpt>
      <trkpt lat="40.1054733898" lon="-6.1792734638">
        <ele>405.33</ele>
        <time>2020-07-16T07:03:54Z</time>
      </trkpt>
      <trkpt lat="40.1055033971" lon="-6.1792572029">
        <ele>404.85</ele>
        <time>2020-07-16T07:04:00Z</time>
      </trkpt>
      <trkpt lat="40.1055052411" lon="-6.1792685185">
        <ele>404.85</ele>
        <time>2020-07-16T07:04:19Z</time>
      </trkpt>
      <trkpt lat="40.1055625733" lon="-6.1792132817">
        <ele>404.37</ele>
        <time>2020-07-16T07:04:28Z</time>
      </trkpt>
      <trkpt lat="40.1056492422" lon="-6.1791698635">
        <ele>404.85</ele>
        <time>2020-07-16T07:04:36Z</time>
      </trkpt>
      <trkpt lat="40.1056491584" lon="-6.1791730486">
        <ele>404.85</ele>
        <time>2020-07-16T07:04:48Z</time>
      </trkpt>
      <trkpt lat="40.1056563668" lon="-6.1791623197">
        <ele>405.33</ele>
        <time>2020-07-16T07:05:04Z</time>
      </trkpt>
      <trkpt lat="40.1056772377" lon="-6.1791519262">
        <ele>405.33</ele>
        <time>2020-07-16T07:05:13Z</time>
      </trkpt>
      <trkpt lat="40.1057432033" lon="-6.1791126989">
        <ele>403.89</ele>
        <time>2020-07-16T07:05:20Z</time>
      </trkpt>
      <trkpt lat="40.1057971828" lon="-6.1790691130">
        <ele>403.89</ele>
        <time>2020-07-16T07:05:24Z</time>
      </trkpt>
      <trkpt lat="40.1058088336" lon="-6.1790466495">
        <ele>404.37</ele>
        <time>2020-07-16T07:05:25Z</time>
      </trkpt>
      <trkpt lat="40.1058204845" lon="-6.1790218391">
        <ele>404.37</ele>
        <time>2020-07-16T07:05:26Z</time>
      </trkpt>
      <trkpt lat="40.1058339793" lon="-6.1789933406">
        <ele>403.89</ele>
        <time>2020-07-16T07:05:27Z</time>
      </trkpt>
      <trkpt lat="40.1059523318" lon="-6.1788639240">
        <ele>403.41</ele>
        <time>2020-07-16T07:05:35Z</time>
      </trkpt>
      <trkpt lat="40.1061659865" lon="-6.1788182426">
        <ele>402.93</ele>
        <time>2020-07-16T07:05:42Z</time>
      </trkpt>
      <trkpt lat="40.1064113248" lon="-6.1788536981">
        <ele>401.97</ele>
        <time>2020-07-16T07:05:50Z</time>
      </trkpt>
      <trkpt lat="40.1065811422" lon="-6.1789178196">
        <ele>401.97</ele>
        <time>2020-07-16T07:05:56Z</time>
      </trkpt>
      <trkpt lat="40.1068881713" lon="-6.1789527722">
        <ele>402.45</ele>
        <time>2020-07-16T07:06:07Z</time>
      </trkpt>
      <trkpt lat="40.1070599165" lon="-6.1788784247">
        <ele>403.41</ele>
        <time>2020-07-16T07:06:13Z</time>
      </trkpt>
      <trkpt lat="40.1072915085" lon="-6.1788421310">
        <ele>403.89</ele>
        <time>2020-07-16T07:06:22Z</time>
      </trkpt>
      <trkpt lat="40.1075349189" lon="-6.1788091063">
        <ele>404.85</ele>
        <time>2020-07-16T07:06:31Z</time>
      </trkpt>
      <trkpt lat="40.1077038981" lon="-6.1787461583">
        <ele>405.81</ele>
        <time>2020-07-16T07:06:38Z</time>
      </trkpt>
      <trkpt lat="40.1077271998" lon="-6.1787526961">
        <ele>405.81</ele>
        <time>2020-07-16T07:06:39Z</time>
      </trkpt>
      <trkpt lat="40.1077514235" lon="-6.1787604075">
        <ele>405.81</ele>
        <time>2020-07-16T07:06:40Z</time>
      </trkpt>
      <trkpt lat="40.1077794190" lon="-6.1787610780">
        <ele>405.81</ele>
        <time>2020-07-16T07:06:41Z</time>
      </trkpt>
      <trkpt lat="40.1078054029" lon="-6.1787531152">
        <ele>406.29</ele>
        <time>2020-07-16T07:06:42Z</time>
      </trkpt>
      <trkpt lat="40.1078259386" lon="-6.1787328310">
        <ele>406.29</ele>
        <time>2020-07-16T07:06:43Z</time>
      </trkpt>
      <trkpt lat="40.1078444626" lon="-6.1787079368">
        <ele>406.29</ele>
        <time>2020-07-16T07:06:44Z</time>
      </trkpt>
      <trkpt lat="40.1079448778" lon="-6.1786094494">
        <ele>407.26</ele>
        <time>2020-07-16T07:06:49Z</time>
      </trkpt>
      <trkpt lat="40.1081405114" lon="-6.1785574816">
        <ele>407.74</ele>
        <time>2020-07-16T07:06:56Z</time>
      </trkpt>
      <trkpt lat="40.1082034595" lon="-6.1785501894">
        <ele>407.26</ele>
        <time>2020-07-16T07:06:59Z</time>
      </trkpt>
      <trkpt lat="40.1082210615" lon="-6.1785481777">
        <ele>407.26</ele>
        <time>2020-07-16T07:07:00Z</time>
      </trkpt>
      <trkpt lat="40.1082432736" lon="-6.1785531230">
        <ele>406.77</ele>
        <time>2020-07-16T07:07:01Z</time>
      </trkpt>
      <trkpt lat="40.1084312797" lon="-6.1786068510">
        <ele>406.77</ele>
        <time>2020-07-16T07:07:08Z</time>
      </trkpt>
      <trkpt lat="40.1084660646" lon="-6.1786262970">
        <ele>406.29</ele>
        <time>2020-07-16T07:07:10Z</time>
      </trkpt>
      <trkpt lat="40.1084884442" lon="-6.1786279734">
        <ele>406.29</ele>
        <time>2020-07-16T07:07:11Z</time>
      </trkpt>
      <trkpt lat="40.1085102372" lon="-6.1786259618">
        <ele>406.77</ele>
        <time>2020-07-16T07:07:12Z</time>
      </trkpt>
      <trkpt lat="40.1085294317" lon="-6.1786177475">
        <ele>406.77</ele>
        <time>2020-07-16T07:07:13Z</time>
      </trkpt>
      <trkpt lat="40.1085518952" lon="-6.1786031630">
        <ele>406.77</ele>
        <time>2020-07-16T07:07:14Z</time>
      </trkpt>
      <trkpt lat="40.1087399013" lon="-6.1785245407">
        <ele>407.26</ele>
        <time>2020-07-16T07:07:21Z</time>
      </trkpt>
      <trkpt lat="40.1089175139" lon="-6.1784508638">
        <ele>407.26</ele>
        <time>2020-07-16T07:07:28Z</time>
      </trkpt>
      <trkpt lat="40.1091186795" lon="-6.1784220301">
        <ele>407.74</ele>
        <time>2020-07-16T07:07:36Z</time>
      </trkpt>
      <trkpt lat="40.1093185041" lon="-6.1783215310">
        <ele>407.74</ele>
        <time>2020-07-16T07:07:44Z</time>
      </trkpt>
      <trkpt lat="40.1094899140" lon="-6.1782318447">
        <ele>409.18</ele>
        <time>2020-07-16T07:07:52Z</time>
      </trkpt>
      <trkpt lat="40.1096499246" lon="-6.1781677231">
        <ele>410.62</ele>
        <time>2020-07-16T07:08:00Z</time>
      </trkpt>
      <trkpt lat="40.1098675188" lon="-6.1780903582">
        <ele>411.10</ele>
        <time>2020-07-16T07:08:10Z</time>
      </trkpt>
      <trkpt lat="40.1099895593" lon="-6.1780742649">
        <ele>409.66</ele>
        <time>2020-07-16T07:08:17Z</time>
      </trkpt>
      <trkpt lat="40.1101797447" lon="-6.1779673118">
        <ele>410.62</ele>
        <time>2020-07-16T07:08:26Z</time>
      </trkpt>
      <trkpt lat="40.1102980133" lon="-6.1779042799">
        <ele>412.06</ele>
        <time>2020-07-16T07:08:33Z</time>
      </trkpt>
      <trkpt lat="40.1103794854" lon="-6.1778252386">
        <ele>413.02</ele>
        <time>2020-07-16T07:08:39Z</time>
      </trkpt>
      <trkpt lat="40.1104842592" lon="-6.1776845902">
        <ele>413.98</ele>
        <time>2020-07-16T07:08:46Z</time>
      </trkpt>
      <trkpt lat="40.1106321160" lon="-6.1775571015">
        <ele>414.95</ele>
        <time>2020-07-16T07:08:54Z</time>
      </trkpt>
      <trkpt lat="40.1108189486" lon="-6.1774891242">
        <ele>414.95</ele>
        <time>2020-07-16T07:09:03Z</time>
      </trkpt>
      <trkpt lat="40.1109699067" lon="-6.1775242444">
        <ele>414.47</ele>
        <time>2020-07-16T07:09:11Z</time>
      </trkpt>
      <trkpt lat="40.1111621875" lon="-6.1775550060">
        <ele>415.91</ele>
        <time>2020-07-16T07:09:20Z</time>
      </trkpt>
      <trkpt lat="40.1112659555" lon="-6.1775647290">
        <ele>416.39</ele>
        <time>2020-07-16T07:09:25Z</time>
      </trkpt>
      <trkpt lat="40.1113375369" lon="-6.1775418464">
        <ele>416.39</ele>
        <time>2020-07-16T07:09:29Z</time>
      </trkpt>
      <trkpt lat="40.1113646105" lon="-6.1775324587">
        <ele>416.39</ele>
        <time>2020-07-16T07:09:31Z</time>
      </trkpt>
      <trkpt lat="40.1114313304" lon="-6.1775454506">
        <ele>416.87</ele>
        <time>2020-07-16T07:09:38Z</time>
      </trkpt>
      <trkpt lat="40.1114342641" lon="-6.1775348894">
        <ele>415.43</ele>
        <time>2020-07-16T07:09:45Z</time>
      </trkpt>
      <trkpt lat="40.1114325039" lon="-6.1775514856">
        <ele>415.43</ele>
        <time>2020-07-16T07:09:56Z</time>
      </trkpt>
      <trkpt lat="40.1114141475" lon="-6.1775401700">
        <ele>414.95</ele>
        <time>2020-07-16T07:10:07Z</time>
      </trkpt>
      <trkpt lat="40.1114080288" lon="-6.1775341351">
        <ele>414.47</ele>
        <time>2020-07-16T07:10:24Z</time>
      </trkpt>
      <trkpt lat="40.1114190929" lon="-6.1775458697">
        <ele>415.91</ele>
        <time>2020-07-16T07:10:39Z</time>
      </trkpt>
      <trkpt lat="40.1114163268" lon="-6.1775283515">
        <ele>416.39</ele>
        <time>2020-07-16T07:10:41Z</time>
      </trkpt>
      <trkpt lat="40.1113548037" lon="-6.1775124259">
        <ele>415.91</ele>
        <time>2020-07-16T07:10:50Z</time>
      </trkpt>
      <trkpt lat="40.1113540493" lon="-6.1775151920">
        <ele>415.91</ele>
        <time>2020-07-16T07:10:55Z</time>
      </trkpt>
      <trkpt lat="40.1114967093" lon="-6.1775555927">
        <ele>415.91</ele>
        <time>2020-07-16T07:11:03Z</time>
      </trkpt>
      <trkpt lat="40.1117095258" lon="-6.1775275134">
        <ele>416.39</ele>
        <time>2020-07-16T07:11:11Z</time>
      </trkpt>
      <trkpt lat="40.1117774192" lon="-6.1774798203">
        <ele>417.83</ele>
        <time>2020-07-16T07:11:17Z</time>
      </trkpt>
      <trkpt lat="40.1117585599" lon="-6.1774719413">
        <ele>417.35</ele>
        <time>2020-07-16T07:11:20Z</time>
      </trkpt>
      <trkpt lat="40.1117489208" lon="-6.1774809938">
        <ele>417.35</ele>
        <time>2020-07-16T07:11:21Z</time>
      </trkpt>
      <trkpt lat="40.1117356773" lon="-6.1774915550">
        <ele>417.35</ele>
        <time>2020-07-16T07:11:22Z</time>
      </trkpt>
      <trkpt lat="40.1117205899" lon="-6.1774983443">
        <ele>417.35</ele>
        <time>2020-07-16T07:11:23Z</time>
      </trkpt>
      <trkpt lat="40.1116999704" lon="-6.1775078997">
        <ele>417.35</ele>
        <time>2020-07-16T07:11:24Z</time>
      </trkpt>
      <trkpt lat="40.1116771717" lon="-6.1775198020">
        <ele>417.35</ele>
        <time>2020-07-16T07:11:25Z</time>
      </trkpt>
      <trkpt lat="40.1116511039" lon="-6.1775306985">
        <ele>417.35</ele>
        <time>2020-07-16T07:11:26Z</time>
      </trkpt>
      <trkpt lat="40.1116262935" lon="-6.1775405891">
        <ele>417.35</ele>
        <time>2020-07-16T07:11:27Z</time>
      </trkpt>
      <trkpt lat="40.1114497706" lon="-6.1775506474">
        <ele>416.87</ele>
        <time>2020-07-16T07:11:35Z</time>
      </trkpt>
      <trkpt lat="40.1114558056" lon="-6.1775561795">
        <ele>416.39</ele>
        <time>2020-07-16T07:11:44Z</time>
      </trkpt>
      <trkpt lat="40.1114591584" lon="-6.1775469594">
        <ele>417.35</ele>
        <time>2020-07-16T07:12:04Z</time>
      </trkpt>
      <trkpt lat="40.1114492677" lon="-6.1775571015">
        <ele>416.39</ele>
        <time>2020-07-16T07:12:17Z</time>
      </trkpt>
      <trkpt lat="40.1114413049" lon="-6.1775503121">
        <ele>416.39</ele>
        <time>2020-07-16T07:12:33Z</time>
      </trkpt>
      <trkpt lat="40.1114574820" lon="-6.1775413435">
        <ele>416.87</ele>
        <time>2020-07-16T07:12:41Z</time>
      </trkpt>
      <trkpt lat="40.1114713959" lon="-6.1775374040">
        <ele>416.87</ele>
        <time>2020-07-16T07:12:47Z</time>
      </trkpt>
      <trkpt lat="40.1114850584" lon="-6.1775389966">
        <ele>416.87</ele>
        <time>2020-07-16T07:12:48Z</time>
      </trkpt>
      <trkpt lat="40.1116349269" lon="-6.1775479652">
        <ele>416.87</ele>
        <time>2020-07-16T07:12:54Z</time>
      </trkpt>
      <trkpt lat="40.1118845399" lon="-6.1773960851">
        <ele>417.83</ele>
        <time>2020-07-16T07:13:04Z</time>
      </trkpt>
      <trkpt lat="40.1119131222" lon="-6.1773804948">
        <ele>417.83</ele>
        <time>2020-07-16T07:13:09Z</time>
      </trkpt>
      <trkpt lat="40.1119141281" lon="-6.1773745436">
        <ele>417.83</ele>
        <time>2020-07-16T07:13:23Z</time>
      </trkpt>
      <trkpt lat="40.1119406149" lon="-6.1773711070">
        <ele>418.79</ele>
        <time>2020-07-16T07:13:37Z</time>
      </trkpt>
      <trkpt lat="40.1120876335" lon="-6.1772758886">
        <ele>419.27</ele>
        <time>2020-07-16T07:13:44Z</time>
      </trkpt>
      <trkpt lat="40.1122522540" lon="-6.1771627329">
        <ele>419.75</ele>
        <time>2020-07-16T07:13:50Z</time>
      </trkpt>
      <trkpt lat="40.1125082374" lon="-6.1770737171">
        <ele>419.27</ele>
        <time>2020-07-16T07:13:58Z</time>
      </trkpt>
      <trkpt lat="40.1127510611" lon="-6.1769771576">
        <ele>418.79</ele>
        <time>2020-07-16T07:14:06Z</time>
      </trkpt>
      <trkpt lat="40.1130175218" lon="-6.1767329089">
        <ele>417.35</ele>
        <time>2020-07-16T07:14:15Z</time>
      </trkpt>
      <trkpt lat="40.1130668912" lon="-6.1766387802">
        <ele>416.87</ele>
        <time>2020-07-16T07:14:17Z</time>
      </trkpt>
      <trkpt lat="40.1131751854" lon="-6.1763514485">
        <ele>416.39</ele>
        <time>2020-07-16T07:14:23Z</time>
      </trkpt>
      <trkpt lat="40.1132046059" lon="-6.1763093714">
        <ele>416.39</ele>
        <time>2020-07-16T07:14:24Z</time>
      </trkpt>
      <trkpt lat="40.1132441685" lon="-6.1762659531">
        <ele>416.39</ele>
        <time>2020-07-16T07:14:25Z</time>
      </trkpt>
      <trkpt lat="40.1133247185" lon="-6.1761924438">
        <ele>415.43</ele>
        <time>2020-07-16T07:14:27Z</time>
      </trkpt>
      <trkpt lat="40.1133724954" lon="-6.1761600897">
        <ele>414.95</ele>
        <time>2020-07-16T07:14:28Z</time>
      </trkpt>
      <trkpt lat="40.1138002239" lon="-6.1758523062">
        <ele>413.98</ele>
        <time>2020-07-16T07:14:37Z</time>
      </trkpt>
      <trkpt lat="40.1140678581" lon="-6.1756565887">
        <ele>414.47</ele>
        <time>2020-07-16T07:14:44Z</time>
      </trkpt>
      <trkpt lat="40.1141059957" lon="-6.1756482068">
        <ele>414.47</ele>
        <time>2020-07-16T07:14:45Z</time>
      </trkpt>
      <trkpt lat="40.1144061517" lon="-6.1755451094">
        <ele>413.98</ele>
        <time>2020-07-16T07:14:53Z</time>
      </trkpt>
      <trkpt lat="40.1146747917" lon="-6.1753487214">
        <ele>414.47</ele>
        <time>2020-07-16T07:15:02Z</time>
      </trkpt>
      <trkpt lat="40.1148667373" lon="-6.1750681791">
        <ele>414.95</ele>
        <time>2020-07-16T07:15:10Z</time>
      </trkpt>
      <trkpt lat="40.1150171086" lon="-6.1748384312">
        <ele>414.95</ele>
        <time>2020-07-16T07:15:17Z</time>
      </trkpt>
      <trkpt lat="40.1150753628" lon="-6.1747718789">
        <ele>414.47</ele>
        <time>2020-07-16T07:15:19Z</time>
      </trkpt>
      <trkpt lat="40.1151122432" lon="-6.1747502536">
        <ele>414.47</ele>
        <time>2020-07-16T07:15:20Z</time>
      </trkpt>
      <trkpt lat="40.1151534822" lon="-6.1747383513">
        <ele>413.98</ele>
        <time>2020-07-16T07:15:21Z</time>
      </trkpt>
      <trkpt lat="40.1152829826" lon="-6.1747096013">
        <ele>413.50</ele>
        <time>2020-07-16T07:15:24Z</time>
      </trkpt>
      <trkpt lat="40.1153227966" lon="-6.1746812705">
        <ele>413.50</ele>
        <time>2020-07-16T07:15:25Z</time>
      </trkpt>
      <trkpt lat="40.1153605152" lon="-6.1746454798">
        <ele>413.50</ele>
        <time>2020-07-16T07:15:26Z</time>
      </trkpt>
      <trkpt lat="40.1153995749" lon="-6.1746089347">
        <ele>413.50</ele>
        <time>2020-07-16T07:15:27Z</time>
      </trkpt>
      <trkpt lat="40.1154375449" lon="-6.1745780054">
        <ele>413.50</ele>
        <time>2020-07-16T07:15:28Z</time>
      </trkpt>
      <trkpt lat="40.1154787000" lon="-6.1745502613">
        <ele>413.50</ele>
        <time>2020-07-16T07:15:29Z</time>
      </trkpt>
      <trkpt lat="40.1155216992" lon="-6.1745232716">
        <ele>413.02</ele>
        <time>2020-07-16T07:15:30Z</time>
      </trkpt>
      <trkpt lat="40.1155584957" lon="-6.1744930129">
        <ele>413.02</ele>
        <time>2020-07-16T07:15:31Z</time>
      </trkpt>
      <trkpt lat="40.1155898441" lon="-6.1744547915">
        <ele>413.02</ele>
        <time>2020-07-16T07:15:32Z</time>
      </trkpt>
      <trkpt lat="40.1156187616" lon="-6.1744084395">
        <ele>413.02</ele>
        <time>2020-07-16T07:15:33Z</time>
      </trkpt>
      <trkpt lat="40.1157779340" lon="-6.1741841398">
        <ele>413.02</ele>
        <time>2020-07-16T07:15:38Z</time>
      </trkpt>
      <trkpt lat="40.1158192568" lon="-6.1741526239">
        <ele>413.02</ele>
        <time>2020-07-16T07:15:39Z</time>
      </trkpt>
      <trkpt lat="40.1158609148" lon="-6.1741247121">
        <ele>413.02</ele>
        <time>2020-07-16T07:15:40Z</time>
      </trkpt>
      <trkpt lat="40.1158990525" lon="-6.1740932800">
        <ele>413.02</ele>
        <time>2020-07-16T07:15:41Z</time>
      </trkpt>
      <trkpt lat="40.1159310713" lon="-6.1740569025">
        <ele>413.02</ele>
        <time>2020-07-16T07:15:42Z</time>
      </trkpt>
      <trkpt lat="40.1159619167" lon="-6.1740128975">
        <ele>413.02</ele>
        <time>2020-07-16T07:15:43Z</time>
      </trkpt>
      <trkpt lat="40.1162309758" lon="-6.1735803913">
        <ele>412.54</ele>
        <time>2020-07-16T07:15:53Z</time>
      </trkpt>
      <trkpt lat="40.1163985301" lon="-6.1734508909">
        <ele>412.06</ele>
        <time>2020-07-16T07:15:58Z</time>
      </trkpt>
      <trkpt lat="40.1166559383" lon="-6.1734453589">
        <ele>411.58</ele>
        <time>2020-07-16T07:16:05Z</time>
      </trkpt>
      <trkpt lat="40.1169028692" lon="-6.1733627133">
        <ele>411.58</ele>
        <time>2020-07-16T07:16:12Z</time>
      </trkpt>
      <trkpt lat="40.1169487182" lon="-6.1733246595">
        <ele>411.58</ele>
        <time>2020-07-16T07:16:16Z</time>
      </trkpt>
      <trkpt lat="40.1170674898" lon="-6.1732286029">
        <ele>412.54</ele>
        <time>2020-07-16T07:16:23Z</time>
      </trkpt>
      <trkpt lat="40.1172231417" lon="-6.1730881222">
        <ele>413.50</ele>
        <time>2020-07-16T07:16:31Z</time>
      </trkpt>
      <trkpt lat="40.1174026821" lon="-6.1728844419">
        <ele>414.47</ele>
        <time>2020-07-16T07:16:40Z</time>
      </trkpt>
      <trkpt lat="40.1176233776" lon="-6.1726730503">
        <ele>414.95</ele>
        <time>2020-07-16T07:16:50Z</time>
      </trkpt>
      <trkpt lat="40.1177565660" lon="-6.1725071725">
        <ele>414.95</ele>
        <time>2020-07-16T07:16:58Z</time>
      </trkpt>
      <trkpt lat="40.1178511977" lon="-6.1723931786">
        <ele>414.95</ele>
        <time>2020-07-16T07:17:05Z</time>
      </trkpt>
      <trkpt lat="40.1179397106" lon="-6.1722912546">
        <ele>414.47</ele>
        <time>2020-07-16T07:17:12Z</time>
      </trkpt>
      <trkpt lat="40.1180734858" lon="-6.1721016560">
        <ele>413.50</ele>
        <time>2020-07-16T07:17:21Z</time>
      </trkpt>
      <trkpt lat="40.1182197500" lon="-6.1720583215">
        <ele>412.54</ele>
        <time>2020-07-16T07:17:27Z</time>
      </trkpt>
      <trkpt lat="40.1183593087" lon="-6.1719550565">
        <ele>411.58</ele>
        <time>2020-07-16T07:17:33Z</time>
      </trkpt>
      <trkpt lat="40.1184305549" lon="-6.1718379613">
        <ele>411.10</ele>
        <time>2020-07-16T07:17:38Z</time>
      </trkpt>
      <trkpt lat="40.1185893081" lon="-6.1717130709">
        <ele>411.10</ele>
        <time>2020-07-16T07:17:46Z</time>
      </trkpt>
      <trkpt lat="40.1187670045" lon="-6.1716303416">
        <ele>410.14</ele>
        <time>2020-07-16T07:17:52Z</time>
      </trkpt>
      <trkpt lat="40.1189892087" lon="-6.1714405753">
        <ele>409.18</ele>
        <time>2020-07-16T07:18:00Z</time>
      </trkpt>
      <trkpt lat="40.1192342956" lon="-6.1711605359">
        <ele>408.22</ele>
        <time>2020-07-16T07:18:09Z</time>
      </trkpt>
      <trkpt lat="40.1193304360" lon="-6.1710487213">
        <ele>408.22</ele>
        <time>2020-07-16T07:18:15Z</time>
      </trkpt>
      <trkpt lat="40.1193380635" lon="-6.1710401718">
        <ele>408.22</ele>
        <time>2020-07-16T07:18:21Z</time>
      </trkpt>
      <trkpt lat="40.1193430088" lon="-6.1710405909">
        <ele>408.70</ele>
        <time>2020-07-16T07:18:36Z</time>
      </trkpt>
      <trkpt lat="40.1193383150" lon="-6.1710207257">
        <ele>408.70</ele>
        <time>2020-07-16T07:18:44Z</time>
      </trkpt>
      <trkpt lat="40.1193275023" lon="-6.1710120924">
        <ele>407.74</ele>
        <time>2020-07-16T07:19:01Z</time>
      </trkpt>
      <trkpt lat="40.1193431765" lon="-6.1709991004">
        <ele>407.74</ele>
        <time>2020-07-16T07:19:19Z</time>
      </trkpt>
      <trkpt lat="40.1193434279" lon="-6.1709853541">
        <ele>407.26</ele>
        <time>2020-07-16T07:19:31Z</time>
      </trkpt>
      <trkpt lat="40.1193300169" lon="-6.1709950771">
        <ele>408.70</ele>
        <time>2020-07-16T07:19:49Z</time>
      </trkpt>
      <trkpt lat="40.1193150133" lon="-6.1710016988">
        <ele>409.66</ele>
        <time>2020-07-16T07:20:08Z</time>
      </trkpt>
      <trkpt lat="40.1193329506" lon="-6.1709996033">
        <ele>409.66</ele>
        <time>2020-07-16T07:20:31Z</time>
      </trkpt>
      <trkpt lat="40.1193339564" lon="-6.1710106675">
        <ele>407.26</ele>
        <time>2020-07-16T07:20:52Z</time>
      </trkpt>
      <trkpt lat="40.1193304360" lon="-6.1710146070">
        <ele>408.22</ele>
        <time>2020-07-16T07:21:07Z</time>
      </trkpt>
      <trkpt lat="40.1193415001" lon="-6.1710055545">
        <ele>409.18</ele>
        <time>2020-07-16T07:21:19Z</time>
      </trkpt>
      <trkpt lat="40.1193290111" lon="-6.1710048001">
        <ele>408.70</ele>
        <time>2020-07-16T07:21:35Z</time>
      </trkpt>
      <trkpt lat="40.1193301845" lon="-6.1710244138">
        <ele>412.54</ele>
        <time>2020-07-16T07:22:03Z</time>
      </trkpt>
      <trkpt lat="40.1193417516" lon="-6.1710075662">
        <ele>412.06</ele>
        <time>2020-07-16T07:22:25Z</time>
      </trkpt>
      <trkpt lat="40.1193507202" lon="-6.1710018665">
        <ele>410.62</ele>
        <time>2020-07-16T07:22:43Z</time>
      </trkpt>
      <trkpt lat="40.1193632931" lon="-6.1710176244">
        <ele>411.10</ele>
        <time>2020-07-16T07:23:11Z</time>
      </trkpt>
      <trkpt lat="40.1193513069" lon="-6.1710254196">
        <ele>408.70</ele>
        <time>2020-07-16T07:23:41Z</time>
      </trkpt>
      <trkpt lat="40.1193559170" lon="-6.1710247491">
        <ele>409.66</ele>
        <time>2020-07-16T07:24:00Z</time>
      </trkpt>
      <trkpt lat="40.1193574257" lon="-6.1710063927">
        <ele>410.14</ele>
        <time>2020-07-16T07:24:19Z</time>
      </trkpt>
      <trkpt lat="40.1193350460" lon="-6.1710181274">
        <ele>409.66</ele>
        <time>2020-07-16T07:24:38Z</time>
      </trkpt>
      <trkpt lat="40.1193443500" lon="-6.1710157804">
        <ele>407.74</ele>
        <time>2020-07-16T07:25:03Z</time>
      </trkpt>
      <trkpt lat="40.1193492115" lon="-6.1710429378">
        <ele>406.77</ele>
        <time>2020-07-16T07:25:29Z</time>
      </trkpt>
      <trkpt lat="40.1193456911" lon="-6.1710255034">
        <ele>407.74</ele>
        <time>2020-07-16T07:25:42Z</time>
      </trkpt>
      <trkpt lat="40.1193507202" lon="-6.1710229889">
        <ele>408.22</ele>
        <time>2020-07-16T07:26:01Z</time>
      </trkpt>
      <trkpt lat="40.1193667296" lon="-6.1710043810">
        <ele>409.18</ele>
        <time>2020-07-16T07:26:18Z</time>
      </trkpt>
      <trkpt lat="40.1193714235" lon="-6.1710029561">
        <ele>408.22</ele>
        <time>2020-07-16T07:26:40Z</time>
      </trkpt>
      <trkpt lat="40.1193666458" lon="-6.1709944904">
        <ele>407.74</ele>
        <time>2020-07-16T07:27:02Z</time>
      </trkpt>
      <trkpt lat="40.1193635445" lon="-6.1709907185">
        <ele>407.26</ele>
        <time>2020-07-16T07:27:26Z</time>
      </trkpt>
      <trkpt lat="40.1193617005" lon="-6.1709955800">
        <ele>407.26</ele>
        <time>2020-07-16T07:27:49Z</time>
      </trkpt>
      <trkpt lat="40.1193892770" lon="-6.1709852703">
        <ele>408.22</ele>
        <time>2020-07-16T07:28:14Z</time>
      </trkpt>
      <trkpt lat="40.1193771232" lon="-6.1709833425">
        <ele>408.70</ele>
        <time>2020-07-16T07:28:31Z</time>
      </trkpt>
      <trkpt lat="40.1193702500" lon="-6.1709909700">
        <ele>407.74</ele>
        <time>2020-07-16T07:28:49Z</time>
      </trkpt>
      <trkpt lat="40.1193585992" lon="-6.1710001063">
        <ele>406.29</ele>
        <time>2020-07-16T07:29:06Z</time>
      </trkpt>
      <trkpt lat="40.1193631254" lon="-6.1710227374">
        <ele>406.77</ele>
        <time>2020-07-16T07:29:17Z</time>
      </trkpt>
      <trkpt lat="40.1194022689" lon="-6.1709638126">
        <ele>407.74</ele>
        <time>2020-07-16T07:29:25Z</time>
      </trkpt>
      <trkpt lat="40.1194049511" lon="-6.1709655728">
        <ele>410.14</ele>
        <time>2020-07-16T07:29:37Z</time>
      </trkpt>
      <trkpt lat="40.1193930488" lon="-6.1709902156">
        <ele>409.18</ele>
        <time>2020-07-16T07:30:03Z</time>
      </trkpt>
      <trkpt lat="40.1194013469" lon="-6.1709810793">
        <ele>408.70</ele>
        <time>2020-07-16T07:30:21Z</time>
      </trkpt>
      <trkpt lat="40.1194041129" lon="-6.1709776428">
        <ele>408.70</ele>
        <time>2020-07-16T07:30:40Z</time>
      </trkpt>
      <trkpt lat="40.1193948928" lon="-6.1709547602">
        <ele>406.29</ele>
        <time>2020-07-16T07:30:55Z</time>
      </trkpt>
      <trkpt lat="40.1194031071" lon="-6.1709597893">
        <ele>406.29</ele>
        <time>2020-07-16T07:31:10Z</time>
      </trkpt>
      <trkpt lat="40.1194131654" lon="-6.1709478870">
        <ele>406.29</ele>
        <time>2020-07-16T07:31:17Z</time>
      </trkpt>
      <trkpt lat="40.1194787957" lon="-6.1707946658">
        <ele>406.29</ele>
        <time>2020-07-16T07:31:25Z</time>
      </trkpt>
      <trkpt lat="40.1195365470" lon="-6.1706955079">
        <ele>405.33</ele>
        <time>2020-07-16T07:31:32Z</time>
      </trkpt>
      <trkpt lat="40.1195646264" lon="-6.1706569511">
        <ele>405.81</ele>
        <time>2020-07-16T07:31:37Z</time>
      </trkpt>
      <trkpt lat="40.1197009161" lon="-6.1705084238">
        <ele>406.77</ele>
        <time>2020-07-16T07:31:46Z</time>
      </trkpt>
      <trkpt lat="40.1198424865" lon="-6.1703269556">
        <ele>407.26</ele>
        <time>2020-07-16T07:31:55Z</time>
      </trkpt>
      <trkpt lat="40.1200656127" lon="-6.1701157317">
        <ele>408.22</ele>
        <time>2020-07-16T07:32:06Z</time>
      </trkpt>
      <trkpt lat="40.1202056743" lon="-6.1699761730">
        <ele>407.74</ele>
        <time>2020-07-16T07:32:13Z</time>
      </trkpt>
      <trkpt lat="40.1203544531" lon="-6.1698584072">
        <ele>408.22</ele>
        <time>2020-07-16T07:32:21Z</time>
      </trkpt>
      <trkpt lat="40.1205109432" lon="-6.1697298288">
        <ele>409.66</ele>
        <time>2020-07-16T07:32:30Z</time>
      </trkpt>
      <trkpt lat="40.1206290442" lon="-6.1696159188">
        <ele>410.62</ele>
        <time>2020-07-16T07:32:38Z</time>
      </trkpt>
      <trkpt lat="40.1207672618" lon="-6.1695014220">
        <ele>410.62</ele>
        <time>2020-07-16T07:32:47Z</time>
      </trkpt>
      <trkpt lat="40.1208185591" lon="-6.1694262363">
        <ele>412.06</ele>
        <time>2020-07-16T07:32:52Z</time>
      </trkpt>
      <trkpt lat="40.1208186429" lon="-6.1694110651">
        <ele>411.58</ele>
        <time>2020-07-16T07:32:53Z</time>
      </trkpt>
      <trkpt lat="40.1208379213" lon="-6.1693869252">
        <ele>411.58</ele>
        <time>2020-07-16T07:32:56Z</time>
      </trkpt>
      <trkpt lat="40.1208472252" lon="-6.1693760287">
        <ele>412.06</ele>
        <time>2020-07-16T07:32:57Z</time>
      </trkpt>
      <trkpt lat="40.1208542660" lon="-6.1693639588">
        <ele>412.06</ele>
        <time>2020-07-16T07:32:58Z</time>
      </trkpt>
      <trkpt lat="40.1208626479" lon="-6.1693479493">
        <ele>412.06</ele>
        <time>2020-07-16T07:32:59Z</time>
      </trkpt>
      <trkpt lat="40.1208727062" lon="-6.1693326104">
        <ele>412.06</ele>
        <time>2020-07-16T07:33:00Z</time>
      </trkpt>
      <trkpt lat="40.1208876260" lon="-6.1693183612">
        <ele>412.06</ele>
        <time>2020-07-16T07:33:01Z</time>
      </trkpt>
      <trkpt lat="40.1210199762" lon="-6.1691715941">
        <ele>411.58</ele>
        <time>2020-07-16T07:33:10Z</time>
      </trkpt>
      <trkpt lat="40.1211947389" lon="-6.1689507309">
        <ele>411.10</ele>
        <time>2020-07-16T07:33:18Z</time>
      </trkpt>
      <trkpt lat="40.1213962398" lon="-6.1687123496">
        <ele>409.66</ele>
        <time>2020-07-16T07:33:27Z</time>
      </trkpt>
      <trkpt lat="40.1216129959" lon="-6.1684835237">
        <ele>409.18</ele>
        <time>2020-07-16T07:33:36Z</time>
      </trkpt>
      <trkpt lat="40.1218009181" lon="-6.1682541110">
        <ele>409.18</ele>
        <time>2020-07-16T07:33:44Z</time>
      </trkpt>
      <trkpt lat="40.1219491102" lon="-6.1680922564">
        <ele>410.14</ele>
        <time>2020-07-16T07:33:52Z</time>
      </trkpt>
      <trkpt lat="40.1221065223" lon="-6.1678909231">
        <ele>411.10</ele>
        <time>2020-07-16T07:33:59Z</time>
      </trkpt>
      <trkpt lat="40.1222423092" lon="-6.1676814593">
        <ele>412.06</ele>
        <time>2020-07-16T07:34:06Z</time>
      </trkpt>
      <trkpt lat="40.1224503480" lon="-6.1674715765">
        <ele>412.06</ele>
        <time>2020-07-16T07:34:15Z</time>
      </trkpt>
      <trkpt lat="40.1225556247" lon="-6.1673655454">
        <ele>412.06</ele>
        <time>2020-07-16T07:34:21Z</time>
      </trkpt>
      <trkpt lat="40.1225697901" lon="-6.1673443392">
        <ele>412.54</ele>
        <time>2020-07-16T07:34:26Z</time>
      </trkpt>
      <trkpt lat="40.1225806028" lon="-6.1673407350">
        <ele>412.06</ele>
        <time>2020-07-16T07:34:34Z</time>
      </trkpt>
      <trkpt lat="40.1226004679" lon="-6.1673357058">
        <ele>411.58</ele>
        <time>2020-07-16T07:34:36Z</time>
      </trkpt>
      <trkpt lat="40.1226271223" lon="-6.1673450936">
        <ele>412.06</ele>
        <time>2020-07-16T07:34:38Z</time>
      </trkpt>
      <trkpt lat="40.1226413716" lon="-6.1673556548">
        <ele>412.06</ele>
        <time>2020-07-16T07:34:39Z</time>
      </trkpt>
      <trkpt lat="40.1226561237" lon="-6.1673647072">
        <ele>412.06</ele>
        <time>2020-07-16T07:34:40Z</time>
      </trkpt>
      <trkpt lat="40.1226686127" lon="-6.1673627794">
        <ele>412.54</ele>
        <time>2020-07-16T07:34:41Z</time>
      </trkpt>
      <trkpt lat="40.1226763241" lon="-6.1673447583">
        <ele>412.54</ele>
        <time>2020-07-16T07:34:42Z</time>
      </trkpt>
      <trkpt lat="40.1226743124" lon="-6.1673344485">
        <ele>412.54</ele>
        <time>2020-07-16T07:34:43Z</time>
      </trkpt>
      <trkpt lat="40.1226718817" lon="-6.1673271563">
        <ele>412.54</ele>
        <time>2020-07-16T07:34:49Z</time>
      </trkpt>
      <trkpt lat="40.1226686127" lon="-6.1673179362">
        <ele>413.50</ele>
        <time>2020-07-16T07:35:03Z</time>
      </trkpt>
      <trkpt lat="40.1226650085" lon="-6.1673155893">
        <ele>413.50</ele>
        <time>2020-07-16T07:35:15Z</time>
      </trkpt>
      <trkpt lat="40.1226585545" lon="-6.1673189420">
        <ele>413.50</ele>
        <time>2020-07-16T07:35:28Z</time>
      </trkpt>
      <trkpt lat="40.1226455625" lon="-6.1673051119">
        <ele>413.02</ele>
        <time>2020-07-16T07:35:41Z</time>
      </trkpt>
      <trkpt lat="40.1225889847" lon="-6.1671483703">
        <ele>413.02</ele>
        <time>2020-07-16T07:35:48Z</time>
      </trkpt>
      <trkpt lat="40.1225904096" lon="-6.1668713484">
        <ele>412.54</ele>
        <time>2020-07-16T07:35:56Z</time>
      </trkpt>
      <trkpt lat="40.1225716341" lon="-6.1666366551">
        <ele>411.58</ele>
        <time>2020-07-16T07:36:03Z</time>
      </trkpt>
      <trkpt lat="40.1225729752" lon="-6.1664719507">
        <ele>410.62</ele>
        <time>2020-07-16T07:36:10Z</time>
      </trkpt>
      <trkpt lat="40.1225795969" lon="-6.1664650775">
        <ele>410.14</ele>
        <time>2020-07-16T07:36:17Z</time>
      </trkpt>
      <trkpt lat="40.1225690357" lon="-6.1664663348">
        <ele>411.58</ele>
        <time>2020-07-16T07:36:29Z</time>
      </trkpt>
      <trkpt lat="40.1225698739" lon="-6.1664195638">
        <ele>411.10</ele>
        <time>2020-07-16T07:36:47Z</time>
      </trkpt>
      <trkpt lat="40.1225849614" lon="-6.1664062366">
        <ele>411.10</ele>
        <time>2020-07-16T07:36:54Z</time>
      </trkpt>
      <trkpt lat="40.1225836203" lon="-6.1663942505">
        <ele>410.62</ele>
        <time>2020-07-16T07:37:06Z</time>
      </trkpt>
      <trkpt lat="40.1225863025" lon="-6.1663727090">
        <ele>409.66</ele>
        <time>2020-07-16T07:37:13Z</time>
      </trkpt>
      <trkpt lat="40.1225862186" lon="-6.1663548555">
        <ele>409.66</ele>
        <time>2020-07-16T07:37:14Z</time>
      </trkpt>
      <trkpt lat="40.1225869730" lon="-6.1663368344">
        <ele>409.66</ele>
        <time>2020-07-16T07:37:15Z</time>
      </trkpt>
      <trkpt lat="40.1225995459" lon="-6.1663017143">
        <ele>409.18</ele>
        <time>2020-07-16T07:37:17Z</time>
      </trkpt>
      <trkpt lat="40.1227143779" lon="-6.1662316415">
        <ele>409.66</ele>
        <time>2020-07-16T07:37:23Z</time>
      </trkpt>
      <trkpt lat="40.1228871290" lon="-6.1661992874">
        <ele>409.66</ele>
        <time>2020-07-16T07:37:30Z</time>
      </trkpt>
      <trkpt lat="40.1230309624" lon="-6.1662159674">
        <ele>410.14</ele>
        <time>2020-07-16T07:37:37Z</time>
      </trkpt>
      <trkpt lat="40.1232198905" lon="-6.1662876327">
        <ele>410.62</ele>
        <time>2020-07-16T07:37:44Z</time>
      </trkpt>
      <trkpt lat="40.1233565155" lon="-6.1662251875">
        <ele>410.14</ele>
        <time>2020-07-16T07:37:51Z</time>
      </trkpt>
      <trkpt lat="40.1234668214" lon="-6.1660774145">
        <ele>410.14</ele>
        <time>2020-07-16T07:37:58Z</time>
      </trkpt>
      <trkpt lat="40.1236436795" lon="-6.1659618281">
        <ele>409.18</ele>
        <time>2020-07-16T07:38:05Z</time>
      </trkpt>
      <trkpt lat="40.1237528957" lon="-6.1658565514">
        <ele>407.74</ele>
        <time>2020-07-16T07:38:10Z</time>
      </trkpt>
      <trkpt lat="40.1239106432" lon="-6.1656571459">
        <ele>406.77</ele>
        <time>2020-07-16T07:38:19Z</time>
      </trkpt>
      <trkpt lat="40.1240269002" lon="-6.1655113846">
        <ele>406.29</ele>
        <time>2020-07-16T07:38:27Z</time>
      </trkpt>
      <trkpt lat="40.1241634414" lon="-6.1653309222">
        <ele>407.26</ele>
        <time>2020-07-16T07:38:35Z</time>
      </trkpt>
      <trkpt lat="40.1243102923" lon="-6.1652269866">
        <ele>407.74</ele>
        <time>2020-07-16T07:38:42Z</time>
      </trkpt>
      <trkpt lat="40.1244492643" lon="-6.1651017610">
        <ele>408.22</ele>
        <time>2020-07-16T07:38:50Z</time>
      </trkpt>
      <trkpt lat="40.1246527769" lon="-6.1648803111">
        <ele>410.62</ele>
        <time>2020-07-16T07:39:03Z</time>
      </trkpt>
      <trkpt lat="40.1247546170" lon="-6.1647488829">
        <ele>412.54</ele>
        <time>2020-07-16T07:39:11Z</time>
      </trkpt>
      <trkpt lat="40.1248420402" lon="-6.1646125093">
        <ele>413.98</ele>
        <time>2020-07-16T07:39:19Z</time>
      </trkpt>
      <trkpt lat="40.1249107718" lon="-6.1644935701">
        <ele>414.47</ele>
        <time>2020-07-16T07:39:26Z</time>
      </trkpt>
      <trkpt lat="40.1250209101" lon="-6.1644720286">
        <ele>414.95</ele>
        <time>2020-07-16T07:39:32Z</time>
      </trkpt>
      <trkpt lat="40.1251213253" lon="-6.1643318832">
        <ele>413.50</ele>
        <time>2020-07-16T07:39:40Z</time>
      </trkpt>
      <trkpt lat="40.1252715290" lon="-6.1641111877">
        <ele>412.54</ele>
        <time>2020-07-16T07:39:47Z</time>
      </trkpt>
      <trkpt lat="40.1254200563" lon="-6.1638995446">
        <ele>412.06</ele>
        <time>2020-07-16T07:39:53Z</time>
      </trkpt>
      <trkpt lat="40.1256863493" lon="-6.1636053398">
        <ele>411.58</ele>
        <time>2020-07-16T07:40:01Z</time>
      </trkpt>
      <trkpt lat="40.1258932147" lon="-6.1634279788">
        <ele>412.06</ele>
        <time>2020-07-16T07:40:09Z</time>
      </trkpt>
      <trkpt lat="40.1260498725" lon="-6.1632786132">
        <ele>412.06</ele>
        <time>2020-07-16T07:40:16Z</time>
      </trkpt>
      <trkpt lat="40.1262231264" lon="-6.1630928703">
        <ele>412.06</ele>
        <time>2020-07-16T07:40:23Z</time>
      </trkpt>
      <trkpt lat="40.1263998169" lon="-6.1629558261">
        <ele>412.54</ele>
        <time>2020-07-16T07:40:30Z</time>
      </trkpt>
      <trkpt lat="40.1265899185" lon="-6.1627297662">
        <ele>412.06</ele>
        <time>2020-07-16T07:40:38Z</time>
      </trkpt>
      <trkpt lat="40.1267858874" lon="-6.1625539139">
        <ele>413.50</ele>
        <time>2020-07-16T07:40:46Z</time>
      </trkpt>
      <trkpt lat="40.1268903259" lon="-6.1624002736">
        <ele>414.47</ele>
        <time>2020-07-16T07:40:54Z</time>
      </trkpt>
      <trkpt lat="40.1270193234" lon="-6.1622342281">
        <ele>414.95</ele>
        <time>2020-07-16T07:41:02Z</time>
      </trkpt>
      <trkpt lat="40.1271376759" lon="-6.1620530114">
        <ele>414.47</ele>
        <time>2020-07-16T07:41:10Z</time>
      </trkpt>
      <trkpt lat="40.1272394322" lon="-6.1619152967">
        <ele>414.47</ele>
        <time>2020-07-16T07:41:17Z</time>
      </trkpt>
      <trkpt lat="40.1273094211" lon="-6.1617909092">
        <ele>414.47</ele>
        <time>2020-07-16T07:41:24Z</time>
      </trkpt>
      <trkpt lat="40.1274280250" lon="-6.1616205890">
        <ele>414.95</ele>
        <time>2020-07-16T07:41:33Z</time>
      </trkpt>
      <trkpt lat="40.1275344752" lon="-6.1614896636">
        <ele>415.91</ele>
        <time>2020-07-16T07:41:41Z</time>
      </trkpt>
      <trkpt lat="40.1276340522" lon="-6.1613680422">
        <ele>416.87</ele>
        <time>2020-07-16T07:41:50Z</time>
      </trkpt>
      <trkpt lat="40.1277381554" lon="-6.1612250470">
        <ele>419.75</ele>
        <time>2020-07-16T07:41:58Z</time>
      </trkpt>
      <trkpt lat="40.1278560888" lon="-6.1610976420">
        <ele>420.71</ele>
        <time>2020-07-16T07:42:06Z</time>
      </trkpt>
      <trkpt lat="40.1279493794" lon="-6.1609919462">
        <ele>420.71</ele>
        <time>2020-07-16T07:42:13Z</time>
      </trkpt>
      <trkpt lat="40.1279602759" lon="-6.1609763559">
        <ele>420.71</ele>
        <time>2020-07-16T07:42:14Z</time>
      </trkpt>
      <trkpt lat="40.1279718429" lon="-6.1609547306">
        <ele>420.71</ele>
        <time>2020-07-16T07:42:15Z</time>
      </trkpt>
      <trkpt lat="40.1279823203" lon="-6.1609350331">
        <ele>420.23</ele>
        <time>2020-07-16T07:42:16Z</time>
      </trkpt>
      <trkpt lat="40.1279938035" lon="-6.1609129887">
        <ele>420.23</ele>
        <time>2020-07-16T07:42:17Z</time>
      </trkpt>
      <trkpt lat="40.1280036103" lon="-6.1608890165">
        <ele>420.23</ele>
        <time>2020-07-16T07:42:18Z</time>
      </trkpt>
      <trkpt lat="40.1280924585" lon="-6.1607083865">
        <ele>418.79</ele>
        <time>2020-07-16T07:42:27Z</time>
      </trkpt>
      <trkpt lat="40.1280934643" lon="-6.1606916226">
        <ele>418.79</ele>
        <time>2020-07-16T07:42:28Z</time>
      </trkpt>
      <trkpt lat="40.1281046961" lon="-6.1606319435">
        <ele>418.79</ele>
        <time>2020-07-16T07:42:34Z</time>
      </trkpt>
      <trkpt lat="40.1281085517" lon="-6.1606181972">
        <ele>419.27</ele>
        <time>2020-07-16T07:42:41Z</time>
      </trkpt>
      <trkpt lat="40.1281187776" lon="-6.1606184486">
        <ele>418.31</ele>
        <time>2020-07-16T07:42:55Z</time>
      </trkpt>
      <trkpt lat="40.1281240582" lon="-6.1606145091">
        <ele>418.79</ele>
        <time>2020-07-16T07:43:08Z</time>
      </trkpt>
      <trkpt lat="40.1281460188" lon="-6.1606021877">
        <ele>418.79</ele>
        <time>2020-07-16T07:43:12Z</time>
      </trkpt>
      <trkpt lat="40.1282528043" lon="-6.1604862660">
        <ele>419.27</ele>
        <time>2020-07-16T07:43:21Z</time>
      </trkpt>
      <trkpt lat="40.1283834781" lon="-6.1602871958">
        <ele>418.79</ele>
        <time>2020-07-16T07:43:29Z</time>
      </trkpt>
      <trkpt lat="40.1285054348" lon="-6.1600876227">
        <ele>418.79</ele>
        <time>2020-07-16T07:43:36Z</time>
      </trkpt>
      <trkpt lat="40.1286807843" lon="-6.1597503349">
        <ele>418.79</ele>
        <time>2020-07-16T07:43:46Z</time>
      </trkpt>
      <trkpt lat="40.1288278028" lon="-6.1595034041">
        <ele>419.27</ele>
        <time>2020-07-16T07:43:54Z</time>
      </trkpt>
      <trkpt lat="40.1290076785" lon="-6.1593248695">
        <ele>419.75</ele>
        <time>2020-07-16T07:44:02Z</time>
      </trkpt>
      <trkpt lat="40.1291594747" lon="-6.1591684632">
        <ele>420.71</ele>
        <time>2020-07-16T07:44:10Z</time>
      </trkpt>
      <trkpt lat="40.1292885561" lon="-6.1590309162">
        <ele>421.68</ele>
        <time>2020-07-16T07:44:19Z</time>
      </trkpt>
      <trkpt lat="40.1292985305" lon="-6.1590130627">
        <ele>423.12</ele>
        <time>2020-07-16T07:44:26Z</time>
      </trkpt>
      <trkpt lat="40.1293317229" lon="-6.1589580774">
        <ele>422.16</ele>
        <time>2020-07-16T07:44:38Z</time>
      </trkpt>
      <trkpt lat="40.1293646637" lon="-6.1588786170">
        <ele>421.68</ele>
        <time>2020-07-16T07:44:43Z</time>
      </trkpt>
      <trkpt lat="40.1293798350" lon="-6.1588589195">
        <ele>421.68</ele>
        <time>2020-07-16T07:44:44Z</time>
      </trkpt>
      <trkpt lat="40.1293950900" lon="-6.1588346120">
        <ele>421.68</ele>
        <time>2020-07-16T07:44:45Z</time>
      </trkpt>
      <trkpt lat="40.1295584533" lon="-6.1585739348">
        <ele>422.16</ele>
        <time>2020-07-16T07:44:54Z</time>
      </trkpt>
      <trkpt lat="40.1296866965" lon="-6.1584198754">
        <ele>423.12</ele>
        <time>2020-07-16T07:45:02Z</time>
      </trkpt>
      <trkpt lat="40.1298389956" lon="-6.1582039576">
        <ele>424.08</ele>
        <time>2020-07-16T07:45:10Z</time>
      </trkpt>
      <trkpt lat="40.1299761236" lon="-6.1580623034">
        <ele>425.04</ele>
        <time>2020-07-16T07:45:17Z</time>
      </trkpt>
      <trkpt lat="40.1300670672" lon="-6.1579307914">
        <ele>425.52</ele>
        <time>2020-07-16T07:45:23Z</time>
      </trkpt>
      <trkpt lat="40.1302680653" lon="-6.1576808430">
        <ele>426.48</ele>
        <time>2020-07-16T07:45:33Z</time>
      </trkpt>
      <trkpt lat="40.1304613519" lon="-6.1574810185">
        <ele>427.92</ele>
        <time>2020-07-16T07:45:42Z</time>
      </trkpt>
      <trkpt lat="40.1306348573" lon="-6.1572945211">
        <ele>428.40</ele>
        <time>2020-07-16T07:45:50Z</time>
      </trkpt>
      <trkpt lat="40.1307454985" lon="-6.1571736541">
        <ele>428.89</ele>
        <time>2020-07-16T07:45:56Z</time>
      </trkpt>
      <trkpt lat="40.1308636833" lon="-6.1570221931">
        <ele>428.89</ele>
        <time>2020-07-16T07:46:03Z</time>
      </trkpt>
      <trkpt lat="40.1309984643" lon="-6.1568549741">
        <ele>429.37</ele>
        <time>2020-07-16T07:46:10Z</time>
      </trkpt>
      <trkpt lat="40.1311274618" lon="-6.1566910241">
        <ele>429.37</ele>
        <time>2020-07-16T07:46:17Z</time>
      </trkpt>
      <trkpt lat="40.1313136239" lon="-6.1564631201">
        <ele>429.85</ele>
        <time>2020-07-16T07:46:26Z</time>
      </trkpt>
      <trkpt lat="40.1314038970" lon="-6.1563232262">
        <ele>429.85</ele>
        <time>2020-07-16T07:46:33Z</time>
      </trkpt>
      <trkpt lat="40.1314328145" lon="-6.1562843341">
        <ele>429.85</ele>
        <time>2020-07-16T07:46:36Z</time>
      </trkpt>
      <trkpt lat="40.1314440463" lon="-6.1562796403">
        <ele>429.85</ele>
        <time>2020-07-16T07:46:43Z</time>
      </trkpt>
      <trkpt lat="40.1314373408" lon="-6.1562684085">
        <ele>428.89</ele>
        <time>2020-07-16T07:46:52Z</time>
      </trkpt>
      <trkpt lat="40.1314495783" lon="-6.1562760361">
        <ele>428.40</ele>
        <time>2020-07-16T07:47:04Z</time>
      </trkpt>
      <trkpt lat="40.1314682700" lon="-6.1562953983">
        <ele>428.40</ele>
        <time>2020-07-16T07:47:13Z</time>
      </trkpt>
      <trkpt lat="40.1314856205" lon="-6.1562865973">
        <ele>428.40</ele>
        <time>2020-07-16T07:47:20Z</time>
      </trkpt>
      <trkpt lat="40.1315230038" lon="-6.1562632956">
        <ele>427.92</ele>
        <time>2020-07-16T07:47:29Z</time>
      </trkpt>
      <trkpt lat="40.1315587107" lon="-6.1562588532">
        <ele>428.40</ele>
        <time>2020-07-16T07:47:38Z</time>
      </trkpt>
      <trkpt lat="40.1316478942" lon="-6.1562188715">
        <ele>427.92</ele>
        <time>2020-07-16T07:47:47Z</time>
      </trkpt>
      <trkpt lat="40.1317571942" lon="-6.1562336236">
        <ele>428.40</ele>
        <time>2020-07-16T07:47:57Z</time>
      </trkpt>
      <trkpt lat="40.1317912247" lon="-6.1562611163">
        <ele>428.89</ele>
        <time>2020-07-16T07:48:01Z</time>
      </trkpt>
      <trkpt lat="40.1317932364" lon="-6.1562760361">
        <ele>428.89</ele>
        <time>2020-07-16T07:48:02Z</time>
      </trkpt>
      <trkpt lat="40.1317920629" lon="-6.1562912073">
        <ele>428.89</ele>
        <time>2020-07-16T07:48:03Z</time>
      </trkpt>
      <trkpt lat="40.1317887101" lon="-6.1563047860">
        <ele>428.40</ele>
        <time>2020-07-16T07:48:04Z</time>
      </trkpt>
      <trkpt lat="40.1317838486" lon="-6.1563181970">
        <ele>428.40</ele>
        <time>2020-07-16T07:48:11Z</time>
      </trkpt>
      <trkpt lat="40.1317846868" lon="-6.1563105695">
        <ele>427.92</ele>
        <time>2020-07-16T07:48:27Z</time>
      </trkpt>
      <trkpt lat="40.1317718625" lon="-6.1563126650">
        <ele>427.92</ele>
        <time>2020-07-16T07:48:48Z</time>
      </trkpt>
      <trkpt lat="40.1317792386" lon="-6.1563088931">
        <ele>427.92</ele>
        <time>2020-07-16T07:49:09Z</time>
      </trkpt>
      <trkpt lat="40.1317843515" lon="-6.1562992539">
        <ele>424.56</ele>
        <time>2020-07-16T07:49:32Z</time>
      </trkpt>
      <trkpt lat="40.1317914762" lon="-6.1563090608">
        <ele>426.48</ele>
        <time>2020-07-16T07:49:50Z</time>
      </trkpt>
      <trkpt lat="40.1317919791" lon="-6.1563138384">
        <ele>426.48</ele>
        <time>2020-07-16T07:50:01Z</time>
      </trkpt>
      <trkpt lat="40.1317982655" lon="-6.1563177779">
        <ele>426.48</ele>
        <time>2020-07-16T07:50:16Z</time>
      </trkpt>
      <trkpt lat="40.1317965891" lon="-6.1563269980">
        <ele>426.48</ele>
        <time>2020-07-16T07:50:28Z</time>
      </trkpt>
      <trkpt lat="40.1318085752" lon="-6.1563284229">
        <ele>426.48</ele>
        <time>2020-07-16T07:50:29Z</time>
      </trkpt>
      <trkpt lat="40.1318235788" lon="-6.1563073006">
        <ele>426.48</ele>
        <time>2020-07-16T07:50:31Z</time>
      </trkpt>
      <trkpt lat="40.1318258420" lon="-6.1562919617">
        <ele>426.48</ele>
        <time>2020-07-16T07:50:32Z</time>
      </trkpt>
      <trkpt lat="40.1318285242" lon="-6.1561785545">
        <ele>426.96</ele>
        <time>2020-07-16T07:50:38Z</time>
      </trkpt>
      <trkpt lat="40.1319722738" lon="-6.1560050491">
        <ele>427.92</ele>
        <time>2020-07-16T07:50:46Z</time>
      </trkpt>
      <trkpt lat="40.1321474556" lon="-6.1558482237">
        <ele>428.40</ele>
        <time>2020-07-16T07:50:55Z</time>
      </trkpt>
      <trkpt lat="40.1321548317" lon="-6.1558290292">
        <ele>428.40</ele>
        <time>2020-07-16T07:50:56Z</time>
      </trkpt>
      <trkpt lat="40.1321587712" lon="-6.1558055598">
        <ele>428.40</ele>
        <time>2020-07-16T07:50:57Z</time>
      </trkpt>
      <trkpt lat="40.1321600284" lon="-6.1557842698">
        <ele>428.40</ele>
        <time>2020-07-16T07:50:58Z</time>
      </trkpt>
      <trkpt lat="40.1321627107" lon="-6.1557634827">
        <ele>428.40</ele>
        <time>2020-07-16T07:50:59Z</time>
      </trkpt>
      <trkpt lat="40.1321668178" lon="-6.1557421926">
        <ele>428.40</ele>
        <time>2020-07-16T07:51:00Z</time>
      </trkpt>
      <trkpt lat="40.1321689133" lon="-6.1557202321">
        <ele>427.92</ele>
        <time>2020-07-16T07:51:01Z</time>
      </trkpt>
      <trkpt lat="40.1321700029" lon="-6.1556985229">
        <ele>427.92</ele>
        <time>2020-07-16T07:51:02Z</time>
      </trkpt>
      <trkpt lat="40.1321952324" lon="-6.1554697808">
        <ele>426.96</ele>
        <time>2020-07-16T07:51:12Z</time>
      </trkpt>
      <trkpt lat="40.1322870981" lon="-6.1553260311">
        <ele>426.96</ele>
        <time>2020-07-16T07:51:18Z</time>
      </trkpt>
      <trkpt lat="40.1324849948" lon="-6.1550788488">
        <ele>427.44</ele>
        <time>2020-07-16T07:51:27Z</time>
      </trkpt>
      <trkpt lat="40.1326844003" lon="-6.1548239551">
        <ele>426.96</ele>
        <time>2020-07-16T07:51:34Z</time>
      </trkpt>
      <trkpt lat="40.1329442393" lon="-6.1544903554">
        <ele>427.44</ele>
        <time>2020-07-16T07:51:44Z</time>
      </trkpt>
      <trkpt lat="40.1331482548" lon="-6.1542255711">
        <ele>428.40</ele>
        <time>2020-07-16T07:51:52Z</time>
      </trkpt>
      <trkpt lat="40.1333966106" lon="-6.1539011076">
        <ele>427.44</ele>
        <time>2020-07-16T07:52:02Z</time>
      </trkpt>
      <trkpt lat="40.1335448865" lon="-6.1536716949">
        <ele>426.96</ele>
        <time>2020-07-16T07:52:09Z</time>
      </trkpt>
      <trkpt lat="40.1337966789" lon="-6.1533505004">
        <ele>426.48</ele>
        <time>2020-07-16T07:52:18Z</time>
      </trkpt>
      <trkpt lat="40.1339756325" lon="-6.1530595645">
        <ele>426.00</ele>
        <time>2020-07-16T07:52:25Z</time>
      </trkpt>
      <trkpt lat="40.1341616269" lon="-6.1528464127">
        <ele>425.04</ele>
        <time>2020-07-16T07:52:32Z</time>
      </trkpt>
      <trkpt lat="40.1342351362" lon="-6.1526674591">
        <ele>425.04</ele>
        <time>2020-07-16T07:52:37Z</time>
      </trkpt>
      <trkpt lat="40.1343635470" lon="-6.1523872521">
        <ele>424.08</ele>
        <time>2020-07-16T07:52:45Z</time>
      </trkpt>
      <trkpt lat="40.1345461048" lon="-6.1520507187">
        <ele>424.08</ele>
        <time>2020-07-16T07:52:55Z</time>
      </trkpt>
      <trkpt lat="40.1347086299" lon="-6.1517642252">
        <ele>424.56</ele>
        <time>2020-07-16T07:53:03Z</time>
      </trkpt>
      <trkpt lat="40.1348611806" lon="-6.1514732894">
        <ele>424.56</ele>
        <time>2020-07-16T07:53:11Z</time>
      </trkpt>
      <trkpt lat="40.1351210196" lon="-6.1510254443">
        <ele>423.12</ele>
        <time>2020-07-16T07:53:23Z</time>
      </trkpt>
      <trkpt lat="40.1353030745" lon="-6.1507597379">
        <ele>422.64</ele>
        <time>2020-07-16T07:53:31Z</time>
      </trkpt>
      <trkpt lat="40.1354160625" lon="-6.1505278945">
        <ele>422.64</ele>
        <time>2020-07-16T07:53:38Z</time>
      </trkpt>
      <trkpt lat="40.1355489157" lon="-6.1502627749">
        <ele>422.64</ele>
        <time>2020-07-16T07:53:47Z</time>
      </trkpt>
      <trkpt lat="40.1357302163" lon="-6.1500312667">
        <ele>422.64</ele>
        <time>2020-07-16T07:53:55Z</time>
      </trkpt>
      <trkpt lat="40.1358358283" lon="-6.1498724297">
        <ele>421.68</ele>
        <time>2020-07-16T07:54:01Z</time>
      </trkpt>
      <trkpt lat="40.1360393409" lon="-6.1495873611">
        <ele>420.71</ele>
        <time>2020-07-16T07:54:12Z</time>
      </trkpt>
      <trkpt lat="40.1362361480" lon="-6.1492895521">
        <ele>420.71</ele>
        <time>2020-07-16T07:54:21Z</time>
      </trkpt>
      <trkpt lat="40.1364438515" lon="-6.1490085069">
        <ele>420.23</ele>
        <time>2020-07-16T07:54:31Z</time>
      </trkpt>
      <trkpt lat="40.1365767885" lon="-6.1488044914">
        <ele>419.27</ele>
        <time>2020-07-16T07:54:39Z</time>
      </trkpt>
      <trkpt lat="40.1367338654" lon="-6.1484744120">
        <ele>419.75</ele>
        <time>2020-07-16T07:54:49Z</time>
      </trkpt>
      <trkpt lat="40.1369393896" lon="-6.1480535567">
        <ele>419.75</ele>
        <time>2020-07-16T07:55:00Z</time>
      </trkpt>
      <trkpt lat="40.1371364482" lon="-6.1477705836">
        <ele>419.27</ele>
        <time>2020-07-16T07:55:08Z</time>
      </trkpt>
      <trkpt lat="40.1373535395" lon="-6.1474753730">
        <ele>418.31</ele>
        <time>2020-07-16T07:55:17Z</time>
      </trkpt>
      <trkpt lat="40.1374586485" lon="-6.1472669989">
        <ele>418.31</ele>
        <time>2020-07-16T07:55:24Z</time>
      </trkpt>
      <trkpt lat="40.1376060024" lon="-6.1470302939">
        <ele>418.31</ele>
        <time>2020-07-16T07:55:31Z</time>
      </trkpt>
      <trkpt lat="40.1377732214" lon="-6.1467549484">
        <ele>418.31</ele>
        <time>2020-07-16T07:55:39Z</time>
      </trkpt>
      <trkpt lat="40.1379593834" lon="-6.1464705504">
        <ele>418.31</ele>
        <time>2020-07-16T07:55:48Z</time>
      </trkpt>
      <trkpt lat="40.1381674223" lon="-6.1461993121">
        <ele>417.35</ele>
        <time>2020-07-16T07:55:56Z</time>
      </trkpt>
      <trkpt lat="40.1383333839" lon="-6.1459512077">
        <ele>416.39</ele>
        <time>2020-07-16T07:56:04Z</time>
      </trkpt>
      <trkpt lat="40.1384175383" lon="-6.1457717512">
        <ele>416.39</ele>
        <time>2020-07-16T07:56:12Z</time>
      </trkpt>
      <trkpt lat="40.1385384891" lon="-6.1456318572">
        <ele>417.35</ele>
        <time>2020-07-16T07:56:19Z</time>
      </trkpt>
      <trkpt lat="40.1387360506" lon="-6.1454287637">
        <ele>416.87</ele>
        <time>2020-07-16T07:56:28Z</time>
      </trkpt>
      <trkpt lat="40.1389275771" lon="-6.1452172045">
        <ele>417.83</ele>
        <time>2020-07-16T07:56:36Z</time>
      </trkpt>
      <trkpt lat="40.1391712390" lon="-6.1448732950">
        <ele>418.79</ele>
        <time>2020-07-16T07:56:48Z</time>
      </trkpt>
      <trkpt lat="40.1393190119" lon="-6.1447339039">
        <ele>418.79</ele>
        <time>2020-07-16T07:56:54Z</time>
      </trkpt>
      <trkpt lat="40.1394372806" lon="-6.1446010508">
        <ele>417.83</ele>
        <time>2020-07-16T07:56:59Z</time>
      </trkpt>
      <trkpt lat="40.1394947805" lon="-6.1443566345">
        <ele>416.87</ele>
        <time>2020-07-16T07:57:06Z</time>
      </trkpt>
      <trkpt lat="40.1396060083" lon="-6.1440756731">
        <ele>416.39</ele>
        <time>2020-07-16T07:57:14Z</time>
      </trkpt>
      <trkpt lat="40.1398029830" lon="-6.1437978968">
        <ele>416.87</ele>
        <time>2020-07-16T07:57:22Z</time>
      </trkpt>
      <trkpt lat="40.1399890613" lon="-6.1435632035">
        <ele>416.87</ele>
        <time>2020-07-16T07:57:30Z</time>
      </trkpt>
      <trkpt lat="40.1401529275" lon="-6.1433085613">
        <ele>416.39</ele>
        <time>2020-07-16T07:57:38Z</time>
      </trkpt>
      <trkpt lat="40.1402319688" lon="-6.1430152785">
        <ele>417.35</ele>
        <time>2020-07-16T07:57:45Z</time>
      </trkpt>
      <trkpt lat="40.1403689291" lon="-6.1427671742">
        <ele>416.39</ele>
        <time>2020-07-16T07:57:52Z</time>
      </trkpt>
      <trkpt lat="40.1404418517" lon="-6.1426650826">
        <ele>415.43</ele>
        <time>2020-07-16T07:57:58Z</time>
      </trkpt>
      <trkpt lat="40.1405319571" lon="-6.1425608117">
        <ele>414.47</ele>
        <time>2020-07-16T07:58:05Z</time>
      </trkpt>
      <trkpt lat="40.1406278461" lon="-6.1424517632">
        <ele>414.47</ele>
        <time>2020-07-16T07:58:13Z</time>
      </trkpt>
      <trkpt lat="40.1407565922" lon="-6.1422678642">
        <ele>415.43</ele>
        <time>2020-07-16T07:58:21Z</time>
      </trkpt>
      <trkpt lat="40.1408402435" lon="-6.1420745775">
        <ele>415.91</ele>
        <time>2020-07-16T07:58:28Z</time>
      </trkpt>
      <trkpt lat="40.1409523934" lon="-6.1418988928">
        <ele>416.87</ele>
        <time>2020-07-16T07:58:35Z</time>
      </trkpt>
      <trkpt lat="40.1411391422" lon="-6.1417235434">
        <ele>416.39</ele>
        <time>2020-07-16T07:58:43Z</time>
      </trkpt>
      <trkpt lat="40.1413038466" lon="-6.1414538976">
        <ele>416.87</ele>
        <time>2020-07-16T07:58:52Z</time>
      </trkpt>
      <trkpt lat="40.1414243784" lon="-6.1411962379">
        <ele>416.87</ele>
        <time>2020-07-16T07:58:59Z</time>
      </trkpt>
      <trkpt lat="40.1415841375" lon="-6.1409120914">
        <ele>417.35</ele>
        <time>2020-07-16T07:59:06Z</time>
      </trkpt>
      <trkpt lat="40.1417946909" lon="-6.1406147853">
        <ele>416.39</ele>
        <time>2020-07-16T07:59:14Z</time>
      </trkpt>
      <trkpt lat="40.1419831160" lon="-6.1403284594">
        <ele>416.87</ele>
        <time>2020-07-16T07:59:22Z</time>
      </trkpt>
      <trkpt lat="40.1421417855" lon="-6.1400555447">
        <ele>416.39</ele>
        <time>2020-07-16T07:59:29Z</time>
      </trkpt>
      <trkpt lat="40.1421919093" lon="-6.1399832089">
        <ele>416.39</ele>
        <time>2020-07-16T07:59:31Z</time>
      </trkpt>
      <trkpt lat="40.1422166359" lon="-6.1399397906">
        <ele>416.39</ele>
        <time>2020-07-16T07:59:32Z</time>
      </trkpt>
      <trkpt lat="40.1422440447" lon="-6.1398986354">
        <ele>416.39</ele>
        <time>2020-07-16T07:59:33Z</time>
      </trkpt>
      <trkpt lat="40.1424663328" lon="-6.1395404767">
        <ele>416.39</ele>
        <time>2020-07-16T07:59:42Z</time>
      </trkpt>
      <trkpt lat="40.1426153630" lon="-6.1393576674">
        <ele>416.39</ele>
        <time>2020-07-16T07:59:48Z</time>
      </trkpt>
      <trkpt lat="40.1428166963" lon="-6.1390547454">
        <ele>415.91</ele>
        <time>2020-07-16T07:59:57Z</time>
      </trkpt>
      <trkpt lat="40.1430688240" lon="-6.1386215687">
        <ele>417.35</ele>
        <time>2020-07-16T08:00:09Z</time>
      </trkpt>
      <trkpt lat="40.1432207040" lon="-6.1383771524">
        <ele>416.87</ele>
        <time>2020-07-16T08:00:16Z</time>
      </trkpt>
      <trkpt lat="40.1434353646" lon="-6.1380807683">
        <ele>416.87</ele>
        <time>2020-07-16T08:00:25Z</time>
      </trkpt>
      <trkpt lat="40.1436602511" lon="-6.1377370264">
        <ele>417.35</ele>
        <time>2020-07-16T08:00:34Z</time>
      </trkpt>
      <trkpt lat="40.1438141428" lon="-6.1374532990">
        <ele>417.35</ele>
        <time>2020-07-16T08:00:41Z</time>
      </trkpt>
      <trkpt lat="40.1439823676" lon="-6.1372173484">
        <ele>416.87</ele>
        <time>2020-07-16T08:00:48Z</time>
      </trkpt>
      <trkpt lat="40.1441681944" lon="-6.1369576771">
        <ele>416.87</ele>
        <time>2020-07-16T08:00:54Z</time>
      </trkpt>
      <trkpt lat="40.1441966090" lon="-6.1369121633">
        <ele>416.39</ele>
        <time>2020-07-16T08:00:55Z</time>
      </trkpt>
      <trkpt lat="40.1442295499" lon="-6.1368641350">
        <ele>416.39</ele>
        <time>2020-07-16T08:00:56Z</time>
      </trkpt>
      <trkpt lat="40.1442578807" lon="-6.1368145142">
        <ele>416.39</ele>
        <time>2020-07-16T08:00:57Z</time>
      </trkpt>
      <trkpt lat="40.1442800090" lon="-6.1367664859">
        <ele>416.39</ele>
        <time>2020-07-16T08:00:58Z</time>
      </trkpt>
      <trkpt lat="40.1442975271" lon="-6.1367195472">
        <ele>416.39</ele>
        <time>2020-07-16T08:00:59Z</time>
      </trkpt>
      <trkpt lat="40.1444297936" lon="-6.1365033779">
        <ele>416.87</ele>
        <time>2020-07-16T08:01:05Z</time>
      </trkpt>
      <trkpt lat="40.1445958391" lon="-6.1362364143">
        <ele>416.39</ele>
        <time>2020-07-16T08:01:12Z</time>
      </trkpt>
      <trkpt lat="40.1447126828" lon="-6.1360628251">
        <ele>415.91</ele>
        <time>2020-07-16T08:01:16Z</time>
      </trkpt>
      <trkpt lat="40.1447432768" lon="-6.1360214185">
        <ele>415.91</ele>
        <time>2020-07-16T08:01:17Z</time>
      </trkpt>
      <trkpt lat="40.1450600289" lon="-6.1355470866">
        <ele>414.95</ele>
        <time>2020-07-16T08:01:28Z</time>
      </trkpt>
      <trkpt lat="40.1452295948" lon="-6.1352325976">
        <ele>414.47</ele>
        <time>2020-07-16T08:01:36Z</time>
      </trkpt>
      <trkpt lat="40.1453745179" lon="-6.1350089684">
        <ele>413.50</ele>
        <time>2020-07-16T08:01:43Z</time>
      </trkpt>
      <trkpt lat="40.1455444191" lon="-6.1347565055">
        <ele>412.54</ele>
        <time>2020-07-16T08:01:50Z</time>
      </trkpt>
      <trkpt lat="40.1457563974" lon="-6.1344036274">
        <ele>412.06</ele>
        <time>2020-07-16T08:01:59Z</time>
      </trkpt>
      <trkpt lat="40.1459447388" lon="-6.1341334786">
        <ele>411.58</ele>
        <time>2020-07-16T08:02:07Z</time>
      </trkpt>
      <trkpt lat="40.1460155658" lon="-6.1340372544">
        <ele>411.10</ele>
        <time>2020-07-16T08:02:13Z</time>
      </trkpt>
      <trkpt lat="40.1460910868" lon="-6.1339346599">
        <ele>410.62</ele>
        <time>2020-07-16T08:02:20Z</time>
      </trkpt>
      <trkpt lat="40.1461814437" lon="-6.1337850429">
        <ele>411.10</ele>
        <time>2020-07-16T08:02:26Z</time>
      </trkpt>
      <trkpt lat="40.1463595591" lon="-6.1335475836">
        <ele>411.10</ele>
        <time>2020-07-16T08:02:34Z</time>
      </trkpt>
      <trkpt lat="40.1465016324" lon="-6.1333216913">
        <ele>411.10</ele>
        <time>2020-07-16T08:02:41Z</time>
      </trkpt>
      <trkpt lat="40.1466647442" lon="-6.1330316775">
        <ele>411.10</ele>
        <time>2020-07-16T08:02:48Z</time>
      </trkpt>
      <trkpt lat="40.1468352322" lon="-6.1327597685">
        <ele>410.62</ele>
        <time>2020-07-16T08:02:55Z</time>
      </trkpt>
      <trkpt lat="40.1469951589" lon="-6.1324711796">
        <ele>411.10</ele>
        <time>2020-07-16T08:03:02Z</time>
      </trkpt>
      <trkpt lat="40.1472268347" lon="-6.1320878752">
        <ele>411.10</ele>
        <time>2020-07-16T08:03:11Z</time>
      </trkpt>
      <trkpt lat="40.1473663095" lon="-6.1318477336">
        <ele>410.62</ele>
        <time>2020-07-16T08:03:18Z</time>
      </trkpt>
      <trkpt lat="40.1475028507" lon="-6.1316638347">
        <ele>411.10</ele>
        <time>2020-07-16T08:03:25Z</time>
      </trkpt>
      <trkpt lat="40.1476400625" lon="-6.1313873995">
        <ele>411.10</ele>
        <time>2020-07-16T08:03:34Z</time>
      </trkpt>
      <trkpt lat="40.1477586664" lon="-6.1312130559">
        <ele>412.06</ele>
        <time>2020-07-16T08:03:41Z</time>
      </trkpt>
      <trkpt lat="40.1479107141" lon="-6.1310007423">
        <ele>412.06</ele>
        <time>2020-07-16T08:03:48Z</time>
      </trkpt>
      <trkpt lat="40.1480384544" lon="-6.1308032647">
        <ele>412.06</ele>
        <time>2020-07-16T08:03:54Z</time>
      </trkpt>
      <trkpt lat="40.1482074335" lon="-6.1305399053">
        <ele>412.54</ele>
        <time>2020-07-16T08:04:02Z</time>
      </trkpt>
      <trkpt lat="40.1483768318" lon="-6.1303278431">
        <ele>411.10</ele>
        <time>2020-07-16T08:04:08Z</time>
      </trkpt>
      <trkpt lat="40.1485504210" lon="-6.1300051399">
        <ele>410.62</ele>
        <time>2020-07-16T08:04:15Z</time>
      </trkpt>
      <trkpt lat="40.1485752314" lon="-6.1299599614">
        <ele>410.62</ele>
        <time>2020-07-16T08:04:16Z</time>
      </trkpt>
      <trkpt lat="40.1486603916" lon="-6.1298292875">
        <ele>410.62</ele>
        <time>2020-07-16T08:04:19Z</time>
      </trkpt>
      <trkpt lat="40.1487100963" lon="-6.1297393497">
        <ele>410.62</ele>
        <time>2020-07-16T08:04:21Z</time>
      </trkpt>
      <trkpt lat="40.1488154568" lon="-6.1295769922">
        <ele>410.14</ele>
        <time>2020-07-16T08:04:25Z</time>
      </trkpt>
      <trkpt lat="40.1489804126" lon="-6.1292961147">
        <ele>410.14</ele>
        <time>2020-07-16T08:04:32Z</time>
      </trkpt>
      <trkpt lat="40.1490706019" lon="-6.1291362718">
        <ele>410.14</ele>
        <time>2020-07-16T08:04:38Z</time>
      </trkpt>
      <trkpt lat="40.1491480507" lon="-6.1290223617">
        <ele>409.66</ele>
        <time>2020-07-16T08:04:44Z</time>
      </trkpt>
      <trkpt lat="40.1492325403" lon="-6.1289232876">
        <ele>409.18</ele>
        <time>2020-07-16T08:04:51Z</time>
      </trkpt>
      <trkpt lat="40.1493774634" lon="-6.1287526321">
        <ele>408.70</ele>
        <time>2020-07-16T08:04:59Z</time>
      </trkpt>
      <trkpt lat="40.1494788006" lon="-6.1286213715">
        <ele>408.70</ele>
        <time>2020-07-16T08:05:06Z</time>
      </trkpt>
      <trkpt lat="40.1495787129" lon="-6.1284005921">
        <ele>408.70</ele>
        <time>2020-07-16T08:05:14Z</time>
      </trkpt>
      <trkpt lat="40.1496593468" lon="-6.1282212194">
        <ele>409.66</ele>
        <time>2020-07-16T08:05:21Z</time>
      </trkpt>
      <trkpt lat="40.1497711614" lon="-6.1280609574">
        <ele>410.14</ele>
        <time>2020-07-16T08:05:28Z</time>
      </trkpt>
      <trkpt lat="40.1498652063" lon="-6.1279003602">
        <ele>410.62</ele>
        <time>2020-07-16T08:05:35Z</time>
      </trkpt>
      <trkpt lat="40.1499615982" lon="-6.1276887171">
        <ele>411.10</ele>
        <time>2020-07-16T08:05:42Z</time>
      </trkpt>
      <trkpt lat="40.1500699762" lon="-6.1275340710">
        <ele>411.10</ele>
        <time>2020-07-16T08:05:49Z</time>
      </trkpt>
      <trkpt lat="40.1501712296" lon="-6.1274456419">
        <ele>410.62</ele>
        <time>2020-07-16T08:05:54Z</time>
      </trkpt>
      <trkpt lat="40.1503146440" lon="-6.1272375192">
        <ele>410.62</ele>
        <time>2020-07-16T08:06:00Z</time>
      </trkpt>
      <trkpt lat="40.1504263747" lon="-6.1269920971">
        <ele>412.06</ele>
        <time>2020-07-16T08:06:07Z</time>
      </trkpt>
      <trkpt lat="40.1505132113" lon="-6.1268261354">
        <ele>412.54</ele>
        <time>2020-07-16T08:06:12Z</time>
      </trkpt>
      <trkpt lat="40.1506726351" lon="-6.1265615188">
        <ele>412.54</ele>
        <time>2020-07-16T08:06:20Z</time>
      </trkpt>
      <trkpt lat="40.1507423725" lon="-6.1264782865">
        <ele>412.54</ele>
        <time>2020-07-16T08:06:23Z</time>
      </trkpt>
      <trkpt lat="40.1508380100" lon="-6.1262995843">
        <ele>413.02</ele>
        <time>2020-07-16T08:06:30Z</time>
      </trkpt>
      <trkpt lat="40.1509651635" lon="-6.1261389032">
        <ele>412.54</ele>
        <time>2020-07-16T08:06:38Z</time>
      </trkpt>
      <trkpt lat="40.1510639861" lon="-6.1259898730">
        <ele>412.06</ele>
        <time>2020-07-16T08:06:45Z</time>
      </trkpt>
      <trkpt lat="40.1512006111" lon="-6.1257706862">
        <ele>413.02</ele>
        <time>2020-07-16T08:06:53Z</time>
      </trkpt>
      <trkpt lat="40.1512846816" lon="-6.1256233323">
        <ele>412.54</ele>
        <time>2020-07-16T08:06:59Z</time>
      </trkpt>
      <trkpt lat="40.1514330413" lon="-6.1254058219">
        <ele>413.02</ele>
        <time>2020-07-16T08:07:07Z</time>
      </trkpt>
      <trkpt lat="40.1515543275" lon="-6.1252143793">
        <ele>413.02</ele>
        <time>2020-07-16T08:07:14Z</time>
      </trkpt>
      <trkpt lat="40.1516592689" lon="-6.1250514351">
        <ele>413.02</ele>
        <time>2020-07-16T08:07:21Z</time>
      </trkpt>
      <trkpt lat="40.1518441737" lon="-6.1248283088">
        <ele>413.02</ele>
        <time>2020-07-16T08:07:31Z</time>
      </trkpt>
      <trkpt lat="40.1520354487" lon="-6.1245999858">
        <ele>413.50</ele>
        <time>2020-07-16T08:07:40Z</time>
      </trkpt>
      <trkpt lat="40.1521304995" lon="-6.1244645342">
        <ele>413.50</ele>
        <time>2020-07-16T08:07:45Z</time>
      </trkpt>
      <trkpt lat="40.1522754226" lon="-6.1242550705">
        <ele>414.47</ele>
        <time>2020-07-16T08:07:53Z</time>
      </trkpt>
      <trkpt lat="40.1524191722" lon="-6.1241019331">
        <ele>414.95</ele>
        <time>2020-07-16T08:08:00Z</time>
      </trkpt>
      <trkpt lat="40.1525100321" lon="-6.1239088140">
        <ele>415.91</ele>
        <time>2020-07-16T08:08:07Z</time>
      </trkpt>
      <trkpt lat="40.1526055019" lon="-6.1237307824">
        <ele>416.39</ele>
        <time>2020-07-16T08:08:14Z</time>
      </trkpt>
      <trkpt lat="40.1527437195" lon="-6.1234625615">
        <ele>417.35</ele>
        <time>2020-07-16T08:08:24Z</time>
      </trkpt>
      <trkpt lat="40.1528224256" lon="-6.1233360786">
        <ele>417.83</ele>
        <time>2020-07-16T08:08:31Z</time>
      </trkpt>
      <trkpt lat="40.1528520137" lon="-6.1232691072">
        <ele>417.83</ele>
        <time>2020-07-16T08:08:35Z</time>
      </trkpt>
      <trkpt lat="40.1529536024" lon="-6.1230577994">
        <ele>418.79</ele>
        <time>2020-07-16T08:08:45Z</time>
      </trkpt>
      <trkpt lat="40.1530172210" lon="-6.1229091883">
        <ele>419.75</ele>
        <time>2020-07-16T08:08:52Z</time>
      </trkpt>
      <trkpt lat="40.1531018782" lon="-6.1227465793">
        <ele>421.19</ele>
        <time>2020-07-16T08:08:59Z</time>
      </trkpt>
      <trkpt lat="40.1531002019" lon="-6.1227213498">
        <ele>422.64</ele>
        <time>2020-07-16T08:09:17Z</time>
      </trkpt>
      <trkpt lat="40.1530956756" lon="-6.1227285583">
        <ele>421.19</ele>
        <time>2020-07-16T08:09:35Z</time>
      </trkpt>
      <trkpt lat="40.1530982740" lon="-6.1227374431">
        <ele>421.68</ele>
        <time>2020-07-16T08:09:50Z</time>
      </trkpt>
      <trkpt lat="40.1531470567" lon="-6.1226601619">
        <ele>421.68</ele>
        <time>2020-07-16T08:09:56Z</time>
      </trkpt>
      <trkpt lat="40.1532354858" lon="-6.1225258838">
        <ele>421.68</ele>
        <time>2020-07-16T08:10:04Z</time>
      </trkpt>
      <trkpt lat="40.1533181313" lon="-6.1224369518">
        <ele>421.68</ele>
        <time>2020-07-16T08:10:10Z</time>
      </trkpt>
      <trkpt lat="40.1534099132" lon="-6.1222605966">
        <ele>422.16</ele>
        <time>2020-07-16T08:10:18Z</time>
      </trkpt>
      <trkpt lat="40.1534964982" lon="-6.1220947187">
        <ele>421.19</ele>
        <time>2020-07-16T08:10:26Z</time>
      </trkpt>
      <trkpt lat="40.1535736956" lon="-6.1219781265">
        <ele>421.68</ele>
        <time>2020-07-16T08:10:32Z</time>
      </trkpt>
      <trkpt lat="40.1536498033" lon="-6.1218876857">
        <ele>422.16</ele>
        <time>2020-07-16T08:10:39Z</time>
      </trkpt>
      <trkpt lat="40.1536771283" lon="-6.1218252406">
        <ele>422.64</ele>
        <time>2020-07-16T08:10:42Z</time>
      </trkpt>
      <trkpt lat="40.1537682395" lon="-6.1216872744">
        <ele>422.64</ele>
        <time>2020-07-16T08:10:49Z</time>
      </trkpt>
      <trkpt lat="40.1538667269" lon="-6.1215536669">
        <ele>423.12</ele>
        <time>2020-07-16T08:10:58Z</time>
      </trkpt>
      <trkpt lat="40.1539544016" lon="-6.1214167066">
        <ele>423.60</ele>
        <time>2020-07-16T08:11:07Z</time>
      </trkpt>
      <trkpt lat="40.1540448423" lon="-6.1212893017">
        <ele>423.60</ele>
        <time>2020-07-16T08:11:15Z</time>
      </trkpt>
      <trkpt lat="40.1541367918" lon="-6.1211234238">
        <ele>425.04</ele>
        <time>2020-07-16T08:11:23Z</time>
      </trkpt>
      <trkpt lat="40.1542653702" lon="-6.1209199112">
        <ele>426.00</ele>
        <time>2020-07-16T08:11:32Z</time>
      </trkpt>
      <trkpt lat="40.1544094551" lon="-6.1207090225">
        <ele>426.48</ele>
        <time>2020-07-16T08:11:41Z</time>
      </trkpt>
      <trkpt lat="40.1545458287" lon="-6.1205831263">
        <ele>426.96</ele>
        <time>2020-07-16T08:11:48Z</time>
      </trkpt>
      <trkpt lat="40.1546778437" lon="-6.1204360239">
        <ele>426.96</ele>
        <time>2020-07-16T08:11:54Z</time>
      </trkpt>
      <trkpt lat="40.1547469106" lon="-6.1203741655">
        <ele>426.96</ele>
        <time>2020-07-16T08:11:59Z</time>
      </trkpt>
      <trkpt lat="40.1548398659" lon="-6.1204554699">
        <ele>426.96</ele>
        <time>2020-07-16T08:12:06Z</time>
      </trkpt>
      <trkpt lat="40.1549297199" lon="-6.1203852296">
        <ele>426.96</ele>
        <time>2020-07-16T08:12:13Z</time>
      </trkpt>
      <trkpt lat="40.1550794207" lon="-6.1201895960">
        <ele>427.92</ele>
        <time>2020-07-16T08:12:24Z</time>
      </trkpt>
      <trkpt lat="40.1552061550" lon="-6.1199463531">
        <ele>428.40</ele>
        <time>2020-07-16T08:12:34Z</time>
      </trkpt>
      <trkpt lat="40.1552892197" lon="-6.1197554972">
        <ele>429.37</ele>
        <time>2020-07-16T08:12:42Z</time>
      </trkpt>
      <trkpt lat="40.1553872041" lon="-6.1194789782">
        <ele>429.37</ele>
        <time>2020-07-16T08:12:52Z</time>
      </trkpt>
      <trkpt lat="40.1555073168" lon="-6.1193280201">
        <ele>429.37</ele>
        <time>2020-07-16T08:12:59Z</time>
      </trkpt>
      <trkpt lat="40.1556603704" lon="-6.1191406008">
        <ele>429.37</ele>
        <time>2020-07-16T08:13:07Z</time>
      </trkpt>
      <trkpt lat="40.1557588577" lon="-6.1190119386">
        <ele>428.89</ele>
        <time>2020-07-16T08:13:14Z</time>
      </trkpt>
      <trkpt lat="40.1558452751" lon="-6.1188661773">
        <ele>429.37</ele>
        <time>2020-07-16T08:13:20Z</time>
      </trkpt>
      <trkpt lat="40.1559510548" lon="-6.1186399497">
        <ele>430.33</ele>
        <time>2020-07-16T08:13:28Z</time>
      </trkpt>
      <trkpt lat="40.1560837403" lon="-6.1184205953">
        <ele>429.85</ele>
        <time>2020-07-16T08:13:35Z</time>
      </trkpt>
      <trkpt lat="40.1562346984" lon="-6.1181725748">
        <ele>429.85</ele>
        <time>2020-07-16T08:13:43Z</time>
      </trkpt>
      <trkpt lat="40.1563662942" lon="-6.1179511249">
        <ele>429.37</ele>
        <time>2020-07-16T08:13:52Z</time>
      </trkpt>
      <trkpt lat="40.1564623509" lon="-6.1178046931">
        <ele>429.37</ele>
        <time>2020-07-16T08:13:57Z</time>
      </trkpt>
      <trkpt lat="40.1565924380" lon="-6.1175381485">
        <ele>428.89</ele>
        <time>2020-07-16T08:14:05Z</time>
      </trkpt>
      <trkpt lat="40.1567407139" lon="-6.1172462068">
        <ele>429.37</ele>
        <time>2020-07-16T08:14:13Z</time>
      </trkpt>
      <trkpt lat="40.1569053344" lon="-6.1169897206">
        <ele>429.85</ele>
        <time>2020-07-16T08:14:21Z</time>
      </trkpt>
      <trkpt lat="40.1570603997" lon="-6.1167054065">
        <ele>430.81</ele>
        <time>2020-07-16T08:14:29Z</time>
      </trkpt>
      <trkpt lat="40.1571977790" lon="-6.1164223496">
        <ele>431.29</ele>
        <time>2020-07-16T08:14:37Z</time>
      </trkpt>
      <trkpt lat="40.1573716197" lon="-6.1161506921">
        <ele>430.81</ele>
        <time>2020-07-16T08:14:45Z</time>
      </trkpt>
      <trkpt lat="40.1575018745" lon="-6.1159606744">
        <ele>431.29</ele>
        <time>2020-07-16T08:14:51Z</time>
      </trkpt>
      <trkpt lat="40.1577358972" lon="-6.1156977341">
        <ele>431.29</ele>
        <time>2020-07-16T08:14:59Z</time>
      </trkpt>
      <trkpt lat="40.1579783857" lon="-6.1154291779">
        <ele>430.81</ele>
        <time>2020-07-16T08:15:07Z</time>
      </trkpt>
      <trkpt lat="40.1581621170" lon="-6.1151862703">
        <ele>430.33</ele>
        <time>2020-07-16T08:15:13Z</time>
      </trkpt>
      <trkpt lat="40.1584309246" lon="-6.1147438735">
        <ele>429.85</ele>
        <time>2020-07-16T08:15:23Z</time>
      </trkpt>
      <trkpt lat="40.1586377900" lon="-6.1143738125">
        <ele>428.89</ele>
        <time>2020-07-16T08:15:32Z</time>
      </trkpt>
      <trkpt lat="40.1588789374" lon="-6.1141331680">
        <ele>428.40</ele>
        <time>2020-07-16T08:15:40Z</time>
      </trkpt>
      <trkpt lat="40.1590401214" lon="-6.1138748378">
        <ele>428.89</ele>
        <time>2020-07-16T08:15:47Z</time>
      </trkpt>
      <trkpt lat="40.1592008863" lon="-6.1135814711">
        <ele>428.40</ele>
        <time>2020-07-16T08:15:55Z</time>
      </trkpt>
      <trkpt lat="40.1592715457" lon="-6.1133489572">
        <ele>427.92</ele>
        <time>2020-07-16T08:16:00Z</time>
      </trkpt>
      <trkpt lat="40.1592934225" lon="-6.1133113224">
        <ele>427.44</ele>
        <time>2020-07-16T08:16:01Z</time>
      </trkpt>
      <trkpt lat="40.1595777366" lon="-6.1128330510">
        <ele>425.52</ele>
        <time>2020-07-16T08:16:11Z</time>
      </trkpt>
      <trkpt lat="40.1598109212" lon="-6.1124451365">
        <ele>424.56</ele>
        <time>2020-07-16T08:16:18Z</time>
      </trkpt>
      <trkpt lat="40.1598471310" lon="-6.1123991199">
        <ele>424.56</ele>
        <time>2020-07-16T08:16:19Z</time>
      </trkpt>
      <trkpt lat="40.1599518210" lon="-6.1122448090">
        <ele>424.08</ele>
        <time>2020-07-16T08:16:22Z</time>
      </trkpt>
      <trkpt lat="40.1601959020" lon="-6.1119092815">
        <ele>423.12</ele>
        <time>2020-07-16T08:16:29Z</time>
      </trkpt>
      <trkpt lat="40.1604644582" lon="-6.1115950439">
        <ele>423.12</ele>
        <time>2020-07-16T08:16:37Z</time>
      </trkpt>
      <trkpt lat="40.1606138237" lon="-6.1114439182">
        <ele>422.64</ele>
        <time>2020-07-16T08:16:41Z</time>
      </trkpt>
      <trkpt lat="40.1610339247" lon="-6.1111821514">
        <ele>420.23</ele>
        <time>2020-07-16T08:16:49Z</time>
      </trkpt>
      <trkpt lat="40.1614494994" lon="-6.1108581070">
        <ele>419.27</ele>
        <time>2020-07-16T08:16:57Z</time>
      </trkpt>
      <trkpt lat="40.1616991125" lon="-6.1106193066">
        <ele>418.79</ele>
        <time>2020-07-16T08:17:03Z</time>
      </trkpt>
      <trkpt lat="40.1619900484" lon="-6.1101334915">
        <ele>418.31</ele>
        <time>2020-07-16T08:17:13Z</time>
      </trkpt>
      <trkpt lat="40.1621814910" lon="-6.1097986344">
        <ele>419.27</ele>
        <time>2020-07-16T08:17:20Z</time>
      </trkpt>
      <trkpt lat="40.1623562537" lon="-6.1094110552">
        <ele>419.75</ele>
        <time>2020-07-16T08:17:28Z</time>
      </trkpt>
      <trkpt lat="40.1624564175" lon="-6.1089293472">
        <ele>418.31</ele>
        <time>2020-07-16T08:17:37Z</time>
      </trkpt>
      <trkpt lat="40.1624566689" lon="-6.1088710930">
        <ele>418.31</ele>
        <time>2020-07-16T08:17:38Z</time>
      </trkpt>
      <trkpt lat="40.1624558307" lon="-6.1088110786">
        <ele>417.83</ele>
        <time>2020-07-16T08:17:39Z</time>
      </trkpt>
      <trkpt lat="40.1624533162" lon="-6.1087532435">
        <ele>417.83</ele>
        <time>2020-07-16T08:17:40Z</time>
      </trkpt>
      <trkpt lat="40.1624495443" lon="-6.1086959112">
        <ele>417.35</ele>
        <time>2020-07-16T08:17:41Z</time>
      </trkpt>
      <trkpt lat="40.1624468621" lon="-6.1086386628">
        <ele>417.35</ele>
        <time>2020-07-16T08:17:42Z</time>
      </trkpt>
      <trkpt lat="40.1624580938" lon="-6.1081012990">
        <ele>416.39</ele>
        <time>2020-07-16T08:17:52Z</time>
      </trkpt>
      <trkpt lat="40.1625473611" lon="-6.1078156438">
        <ele>415.91</ele>
        <time>2020-07-16T08:17:58Z</time>
      </trkpt>
      <trkpt lat="40.1625731774" lon="-6.1077687889">
        <ele>415.91</ele>
        <time>2020-07-16T08:17:59Z</time>
      </trkpt>
      <trkpt lat="40.1626022626" lon="-6.1077249516">
        <ele>415.91</ele>
        <time>2020-07-16T08:18:00Z</time>
      </trkpt>
      <trkpt lat="40.1628522109" lon="-6.1074491031">
        <ele>414.95</ele>
        <time>2020-07-16T08:18:07Z</time>
      </trkpt>
      <trkpt lat="40.1630207710" lon="-6.1071976461">
        <ele>413.98</ele>
        <time>2020-07-16T08:18:14Z</time>
      </trkpt>
      <trkpt lat="40.1631801110" lon="-6.1068513058">
        <ele>412.06</ele>
        <time>2020-07-16T08:18:22Z</time>
      </trkpt>
      <trkpt lat="40.1633639261" lon="-6.1065152753">
        <ele>409.66</ele>
        <time>2020-07-16T08:18:31Z</time>
      </trkpt>
      <trkpt lat="40.1635624934" lon="-6.1062348168">
        <ele>408.22</ele>
        <time>2020-07-16T08:18:40Z</time>
      </trkpt>
      <trkpt lat="40.1636759005" lon="-6.1060308013">
        <ele>407.74</ele>
        <time>2020-07-16T08:18:48Z</time>
      </trkpt>
      <trkpt lat="40.1637789141" lon="-6.1058308929">
        <ele>406.29</ele>
        <time>2020-07-16T08:18:57Z</time>
      </trkpt>
      <trkpt lat="40.1639315486" lon="-6.1056309845">
        <ele>406.29</ele>
        <time>2020-07-16T08:19:05Z</time>
      </trkpt>
      <trkpt lat="40.1640354842" lon="-6.1054856423">
        <ele>405.33</ele>
        <time>2020-07-16T08:19:12Z</time>
      </trkpt>
      <trkpt lat="40.1640341431" lon="-6.1054843850">
        <ele>405.33</ele>
        <time>2020-07-16T08:19:18Z</time>
      </trkpt>
      <trkpt lat="40.1640716940" lon="-6.1054037511">
        <ele>404.85</ele>
        <time>2020-07-16T08:19:25Z</time>
      </trkpt>
      <trkpt lat="40.1641364023" lon="-6.1052259710">
        <ele>403.89</ele>
        <time>2020-07-16T08:19:31Z</time>
      </trkpt>
      <trkpt lat="40.1642382424" lon="-6.1050007492">
        <ele>402.45</ele>
        <time>2020-07-16T08:19:39Z</time>
      </trkpt>
      <trkpt lat="40.1643426809" lon="-6.1047965661">
        <ele>400.05</ele>
        <time>2020-07-16T08:19:47Z</time>
      </trkpt>
      <trkpt lat="40.1644391567" lon="-6.1046008486">
        <ele>399.57</ele>
        <time>2020-07-16T08:19:54Z</time>
      </trkpt>
      <trkpt lat="40.1645132527" lon="-6.1044627987">
        <ele>400.05</ele>
        <time>2020-07-16T08:20:01Z</time>
      </trkpt>
      <trkpt lat="40.1645851694" lon="-6.1043466255">
        <ele>399.08</ele>
        <time>2020-07-16T08:20:09Z</time>
      </trkpt>
      <trkpt lat="40.1647178549" lon="-6.1041349825">
        <ele>398.60</ele>
        <time>2020-07-16T08:20:19Z</time>
      </trkpt>
      <trkpt lat="40.1648323517" lon="-6.1039242614">
        <ele>398.60</ele>
        <time>2020-07-16T08:20:25Z</time>
      </trkpt>
      <trkpt lat="40.1650174242" lon="-6.1035895720">
        <ele>399.08</ele>
        <time>2020-07-16T08:20:35Z</time>
      </trkpt>
      <trkpt lat="40.1650857367" lon="-6.1035137996">
        <ele>399.57</ele>
        <time>2020-07-16T08:20:39Z</time>
      </trkpt>
      <trkpt lat="40.1651014946" lon="-6.1035021488">
        <ele>400.05</ele>
        <time>2020-07-16T08:20:40Z</time>
      </trkpt>
      <trkpt lat="40.1651182584" lon="-6.1034858041">
        <ele>399.57</ele>
        <time>2020-07-16T08:20:41Z</time>
      </trkpt>
      <trkpt lat="40.1652960386" lon="-6.1033854727">
        <ele>400.05</ele>
        <time>2020-07-16T08:20:48Z</time>
      </trkpt>
      <trkpt lat="40.1654721424" lon="-6.1032629292">
        <ele>400.53</ele>
        <time>2020-07-16T08:20:56Z</time>
      </trkpt>
      <trkpt lat="40.1655621640" lon="-6.1031233706">
        <ele>400.53</ele>
        <time>2020-07-16T08:21:04Z</time>
      </trkpt>
      <trkpt lat="40.1656575501" lon="-6.1029486079">
        <ele>401.01</ele>
        <time>2020-07-16T08:21:12Z</time>
      </trkpt>
      <trkpt lat="40.1657634974" lon="-6.1027832329">
        <ele>401.49</ele>
        <time>2020-07-16T08:21:20Z</time>
      </trkpt>
      <trkpt lat="40.1658158004" lon="-6.1026920378">
        <ele>401.49</ele>
        <time>2020-07-16T08:21:26Z</time>
      </trkpt>
      <trkpt lat="40.1658863761" lon="-6.1025694106">
        <ele>401.49</ele>
        <time>2020-07-16T08:21:33Z</time>
      </trkpt>
      <trkpt lat="40.1659675129" lon="-6.1024638824">
        <ele>401.49</ele>
        <time>2020-07-16T08:21:40Z</time>
      </trkpt>
      <trkpt lat="40.1660573669" lon="-6.1023151036">
        <ele>401.49</ele>
        <time>2020-07-16T08:21:48Z</time>
      </trkpt>
      <trkpt lat="40.1661503222" lon="-6.1021531653">
        <ele>402.45</ele>
        <time>2020-07-16T08:21:57Z</time>
      </trkpt>
      <trkpt lat="40.1661721151" lon="-6.1020969227">
        <ele>401.97</ele>
        <time>2020-07-16T08:22:00Z</time>
      </trkpt>
      <trkpt lat="40.1661861967" lon="-6.1020459607">
        <ele>402.45</ele>
        <time>2020-07-16T08:22:07Z</time>
      </trkpt>
      <trkpt lat="40.1662026253" lon="-6.1020119302">
        <ele>403.41</ele>
        <time>2020-07-16T08:22:12Z</time>
      </trkpt>
      <trkpt lat="40.1662128512" lon="-6.1019654945">
        <ele>403.41</ele>
        <time>2020-07-16T08:22:15Z</time>
      </trkpt>
      <trkpt lat="40.1662172098" lon="-6.1018877942">
        <ele>403.89</ele>
        <time>2020-07-16T08:22:24Z</time>
      </trkpt>
      <trkpt lat="40.1662167069" lon="-6.1018768139">
        <ele>406.29</ele>
        <time>2020-07-16T08:22:41Z</time>
      </trkpt>
      <trkpt lat="40.1662314590" lon="-6.1016641650">
        <ele>406.77</ele>
        <time>2020-07-16T08:22:51Z</time>
      </trkpt>
      <trkpt lat="40.1662894618" lon="-6.1015002150">
        <ele>406.77</ele>
        <time>2020-07-16T08:22:59Z</time>
      </trkpt>
      <trkpt lat="40.1663655695" lon="-6.1013324093">
        <ele>406.77</ele>
        <time>2020-07-16T08:23:06Z</time>
      </trkpt>
      <trkpt lat="40.1664471254" lon="-6.1011792719">
        <ele>406.29</ele>
        <time>2020-07-16T08:23:13Z</time>
      </trkpt>
      <trkpt lat="40.1665291004" lon="-6.1010101251">
        <ele>406.29</ele>
        <time>2020-07-16T08:23:21Z</time>
      </trkpt>
      <trkpt lat="40.1666254085" lon="-6.1008397210">
        <ele>405.33</ele>
        <time>2020-07-16T08:23:30Z</time>
      </trkpt>
      <trkpt lat="40.1667050365" lon="-6.1007118132">
        <ele>405.33</ele>
        <time>2020-07-16T08:23:39Z</time>
      </trkpt>
      <trkpt lat="40.1667269971" lon="-6.1007436644">
        <ele>405.33</ele>
        <time>2020-07-16T08:23:45Z</time>
      </trkpt>
      <trkpt lat="40.1667206269" lon="-6.1007657927">
        <ele>404.85</ele>
        <time>2020-07-16T08:23:52Z</time>
      </trkpt>
      <trkpt lat="40.1667132508" lon="-6.1007766891">
        <ele>405.33</ele>
        <time>2020-07-16T08:23:53Z</time>
      </trkpt>
      <trkpt lat="40.1666393224" lon="-6.1008983105">
        <ele>405.33</ele>
        <time>2020-07-16T08:24:02Z</time>
      </trkpt>
      <trkpt lat="40.1666311920" lon="-6.1009108834">
        <ele>404.85</ele>
        <time>2020-07-16T08:24:07Z</time>
      </trkpt>
      <trkpt lat="40.1666270010" lon="-6.1009116378">
        <ele>404.85</ele>
        <time>2020-07-16T08:24:15Z</time>
      </trkpt>
      <trkpt lat="40.1666224748" lon="-6.1009023339">
        <ele>404.85</ele>
        <time>2020-07-16T08:24:29Z</time>
      </trkpt>
      <trkpt lat="40.1666205470" lon="-6.1008957960">
        <ele>405.81</ele>
        <time>2020-07-16T08:24:48Z</time>
      </trkpt>
      <trkpt lat="40.1666187868" lon="-6.1009017471">
        <ele>405.33</ele>
        <time>2020-07-16T08:24:59Z</time>
      </trkpt>
      <trkpt lat="40.1666177809" lon="-6.1008994002">
        <ele>404.85</ele>
        <time>2020-07-16T08:25:18Z</time>
      </trkpt>
      <trkpt lat="40.1666250732" lon="-6.1009045132">
        <ele>404.85</ele>
        <time>2020-07-16T08:25:38Z</time>
      </trkpt>
      <trkpt lat="40.1666394062" lon="-6.1009024177">
        <ele>404.85</ele>
        <time>2020-07-16T08:25:55Z</time>
      </trkpt>
      <trkpt lat="40.1666364726" lon="-6.1009055190">
        <ele>404.85</ele>
        <time>2020-07-16T08:26:12Z</time>
      </trkpt>
      <trkpt lat="40.1666126680" lon="-6.1009113025">
        <ele>404.85</ele>
        <time>2020-07-16T08:26:27Z</time>
      </trkpt>
      <trkpt lat="40.1666060463" lon="-6.1009225342">
        <ele>404.85</ele>
        <time>2020-07-16T08:26:44Z</time>
      </trkpt>
      <trkpt lat="40.1666115783" lon="-6.1009080335">
        <ele>404.37</ele>
        <time>2020-07-16T08:26:59Z</time>
      </trkpt>
      <trkpt lat="40.1666140929" lon="-6.1009064410">
        <ele>404.37</ele>
        <time>2020-07-16T08:27:17Z</time>
      </trkpt>
      <trkpt lat="40.1666198764" lon="-6.1009063572">
        <ele>404.85</ele>
        <time>2020-07-16T08:27:30Z</time>
      </trkpt>
      <trkpt lat="40.1666182000" lon="-6.1008974724">
        <ele>405.33</ele>
        <time>2020-07-16T08:27:49Z</time>
      </trkpt>
      <trkpt lat="40.1666238159" lon="-6.1008931138">
        <ele>404.37</ele>
        <time>2020-07-16T08:28:05Z</time>
      </trkpt>
      <trkpt lat="40.1666250732" lon="-6.1008851510">
        <ele>404.37</ele>
        <time>2020-07-16T08:28:25Z</time>
      </trkpt>
      <trkpt lat="40.1666373108" lon="-6.1008945387">
        <ele>403.41</ele>
        <time>2020-07-16T08:28:41Z</time>
      </trkpt>
      <trkpt lat="40.1666313596" lon="-6.1008997355">
        <ele>402.93</ele>
        <time>2020-07-16T08:28:54Z</time>
      </trkpt>
      <trkpt lat="40.1666005980" lon="-6.1009203549">
        <ele>403.41</ele>
        <time>2020-07-16T08:29:03Z</time>
      </trkpt>
      <trkpt lat="40.1665572636" lon="-6.1009620130">
        <ele>402.45</ele>
        <time>2020-07-16T08:29:11Z</time>
      </trkpt>
      <trkpt lat="40.1665392425" lon="-6.1009534635">
        <ele>402.93</ele>
        <time>2020-07-16T08:29:18Z</time>
      </trkpt>
      <trkpt lat="40.1665394939" lon="-6.1009540502">
        <ele>404.37</ele>
        <time>2020-07-16T08:29:27Z</time>
      </trkpt>
      <trkpt lat="40.1665443555" lon="-6.1009539664">
        <ele>403.89</ele>
        <time>2020-07-16T08:29:38Z</time>
      </trkpt>
      <trkpt lat="40.1665415056" lon="-6.1009505298">
        <ele>403.41</ele>
        <time>2020-07-16T08:29:50Z</time>
      </trkpt>
      <trkpt lat="40.1665266696" lon="-6.1009486858">
        <ele>404.37</ele>
        <time>2020-07-16T08:30:00Z</time>
      </trkpt>
      <trkpt lat="40.1665197965" lon="-6.1009453330">
        <ele>404.85</ele>
        <time>2020-07-16T08:30:12Z</time>
      </trkpt>
      <trkpt lat="40.1665400807" lon="-6.1009493563">
        <ele>405.33</ele>
        <time>2020-07-16T08:30:23Z</time>
      </trkpt>
      <trkpt lat="40.1665379852" lon="-6.1009585764">
        <ele>406.29</ele>
        <time>2020-07-16T08:30:36Z</time>
      </trkpt>
      <trkpt lat="40.1665242389" lon="-6.1009548046">
        <ele>406.29</ele>
        <time>2020-07-16T08:30:48Z</time>
      </trkpt>
      <trkpt lat="40.1665205508" lon="-6.1009568162">
        <ele>406.29</ele>
        <time>2020-07-16T08:31:00Z</time>
      </trkpt>
      <trkpt lat="40.1665277593" lon="-6.1009533796">
        <ele>406.77</ele>
        <time>2020-07-16T08:31:11Z</time>
      </trkpt>
      <trkpt lat="40.1665273402" lon="-6.1009500269">
        <ele>408.22</ele>
        <time>2020-07-16T08:31:28Z</time>
      </trkpt>
      <trkpt lat="40.1665361412" lon="-6.1009523738">
        <ele>407.26</ele>
        <time>2020-07-16T08:31:42Z</time>
      </trkpt>
      <trkpt lat="40.1665520668" lon="-6.1009598337">
        <ele>408.22</ele>
        <time>2020-07-16T08:31:53Z</time>
      </trkpt>
      <trkpt lat="40.1665450260" lon="-6.1009618454">
        <ele>408.70</ele>
        <time>2020-07-16T08:32:12Z</time>
      </trkpt>
      <trkpt lat="40.1665440202" lon="-6.1009733286">
        <ele>407.74</ele>
        <time>2020-07-16T08:32:25Z</time>
      </trkpt>
      <trkpt lat="40.1665425114" lon="-6.1009838898">
        <ele>407.74</ele>
        <time>2020-07-16T08:32:35Z</time>
      </trkpt>
      <trkpt lat="40.1665454451" lon="-6.1009884998">
        <ele>407.26</ele>
        <time>2020-07-16T08:32:53Z</time>
      </trkpt>
      <trkpt lat="40.1665357221" lon="-6.1009895056">
        <ele>407.26</ele>
        <time>2020-07-16T08:33:07Z</time>
      </trkpt>
      <trkpt lat="40.1665259153" lon="-6.1009997316">
        <ele>407.26</ele>
        <time>2020-07-16T08:33:23Z</time>
      </trkpt>
      <trkpt lat="40.1665232331" lon="-6.1010041740">
        <ele>407.74</ele>
        <time>2020-07-16T08:33:39Z</time>
      </trkpt>
      <trkpt lat="40.1665207185" lon="-6.1009911820">
        <ele>407.74</ele>
        <time>2020-07-16T08:33:52Z</time>
      </trkpt>
      <trkpt lat="40.1665246580" lon="-6.1009882484">
        <ele>407.74</ele>
        <time>2020-07-16T08:34:06Z</time>
      </trkpt>
      <trkpt lat="40.1665288489" lon="-6.1009898409">
        <ele>407.26</ele>
        <time>2020-07-16T08:34:20Z</time>
      </trkpt>
      <trkpt lat="40.1665402483" lon="-6.1009719037">
        <ele>406.29</ele>
        <time>2020-07-16T08:34:35Z</time>
      </trkpt>
      <trkpt lat="40.1665627956" lon="-6.1009589955">
        <ele>406.29</ele>
        <time>2020-07-16T08:34:50Z</time>
      </trkpt>
      <trkpt lat="40.1665526535" lon="-6.1009519547">
        <ele>406.77</ele>
        <time>2020-07-16T08:35:05Z</time>
      </trkpt>
      <trkpt lat="40.1665561739" lon="-6.1009525415">
        <ele>406.29</ele>
        <time>2020-07-16T08:35:21Z</time>
      </trkpt>
      <trkpt lat="40.1665395778" lon="-6.1009373702">
        <ele>405.81</ele>
        <time>2020-07-16T08:35:40Z</time>
      </trkpt>
      <trkpt lat="40.1665458642" lon="-6.1009454168">
        <ele>406.29</ele>
        <time>2020-07-16T08:36:00Z</time>
      </trkpt>
      <trkpt lat="40.1665472891" lon="-6.1009631027">
        <ele>405.81</ele>
        <time>2020-07-16T08:36:12Z</time>
      </trkpt>
      <trkpt lat="40.1665533241" lon="-6.1009730771">
        <ele>405.81</ele>
        <time>2020-07-16T08:36:30Z</time>
      </trkpt>
      <trkpt lat="40.1665367279" lon="-6.1009783577">
        <ele>406.77</ele>
        <time>2020-07-16T08:36:47Z</time>
      </trkpt>
      <trkpt lat="40.1665379014" lon="-6.1009805370">
        <ele>406.29</ele>
        <time>2020-07-16T08:37:01Z</time>
      </trkpt>
      <trkpt lat="40.1665291842" lon="-6.1009763461">
        <ele>405.33</ele>
        <time>2020-07-16T08:37:16Z</time>
      </trkpt>
      <trkpt lat="40.1665283460" lon="-6.1009615101">
        <ele>404.85</ele>
        <time>2020-07-16T08:37:31Z</time>
      </trkpt>
      <trkpt lat="40.1665234007" lon="-6.1009776872">
        <ele>405.33</ele>
        <time>2020-07-16T08:37:51Z</time>
      </trkpt>
      <trkpt lat="40.1665211376" lon="-6.1009618454">
        <ele>406.29</ele>
        <time>2020-07-16T08:38:08Z</time>
      </trkpt>
      <trkpt lat="40.1665147673" lon="-6.1009589117">
        <ele>406.29</ele>
        <time>2020-07-16T08:38:19Z</time>
      </trkpt>
      <trkpt lat="40.1665291842" lon="-6.1009618454">
        <ele>405.81</ele>
        <time>2020-07-16T08:38:35Z</time>
      </trkpt>
      <trkpt lat="40.1665383205" lon="-6.1009659525">
        <ele>405.81</ele>
        <time>2020-07-16T08:38:53Z</time>
      </trkpt>
      <trkpt lat="40.1665416732" lon="-6.1009656172">
        <ele>406.77</ele>
        <time>2020-07-16T08:39:08Z</time>
      </trkpt>
      <trkpt lat="40.1665421762" lon="-6.1009574030">
        <ele>408.22</ele>
        <time>2020-07-16T08:39:25Z</time>
      </trkpt>
      <trkpt lat="40.1665463671" lon="-6.1009641923">
        <ele>407.74</ele>
        <time>2020-07-16T08:39:43Z</time>
      </trkpt>
      <trkpt lat="40.1665471215" lon="-6.1009597499">
        <ele>406.77</ele>
        <time>2020-07-16T08:39:57Z</time>
      </trkpt>
      <trkpt lat="40.1665311120" lon="-6.1009696405">
        <ele>406.29</ele>
        <time>2020-07-16T08:40:15Z</time>
      </trkpt>
      <trkpt lat="40.1665209699" lon="-6.1009646114">
        <ele>405.33</ele>
        <time>2020-07-16T08:40:31Z</time>
      </trkpt>
      <trkpt lat="40.1665098220" lon="-6.1009682994">
        <ele>405.33</ele>
        <time>2020-07-16T08:40:45Z</time>
      </trkpt>
      <trkpt lat="40.1665077265" lon="-6.1009693053">
        <ele>406.77</ele>
        <time>2020-07-16T08:40:58Z</time>
      </trkpt>
      <trkpt lat="40.1665101573" lon="-6.1009667907">
        <ele>407.26</ele>
        <time>2020-07-16T08:41:09Z</time>
      </trkpt>
      <trkpt lat="40.1665262505" lon="-6.1009643599">
        <ele>407.74</ele>
        <time>2020-07-16T08:41:19Z</time>
      </trkpt>
      <trkpt lat="40.1665317826" lon="-6.1009698082">
        <ele>407.74</ele>
        <time>2020-07-16T08:41:32Z</time>
      </trkpt>
      <trkpt lat="40.1665326208" lon="-6.1009718198">
        <ele>407.74</ele>
        <time>2020-07-16T08:41:45Z</time>
      </trkpt>
      <trkpt lat="40.1665327046" lon="-6.1009678803">
        <ele>409.18</ele>
        <time>2020-07-16T08:42:06Z</time>
      </trkpt>
      <trkpt lat="40.1665285975" lon="-6.1009604204">
        <ele>409.66</ele>
        <time>2020-07-16T08:42:20Z</time>
      </trkpt>
      <trkpt lat="40.1665248256" lon="-6.1009494402">
        <ele>410.14</ele>
        <time>2020-07-16T08:42:37Z</time>
      </trkpt>
      <trkpt lat="40.1665155217" lon="-6.1009432375">
        <ele>410.62</ele>
        <time>2020-07-16T08:42:53Z</time>
      </trkpt>
      <trkpt lat="40.1665194612" lon="-6.1009510327">
        <ele>411.10</ele>
        <time>2020-07-16T08:43:09Z</time>
      </trkpt>
      <trkpt lat="40.1665109117" lon="-6.1009498592">
        <ele>411.58</ele>
        <time>2020-07-16T08:43:26Z</time>
      </trkpt>
      <trkpt lat="40.1665233169" lon="-6.1009523738">
        <ele>412.54</ele>
        <time>2020-07-16T08:43:45Z</time>
      </trkpt>
      <trkpt lat="40.1665118337" lon="-6.1009475123">
        <ele>411.58</ele>
        <time>2020-07-16T08:44:11Z</time>
      </trkpt>
      <trkpt lat="40.1665130071" lon="-6.1009455007">
        <ele>411.58</ele>
        <time>2020-07-16T08:44:20Z</time>
      </trkpt>
      <trkpt lat="40.1665338781" lon="-6.1009556428">
        <ele>411.10</ele>
        <time>2020-07-16T08:44:25Z</time>
      </trkpt>
      <trkpt lat="40.1665325370" lon="-6.1009885836">
        <ele>409.66</ele>
        <time>2020-07-16T08:44:31Z</time>
      </trkpt>
      <trkpt lat="40.1665300224" lon="-6.1010096222">
        <ele>409.66</ele>
        <time>2020-07-16T08:44:32Z</time>
      </trkpt>
      <trkpt lat="40.1665287651" lon="-6.1010331754">
        <ele>409.18</ele>
        <time>2020-07-16T08:44:33Z</time>
      </trkpt>
      <trkpt lat="40.1665232331" lon="-6.1010534596">
        <ele>409.18</ele>
        <time>2020-07-16T08:44:34Z</time>
      </trkpt>
      <trkpt lat="40.1665164437" lon="-6.1010656133">
        <ele>409.18</ele>
        <time>2020-07-16T08:44:35Z</time>
      </trkpt>
      <trkpt lat="40.1665024459" lon="-6.1010770127">
        <ele>409.18</ele>
        <time>2020-07-16T08:44:37Z</time>
      </trkpt>
      <trkpt lat="40.1665053796" lon="-6.1010318343">
        <ele>408.70</ele>
        <time>2020-07-16T08:44:42Z</time>
      </trkpt>
      <trkpt lat="40.1665187068" lon="-6.1010202672">
        <ele>408.22</ele>
        <time>2020-07-16T08:44:43Z</time>
      </trkpt>
      <trkpt lat="40.1665361412" lon="-6.1010009889">
        <ele>408.22</ele>
        <time>2020-07-16T08:44:44Z</time>
      </trkpt>
      <trkpt lat="40.1666443516" lon="-6.1007983144">
        <ele>407.74</ele>
        <time>2020-07-16T08:44:52Z</time>
      </trkpt>
      <trkpt lat="40.1667085569" lon="-6.1006447580">
        <ele>407.26</ele>
        <time>2020-07-16T08:45:00Z</time>
      </trkpt>
      <trkpt lat="40.1667547412" lon="-6.1006339453">
        <ele>407.26</ele>
        <time>2020-07-16T08:45:05Z</time>
      </trkpt>
      <trkpt lat="40.1667524781" lon="-6.1006574985">
        <ele>407.26</ele>
        <time>2020-07-16T08:45:07Z</time>
      </trkpt>
      <trkpt lat="40.1667399053" lon="-6.1006745137">
        <ele>407.26</ele>
        <time>2020-07-16T08:45:08Z</time>
      </trkpt>
      <trkpt lat="40.1666125003" lon="-6.1008853186">
        <ele>407.26</ele>
        <time>2020-07-16T08:45:16Z</time>
      </trkpt>
      <trkpt lat="40.1665293518" lon="-6.1010514479">
        <ele>407.74</ele>
        <time>2020-07-16T08:45:23Z</time>
      </trkpt>
      <trkpt lat="40.1665218081" lon="-6.1010684632">
        <ele>407.74</ele>
        <time>2020-07-16T08:45:24Z</time>
      </trkpt>
      <trkpt lat="40.1665146835" lon="-6.1010814551">
        <ele>408.22</ele>
        <time>2020-07-16T08:45:25Z</time>
      </trkpt>
      <trkpt lat="40.1664846763" lon="-6.1010729056">
        <ele>407.74</ele>
        <time>2020-07-16T08:45:31Z</time>
      </trkpt>
      <trkpt lat="40.1664910465" lon="-6.1010570638">
        <ele>407.74</ele>
        <time>2020-07-16T08:45:32Z</time>
      </trkpt>
      <trkpt lat="40.1665039547" lon="-6.1010395456">
        <ele>407.74</ele>
        <time>2020-07-16T08:45:33Z</time>
      </trkpt>
      <trkpt lat="40.1665194612" lon="-6.1010199320">
        <ele>407.26</ele>
        <time>2020-07-16T08:45:34Z</time>
      </trkpt>
      <trkpt lat="40.1665393263" lon="-6.1009926908">
        <ele>407.26</ele>
        <time>2020-07-16T08:45:35Z</time>
      </trkpt>
      <trkpt lat="40.1665580180" lon="-6.1009627674">
        <ele>407.26</ele>
        <time>2020-07-16T08:45:36Z</time>
      </trkpt>
      <trkpt lat="40.1666725986" lon="-6.1007502861">
        <ele>406.29</ele>
        <time>2020-07-16T08:45:43Z</time>
      </trkpt>
      <trkpt lat="40.1666782983" lon="-6.1007394735">
        <ele>406.29</ele>
        <time>2020-07-16T08:45:47Z</time>
      </trkpt>
      <trkpt lat="40.1666835789" lon="-6.1007452570">
        <ele>406.77</ele>
        <time>2020-07-16T08:45:58Z</time>
      </trkpt>
      <trkpt lat="40.1666865125" lon="-6.1007436644">
        <ele>406.29</ele>
        <time>2020-07-16T08:46:09Z</time>
      </trkpt>
      <trkpt lat="40.1666813996" lon="-6.1007336061">
        <ele>406.77</ele>
        <time>2020-07-16T08:46:22Z</time>
      </trkpt>
      <trkpt lat="40.1667668112" lon="-6.1005702429">
        <ele>406.29</ele>
        <time>2020-07-16T08:46:29Z</time>
      </trkpt>
      <trkpt lat="40.1668333635" lon="-6.1004888546">
        <ele>405.33</ele>
        <time>2020-07-16T08:46:36Z</time>
      </trkpt>
      <trkpt lat="40.1668760274" lon="-6.1003270838">
        <ele>405.33</ele>
        <time>2020-07-16T08:46:44Z</time>
      </trkpt>
      <trkpt lat="40.1669228822" lon="-6.1001759581">
        <ele>404.85</ele>
        <time>2020-07-16T08:46:53Z</time>
      </trkpt>
      <trkpt lat="40.1669516321" lon="-6.1001472920">
        <ele>404.37</ele>
        <time>2020-07-16T08:47:00Z</time>
      </trkpt>
      <trkpt lat="40.1669605169" lon="-6.1001490522">
        <ele>403.89</ele>
        <time>2020-07-16T08:47:14Z</time>
      </trkpt>
      <trkpt lat="40.1669652946" lon="-6.1001469567">
        <ele>403.41</ele>
        <time>2020-07-16T08:47:26Z</time>
      </trkpt>
      <trkpt lat="40.1669917814" lon="-6.1000825837">
        <ele>402.93</ele>
        <time>2020-07-16T08:47:37Z</time>
      </trkpt>
      <trkpt lat="40.1671066973" lon="-6.0999025404">
        <ele>401.97</ele>
        <time>2020-07-16T08:47:44Z</time>
      </trkpt>
      <trkpt lat="40.1672604214" lon="-6.0996763967">
        <ele>401.01</ele>
        <time>2020-07-16T08:47:51Z</time>
      </trkpt>
      <trkpt lat="40.1674561389" lon="-6.0993390251">
        <ele>399.57</ele>
        <time>2020-07-16T08:48:00Z</time>
      </trkpt>
      <trkpt lat="40.1676645968" lon="-6.0989769269">
        <ele>397.16</ele>
        <time>2020-07-16T08:48:09Z</time>
      </trkpt>
      <trkpt lat="40.1678512618" lon="-6.0986562353">
        <ele>395.72</ele>
        <time>2020-07-16T08:48:18Z</time>
      </trkpt>
      <trkpt lat="40.1679789182" lon="-6.0983018484">
        <ele>393.80</ele>
        <time>2020-07-16T08:48:27Z</time>
      </trkpt>
      <trkpt lat="40.1680054888" lon="-6.0981031973">
        <ele>392.84</ele>
        <time>2020-07-16T08:48:33Z</time>
      </trkpt>
      <trkpt lat="40.1680314727" lon="-6.0979841743">
        <ele>391.87</ele>
        <time>2020-07-16T08:48:40Z</time>
      </trkpt>
      <trkpt lat="40.1680205762" lon="-6.0980006028">
        <ele>393.32</ele>
        <time>2020-07-16T08:48:57Z</time>
      </trkpt>
      <trkpt lat="40.1680267788" lon="-6.0980083980">
        <ele>392.36</ele>
        <time>2020-07-16T08:49:13Z</time>
      </trkpt>
      <trkpt lat="40.1680286229" lon="-6.0980004352">
        <ele>392.84</ele>
        <time>2020-07-16T08:49:23Z</time>
      </trkpt>
      <trkpt lat="40.1680158824" lon="-6.0980066378">
        <ele>392.36</ele>
        <time>2020-07-16T08:49:43Z</time>
      </trkpt>
      <trkpt lat="40.1680209115" lon="-6.0979850963">
        <ele>392.36</ele>
        <time>2020-07-16T08:49:59Z</time>
      </trkpt>
      <trkpt lat="40.1680262759" lon="-6.0979622137">
        <ele>392.36</ele>
        <time>2020-07-16T08:50:12Z</time>
      </trkpt>
      <trkpt lat="40.1680254377" lon="-6.0979443602">
        <ele>391.39</ele>
        <time>2020-07-16T08:50:24Z</time>
      </trkpt>
      <trkpt lat="40.1680220850" lon="-6.0979327932">
        <ele>391.87</ele>
        <time>2020-07-16T08:50:25Z</time>
      </trkpt>
      <trkpt lat="40.1680166367" lon="-6.0979227349">
        <ele>391.87</ele>
        <time>2020-07-16T08:50:26Z</time>
      </trkpt>
      <trkpt lat="40.1680014655" lon="-6.0979158618">
        <ele>392.36</ele>
        <time>2020-07-16T08:50:27Z</time>
      </trkpt>
      <trkpt lat="40.1679845341" lon="-6.0979136825">
        <ele>392.36</ele>
        <time>2020-07-16T08:50:28Z</time>
      </trkpt>
      <trkpt lat="40.1679708716" lon="-6.0979123414">
        <ele>392.36</ele>
        <time>2020-07-16T08:50:29Z</time>
      </trkpt>
      <trkpt lat="40.1679536887" lon="-6.0979064740">
        <ele>392.36</ele>
        <time>2020-07-16T08:50:30Z</time>
      </trkpt>
      <trkpt lat="40.1678290498" lon="-6.0978369880">
        <ele>393.32</ele>
        <time>2020-07-16T08:50:37Z</time>
      </trkpt>
      <trkpt lat="40.1676589809" lon="-6.0977508221">
        <ele>394.76</ele>
        <time>2020-07-16T08:50:46Z</time>
      </trkpt>
      <trkpt lat="40.1674841344" lon="-6.0976513289">
        <ele>395.72</ele>
        <time>2020-07-16T08:50:55Z</time>
      </trkpt>
      <trkpt lat="40.1672380418" lon="-6.0975069925">
        <ele>398.12</ele>
        <time>2020-07-16T08:51:06Z</time>
      </trkpt>
      <trkpt lat="40.1669951342" lon="-6.0973701999">
        <ele>401.01</ele>
        <time>2020-07-16T08:51:16Z</time>
      </trkpt>
      <trkpt lat="40.1667168550" lon="-6.0972328205">
        <ele>402.93</ele>
        <time>2020-07-16T08:51:27Z</time>
      </trkpt>
      <trkpt lat="40.1664439403" lon="-6.0971579701">
        <ele>403.41</ele>
        <time>2020-07-16T08:51:38Z</time>
      </trkpt>
      <trkpt lat="40.1661648229" lon="-6.0971527733">
        <ele>403.89</ele>
        <time>2020-07-16T08:51:49Z</time>
      </trkpt>
      <trkpt lat="40.1658462267" lon="-6.0972674377">
        <ele>404.37</ele>
        <time>2020-07-16T08:52:01Z</time>
      </trkpt>
      <trkpt lat="40.1655686181" lon="-6.0975156259">
        <ele>405.33</ele>
        <time>2020-07-16T08:52:12Z</time>
      </trkpt>
      <trkpt lat="40.1654106192" lon="-6.0976841860">
        <ele>405.81</ele>
        <time>2020-07-16T08:52:20Z</time>
      </trkpt>
      <trkpt lat="40.1652490161" lon="-6.0978466272">
        <ele>406.29</ele>
        <time>2020-07-16T08:52:28Z</time>
      </trkpt>
      <trkpt lat="40.1650045160" lon="-6.0981052928">
        <ele>407.26</ele>
        <time>2020-07-16T08:52:39Z</time>
      </trkpt>
      <trkpt lat="40.1647386421" lon="-6.0983799677">
        <ele>408.70</ele>
        <time>2020-07-16T08:52:51Z</time>
      </trkpt>
      <trkpt lat="40.1645239815" lon="-6.0985990707">
        <ele>408.70</ele>
        <time>2020-07-16T08:53:01Z</time>
      </trkpt>
      <trkpt lat="40.1642922219" lon="-6.0987346899">
        <ele>409.18</ele>
        <time>2020-07-16T08:53:10Z</time>
      </trkpt>
      <trkpt lat="40.1640919782" lon="-6.0987607576">
        <ele>409.18</ele>
        <time>2020-07-16T08:53:17Z</time>
      </trkpt>
      <trkpt lat="40.1638583746" lon="-6.0987247992">
        <ele>408.70</ele>
        <time>2020-07-16T08:53:26Z</time>
      </trkpt>
      <trkpt lat="40.1638089214" lon="-6.0986987315">
        <ele>408.70</ele>
        <time>2020-07-16T08:53:29Z</time>
      </trkpt>
      <trkpt lat="40.1637935825" lon="-6.0986819677">
        <ele>408.22</ele>
        <time>2020-07-16T08:53:30Z</time>
      </trkpt>
      <trkpt lat="40.1637761481" lon="-6.0986671317">
        <ele>408.22</ele>
        <time>2020-07-16T08:53:31Z</time>
      </trkpt>
      <trkpt lat="40.1635961048" lon="-6.0985320155">
        <ele>408.22</ele>
        <time>2020-07-16T08:53:39Z</time>
      </trkpt>
      <trkpt lat="40.1634099428" lon="-6.0983899422">
        <ele>406.77</ele>
        <time>2020-07-16T08:53:46Z</time>
      </trkpt>
      <trkpt lat="40.1631946955" lon="-6.0981977452">
        <ele>405.81</ele>
        <time>2020-07-16T08:53:53Z</time>
      </trkpt>
      <trkpt lat="40.1631588209" lon="-6.0981700849">
        <ele>405.81</ele>
        <time>2020-07-16T08:53:54Z</time>
      </trkpt>
      <trkpt lat="40.1631237008" lon="-6.0981450230">
        <ele>405.81</ele>
        <time>2020-07-16T08:53:55Z</time>
      </trkpt>
      <trkpt lat="40.1628509536" lon="-6.0979255009">
        <ele>404.85</ele>
        <time>2020-07-16T08:54:03Z</time>
      </trkpt>
      <trkpt lat="40.1628184319" lon="-6.0978866089">
        <ele>404.85</ele>
        <time>2020-07-16T08:54:04Z</time>
      </trkpt>
      <trkpt lat="40.1627295837" lon="-6.0977481399">
        <ele>404.85</ele>
        <time>2020-07-16T08:54:08Z</time>
      </trkpt>
      <trkpt lat="40.1627360377" lon="-6.0977276042">
        <ele>404.37</ele>
        <time>2020-07-16T08:54:09Z</time>
      </trkpt>
      <trkpt lat="40.1627412345" lon="-6.0977067333">
        <ele>404.37</ele>
        <time>2020-07-16T08:54:10Z</time>
      </trkpt>
      <trkpt lat="40.1627421565" lon="-6.0976912268">
        <ele>404.37</ele>
        <time>2020-07-16T08:54:11Z</time>
      </trkpt>
      <trkpt lat="40.1627424080" lon="-6.0976794083">
        <ele>404.37</ele>
        <time>2020-07-16T08:54:17Z</time>
      </trkpt>
      <trkpt lat="40.1627279911" lon="-6.0976943281">
        <ele>404.37</ele>
        <time>2020-07-16T08:54:33Z</time>
      </trkpt>
      <trkpt lat="40.1627235487" lon="-6.0976855271">
        <ele>406.77</ele>
        <time>2020-07-16T08:54:57Z</time>
      </trkpt>
      <trkpt lat="40.1627345290" lon="-6.0976891313">
        <ele>408.22</ele>
        <time>2020-07-16T08:55:16Z</time>
      </trkpt>
      <trkpt lat="40.1627406478" lon="-6.0976830963">
        <ele>406.77</ele>
        <time>2020-07-16T08:55:33Z</time>
      </trkpt>
      <trkpt lat="40.1627274044" lon="-6.0976849403">
        <ele>406.29</ele>
        <time>2020-07-16T08:55:53Z</time>
      </trkpt>
      <trkpt lat="40.1627255604" lon="-6.0976747144">
        <ele>407.26</ele>
        <time>2020-07-16T08:56:09Z</time>
      </trkpt>
      <trkpt lat="40.1627288293" lon="-6.0976789054">
        <ele>407.26</ele>
        <time>2020-07-16T08:56:26Z</time>
      </trkpt>
      <trkpt lat="40.1627397258" lon="-6.0976777319">
        <ele>404.37</ele>
        <time>2020-07-16T08:56:47Z</time>
      </trkpt>
      <trkpt lat="40.1627477724" lon="-6.0976899695">
        <ele>404.37</ele>
        <time>2020-07-16T08:57:07Z</time>
      </trkpt>
      <trkpt lat="40.1627253089" lon="-6.0976820067">
        <ele>403.89</ele>
        <time>2020-07-16T08:57:14Z</time>
      </trkpt>
      <trkpt lat="40.1627163403" lon="-6.0976782348">
        <ele>404.37</ele>
        <time>2020-07-16T08:57:15Z</time>
      </trkpt>
      <trkpt lat="40.1626356225" lon="-6.0975623131">
        <ele>404.37</ele>
        <time>2020-07-16T08:57:23Z</time>
      </trkpt>
      <trkpt lat="40.1625557430" lon="-6.0973608121">
        <ele>403.89</ele>
        <time>2020-07-16T08:57:31Z</time>
      </trkpt>
      <trkpt lat="40.1624542382" lon="-6.0970992967">
        <ele>403.41</ele>
        <time>2020-07-16T08:57:38Z</time>
      </trkpt>
      <trkpt lat="40.1622786373" lon="-6.0966265574">
        <ele>402.45</ele>
        <time>2020-07-16T08:57:48Z</time>
      </trkpt>
      <trkpt lat="40.1622581854" lon="-6.0965720750">
        <ele>402.45</ele>
        <time>2020-07-16T08:57:49Z</time>
      </trkpt>
      <trkpt lat="40.1620433573" lon="-6.0960130021">
        <ele>401.01</ele>
        <time>2020-07-16T08:57:59Z</time>
      </trkpt>
      <trkpt lat="40.1618295349" lon="-6.0954559408">
        <ele>399.57</ele>
        <time>2020-07-16T08:58:08Z</time>
      </trkpt>
      <trkpt lat="40.1615783293" lon="-6.0947948601">
        <ele>398.60</ele>
        <time>2020-07-16T08:58:19Z</time>
      </trkpt>
      <trkpt lat="40.1613479108" lon="-6.0941859148">
        <ele>398.12</ele>
        <time>2020-07-16T08:58:30Z</time>
      </trkpt>
      <trkpt lat="40.1611127984" lon="-6.0935731139">
        <ele>397.16</ele>
        <time>2020-07-16T08:58:40Z</time>
      </trkpt>
      <trkpt lat="40.1608522050" lon="-6.0928892344">
        <ele>396.20</ele>
        <time>2020-07-16T08:58:51Z</time>
      </trkpt>
      <trkpt lat="40.1606468484" lon="-6.0923645273">
        <ele>396.20</ele>
        <time>2020-07-16T08:59:00Z</time>
      </trkpt>
      <trkpt lat="40.1604399830" lon="-6.0918230563">
        <ele>395.24</ele>
        <time>2020-07-16T08:59:09Z</time>
      </trkpt>
      <trkpt lat="40.1601718459" lon="-6.0911098402">
        <ele>395.24</ele>
        <time>2020-07-16T08:59:20Z</time>
      </trkpt>
      <trkpt lat="40.1599417627" lon="-6.0905048344">
        <ele>394.76</ele>
        <time>2020-07-16T08:59:30Z</time>
      </trkpt>
      <trkpt lat="40.1596924011" lon="-6.0898508783">
        <ele>395.24</ele>
        <time>2020-07-16T08:59:41Z</time>
      </trkpt>
      <trkpt lat="40.1594716217" lon="-6.0892833397">
        <ele>394.76</ele>
        <time>2020-07-16T08:59:51Z</time>
      </trkpt>
      <trkpt lat="40.1592757367" lon="-6.0887446348">
        <ele>395.24</ele>
        <time>2020-07-16T09:00:01Z</time>
      </trkpt>
      <trkpt lat="40.1592254452" lon="-6.0885894019">
        <ele>395.72</ele>
        <time>2020-07-16T09:00:04Z</time>
      </trkpt>
      <trkpt lat="40.1590922568" lon="-6.0879558977">
        <ele>396.20</ele>
        <time>2020-07-16T09:00:16Z</time>
      </trkpt>
      <trkpt lat="40.1590126287" lon="-6.0875478666">
        <ele>396.20</ele>
        <time>2020-07-16T09:00:25Z</time>
      </trkpt>
      <trkpt lat="40.1590104494" lon="-6.0872543324">
        <ele>396.20</ele>
        <time>2020-07-16T09:00:32Z</time>
      </trkpt>
      <trkpt lat="40.1591499243" lon="-6.0871550906">
        <ele>396.20</ele>
        <time>2020-07-16T09:00:38Z</time>
      </trkpt>
      <trkpt lat="40.1592031494" lon="-6.0871299449">
        <ele>396.68</ele>
        <time>2020-07-16T09:00:42Z</time>
      </trkpt>
      <trkpt lat="40.1591951866" lon="-6.0871286876">
        <ele>396.68</ele>
        <time>2020-07-16T09:00:55Z</time>
      </trkpt>
      <trkpt lat="40.1591959409" lon="-6.0871267598">
        <ele>396.20</ele>
        <time>2020-07-16T09:01:15Z</time>
      </trkpt>
      <trkpt lat="40.1591939293" lon="-6.0871299449">
        <ele>396.68</ele>
        <time>2020-07-16T09:01:29Z</time>
      </trkpt>
      <trkpt lat="40.1591939293" lon="-6.0871331301">
        <ele>397.16</ele>
        <time>2020-07-16T09:01:48Z</time>
      </trkpt>
      <trkpt lat="40.1592660137" lon="-6.0870983452">
        <ele>397.64</ele>
        <time>2020-07-16T09:01:53Z</time>
      </trkpt>
      <trkpt lat="40.1594815124" lon="-6.0869878717">
        <ele>397.64</ele>
        <time>2020-07-16T09:02:00Z</time>
      </trkpt>
      <trkpt lat="40.1598534174" lon="-6.0867782403">
        <ele>397.16</ele>
        <time>2020-07-16T09:02:10Z</time>
      </trkpt>
      <trkpt lat="40.1603107341" lon="-6.0865321476">
        <ele>396.68</ele>
        <time>2020-07-16T09:02:21Z</time>
      </trkpt>
      <trkpt lat="40.1604419947" lon="-6.0864650086">
        <ele>396.68</ele>
        <time>2020-07-16T09:02:24Z</time>
      </trkpt>
      <trkpt lat="40.1608941983" lon="-6.0862218495">
        <ele>396.68</ele>
        <time>2020-07-16T09:02:34Z</time>
      </trkpt>
      <trkpt lat="40.1613590587" lon="-6.0859714821">
        <ele>396.20</ele>
        <time>2020-07-16T09:02:44Z</time>
      </trkpt>
      <trkpt lat="40.1618706062" lon="-6.0856959689">
        <ele>395.72</ele>
        <time>2020-07-16T09:02:55Z</time>
      </trkpt>
      <trkpt lat="40.1622860134" lon="-6.0854733456">
        <ele>395.72</ele>
        <time>2020-07-16T09:03:04Z</time>
      </trkpt>
      <trkpt lat="40.1626433339" lon="-6.0852855910">
        <ele>395.24</ele>
        <time>2020-07-16T09:03:12Z</time>
      </trkpt>
      <trkpt lat="40.1630334277" lon="-6.0850617941">
        <ele>395.24</ele>
        <time>2020-07-16T09:03:21Z</time>
      </trkpt>
      <trkpt lat="40.1633606572" lon="-6.0847676732">
        <ele>395.72</ele>
        <time>2020-07-16T09:03:29Z</time>
      </trkpt>
      <trkpt lat="40.1636936702" lon="-6.0843320657">
        <ele>395.24</ele>
        <time>2020-07-16T09:03:39Z</time>
      </trkpt>
      <trkpt lat="40.1637178101" lon="-6.0842894018">
        <ele>395.24</ele>
        <time>2020-07-16T09:03:40Z</time>
      </trkpt>
      <trkpt lat="40.1638831012" lon="-6.0839561373">
        <ele>394.76</ele>
        <time>2020-07-16T09:03:47Z</time>
      </trkpt>
      <trkpt lat="40.1639067382" lon="-6.0839026608">
        <ele>394.76</ele>
        <time>2020-07-16T09:03:48Z</time>
      </trkpt>
      <trkpt lat="40.1641780604" lon="-6.0833284166">
        <ele>394.28</ele>
        <time>2020-07-16T09:03:59Z</time>
      </trkpt>
      <trkpt lat="40.1643900387" lon="-6.0828621313">
        <ele>393.80</ele>
        <time>2020-07-16T09:04:08Z</time>
      </trkpt>
      <trkpt lat="40.1646446809" lon="-6.0823033936">
        <ele>393.80</ele>
        <time>2020-07-16T09:04:18Z</time>
      </trkpt>
      <trkpt lat="40.1648191083" lon="-6.0816952866">
        <ele>393.32</ele>
        <time>2020-07-16T09:04:28Z</time>
      </trkpt>
      <trkpt lat="40.1649237983" lon="-6.0811580066">
        <ele>392.84</ele>
        <time>2020-07-16T09:04:37Z</time>
      </trkpt>
      <trkpt lat="40.1650555618" lon="-6.0804953333">
        <ele>392.36</ele>
        <time>2020-07-16T09:04:47Z</time>
      </trkpt>
      <trkpt lat="40.1652004011" lon="-6.0797578935">
        <ele>392.36</ele>
        <time>2020-07-16T09:04:58Z</time>
      </trkpt>
      <trkpt lat="40.1653077733" lon="-6.0791044403">
        <ele>391.39</ele>
        <time>2020-07-16T09:05:08Z</time>
      </trkpt>
      <trkpt lat="40.1653296500" lon="-6.0785477981">
        <ele>390.43</ele>
        <time>2020-07-16T09:05:16Z</time>
      </trkpt>
      <trkpt lat="40.1653064322" lon="-6.0777332447">
        <ele>388.51</ele>
        <time>2020-07-16T09:05:27Z</time>
      </trkpt>
      <trkpt lat="40.1652588230" lon="-6.0770403966">
        <ele>387.55</ele>
        <time>2020-07-16T09:05:36Z</time>
      </trkpt>
      <trkpt lat="40.1651873253" lon="-6.0759707820">
        <ele>384.66</ele>
        <time>2020-07-16T09:05:49Z</time>
      </trkpt>
      <trkpt lat="40.1651328430" lon="-6.0751553904">
        <ele>383.70</ele>
        <time>2020-07-16T09:05:59Z</time>
      </trkpt>
      <trkpt lat="40.1650747564" lon="-6.0742990952">
        <ele>383.22</ele>
        <time>2020-07-16T09:06:10Z</time>
      </trkpt>
      <trkpt lat="40.1650719065" lon="-6.0742233228">
        <ele>383.22</ele>
        <time>2020-07-16T09:06:11Z</time>
      </trkpt>
      <trkpt lat="40.1650417317" lon="-6.0736624058">
        <ele>383.22</ele>
        <time>2020-07-16T09:06:20Z</time>
      </trkpt>
      <trkpt lat="40.1650111377" lon="-6.0729902610">
        <ele>384.66</ele>
        <time>2020-07-16T09:06:31Z</time>
      </trkpt>
      <trkpt lat="40.1649724133" lon="-6.0723987501">
        <ele>385.63</ele>
        <time>2020-07-16T09:06:41Z</time>
      </trkpt>
      <trkpt lat="40.1649054419" lon="-6.0716866236">
        <ele>386.59</ele>
        <time>2020-07-16T09:06:54Z</time>
      </trkpt>
      <trkpt lat="40.1648172643" lon="-6.0711210128">
        <ele>387.55</ele>
        <time>2020-07-16T09:07:05Z</time>
      </trkpt>
      <trkpt lat="40.1647058688" lon="-6.0704559926">
        <ele>388.51</ele>
        <time>2020-07-16T09:07:18Z</time>
      </trkpt>
      <trkpt lat="40.1646109018" lon="-6.0699000210">
        <ele>389.47</ele>
        <time>2020-07-16T09:07:29Z</time>
      </trkpt>
      <trkpt lat="40.1644938905" lon="-6.0691983718">
        <ele>390.91</ele>
        <time>2020-07-16T09:07:43Z</time>
      </trkpt>
      <trkpt lat="40.1644175313" lon="-6.0687587410">
        <ele>391.87</ele>
        <time>2020-07-16T09:07:52Z</time>
      </trkpt>
      <trkpt lat="40.1643172000" lon="-6.0681661405">
        <ele>392.84</ele>
        <time>2020-07-16T09:08:04Z</time>
      </trkpt>
      <trkpt lat="40.1642326266" lon="-6.0676715244">
        <ele>393.80</ele>
        <time>2020-07-16T09:08:14Z</time>
      </trkpt>
      <trkpt lat="40.1641467120" lon="-6.0671587195">
        <ele>394.28</ele>
        <time>2020-07-16T09:08:24Z</time>
      </trkpt>
      <trkpt lat="40.1640595403" lon="-6.0667044204">
        <ele>394.28</ele>
        <time>2020-07-16T09:08:33Z</time>
      </trkpt>
      <trkpt lat="40.1639810018" lon="-6.0662822239">
        <ele>394.28</ele>
        <time>2020-07-16T09:08:41Z</time>
      </trkpt>
      <trkpt lat="40.1638868731" lon="-6.0657457821">
        <ele>394.28</ele>
        <time>2020-07-16T09:08:52Z</time>
      </trkpt>
      <trkpt lat="40.1637945883" lon="-6.0652009584">
        <ele>393.80</ele>
        <time>2020-07-16T09:09:03Z</time>
      </trkpt>
      <trkpt lat="40.1637080032" lon="-6.0646843817">
        <ele>393.80</ele>
        <time>2020-07-16T09:09:12Z</time>
      </trkpt>
      <trkpt lat="40.1636204962" lon="-6.0641533881">
        <ele>393.80</ele>
        <time>2020-07-16T09:09:21Z</time>
      </trkpt>
      <trkpt lat="40.1635075919" lon="-6.0635009408">
        <ele>393.32</ele>
        <time>2020-07-16T09:09:32Z</time>
      </trkpt>
      <trkpt lat="40.1634063385" lon="-6.0628437158">
        <ele>392.84</ele>
        <time>2020-07-16T09:09:43Z</time>
      </trkpt>
      <trkpt lat="40.1633446477" lon="-6.0621541366">
        <ele>392.36</ele>
        <time>2020-07-16T09:09:54Z</time>
      </trkpt>
      <trkpt lat="40.1633552089" lon="-6.0616268311">
        <ele>392.84</ele>
        <time>2020-07-16T09:10:03Z</time>
      </trkpt>
      <trkpt lat="40.1633674465" lon="-6.0615674034">
        <ele>392.84</ele>
        <time>2020-07-16T09:10:04Z</time>
      </trkpt>
      <trkpt lat="40.1633827854" lon="-6.0615078080">
        <ele>392.84</ele>
        <time>2020-07-16T09:10:05Z</time>
      </trkpt>
      <trkpt lat="40.1634029020" lon="-6.0614471231">
        <ele>392.84</ele>
        <time>2020-07-16T09:10:06Z</time>
      </trkpt>
      <trkpt lat="40.1634233538" lon="-6.0613996815">
        <ele>392.84</ele>
        <time>2020-07-16T09:10:07Z</time>
      </trkpt>
      <trkpt lat="40.1634472422" lon="-6.0613470431">
        <ele>393.32</ele>
        <time>2020-07-16T09:10:08Z</time>
      </trkpt>
      <trkpt lat="40.1637269463" lon="-6.0609458853">
        <ele>393.80</ele>
        <time>2020-07-16T09:10:17Z</time>
      </trkpt>
      <trkpt lat="40.1640846021" lon="-6.0605400335">
        <ele>394.28</ele>
        <time>2020-07-16T09:10:28Z</time>
      </trkpt>
      <trkpt lat="40.1643933915" lon="-6.0601972137">
        <ele>394.76</ele>
        <time>2020-07-16T09:10:38Z</time>
      </trkpt>
      <trkpt lat="40.1646848302" lon="-6.0598626919">
        <ele>395.72</ele>
        <time>2020-07-16T09:10:48Z</time>
      </trkpt>
      <trkpt lat="40.1650034264" lon="-6.0594943073">
        <ele>396.68</ele>
        <time>2020-07-16T09:10:59Z</time>
      </trkpt>
      <trkpt lat="40.1653082762" lon="-6.0591359809">
        <ele>397.64</ele>
        <time>2020-07-16T09:11:10Z</time>
      </trkpt>
      <trkpt lat="40.1656443067" lon="-6.0587567836">
        <ele>398.60</ele>
        <time>2020-07-16T09:11:22Z</time>
      </trkpt>
      <trkpt lat="40.1659507491" lon="-6.0584113654">
        <ele>400.05</ele>
        <time>2020-07-16T09:11:33Z</time>
      </trkpt>
      <trkpt lat="40.1662842650" lon="-6.0580480937">
        <ele>401.01</ele>
        <time>2020-07-16T09:11:45Z</time>
      </trkpt>
      <trkpt lat="40.1665330399" lon="-6.0578443296">
        <ele>401.01</ele>
        <time>2020-07-16T09:11:53Z</time>
      </trkpt>
      <trkpt lat="40.1668822300" lon="-6.0576343630">
        <ele>399.57</ele>
        <time>2020-07-16T09:12:03Z</time>
      </trkpt>
      <trkpt lat="40.1670748461" lon="-6.0575320199">
        <ele>399.57</ele>
        <time>2020-07-16T09:12:08Z</time>
      </trkpt>
      <trkpt lat="40.1674838830" lon="-6.0572837479">
        <ele>398.60</ele>
        <time>2020-07-16T09:12:18Z</time>
      </trkpt>
      <trkpt lat="40.1677945163" lon="-6.0571298562">
        <ele>397.16</ele>
        <time>2020-07-16T09:12:25Z</time>
      </trkpt>
      <trkpt lat="40.1678362582" lon="-6.0571017768">
        <ele>397.16</ele>
        <time>2020-07-16T09:12:26Z</time>
      </trkpt>
      <trkpt lat="40.1683399267" lon="-6.0568130203">
        <ele>396.20</ele>
        <time>2020-07-16T09:12:37Z</time>
      </trkpt>
      <trkpt lat="40.1689549908" lon="-6.0564676020">
        <ele>394.76</ele>
        <time>2020-07-16T09:12:49Z</time>
      </trkpt>
      <trkpt lat="40.1694104634" lon="-6.0561919212">
        <ele>394.28</ele>
        <time>2020-07-16T09:12:58Z</time>
      </trkpt>
      <trkpt lat="40.1699550357" lon="-6.0558923520">
        <ele>391.87</ele>
        <time>2020-07-16T09:13:08Z</time>
      </trkpt>
      <trkpt lat="40.1703640725" lon="-6.0556609277">
        <ele>390.91</ele>
        <time>2020-07-16T09:13:16Z</time>
      </trkpt>
      <trkpt lat="40.1708742790" lon="-6.0553685669">
        <ele>390.43</ele>
        <time>2020-07-16T09:13:27Z</time>
      </trkpt>
      <trkpt lat="40.1712561585" lon="-6.0551544931">
        <ele>389.47</ele>
        <time>2020-07-16T09:13:36Z</time>
      </trkpt>
      <trkpt lat="40.1716721524" lon="-6.0549311992">
        <ele>389.95</ele>
        <time>2020-07-16T09:13:46Z</time>
      </trkpt>
      <trkpt lat="40.1721476577" lon="-6.0546545126">
        <ele>389.95</ele>
        <time>2020-07-16T09:13:57Z</time>
      </trkpt>
      <trkpt lat="40.1725840196" lon="-6.0543958470">
        <ele>388.03</ele>
        <time>2020-07-16T09:14:06Z</time>
      </trkpt>
      <trkpt lat="40.1731850859" lon="-6.0540458187">
        <ele>385.63</ele>
        <time>2020-07-16T09:14:17Z</time>
      </trkpt>
      <trkpt lat="40.1738629304" lon="-6.0536545515">
        <ele>383.70</ele>
        <time>2020-07-16T09:14:29Z</time>
      </trkpt>
      <trkpt lat="40.1743541099" lon="-6.0533668846">
        <ele>382.74</ele>
        <time>2020-07-16T09:14:38Z</time>
      </trkpt>
      <trkpt lat="40.1749503985" lon="-6.0530300997">
        <ele>381.30</ele>
        <time>2020-07-16T09:14:49Z</time>
      </trkpt>
      <trkpt lat="40.1755571645" lon="-6.0526822507">
        <ele>380.34</ele>
        <time>2020-07-16T09:15:01Z</time>
      </trkpt>
      <trkpt lat="40.1760825422" lon="-6.0523884650">
        <ele>378.90</ele>
        <time>2020-07-16T09:15:12Z</time>
      </trkpt>
      <trkpt lat="40.1764342468" lon="-6.0521929991">
        <ele>378.42</ele>
        <time>2020-07-16T09:15:20Z</time>
      </trkpt>
      <trkpt lat="40.1768895518" lon="-6.0519319866">
        <ele>378.42</ele>
        <time>2020-07-16T09:15:30Z</time>
      </trkpt>
      <trkpt lat="40.1773048751" lon="-6.0516885761">
        <ele>378.42</ele>
        <time>2020-07-16T09:15:39Z</time>
      </trkpt>
      <trkpt lat="40.1777295861" lon="-6.0513423197">
        <ele>378.42</ele>
        <time>2020-07-16T09:15:49Z</time>
      </trkpt>
      <trkpt lat="40.1780628506" lon="-6.0509616137">
        <ele>378.42</ele>
        <time>2020-07-16T09:15:58Z</time>
      </trkpt>
      <trkpt lat="40.1783469971" lon="-6.0506430175">
        <ele>378.90</ele>
        <time>2020-07-16T09:16:06Z</time>
      </trkpt>
      <trkpt lat="40.1787160523" lon="-6.0502285324">
        <ele>378.90</ele>
        <time>2020-07-16T09:16:17Z</time>
      </trkpt>
      <trkpt lat="40.1791317109" lon="-6.0497536976">
        <ele>379.86</ele>
        <time>2020-07-16T09:16:30Z</time>
      </trkpt>
      <trkpt lat="40.1794222277" lon="-6.0494194273">
        <ele>380.82</ele>
        <time>2020-07-16T09:16:40Z</time>
      </trkpt>
      <trkpt lat="40.1796437614" lon="-6.0491709877">
        <ele>381.78</ele>
        <time>2020-07-16T09:16:49Z</time>
      </trkpt>
      <trkpt lat="40.1798605174" lon="-6.0489300918">
        <ele>383.22</ele>
        <time>2020-07-16T09:16:59Z</time>
      </trkpt>
      <trkpt lat="40.1800413989" lon="-6.0487229750">
        <ele>384.66</ele>
        <time>2020-07-16T09:17:08Z</time>
      </trkpt>
      <trkpt lat="40.1802537963" lon="-6.0485097393">
        <ele>385.63</ele>
        <time>2020-07-16T09:17:18Z</time>
      </trkpt>
      <trkpt lat="40.1804499328" lon="-6.0483764671">
        <ele>386.59</ele>
        <time>2020-07-16T09:17:28Z</time>
      </trkpt>
      <trkpt lat="40.1807014737" lon="-6.0482562706">
        <ele>386.11</ele>
        <time>2020-07-16T09:17:36Z</time>
      </trkpt>
      <trkpt lat="40.1810629014" lon="-6.0481200647">
        <ele>384.66</ele>
        <time>2020-07-16T09:17:44Z</time>
      </trkpt>
      <trkpt lat="40.1815261692" lon="-6.0479453858">
        <ele>382.74</ele>
        <time>2020-07-16T09:17:52Z</time>
      </trkpt>
      <trkpt lat="40.1820898522" lon="-6.0477436334">
        <ele>381.30</ele>
        <time>2020-07-16T09:18:01Z</time>
      </trkpt>
      <trkpt lat="40.1825750805" lon="-6.0475767497">
        <ele>380.34</ele>
        <time>2020-07-16T09:18:10Z</time>
      </trkpt>
      <trkpt lat="40.1829726342" lon="-6.0474343412">
        <ele>379.86</ele>
        <time>2020-07-16T09:18:19Z</time>
      </trkpt>
      <trkpt lat="40.1834127679" lon="-6.0472672060">
        <ele>379.86</ele>
        <time>2020-07-16T09:18:29Z</time>
      </trkpt>
      <trkpt lat="40.1838419214" lon="-6.0471051000">
        <ele>380.34</ele>
        <time>2020-07-16T09:18:39Z</time>
      </trkpt>
      <trkpt lat="40.1841818076" lon="-6.0469807964">
        <ele>380.82</ele>
        <time>2020-07-16T09:18:48Z</time>
      </trkpt>
      <trkpt lat="40.1845240407" lon="-6.0468540620">
        <ele>382.26</ele>
        <time>2020-07-16T09:18:59Z</time>
      </trkpt>
      <trkpt lat="40.1848097797" lon="-6.0467447620">
        <ele>384.18</ele>
        <time>2020-07-16T09:19:09Z</time>
      </trkpt>
      <trkpt lat="40.1850469876" lon="-6.0466651339">
        <ele>386.11</ele>
        <time>2020-07-16T09:19:18Z</time>
      </trkpt>
      <trkpt lat="40.1852078363" lon="-6.0466062929">
        <ele>387.07</ele>
        <time>2020-07-16T09:19:25Z</time>
      </trkpt>
      <trkpt lat="40.1854195632" lon="-6.0465346277">
        <ele>388.03</ele>
        <time>2020-07-16T09:19:34Z</time>
      </trkpt>
      <trkpt lat="40.1856283564" lon="-6.0464560892">
        <ele>389.47</ele>
        <time>2020-07-16T09:19:43Z</time>
      </trkpt>
      <trkpt lat="40.1858700067" lon="-6.0463666543">
        <ele>390.43</ele>
        <time>2020-07-16T09:19:53Z</time>
      </trkpt>
      <trkpt lat="40.1861009281" lon="-6.0462913010">
        <ele>390.43</ele>
        <time>2020-07-16T09:20:02Z</time>
      </trkpt>
      <trkpt lat="40.1862878446" lon="-6.0462000221">
        <ele>390.91</ele>
        <time>2020-07-16T09:20:10Z</time>
      </trkpt>
      <trkpt lat="40.1863215398" lon="-6.0461916402">
        <ele>390.91</ele>
        <time>2020-07-16T09:20:15Z</time>
      </trkpt>
      <trkpt lat="40.1863212045" lon="-6.0461816657">
        <ele>390.43</ele>
        <time>2020-07-16T09:20:31Z</time>
      </trkpt>
      <trkpt lat="40.1863473561" lon="-6.0461910535">
        <ele>390.43</ele>
        <time>2020-07-16T09:20:41Z</time>
      </trkpt>
      <trkpt lat="40.1864983141" lon="-6.0461295303">
        <ele>390.43</ele>
        <time>2020-07-16T09:20:48Z</time>
      </trkpt>
      <trkpt lat="40.1867557224" lon="-6.0460311268">
        <ele>390.43</ele>
        <time>2020-07-16T09:20:58Z</time>
      </trkpt>
      <trkpt lat="40.1870304812" lon="-6.0459342320">
        <ele>390.43</ele>
        <time>2020-07-16T09:21:08Z</time>
      </trkpt>
      <trkpt lat="40.1873128675" lon="-6.0458409414">
        <ele>389.95</ele>
        <time>2020-07-16T09:21:16Z</time>
      </trkpt>
      <trkpt lat="40.1875523385" lon="-6.0457098484">
        <ele>390.43</ele>
        <time>2020-07-16T09:21:24Z</time>
      </trkpt>
      <trkpt lat="40.1877162047" lon="-6.0455584712">
        <ele>390.91</ele>
        <time>2020-07-16T09:21:31Z</time>
      </trkpt>
      <trkpt lat="40.1878592838" lon="-6.0453259572">
        <ele>391.87</ele>
        <time>2020-07-16T09:21:39Z</time>
      </trkpt>
      <trkpt lat="40.1880445238" lon="-6.0449832212">
        <ele>392.84</ele>
        <time>2020-07-16T09:21:48Z</time>
      </trkpt>
      <trkpt lat="40.1882688235" lon="-6.0445681494">
        <ele>392.84</ele>
        <time>2020-07-16T09:21:58Z</time>
      </trkpt>
      <trkpt lat="40.1884714141" lon="-6.0441966634">
        <ele>393.32</ele>
        <time>2020-07-16T09:22:07Z</time>
      </trkpt>
      <trkpt lat="40.1887196861" lon="-6.0437380057">
        <ele>393.80</ele>
        <time>2020-07-16T09:22:18Z</time>
      </trkpt>
      <trkpt lat="40.1889569778" lon="-6.0432935972">
        <ele>394.28</ele>
        <time>2020-07-16T09:22:28Z</time>
      </trkpt>
      <trkpt lat="40.1891855523" lon="-6.0428646114">
        <ele>394.28</ele>
        <time>2020-07-16T09:22:37Z</time>
      </trkpt>
      <trkpt lat="40.1894342434" lon="-6.0424068756">
        <ele>393.80</ele>
        <time>2020-07-16T09:22:47Z</time>
      </trkpt>
      <trkpt lat="40.1896677632" lon="-6.0419686697">
        <ele>393.32</ele>
        <time>2020-07-16T09:22:57Z</time>
      </trkpt>
      <trkpt lat="40.1898703538" lon="-6.0416046437">
        <ele>393.32</ele>
        <time>2020-07-16T09:23:06Z</time>
      </trkpt>
      <trkpt lat="40.1900852658" lon="-6.0411983728">
        <ele>393.80</ele>
        <time>2020-07-16T09:23:16Z</time>
      </trkpt>
      <trkpt lat="40.1902603637" lon="-6.0408692155">
        <ele>393.32</ele>
        <time>2020-07-16T09:23:24Z</time>
      </trkpt>
      <trkpt lat="40.1904610265" lon="-6.0404963046">
        <ele>393.32</ele>
        <time>2020-07-16T09:23:33Z</time>
      </trkpt>
      <trkpt lat="40.1906685624" lon="-6.0401166882">
        <ele>393.32</ele>
        <time>2020-07-16T09:23:41Z</time>
      </trkpt>
      <trkpt lat="40.1909504458" lon="-6.0395908076">
        <ele>393.32</ele>
        <time>2020-07-16T09:23:52Z</time>
      </trkpt>
      <trkpt lat="40.1912057586" lon="-6.0391184874">
        <ele>392.84</ele>
        <time>2020-07-16T09:24:02Z</time>
      </trkpt>
      <trkpt lat="40.1914314833" lon="-6.0387109593">
        <ele>393.32</ele>
        <time>2020-07-16T09:24:11Z</time>
      </trkpt>
      <trkpt lat="40.1916757319" lon="-6.0382466856">
        <ele>393.32</ele>
        <time>2020-07-16T09:24:21Z</time>
      </trkpt>
      <trkpt lat="40.1919052284" lon="-6.0378213041">
        <ele>392.84</ele>
        <time>2020-07-16T09:24:30Z</time>
      </trkpt>
      <trkpt lat="40.1922135986" lon="-6.0372689366">
        <ele>392.36</ele>
        <time>2020-07-16T09:24:42Z</time>
      </trkpt>
      <trkpt lat="40.1925083064" lon="-6.0367204249">
        <ele>390.43</ele>
        <time>2020-07-16T09:24:52Z</time>
      </trkpt>
      <trkpt lat="40.1927933749" lon="-6.0361842345">
        <ele>389.47</ele>
        <time>2020-07-16T09:25:01Z</time>
      </trkpt>
      <trkpt lat="40.1931782719" lon="-6.0354432743">
        <ele>387.55</ele>
        <time>2020-07-16T09:25:12Z</time>
      </trkpt>
      <trkpt lat="40.1934666932" lon="-6.0348774958">
        <ele>386.11</ele>
        <time>2020-07-16T09:25:20Z</time>
      </trkpt>
      <trkpt lat="40.1937113609" lon="-6.0343898367">
        <ele>385.63</ele>
        <time>2020-07-16T09:25:28Z</time>
      </trkpt>
      <trkpt lat="40.1939820964" lon="-6.0338548198">
        <ele>385.63</ele>
        <time>2020-07-16T09:25:38Z</time>
      </trkpt>
      <trkpt lat="40.1942419354" lon="-6.0333395004">
        <ele>385.63</ele>
        <time>2020-07-16T09:25:48Z</time>
      </trkpt>
      <trkpt lat="40.1944654807" lon="-6.0328997020">
        <ele>385.15</ele>
        <time>2020-07-16T09:25:58Z</time>
      </trkpt>
      <trkpt lat="40.1946186181" lon="-6.0325992107">
        <ele>385.15</ele>
        <time>2020-07-16T09:26:07Z</time>
      </trkpt>
      <trkpt lat="40.1946187858" lon="-6.0325976182">
        <ele>385.63</ele>
        <time>2020-07-16T09:26:12Z</time>
      </trkpt>
      <trkpt lat="40.1946278382" lon="-6.0325984564">
        <ele>386.11</ele>
        <time>2020-07-16T09:26:31Z</time>
      </trkpt>
      <trkpt lat="40.1946265809" lon="-6.0325982887">
        <ele>387.07</ele>
        <time>2020-07-16T09:26:49Z</time>
      </trkpt>
      <trkpt lat="40.1946435962" lon="-6.0325775854">
        <ele>387.55</ele>
        <time>2020-07-16T09:27:04Z</time>
      </trkpt>
      <trkpt lat="40.1946394891" lon="-6.0325742327">
        <ele>386.59</ele>
        <time>2020-07-16T09:27:23Z</time>
      </trkpt>
      <trkpt lat="40.1946415007" lon="-6.0325769987">
        <ele>385.63</ele>
        <time>2020-07-16T09:27:36Z</time>
      </trkpt>
      <trkpt lat="40.1946426742" lon="-6.0325702932">
        <ele>385.63</ele>
        <time>2020-07-16T09:27:48Z</time>
      </trkpt>
      <trkpt lat="40.1946417522" lon="-6.0325712152">
        <ele>386.11</ele>
        <time>2020-07-16T09:28:01Z</time>
      </trkpt>
      <trkpt lat="40.1946430095" lon="-6.0325775016">
        <ele>384.66</ele>
        <time>2020-07-16T09:28:16Z</time>
      </trkpt>
      <trkpt lat="40.1946430095" lon="-6.0325889010">
        <ele>384.18</ele>
        <time>2020-07-16T09:28:42Z</time>
      </trkpt>
      <trkpt lat="40.1946493797" lon="-6.0325968638">
        <ele>383.22</ele>
        <time>2020-07-16T09:29:05Z</time>
      </trkpt>
      <trkpt lat="40.1946500503" lon="-6.0325788427">
        <ele>383.70</ele>
        <time>2020-07-16T09:29:18Z</time>
      </trkpt>
      <trkpt lat="40.1946536545" lon="-6.0325764120">
        <ele>383.70</ele>
        <time>2020-07-16T09:29:25Z</time>
      </trkpt>
      <trkpt lat="40.1946729328" lon="-6.0325451475">
        <ele>384.66</ele>
        <time>2020-07-16T09:29:42Z</time>
      </trkpt>
      <trkpt lat="40.1947678998" lon="-6.0323820356">
        <ele>384.66</ele>
        <time>2020-07-16T09:29:49Z</time>
      </trkpt>
      <trkpt lat="40.1949050277" lon="-6.0321123060">
        <ele>385.15</ele>
        <time>2020-07-16T09:29:58Z</time>
      </trkpt>
      <trkpt lat="40.1950843167" lon="-6.0317615233">
        <ele>385.63</ele>
        <time>2020-07-16T09:30:08Z</time>
      </trkpt>
      <trkpt lat="40.1952979714" lon="-6.0313420091">
        <ele>387.07</ele>
        <time>2020-07-16T09:30:19Z</time>
      </trkpt>
      <trkpt lat="40.1955041662" lon="-6.0309141967">
        <ele>389.47</ele>
        <time>2020-07-16T09:30:30Z</time>
      </trkpt>
      <trkpt lat="40.1956750732" lon="-6.0305900685">
        <ele>389.95</ele>
        <time>2020-07-16T09:30:39Z</time>
      </trkpt>
      <trkpt lat="40.1958863810" lon="-6.0301827081">
        <ele>392.36</ele>
        <time>2020-07-16T09:30:50Z</time>
      </trkpt>
      <trkpt lat="40.1960352436" lon="-6.0298967175">
        <ele>392.84</ele>
        <time>2020-07-16T09:30:58Z</time>
      </trkpt>
      <trkpt lat="40.1963279396" lon="-6.0293524805">
        <ele>393.80</ele>
        <time>2020-07-16T09:31:12Z</time>
      </trkpt>
      <trkpt lat="40.1965429354" lon="-6.0289481375">
        <ele>393.80</ele>
        <time>2020-07-16T09:31:22Z</time>
      </trkpt>
      <trkpt lat="40.1967647206" lon="-6.0285394359">
        <ele>393.32</ele>
        <time>2020-07-16T09:31:32Z</time>
      </trkpt>
      <trkpt lat="40.1970611047" lon="-6.0279915109">
        <ele>392.84</ele>
        <time>2020-07-16T09:31:44Z</time>
      </trkpt>
      <trkpt lat="40.1973128971" lon="-6.0275304224">
        <ele>392.84</ele>
        <time>2020-07-16T09:31:54Z</time>
      </trkpt>
      <trkpt lat="40.1975691319" lon="-6.0270769615">
        <ele>392.36</ele>
        <time>2020-07-16T09:32:04Z</time>
      </trkpt>
      <trkpt lat="40.1978481654" lon="-6.0265955050">
        <ele>391.87</ele>
        <time>2020-07-16T09:32:14Z</time>
      </trkpt>
      <trkpt lat="40.1981629897" lon="-6.0260839574">
        <ele>392.36</ele>
        <time>2020-07-16T09:32:26Z</time>
      </trkpt>
      <trkpt lat="40.1983151212" lon="-6.0258029960">
        <ele>392.36</ele>
        <time>2020-07-16T09:32:33Z</time>
      </trkpt>
      <trkpt lat="40.1985462941" lon="-6.0254278220">
        <ele>391.87</ele>
        <time>2020-07-16T09:32:42Z</time>
      </trkpt>
      <trkpt lat="40.1988120843" lon="-6.0249999259">
        <ele>391.39</ele>
        <time>2020-07-16T09:32:52Z</time>
      </trkpt>
      <trkpt lat="40.1990857534" lon="-6.0245459620">
        <ele>391.87</ele>
        <time>2020-07-16T09:33:03Z</time>
      </trkpt>
      <trkpt lat="40.1993488614" lon="-6.0241058283">
        <ele>391.39</ele>
        <time>2020-07-16T09:33:13Z</time>
      </trkpt>
      <trkpt lat="40.1994303335" lon="-6.0239732265">
        <ele>391.39</ele>
        <time>2020-07-16T09:33:16Z</time>
      </trkpt>
      <trkpt lat="40.1996864844" lon="-6.0235480126">
        <ele>390.43</ele>
        <time>2020-07-16T09:33:25Z</time>
      </trkpt>
      <trkpt lat="40.1999172382" lon="-6.0231744312">
        <ele>390.91</ele>
        <time>2020-07-16T09:33:33Z</time>
      </trkpt>
      <trkpt lat="40.2001932543" lon="-6.0227020271">
        <ele>390.43</ele>
        <time>2020-07-16T09:33:43Z</time>
      </trkpt>
      <trkpt lat="40.2002207469" lon="-6.0226544179">
        <ele>390.43</ele>
        <time>2020-07-16T09:33:44Z</time>
      </trkpt>
      <trkpt lat="40.2004680131" lon="-6.0222456325">
        <ele>390.91</ele>
        <time>2020-07-16T09:33:53Z</time>
      </trkpt>
      <trkpt lat="40.2007831726" lon="-6.0216963664">
        <ele>391.39</ele>
        <time>2020-07-16T09:34:05Z</time>
      </trkpt>
      <trkpt lat="40.2009890322" lon="-6.0212718230">
        <ele>391.87</ele>
        <time>2020-07-16T09:34:14Z</time>
      </trkpt>
      <trkpt lat="40.2011986636" lon="-6.0208583437">
        <ele>391.39</ele>
        <time>2020-07-16T09:34:23Z</time>
      </trkpt>
      <trkpt lat="40.2014202811" lon="-6.0204022843">
        <ele>391.39</ele>
        <time>2020-07-16T09:34:33Z</time>
      </trkpt>
      <trkpt lat="40.2016155794" lon="-6.0199858714">
        <ele>391.39</ele>
        <time>2020-07-16T09:34:42Z</time>
      </trkpt>
      <trkpt lat="40.2018637676" lon="-6.0194760002">
        <ele>390.43</ele>
        <time>2020-07-16T09:34:52Z</time>
      </trkpt>
      <trkpt lat="40.2021333296" lon="-6.0189263150">
        <ele>389.95</ele>
        <time>2020-07-16T09:35:03Z</time>
      </trkpt>
      <trkpt lat="40.2021710481" lon="-6.0188262351">
        <ele>389.95</ele>
        <time>2020-07-16T09:35:05Z</time>
      </trkpt>
      <trkpt lat="40.2021746524" lon="-6.0187704954">
        <ele>389.95</ele>
        <time>2020-07-16T09:35:06Z</time>
      </trkpt>
      <trkpt lat="40.2021645103" lon="-6.0187138338">
        <ele>389.95</ele>
        <time>2020-07-16T09:35:07Z</time>
      </trkpt>
      <trkpt lat="40.2021420468" lon="-6.0186716728">
        <ele>389.95</ele>
        <time>2020-07-16T09:35:08Z</time>
      </trkpt>
      <trkpt lat="40.2021157276" lon="-6.0186420009">
        <ele>390.43</ele>
        <time>2020-07-16T09:35:09Z</time>
      </trkpt>
      <trkpt lat="40.2020873968" lon="-6.0186099820">
        <ele>390.43</ele>
        <time>2020-07-16T09:35:10Z</time>
      </trkpt>
      <trkpt lat="40.2020575572" lon="-6.0185751971">
        <ele>390.43</ele>
        <time>2020-07-16T09:35:11Z</time>
      </trkpt>
      <trkpt lat="40.2020277176" lon="-6.0185438488">
        <ele>390.43</ele>
        <time>2020-07-16T09:35:12Z</time>
      </trkpt>
      <trkpt lat="40.2019958664" lon="-6.0185140930">
        <ele>390.43</ele>
        <time>2020-07-16T09:35:13Z</time>
      </trkpt>
      <trkpt lat="40.2016642783" lon="-6.0182251688">
        <ele>392.84</ele>
        <time>2020-07-16T09:35:24Z</time>
      </trkpt>
      <trkpt lat="40.2013973147" lon="-6.0179931577">
        <ele>395.24</ele>
        <time>2020-07-16T09:35:35Z</time>
      </trkpt>
      <trkpt lat="40.2011179458" lon="-6.0177525971">
        <ele>397.16</ele>
        <time>2020-07-16T09:35:47Z</time>
      </trkpt>
      <trkpt lat="40.2008904610" lon="-6.0175625794">
        <ele>398.12</ele>
        <time>2020-07-16T09:35:57Z</time>
      </trkpt>
      <trkpt lat="40.2006079070" lon="-6.0173284728">
        <ele>400.05</ele>
        <time>2020-07-16T09:36:09Z</time>
      </trkpt>
      <trkpt lat="40.2003492415" lon="-6.0171100404">
        <ele>401.49</ele>
        <time>2020-07-16T09:36:20Z</time>
      </trkpt>
      <trkpt lat="40.2001042385" lon="-6.0169101320">
        <ele>401.49</ele>
        <time>2020-07-16T09:36:30Z</time>
      </trkpt>
      <trkpt lat="40.1999026537" lon="-6.0167419910">
        <ele>401.49</ele>
        <time>2020-07-16T09:36:38Z</time>
      </trkpt>
      <trkpt lat="40.1996679604" lon="-6.0165403225">
        <ele>401.97</ele>
        <time>2020-07-16T09:36:47Z</time>
      </trkpt>
      <trkpt lat="40.1994047686" lon="-6.0163178667">
        <ele>402.93</ele>
        <time>2020-07-16T09:36:57Z</time>
      </trkpt>
      <trkpt lat="40.1991920359" lon="-6.0161394160">
        <ele>402.45</ele>
        <time>2020-07-16T09:37:05Z</time>
      </trkpt>
      <trkpt lat="40.1989944745" lon="-6.0159896314">
        <ele>402.45</ele>
        <time>2020-07-16T09:37:12Z</time>
      </trkpt>
      <trkpt lat="40.1987874415" lon="-6.0158098396">
        <ele>402.45</ele>
        <time>2020-07-16T09:37:19Z</time>
      </trkpt>
      <trkpt lat="40.1985785645" lon="-6.0156291258">
        <ele>402.45</ele>
        <time>2020-07-16T09:37:26Z</time>
      </trkpt>
      <trkpt lat="40.1983851101" lon="-6.0154702887">
        <ele>401.97</ele>
        <time>2020-07-16T09:37:32Z</time>
      </trkpt>
      <trkpt lat="40.1983502414" lon="-6.0154427122">
        <ele>401.97</ele>
        <time>2020-07-16T09:37:33Z</time>
      </trkpt>
      <trkpt lat="40.1983138639" lon="-6.0154122859">
        <ele>401.49</ele>
        <time>2020-07-16T09:37:34Z</time>
      </trkpt>
      <trkpt lat="40.1982782409" lon="-6.0153872240">
        <ele>401.49</ele>
        <time>2020-07-16T09:37:35Z</time>
      </trkpt>
      <trkpt lat="40.1982437074" lon="-6.0153586417">
        <ele>401.49</ele>
        <time>2020-07-16T09:37:36Z</time>
      </trkpt>
      <trkpt lat="40.1982069947" lon="-6.0153289698">
        <ele>401.49</ele>
        <time>2020-07-16T09:37:37Z</time>
      </trkpt>
      <trkpt lat="40.1981712878" lon="-6.0152955260">
        <ele>401.49</ele>
        <time>2020-07-16T09:37:38Z</time>
      </trkpt>
      <trkpt lat="40.1981347427" lon="-6.0152634233">
        <ele>401.49</ele>
        <time>2020-07-16T09:37:39Z</time>
      </trkpt>
      <trkpt lat="40.1980976108" lon="-6.0152335837">
        <ele>401.49</ele>
        <time>2020-07-16T09:37:40Z</time>
      </trkpt>
      <trkpt lat="40.1977840438" lon="-6.0149644408">
        <ele>401.49</ele>
        <time>2020-07-16T09:37:48Z</time>
      </trkpt>
      <trkpt lat="40.1974904258" lon="-6.0147220362">
        <ele>400.53</ele>
        <time>2020-07-16T09:37:55Z</time>
      </trkpt>
      <trkpt lat="40.1972421538" lon="-6.0145124048">
        <ele>400.05</ele>
        <time>2020-07-16T09:38:01Z</time>
      </trkpt>
      <trkpt lat="40.1969211269" lon="-6.0142351314">
        <ele>399.08</ele>
        <time>2020-07-16T09:38:09Z</time>
      </trkpt>
      <trkpt lat="40.1967408322" lon="-6.0140113346">
        <ele>398.12</ele>
        <time>2020-07-16T09:38:15Z</time>
      </trkpt>
      <trkpt lat="40.1967630442" lon="-6.0137944948">
        <ele>398.12</ele>
        <time>2020-07-16T09:38:20Z</time>
      </trkpt>
      <trkpt lat="40.1968399901" lon="-6.0134275351">
        <ele>398.60</ele>
        <time>2020-07-16T09:38:28Z</time>
      </trkpt>
      <trkpt lat="40.1968995854" lon="-6.0131147224">
        <ele>399.57</ele>
        <time>2020-07-16T09:38:36Z</time>
      </trkpt>
      <trkpt lat="40.1969656348" lon="-6.0126739182">
        <ele>401.01</ele>
        <time>2020-07-16T09:38:47Z</time>
      </trkpt>
      <trkpt lat="40.1970357075" lon="-6.0122823995">
        <ele>401.49</ele>
        <time>2020-07-16T09:38:57Z</time>
      </trkpt>
      <trkpt lat="40.1971341111" lon="-6.0117182974">
        <ele>401.97</ele>
        <time>2020-07-16T09:39:12Z</time>
      </trkpt>
      <trkpt lat="40.1971832290" lon="-6.0114478972">
        <ele>402.93</ele>
        <time>2020-07-16T09:39:19Z</time>
      </trkpt>
      <trkpt lat="40.1972931158" lon="-6.0108570568">
        <ele>403.89</ele>
        <time>2020-07-16T09:39:33Z</time>
      </trkpt>
      <trkpt lat="40.1973705646" lon="-6.0104258917">
        <ele>404.37</ele>
        <time>2020-07-16T09:39:43Z</time>
      </trkpt>
      <trkpt lat="40.1974471752" lon="-6.0100092273">
        <ele>404.37</ele>
        <time>2020-07-16T09:39:53Z</time>
      </trkpt>
      <trkpt lat="40.1975180861" lon="-6.0095866118">
        <ele>404.37</ele>
        <time>2020-07-16T09:40:02Z</time>
      </trkpt>
      <trkpt lat="40.1975781843" lon="-6.0092051513">
        <ele>403.89</ele>
        <time>2020-07-16T09:40:11Z</time>
      </trkpt>
      <trkpt lat="40.1976531185" lon="-6.0088262055">
        <ele>404.85</ele>
        <time>2020-07-16T09:40:20Z</time>
      </trkpt>
      <trkpt lat="40.1976216864" lon="-6.0086798575">
        <ele>404.85</ele>
        <time>2020-07-16T09:40:24Z</time>
      </trkpt>
      <trkpt lat="40.1974201016" lon="-6.0084308311">
        <ele>405.33</ele>
        <time>2020-07-16T09:40:32Z</time>
      </trkpt>
      <trkpt lat="40.1972246356" lon="-6.0081609339">
        <ele>405.33</ele>
        <time>2020-07-16T09:40:40Z</time>
      </trkpt>
      <trkpt lat="40.1969872601" lon="-6.0078264959">
        <ele>405.33</ele>
        <time>2020-07-16T09:40:50Z</time>
      </trkpt>
      <trkpt lat="40.1968036965" lon="-6.0075380746">
        <ele>404.37</ele>
        <time>2020-07-16T09:40:58Z</time>
      </trkpt>
      <trkpt lat="40.1965580229" lon="-6.0072017927">
        <ele>403.41</ele>
        <time>2020-07-16T09:41:08Z</time>
      </trkpt>
      <trkpt lat="40.1963352319" lon="-6.0068956017">
        <ele>402.93</ele>
        <time>2020-07-16T09:41:17Z</time>
      </trkpt>
      <trkpt lat="40.1960827690" lon="-6.0065428913">
        <ele>402.45</ele>
        <time>2020-07-16T09:41:28Z</time>
      </trkpt>
      <trkpt lat="40.1958408672" lon="-6.0062029213">
        <ele>401.49</ele>
        <time>2020-07-16T09:41:38Z</time>
      </trkpt>
      <trkpt lat="40.1955894101" lon="-6.0058516357">
        <ele>400.53</ele>
        <time>2020-07-16T09:41:47Z</time>
      </trkpt>
      <trkpt lat="40.1952018309" lon="-6.0053166188">
        <ele>398.60</ele>
        <time>2020-07-16T09:41:59Z</time>
      </trkpt>
      <trkpt lat="40.1949068718" lon="-6.0048978589">
        <ele>397.16</ele>
        <time>2020-07-16T09:42:08Z</time>
      </trkpt>
      <trkpt lat="40.1948430017" lon="-6.0047953483">
        <ele>397.16</ele>
        <time>2020-07-16T09:42:10Z</time>
      </trkpt>
      <trkpt lat="40.1945120003" lon="-6.0043297336">
        <ele>395.72</ele>
        <time>2020-07-16T09:42:20Z</time>
      </trkpt>
      <trkpt lat="40.1942934003" lon="-6.0040282365">
        <ele>395.72</ele>
        <time>2020-07-16T09:42:29Z</time>
      </trkpt>
      <trkpt lat="40.1940406021" lon="-6.0036867578">
        <ele>396.68</ele>
        <time>2020-07-16T09:42:39Z</time>
      </trkpt>
      <trkpt lat="40.1938627381" lon="-6.0034442693">
        <ele>397.64</ele>
        <time>2020-07-16T09:42:45Z</time>
      </trkpt>
      <trkpt lat="40.1937970240" lon="-6.0033720173">
        <ele>398.12</ele>
        <time>2020-07-16T09:42:47Z</time>
      </trkpt>
      <trkpt lat="40.1937688608" lon="-6.0033350531">
        <ele>398.12</ele>
        <time>2020-07-16T09:42:48Z</time>
      </trkpt>
      <trkpt lat="40.1934904978" lon="-6.0029509943">
        <ele>399.08</ele>
        <time>2020-07-16T09:42:59Z</time>
      </trkpt>
      <trkpt lat="40.1932794414" lon="-6.0026674345">
        <ele>399.57</ele>
        <time>2020-07-16T09:43:08Z</time>
      </trkpt>
      <trkpt lat="40.1930368692" lon="-6.0023296438">
        <ele>399.08</ele>
        <time>2020-07-16T09:43:17Z</time>
      </trkpt>
      <trkpt lat="40.1927708276" lon="-6.0018893424">
        <ele>398.60</ele>
        <time>2020-07-16T09:43:28Z</time>
      </trkpt>
      <trkpt lat="40.1925208792" lon="-6.0015355423">
        <ele>400.53</ele>
        <time>2020-07-16T09:43:37Z</time>
      </trkpt>
      <trkpt lat="40.1924227271" lon="-6.0013974924">
        <ele>401.01</ele>
        <time>2020-07-16T09:43:43Z</time>
      </trkpt>
      <trkpt lat="40.1924223080" lon="-6.0012342967">
        <ele>401.01</ele>
        <time>2020-07-16T09:43:49Z</time>
      </trkpt>
      <trkpt lat="40.1925907843" lon="-6.0010346398">
        <ele>400.53</ele>
        <time>2020-07-16T09:43:57Z</time>
      </trkpt>
      <trkpt lat="40.1928064507" lon="-6.0007947497">
        <ele>400.53</ele>
        <time>2020-07-16T09:44:05Z</time>
      </trkpt>
      <trkpt lat="40.1931361947" lon="-6.0004318971">
        <ele>401.01</ele>
        <time>2020-07-16T09:44:15Z</time>
      </trkpt>
      <trkpt lat="40.1934531145" lon="-6.0000902507">
        <ele>401.49</ele>
        <time>2020-07-16T09:44:25Z</time>
      </trkpt>
      <trkpt lat="40.1937943418" lon="-5.9997163340">
        <ele>401.97</ele>
        <time>2020-07-16T09:44:35Z</time>
      </trkpt>
      <trkpt lat="40.1941227447" lon="-5.9993615281">
        <ele>402.45</ele>
        <time>2020-07-16T09:44:45Z</time>
      </trkpt>
      <trkpt lat="40.1944282651" lon="-5.9990309458">
        <ele>402.93</ele>
        <time>2020-07-16T09:44:55Z</time>
      </trkpt>
      <trkpt lat="40.1947958954" lon="-5.9986278601">
        <ele>403.41</ele>
        <time>2020-07-16T09:45:06Z</time>
      </trkpt>
      <trkpt lat="40.1950165071" lon="-5.9983883891">
        <ele>403.41</ele>
        <time>2020-07-16T09:45:14Z</time>
      </trkpt>
      <trkpt lat="40.1954142284" lon="-5.9979591519">
        <ele>403.89</ele>
        <time>2020-07-16T09:45:27Z</time>
      </trkpt>
      <trkpt lat="40.1957743149" lon="-5.9975727461">
        <ele>404.85</ele>
        <time>2020-07-16T09:45:38Z</time>
      </trkpt>
      <trkpt lat="40.1961698569" lon="-5.9971464425">
        <ele>405.81</ele>
        <time>2020-07-16T09:45:50Z</time>
      </trkpt>
      <trkpt lat="40.1964510698" lon="-5.9968575183">
        <ele>406.77</ele>
        <time>2020-07-16T09:45:59Z</time>
      </trkpt>
      <trkpt lat="40.1967402454" lon="-5.9965870343">
        <ele>407.26</ele>
        <time>2020-07-16T09:46:08Z</time>
      </trkpt>
      <trkpt lat="40.1969772018" lon="-5.9963654168">
        <ele>407.74</ele>
        <time>2020-07-16T09:46:17Z</time>
      </trkpt>
      <trkpt lat="40.1969847456" lon="-5.9963333141">
        <ele>407.74</ele>
        <time>2020-07-16T09:46:18Z</time>
      </trkpt>
      <trkpt lat="40.1970676426" lon="-5.9961361717">
        <ele>408.22</ele>
        <time>2020-07-16T09:46:25Z</time>
      </trkpt>
      <trkpt lat="40.1972522121" lon="-5.9959808551">
        <ele>408.70</ele>
        <time>2020-07-16T09:46:33Z</time>
      </trkpt>
      <trkpt lat="40.1974179223" lon="-5.9958537016">
        <ele>409.18</ele>
        <time>2020-07-16T09:46:40Z</time>
      </trkpt>
      <trkpt lat="40.1976780128" lon="-5.9956095368">
        <ele>409.66</ele>
        <time>2020-07-16T09:46:51Z</time>
      </trkpt>
      <trkpt lat="40.1977461576" lon="-5.9954658709">
        <ele>409.18</ele>
        <time>2020-07-16T09:46:57Z</time>
      </trkpt>
      <trkpt lat="40.1977558807" lon="-5.9954434913">
        <ele>409.66</ele>
        <time>2020-07-16T09:46:58Z</time>
      </trkpt>
      <trkpt lat="40.1978473272" lon="-5.9952442534">
        <ele>409.66</ele>
        <time>2020-07-16T09:47:05Z</time>
      </trkpt>
      <trkpt lat="40.1979310624" lon="-5.9949699137">
        <ele>410.14</ele>
        <time>2020-07-16T09:47:13Z</time>
      </trkpt>
      <trkpt lat="40.1979956031" lon="-5.9946591966">
        <ele>410.62</ele>
        <time>2020-07-16T09:47:21Z</time>
      </trkpt>
      <trkpt lat="40.1980161387" lon="-5.9946188796">
        <ele>410.62</ele>
        <time>2020-07-16T09:47:23Z</time>
      </trkpt>
      <trkpt lat="40.1980274543" lon="-5.9946098272">
        <ele>410.62</ele>
        <time>2020-07-16T09:47:24Z</time>
      </trkpt>
      <trkpt lat="40.1980378479" lon="-5.9945966676">
        <ele>410.62</ele>
        <time>2020-07-16T09:47:25Z</time>
      </trkpt>
      <trkpt lat="40.1980443858" lon="-5.9945742041">
        <ele>410.62</ele>
        <time>2020-07-16T09:47:26Z</time>
      </trkpt>
      <trkpt lat="40.1980492473" lon="-5.9945489746">
        <ele>410.62</ele>
        <time>2020-07-16T09:47:27Z</time>
      </trkpt>
      <trkpt lat="40.1981041487" lon="-5.9943966754">
        <ele>410.14</ele>
        <time>2020-07-16T09:47:34Z</time>
      </trkpt>
      <trkpt lat="40.1981152967" lon="-5.9943882097">
        <ele>410.62</ele>
        <time>2020-07-16T09:47:35Z</time>
      </trkpt>
      <trkpt lat="40.1981232595" lon="-5.9943706077">
        <ele>410.62</ele>
        <time>2020-07-16T09:47:36Z</time>
      </trkpt>
      <trkpt lat="40.1981817652" lon="-5.9941239282">
        <ele>410.62</ele>
        <time>2020-07-16T09:47:44Z</time>
      </trkpt>
      <trkpt lat="40.1982602198" lon="-5.9938733093">
        <ele>411.58</ele>
        <time>2020-07-16T09:47:52Z</time>
      </trkpt>
      <trkpt lat="40.1983220782" lon="-5.9936165716">
        <ele>412.54</ele>
        <time>2020-07-16T09:48:00Z</time>
      </trkpt>
      <trkpt lat="40.1984101720" lon="-5.9933568165">
        <ele>412.54</ele>
        <time>2020-07-16T09:48:09Z</time>
      </trkpt>
      <trkpt lat="40.1984818373" lon="-5.9931761026">
        <ele>413.02</ele>
        <time>2020-07-16T09:48:19Z</time>
      </trkpt>
      <trkpt lat="40.1985703502" lon="-5.9929471929">
        <ele>413.02</ele>
        <time>2020-07-16T09:48:29Z</time>
      </trkpt>
      <trkpt lat="40.1986975037" lon="-5.9926135093">
        <ele>413.98</ele>
        <time>2020-07-16T09:48:41Z</time>
      </trkpt>
      <trkpt lat="40.1988060493" lon="-5.9923546761">
        <ele>414.47</ele>
        <time>2020-07-16T09:48:50Z</time>
      </trkpt>
      <trkpt lat="40.1989415847" lon="-5.9920515027">
        <ele>415.91</ele>
        <time>2020-07-16T09:49:00Z</time>
      </trkpt>
      <trkpt lat="40.1989997551" lon="-5.9917453118">
        <ele>416.39</ele>
        <time>2020-07-16T09:49:09Z</time>
      </trkpt>
      <trkpt lat="40.1990834065" lon="-5.9914964531">
        <ele>417.35</ele>
        <time>2020-07-16T09:49:17Z</time>
      </trkpt>
      <trkpt lat="40.1992354542" lon="-5.9912594128">
        <ele>418.31</ele>
        <time>2020-07-16T09:49:26Z</time>
      </trkpt>
      <trkpt lat="40.1993938722" lon="-5.9910051059">
        <ele>418.79</ele>
        <time>2020-07-16T09:49:35Z</time>
      </trkpt>
      <trkpt lat="40.1993998233" lon="-5.9909755178">
        <ele>418.79</ele>
        <time>2020-07-16T09:49:36Z</time>
      </trkpt>
      <trkpt lat="40.1993982308" lon="-5.9909501206">
        <ele>418.79</ele>
        <time>2020-07-16T09:49:37Z</time>
      </trkpt>
      <trkpt lat="40.1993921120" lon="-5.9909300040">
        <ele>418.79</ele>
        <time>2020-07-16T09:49:38Z</time>
      </trkpt>
      <trkpt lat="40.1993787847" lon="-5.9909108933">
        <ele>418.79</ele>
        <time>2020-07-16T09:49:39Z</time>
      </trkpt>
      <trkpt lat="40.1993662119" lon="-5.9908923693">
        <ele>418.79</ele>
        <time>2020-07-16T09:49:40Z</time>
      </trkpt>
      <trkpt lat="40.1992823090" lon="-5.9907935467">
        <ele>418.31</ele>
        <time>2020-07-16T09:49:46Z</time>
      </trkpt>
      <trkpt lat="40.1992749330" lon="-5.9907906130">
        <ele>418.31</ele>
        <time>2020-07-16T09:49:53Z</time>
      </trkpt>
      <trkpt lat="40.1992736757" lon="-5.9907906968">
        <ele>418.79</ele>
        <time>2020-07-16T09:50:04Z</time>
      </trkpt>
      <trkpt lat="40.1992740110" lon="-5.9907914512">
        <ele>418.79</ele>
        <time>2020-07-16T09:50:17Z</time>
      </trkpt>
      <trkpt lat="40.1992751006" lon="-5.9907865897">
        <ele>419.75</ele>
        <time>2020-07-16T09:50:30Z</time>
      </trkpt>
      <trkpt lat="40.1992818061" lon="-5.9907849133">
        <ele>419.27</ele>
        <time>2020-07-16T09:50:41Z</time>
      </trkpt>
      <trkpt lat="40.1992913615" lon="-5.9907963127">
        <ele>419.75</ele>
        <time>2020-07-16T09:50:56Z</time>
      </trkpt>
      <trkpt lat="40.1992822252" lon="-5.9907935467">
        <ele>419.75</ele>
        <time>2020-07-16T09:51:14Z</time>
      </trkpt>
      <trkpt lat="40.1992796268" lon="-5.9907901101">
        <ele>419.75</ele>
        <time>2020-07-16T09:51:28Z</time>
      </trkpt>
      <trkpt lat="40.1992839854" lon="-5.9907818120">
        <ele>419.75</ele>
        <time>2020-07-16T09:51:35Z</time>
      </trkpt>
      <trkpt lat="40.1992883440" lon="-5.9907677304">
        <ele>419.27</ele>
        <time>2020-07-16T09:51:39Z</time>
      </trkpt>
      <trkpt lat="40.1992942952" lon="-5.9907500446">
        <ele>419.27</ele>
        <time>2020-07-16T09:51:40Z</time>
      </trkpt>
      <trkpt lat="40.1993024256" lon="-5.9907346219">
        <ele>419.27</ele>
        <time>2020-07-16T09:51:41Z</time>
      </trkpt>
      <trkpt lat="40.1993155852" lon="-5.9907140024">
        <ele>419.27</ele>
        <time>2020-07-16T09:51:42Z</time>
      </trkpt>
      <trkpt lat="40.1993324328" lon="-5.9906922095">
        <ele>419.27</ele>
        <time>2020-07-16T09:51:43Z</time>
      </trkpt>
      <trkpt lat="40.1993520465" lon="-5.9906679858">
        <ele>419.27</ele>
        <time>2020-07-16T09:51:44Z</time>
      </trkpt>
      <trkpt lat="40.1995210256" lon="-5.9904342983">
        <ele>418.79</ele>
        <time>2020-07-16T09:51:52Z</time>
      </trkpt>
      <trkpt lat="40.1997633465" lon="-5.9901099186">
        <ele>418.79</ele>
        <time>2020-07-16T09:52:02Z</time>
      </trkpt>
      <trkpt lat="40.2000542823" lon="-5.9897350799">
        <ele>419.27</ele>
        <time>2020-07-16T09:52:15Z</time>
      </trkpt>
      <trkpt lat="40.2003297117" lon="-5.9893696290">
        <ele>419.75</ele>
        <time>2020-07-16T09:52:27Z</time>
      </trkpt>
      <trkpt lat="40.2005773131" lon="-5.9890350234">
        <ele>420.71</ele>
        <time>2020-07-16T09:52:38Z</time>
      </trkpt>
      <trkpt lat="40.2007819992" lon="-5.9887636174">
        <ele>421.19</ele>
        <time>2020-07-16T09:52:47Z</time>
      </trkpt>
      <trkpt lat="40.2010576800" lon="-5.9884047043">
        <ele>421.19</ele>
        <time>2020-07-16T09:52:59Z</time>
      </trkpt>
      <trkpt lat="40.2012851648" lon="-5.9881092422">
        <ele>422.16</ele>
        <time>2020-07-16T09:53:09Z</time>
      </trkpt>
      <trkpt lat="40.2015108895" lon="-5.9878113493">
        <ele>423.60</ele>
        <time>2020-07-16T09:53:19Z</time>
      </trkpt>
      <trkpt lat="40.2017639391" lon="-5.9874738939">
        <ele>423.60</ele>
        <time>2020-07-16T09:53:30Z</time>
      </trkpt>
      <trkpt lat="40.2019399591" lon="-5.9872264601">
        <ele>424.08</ele>
        <time>2020-07-16T09:53:38Z</time>
      </trkpt>
      <trkpt lat="40.2021647617" lon="-5.9868788626">
        <ele>424.56</ele>
        <time>2020-07-16T09:53:48Z</time>
      </trkpt>
      <trkpt lat="40.2023798414" lon="-5.9864961449">
        <ele>425.04</ele>
        <time>2020-07-16T09:53:59Z</time>
      </trkpt>
      <trkpt lat="40.2025267761" lon="-5.9862126689">
        <ele>426.00</ele>
        <time>2020-07-16T09:54:08Z</time>
      </trkpt>
      <trkpt lat="40.2026587911" lon="-5.9859072324">
        <ele>426.00</ele>
        <time>2020-07-16T09:54:17Z</time>
      </trkpt>
      <trkpt lat="40.2027745452" lon="-5.9856200684">
        <ele>426.96</ele>
        <time>2020-07-16T09:54:25Z</time>
      </trkpt>
      <trkpt lat="40.2029174566" lon="-5.9852642566">
        <ele>427.44</ele>
        <time>2020-07-16T09:54:35Z</time>
      </trkpt>
      <trkpt lat="40.2029267605" lon="-5.9852017276">
        <ele>427.92</ele>
        <time>2020-07-16T09:54:40Z</time>
      </trkpt>
      <trkpt lat="40.2029252518" lon="-5.9851984587">
        <ele>427.44</ele>
        <time>2020-07-16T09:54:50Z</time>
      </trkpt>
      <trkpt lat="40.2029207256" lon="-5.9851975366">
        <ele>426.96</ele>
        <time>2020-07-16T09:55:05Z</time>
      </trkpt>
      <trkpt lat="40.2029468771" lon="-5.9851780068">
        <ele>427.44</ele>
        <time>2020-07-16T09:55:13Z</time>
      </trkpt>
      <trkpt lat="40.2029526606" lon="-5.9851625003">
        <ele>427.44</ele>
        <time>2020-07-16T09:55:14Z</time>
      </trkpt>
      <trkpt lat="40.2029572707" lon="-5.9851435572">
        <ele>427.44</ele>
        <time>2020-07-16T09:55:15Z</time>
      </trkpt>
      <trkpt lat="40.2030296903" lon="-5.9849285614">
        <ele>427.92</ele>
        <time>2020-07-16T09:55:22Z</time>
      </trkpt>
      <trkpt lat="40.2032149304" lon="-5.9844932891">
        <ele>428.89</ele>
        <time>2020-07-16T09:55:33Z</time>
      </trkpt>
      <trkpt lat="40.2033435926" lon="-5.9841863438">
        <ele>429.37</ele>
        <time>2020-07-16T09:55:41Z</time>
      </trkpt>
      <trkpt lat="40.2033574227" lon="-5.9841497149">
        <ele>428.89</ele>
        <time>2020-07-16T09:55:45Z</time>
      </trkpt>
      <trkpt lat="40.2033642121" lon="-5.9841474518">
        <ele>429.85</ele>
        <time>2020-07-16T09:55:58Z</time>
      </trkpt>
      <trkpt lat="40.2033473644" lon="-5.9841541573">
        <ele>430.81</ele>
        <time>2020-07-16T09:56:08Z</time>
      </trkpt>
      <trkpt lat="40.2033451013" lon="-5.9841653053">
        <ele>430.81</ele>
        <time>2020-07-16T09:56:09Z</time>
      </trkpt>
      <trkpt lat="40.2033428382" lon="-5.9841857571">
        <ele>430.81</ele>
        <time>2020-07-16T09:56:10Z</time>
      </trkpt>
      <trkpt lat="40.2032743581" lon="-5.9843658842">
        <ele>429.37</ele>
        <time>2020-07-16T09:56:18Z</time>
      </trkpt>
      <trkpt lat="40.2032755315" lon="-5.9843494557">
        <ele>429.37</ele>
        <time>2020-07-16T09:56:23Z</time>
      </trkpt>
      <trkpt lat="40.2032861765" lon="-5.9843287524">
        <ele>428.89</ele>
        <time>2020-07-16T09:56:26Z</time>
      </trkpt>
      <trkpt lat="40.2032928821" lon="-5.9843078814">
        <ele>429.37</ele>
        <time>2020-07-16T09:56:27Z</time>
      </trkpt>
      <trkpt lat="40.2033822332" lon="-5.9840769600">
        <ele>429.37</ele>
        <time>2020-07-16T09:56:35Z</time>
      </trkpt>
      <trkpt lat="40.2035376336" lon="-5.9836827591">
        <ele>429.37</ele>
        <time>2020-07-16T09:56:44Z</time>
      </trkpt>
      <trkpt lat="40.2036051080" lon="-5.9835259337">
        <ele>429.37</ele>
        <time>2020-07-16T09:56:49Z</time>
      </trkpt>
      <trkpt lat="40.2035974804" lon="-5.9835234191">
        <ele>429.37</ele>
        <time>2020-07-16T09:56:50Z</time>
      </trkpt>
      <trkpt lat="40.2035839856" lon="-5.9835375845">
        <ele>429.85</ele>
        <time>2020-07-16T09:56:52Z</time>
      </trkpt>
      <trkpt lat="40.2035374660" lon="-5.9836904705">
        <ele>429.37</ele>
        <time>2020-07-16T09:56:58Z</time>
      </trkpt>
      <trkpt lat="40.2033958957" lon="-5.9840592742">
        <ele>428.40</ele>
        <time>2020-07-16T09:57:06Z</time>
      </trkpt>
      <trkpt lat="40.2033508848" lon="-5.9841666464">
        <ele>427.92</ele>
        <time>2020-07-16T09:57:11Z</time>
      </trkpt>
      <trkpt lat="40.2033367194" lon="-5.9841650538">
        <ele>428.89</ele>
        <time>2020-07-16T09:57:23Z</time>
      </trkpt>
      <trkpt lat="40.2033458557" lon="-5.9841452725">
        <ele>428.89</ele>
        <time>2020-07-16T09:57:29Z</time>
      </trkpt>
      <trkpt lat="40.2034124918" lon="-5.9839609545">
        <ele>428.89</ele>
        <time>2020-07-16T09:57:35Z</time>
      </trkpt>
      <trkpt lat="40.2035508770" lon="-5.9836140275">
        <ele>429.37</ele>
        <time>2020-07-16T09:57:44Z</time>
      </trkpt>
      <trkpt lat="40.2036703192" lon="-5.9833804239">
        <ele>428.89</ele>
        <time>2020-07-16T09:57:53Z</time>
      </trkpt>
      <trkpt lat="40.2036621049" lon="-5.9833764005">
        <ele>430.33</ele>
        <time>2020-07-16T09:58:06Z</time>
      </trkpt>
      <trkpt lat="40.2036585007" lon="-5.9833809268">
        <ele>429.85</ele>
        <time>2020-07-16T09:58:23Z</time>
      </trkpt>
      <trkpt lat="40.2036700677" lon="-5.9833799209">
        <ele>431.29</ele>
        <time>2020-07-16T09:58:43Z</time>
      </trkpt>
      <trkpt lat="40.2036707383" lon="-5.9833743051">
        <ele>432.25</ele>
        <time>2020-07-16T09:59:03Z</time>
      </trkpt>
      <trkpt lat="40.2036721632" lon="-5.9833719581">
        <ele>432.25</ele>
        <time>2020-07-16T09:59:13Z</time>
      </trkpt>
      <trkpt lat="40.2036748454" lon="-5.9833721258">
        <ele>432.73</ele>
        <time>2020-07-16T09:59:32Z</time>
      </trkpt>
      <trkpt lat="40.2036757674" lon="-5.9833711199">
        <ele>429.37</ele>
        <time>2020-07-16T09:59:48Z</time>
      </trkpt>
      <trkpt lat="40.2036969736" lon="-5.9833555296">
        <ele>429.37</ele>
        <time>2020-07-16T10:00:00Z</time>
      </trkpt>
      <trkpt lat="40.2037857380" lon="-5.9831769951">
        <ele>429.85</ele>
        <time>2020-07-16T10:00:07Z</time>
      </trkpt>
      <trkpt lat="40.2039271407" lon="-5.9829169046">
        <ele>430.81</ele>
        <time>2020-07-16T10:00:16Z</time>
      </trkpt>
      <trkpt lat="40.2041512728" lon="-5.9825843107">
        <ele>431.77</ele>
        <time>2020-07-16T10:00:27Z</time>
      </trkpt>
      <trkpt lat="40.2043570485" lon="-5.9823352005">
        <ele>432.25</ele>
        <time>2020-07-16T10:00:36Z</time>
      </trkpt>
      <trkpt lat="40.2046235930" lon="-5.9820674825">
        <ele>431.77</ele>
        <time>2020-07-16T10:00:46Z</time>
      </trkpt>
      <trkpt lat="40.2049915586" lon="-5.9817546699">
        <ele>432.73</ele>
        <time>2020-07-16T10:00:59Z</time>
      </trkpt>
      <trkpt lat="40.2053074725" lon="-5.9815461282">
        <ele>432.73</ele>
        <time>2020-07-16T10:01:09Z</time>
      </trkpt>
      <trkpt lat="40.2056123223" lon="-5.9813607205">
        <ele>434.17</ele>
        <time>2020-07-16T10:01:19Z</time>
      </trkpt>
      <trkpt lat="40.2059048507" lon="-5.9811779112">
        <ele>434.65</ele>
        <time>2020-07-16T10:01:29Z</time>
      </trkpt>
      <trkpt lat="40.2061687130" lon="-5.9810216725">
        <ele>435.13</ele>
        <time>2020-07-16T10:01:38Z</time>
      </trkpt>
      <trkpt lat="40.2064241935" lon="-5.9808759112">
        <ele>435.61</ele>
        <time>2020-07-16T10:01:48Z</time>
      </trkpt>
      <trkpt lat="40.2065810189" lon="-5.9807816986">
        <ele>436.10</ele>
        <time>2020-07-16T10:01:54Z</time>
      </trkpt>
      <trkpt lat="40.2070344798" lon="-5.9805097058">
        <ele>436.58</ele>
        <time>2020-07-16T10:02:09Z</time>
      </trkpt>
      <trkpt lat="40.2073575184" lon="-5.9803030081">
        <ele>437.06</ele>
        <time>2020-07-16T10:02:20Z</time>
      </trkpt>
      <trkpt lat="40.2076287568" lon="-5.9801186901">
        <ele>438.02</ele>
        <time>2020-07-16T10:02:30Z</time>
      </trkpt>
      <trkpt lat="40.2078863326" lon="-5.9799368866">
        <ele>438.50</ele>
        <time>2020-07-16T10:02:39Z</time>
      </trkpt>
      <trkpt lat="40.2081673779" lon="-5.9797150176">
        <ele>438.50</ele>
        <time>2020-07-16T10:02:49Z</time>
      </trkpt>
      <trkpt lat="40.2084609959" lon="-5.9794796538">
        <ele>438.50</ele>
        <time>2020-07-16T10:02:59Z</time>
      </trkpt>
      <trkpt lat="40.2087251097" lon="-5.9792402666">
        <ele>438.50</ele>
        <time>2020-07-16T10:03:08Z</time>
      </trkpt>
      <trkpt lat="40.2089551091" lon="-5.9790225886">
        <ele>438.02</ele>
        <time>2020-07-16T10:03:17Z</time>
      </trkpt>
      <trkpt lat="40.2091710269" lon="-5.9788102750">
        <ele>437.54</ele>
        <time>2020-07-16T10:03:25Z</time>
      </trkpt>
      <trkpt lat="40.2094617113" lon="-5.9785151482">
        <ele>438.02</ele>
        <time>2020-07-16T10:03:35Z</time>
      </trkpt>
      <trkpt lat="40.2097444329" lon="-5.9782176744">
        <ele>438.50</ele>
        <time>2020-07-16T10:03:46Z</time>
      </trkpt>
      <trkpt lat="40.2100202814" lon="-5.9779213741">
        <ele>438.98</ele>
        <time>2020-07-16T10:03:56Z</time>
      </trkpt>
      <trkpt lat="40.2102118079" lon="-5.9777064621">
        <ele>438.98</ele>
        <time>2020-07-16T10:04:03Z</time>
      </trkpt>
      <trkpt lat="40.2103796974" lon="-5.9775211383">
        <ele>438.98</ele>
        <time>2020-07-16T10:04:11Z</time>
      </trkpt>
      <trkpt lat="40.2105298173" lon="-5.9773760475">
        <ele>438.98</ele>
        <time>2020-07-16T10:04:20Z</time>
      </trkpt>
      <trkpt lat="40.2107219305" lon="-5.9771694336">
        <ele>439.46</ele>
        <time>2020-07-16T10:04:27Z</time>
      </trkpt>
      <trkpt lat="40.2109811828" lon="-5.9768914897">
        <ele>439.46</ele>
        <time>2020-07-16T10:04:36Z</time>
      </trkpt>
      <trkpt lat="40.2112312987" lon="-5.9766283818">
        <ele>438.98</ele>
        <time>2020-07-16T10:04:45Z</time>
      </trkpt>
      <trkpt lat="40.2116218116" lon="-5.9762267210">
        <ele>439.46</ele>
        <time>2020-07-16T10:04:59Z</time>
      </trkpt>
      <trkpt lat="40.2119417489" lon="-5.9758852422">
        <ele>439.46</ele>
        <time>2020-07-16T10:05:11Z</time>
      </trkpt>
      <trkpt lat="40.2121374663" lon="-5.9756746888">
        <ele>439.46</ele>
        <time>2020-07-16T10:05:19Z</time>
      </trkpt>
      <trkpt lat="40.2124304138" lon="-5.9753706772">
        <ele>439.46</ele>
        <time>2020-07-16T10:05:29Z</time>
      </trkpt>
      <trkpt lat="40.2127559669" lon="-5.9750254266">
        <ele>439.94</ele>
        <time>2020-07-16T10:05:40Z</time>
      </trkpt>
      <trkpt lat="40.2130613197" lon="-5.9746918269">
        <ele>439.94</ele>
        <time>2020-07-16T10:05:51Z</time>
      </trkpt>
      <trkpt lat="40.2131834440" lon="-5.9745744802">
        <ele>438.98</ele>
        <time>2020-07-16T10:05:58Z</time>
      </trkpt>
      <trkpt lat="40.2133411914" lon="-5.9744173195">
        <ele>439.46</ele>
        <time>2020-07-16T10:06:08Z</time>
      </trkpt>
      <trkpt lat="40.2134742960" lon="-5.9742670320">
        <ele>440.90</ele>
        <time>2020-07-16T10:06:18Z</time>
      </trkpt>
      <trkpt lat="40.2134763077" lon="-5.9742526989">
        <ele>441.86</ele>
        <time>2020-07-16T10:06:24Z</time>
      </trkpt>
      <trkpt lat="40.2134742122" lon="-5.9742545430">
        <ele>443.31</ele>
        <time>2020-07-16T10:06:37Z</time>
      </trkpt>
      <trkpt lat="40.2135343105" lon="-5.9741966240">
        <ele>443.31</ele>
        <time>2020-07-16T10:06:43Z</time>
      </trkpt>
      <trkpt lat="40.2136995178" lon="-5.9740193468">
        <ele>442.82</ele>
        <time>2020-07-16T10:06:50Z</time>
      </trkpt>
      <trkpt lat="40.2139585186" lon="-5.9737415705">
        <ele>444.27</ele>
        <time>2020-07-16T10:07:00Z</time>
      </trkpt>
      <trkpt lat="40.2142207883" lon="-5.9734716732">
        <ele>444.75</ele>
        <time>2020-07-16T10:07:10Z</time>
      </trkpt>
      <trkpt lat="40.2144738380" lon="-5.9731912147">
        <ele>445.71</ele>
        <time>2020-07-16T10:07:20Z</time>
      </trkpt>
      <trkpt lat="40.2146667056" lon="-5.9729808290">
        <ele>446.19</ele>
        <time>2020-07-16T10:07:28Z</time>
      </trkpt>
      <trkpt lat="40.2149459068" lon="-5.9726193175">
        <ele>447.63</ele>
        <time>2020-07-16T10:07:41Z</time>
      </trkpt>
      <trkpt lat="40.2151904907" lon="-5.9722723905">
        <ele>448.59</ele>
        <time>2020-07-16T10:07:52Z</time>
      </trkpt>
      <trkpt lat="40.2154412773" lon="-5.9718402196">
        <ele>449.07</ele>
        <time>2020-07-16T10:08:05Z</time>
      </trkpt>
      <trkpt lat="40.2155261859" lon="-5.9716692287">
        <ele>449.55</ele>
        <time>2020-07-16T10:08:12Z</time>
      </trkpt>
      <trkpt lat="40.2155343164" lon="-5.9716648702">
        <ele>450.03</ele>
        <time>2020-07-16T10:08:18Z</time>
      </trkpt>
      <trkpt lat="40.2155978512" lon="-5.9715543129">
        <ele>449.55</ele>
        <time>2020-07-16T10:08:29Z</time>
      </trkpt>
      <trkpt lat="40.2156486455" lon="-5.9714458510">
        <ele>450.03</ele>
        <time>2020-07-16T10:08:40Z</time>
      </trkpt>
      <trkpt lat="40.2156748809" lon="-5.9713777062">
        <ele>451.00</ele>
        <time>2020-07-16T10:08:50Z</time>
      </trkpt>
      <trkpt lat="40.2156767249" lon="-5.9713816456">
        <ele>451.00</ele>
        <time>2020-07-16T10:09:00Z</time>
      </trkpt>
      <trkpt lat="40.2156940755" lon="-5.9714213759">
        <ele>451.48</ele>
        <time>2020-07-16T10:09:07Z</time>
      </trkpt>
      <trkpt lat="40.2156709414" lon="-5.9714194480">
        <ele>451.96</ele>
        <time>2020-07-16T10:09:14Z</time>
      </trkpt>
      <trkpt lat="40.2156665828" lon="-5.9714002535">
        <ele>451.96</ele>
        <time>2020-07-16T10:09:21Z</time>
      </trkpt>
      <trkpt lat="40.2156849392" lon="-5.9713355452">
        <ele>452.44</ele>
        <time>2020-07-16T10:09:28Z</time>
      </trkpt>
      <trkpt lat="40.2157666627" lon="-5.9711707570">
        <ele>452.44</ele>
        <time>2020-07-16T10:09:35Z</time>
      </trkpt>
      <trkpt lat="40.2158951573" lon="-5.9708436113">
        <ele>452.92</ele>
        <time>2020-07-16T10:09:44Z</time>
      </trkpt>
      <trkpt lat="40.2160192095" lon="-5.9705035575">
        <ele>452.92</ele>
        <time>2020-07-16T10:09:53Z</time>
      </trkpt>
      <trkpt lat="40.2160322014" lon="-5.9704201575">
        <ele>453.40</ele>
        <time>2020-07-16T10:09:58Z</time>
      </trkpt>
      <trkpt lat="40.2160379849" lon="-5.9704420343">
        <ele>452.92</ele>
        <time>2020-07-16T10:10:07Z</time>
      </trkpt>
      <trkpt lat="40.2160452772" lon="-5.9704523440">
        <ele>454.36</ele>
        <time>2020-07-16T10:10:20Z</time>
      </trkpt>
      <trkpt lat="40.2160585206" lon="-5.9704273660">
        <ele>454.36</ele>
        <time>2020-07-16T10:10:35Z</time>
      </trkpt>
      <trkpt lat="40.2160547487" lon="-5.9704282880">
        <ele>453.40</ele>
        <time>2020-07-16T10:10:52Z</time>
      </trkpt>
      <trkpt lat="40.2160304412" lon="-5.9704354964">
        <ele>455.32</ele>
        <time>2020-07-16T10:11:09Z</time>
      </trkpt>
      <trkpt lat="40.2160259150" lon="-5.9704281203">
        <ele>454.84</ele>
        <time>2020-07-16T10:11:23Z</time>
      </trkpt>
      <trkpt lat="40.2160710096" lon="-5.9704386815">
        <ele>454.36</ele>
        <time>2020-07-16T10:11:49Z</time>
      </trkpt>
      <trkpt lat="40.2160616219" lon="-5.9704740532">
        <ele>452.92</ele>
        <time>2020-07-16T10:12:15Z</time>
      </trkpt>
      <trkpt lat="40.2160725184" lon="-5.9704630729">
        <ele>454.36</ele>
        <time>2020-07-16T10:12:38Z</time>
      </trkpt>
      <trkpt lat="40.2160660643" lon="-5.9704530984">
        <ele>451.96</ele>
        <time>2020-07-16T10:13:07Z</time>
      </trkpt>
      <trkpt lat="40.2160462830" lon="-5.9704629052">
        <ele>453.40</ele>
        <time>2020-07-16T10:13:35Z</time>
      </trkpt>
      <trkpt lat="40.2160403319" lon="-5.9704483207">
        <ele>455.80</ele>
        <time>2020-07-16T10:13:55Z</time>
      </trkpt>
      <trkpt lat="40.2160467021" lon="-5.9704425372">
        <ele>458.21</ele>
        <time>2020-07-16T10:14:25Z</time>
      </trkpt>
      <trkpt lat="40.2160547487" lon="-5.9704384301">
        <ele>457.24</ele>
        <time>2020-07-16T10:14:56Z</time>
      </trkpt>
      <trkpt lat="40.2160523180" lon="-5.9704438783">
        <ele>456.76</ele>
        <time>2020-07-16T10:15:20Z</time>
      </trkpt>
      <trkpt lat="40.2160682436" lon="-5.9704393521">
        <ele>457.24</ele>
        <time>2020-07-16T10:15:48Z</time>
      </trkpt>
      <trkpt lat="40.2160394937" lon="-5.9704424534">
        <ele>459.65</ele>
        <time>2020-07-16T10:16:16Z</time>
      </trkpt>
      <trkpt lat="40.2160358895" lon="-5.9704408608">
        <ele>456.76</ele>
        <time>2020-07-16T10:16:36Z</time>
      </trkpt>
      <trkpt lat="40.2160523180" lon="-5.9704353288">
        <ele>457.24</ele>
        <time>2020-07-16T10:16:57Z</time>
      </trkpt>
      <trkpt lat="40.2160286810" lon="-5.9704538528">
        <ele>458.69</ele>
        <time>2020-07-16T10:17:23Z</time>
      </trkpt>
      <trkpt lat="40.2160196286" lon="-5.9704220016">
        <ele>459.17</ele>
        <time>2020-07-16T10:17:53Z</time>
      </trkpt>
      <trkpt lat="40.2160525694" lon="-5.9704271983">
        <ele>458.21</ele>
        <time>2020-07-16T10:18:12Z</time>
      </trkpt>
      <trkpt lat="40.2160515636" lon="-5.9704631567">
        <ele>453.88</ele>
        <time>2020-07-16T10:18:38Z</time>
      </trkpt>
      <trkpt lat="40.2160460316" lon="-5.9704370052">
        <ele>455.80</ele>
        <time>2020-07-16T10:19:02Z</time>
      </trkpt>
      <trkpt lat="40.2160411701" lon="-5.9704390168">
        <ele>455.80</ele>
        <time>2020-07-16T10:19:19Z</time>
      </trkpt>
      <trkpt lat="40.2160358056" lon="-5.9704428725">
        <ele>455.32</ele>
        <time>2020-07-16T10:19:41Z</time>
      </trkpt>
      <trkpt lat="40.2160395775" lon="-5.9704111051">
        <ele>453.88</ele>
        <time>2020-07-16T10:20:07Z</time>
      </trkpt>
      <trkpt lat="40.2160358056" lon="-5.9704219177">
        <ele>454.36</ele>
        <time>2020-07-16T10:20:27Z</time>
      </trkpt>
      <trkpt lat="40.2160587721" lon="-5.9704458900">
        <ele>454.84</ele>
        <time>2020-07-16T10:20:44Z</time>
      </trkpt>
      <trkpt lat="40.2160570119" lon="-5.9704572055">
        <ele>457.24</ele>
        <time>2020-07-16T10:21:14Z</time>
      </trkpt>
      <trkpt lat="40.2160590235" lon="-5.9704545233">
        <ele>457.24</ele>
        <time>2020-07-16T10:21:36Z</time>
      </trkpt>
      <trkpt lat="40.2160757035" lon="-5.9704556130">
        <ele>456.28</ele>
        <time>2020-07-16T10:21:53Z</time>
      </trkpt>
      <trkpt lat="40.2160508092" lon="-5.9704460576">
        <ele>456.28</ele>
        <time>2020-07-16T10:22:06Z</time>
      </trkpt>
      <trkpt lat="40.2160386555" lon="-5.9704644140">
        <ele>458.21</ele>
        <time>2020-07-16T10:22:25Z</time>
      </trkpt>
      <trkpt lat="40.2160580177" lon="-5.9704666771">
        <ele>456.76</ele>
        <time>2020-07-16T10:22:43Z</time>
      </trkpt>
      <trkpt lat="40.2160490490" lon="-5.9704268631">
        <ele>456.76</ele>
        <time>2020-07-16T10:23:01Z</time>
      </trkpt>
      <trkpt lat="40.2160328720" lon="-5.9704391006">
        <ele>457.24</ele>
        <time>2020-07-16T10:23:18Z</time>
      </trkpt>
      <trkpt lat="40.2160402481" lon="-5.9704353288">
        <ele>455.80</ele>
        <time>2020-07-16T10:23:30Z</time>
      </trkpt>
      <trkpt lat="40.2160718478" lon="-5.9703174792">
        <ele>456.28</ele>
        <time>2020-07-16T10:23:37Z</time>
      </trkpt>
      <trkpt lat="40.2161726821" lon="-5.9699568897">
        <ele>456.76</ele>
        <time>2020-07-16T10:23:48Z</time>
      </trkpt>
      <trkpt lat="40.2162769530" lon="-5.9695479367">
        <ele>457.24</ele>
        <time>2020-07-16T10:23:59Z</time>
      </trkpt>
      <trkpt lat="40.2163719200" lon="-5.9691434260">
        <ele>457.72</ele>
        <time>2020-07-16T10:24:10Z</time>
      </trkpt>
      <trkpt lat="40.2164786216" lon="-5.9686825052">
        <ele>459.17</ele>
        <time>2020-07-16T10:24:23Z</time>
      </trkpt>
      <trkpt lat="40.2165838145" lon="-5.9682888910">
        <ele>459.17</ele>
        <time>2020-07-16T10:24:34Z</time>
      </trkpt>
      <trkpt lat="40.2166950423" lon="-5.9678868111">
        <ele>458.69</ele>
        <time>2020-07-16T10:24:45Z</time>
      </trkpt>
      <trkpt lat="40.2168193460" lon="-5.9675372019">
        <ele>458.69</ele>
        <time>2020-07-16T10:24:55Z</time>
      </trkpt>
      <trkpt lat="40.2169760037" lon="-5.9671756905">
        <ele>459.65</ele>
        <time>2020-07-16T10:25:05Z</time>
      </trkpt>
      <trkpt lat="40.2171306498" lon="-5.9668423422">
        <ele>460.61</ele>
        <time>2020-07-16T10:25:15Z</time>
      </trkpt>
      <trkpt lat="40.2173174825" lon="-5.9664960857">
        <ele>460.13</ele>
        <time>2020-07-16T10:25:26Z</time>
      </trkpt>
      <trkpt lat="40.2174878865" lon="-5.9662253503">
        <ele>459.65</ele>
        <time>2020-07-16T10:25:35Z</time>
      </trkpt>
      <trkpt lat="40.2176840231" lon="-5.9659398627">
        <ele>461.09</ele>
        <time>2020-07-16T10:25:45Z</time>
      </trkpt>
      <trkpt lat="40.2179044671" lon="-5.9656568896">
        <ele>462.05</ele>
        <time>2020-07-16T10:25:56Z</time>
      </trkpt>
      <trkpt lat="40.2181310300" lon="-5.9654016607">
        <ele>463.01</ele>
        <time>2020-07-16T10:26:06Z</time>
      </trkpt>
      <trkpt lat="40.2183396555" lon="-5.9651915263">
        <ele>463.97</ele>
        <time>2020-07-16T10:26:15Z</time>
      </trkpt>
      <trkpt lat="40.2185787074" lon="-5.9649653826">
        <ele>464.93</ele>
        <time>2020-07-16T10:26:25Z</time>
      </trkpt>
      <trkpt lat="40.2187959664" lon="-5.9647679050">
        <ele>465.42</ele>
        <time>2020-07-16T10:26:34Z</time>
      </trkpt>
      <trkpt lat="40.2190201823" lon="-5.9645709302">
        <ele>465.90</ele>
        <time>2020-07-16T10:26:43Z</time>
      </trkpt>
      <trkpt lat="40.2191903349" lon="-5.9644250013">
        <ele>465.42</ele>
        <time>2020-07-16T10:26:50Z</time>
      </trkpt>
      <trkpt lat="40.2194867190" lon="-5.9641609713">
        <ele>466.86</ele>
        <time>2020-07-16T10:27:02Z</time>
      </trkpt>
      <trkpt lat="40.2197018825" lon="-5.9639728814">
        <ele>466.86</ele>
        <time>2020-07-16T10:27:11Z</time>
      </trkpt>
      <trkpt lat="40.2199112624" lon="-5.9637902398">
        <ele>467.82</ele>
        <time>2020-07-16T10:27:20Z</time>
      </trkpt>
      <trkpt lat="40.2201274317" lon="-5.9636034910">
        <ele>468.78</ele>
        <time>2020-07-16T10:27:29Z</time>
      </trkpt>
      <trkpt lat="40.2204117458" lon="-5.9633856453">
        <ele>470.22</ele>
        <time>2020-07-16T10:27:40Z</time>
      </trkpt>
      <trkpt lat="40.2207201999" lon="-5.9631857369">
        <ele>471.18</ele>
        <time>2020-07-16T10:27:52Z</time>
      </trkpt>
      <trkpt lat="40.2210089564" lon="-5.9630299173">
        <ele>471.66</ele>
        <time>2020-07-16T10:28:03Z</time>
      </trkpt>
      <trkpt lat="40.2213054243" lon="-5.9628986567">
        <ele>471.66</ele>
        <time>2020-07-16T10:28:14Z</time>
      </trkpt>
      <trkpt lat="40.2215733938" lon="-5.9628037736">
        <ele>471.66</ele>
        <time>2020-07-16T10:28:24Z</time>
      </trkpt>
      <trkpt lat="40.2218308859" lon="-5.9627434239">
        <ele>472.14</ele>
        <time>2020-07-16T10:28:33Z</time>
      </trkpt>
      <trkpt lat="40.2221089974" lon="-5.9626953956">
        <ele>472.63</ele>
        <time>2020-07-16T10:28:43Z</time>
      </trkpt>
      <trkpt lat="40.2223935630" lon="-5.9626677353">
        <ele>474.55</ele>
        <time>2020-07-16T10:28:53Z</time>
      </trkpt>
      <trkpt lat="40.2227237262" lon="-5.9626371413">
        <ele>475.03</ele>
        <time>2020-07-16T10:29:04Z</time>
      </trkpt>
      <trkpt lat="40.2230140753" lon="-5.9626072180">
        <ele>475.99</ele>
        <time>2020-07-16T10:29:14Z</time>
      </trkpt>
      <trkpt lat="40.2233374491" lon="-5.9625725169">
        <ele>476.95</ele>
        <time>2020-07-16T10:29:25Z</time>
      </trkpt>
      <trkpt lat="40.2236783411" lon="-5.9625081439">
        <ele>477.43</ele>
        <time>2020-07-16T10:29:37Z</time>
      </trkpt>
      <trkpt lat="40.2239115257" lon="-5.9624513984">
        <ele>477.43</ele>
        <time>2020-07-16T10:29:45Z</time>
      </trkpt>
      <trkpt lat="40.2241668385" lon="-5.9623502288">
        <ele>477.91</ele>
        <time>2020-07-16T10:29:54Z</time>
      </trkpt>
      <trkpt lat="40.2245112509" lon="-5.9621968400">
        <ele>478.87</ele>
        <time>2020-07-16T10:30:06Z</time>
      </trkpt>
      <trkpt lat="40.2248151787" lon="-5.9620271064">
        <ele>479.84</ele>
        <time>2020-07-16T10:30:17Z</time>
      </trkpt>
      <trkpt lat="40.2251494490" lon="-5.9618209116">
        <ele>480.32</ele>
        <time>2020-07-16T10:30:29Z</time>
      </trkpt>
      <trkpt lat="40.2254019957" lon="-5.9616660979">
        <ele>481.28</ele>
        <time>2020-07-16T10:30:38Z</time>
      </trkpt>
      <trkpt lat="40.2255854756" lon="-5.9615539480">
        <ele>481.76</ele>
        <time>2020-07-16T10:30:46Z</time>
      </trkpt>
      <trkpt lat="40.2257826179" lon="-5.9614368528">
        <ele>482.24</ele>
        <time>2020-07-16T10:30:53Z</time>
      </trkpt>
      <trkpt lat="40.2261162177" lon="-5.9612344299">
        <ele>482.72</ele>
        <time>2020-07-16T10:31:04Z</time>
      </trkpt>
      <trkpt lat="40.2264405973" lon="-5.9610312525">
        <ele>483.20</ele>
        <time>2020-07-16T10:31:15Z</time>
      </trkpt>
      <trkpt lat="40.2267555892" lon="-5.9608543105">
        <ele>484.64</ele>
        <time>2020-07-16T10:31:26Z</time>
      </trkpt>
      <trkpt lat="40.2269901149" lon="-5.9607496206">
        <ele>485.60</ele>
        <time>2020-07-16T10:31:34Z</time>
      </trkpt>
      <trkpt lat="40.2273178473" lon="-5.9606343694">
        <ele>485.60</ele>
        <time>2020-07-16T10:31:45Z</time>
      </trkpt>
      <trkpt lat="40.2276175003" lon="-5.9605641291">
        <ele>485.60</ele>
        <time>2020-07-16T10:31:55Z</time>
      </trkpt>
      <trkpt lat="40.2279146388" lon="-5.9605168551">
        <ele>487.05</ele>
        <time>2020-07-16T10:32:06Z</time>
      </trkpt>
      <trkpt lat="40.2280438878" lon="-5.9605020192">
        <ele>486.56</ele>
        <time>2020-07-16T10:32:13Z</time>
      </trkpt>
      <trkpt lat="40.2281282097" lon="-5.9605104011">
        <ele>486.08</ele>
        <time>2020-07-16T10:32:18Z</time>
      </trkpt>
      <trkpt lat="40.2283939999" lon="-5.9604903683">
        <ele>485.60</ele>
        <time>2020-07-16T10:32:27Z</time>
      </trkpt>
      <trkpt lat="40.2287275996" lon="-5.9604730178">
        <ele>488.01</ele>
        <time>2020-07-16T10:32:38Z</time>
      </trkpt>
      <trkpt lat="40.2291040309" lon="-5.9604446031">
        <ele>488.01</ele>
        <time>2020-07-16T10:32:49Z</time>
      </trkpt>
      <trkpt lat="40.2293332759" lon="-5.9604275879">
        <ele>488.01</ele>
        <time>2020-07-16T10:32:57Z</time>
      </trkpt>
      <trkpt lat="40.2295056917" lon="-5.9604162723">
        <ele>488.49</ele>
        <time>2020-07-16T10:33:05Z</time>
      </trkpt>
      <trkpt lat="40.2298052609" lon="-5.9604078904">
        <ele>488.97</ele>
        <time>2020-07-16T10:33:13Z</time>
      </trkpt>
      <trkpt lat="40.2300818637" lon="-5.9603794757">
        <ele>488.01</ele>
        <time>2020-07-16T10:33:21Z</time>
      </trkpt>
      <trkpt lat="40.2302789222" lon="-5.9603411704">
        <ele>486.56</ele>
        <time>2020-07-16T10:33:29Z</time>
      </trkpt>
      <trkpt lat="40.2305789944" lon="-5.9602915496">
        <ele>487.53</ele>
        <time>2020-07-16T10:33:37Z</time>
      </trkpt>
      <trkpt lat="40.2308192197" lon="-5.9602270927">
        <ele>489.93</ele>
        <time>2020-07-16T10:33:44Z</time>
      </trkpt>
      <trkpt lat="40.2310593612" lon="-5.9601213131">
        <ele>491.85</ele>
        <time>2020-07-16T10:33:51Z</time>
      </trkpt>
      <trkpt lat="40.2313851658" lon="-5.9599733725">
        <ele>493.29</ele>
        <time>2020-07-16T10:34:01Z</time>
      </trkpt>
      <trkpt lat="40.2316535544" lon="-5.9598065726">
        <ele>493.77</ele>
        <time>2020-07-16T10:34:10Z</time>
      </trkpt>
      <trkpt lat="40.2320107911" lon="-5.9595557861">
        <ele>494.26</ele>
        <time>2020-07-16T10:34:23Z</time>
      </trkpt>
      <trkpt lat="40.2322022337" lon="-5.9594029002">
        <ele>494.74</ele>
        <time>2020-07-16T10:34:31Z</time>
      </trkpt>
      <trkpt lat="40.2324709576" lon="-5.9591354337">
        <ele>494.26</ele>
        <time>2020-07-16T10:34:42Z</time>
      </trkpt>
      <trkpt lat="40.2327250969" lon="-5.9588564839">
        <ele>494.26</ele>
        <time>2020-07-16T10:34:53Z</time>
      </trkpt>
      <trkpt lat="40.2328607161" lon="-5.9586896840">
        <ele>494.74</ele>
        <time>2020-07-16T10:35:00Z</time>
      </trkpt>
      <trkpt lat="40.2330320422" lon="-5.9584705811">
        <ele>495.22</ele>
        <time>2020-07-16T10:35:08Z</time>
      </trkpt>
      <trkpt lat="40.2332312800" lon="-5.9582104068">
        <ele>495.22</ele>
        <time>2020-07-16T10:35:18Z</time>
      </trkpt>
      <trkpt lat="40.2334181126" lon="-5.9579756297">
        <ele>495.70</ele>
        <time>2020-07-16T10:35:27Z</time>
      </trkpt>
      <trkpt lat="40.2336488664" lon="-5.9576730430">
        <ele>496.66</ele>
        <time>2020-07-16T10:35:38Z</time>
      </trkpt>
      <trkpt lat="40.2339004073" lon="-5.9573491663">
        <ele>497.62</ele>
        <time>2020-07-16T10:35:50Z</time>
      </trkpt>
      <trkpt lat="40.2341614198" lon="-5.9570175782">
        <ele>498.58</ele>
        <time>2020-07-16T10:36:02Z</time>
      </trkpt>
      <trkpt lat="40.2344040759" lon="-5.9567045979">
        <ele>499.06</ele>
        <time>2020-07-16T10:36:14Z</time>
      </trkpt>
      <trkpt lat="40.2346233465" lon="-5.9564222116">
        <ele>499.54</ele>
        <time>2020-07-16T10:36:25Z</time>
      </trkpt>
      <trkpt lat="40.2347436268" lon="-5.9562651347">
        <ele>500.02</ele>
        <time>2020-07-16T10:36:31Z</time>
      </trkpt>
      <trkpt lat="40.2349231672" lon="-5.9560237359">
        <ele>500.50</ele>
        <time>2020-07-16T10:36:40Z</time>
      </trkpt>
      <trkpt lat="40.2351372410" lon="-5.9557467978">
        <ele>500.98</ele>
        <time>2020-07-16T10:36:51Z</time>
      </trkpt>
      <trkpt lat="40.2354189567" lon="-5.9553860407">
        <ele>501.95</ele>
        <time>2020-07-16T10:37:05Z</time>
      </trkpt>
      <trkpt lat="40.2357016783" lon="-5.9550236072">
        <ele>502.43</ele>
        <time>2020-07-16T10:37:19Z</time>
      </trkpt>
      <trkpt lat="40.2358362079" lon="-5.9548476711">
        <ele>502.43</ele>
        <time>2020-07-16T10:37:27Z</time>
      </trkpt>
      <trkpt lat="40.2358765248" lon="-5.9548015706">
        <ele>502.91</ele>
        <time>2020-07-16T10:37:33Z</time>
      </trkpt>
      <trkpt lat="40.2358635329" lon="-5.9548037499">
        <ele>503.87</ele>
        <time>2020-07-16T10:37:46Z</time>
      </trkpt>
      <trkpt lat="40.2358671371" lon="-5.9547973797">
        <ele>503.39</ele>
        <time>2020-07-16T10:38:01Z</time>
      </trkpt>
      <trkpt lat="40.2358660474" lon="-5.9548080247">
        <ele>503.39</ele>
        <time>2020-07-16T10:38:11Z</time>
      </trkpt>
      <trkpt lat="40.2358699031" lon="-5.9548100363">
        <ele>505.31</ele>
        <time>2020-07-16T10:38:24Z</time>
      </trkpt>
      <trkpt lat="40.2358756866" lon="-5.9548135567">
        <ele>506.27</ele>
        <time>2020-07-16T10:38:41Z</time>
      </trkpt>
      <trkpt lat="40.2358788718" lon="-5.9548206814">
        <ele>506.75</ele>
        <time>2020-07-16T10:38:57Z</time>
      </trkpt>
      <trkpt lat="40.2358808834" lon="-5.9548112098">
        <ele>506.27</ele>
        <time>2020-07-16T10:39:08Z</time>
      </trkpt>
      <trkpt lat="40.2358807996" lon="-5.9548031632">
        <ele>505.31</ele>
        <time>2020-07-16T10:39:28Z</time>
      </trkpt>
      <trkpt lat="40.2358692326" lon="-5.9548028279">
        <ele>506.27</ele>
        <time>2020-07-16T10:39:43Z</time>
      </trkpt>
      <trkpt lat="40.2358791232" lon="-5.9548009839">
        <ele>507.71</ele>
        <time>2020-07-16T10:39:58Z</time>
      </trkpt>
      <trkpt lat="40.2359019220" lon="-5.9547738265">
        <ele>507.23</ele>
        <time>2020-07-16T10:40:10Z</time>
      </trkpt>
      <trkpt lat="40.2360209450" lon="-5.9546132293">
        <ele>507.71</ele>
        <time>2020-07-16T10:40:17Z</time>
      </trkpt>
      <trkpt lat="40.2362662833" lon="-5.9542939626">
        <ele>507.23</ele>
        <time>2020-07-16T10:40:28Z</time>
      </trkpt>
      <trkpt lat="40.2364943549" lon="-5.9540038649">
        <ele>506.75</ele>
        <time>2020-07-16T10:40:39Z</time>
      </trkpt>
      <trkpt lat="40.2366505936" lon="-5.9538089018">
        <ele>506.27</ele>
        <time>2020-07-16T10:40:47Z</time>
      </trkpt>
      <trkpt lat="40.2367359214" lon="-5.9537016973">
        <ele>506.27</ele>
        <time>2020-07-16T10:40:53Z</time>
      </trkpt>
      <trkpt lat="40.2368447185" lon="-5.9535715263">
        <ele>506.75</ele>
        <time>2020-07-16T10:40:59Z</time>
      </trkpt>
      <trkpt lat="40.2370814234" lon="-5.9532675985">
        <ele>507.71</ele>
        <time>2020-07-16T10:41:11Z</time>
      </trkpt>
      <trkpt lat="40.2372599579" lon="-5.9530311450">
        <ele>508.19</ele>
        <time>2020-07-16T10:41:20Z</time>
      </trkpt>
      <trkpt lat="40.2373857703" lon="-5.9528589807">
        <ele>509.64</ele>
        <time>2020-07-16T10:41:27Z</time>
      </trkpt>
      <trkpt lat="40.2375943959" lon="-5.9525879100">
        <ele>511.56</ele>
        <time>2020-07-16T10:41:38Z</time>
      </trkpt>
      <trkpt lat="40.2376978286" lon="-5.9524567332">
        <ele>512.04</ele>
        <time>2020-07-16T10:41:45Z</time>
      </trkpt>
      <trkpt lat="40.2378342021" lon="-5.9522926994">
        <ele>513.00</ele>
        <time>2020-07-16T10:41:54Z</time>
      </trkpt>
      <trkpt lat="40.2379823104" lon="-5.9521026816">
        <ele>513.00</ele>
        <time>2020-07-16T10:42:04Z</time>
      </trkpt>
      <trkpt lat="40.2380930353" lon="-5.9519475326">
        <ele>513.00</ele>
        <time>2020-07-16T10:42:11Z</time>
      </trkpt>
      <trkpt lat="40.2382452507" lon="-5.9517556708">
        <ele>513.00</ele>
        <time>2020-07-16T10:42:20Z</time>
      </trkpt>
      <trkpt lat="40.2383434027" lon="-5.9516163636">
        <ele>512.52</ele>
        <time>2020-07-16T10:42:28Z</time>
      </trkpt>
      <trkpt lat="40.2383455820" lon="-5.9516156930">
        <ele>511.08</ele>
        <time>2020-07-16T10:42:38Z</time>
      </trkpt>
      <trkpt lat="40.2383729070" lon="-5.9515871946">
        <ele>510.12</ele>
        <time>2020-07-16T10:42:51Z</time>
      </trkpt>
      <trkpt lat="40.2385089453" lon="-5.9514176287">
        <ele>510.60</ele>
        <time>2020-07-16T10:42:58Z</time>
      </trkpt>
      <trkpt lat="40.2387184091" lon="-5.9511384275">
        <ele>511.56</ele>
        <time>2020-07-16T10:43:08Z</time>
      </trkpt>
      <trkpt lat="40.2389439661" lon="-5.9508580528">
        <ele>512.04</ele>
        <time>2020-07-16T10:43:19Z</time>
      </trkpt>
      <trkpt lat="40.2392075770" lon="-5.9505683742">
        <ele>513.00</ele>
        <time>2020-07-16T10:43:31Z</time>
      </trkpt>
      <trkpt lat="40.2393896319" lon="-5.9503898397">
        <ele>513.48</ele>
        <time>2020-07-16T10:43:39Z</time>
      </trkpt>
      <trkpt lat="40.2396638878" lon="-5.9501661267">
        <ele>514.44</ele>
        <time>2020-07-16T10:43:50Z</time>
      </trkpt>
      <trkpt lat="40.2398976590" lon="-5.9499817248">
        <ele>514.92</ele>
        <time>2020-07-16T10:43:59Z</time>
      </trkpt>
      <trkpt lat="40.2402434126" lon="-5.9497234784">
        <ele>515.88</ele>
        <time>2020-07-16T10:44:12Z</time>
      </trkpt>
      <trkpt lat="40.2404863201" lon="-5.9495449439">
        <ele>516.85</ele>
        <time>2020-07-16T10:44:21Z</time>
      </trkpt>
      <trkpt lat="40.2407444827" lon="-5.9493595362">
        <ele>516.85</ele>
        <time>2020-07-16T10:44:31Z</time>
      </trkpt>
      <trkpt lat="40.2409973647" lon="-5.9491801634">
        <ele>518.77</ele>
        <time>2020-07-16T10:44:41Z</time>
      </trkpt>
      <trkpt lat="40.2413783222" lon="-5.9488954302">
        <ele>520.21</ele>
        <time>2020-07-16T10:44:55Z</time>
      </trkpt>
      <trkpt lat="40.2416872792" lon="-5.9486731421">
        <ele>521.17</ele>
        <time>2020-07-16T10:45:06Z</time>
      </trkpt>
      <trkpt lat="40.2419401612" lon="-5.9484818671">
        <ele>522.13</ele>
        <time>2020-07-16T10:45:15Z</time>
      </trkpt>
      <trkpt lat="40.2422226314" lon="-5.9482785221">
        <ele>523.09</ele>
        <time>2020-07-16T10:45:25Z</time>
      </trkpt>
      <trkpt lat="40.2423973940" lon="-5.9481547214">
        <ele>524.06</ele>
        <time>2020-07-16T10:45:33Z</time>
      </trkpt>
      <trkpt lat="40.2425693907" lon="-5.9480253886">
        <ele>525.02</ele>
        <time>2020-07-16T10:45:41Z</time>
      </trkpt>
      <trkpt lat="40.2427610848" lon="-5.9478661325">
        <ele>525.50</ele>
        <time>2020-07-16T10:45:49Z</time>
      </trkpt>
      <trkpt lat="40.2430306468" lon="-5.9476205427">
        <ele>525.98</ele>
        <time>2020-07-16T10:46:00Z</time>
      </trkpt>
      <trkpt lat="40.2433087584" lon="-5.9473359771">
        <ele>526.46</ele>
        <time>2020-07-16T10:46:11Z</time>
      </trkpt>
      <trkpt lat="40.2435571980" lon="-5.9470579494">
        <ele>525.98</ele>
        <time>2020-07-16T10:46:21Z</time>
      </trkpt>
      <trkpt lat="40.2438298613" lon="-5.9467220027">
        <ele>526.94</ele>
        <time>2020-07-16T10:46:32Z</time>
      </trkpt>
      <trkpt lat="40.2439886983" lon="-5.9465060849">
        <ele>527.42</ele>
        <time>2020-07-16T10:46:40Z</time>
      </trkpt>
      <trkpt lat="40.2440322004" lon="-5.9464463219">
        <ele>527.90</ele>
        <time>2020-07-16T10:46:46Z</time>
      </trkpt>
      <trkpt lat="40.2440194599" lon="-5.9464507643">
        <ele>526.94</ele>
        <time>2020-07-16T10:47:02Z</time>
      </trkpt>
      <trkpt lat="40.2440869343" lon="-5.9463450685">
        <ele>527.42</ele>
        <time>2020-07-16T10:47:08Z</time>
      </trkpt>
      <trkpt lat="40.2442744374" lon="-5.9460824635">
        <ele>528.86</ele>
        <time>2020-07-16T10:47:19Z</time>
      </trkpt>
      <trkpt lat="40.2444718312" lon="-5.9457666334">
        <ele>529.82</ele>
        <time>2020-07-16T10:47:31Z</time>
      </trkpt>
      <trkpt lat="40.2445933688" lon="-5.9455513023">
        <ele>529.82</ele>
        <time>2020-07-16T10:47:40Z</time>
      </trkpt>
      <trkpt lat="40.2447444107" lon="-5.9452799801">
        <ele>530.30</ele>
        <time>2020-07-16T10:47:50Z</time>
      </trkpt>
      <trkpt lat="40.2448470052" lon="-5.9450706840">
        <ele>530.30</ele>
        <time>2020-07-16T10:47:57Z</time>
      </trkpt>
      <trkpt lat="40.2449521981" lon="-5.9448279440">
        <ele>530.30</ele>
        <time>2020-07-16T10:48:06Z</time>
      </trkpt>
      <trkpt lat="40.2449749969" lon="-5.9447960928">
        <ele>530.79</ele>
        <time>2020-07-16T10:48:13Z</time>
      </trkpt>
      <trkpt lat="40.2449742425" lon="-5.9447892196">
        <ele>530.79</ele>
        <time>2020-07-16T10:48:26Z</time>
      </trkpt>
      <trkpt lat="40.2449768409" lon="-5.9447846934">
        <ele>530.79</ele>
        <time>2020-07-16T10:48:36Z</time>
      </trkpt>
      <trkpt lat="40.2449763380" lon="-5.9447804186">
        <ele>531.27</ele>
        <time>2020-07-16T10:48:52Z</time>
      </trkpt>
      <trkpt lat="40.2449917607" lon="-5.9447558597">
        <ele>531.27</ele>
        <time>2020-07-16T10:49:02Z</time>
      </trkpt>
      <trkpt lat="40.2450622525" lon="-5.9445895627">
        <ele>531.27</ele>
        <time>2020-07-16T10:49:08Z</time>
      </trkpt>
      <trkpt lat="40.2451943513" lon="-5.9442475811">
        <ele>531.75</ele>
        <time>2020-07-16T10:49:19Z</time>
      </trkpt>
      <trkpt lat="40.2452876419" lon="-5.9439788572">
        <ele>532.23</ele>
        <time>2020-07-16T10:49:27Z</time>
      </trkpt>
      <trkpt lat="40.2454283740" lon="-5.9435588401">
        <ele>532.71</ele>
        <time>2020-07-16T10:49:39Z</time>
      </trkpt>
      <trkpt lat="40.2455364168" lon="-5.9431954008">
        <ele>533.19</ele>
        <time>2020-07-16T10:49:49Z</time>
      </trkpt>
      <trkpt lat="40.2456162125" lon="-5.9429108351">
        <ele>533.19</ele>
        <time>2020-07-16T10:49:57Z</time>
      </trkpt>
      <trkpt lat="40.2457234170" lon="-5.9425516706">
        <ele>535.11</ele>
        <time>2020-07-16T10:50:07Z</time>
      </trkpt>
      <trkpt lat="40.2458379976" lon="-5.9421510994">
        <ele>535.59</ele>
        <time>2020-07-16T10:50:18Z</time>
      </trkpt>
      <trkpt lat="40.2459714375" lon="-5.9417088702">
        <ele>536.55</ele>
        <time>2020-07-16T10:50:30Z</time>
      </trkpt>
      <trkpt lat="40.2460754570" lon="-5.9413475264">
        <ele>537.03</ele>
        <time>2020-07-16T10:50:40Z</time>
      </trkpt>
      <trkpt lat="40.2462213021" lon="-5.9408459533">
        <ele>537.99</ele>
        <time>2020-07-16T10:50:54Z</time>
      </trkpt>
      <trkpt lat="40.2462937217" lon="-5.9406090807">
        <ele>537.51</ele>
        <time>2020-07-16T10:51:01Z</time>
      </trkpt>
      <trkpt lat="40.2464352921" lon="-5.9402093478">
        <ele>538.48</ele>
        <time>2020-07-16T10:51:12Z</time>
      </trkpt>
      <trkpt lat="40.2465959731" lon="-5.9398278035">
        <ele>539.44</ele>
        <time>2020-07-16T10:51:23Z</time>
      </trkpt>
      <trkpt lat="40.2468000725" lon="-5.9394228738">
        <ele>539.92</ele>
        <time>2020-07-16T10:51:35Z</time>
      </trkpt>
      <trkpt lat="40.2469636872" lon="-5.9391450137">
        <ele>540.88</ele>
        <time>2020-07-16T10:51:44Z</time>
      </trkpt>
      <trkpt lat="40.2472044155" lon="-5.9387973323">
        <ele>541.84</ele>
        <time>2020-07-16T10:51:56Z</time>
      </trkpt>
      <trkpt lat="40.2474484965" lon="-5.9384898003">
        <ele>542.80</ele>
        <time>2020-07-16T10:52:07Z</time>
      </trkpt>
      <trkpt lat="40.2477658354" lon="-5.9381553624">
        <ele>543.28</ele>
        <time>2020-07-16T10:52:20Z</time>
      </trkpt>
      <trkpt lat="40.2480838448" lon="-5.9378858842">
        <ele>544.24</ele>
        <time>2020-07-16T10:52:32Z</time>
      </trkpt>
      <trkpt lat="40.2483521495" lon="-5.9376873169">
        <ele>545.69</ele>
        <time>2020-07-16T10:52:42Z</time>
      </trkpt>
      <trkpt lat="40.2485506330" lon="-5.9375536256">
        <ele>546.65</ele>
        <time>2020-07-16T10:52:50Z</time>
      </trkpt>
      <trkpt lat="40.2489084564" lon="-5.9373565670">
        <ele>547.13</ele>
        <time>2020-07-16T10:53:02Z</time>
      </trkpt>
      <trkpt lat="40.2491496038" lon="-5.9372398071">
        <ele>546.65</ele>
        <time>2020-07-16T10:53:10Z</time>
      </trkpt>
      <trkpt lat="40.2493723948" lon="-5.9371454269">
        <ele>547.13</ele>
        <time>2020-07-16T10:53:19Z</time>
      </trkpt>
      <trkpt lat="40.2496892307" lon="-5.9369972348">
        <ele>548.09</ele>
        <time>2020-07-16T10:53:30Z</time>
      </trkpt>
      <trkpt lat="40.2499047294" lon="-5.9369029384">
        <ele>548.57</ele>
        <time>2020-07-16T10:53:37Z</time>
      </trkpt>
      <trkpt lat="40.2501842659" lon="-5.9367782157">
        <ele>549.53</ele>
        <time>2020-07-16T10:53:47Z</time>
      </trkpt>
      <trkpt lat="40.2502802387" lon="-5.9367424250">
        <ele>549.53</ele>
        <time>2020-07-16T10:53:54Z</time>
      </trkpt>
      <trkpt lat="40.2502826694" lon="-5.9367289301">
        <ele>547.61</ele>
        <time>2020-07-16T10:54:04Z</time>
      </trkpt>
      <trkpt lat="40.2502921410" lon="-5.9367253259">
        <ele>547.13</ele>
        <time>2020-07-16T10:54:25Z</time>
      </trkpt>
      <trkpt lat="40.2502962481" lon="-5.9367254935">
        <ele>548.09</ele>
        <time>2020-07-16T10:54:42Z</time>
      </trkpt>
      <trkpt lat="40.2502987627" lon="-5.9367168602">
        <ele>548.09</ele>
        <time>2020-07-16T10:55:00Z</time>
      </trkpt>
      <trkpt lat="40.2502934821" lon="-5.9367318638">
        <ele>546.65</ele>
        <time>2020-07-16T10:55:16Z</time>
      </trkpt>
      <trkpt lat="40.2502933145" lon="-5.9367404133">
        <ele>546.65</ele>
        <time>2020-07-16T10:55:29Z</time>
      </trkpt>
      <trkpt lat="40.2504380699" lon="-5.9366751183">
        <ele>547.13</ele>
        <time>2020-07-16T10:55:36Z</time>
      </trkpt>
      <trkpt lat="40.2507743519" lon="-5.9365227353">
        <ele>547.13</ele>
        <time>2020-07-16T10:55:46Z</time>
      </trkpt>
      <trkpt lat="40.2511608414" lon="-5.9363584500">
        <ele>547.61</ele>
        <time>2020-07-16T10:55:57Z</time>
      </trkpt>
      <trkpt lat="40.2515390329" lon="-5.9362036362">
        <ele>548.09</ele>
        <time>2020-07-16T10:56:07Z</time>
      </trkpt>
      <trkpt lat="40.2517471556" lon="-5.9361085016">
        <ele>549.53</ele>
        <time>2020-07-16T10:56:15Z</time>
      </trkpt>
      <trkpt lat="40.2519240137" lon="-5.9360283706">
        <ele>549.53</ele>
        <time>2020-07-16T10:56:21Z</time>
      </trkpt>
      <trkpt lat="40.2523264289" lon="-5.9358520992">
        <ele>550.01</ele>
        <time>2020-07-16T10:56:34Z</time>
      </trkpt>
      <trkpt lat="40.2526116651" lon="-5.9357256163">
        <ele>550.01</ele>
        <time>2020-07-16T10:56:44Z</time>
      </trkpt>
      <trkpt lat="40.2529029362" lon="-5.9355697967">
        <ele>550.49</ele>
        <time>2020-07-16T10:56:54Z</time>
      </trkpt>
      <trkpt lat="40.2532228734" lon="-5.9353589918">
        <ele>551.93</ele>
        <time>2020-07-16T10:57:05Z</time>
      </trkpt>
      <trkpt lat="40.2534986380" lon="-5.9351275675">
        <ele>552.41</ele>
        <time>2020-07-16T10:57:15Z</time>
      </trkpt>
      <trkpt lat="40.2537616622" lon="-5.9348554071">
        <ele>553.38</ele>
        <time>2020-07-16T10:57:25Z</time>
      </trkpt>
      <trkpt lat="40.2539774124" lon="-5.9345973283">
        <ele>553.86</ele>
        <time>2020-07-16T10:57:34Z</time>
      </trkpt>
      <trkpt lat="40.2542446274" lon="-5.9342068993">
        <ele>554.34</ele>
        <time>2020-07-16T10:57:46Z</time>
      </trkpt>
      <trkpt lat="40.2544810809" lon="-5.9337665979">
        <ele>553.86</ele>
        <time>2020-07-16T10:57:58Z</time>
      </trkpt>
      <trkpt lat="40.2546830848" lon="-5.9333006479">
        <ele>554.82</ele>
        <time>2020-07-16T10:58:10Z</time>
      </trkpt>
      <trkpt lat="40.2548165247" lon="-5.9328860790">
        <ele>556.26</ele>
        <time>2020-07-16T10:58:20Z</time>
      </trkpt>
      <trkpt lat="40.2549137548" lon="-5.9325005114">
        <ele>556.26</ele>
        <time>2020-07-16T10:58:29Z</time>
      </trkpt>
      <trkpt lat="40.2549949754" lon="-5.9319976810">
        <ele>557.22</ele>
        <time>2020-07-16T10:58:40Z</time>
      </trkpt>
      <trkpt lat="40.2550367173" lon="-5.9314401168">
        <ele>557.70</ele>
        <time>2020-07-16T10:58:52Z</time>
      </trkpt>
      <trkpt lat="40.2550364658" lon="-5.9310624283">
        <ele>558.66</ele>
        <time>2020-07-16T10:59:02Z</time>
      </trkpt>
      <trkpt lat="40.2549983282" lon="-5.9305880126">
        <ele>560.59</ele>
        <time>2020-07-16T10:59:13Z</time>
      </trkpt>
      <trkpt lat="40.2549380623" lon="-5.9301445261">
        <ele>562.03</ele>
        <time>2020-07-16T10:59:23Z</time>
      </trkpt>
      <trkpt lat="40.2548424248" lon="-5.9296515025">
        <ele>562.51</ele>
        <time>2020-07-16T10:59:34Z</time>
      </trkpt>
      <trkpt lat="40.2547355555" lon="-5.9291205928">
        <ele>564.43</ele>
        <time>2020-07-16T10:59:46Z</time>
      </trkpt>
      <trkpt lat="40.2546416782" lon="-5.9286438301">
        <ele>565.39</ele>
        <time>2020-07-16T10:59:56Z</time>
      </trkpt>
      <trkpt lat="40.2545436937" lon="-5.9281034488">
        <ele>566.83</ele>
        <time>2020-07-16T11:00:07Z</time>
      </trkpt>
      <trkpt lat="40.2544963360" lon="-5.9276799113">
        <ele>567.80</ele>
        <time>2020-07-16T11:00:16Z</time>
      </trkpt>
      <trkpt lat="40.2544947434" lon="-5.9275665041">
        <ele>567.80</ele>
        <time>2020-07-16T11:00:20Z</time>
      </trkpt>
      <trkpt lat="40.2544879541" lon="-5.9274476487">
        <ele>568.28</ele>
        <time>2020-07-16T11:00:26Z</time>
      </trkpt>
      <trkpt lat="40.2544813324" lon="-5.9271635022">
        <ele>568.28</ele>
        <time>2020-07-16T11:00:33Z</time>
      </trkpt>
      <trkpt lat="40.2544833440" lon="-5.9268488456">
        <ele>569.24</ele>
        <time>2020-07-16T11:00:41Z</time>
      </trkpt>
      <trkpt lat="40.2544863615" lon="-5.9268443193">
        <ele>569.24</ele>
        <time>2020-07-16T11:00:46Z</time>
      </trkpt>
      <trkpt lat="40.2544999402" lon="-5.9268596582">
        <ele>568.28</ele>
        <time>2020-07-16T11:01:02Z</time>
      </trkpt>
      <trkpt lat="40.2544997726" lon="-5.9268519469">
        <ele>570.20</ele>
        <time>2020-07-16T11:01:19Z</time>
      </trkpt>
      <trkpt lat="40.2544937376" lon="-5.9268625919">
        <ele>568.76</ele>
        <time>2020-07-16T11:01:41Z</time>
      </trkpt>
      <trkpt lat="40.2544947434" lon="-5.9268668666">
        <ele>569.24</ele>
        <time>2020-07-16T11:01:56Z</time>
      </trkpt>
      <trkpt lat="40.2544973418" lon="-5.9268584009">
        <ele>569.72</ele>
        <time>2020-07-16T11:02:11Z</time>
      </trkpt>
      <trkpt lat="40.2544884570" lon="-5.9268435650">
        <ele>568.76</ele>
        <time>2020-07-16T11:02:19Z</time>
      </trkpt>
      <trkpt lat="40.2545008622" lon="-5.9266106319">
        <ele>569.24</ele>
        <time>2020-07-16T11:02:27Z</time>
      </trkpt>
      <trkpt lat="40.2545450348" lon="-5.9262750205">
        <ele>570.20</ele>
        <time>2020-07-16T11:02:36Z</time>
      </trkpt>
      <trkpt lat="40.2546252497" lon="-5.9258591942">
        <ele>571.16</ele>
        <time>2020-07-16T11:02:46Z</time>
      </trkpt>
      <trkpt lat="40.2547137626" lon="-5.9254265204">
        <ele>571.64</ele>
        <time>2020-07-16T11:02:56Z</time>
      </trkpt>
      <trkpt lat="40.2547901217" lon="-5.9250888135">
        <ele>571.64</ele>
        <time>2020-07-16T11:03:04Z</time>
      </trkpt>
      <trkpt lat="40.2549156826" lon="-5.9245447442">
        <ele>571.16</ele>
        <time>2020-07-16T11:03:16Z</time>
      </trkpt>
      <trkpt lat="40.2550469432" lon="-5.9239740204">
        <ele>571.64</ele>
        <time>2020-07-16T11:03:28Z</time>
      </trkpt>
      <trkpt lat="40.2551246434" lon="-5.9235289413">
        <ele>573.08</ele>
        <time>2020-07-16T11:03:38Z</time>
      </trkpt>
      <trkpt lat="40.2551539801" lon="-5.9231854510">
        <ele>574.53</ele>
        <time>2020-07-16T11:03:47Z</time>
      </trkpt>
      <trkpt lat="40.2551842388" lon="-5.9227823652">
        <ele>575.49</ele>
        <time>2020-07-16T11:03:56Z</time>
      </trkpt>
      <trkpt lat="40.2552019246" lon="-5.9224071912">
        <ele>576.45</ele>
        <time>2020-07-16T11:04:04Z</time>
      </trkpt>
      <trkpt lat="40.2551975660" lon="-5.9221527167">
        <ele>576.45</ele>
        <time>2020-07-16T11:04:12Z</time>
      </trkpt>
      <trkpt lat="40.2551834844" lon="-5.9217867628">
        <ele>577.41</ele>
        <time>2020-07-16T11:04:21Z</time>
      </trkpt>
      <trkpt lat="40.2551414911" lon="-5.9213558491">
        <ele>577.41</ele>
        <time>2020-07-16T11:04:31Z</time>
      </trkpt>
      <trkpt lat="40.2550522238" lon="-5.9208515100">
        <ele>578.85</ele>
        <time>2020-07-16T11:04:43Z</time>
      </trkpt>
      <trkpt lat="40.2549525630" lon="-5.9204393718">
        <ele>579.81</ele>
        <time>2020-07-16T11:04:53Z</time>
      </trkpt>
      <trkpt lat="40.2548391558" lon="-5.9199946281">
        <ele>579.33</ele>
        <time>2020-07-16T11:05:04Z</time>
      </trkpt>
      <trkpt lat="40.2547606174" lon="-5.9196987469">
        <ele>580.29</ele>
        <time>2020-07-16T11:05:11Z</time>
      </trkpt>
      <trkpt lat="40.2546537481" lon="-5.9192848485">
        <ele>581.25</ele>
        <time>2020-07-16T11:05:21Z</time>
      </trkpt>
      <trkpt lat="40.2545492258" lon="-5.9188603051">
        <ele>582.70</ele>
        <time>2020-07-16T11:05:31Z</time>
      </trkpt>
      <trkpt lat="40.2544701844" lon="-5.9184144717">
        <ele>583.66</ele>
        <time>2020-07-16T11:05:42Z</time>
      </trkpt>
      <trkpt lat="40.2544255089" lon="-5.9179035947">
        <ele>584.14</ele>
        <time>2020-07-16T11:05:54Z</time>
      </trkpt>
      <trkpt lat="40.2544224914" lon="-5.9177355375">
        <ele>584.62</ele>
        <time>2020-07-16T11:06:01Z</time>
      </trkpt>
      <trkpt lat="40.2544193901" lon="-5.9175451845">
        <ele>585.10</ele>
        <time>2020-07-16T11:06:10Z</time>
      </trkpt>
      <trkpt lat="40.2544286940" lon="-5.9174176957">
        <ele>585.58</ele>
        <time>2020-07-16T11:06:16Z</time>
      </trkpt>
      <trkpt lat="40.2544485591" lon="-5.9171012789">
        <ele>586.06</ele>
        <time>2020-07-16T11:06:25Z</time>
      </trkpt>
      <trkpt lat="40.2545058914" lon="-5.9166397713">
        <ele>587.02</ele>
        <time>2020-07-16T11:06:37Z</time>
      </trkpt>
      <trkpt lat="40.2546327095" lon="-5.9160579834">
        <ele>587.02</ele>
        <time>2020-07-16T11:06:51Z</time>
      </trkpt>
      <trkpt lat="40.2547430992" lon="-5.9156879224">
        <ele>587.50</ele>
        <time>2020-07-16T11:07:00Z</time>
      </trkpt>
      <trkpt lat="40.2549157664" lon="-5.9152058791">
        <ele>587.98</ele>
        <time>2020-07-16T11:07:12Z</time>
      </trkpt>
      <trkpt lat="40.2550806385" lon="-5.9147499036">
        <ele>588.46</ele>
        <time>2020-07-16T11:07:23Z</time>
      </trkpt>
      <trkpt lat="40.2551907767" lon="-5.9144535195">
        <ele>588.95</ele>
        <time>2020-07-16T11:07:31Z</time>
      </trkpt>
      <trkpt lat="40.2553400584" lon="-5.9140497632">
        <ele>589.43</ele>
        <time>2020-07-16T11:07:42Z</time>
      </trkpt>
      <trkpt lat="40.2555064391" lon="-5.9135807958">
        <ele>589.91</ele>
        <time>2020-07-16T11:07:54Z</time>
      </trkpt>
      <trkpt lat="40.2556324191" lon="-5.9132233076">
        <ele>589.43</ele>
        <time>2020-07-16T11:08:03Z</time>
      </trkpt>
      <trkpt lat="40.2557673678" lon="-5.9127473831">
        <ele>590.39</ele>
        <time>2020-07-16T11:08:14Z</time>
      </trkpt>
      <trkpt lat="40.2558446489" lon="-5.9122688603">
        <ele>591.35</ele>
        <time>2020-07-16T11:08:24Z</time>
      </trkpt>
      <trkpt lat="40.2558992151" lon="-5.9116150718">
        <ele>594.71</ele>
        <time>2020-07-16T11:08:37Z</time>
      </trkpt>
      <trkpt lat="40.2559018973" lon="-5.9113282431">
        <ele>596.15</ele>
        <time>2020-07-16T11:08:45Z</time>
      </trkpt>
      <trkpt lat="40.2558935154" lon="-5.9110840783">
        <ele>596.64</ele>
        <time>2020-07-16T11:08:51Z</time>
      </trkpt>
      <trkpt lat="40.2558986284" lon="-5.9107605368">
        <ele>597.60</ele>
        <time>2020-07-16T11:08:59Z</time>
      </trkpt>
      <trkpt lat="40.2558944374" lon="-5.9103173018">
        <ele>598.08</ele>
        <time>2020-07-16T11:09:09Z</time>
      </trkpt>
      <trkpt lat="40.2558850497" lon="-5.9097817820">
        <ele>598.56</ele>
        <time>2020-07-16T11:09:21Z</time>
      </trkpt>
      <trkpt lat="40.2558865584" lon="-5.9092528839">
        <ele>600.00</ele>
        <time>2020-07-16T11:09:32Z</time>
      </trkpt>
      <trkpt lat="40.2558835410" lon="-5.9088478703">
        <ele>600.96</ele>
        <time>2020-07-16T11:09:42Z</time>
      </trkpt>
      <trkpt lat="40.2558891568" lon="-5.9088435117">
        <ele>600.96</ele>
        <time>2020-07-16T11:09:47Z</time>
      </trkpt>
      <trkpt lat="40.2558968682" lon="-5.9088498820">
        <ele>599.52</ele>
        <time>2020-07-16T11:10:01Z</time>
      </trkpt>
      <trkpt lat="40.2558925934" lon="-5.9088715073">
        <ele>600.96</ele>
        <time>2020-07-16T11:10:20Z</time>
      </trkpt>
      <trkpt lat="40.2558977902" lon="-5.9088666458">
        <ele>598.56</ele>
        <time>2020-07-16T11:10:46Z</time>
      </trkpt>
      <trkpt lat="40.2559205890" lon="-5.9088750277">
        <ele>600.96</ele>
        <time>2020-07-16T11:11:12Z</time>
      </trkpt>
      <trkpt lat="40.2559104469" lon="-5.9088496305">
        <ele>601.92</ele>
        <time>2020-07-16T11:11:37Z</time>
      </trkpt>
      <trkpt lat="40.2558956947" lon="-5.9088670649">
        <ele>604.33</ele>
        <time>2020-07-16T11:12:09Z</time>
      </trkpt>
      <trkpt lat="40.2558888216" lon="-5.9088610299">
        <ele>605.29</ele>
        <time>2020-07-16T11:12:26Z</time>
      </trkpt>
      <trkpt lat="40.2559102792" lon="-5.9088629577">
        <ele>606.25</ele>
        <time>2020-07-16T11:12:47Z</time>
      </trkpt>
      <trkpt lat="40.2558895759" lon="-5.9088751953">
        <ele>605.29</ele>
        <time>2020-07-16T11:13:07Z</time>
      </trkpt>
      <trkpt lat="40.2558671962" lon="-5.9088793863">
        <ele>606.25</ele>
        <time>2020-07-16T11:13:25Z</time>
      </trkpt>
      <trkpt lat="40.2558505163" lon="-5.9088770393">
        <ele>607.69</ele>
        <time>2020-07-16T11:13:51Z</time>
      </trkpt>
      <trkpt lat="40.2558536176" lon="-5.9088545758">
        <ele>607.21</ele>
        <time>2020-07-16T11:14:18Z</time>
      </trkpt>
      <trkpt lat="40.2558473311" lon="-5.9088548273">
        <ele>606.25</ele>
        <time>2020-07-16T11:14:39Z</time>
      </trkpt>
      <trkpt lat="40.2558703814" lon="-5.9088461939">
        <ele>605.77</ele>
        <time>2020-07-16T11:14:58Z</time>
      </trkpt>
      <trkpt lat="40.2558685374" lon="-5.9088665619">
        <ele>604.81</ele>
        <time>2020-07-16T11:15:19Z</time>
      </trkpt>
      <trkpt lat="40.2558651008" lon="-5.9088788833">
        <ele>601.44</ele>
        <time>2020-07-16T11:15:40Z</time>
      </trkpt>
      <trkpt lat="40.2558832895" lon="-5.9088694956">
        <ele>600.00</ele>
        <time>2020-07-16T11:16:06Z</time>
      </trkpt>
      <trkpt lat="40.2558942698" lon="-5.9088683221">
        <ele>600.96</ele>
        <time>2020-07-16T11:16:28Z</time>
      </trkpt>
      <trkpt lat="40.2559000533" lon="-5.9088691603">
        <ele>603.85</ele>
        <time>2020-07-16T11:16:54Z</time>
      </trkpt>
      <trkpt lat="40.2559050824" lon="-5.9088373091">
        <ele>603.85</ele>
        <time>2020-07-16T11:17:21Z</time>
      </trkpt>
      <trkpt lat="40.2558977902" lon="-5.9088338725">
        <ele>603.85</ele>
        <time>2020-07-16T11:17:38Z</time>
      </trkpt>
      <trkpt lat="40.2558922581" lon="-5.9088422544">
        <ele>604.33</ele>
        <time>2020-07-16T11:17:50Z</time>
      </trkpt>
      <trkpt lat="40.2558869775" lon="-5.9086835850">
        <ele>603.85</ele>
        <time>2020-07-16T11:17:56Z</time>
      </trkpt>
      <trkpt lat="40.2558832895" lon="-5.9083043039">
        <ele>604.33</ele>
        <time>2020-07-16T11:18:04Z</time>
      </trkpt>
      <trkpt lat="40.2559057530" lon="-5.9078480769">
        <ele>605.29</ele>
        <time>2020-07-16T11:18:14Z</time>
      </trkpt>
      <trkpt lat="40.2559466567" lon="-5.9074587375">
        <ele>605.77</ele>
        <time>2020-07-16T11:18:24Z</time>
      </trkpt>
      <trkpt lat="40.2560029831" lon="-5.9071404766">
        <ele>605.77</ele>
        <time>2020-07-16T11:18:32Z</time>
      </trkpt>
      <trkpt lat="40.2560986206" lon="-5.9067041148">
        <ele>605.77</ele>
        <time>2020-07-16T11:18:43Z</time>
      </trkpt>
      <trkpt lat="40.2562482376" lon="-5.9062700160">
        <ele>606.25</ele>
        <time>2020-07-16T11:18:55Z</time>
      </trkpt>
      <trkpt lat="40.2563820966" lon="-5.9059440438">
        <ele>606.73</ele>
        <time>2020-07-16T11:19:05Z</time>
      </trkpt>
      <trkpt lat="40.2565367427" lon="-5.9056363441">
        <ele>607.21</ele>
        <time>2020-07-16T11:19:14Z</time>
      </trkpt>
      <trkpt lat="40.2566887066" lon="-5.9053835459">
        <ele>607.69</ele>
        <time>2020-07-16T11:19:22Z</time>
      </trkpt>
      <trkpt lat="40.2568533272" lon="-5.9051386267">
        <ele>607.69</ele>
        <time>2020-07-16T11:19:30Z</time>
      </trkpt>
      <trkpt lat="40.2570951451" lon="-5.9048124868">
        <ele>608.65</ele>
        <time>2020-07-16T11:19:41Z</time>
      </trkpt>
      <trkpt lat="40.2573197801" lon="-5.9045176953">
        <ele>609.13</ele>
        <time>2020-07-16T11:19:51Z</time>
      </trkpt>
      <trkpt lat="40.2575626876" lon="-5.9042006917">
        <ele>608.17</ele>
        <time>2020-07-16T11:20:02Z</time>
      </trkpt>
      <trkpt lat="40.2577899210" lon="-5.9039250109">
        <ele>609.13</ele>
        <time>2020-07-16T11:20:12Z</time>
      </trkpt>
      <trkpt lat="40.2580247819" lon="-5.9036451392">
        <ele>610.09</ele>
        <time>2020-07-16T11:20:22Z</time>
      </trkpt>
      <trkpt lat="40.2582609840" lon="-5.9033377748">
        <ele>611.06</ele>
        <time>2020-07-16T11:20:32Z</time>
      </trkpt>
      <trkpt lat="40.2584481519" lon="-5.9030957054">
        <ele>611.54</ele>
        <time>2020-07-16T11:20:40Z</time>
      </trkpt>
      <trkpt lat="40.2586739603" lon="-5.9027932025">
        <ele>612.02</ele>
        <time>2020-07-16T11:20:49Z</time>
      </trkpt>
      <trkpt lat="40.2589095756" lon="-5.9024801385">
        <ele>612.02</ele>
        <time>2020-07-16T11:20:59Z</time>
      </trkpt>
      <trkpt lat="40.2591298521" lon="-5.9021990933">
        <ele>611.54</ele>
        <time>2020-07-16T11:21:09Z</time>
      </trkpt>
      <trkpt lat="40.2593607735" lon="-5.9019115940">
        <ele>612.50</ele>
        <time>2020-07-16T11:21:17Z</time>
      </trkpt>
      <trkpt lat="40.2596096322" lon="-5.9016095102">
        <ele>612.02</ele>
        <time>2020-07-16T11:21:26Z</time>
      </trkpt>
      <trkpt lat="40.2598542161" lon="-5.9013104439">
        <ele>612.98</ele>
        <time>2020-07-16T11:21:35Z</time>
      </trkpt>
      <trkpt lat="40.2601272985" lon="-5.9009566437">
        <ele>613.94</ele>
        <time>2020-07-16T11:21:46Z</time>
      </trkpt>
      <trkpt lat="40.2603592258" lon="-5.9006243851">
        <ele>613.94</ele>
        <time>2020-07-16T11:21:56Z</time>
      </trkpt>
      <trkpt lat="40.2605269477" lon="-5.9003757779">
        <ele>612.50</ele>
        <time>2020-07-16T11:22:04Z</time>
      </trkpt>
      <trkpt lat="40.2606862877" lon="-5.9001105744">
        <ele>612.98</ele>
        <time>2020-07-16T11:22:12Z</time>
      </trkpt>
      <trkpt lat="40.2608635649" lon="-5.8997821715">
        <ele>615.38</ele>
        <time>2020-07-16T11:22:21Z</time>
      </trkpt>
      <trkpt lat="40.2610099968" lon="-5.8995019644">
        <ele>617.30</ele>
        <time>2020-07-16T11:22:29Z</time>
      </trkpt>
      <trkpt lat="40.2611631341" lon="-5.8991856314">
        <ele>619.23</ele>
        <time>2020-07-16T11:22:38Z</time>
      </trkpt>
      <trkpt lat="40.2613162715" lon="-5.8988698013">
        <ele>620.67</ele>
        <time>2020-07-16T11:22:47Z</time>
      </trkpt>
      <trkpt lat="40.2614990808" lon="-5.8984391391">
        <ele>620.67</ele>
        <time>2020-07-16T11:22:58Z</time>
      </trkpt>
      <trkpt lat="40.2617300022" lon="-5.8978275955">
        <ele>621.15</ele>
        <time>2020-07-16T11:23:14Z</time>
      </trkpt>
      <trkpt lat="40.2619167510" lon="-5.8972602244">
        <ele>621.63</ele>
        <time>2020-07-16T11:23:28Z</time>
      </trkpt>
      <trkpt lat="40.2620265540" lon="-5.8968774229">
        <ele>623.55</ele>
        <time>2020-07-16T11:23:38Z</time>
      </trkpt>
      <trkpt lat="40.2620745823" lon="-5.8966907579">
        <ele>623.07</ele>
        <time>2020-07-16T11:23:46Z</time>
      </trkpt>
      <trkpt lat="40.2621336747" lon="-5.8964184299">
        <ele>623.55</ele>
        <time>2020-07-16T11:23:55Z</time>
      </trkpt>
      <trkpt lat="40.2622262947" lon="-5.8960416634">
        <ele>624.99</ele>
        <time>2020-07-16T11:24:05Z</time>
      </trkpt>
      <trkpt lat="40.2623273805" lon="-5.8956267592">
        <ele>625.96</ele>
        <time>2020-07-16T11:24:16Z</time>
      </trkpt>
      <trkpt lat="40.2624096908" lon="-5.8952954225">
        <ele>625.96</ele>
        <time>2020-07-16T11:24:25Z</time>
      </trkpt>
      <trkpt lat="40.2624365129" lon="-5.8951116074">
        <ele>625.96</ele>
        <time>2020-07-16T11:24:32Z</time>
      </trkpt>
      <trkpt lat="40.2624777518" lon="-5.8949101903">
        <ele>625.47</ele>
        <time>2020-07-16T11:24:38Z</time>
      </trkpt>
      <trkpt lat="40.2625756525" lon="-5.8945022430">
        <ele>626.92</ele>
        <time>2020-07-16T11:24:49Z</time>
      </trkpt>
      <trkpt lat="40.2626735531" lon="-5.8940921165">
        <ele>628.36</ele>
        <time>2020-07-16T11:24:59Z</time>
      </trkpt>
      <trkpt lat="40.2627558634" lon="-5.8937027771">
        <ele>629.80</ele>
        <time>2020-07-16T11:25:09Z</time>
      </trkpt>
      <trkpt lat="40.2628235891" lon="-5.8934032079">
        <ele>630.28</ele>
        <time>2020-07-16T11:25:17Z</time>
      </trkpt>
      <trkpt lat="40.2629069053" lon="-5.8931158762">
        <ele>631.24</ele>
        <time>2020-07-16T11:25:25Z</time>
      </trkpt>
      <trkpt lat="40.2629421931" lon="-5.8929766528">
        <ele>632.20</ele>
        <time>2020-07-16T11:25:32Z</time>
      </trkpt>
      <trkpt lat="40.2629517484" lon="-5.8929631580">
        <ele>633.65</ele>
        <time>2020-07-16T11:25:39Z</time>
      </trkpt>
      <trkpt lat="40.2629585378" lon="-5.8929660916">
        <ele>633.65</ele>
        <time>2020-07-16T11:25:50Z</time>
      </trkpt>
      <trkpt lat="40.2629710268" lon="-5.8929707855">
        <ele>632.68</ele>
        <time>2020-07-16T11:26:04Z</time>
      </trkpt>
      <trkpt lat="40.2629820909" lon="-5.8929636609">
        <ele>632.20</ele>
        <time>2020-07-16T11:26:16Z</time>
      </trkpt>
      <trkpt lat="40.2629842702" lon="-5.8929558657">
        <ele>631.72</ele>
        <time>2020-07-16T11:26:29Z</time>
      </trkpt>
      <trkpt lat="40.2629810851" lon="-5.8929614816">
        <ele>632.20</ele>
        <time>2020-07-16T11:26:43Z</time>
      </trkpt>
      <trkpt lat="40.2629782353" lon="-5.8929600567">
        <ele>631.72</ele>
        <time>2020-07-16T11:27:02Z</time>
      </trkpt>
      <trkpt lat="40.2629714459" lon="-5.8929515071">
        <ele>631.24</ele>
        <time>2020-07-16T11:27:17Z</time>
      </trkpt>
      <trkpt lat="40.2629545145" lon="-5.8929609787">
        <ele>630.76</ele>
        <time>2020-07-16T11:27:31Z</time>
      </trkpt>
      <trkpt lat="40.2629631478" lon="-5.8929602243">
        <ele>630.76</ele>
        <time>2020-07-16T11:27:43Z</time>
      </trkpt>
      <trkpt lat="40.2629689313" lon="-5.8928969409">
        <ele>631.24</ele>
        <time>2020-07-16T11:27:49Z</time>
      </trkpt>
      <trkpt lat="40.2630289458" lon="-5.8926339168">
        <ele>631.24</ele>
        <time>2020-07-16T11:27:57Z</time>
      </trkpt>
      <trkpt lat="40.2631422691" lon="-5.8921361156">
        <ele>632.68</ele>
        <time>2020-07-16T11:28:09Z</time>
      </trkpt>
      <trkpt lat="40.2632350568" lon="-5.8917253185">
        <ele>632.20</ele>
        <time>2020-07-16T11:28:18Z</time>
      </trkpt>
      <trkpt lat="40.2633392438" lon="-5.8913021162">
        <ele>632.68</ele>
        <time>2020-07-16T11:28:28Z</time>
      </trkpt>
      <trkpt lat="40.2634423412" lon="-5.8908738010">
        <ele>634.13</ele>
        <time>2020-07-16T11:28:39Z</time>
      </trkpt>
      <trkpt lat="40.2635693271" lon="-5.8903642651">
        <ele>635.09</ele>
        <time>2020-07-16T11:28:52Z</time>
      </trkpt>
      <trkpt lat="40.2636684850" lon="-5.8899351954">
        <ele>635.57</ele>
        <time>2020-07-16T11:29:03Z</time>
      </trkpt>
      <trkpt lat="40.2637455985" lon="-5.8894894458">
        <ele>636.53</ele>
        <time>2020-07-16T11:29:14Z</time>
      </trkpt>
      <trkpt lat="40.2637838200" lon="-5.8891426865">
        <ele>637.01</ele>
        <time>2020-07-16T11:29:23Z</time>
      </trkpt>
      <trkpt lat="40.2638061158" lon="-5.8886769041">
        <ele>638.45</ele>
        <time>2020-07-16T11:29:35Z</time>
      </trkpt>
      <trkpt lat="40.2638062835" lon="-5.8882604912">
        <ele>640.38</ele>
        <time>2020-07-16T11:29:45Z</time>
      </trkpt>
      <trkpt lat="40.2637849934" lon="-5.8878001571">
        <ele>641.82</ele>
        <time>2020-07-16T11:29:56Z</time>
      </trkpt>
      <trkpt lat="40.2637427486" lon="-5.8873927128">
        <ele>641.82</ele>
        <time>2020-07-16T11:30:06Z</time>
      </trkpt>
      <trkpt lat="40.2636596002" lon="-5.8869548421">
        <ele>641.82</ele>
        <time>2020-07-16T11:30:17Z</time>
      </trkpt>
      <trkpt lat="40.2635803912" lon="-5.8866153751">
        <ele>643.26</ele>
        <time>2020-07-16T11:30:26Z</time>
      </trkpt>
      <trkpt lat="40.2634876873" lon="-5.8863028139">
        <ele>643.26</ele>
        <time>2020-07-16T11:30:35Z</time>
      </trkpt>
      <trkpt lat="40.2633912954" lon="-5.8859825414">
        <ele>645.18</ele>
        <time>2020-07-16T11:30:44Z</time>
      </trkpt>
      <trkpt lat="40.2633166127" lon="-5.8857734967">
        <ele>645.18</ele>
        <time>2020-07-16T11:30:51Z</time>
      </trkpt>
      <trkpt lat="40.2631837595" lon="-5.8854409866">
        <ele>646.62</ele>
        <time>2020-07-16T11:31:00Z</time>
      </trkpt>
      <trkpt lat="40.2630485594" lon="-5.8851052076">
        <ele>646.14</ele>
        <time>2020-07-16T11:31:09Z</time>
      </trkpt>
      <trkpt lat="40.2629257645" lon="-5.8848017827">
        <ele>646.14</ele>
        <time>2020-07-16T11:31:18Z</time>
      </trkpt>
      <trkpt lat="40.2628239244" lon="-5.8845202345">
        <ele>646.62</ele>
        <time>2020-07-16T11:31:26Z</time>
      </trkpt>
      <trkpt lat="40.2626952622" lon="-5.8842050750">
        <ele>646.62</ele>
        <time>2020-07-16T11:31:35Z</time>
      </trkpt>
      <trkpt lat="40.2625976969" lon="-5.8839899115">
        <ele>645.18</ele>
        <time>2020-07-16T11:31:41Z</time>
      </trkpt>
      <trkpt lat="40.2624693699" lon="-5.8836654481">
        <ele>646.14</ele>
        <time>2020-07-16T11:31:50Z</time>
      </trkpt>
      <trkpt lat="40.2623835392" lon="-5.8834484406">
        <ele>647.10</ele>
        <time>2020-07-16T11:31:57Z</time>
      </trkpt>
      <trkpt lat="40.2622464951" lon="-5.8831223007">
        <ele>649.03</ele>
        <time>2020-07-16T11:32:06Z</time>
      </trkpt>
      <trkpt lat="40.2621294837" lon="-5.8828421775">
        <ele>649.03</ele>
        <time>2020-07-16T11:32:14Z</time>
      </trkpt>
      <trkpt lat="40.2619771846" lon="-5.8824811690">
        <ele>649.99</ele>
        <time>2020-07-16T11:32:24Z</time>
      </trkpt>
      <trkpt lat="40.2619035076" lon="-5.8822816797">
        <ele>649.99</ele>
        <time>2020-07-16T11:32:30Z</time>
      </trkpt>
      <trkpt lat="40.2617817186" lon="-5.8819560427">
        <ele>650.95</ele>
        <time>2020-07-16T11:32:39Z</time>
      </trkpt>
      <trkpt lat="40.2617003303" lon="-5.8816656936">
        <ele>650.47</ele>
        <time>2020-07-16T11:32:47Z</time>
      </trkpt>
      <trkpt lat="40.2616154216" lon="-5.8813186828">
        <ele>650.95</ele>
        <time>2020-07-16T11:32:56Z</time>
      </trkpt>
      <trkpt lat="40.2615394816" lon="-5.8808512241">
        <ele>654.80</ele>
        <time>2020-07-16T11:33:07Z</time>
      </trkpt>
      <trkpt lat="40.2615089715" lon="-5.8805233240">
        <ele>656.24</ele>
        <time>2020-07-16T11:33:16Z</time>
      </trkpt>
      <trkpt lat="40.2615007572" lon="-5.8802201506">
        <ele>657.20</ele>
        <time>2020-07-16T11:33:24Z</time>
      </trkpt>
      <trkpt lat="40.2615082171" lon="-5.8798545320">
        <ele>657.68</ele>
        <time>2020-07-16T11:33:33Z</time>
      </trkpt>
      <trkpt lat="40.2615367994" lon="-5.8794351853">
        <ele>658.16</ele>
        <time>2020-07-16T11:33:44Z</time>
      </trkpt>
      <trkpt lat="40.2615522221" lon="-5.8792672958">
        <ele>658.16</ele>
        <time>2020-07-16T11:33:50Z</time>
      </trkpt>
      <trkpt lat="40.2616165113" lon="-5.8789118193">
        <ele>660.08</ele>
        <time>2020-07-16T11:33:59Z</time>
      </trkpt>
      <trkpt lat="40.2616906073" lon="-5.8785684966">
        <ele>659.60</ele>
        <time>2020-07-16T11:34:08Z</time>
      </trkpt>
      <trkpt lat="40.2618254721" lon="-5.8781399298">
        <ele>659.12</ele>
        <time>2020-07-16T11:34:19Z</time>
      </trkpt>
      <trkpt lat="40.2619712334" lon="-5.8777785860">
        <ele>660.56</ele>
        <time>2020-07-16T11:34:29Z</time>
      </trkpt>
      <trkpt lat="40.2620516159" lon="-5.8776138816">
        <ele>660.56</ele>
        <time>2020-07-16T11:34:36Z</time>
      </trkpt>
      <trkpt lat="40.2620544657" lon="-5.8776151389">
        <ele>661.52</ele>
        <time>2020-07-16T11:34:49Z</time>
      </trkpt>
      <trkpt lat="40.2620683797" lon="-5.8776044101">
        <ele>662.97</ele>
        <time>2020-07-16T11:35:03Z</time>
      </trkpt>
      <trkpt lat="40.2620745823" lon="-5.8776122052">
        <ele>663.45</ele>
        <time>2020-07-16T11:35:14Z</time>
      </trkpt>
      <trkpt lat="40.2621076070" lon="-5.8775524423">
        <ele>662.97</ele>
        <time>2020-07-16T11:35:24Z</time>
      </trkpt>
      <trkpt lat="40.2622101177" lon="-5.8773248736">
        <ele>662.49</ele>
        <time>2020-07-16T11:35:33Z</time>
      </trkpt>
      <trkpt lat="40.2623394504" lon="-5.8770765178">
        <ele>662.97</ele>
        <time>2020-07-16T11:35:41Z</time>
      </trkpt>
      <trkpt lat="40.2624716330" lon="-5.8768208697">
        <ele>662.49</ele>
        <time>2020-07-16T11:35:49Z</time>
      </trkpt>
      <trkpt lat="40.2626057435" lon="-5.8765605278">
        <ele>662.49</ele>
        <time>2020-07-16T11:35:57Z</time>
      </trkpt>
      <trkpt lat="40.2628012933" lon="-5.8762065601">
        <ele>661.04</ele>
        <time>2020-07-16T11:36:07Z</time>
      </trkpt>
      <trkpt lat="40.2629671711" lon="-5.8758951724">
        <ele>660.56</ele>
        <time>2020-07-16T11:36:16Z</time>
      </trkpt>
      <trkpt lat="40.2631544229" lon="-5.8755531069">
        <ele>661.52</ele>
        <time>2020-07-16T11:36:26Z</time>
      </trkpt>
      <trkpt lat="40.2633070573" lon="-5.8752686251">
        <ele>662.01</ele>
        <time>2020-07-16T11:36:35Z</time>
      </trkpt>
      <trkpt lat="40.2634869330" lon="-5.8749417309">
        <ele>661.52</ele>
        <time>2020-07-16T11:36:45Z</time>
      </trkpt>
      <trkpt lat="40.2636519726" lon="-5.8746199496">
        <ele>659.60</ele>
        <time>2020-07-16T11:36:55Z</time>
      </trkpt>
      <trkpt lat="40.2638178505" lon="-5.8743150160">
        <ele>661.52</ele>
        <time>2020-07-16T11:37:04Z</time>
      </trkpt>
      <trkpt lat="40.2639416512" lon="-5.8740990981">
        <ele>662.97</ele>
        <time>2020-07-16T11:37:11Z</time>
      </trkpt>
      <trkpt lat="40.2640865743" lon="-5.8738214057">
        <ele>661.52</ele>
        <time>2020-07-16T11:37:20Z</time>
      </trkpt>
      <trkpt lat="40.2642314974" lon="-5.8735554479">
        <ele>661.52</ele>
        <time>2020-07-16T11:37:28Z</time>
      </trkpt>
      <trkpt lat="40.2644330822" lon="-5.8731909189">
        <ele>662.49</ele>
        <time>2020-07-16T11:37:39Z</time>
      </trkpt>
      <trkpt lat="40.2646235190" lon="-5.8728366159">
        <ele>661.52</ele>
        <time>2020-07-16T11:37:50Z</time>
      </trkpt>
      <trkpt lat="40.2647381835" lon="-5.8726286609">
        <ele>661.04</ele>
        <time>2020-07-16T11:37:57Z</time>
      </trkpt>
      <trkpt lat="40.2648437954" lon="-5.8724182751">
        <ele>662.49</ele>
        <time>2020-07-16T11:38:04Z</time>
      </trkpt>
      <trkpt lat="40.2650094219" lon="-5.8721099887">
        <ele>664.89</ele>
        <time>2020-07-16T11:38:13Z</time>
      </trkpt>
      <trkpt lat="40.2651707735" lon="-5.8718132693">
        <ele>668.25</ele>
        <time>2020-07-16T11:38:22Z</time>
      </trkpt>
      <trkpt lat="40.2652932331" lon="-5.8715893887">
        <ele>668.73</ele>
        <time>2020-07-16T11:38:29Z</time>
      </trkpt>
      <trkpt lat="40.2654710133" lon="-5.8712562080">
        <ele>668.73</ele>
        <time>2020-07-16T11:38:39Z</time>
      </trkpt>
      <trkpt lat="40.2656097338" lon="-5.8709969558">
        <ele>668.25</ele>
        <time>2020-07-16T11:38:47Z</time>
      </trkpt>
      <trkpt lat="40.2657901123" lon="-5.8706614282">
        <ele>670.66</ele>
        <time>2020-07-16T11:38:57Z</time>
      </trkpt>
      <trkpt lat="40.2659542300" lon="-5.8703684807">
        <ele>672.10</ele>
        <time>2020-07-16T11:39:06Z</time>
      </trkpt>
      <trkpt lat="40.2661142405" lon="-5.8700679056">
        <ele>672.58</ele>
        <time>2020-07-16T11:39:15Z</time>
      </trkpt>
      <trkpt lat="40.2663192619" lon="-5.8696924802">
        <ele>673.54</ele>
        <time>2020-07-16T11:39:26Z</time>
      </trkpt>
      <trkpt lat="40.2664910071" lon="-5.8693846129">
        <ele>674.02</ele>
        <time>2020-07-16T11:39:35Z</time>
      </trkpt>
      <trkpt lat="40.2666928433" lon="-5.8690158091">
        <ele>674.50</ele>
        <time>2020-07-16T11:39:46Z</time>
      </trkpt>
      <trkpt lat="40.2667798474" lon="-5.8688338380">
        <ele>675.94</ele>
        <time>2020-07-16T11:39:53Z</time>
      </trkpt>
      <trkpt lat="40.2667837031" lon="-5.8688076027">
        <ele>676.91</ele>
        <time>2020-07-16T11:39:59Z</time>
      </trkpt>
      <trkpt lat="40.2667917497" lon="-5.8687911741">
        <ele>677.87</ele>
        <time>2020-07-16T11:40:09Z</time>
      </trkpt>
      <trkpt lat="40.2668069210" lon="-5.8687952813">
        <ele>681.23</ele>
        <time>2020-07-16T11:40:26Z</time>
      </trkpt>
      <trkpt lat="40.2668076754" lon="-5.8688148949">
        <ele>684.12</ele>
        <time>2020-07-16T11:40:46Z</time>
      </trkpt>
      <trkpt lat="40.2668149676" lon="-5.8688231092">
        <ele>683.63</ele>
        <time>2020-07-16T11:41:09Z</time>
      </trkpt>
      <trkpt lat="40.2668153867" lon="-5.8688112907">
        <ele>681.71</ele>
        <time>2020-07-16T11:41:31Z</time>
      </trkpt>
      <trkpt lat="40.2667992935" lon="-5.8688065968">
        <ele>685.08</ele>
        <time>2020-07-16T11:41:51Z</time>
      </trkpt>
      <trkpt lat="40.2667956892" lon="-5.8688137215">
        <ele>681.71</ele>
        <time>2020-07-16T11:42:16Z</time>
      </trkpt>
      <trkpt lat="40.2668066695" lon="-5.8688288089">
        <ele>682.67</ele>
        <time>2020-07-16T11:42:44Z</time>
      </trkpt>
      <trkpt lat="40.2668182366" lon="-5.8688264620">
        <ele>680.75</ele>
        <time>2020-07-16T11:43:02Z</time>
      </trkpt>
      <trkpt lat="40.2667934261" lon="-5.8688341733">
        <ele>679.79</ele>
        <time>2020-07-16T11:43:22Z</time>
      </trkpt>
      <trkpt lat="40.2667966951" lon="-5.8688257914">
        <ele>681.23</ele>
        <time>2020-07-16T11:43:37Z</time>
      </trkpt>
      <trkpt lat="40.2668223437" lon="-5.8688245341">
        <ele>682.19</ele>
        <time>2020-07-16T11:43:53Z</time>
      </trkpt>
      <trkpt lat="40.2668251097" lon="-5.8688423876">
        <ele>682.19</ele>
        <time>2020-07-16T11:44:11Z</time>
      </trkpt>
      <trkpt lat="40.2668105252" lon="-5.8688394539">
        <ele>681.23</ele>
        <time>2020-07-16T11:44:24Z</time>
      </trkpt>
      <trkpt lat="40.2667992935" lon="-5.8688212652">
        <ele>681.23</ele>
        <time>2020-07-16T11:44:38Z</time>
      </trkpt>
      <trkpt lat="40.2667816076" lon="-5.8688074350">
        <ele>680.27</ele>
        <time>2020-07-16T11:44:54Z</time>
      </trkpt>
      <trkpt lat="40.2667868044" lon="-5.8688095305">
        <ele>680.75</ele>
        <time>2020-07-16T11:45:10Z</time>
      </trkpt>
      <trkpt lat="40.2667805180" lon="-5.8688135538">
        <ele>679.79</ele>
        <time>2020-07-16T11:45:23Z</time>
      </trkpt>
      <trkpt lat="40.2667658497" lon="-5.8688234445">
        <ele>678.83</ele>
        <time>2020-07-16T11:45:38Z</time>
      </trkpt>
      <trkpt lat="40.2667852119" lon="-5.8688080218">
        <ele>680.27</ele>
        <time>2020-07-16T11:45:45Z</time>
      </trkpt>
      <trkpt lat="40.2667967789" lon="-5.8687946945">
        <ele>680.27</ele>
        <time>2020-07-16T11:45:46Z</time>
      </trkpt>
      <trkpt lat="40.2668110281" lon="-5.8687733207">
        <ele>680.27</ele>
        <time>2020-07-16T11:45:47Z</time>
      </trkpt>
      <trkpt lat="40.2669175621" lon="-5.8685781900">
        <ele>679.31</ele>
        <time>2020-07-16T11:45:54Z</time>
      </trkpt>
      <trkpt lat="40.2670756448" lon="-5.8683008328">
        <ele>679.31</ele>
        <time>2020-07-16T11:46:02Z</time>
      </trkpt>
      <trkpt lat="40.2672369126" lon="-5.8680061251">
        <ele>679.31</ele>
        <time>2020-07-16T11:46:11Z</time>
      </trkpt>
      <trkpt lat="40.2673661616" lon="-5.8677664027">
        <ele>679.31</ele>
        <time>2020-07-16T11:46:18Z</time>
      </trkpt>
      <trkpt lat="40.2675374877" lon="-5.8674268518">
        <ele>678.35</ele>
        <time>2020-07-16T11:46:28Z</time>
      </trkpt>
      <trkpt lat="40.2676835004" lon="-5.8671548590">
        <ele>678.83</ele>
        <time>2020-07-16T11:46:36Z</time>
      </trkpt>
      <trkpt lat="40.2677675709" lon="-5.8670055773">
        <ele>680.75</ele>
        <time>2020-07-16T11:46:43Z</time>
      </trkpt>
      <trkpt lat="40.2678041998" lon="-5.8669365942">
        <ele>679.79</ele>
        <time>2020-07-16T11:46:50Z</time>
      </trkpt>
      <trkpt lat="40.2677980810" lon="-5.8669342473">
        <ele>679.79</ele>
        <time>2020-07-16T11:46:58Z</time>
      </trkpt>
      <trkpt lat="40.2677970752" lon="-5.8669308946">
        <ele>680.27</ele>
        <time>2020-07-16T11:46:59Z</time>
      </trkpt>
      <trkpt lat="40.2677301038" lon="-5.8670900669">
        <ele>678.83</ele>
        <time>2020-07-16T11:47:05Z</time>
      </trkpt>
      <trkpt lat="40.2675555926" lon="-5.8674286120">
        <ele>679.31</ele>
        <time>2020-07-16T11:47:13Z</time>
      </trkpt>
      <trkpt lat="40.2675281838" lon="-5.8674805798">
        <ele>679.31</ele>
        <time>2020-07-16T11:47:14Z</time>
      </trkpt>
      <trkpt lat="40.2673801593" lon="-5.8677621279">
        <ele>680.27</ele>
        <time>2020-07-16T11:47:21Z</time>
      </trkpt>
      <trkpt lat="40.2672844380" lon="-5.8679568395">
        <ele>680.75</ele>
        <time>2020-07-16T11:47:28Z</time>
      </trkpt>
      <trkpt lat="40.2671296243" lon="-5.8682344481">
        <ele>678.35</ele>
        <time>2020-07-16T11:47:36Z</time>
      </trkpt>
      <trkpt lat="40.2670618147" lon="-5.8683304209">
        <ele>677.39</ele>
        <time>2020-07-16T11:47:39Z</time>
      </trkpt>
      <trkpt lat="40.2670396864" lon="-5.8683370426">
        <ele>677.39</ele>
        <time>2020-07-16T11:47:40Z</time>
      </trkpt>
      <trkpt lat="40.2670192346" lon="-5.8683331870">
        <ele>677.39</ele>
        <time>2020-07-16T11:47:41Z</time>
      </trkpt>
      <trkpt lat="40.2669712901" lon="-5.8682697359">
        <ele>678.35</ele>
        <time>2020-07-16T11:47:47Z</time>
      </trkpt>
      <trkpt lat="40.2669729665" lon="-5.8682400640">
        <ele>678.35</ele>
        <time>2020-07-16T11:47:48Z</time>
      </trkpt>
      <trkpt lat="40.2669806778" lon="-5.8682189416">
        <ele>678.83</ele>
        <time>2020-07-16T11:47:49Z</time>
      </trkpt>
      <trkpt lat="40.2669971902" lon="-5.8681839891">
        <ele>678.83</ele>
        <time>2020-07-16T11:47:50Z</time>
      </trkpt>
      <trkpt lat="40.2670123614" lon="-5.8681551553">
        <ele>678.83</ele>
        <time>2020-07-16T11:47:51Z</time>
      </trkpt>
      <trkpt lat="40.2671768144" lon="-5.8678693324">
        <ele>678.83</ele>
        <time>2020-07-16T11:47:59Z</time>
      </trkpt>
      <trkpt lat="40.2673772257" lon="-5.8675162029">
        <ele>679.79</ele>
        <time>2020-07-16T11:48:08Z</time>
      </trkpt>
      <trkpt lat="40.2675177064" lon="-5.8671150450">
        <ele>679.79</ele>
        <time>2020-07-16T11:48:16Z</time>
      </trkpt>
      <trkpt lat="40.2676520683" lon="-5.8666938543">
        <ele>677.39</ele>
        <time>2020-07-16T11:48:23Z</time>
      </trkpt>
      <trkpt lat="40.2676897869" lon="-5.8666557167">
        <ele>676.91</ele>
        <time>2020-07-16T11:48:25Z</time>
      </trkpt>
      <trkpt lat="40.2677201293" lon="-5.8666556329">
        <ele>676.42</ele>
        <time>2020-07-16T11:48:26Z</time>
      </trkpt>
      <trkpt lat="40.2677518968" lon="-5.8666721452">
        <ele>675.94</ele>
        <time>2020-07-16T11:48:27Z</time>
      </trkpt>
      <trkpt lat="40.2677889448" lon="-5.8667066786">
        <ele>675.46</ele>
        <time>2020-07-16T11:48:28Z</time>
      </trkpt>
      <trkpt lat="40.2678114921" lon="-5.8667302318">
        <ele>675.46</ele>
        <time>2020-07-16T11:48:29Z</time>
      </trkpt>
      <trkpt lat="40.2679570019" lon="-5.8668483328">
        <ele>672.58</ele>
        <time>2020-07-16T11:48:34Z</time>
      </trkpt>
      <trkpt lat="40.2679959778" lon="-5.8668578882">
        <ele>672.10</ele>
        <time>2020-07-16T11:48:35Z</time>
      </trkpt>
      <trkpt lat="40.2680284157" lon="-5.8668439742">
        <ele>672.10</ele>
        <time>2020-07-16T11:48:36Z</time>
      </trkpt>
      <trkpt lat="40.2680518851" lon="-5.8668208402">
        <ele>672.10</ele>
        <time>2020-07-16T11:48:37Z</time>
      </trkpt>
      <trkpt lat="40.2682502847" lon="-5.8665357716">
        <ele>672.58</ele>
        <time>2020-07-16T11:48:45Z</time>
      </trkpt>
      <trkpt lat="40.2684875764" lon="-5.8663919382">
        <ele>675.46</ele>
        <time>2020-07-16T11:48:52Z</time>
      </trkpt>
      <trkpt lat="40.2686678711" lon="-5.8663377073">
        <ele>675.94</ele>
        <time>2020-07-16T11:48:57Z</time>
      </trkpt>
      <trkpt lat="40.2690484095" lon="-5.8662239648">
        <ele>677.87</ele>
        <time>2020-07-16T11:49:06Z</time>
      </trkpt>
      <trkpt lat="40.2693245094" lon="-5.8661072887">
        <ele>678.83</ele>
        <time>2020-07-16T11:49:14Z</time>
      </trkpt>
      <trkpt lat="40.2696738672" lon="-5.8659238089">
        <ele>679.79</ele>
        <time>2020-07-16T11:49:24Z</time>
      </trkpt>
      <trkpt lat="40.2700177766" lon="-5.8657561708">
        <ele>680.27</ele>
        <time>2020-07-16T11:49:34Z</time>
      </trkpt>
      <trkpt lat="40.2702643722" lon="-5.8656013571">
        <ele>679.31</ele>
        <time>2020-07-16T11:49:42Z</time>
      </trkpt>
      <trkpt lat="40.2703565732" lon="-5.8655516524">
        <ele>678.83</ele>
        <time>2020-07-16T11:49:44Z</time>
      </trkpt>
      <trkpt lat="40.2707406320" lon="-5.8653060626">
        <ele>677.39</ele>
        <time>2020-07-16T11:49:52Z</time>
      </trkpt>
      <trkpt lat="40.2711638343" lon="-5.8650378417">
        <ele>675.94</ele>
        <time>2020-07-16T11:50:01Z</time>
      </trkpt>
      <trkpt lat="40.2716312930" lon="-5.8647466544">
        <ele>674.98</ele>
        <time>2020-07-16T11:50:11Z</time>
      </trkpt>
      <trkpt lat="40.2719019447" lon="-5.8645736519">
        <ele>673.54</ele>
        <time>2020-07-16T11:50:17Z</time>
      </trkpt>
      <trkpt lat="40.2719956543" lon="-5.8644813672">
        <ele>673.54</ele>
        <time>2020-07-16T11:50:21Z</time>
      </trkpt>
      <trkpt lat="40.2720051259" lon="-5.8644413855">
        <ele>673.54</ele>
        <time>2020-07-16T11:50:22Z</time>
      </trkpt>
      <trkpt lat="40.2720642183" lon="-5.8639766090">
        <ele>674.98</ele>
        <time>2020-07-16T11:50:31Z</time>
      </trkpt>
      <trkpt lat="40.2721221372" lon="-5.8633693401">
        <ele>675.46</ele>
        <time>2020-07-16T11:50:42Z</time>
      </trkpt>
      <trkpt lat="40.2721648011" lon="-5.8629172202">
        <ele>674.98</ele>
        <time>2020-07-16T11:50:51Z</time>
      </trkpt>
      <trkpt lat="40.2722047828" lon="-5.8624915034">
        <ele>674.50</ele>
        <time>2020-07-16T11:51:01Z</time>
      </trkpt>
      <trkpt lat="40.2722224686" lon="-5.8621246275">
        <ele>674.98</ele>
        <time>2020-07-16T11:51:09Z</time>
      </trkpt>
      <trkpt lat="40.2721978258" lon="-5.8618344460">
        <ele>674.50</ele>
        <time>2020-07-16T11:51:16Z</time>
      </trkpt>
      <trkpt lat="40.2722386457" lon="-5.8617247269">
        <ele>674.50</ele>
        <time>2020-07-16T11:51:21Z</time>
      </trkpt>
      <trkpt lat="40.2722446807" lon="-5.8617464360">
        <ele>674.98</ele>
        <time>2020-07-16T11:51:37Z</time>
      </trkpt>
      <trkpt lat="40.2722814772" lon="-5.8617405687">
        <ele>674.98</ele>
        <time>2020-07-16T11:51:46Z</time>
      </trkpt>
      <trkpt lat="40.2722932957" lon="-5.8617327735">
        <ele>674.50</ele>
        <time>2020-07-16T11:51:47Z</time>
      </trkpt>
      <trkpt lat="40.2722989954" lon="-5.8617147524">
        <ele>674.02</ele>
        <time>2020-07-16T11:51:48Z</time>
      </trkpt>
      <trkpt lat="40.2723002527" lon="-5.8616953902">
        <ele>673.54</ele>
        <time>2020-07-16T11:51:49Z</time>
      </trkpt>
      <trkpt lat="40.2722980734" lon="-5.8616765309">
        <ele>673.06</ele>
        <time>2020-07-16T11:51:50Z</time>
      </trkpt>
      <trkpt lat="40.2722976543" lon="-5.8616587613">
        <ele>672.58</ele>
        <time>2020-07-16T11:51:51Z</time>
      </trkpt>
      <trkpt lat="40.2722957265" lon="-5.8616418298">
        <ele>672.10</ele>
        <time>2020-07-16T11:51:52Z</time>
      </trkpt>
      <trkpt lat="40.2722996660" lon="-5.8615920413">
        <ele>672.10</ele>
        <time>2020-07-16T11:51:56Z</time>
      </trkpt>
      <trkpt lat="40.2723078802" lon="-5.8615440130">
        <ele>671.62</ele>
        <time>2020-07-16T11:51:59Z</time>
      </trkpt>
      <trkpt lat="40.2723146696" lon="-5.8614292648">
        <ele>670.66</ele>
        <time>2020-07-16T11:52:07Z</time>
      </trkpt>
      <trkpt lat="40.2723208722" lon="-5.8613969944">
        <ele>670.66</ele>
        <time>2020-07-16T11:52:09Z</time>
      </trkpt>
      <trkpt lat="40.2723329421" lon="-5.8613272570">
        <ele>670.18</ele>
        <time>2020-07-16T11:52:13Z</time>
      </trkpt>
      <trkpt lat="40.2723909449" lon="-5.8612203877">
        <ele>669.70</ele>
        <time>2020-07-16T11:52:17Z</time>
      </trkpt>
      <trkpt lat="40.2724367101" lon="-5.8609799948">
        <ele>671.62</ele>
        <time>2020-07-16T11:52:23Z</time>
      </trkpt>
      <trkpt lat="40.2725033462" lon="-5.8608081657">
        <ele>672.58</ele>
        <time>2020-07-16T11:52:29Z</time>
      </trkpt>
      <trkpt lat="40.2725302521" lon="-5.8607372548">
        <ele>673.06</ele>
        <time>2020-07-16T11:52:35Z</time>
      </trkpt>
      <trkpt lat="40.2725300007" lon="-5.8607323095">
        <ele>674.02</ele>
        <time>2020-07-16T11:52:46Z</time>
      </trkpt>
      <trkpt lat="40.2725321800" lon="-5.8607209940">
        <ele>674.50</ele>
        <time>2020-07-16T11:53:01Z</time>
      </trkpt>
      <trkpt lat="40.2725406457" lon="-5.8607371710">
        <ele>674.98</ele>
        <time>2020-07-16T11:53:26Z</time>
      </trkpt>
      <trkpt lat="40.2725339402" lon="-5.8607318904">
        <ele>672.58</ele>
        <time>2020-07-16T11:53:55Z</time>
      </trkpt>
      <trkpt lat="40.2725357842" lon="-5.8607388474">
        <ele>673.06</ele>
        <time>2020-07-16T11:54:22Z</time>
      </trkpt>
      <trkpt lat="40.2725542244" lon="-5.8607328963">
        <ele>675.46</ele>
        <time>2020-07-16T11:54:50Z</time>
      </trkpt>
      <trkpt lat="40.2725552302" lon="-5.8607424516">
        <ele>674.02</ele>
        <time>2020-07-16T11:55:09Z</time>
      </trkpt>
      <trkpt lat="40.2725502849" lon="-5.8607741352">
        <ele>674.50</ele>
        <time>2020-07-16T11:55:26Z</time>
      </trkpt>
      <trkpt lat="40.2725371253" lon="-5.8607751410">
        <ele>676.91</ele>
        <time>2020-07-16T11:55:51Z</time>
      </trkpt>
      <trkpt lat="40.2725317609" lon="-5.8607541025">
        <ele>677.39</ele>
        <time>2020-07-16T11:56:11Z</time>
      </trkpt>
      <trkpt lat="40.2724997420" lon="-5.8607786614">
        <ele>677.87</ele>
        <time>2020-07-16T11:56:34Z</time>
      </trkpt>
      <trkpt lat="40.2724895999" lon="-5.8607328963">
        <ele>679.31</ele>
        <time>2020-07-16T11:56:57Z</time>
      </trkpt>
      <trkpt lat="40.2724719979" lon="-5.8607383445">
        <ele>677.39</ele>
        <time>2020-07-16T11:57:12Z</time>
      </trkpt>
      <trkpt lat="40.2724667173" lon="-5.8607667591">
        <ele>677.87</ele>
        <time>2020-07-16T11:57:32Z</time>
      </trkpt>
      <trkpt lat="40.2724909410" lon="-5.8607631549">
        <ele>676.91</ele>
        <time>2020-07-16T11:57:48Z</time>
      </trkpt>
      <trkpt lat="40.2724894322" lon="-5.8607732970">
        <ele>675.94</ele>
        <time>2020-07-16T11:58:05Z</time>
      </trkpt>
      <trkpt lat="40.2724849898" lon="-5.8607776556">
        <ele>676.42</ele>
        <time>2020-07-16T11:58:17Z</time>
      </trkpt>
      <trkpt lat="40.2724890132" lon="-5.8607768174">
        <ele>676.42</ele>
        <time>2020-07-16T11:58:29Z</time>
      </trkpt>
      <trkpt lat="40.2725593373" lon="-5.8606734686">
        <ele>674.02</ele>
        <time>2020-07-16T11:58:37Z</time>
      </trkpt>
      <trkpt lat="40.2725654561" lon="-5.8606333192">
        <ele>674.02</ele>
        <time>2020-07-16T11:58:45Z</time>
      </trkpt>
      <trkpt lat="40.2725391369" lon="-5.8606148791">
        <ele>673.54</ele>
        <time>2020-07-16T11:59:03Z</time>
      </trkpt>
      <trkpt lat="40.2725364547" lon="-5.8606298827">
        <ele>673.54</ele>
        <time>2020-07-16T11:59:17Z</time>
      </trkpt>
      <trkpt lat="40.2725409809" lon="-5.8606300503">
        <ele>675.94</ele>
        <time>2020-07-16T11:59:34Z</time>
      </trkpt>
      <trkpt lat="40.2725282405" lon="-5.8606173936">
        <ele>678.35</ele>
        <time>2020-07-16T11:59:51Z</time>
      </trkpt>
      <trkpt lat="40.2725134883" lon="-5.8606168069">
        <ele>678.83</ele>
        <time>2020-07-16T12:00:08Z</time>
      </trkpt>
      <trkpt lat="40.2725086268" lon="-5.8606305532">
        <ele>675.46</ele>
        <time>2020-07-16T12:00:36Z</time>
      </trkpt>
      <trkpt lat="40.2725176793" lon="-5.8606477361">
        <ele>674.02</ele>
        <time>2020-07-16T12:00:51Z</time>
      </trkpt>
      <trkpt lat="40.2725197747" lon="-5.8606308047">
        <ele>675.46</ele>
        <time>2020-07-16T12:01:08Z</time>
      </trkpt>
      <trkpt lat="40.2725315094" lon="-5.8605926670">
        <ele>676.91</ele>
        <time>2020-07-16T12:01:19Z</time>
      </trkpt>
      <trkpt lat="40.2725729998" lon="-5.8605256956">
        <ele>677.39</ele>
        <time>2020-07-16T12:01:26Z</time>
      </trkpt>
      <trkpt lat="40.2725814655" lon="-5.8605137933">
        <ele>678.35</ele>
        <time>2020-07-16T12:01:35Z</time>
      </trkpt>
      <trkpt lat="40.2725673001" lon="-5.8605461475">
        <ele>678.83</ele>
        <time>2020-07-16T12:01:41Z</time>
      </trkpt>
      <trkpt lat="40.2725687250" lon="-5.8605728857">
        <ele>677.87</ele>
        <time>2020-07-16T12:01:47Z</time>
      </trkpt>
      <trkpt lat="40.2725732513" lon="-5.8605654258">
        <ele>677.39</ele>
        <time>2020-07-16T12:02:05Z</time>
      </trkpt>
      <trkpt lat="40.2725773584" lon="-5.8605573792">
        <ele>679.79</ele>
        <time>2020-07-16T12:02:25Z</time>
      </trkpt>
      <trkpt lat="40.2725759335" lon="-5.8605786692">
        <ele>680.27</ele>
        <time>2020-07-16T12:02:42Z</time>
      </trkpt>
      <trkpt lat="40.2725740056" lon="-5.8606052399">
        <ele>679.79</ele>
        <time>2020-07-16T12:02:58Z</time>
      </trkpt>
      <trkpt lat="40.2725919429" lon="-5.8605808485">
        <ele>679.79</ele>
        <time>2020-07-16T12:03:17Z</time>
      </trkpt>
      <trkpt lat="40.2725970559" lon="-5.8605881408">
        <ele>680.27</ele>
        <time>2020-07-16T12:03:33Z</time>
      </trkpt>
      <trkpt lat="40.2725906856" lon="-5.8605991211">
        <ele>680.75</ele>
        <time>2020-07-16T12:03:56Z</time>
      </trkpt>
      <trkpt lat="40.2725664619" lon="-5.8605662640">
        <ele>678.83</ele>
        <time>2020-07-16T12:04:23Z</time>
      </trkpt>
      <trkpt lat="40.2725808788" lon="-5.8605494164">
        <ele>678.83</ele>
        <time>2020-07-16T12:04:49Z</time>
      </trkpt>
      <trkpt lat="40.2725759335" lon="-5.8605805971">
        <ele>681.71</ele>
        <time>2020-07-16T12:05:17Z</time>
      </trkpt>
      <trkpt lat="40.2725424897" lon="-5.8606032282">
        <ele>678.83</ele>
        <time>2020-07-16T12:05:46Z</time>
      </trkpt>
      <trkpt lat="40.2725338563" lon="-5.8605843689">
        <ele>679.31</ele>
        <time>2020-07-16T12:06:14Z</time>
      </trkpt>
      <trkpt lat="40.2725410648" lon="-5.8605623245">
        <ele>682.19</ele>
        <time>2020-07-16T12:06:32Z</time>
      </trkpt>
      <trkpt lat="40.2725533862" lon="-5.8605555352">
        <ele>681.23</ele>
        <time>2020-07-16T12:06:57Z</time>
      </trkpt>
      <trkpt lat="40.2725558169" lon="-5.8605833631">
        <ele>680.75</ele>
        <time>2020-07-16T12:07:22Z</time>
      </trkpt>
      <trkpt lat="40.2725627739" lon="-5.8605791721">
        <ele>680.75</ele>
        <time>2020-07-16T12:07:49Z</time>
      </trkpt>
      <trkpt lat="40.2725819685" lon="-5.8605865482">
        <ele>680.27</ele>
        <time>2020-07-16T12:08:13Z</time>
      </trkpt>
      <trkpt lat="40.2726010792" lon="-5.8606031444">
        <ele>676.42</ele>
        <time>2020-07-16T12:08:34Z</time>
      </trkpt>
      <trkpt lat="40.2726102155" lon="-5.8606121130">
        <ele>673.54</ele>
        <time>2020-07-16T12:08:54Z</time>
      </trkpt>
      <trkpt lat="40.2725811303" lon="-5.8605702873">
        <ele>672.10</ele>
        <time>2020-07-16T12:09:25Z</time>
      </trkpt>
      <trkpt lat="40.2725680545" lon="-5.8605800942">
        <ele>671.14</ele>
        <time>2020-07-16T12:09:40Z</time>
      </trkpt>
      <trkpt lat="40.2725637797" lon="-5.8605805133">
        <ele>672.58</ele>
        <time>2020-07-16T12:09:59Z</time>
      </trkpt>
      <trkpt lat="40.2725793701" lon="-5.8605593909">
        <ele>677.39</ele>
        <time>2020-07-16T12:10:21Z</time>
      </trkpt>
      <trkpt lat="40.2725797892" lon="-5.8605717961">
        <ele>680.75</ele>
        <time>2020-07-16T12:10:44Z</time>
      </trkpt>
      <trkpt lat="40.2725513745" lon="-5.8605466504">
        <ele>682.19</ele>
        <time>2020-07-16T12:11:14Z</time>
      </trkpt>
      <trkpt lat="40.2725641150" lon="-5.8605349995">
        <ele>679.31</ele>
        <time>2020-07-16T12:11:34Z</time>
      </trkpt>
      <trkpt lat="40.2725729998" lon="-5.8605836984">
        <ele>677.87</ele>
        <time>2020-07-16T12:11:58Z</time>
      </trkpt>
      <trkpt lat="40.2725647856" lon="-5.8605567086">
        <ele>682.19</ele>
        <time>2020-07-16T12:12:22Z</time>
      </trkpt>
      <trkpt lat="40.2725541405" lon="-5.8605808485">
        <ele>682.19</ele>
        <time>2020-07-16T12:12:43Z</time>
      </trkpt>
      <trkpt lat="40.2725664619" lon="-5.8605774119">
        <ele>683.15</ele>
        <time>2020-07-16T12:13:11Z</time>
      </trkpt>
      <trkpt lat="40.2725707367" lon="-5.8605863806">
        <ele>680.75</ele>
        <time>2020-07-16T12:13:41Z</time>
      </trkpt>
      <trkpt lat="40.2725586668" lon="-5.8605714608">
        <ele>676.91</ele>
        <time>2020-07-16T12:14:14Z</time>
      </trkpt>
      <trkpt lat="40.2725499496" lon="-5.8605871350">
        <ele>680.27</ele>
        <time>2020-07-16T12:14:35Z</time>
      </trkpt>
      <trkpt lat="40.2725531347" lon="-5.8605876379">
        <ele>681.23</ele>
        <time>2020-07-16T12:14:49Z</time>
      </trkpt>
      <trkpt lat="40.2725696471" lon="-5.8605665993">
        <ele>682.67</ele>
        <time>2020-07-16T12:15:15Z</time>
      </trkpt>
      <trkpt lat="40.2725713234" lon="-5.8605578821">
        <ele>681.71</ele>
        <time>2020-07-16T12:15:43Z</time>
      </trkpt>
      <trkpt lat="40.2725553140" lon="-5.8605515957">
        <ele>677.87</ele>
        <time>2020-07-16T12:16:01Z</time>
      </trkpt>
      <trkpt lat="40.2725698147" lon="-5.8605834469">
        <ele>678.35</ele>
        <time>2020-07-16T12:16:27Z</time>
      </trkpt>
      <trkpt lat="40.2725672163" lon="-5.8605743945">
        <ele>677.39</ele>
        <time>2020-07-16T12:16:49Z</time>
      </trkpt>
      <trkpt lat="40.2725621872" lon="-5.8605890628">
        <ele>675.94</ele>
        <time>2020-07-16T12:17:09Z</time>
      </trkpt>
      <trkpt lat="40.2725600917" lon="-5.8605850395">
        <ele>674.02</ele>
        <time>2020-07-16T12:17:30Z</time>
      </trkpt>
      <trkpt lat="40.2725757658" lon="-5.8605427947">
        <ele>676.42</ele>
        <time>2020-07-16T12:17:56Z</time>
      </trkpt>
      <trkpt lat="40.2725704852" lon="-5.8605551161">
        <ele>675.94</ele>
        <time>2020-07-16T12:18:20Z</time>
      </trkpt>
      <trkpt lat="40.2725586668" lon="-5.8605681080">
        <ele>676.91</ele>
        <time>2020-07-16T12:18:40Z</time>
      </trkpt>
      <trkpt lat="40.2725759335" lon="-5.8605754841">
        <ele>675.94</ele>
        <time>2020-07-16T12:19:07Z</time>
      </trkpt>
      <trkpt lat="40.2725890931" lon="-5.8605976962">
        <ele>672.10</ele>
        <time>2020-07-16T12:19:31Z</time>
      </trkpt>
      <trkpt lat="40.2725871652" lon="-5.8605689462">
        <ele>670.18</ele>
        <time>2020-07-16T12:19:55Z</time>
      </trkpt>
      <trkpt lat="40.2725804597" lon="-5.8605561219">
        <ele>672.58</ele>
        <time>2020-07-16T12:20:21Z</time>
      </trkpt>
      <trkpt lat="40.2725657076" lon="-5.8605323173">
        <ele>672.58</ele>
        <time>2020-07-16T12:20:49Z</time>
      </trkpt>
      <trkpt lat="40.2725862432" lon="-5.8605300542">
        <ele>673.06</ele>
        <time>2020-07-16T12:21:13Z</time>
      </trkpt>
      <trkpt lat="40.2725724131" lon="-5.8605111111">
        <ele>672.58</ele>
        <time>2020-07-16T12:21:37Z</time>
      </trkpt>
      <trkpt lat="40.2725717425" lon="-5.8605129551">
        <ele>670.66</ele>
        <time>2020-07-16T12:22:01Z</time>
      </trkpt>
      <trkpt lat="40.2725891769" lon="-5.8605775796">
        <ele>669.70</ele>
        <time>2020-07-16T12:22:24Z</time>
      </trkpt>
      <trkpt lat="40.2725958824" lon="-5.8605850395">
        <ele>671.62</ele>
        <time>2020-07-16T12:22:39Z</time>
      </trkpt>
      <trkpt lat="40.2725914400" lon="-5.8605645876">
        <ele>673.54</ele>
        <time>2020-07-16T12:22:58Z</time>
      </trkpt>
      <trkpt lat="40.2725761849" lon="-5.8605531882">
        <ele>676.42</ele>
        <time>2020-07-16T12:23:15Z</time>
      </trkpt>
      <trkpt lat="40.2725672163" lon="-5.8605434652">
        <ele>678.35</ele>
        <time>2020-07-16T12:23:35Z</time>
      </trkpt>
      <trkpt lat="40.2725534700" lon="-5.8605600614">
        <ele>676.91</ele>
        <time>2020-07-16T12:23:52Z</time>
      </trkpt>
      <trkpt lat="40.2725578286" lon="-5.8605866320">
        <ele>675.46</ele>
        <time>2020-07-16T12:24:11Z</time>
      </trkpt>
      <trkpt lat="40.2725652885" lon="-5.8605991211">
        <ele>673.54</ele>
        <time>2020-07-16T12:24:35Z</time>
      </trkpt>
      <trkpt lat="40.2725584153" lon="-5.8606002107">
        <ele>673.54</ele>
        <time>2020-07-16T12:24:56Z</time>
      </trkpt>
      <trkpt lat="40.2725484408" lon="-5.8605755679">
        <ele>671.62</ele>
        <time>2020-07-16T12:25:16Z</time>
      </trkpt>
      <trkpt lat="40.2725548111" lon="-5.8605437167">
        <ele>671.14</ele>
        <time>2020-07-16T12:25:36Z</time>
      </trkpt>
      <trkpt lat="40.2725740056" lon="-5.8605546970">
        <ele>670.66</ele>
        <time>2020-07-16T12:25:57Z</time>
      </trkpt>
      <trkpt lat="40.2725807950" lon="-5.8605735563">
        <ele>670.18</ele>
        <time>2020-07-16T12:26:17Z</time>
      </trkpt>
      <trkpt lat="40.2725927811" lon="-5.8605651744">
        <ele>670.66</ele>
        <time>2020-07-16T12:26:35Z</time>
      </trkpt>
      <trkpt lat="40.2725807112" lon="-5.8605624922">
        <ele>674.50</ele>
        <time>2020-07-16T12:27:06Z</time>
      </trkpt>
      <trkpt lat="40.2725708205" lon="-5.8605289645">
        <ele>674.98</ele>
        <time>2020-07-16T12:27:32Z</time>
      </trkpt>
      <trkpt lat="40.2725549787" lon="-5.8605394419">
        <ele>675.46</ele>
        <time>2020-07-16T12:27:53Z</time>
      </trkpt>
      <trkpt lat="40.2725879196" lon="-5.8605591394">
        <ele>675.94</ele>
        <time>2020-07-16T12:28:19Z</time>
      </trkpt>
      <trkpt lat="40.2725776099" lon="-5.8605336584">
        <ele>676.91</ele>
        <time>2020-07-16T12:28:39Z</time>
      </trkpt>
      <trkpt lat="40.2725648694" lon="-5.8605245221">
        <ele>673.54</ele>
        <time>2020-07-16T12:29:03Z</time>
      </trkpt>
      <trkpt lat="40.2725637797" lon="-5.8605479915">
        <ele>672.58</ele>
        <time>2020-07-16T12:29:23Z</time>
      </trkpt>
      <trkpt lat="40.2725591697" lon="-5.8605680242">
        <ele>672.58</ele>
        <time>2020-07-16T12:29:40Z</time>
      </trkpt>
      <trkpt lat="40.2725794539" lon="-5.8605547808">
        <ele>674.98</ele>
        <time>2020-07-16T12:29:57Z</time>
      </trkpt>
      <trkpt lat="40.2725648694" lon="-5.8604999632">
        <ele>676.91</ele>
        <time>2020-07-16T12:30:19Z</time>
      </trkpt>
      <trkpt lat="40.2725496981" lon="-5.8604982030">
        <ele>675.46</ele>
        <time>2020-07-16T12:30:37Z</time>
      </trkpt>
      <trkpt lat="40.2725600079" lon="-5.8605093509">
        <ele>675.46</ele>
        <time>2020-07-16T12:30:53Z</time>
      </trkpt>
      <trkpt lat="40.2725530509" lon="-5.8605228458">
        <ele>676.42</ele>
        <time>2020-07-16T12:31:11Z</time>
      </trkpt>
      <trkpt lat="40.2725446690" lon="-5.8605308086">
        <ele>677.87</ele>
        <time>2020-07-16T12:31:24Z</time>
      </trkpt>
      <trkpt lat="40.2725472674" lon="-5.8605610672">
        <ele>677.39</ele>
        <time>2020-07-16T12:31:45Z</time>
      </trkpt>
      <trkpt lat="40.2725527994" lon="-5.8605721314">
        <ele>677.87</ele>
        <time>2020-07-16T12:32:02Z</time>
      </trkpt>
      <trkpt lat="40.2725501172" lon="-5.8605722990">
        <ele>677.87</ele>
        <time>2020-07-16T12:32:20Z</time>
      </trkpt>
      <trkpt lat="40.2725544758" lon="-5.8605572954">
        <ele>678.83</ele>
        <time>2020-07-16T12:32:42Z</time>
      </trkpt>
      <trkpt lat="40.2725774422" lon="-5.8605621569">
        <ele>678.35</ele>
        <time>2020-07-16T12:33:08Z</time>
      </trkpt>
      <trkpt lat="40.2725741733" lon="-5.8605721314">
        <ele>677.87</ele>
        <time>2020-07-16T12:33:32Z</time>
      </trkpt>
      <trkpt lat="40.2725856565" lon="-5.8605749812">
        <ele>679.31</ele>
        <time>2020-07-16T12:33:57Z</time>
      </trkpt>
      <trkpt lat="40.2725761011" lon="-5.8605878055">
        <ele>678.35</ele>
        <time>2020-07-16T12:34:18Z</time>
      </trkpt>
      <trkpt lat="40.2725578286" lon="-5.8605743945">
        <ele>677.87</ele>
        <time>2020-07-16T12:34:40Z</time>
      </trkpt>
      <trkpt lat="40.2725607622" lon="-5.8605643362">
        <ele>678.35</ele>
        <time>2020-07-16T12:34:52Z</time>
      </trkpt>
      <trkpt lat="40.2725543082" lon="-5.8605665155">
        <ele>679.31</ele>
        <time>2020-07-16T12:35:06Z</time>
      </trkpt>
      <trkpt lat="40.2725501172" lon="-5.8605484106">
        <ele>677.87</ele>
        <time>2020-07-16T12:35:27Z</time>
      </trkpt>
      <trkpt lat="40.2725672163" lon="-5.8605294675">
        <ele>677.39</ele>
        <time>2020-07-16T12:35:54Z</time>
      </trkpt>
      <trkpt lat="40.2725844830" lon="-5.8605645038">
        <ele>676.91</ele>
        <time>2020-07-16T12:36:21Z</time>
      </trkpt>
      <trkpt lat="40.2725829743" lon="-5.8605590556">
        <ele>677.39</ele>
        <time>2020-07-16T12:36:35Z</time>
      </trkpt>
      <trkpt lat="40.2725800406" lon="-5.8605811000">
        <ele>676.91</ele>
        <time>2020-07-16T12:36:49Z</time>
      </trkpt>
      <trkpt lat="40.2725834772" lon="-5.8605769090">
        <ele>677.39</ele>
        <time>2020-07-16T12:37:13Z</time>
      </trkpt>
      <trkpt lat="40.2725815494" lon="-5.8605398610">
        <ele>679.79</ele>
        <time>2020-07-16T12:37:38Z</time>
      </trkpt>
      <trkpt lat="40.2725718264" lon="-5.8605345804">
        <ele>676.42</ele>
        <time>2020-07-16T12:37:56Z</time>
      </trkpt>
      <trkpt lat="40.2725796215" lon="-5.8605316468">
        <ele>674.98</ele>
        <time>2020-07-16T12:38:13Z</time>
      </trkpt>
      <trkpt lat="40.2725747600" lon="-5.8605384361">
        <ele>676.91</ele>
        <time>2020-07-16T12:38:31Z</time>
      </trkpt>
      <trkpt lat="40.2725725807" lon="-5.8605251089">
        <ele>678.35</ele>
        <time>2020-07-16T12:38:54Z</time>
      </trkpt>
      <trkpt lat="40.2725723293" lon="-5.8605324849">
        <ele>678.83</ele>
        <time>2020-07-16T12:39:10Z</time>
      </trkpt>
      <trkpt lat="40.2725611813" lon="-5.8605106920">
        <ele>675.94</ele>
        <time>2020-07-16T12:39:34Z</time>
      </trkpt>
      <trkpt lat="40.2725606784" lon="-5.8605176490">
        <ele>677.39</ele>
        <time>2020-07-16T12:39:54Z</time>
      </trkpt>
      <trkpt lat="40.2725560684" lon="-5.8605272882">
        <ele>679.79</ele>
        <time>2020-07-16T12:40:10Z</time>
      </trkpt>
      <trkpt lat="40.2725552302" lon="-5.8605586365">
        <ele>680.75</ele>
        <time>2020-07-16T12:40:25Z</time>
      </trkpt>
      <trkpt lat="40.2725590020" lon="-5.8605615702">
        <ele>680.27</ele>
        <time>2020-07-16T12:40:32Z</time>
      </trkpt>
      <trkpt lat="40.2725527994" lon="-5.8605483267">
        <ele>680.27</ele>
        <time>2020-07-16T12:40:39Z</time>
      </trkpt>
      <trkpt lat="40.2725182660" lon="-5.8605664317">
        <ele>680.75</ele>
        <time>2020-07-16T12:40:45Z</time>
      </trkpt>
      <trkpt lat="40.2724918630" lon="-5.8606220875">
        <ele>679.31</ele>
        <time>2020-07-16T12:40:49Z</time>
      </trkpt>
      <trkpt lat="40.2723409887" lon="-5.8606115263">
        <ele>678.35</ele>
        <time>2020-07-16T12:40:56Z</time>
      </trkpt>
      <trkpt lat="40.2721434273" lon="-5.8605210856">
        <ele>678.83</ele>
        <time>2020-07-16T12:41:04Z</time>
      </trkpt>
      <trkpt lat="40.2719560917" lon="-5.8604423795">
        <ele>679.31</ele>
        <time>2020-07-16T12:41:12Z</time>
      </trkpt>
      <trkpt lat="40.2719290182" lon="-5.8604363445">
        <ele>679.31</ele>
        <time>2020-07-16T12:41:13Z</time>
      </trkpt>
      <trkpt lat="40.2718496416" lon="-5.8605136257">
        <ele>677.87</ele>
        <time>2020-07-16T12:41:17Z</time>
      </trkpt>
      <trkpt lat="40.2717662416" lon="-5.8608720358">
        <ele>674.98</ele>
        <time>2020-07-16T12:41:26Z</time>
      </trkpt>
      <trkpt lat="40.2717324626" lon="-5.8610946592">
        <ele>674.02</ele>
        <time>2020-07-16T12:41:32Z</time>
      </trkpt>
      <trkpt lat="40.2716733702" lon="-5.8613301907">
        <ele>674.50</ele>
        <time>2020-07-16T12:41:39Z</time>
      </trkpt>
      <trkpt lat="40.2716366574" lon="-5.8614892792">
        <ele>674.50</ele>
        <time>2020-07-16T12:41:45Z</time>
      </trkpt>
      <trkpt lat="40.2715405170" lon="-5.8615722600">
        <ele>674.50</ele>
        <time>2020-07-16T12:41:51Z</time>
      </trkpt>
      <trkpt lat="40.2713577915" lon="-5.8615245670">
        <ele>675.46</ele>
        <time>2020-07-16T12:41:58Z</time>
      </trkpt>
      <trkpt lat="40.2710974496" lon="-5.8614327013">
        <ele>676.42</ele>
        <time>2020-07-16T12:42:08Z</time>
      </trkpt>
      <trkpt lat="40.2708394546" lon="-5.8613569289">
        <ele>678.35</ele>
        <time>2020-07-16T12:42:19Z</time>
      </trkpt>
      <trkpt lat="40.2708386164" lon="-5.8613487147">
        <ele>678.35</ele>
        <time>2020-07-16T12:42:25Z</time>
      </trkpt>
      <trkpt lat="40.2708381135" lon="-5.8613637183">
        <ele>680.27</ele>
        <time>2020-07-16T12:42:36Z</time>
      </trkpt>
      <trkpt lat="40.2708358504" lon="-5.8613537438">
        <ele>679.79</ele>
        <time>2020-07-16T12:42:44Z</time>
      </trkpt>
      <trkpt lat="40.2708039153" lon="-5.8613439370">
        <ele>679.79</ele>
        <time>2020-07-16T12:42:48Z</time>
      </trkpt>
      <trkpt lat="40.2707822900" lon="-5.8613324538">
        <ele>679.79</ele>
        <time>2020-07-16T12:42:50Z</time>
      </trkpt>
      <trkpt lat="40.2706641052" lon="-5.8612731099">
        <ele>681.23</ele>
        <time>2020-07-16T12:42:58Z</time>
      </trkpt>
      <trkpt lat="40.2704997361" lon="-5.8611892909">
        <ele>682.67</ele>
        <time>2020-07-16T12:43:06Z</time>
      </trkpt>
      <trkpt lat="40.2703328524" lon="-5.8611370716">
        <ele>685.08</ele>
        <time>2020-07-16T12:43:13Z</time>
      </trkpt>
      <trkpt lat="40.2702012565" lon="-5.8610833436">
        <ele>687.00</ele>
        <time>2020-07-16T12:43:20Z</time>
      </trkpt>
      <trkpt lat="40.2700396534" lon="-5.8609900530">
        <ele>687.48</ele>
        <time>2020-07-16T12:43:29Z</time>
      </trkpt>
      <trkpt lat="40.2699493803" lon="-5.8608687669">
        <ele>689.88</ele>
        <time>2020-07-16T12:43:36Z</time>
      </trkpt>
      <trkpt lat="40.2698824927" lon="-5.8607794996">
        <ele>691.33</ele>
        <time>2020-07-16T12:43:41Z</time>
      </trkpt>
      <trkpt lat="40.2698739432" lon="-5.8605970256">
        <ele>690.84</ele>
        <time>2020-07-16T12:43:48Z</time>
      </trkpt>
      <trkpt lat="40.2699496318" lon="-5.8604188263">
        <ele>690.84</ele>
        <time>2020-07-16T12:43:55Z</time>
      </trkpt>
      <trkpt lat="40.2700564172" lon="-5.8601843845">
        <ele>691.33</ele>
        <time>2020-07-16T12:44:04Z</time>
      </trkpt>
      <trkpt lat="40.2700613625" lon="-5.8601618372">
        <ele>691.33</ele>
        <time>2020-07-16T12:44:05Z</time>
      </trkpt>
      <trkpt lat="40.2700554952" lon="-5.8601180837">
        <ele>690.84</ele>
        <time>2020-07-16T12:44:07Z</time>
      </trkpt>
      <trkpt lat="40.2699797228" lon="-5.8600344323">
        <ele>690.84</ele>
        <time>2020-07-16T12:44:14Z</time>
      </trkpt>
      <trkpt lat="40.2699295990" lon="-5.8599651977">
        <ele>689.88</ele>
        <time>2020-07-16T12:44:22Z</time>
      </trkpt>
      <trkpt lat="40.2699603606" lon="-5.8598532993">
        <ele>689.88</ele>
        <time>2020-07-16T12:44:28Z</time>
      </trkpt>
      <trkpt lat="40.2700299304" lon="-5.8596513793">
        <ele>689.88</ele>
        <time>2020-07-16T12:44:35Z</time>
      </trkpt>
      <trkpt lat="40.2701361291" lon="-5.8593279216">
        <ele>689.88</ele>
        <time>2020-07-16T12:44:45Z</time>
      </trkpt>
      <trkpt lat="40.2702511288" lon="-5.8589799050">
        <ele>689.88</ele>
        <time>2020-07-16T12:44:53Z</time>
      </trkpt>
      <trkpt lat="40.2703825571" lon="-5.8586023003">
        <ele>688.44</ele>
        <time>2020-07-16T12:45:02Z</time>
      </trkpt>
      <trkpt lat="40.2705061901" lon="-5.8582459856">
        <ele>688.92</ele>
        <time>2020-07-16T12:45:10Z</time>
      </trkpt>
      <trkpt lat="40.2706446592" lon="-5.8578423131">
        <ele>688.92</ele>
        <time>2020-07-16T12:45:19Z</time>
      </trkpt>
      <trkpt lat="40.2707881574" lon="-5.8573702443">
        <ele>688.44</ele>
        <time>2020-07-16T12:45:29Z</time>
      </trkpt>
      <trkpt lat="40.2708908357" lon="-5.8570135105">
        <ele>688.92</ele>
        <time>2020-07-16T12:45:38Z</time>
      </trkpt>
      <trkpt lat="40.2709284704" lon="-5.8568786457">
        <ele>688.92</ele>
        <time>2020-07-16T12:45:45Z</time>
      </trkpt>
      <trkpt lat="40.2710182406" lon="-5.8566002827">
        <ele>688.92</ele>
        <time>2020-07-16T12:45:53Z</time>
      </trkpt>
      <trkpt lat="40.2711265348" lon="-5.8562562056">
        <ele>688.92</ele>
        <time>2020-07-16T12:46:02Z</time>
      </trkpt>
      <trkpt lat="40.2712914906" lon="-5.8557704743">
        <ele>689.88</ele>
        <time>2020-07-16T12:46:13Z</time>
      </trkpt>
      <trkpt lat="40.2714425325" lon="-5.8553191926">
        <ele>690.84</ele>
        <time>2020-07-16T12:46:23Z</time>
      </trkpt>
      <trkpt lat="40.2715601306" lon="-5.8549592737">
        <ele>690.84</ele>
        <time>2020-07-16T12:46:31Z</time>
      </trkpt>
      <trkpt lat="40.2716597077" lon="-5.8546713553">
        <ele>690.84</ele>
        <time>2020-07-16T12:46:38Z</time>
      </trkpt>
      <trkpt lat="40.2717457898" lon="-5.8543922380">
        <ele>691.33</ele>
        <time>2020-07-16T12:46:45Z</time>
      </trkpt>
      <trkpt lat="40.2718704287" lon="-5.8540399466">
        <ele>692.77</ele>
        <time>2020-07-16T12:46:54Z</time>
      </trkpt>
      <trkpt lat="40.2720119990" lon="-5.8536433987">
        <ele>693.25</ele>
        <time>2020-07-16T12:47:04Z</time>
      </trkpt>
      <trkpt lat="40.2721712552" lon="-5.8532861620">
        <ele>694.21</ele>
        <time>2020-07-16T12:47:14Z</time>
      </trkpt>
      <trkpt lat="40.2723823953" lon="-5.8529158495">
        <ele>694.69</ele>
        <time>2020-07-16T12:47:25Z</time>
      </trkpt>
      <trkpt lat="40.2725971397" lon="-5.8526109159">
        <ele>696.13</ele>
        <time>2020-07-16T12:47:35Z</time>
      </trkpt>
      <trkpt lat="40.2728159912" lon="-5.8523819223">
        <ele>696.61</ele>
        <time>2020-07-16T12:47:44Z</time>
      </trkpt>
      <trkpt lat="40.2729621716" lon="-5.8522351552">
        <ele>697.57</ele>
        <time>2020-07-16T12:47:52Z</time>
      </trkpt>
      <trkpt lat="40.2729868144" lon="-5.8522322215">
        <ele>697.57</ele>
        <time>2020-07-16T12:47:59Z</time>
      </trkpt>
      <trkpt lat="40.2729747444" lon="-5.8522334788">
        <ele>697.57</ele>
        <time>2020-07-16T12:48:09Z</time>
      </trkpt>
      <trkpt lat="40.2729868982" lon="-5.8522315510">
        <ele>697.57</ele>
        <time>2020-07-16T12:48:23Z</time>
      </trkpt>
      <trkpt lat="40.2730138879" lon="-5.8522000350">
        <ele>697.57</ele>
        <time>2020-07-16T12:48:28Z</time>
      </trkpt>
      <trkpt lat="40.2730655205" lon="-5.8521477319">
        <ele>697.57</ele>
        <time>2020-07-16T12:48:32Z</time>
      </trkpt>
      <trkpt lat="40.2733396087" lon="-5.8519667666">
        <ele>698.53</ele>
        <time>2020-07-16T12:48:43Z</time>
      </trkpt>
      <trkpt lat="40.2735669259" lon="-5.8518525213">
        <ele>699.98</ele>
        <time>2020-07-16T12:48:52Z</time>
      </trkpt>
      <trkpt lat="40.2737143636" lon="-5.8517729770">
        <ele>699.50</ele>
        <time>2020-07-16T12:49:01Z</time>
      </trkpt>
      <trkpt lat="40.2737387549" lon="-5.8517678641">
        <ele>699.50</ele>
        <time>2020-07-16T12:49:03Z</time>
      </trkpt>
      <trkpt lat="40.2738902997" lon="-5.8517288044">
        <ele>700.46</ele>
        <time>2020-07-16T12:49:13Z</time>
      </trkpt>
      <trkpt lat="40.2740506455" lon="-5.8516894095">
        <ele>700.46</ele>
        <time>2020-07-16T12:49:22Z</time>
      </trkpt>
      <trkpt lat="40.2741702553" lon="-5.8516558819">
        <ele>700.94</ele>
        <time>2020-07-16T12:49:30Z</time>
      </trkpt>
      <trkpt lat="40.2741904557" lon="-5.8516578097">
        <ele>701.42</ele>
        <time>2020-07-16T12:49:38Z</time>
      </trkpt>
      <trkpt lat="40.2742164396" lon="-5.8516590670">
        <ele>701.90</ele>
        <time>2020-07-16T12:49:50Z</time>
      </trkpt>
      <trkpt lat="40.2742321137" lon="-5.8516620845">
        <ele>701.90</ele>
        <time>2020-07-16T12:49:51Z</time>
      </trkpt>
      <trkpt lat="40.2742519788" lon="-5.8516656049">
        <ele>702.38</ele>
        <time>2020-07-16T12:49:52Z</time>
      </trkpt>
      <trkpt lat="40.2744162641" lon="-5.8516455721">
        <ele>702.38</ele>
        <time>2020-07-16T12:50:00Z</time>
      </trkpt>
      <trkpt lat="40.2746311761" lon="-5.8516563848">
        <ele>702.86</ele>
        <time>2020-07-16T12:50:08Z</time>
      </trkpt>
      <trkpt lat="40.2748784423" lon="-5.8517073467">
        <ele>702.86</ele>
        <time>2020-07-16T12:50:16Z</time>
      </trkpt>
      <trkpt lat="40.2752569690" lon="-5.8518260345">
        <ele>704.78</ele>
        <time>2020-07-16T12:50:27Z</time>
      </trkpt>
      <trkpt lat="40.2756444644" lon="-5.8519865479">
        <ele>705.26</ele>
        <time>2020-07-16T12:50:38Z</time>
      </trkpt>
      <trkpt lat="40.2759570256" lon="-5.8521077503">
        <ele>706.23</ele>
        <time>2020-07-16T12:50:48Z</time>
      </trkpt>
      <trkpt lat="40.2762425132" lon="-5.8522312157">
        <ele>706.71</ele>
        <time>2020-07-16T12:50:58Z</time>
      </trkpt>
      <trkpt lat="40.2765132487" lon="-5.8523129392">
        <ele>708.15</ele>
        <time>2020-07-16T12:51:07Z</time>
      </trkpt>
      <trkpt lat="40.2768441662" lon="-5.8523626439">
        <ele>708.15</ele>
        <time>2020-07-16T12:51:17Z</time>
      </trkpt>
      <trkpt lat="40.2771233674" lon="-5.8523645718">
        <ele>708.15</ele>
        <time>2020-07-16T12:51:26Z</time>
      </trkpt>
      <trkpt lat="40.2774995472" lon="-5.8523089997">
        <ele>710.07</ele>
        <time>2020-07-16T12:51:38Z</time>
      </trkpt>
      <trkpt lat="40.2777251042" lon="-5.8522333950">
        <ele>709.59</ele>
        <time>2020-07-16T12:51:46Z</time>
      </trkpt>
      <trkpt lat="40.2779509127" lon="-5.8521380927">
        <ele>709.11</ele>
        <time>2020-07-16T12:51:53Z</time>
      </trkpt>
      <trkpt lat="40.2782879490" lon="-5.8519393578">
        <ele>710.07</ele>
        <time>2020-07-16T12:52:04Z</time>
      </trkpt>
      <trkpt lat="40.2786347084" lon="-5.8516570553">
        <ele>710.55</ele>
        <time>2020-07-16T12:52:16Z</time>
      </trkpt>
      <trkpt lat="40.2788391430" lon="-5.8514416404">
        <ele>711.51</ele>
        <time>2020-07-16T12:52:24Z</time>
      </trkpt>
      <trkpt lat="40.2791470941" lon="-5.8510806318">
        <ele>711.99</ele>
        <time>2020-07-16T12:52:36Z</time>
      </trkpt>
      <trkpt lat="40.2794917580" lon="-5.8506668173">
        <ele>712.47</ele>
        <time>2020-07-16T12:52:50Z</time>
      </trkpt>
      <trkpt lat="40.2797755692" lon="-5.8503219020">
        <ele>713.92</ele>
        <time>2020-07-16T12:53:02Z</time>
      </trkpt>
      <trkpt lat="40.2800031379" lon="-5.8500623982">
        <ele>714.88</ele>
        <time>2020-07-16T12:53:12Z</time>
      </trkpt>
      <trkpt lat="40.2803149447" lon="-5.8496987913">
        <ele>716.32</ele>
        <time>2020-07-16T12:53:25Z</time>
      </trkpt>
      <trkpt lat="40.2803553455" lon="-5.8496538643">
        <ele>716.80</ele>
        <time>2020-07-16T12:53:31Z</time>
      </trkpt>
      <trkpt lat="40.2803601231" lon="-5.8496460691">
        <ele>717.28</ele>
        <time>2020-07-16T12:53:42Z</time>
      </trkpt>
      <trkpt lat="40.2803690080" lon="-5.8496480808">
        <ele>716.32</ele>
        <time>2020-07-16T12:53:55Z</time>
      </trkpt>
      <trkpt lat="40.2803673316" lon="-5.8496497571">
        <ele>716.80</ele>
        <time>2020-07-16T12:54:08Z</time>
      </trkpt>
      <trkpt lat="40.2803645656" lon="-5.8496542834">
        <ele>717.28</ele>
        <time>2020-07-16T12:54:23Z</time>
      </trkpt>
      <trkpt lat="40.2803579438" lon="-5.8496521879">
        <ele>717.28</ele>
        <time>2020-07-16T12:54:41Z</time>
      </trkpt>
      <trkpt lat="40.2803727798" lon="-5.8496487513">
        <ele>715.84</ele>
        <time>2020-07-16T12:54:59Z</time>
      </trkpt>
      <trkpt lat="40.2803772222" lon="-5.8496425487">
        <ele>715.84</ele>
        <time>2020-07-16T12:55:10Z</time>
      </trkpt>
      <trkpt lat="40.2803783119" lon="-5.8496220969">
        <ele>715.36</ele>
        <time>2020-07-16T12:55:25Z</time>
      </trkpt>
      <trkpt lat="40.2804799005" lon="-5.8495110366">
        <ele>716.32</ele>
        <time>2020-07-16T12:55:32Z</time>
      </trkpt>
      <trkpt lat="40.2806147654" lon="-5.8493592404">
        <ele>718.72</ele>
        <time>2020-07-16T12:55:39Z</time>
      </trkpt>
      <trkpt lat="40.2807899471" lon="-5.8491530456">
        <ele>719.68</ele>
        <time>2020-07-16T12:55:47Z</time>
      </trkpt>
      <trkpt lat="40.2809690684" lon="-5.8489393909">
        <ele>723.05</ele>
        <time>2020-07-16T12:55:55Z</time>
      </trkpt>
      <trkpt lat="40.2811372094" lon="-5.8487433381">
        <ele>725.45</ele>
        <time>2020-07-16T12:56:02Z</time>
      </trkpt>
      <trkpt lat="40.2814181708" lon="-5.8483940642">
        <ele>724.97</ele>
        <time>2020-07-16T12:56:13Z</time>
      </trkpt>
      <trkpt lat="40.2816587314" lon="-5.8481103368">
        <ele>724.97</ele>
        <time>2020-07-16T12:56:22Z</time>
      </trkpt>
      <trkpt lat="40.2818640880" lon="-5.8478774037">
        <ele>725.45</ele>
        <time>2020-07-16T12:56:30Z</time>
      </trkpt>
      <trkpt lat="40.2821541019" lon="-5.8475004695">
        <ele>726.41</ele>
        <time>2020-07-16T12:56:42Z</time>
      </trkpt>
      <trkpt lat="40.2823702712" lon="-5.8471843041">
        <ele>726.89</ele>
        <time>2020-07-16T12:56:52Z</time>
      </trkpt>
      <trkpt lat="40.2824889589" lon="-5.8469651174">
        <ele>726.41</ele>
        <time>2020-07-16T12:56:59Z</time>
      </trkpt>
      <trkpt lat="40.2826515678" lon="-5.8466550708">
        <ele>726.41</ele>
        <time>2020-07-16T12:57:08Z</time>
      </trkpt>
      <trkpt lat="40.2827954013" lon="-5.8463342115">
        <ele>725.93</ele>
        <time>2020-07-16T12:57:17Z</time>
      </trkpt>
      <trkpt lat="40.2829661407" lon="-5.8459005319">
        <ele>725.45</ele>
        <time>2020-07-16T12:57:28Z</time>
      </trkpt>
      <trkpt lat="40.2831793763" lon="-5.8453913312">
        <ele>725.45</ele>
        <time>2020-07-16T12:57:41Z</time>
      </trkpt>
      <trkpt lat="40.2833684720" lon="-5.8449536283">
        <ele>726.89</ele>
        <time>2020-07-16T12:57:53Z</time>
      </trkpt>
      <trkpt lat="40.2834776044" lon="-5.8447004948">
        <ele>727.37</ele>
        <time>2020-07-16T12:58:00Z</time>
      </trkpt>
      <trkpt lat="40.2836690471" lon="-5.8443373907">
        <ele>727.86</ele>
        <time>2020-07-16T12:58:10Z</time>
      </trkpt>
      <trkpt lat="40.2838540357" lon="-5.8440433536">
        <ele>727.37</ele>
        <time>2020-07-16T12:58:18Z</time>
      </trkpt>
      <trkpt lat="40.2839955222" lon="-5.8438635617">
        <ele>726.89</ele>
        <time>2020-07-16T12:58:24Z</time>
      </trkpt>
      <trkpt lat="40.2841664292" lon="-5.8436819259">
        <ele>726.89</ele>
        <time>2020-07-16T12:58:30Z</time>
      </trkpt>
      <trkpt lat="40.2844069060" lon="-5.8434704505">
        <ele>727.86</ele>
        <time>2020-07-16T12:58:38Z</time>
      </trkpt>
      <trkpt lat="40.2846254222" lon="-5.8433126193">
        <ele>728.34</ele>
        <time>2020-07-16T12:58:45Z</time>
      </trkpt>
      <trkpt lat="40.2848997619" lon="-5.8431598172">
        <ele>729.78</ele>
        <time>2020-07-16T12:58:53Z</time>
      </trkpt>
      <trkpt lat="40.2852087189" lon="-5.8430402074">
        <ele>729.78</ele>
        <time>2020-07-16T12:59:01Z</time>
      </trkpt>
      <trkpt lat="40.2855575737" lon="-5.8429662790">
        <ele>730.26</ele>
        <time>2020-07-16T12:59:10Z</time>
      </trkpt>
      <trkpt lat="40.2858254593" lon="-5.8429646865">
        <ele>731.22</ele>
        <time>2020-07-16T12:59:17Z</time>
      </trkpt>
      <trkpt lat="40.2861698717" lon="-5.8430005610">
        <ele>732.18</ele>
        <time>2020-07-16T12:59:26Z</time>
      </trkpt>
      <trkpt lat="40.2865293715" lon="-5.8431000542">
        <ele>733.62</ele>
        <time>2020-07-16T12:59:35Z</time>
      </trkpt>
      <trkpt lat="40.2868825011" lon="-5.8432489168">
        <ele>733.14</ele>
        <time>2020-07-16T12:59:45Z</time>
      </trkpt>
      <trkpt lat="40.2871922962" lon="-5.8434536029">
        <ele>732.66</ele>
        <time>2020-07-16T12:59:55Z</time>
      </trkpt>
      <trkpt lat="40.2875127364" lon="-5.8437403478">
        <ele>732.66</ele>
        <time>2020-07-16T13:00:06Z</time>
      </trkpt>
      <trkpt lat="40.2877400536" lon="-5.8440109156">
        <ele>732.18</ele>
        <time>2020-07-16T13:00:15Z</time>
      </trkpt>
      <trkpt lat="40.2879977133" lon="-5.8444023505">
        <ele>732.18</ele>
        <time>2020-07-16T13:00:27Z</time>
      </trkpt>
      <trkpt lat="40.2881568857" lon="-5.8447667956">
        <ele>733.14</ele>
        <time>2020-07-16T13:00:37Z</time>
      </trkpt>
      <trkpt lat="40.2882799320" lon="-5.8451130521">
        <ele>734.10</ele>
        <time>2020-07-16T13:00:46Z</time>
      </trkpt>
      <trkpt lat="40.2883950155" lon="-5.8454708755">
        <ele>735.07</ele>
        <time>2020-07-16T13:00:55Z</time>
      </trkpt>
      <trkpt lat="40.2885267790" lon="-5.8458577003">
        <ele>737.47</ele>
        <time>2020-07-16T13:01:05Z</time>
      </trkpt>
      <trkpt lat="40.2886196505" lon="-5.8461344708">
        <ele>738.91</ele>
        <time>2020-07-16T13:01:13Z</time>
      </trkpt>
      <trkpt lat="40.2887180541" lon="-5.8464551624">
        <ele>738.43</ele>
        <time>2020-07-16T13:01:21Z</time>
      </trkpt>
      <trkpt lat="40.2888240013" lon="-5.8468028437">
        <ele>739.39</ele>
        <time>2020-07-16T13:01:30Z</time>
      </trkpt>
      <trkpt lat="40.2889296971" lon="-5.8471614216">
        <ele>738.91</ele>
        <time>2020-07-16T13:01:39Z</time>
      </trkpt>
      <trkpt lat="40.2890518215" lon="-5.8475764934">
        <ele>738.43</ele>
        <time>2020-07-16T13:01:50Z</time>
      </trkpt>
      <trkpt lat="40.2891394962" lon="-5.8478498273">
        <ele>738.43</ele>
        <time>2020-07-16T13:01:58Z</time>
      </trkpt>
      <trkpt lat="40.2892285120" lon="-5.8481558505">
        <ele>739.87</ele>
        <time>2020-07-16T13:02:07Z</time>
      </trkpt>
      <trkpt lat="40.2893236466" lon="-5.8484580182">
        <ele>741.31</ele>
        <time>2020-07-16T13:02:16Z</time>
      </trkpt>
      <trkpt lat="40.2893986646" lon="-5.8487037756">
        <ele>743.24</ele>
        <time>2020-07-16T13:02:24Z</time>
      </trkpt>
      <trkpt lat="40.2894882672" lon="-5.8490202762">
        <ele>742.76</ele>
        <time>2020-07-16T13:02:33Z</time>
      </trkpt>
      <trkpt lat="40.2895620279" lon="-5.8494518604">
        <ele>742.28</ele>
        <time>2020-07-16T13:02:45Z</time>
      </trkpt>
      <trkpt lat="40.2896038536" lon="-5.8498692792">
        <ele>742.28</ele>
        <time>2020-07-16T13:02:57Z</time>
      </trkpt>
      <trkpt lat="40.2895998303" lon="-5.8503056411">
        <ele>742.76</ele>
        <time>2020-07-16T13:03:09Z</time>
      </trkpt>
      <trkpt lat="40.2895488683" lon="-5.8507542405">
        <ele>741.79</ele>
        <time>2020-07-16T13:03:21Z</time>
      </trkpt>
      <trkpt lat="40.2894765325" lon="-5.8511118125">
        <ele>743.24</ele>
        <time>2020-07-16T13:03:31Z</time>
      </trkpt>
      <trkpt lat="40.2893398236" lon="-5.8515185863">
        <ele>744.68</ele>
        <time>2020-07-16T13:03:43Z</time>
      </trkpt>
      <trkpt lat="40.2891690843" lon="-5.8519303054">
        <ele>745.16</ele>
        <time>2020-07-16T13:03:55Z</time>
      </trkpt>
      <trkpt lat="40.2890145220" lon="-5.8522365801">
        <ele>745.64</ele>
        <time>2020-07-16T13:04:04Z</time>
      </trkpt>
      <trkpt lat="40.2888468001" lon="-5.8525364846">
        <ele>746.12</ele>
        <time>2020-07-16T13:04:14Z</time>
      </trkpt>
      <trkpt lat="40.2887291182" lon="-5.8527354710">
        <ele>747.08</ele>
        <time>2020-07-16T13:04:21Z</time>
      </trkpt>
      <trkpt lat="40.2885779925" lon="-5.8530266583">
        <ele>747.56</ele>
        <time>2020-07-16T13:04:30Z</time>
      </trkpt>
      <trkpt lat="40.2883588057" lon="-5.8534233738">
        <ele>748.52</ele>
        <time>2020-07-16T13:04:42Z</time>
      </trkpt>
      <trkpt lat="40.2881645970" lon="-5.8538383618">
        <ele>749.49</ele>
        <time>2020-07-16T13:04:54Z</time>
      </trkpt>
      <trkpt lat="40.2880473342" lon="-5.8541470673">
        <ele>749.00</ele>
        <time>2020-07-16T13:05:02Z</time>
      </trkpt>
      <trkpt lat="40.2879141457" lon="-5.8546244167">
        <ele>749.49</ele>
        <time>2020-07-16T13:05:13Z</time>
      </trkpt>
      <trkpt lat="40.2878245432" lon="-5.8551141713">
        <ele>750.45</ele>
        <time>2020-07-16T13:05:23Z</time>
      </trkpt>
      <trkpt lat="40.2877849806" lon="-5.8556003217">
        <ele>751.89</ele>
        <time>2020-07-16T13:05:33Z</time>
      </trkpt>
      <trkpt lat="40.2877954580" lon="-5.8561588079">
        <ele>752.85</ele>
        <time>2020-07-16T13:05:44Z</time>
      </trkpt>
      <trkpt lat="40.2878573164" lon="-5.8567324653">
        <ele>753.81</ele>
        <time>2020-07-16T13:05:56Z</time>
      </trkpt>
      <trkpt lat="40.2878793608" lon="-5.8568333834">
        <ele>753.81</ele>
        <time>2020-07-16T13:05:59Z</time>
      </trkpt>
      <trkpt lat="40.2879028302" lon="-5.8569691703">
        <ele>754.77</ele>
        <time>2020-07-16T13:06:05Z</time>
      </trkpt>
      <trkpt lat="40.2879053447" lon="-5.8569757920">
        <ele>754.77</ele>
        <time>2020-07-16T13:06:11Z</time>
      </trkpt>
      <trkpt lat="40.2878910117" lon="-5.8569679130">
        <ele>757.18</ele>
        <time>2020-07-16T13:06:26Z</time>
      </trkpt>
      <trkpt lat="40.2878889162" lon="-5.8569788095">
        <ele>757.66</ele>
        <time>2020-07-16T13:06:43Z</time>
      </trkpt>
      <trkpt lat="40.2879014052" lon="-5.8569850121">
        <ele>756.21</ele>
        <time>2020-07-16T13:07:03Z</time>
      </trkpt>
      <trkpt lat="40.2879020758" lon="-5.8569958247">
        <ele>754.29</ele>
        <time>2020-07-16T13:07:24Z</time>
      </trkpt>
      <trkpt lat="40.2879172470" lon="-5.8569754567">
        <ele>755.25</ele>
        <time>2020-07-16T13:07:35Z</time>
      </trkpt>
      <trkpt lat="40.2879154868" lon="-5.8569761273">
        <ele>755.73</ele>
        <time>2020-07-16T13:07:54Z</time>
      </trkpt>
      <trkpt lat="40.2879096195" lon="-5.8569855150">
        <ele>755.73</ele>
        <time>2020-07-16T13:08:08Z</time>
      </trkpt>
      <trkpt lat="40.2879051771" lon="-5.8569806535">
        <ele>755.73</ele>
        <time>2020-07-16T13:08:22Z</time>
      </trkpt>
      <trkpt lat="40.2879217733" lon="-5.8569977526">
        <ele>756.69</ele>
        <time>2020-07-16T13:08:43Z</time>
      </trkpt>
      <trkpt lat="40.2879274730" lon="-5.8569911309">
        <ele>755.73</ele>
        <time>2020-07-16T13:09:09Z</time>
      </trkpt>
      <trkpt lat="40.2879052609" lon="-5.8569864370">
        <ele>757.66</ele>
        <time>2020-07-16T13:09:32Z</time>
      </trkpt>
      <trkpt lat="40.2879112959" lon="-5.8569940645">
        <ele>756.69</ele>
        <time>2020-07-16T13:09:47Z</time>
      </trkpt>
      <trkpt lat="40.2879208513" lon="-5.8570082299">
        <ele>753.33</ele>
        <time>2020-07-16T13:10:11Z</time>
      </trkpt>
      <trkpt lat="40.2879109606" lon="-5.8569923881">
        <ele>753.81</ele>
        <time>2020-07-16T13:10:33Z</time>
      </trkpt>
      <trkpt lat="40.2879128046" lon="-5.8569981717">
        <ele>755.25</ele>
        <time>2020-07-16T13:10:54Z</time>
      </trkpt>
      <trkpt lat="40.2879260480" lon="-5.8569932263">
        <ele>755.25</ele>
        <time>2020-07-16T13:11:12Z</time>
      </trkpt>
      <trkpt lat="40.2879233658" lon="-5.8570016921">
        <ele>754.77</ele>
        <time>2020-07-16T13:11:34Z</time>
      </trkpt>
      <trkpt lat="40.2879457455" lon="-5.8570682444">
        <ele>755.25</ele>
        <time>2020-07-16T13:11:38Z</time>
      </trkpt>
      <trkpt lat="40.2880258765" lon="-5.8574279957">
        <ele>756.69</ele>
        <time>2020-07-16T13:11:49Z</time>
      </trkpt>
      <trkpt lat="40.2881550416" lon="-5.8579090331">
        <ele>757.66</ele>
        <time>2020-07-16T13:12:01Z</time>
      </trkpt>
      <trkpt lat="40.2883035690" lon="-5.8584660105">
        <ele>759.10</ele>
        <time>2020-07-16T13:12:14Z</time>
      </trkpt>
      <trkpt lat="40.2884230949" lon="-5.8590389136">
        <ele>759.10</ele>
        <time>2020-07-16T13:12:26Z</time>
      </trkpt>
      <trkpt lat="40.2884876356" lon="-5.8595391456">
        <ele>760.06</ele>
        <time>2020-07-16T13:12:37Z</time>
      </trkpt>
      <trkpt lat="40.2885001246" lon="-5.8599810395">
        <ele>760.06</ele>
        <time>2020-07-16T13:12:48Z</time>
      </trkpt>
      <trkpt lat="40.2885010466" lon="-5.8604568802">
        <ele>760.54</ele>
        <time>2020-07-16T13:13:00Z</time>
      </trkpt>
      <trkpt lat="40.2884854563" lon="-5.8608085010">
        <ele>761.02</ele>
        <time>2020-07-16T13:13:09Z</time>
      </trkpt>
      <trkpt lat="40.2884592209" lon="-5.8613525704">
        <ele>761.02</ele>
        <time>2020-07-16T13:13:23Z</time>
      </trkpt>
      <trkpt lat="40.2884421218" lon="-5.8616665564">
        <ele>760.54</ele>
        <time>2020-07-16T13:13:31Z</time>
      </trkpt>
      <trkpt lat="40.2884082589" lon="-5.8622334246">
        <ele>762.46</ele>
        <time>2020-07-16T13:13:45Z</time>
      </trkpt>
      <trkpt lat="40.2883780003" lon="-5.8627706207">
        <ele>763.90</ele>
        <time>2020-07-16T13:13:59Z</time>
      </trkpt>
      <trkpt lat="40.2883536089" lon="-5.8630790748">
        <ele>764.39</ele>
        <time>2020-07-16T13:14:07Z</time>
      </trkpt>
      <trkpt lat="40.2883320674" lon="-5.8634213079">
        <ele>765.35</ele>
        <time>2020-07-16T13:14:16Z</time>
      </trkpt>
      <trkpt lat="40.2883111127" lon="-5.8638143353">
        <ele>766.31</ele>
        <time>2020-07-16T13:14:26Z</time>
      </trkpt>
      <trkpt lat="40.2882759087" lon="-5.8642974682">
        <ele>766.79</ele>
        <time>2020-07-16T13:14:38Z</time>
      </trkpt>
      <trkpt lat="40.2882519364" lon="-5.8647072595">
        <ele>767.75</ele>
        <time>2020-07-16T13:14:48Z</time>
      </trkpt>
      <trkpt lat="40.2882318199" lon="-5.8650811762">
        <ele>768.71</ele>
        <time>2020-07-16T13:14:58Z</time>
      </trkpt>
      <trkpt lat="40.2882263716" lon="-5.8653582819">
        <ele>769.19</ele>
        <time>2020-07-16T13:15:06Z</time>
      </trkpt>
      <trkpt lat="40.2882401180" lon="-5.8658021875">
        <ele>769.19</ele>
        <time>2020-07-16T13:15:17Z</time>
      </trkpt>
      <trkpt lat="40.2882723045" lon="-5.8661093842">
        <ele>771.11</ele>
        <time>2020-07-16T13:15:25Z</time>
      </trkpt>
      <trkpt lat="40.2883370966" lon="-5.8664857317">
        <ele>771.11</ele>
        <time>2020-07-16T13:15:35Z</time>
      </trkpt>
      <trkpt lat="40.2884192392" lon="-5.8667982928">
        <ele>772.08</ele>
        <time>2020-07-16T13:15:44Z</time>
      </trkpt>
      <trkpt lat="40.2885257732" lon="-5.8670896478">
        <ele>773.04</ele>
        <time>2020-07-16T13:15:53Z</time>
      </trkpt>
      <trkpt lat="40.2886763960" lon="-5.8674291149">
        <ele>774.00</ele>
        <time>2020-07-16T13:16:03Z</time>
      </trkpt>
      <trkpt lat="40.2887999453" lon="-5.8676648978">
        <ele>772.56</ele>
        <time>2020-07-16T13:16:11Z</time>
      </trkpt>
      <trkpt lat="40.2888944093" lon="-5.8678021934">
        <ele>773.04</ele>
        <time>2020-07-16T13:16:18Z</time>
      </trkpt>
      <trkpt lat="40.2890639752" lon="-5.8680352103">
        <ele>773.52</ele>
        <time>2020-07-16T13:16:27Z</time>
      </trkpt>
      <trkpt lat="40.2892554179" lon="-5.8682310954">
        <ele>774.00</ele>
        <time>2020-07-16T13:16:35Z</time>
      </trkpt>
      <trkpt lat="40.2895122394" lon="-5.8684699796">
        <ele>774.00</ele>
        <time>2020-07-16T13:16:45Z</time>
      </trkpt>
      <trkpt lat="40.2897514589" lon="-5.8686387073">
        <ele>774.00</ele>
        <time>2020-07-16T13:16:53Z</time>
      </trkpt>
      <trkpt lat="40.2899867389" lon="-5.8687704708">
        <ele>774.48</ele>
        <time>2020-07-16T13:17:01Z</time>
      </trkpt>
      <trkpt lat="40.2902143076" lon="-5.8688695449">
        <ele>774.48</ele>
        <time>2020-07-16T13:17:08Z</time>
      </trkpt>
      <trkpt lat="40.2904527728" lon="-5.8689500112">
        <ele>774.96</ele>
        <time>2020-07-16T13:17:17Z</time>
      </trkpt>
      <trkpt lat="40.2907259390" lon="-5.8690008894">
        <ele>774.96</ele>
        <time>2020-07-16T13:17:26Z</time>
      </trkpt>
      <trkpt lat="40.2909638174" lon="-5.8690126240">
        <ele>775.44</ele>
        <time>2020-07-16T13:17:35Z</time>
      </trkpt>
      <trkpt lat="40.2911489736" lon="-5.8690040745">
        <ele>776.40</ele>
        <time>2020-07-16T13:17:43Z</time>
      </trkpt>
      <trkpt lat="40.2912687510" lon="-5.8689828683">
        <ele>776.40</ele>
        <time>2020-07-16T13:17:50Z</time>
      </trkpt>
      <trkpt lat="40.2912721876" lon="-5.8689838741">
        <ele>775.92</ele>
        <time>2020-07-16T13:18:00Z</time>
      </trkpt>
      <trkpt lat="40.2912805695" lon="-5.8689821977">
        <ele>776.40</ele>
        <time>2020-07-16T13:18:17Z</time>
      </trkpt>
      <trkpt lat="40.2912717685" lon="-5.8689671103">
        <ele>778.32</ele>
        <time>2020-07-16T13:18:36Z</time>
      </trkpt>
      <trkpt lat="40.2912629675" lon="-5.8689641766">
        <ele>778.81</ele>
        <time>2020-07-16T13:18:50Z</time>
      </trkpt>
      <trkpt lat="40.2912619617" lon="-5.8689747378">
        <ele>778.81</ele>
        <time>2020-07-16T13:19:04Z</time>
      </trkpt>
      <trkpt lat="40.2912668232" lon="-5.8689749893">
        <ele>779.29</ele>
        <time>2020-07-16T13:19:14Z</time>
      </trkpt>
      <trkpt lat="40.2912837546" lon="-5.8689822815">
        <ele>778.81</ele>
        <time>2020-07-16T13:19:21Z</time>
      </trkpt>
      <trkpt lat="40.2914764546" lon="-5.8689780906">
        <ele>778.81</ele>
        <time>2020-07-16T13:19:30Z</time>
      </trkpt>
      <trkpt lat="40.2917905245" lon="-5.8689738158">
        <ele>779.77</ele>
        <time>2020-07-16T13:19:40Z</time>
      </trkpt>
      <trkpt lat="40.2920955420" lon="-5.8689723071">
        <ele>780.25</ele>
        <time>2020-07-16T13:19:50Z</time>
      </trkpt>
      <trkpt lat="40.2924701292" lon="-5.8689980395">
        <ele>780.73</ele>
        <time>2020-07-16T13:20:02Z</time>
      </trkpt>
      <trkpt lat="40.2928030584" lon="-5.8690709621">
        <ele>782.17</ele>
        <time>2020-07-16T13:20:13Z</time>
      </trkpt>
      <trkpt lat="40.2931047231" lon="-5.8691551164">
        <ele>782.65</ele>
        <time>2020-07-16T13:20:23Z</time>
      </trkpt>
      <trkpt lat="40.2934154402" lon="-5.8692540228">
        <ele>783.13</ele>
        <time>2020-07-16T13:20:34Z</time>
      </trkpt>
      <trkpt lat="40.2937596012" lon="-5.8693807572">
        <ele>783.61</ele>
        <time>2020-07-16T13:20:47Z</time>
      </trkpt>
      <trkpt lat="40.2940335218" lon="-5.8694718685">
        <ele>785.05</ele>
        <time>2020-07-16T13:20:57Z</time>
      </trkpt>
      <trkpt lat="40.2943424787" lon="-5.8695606329">
        <ele>786.02</ele>
        <time>2020-07-16T13:21:08Z</time>
      </trkpt>
      <trkpt lat="40.2945969533" lon="-5.8696018718">
        <ele>787.46</ele>
        <time>2020-07-16T13:21:17Z</time>
      </trkpt>
      <trkpt lat="40.2948853746" lon="-5.8696214017">
        <ele>787.94</ele>
        <time>2020-07-16T13:21:27Z</time>
      </trkpt>
      <trkpt lat="40.2951773163" lon="-5.8695794921">
        <ele>788.42</ele>
        <time>2020-07-16T13:21:37Z</time>
      </trkpt>
      <trkpt lat="40.2954765502" lon="-5.8694913983">
        <ele>789.86</ele>
        <time>2020-07-16T13:21:47Z</time>
      </trkpt>
      <trkpt lat="40.2958025225" lon="-5.8693507500">
        <ele>790.34</ele>
        <time>2020-07-16T13:21:58Z</time>
      </trkpt>
      <trkpt lat="40.2960079629" lon="-5.8692375943">
        <ele>789.86</ele>
        <time>2020-07-16T13:22:05Z</time>
      </trkpt>
      <trkpt lat="40.2963272296" lon="-5.8689980395">
        <ele>790.82</ele>
        <time>2020-07-16T13:22:16Z</time>
      </trkpt>
      <trkpt lat="40.2966084424" lon="-5.8686924353">
        <ele>792.26</ele>
        <time>2020-07-16T13:22:27Z</time>
      </trkpt>
      <trkpt lat="40.2967627533" lon="-5.8684963826">
        <ele>792.26</ele>
        <time>2020-07-16T13:22:35Z</time>
      </trkpt>
      <trkpt lat="40.2968905773" lon="-5.8683073707">
        <ele>792.74</ele>
        <time>2020-07-16T13:22:42Z</time>
      </trkpt>
      <trkpt lat="40.2971023880" lon="-5.8679515589">
        <ele>793.22</ele>
        <time>2020-07-16T13:22:52Z</time>
      </trkpt>
      <trkpt lat="40.2973327227" lon="-5.8675626386">
        <ele>793.71</ele>
        <time>2020-07-16T13:23:03Z</time>
      </trkpt>
      <trkpt lat="40.2975854371" lon="-5.8671274502">
        <ele>794.19</ele>
        <time>2020-07-16T13:23:15Z</time>
      </trkpt>
      <trkpt lat="40.2977845911" lon="-5.8667889889">
        <ele>795.63</ele>
        <time>2020-07-16T13:23:25Z</time>
      </trkpt>
      <trkpt lat="40.2979856730" lon="-5.8664428163">
        <ele>795.63</ele>
        <time>2020-07-16T13:23:35Z</time>
      </trkpt>
      <trkpt lat="40.2981732599" lon="-5.8661232982">
        <ele>795.15</ele>
        <time>2020-07-16T13:23:44Z</time>
      </trkpt>
      <trkpt lat="40.2983902674" lon="-5.8657352999">
        <ele>795.63</ele>
        <time>2020-07-16T13:23:55Z</time>
      </trkpt>
      <trkpt lat="40.2985537983" lon="-5.8654549252">
        <ele>798.03</ele>
        <time>2020-07-16T13:24:04Z</time>
      </trkpt>
      <trkpt lat="40.2986970451" lon="-5.8652097546">
        <ele>799.95</ele>
        <time>2020-07-16T13:24:12Z</time>
      </trkpt>
      <trkpt lat="40.2988979593" lon="-5.8648617379">
        <ele>800.92</ele>
        <time>2020-07-16T13:24:22Z</time>
      </trkpt>
      <trkpt lat="40.2991257794" lon="-5.8645351790">
        <ele>801.40</ele>
        <time>2020-07-16T13:24:32Z</time>
      </trkpt>
      <trkpt lat="40.2993468102" lon="-5.8642636891">
        <ele>802.36</ele>
        <time>2020-07-16T13:24:41Z</time>
      </trkpt>
      <trkpt lat="40.2996405121" lon="-5.8639462665">
        <ele>803.32</ele>
        <time>2020-07-16T13:24:53Z</time>
      </trkpt>
      <trkpt lat="40.2998006064" lon="-5.8638081327">
        <ele>804.28</ele>
        <time>2020-07-16T13:25:01Z</time>
      </trkpt>
      <trkpt lat="40.2998073958" lon="-5.8638126589">
        <ele>805.72</ele>
        <time>2020-07-16T13:25:07Z</time>
      </trkpt>
      <trkpt lat="40.2998006903" lon="-5.8638095576">
        <ele>807.16</ele>
        <time>2020-07-16T13:25:21Z</time>
      </trkpt>
      <trkpt lat="40.2998043783" lon="-5.8638187777">
        <ele>807.16</ele>
        <time>2020-07-16T13:25:35Z</time>
      </trkpt>
      <trkpt lat="40.2998017799" lon="-5.8638093062">
        <ele>807.64</ele>
        <time>2020-07-16T13:25:46Z</time>
      </trkpt>
      <trkpt lat="40.2997938171" lon="-5.8638130780">
        <ele>808.13</ele>
        <time>2020-07-16T13:25:59Z</time>
      </trkpt>
      <trkpt lat="40.2997838426" lon="-5.8638298418">
        <ele>810.05</ele>
        <time>2020-07-16T13:26:15Z</time>
      </trkpt>
      <trkpt lat="40.2997843456" lon="-5.8638391457">
        <ele>811.97</ele>
        <time>2020-07-16T13:26:32Z</time>
      </trkpt>
      <trkpt lat="40.2997897100" lon="-5.8638419118">
        <ele>811.97</ele>
        <time>2020-07-16T13:26:44Z</time>
      </trkpt>
      <trkpt lat="40.2998161968" lon="-5.8638493717">
        <ele>812.45</ele>
        <time>2020-07-16T13:27:04Z</time>
      </trkpt>
      <trkpt lat="40.2998126764" lon="-5.8638057858">
        <ele>810.53</ele>
        <time>2020-07-16T13:27:22Z</time>
      </trkpt>
      <trkpt lat="40.2998106647" lon="-5.8637904469">
        <ele>809.57</ele>
        <time>2020-07-16T13:27:35Z</time>
      </trkpt>
      <trkpt lat="40.2998755407" lon="-5.8637600206">
        <ele>809.09</ele>
        <time>2020-07-16T13:27:41Z</time>
      </trkpt>
      <trkpt lat="40.3000562545" lon="-5.8636274189">
        <ele>810.53</ele>
        <time>2020-07-16T13:27:49Z</time>
      </trkpt>
      <trkpt lat="40.3002771176" lon="-5.8634570148">
        <ele>811.97</ele>
        <time>2020-07-16T13:27:57Z</time>
      </trkpt>
      <trkpt lat="40.3006325942" lon="-5.8632151969">
        <ele>811.01</ele>
        <time>2020-07-16T13:28:09Z</time>
      </trkpt>
      <trkpt lat="40.3009105381" lon="-5.8630270232">
        <ele>810.05</ele>
        <time>2020-07-16T13:28:19Z</time>
      </trkpt>
      <trkpt lat="40.3011870570" lon="-5.8628277015">
        <ele>810.53</ele>
        <time>2020-07-16T13:28:30Z</time>
      </trkpt>
      <trkpt lat="40.3014113568" lon="-5.8626733907">
        <ele>811.49</ele>
        <time>2020-07-16T13:28:39Z</time>
      </trkpt>
      <trkpt lat="40.3016712796" lon="-5.8624885697">
        <ele>814.37</ele>
        <time>2020-07-16T13:28:49Z</time>
      </trkpt>
      <trkpt lat="40.3019068949" lon="-5.8623247035">
        <ele>816.78</ele>
        <time>2020-07-16T13:28:59Z</time>
      </trkpt>
      <trkpt lat="40.3021189570" lon="-5.8621719852">
        <ele>819.18</ele>
        <time>2020-07-16T13:29:08Z</time>
      </trkpt>
      <trkpt lat="40.3023266606" lon="-5.8620238770">
        <ele>823.03</ele>
        <time>2020-07-16T13:29:17Z</time>
      </trkpt>
      <trkpt lat="40.3025502898" lon="-5.8618730027">
        <ele>825.43</ele>
        <time>2020-07-16T13:29:26Z</time>
      </trkpt>
      <trkpt lat="40.3027299140" lon="-5.8617578354">
        <ele>826.39</ele>
        <time>2020-07-16T13:29:33Z</time>
      </trkpt>
      <trkpt lat="40.3029335104" lon="-5.8616202045">
        <ele>829.27</ele>
        <time>2020-07-16T13:29:42Z</time>
      </trkpt>
      <trkpt lat="40.3031749092" lon="-5.8614746109">
        <ele>827.83</ele>
        <time>2020-07-16T13:29:51Z</time>
      </trkpt>
      <trkpt lat="40.3034110274" lon="-5.8613506425">
        <ele>825.43</ele>
        <time>2020-07-16T13:30:00Z</time>
      </trkpt>
      <trkpt lat="40.3036554437" lon="-5.8612333797">
        <ele>823.03</ele>
        <time>2020-07-16T13:30:09Z</time>
      </trkpt>
      <trkpt lat="40.3039277717" lon="-5.8610996883">
        <ele>820.62</ele>
        <time>2020-07-16T13:30:19Z</time>
      </trkpt>
      <trkpt lat="40.3042556718" lon="-5.8609484788">
        <ele>819.66</ele>
        <time>2020-07-16T13:30:31Z</time>
      </trkpt>
      <trkpt lat="40.3045290895" lon="-5.8608127758">
        <ele>818.70</ele>
        <time>2020-07-16T13:30:41Z</time>
      </trkpt>
      <trkpt lat="40.3048686404" lon="-5.8606550284">
        <ele>817.74</ele>
        <time>2020-07-16T13:30:53Z</time>
      </trkpt>
      <trkpt lat="40.3051285632" lon="-5.8605308086">
        <ele>817.26</ele>
        <time>2020-07-16T13:31:02Z</time>
      </trkpt>
      <trkpt lat="40.3053981252" lon="-5.8604096062">
        <ele>817.26</ele>
        <time>2020-07-16T13:31:12Z</time>
      </trkpt>
      <trkpt lat="40.3056780808" lon="-5.8602853864">
        <ele>817.74</ele>
        <time>2020-07-16T13:31:23Z</time>
      </trkpt>
      <trkpt lat="40.3058784921" lon="-5.8601954486">
        <ele>819.18</ele>
        <time>2020-07-16T13:31:30Z</time>
      </trkpt>
      <trkpt lat="40.3061788995" lon="-5.8600468375">
        <ele>819.66</ele>
        <time>2020-07-16T13:31:41Z</time>
      </trkpt>
      <trkpt lat="40.3064762894" lon="-5.8598843124">
        <ele>820.14</ele>
        <time>2020-07-16T13:31:52Z</time>
      </trkpt>
      <trkpt lat="40.3066880163" lon="-5.8597450051">
        <ele>820.14</ele>
        <time>2020-07-16T13:32:00Z</time>
      </trkpt>
      <trkpt lat="40.3069236316" lon="-5.8595601004">
        <ele>819.66</ele>
        <time>2020-07-16T13:32:09Z</time>
      </trkpt>
      <trkpt lat="40.3071409743" lon="-5.8593503013">
        <ele>819.66</ele>
        <time>2020-07-16T13:32:18Z</time>
      </trkpt>
      <trkpt lat="40.3073897492" lon="-5.8591001015">
        <ele>819.66</ele>
        <time>2020-07-16T13:32:29Z</time>
      </trkpt>
      <trkpt lat="40.3075410426" lon="-5.8589646500">
        <ele>819.66</ele>
        <time>2020-07-16T13:32:37Z</time>
      </trkpt>
      <trkpt lat="40.3075539507" lon="-5.8589652367">
        <ele>819.66</ele>
        <time>2020-07-16T13:32:42Z</time>
      </trkpt>
      <trkpt lat="40.3075617459" lon="-5.8589721099">
        <ele>817.26</ele>
        <time>2020-07-16T13:32:53Z</time>
      </trkpt>
      <trkpt lat="40.3075616620" lon="-5.8589624707">
        <ele>815.82</ele>
        <time>2020-07-16T13:33:15Z</time>
      </trkpt>
      <trkpt lat="40.3075486701" lon="-5.8589695953">
        <ele>814.37</ele>
        <time>2020-07-16T13:33:32Z</time>
      </trkpt>
      <trkpt lat="40.3075521905" lon="-5.8589672484">
        <ele>814.85</ele>
        <time>2020-07-16T13:33:48Z</time>
      </trkpt>
      <trkpt lat="40.3075462393" lon="-5.8589810785">
        <ele>817.26</ele>
        <time>2020-07-16T13:34:05Z</time>
      </trkpt>
      <trkpt lat="40.3075503465" lon="-5.8589778934">
        <ele>816.30</ele>
        <time>2020-07-16T13:34:20Z</time>
      </trkpt>
      <trkpt lat="40.3075474128" lon="-5.8589751273">
        <ele>817.74</ele>
        <time>2020-07-16T13:34:35Z</time>
      </trkpt>
      <trkpt lat="40.3075462393" lon="-5.8589753788">
        <ele>816.30</ele>
        <time>2020-07-16T13:34:51Z</time>
      </trkpt>
      <trkpt lat="40.3075602371" lon="-5.8589746244">
        <ele>815.34</ele>
        <time>2020-07-16T13:35:07Z</time>
      </trkpt>
      <trkpt lat="40.3075527772" lon="-5.8589670807">
        <ele>813.41</ele>
        <time>2020-07-16T13:35:24Z</time>
      </trkpt>
      <trkpt lat="40.3075463232" lon="-5.8589661587">
        <ele>813.41</ele>
        <time>2020-07-16T13:35:43Z</time>
      </trkpt>
      <trkpt lat="40.3075535316" lon="-5.8589561842">
        <ele>813.89</ele>
        <time>2020-07-16T13:35:57Z</time>
      </trkpt>
      <trkpt lat="40.3076064214" lon="-5.8589093294">
        <ele>814.37</ele>
        <time>2020-07-16T13:36:04Z</time>
      </trkpt>
      <trkpt lat="40.3078102693" lon="-5.8587271068">
        <ele>814.37</ele>
        <time>2020-07-16T13:36:12Z</time>
      </trkpt>
      <trkpt lat="40.3080043104" lon="-5.8585570380">
        <ele>814.85</ele>
        <time>2020-07-16T13:36:20Z</time>
      </trkpt>
      <trkpt lat="40.3082674183" lon="-5.8583396114">
        <ele>815.82</ele>
        <time>2020-07-16T13:36:30Z</time>
      </trkpt>
      <trkpt lat="40.3083084058" lon="-5.8582992107">
        <ele>816.30</ele>
        <time>2020-07-16T13:36:32Z</time>
      </trkpt>
      <trkpt lat="40.3082954139" lon="-5.8581721410">
        <ele>816.78</ele>
        <time>2020-07-16T13:36:38Z</time>
      </trkpt>
      <trkpt lat="40.3082899656" lon="-5.8581769187">
        <ele>817.26</ele>
        <time>2020-07-16T13:36:44Z</time>
      </trkpt>
      <trkpt lat="40.3082835954" lon="-5.8581736498">
        <ele>818.22</ele>
        <time>2020-07-16T13:36:51Z</time>
      </trkpt>
      <trkpt lat="40.3082651552" lon="-5.8581499290">
        <ele>819.18</ele>
        <time>2020-07-16T13:37:09Z</time>
      </trkpt>
      <trkpt lat="40.3082519118" lon="-5.8581435587">
        <ele>820.62</ele>
        <time>2020-07-16T13:37:40Z</time>
      </trkpt>
      <trkpt lat="40.3082526661" lon="-5.8581459057">
        <ele>819.66</ele>
        <time>2020-07-16T13:38:11Z</time>
      </trkpt>
      <trkpt lat="40.3082664963" lon="-5.8581793495">
        <ele>819.66</ele>
        <time>2020-07-16T13:38:43Z</time>
      </trkpt>
      <trkpt lat="40.3082571086" lon="-5.8581806067">
        <ele>820.14</ele>
        <time>2020-07-16T13:39:03Z</time>
      </trkpt>
      <trkpt lat="40.3082420211" lon="-5.8581832889">
        <ele>826.39</ele>
        <time>2020-07-16T13:39:26Z</time>
      </trkpt>
      <trkpt lat="40.3082291968" lon="-5.8581403736">
        <ele>826.87</ele>
        <time>2020-07-16T13:39:53Z</time>
      </trkpt>
      <trkpt lat="40.3082484752" lon="-5.8581538685">
        <ele>822.06</ele>
        <time>2020-07-16T13:40:11Z</time>
      </trkpt>
      <trkpt lat="40.3082711063" lon="-5.8581719734">
        <ele>822.55</ele>
        <time>2020-07-16T13:40:31Z</time>
      </trkpt>
      <trkpt lat="40.3082834277" lon="-5.8581853844">
        <ele>823.99</ele>
        <time>2020-07-16T13:40:49Z</time>
      </trkpt>
      <trkpt lat="40.3082720283" lon="-5.8581812773">
        <ele>823.99</ele>
        <time>2020-07-16T13:40:59Z</time>
      </trkpt>
      <trkpt lat="40.3082797397" lon="-5.8581894077">
        <ele>825.43</ele>
        <time>2020-07-16T13:41:20Z</time>
      </trkpt>
      <trkpt lat="40.3082669154" lon="-5.8581994660">
        <ele>825.91</ele>
        <time>2020-07-16T13:41:46Z</time>
      </trkpt>
      <trkpt lat="40.3082575276" lon="-5.8581861388">
        <ele>825.43</ele>
        <time>2020-07-16T13:41:59Z</time>
      </trkpt>
      <trkpt lat="40.3082342260" lon="-5.8581730630">
        <ele>825.43</ele>
        <time>2020-07-16T13:42:17Z</time>
      </trkpt>
      <trkpt lat="40.3082303703" lon="-5.8581911679">
        <ele>828.31</ele>
        <time>2020-07-16T13:42:40Z</time>
      </trkpt>
      <trkpt lat="40.3082628921" lon="-5.8581885695">
        <ele>828.31</ele>
        <time>2020-07-16T13:43:04Z</time>
      </trkpt>
      <trkpt lat="40.3082722798" lon="-5.8581616636">
        <ele>824.95</ele>
        <time>2020-07-16T13:43:31Z</time>
      </trkpt>
      <trkpt lat="40.3082763869" lon="-5.8581577241">
        <ele>823.99</ele>
        <time>2020-07-16T13:43:52Z</time>
      </trkpt>
      <trkpt lat="40.3082820866" lon="-5.8581599873">
        <ele>824.47</ele>
        <time>2020-07-16T13:44:07Z</time>
      </trkpt>
      <trkpt lat="40.3083046339" lon="-5.8581521921">
        <ele>825.43</ele>
        <time>2020-07-16T13:44:31Z</time>
      </trkpt>
      <trkpt lat="40.3082992695" lon="-5.8581532817">
        <ele>824.47</ele>
        <time>2020-07-16T13:44:54Z</time>
      </trkpt>
      <trkpt lat="40.3082844336" lon="-5.8581992984">
        <ele>823.99</ele>
        <time>2020-07-16T13:45:11Z</time>
      </trkpt>
      <trkpt lat="40.3082577791" lon="-5.8581730630">
        <ele>823.03</ele>
        <time>2020-07-16T13:45:25Z</time>
      </trkpt>
      <trkpt lat="40.3082985152" lon="-5.8581900783">
        <ele>827.35</ele>
        <time>2020-07-16T13:45:42Z</time>
      </trkpt>
      <trkpt lat="40.3082990181" lon="-5.8581626695">
        <ele>827.35</ele>
        <time>2020-07-16T13:45:54Z</time>
      </trkpt>
      <trkpt lat="40.3082976770" lon="-5.8581635915">
        <ele>828.31</ele>
        <time>2020-07-16T13:46:15Z</time>
      </trkpt>
      <trkpt lat="40.3083209787" lon="-5.8581466600">
        <ele>829.27</ele>
        <time>2020-07-16T13:46:31Z</time>
      </trkpt>
      <trkpt lat="40.3083260916" lon="-5.8581574727">
        <ele>827.83</ele>
        <time>2020-07-16T13:46:49Z</time>
      </trkpt>
      <trkpt lat="40.3083080705" lon="-5.8581775054">
        <ele>828.31</ele>
        <time>2020-07-16T13:47:07Z</time>
      </trkpt>
      <trkpt lat="40.3082954139" lon="-5.8581760805">
        <ele>827.83</ele>
        <time>2020-07-16T13:47:19Z</time>
      </trkpt>
      <trkpt lat="40.3083014488" lon="-5.8581935987">
        <ele>827.83</ele>
        <time>2020-07-16T13:47:35Z</time>
      </trkpt>
      <trkpt lat="40.3083045501" lon="-5.8581902459">
        <ele>828.79</ele>
        <time>2020-07-16T13:47:57Z</time>
      </trkpt>
      <trkpt lat="40.3082981799" lon="-5.8581829537">
        <ele>828.79</ele>
        <time>2020-07-16T13:48:09Z</time>
      </trkpt>
      <trkpt lat="40.3082781471" lon="-5.8581794333">
        <ele>828.79</ele>
        <time>2020-07-16T13:48:26Z</time>
      </trkpt>
      <trkpt lat="40.3083027061" lon="-5.8582051657">
        <ele>827.83</ele>
        <time>2020-07-16T13:48:46Z</time>
      </trkpt>
      <trkpt lat="40.3083048016" lon="-5.8581895754">
        <ele>828.79</ele>
        <time>2020-07-16T13:49:02Z</time>
      </trkpt>
      <trkpt lat="40.3083101660" lon="-5.8581817802">
        <ele>827.83</ele>
        <time>2020-07-16T13:49:15Z</time>
      </trkpt>
      <trkpt lat="40.3083215654" lon="-5.8581848815">
        <ele>827.83</ele>
        <time>2020-07-16T13:49:30Z</time>
      </trkpt>
      <trkpt lat="40.3083033767" lon="-5.8581860550">
        <ele>826.39</ele>
        <time>2020-07-16T13:49:48Z</time>
      </trkpt>
      <trkpt lat="40.3083032090" lon="-5.8581877314">
        <ele>825.43</ele>
        <time>2020-07-16T13:50:11Z</time>
      </trkpt>
      <trkpt lat="40.3082892112" lon="-5.8581670281">
        <ele>826.87</ele>
        <time>2020-07-16T13:50:30Z</time>
      </trkpt>
      <trkpt lat="40.3082954977" lon="-5.8581969514">
        <ele>831.20</ele>
        <time>2020-07-16T13:50:46Z</time>
      </trkpt>
      <trkpt lat="40.3082828410" lon="-5.8581899945">
        <ele>833.12</ele>
        <time>2020-07-16T13:51:02Z</time>
      </trkpt>
      <trkpt lat="40.3082644008" lon="-5.8581923414">
        <ele>832.64</ele>
        <time>2020-07-16T13:51:17Z</time>
      </trkpt>
      <trkpt lat="40.3082825057" lon="-5.8582007233">
        <ele>831.68</ele>
        <time>2020-07-16T13:51:44Z</time>
      </trkpt>
      <trkpt lat="40.3082799911" lon="-5.8581900783">
        <ele>830.72</ele>
        <time>2020-07-16T13:52:11Z</time>
      </trkpt>
      <trkpt lat="40.3082996886" lon="-5.8582096919">
        <ele>832.64</ele>
        <time>2020-07-16T13:52:36Z</time>
      </trkpt>
      <trkpt lat="40.3082708549" lon="-5.8582083508">
        <ele>830.72</ele>
        <time>2020-07-16T13:53:02Z</time>
      </trkpt>
      <trkpt lat="40.3082820028" lon="-5.8581925090">
        <ele>829.27</ele>
        <time>2020-07-16T13:53:20Z</time>
      </trkpt>
      <trkpt lat="40.3082818352" lon="-5.8581923414">
        <ele>829.27</ele>
        <time>2020-07-16T13:53:38Z</time>
      </trkpt>
      <trkpt lat="40.3082748782" lon="-5.8582039084">
        <ele>828.31</ele>
        <time>2020-07-16T13:54:00Z</time>
      </trkpt>
      <trkpt lat="40.3082856908" lon="-5.8582023159">
        <ele>832.16</ele>
        <time>2020-07-16T13:54:25Z</time>
      </trkpt>
      <trkpt lat="40.3082669154" lon="-5.8581848815">
        <ele>831.68</ele>
        <time>2020-07-16T13:54:44Z</time>
      </trkpt>
      <trkpt lat="40.3082756326" lon="-5.8581976220">
        <ele>829.76</ele>
        <time>2020-07-16T13:55:00Z</time>
      </trkpt>
      <trkpt lat="40.3082758002" lon="-5.8581925929">
        <ele>827.83</ele>
        <time>2020-07-16T13:55:17Z</time>
      </trkpt>
      <trkpt lat="40.3082464635" lon="-5.8581757452">
        <ele>827.35</ele>
        <time>2020-07-16T13:55:30Z</time>
      </trkpt>
      <trkpt lat="40.3082689270" lon="-5.8581699617">
        <ele>826.39</ele>
        <time>2020-07-16T13:55:50Z</time>
      </trkpt>
      <trkpt lat="40.3082798235" lon="-5.8581896592">
        <ele>824.95</ele>
        <time>2020-07-16T13:56:10Z</time>
      </trkpt>
      <trkpt lat="40.3083016165" lon="-5.8581890725">
        <ele>824.47</ele>
        <time>2020-07-16T13:56:29Z</time>
      </trkpt>
      <trkpt lat="40.3082869481" lon="-5.8581761643">
        <ele>825.91</ele>
        <time>2020-07-16T13:56:43Z</time>
      </trkpt>
      <trkpt lat="40.3082698490" lon="-5.8581787627">
        <ele>826.39</ele>
        <time>2020-07-16T13:57:00Z</time>
      </trkpt>
      <trkpt lat="40.3082837630" lon="-5.8581892401">
        <ele>823.99</ele>
        <time>2020-07-16T13:57:17Z</time>
      </trkpt>
      <trkpt lat="40.3082943242" lon="-5.8581970353">
        <ele>821.58</ele>
        <time>2020-07-16T13:57:35Z</time>
      </trkpt>
      <trkpt lat="40.3082994372" lon="-5.8582039922">
        <ele>822.06</ele>
        <time>2020-07-16T13:57:49Z</time>
      </trkpt>
      <trkpt lat="40.3082866967" lon="-5.8581879828">
        <ele>823.51</ele>
        <time>2020-07-16T13:57:59Z</time>
      </trkpt>
      <trkpt lat="40.3082767222" lon="-5.8581829537">
        <ele>824.47</ele>
        <time>2020-07-16T13:58:13Z</time>
      </trkpt>
      <trkpt lat="40.3082782310" lon="-5.8581761643">
        <ele>826.87</ele>
        <time>2020-07-16T13:58:25Z</time>
      </trkpt>
      <trkpt lat="40.3082777280" lon="-5.8581979573">
        <ele>827.83</ele>
        <time>2020-07-16T13:58:38Z</time>
      </trkpt>
      <trkpt lat="40.3083110880" lon="-5.8582233544">
        <ele>827.35</ele>
        <time>2020-07-16T13:58:59Z</time>
      </trkpt>
      <trkpt lat="40.3082996048" lon="-5.8581952751">
        <ele>827.83</ele>
        <time>2020-07-16T13:59:19Z</time>
      </trkpt>
      <trkpt lat="40.3083042987" lon="-5.8581614960">
        <ele>826.87</ele>
        <time>2020-07-16T13:59:30Z</time>
      </trkpt>
      <trkpt lat="40.3083243314" lon="-5.8581721410">
        <ele>825.91</ele>
        <time>2020-07-16T13:59:35Z</time>
      </trkpt>
      <trkpt lat="40.3083818313" lon="-5.8582241088">
        <ele>825.43</ele>
        <time>2020-07-16T13:59:41Z</time>
      </trkpt>
      <trkpt lat="40.3083962481" lon="-5.8582125418">
        <ele>825.43</ele>
        <time>2020-07-16T13:59:42Z</time>
      </trkpt>
      <trkpt lat="40.3085406683" lon="-5.8580687921">
        <ele>823.99</ele>
        <time>2020-07-16T13:59:50Z</time>
      </trkpt>
      <trkpt lat="40.3087106533" lon="-5.8579146490">
        <ele>824.47</ele>
        <time>2020-07-16T13:59:59Z</time>
      </trkpt>
      <trkpt lat="40.3088447638" lon="-5.8578097075">
        <ele>824.95</ele>
        <time>2020-07-16T14:00:06Z</time>
      </trkpt>
      <trkpt lat="40.3090237174" lon="-5.8576676343">
        <ele>825.43</ele>
        <time>2020-07-16T14:00:14Z</time>
      </trkpt>
      <trkpt lat="40.3091574926" lon="-5.8575942088">
        <ele>825.43</ele>
        <time>2020-07-16T14:00:20Z</time>
      </trkpt>
      <trkpt lat="40.3093778528" lon="-5.8574823942">
        <ele>825.43</ele>
        <time>2020-07-16T14:00:29Z</time>
      </trkpt>
      <trkpt lat="40.3096327465" lon="-5.8573912829">
        <ele>824.47</ele>
        <time>2020-07-16T14:00:39Z</time>
      </trkpt>
      <trkpt lat="40.3098762408" lon="-5.8573374711">
        <ele>823.99</ele>
        <time>2020-07-16T14:00:50Z</time>
      </trkpt>
      <trkpt lat="40.3100869618" lon="-5.8573087212">
        <ele>823.51</ele>
        <time>2020-07-16T14:00:58Z</time>
      </trkpt>
      <trkpt lat="40.3103504889" lon="-5.8572676498">
        <ele>823.99</ele>
        <time>2020-07-16T14:01:08Z</time>
      </trkpt>
      <trkpt lat="40.3105434403" lon="-5.8572423365">
        <ele>823.99</ele>
        <time>2020-07-16T14:01:15Z</time>
      </trkpt>
      <trkpt lat="40.3108211327" lon="-5.8571922127">
        <ele>825.43</ele>
        <time>2020-07-16T14:01:25Z</time>
      </trkpt>
      <trkpt lat="40.3110748529" lon="-5.8571394067">
        <ele>825.91</ele>
        <time>2020-07-16T14:01:34Z</time>
      </trkpt>
      <trkpt lat="40.3112923633" lon="-5.8570715971">
        <ele>825.91</ele>
        <time>2020-07-16T14:01:42Z</time>
      </trkpt>
      <trkpt lat="40.3115108795" lon="-5.8569862694">
        <ele>827.35</ele>
        <time>2020-07-16T14:01:50Z</time>
      </trkpt>
      <trkpt lat="40.3117241990" lon="-5.8568817470">
        <ele>828.31</ele>
        <time>2020-07-16T14:01:58Z</time>
      </trkpt>
      <trkpt lat="40.3119593952" lon="-5.8567234967">
        <ele>829.27</ele>
        <time>2020-07-16T14:02:07Z</time>
      </trkpt>
      <trkpt lat="40.3122270294" lon="-5.8565069083">
        <ele>830.24</ele>
        <time>2020-07-16T14:02:18Z</time>
      </trkpt>
      <trkpt lat="40.3124149516" lon="-5.8563149627">
        <ele>831.68</ele>
        <time>2020-07-16T14:02:26Z</time>
      </trkpt>
      <trkpt lat="40.3125664126" lon="-5.8561143000">
        <ele>832.64</ele>
        <time>2020-07-16T14:02:34Z</time>
      </trkpt>
      <trkpt lat="40.3127394989" lon="-5.8558638487">
        <ele>833.60</ele>
        <time>2020-07-16T14:02:43Z</time>
      </trkpt>
      <trkpt lat="40.3128833324" lon="-5.8556165826">
        <ele>834.08</ele>
        <time>2020-07-16T14:02:51Z</time>
      </trkpt>
      <trkpt lat="40.3130408283" lon="-5.8552756906">
        <ele>833.12</ele>
        <time>2020-07-16T14:03:01Z</time>
      </trkpt>
      <trkpt lat="40.3131383937" lon="-5.8550503850">
        <ele>832.64</ele>
        <time>2020-07-16T14:03:08Z</time>
      </trkpt>
      <trkpt lat="40.3132859990" lon="-5.8546918072">
        <ele>831.68</ele>
        <time>2020-07-16T14:03:19Z</time>
      </trkpt>
      <trkpt lat="40.3134347778" lon="-5.8543352410">
        <ele>833.60</ele>
        <time>2020-07-16T14:03:30Z</time>
      </trkpt>
      <trkpt lat="40.3135895915" lon="-5.8540194109">
        <ele>836.00</ele>
        <time>2020-07-16T14:03:40Z</time>
      </trkpt>
      <trkpt lat="40.3137335088" lon="-5.8537731506">
        <ele>837.45</ele>
        <time>2020-07-16T14:03:49Z</time>
      </trkpt>
      <trkpt lat="40.3139058407" lon="-5.8535195980">
        <ele>838.89</ele>
        <time>2020-07-16T14:03:58Z</time>
      </trkpt>
      <trkpt lat="40.3141158912" lon="-5.8532586694">
        <ele>839.37</ele>
        <time>2020-07-16T14:04:08Z</time>
      </trkpt>
      <trkpt lat="40.3143645823" lon="-5.8530211262">
        <ele>838.89</ele>
        <time>2020-07-16T14:04:19Z</time>
      </trkpt>
      <trkpt lat="40.3146546800" lon="-5.8527611196">
        <ele>836.96</ele>
        <time>2020-07-16T14:04:31Z</time>
      </trkpt>
      <trkpt lat="40.3149782214" lon="-5.8524954133">
        <ele>836.96</ele>
        <time>2020-07-16T14:04:44Z</time>
      </trkpt>
      <trkpt lat="40.3152394015" lon="-5.8522805851">
        <ele>836.96</ele>
        <time>2020-07-16T14:04:55Z</time>
      </trkpt>
      <trkpt lat="40.3154667187" lon="-5.8520909026">
        <ele>836.96</ele>
        <time>2020-07-16T14:05:05Z</time>
      </trkpt>
      <trkpt lat="40.3157423995" lon="-5.8518679440">
        <ele>838.89</ele>
        <time>2020-07-16T14:05:16Z</time>
      </trkpt>
      <trkpt lat="40.3159102891" lon="-5.8517319895">
        <ele>841.29</ele>
        <time>2020-07-16T14:05:23Z</time>
      </trkpt>
      <trkpt lat="40.3161391988" lon="-5.8515655249">
        <ele>843.69</ele>
        <time>2020-07-16T14:05:32Z</time>
      </trkpt>
      <trkpt lat="40.3163397778" lon="-5.8513966296">
        <ele>845.62</ele>
        <time>2020-07-16T14:05:40Z</time>
      </trkpt>
      <trkpt lat="40.3165594675" lon="-5.8512018342">
        <ele>846.58</ele>
        <time>2020-07-16T14:05:49Z</time>
      </trkpt>
      <trkpt lat="40.3167551849" lon="-5.8510383032">
        <ele>848.50</ele>
        <time>2020-07-16T14:05:57Z</time>
      </trkpt>
      <trkpt lat="40.3169484716" lon="-5.8508587629">
        <ele>850.42</ele>
        <time>2020-07-16T14:06:05Z</time>
      </trkpt>
      <trkpt lat="40.3172009345" lon="-5.8506430965">
        <ele>851.38</ele>
        <time>2020-07-16T14:06:15Z</time>
      </trkpt>
      <trkpt lat="40.3173560835" lon="-5.8505287673">
        <ele>849.94</ele>
        <time>2020-07-16T14:06:23Z</time>
      </trkpt>
      <trkpt lat="40.3173368052" lon="-5.8505487163">
        <ele>848.50</ele>
        <time>2020-07-16T14:06:29Z</time>
      </trkpt>
      <trkpt lat="40.3173098993" lon="-5.8505577687">
        <ele>847.06</ele>
        <time>2020-07-16T14:06:36Z</time>
      </trkpt>
      <trkpt lat="40.3172425088" lon="-5.8506152686">
        <ele>846.10</ele>
        <time>2020-07-16T14:06:40Z</time>
      </trkpt>
      <trkpt lat="40.3169215657" lon="-5.8508833218">
        <ele>844.66</ele>
        <time>2020-07-16T14:06:50Z</time>
      </trkpt>
      <trkpt lat="40.3166597988" lon="-5.8511177637">
        <ele>841.77</ele>
        <time>2020-07-16T14:06:58Z</time>
      </trkpt>
      <trkpt lat="40.3164837789" lon="-5.8512579091">
        <ele>840.33</ele>
        <time>2020-07-16T14:07:03Z</time>
      </trkpt>
      <trkpt lat="40.3163088486" lon="-5.8514061850">
        <ele>837.45</ele>
        <time>2020-07-16T14:07:08Z</time>
      </trkpt>
      <trkpt lat="40.3162029013" lon="-5.8514978830">
        <ele>836.00</ele>
        <time>2020-07-16T14:07:11Z</time>
      </trkpt>
      <trkpt lat="40.3158511966" lon="-5.8517990448">
        <ele>830.72</ele>
        <time>2020-07-16T14:07:21Z</time>
      </trkpt>
      <trkpt lat="40.3154912777" lon="-5.8520932496">
        <ele>826.39</ele>
        <time>2020-07-16T14:07:31Z</time>
      </trkpt>
      <trkpt lat="40.3150434326" lon="-5.8524715248">
        <ele>828.31</ele>
        <time>2020-07-16T14:07:42Z</time>
      </trkpt>
      <trkpt lat="40.3146236669" lon="-5.8528076392">
        <ele>831.20</ele>
        <time>2020-07-16T14:07:52Z</time>
      </trkpt>
      <trkpt lat="40.3141572140" lon="-5.8532308415">
        <ele>829.76</ele>
        <time>2020-07-16T14:08:03Z</time>
      </trkpt>
      <trkpt lat="40.3137528710" lon="-5.8537300676">
        <ele>829.76</ele>
        <time>2020-07-16T14:08:14Z</time>
      </trkpt>
      <trkpt lat="40.3135530464" lon="-5.8540884778">
        <ele>829.27</ele>
        <time>2020-07-16T14:08:21Z</time>
      </trkpt>
      <trkpt lat="40.3133283276" lon="-5.8545425255">
        <ele>826.39</ele>
        <time>2020-07-16T14:08:29Z</time>
      </trkpt>
      <trkpt lat="40.3131137509" lon="-5.8550353814">
        <ele>823.99</ele>
        <time>2020-07-16T14:08:37Z</time>
      </trkpt>
      <trkpt lat="40.3127880301" lon="-5.8557435684">
        <ele>823.51</ele>
        <time>2020-07-16T14:08:48Z</time>
      </trkpt>
      <trkpt lat="40.3124684282" lon="-5.8562163915">
        <ele>823.03</ele>
        <time>2020-07-16T14:08:57Z</time>
      </trkpt>
      <trkpt lat="40.3120621573" lon="-5.8566235844">
        <ele>822.06</ele>
        <time>2020-07-16T14:09:06Z</time>
      </trkpt>
      <trkpt lat="40.3114845604" lon="-5.8569710981">
        <ele>820.62</ele>
        <time>2020-07-16T14:09:17Z</time>
      </trkpt>
      <trkpt lat="40.3109757788" lon="-5.8571251575">
        <ele>819.66</ele>
        <time>2020-07-16T14:09:26Z</time>
      </trkpt>
      <trkpt lat="40.3103431128" lon="-5.8572665602">
        <ele>817.74</ele>
        <time>2020-07-16T14:09:37Z</time>
      </trkpt>
      <trkpt lat="40.3100142907" lon="-5.8573375549">
        <ele>817.74</ele>
        <time>2020-07-16T14:09:44Z</time>
      </trkpt>
      <trkpt lat="40.3098711278" lon="-5.8573601861">
        <ele>819.18</ele>
        <time>2020-07-16T14:09:51Z</time>
      </trkpt>
      <trkpt lat="40.3098367620" lon="-5.8573753573">
        <ele>819.66</ele>
        <time>2020-07-16T14:09:53Z</time>
      </trkpt>
      <trkpt lat="40.3098303080" lon="-5.8574335277">
        <ele>819.66</ele>
        <time>2020-07-16T14:09:55Z</time>
      </trkpt>
      <trkpt lat="40.3098484967" lon="-5.8574653789">
        <ele>819.18</ele>
        <time>2020-07-16T14:09:56Z</time>
      </trkpt>
      <trkpt lat="40.3098778334" lon="-5.8574867528">
        <ele>818.70</ele>
        <time>2020-07-16T14:09:57Z</time>
      </trkpt>
      <trkpt lat="40.3099185694" lon="-5.8575016726">
        <ele>818.22</ele>
        <time>2020-07-16T14:09:58Z</time>
      </trkpt>
      <trkpt lat="40.3099658433" lon="-5.8575124852">
        <ele>817.74</ele>
        <time>2020-07-16T14:09:59Z</time>
      </trkpt>
      <trkpt lat="40.3100140393" lon="-5.8575211186">
        <ele>817.26</ele>
        <time>2020-07-16T14:10:00Z</time>
      </trkpt>
      <trkpt lat="40.3102015425" lon="-5.8575360384">
        <ele>814.85</ele>
        <time>2020-07-16T14:10:05Z</time>
      </trkpt>
      <trkpt lat="40.3102774825" lon="-5.8576083742">
        <ele>813.41</ele>
        <time>2020-07-16T14:10:08Z</time>
      </trkpt>
      <trkpt lat="40.3102856968" lon="-5.8576501999">
        <ele>812.93</ele>
        <time>2020-07-16T14:10:09Z</time>
      </trkpt>
      <trkpt lat="40.3102822602" lon="-5.8576977253">
        <ele>812.45</ele>
        <time>2020-07-16T14:10:10Z</time>
      </trkpt>
      <trkpt lat="40.3102644905" lon="-5.8577407245">
        <ele>812.45</ele>
        <time>2020-07-16T14:10:11Z</time>
      </trkpt>
      <trkpt lat="40.3102328070" lon="-5.8577777725">
        <ele>811.97</ele>
        <time>2020-07-16T14:10:12Z</time>
      </trkpt>
      <trkpt lat="40.3101864550" lon="-5.8578009903">
        <ele>811.49</ele>
        <time>2020-07-16T14:10:13Z</time>
      </trkpt>
      <trkpt lat="40.3101339005" lon="-5.8578074444">
        <ele>811.01</ele>
        <time>2020-07-16T14:10:14Z</time>
      </trkpt>
      <trkpt lat="40.3100753110" lon="-5.8578019124">
        <ele>811.01</ele>
        <time>2020-07-16T14:10:15Z</time>
      </trkpt>
      <trkpt lat="40.3100164700" lon="-5.8577880822">
        <ele>810.53</ele>
        <time>2020-07-16T14:10:16Z</time>
      </trkpt>
      <trkpt lat="40.3099593893" lon="-5.8577626850">
        <ele>810.05</ele>
        <time>2020-07-16T14:10:17Z</time>
      </trkpt>
      <trkpt lat="40.3099034820" lon="-5.8577322587">
        <ele>809.57</ele>
        <time>2020-07-16T14:10:18Z</time>
      </trkpt>
      <trkpt lat="40.3097872250" lon="-5.8576963842">
        <ele>809.09</ele>
        <time>2020-07-16T14:10:21Z</time>
      </trkpt>
      <trkpt lat="40.3097729757" lon="-5.8577261399">
        <ele>808.61</ele>
        <time>2020-07-16T14:10:22Z</time>
      </trkpt>
      <trkpt lat="40.3097811062" lon="-5.8577662054">
        <ele>808.13</ele>
        <time>2020-07-16T14:10:23Z</time>
      </trkpt>
      <trkpt lat="40.3098101076" lon="-5.8578035049">
        <ele>807.64</ele>
        <time>2020-07-16T14:10:24Z</time>
      </trkpt>
      <trkpt lat="40.3098563757" lon="-5.8578278124">
        <ele>807.16</ele>
        <time>2020-07-16T14:10:25Z</time>
      </trkpt>
      <trkpt lat="40.3099067509" lon="-5.8578425646">
        <ele>807.16</ele>
        <time>2020-07-16T14:10:26Z</time>
      </trkpt>
      <trkpt lat="40.3099599760" lon="-5.8578540478">
        <ele>806.68</ele>
        <time>2020-07-16T14:10:27Z</time>
      </trkpt>
      <trkpt lat="40.3102782369" lon="-5.8578853123">
        <ele>806.20</ele>
        <time>2020-07-16T14:10:32Z</time>
      </trkpt>
      <trkpt lat="40.3103547636" lon="-5.8578665368">
        <ele>805.72</ele>
        <time>2020-07-16T14:10:33Z</time>
      </trkpt>
      <trkpt lat="40.3106524888" lon="-5.8578019124">
        <ele>803.80</ele>
        <time>2020-07-16T14:10:37Z</time>
      </trkpt>
      <trkpt lat="40.3107208852" lon="-5.8578201011">
        <ele>802.84</ele>
        <time>2020-07-16T14:10:38Z</time>
      </trkpt>
      <trkpt lat="40.3107850906" lon="-5.8578592446">
        <ele>802.36</ele>
        <time>2020-07-16T14:10:39Z</time>
      </trkpt>
      <trkpt lat="40.3108463623" lon="-5.8579129726">
        <ele>801.88</ele>
        <time>2020-07-16T14:10:40Z</time>
      </trkpt>
      <trkpt lat="40.3109003417" lon="-5.8579636831">
        <ele>801.40</ele>
        <time>2020-07-16T14:10:41Z</time>
      </trkpt>
      <trkpt lat="40.3110538144" lon="-5.8580931835">
        <ele>799.47</ele>
        <time>2020-07-16T14:10:44Z</time>
      </trkpt>
      <trkpt lat="40.3111101408" lon="-5.8581070136">
        <ele>798.99</ele>
        <time>2020-07-16T14:10:45Z</time>
      </trkpt>
      <trkpt lat="40.3111711610" lon="-5.8580997214">
        <ele>798.51</ele>
        <time>2020-07-16T14:10:46Z</time>
      </trkpt>
      <trkpt lat="40.3112366237" lon="-5.8580740727">
        <ele>798.03</ele>
        <time>2020-07-16T14:10:47Z</time>
      </trkpt>
      <trkpt lat="40.3112972248" lon="-5.8580385335">
        <ele>798.03</ele>
        <time>2020-07-16T14:10:48Z</time>
      </trkpt>
      <trkpt lat="40.3113555629" lon="-5.8579983842">
        <ele>797.55</ele>
        <time>2020-07-16T14:10:49Z</time>
      </trkpt>
      <trkpt lat="40.3114136495" lon="-5.8579573128">
        <ele>797.55</ele>
        <time>2020-07-16T14:10:50Z</time>
      </trkpt>
      <trkpt lat="40.3114729095" lon="-5.8579207677">
        <ele>797.07</ele>
        <time>2020-07-16T14:10:51Z</time>
      </trkpt>
      <trkpt lat="40.3115411382" lon="-5.8578863181">
        <ele>797.07</ele>
        <time>2020-07-16T14:10:52Z</time>
      </trkpt>
      <trkpt lat="40.3116086125" lon="-5.8578640223">
        <ele>796.59</ele>
        <time>2020-07-16T14:10:53Z</time>
      </trkpt>
      <trkpt lat="40.3116809484" lon="-5.8578511141">
        <ele>796.59</ele>
        <time>2020-07-16T14:10:54Z</time>
      </trkpt>
      <trkpt lat="40.3117551282" lon="-5.8578469232">
        <ele>796.11</ele>
        <time>2020-07-16T14:10:55Z</time>
      </trkpt>
      <trkpt lat="40.3118378576" lon="-5.8578503598">
        <ele>796.11</ele>
        <time>2020-07-16T14:10:56Z</time>
      </trkpt>
      <trkpt lat="40.3119185753" lon="-5.8578556404">
        <ele>795.63</ele>
        <time>2020-07-16T14:10:57Z</time>
      </trkpt>
      <trkpt lat="40.3124162089" lon="-5.8578794450">
        <ele>792.26</ele>
        <time>2020-07-16T14:11:03Z</time>
      </trkpt>
      <trkpt lat="40.3125018720" lon="-5.8578640223">
        <ele>791.30</ele>
        <time>2020-07-16T14:11:04Z</time>
      </trkpt>
      <trkpt lat="40.3125889599" lon="-5.8578341827">
        <ele>790.34</ele>
        <time>2020-07-16T14:11:05Z</time>
      </trkpt>
      <trkpt lat="40.3126788978" lon="-5.8577895071">
        <ele>789.86</ele>
        <time>2020-07-16T14:11:06Z</time>
      </trkpt>
      <trkpt lat="40.3127604537" lon="-5.8577449154">
        <ele>789.38</ele>
        <time>2020-07-16T14:11:07Z</time>
      </trkpt>
      <trkpt lat="40.3132005874" lon="-5.8574961405">
        <ele>786.50</ele>
        <time>2020-07-16T14:11:13Z</time>
      </trkpt>
      <trkpt lat="40.3132602666" lon="-5.8574512973">
        <ele>786.02</ele>
        <time>2020-07-16T14:11:14Z</time>
      </trkpt>
      <trkpt lat="40.3133192752" lon="-5.8573905285">
        <ele>785.53</ele>
        <time>2020-07-16T14:11:15Z</time>
      </trkpt>
      <trkpt lat="40.3133711591" lon="-5.8573098108">
        <ele>784.57</ele>
        <time>2020-07-16T14:11:16Z</time>
      </trkpt>
      <trkpt lat="40.3134087101" lon="-5.8572257403">
        <ele>784.57</ele>
        <time>2020-07-16T14:11:17Z</time>
      </trkpt>
      <trkpt lat="40.3134448361" lon="-5.8571239002">
        <ele>783.61</ele>
        <time>2020-07-16T14:11:18Z</time>
      </trkpt>
      <trkpt lat="40.3134729154" lon="-5.8570270054">
        <ele>783.13</ele>
        <time>2020-07-16T14:11:19Z</time>
      </trkpt>
      <trkpt lat="40.3136556409" lon="-5.8564205747">
        <ele>780.25</ele>
        <time>2020-07-16T14:11:25Z</time>
      </trkpt>
      <trkpt lat="40.3136988916" lon="-5.8563394379">
        <ele>779.77</ele>
        <time>2020-07-16T14:11:26Z</time>
      </trkpt>
      <trkpt lat="40.3137511108" lon="-5.8562786691">
        <ele>779.77</ele>
        <time>2020-07-16T14:11:27Z</time>
      </trkpt>
      <trkpt lat="40.3138152324" lon="-5.8562352508">
        <ele>779.29</ele>
        <time>2020-07-16T14:11:28Z</time>
      </trkpt>
      <trkpt lat="40.3138915077" lon="-5.8562033996">
        <ele>778.81</ele>
        <time>2020-07-16T14:11:29Z</time>
      </trkpt>
      <trkpt lat="40.3139649332" lon="-5.8561696205">
        <ele>778.32</ele>
        <time>2020-07-16T14:11:30Z</time>
      </trkpt>
      <trkpt lat="40.3140410408" lon="-5.8561132941">
        <ele>777.84</ele>
        <time>2020-07-16T14:11:31Z</time>
      </trkpt>
      <trkpt lat="40.3140997142" lon="-5.8560462389">
        <ele>777.36</ele>
        <time>2020-07-16T14:11:32Z</time>
      </trkpt>
      <trkpt lat="40.3141546994" lon="-5.8559496794">
        <ele>776.40</ele>
        <time>2020-07-16T14:11:33Z</time>
      </trkpt>
      <trkpt lat="40.3141961899" lon="-5.8558446541">
        <ele>775.92</ele>
        <time>2020-07-16T14:11:34Z</time>
      </trkpt>
      <trkpt lat="40.3142304718" lon="-5.8557402156">
        <ele>775.44</ele>
        <time>2020-07-16T14:11:35Z</time>
      </trkpt>
      <trkpt lat="40.3142979462" lon="-5.8555339370">
        <ele>774.48</ele>
        <time>2020-07-16T14:11:37Z</time>
      </trkpt>
      <trkpt lat="40.3143439628" lon="-5.8554431610">
        <ele>773.52</ele>
        <time>2020-07-16T14:11:38Z</time>
      </trkpt>
      <trkpt lat="40.3143975232" lon="-5.8553780336">
        <ele>773.04</ele>
        <time>2020-07-16T14:11:39Z</time>
      </trkpt>
      <trkpt lat="40.3144627344" lon="-5.8553305920">
        <ele>772.56</ele>
        <time>2020-07-16T14:11:40Z</time>
      </trkpt>
      <trkpt lat="40.3145360760" lon="-5.8553099725">
        <ele>772.56</ele>
        <time>2020-07-16T14:11:41Z</time>
      </trkpt>
      <trkpt lat="40.3146024607" lon="-5.8553215396">
        <ele>772.08</ele>
        <time>2020-07-16T14:11:42Z</time>
      </trkpt>
      <trkpt lat="40.3146610502" lon="-5.8553669695">
        <ele>771.60</ele>
        <time>2020-07-16T14:11:43Z</time>
      </trkpt>
      <trkpt lat="40.3147028759" lon="-5.8554349467">
        <ele>771.60</ele>
        <time>2020-07-16T14:11:44Z</time>
      </trkpt>
      <trkpt lat="40.3147363197" lon="-5.8555146586">
        <ele>771.11</ele>
        <time>2020-07-16T14:11:45Z</time>
      </trkpt>
      <trkpt lat="40.3147682548" lon="-5.8555966336">
        <ele>770.63</ele>
        <time>2020-07-16T14:11:46Z</time>
      </trkpt>
      <trkpt lat="40.3148164507" lon="-5.8556816261">
        <ele>770.15</ele>
        <time>2020-07-16T14:11:47Z</time>
      </trkpt>
      <trkpt lat="40.3148736153" lon="-5.8557446580">
        <ele>769.67</ele>
        <time>2020-07-16T14:11:48Z</time>
      </trkpt>
      <trkpt lat="40.3149409220" lon="-5.8557857294">
        <ele>769.19</ele>
        <time>2020-07-16T14:11:49Z</time>
      </trkpt>
      <trkpt lat="40.3150145989" lon="-5.8558019064">
        <ele>768.71</ele>
        <time>2020-07-16T14:11:50Z</time>
      </trkpt>
      <trkpt lat="40.3151018545" lon="-5.8558002301">
        <ele>768.23</ele>
        <time>2020-07-16T14:11:51Z</time>
      </trkpt>
      <trkpt lat="40.3151843324" lon="-5.8557922672">
        <ele>767.75</ele>
        <time>2020-07-16T14:11:52Z</time>
      </trkpt>
      <trkpt lat="40.3152813111" lon="-5.8557936922">
        <ele>767.27</ele>
        <time>2020-07-16T14:11:53Z</time>
      </trkpt>
      <trkpt lat="40.3156799544" lon="-5.8558869828">
        <ele>764.87</ele>
        <time>2020-07-16T14:11:58Z</time>
      </trkpt>
      <trkpt lat="40.3157688025" lon="-5.8558912575">
        <ele>763.90</ele>
        <time>2020-07-16T14:11:59Z</time>
      </trkpt>
      <trkpt lat="40.3158437368" lon="-5.8558833785">
        <ele>763.42</ele>
        <time>2020-07-16T14:12:00Z</time>
      </trkpt>
      <trkpt lat="40.3159366921" lon="-5.8558614179">
        <ele>762.94</ele>
        <time>2020-07-16T14:12:01Z</time>
      </trkpt>
      <trkpt lat="40.3160252888" lon="-5.8558280580">
        <ele>762.94</ele>
        <time>2020-07-16T14:12:02Z</time>
      </trkpt>
      <trkpt lat="40.3161192499" lon="-5.8557899203">
        <ele>762.46</ele>
        <time>2020-07-16T14:12:03Z</time>
      </trkpt>
      <trkpt lat="40.3167173825" lon="-5.8555165026">
        <ele>759.58</ele>
        <time>2020-07-16T14:12:10Z</time>
      </trkpt>
      <trkpt lat="40.3173258249" lon="-5.8551357966">
        <ele>755.25</ele>
        <time>2020-07-16T14:12:18Z</time>
      </trkpt>
      <trkpt lat="40.3177545592" lon="-5.8548485488">
        <ele>751.89</ele>
        <time>2020-07-16T14:12:25Z</time>
      </trkpt>
      <trkpt lat="40.3178585786" lon="-5.8547576051">
        <ele>750.93</ele>
        <time>2020-07-16T14:12:27Z</time>
      </trkpt>
      <trkpt lat="40.3179131448" lon="-5.8546944894">
        <ele>750.45</ele>
        <time>2020-07-16T14:12:28Z</time>
      </trkpt>
      <trkpt lat="40.3181050904" lon="-5.8544623107">
        <ele>748.52</ele>
        <time>2020-07-16T14:12:33Z</time>
      </trkpt>
      <trkpt lat="40.3182215150" lon="-5.8543875441">
        <ele>747.08</ele>
        <time>2020-07-16T14:12:38Z</time>
      </trkpt>
      <trkpt lat="40.3182676993" lon="-5.8544049785">
        <ele>745.64</ele>
        <time>2020-07-16T14:12:44Z</time>
      </trkpt>
      <trkpt lat="40.3182656039" lon="-5.8544071577">
        <ele>744.68</ele>
        <time>2020-07-16T14:12:53Z</time>
      </trkpt>
      <trkpt lat="40.3182781767" lon="-5.8544214908">
        <ele>744.20</ele>
        <time>2020-07-16T14:12:54Z</time>
      </trkpt>
      <trkpt lat="40.3183367662" lon="-5.8545372449">
        <ele>743.72</ele>
        <time>2020-07-16T14:13:02Z</time>
      </trkpt>
      <trkpt lat="40.3183297254" lon="-5.8545503207">
        <ele>745.16</ele>
        <time>2020-07-16T14:13:15Z</time>
      </trkpt>
      <trkpt lat="40.3183319047" lon="-5.8545674197">
        <ele>745.16</ele>
        <time>2020-07-16T14:13:17Z</time>
      </trkpt>
      <trkpt lat="40.3183352575" lon="-5.8545944933">
        <ele>745.16</ele>
        <time>2020-07-16T14:13:18Z</time>
      </trkpt>
      <trkpt lat="40.3183911648" lon="-5.8547654841">
        <ele>743.72</ele>
        <time>2020-07-16T14:13:25Z</time>
      </trkpt>
      <trkpt lat="40.3184945974" lon="-5.8550253231">
        <ele>742.28</ele>
        <time>2020-07-16T14:13:32Z</time>
      </trkpt>
      <trkpt lat="40.3185089305" lon="-5.8550749440">
        <ele>741.79</ele>
        <time>2020-07-16T14:13:33Z</time>
      </trkpt>
      <trkpt lat="40.3185184021" lon="-5.8551202063">
        <ele>741.31</ele>
        <time>2020-07-16T14:13:34Z</time>
      </trkpt>
      <trkpt lat="40.3185261134" lon="-5.8551724255">
        <ele>741.31</ele>
        <time>2020-07-16T14:13:35Z</time>
      </trkpt>
      <trkpt lat="40.3185506724" lon="-5.8555428218">
        <ele>736.99</ele>
        <time>2020-07-16T14:13:41Z</time>
      </trkpt>
      <trkpt lat="40.3185522649" lon="-5.8556671254">
        <ele>736.03</ele>
        <time>2020-07-16T14:13:43Z</time>
      </trkpt>
      <trkpt lat="40.3185620718" lon="-5.8557350188">
        <ele>735.55</ele>
        <time>2020-07-16T14:13:44Z</time>
      </trkpt>
      <trkpt lat="40.3185807634" lon="-5.8557953686">
        <ele>735.07</ele>
        <time>2020-07-16T14:13:45Z</time>
      </trkpt>
      <trkpt lat="40.3186093457" lon="-5.8558485098">
        <ele>735.07</ele>
        <time>2020-07-16T14:13:46Z</time>
      </trkpt>
      <trkpt lat="40.3186465614" lon="-5.8558956161">
        <ele>734.58</ele>
        <time>2020-07-16T14:13:47Z</time>
      </trkpt>
      <trkpt lat="40.3186907340" lon="-5.8559358492">
        <ele>734.10</ele>
        <time>2020-07-16T14:13:48Z</time>
      </trkpt>
      <trkpt lat="40.3187336493" lon="-5.8559674490">
        <ele>734.10</ele>
        <time>2020-07-16T14:13:49Z</time>
      </trkpt>
      <trkpt lat="40.3187775705" lon="-5.8559968695">
        <ele>733.62</ele>
        <time>2020-07-16T14:13:50Z</time>
      </trkpt>
      <trkpt lat="40.3188218269" lon="-5.8560203388">
        <ele>733.14</ele>
        <time>2020-07-16T14:13:51Z</time>
      </trkpt>
      <trkpt lat="40.3188743815" lon="-5.8560407907">
        <ele>732.66</ele>
        <time>2020-07-16T14:13:52Z</time>
      </trkpt>
      <trkpt lat="40.3189343121" lon="-5.8560559619">
        <ele>732.18</ele>
        <time>2020-07-16T14:13:53Z</time>
      </trkpt>
      <trkpt lat="40.3189876210" lon="-5.8560595661">
        <ele>732.18</ele>
        <time>2020-07-16T14:13:54Z</time>
      </trkpt>
      <trkpt lat="40.3190414328" lon="-5.8560575545">
        <ele>731.70</ele>
        <time>2020-07-16T14:13:55Z</time>
      </trkpt>
      <trkpt lat="40.3191822488" lon="-5.8560564648">
        <ele>731.22</ele>
        <time>2020-07-16T14:13:58Z</time>
      </trkpt>
      <trkpt lat="40.3192757908" lon="-5.8560641762">
        <ele>731.22</ele>
        <time>2020-07-16T14:14:00Z</time>
      </trkpt>
      <trkpt lat="40.3193173651" lon="-5.8560617454">
        <ele>731.22</ele>
        <time>2020-07-16T14:14:01Z</time>
      </trkpt>
      <trkpt lat="40.3193586040" lon="-5.8560548723">
        <ele>731.22</ele>
        <time>2020-07-16T14:14:02Z</time>
      </trkpt>
      <trkpt lat="40.3194042016" lon="-5.8560430538">
        <ele>730.74</ele>
        <time>2020-07-16T14:14:03Z</time>
      </trkpt>
      <trkpt lat="40.3194369748" lon="-5.8560324926">
        <ele>730.74</ele>
        <time>2020-07-16T14:14:04Z</time>
      </trkpt>
      <trkpt lat="40.3196732607" lon="-5.8559526969">
        <ele>734.10</ele>
        <time>2020-07-16T14:14:13Z</time>
      </trkpt>
      <trkpt lat="40.3197611868" lon="-5.8559174929">
        <ele>735.55</ele>
        <time>2020-07-16T14:14:20Z</time>
      </trkpt>
      <trkpt lat="40.3197569959" lon="-5.8559324127">
        <ele>736.03</ele>
        <time>2020-07-16T14:14:28Z</time>
      </trkpt>
      <trkpt lat="40.3197703231" lon="-5.8559692092">
        <ele>736.03</ele>
        <time>2020-07-16T14:14:33Z</time>
      </trkpt>
      <trkpt lat="40.3197788727" lon="-5.8560356777">
        <ele>736.03</ele>
        <time>2020-07-16T14:14:37Z</time>
      </trkpt>
      <trkpt lat="40.3197929543" lon="-5.8560474962">
        <ele>736.03</ele>
        <time>2020-07-16T14:14:38Z</time>
      </trkpt>
      <trkpt lat="40.3198033478" lon="-5.8560640924">
        <ele>735.55</ele>
        <time>2020-07-16T14:14:39Z</time>
      </trkpt>
      <trkpt lat="40.3198081255" lon="-5.8560801018">
        <ele>735.55</ele>
        <time>2020-07-16T14:14:40Z</time>
      </trkpt>
      <trkpt lat="40.3198148310" lon="-5.8561059181">
        <ele>735.55</ele>
        <time>2020-07-16T14:14:41Z</time>
      </trkpt>
      <trkpt lat="40.3198292479" lon="-5.8561246097">
        <ele>735.07</ele>
        <time>2020-07-16T14:14:42Z</time>
      </trkpt>
      <trkpt lat="40.3198565729" lon="-5.8561392780">
        <ele>734.58</ele>
        <time>2020-07-16T14:14:43Z</time>
      </trkpt>
      <trkpt lat="40.3198909387" lon="-5.8561387751">
        <ele>734.58</ele>
        <time>2020-07-16T14:14:44Z</time>
      </trkpt>
      <trkpt lat="40.3201153222" lon="-5.8560983744">
        <ele>734.10</ele>
        <time>2020-07-16T14:14:52Z</time>
      </trkpt>
      <trkpt lat="40.3203800227" lon="-5.8560738992">
        <ele>733.62</ele>
        <time>2020-07-16T14:15:01Z</time>
      </trkpt>
      <trkpt lat="40.3206404485" lon="-5.8560926747">
        <ele>731.70</ele>
        <time>2020-07-16T14:15:09Z</time>
      </trkpt>
      <trkpt lat="40.3209955059" lon="-5.8561159763">
        <ele>731.22</ele>
        <time>2020-07-16T14:15:17Z</time>
      </trkpt>
      <trkpt lat="40.3214389924" lon="-5.8561547846">
        <ele>729.78</ele>
        <time>2020-07-16T14:15:25Z</time>
      </trkpt>
      <trkpt lat="40.3219083790" lon="-5.8561983705">
        <ele>726.89</ele>
        <time>2020-07-16T14:15:34Z</time>
      </trkpt>
      <trkpt lat="40.3223333415" lon="-5.8562369272">
        <ele>724.97</ele>
        <time>2020-07-16T14:15:41Z</time>
      </trkpt>
      <trkpt lat="40.3224002291" lon="-5.8562509250">
        <ele>724.97</ele>
        <time>2020-07-16T14:15:42Z</time>
      </trkpt>
      <trkpt lat="40.3224574775" lon="-5.8562692814">
        <ele>724.49</ele>
        <time>2020-07-16T14:15:43Z</time>
      </trkpt>
      <trkpt lat="40.3228827752" lon="-5.8564675134">
        <ele>722.57</ele>
        <time>2020-07-16T14:15:50Z</time>
      </trkpt>
      <trkpt lat="40.3230024688" lon="-5.8565586247">
        <ele>721.61</ele>
        <time>2020-07-16T14:15:53Z</time>
      </trkpt>
      <trkpt lat="40.3230357450" lon="-5.8566078264">
        <ele>721.61</ele>
        <time>2020-07-16T14:15:54Z</time>
      </trkpt>
      <trkpt lat="40.3230556101" lon="-5.8566603810">
        <ele>721.13</ele>
        <time>2020-07-16T14:15:55Z</time>
      </trkpt>
      <trkpt lat="40.3230634052" lon="-5.8567299508">
        <ele>720.65</ele>
        <time>2020-07-16T14:15:56Z</time>
      </trkpt>
      <trkpt lat="40.3230582923" lon="-5.8567859419">
        <ele>720.65</ele>
        <time>2020-07-16T14:15:57Z</time>
      </trkpt>
      <trkpt lat="40.3230406903" lon="-5.8568475489">
        <ele>720.16</ele>
        <time>2020-07-16T14:15:58Z</time>
      </trkpt>
      <trkpt lat="40.3230153769" lon="-5.8568904642">
        <ele>720.16</ele>
        <time>2020-07-16T14:15:59Z</time>
      </trkpt>
      <trkpt lat="40.3229749762" lon="-5.8569339663">
        <ele>720.16</ele>
        <time>2020-07-16T14:16:00Z</time>
      </trkpt>
      <trkpt lat="40.3229373414" lon="-5.8569565136">
        <ele>719.68</ele>
        <time>2020-07-16T14:16:01Z</time>
      </trkpt>
      <trkpt lat="40.3228856251" lon="-5.8569751214">
        <ele>719.68</ele>
        <time>2020-07-16T14:16:02Z</time>
      </trkpt>
      <trkpt lat="40.3228386864" lon="-5.8569866884">
        <ele>719.20</ele>
        <time>2020-07-16T14:16:03Z</time>
      </trkpt>
      <trkpt lat="40.3227831144" lon="-5.8569963276">
        <ele>719.20</ele>
        <time>2020-07-16T14:16:04Z</time>
      </trkpt>
      <trkpt lat="40.3227313980" lon="-5.8570050448">
        <ele>718.72</ele>
        <time>2020-07-16T14:16:05Z</time>
      </trkpt>
      <trkpt lat="40.3224299848" lon="-5.8570353035">
        <ele>719.68</ele>
        <time>2020-07-16T14:16:12Z</time>
      </trkpt>
      <trkpt lat="40.3223397117" lon="-5.8570538275">
        <ele>719.68</ele>
        <time>2020-07-16T14:16:15Z</time>
      </trkpt>
      <trkpt lat="40.3223242890" lon="-5.8570752013">
        <ele>719.68</ele>
        <time>2020-07-16T14:16:16Z</time>
      </trkpt>
      <trkpt lat="40.3223165777" lon="-5.8570969943">
        <ele>719.20</ele>
        <time>2020-07-16T14:16:17Z</time>
      </trkpt>
      <trkpt lat="40.3223048430" lon="-5.8571213018">
        <ele>718.72</ele>
        <time>2020-07-16T14:16:18Z</time>
      </trkpt>
      <trkpt lat="40.3222845588" lon="-5.8571378980">
        <ele>718.24</ele>
        <time>2020-07-16T14:16:19Z</time>
      </trkpt>
      <trkpt lat="40.3222568985" lon="-5.8571485430">
        <ele>717.76</ele>
        <time>2020-07-16T14:16:20Z</time>
      </trkpt>
      <trkpt lat="40.3222317528" lon="-5.8571538236">
        <ele>717.76</ele>
        <time>2020-07-16T14:16:21Z</time>
      </trkpt>
      <trkpt lat="40.3222000692" lon="-5.8571582660">
        <ele>717.28</ele>
        <time>2020-07-16T14:16:22Z</time>
      </trkpt>
      <trkpt lat="40.3219838999" lon="-5.8571973257">
        <ele>715.36</ele>
        <time>2020-07-16T14:16:31Z</time>
      </trkpt>
      <trkpt lat="40.3219776973" lon="-5.8572035283">
        <ele>716.32</ele>
        <time>2020-07-16T14:16:48Z</time>
      </trkpt>
      <trkpt lat="40.3219631128" lon="-5.8572138380">
        <ele>716.32</ele>
        <time>2020-07-16T14:17:10Z</time>
      </trkpt>
      <trkpt lat="40.3218979854" lon="-5.8572374750">
        <ele>714.88</ele>
        <time>2020-07-16T14:17:23Z</time>
      </trkpt>
      <trkpt lat="40.3216974903" lon="-5.8572783787">
        <ele>711.99</ele>
        <time>2020-07-16T14:17:29Z</time>
      </trkpt>
      <trkpt lat="40.3215533216" lon="-5.8572454378">
        <ele>711.99</ele>
        <time>2020-07-16T14:17:34Z</time>
      </trkpt>
      <trkpt lat="40.3214920498" lon="-5.8571298514">
        <ele>712.95</ele>
        <time>2020-07-16T14:17:40Z</time>
      </trkpt>
      <trkpt lat="40.3214522358" lon="-5.8570353035">
        <ele>712.95</ele>
        <time>2020-07-16T14:17:47Z</time>
      </trkpt>
      <trkpt lat="40.3214414231" lon="-5.8570246585">
        <ele>712.47</ele>
        <time>2020-07-16T14:17:55Z</time>
      </trkpt>
      <trkpt lat="40.3214415070" lon="-5.8570481278">
        <ele>714.40</ele>
        <time>2020-07-16T14:18:02Z</time>
      </trkpt>
      <trkpt lat="40.3214249108" lon="-5.8570631314">
        <ele>714.40</ele>
        <time>2020-07-16T14:18:09Z</time>
      </trkpt>
      <trkpt lat="40.3214270063" lon="-5.8570565097">
        <ele>716.80</ele>
        <time>2020-07-16T14:18:26Z</time>
      </trkpt>
      <trkpt lat="40.3214557562" lon="-5.8570239879">
        <ele>717.76</ele>
        <time>2020-07-16T14:18:52Z</time>
      </trkpt>
      <trkpt lat="40.3214665689" lon="-5.8570130914">
        <ele>716.80</ele>
        <time>2020-07-16T14:19:12Z</time>
      </trkpt>
      <trkpt lat="40.3214717656" lon="-5.8570094034">
        <ele>715.84</ele>
        <time>2020-07-16T14:19:25Z</time>
      </trkpt>
      <trkpt lat="40.3214752860" lon="-5.8569690026">
        <ele>715.84</ele>
        <time>2020-07-16T14:19:31Z</time>
      </trkpt>
      <trkpt lat="40.3214720171" lon="-5.8569580223">
        <ele>715.84</ele>
        <time>2020-07-16T14:19:32Z</time>
      </trkpt>
      <trkpt lat="40.3214612883" lon="-5.8569565974">
        <ele>716.32</ele>
        <time>2020-07-16T14:19:38Z</time>
      </trkpt>
      <trkpt lat="40.3214534931" lon="-5.8569688350">
        <ele>716.32</ele>
        <time>2020-07-16T14:19:46Z</time>
      </trkpt>
      <trkpt lat="40.3214822430" lon="-5.8569344692">
        <ele>716.32</ele>
        <time>2020-07-16T14:19:53Z</time>
      </trkpt>
      <trkpt lat="40.3214909602" lon="-5.8569238242">
        <ele>716.32</ele>
        <time>2020-07-16T14:19:54Z</time>
      </trkpt>
      <trkpt lat="40.3214916307" lon="-5.8568178769">
        <ele>715.36</ele>
        <time>2020-07-16T14:20:06Z</time>
      </trkpt>
      <trkpt lat="40.3214166127" lon="-5.8566748817">
        <ele>712.95</ele>
        <time>2020-07-16T14:20:19Z</time>
      </trkpt>
      <trkpt lat="40.3214679100" lon="-5.8565758914">
        <ele>710.07</ele>
        <time>2020-07-16T14:20:34Z</time>
      </trkpt>
      <trkpt lat="40.3214932233" lon="-5.8568703476">
        <ele>707.67</ele>
        <time>2020-07-16T14:20:49Z</time>
      </trkpt>
      <trkpt lat="40.3214827459" lon="-5.8569330443">
        <ele>706.23</ele>
        <time>2020-07-16T14:21:06Z</time>
      </trkpt>
      <trkpt lat="40.3215425089" lon="-5.8570171148">
        <ele>706.23</ele>
        <time>2020-07-16T14:21:24Z</time>
      </trkpt>
      <trkpt lat="40.3215415869" lon="-5.8570037875">
        <ele>706.23</ele>
        <time>2020-07-16T14:21:37Z</time>
      </trkpt>
      <trkpt lat="40.3213177901" lon="-5.8570249937">
        <ele>728.82</ele>
        <time>2020-07-17T07:45:25Z</time>
      </trkpt>
      <trkpt lat="40.3213177901" lon="-5.8571642172">
        <ele>721.61</ele>
        <time>2020-07-17T07:45:36Z</time>
      </trkpt>
      <trkpt lat="40.3213540837" lon="-5.8572555799">
        <ele>718.24</ele>
        <time>2020-07-17T07:45:46Z</time>
      </trkpt>
      <trkpt lat="40.3214389924" lon="-5.8570689987">
        <ele>709.59</ele>
        <time>2020-07-17T07:45:58Z</time>
      </trkpt>
      <trkpt lat="40.3214518167" lon="-5.8570524864">
        <ele>722.57</ele>
        <time>2020-07-17T07:46:11Z</time>
      </trkpt>
      <trkpt lat="40.3214581870" lon="-5.8570819907">
        <ele>723.53</ele>
        <time>2020-07-17T07:46:17Z</time>
      </trkpt>
      <trkpt lat="40.3215638828" lon="-5.8571016043">
        <ele>720.65</ele>
        <time>2020-07-17T07:46:24Z</time>
      </trkpt>
      <trkpt lat="40.3217138350" lon="-5.8570800629">
        <ele>721.13</ele>
        <time>2020-07-17T07:46:32Z</time>
      </trkpt>
      <trkpt lat="40.3218767792" lon="-5.8570441883">
        <ele>720.16</ele>
        <time>2020-07-17T07:46:40Z</time>
      </trkpt>
      <trkpt lat="40.3220153321" lon="-5.8570495527">
        <ele>721.61</ele>
        <time>2020-07-17T07:46:47Z</time>
      </trkpt>
      <trkpt lat="40.3222498577" lon="-5.8570080623">
        <ele>724.01</ele>
        <time>2020-07-17T07:46:57Z</time>
      </trkpt>
      <trkpt lat="40.3224243689" lon="-5.8569804858">
        <ele>724.01</ele>
        <time>2020-07-17T07:47:05Z</time>
      </trkpt>
      <trkpt lat="40.3225642629" lon="-5.8569586091">
        <ele>726.41</ele>
        <time>2020-07-17T07:47:12Z</time>
      </trkpt>
      <trkpt lat="40.3227388579" lon="-5.8569459524">
        <ele>727.86</ele>
        <time>2020-07-17T07:47:20Z</time>
      </trkpt>
      <trkpt lat="40.3229463939" lon="-5.8568362333">
        <ele>729.30</ele>
        <time>2020-07-17T07:47:29Z</time>
      </trkpt>
      <trkpt lat="40.3229323961" lon="-5.8566576149">
        <ele>730.26</ele>
        <time>2020-07-17T07:47:35Z</time>
      </trkpt>
      <trkpt lat="40.3227895685" lon="-5.8565167151">
        <ele>732.66</ele>
        <time>2020-07-17T07:47:43Z</time>
      </trkpt>
      <trkpt lat="40.3226029035" lon="-5.8564209100">
        <ele>733.14</ele>
        <time>2020-07-17T07:47:51Z</time>
      </trkpt>
      <trkpt lat="40.3224376962" lon="-5.8563564532">
        <ele>732.66</ele>
        <time>2020-07-17T07:47:58Z</time>
      </trkpt>
      <trkpt lat="40.3222372849" lon="-5.8563066646">
        <ele>734.10</ele>
        <time>2020-07-17T07:48:07Z</time>
      </trkpt>
      <trkpt lat="40.3219808824" lon="-5.8562779147">
        <ele>736.51</ele>
        <time>2020-07-17T07:48:18Z</time>
      </trkpt>
      <trkpt lat="40.3217746876" lon="-5.8562603965">
        <ele>737.95</ele>
        <time>2020-07-17T07:48:27Z</time>
      </trkpt>
      <trkpt lat="40.3215437662" lon="-5.8562467340">
        <ele>737.47</ele>
        <time>2020-07-17T07:48:37Z</time>
      </trkpt>
      <trkpt lat="40.3214117512" lon="-5.8562372625">
        <ele>738.43</ele>
        <time>2020-07-17T07:48:43Z</time>
      </trkpt>
      <trkpt lat="40.3212307859" lon="-5.8562260307">
        <ele>739.87</ele>
        <time>2020-07-17T07:48:51Z</time>
      </trkpt>
      <trkpt lat="40.3210473061" lon="-5.8562147152">
        <ele>740.35</ele>
        <time>2020-07-17T07:48:59Z</time>
      </trkpt>
      <trkpt lat="40.3207613155" lon="-5.8561833669">
        <ele>739.87</ele>
        <time>2020-07-17T07:49:11Z</time>
      </trkpt>
      <trkpt lat="40.3205158096" lon="-5.8561626635">
        <ele>740.35</ele>
        <time>2020-07-17T07:49:21Z</time>
      </trkpt>
      <trkpt lat="40.3202502709" lon="-5.8561507612">
        <ele>739.87</ele>
        <time>2020-07-17T07:49:32Z</time>
      </trkpt>
      <trkpt lat="40.3200444952" lon="-5.8561963588">
        <ele>739.39</ele>
        <time>2020-07-17T07:49:41Z</time>
      </trkpt>
      <trkpt lat="40.3200066090" lon="-5.8562169783">
        <ele>739.39</ele>
        <time>2020-07-17T07:49:47Z</time>
      </trkpt>
      <trkpt lat="40.3199750092" lon="-5.8562109433">
        <ele>739.39</ele>
        <time>2020-07-17T07:49:54Z</time>
      </trkpt>
      <trkpt lat="40.3199678846" lon="-5.8562149666">
        <ele>739.87</ele>
        <time>2020-07-17T07:50:01Z</time>
      </trkpt>
      <trkpt lat="40.3199562337" lon="-5.8561930899">
        <ele>736.99</ele>
        <time>2020-07-17T07:50:19Z</time>
      </trkpt>
      <trkpt lat="40.3199448343" lon="-5.8561982028">
        <ele>736.99</ele>
        <time>2020-07-17T07:50:21Z</time>
      </trkpt>
      <trkpt lat="40.3198191058" lon="-5.8562175650">
        <ele>737.47</ele>
        <time>2020-07-17T07:50:27Z</time>
      </trkpt>
      <trkpt lat="40.3196890187" lon="-5.8561402839">
        <ele>738.91</ele>
        <time>2020-07-17T07:50:33Z</time>
      </trkpt>
      <trkpt lat="40.3196079656" lon="-5.8560464904">
        <ele>738.91</ele>
        <time>2020-07-17T07:50:39Z</time>
      </trkpt>
      <trkpt lat="40.3194981627" lon="-5.8560594823">
        <ele>737.47</ele>
        <time>2020-07-17T07:50:47Z</time>
      </trkpt>
      <trkpt lat="40.3194710054" lon="-5.8560749888">
        <ele>737.47</ele>
        <time>2020-07-17T07:50:49Z</time>
      </trkpt>
      <trkpt lat="40.3194460273" lon="-5.8560750727">
        <ele>737.95</ele>
        <time>2020-07-17T07:50:54Z</time>
      </trkpt>
      <trkpt lat="40.3193643037" lon="-5.8560843766">
        <ele>737.95</ele>
        <time>2020-07-17T07:50:59Z</time>
      </trkpt>
      <trkpt lat="40.3191137686" lon="-5.8560791798">
        <ele>738.91</ele>
        <time>2020-07-17T07:51:06Z</time>
      </trkpt>
      <trkpt lat="40.3187945019" lon="-5.8560630865">
        <ele>740.83</ele>
        <time>2020-07-17T07:51:16Z</time>
      </trkpt>
      <trkpt lat="40.3186173085" lon="-5.8559294790">
        <ele>741.79</ele>
        <time>2020-07-17T07:51:23Z</time>
      </trkpt>
      <trkpt lat="40.3185160551" lon="-5.8556802012">
        <ele>743.24</ele>
        <time>2020-07-17T07:51:32Z</time>
      </trkpt>
      <trkpt lat="40.3184894007" lon="-5.8554439992">
        <ele>743.72</ele>
        <time>2020-07-17T07:51:41Z</time>
      </trkpt>
      <trkpt lat="40.3184835333" lon="-5.8552716672">
        <ele>745.16</ele>
        <time>2020-07-17T07:51:49Z</time>
      </trkpt>
      <trkpt lat="40.3184808511" lon="-5.8552542329">
        <ele>745.64</ele>
        <time>2020-07-17T07:51:50Z</time>
      </trkpt>
      <trkpt lat="40.3184746485" lon="-5.8552341163">
        <ele>746.12</ele>
        <time>2020-07-17T07:51:51Z</time>
      </trkpt>
      <trkpt lat="40.3184681945" lon="-5.8552102279">
        <ele>746.12</ele>
        <time>2020-07-17T07:51:52Z</time>
      </trkpt>
      <trkpt lat="40.3184615728" lon="-5.8551874291">
        <ele>746.12</ele>
        <time>2020-07-17T07:51:53Z</time>
      </trkpt>
      <trkpt lat="40.3184542805" lon="-5.8551663905">
        <ele>746.60</ele>
        <time>2020-07-17T07:51:54Z</time>
      </trkpt>
      <trkpt lat="40.3184500895" lon="-5.8551461063">
        <ele>746.60</ele>
        <time>2020-07-17T07:51:55Z</time>
      </trkpt>
      <trkpt lat="40.3184473235" lon="-5.8551266603">
        <ele>746.60</ele>
        <time>2020-07-17T07:51:56Z</time>
      </trkpt>
      <trkpt lat="40.3184455633" lon="-5.8551056217">
        <ele>747.08</ele>
        <time>2020-07-17T07:51:57Z</time>
      </trkpt>
      <trkpt lat="40.3184434678" lon="-5.8550811466">
        <ele>747.08</ele>
        <time>2020-07-17T07:51:58Z</time>
      </trkpt>
      <trkpt lat="40.3183713835" lon="-5.8548909612">
        <ele>749.00</ele>
        <time>2020-07-17T07:52:07Z</time>
      </trkpt>
      <trkpt lat="40.3183008917" lon="-5.8547015302">
        <ele>750.45</ele>
        <time>2020-07-17T07:52:16Z</time>
      </trkpt>
      <trkpt lat="40.3181835450" lon="-5.8545861952">
        <ele>750.93</ele>
        <time>2020-07-17T07:52:25Z</time>
      </trkpt>
      <trkpt lat="40.3181442339" lon="-5.8545904700">
        <ele>750.93</ele>
        <time>2020-07-17T07:52:31Z</time>
      </trkpt>
      <trkpt lat="40.3181501850" lon="-5.8545875363">
        <ele>749.97</ele>
        <time>2020-07-17T07:52:43Z</time>
      </trkpt>
      <trkpt lat="40.3181354329" lon="-5.8545901347">
        <ele>750.93</ele>
        <time>2020-07-17T07:53:03Z</time>
      </trkpt>
      <trkpt lat="40.3180237021" lon="-5.8546248358">
        <ele>750.93</ele>
        <time>2020-07-17T07:53:11Z</time>
      </trkpt>
      <trkpt lat="40.3179138992" lon="-5.8547483012">
        <ele>751.41</ele>
        <time>2020-07-17T07:53:19Z</time>
      </trkpt>
      <trkpt lat="40.3177645337" lon="-5.8548977505">
        <ele>752.85</ele>
        <time>2020-07-17T07:53:29Z</time>
      </trkpt>
      <trkpt lat="40.3176218737" lon="-5.8549929690">
        <ele>751.89</ele>
        <time>2020-07-17T07:53:38Z</time>
      </trkpt>
      <trkpt lat="40.3174987435" lon="-5.8550808951">
        <ele>752.85</ele>
        <time>2020-07-17T07:53:46Z</time>
      </trkpt>
      <trkpt lat="40.3173839953" lon="-5.8551451843">
        <ele>753.81</ele>
        <time>2020-07-17T07:53:52Z</time>
      </trkpt>
      <trkpt lat="40.3172346298" lon="-5.8552460186">
        <ele>754.77</ele>
        <time>2020-07-17T07:54:00Z</time>
      </trkpt>
      <trkpt lat="40.3170662373" lon="-5.8553481940">
        <ele>754.77</ele>
        <time>2020-07-17T07:54:09Z</time>
      </trkpt>
      <trkpt lat="40.3168887924" lon="-5.8554568235">
        <ele>755.25</ele>
        <time>2020-07-17T07:54:19Z</time>
      </trkpt>
      <trkpt lat="40.3167389240" lon="-5.8555513714">
        <ele>756.69</ele>
        <time>2020-07-17T07:54:28Z</time>
      </trkpt>
      <trkpt lat="40.3166189790" lon="-5.8556181751">
        <ele>758.14</ele>
        <time>2020-07-17T07:54:35Z</time>
      </trkpt>
      <trkpt lat="40.3165872954" lon="-5.8556364477">
        <ele>759.10</ele>
        <time>2020-07-17T07:54:37Z</time>
      </trkpt>
      <trkpt lat="40.3165704478" lon="-5.8556428179">
        <ele>759.10</ele>
        <time>2020-07-17T07:54:38Z</time>
      </trkpt>
      <trkpt lat="40.3165541869" lon="-5.8556506969">
        <ele>759.58</ele>
        <time>2020-07-17T07:54:39Z</time>
      </trkpt>
      <trkpt lat="40.3165380936" lon="-5.8556572348">
        <ele>760.06</ele>
        <time>2020-07-17T07:54:40Z</time>
      </trkpt>
      <trkpt lat="40.3165248502" lon="-5.8556629345">
        <ele>760.06</ele>
        <time>2020-07-17T07:54:41Z</time>
      </trkpt>
      <trkpt lat="40.3165101819" lon="-5.8556693885">
        <ele>760.54</ele>
        <time>2020-07-17T07:54:42Z</time>
      </trkpt>
      <trkpt lat="40.3164934181" lon="-5.8556768484">
        <ele>761.02</ele>
        <time>2020-07-17T07:54:43Z</time>
      </trkpt>
      <trkpt lat="40.3164743073" lon="-5.8556860685">
        <ele>761.50</ele>
        <time>2020-07-17T07:54:44Z</time>
      </trkpt>
      <trkpt lat="40.3164576273" lon="-5.8556931932">
        <ele>761.50</ele>
        <time>2020-07-17T07:54:45Z</time>
      </trkpt>
      <trkpt lat="40.3162883967" lon="-5.8557502739">
        <ele>763.42</ele>
        <time>2020-07-17T07:54:54Z</time>
      </trkpt>
      <trkpt lat="40.3161230218" lon="-5.8558102045">
        <ele>764.39</ele>
        <time>2020-07-17T07:55:03Z</time>
      </trkpt>
      <trkpt lat="40.3159514442" lon="-5.8558767568">
        <ele>764.87</ele>
        <time>2020-07-17T07:55:13Z</time>
      </trkpt>
      <trkpt lat="40.3157888353" lon="-5.8559136372">
        <ele>768.23</ele>
        <time>2020-07-17T07:55:22Z</time>
      </trkpt>
      <trkpt lat="40.3156254720" lon="-5.8558964543">
        <ele>770.15</ele>
        <time>2020-07-17T07:55:31Z</time>
      </trkpt>
      <trkpt lat="40.3154553194" lon="-5.8558525331">
        <ele>770.63</ele>
        <time>2020-07-17T07:55:40Z</time>
      </trkpt>
      <trkpt lat="40.3152513877" lon="-5.8558208495">
        <ele>772.56</ele>
        <time>2020-07-17T07:55:50Z</time>
      </trkpt>
      <trkpt lat="40.3151050396" lon="-5.8558507729">
        <ele>772.08</ele>
        <time>2020-07-17T07:55:59Z</time>
      </trkpt>
      <trkpt lat="40.3149825800" lon="-5.8558715601">
        <ele>772.56</ele>
        <time>2020-07-17T07:56:06Z</time>
      </trkpt>
      <trkpt lat="40.3148034588" lon="-5.8557917643">
        <ele>774.96</ele>
        <time>2020-07-17T07:56:15Z</time>
      </trkpt>
      <trkpt lat="40.3147367388" lon="-5.8557100408">
        <ele>775.92</ele>
        <time>2020-07-17T07:56:21Z</time>
      </trkpt>
      <trkpt lat="40.3146528360" lon="-5.8555458393">
        <ele>773.52</ele>
        <time>2020-07-17T07:56:31Z</time>
      </trkpt>
      <trkpt lat="40.3145419434" lon="-5.8553792071">
        <ele>773.52</ele>
        <time>2020-07-17T07:56:39Z</time>
      </trkpt>
      <trkpt lat="40.3144250158" lon="-5.8553971443">
        <ele>773.52</ele>
        <time>2020-07-17T07:56:45Z</time>
      </trkpt>
      <trkpt lat="40.3143093456" lon="-5.8555656206">
        <ele>776.40</ele>
        <time>2020-07-17T07:56:54Z</time>
      </trkpt>
      <trkpt lat="40.3142362554" lon="-5.8557664510">
        <ele>777.84</ele>
        <time>2020-07-17T07:57:02Z</time>
      </trkpt>
      <trkpt lat="40.3141796775" lon="-5.8559399564">
        <ele>777.84</ele>
        <time>2020-07-17T07:57:09Z</time>
      </trkpt>
      <trkpt lat="40.3140618280" lon="-5.8561634179">
        <ele>779.29</ele>
        <time>2020-07-17T07:57:19Z</time>
      </trkpt>
      <trkpt lat="40.3138711397" lon="-5.8562826924">
        <ele>780.73</ele>
        <time>2020-07-17T07:57:30Z</time>
      </trkpt>
      <trkpt lat="40.3136812057" lon="-5.8564116899">
        <ele>781.69</ele>
        <time>2020-07-17T07:57:41Z</time>
      </trkpt>
      <trkpt lat="40.3136133123" lon="-5.8566028811">
        <ele>782.65</ele>
        <time>2020-07-17T07:57:49Z</time>
      </trkpt>
      <trkpt lat="40.3135367017" lon="-5.8568591997">
        <ele>784.57</ele>
        <time>2020-07-17T07:57:59Z</time>
      </trkpt>
      <trkpt lat="40.3134486079" lon="-5.8571978286">
        <ele>785.53</ele>
        <time>2020-07-17T07:58:12Z</time>
      </trkpt>
      <trkpt lat="40.3133268189" lon="-5.8574548177">
        <ele>785.53</ele>
        <time>2020-07-17T07:58:23Z</time>
      </trkpt>
      <trkpt lat="40.3131643776" lon="-5.8575995732">
        <ele>785.53</ele>
        <time>2020-07-17T07:58:33Z</time>
      </trkpt>
      <trkpt lat="40.3130409960" lon="-5.8576638624">
        <ele>785.05</ele>
        <time>2020-07-17T07:58:40Z</time>
      </trkpt>
      <trkpt lat="40.3128564265" lon="-5.8577558119">
        <ele>785.53</ele>
        <time>2020-07-17T07:58:50Z</time>
      </trkpt>
      <trkpt lat="40.3126587812" lon="-5.8578744996">
        <ele>786.98</ele>
        <time>2020-07-17T07:59:00Z</time>
      </trkpt>
      <trkpt lat="40.3124423604" lon="-5.8579442371">
        <ele>788.42</ele>
        <time>2020-07-17T07:59:11Z</time>
      </trkpt>
      <trkpt lat="40.3122275323" lon="-5.8579413872">
        <ele>790.82</ele>
        <time>2020-07-17T07:59:21Z</time>
      </trkpt>
      <trkpt lat="40.3120595589" lon="-5.8579185046">
        <ele>793.71</ele>
        <time>2020-07-17T07:59:30Z</time>
      </trkpt>
      <trkpt lat="40.3118563816" lon="-5.8579024114">
        <ele>797.07</ele>
        <time>2020-07-17T07:59:40Z</time>
      </trkpt>
      <trkpt lat="40.3117236122" lon="-5.8579032496">
        <ele>798.03</ele>
        <time>2020-07-17T07:59:47Z</time>
      </trkpt>
      <trkpt lat="40.3114714846" lon="-5.8579835482">
        <ele>800.92</ele>
        <time>2020-07-17T08:00:00Z</time>
      </trkpt>
      <trkpt lat="40.3112937883" lon="-5.8580953628">
        <ele>802.36</ele>
        <time>2020-07-17T08:00:10Z</time>
      </trkpt>
      <trkpt lat="40.3110859171" lon="-5.8581752423">
        <ele>802.84</ele>
        <time>2020-07-17T08:00:21Z</time>
      </trkpt>
      <trkpt lat="40.3109211288" lon="-5.8580557164">
        <ele>803.32</ele>
        <time>2020-07-17T08:00:30Z</time>
      </trkpt>
      <trkpt lat="40.3107501380" lon="-5.8579024114">
        <ele>805.24</ele>
        <time>2020-07-17T08:00:40Z</time>
      </trkpt>
      <trkpt lat="40.3105732799" lon="-5.8578538802">
        <ele>805.24</ele>
        <time>2020-07-17T08:00:49Z</time>
      </trkpt>
      <trkpt lat="40.3104391694" lon="-5.8578946162">
        <ele>805.24</ele>
        <time>2020-07-17T08:00:56Z</time>
      </trkpt>
      <trkpt lat="40.3102804162" lon="-5.8579410519">
        <ele>806.20</ele>
        <time>2020-07-17T08:01:05Z</time>
      </trkpt>
      <trkpt lat="40.3101445455" lon="-5.8579424769">
        <ele>806.68</ele>
        <time>2020-07-17T08:01:13Z</time>
      </trkpt>
      <trkpt lat="40.3099733032" lon="-5.8579085302">
        <ele>809.09</ele>
        <time>2020-07-17T08:01:22Z</time>
      </trkpt>
      <trkpt lat="40.3098215908" lon="-5.8578601666">
        <ele>810.05</ele>
        <time>2020-07-17T08:01:30Z</time>
      </trkpt>
      <trkpt lat="40.3097196668" lon="-5.8577926084">
        <ele>811.01</ele>
        <time>2020-07-17T08:01:36Z</time>
      </trkpt>
      <trkpt lat="40.3097112011" lon="-5.8577771857">
        <ele>811.01</ele>
        <time>2020-07-17T08:01:37Z</time>
      </trkpt>
      <trkpt lat="40.3097039927" lon="-5.8577606734">
        <ele>811.01</ele>
        <time>2020-07-17T08:01:38Z</time>
      </trkpt>
      <trkpt lat="40.3096998855" lon="-5.8577428199">
        <ele>810.53</ele>
        <time>2020-07-17T08:01:39Z</time>
      </trkpt>
      <trkpt lat="40.3096992150" lon="-5.8577233739">
        <ele>810.05</ele>
        <time>2020-07-17T08:01:40Z</time>
      </trkpt>
      <trkpt lat="40.3097045794" lon="-5.8577051852">
        <ele>810.05</ele>
        <time>2020-07-17T08:01:41Z</time>
      </trkpt>
      <trkpt lat="40.3097146377" lon="-5.8576886728">
        <ele>810.05</ele>
        <time>2020-07-17T08:01:42Z</time>
      </trkpt>
      <trkpt lat="40.3097273782" lon="-5.8576776925">
        <ele>810.05</ele>
        <time>2020-07-17T08:01:43Z</time>
      </trkpt>
      <trkpt lat="40.3097429685" lon="-5.8576714061">
        <ele>810.05</ele>
        <time>2020-07-17T08:01:44Z</time>
      </trkpt>
      <trkpt lat="40.3097593132" lon="-5.8576692268">
        <ele>810.05</ele>
        <time>2020-07-17T08:01:45Z</time>
      </trkpt>
      <trkpt lat="40.3099091817" lon="-5.8577284869">
        <ele>810.53</ele>
        <time>2020-07-17T08:01:53Z</time>
      </trkpt>
      <trkpt lat="40.3100776579" lon="-5.8577708993">
        <ele>811.97</ele>
        <time>2020-07-17T08:02:02Z</time>
      </trkpt>
      <trkpt lat="40.3102035541" lon="-5.8577227872">
        <ele>813.41</ele>
        <time>2020-07-17T08:02:09Z</time>
      </trkpt>
      <trkpt lat="40.3102204017" lon="-5.8576817159">
        <ele>813.89</ele>
        <time>2020-07-17T08:02:11Z</time>
      </trkpt>
      <trkpt lat="40.3102185577" lon="-5.8576594200">
        <ele>813.89</ele>
        <time>2020-07-17T08:02:12Z</time>
      </trkpt>
      <trkpt lat="40.3102108464" lon="-5.8576376271">
        <ele>814.37</ele>
        <time>2020-07-17T08:02:13Z</time>
      </trkpt>
      <trkpt lat="40.3101973515" lon="-5.8576228749">
        <ele>814.85</ele>
        <time>2020-07-17T08:02:14Z</time>
      </trkpt>
      <trkpt lat="40.3101820964" lon="-5.8576097991">
        <ele>815.34</ele>
        <time>2020-07-17T08:02:15Z</time>
      </trkpt>
      <trkpt lat="40.3101632372" lon="-5.8576015010">
        <ele>815.82</ele>
        <time>2020-07-17T08:02:16Z</time>
      </trkpt>
      <trkpt lat="40.3100406937" lon="-5.8575725835">
        <ele>817.74</ele>
        <time>2020-07-17T08:02:24Z</time>
      </trkpt>
      <trkpt lat="40.3099117801" lon="-5.8575390559">
        <ele>818.70</ele>
        <time>2020-07-17T08:02:32Z</time>
      </trkpt>
      <trkpt lat="40.3098240215" lon="-5.8574575000">
        <ele>819.18</ele>
        <time>2020-07-17T08:02:39Z</time>
      </trkpt>
      <trkpt lat="40.3098232672" lon="-5.8573890198">
        <ele>819.18</ele>
        <time>2020-07-17T08:02:43Z</time>
      </trkpt>
      <trkpt lat="40.3098365944" lon="-5.8573786262">
        <ele>819.18</ele>
        <time>2020-07-17T08:02:44Z</time>
      </trkpt>
      <trkpt lat="40.3098502569" lon="-5.8573700767">
        <ele>819.66</ele>
        <time>2020-07-17T08:02:45Z</time>
      </trkpt>
      <trkpt lat="40.3098608181" lon="-5.8573660534">
        <ele>819.66</ele>
        <time>2020-07-17T08:02:46Z</time>
      </trkpt>
      <trkpt lat="40.3098738939" lon="-5.8573621139">
        <ele>819.66</ele>
        <time>2020-07-17T08:02:47Z</time>
      </trkpt>
      <trkpt lat="40.3098862991" lon="-5.8573503792">
        <ele>819.66</ele>
        <time>2020-07-17T08:02:53Z</time>
      </trkpt>
      <trkpt lat="40.3098893166" lon="-5.8573565818">
        <ele>819.18</ele>
        <time>2020-07-17T08:03:13Z</time>
      </trkpt>
      <trkpt lat="40.3098893166" lon="-5.8573533967">
        <ele>819.18</ele>
        <time>2020-07-17T08:03:27Z</time>
      </trkpt>
      <trkpt lat="40.3098982852" lon="-5.8573424164">
        <ele>818.22</ele>
        <time>2020-07-17T08:03:40Z</time>
      </trkpt>
      <trkpt lat="40.3098937590" lon="-5.8573179413">
        <ele>819.18</ele>
        <time>2020-07-17T08:03:55Z</time>
      </trkpt>
      <trkpt lat="40.3098772466" lon="-5.8573385607">
        <ele>818.70</ele>
        <time>2020-07-17T08:04:14Z</time>
      </trkpt>
      <trkpt lat="40.3098837007" lon="-5.8573404886">
        <ele>819.18</ele>
        <time>2020-07-17T08:04:33Z</time>
      </trkpt>
      <trkpt lat="40.3099274542" lon="-5.8573388960">
        <ele>819.66</ele>
        <time>2020-07-17T08:04:41Z</time>
      </trkpt>
      <trkpt lat="40.3101182263" lon="-5.8573119063">
        <ele>820.14</ele>
        <time>2020-07-17T08:04:49Z</time>
      </trkpt>
      <trkpt lat="40.3103549313" lon="-5.8572813123">
        <ele>821.58</ele>
        <time>2020-07-17T08:04:58Z</time>
      </trkpt>
      <trkpt lat="40.3105911333" lon="-5.8572378103">
        <ele>822.55</ele>
        <time>2020-07-17T08:05:07Z</time>
      </trkpt>
      <trkpt lat="40.3108756989" lon="-5.8571780473">
        <ele>824.47</ele>
        <time>2020-07-17T08:05:17Z</time>
      </trkpt>
      <trkpt lat="40.3111955523" lon="-5.8571133390">
        <ele>825.91</ele>
        <time>2020-07-17T08:05:29Z</time>
      </trkpt>
      <trkpt lat="40.3114773519" lon="-5.8570087329">
        <ele>827.35</ele>
        <time>2020-07-17T08:05:40Z</time>
      </trkpt>
      <trkpt lat="40.3117607441" lon="-5.8568628877">
        <ele>827.83</ele>
        <time>2020-07-17T08:05:51Z</time>
      </trkpt>
      <trkpt lat="40.3120323177" lon="-5.8566733729">
        <ele>827.83</ele>
        <time>2020-07-17T08:06:02Z</time>
      </trkpt>
      <trkpt lat="40.3122820985" lon="-5.8564466424">
        <ele>826.87</ele>
        <time>2020-07-17T08:06:13Z</time>
      </trkpt>
      <trkpt lat="40.3124675900" lon="-5.8562238514">
        <ele>826.39</ele>
        <time>2020-07-17T08:06:22Z</time>
      </trkpt>
      <trkpt lat="40.3126586974" lon="-5.8559583966">
        <ele>825.91</ele>
        <time>2020-07-17T08:06:32Z</time>
      </trkpt>
      <trkpt lat="40.3128279280" lon="-5.8556624316">
        <ele>825.91</ele>
        <time>2020-07-17T08:06:42Z</time>
      </trkpt>
      <trkpt lat="40.3129877709" lon="-5.8553274907">
        <ele>826.87</ele>
        <time>2020-07-17T08:06:52Z</time>
      </trkpt>
      <trkpt lat="40.3131570015" lon="-5.8549445216">
        <ele>826.87</ele>
        <time>2020-07-17T08:07:04Z</time>
      </trkpt>
      <trkpt lat="40.3132957220" lon="-5.8546200581">
        <ele>827.35</ele>
        <time>2020-07-17T08:07:14Z</time>
      </trkpt>
      <trkpt lat="40.3134281561" lon="-5.8542986121">
        <ele>826.39</ele>
        <time>2020-07-17T08:07:24Z</time>
      </trkpt>
      <trkpt lat="40.3135931958" lon="-5.8539531939">
        <ele>826.87</ele>
        <time>2020-07-17T08:07:35Z</time>
      </trkpt>
      <trkpt lat="40.3137551341" lon="-5.8536902536">
        <ele>828.31</ele>
        <time>2020-07-17T08:07:44Z</time>
      </trkpt>
      <trkpt lat="40.3139625024" lon="-5.8534037601">
        <ele>829.27</ele>
        <time>2020-07-17T08:07:54Z</time>
      </trkpt>
      <trkpt lat="40.3142093495" lon="-5.8531533927">
        <ele>830.24</ele>
        <time>2020-07-17T08:08:04Z</time>
      </trkpt>
      <trkpt lat="40.3144132812" lon="-5.8529791329">
        <ele>832.16</ele>
        <time>2020-07-17T08:08:13Z</time>
      </trkpt>
      <trkpt lat="40.3147162870" lon="-5.8527255803">
        <ele>833.12</ele>
        <time>2020-07-17T08:08:26Z</time>
      </trkpt>
      <trkpt lat="40.3149659000" lon="-5.8525178768">
        <ele>833.60</ele>
        <time>2020-07-17T08:08:37Z</time>
      </trkpt>
      <trkpt lat="40.3152104840" lon="-5.8523100056">
        <ele>834.56</ele>
        <time>2020-07-17T08:08:47Z</time>
      </trkpt>
      <trkpt lat="40.3154958878" lon="-5.8520815149">
        <ele>836.00</ele>
        <time>2020-07-17T08:08:59Z</time>
      </trkpt>
      <trkpt lat="40.3157138173" lon="-5.8518899046">
        <ele>836.00</ele>
        <time>2020-07-17T08:09:09Z</time>
      </trkpt>
      <trkpt lat="40.3158932738" lon="-5.8517373540">
        <ele>834.56</ele>
        <time>2020-07-17T08:09:17Z</time>
      </trkpt>
      <trkpt lat="40.3160966188" lon="-5.8515765052">
        <ele>835.04</ele>
        <time>2020-07-17T08:09:26Z</time>
      </trkpt>
      <trkpt lat="40.3163294680" lon="-5.8513798658">
        <ele>834.08</ele>
        <time>2020-07-17T08:09:36Z</time>
      </trkpt>
      <trkpt lat="40.3165458888" lon="-5.8512004092">
        <ele>834.56</ele>
        <time>2020-07-17T08:09:45Z</time>
      </trkpt>
      <trkpt lat="40.3167625610" lon="-5.8510129061">
        <ele>835.04</ele>
        <time>2020-07-17T08:09:54Z</time>
      </trkpt>
      <trkpt lat="40.3169730306" lon="-5.8508258220">
        <ele>836.48</ele>
        <time>2020-07-17T08:10:03Z</time>
      </trkpt>
      <trkpt lat="40.3172099032" lon="-5.8506412525">
        <ele>837.93</ele>
        <time>2020-07-17T08:10:13Z</time>
      </trkpt>
      <trkpt lat="40.3172632121" lon="-5.8506006841">
        <ele>837.93</ele>
        <time>2020-07-17T08:10:16Z</time>
      </trkpt>
      <trkpt lat="40.3173108213" lon="-5.8505646419">
        <ele>839.85</ele>
        <time>2020-07-17T08:10:23Z</time>
      </trkpt>
      <trkpt lat="40.3174202051" lon="-5.8504724409">
        <ele>839.85</ele>
        <time>2020-07-17T08:10:29Z</time>
      </trkpt>
      <trkpt lat="40.3176084626" lon="-5.8503244165">
        <ele>840.33</ele>
        <time>2020-07-17T08:10:37Z</time>
      </trkpt>
      <trkpt lat="40.3178875800" lon="-5.8501439542">
        <ele>840.33</ele>
        <time>2020-07-17T08:10:48Z</time>
      </trkpt>
      <trkpt lat="40.3181851376" lon="-5.8499908168">
        <ele>841.77</ele>
        <time>2020-07-17T08:11:00Z</time>
      </trkpt>
      <trkpt lat="40.3184360079" lon="-5.8498788346">
        <ele>843.21</ele>
        <time>2020-07-17T08:11:10Z</time>
      </trkpt>
      <trkpt lat="40.3187032230" lon="-5.8498025592">
        <ele>845.62</ele>
        <time>2020-07-17T08:11:20Z</time>
      </trkpt>
      <trkpt lat="40.3189287800" lon="-5.8497595601">
        <ele>846.58</ele>
        <time>2020-07-17T08:11:28Z</time>
      </trkpt>
      <trkpt lat="40.3192448616" lon="-5.8497379348">
        <ele>848.02</ele>
        <time>2020-07-17T08:11:39Z</time>
      </trkpt>
      <trkpt lat="40.3194732685" lon="-5.8497488312">
        <ele>848.02</ele>
        <time>2020-07-17T08:11:47Z</time>
      </trkpt>
      <trkpt lat="40.3197540622" lon="-5.8497807663">
        <ele>847.54</ele>
        <time>2020-07-17T08:11:57Z</time>
      </trkpt>
      <trkpt lat="40.3200529609" lon="-5.8498341590">
        <ele>848.50</ele>
        <time>2020-07-17T08:12:08Z</time>
      </trkpt>
      <trkpt lat="40.3202625923" lon="-5.8499068301">
        <ele>849.46</ele>
        <time>2020-07-17T08:12:16Z</time>
      </trkpt>
      <trkpt lat="40.3205366805" lon="-5.8500109334">
        <ele>851.87</ele>
        <time>2020-07-17T08:12:26Z</time>
      </trkpt>
      <trkpt lat="40.3208220843" lon="-5.8501307108">
        <ele>852.35</ele>
        <time>2020-07-17T08:12:36Z</time>
      </trkpt>
      <trkpt lat="40.3211178817" lon="-5.8502536733">
        <ele>851.38</ele>
        <time>2020-07-17T08:12:46Z</time>
      </trkpt>
      <trkpt lat="40.3213498089" lon="-5.8503498975">
        <ele>852.35</ele>
        <time>2020-07-17T08:12:55Z</time>
      </trkpt>
      <trkpt lat="40.3215526510" lon="-5.8504375722">
        <ele>853.31</ele>
        <time>2020-07-17T08:13:03Z</time>
      </trkpt>
      <trkpt lat="40.3217655513" lon="-5.8505340479">
        <ele>853.79</ele>
        <time>2020-07-17T08:13:12Z</time>
      </trkpt>
      <trkpt lat="40.3219368774" lon="-5.8506282605">
        <ele>854.27</ele>
        <time>2020-07-17T08:13:20Z</time>
      </trkpt>
      <trkpt lat="40.3221037611" lon="-5.8506958187">
        <ele>857.15</ele>
        <time>2020-07-17T08:13:28Z</time>
      </trkpt>
      <trkpt lat="40.3244786058" lon="-5.8526009414">
        <ele>852.83</ele>
        <time>2020-07-17T08:15:22Z</time>
      </trkpt>
      <trkpt lat="40.3246862255" lon="-5.8527482953">
        <ele>858.59</ele>
        <time>2020-07-17T08:15:31Z</time>
      </trkpt>
      <trkpt lat="40.3249713778" lon="-5.8530027699">
        <ele>860.52</ele>
        <time>2020-07-17T08:15:43Z</time>
      </trkpt>
      <trkpt lat="40.3252411075" lon="-5.8532104734">
        <ele>861.00</ele>
        <time>2020-07-17T08:15:54Z</time>
      </trkpt>
      <trkpt lat="40.3254675027" lon="-5.8533533011">
        <ele>860.52</ele>
        <time>2020-07-17T08:16:04Z</time>
      </trkpt>
      <trkpt lat="40.3256880306" lon="-5.8534780238">
        <ele>861.48</ele>
        <time>2020-07-17T08:16:14Z</time>
      </trkpt>
      <trkpt lat="40.3258683253" lon="-5.8535629325">
        <ele>861.48</ele>
        <time>2020-07-17T08:16:22Z</time>
      </trkpt>
      <trkpt lat="40.3261512145" lon="-5.8536787704">
        <ele>861.96</ele>
        <time>2020-07-17T08:16:34Z</time>
      </trkpt>
      <trkpt lat="40.3261571657" lon="-5.8536802791">
        <ele>861.48</ele>
        <time>2020-07-17T08:16:39Z</time>
      </trkpt>
      <trkpt lat="40.3261513822" lon="-5.8536776807">
        <ele>861.96</ele>
        <time>2020-07-17T08:16:49Z</time>
      </trkpt>
      <trkpt lat="40.3261435032" lon="-5.8536718134">
        <ele>861.48</ele>
        <time>2020-07-17T08:17:02Z</time>
      </trkpt>
      <trkpt lat="40.3261314332" lon="-5.8536708076">
        <ele>860.52</ele>
        <time>2020-07-17T08:17:19Z</time>
      </trkpt>
      <trkpt lat="40.3261518851" lon="-5.8536718972">
        <ele>859.56</ele>
        <time>2020-07-17T08:17:29Z</time>
      </trkpt>
      <trkpt lat="40.3261622787" lon="-5.8536705561">
        <ele>858.11</ele>
        <time>2020-07-17T08:17:49Z</time>
      </trkpt>
      <trkpt lat="40.3261512145" lon="-5.8536663651">
        <ele>860.52</ele>
        <time>2020-07-17T08:18:06Z</time>
      </trkpt>
      <trkpt lat="40.3261982370" lon="-5.8536910918">
        <ele>861.00</ele>
        <time>2020-07-17T08:18:22Z</time>
      </trkpt>
      <trkpt lat="40.3264184296" lon="-5.8537484240">
        <ele>861.00</ele>
        <time>2020-07-17T08:18:30Z</time>
      </trkpt>
      <trkpt lat="40.3267291468" lon="-5.8538158145">
        <ele>861.96</ele>
        <time>2020-07-17T08:18:42Z</time>
      </trkpt>
      <trkpt lat="40.3269667737" lon="-5.8538458217">
        <ele>862.92</ele>
        <time>2020-07-17T08:18:51Z</time>
      </trkpt>
      <trkpt lat="40.3272507526" lon="-5.8538666088">
        <ele>865.32</ele>
        <time>2020-07-17T08:19:02Z</time>
      </trkpt>
      <trkpt lat="40.3275656607" lon="-5.8538418822">
        <ele>865.32</ele>
        <time>2020-07-17T08:19:14Z</time>
      </trkpt>
      <trkpt lat="40.3278206382" lon="-5.8538191672">
        <ele>865.32</ele>
        <time>2020-07-17T08:19:24Z</time>
      </trkpt>
      <trkpt lat="40.3280850034" lon="-5.8537595719">
        <ele>866.77</ele>
        <time>2020-07-17T08:19:34Z</time>
      </trkpt>
      <trkpt lat="40.3283300903" lon="-5.8537068497">
        <ele>868.21</ele>
        <time>2020-07-17T08:19:44Z</time>
      </trkpt>
      <trkpt lat="40.3285925277" lon="-5.8536178339">
        <ele>868.69</ele>
        <time>2020-07-17T08:19:54Z</time>
      </trkpt>
      <trkpt lat="40.3288181685" lon="-5.8535349369">
        <ele>870.13</ele>
        <time>2020-07-17T08:20:03Z</time>
      </trkpt>
      <trkpt lat="40.3291154746" lon="-5.8533683885">
        <ele>871.09</ele>
        <time>2020-07-17T08:20:15Z</time>
      </trkpt>
      <trkpt lat="40.3293946758" lon="-5.8532257285">
        <ele>871.57</ele>
        <time>2020-07-17T08:20:26Z</time>
      </trkpt>
      <trkpt lat="40.3295525908" lon="-5.8531409036">
        <ele>873.50</ele>
        <time>2020-07-17T08:20:33Z</time>
      </trkpt>
      <trkpt lat="40.3297914751" lon="-5.8530011773">
        <ele>875.90</ele>
        <time>2020-07-17T08:20:43Z</time>
      </trkpt>
      <trkpt lat="40.3300276771" lon="-5.8528749458">
        <ele>875.90</ele>
        <time>2020-07-17T08:20:52Z</time>
      </trkpt>
      <trkpt lat="40.3303096443" lon="-5.8527122531">
        <ele>874.94</ele>
        <time>2020-07-17T08:21:03Z</time>
      </trkpt>
      <trkpt lat="40.3305314295" lon="-5.8525919728">
        <ele>875.90</ele>
        <time>2020-07-17T08:21:12Z</time>
      </trkpt>
      <trkpt lat="40.3306861594" lon="-5.8525154460">
        <ele>876.38</ele>
        <time>2020-07-17T08:21:19Z</time>
      </trkpt>
      <trkpt lat="40.3308101278" lon="-5.8524402604">
        <ele>875.42</ele>
        <time>2020-07-17T08:21:26Z</time>
      </trkpt>
      <trkpt lat="40.3308247961" lon="-5.8524192218">
        <ele>873.98</ele>
        <time>2020-07-17T08:21:32Z</time>
      </trkpt>
      <trkpt lat="40.3308288194" lon="-5.8524117619">
        <ele>873.01</ele>
        <time>2020-07-17T08:21:43Z</time>
      </trkpt>
      <trkpt lat="40.3308477625" lon="-5.8524131030">
        <ele>873.50</ele>
        <time>2020-07-17T08:21:59Z</time>
      </trkpt>
      <trkpt lat="40.3308517020" lon="-5.8524049725">
        <ele>873.01</ele>
        <time>2020-07-17T08:22:12Z</time>
      </trkpt>
      <trkpt lat="40.3308498580" lon="-5.8523822576">
        <ele>872.53</ele>
        <time>2020-07-17T08:22:25Z</time>
      </trkpt>
      <trkpt lat="40.3309137281" lon="-5.8523551840">
        <ele>873.01</ele>
        <time>2020-07-17T08:22:32Z</time>
      </trkpt>
      <trkpt lat="40.3310885746" lon="-5.8522856981">
        <ele>873.98</ele>
        <time>2020-07-17T08:22:39Z</time>
      </trkpt>
      <trkpt lat="40.3313636687" lon="-5.8521407750">
        <ele>873.98</ele>
        <time>2020-07-17T08:22:49Z</time>
      </trkpt>
      <trkpt lat="40.3316124436" lon="-5.8520090953">
        <ele>873.98</ele>
        <time>2020-07-17T08:22:58Z</time>
      </trkpt>
      <trkpt lat="40.3318900522" lon="-5.8518583886">
        <ele>874.94</ele>
        <time>2020-07-17T08:23:09Z</time>
      </trkpt>
      <trkpt lat="40.3321190458" lon="-5.8517402876">
        <ele>874.94</ele>
        <time>2020-07-17T08:23:18Z</time>
      </trkpt>
      <trkpt lat="40.3323972411" lon="-5.8515928499">
        <ele>874.94</ele>
        <time>2020-07-17T08:23:29Z</time>
      </trkpt>
      <trkpt lat="40.3325906955" lon="-5.8514981344">
        <ele>875.42</ele>
        <time>2020-07-17T08:23:37Z</time>
      </trkpt>
      <trkpt lat="40.3327660449" lon="-5.8514182549">
        <ele>877.82</ele>
        <time>2020-07-17T08:23:44Z</time>
      </trkpt>
      <trkpt lat="40.3329312522" lon="-5.8513304126">
        <ele>879.74</ele>
        <time>2020-07-17T08:23:51Z</time>
      </trkpt>
      <trkpt lat="40.3331756685" lon="-5.8511946257">
        <ele>882.15</ele>
        <time>2020-07-17T08:24:00Z</time>
      </trkpt>
      <trkpt lat="40.3333527781" lon="-5.8511018381">
        <ele>882.15</ele>
        <time>2020-07-17T08:24:07Z</time>
      </trkpt>
      <trkpt lat="40.3335628286" lon="-5.8510067035">
        <ele>882.15</ele>
        <time>2020-07-17T08:24:15Z</time>
      </trkpt>
      <trkpt lat="40.3337611444" lon="-5.8509036060">
        <ele>884.07</ele>
        <time>2020-07-17T08:24:23Z</time>
      </trkpt>
      <trkpt lat="40.3339630645" lon="-5.8508078847">
        <ele>885.51</ele>
        <time>2020-07-17T08:24:31Z</time>
      </trkpt>
      <trkpt lat="40.3342147730" lon="-5.8506830782">
        <ele>886.95</ele>
        <time>2020-07-17T08:24:41Z</time>
      </trkpt>
      <trkpt lat="40.3345383983" lon="-5.8505042084">
        <ele>885.99</ele>
        <time>2020-07-17T08:24:53Z</time>
      </trkpt>
      <trkpt lat="40.3347451799" lon="-5.8504066430">
        <ele>886.47</ele>
        <time>2020-07-17T08:25:01Z</time>
      </trkpt>
      <trkpt lat="40.3349445015" lon="-5.8503006957">
        <ele>886.95</ele>
        <time>2020-07-17T08:25:09Z</time>
      </trkpt>
      <trkpt lat="40.3352330904" lon="-5.8501370810">
        <ele>885.51</ele>
        <time>2020-07-17T08:25:20Z</time>
      </trkpt>
      <trkpt lat="40.3355127946" lon="-5.8499863744">
        <ele>885.51</ele>
        <time>2020-07-17T08:25:31Z</time>
      </trkpt>
      <trkpt lat="40.3357723821" lon="-5.8498482406">
        <ele>885.99</ele>
        <time>2020-07-17T08:25:41Z</time>
      </trkpt>
      <trkpt lat="40.3360207379" lon="-5.8497236855">
        <ele>886.47</ele>
        <time>2020-07-17T08:25:51Z</time>
      </trkpt>
      <trkpt lat="40.3362617176" lon="-5.8495972026">
        <ele>887.43</ele>
        <time>2020-07-17T08:26:01Z</time>
      </trkpt>
      <trkpt lat="40.3364920523" lon="-5.8494684566">
        <ele>886.95</ele>
        <time>2020-07-17T08:26:10Z</time>
      </trkpt>
      <trkpt lat="40.3367337026" lon="-5.8493429795">
        <ele>888.88</ele>
        <time>2020-07-17T08:26:20Z</time>
      </trkpt>
      <trkpt lat="40.3369460162" lon="-5.8492353559">
        <ele>890.32</ele>
        <time>2020-07-17T08:26:28Z</time>
      </trkpt>
      <trkpt lat="40.3372054361" lon="-5.8490968868">
        <ele>889.36</ele>
        <time>2020-07-17T08:26:38Z</time>
      </trkpt>
      <trkpt lat="40.3374495171" lon="-5.8489727508">
        <ele>891.76</ele>
        <time>2020-07-17T08:26:48Z</time>
      </trkpt>
      <trkpt lat="40.3377322387" lon="-5.8488425799">
        <ele>893.68</ele>
        <time>2020-07-17T08:26:59Z</time>
      </trkpt>
      <trkpt lat="40.3379356675" lon="-5.8487470262">
        <ele>895.12</ele>
        <time>2020-07-17T08:27:07Z</time>
      </trkpt>
      <trkpt lat="40.3381400183" lon="-5.8486371394">
        <ele>898.01</ele>
        <time>2020-07-17T08:27:16Z</time>
      </trkpt>
      <trkpt lat="40.3383274376" lon="-5.8485330362">
        <ele>899.45</ele>
        <time>2020-07-17T08:27:23Z</time>
      </trkpt>
      <trkpt lat="40.3385426849" lon="-5.8484208025">
        <ele>901.85</ele>
        <time>2020-07-17T08:27:31Z</time>
      </trkpt>
      <trkpt lat="40.3387555853" lon="-5.8483189624">
        <ele>903.30</ele>
        <time>2020-07-17T08:27:39Z</time>
      </trkpt>
      <trkpt lat="40.3390178550" lon="-5.8481889591">
        <ele>903.78</ele>
        <time>2020-07-17T08:27:48Z</time>
      </trkpt>
      <trkpt lat="40.3394076135" lon="-5.8479309641">
        <ele>901.37</ele>
        <time>2020-07-17T08:28:01Z</time>
      </trkpt>
      <trkpt lat="40.3397082724" lon="-5.8476792555">
        <ele>898.49</ele>
        <time>2020-07-17T08:28:11Z</time>
      </trkpt>
      <trkpt lat="40.3399688657" lon="-5.8474216796">
        <ele>895.61</ele>
        <time>2020-07-17T08:28:20Z</time>
      </trkpt>
      <trkpt lat="40.3402100969" lon="-5.8471432328">
        <ele>894.16</ele>
        <time>2020-07-17T08:28:30Z</time>
      </trkpt>
      <trkpt lat="40.3404172137" lon="-5.8468621876">
        <ele>893.20</ele>
        <time>2020-07-17T08:28:38Z</time>
      </trkpt>
      <trkpt lat="40.3405968379" lon="-5.8465812262">
        <ele>892.24</ele>
        <time>2020-07-17T08:28:46Z</time>
      </trkpt>
      <trkpt lat="40.3408321179" lon="-5.8462729398">
        <ele>891.76</ele>
        <time>2020-07-17T08:28:55Z</time>
      </trkpt>
      <trkpt lat="40.3410045337" lon="-5.8460252546">
        <ele>890.80</ele>
        <time>2020-07-17T08:29:03Z</time>
      </trkpt>
      <trkpt lat="40.3412411548" lon="-5.8457128610">
        <ele>890.32</ele>
        <time>2020-07-17T08:29:14Z</time>
      </trkpt>
      <trkpt lat="40.3414611798" lon="-5.8454313967">
        <ele>889.84</ele>
        <time>2020-07-17T08:29:25Z</time>
      </trkpt>
      <trkpt lat="40.3416729905" lon="-5.8451819513">
        <ele>889.84</ele>
        <time>2020-07-17T08:29:36Z</time>
      </trkpt>
      <trkpt lat="40.3417162411" lon="-5.8451471664">
        <ele>889.84</ele>
        <time>2020-07-17T08:29:42Z</time>
      </trkpt>
      <trkpt lat="40.3417155705" lon="-5.8451537881">
        <ele>890.80</ele>
        <time>2020-07-17T08:29:52Z</time>
      </trkpt>
      <trkpt lat="40.3417302389" lon="-5.8451444842">
        <ele>891.28</ele>
        <time>2020-07-17T08:30:03Z</time>
      </trkpt>
      <trkpt lat="40.3417379502" lon="-5.8451426402">
        <ele>891.28</ele>
        <time>2020-07-17T08:30:09Z</time>
      </trkpt>
      <trkpt lat="40.3417408001" lon="-5.8451573085">
        <ele>891.76</ele>
        <time>2020-07-17T08:30:23Z</time>
      </trkpt>
      <trkpt lat="40.3417334240" lon="-5.8451442327">
        <ele>891.28</ele>
        <time>2020-07-17T08:30:30Z</time>
      </trkpt>
      <trkpt lat="40.3417027462" lon="-5.8451288939">
        <ele>891.28</ele>
        <time>2020-07-17T08:30:39Z</time>
      </trkpt>
      <trkpt lat="40.3417175822" lon="-5.8451113757">
        <ele>890.32</ele>
        <time>2020-07-17T08:30:48Z</time>
      </trkpt>
      <trkpt lat="40.3417340945" lon="-5.8451058436">
        <ele>890.32</ele>
        <time>2020-07-17T08:30:54Z</time>
      </trkpt>
      <trkpt lat="40.3417354356" lon="-5.8451041672">
        <ele>889.84</ele>
        <time>2020-07-17T08:31:06Z</time>
      </trkpt>
      <trkpt lat="40.3417389560" lon="-5.8451103698">
        <ele>888.88</ele>
        <time>2020-07-17T08:31:16Z</time>
      </trkpt>
      <trkpt lat="40.3417900018" lon="-5.8450520318">
        <ele>889.84</ele>
        <time>2020-07-17T08:31:22Z</time>
      </trkpt>
      <trkpt lat="40.3418932669" lon="-5.8449205197">
        <ele>890.32</ele>
        <time>2020-07-17T08:31:28Z</time>
      </trkpt>
      <trkpt lat="40.3421415389" lon="-5.8445870038">
        <ele>890.80</ele>
        <time>2020-07-17T08:31:38Z</time>
      </trkpt>
      <trkpt lat="40.3423476499" lon="-5.8443007618">
        <ele>891.76</ele>
        <time>2020-07-17T08:31:46Z</time>
      </trkpt>
      <trkpt lat="40.3426019568" lon="-5.8440390788">
        <ele>891.76</ele>
        <time>2020-07-17T08:31:54Z</time>
      </trkpt>
      <trkpt lat="40.3428084869" lon="-5.8438208979">
        <ele>891.28</ele>
        <time>2020-07-17T08:32:01Z</time>
      </trkpt>
      <trkpt lat="40.3431415837" lon="-5.8434438799">
        <ele>891.28</ele>
        <time>2020-07-17T08:32:12Z</time>
      </trkpt>
      <trkpt lat="40.3434273228" lon="-5.8431847952">
        <ele>891.76</ele>
        <time>2020-07-17T08:32:21Z</time>
      </trkpt>
      <trkpt lat="40.3436822165" lon="-5.8429977950">
        <ele>892.72</ele>
        <time>2020-07-17T08:32:29Z</time>
      </trkpt>
      <trkpt lat="40.3440120444" lon="-5.8428337611">
        <ele>894.64</ele>
        <time>2020-07-17T08:32:38Z</time>
      </trkpt>
      <trkpt lat="40.3444059938" lon="-5.8427004050">
        <ele>894.64</ele>
        <time>2020-07-17T08:32:48Z</time>
      </trkpt>
      <trkpt lat="40.3447405994" lon="-5.8426619321">
        <ele>894.64</ele>
        <time>2020-07-17T08:32:57Z</time>
      </trkpt>
      <trkpt lat="40.3449083213" lon="-5.8426427376">
        <ele>894.16</ele>
        <time>2020-07-17T08:33:01Z</time>
      </trkpt>
      <trkpt lat="40.3453537356" lon="-5.8426893409">
        <ele>894.64</ele>
        <time>2020-07-17T08:33:12Z</time>
      </trkpt>
      <trkpt lat="40.3456665482" lon="-5.8427932765">
        <ele>896.09</ele>
        <time>2020-07-17T08:33:20Z</time>
      </trkpt>
      <trkpt lat="40.3460558038" lon="-5.8429546282">
        <ele>895.61</ele>
        <time>2020-07-17T08:33:31Z</time>
      </trkpt>
      <trkpt lat="40.3463243600" lon="-5.8430821169">
        <ele>898.49</ele>
        <time>2020-07-17T08:33:39Z</time>
      </trkpt>
      <trkpt lat="40.3466398548" lon="-5.8432356734">
        <ele>905.70</ele>
        <time>2020-07-17T08:33:48Z</time>
      </trkpt>
      <trkpt lat="40.3468792420" lon="-5.8433468174">
        <ele>910.51</ele>
        <time>2020-07-17T08:33:55Z</time>
      </trkpt>
      <trkpt lat="40.3472469561" lon="-5.8434619848">
        <ele>910.03</ele>
        <time>2020-07-17T08:34:04Z</time>
      </trkpt>
      <trkpt lat="40.3475559130" lon="-5.8434639126">
        <ele>904.74</ele>
        <time>2020-07-17T08:34:11Z</time>
      </trkpt>
      <trkpt lat="40.3478596732" lon="-5.8434396051">
        <ele>899.93</ele>
        <time>2020-07-17T08:34:18Z</time>
      </trkpt>
      <trkpt lat="40.3482660279" lon="-5.8433593065">
        <ele>901.37</ele>
        <time>2020-07-17T08:34:28Z</time>
      </trkpt>
      <trkpt lat="40.3484988771" lon="-5.8432665188">
        <ele>902.33</ele>
        <time>2020-07-17T08:34:34Z</time>
      </trkpt>
      <trkpt lat="40.3488965146" lon="-5.8430433925">
        <ele>898.49</ele>
        <time>2020-07-17T08:34:44Z</time>
      </trkpt>
      <trkpt lat="40.3492314555" lon="-5.8427562285">
        <ele>896.57</ele>
        <time>2020-07-17T08:34:54Z</time>
      </trkpt>
      <trkpt lat="40.3495244868" lon="-5.8424755186">
        <ele>895.61</ele>
        <time>2020-07-17T08:35:03Z</time>
      </trkpt>
      <trkpt lat="40.3497476131" lon="-5.8422549069">
        <ele>894.64</ele>
        <time>2020-07-17T08:35:10Z</time>
      </trkpt>
      <trkpt lat="40.3497823980" lon="-5.8422217146">
        <ele>894.64</ele>
        <time>2020-07-17T08:35:11Z</time>
      </trkpt>
      <trkpt lat="40.3500193544" lon="-5.8419742808">
        <ele>894.64</ele>
        <time>2020-07-17T08:35:19Z</time>
      </trkpt>
      <trkpt lat="40.3501908481" lon="-5.8418208081">
        <ele>893.68</ele>
        <time>2020-07-17T08:35:27Z</time>
      </trkpt>
      <trkpt lat="40.3502347693" lon="-5.8417621348">
        <ele>893.20</ele>
        <time>2020-07-17T08:35:30Z</time>
      </trkpt>
      <trkpt lat="40.3503526188" lon="-5.8416598756">
        <ele>891.76</ele>
        <time>2020-07-17T08:35:39Z</time>
      </trkpt>
      <trkpt lat="40.3504190035" lon="-5.8415746316">
        <ele>892.24</ele>
        <time>2020-07-17T08:35:45Z</time>
      </trkpt>
      <trkpt lat="40.3504317440" lon="-5.8415663335">
        <ele>892.24</ele>
        <time>2020-07-17T08:35:46Z</time>
      </trkpt>
      <trkpt lat="40.3505310696" lon="-5.8414454665">
        <ele>893.68</ele>
        <time>2020-07-17T08:35:55Z</time>
      </trkpt>
      <trkpt lat="40.3506589774" lon="-5.8413251862">
        <ele>895.61</ele>
        <time>2020-07-17T08:36:05Z</time>
      </trkpt>
      <trkpt lat="40.3508044034" lon="-5.8411664329">
        <ele>895.61</ele>
        <time>2020-07-17T08:36:16Z</time>
      </trkpt>
      <trkpt lat="40.3508866299" lon="-5.8410961926">
        <ele>896.57</ele>
        <time>2020-07-17T08:36:22Z</time>
      </trkpt>
      <trkpt lat="40.3509292938" lon="-5.8410790935">
        <ele>896.57</ele>
        <time>2020-07-17T08:36:29Z</time>
      </trkpt>
      <trkpt lat="40.3509935830" lon="-5.8410401177">
        <ele>896.09</ele>
        <time>2020-07-17T08:36:36Z</time>
      </trkpt>
      <trkpt lat="40.3511321358" lon="-5.8409387805">
        <ele>896.57</ele>
        <time>2020-07-17T08:36:43Z</time>
      </trkpt>
      <trkpt lat="40.3512761369" lon="-5.8407721482">
        <ele>898.49</ele>
        <time>2020-07-17T08:36:50Z</time>
      </trkpt>
      <trkpt lat="40.3514665738" lon="-5.8406082820">
        <ele>899.45</ele>
        <time>2020-07-17T08:36:57Z</time>
      </trkpt>
      <trkpt lat="40.3517736867" lon="-5.8404087089">
        <ele>897.53</ele>
        <time>2020-07-17T08:37:06Z</time>
      </trkpt>
      <trkpt lat="40.3521417361" lon="-5.8402665518">
        <ele>898.49</ele>
        <time>2020-07-17T08:37:16Z</time>
      </trkpt>
      <trkpt lat="40.3526254557" lon="-5.8401413262">
        <ele>898.49</ele>
        <time>2020-07-17T08:37:27Z</time>
      </trkpt>
      <trkpt lat="40.3529781662" lon="-5.8401253168">
        <ele>899.45</ele>
        <time>2020-07-17T08:37:35Z</time>
      </trkpt>
      <trkpt lat="40.3534260113" lon="-5.8402082976">
        <ele>902.33</ele>
        <time>2020-07-17T08:37:45Z</time>
      </trkpt>
      <trkpt lat="40.3537821583" lon="-5.8402839024">
        <ele>903.30</ele>
        <time>2020-07-17T08:37:53Z</time>
      </trkpt>
      <trkpt lat="40.3542051092" lon="-5.8403631952">
        <ele>905.22</ele>
        <time>2020-07-17T08:38:03Z</time>
      </trkpt>
      <trkpt lat="40.3544981405" lon="-5.8403804619">
        <ele>907.62</ele>
        <time>2020-07-17T08:38:10Z</time>
      </trkpt>
      <trkpt lat="40.3548915870" lon="-5.8403377142">
        <ele>908.58</ele>
        <time>2020-07-17T08:38:19Z</time>
      </trkpt>
      <trkpt lat="40.3552847821" lon="-5.8402238041">
        <ele>910.03</ele>
        <time>2020-07-17T08:38:28Z</time>
      </trkpt>
      <trkpt lat="40.3555110935" lon="-5.8401370514">
        <ele>910.51</ele>
        <time>2020-07-17T08:38:33Z</time>
      </trkpt>
      <trkpt lat="40.3558703419" lon="-5.8399178647">
        <ele>910.03</ele>
        <time>2020-07-17T08:38:42Z</time>
      </trkpt>
      <trkpt lat="40.3559119999" lon="-5.8398883604">
        <ele>910.03</ele>
        <time>2020-07-17T08:38:43Z</time>
      </trkpt>
      <trkpt lat="40.3563109785" lon="-5.8395027928">
        <ele>908.58</ele>
        <time>2020-07-17T08:38:54Z</time>
      </trkpt>
      <trkpt lat="40.3565965500" lon="-5.8390751481">
        <ele>906.66</ele>
        <time>2020-07-17T08:39:03Z</time>
      </trkpt>
      <trkpt lat="40.3568741586" lon="-5.8385234512">
        <ele>903.30</ele>
        <time>2020-07-17T08:39:14Z</time>
      </trkpt>
      <trkpt lat="40.3569236118" lon="-5.8384175040">
        <ele>901.37</ele>
        <time>2020-07-17T08:39:19Z</time>
      </trkpt>
      <trkpt lat="40.3569221031" lon="-5.8384175878">
        <ele>898.01</ele>
        <time>2020-07-17T08:39:32Z</time>
      </trkpt>
      <trkpt lat="40.3569314908" lon="-5.8384260535">
        <ele>898.01</ele>
        <time>2020-07-17T08:39:55Z</time>
      </trkpt>
      <trkpt lat="40.3569247015" lon="-5.8384083677">
        <ele>897.53</ele>
        <time>2020-07-17T08:40:16Z</time>
      </trkpt>
      <trkpt lat="40.3569446504" lon="-5.8383700624">
        <ele>898.49</ele>
        <time>2020-07-17T08:40:31Z</time>
      </trkpt>
      <trkpt lat="40.3570139688" lon="-5.8382087946">
        <ele>896.57</ele>
        <time>2020-07-17T08:40:37Z</time>
      </trkpt>
      <trkpt lat="40.3571554553" lon="-5.8379259892">
        <ele>895.12</ele>
        <time>2020-07-17T08:40:44Z</time>
      </trkpt>
      <trkpt lat="40.3573243506" lon="-5.8375957422">
        <ele>893.68</ele>
        <time>2020-07-17T08:40:51Z</time>
      </trkpt>
      <trkpt lat="40.3577068169" lon="-5.8370577917">
        <ele>893.20</ele>
        <time>2020-07-17T08:41:03Z</time>
      </trkpt>
      <trkpt lat="40.3580914624" lon="-5.8366891555">
        <ele>892.72</ele>
        <time>2020-07-17T08:41:13Z</time>
      </trkpt>
      <trkpt lat="40.3585083783" lon="-5.8363997284">
        <ele>892.24</ele>
        <time>2020-07-17T08:41:23Z</time>
      </trkpt>
      <trkpt lat="40.3589895833" lon="-5.8362002391">
        <ele>895.61</ele>
        <time>2020-07-17T08:41:34Z</time>
      </trkpt>
      <trkpt lat="40.3593960218" lon="-5.8361353632">
        <ele>898.01</ele>
        <time>2020-07-17T08:41:43Z</time>
      </trkpt>
      <trkpt lat="40.3597488999" lon="-5.8361020871">
        <ele>901.37</ele>
        <time>2020-07-17T08:41:51Z</time>
      </trkpt>
      <trkpt lat="40.3599310387" lon="-5.8360845689">
        <ele>902.82</ele>
        <time>2020-07-17T08:41:55Z</time>
      </trkpt>
      <trkpt lat="40.3602418397" lon="-5.8360518795">
        <ele>905.22</ele>
        <time>2020-07-17T08:42:02Z</time>
      </trkpt>
      <trkpt lat="40.3603815660" lon="-5.8360375464">
        <ele>906.18</ele>
        <time>2020-07-17T08:42:05Z</time>
      </trkpt>
      <trkpt lat="40.3608651180" lon="-5.8359737601">
        <ele>909.06</ele>
        <time>2020-07-17T08:42:16Z</time>
      </trkpt>
      <trkpt lat="40.3613243625" lon="-5.8358563296">
        <ele>910.51</ele>
        <time>2020-07-17T08:42:26Z</time>
      </trkpt>
      <trkpt lat="40.3613673616" lon="-5.8358421642">
        <ele>910.51</ele>
        <time>2020-07-17T08:42:27Z</time>
      </trkpt>
      <trkpt lat="40.3618812561" lon="-5.8355986699">
        <ele>906.66</ele>
        <time>2020-07-17T08:42:39Z</time>
      </trkpt>
      <trkpt lat="40.3622236568" lon="-5.8353733644">
        <ele>906.66</ele>
        <time>2020-07-17T08:42:48Z</time>
      </trkpt>
      <trkpt lat="40.3626104817" lon="-5.8350231685">
        <ele>903.30</ele>
        <time>2020-07-17T08:42:58Z</time>
      </trkpt>
      <trkpt lat="40.3629675508" lon="-5.8346546162">
        <ele>899.93</ele>
        <time>2020-07-17T08:43:08Z</time>
      </trkpt>
      <trkpt lat="40.3632823750" lon="-5.8343298174">
        <ele>899.45</ele>
        <time>2020-07-17T08:43:17Z</time>
      </trkpt>
      <trkpt lat="40.3636757378" lon="-5.8339266479">
        <ele>897.05</ele>
        <time>2020-07-17T08:43:28Z</time>
      </trkpt>
      <trkpt lat="40.3640779015" lon="-5.8335032780">
        <ele>898.49</ele>
        <time>2020-07-17T08:43:39Z</time>
      </trkpt>
      <trkpt lat="40.3642150294" lon="-5.8333486319">
        <ele>898.01</ele>
        <time>2020-07-17T08:43:43Z</time>
      </trkpt>
      <trkpt lat="40.3645275906" lon="-5.8330238331">
        <ele>898.01</ele>
        <time>2020-07-17T08:43:52Z</time>
      </trkpt>
      <trkpt lat="40.3648299258" lon="-5.8327242639">
        <ele>897.05</ele>
        <time>2020-07-17T08:44:00Z</time>
      </trkpt>
      <trkpt lat="40.3651534673" lon="-5.8323861379">
        <ele>896.57</ele>
        <time>2020-07-17T08:44:09Z</time>
      </trkpt>
      <trkpt lat="40.3655190859" lon="-5.8320164122">
        <ele>896.57</ele>
        <time>2020-07-17T08:44:19Z</time>
      </trkpt>
      <trkpt lat="40.3657733928" lon="-5.8317631949">
        <ele>896.57</ele>
        <time>2020-07-17T08:44:26Z</time>
      </trkpt>
      <trkpt lat="40.3659516759" lon="-5.8315850794">
        <ele>896.09</ele>
        <time>2020-07-17T08:44:31Z</time>
      </trkpt>
      <trkpt lat="40.3663975094" lon="-5.8311078977">
        <ele>895.12</ele>
        <time>2020-07-17T08:44:43Z</time>
      </trkpt>
      <trkpt lat="40.3667532373" lon="-5.8306944184">
        <ele>895.12</ele>
        <time>2020-07-17T08:44:53Z</time>
      </trkpt>
      <trkpt lat="40.3670754377" lon="-5.8301882353">
        <ele>895.61</ele>
        <time>2020-07-17T08:45:04Z</time>
      </trkpt>
      <trkpt lat="40.3673222009" lon="-5.8296165895">
        <ele>896.09</ele>
        <time>2020-07-17T08:45:15Z</time>
      </trkpt>
      <trkpt lat="40.3674811218" lon="-5.8290553372">
        <ele>895.61</ele>
        <time>2020-07-17T08:45:25Z</time>
      </trkpt>
      <trkpt lat="40.3676214349" lon="-5.8285219129">
        <ele>893.68</ele>
        <time>2020-07-17T08:45:34Z</time>
      </trkpt>
      <trkpt lat="40.3676923458" lon="-5.8282120340">
        <ele>893.68</ele>
        <time>2020-07-17T08:45:40Z</time>
      </trkpt>
      <trkpt lat="40.3677490074" lon="-5.8279520273">
        <ele>894.16</ele>
        <time>2020-07-17T08:45:45Z</time>
      </trkpt>
      <trkpt lat="40.3678503446" lon="-5.8275393862">
        <ele>895.61</ele>
        <time>2020-07-17T08:45:53Z</time>
      </trkpt>
      <trkpt lat="40.3679282125" lon="-5.8272323571">
        <ele>895.61</ele>
        <time>2020-07-17T08:45:59Z</time>
      </trkpt>
      <trkpt lat="40.3679545317" lon="-5.8271228056">
        <ele>895.61</ele>
        <time>2020-07-17T08:46:01Z</time>
      </trkpt>
      <trkpt lat="40.3679768275" lon="-5.8270122483">
        <ele>895.61</ele>
        <time>2020-07-17T08:46:03Z</time>
      </trkpt>
      <trkpt lat="40.3680966049" lon="-5.8265457116">
        <ele>894.64</ele>
        <time>2020-07-17T08:46:12Z</time>
      </trkpt>
      <trkpt lat="40.3681873810" lon="-5.8262054063">
        <ele>893.20</ele>
        <time>2020-07-17T08:46:19Z</time>
      </trkpt>
      <trkpt lat="40.3683274426" lon="-5.8258235268">
        <ele>893.20</ele>
        <time>2020-07-17T08:46:26Z</time>
      </trkpt>
      <trkpt lat="40.3683744650" lon="-5.8257164899">
        <ele>893.20</ele>
        <time>2020-07-17T08:46:28Z</time>
      </trkpt>
      <trkpt lat="40.3686709329" lon="-5.8251859993">
        <ele>893.68</ele>
        <time>2020-07-17T08:46:39Z</time>
      </trkpt>
      <trkpt lat="40.3689729329" lon="-5.8247896191">
        <ele>894.64</ele>
        <time>2020-07-17T08:46:49Z</time>
      </trkpt>
      <trkpt lat="40.3692311794" lon="-5.8245524112">
        <ele>894.16</ele>
        <time>2020-07-17T08:46:56Z</time>
      </trkpt>
      <trkpt lat="40.3693410661" lon="-5.8244621381">
        <ele>894.16</ele>
        <time>2020-07-17T08:46:59Z</time>
      </trkpt>
      <trkpt lat="40.3697281424" lon="-5.8242138661">
        <ele>894.64</ele>
        <time>2020-07-17T08:47:09Z</time>
      </trkpt>
      <trkpt lat="40.3700701240" lon="-5.8240747266">
        <ele>895.12</ele>
        <time>2020-07-17T08:47:17Z</time>
      </trkpt>
      <trkpt lat="40.3704853635" lon="-5.8239907399">
        <ele>897.05</ele>
        <time>2020-07-17T08:47:27Z</time>
      </trkpt>
      <trkpt lat="40.3708424326" lon="-5.8239754848">
        <ele>898.01</ele>
        <time>2020-07-17T08:47:35Z</time>
      </trkpt>
      <trkpt lat="40.3711560834" lon="-5.8239738923">
        <ele>898.97</ele>
        <time>2020-07-17T08:47:42Z</time>
      </trkpt>
      <trkpt lat="40.3712866735" lon="-5.8239760716">
        <ele>901.37</ele>
        <time>2020-07-17T08:47:45Z</time>
      </trkpt>
      <trkpt lat="40.3716584947" lon="-5.8239757363">
        <ele>904.74</ele>
        <time>2020-07-17T08:47:53Z</time>
      </trkpt>
      <trkpt lat="40.3719963692" lon="-5.8239501715">
        <ele>903.30</ele>
        <time>2020-07-17T08:48:01Z</time>
      </trkpt>
      <trkpt lat="40.3723604791" lon="-5.8238605689">
        <ele>902.82</ele>
        <time>2020-07-17T08:48:09Z</time>
      </trkpt>
      <trkpt lat="40.3726818413" lon="-5.8237511013">
        <ele>899.45</ele>
        <time>2020-07-17T08:48:16Z</time>
      </trkpt>
      <trkpt lat="40.3730949014" lon="-5.8235501032">
        <ele>898.49</ele>
        <time>2020-07-17T08:48:26Z</time>
      </trkpt>
      <trkpt lat="40.3734228015" lon="-5.8233443275">
        <ele>898.49</ele>
        <time>2020-07-17T08:48:34Z</time>
      </trkpt>
      <trkpt lat="40.3736618534" lon="-5.8231633622">
        <ele>897.53</ele>
        <time>2020-07-17T08:48:41Z</time>
      </trkpt>
      <trkpt lat="40.3738814592" lon="-5.8229589276">
        <ele>896.09</ele>
        <time>2020-07-17T08:48:47Z</time>
      </trkpt>
      <trkpt lat="40.3742679488" lon="-5.8225414250">
        <ele>895.12</ele>
        <time>2020-07-17T08:48:58Z</time>
      </trkpt>
      <trkpt lat="40.3746511694" lon="-5.8221116010">
        <ele>895.12</ele>
        <time>2020-07-17T08:49:09Z</time>
      </trkpt>
      <trkpt lat="40.3749287780" lon="-5.8217800967">
        <ele>895.61</ele>
        <time>2020-07-17T08:49:18Z</time>
      </trkpt>
      <trkpt lat="40.3752792254" lon="-5.8213730715">
        <ele>896.57</ele>
        <time>2020-07-17T08:49:29Z</time>
      </trkpt>
      <trkpt lat="40.3755789623" lon="-5.8210290782">
        <ele>897.05</ele>
        <time>2020-07-17T08:49:38Z</time>
      </trkpt>
      <trkpt lat="40.3756778687" lon="-5.8209139109">
        <ele>897.53</ele>
        <time>2020-07-17T08:49:41Z</time>
      </trkpt>
      <trkpt lat="40.3759698104" lon="-5.8205896150">
        <ele>898.49</ele>
        <time>2020-07-17T08:49:50Z</time>
      </trkpt>
      <trkpt lat="40.3762317449" lon="-5.8202892076">
        <ele>898.01</ele>
        <time>2020-07-17T08:49:58Z</time>
      </trkpt>
      <trkpt lat="40.3764992952" lon="-5.8199809212">
        <ele>897.05</ele>
        <time>2020-07-17T08:50:06Z</time>
      </trkpt>
      <trkpt lat="40.3767900635" lon="-5.8196450584">
        <ele>897.53</ele>
        <time>2020-07-17T08:50:15Z</time>
      </trkpt>
      <trkpt lat="40.3770197276" lon="-5.8193901647">
        <ele>897.53</ele>
        <time>2020-07-17T08:50:22Z</time>
      </trkpt>
      <trkpt lat="40.3773451131" lon="-5.8190192655">
        <ele>895.61</ele>
        <time>2020-07-17T08:50:31Z</time>
      </trkpt>
      <trkpt lat="40.3776224703" lon="-5.8186883479">
        <ele>894.16</ele>
        <time>2020-07-17T08:50:40Z</time>
      </trkpt>
      <trkpt lat="40.3778144997" lon="-5.8184665628">
        <ele>894.16</ele>
        <time>2020-07-17T08:50:46Z</time>
      </trkpt>
      <trkpt lat="40.3781272285" lon="-5.8181181271">
        <ele>894.64</ele>
        <time>2020-07-17T08:50:55Z</time>
      </trkpt>
      <trkpt lat="40.3784890752" lon="-5.8176857047">
        <ele>892.72</ele>
        <time>2020-07-17T08:51:05Z</time>
      </trkpt>
      <trkpt lat="40.3787871357" lon="-5.8173351735">
        <ele>891.76</ele>
        <time>2020-07-17T08:51:14Z</time>
      </trkpt>
      <trkpt lat="40.3791064024" lon="-5.8169728238">
        <ele>891.28</ele>
        <time>2020-07-17T08:51:23Z</time>
      </trkpt>
      <trkpt lat="40.3794177901" lon="-5.8166109771">
        <ele>891.28</ele>
        <time>2020-07-17T08:51:32Z</time>
      </trkpt>
      <trkpt lat="40.3796776291" lon="-5.8163168561">
        <ele>890.32</ele>
        <time>2020-07-17T08:51:40Z</time>
      </trkpt>
      <trkpt lat="40.3799347859" lon="-5.8160006069">
        <ele>887.91</ele>
        <time>2020-07-17T08:51:47Z</time>
      </trkpt>
      <trkpt lat="40.3802930284" lon="-5.8155900612">
        <ele>886.47</ele>
        <time>2020-07-17T08:51:57Z</time>
      </trkpt>
      <trkpt lat="40.3806200903" lon="-5.8151912503">
        <ele>885.03</ele>
        <time>2020-07-17T08:52:06Z</time>
      </trkpt>
      <trkpt lat="40.3808876406" lon="-5.8147558104">
        <ele>885.51</ele>
        <time>2020-07-17T08:52:15Z</time>
      </trkpt>
      <trkpt lat="40.3811494913" lon="-5.8142298460">
        <ele>885.51</ele>
        <time>2020-07-17T08:52:25Z</time>
      </trkpt>
      <trkpt lat="40.3813568596" lon="-5.8136887103">
        <ele>884.07</ele>
        <time>2020-07-17T08:52:35Z</time>
      </trkpt>
      <trkpt lat="40.3815033752" lon="-5.8132073376">
        <ele>883.59</ele>
        <time>2020-07-17T08:52:44Z</time>
      </trkpt>
      <trkpt lat="40.3816349711" lon="-5.8127889130">
        <ele>883.59</ele>
        <time>2020-07-17T08:52:52Z</time>
      </trkpt>
      <trkpt lat="40.3818223905" lon="-5.8121623658">
        <ele>883.11</ele>
        <time>2020-07-17T08:53:03Z</time>
      </trkpt>
      <trkpt lat="40.3819884360" lon="-5.8116617985">
        <ele>882.63</ele>
        <time>2020-07-17T08:53:12Z</time>
      </trkpt>
      <trkpt lat="40.3821441717" lon="-5.8111546934">
        <ele>881.19</ele>
        <time>2020-07-17T08:53:21Z</time>
      </trkpt>
      <trkpt lat="40.3822534718" lon="-5.8106796909">
        <ele>882.15</ele>
        <time>2020-07-17T08:53:30Z</time>
      </trkpt>
      <trkpt lat="40.3823066968" lon="-5.8103301656">
        <ele>882.15</ele>
        <time>2020-07-17T08:53:37Z</time>
      </trkpt>
      <trkpt lat="40.3823354468" lon="-5.8100297581">
        <ele>880.71</ele>
        <time>2020-07-17T08:53:43Z</time>
      </trkpt>
      <trkpt lat="40.3823572397" lon="-5.8095354773">
        <ele>880.71</ele>
        <time>2020-07-17T08:53:52Z</time>
      </trkpt>
      <trkpt lat="40.3823453374" lon="-5.8090653364">
        <ele>880.71</ele>
        <time>2020-07-17T08:54:00Z</time>
      </trkpt>
      <trkpt lat="40.3823337704" lon="-5.8087997139">
        <ele>880.71</ele>
        <time>2020-07-17T08:54:05Z</time>
      </trkpt>
      <trkpt lat="40.3822942078" lon="-5.8082986437">
        <ele>881.67</ele>
        <time>2020-07-17T08:54:14Z</time>
      </trkpt>
      <trkpt lat="40.3822514601" lon="-5.8078217134">
        <ele>880.22</ele>
        <time>2020-07-17T08:54:22Z</time>
      </trkpt>
      <trkpt lat="40.3822056949" lon="-5.8072832599">
        <ele>879.26</ele>
        <time>2020-07-17T08:54:31Z</time>
      </trkpt>
      <trkpt lat="40.3821634501" lon="-5.8068007138">
        <ele>879.74</ele>
        <time>2020-07-17T08:54:40Z</time>
      </trkpt>
      <trkpt lat="40.3821116500" lon="-5.8062035032">
        <ele>879.74</ele>
        <time>2020-07-17T08:54:51Z</time>
      </trkpt>
      <trkpt lat="40.3820761945" lon="-5.8057679795">
        <ele>878.30</ele>
        <time>2020-07-17T08:54:59Z</time>
      </trkpt>
      <trkpt lat="40.3820699919" lon="-5.8051940706">
        <ele>877.82</ele>
        <time>2020-07-17T08:55:09Z</time>
      </trkpt>
      <trkpt lat="40.3820877615" lon="-5.8045640029">
        <ele>877.34</ele>
        <time>2020-07-17T08:55:20Z</time>
      </trkpt>
      <trkpt lat="40.3821003344" lon="-5.8040656149">
        <ele>877.82</ele>
        <time>2020-07-17T08:55:29Z</time>
      </trkpt>
      <trkpt lat="40.3821195289" lon="-5.8035519719">
        <ele>877.34</ele>
        <time>2020-07-17T08:55:38Z</time>
      </trkpt>
      <trkpt lat="40.3821297549" lon="-5.8032404166">
        <ele>878.78</ele>
        <time>2020-07-17T08:55:44Z</time>
      </trkpt>
      <trkpt lat="40.3821452614" lon="-5.8026706148">
        <ele>879.26</ele>
        <time>2020-07-17T08:55:54Z</time>
      </trkpt>
      <trkpt lat="40.3821378015" lon="-5.8022382762">
        <ele>879.26</ele>
        <time>2020-07-17T08:56:02Z</time>
      </trkpt>
      <trkpt lat="40.3820965625" lon="-5.8018108830">
        <ele>880.22</ele>
        <time>2020-07-17T08:56:10Z</time>
      </trkpt>
      <trkpt lat="40.3820387274" lon="-5.8015041053">
        <ele>880.22</ele>
        <time>2020-07-17T08:56:17Z</time>
      </trkpt>
      <trkpt lat="40.3819206264" lon="-5.8009944018">
        <ele>880.22</ele>
        <time>2020-07-17T08:56:26Z</time>
      </trkpt>
      <trkpt lat="40.3818100691" lon="-5.8005327266">
        <ele>880.22</ele>
        <time>2020-07-17T08:56:35Z</time>
      </trkpt>
      <trkpt lat="40.3816733602" lon="-5.7999742404">
        <ele>879.74</ele>
        <time>2020-07-17T08:56:46Z</time>
      </trkpt>
      <trkpt lat="40.3815390822" lon="-5.7994230464">
        <ele>880.71</ele>
        <time>2020-07-17T08:56:57Z</time>
      </trkpt>
      <trkpt lat="40.3814323805" lon="-5.7989645563">
        <ele>881.19</ele>
        <time>2020-07-17T08:57:06Z</time>
      </trkpt>
      <trkpt lat="40.3813125193" lon="-5.7983899768">
        <ele>880.22</ele>
        <time>2020-07-17T08:57:17Z</time>
      </trkpt>
      <trkpt lat="40.3812550195" lon="-5.7980240230">
        <ele>880.22</ele>
        <time>2020-07-17T08:57:25Z</time>
      </trkpt>
      <trkpt lat="40.3812329751" lon="-5.7975685503">
        <ele>879.74</ele>
        <time>2020-07-17T08:57:33Z</time>
      </trkpt>
      <trkpt lat="40.3812673409" lon="-5.7970104832">
        <ele>878.30</ele>
        <time>2020-07-17T08:57:43Z</time>
      </trkpt>
      <trkpt lat="40.3813510761" lon="-5.7965706009">
        <ele>876.86</ele>
        <time>2020-07-17T08:57:51Z</time>
      </trkpt>
      <trkpt lat="40.3814245854" lon="-5.7962598838">
        <ele>876.86</ele>
        <time>2020-07-17T08:57:57Z</time>
      </trkpt>
      <trkpt lat="40.3816353064" lon="-5.7957439777">
        <ele>878.30</ele>
        <time>2020-07-17T08:58:07Z</time>
      </trkpt>
      <trkpt lat="40.3818650544" lon="-5.7952763513">
        <ele>877.82</ele>
        <time>2020-07-17T08:58:16Z</time>
      </trkpt>
      <trkpt lat="40.3820898570" lon="-5.7948215492">
        <ele>877.82</ele>
        <time>2020-07-17T08:58:25Z</time>
      </trkpt>
      <trkpt lat="40.3822927829" lon="-5.7944268454">
        <ele>877.34</ele>
        <time>2020-07-17T08:58:34Z</time>
      </trkpt>
      <trkpt lat="40.3825032525" lon="-5.7939878013">
        <ele>877.34</ele>
        <time>2020-07-17T08:58:43Z</time>
      </trkpt>
      <trkpt lat="40.3826035000" lon="-5.7937875576">
        <ele>877.82</ele>
        <time>2020-07-17T08:58:47Z</time>
      </trkpt>
      <trkpt lat="40.3828500118" lon="-5.7932185940">
        <ele>878.30</ele>
        <time>2020-07-17T08:58:58Z</time>
      </trkpt>
      <trkpt lat="40.3830069210" lon="-5.7926430926">
        <ele>878.78</ele>
        <time>2020-07-17T08:59:08Z</time>
      </trkpt>
      <trkpt lat="40.3830753174" lon="-5.7921153679">
        <ele>879.74</ele>
        <time>2020-07-17T08:59:17Z</time>
      </trkpt>
      <trkpt lat="40.3830966912" lon="-5.7918155473">
        <ele>880.22</ele>
        <time>2020-07-17T08:59:22Z</time>
      </trkpt>
      <trkpt lat="40.3830388561" lon="-5.7912217733">
        <ele>880.71</ele>
        <time>2020-07-17T08:59:32Z</time>
      </trkpt>
      <trkpt lat="40.3829643410" lon="-5.7907552365">
        <ele>881.19</ele>
        <time>2020-07-17T08:59:40Z</time>
      </trkpt>
      <trkpt lat="40.3828544542" lon="-5.7901628036">
        <ele>879.74</ele>
        <time>2020-07-17T08:59:50Z</time>
      </trkpt>
      <trkpt lat="40.3827468306" lon="-5.7895562053">
        <ele>879.74</ele>
        <time>2020-07-17T09:00:00Z</time>
      </trkpt>
      <trkpt lat="40.3826578986" lon="-5.7890719827">
        <ele>879.74</ele>
        <time>2020-07-17T09:00:08Z</time>
      </trkpt>
      <trkpt lat="40.3826490138" lon="-5.7890171651">
        <ele>879.74</ele>
        <time>2020-07-17T09:00:09Z</time>
      </trkpt>
      <trkpt lat="40.3826308250" lon="-5.7883912046">
        <ele>879.26</ele>
        <time>2020-07-17T09:00:20Z</time>
      </trkpt>
      <trkpt lat="40.3826755844" lon="-5.7878284436">
        <ele>879.26</ele>
        <time>2020-07-17T09:00:30Z</time>
      </trkpt>
      <trkpt lat="40.3827697970" lon="-5.7873779163">
        <ele>878.78</ele>
        <time>2020-07-17T09:00:38Z</time>
      </trkpt>
      <trkpt lat="40.3829228505" lon="-5.7869098708">
        <ele>877.34</ele>
        <time>2020-07-17T09:00:47Z</time>
      </trkpt>
      <trkpt lat="40.3831420373" lon="-5.7864488661">
        <ele>877.34</ele>
        <time>2020-07-17T09:00:56Z</time>
      </trkpt>
      <trkpt lat="40.3832276165" lon="-5.7862973213">
        <ele>877.34</ele>
        <time>2020-07-17T09:00:59Z</time>
      </trkpt>
      <trkpt lat="40.3835126013" lon="-5.7859104965">
        <ele>877.82</ele>
        <time>2020-07-17T09:01:08Z</time>
      </trkpt>
      <trkpt lat="40.3835775610" lon="-5.7858155295">
        <ele>877.34</ele>
        <time>2020-07-17T09:01:10Z</time>
      </trkpt>
      <trkpt lat="40.3838451114" lon="-5.7854276989">
        <ele>877.34</ele>
        <time>2020-07-17T09:01:18Z</time>
      </trkpt>
      <trkpt lat="40.3839454427" lon="-5.7852830272">
        <ele>876.86</ele>
        <time>2020-07-17T09:01:21Z</time>
      </trkpt>
      <trkpt lat="40.3841946367" lon="-5.7848720625">
        <ele>877.34</ele>
        <time>2020-07-17T09:01:30Z</time>
      </trkpt>
      <trkpt lat="40.3844468482" lon="-5.7843330223">
        <ele>877.82</ele>
        <time>2020-07-17T09:01:41Z</time>
      </trkpt>
      <trkpt lat="40.3845700622" lon="-5.7839524001">
        <ele>878.30</ele>
        <time>2020-07-17T09:01:49Z</time>
      </trkpt>
      <trkpt lat="40.3845793661" lon="-5.7839047909">
        <ele>878.78</ele>
        <time>2020-07-17T09:01:54Z</time>
      </trkpt>
      <trkpt lat="40.3845716547" lon="-5.7838964928">
        <ele>879.26</ele>
        <time>2020-07-17T09:02:05Z</time>
      </trkpt>
      <trkpt lat="40.3845706489" lon="-5.7839061320">
        <ele>879.26</ele>
        <time>2020-07-17T09:02:23Z</time>
      </trkpt>
      <trkpt lat="40.3845579922" lon="-5.7839089818">
        <ele>878.78</ele>
        <time>2020-07-17T09:02:39Z</time>
      </trkpt>
      <trkpt lat="40.3845575731" lon="-5.7839118317">
        <ele>879.26</ele>
        <time>2020-07-17T09:02:48Z</time>
      </trkpt>
      <trkpt lat="40.3845877480" lon="-5.7838090695">
        <ele>879.74</ele>
        <time>2020-07-17T09:02:54Z</time>
      </trkpt>
      <trkpt lat="40.3846562281" lon="-5.7834766433">
        <ele>879.26</ele>
        <time>2020-07-17T09:03:04Z</time>
      </trkpt>
      <trkpt lat="40.3846917674" lon="-5.7831386011">
        <ele>879.26</ele>
        <time>2020-07-17T09:03:15Z</time>
      </trkpt>
      <trkpt lat="40.3847057652" lon="-5.7829257846">
        <ele>879.26</ele>
        <time>2020-07-17T09:03:23Z</time>
      </trkpt>
      <trkpt lat="40.3847092018" lon="-5.7827989664">
        <ele>879.26</ele>
        <time>2020-07-17T09:03:31Z</time>
      </trkpt>
      <trkpt lat="40.3847071901" lon="-5.7827604096">
        <ele>878.78</ele>
        <time>2020-07-17T09:03:39Z</time>
      </trkpt>
      <trkpt lat="40.3847024962" lon="-5.7825221121">
        <ele>878.30</ele>
        <time>2020-07-17T09:03:48Z</time>
      </trkpt>
      <trkpt lat="40.3847005684" lon="-5.7822888438">
        <ele>878.78</ele>
        <time>2020-07-17T09:03:56Z</time>
      </trkpt>
      <trkpt lat="40.3846956231" lon="-5.7819818147">
        <ele>879.26</ele>
        <time>2020-07-17T09:04:05Z</time>
      </trkpt>
      <trkpt lat="40.3847011551" lon="-5.7819781266">
        <ele>877.82</ele>
        <time>2020-07-17T09:04:14Z</time>
      </trkpt>
      <trkpt lat="40.3846963774" lon="-5.7819925435">
        <ele>875.42</ele>
        <time>2020-07-17T09:04:28Z</time>
      </trkpt>
      <trkpt lat="40.3846829664" lon="-5.7819652185">
        <ele>876.86</ele>
        <time>2020-07-17T09:04:39Z</time>
      </trkpt>
      <trkpt lat="40.3846867383" lon="-5.7819496281">
        <ele>876.86</ele>
        <time>2020-07-17T09:04:40Z</time>
      </trkpt>
      <trkpt lat="40.3846995626" lon="-5.7816792279">
        <ele>877.34</ele>
        <time>2020-07-17T09:04:49Z</time>
      </trkpt>
      <trkpt lat="40.3847122192" lon="-5.7814983465">
        <ele>877.34</ele>
        <time>2020-07-17T09:04:56Z</time>
      </trkpt>
      <trkpt lat="40.3847149853" lon="-5.7812329754">
        <ele>877.82</ele>
        <time>2020-07-17T09:05:05Z</time>
      </trkpt>
      <trkpt lat="40.3847192600" lon="-5.7809847035">
        <ele>877.34</ele>
        <time>2020-07-17T09:05:14Z</time>
      </trkpt>
      <trkpt lat="40.3847139794" lon="-5.7808528561">
        <ele>877.34</ele>
        <time>2020-07-17T09:05:19Z</time>
      </trkpt>
      <trkpt lat="40.3847132251" lon="-5.7808137126">
        <ele>878.30</ele>
        <time>2020-07-17T09:05:26Z</time>
      </trkpt>
      <trkpt lat="40.3847058490" lon="-5.7808171492">
        <ele>878.78</ele>
        <time>2020-07-17T09:05:39Z</time>
      </trkpt>
      <trkpt lat="40.3847034182" lon="-5.7808163948">
        <ele>878.30</ele>
        <time>2020-07-17T09:05:53Z</time>
      </trkpt>
      <trkpt lat="40.3847127222" lon="-5.7806438953">
        <ele>877.34</ele>
        <time>2020-07-17T09:06:02Z</time>
      </trkpt>
      <trkpt lat="40.3847166616" lon="-5.7805002294">
        <ele>877.34</ele>
        <time>2020-07-17T09:06:10Z</time>
      </trkpt>
      <trkpt lat="40.3847164102" lon="-5.7802929450">
        <ele>876.86</ele>
        <time>2020-07-17T09:06:18Z</time>
      </trkpt>
      <trkpt lat="40.3847249597" lon="-5.7800051942">
        <ele>876.86</ele>
        <time>2020-07-17T09:06:28Z</time>
      </trkpt>
      <trkpt lat="40.3847251274" lon="-5.7796914596">
        <ele>876.38</ele>
        <time>2020-07-17T09:06:38Z</time>
      </trkpt>
      <trkpt lat="40.3847273905" lon="-5.7793351449">
        <ele>876.38</ele>
        <time>2020-07-17T09:06:49Z</time>
      </trkpt>
      <trkpt lat="40.3847324196" lon="-5.7790359948">
        <ele>876.38</ele>
        <time>2020-07-17T09:06:57Z</time>
      </trkpt>
      <trkpt lat="40.3847475071" lon="-5.7785046659">
        <ele>876.38</ele>
        <time>2020-07-17T09:07:08Z</time>
      </trkpt>
      <trkpt lat="40.3847458307" lon="-5.7779890113">
        <ele>875.90</ele>
        <time>2020-07-17T09:07:18Z</time>
      </trkpt>
      <trkpt lat="40.3847375326" lon="-5.7773500588">
        <ele>875.42</ele>
        <time>2020-07-17T09:07:30Z</time>
      </trkpt>
      <trkpt lat="40.3847347666" lon="-5.7769442070">
        <ele>874.46</ele>
        <time>2020-07-17T09:07:38Z</time>
      </trkpt>
      <trkpt lat="40.3847280610" lon="-5.7762939390">
        <ele>874.94</ele>
        <time>2020-07-17T09:07:51Z</time>
      </trkpt>
      <trkpt lat="40.3847213555" lon="-5.7757967245">
        <ele>875.90</ele>
        <time>2020-07-17T09:08:01Z</time>
      </trkpt>
      <trkpt lat="40.3847418074" lon="-5.7753933035">
        <ele>876.38</ele>
        <time>2020-07-17T09:08:09Z</time>
      </trkpt>
      <trkpt lat="40.3848494310" lon="-5.7748846058">
        <ele>876.38</ele>
        <time>2020-07-17T09:08:19Z</time>
      </trkpt>
      <trkpt lat="40.3849231079" lon="-5.7745797560">
        <ele>877.34</ele>
        <time>2020-07-17T09:08:26Z</time>
      </trkpt>
      <trkpt lat="40.3850382753" lon="-5.7742113713">
        <ele>877.82</ele>
        <time>2020-07-17T09:08:34Z</time>
      </trkpt>
      <trkpt lat="40.3852355015" lon="-5.7737627719">
        <ele>878.78</ele>
        <time>2020-07-17T09:08:44Z</time>
      </trkpt>
      <trkpt lat="40.3854697756" lon="-5.7733389828">
        <ele>879.74</ele>
        <time>2020-07-17T09:08:54Z</time>
      </trkpt>
      <trkpt lat="40.3856790718" lon="-5.7730913814">
        <ele>879.74</ele>
        <time>2020-07-17T09:09:01Z</time>
      </trkpt>
      <trkpt lat="40.3859600332" lon="-5.7727948297">
        <ele>880.22</ele>
        <time>2020-07-17T09:09:10Z</time>
      </trkpt>
      <trkpt lat="40.3862123284" lon="-5.7725725416">
        <ele>880.71</ele>
        <time>2020-07-17T09:09:19Z</time>
      </trkpt>
      <trkpt lat="40.3893988766" lon="-5.7727763895">
        <ele>869.17</ele>
        <time>2020-07-17T09:10:53Z</time>
      </trkpt>
      <trkpt lat="40.3896656726" lon="-5.7731179520">
        <ele>882.15</ele>
        <time>2020-07-17T09:11:02Z</time>
      </trkpt>
      <trkpt lat="40.3897434566" lon="-5.7732483745">
        <ele>881.19</ele>
        <time>2020-07-17T09:11:08Z</time>
      </trkpt>
      <trkpt lat="40.3897445463" lon="-5.7732615341">
        <ele>881.67</ele>
        <time>2020-07-17T09:11:15Z</time>
      </trkpt>
      <trkpt lat="40.3897287045" lon="-5.7732586842">
        <ele>881.67</ele>
        <time>2020-07-17T09:11:30Z</time>
      </trkpt>
      <trkpt lat="40.3897412773" lon="-5.7732550800">
        <ele>884.07</ele>
        <time>2020-07-17T09:11:45Z</time>
      </trkpt>
      <trkpt lat="40.3897858690" lon="-5.7732961513">
        <ele>882.63</ele>
        <time>2020-07-17T09:11:51Z</time>
      </trkpt>
      <trkpt lat="40.3899059817" lon="-5.7734666392">
        <ele>881.67</ele>
        <time>2020-07-17T09:12:00Z</time>
      </trkpt>
      <trkpt lat="40.3899641521" lon="-5.7735659648">
        <ele>880.22</ele>
        <time>2020-07-17T09:12:06Z</time>
      </trkpt>
      <trkpt lat="40.3899568599" lon="-5.7735836506">
        <ele>879.26</ele>
        <time>2020-07-17T09:12:19Z</time>
      </trkpt>
      <trkpt lat="40.3899701033" lon="-5.7735778671">
        <ele>879.26</ele>
        <time>2020-07-17T09:12:31Z</time>
      </trkpt>
      <trkpt lat="40.3900085762" lon="-5.7736672182">
        <ele>878.30</ele>
        <time>2020-07-17T09:12:36Z</time>
      </trkpt>
      <trkpt lat="40.3901514877" lon="-5.7739564776">
        <ele>878.78</ele>
        <time>2020-07-17T09:12:44Z</time>
      </trkpt>
      <trkpt lat="40.3902798146" lon="-5.7743017282">
        <ele>880.22</ele>
        <time>2020-07-17T09:12:52Z</time>
      </trkpt>
      <trkpt lat="40.3903965745" lon="-5.7746846136">
        <ele>881.67</ele>
        <time>2020-07-17T09:12:59Z</time>
      </trkpt>
      <trkpt lat="40.3904943075" lon="-5.7750944048">
        <ele>881.67</ele>
        <time>2020-07-17T09:13:07Z</time>
      </trkpt>
      <trkpt lat="40.3905525617" lon="-5.7757111453">
        <ele>881.19</ele>
        <time>2020-07-17T09:13:18Z</time>
      </trkpt>
      <trkpt lat="40.3905751929" lon="-5.7762103714">
        <ele>881.67</ele>
        <time>2020-07-17T09:13:27Z</time>
      </trkpt>
      <trkpt lat="40.3905566689" lon="-5.7765317336">
        <ele>882.63</ele>
        <time>2020-07-17T09:13:34Z</time>
      </trkpt>
      <trkpt lat="40.3906565811" lon="-5.7785672788">
        <ele>873.98</ele>
        <time>2020-07-17T09:14:09Z</time>
      </trkpt>
      <trkpt lat="40.3906811401" lon="-5.7791089173">
        <ele>879.26</ele>
        <time>2020-07-17T09:14:18Z</time>
      </trkpt>
      <trkpt lat="40.3907081299" lon="-5.7796643022">
        <ele>880.22</ele>
        <time>2020-07-17T09:14:27Z</time>
      </trkpt>
      <trkpt lat="40.3907315154" lon="-5.7803337649">
        <ele>880.22</ele>
        <time>2020-07-17T09:14:38Z</time>
      </trkpt>
      <trkpt lat="40.3907419927" lon="-5.7806359325">
        <ele>879.74</ele>
        <time>2020-07-17T09:14:43Z</time>
      </trkpt>
      <trkpt lat="40.3907466028" lon="-5.7806953602">
        <ele>879.74</ele>
        <time>2020-07-17T09:14:44Z</time>
      </trkpt>
      <trkpt lat="40.3907506261" lon="-5.7811604720">
        <ele>879.74</ele>
        <time>2020-07-17T09:14:52Z</time>
      </trkpt>
      <trkpt lat="40.3906978201" lon="-5.7816840056">
        <ele>879.26</ele>
        <time>2020-07-17T09:15:01Z</time>
      </trkpt>
      <trkpt lat="40.3905967344" lon="-5.7821175177">
        <ele>879.74</ele>
        <time>2020-07-17T09:15:10Z</time>
      </trkpt>
      <trkpt lat="40.3905943874" lon="-5.7821200322">
        <ele>880.71</ele>
        <time>2020-07-17T09:15:17Z</time>
      </trkpt>
      <trkpt lat="40.3906029370" lon="-5.7821178529">
        <ele>882.15</ele>
        <time>2020-07-17T09:15:32Z</time>
      </trkpt>
      <trkpt lat="40.3905881010" lon="-5.7821228821">
        <ele>882.15</ele>
        <time>2020-07-17T09:15:45Z</time>
      </trkpt>
      <trkpt lat="40.3905857541" lon="-5.7821463514">
        <ele>880.71</ele>
        <time>2020-07-17T09:15:59Z</time>
      </trkpt>
      <trkpt lat="40.3905863408" lon="-5.7821576670">
        <ele>879.74</ele>
        <time>2020-07-17T09:16:09Z</time>
      </trkpt>
      <trkpt lat="40.3905818984" lon="-5.7821731735">
        <ele>879.74</ele>
        <time>2020-07-17T09:16:10Z</time>
      </trkpt>
      <trkpt lat="40.3905782942" lon="-5.7821922004">
        <ele>879.74</ele>
        <time>2020-07-17T09:16:11Z</time>
      </trkpt>
      <trkpt lat="40.3905756120" lon="-5.7822159212">
        <ele>879.74</ele>
        <time>2020-07-17T09:16:12Z</time>
      </trkpt>
      <trkpt lat="40.3905708343" lon="-5.7822409831">
        <ele>879.74</ele>
        <time>2020-07-17T09:16:13Z</time>
      </trkpt>
      <trkpt lat="40.3905646317" lon="-5.7822650392">
        <ele>879.74</ele>
        <time>2020-07-17T09:16:14Z</time>
      </trkpt>
      <trkpt lat="40.3905574232" lon="-5.7822885923">
        <ele>879.74</ele>
        <time>2020-07-17T09:16:15Z</time>
      </trkpt>
      <trkpt lat="40.3905042820" lon="-5.7825088687">
        <ele>880.22</ele>
        <time>2020-07-17T09:16:21Z</time>
      </trkpt>
      <trkpt lat="40.3903782181" lon="-5.7829660177">
        <ele>880.22</ele>
        <time>2020-07-17T09:16:30Z</time>
      </trkpt>
      <trkpt lat="40.3902118374" lon="-5.7835561875">
        <ele>880.22</ele>
        <time>2020-07-17T09:16:41Z</time>
      </trkpt>
      <trkpt lat="40.3900690936" lon="-5.7840733510">
        <ele>881.19</ele>
        <time>2020-07-17T09:16:51Z</time>
      </trkpt>
      <trkpt lat="40.3899211530" lon="-5.7845710684">
        <ele>882.15</ele>
        <time>2020-07-17T09:17:01Z</time>
      </trkpt>
      <trkpt lat="40.3898204863" lon="-5.7850155607">
        <ele>883.11</ele>
        <time>2020-07-17T09:17:10Z</time>
      </trkpt>
      <trkpt lat="40.3897482343" lon="-5.7855830155">
        <ele>885.03</ele>
        <time>2020-07-17T09:17:21Z</time>
      </trkpt>
      <trkpt lat="40.3897376731" lon="-5.7860937249">
        <ele>885.99</ele>
        <time>2020-07-17T09:17:31Z</time>
      </trkpt>
      <trkpt lat="40.3897786606" lon="-5.7865546457">
        <ele>885.99</ele>
        <time>2020-07-17T09:17:40Z</time>
      </trkpt>
      <trkpt lat="40.3898672573" lon="-5.7869964559">
        <ele>885.99</ele>
        <time>2020-07-17T09:17:49Z</time>
      </trkpt>
      <trkpt lat="40.3899517469" lon="-5.7872782554">
        <ele>885.51</ele>
        <time>2020-07-17T09:17:55Z</time>
      </trkpt>
      <trkpt lat="40.3901162837" lon="-5.7877069060">
        <ele>885.99</ele>
        <time>2020-07-17T09:18:05Z</time>
      </trkpt>
      <trkpt lat="40.3903155215" lon="-5.7881145179">
        <ele>886.47</ele>
        <time>2020-07-17T09:18:15Z</time>
      </trkpt>
      <trkpt lat="40.3904453572" lon="-5.7883649692">
        <ele>886.95</ele>
        <time>2020-07-17T09:18:22Z</time>
      </trkpt>
      <trkpt lat="40.3905886039" lon="-5.7886616886">
        <ele>887.91</ele>
        <time>2020-07-17T09:18:30Z</time>
      </trkpt>
      <trkpt lat="40.3907552361" lon="-5.7890289836">
        <ele>888.40</ele>
        <time>2020-07-17T09:18:40Z</time>
      </trkpt>
      <trkpt lat="40.3908881731" lon="-5.7894132938">
        <ele>889.36</ele>
        <time>2020-07-17T09:18:50Z</time>
      </trkpt>
      <trkpt lat="40.3909709863" lon="-5.7897217479">
        <ele>890.32</ele>
        <time>2020-07-17T09:18:58Z</time>
      </trkpt>
      <trkpt lat="40.3910589125" lon="-5.7902196329">
        <ele>890.80</ele>
        <time>2020-07-17T09:19:10Z</time>
      </trkpt>
      <trkpt lat="40.3910914343" lon="-5.7905510534">
        <ele>891.76</ele>
        <time>2020-07-17T09:19:18Z</time>
      </trkpt>
      <trkpt lat="40.3911208548" lon="-5.7910253853">
        <ele>891.76</ele>
        <time>2020-07-17T09:19:29Z</time>
      </trkpt>
      <trkpt lat="40.3911610041" lon="-5.7914964482">
        <ele>893.68</ele>
        <time>2020-07-17T09:19:40Z</time>
      </trkpt>
      <trkpt lat="40.3911686316" lon="-5.7917410322">
        <ele>894.16</ele>
        <time>2020-07-17T09:19:46Z</time>
      </trkpt>
      <trkpt lat="40.3911729902" lon="-5.7917866297">
        <ele>894.16</ele>
        <time>2020-07-17T09:19:47Z</time>
      </trkpt>
      <trkpt lat="40.3911829647" lon="-5.7918382622">
        <ele>893.68</ele>
        <time>2020-07-17T09:19:48Z</time>
      </trkpt>
      <trkpt lat="40.3911898378" lon="-5.7918907329">
        <ele>893.68</ele>
        <time>2020-07-17T09:19:49Z</time>
      </trkpt>
      <trkpt lat="40.3911951184" lon="-5.7919383422">
        <ele>894.16</ele>
        <time>2020-07-17T09:19:50Z</time>
      </trkpt>
      <trkpt lat="40.3911957052" lon="-5.7919850294">
        <ele>894.16</ele>
        <time>2020-07-17T09:19:51Z</time>
      </trkpt>
      <trkpt lat="40.3912306577" lon="-5.7924772985">
        <ele>895.12</ele>
        <time>2020-07-17T09:20:02Z</time>
      </trkpt>
      <trkpt lat="40.3912620898" lon="-5.7928155921">
        <ele>895.12</ele>
        <time>2020-07-17T09:20:10Z</time>
      </trkpt>
      <trkpt lat="40.3913346771" lon="-5.7932932768">
        <ele>895.61</ele>
        <time>2020-07-17T09:20:21Z</time>
      </trkpt>
      <trkpt lat="40.3914118744" lon="-5.7936810236">
        <ele>895.61</ele>
        <time>2020-07-17T09:20:30Z</time>
      </trkpt>
      <trkpt lat="40.3915081825" lon="-5.7941357419">
        <ele>896.57</ele>
        <time>2020-07-17T09:20:41Z</time>
      </trkpt>
      <trkpt lat="40.3916113637" lon="-5.7945318706">
        <ele>897.05</ele>
        <time>2020-07-17T09:20:51Z</time>
      </trkpt>
      <trkpt lat="40.3917165566" lon="-5.7948901970">
        <ele>897.53</ele>
        <time>2020-07-17T09:21:00Z</time>
      </trkpt>
      <trkpt lat="40.3918538522" lon="-5.7952435780">
        <ele>898.49</ele>
        <time>2020-07-17T09:21:10Z</time>
      </trkpt>
      <trkpt lat="40.3920556884" lon="-5.7956328336">
        <ele>898.97</ele>
        <time>2020-07-17T09:21:22Z</time>
      </trkpt>
      <trkpt lat="40.3922706842" lon="-5.7959479094">
        <ele>899.45</ele>
        <time>2020-07-17T09:21:32Z</time>
      </trkpt>
      <trkpt lat="40.3925370611" lon="-5.7962469757">
        <ele>899.45</ele>
        <time>2020-07-17T09:21:43Z</time>
      </trkpt>
      <trkpt lat="40.3927935474" lon="-5.7964836806">
        <ele>898.97</ele>
        <time>2020-07-17T09:21:53Z</time>
      </trkpt>
      <trkpt lat="40.3929880075" lon="-5.7966246642">
        <ele>898.97</ele>
        <time>2020-07-17T09:22:00Z</time>
      </trkpt>
      <trkpt lat="40.3932481818" lon="-5.7967812382">
        <ele>899.45</ele>
        <time>2020-07-17T09:22:09Z</time>
      </trkpt>
      <trkpt lat="40.3935486730" lon="-5.7969004288">
        <ele>899.93</ele>
        <time>2020-07-17T09:22:19Z</time>
      </trkpt>
      <trkpt lat="40.3937924188" lon="-5.7969609462">
        <ele>900.89</ele>
        <time>2020-07-17T09:22:27Z</time>
      </trkpt>
      <trkpt lat="40.3940556105" lon="-5.7969964854">
        <ele>902.82</ele>
        <time>2020-07-17T09:22:36Z</time>
      </trkpt>
      <trkpt lat="40.3943482228" lon="-5.7969907857">
        <ele>903.78</ele>
        <time>2020-07-17T09:22:45Z</time>
      </trkpt>
      <trkpt lat="40.3946903720" lon="-5.7969352975">
        <ele>904.26</ele>
        <time>2020-07-17T09:22:55Z</time>
      </trkpt>
      <trkpt lat="40.3950249776" lon="-5.7968286797">
        <ele>904.74</ele>
        <time>2020-07-17T09:23:04Z</time>
      </trkpt>
      <trkpt lat="40.3954173345" lon="-5.7966858521">
        <ele>905.70</ele>
        <time>2020-07-17T09:23:14Z</time>
      </trkpt>
      <trkpt lat="40.3956963681" lon="-5.7965803239">
        <ele>906.66</ele>
        <time>2020-07-17T09:23:21Z</time>
      </trkpt>
      <trkpt lat="40.3960251063" lon="-5.7964478899">
        <ele>905.70</ele>
        <time>2020-07-17T09:23:31Z</time>
      </trkpt>
      <trkpt lat="40.3961425368" lon="-5.7964041363">
        <ele>905.70</ele>
        <time>2020-07-17T09:23:37Z</time>
      </trkpt>
      <trkpt lat="40.3961529303" lon="-5.7963970955">
        <ele>906.66</ele>
        <time>2020-07-17T09:23:47Z</time>
      </trkpt>
      <trkpt lat="40.3961550258" lon="-5.7963919826">
        <ele>908.10</ele>
        <time>2020-07-17T09:24:02Z</time>
      </trkpt>
      <trkpt lat="40.3961648326" lon="-5.7963979337">
        <ele>907.62</ele>
        <time>2020-07-17T09:24:11Z</time>
      </trkpt>
      <trkpt lat="40.3961535171" lon="-5.7964017056">
        <ele>907.62</ele>
        <time>2020-07-17T09:24:25Z</time>
      </trkpt>
      <trkpt lat="40.3961531818" lon="-5.7964012865">
        <ele>908.10</ele>
        <time>2020-07-17T09:24:38Z</time>
      </trkpt>
      <trkpt lat="40.3961450513" lon="-5.7964053098">
        <ele>908.58</ele>
        <time>2020-07-17T09:24:48Z</time>
      </trkpt>
      <trkpt lat="40.3961578757" lon="-5.7964128535">
        <ele>909.54</ele>
        <time>2020-07-17T09:25:03Z</time>
      </trkpt>
      <trkpt lat="40.3961610608" lon="-5.7964035496">
        <ele>909.54</ele>
        <time>2020-07-17T09:25:23Z</time>
      </trkpt>
      <trkpt lat="40.3961664252" lon="-5.7963996939">
        <ele>910.03</ele>
        <time>2020-07-17T09:25:41Z</time>
      </trkpt>
      <trkpt lat="40.3961511701" lon="-5.7964059804">
        <ele>909.54</ele>
        <time>2020-07-17T09:26:02Z</time>
      </trkpt>
      <trkpt lat="40.3961595520" lon="-5.7963915635">
        <ele>908.10</ele>
        <time>2020-07-17T09:26:19Z</time>
      </trkpt>
      <trkpt lat="40.3962128609" lon="-5.7963688485">
        <ele>908.10</ele>
        <time>2020-07-17T09:26:25Z</time>
      </trkpt>
      <trkpt lat="40.3964294493" lon="-5.7962940820">
        <ele>907.14</ele>
        <time>2020-07-17T09:26:32Z</time>
      </trkpt>
      <trkpt lat="40.3968829103" lon="-5.7961328980">
        <ele>906.18</ele>
        <time>2020-07-17T09:26:42Z</time>
      </trkpt>
      <trkpt lat="40.3973550629" lon="-5.7959751505">
        <ele>906.18</ele>
        <time>2020-07-17T09:26:53Z</time>
      </trkpt>
      <trkpt lat="40.3975935280" lon="-5.7959318999">
        <ele>907.14</ele>
        <time>2020-07-17T09:27:01Z</time>
      </trkpt>
      <trkpt lat="40.3978504334" lon="-5.7958995458">
        <ele>907.14</ele>
        <time>2020-07-17T09:27:09Z</time>
      </trkpt>
      <trkpt lat="40.3981297184" lon="-5.7958859671">
        <ele>907.62</ele>
        <time>2020-07-17T09:27:17Z</time>
      </trkpt>
      <trkpt lat="40.3984463867" lon="-5.7959166449">
        <ele>908.10</ele>
        <time>2020-07-17T09:27:26Z</time>
      </trkpt>
      <trkpt lat="40.3987375740" lon="-5.7959766593">
        <ele>909.06</ele>
        <time>2020-07-17T09:27:35Z</time>
      </trkpt>
      <trkpt lat="40.3990571760" lon="-5.7960821036">
        <ele>910.03</ele>
        <time>2020-07-17T09:27:45Z</time>
      </trkpt>
      <trkpt lat="40.3993073758" lon="-5.7961884700">
        <ele>910.03</ele>
        <time>2020-07-17T09:27:53Z</time>
      </trkpt>
      <trkpt lat="40.3996387124" lon="-5.7963489834">
        <ele>910.03</ele>
        <time>2020-07-17T09:28:03Z</time>
      </trkpt>
      <trkpt lat="40.3998721484" lon="-5.7964716107">
        <ele>910.03</ele>
        <time>2020-07-17T09:28:10Z</time>
      </trkpt>
      <trkpt lat="40.4002204165" lon="-5.7966439426">
        <ele>910.51</ele>
        <time>2020-07-17T09:28:20Z</time>
      </trkpt>
      <trkpt lat="40.4004795849" lon="-5.7967761252">
        <ele>910.99</ele>
        <time>2020-07-17T09:28:28Z</time>
      </trkpt>
      <trkpt lat="40.4007386696" lon="-5.7968979143">
        <ele>911.95</ele>
        <time>2020-07-17T09:28:36Z</time>
      </trkpt>
      <trkpt lat="40.4010709282" lon="-5.7970615290">
        <ele>911.47</ele>
        <time>2020-07-17T09:28:46Z</time>
      </trkpt>
      <trkpt lat="40.4013682343" lon="-5.7972105592">
        <ele>912.43</ele>
        <time>2020-07-17T09:28:55Z</time>
      </trkpt>
      <trkpt lat="40.4016942065" lon="-5.7973838970">
        <ele>913.39</ele>
        <time>2020-07-17T09:29:05Z</time>
      </trkpt>
      <trkpt lat="40.4020960350" lon="-5.7976055145">
        <ele>913.39</ele>
        <time>2020-07-17T09:29:17Z</time>
      </trkpt>
      <trkpt lat="40.4024040699" lon="-5.7978195045">
        <ele>914.83</ele>
        <time>2020-07-17T09:29:27Z</time>
      </trkpt>
      <trkpt lat="40.4027064051" lon="-5.7980716322">
        <ele>915.31</ele>
        <time>2020-07-17T09:29:37Z</time>
      </trkpt>
      <trkpt lat="40.4030049685" lon="-5.7983612269">
        <ele>915.79</ele>
        <time>2020-07-17T09:29:47Z</time>
      </trkpt>
      <trkpt lat="40.4033078905" lon="-5.7986836787">
        <ele>916.75</ele>
        <time>2020-07-17T09:29:58Z</time>
      </trkpt>
      <trkpt lat="40.4036039393" lon="-5.7990230620">
        <ele>917.24</ele>
        <time>2020-07-17T09:30:09Z</time>
      </trkpt>
      <trkpt lat="40.4038583301" lon="-5.7993170992">
        <ele>918.20</ele>
        <time>2020-07-17T09:30:19Z</time>
      </trkpt>
      <trkpt lat="40.4041405488" lon="-5.7996281516">
        <ele>918.20</ele>
        <time>2020-07-17T09:30:30Z</time>
      </trkpt>
      <trkpt lat="40.4043815285" lon="-5.7998878229">
        <ele>919.16</ele>
        <time>2020-07-17T09:30:39Z</time>
      </trkpt>
      <trkpt lat="40.4047023039" lon="-5.8001735620">
        <ele>920.12</ele>
        <time>2020-07-17T09:30:50Z</time>
      </trkpt>
      <trkpt lat="40.4049990233" lon="-5.8003693633">
        <ele>920.12</ele>
        <time>2020-07-17T09:30:59Z</time>
      </trkpt>
      <trkpt lat="40.4053671565" lon="-5.8005506638">
        <ele>921.08</ele>
        <time>2020-07-17T09:31:10Z</time>
      </trkpt>
      <trkpt lat="40.4056958947" lon="-5.8006685972">
        <ele>921.56</ele>
        <time>2020-07-17T09:31:20Z</time>
      </trkpt>
      <trkpt lat="40.4060574062" lon="-5.8007462975">
        <ele>922.04</ele>
        <time>2020-07-17T09:31:31Z</time>
      </trkpt>
      <trkpt lat="40.4064062610" lon="-5.8007708564">
        <ele>923.48</ele>
        <time>2020-07-17T09:31:41Z</time>
      </trkpt>
      <trkpt lat="40.4067525174" lon="-5.8007608820">
        <ele>923.96</ele>
        <time>2020-07-17T09:31:51Z</time>
      </trkpt>
      <trkpt lat="40.4070577025" lon="-5.8007167093">
        <ele>923.96</ele>
        <time>2020-07-17T09:32:00Z</time>
      </trkpt>
      <trkpt lat="40.4072890431" lon="-5.8006545156">
        <ele>925.41</ele>
        <time>2020-07-17T09:32:07Z</time>
      </trkpt>
      <trkpt lat="40.4075318668" lon="-5.8005764801">
        <ele>926.37</ele>
        <time>2020-07-17T09:32:14Z</time>
      </trkpt>
      <trkpt lat="40.4078813083" lon="-5.8004028071">
        <ele>927.81</ele>
        <time>2020-07-17T09:32:23Z</time>
      </trkpt>
      <trkpt lat="40.4082248826" lon="-5.8001871407">
        <ele>927.33</ele>
        <time>2020-07-17T09:32:32Z</time>
      </trkpt>
      <trkpt lat="40.4085347615" lon="-5.7999369409">
        <ele>926.85</ele>
        <time>2020-07-17T09:32:41Z</time>
      </trkpt>
      <trkpt lat="40.4088454787" lon="-5.7996163331">
        <ele>927.81</ele>
        <time>2020-07-17T09:32:51Z</time>
      </trkpt>
      <trkpt lat="40.4091026355" lon="-5.7993020117">
        <ele>928.29</ele>
        <time>2020-07-17T09:33:00Z</time>
      </trkpt>
      <trkpt lat="40.4093426932" lon="-5.7989483792">
        <ele>927.33</ele>
        <time>2020-07-17T09:33:09Z</time>
      </trkpt>
      <trkpt lat="40.4095700942" lon="-5.7985172141">
        <ele>927.33</ele>
        <time>2020-07-17T09:33:19Z</time>
      </trkpt>
      <trkpt lat="40.4097192083" lon="-5.7981691137">
        <ele>926.85</ele>
        <time>2020-07-17T09:33:27Z</time>
      </trkpt>
      <trkpt lat="40.4098937195" lon="-5.7976982184">
        <ele>926.85</ele>
        <time>2020-07-17T09:33:37Z</time>
      </trkpt>
      <trkpt lat="40.4100615252" lon="-5.7972393092">
        <ele>926.37</ele>
        <time>2020-07-17T09:33:47Z</time>
      </trkpt>
      <trkpt lat="40.4102859925" lon="-5.7966387458">
        <ele>926.85</ele>
        <time>2020-07-17T09:34:00Z</time>
      </trkpt>
      <trkpt lat="40.4104218632" lon="-5.7962710317">
        <ele>926.85</ele>
        <time>2020-07-17T09:34:08Z</time>
      </trkpt>
      <trkpt lat="40.4106024094" lon="-5.7957697939">
        <ele>927.33</ele>
        <time>2020-07-17T09:34:19Z</time>
      </trkpt>
      <trkpt lat="40.4107701313" lon="-5.7953197695">
        <ele>927.33</ele>
        <time>2020-07-17T09:34:28Z</time>
      </trkpt>
      <trkpt lat="40.4109384399" lon="-5.7948626205">
        <ele>927.33</ele>
        <time>2020-07-17T09:34:37Z</time>
      </trkpt>
      <trkpt lat="40.4109593946" lon="-5.7948108204">
        <ele>927.33</ele>
        <time>2020-07-17T09:34:38Z</time>
      </trkpt>
      <trkpt lat="40.4111502506" lon="-5.7942414377">
        <ele>928.29</ele>
        <time>2020-07-17T09:34:49Z</time>
      </trkpt>
      <trkpt lat="40.4112948384" lon="-5.7938386034">
        <ele>928.77</ele>
        <time>2020-07-17T09:34:58Z</time>
      </trkpt>
      <trkpt lat="40.4114536755" lon="-5.7934082765">
        <ele>929.73</ele>
        <time>2020-07-17T09:35:07Z</time>
      </trkpt>
      <trkpt lat="40.4116114229" lon="-5.7929858286">
        <ele>929.73</ele>
        <time>2020-07-17T09:35:16Z</time>
      </trkpt>
      <trkpt lat="40.4117431026" lon="-5.7926164381">
        <ele>928.77</ele>
        <time>2020-07-17T09:35:24Z</time>
      </trkpt>
      <trkpt lat="40.4118939769" lon="-5.7921957504">
        <ele>928.77</ele>
        <time>2020-07-17T09:35:33Z</time>
      </trkpt>
      <trkpt lat="40.4120119102" lon="-5.7918587141">
        <ele>929.25</ele>
        <time>2020-07-17T09:35:41Z</time>
      </trkpt>
      <trkpt lat="40.4121233895" lon="-5.7915573847">
        <ele>929.73</ele>
        <time>2020-07-17T09:35:50Z</time>
      </trkpt>
      <trkpt lat="40.4121595994" lon="-5.7914643455">
        <ele>931.17</ele>
        <time>2020-07-17T09:35:57Z</time>
      </trkpt>
      <trkpt lat="40.4121526424" lon="-5.7914747391">
        <ele>929.73</ele>
        <time>2020-07-17T09:36:06Z</time>
      </trkpt>
      <trkpt lat="40.4121407401" lon="-5.7914814446">
        <ele>928.77</ele>
        <time>2020-07-17T09:36:30Z</time>
      </trkpt>
      <trkpt lat="40.4121352918" lon="-5.7914837915">
        <ele>928.29</ele>
        <time>2020-07-17T09:36:43Z</time>
      </trkpt>
      <trkpt lat="40.4121282510" lon="-5.7914928440">
        <ele>929.25</ele>
        <time>2020-07-17T09:37:06Z</time>
      </trkpt>
      <trkpt lat="40.4121373873" lon="-5.7914804388">
        <ele>927.33</ele>
        <time>2020-07-17T09:37:34Z</time>
      </trkpt>
      <trkpt lat="40.4121550731" lon="-5.7914969511">
        <ele>928.29</ele>
        <time>2020-07-17T09:38:01Z</time>
      </trkpt>
      <trkpt lat="40.4121628683" lon="-5.7915086020">
        <ele>928.29</ele>
        <time>2020-07-17T09:38:16Z</time>
      </trkpt>
      <trkpt lat="40.4121279996" lon="-5.7914929278">
        <ele>929.25</ele>
        <time>2020-07-17T09:38:39Z</time>
      </trkpt>
      <trkpt lat="40.4121193662" lon="-5.7914803550">
        <ele>928.29</ele>
        <time>2020-07-17T09:38:55Z</time>
      </trkpt>
      <trkpt lat="40.4121374711" lon="-5.7914905809">
        <ele>929.25</ele>
        <time>2020-07-17T09:39:20Z</time>
      </trkpt>
      <trkpt lat="40.4121610243" lon="-5.7915055007">
        <ele>930.69</ele>
        <time>2020-07-17T09:39:45Z</time>
      </trkpt>
      <trkpt lat="40.4121425841" lon="-5.7914887369">
        <ele>930.21</ele>
        <time>2020-07-17T09:40:07Z</time>
      </trkpt>
      <trkpt lat="40.4121493734" lon="-5.7914866414">
        <ele>929.73</ele>
        <time>2020-07-17T09:40:24Z</time>
      </trkpt>
      <trkpt lat="40.4121453501" lon="-5.7914786786">
        <ele>930.69</ele>
        <time>2020-07-17T09:40:47Z</time>
      </trkpt>
      <trkpt lat="40.4121305980" lon="-5.7914744038">
        <ele>930.69</ele>
        <time>2020-07-17T09:41:12Z</time>
      </trkpt>
      <trkpt lat="40.4121306818" lon="-5.7914691232">
        <ele>930.21</ele>
        <time>2020-07-17T09:41:36Z</time>
      </trkpt>
      <trkpt lat="40.4121212102" lon="-5.7914903294">
        <ele>930.21</ele>
        <time>2020-07-17T09:41:57Z</time>
      </trkpt>
      <trkpt lat="40.4121105652" lon="-5.7914850488">
        <ele>930.21</ele>
        <time>2020-07-17T09:42:15Z</time>
      </trkpt>
      <trkpt lat="40.4121383093" lon="-5.7914694585">
        <ele>929.25</ele>
        <time>2020-07-17T09:42:28Z</time>
      </trkpt>
      <trkpt lat="40.4121461045" lon="-5.7914775051">
        <ele>928.77</ele>
        <time>2020-07-17T09:42:48Z</time>
      </trkpt>
      <trkpt lat="40.4121462721" lon="-5.7914798521">
        <ele>928.29</ele>
        <time>2020-07-17T09:43:07Z</time>
      </trkpt>
      <trkpt lat="40.4121502955" lon="-5.7914792653">
        <ele>929.25</ele>
        <time>2020-07-17T09:43:17Z</time>
      </trkpt>
      <trkpt lat="40.4122241400" lon="-5.7913195062">
        <ele>929.73</ele>
        <time>2020-07-17T09:43:23Z</time>
      </trkpt>
      <trkpt lat="40.4124250542" lon="-5.7908738405">
        <ele>929.73</ele>
        <time>2020-07-17T09:43:33Z</time>
      </trkpt>
      <trkpt lat="40.4125375394" lon="-5.7906586770">
        <ele>929.73</ele>
        <time>2020-07-17T09:43:40Z</time>
      </trkpt>
      <trkpt lat="40.4125472624" lon="-5.7906843256">
        <ele>929.73</ele>
        <time>2020-07-17T09:43:46Z</time>
      </trkpt>
      <trkpt lat="40.4125406407" lon="-5.7906932104">
        <ele>929.73</ele>
        <time>2020-07-17T09:43:47Z</time>
      </trkpt>
      <trkpt lat="40.4124151636" lon="-5.7909067813">
        <ele>929.73</ele>
        <time>2020-07-17T09:43:54Z</time>
      </trkpt>
      <trkpt lat="40.4122236371" lon="-5.7913458254">
        <ele>928.77</ele>
        <time>2020-07-17T09:44:04Z</time>
      </trkpt>
      <trkpt lat="40.4121824820" lon="-5.7913833763">
        <ele>928.77</ele>
        <time>2020-07-17T09:44:08Z</time>
      </trkpt>
      <trkpt lat="40.4121943004" lon="-5.7913768385">
        <ele>930.21</ele>
        <time>2020-07-17T09:44:20Z</time>
      </trkpt>
      <trkpt lat="40.4121975694" lon="-5.7913625892">
        <ele>929.73</ele>
        <time>2020-07-17T09:44:25Z</time>
      </trkpt>
      <trkpt lat="40.4122371320" lon="-5.7912793569">
        <ele>929.73</ele>
        <time>2020-07-17T09:44:29Z</time>
      </trkpt>
      <trkpt lat="40.4124516249" lon="-5.7908307575">
        <ele>929.73</ele>
        <time>2020-07-17T09:44:39Z</time>
      </trkpt>
      <trkpt lat="40.4127762560" lon="-5.7903194614">
        <ele>929.25</ele>
        <time>2020-07-17T09:44:50Z</time>
      </trkpt>
      <trkpt lat="40.4130676109" lon="-5.7899348158">
        <ele>928.77</ele>
        <time>2020-07-17T09:45:00Z</time>
      </trkpt>
      <trkpt lat="40.4132098518" lon="-5.7897891384">
        <ele>929.73</ele>
        <time>2020-07-17T09:45:07Z</time>
      </trkpt>
      <trkpt lat="40.4132117797" lon="-5.7897986937">
        <ele>931.65</ele>
        <time>2020-07-17T09:45:20Z</time>
      </trkpt>
      <trkpt lat="40.4133447167" lon="-5.7896573748">
        <ele>932.14</ele>
        <time>2020-07-17T09:45:27Z</time>
      </trkpt>
      <trkpt lat="40.4135529231" lon="-5.7894681115">
        <ele>931.65</ele>
        <time>2020-07-17T09:45:34Z</time>
      </trkpt>
      <trkpt lat="40.4138775542" lon="-5.7891936041">
        <ele>931.17</ele>
        <time>2020-07-17T09:45:44Z</time>
      </trkpt>
      <trkpt lat="40.4142041970" lon="-5.7889134809">
        <ele>930.69</ele>
        <time>2020-07-17T09:45:54Z</time>
      </trkpt>
      <trkpt lat="40.4145258944" lon="-5.7886372134">
        <ele>931.17</ele>
        <time>2020-07-17T09:46:04Z</time>
      </trkpt>
      <trkpt lat="40.4147563130" lon="-5.7884386461">
        <ele>931.17</ele>
        <time>2020-07-17T09:46:11Z</time>
      </trkpt>
      <trkpt lat="40.4148845561" lon="-5.7883477025">
        <ele>931.65</ele>
        <time>2020-07-17T09:46:17Z</time>
      </trkpt>
      <trkpt lat="40.4150329158" lon="-5.7882238179">
        <ele>932.62</ele>
        <time>2020-07-17T09:46:23Z</time>
      </trkpt>
      <trkpt lat="40.4153163079" lon="-5.7879810780">
        <ele>933.58</ele>
        <time>2020-07-17T09:46:33Z</time>
      </trkpt>
      <trkpt lat="40.4156137817" lon="-5.7877218258">
        <ele>933.58</ele>
        <time>2020-07-17T09:46:44Z</time>
      </trkpt>
      <trkpt lat="40.4159961641" lon="-5.7873999607">
        <ele>933.58</ele>
        <time>2020-07-17T09:46:57Z</time>
      </trkpt>
      <trkpt lat="40.4163368884" lon="-5.7871095277">
        <ele>934.54</ele>
        <time>2020-07-17T09:47:08Z</time>
      </trkpt>
      <trkpt lat="40.4166334402" lon="-5.7868548017">
        <ele>935.02</ele>
        <time>2020-07-17T09:47:18Z</time>
      </trkpt>
      <trkpt lat="40.4168988112" lon="-5.7866274845">
        <ele>936.46</ele>
        <time>2020-07-17T09:47:27Z</time>
      </trkpt>
      <trkpt lat="40.4171485920" lon="-5.7864145003">
        <ele>935.98</ele>
        <time>2020-07-17T09:47:36Z</time>
      </trkpt>
      <trkpt lat="40.4174200818" lon="-5.7861841656">
        <ele>934.54</ele>
        <time>2020-07-17T09:47:46Z</time>
      </trkpt>
      <trkpt lat="40.4177250993" lon="-5.7859171182">
        <ele>934.54</ele>
        <time>2020-07-17T09:47:57Z</time>
      </trkpt>
      <trkpt lat="40.4180774745" lon="-5.7856192254">
        <ele>934.54</ele>
        <time>2020-07-17T09:48:09Z</time>
      </trkpt>
      <trkpt lat="40.4183752835" lon="-5.7853633258">
        <ele>935.02</ele>
        <time>2020-07-17T09:48:19Z</time>
      </trkpt>
      <trkpt lat="40.4186232202" lon="-5.7851466537">
        <ele>935.02</ele>
        <time>2020-07-17T09:48:28Z</time>
      </trkpt>
      <trkpt lat="40.4188371263" lon="-5.7849682868">
        <ele>936.46</ele>
        <time>2020-07-17T09:48:36Z</time>
      </trkpt>
      <trkpt lat="40.4190601688" lon="-5.7847741619">
        <ele>936.94</ele>
        <time>2020-07-17T09:48:44Z</time>
      </trkpt>
      <trkpt lat="40.4192766733" lon="-5.7845921908">
        <ele>937.42</ele>
        <time>2020-07-17T09:48:52Z</time>
      </trkpt>
      <trkpt lat="40.4195437208" lon="-5.7843609340">
        <ele>938.38</ele>
        <time>2020-07-17T09:49:01Z</time>
      </trkpt>
      <trkpt lat="40.4198217485" lon="-5.7841093931">
        <ele>939.83</ele>
        <time>2020-07-17T09:49:10Z</time>
      </trkpt>
      <trkpt lat="40.4200944956" lon="-5.7838625461">
        <ele>941.27</ele>
        <time>2020-07-17T09:49:19Z</time>
      </trkpt>
      <trkpt lat="40.4203162808" lon="-5.7836841792">
        <ele>942.23</ele>
        <time>2020-07-17T09:49:27Z</time>
      </trkpt>
      <trkpt lat="40.4205627926" lon="-5.7834913116">
        <ele>941.27</ele>
        <time>2020-07-17T09:49:35Z</time>
      </trkpt>
      <trkpt lat="40.4208357073" lon="-5.7832584623">
        <ele>941.27</ele>
        <time>2020-07-17T09:49:44Z</time>
      </trkpt>
      <trkpt lat="40.4211013298" lon="-5.7830333244">
        <ele>940.31</ele>
        <time>2020-07-17T09:49:52Z</time>
      </trkpt>
      <trkpt lat="40.4213724006" lon="-5.7827888243">
        <ele>939.83</ele>
        <time>2020-07-17T09:50:02Z</time>
      </trkpt>
      <trkpt lat="40.4214312416" lon="-5.7827507704">
        <ele>939.83</ele>
        <time>2020-07-17T09:50:07Z</time>
      </trkpt>
      <trkpt lat="40.4214680381" lon="-5.7827598229">
        <ele>939.83</ele>
        <time>2020-07-17T09:50:09Z</time>
      </trkpt>
      <trkpt lat="40.4216340836" lon="-5.7827954460">
        <ele>939.35</ele>
        <time>2020-07-17T09:50:17Z</time>
      </trkpt>
      <trkpt lat="40.4218837805" lon="-5.7826455776">
        <ele>936.94</ele>
        <time>2020-07-17T09:50:25Z</time>
      </trkpt>
      <trkpt lat="40.4219243489" lon="-5.7826176658">
        <ele>936.46</ele>
        <time>2020-07-17T09:50:26Z</time>
      </trkpt>
      <trkpt lat="40.4219646659" lon="-5.7825989742">
        <ele>936.46</ele>
        <time>2020-07-17T09:50:27Z</time>
      </trkpt>
      <trkpt lat="40.4220025521" lon="-5.7825963758">
        <ele>935.98</ele>
        <time>2020-07-17T09:50:28Z</time>
      </trkpt>
      <trkpt lat="40.4220380075" lon="-5.7826086972">
        <ele>935.50</ele>
        <time>2020-07-17T09:50:29Z</time>
      </trkpt>
      <trkpt lat="40.4220639914" lon="-5.7826295681">
        <ele>935.02</ele>
        <time>2020-07-17T09:50:30Z</time>
      </trkpt>
      <trkpt lat="40.4220847785" lon="-5.7826531213">
        <ele>934.54</ele>
        <time>2020-07-17T09:50:31Z</time>
      </trkpt>
      <trkpt lat="40.4220983572" lon="-5.7826705556">
        <ele>934.54</ele>
        <time>2020-07-17T09:50:32Z</time>
      </trkpt>
      <trkpt lat="40.4221042246" lon="-5.7826786861">
        <ele>934.06</ele>
        <time>2020-07-17T09:50:37Z</time>
      </trkpt>
      <trkpt lat="40.4220997822" lon="-5.7826837152">
        <ele>933.58</ele>
        <time>2020-07-17T09:50:53Z</time>
      </trkpt>
      <trkpt lat="40.4221103434" lon="-5.7826973777">
        <ele>933.58</ele>
        <time>2020-07-17T09:51:02Z</time>
      </trkpt>
      <trkpt lat="40.4221155401" lon="-5.7826988865">
        <ele>934.06</ele>
        <time>2020-07-17T09:51:12Z</time>
      </trkpt>
      <trkpt lat="40.4221083317" lon="-5.7827319112">
        <ele>935.50</ele>
        <time>2020-07-17T09:51:33Z</time>
      </trkpt>
      <trkpt lat="40.4220991954" lon="-5.7827283069">
        <ele>936.46</ele>
        <time>2020-07-17T09:51:59Z</time>
      </trkpt>
      <trkpt lat="40.4220968485" lon="-5.7827327494">
        <ele>935.98</ele>
        <time>2020-07-17T09:52:13Z</time>
      </trkpt>
      <trkpt lat="40.4221016262" lon="-5.7827024069">
        <ele>936.46</ele>
        <time>2020-07-17T09:52:33Z</time>
      </trkpt>
      <trkpt lat="40.4221080802" lon="-5.7827136386">
        <ele>935.50</ele>
        <time>2020-07-17T09:52:36Z</time>
      </trkpt>
      <trkpt lat="40.4221090861" lon="-5.7827310730">
        <ele>935.02</ele>
        <time>2020-07-17T09:52:37Z</time>
      </trkpt>
      <trkpt lat="40.4221063200" lon="-5.7827517763">
        <ele>935.02</ele>
        <time>2020-07-17T09:52:38Z</time>
      </trkpt>
      <trkpt lat="40.4220996145" lon="-5.7827728987">
        <ele>935.02</ele>
        <time>2020-07-17T09:52:39Z</time>
      </trkpt>
      <trkpt lat="40.4220909812" lon="-5.7827930991">
        <ele>935.02</ele>
        <time>2020-07-17T09:52:40Z</time>
      </trkpt>
      <trkpt lat="40.4220823478" lon="-5.7828101143">
        <ele>934.54</ele>
        <time>2020-07-17T09:52:41Z</time>
      </trkpt>
      <trkpt lat="40.4219786637" lon="-5.7828723080">
        <ele>934.54</ele>
        <time>2020-07-17T09:52:48Z</time>
      </trkpt>
      <trkpt lat="40.4219637439" lon="-5.7828722242">
        <ele>934.06</ele>
        <time>2020-07-17T09:52:49Z</time>
      </trkpt>
      <trkpt lat="40.4219484050" lon="-5.7828728110">
        <ele>934.06</ele>
        <time>2020-07-17T09:52:50Z</time>
      </trkpt>
      <trkpt lat="40.4218750633" lon="-5.7828939334">
        <ele>933.10</ele>
        <time>2020-07-17T09:52:56Z</time>
      </trkpt>
      <trkpt lat="40.4218697827" lon="-5.7829151396">
        <ele>933.10</ele>
        <time>2020-07-17T09:52:57Z</time>
      </trkpt>
      <trkpt lat="40.4218707047" lon="-5.7829464041">
        <ele>932.62</ele>
        <time>2020-07-17T09:52:58Z</time>
      </trkpt>
      <trkpt lat="40.4218733031" lon="-5.7829734776">
        <ele>932.62</ele>
        <time>2020-07-17T09:52:59Z</time>
      </trkpt>
      <trkpt lat="40.4218810983" lon="-5.7830004673">
        <ele>932.14</ele>
        <time>2020-07-17T09:53:00Z</time>
      </trkpt>
      <trkpt lat="40.4218912404" lon="-5.7830288820">
        <ele>931.65</ele>
        <time>2020-07-17T09:53:01Z</time>
      </trkpt>
      <trkpt lat="40.4219490755" lon="-5.7831849530">
        <ele>928.77</ele>
        <time>2020-07-17T09:53:07Z</time>
      </trkpt>
      <trkpt lat="40.4219672643" lon="-5.7831982803">
        <ele>928.29</ele>
        <time>2020-07-17T09:53:08Z</time>
      </trkpt>
      <trkpt lat="40.4219857883" lon="-5.7832038961">
        <ele>927.81</ele>
        <time>2020-07-17T09:53:09Z</time>
      </trkpt>
      <trkpt lat="40.4221690167" lon="-5.7832813449">
        <ele>925.41</ele>
        <time>2020-07-17T09:53:18Z</time>
      </trkpt>
      <trkpt lat="40.4223835096" lon="-5.7834767271">
        <ele>923.00</ele>
        <time>2020-07-17T09:53:27Z</time>
      </trkpt>
      <trkpt lat="40.4226171970" lon="-5.7837151922">
        <ele>919.16</ele>
        <time>2020-07-17T09:53:35Z</time>
      </trkpt>
      <trkpt lat="40.4227420874" lon="-5.7837964967">
        <ele>917.72</ele>
        <time>2020-07-17T09:53:38Z</time>
      </trkpt>
      <trkpt lat="40.4227894451" lon="-5.7838150207">
        <ele>917.24</ele>
        <time>2020-07-17T09:53:39Z</time>
      </trkpt>
      <trkpt lat="40.4231512081" lon="-5.7839471195">
        <ele>914.35</ele>
        <time>2020-07-17T09:53:47Z</time>
      </trkpt>
      <trkpt lat="40.4234069400" lon="-5.7840061281">
        <ele>912.43</ele>
        <time>2020-07-17T09:53:53Z</time>
      </trkpt>
      <trkpt lat="40.4236569721" lon="-5.7840254903">
        <ele>910.99</ele>
        <time>2020-07-17T09:53:59Z</time>
      </trkpt>
      <trkpt lat="40.4237008933" lon="-5.7840221375">
        <ele>910.99</ele>
        <time>2020-07-17T09:54:00Z</time>
      </trkpt>
      <trkpt lat="40.4239685275" lon="-5.7839905377">
        <ele>910.03</ele>
        <time>2020-07-17T09:54:06Z</time>
      </trkpt>
      <trkpt lat="40.4240639973" lon="-5.7840057090">
        <ele>910.03</ele>
        <time>2020-07-17T09:54:08Z</time>
      </trkpt>
      <trkpt lat="40.4241108522" lon="-5.7840230595">
        <ele>909.54</ele>
        <time>2020-07-17T09:54:09Z</time>
      </trkpt>
      <trkpt lat="40.4242053162" lon="-5.7840656396">
        <ele>909.06</ele>
        <time>2020-07-17T09:54:11Z</time>
      </trkpt>
      <trkpt lat="40.4244826734" lon="-5.7842243090">
        <ele>908.58</ele>
        <time>2020-07-17T09:54:17Z</time>
      </trkpt>
      <trkpt lat="40.4249577597" lon="-5.7842902746">
        <ele>908.58</ele>
        <time>2020-07-17T09:54:26Z</time>
      </trkpt>
      <trkpt lat="40.4254331812" lon="-5.7843184378">
        <ele>908.10</ele>
        <time>2020-07-17T09:54:35Z</time>
      </trkpt>
      <trkpt lat="40.4258041643" lon="-5.7842803840">
        <ele>908.10</ele>
        <time>2020-07-17T09:54:43Z</time>
      </trkpt>
      <trkpt lat="40.4259661026" lon="-5.7843062840">
        <ele>907.62</ele>
        <time>2020-07-17T09:54:47Z</time>
      </trkpt>
      <trkpt lat="40.4259985406" lon="-5.7843332738">
        <ele>907.62</ele>
        <time>2020-07-17T09:54:48Z</time>
      </trkpt>
      <trkpt lat="40.4261686932" lon="-5.7845378760">
        <ele>906.66</ele>
        <time>2020-07-17T09:54:53Z</time>
      </trkpt>
      <trkpt lat="40.4263240099" lon="-5.7848056778">
        <ele>906.18</ele>
        <time>2020-07-17T09:54:58Z</time>
      </trkpt>
      <trkpt lat="40.4263443779" lon="-5.7848770916">
        <ele>905.70</ele>
        <time>2020-07-17T09:54:59Z</time>
      </trkpt>
      <trkpt lat="40.4263572022" lon="-5.7849578094">
        <ele>905.22</ele>
        <time>2020-07-17T09:55:00Z</time>
      </trkpt>
      <trkpt lat="40.4263629019" lon="-5.7850435562">
        <ele>904.74</ele>
        <time>2020-07-17T09:55:01Z</time>
      </trkpt>
      <trkpt lat="40.4263588786" lon="-5.7851225976">
        <ele>903.78</ele>
        <time>2020-07-17T09:55:02Z</time>
      </trkpt>
      <trkpt lat="40.4263510834" lon="-5.7851970289">
        <ele>903.30</ele>
        <time>2020-07-17T09:55:03Z</time>
      </trkpt>
      <trkpt lat="40.4263228364" lon="-5.7855290361">
        <ele>899.93</ele>
        <time>2020-07-17T09:55:08Z</time>
      </trkpt>
      <trkpt lat="40.4263247643" lon="-5.7855886314">
        <ele>899.45</ele>
        <time>2020-07-17T09:55:09Z</time>
      </trkpt>
      <trkpt lat="40.4263351578" lon="-5.7856436167">
        <ele>898.97</ele>
        <time>2020-07-17T09:55:10Z</time>
      </trkpt>
      <trkpt lat="40.4263639916" lon="-5.7856940757">
        <ele>898.01</ele>
        <time>2020-07-17T09:55:11Z</time>
      </trkpt>
      <trkpt lat="40.4264043085" lon="-5.7857222389">
        <ele>897.53</ele>
        <time>2020-07-17T09:55:12Z</time>
      </trkpt>
      <trkpt lat="40.4264531750" lon="-5.7857223228">
        <ele>897.05</ele>
        <time>2020-07-17T09:55:13Z</time>
      </trkpt>
      <trkpt lat="40.4265079927" lon="-5.7857030444">
        <ele>896.09</ele>
        <time>2020-07-17T09:55:14Z</time>
      </trkpt>
      <trkpt lat="40.4265650734" lon="-5.7856789045">
        <ele>896.09</ele>
        <time>2020-07-17T09:55:15Z</time>
      </trkpt>
      <trkpt lat="40.4270432610" lon="-5.7854412775">
        <ele>893.68</ele>
        <time>2020-07-17T09:55:23Z</time>
      </trkpt>
      <trkpt lat="40.4277175013" lon="-5.7851210888">
        <ele>890.80</ele>
        <time>2020-07-17T09:55:34Z</time>
      </trkpt>
      <trkpt lat="40.4278902523" lon="-5.7850197516">
        <ele>889.84</ele>
        <time>2020-07-17T09:55:37Z</time>
      </trkpt>
      <trkpt lat="40.4279455729" lon="-5.7850083522">
        <ele>889.36</ele>
        <time>2020-07-17T09:55:38Z</time>
      </trkpt>
      <trkpt lat="40.4279982112" lon="-5.7850166503">
        <ele>888.40</ele>
        <time>2020-07-17T09:55:39Z</time>
      </trkpt>
      <trkpt lat="40.4280423000" lon="-5.7850500941">
        <ele>887.91</ele>
        <time>2020-07-17T09:55:40Z</time>
      </trkpt>
      <trkpt lat="40.4280831199" lon="-5.7851099409">
        <ele>886.95</ele>
        <time>2020-07-17T09:55:41Z</time>
      </trkpt>
      <trkpt lat="40.4281122051" lon="-5.7851786725">
        <ele>886.47</ele>
        <time>2020-07-17T09:55:42Z</time>
      </trkpt>
      <trkpt lat="40.4281373508" lon="-5.7852551155">
        <ele>885.99</ele>
        <time>2020-07-17T09:55:43Z</time>
      </trkpt>
      <trkpt lat="40.4281605687" lon="-5.7853370067">
        <ele>885.03</ele>
        <time>2020-07-17T09:55:44Z</time>
      </trkpt>
      <trkpt lat="40.4281971138" lon="-5.7854756434">
        <ele>884.07</ele>
        <time>2020-07-17T09:55:46Z</time>
      </trkpt>
      <trkpt lat="40.4282252770" lon="-5.7855272759">
        <ele>883.59</ele>
        <time>2020-07-17T09:55:47Z</time>
      </trkpt>
      <trkpt lat="40.4282692820" lon="-5.7855603844">
        <ele>882.63</ele>
        <time>2020-07-17T09:55:48Z</time>
      </trkpt>
      <trkpt lat="40.4283206630" lon="-5.7855670899">
        <ele>882.15</ele>
        <time>2020-07-17T09:55:49Z</time>
      </trkpt>
      <trkpt lat="40.4283814318" lon="-5.7855474763">
        <ele>881.67</ele>
        <time>2020-07-17T09:55:50Z</time>
      </trkpt>
      <trkpt lat="40.4284379259" lon="-5.7855150383">
        <ele>881.19</ele>
        <time>2020-07-17T09:55:51Z</time>
      </trkpt>
      <trkpt lat="40.4284953419" lon="-5.7854815945">
        <ele>880.22</ele>
        <time>2020-07-17T09:55:52Z</time>
      </trkpt>
      <trkpt lat="40.4286834318" lon="-5.7854064088">
        <ele>878.30</ele>
        <time>2020-07-17T09:55:55Z</time>
      </trkpt>
      <trkpt lat="40.4287413508" lon="-5.7854142040">
        <ele>877.82</ele>
        <time>2020-07-17T09:55:56Z</time>
      </trkpt>
      <trkpt lat="40.4287918936" lon="-5.7854503300">
        <ele>877.34</ele>
        <time>2020-07-17T09:55:57Z</time>
      </trkpt>
      <trkpt lat="40.4288355634" lon="-5.7855144516">
        <ele>876.86</ele>
        <time>2020-07-17T09:55:58Z</time>
      </trkpt>
      <trkpt lat="40.4288689233" lon="-5.7855903078">
        <ele>876.38</ele>
        <time>2020-07-17T09:55:59Z</time>
      </trkpt>
      <trkpt lat="40.4288944881" lon="-5.7856817544">
        <ele>875.90</ele>
        <time>2020-07-17T09:56:00Z</time>
      </trkpt>
      <trkpt lat="40.4289110005" lon="-5.7857810799">
        <ele>875.42</ele>
        <time>2020-07-17T09:56:01Z</time>
      </trkpt>
      <trkpt lat="40.4289158620" lon="-5.7858871110">
        <ele>874.94</ele>
        <time>2020-07-17T09:56:02Z</time>
      </trkpt>
      <trkpt lat="40.4289147723" lon="-5.7859974168">
        <ele>873.98</ele>
        <time>2020-07-17T09:56:03Z</time>
      </trkpt>
      <trkpt lat="40.4288979247" lon="-5.7864376344">
        <ele>871.09</ele>
        <time>2020-07-17T09:56:07Z</time>
      </trkpt>
      <trkpt lat="40.4289090727" lon="-5.7865176816">
        <ele>870.13</ele>
        <time>2020-07-17T09:56:08Z</time>
      </trkpt>
      <trkpt lat="40.4289373197" lon="-5.7865846530">
        <ele>869.17</ele>
        <time>2020-07-17T09:56:09Z</time>
      </trkpt>
      <trkpt lat="40.4289823305" lon="-5.7866330165">
        <ele>868.69</ele>
        <time>2020-07-17T09:56:10Z</time>
      </trkpt>
      <trkpt lat="40.4290387407" lon="-5.7866554800">
        <ele>868.21</ele>
        <time>2020-07-17T09:56:11Z</time>
      </trkpt>
      <trkpt lat="40.4290960729" lon="-5.7866554800">
        <ele>867.73</ele>
        <time>2020-07-17T09:56:12Z</time>
      </trkpt>
      <trkpt lat="40.4291430116" lon="-5.7866400573">
        <ele>866.77</ele>
        <time>2020-07-17T09:56:13Z</time>
      </trkpt>
      <trkpt lat="40.4291862622" lon="-5.7866097149">
        <ele>866.29</ele>
        <time>2020-07-17T09:56:14Z</time>
      </trkpt>
      <trkpt lat="40.4292238969" lon="-5.7865632791">
        <ele>866.29</ele>
        <time>2020-07-17T09:56:15Z</time>
      </trkpt>
      <trkpt lat="40.4292487074" lon="-5.7865095511">
        <ele>865.80</ele>
        <time>2020-07-17T09:56:16Z</time>
      </trkpt>
      <trkpt lat="40.4292662255" lon="-5.7864500396">
        <ele>865.32</ele>
        <time>2020-07-17T09:56:17Z</time>
      </trkpt>
      <trkpt lat="40.4292793851" lon="-5.7863958925">
        <ele>864.84</ele>
        <time>2020-07-17T09:56:18Z</time>
      </trkpt>
      <trkpt lat="40.4293519724" lon="-5.7860435173">
        <ele>862.92</ele>
        <time>2020-07-17T09:56:24Z</time>
      </trkpt>
      <trkpt lat="40.4293773696" lon="-5.7859866042">
        <ele>862.92</ele>
        <time>2020-07-17T09:56:25Z</time>
      </trkpt>
      <trkpt lat="40.4294116516" lon="-5.7859266736">
        <ele>862.44</ele>
        <time>2020-07-17T09:56:26Z</time>
      </trkpt>
      <trkpt lat="40.4296977259" lon="-5.7855302095">
        <ele>860.04</ele>
        <time>2020-07-17T09:56:32Z</time>
      </trkpt>
      <trkpt lat="40.4300677031" lon="-5.7851062529">
        <ele>857.15</ele>
        <time>2020-07-17T09:56:39Z</time>
      </trkpt>
      <trkpt lat="40.4301315732" lon="-5.7850684505">
        <ele>856.67</ele>
        <time>2020-07-17T09:56:40Z</time>
      </trkpt>
      <trkpt lat="40.4301987961" lon="-5.7850466575">
        <ele>856.19</ele>
        <time>2020-07-17T09:56:41Z</time>
      </trkpt>
      <trkpt lat="40.4302692879" lon="-5.7850422151">
        <ele>855.71</ele>
        <time>2020-07-17T09:56:42Z</time>
      </trkpt>
      <trkpt lat="40.4303439707" lon="-5.7850531116">
        <ele>854.75</ele>
        <time>2020-07-17T09:56:43Z</time>
      </trkpt>
      <trkpt lat="40.4304041527" lon="-5.7850811910">
        <ele>854.27</ele>
        <time>2020-07-17T09:56:44Z</time>
      </trkpt>
      <trkpt lat="40.4304537736" lon="-5.7851274591">
        <ele>853.79</ele>
        <time>2020-07-17T09:56:45Z</time>
      </trkpt>
      <trkpt lat="40.4304992035" lon="-5.7852070034">
        <ele>853.31</ele>
        <time>2020-07-17T09:56:46Z</time>
      </trkpt>
      <trkpt lat="40.4305264447" lon="-5.7852901518">
        <ele>852.83</ele>
        <time>2020-07-17T09:56:47Z</time>
      </trkpt>
      <trkpt lat="40.4305542726" lon="-5.7853900641">
        <ele>852.35</ele>
        <time>2020-07-17T09:56:48Z</time>
      </trkpt>
      <trkpt lat="40.4307969287" lon="-5.7863093913">
        <ele>848.98</ele>
        <time>2020-07-17T09:56:57Z</time>
      </trkpt>
      <trkpt lat="40.4308615532" lon="-5.7864864171">
        <ele>848.50</ele>
        <time>2020-07-17T09:56:59Z</time>
      </trkpt>
      <trkpt lat="40.4309084918" lon="-5.7865626086">
        <ele>848.02</ele>
        <time>2020-07-17T09:57:00Z</time>
      </trkpt>
      <trkpt lat="40.4309642315" lon="-5.7866269816">
        <ele>847.54</ele>
        <time>2020-07-17T09:57:01Z</time>
      </trkpt>
      <trkpt lat="40.4310187139" lon="-5.7866753452">
        <ele>847.06</ele>
        <time>2020-07-17T09:57:02Z</time>
      </trkpt>
      <trkpt lat="40.4310748726" lon="-5.7867056038">
        <ele>846.58</ele>
        <time>2020-07-17T09:57:03Z</time>
      </trkpt>
      <trkpt lat="40.4311313666" lon="-5.7867114712">
        <ele>846.10</ele>
        <time>2020-07-17T09:57:04Z</time>
      </trkpt>
      <trkpt lat="40.4311834183" lon="-5.7866937853">
        <ele>846.10</ele>
        <time>2020-07-17T09:57:05Z</time>
      </trkpt>
      <trkpt lat="40.4312313627" lon="-5.7866584975">
        <ele>845.62</ele>
        <time>2020-07-17T09:57:06Z</time>
      </trkpt>
      <trkpt lat="40.4312733561" lon="-5.7866096310">
        <ele>845.62</ele>
        <time>2020-07-17T09:57:07Z</time>
      </trkpt>
      <trkpt lat="40.4313119967" lon="-5.7865577471">
        <ele>845.14</ele>
        <time>2020-07-17T09:57:08Z</time>
      </trkpt>
      <trkpt lat="40.4315178562" lon="-5.7862803899">
        <ele>844.18</ele>
        <time>2020-07-17T09:57:13Z</time>
      </trkpt>
      <trkpt lat="40.4315669741" lon="-5.7862384804">
        <ele>843.21</ele>
        <time>2020-07-17T09:57:14Z</time>
      </trkpt>
      <trkpt lat="40.4316210374" lon="-5.7862069644">
        <ele>842.73</ele>
        <time>2020-07-17T09:57:15Z</time>
      </trkpt>
      <trkpt lat="40.4316818062" lon="-5.7861821540">
        <ele>842.25</ele>
        <time>2020-07-17T09:57:16Z</time>
      </trkpt>
      <trkpt lat="40.4317419883" lon="-5.7861637138">
        <ele>841.77</ele>
        <time>2020-07-17T09:57:17Z</time>
      </trkpt>
      <trkpt lat="40.4323465750" lon="-5.7859569322">
        <ele>836.96</ele>
        <time>2020-07-17T09:57:26Z</time>
      </trkpt>
      <trkpt lat="40.4324915819" lon="-5.7859275118">
        <ele>836.00</ele>
        <time>2020-07-17T09:57:28Z</time>
      </trkpt>
      <trkpt lat="40.4325575475" lon="-5.7859385759">
        <ele>835.52</ele>
        <time>2020-07-17T09:57:29Z</time>
      </trkpt>
      <trkpt lat="40.4326245189" lon="-5.7859757077">
        <ele>835.04</ele>
        <time>2020-07-17T09:57:30Z</time>
      </trkpt>
      <trkpt lat="40.4326834437" lon="-5.7860311959">
        <ele>834.56</ele>
        <time>2020-07-17T09:57:31Z</time>
      </trkpt>
      <trkpt lat="40.4327398539" lon="-5.7860964909">
        <ele>834.08</ele>
        <time>2020-07-17T09:57:32Z</time>
      </trkpt>
      <trkpt lat="40.4328518361" lon="-5.7862440962">
        <ele>832.64</ele>
        <time>2020-07-17T09:57:34Z</time>
      </trkpt>
      <trkpt lat="40.4329506587" lon="-5.7864104770">
        <ele>831.20</ele>
        <time>2020-07-17T09:57:36Z</time>
      </trkpt>
      <trkpt lat="40.4329846054" lon="-5.7865031809">
        <ele>830.24</ele>
        <time>2020-07-17T09:57:37Z</time>
      </trkpt>
      <trkpt lat="40.4330004472" lon="-5.7866012491">
        <ele>829.76</ele>
        <time>2020-07-17T09:57:38Z</time>
      </trkpt>
      <trkpt lat="40.4330001958" lon="-5.7867056876">
        <ele>828.79</ele>
        <time>2020-07-17T09:57:39Z</time>
      </trkpt>
      <trkpt lat="40.4329840187" lon="-5.7868164126">
        <ele>828.31</ele>
        <time>2020-07-17T09:57:40Z</time>
      </trkpt>
      <trkpt lat="40.4329584539" lon="-5.7869201805">
        <ele>827.83</ele>
        <time>2020-07-17T09:57:41Z</time>
      </trkpt>
      <trkpt lat="40.4329306260" lon="-5.7870165724">
        <ele>827.35</ele>
        <time>2020-07-17T09:57:42Z</time>
      </trkpt>
      <trkpt lat="40.4328911472" lon="-5.7871731464">
        <ele>826.39</ele>
        <time>2020-07-17T09:57:44Z</time>
      </trkpt>
      <trkpt lat="40.4328891356" lon="-5.7872358430">
        <ele>825.91</ele>
        <time>2020-07-17T09:57:45Z</time>
      </trkpt>
      <trkpt lat="40.4329098389" lon="-5.7872936781">
        <ele>825.43</ele>
        <time>2020-07-17T09:57:46Z</time>
      </trkpt>
      <trkpt lat="40.4329535924" lon="-5.7873303071">
        <ele>824.95</ele>
        <time>2020-07-17T09:57:47Z</time>
      </trkpt>
      <trkpt lat="40.4330110922" lon="-5.7873420417">
        <ele>824.47</ele>
        <time>2020-07-17T09:57:48Z</time>
      </trkpt>
      <trkpt lat="40.4330744594" lon="-5.7873272058">
        <ele>823.99</ele>
        <time>2020-07-17T09:57:49Z</time>
      </trkpt>
      <trkpt lat="40.4331297800" lon="-5.7872877270">
        <ele>823.51</ele>
        <time>2020-07-17T09:57:50Z</time>
      </trkpt>
      <trkpt lat="40.4331794847" lon="-5.7872190792">
        <ele>823.03</ele>
        <time>2020-07-17T09:57:51Z</time>
      </trkpt>
      <trkpt lat="40.4332186282" lon="-5.7871455699">
        <ele>823.03</ele>
        <time>2020-07-17T09:57:52Z</time>
      </trkpt>
      <trkpt lat="40.4332525749" lon="-5.7870696299">
        <ele>822.55</ele>
        <time>2020-07-17T09:57:53Z</time>
      </trkpt>
      <trkpt lat="40.4332835041" lon="-5.7869860623">
        <ele>822.55</ele>
        <time>2020-07-17T09:57:54Z</time>
      </trkpt>
      <trkpt lat="40.4333089851" lon="-5.7869050931">
        <ele>822.55</ele>
        <time>2020-07-17T09:57:55Z</time>
      </trkpt>
      <trkpt lat="40.4333337117" lon="-5.7868246268">
        <ele>822.55</ele>
        <time>2020-07-17T09:57:56Z</time>
      </trkpt>
      <trkpt lat="40.4335113242" lon="-5.7863260712">
        <ele>821.58</ele>
        <time>2020-07-17T09:58:03Z</time>
      </trkpt>
      <trkpt lat="40.4337140825" lon="-5.7858734485">
        <ele>820.62</ele>
        <time>2020-07-17T09:58:10Z</time>
      </trkpt>
      <trkpt lat="40.4337277450" lon="-5.7858085725">
        <ele>820.14</ele>
        <time>2020-07-17T09:58:11Z</time>
      </trkpt>
      <trkpt lat="40.4337362107" lon="-5.7857421879">
        <ele>820.14</ele>
        <time>2020-07-17T09:58:12Z</time>
      </trkpt>
      <trkpt lat="40.4337561596" lon="-5.7855989411">
        <ele>819.66</ele>
        <time>2020-07-17T09:58:14Z</time>
      </trkpt>
      <trkpt lat="40.4337762762" lon="-5.7855312154">
        <ele>819.18</ele>
        <time>2020-07-17T09:58:15Z</time>
      </trkpt>
      <trkpt lat="40.4338119831" lon="-5.7854655851">
        <ele>818.70</ele>
        <time>2020-07-17T09:58:16Z</time>
      </trkpt>
      <trkpt lat="40.4338583350" lon="-5.7854101807">
        <ele>818.70</ele>
        <time>2020-07-17T09:58:17Z</time>
      </trkpt>
      <trkpt lat="40.4339114763" lon="-5.7853541058">
        <ele>818.22</ele>
        <time>2020-07-17T09:58:18Z</time>
      </trkpt>
      <trkpt lat="40.4342046753" lon="-5.7850536983">
        <ele>815.82</ele>
        <time>2020-07-17T09:58:23Z</time>
      </trkpt>
      <trkpt lat="40.4342476744" lon="-5.7849820331">
        <ele>815.34</ele>
        <time>2020-07-17T09:58:24Z</time>
      </trkpt>
      <trkpt lat="40.4342820402" lon="-5.7849034946">
        <ele>815.34</ele>
        <time>2020-07-17T09:58:25Z</time>
      </trkpt>
      <trkpt lat="40.4343056772" lon="-5.7848255429">
        <ele>815.34</ele>
        <time>2020-07-17T09:58:26Z</time>
      </trkpt>
      <trkpt lat="40.4343247879" lon="-5.7847394608">
        <ele>814.85</ele>
        <time>2020-07-17T09:58:27Z</time>
      </trkpt>
      <trkpt lat="40.4344091099" lon="-5.7843195274">
        <ele>814.37</ele>
        <time>2020-07-17T09:58:32Z</time>
      </trkpt>
      <trkpt lat="40.4344356805" lon="-5.7842462696">
        <ele>814.37</ele>
        <time>2020-07-17T09:58:33Z</time>
      </trkpt>
      <trkpt lat="40.4344731476" lon="-5.7841874287">
        <ele>813.89</ele>
        <time>2020-07-17T09:58:34Z</time>
      </trkpt>
      <trkpt lat="40.4345205054" lon="-5.7841373887">
        <ele>813.41</ele>
        <time>2020-07-17T09:58:35Z</time>
      </trkpt>
      <trkpt lat="40.4345772509" lon="-5.7840918750">
        <ele>812.93</ele>
        <time>2020-07-17T09:58:36Z</time>
      </trkpt>
      <trkpt lat="40.4346442223" lon="-5.7840452716">
        <ele>812.45</ele>
        <time>2020-07-17T09:58:37Z</time>
      </trkpt>
      <trkpt lat="40.4349416960" lon="-5.7838658988">
        <ele>810.05</ele>
        <time>2020-07-17T09:58:41Z</time>
      </trkpt>
      <trkpt lat="40.4350260179" lon="-5.7838390768">
        <ele>810.05</ele>
        <time>2020-07-17T09:58:42Z</time>
      </trkpt>
      <trkpt lat="40.4351134412" lon="-5.7838282641">
        <ele>809.57</ele>
        <time>2020-07-17T09:58:43Z</time>
      </trkpt>
      <trkpt lat="40.4351909738" lon="-5.7838336285">
        <ele>809.57</ele>
        <time>2020-07-17T09:58:44Z</time>
      </trkpt>
      <trkpt lat="40.4352696799" lon="-5.7838442735">
        <ele>809.09</ele>
        <time>2020-07-17T09:58:45Z</time>
      </trkpt>
      <trkpt lat="40.4353467934" lon="-5.7838452794">
        <ele>809.09</ele>
        <time>2020-07-17T09:58:46Z</time>
      </trkpt>
      <trkpt lat="40.4354141839" lon="-5.7838333771">
        <ele>809.09</ele>
        <time>2020-07-17T09:58:47Z</time>
      </trkpt>
      <trkpt lat="40.4354794789" lon="-5.7838089857">
        <ele>809.57</ele>
        <time>2020-07-17T09:58:48Z</time>
      </trkpt>
      <trkpt lat="40.4355395772" lon="-5.7837729435">
        <ele>809.57</ele>
        <time>2020-07-17T09:58:49Z</time>
      </trkpt>
      <trkpt lat="40.4355886113" lon="-5.7837314531">
        <ele>809.57</ele>
        <time>2020-07-17T09:58:50Z</time>
      </trkpt>
      <trkpt lat="40.4356349632" lon="-5.7836841792">
        <ele>809.57</ele>
        <time>2020-07-17T09:58:51Z</time>
      </trkpt>
      <trkpt lat="40.4356770404" lon="-5.7836330496">
        <ele>809.57</ele>
        <time>2020-07-17T09:58:52Z</time>
      </trkpt>
      <trkpt lat="40.4357123282" lon="-5.7835842669">
        <ele>809.57</ele>
        <time>2020-07-17T09:58:53Z</time>
      </trkpt>
      <trkpt lat="40.4357487895" lon="-5.7835262641">
        <ele>809.57</ele>
        <time>2020-07-17T09:58:54Z</time>
      </trkpt>
      <trkpt lat="40.4357803892" lon="-5.7834721170">
        <ele>809.57</ele>
        <time>2020-07-17T09:58:55Z</time>
      </trkpt>
      <trkpt lat="40.4358174372" lon="-5.7834143657">
        <ele>809.09</ele>
        <time>2020-07-17T09:58:56Z</time>
      </trkpt>
      <trkpt lat="40.4358587600" lon="-5.7833574526">
        <ele>809.09</ele>
        <time>2020-07-17T09:58:57Z</time>
      </trkpt>
      <trkpt lat="40.4359072074" lon="-5.7833037246">
        <ele>808.61</ele>
        <time>2020-07-17T09:58:58Z</time>
      </trkpt>
      <trkpt lat="40.4359615222" lon="-5.7832541876">
        <ele>808.61</ele>
        <time>2020-07-17T09:58:59Z</time>
      </trkpt>
      <trkpt lat="40.4364241194" lon="-5.7828918379">
        <ele>807.64</ele>
        <time>2020-07-17T09:59:07Z</time>
      </trkpt>
      <trkpt lat="40.4366501793" lon="-5.7827162370">
        <ele>806.68</ele>
        <time>2020-07-17T09:59:11Z</time>
      </trkpt>
      <trkpt lat="40.4367125407" lon="-5.7826865651">
        <ele>806.20</ele>
        <time>2020-07-17T09:59:12Z</time>
      </trkpt>
      <trkpt lat="40.4372012056" lon="-5.7825865690">
        <ele>804.76</ele>
        <time>2020-07-17T09:59:19Z</time>
      </trkpt>
      <trkpt lat="40.4373360705" lon="-5.7825581543">
        <ele>804.76</ele>
        <time>2020-07-17T09:59:21Z</time>
      </trkpt>
      <trkpt lat="40.4373988509" lon="-5.7825295720">
        <ele>804.76</ele>
        <time>2020-07-17T09:59:22Z</time>
      </trkpt>
      <trkpt lat="40.4377941415" lon="-5.7822131552">
        <ele>803.32</ele>
        <time>2020-07-17T09:59:29Z</time>
      </trkpt>
      <trkpt lat="40.4378398228" lon="-5.7821596786">
        <ele>803.32</ele>
        <time>2020-07-17T09:59:30Z</time>
      </trkpt>
      <trkpt lat="40.4380156752" lon="-5.7819382288">
        <ele>802.84</ele>
        <time>2020-07-17T09:59:34Z</time>
      </trkpt>
      <trkpt lat="40.4383524600" lon="-5.7813786529">
        <ele>801.40</ele>
        <time>2020-07-17T09:59:44Z</time>
      </trkpt>
      <trkpt lat="40.4386844672" lon="-5.7808062527">
        <ele>801.40</ele>
        <time>2020-07-17T09:59:55Z</time>
      </trkpt>
      <trkpt lat="40.4389809351" lon="-5.7803009078">
        <ele>801.88</ele>
        <time>2020-07-17T10:00:05Z</time>
      </trkpt>
      <trkpt lat="40.4391809274" lon="-5.7800466847">
        <ele>802.36</ele>
        <time>2020-07-17T10:00:12Z</time>
      </trkpt>
      <trkpt lat="40.4394861124" lon="-5.7798124943">
        <ele>801.88</ele>
        <time>2020-07-17T10:00:20Z</time>
      </trkpt>
      <trkpt lat="40.4399420880" lon="-5.7794859353">
        <ele>801.40</ele>
        <time>2020-07-17T10:00:31Z</time>
      </trkpt>
      <trkpt lat="40.4402937088" lon="-5.7793571055">
        <ele>801.40</ele>
        <time>2020-07-17T10:00:39Z</time>
      </trkpt>
      <trkpt lat="40.4405774362" lon="-5.7793284394">
        <ele>799.95</ele>
        <time>2020-07-17T10:00:45Z</time>
      </trkpt>
      <trkpt lat="40.4409902450" lon="-5.7792538404">
        <ele>799.95</ele>
        <time>2020-07-17T10:00:54Z</time>
      </trkpt>
      <trkpt lat="40.4413747229" lon="-5.7792004477">
        <ele>801.88</ele>
        <time>2020-07-17T10:01:03Z</time>
      </trkpt>
      <trkpt lat="40.4417771380" lon="-5.7792079914">
        <ele>801.88</ele>
        <time>2020-07-17T10:01:12Z</time>
      </trkpt>
      <trkpt lat="40.4422575887" lon="-5.7792250905">
        <ele>801.88</ele>
        <time>2020-07-17T10:01:22Z</time>
      </trkpt>
      <trkpt lat="40.4426862393" lon="-5.7792478893">
        <ele>801.40</ele>
        <time>2020-07-17T10:01:31Z</time>
      </trkpt>
      <trkpt lat="40.4428238701" lon="-5.7792590372">
        <ele>800.44</ele>
        <time>2020-07-17T10:01:34Z</time>
      </trkpt>
      <trkpt lat="40.4431833699" lon="-5.7792787347">
        <ele>799.95</ele>
        <time>2020-07-17T10:01:42Z</time>
      </trkpt>
      <trkpt lat="40.4436595459" lon="-5.7793264277">
        <ele>800.44</ele>
        <time>2020-07-17T10:01:53Z</time>
      </trkpt>
      <trkpt lat="40.4439244140" lon="-5.7793467958">
        <ele>800.44</ele>
        <time>2020-07-17T10:01:59Z</time>
      </trkpt>
      <trkpt lat="40.4443745222" lon="-5.7793835085">
        <ele>800.44</ele>
        <time>2020-07-17T10:02:09Z</time>
      </trkpt>
      <trkpt lat="40.4448168352" lon="-5.7794248313">
        <ele>800.44</ele>
        <time>2020-07-17T10:02:19Z</time>
      </trkpt>
      <trkpt lat="40.4451899976" lon="-5.7794626337">
        <ele>800.92</ele>
        <time>2020-07-17T10:02:28Z</time>
      </trkpt>
      <trkpt lat="40.4455367569" lon="-5.7795006037">
        <ele>799.95</ele>
        <time>2020-07-17T10:02:36Z</time>
      </trkpt>
      <trkpt lat="40.4459025431" lon="-5.7795439381">
        <ele>799.47</ele>
        <time>2020-07-17T10:02:44Z</time>
      </trkpt>
      <trkpt lat="40.4463248234" lon="-5.7795868535">
        <ele>798.99</ele>
        <time>2020-07-17T10:02:53Z</time>
      </trkpt>
      <trkpt lat="40.4467272386" lon="-5.7796342950">
        <ele>799.47</ele>
        <time>2020-07-17T10:03:02Z</time>
      </trkpt>
      <trkpt lat="40.4470963776" lon="-5.7796800602">
        <ele>799.47</ele>
        <time>2020-07-17T10:03:10Z</time>
      </trkpt>
      <trkpt lat="40.4475202505" lon="-5.7797245681">
        <ele>799.95</ele>
        <time>2020-07-17T10:03:20Z</time>
      </trkpt>
      <trkpt lat="40.4477474838" lon="-5.7797542401">
        <ele>799.47</ele>
        <time>2020-07-17T10:03:25Z</time>
      </trkpt>
      <trkpt lat="40.4480473045" lon="-5.7797832415">
        <ele>799.47</ele>
        <time>2020-07-17T10:03:33Z</time>
      </trkpt>
      <trkpt lat="40.4480574466" lon="-5.7797889411">
        <ele>798.99</ele>
        <time>2020-07-17T10:03:37Z</time>
      </trkpt>
      <trkpt lat="40.4480542615" lon="-5.7797997538">
        <ele>798.03</ele>
        <time>2020-07-17T10:03:51Z</time>
      </trkpt>
      <trkpt lat="40.4480653256" lon="-5.7798005920">
        <ele>798.99</ele>
        <time>2020-07-17T10:04:01Z</time>
      </trkpt>
      <trkpt lat="40.4480783176" lon="-5.7798129134">
        <ele>798.51</ele>
        <time>2020-07-17T10:04:18Z</time>
      </trkpt>
      <trkpt lat="40.4480768088" lon="-5.7798009273">
        <ele>797.55</ele>
        <time>2020-07-17T10:04:39Z</time>
      </trkpt>
      <trkpt lat="40.4480805807" lon="-5.7798068784">
        <ele>797.55</ele>
        <time>2020-07-17T10:04:58Z</time>
      </trkpt>
      <trkpt lat="40.4480711091" lon="-5.7798132487">
        <ele>798.51</ele>
        <time>2020-07-17T10:05:13Z</time>
      </trkpt>
      <trkpt lat="40.4480707739" lon="-5.7798036095">
        <ele>798.51</ele>
        <time>2020-07-17T10:05:37Z</time>
      </trkpt>
      <trkpt lat="40.4480726179" lon="-5.7798019331">
        <ele>798.51</ele>
        <time>2020-07-17T10:05:53Z</time>
      </trkpt>
      <trkpt lat="40.4480744619" lon="-5.7797943056">
        <ele>797.55</ele>
        <time>2020-07-17T10:06:10Z</time>
      </trkpt>
      <trkpt lat="40.4480674211" lon="-5.7797888573">
        <ele>797.55</ele>
        <time>2020-07-17T10:06:27Z</time>
      </trkpt>
      <trkpt lat="40.4480613861" lon="-5.7797974907">
        <ele>799.47</ele>
        <time>2020-07-17T10:06:49Z</time>
      </trkpt>
      <trkpt lat="40.4480671696" lon="-5.7797956467">
        <ele>798.51</ele>
        <time>2020-07-17T10:07:10Z</time>
      </trkpt>
      <trkpt lat="40.4480753839" lon="-5.7798069622">
        <ele>798.03</ele>
        <time>2020-07-17T10:07:23Z</time>
      </trkpt>
      <trkpt lat="40.4480690137" lon="-5.7798031066">
        <ele>799.47</ele>
        <time>2020-07-17T10:07:43Z</time>
      </trkpt>
      <trkpt lat="40.4480585363" lon="-5.7798003405">
        <ele>798.99</ele>
        <time>2020-07-17T10:08:10Z</time>
      </trkpt>
      <trkpt lat="40.4480572790" lon="-5.7798280008">
        <ele>798.99</ele>
        <time>2020-07-17T10:08:30Z</time>
      </trkpt>
      <trkpt lat="40.4480430298" lon="-5.7798410766">
        <ele>800.44</ele>
        <time>2020-07-17T10:08:51Z</time>
      </trkpt>
      <trkpt lat="40.4480451252" lon="-5.7798185293">
        <ele>801.40</ele>
        <time>2020-07-17T10:09:08Z</time>
      </trkpt>
      <trkpt lat="40.4480507411" lon="-5.7798090577">
        <ele>801.40</ele>
        <time>2020-07-17T10:09:19Z</time>
      </trkpt>
      <trkpt lat="40.4480542615" lon="-5.7798145059">
        <ele>800.92</ele>
        <time>2020-07-17T10:09:42Z</time>
      </trkpt>
      <trkpt lat="40.4480419401" lon="-5.7798208762">
        <ele>799.95</ele>
        <time>2020-07-17T10:10:05Z</time>
      </trkpt>
      <trkpt lat="40.4480528366" lon="-5.7798177749">
        <ele>799.95</ele>
        <time>2020-07-17T10:10:20Z</time>
      </trkpt>
      <trkpt lat="40.4480436165" lon="-5.7798241451">
        <ele>800.44</ele>
        <time>2020-07-17T10:10:39Z</time>
      </trkpt>
      <trkpt lat="40.4480564408" lon="-5.7798268273">
        <ele>799.47</ele>
        <time>2020-07-17T10:10:58Z</time>
      </trkpt>
      <trkpt lat="40.4480618890" lon="-5.7798161823">
        <ele>799.47</ele>
        <time>2020-07-17T10:11:17Z</time>
      </trkpt>
      <trkpt lat="40.4480676726" lon="-5.7798126619">
        <ele>799.47</ele>
        <time>2020-07-17T10:11:33Z</time>
      </trkpt>
      <trkpt lat="40.4480639845" lon="-5.7798146736">
        <ele>800.44</ele>
        <time>2020-07-17T10:11:47Z</time>
      </trkpt>
      <trkpt lat="40.4480699357" lon="-5.7798063755">
        <ele>800.44</ele>
        <time>2020-07-17T10:11:53Z</time>
      </trkpt>
      <trkpt lat="40.4480752163" lon="-5.7797936350">
        <ele>799.47</ele>
        <time>2020-07-17T10:12:08Z</time>
      </trkpt>
      <trkpt lat="40.4480734561" lon="-5.7798053697">
        <ele>799.47</ele>
        <time>2020-07-17T10:12:24Z</time>
      </trkpt>
      <trkpt lat="40.4481438641" lon="-5.7798137516">
        <ele>798.99</ele>
        <time>2020-07-17T10:12:30Z</time>
      </trkpt>
      <trkpt lat="40.4483342171" lon="-5.7798334491">
        <ele>798.99</ele>
        <time>2020-07-17T10:12:37Z</time>
      </trkpt>
      <trkpt lat="40.4486645479" lon="-5.7798393164">
        <ele>798.51</ele>
        <time>2020-07-17T10:12:46Z</time>
      </trkpt>
      <trkpt lat="40.4489806294" lon="-5.7797351293">
        <ele>798.99</ele>
        <time>2020-07-17T10:12:54Z</time>
      </trkpt>
      <trkpt lat="40.4494506028" lon="-5.7795361429">
        <ele>798.51</ele>
        <time>2020-07-17T10:13:06Z</time>
      </trkpt>
      <trkpt lat="40.4495258722" lon="-5.7794987597">
        <ele>798.51</ele>
        <time>2020-07-17T10:13:08Z</time>
      </trkpt>
      <trkpt lat="40.4498788342" lon="-5.7793469634">
        <ele>798.03</ele>
        <time>2020-07-17T10:13:17Z</time>
      </trkpt>
      <trkpt lat="40.4502074048" lon="-5.7791522518">
        <ele>797.55</ele>
        <time>2020-07-17T10:13:26Z</time>
      </trkpt>
      <trkpt lat="40.4504293576" lon="-5.7790095918">
        <ele>797.07</ele>
        <time>2020-07-17T10:13:32Z</time>
      </trkpt>
      <trkpt lat="40.4504662380" lon="-5.7789867092">
        <ele>797.07</ele>
        <time>2020-07-17T10:13:33Z</time>
      </trkpt>
      <trkpt lat="40.4505023640" lon="-5.7789636590">
        <ele>797.07</ele>
        <time>2020-07-17T10:13:34Z</time>
      </trkpt>
      <trkpt lat="40.4508785438" lon="-5.7787221763">
        <ele>796.59</ele>
        <time>2020-07-17T10:13:44Z</time>
      </trkpt>
      <trkpt lat="40.4510651249" lon="-5.7786013093">
        <ele>796.59</ele>
        <time>2020-07-17T10:13:49Z</time>
      </trkpt>
      <trkpt lat="40.4511025082" lon="-5.7785770856">
        <ele>796.59</ele>
        <time>2020-07-17T10:13:50Z</time>
      </trkpt>
      <trkpt lat="40.4511392210" lon="-5.7785566337">
        <ele>796.59</ele>
        <time>2020-07-17T10:13:51Z</time>
      </trkpt>
      <trkpt lat="40.4511777777" lon="-5.7785333320">
        <ele>796.59</ele>
        <time>2020-07-17T10:13:52Z</time>
      </trkpt>
      <trkpt lat="40.4512149096" lon="-5.7785109524">
        <ele>796.59</ele>
        <time>2020-07-17T10:13:53Z</time>
      </trkpt>
      <trkpt lat="40.4512533825" lon="-5.7784856390">
        <ele>796.59</ele>
        <time>2020-07-17T10:13:54Z</time>
      </trkpt>
      <trkpt lat="40.4515802767" lon="-5.7782818750">
        <ele>797.07</ele>
        <time>2020-07-17T10:14:03Z</time>
      </trkpt>
      <trkpt lat="40.4519311432" lon="-5.7780560665">
        <ele>797.55</ele>
        <time>2020-07-17T10:14:13Z</time>
      </trkpt>
      <trkpt lat="40.4523165431" lon="-5.7777704950">
        <ele>797.55</ele>
        <time>2020-07-17T10:14:24Z</time>
      </trkpt>
      <trkpt lat="40.4526245780" lon="-5.7775332872">
        <ele>797.55</ele>
        <time>2020-07-17T10:14:33Z</time>
      </trkpt>
      <trkpt lat="40.4529506341" lon="-5.7772674970">
        <ele>797.55</ele>
        <time>2020-07-17T10:14:43Z</time>
      </trkpt>
      <trkpt lat="40.4533269815" lon="-5.7769731246">
        <ele>797.55</ele>
        <time>2020-07-17T10:14:54Z</time>
      </trkpt>
      <trkpt lat="40.4537226912" lon="-5.7766619883">
        <ele>797.55</ele>
        <time>2020-07-17T10:15:05Z</time>
      </trkpt>
      <trkpt lat="40.4540358391" lon="-5.7764238585">
        <ele>796.59</ele>
        <time>2020-07-17T10:15:14Z</time>
      </trkpt>
      <trkpt lat="40.4543054011" lon="-5.7762100361">
        <ele>796.59</ele>
        <time>2020-07-17T10:15:22Z</time>
      </trkpt>
      <trkpt lat="40.4546237458" lon="-5.7759684697">
        <ele>796.11</ele>
        <time>2020-07-17T10:15:31Z</time>
      </trkpt>
      <trkpt lat="40.4549204651" lon="-5.7757317647">
        <ele>796.11</ele>
        <time>2020-07-17T10:15:40Z</time>
      </trkpt>
      <trkpt lat="40.4553134926" lon="-5.7754233107">
        <ele>796.59</ele>
        <time>2020-07-17T10:15:52Z</time>
      </trkpt>
      <trkpt lat="40.4557081964" lon="-5.7751589455">
        <ele>796.11</ele>
        <time>2020-07-17T10:16:03Z</time>
      </trkpt>
      <trkpt lat="40.4560824484" lon="-5.7749006152">
        <ele>796.59</ele>
        <time>2020-07-17T10:16:14Z</time>
      </trkpt>
      <trkpt lat="40.4563536867" lon="-5.7747156266">
        <ele>797.55</ele>
        <time>2020-07-17T10:16:22Z</time>
      </trkpt>
      <trkpt lat="40.4566751327" lon="-5.7744994573">
        <ele>796.59</ele>
        <time>2020-07-17T10:16:31Z</time>
      </trkpt>
      <trkpt lat="40.4570547491" lon="-5.7742402889">
        <ele>797.07</ele>
        <time>2020-07-17T10:16:41Z</time>
      </trkpt>
      <trkpt lat="40.4573766980" lon="-5.7740232814">
        <ele>797.55</ele>
        <time>2020-07-17T10:16:50Z</time>
      </trkpt>
      <trkpt lat="40.4578244593" lon="-5.7737163361">
        <ele>797.07</ele>
        <time>2020-07-17T10:17:02Z</time>
      </trkpt>
      <trkpt lat="40.4582009744" lon="-5.7734593470">
        <ele>796.59</ele>
        <time>2020-07-17T10:17:12Z</time>
      </trkpt>
      <trkpt lat="40.4585419502" lon="-5.7732345443">
        <ele>797.55</ele>
        <time>2020-07-17T10:17:21Z</time>
      </trkpt>
      <trkpt lat="40.4587665014" lon="-5.7731114980">
        <ele>798.51</ele>
        <time>2020-07-17T10:17:28Z</time>
      </trkpt>
      <trkpt lat="40.4590345547" lon="-5.7729891222">
        <ele>798.51</ele>
        <time>2020-07-17T10:17:36Z</time>
      </trkpt>
      <trkpt lat="40.4593991674" lon="-5.7728125993">
        <ele>796.59</ele>
        <time>2020-07-17T10:17:43Z</time>
      </trkpt>
      <trkpt lat="40.4599891696" lon="-5.7725349907">
        <ele>793.71</ele>
        <time>2020-07-17T10:17:52Z</time>
      </trkpt>
      <trkpt lat="40.4605385195" lon="-5.7722738944">
        <ele>793.22</ele>
        <time>2020-07-17T10:18:00Z</time>
      </trkpt>
      <trkpt lat="40.4609116819" lon="-5.7721008919">
        <ele>792.74</ele>
        <time>2020-07-17T10:18:07Z</time>
      </trkpt>
      <trkpt lat="40.4612768814" lon="-5.7719148975">
        <ele>792.74</ele>
        <time>2020-07-17T10:18:16Z</time>
      </trkpt>
      <trkpt lat="40.4614998400" lon="-5.7718459144">
        <ele>792.74</ele>
        <time>2020-07-17T10:18:22Z</time>
      </trkpt>
      <trkpt lat="40.4615400732" lon="-5.7718281448">
        <ele>793.22</ele>
        <time>2020-07-17T10:18:23Z</time>
      </trkpt>
      <trkpt lat="40.4616632871" lon="-5.7717755903">
        <ele>792.74</ele>
        <time>2020-07-17T10:18:26Z</time>
      </trkpt>
      <trkpt lat="40.4617045261" lon="-5.7717661187">
        <ele>793.22</ele>
        <time>2020-07-17T10:18:27Z</time>
      </trkpt>
      <trkpt lat="40.4617523029" lon="-5.7717605028">
        <ele>793.22</ele>
        <time>2020-07-17T10:18:28Z</time>
      </trkpt>
      <trkpt lat="40.4617966432" lon="-5.7717610896">
        <ele>792.74</ele>
        <time>2020-07-17T10:18:29Z</time>
      </trkpt>
      <trkpt lat="40.4618463479" lon="-5.7717713155">
        <ele>792.74</ele>
        <time>2020-07-17T10:18:30Z</time>
      </trkpt>
      <trkpt lat="40.4618931189" lon="-5.7717833016">
        <ele>792.74</ele>
        <time>2020-07-17T10:18:31Z</time>
      </trkpt>
      <trkpt lat="40.4619374592" lon="-5.7717927732">
        <ele>792.74</ele>
        <time>2020-07-17T10:18:32Z</time>
      </trkpt>
      <trkpt lat="40.4619797878" lon="-5.7718054298">
        <ele>792.74</ele>
        <time>2020-07-17T10:18:33Z</time>
      </trkpt>
      <trkpt lat="40.4624234419" lon="-5.7719101198">
        <ele>791.78</ele>
        <time>2020-07-17T10:18:43Z</time>
      </trkpt>
      <trkpt lat="40.4627783317" lon="-5.7719816174">
        <ele>793.71</ele>
        <time>2020-07-17T10:18:52Z</time>
      </trkpt>
      <trkpt lat="40.4629541002" lon="-5.7720840443">
        <ele>794.67</ele>
        <time>2020-07-17T10:18:59Z</time>
      </trkpt>
      <trkpt lat="40.4630259331" lon="-5.7721563801">
        <ele>794.67</ele>
        <time>2020-07-17T10:19:04Z</time>
      </trkpt>
      <trkpt lat="40.4630369134" lon="-5.7721863873">
        <ele>795.15</ele>
        <time>2020-07-17T10:19:05Z</time>
      </trkpt>
      <trkpt lat="40.4630924016" lon="-5.7724645827">
        <ele>795.15</ele>
        <time>2020-07-17T10:19:13Z</time>
      </trkpt>
      <trkpt lat="40.4631986842" lon="-5.7725532632">
        <ele>796.59</ele>
        <time>2020-07-17T10:19:17Z</time>
      </trkpt>
      <trkpt lat="40.4633816611" lon="-5.7725980226">
        <ele>797.07</ele>
        <time>2020-07-17T10:19:24Z</time>
      </trkpt>
      <trkpt lat="40.4634041246" lon="-5.7725858688">
        <ele>797.55</ele>
        <time>2020-07-17T10:19:29Z</time>
      </trkpt>
      <trkpt lat="40.4633931443" lon="-5.7726141158">
        <ele>799.95</ele>
        <time>2020-07-17T10:19:53Z</time>
      </trkpt>
      <trkpt lat="40.4634018615" lon="-5.7725994475">
        <ele>800.92</ele>
        <time>2020-07-17T10:20:12Z</time>
      </trkpt>
      <trkpt lat="40.4634068068" lon="-5.7725948375">
        <ele>800.44</ele>
        <time>2020-07-17T10:20:32Z</time>
      </trkpt>
      <trkpt lat="40.4633923061" lon="-5.7726177201">
        <ele>799.95</ele>
        <time>2020-07-17T10:20:49Z</time>
      </trkpt>
      <trkpt lat="40.4634161945" lon="-5.7726201508">
        <ele>799.95</ele>
        <time>2020-07-17T10:21:03Z</time>
      </trkpt>
      <trkpt lat="40.4635569267" lon="-5.7725854497">
        <ele>798.99</ele>
        <time>2020-07-17T10:21:09Z</time>
      </trkpt>
      <trkpt lat="40.4638311826" lon="-5.7725248486">
        <ele>798.51</ele>
        <time>2020-07-17T10:21:18Z</time>
      </trkpt>
      <trkpt lat="40.4640812147" lon="-5.7724783290">
        <ele>797.55</ele>
        <time>2020-07-17T10:21:26Z</time>
      </trkpt>
      <trkpt lat="40.4643838853" lon="-5.7723593898">
        <ele>798.51</ele>
        <time>2020-07-17T10:21:35Z</time>
      </trkpt>
      <trkpt lat="40.4646846280" lon="-5.7721702103">
        <ele>798.51</ele>
        <time>2020-07-17T10:21:44Z</time>
      </trkpt>
      <trkpt lat="40.4649670143" lon="-5.7721084356">
        <ele>798.51</ele>
        <time>2020-07-17T10:21:52Z</time>
      </trkpt>
      <trkpt lat="40.4651651625" lon="-5.7722738944">
        <ele>798.51</ele>
        <time>2020-07-17T10:21:58Z</time>
      </trkpt>
      <trkpt lat="40.4654708505" lon="-5.7726532593">
        <ele>797.07</ele>
        <time>2020-07-17T10:22:07Z</time>
      </trkpt>
      <trkpt lat="40.4657895304" lon="-5.7730581891">
        <ele>795.63</ele>
        <time>2020-07-17T10:22:16Z</time>
      </trkpt>
      <trkpt lat="40.4660921171" lon="-5.7734237239">
        <ele>794.67</ele>
        <time>2020-07-17T10:22:24Z</time>
      </trkpt>
      <trkpt lat="40.4663771018" lon="-5.7737539709">
        <ele>794.19</ele>
        <time>2020-07-17T10:22:32Z</time>
      </trkpt>
      <trkpt lat="40.4664126411" lon="-5.7737925276">
        <ele>794.19</ele>
        <time>2020-07-17T10:22:33Z</time>
      </trkpt>
      <trkpt lat="40.4664509464" lon="-5.7738330122">
        <ele>794.19</ele>
        <time>2020-07-17T10:22:34Z</time>
      </trkpt>
      <trkpt lat="40.4668297246" lon="-5.7741900813">
        <ele>792.74</ele>
        <time>2020-07-17T10:22:43Z</time>
      </trkpt>
      <trkpt lat="40.4673685972" lon="-5.7745728828">
        <ele>791.30</ele>
        <time>2020-07-17T10:22:53Z</time>
      </trkpt>
      <trkpt lat="40.4677129257" lon="-5.7748260163">
        <ele>791.30</ele>
        <time>2020-07-17T10:23:00Z</time>
      </trkpt>
      <trkpt lat="40.4680981580" lon="-5.7751659025">
        <ele>790.34</ele>
        <time>2020-07-17T10:23:09Z</time>
      </trkpt>
      <trkpt lat="40.4681473598" lon="-5.7751888689">
        <ele>790.34</ele>
        <time>2020-07-17T10:23:10Z</time>
      </trkpt>
      <trkpt lat="40.4685584083" lon="-5.7752874400">
        <ele>789.86</ele>
        <time>2020-07-17T10:23:18Z</time>
      </trkpt>
      <trkpt lat="40.4690808523" lon="-5.7754124980">
        <ele>787.94</ele>
        <time>2020-07-17T10:23:27Z</time>
      </trkpt>
      <trkpt lat="40.4694558587" lon="-5.7755020168">
        <ele>788.90</ele>
        <time>2020-07-17T10:23:35Z</time>
      </trkpt>
      <trkpt lat="40.4697535839" lon="-5.7755792979">
        <ele>790.82</ele>
        <time>2020-07-17T10:23:44Z</time>
      </trkpt>
      <trkpt lat="40.4699661490" lon="-5.7756910287">
        <ele>793.22</ele>
        <time>2020-07-17T10:23:52Z</time>
      </trkpt>
      <trkpt lat="40.4702327773" lon="-5.7760000695">
        <ele>795.15</ele>
        <time>2020-07-17T10:24:04Z</time>
      </trkpt>
      <trkpt lat="40.4704442527" lon="-5.7762541249">
        <ele>794.67</ele>
        <time>2020-07-17T10:24:13Z</time>
      </trkpt>
      <trkpt lat="40.4707672074" lon="-5.7765084319">
        <ele>794.67</ele>
        <time>2020-07-17T10:24:23Z</time>
      </trkpt>
      <trkpt lat="40.4708449915" lon="-5.7765494194">
        <ele>794.67</ele>
        <time>2020-07-17T10:24:25Z</time>
      </trkpt>
      <trkpt lat="40.4712189920" lon="-5.7767438795">
        <ele>794.67</ele>
        <time>2020-07-17T10:24:35Z</time>
      </trkpt>
      <trkpt lat="40.4716444574" lon="-5.7769505773">
        <ele>792.26</ele>
        <time>2020-07-17T10:24:44Z</time>
      </trkpt>
      <trkpt lat="40.4721116647" lon="-5.7771721110">
        <ele>790.34</ele>
        <time>2020-07-17T10:24:52Z</time>
      </trkpt>
      <trkpt lat="40.4724478628" lon="-5.7772386633">
        <ele>789.86</ele>
        <time>2020-07-17T10:24:58Z</time>
      </trkpt>
      <trkpt lat="40.4727254715" lon="-5.7772009447">
        <ele>791.30</ele>
        <time>2020-07-17T10:25:05Z</time>
      </trkpt>
      <trkpt lat="40.4730659444" lon="-5.7771625556">
        <ele>793.71</ele>
        <time>2020-07-17T10:25:15Z</time>
      </trkpt>
      <trkpt lat="40.4734328203" lon="-5.7771337219">
        <ele>795.63</ele>
        <time>2020-07-17T10:25:26Z</time>
      </trkpt>
      <trkpt lat="40.4737695213" lon="-5.7771285251">
        <ele>795.15</ele>
        <time>2020-07-17T10:25:36Z</time>
      </trkpt>
      <trkpt lat="40.4741429351" lon="-5.7771244179">
        <ele>793.71</ele>
        <time>2020-07-17T10:25:46Z</time>
      </trkpt>
      <trkpt lat="40.4745424166" lon="-5.7771208975">
        <ele>793.71</ele>
        <time>2020-07-17T10:25:55Z</time>
      </trkpt>
      <trkpt lat="40.4749864899" lon="-5.7771399245">
        <ele>793.22</ele>
        <time>2020-07-17T10:26:04Z</time>
      </trkpt>
      <trkpt lat="40.4754626658" lon="-5.7772371545">
        <ele>791.30</ele>
        <time>2020-07-17T10:26:14Z</time>
      </trkpt>
      <trkpt lat="40.4759547673" lon="-5.7773589436">
        <ele>791.78</ele>
        <time>2020-07-17T10:26:23Z</time>
      </trkpt>
      <trkpt lat="40.4759956710" lon="-5.7773664873">
        <ele>791.78</ele>
        <time>2020-07-17T10:26:24Z</time>
      </trkpt>
      <trkpt lat="40.4763308633" lon="-5.7774359733">
        <ele>794.19</ele>
        <time>2020-07-17T10:26:33Z</time>
      </trkpt>
      <trkpt lat="40.4766264930" lon="-5.7775079738">
        <ele>794.19</ele>
        <time>2020-07-17T10:26:41Z</time>
      </trkpt>
      <trkpt lat="40.4769323487" lon="-5.7776143402">
        <ele>793.22</ele>
        <time>2020-07-17T10:26:48Z</time>
      </trkpt>
      <trkpt lat="40.4773473367" lon="-5.7777747698">
        <ele>792.74</ele>
        <time>2020-07-17T10:26:57Z</time>
      </trkpt>
      <trkpt lat="40.4777796753" lon="-5.7779352833">
        <ele>791.30</ele>
        <time>2020-07-17T10:27:05Z</time>
      </trkpt>
      <trkpt lat="40.4783756286" lon="-5.7781546377">
        <ele>788.90</ele>
        <time>2020-07-17T10:27:15Z</time>
      </trkpt>
      <trkpt lat="40.4788989108" lon="-5.7783815358">
        <ele>788.42</ele>
        <time>2020-07-17T10:27:25Z</time>
      </trkpt>
      <trkpt lat="40.4789926205" lon="-5.7784580626">
        <ele>788.42</ele>
        <time>2020-07-17T10:27:27Z</time>
      </trkpt>
      <trkpt lat="40.4790341947" lon="-5.7785024028">
        <ele>788.42</ele>
        <time>2020-07-17T10:27:28Z</time>
      </trkpt>
      <trkpt lat="40.4790739249" lon="-5.7785523590">
        <ele>788.90</ele>
        <time>2020-07-17T10:27:29Z</time>
      </trkpt>
      <trkpt lat="40.4791069496" lon="-5.7786036562">
        <ele>788.90</ele>
        <time>2020-07-17T10:27:30Z</time>
      </trkpt>
      <trkpt lat="40.4791372083" lon="-5.7786562946">
        <ele>788.90</ele>
        <time>2020-07-17T10:27:31Z</time>
      </trkpt>
      <trkpt lat="40.4791978933" lon="-5.7787622418">
        <ele>788.90</ele>
        <time>2020-07-17T10:27:33Z</time>
      </trkpt>
      <trkpt lat="40.4794853088" lon="-5.7792160381">
        <ele>789.86</ele>
        <time>2020-07-17T10:27:43Z</time>
      </trkpt>
      <trkpt lat="40.4795097001" lon="-5.7792634796">
        <ele>789.86</ele>
        <time>2020-07-17T10:27:44Z</time>
      </trkpt>
      <trkpt lat="40.4796601553" lon="-5.7796216384">
        <ele>790.82</ele>
        <time>2020-07-17T10:27:52Z</time>
      </trkpt>
      <trkpt lat="40.4796739854" lon="-5.7799329422">
        <ele>792.74</ele>
        <time>2020-07-17T10:28:00Z</time>
      </trkpt>
      <trkpt lat="40.4796850495" lon="-5.7802979741">
        <ele>795.15</ele>
        <time>2020-07-17T10:28:10Z</time>
      </trkpt>
      <trkpt lat="40.4797800165" lon="-5.7805697992">
        <ele>796.11</ele>
        <time>2020-07-17T10:28:19Z</time>
      </trkpt>
      <trkpt lat="40.4798482452" lon="-5.7806762494">
        <ele>797.07</ele>
        <time>2020-07-17T10:28:25Z</time>
      </trkpt>
      <trkpt lat="40.4799992871" lon="-5.7808193285">
        <ele>798.99</ele>
        <time>2020-07-17T10:28:35Z</time>
      </trkpt>
      <trkpt lat="40.4801169690" lon="-5.7808945980">
        <ele>800.44</ele>
        <time>2020-07-17T10:28:43Z</time>
      </trkpt>
      <trkpt lat="40.4802136961" lon="-5.7809825242">
        <ele>801.88</ele>
        <time>2020-07-17T10:28:50Z</time>
      </trkpt>
      <trkpt lat="40.4802735429" lon="-5.7812110148">
        <ele>802.84</ele>
        <time>2020-07-17T10:29:00Z</time>
      </trkpt>
      <trkpt lat="40.4803462978" lon="-5.7815229055">
        <ele>804.28</ele>
        <time>2020-07-17T10:29:12Z</time>
      </trkpt>
      <trkpt lat="40.4804135207" lon="-5.7816748694">
        <ele>805.72</ele>
        <time>2020-07-17T10:29:20Z</time>
      </trkpt>
      <trkpt lat="40.4804972559" lon="-5.7817495521">
        <ele>806.68</ele>
        <time>2020-07-17T10:29:28Z</time>
      </trkpt>
      <trkpt lat="40.4805104993" lon="-5.7817428466">
        <ele>806.20</ele>
        <time>2020-07-17T10:29:29Z</time>
      </trkpt>
      <trkpt lat="40.4806277622" lon="-5.7816653978">
        <ele>806.68</ele>
        <time>2020-07-17T10:29:37Z</time>
      </trkpt>
      <trkpt lat="40.4806961585" lon="-5.7816190459">
        <ele>806.68</ele>
        <time>2020-07-17T10:29:43Z</time>
      </trkpt>
      <trkpt lat="40.4807072226" lon="-5.7816172019">
        <ele>806.20</ele>
        <time>2020-07-17T10:29:44Z</time>
      </trkpt>
      <trkpt lat="40.4807157721" lon="-5.7816187106">
        <ele>806.68</ele>
        <time>2020-07-17T10:29:50Z</time>
      </trkpt>
      <trkpt lat="40.4807156883" lon="-5.7815970853">
        <ele>807.16</ele>
        <time>2020-07-17T10:30:03Z</time>
      </trkpt>
      <trkpt lat="40.4807000142" lon="-5.7815982588">
        <ele>806.68</ele>
        <time>2020-07-17T10:30:12Z</time>
      </trkpt>
      <trkpt lat="40.4807025287" lon="-5.7815863565">
        <ele>806.68</ele>
        <time>2020-07-17T10:30:22Z</time>
      </trkpt>
      <trkpt lat="40.4807037022" lon="-5.7815767173">
        <ele>805.72</ele>
        <time>2020-07-17T10:30:34Z</time>
      </trkpt>
      <trkpt lat="40.4806991760" lon="-5.7815959118">
        <ele>804.76</ele>
        <time>2020-07-17T10:30:47Z</time>
      </trkpt>
      <trkpt lat="40.4806977510" lon="-5.7816112507">
        <ele>804.76</ele>
        <time>2020-07-17T10:30:48Z</time>
      </trkpt>
      <trkpt lat="40.4807000142" lon="-5.7816301938">
        <ele>804.76</ele>
        <time>2020-07-17T10:30:49Z</time>
      </trkpt>
      <trkpt lat="40.4807132576" lon="-5.7816389110">
        <ele>804.76</ele>
        <time>2020-07-17T10:30:50Z</time>
      </trkpt>
      <trkpt lat="40.4807231482" lon="-5.7816327922">
        <ele>804.76</ele>
        <time>2020-07-17T10:30:51Z</time>
      </trkpt>
      <trkpt lat="40.4807322845" lon="-5.7816216443">
        <ele>804.76</ele>
        <time>2020-07-17T10:30:52Z</time>
      </trkpt>
      <trkpt lat="40.4807432648" lon="-5.7816109154">
        <ele>804.76</ele>
        <time>2020-07-17T10:30:53Z</time>
      </trkpt>
      <trkpt lat="40.4807572626" lon="-5.7816068083">
        <ele>804.76</ele>
        <time>2020-07-17T10:30:54Z</time>
      </trkpt>
      <trkpt lat="40.4807706736" lon="-5.7816068083">
        <ele>805.24</ele>
        <time>2020-07-17T10:30:55Z</time>
      </trkpt>
      <trkpt lat="40.4809001740" lon="-5.7816283498">
        <ele>806.20</ele>
        <time>2020-07-17T10:31:03Z</time>
      </trkpt>
      <trkpt lat="40.4810872581" lon="-5.7816954050">
        <ele>807.16</ele>
        <time>2020-07-17T10:31:13Z</time>
      </trkpt>
      <trkpt lat="40.4812829755" lon="-5.7817830797">
        <ele>808.61</ele>
        <time>2020-07-17T10:31:23Z</time>
      </trkpt>
      <trkpt lat="40.4813385475" lon="-5.7818170264">
        <ele>809.09</ele>
        <time>2020-07-17T10:31:29Z</time>
      </trkpt>
      <trkpt lat="40.4813483544" lon="-5.7818233967">
        <ele>810.05</ele>
        <time>2020-07-17T10:31:41Z</time>
      </trkpt>
      <trkpt lat="40.4813500308" lon="-5.7818287611">
        <ele>810.05</ele>
        <time>2020-07-17T10:31:43Z</time>
      </trkpt>
      <trkpt lat="40.4813584965" lon="-5.7818347123">
        <ele>810.05</ele>
        <time>2020-07-17T10:31:44Z</time>
      </trkpt>
      <trkpt lat="40.4814459197" lon="-5.7818849199">
        <ele>811.97</ele>
        <time>2020-07-17T10:31:49Z</time>
      </trkpt>
      <trkpt lat="40.4815955367" lon="-5.7818379812">
        <ele>812.93</ele>
        <time>2020-07-17T10:31:56Z</time>
      </trkpt>
      <trkpt lat="40.4818169028" lon="-5.7817222271">
        <ele>811.49</ele>
        <time>2020-07-17T10:32:05Z</time>
      </trkpt>
      <trkpt lat="40.4820579663" lon="-5.7816018630">
        <ele>810.53</ele>
        <time>2020-07-17T10:32:15Z</time>
      </trkpt>
      <trkpt lat="40.4821689427" lon="-5.7815355621">
        <ele>810.05</ele>
        <time>2020-07-17T10:32:22Z</time>
      </trkpt>
      <trkpt lat="40.4821728822" lon="-5.7815147750">
        <ele>810.05</ele>
        <time>2020-07-17T10:32:23Z</time>
      </trkpt>
      <trkpt lat="40.4821791686" lon="-5.7814969216">
        <ele>810.05</ele>
        <time>2020-07-17T10:32:24Z</time>
      </trkpt>
      <trkpt lat="40.4821873829" lon="-5.7814778946">
        <ele>810.05</ele>
        <time>2020-07-17T10:32:25Z</time>
      </trkpt>
      <trkpt lat="40.4821950942" lon="-5.7814561855">
        <ele>810.05</ele>
        <time>2020-07-17T10:32:26Z</time>
      </trkpt>
      <trkpt lat="40.4822028894" lon="-5.7814353146">
        <ele>810.05</ele>
        <time>2020-07-17T10:32:27Z</time>
      </trkpt>
      <trkpt lat="40.4822168872" lon="-5.7814151980">
        <ele>809.57</ele>
        <time>2020-07-17T10:32:31Z</time>
      </trkpt>
      <trkpt lat="40.4822365846" lon="-5.7813438680">
        <ele>809.57</ele>
        <time>2020-07-17T10:32:36Z</time>
      </trkpt>
      <trkpt lat="40.4822470620" lon="-5.7813380007">
        <ele>809.57</ele>
        <time>2020-07-17T10:32:37Z</time>
      </trkpt>
      <trkpt lat="40.4822556116" lon="-5.7813331392">
        <ele>809.57</ele>
        <time>2020-07-17T10:32:42Z</time>
      </trkpt>
      <trkpt lat="40.4822602216" lon="-5.7813381683">
        <ele>810.53</ele>
        <time>2020-07-17T10:32:54Z</time>
      </trkpt>
      <trkpt lat="40.4822857026" lon="-5.7813393418">
        <ele>811.49</ele>
        <time>2020-07-17T10:33:16Z</time>
      </trkpt>
      <trkpt lat="40.4822905641" lon="-5.7813426107">
        <ele>811.01</ele>
        <time>2020-07-17T10:33:36Z</time>
      </trkpt>
      <trkpt lat="40.4822662566" lon="-5.7813219074">
        <ele>808.61</ele>
        <time>2020-07-17T10:33:57Z</time>
      </trkpt>
      <trkpt lat="40.4822688550" lon="-5.7813171297">
        <ele>807.16</ele>
        <time>2020-07-17T10:34:17Z</time>
      </trkpt>
      <trkpt lat="40.4822657537" lon="-5.7813276071">
        <ele>805.72</ele>
        <time>2020-07-17T10:34:40Z</time>
      </trkpt>
      <trkpt lat="40.4822520074" lon="-5.7813130226">
        <ele>806.20</ele>
        <time>2020-07-17T10:34:50Z</time>
      </trkpt>
      <trkpt lat="40.4822343215" lon="-5.7813484780">
        <ele>807.16</ele>
        <time>2020-07-17T10:34:59Z</time>
      </trkpt>
      <trkpt lat="40.4822287057" lon="-5.7813650742">
        <ele>807.16</ele>
        <time>2020-07-17T10:35:00Z</time>
      </trkpt>
      <trkpt lat="40.4822228383" lon="-5.7813804969">
        <ele>807.16</ele>
        <time>2020-07-17T10:35:01Z</time>
      </trkpt>
      <trkpt lat="40.4822157975" lon="-5.7814006135">
        <ele>807.64</ele>
        <time>2020-07-17T10:35:02Z</time>
      </trkpt>
      <trkpt lat="40.4822071642" lon="-5.7814225741">
        <ele>807.64</ele>
        <time>2020-07-17T10:35:03Z</time>
      </trkpt>
      <trkpt lat="40.4821973573" lon="-5.7814447861">
        <ele>807.64</ele>
        <time>2020-07-17T10:35:04Z</time>
      </trkpt>
      <trkpt lat="40.4821904842" lon="-5.7814635616">
        <ele>807.64</ele>
        <time>2020-07-17T10:35:05Z</time>
      </trkpt>
      <trkpt lat="40.4821673501" lon="-5.7815264259">
        <ele>807.64</ele>
        <time>2020-07-17T10:35:10Z</time>
      </trkpt>
      <trkpt lat="40.4819906596" lon="-5.7816574350">
        <ele>808.13</ele>
        <time>2020-07-17T10:35:17Z</time>
      </trkpt>
      <trkpt lat="40.4816494323" lon="-5.7818405796">
        <ele>807.64</ele>
        <time>2020-07-17T10:35:28Z</time>
      </trkpt>
      <trkpt lat="40.4814285692" lon="-5.7818793878">
        <ele>807.64</ele>
        <time>2020-07-17T10:35:36Z</time>
      </trkpt>
      <trkpt lat="40.4813301656" lon="-5.7818303537">
        <ele>807.64</ele>
        <time>2020-07-17T10:35:41Z</time>
      </trkpt>
      <trkpt lat="40.4813129827" lon="-5.7818292640">
        <ele>807.16</ele>
        <time>2020-07-17T10:35:46Z</time>
      </trkpt>
      <trkpt lat="40.4812924471" lon="-5.7818375621">
        <ele>807.16</ele>
        <time>2020-07-17T10:35:53Z</time>
      </trkpt>
      <trkpt lat="40.4812844843" lon="-5.7818313595">
        <ele>807.64</ele>
        <time>2020-07-17T10:36:00Z</time>
      </trkpt>
      <trkpt lat="40.4812880047" lon="-5.7818097342">
        <ele>806.68</ele>
        <time>2020-07-17T10:36:19Z</time>
      </trkpt>
      <trkpt lat="40.4812713247" lon="-5.7818119135">
        <ele>804.76</ele>
        <time>2020-07-17T10:36:36Z</time>
      </trkpt>
      <trkpt lat="40.4812719952" lon="-5.7817999274">
        <ele>805.72</ele>
        <time>2020-07-17T10:36:51Z</time>
      </trkpt>
      <trkpt lat="40.4812755994" lon="-5.7818034478">
        <ele>806.20</ele>
        <time>2020-07-17T10:37:04Z</time>
      </trkpt>
      <trkpt lat="40.4812771082" lon="-5.7818051241">
        <ele>806.20</ele>
        <time>2020-07-17T10:37:20Z</time>
      </trkpt>
      <trkpt lat="40.4812695645" lon="-5.7818202116">
        <ele>805.24</ele>
        <time>2020-07-17T10:37:37Z</time>
      </trkpt>
      <trkpt lat="40.4812668823" lon="-5.7818181161">
        <ele>805.72</ele>
        <time>2020-07-17T10:37:53Z</time>
      </trkpt>
      <trkpt lat="40.4812768567" lon="-5.7818083093">
        <ele>807.16</ele>
        <time>2020-07-17T10:38:05Z</time>
      </trkpt>
      <trkpt lat="40.4812900163" lon="-5.7818165235">
        <ele>807.64</ele>
        <time>2020-07-17T10:38:16Z</time>
      </trkpt>
      <trkpt lat="40.4812875018" lon="-5.7818452735">
        <ele>807.64</ele>
        <time>2020-07-17T10:38:24Z</time>
      </trkpt>
      <trkpt lat="40.4812823050" lon="-5.7818736881">
        <ele>806.20</ele>
        <time>2020-07-17T10:38:34Z</time>
      </trkpt>
      <trkpt lat="40.4812761862" lon="-5.7818789687">
        <ele>806.68</ele>
        <time>2020-07-17T10:38:47Z</time>
      </trkpt>
      <trkpt lat="40.4812777787" lon="-5.7818797231">
        <ele>805.72</ele>
        <time>2020-07-17T10:38:58Z</time>
      </trkpt>
      <trkpt lat="40.4812768567" lon="-5.7818819862">
        <ele>804.76</ele>
        <time>2020-07-17T10:39:11Z</time>
      </trkpt>
      <trkpt lat="40.4812761024" lon="-5.7818880212">
        <ele>804.28</ele>
        <time>2020-07-17T10:39:23Z</time>
      </trkpt>
      <trkpt lat="40.4812724143" lon="-5.7818862610">
        <ele>803.80</ele>
        <time>2020-07-17T10:39:34Z</time>
      </trkpt>
      <trkpt lat="40.4812704865" lon="-5.7818840817">
        <ele>804.76</ele>
        <time>2020-07-17T10:39:45Z</time>
      </trkpt>
      <trkpt lat="40.4812755994" lon="-5.7818824891">
        <ele>805.24</ele>
        <time>2020-07-17T10:39:57Z</time>
      </trkpt>
      <trkpt lat="40.4812724981" lon="-5.7818798907">
        <ele>805.24</ele>
        <time>2020-07-17T10:40:10Z</time>
      </trkpt>
      <trkpt lat="40.4812767729" lon="-5.7818682399">
        <ele>806.68</ele>
        <time>2020-07-17T10:40:22Z</time>
      </trkpt>
      <trkpt lat="40.4812847357" lon="-5.7818672340">
        <ele>807.64</ele>
        <time>2020-07-17T10:40:38Z</time>
      </trkpt>
      <trkpt lat="40.4812678043" lon="-5.7818786334">
        <ele>805.72</ele>
        <time>2020-07-17T10:40:50Z</time>
      </trkpt>
      <trkpt lat="40.4812656250" lon="-5.7818851713">
        <ele>805.24</ele>
        <time>2020-07-17T10:41:03Z</time>
      </trkpt>
      <trkpt lat="40.4812714923" lon="-5.7818849199">
        <ele>805.24</ele>
        <time>2020-07-17T10:41:14Z</time>
      </trkpt>
      <trkpt lat="40.4812712409" lon="-5.7818771247">
        <ele>804.28</ele>
        <time>2020-07-17T10:41:26Z</time>
      </trkpt>
      <trkpt lat="40.4812724981" lon="-5.7818729337">
        <ele>805.24</ele>
        <time>2020-07-17T10:41:39Z</time>
      </trkpt>
      <trkpt lat="40.4812719952" lon="-5.7818663120">
        <ele>806.20</ele>
        <time>2020-07-17T10:41:51Z</time>
      </trkpt>
      <trkpt lat="40.4812761024" lon="-5.7818723470">
        <ele>806.20</ele>
        <time>2020-07-17T10:42:11Z</time>
      </trkpt>
      <trkpt lat="40.4812703189" lon="-5.7818694972">
        <ele>805.72</ele>
        <time>2020-07-17T10:42:26Z</time>
      </trkpt>
      <trkpt lat="40.4812688939" lon="-5.7818684075">
        <ele>806.20</ele>
        <time>2020-07-17T10:42:47Z</time>
      </trkpt>
      <trkpt lat="40.4812752642" lon="-5.7818678208">
        <ele>805.24</ele>
        <time>2020-07-17T10:42:59Z</time>
      </trkpt>
      <trkpt lat="40.4812857416" lon="-5.7818588521">
        <ele>804.76</ele>
        <time>2020-07-17T10:43:16Z</time>
      </trkpt>
      <trkpt lat="40.4812889267" lon="-5.7818782143">
        <ele>804.76</ele>
        <time>2020-07-17T10:43:28Z</time>
      </trkpt>
      <trkpt lat="40.4812900163" lon="-5.7819100656">
        <ele>803.80</ele>
        <time>2020-07-17T10:43:36Z</time>
      </trkpt>
      <trkpt lat="40.4813046008" lon="-5.7819158491">
        <ele>804.76</ele>
        <time>2020-07-17T10:43:41Z</time>
      </trkpt>
      <trkpt lat="40.4813450016" lon="-5.7818984985">
        <ele>806.20</ele>
        <time>2020-07-17T10:43:51Z</time>
      </trkpt>
      <trkpt lat="40.4813460913" lon="-5.7818789687">
        <ele>806.20</ele>
        <time>2020-07-17T10:44:02Z</time>
      </trkpt>
      <trkpt lat="40.4813574068" lon="-5.7818854228">
        <ele>806.20</ele>
        <time>2020-07-17T10:44:18Z</time>
      </trkpt>
      <trkpt lat="40.4813580774" lon="-5.7818732690">
        <ele>806.20</ele>
        <time>2020-07-17T10:44:40Z</time>
      </trkpt>
      <trkpt lat="40.4813563172" lon="-5.7818632945">
        <ele>807.16</ele>
        <time>2020-07-17T10:45:03Z</time>
      </trkpt>
      <trkpt lat="40.4813744221" lon="-5.7818711735">
        <ele>806.68</ele>
        <time>2020-07-17T10:45:31Z</time>
      </trkpt>
      <trkpt lat="40.4813911021" lon="-5.7818964869">
        <ele>805.24</ele>
        <time>2020-07-17T10:45:56Z</time>
      </trkpt>
      <trkpt lat="40.4814061057" lon="-5.7819170225">
        <ele>806.68</ele>
        <time>2020-07-17T10:46:21Z</time>
      </trkpt>
      <trkpt lat="40.4814065248" lon="-5.7819215488">
        <ele>808.61</ele>
        <time>2020-07-17T10:46:49Z</time>
      </trkpt>
      <trkpt lat="40.4814080335" lon="-5.7819118258">
        <ele>807.64</ele>
        <time>2020-07-17T10:47:20Z</time>
      </trkpt>
      <trkpt lat="40.4813921917" lon="-5.7819072995">
        <ele>809.57</ele>
        <time>2020-07-17T10:47:46Z</time>
      </trkpt>
      <trkpt lat="40.4813631903" lon="-5.7818816509">
        <ele>810.05</ele>
        <time>2020-07-17T10:48:13Z</time>
      </trkpt>
      <trkpt lat="40.4813589994" lon="-5.7818881888">
        <ele>810.05</ele>
        <time>2020-07-17T10:48:40Z</time>
      </trkpt>
      <trkpt lat="40.4813538864" lon="-5.7819104008">
        <ele>811.49</ele>
        <time>2020-07-17T10:49:10Z</time>
      </trkpt>
      <trkpt lat="40.4813489411" lon="-5.7818969898">
        <ele>811.49</ele>
        <time>2020-07-17T10:49:42Z</time>
      </trkpt>
      <trkpt lat="40.4813455045" lon="-5.7818861771">
        <ele>811.49</ele>
        <time>2020-07-17T10:50:09Z</time>
      </trkpt>
      <trkpt lat="40.4813577421" lon="-5.7818883564">
        <ele>811.97</ele>
        <time>2020-07-17T10:50:34Z</time>
      </trkpt>
      <trkpt lat="40.4813605919" lon="-5.7818857580">
        <ele>813.41</ele>
        <time>2020-07-17T10:50:55Z</time>
      </trkpt>
      <trkpt lat="40.4813324288" lon="-5.7818697486">
        <ele>813.41</ele>
        <time>2020-07-17T10:51:18Z</time>
      </trkpt>
      <trkpt lat="40.4813586641" lon="-5.7818882726">
        <ele>813.89</ele>
        <time>2020-07-17T10:51:40Z</time>
      </trkpt>
      <trkpt lat="40.4813384637" lon="-5.7819108199">
        <ele>813.41</ele>
        <time>2020-07-17T10:51:51Z</time>
      </trkpt>
      <trkpt lat="40.4813054390" lon="-5.7818931341">
        <ele>813.41</ele>
        <time>2020-07-17T10:52:00Z</time>
      </trkpt>
      <trkpt lat="40.4812785331" lon="-5.7818802260">
        <ele>812.93</ele>
        <time>2020-07-17T10:52:11Z</time>
      </trkpt>
      <trkpt lat="40.4812383838" lon="-5.7820755243">
        <ele>760.54</ele>
        <time>2020-07-18T04:52:27Z</time>
      </trkpt>
      <trkpt lat="40.4813691415" lon="-5.7820519712">
        <ele>778.81</ele>
        <time>2020-07-18T04:52:42Z</time>
      </trkpt>
      <trkpt lat="40.4814291559" lon="-5.7819215488">
        <ele>795.15</ele>
        <time>2020-07-18T04:52:56Z</time>
      </trkpt>
      <trkpt lat="40.4813470971" lon="-5.7818689942">
        <ele>811.49</ele>
        <time>2020-07-18T04:53:12Z</time>
      </trkpt>
      <trkpt lat="40.4813117255" lon="-5.7818578463">
        <ele>811.97</ele>
        <time>2020-07-18T04:53:24Z</time>
      </trkpt>
      <trkpt lat="40.4813090432" lon="-5.7818461955">
        <ele>812.93</ele>
        <time>2020-07-18T04:53:37Z</time>
      </trkpt>
      <trkpt lat="40.4812816344" lon="-5.7818288449">
        <ele>814.37</ele>
        <time>2020-07-18T04:53:55Z</time>
      </trkpt>
      <trkpt lat="40.4812700674" lon="-5.7818287611">
        <ele>813.89</ele>
        <time>2020-07-18T04:54:14Z</time>
      </trkpt>
      <trkpt lat="40.4812802933" lon="-5.7818285935">
        <ele>813.89</ele>
        <time>2020-07-18T04:54:36Z</time>
      </trkpt>
      <trkpt lat="40.4812717438" lon="-5.7818192057">
        <ele>814.37</ele>
        <time>2020-07-18T04:54:54Z</time>
      </trkpt>
      <trkpt lat="40.4812717438" lon="-5.7818160206">
        <ele>814.85</ele>
        <time>2020-07-18T04:55:10Z</time>
      </trkpt>
      <trkpt lat="40.4812780302" lon="-5.7818159368">
        <ele>815.82</ele>
        <time>2020-07-18T04:55:23Z</time>
      </trkpt>
      <trkpt lat="40.4812861606" lon="-5.7818171941">
        <ele>814.85</ele>
        <time>2020-07-18T04:55:31Z</time>
      </trkpt>
      <trkpt lat="40.4812856577" lon="-5.7817900367">
        <ele>816.30</ele>
        <time>2020-07-18T04:55:37Z</time>
      </trkpt>
      <trkpt lat="40.4812823050" lon="-5.7817803137">
        <ele>816.78</ele>
        <time>2020-07-18T04:55:46Z</time>
      </trkpt>
      <trkpt lat="40.4812956322" lon="-5.7817614544">
        <ele>815.82</ele>
        <time>2020-07-18T04:56:04Z</time>
      </trkpt>
      <trkpt lat="40.4813017510" lon="-5.7817728538">
        <ele>812.45</ele>
        <time>2020-07-18T04:56:34Z</time>
      </trkpt>
      <trkpt lat="40.4812956322" lon="-5.7817816548">
        <ele>812.45</ele>
        <time>2020-07-18T04:56:47Z</time>
      </trkpt>
      <trkpt lat="40.4813415650" lon="-5.7817911264">
        <ele>811.49</ele>
        <time>2020-07-18T04:56:54Z</time>
      </trkpt>
      <trkpt lat="40.4814942833" lon="-5.7818596065">
        <ele>816.78</ele>
        <time>2020-07-18T04:57:01Z</time>
      </trkpt>
      <trkpt lat="40.4816801101" lon="-5.7817564253">
        <ele>815.82</ele>
        <time>2020-07-18T04:57:09Z</time>
      </trkpt>
      <trkpt lat="40.4819410387" lon="-5.7816365641">
        <ele>814.37</ele>
        <time>2020-07-18T04:57:18Z</time>
      </trkpt>
      <trkpt lat="40.4822053201" lon="-5.7815094944">
        <ele>812.45</ele>
        <time>2020-07-18T04:57:27Z</time>
      </trkpt>
      <trkpt lat="40.4823372513" lon="-5.7814524975">
        <ele>811.01</ele>
        <time>2020-07-18T04:57:34Z</time>
      </trkpt>
      <trkpt lat="40.4823531769" lon="-5.7814483065">
        <ele>810.53</ele>
        <time>2020-07-18T04:57:41Z</time>
      </trkpt>
      <trkpt lat="40.4824390914" lon="-5.7814268488">
        <ele>810.05</ele>
        <time>2020-07-18T04:57:47Z</time>
      </trkpt>
      <trkpt lat="40.4825902171" lon="-5.7813964225">
        <ele>810.05</ele>
        <time>2020-07-18T04:57:55Z</time>
      </trkpt>
      <trkpt lat="40.4828157742" lon="-5.7813892979">
        <ele>809.57</ele>
        <time>2020-07-18T04:58:04Z</time>
      </trkpt>
      <trkpt lat="40.4830563348" lon="-5.7813985180">
        <ele>810.05</ele>
        <time>2020-07-18T04:58:13Z</time>
      </trkpt>
      <trkpt lat="40.4832558241" lon="-5.7814052235">
        <ele>810.05</ele>
        <time>2020-07-18T04:58:20Z</time>
      </trkpt>
      <trkpt lat="40.4835358635" lon="-5.7814177964">
        <ele>810.53</ele>
        <time>2020-07-18T04:58:30Z</time>
      </trkpt>
      <trkpt lat="40.4837814532" lon="-5.7814203948">
        <ele>812.45</ele>
        <time>2020-07-18T04:58:39Z</time>
      </trkpt>
      <trkpt lat="40.4840307310" lon="-5.7813994400">
        <ele>813.41</ele>
        <time>2020-07-18T04:58:48Z</time>
      </trkpt>
      <trkpt lat="40.4840701260" lon="-5.7813986018">
        <ele>813.41</ele>
        <time>2020-07-18T04:58:51Z</time>
      </trkpt>
      <trkpt lat="40.4840718023" lon="-5.7814131025">
        <ele>813.41</ele>
        <time>2020-07-18T04:58:52Z</time>
      </trkpt>
      <trkpt lat="40.4840635043" lon="-5.7814265136">
        <ele>813.41</ele>
        <time>2020-07-18T04:58:53Z</time>
      </trkpt>
      <trkpt lat="40.4840488359" lon="-5.7814329676">
        <ele>813.41</ele>
        <time>2020-07-18T04:58:54Z</time>
      </trkpt>
      <trkpt lat="40.4840360954" lon="-5.7814344764">
        <ele>812.93</ele>
        <time>2020-07-18T04:58:55Z</time>
      </trkpt>
      <trkpt lat="40.4840179905" lon="-5.7814351469">
        <ele>812.93</ele>
        <time>2020-07-18T04:58:56Z</time>
      </trkpt>
      <trkpt lat="40.4839987960" lon="-5.7814399246">
        <ele>812.93</ele>
        <time>2020-07-18T04:58:57Z</time>
      </trkpt>
      <trkpt lat="40.4839792661" lon="-5.7814441156">
        <ele>812.93</ele>
        <time>2020-07-18T04:58:58Z</time>
      </trkpt>
      <trkpt lat="40.4839625861" lon="-5.7814455405">
        <ele>812.45</ele>
        <time>2020-07-18T04:58:59Z</time>
      </trkpt>
      <trkpt lat="40.4839489236" lon="-5.7814447861">
        <ele>812.45</ele>
        <time>2020-07-18T04:59:00Z</time>
      </trkpt>
      <trkpt lat="40.4839444812" lon="-5.7814017870">
        <ele>811.97</ele>
        <time>2020-07-18T04:59:06Z</time>
      </trkpt>
      <trkpt lat="40.4839562159" lon="-5.7814122643">
        <ele>811.01</ele>
        <time>2020-07-18T04:59:14Z</time>
      </trkpt>
      <trkpt lat="40.4839722253" lon="-5.7814377453">
        <ele>811.01</ele>
        <time>2020-07-18T04:59:24Z</time>
      </trkpt>
      <trkpt lat="40.4840018973" lon="-5.7814655732">
        <ele>811.49</ele>
        <time>2020-07-18T04:59:33Z</time>
      </trkpt>
      <trkpt lat="40.4840105306" lon="-5.7814499829">
        <ele>811.49</ele>
        <time>2020-07-18T04:59:46Z</time>
      </trkpt>
      <trkpt lat="40.4840107821" lon="-5.7814452052">
        <ele>812.45</ele>
        <time>2020-07-18T05:00:02Z</time>
      </trkpt>
      <trkpt lat="40.4840320721" lon="-5.7814141084">
        <ele>811.97</ele>
        <time>2020-07-18T05:00:14Z</time>
      </trkpt>
      <trkpt lat="40.4840331618" lon="-5.7813901361">
        <ele>810.05</ele>
        <time>2020-07-18T05:00:23Z</time>
      </trkpt>
      <trkpt lat="40.4840512667" lon="-5.7813906390">
        <ele>810.05</ele>
        <time>2020-07-18T05:00:36Z</time>
      </trkpt>
      <trkpt lat="40.4840823635" lon="-5.7814047206">
        <ele>810.53</ele>
        <time>2020-07-18T05:00:39Z</time>
      </trkpt>
      <trkpt lat="40.4840965290" lon="-5.7814054750">
        <ele>811.01</ele>
        <time>2020-07-18T05:00:40Z</time>
      </trkpt>
      <trkpt lat="40.4841086827" lon="-5.7814047206">
        <ele>811.01</ele>
        <time>2020-07-18T05:00:41Z</time>
      </trkpt>
      <trkpt lat="40.4841181543" lon="-5.7814022060">
        <ele>811.01</ele>
        <time>2020-07-18T05:00:42Z</time>
      </trkpt>
      <trkpt lat="40.4841288831" lon="-5.7813969254">
        <ele>811.01</ele>
        <time>2020-07-18T05:00:43Z</time>
      </trkpt>
      <trkpt lat="40.4841421265" lon="-5.7813939918">
        <ele>811.01</ele>
        <time>2020-07-18T05:00:44Z</time>
      </trkpt>
      <trkpt lat="40.4841573816" lon="-5.7813923992">
        <ele>811.01</ele>
        <time>2020-07-18T05:00:45Z</time>
      </trkpt>
      <trkpt lat="40.4841748998" lon="-5.7813912258">
        <ele>811.01</ele>
        <time>2020-07-18T05:00:46Z</time>
      </trkpt>
      <trkpt lat="40.4841926694" lon="-5.7813899685">
        <ele>811.01</ele>
        <time>2020-07-18T05:00:47Z</time>
      </trkpt>
      <trkpt lat="40.4843400232" lon="-5.7813734561">
        <ele>811.97</ele>
        <time>2020-07-18T05:00:55Z</time>
      </trkpt>
      <trkpt lat="40.4845788237" lon="-5.7813390065">
        <ele>811.97</ele>
        <time>2020-07-18T05:01:06Z</time>
      </trkpt>
      <trkpt lat="40.4847980943" lon="-5.7813084964">
        <ele>812.93</ele>
        <time>2020-07-18T05:01:15Z</time>
      </trkpt>
      <trkpt lat="40.4849669896" lon="-5.7812913135">
        <ele>813.89</ele>
        <time>2020-07-18T05:01:22Z</time>
      </trkpt>
      <trkpt lat="40.4851930495" lon="-5.7812588755">
        <ele>814.85</ele>
        <time>2020-07-18T05:01:30Z</time>
      </trkpt>
      <trkpt lat="40.4855590872" lon="-5.7811888866">
        <ele>815.82</ele>
        <time>2020-07-18T05:01:42Z</time>
      </trkpt>
      <trkpt lat="40.4859247059" lon="-5.7811302971">
        <ele>815.82</ele>
        <time>2020-07-18T05:01:53Z</time>
      </trkpt>
      <trkpt lat="40.4862255324" lon="-5.7811504137">
        <ele>816.30</ele>
        <time>2020-07-18T05:02:02Z</time>
      </trkpt>
      <trkpt lat="40.4865292087" lon="-5.7812497392">
        <ele>817.74</ele>
        <time>2020-07-18T05:02:12Z</time>
      </trkpt>
      <trkpt lat="40.4868133552" lon="-5.7813434489">
        <ele>820.14</ele>
        <time>2020-07-18T05:02:21Z</time>
      </trkpt>
      <trkpt lat="40.4871271737" lon="-5.7814620528">
        <ele>821.58</ele>
        <time>2020-07-18T05:02:31Z</time>
      </trkpt>
      <trkpt lat="40.4874823149" lon="-5.7815607078">
        <ele>821.10</ele>
        <time>2020-07-18T05:02:42Z</time>
      </trkpt>
      <trkpt lat="40.4877384659" lon="-5.7815760467">
        <ele>821.10</ele>
        <time>2020-07-18T05:02:51Z</time>
      </trkpt>
      <trkpt lat="40.4880588222" lon="-5.7815483026">
        <ele>820.14</ele>
        <time>2020-07-18T05:03:01Z</time>
      </trkpt>
      <trkpt lat="40.4883728921" lon="-5.7814093307">
        <ele>819.18</ele>
        <time>2020-07-18T05:03:12Z</time>
      </trkpt>
      <trkpt lat="40.4886303004" lon="-5.7812117692">
        <ele>818.22</ele>
        <time>2020-07-18T05:03:21Z</time>
      </trkpt>
      <trkpt lat="40.4889148660" lon="-5.7810018025">
        <ele>817.26</ele>
        <time>2020-07-18T05:03:31Z</time>
      </trkpt>
      <trkpt lat="40.4892036226" lon="-5.7807832025">
        <ele>817.26</ele>
        <time>2020-07-18T05:03:41Z</time>
      </trkpt>
      <trkpt lat="40.4894710053" lon="-5.7806262095">
        <ele>818.22</ele>
        <time>2020-07-18T05:03:50Z</time>
      </trkpt>
      <trkpt lat="40.4897839855" lon="-5.7805188373">
        <ele>818.70</ele>
        <time>2020-07-18T05:04:00Z</time>
      </trkpt>
      <trkpt lat="40.4900659528" lon="-5.7804432325">
        <ele>820.14</ele>
        <time>2020-07-18T05:04:10Z</time>
      </trkpt>
      <trkpt lat="40.4902766738" lon="-5.7803969644">
        <ele>821.10</ele>
        <time>2020-07-18T05:04:19Z</time>
      </trkpt>
      <trkpt lat="40.4905310646" lon="-5.7802973874">
        <ele>821.58</ele>
        <time>2020-07-18T05:04:30Z</time>
      </trkpt>
      <trkpt lat="40.4907686915" lon="-5.7800857443">
        <ele>823.51</ele>
        <time>2020-07-18T05:04:42Z</time>
      </trkpt>
      <trkpt lat="40.4909625649" lon="-5.7798920386">
        <ele>824.47</ele>
        <time>2020-07-18T05:04:52Z</time>
      </trkpt>
      <trkpt lat="40.4911338910" lon="-5.7797266636">
        <ele>825.43</ele>
        <time>2020-07-18T05:05:01Z</time>
      </trkpt>
      <trkpt lat="40.4913117550" lon="-5.7795550022">
        <ele>826.39</ele>
        <time>2020-07-18T05:05:11Z</time>
      </trkpt>
      <trkpt lat="40.4914467037" lon="-5.7794347219">
        <ele>827.35</ele>
        <time>2020-07-18T05:05:19Z</time>
      </trkpt>
      <trkpt lat="40.4916410800" lon="-5.7793513220">
        <ele>829.27</ele>
        <time>2020-07-18T05:05:28Z</time>
      </trkpt>
      <trkpt lat="40.4918384738" lon="-5.7793442812">
        <ele>829.76</ele>
        <time>2020-07-18T05:05:36Z</time>
      </trkpt>
      <trkpt lat="40.4920294974" lon="-5.7793498132">
        <ele>832.16</ele>
        <time>2020-07-18T05:05:46Z</time>
      </trkpt>
      <trkpt lat="40.4921957105" lon="-5.7793447003">
        <ele>833.60</ele>
        <time>2020-07-18T05:05:56Z</time>
      </trkpt>
      <trkpt lat="40.4923781008" lon="-5.7793347258">
        <ele>836.00</ele>
        <time>2020-07-18T05:06:07Z</time>
      </trkpt>
      <trkpt lat="40.4924851377" lon="-5.7793196384">
        <ele>837.45</ele>
        <time>2020-07-18T05:06:14Z</time>
      </trkpt>
      <trkpt lat="40.4925982933" lon="-5.7792706881">
        <ele>838.41</ele>
        <time>2020-07-18T05:06:22Z</time>
      </trkpt>
      <trkpt lat="40.4927660991" lon="-5.7791853603">
        <ele>838.89</ele>
        <time>2020-07-18T05:06:33Z</time>
      </trkpt>
      <trkpt lat="40.4929374252" lon="-5.7790749706">
        <ele>839.37</ele>
        <time>2020-07-18T05:06:44Z</time>
      </trkpt>
      <trkpt lat="40.4931012075" lon="-5.7789883856">
        <ele>839.85</ele>
        <time>2020-07-18T05:06:54Z</time>
      </trkpt>
      <trkpt lat="40.4932882078" lon="-5.7788835280">
        <ele>841.77</ele>
        <time>2020-07-18T05:07:06Z</time>
      </trkpt>
      <trkpt lat="40.4934151936" lon="-5.7787728030">
        <ele>842.25</ele>
        <time>2020-07-18T05:07:15Z</time>
      </trkpt>
      <trkpt lat="40.4935254995" lon="-5.7786252815">
        <ele>843.69</ele>
        <time>2020-07-18T05:07:25Z</time>
      </trkpt>
      <trkpt lat="40.4936369788" lon="-5.7784554642">
        <ele>844.66</ele>
        <time>2020-07-18T05:07:35Z</time>
      </trkpt>
      <trkpt lat="40.4937444348" lon="-5.7782834675">
        <ele>844.66</ele>
        <time>2020-07-18T05:07:45Z</time>
      </trkpt>
      <trkpt lat="40.4938446824" lon="-5.7781368680">
        <ele>845.14</ele>
        <time>2020-07-18T05:07:54Z</time>
      </trkpt>
      <trkpt lat="40.4939558264" lon="-5.7779755164">
        <ele>845.62</ele>
        <time>2020-07-18T05:08:04Z</time>
      </trkpt>
      <trkpt lat="40.4940632824" lon="-5.7778015919">
        <ele>846.10</ele>
        <time>2020-07-18T05:08:14Z</time>
      </trkpt>
      <trkpt lat="40.4941596743" lon="-5.7776622847">
        <ele>847.06</ele>
        <time>2020-07-18T05:08:23Z</time>
      </trkpt>
      <trkpt lat="40.4942822177" lon="-5.7775188703">
        <ele>847.54</ele>
        <time>2020-07-18T05:08:33Z</time>
      </trkpt>
      <trkpt lat="40.4944076948" lon="-5.7774286810">
        <ele>848.50</ele>
        <time>2020-07-18T05:08:41Z</time>
      </trkpt>
      <trkpt lat="40.4945677891" lon="-5.7773389947">
        <ele>850.42</ele>
        <time>2020-07-18T05:08:51Z</time>
      </trkpt>
      <trkpt lat="40.4947305657" lon="-5.7772281021">
        <ele>851.87</ele>
        <time>2020-07-18T05:09:02Z</time>
      </trkpt>
      <trkpt lat="40.4948571324" lon="-5.7771047205">
        <ele>852.35</ele>
        <time>2020-07-18T05:09:11Z</time>
      </trkpt>
      <trkpt lat="40.4949716292" lon="-5.7769695204">
        <ele>853.31</ele>
        <time>2020-07-18T05:09:20Z</time>
      </trkpt>
      <trkpt lat="40.4950971063" lon="-5.7767523453">
        <ele>854.27</ele>
        <time>2020-07-18T05:09:32Z</time>
      </trkpt>
      <trkpt lat="40.4951566178" lon="-5.7766042370">
        <ele>855.23</ele>
        <time>2020-07-18T05:09:39Z</time>
      </trkpt>
      <trkpt lat="40.4952468071" lon="-5.7764055021">
        <ele>856.67</ele>
        <time>2020-07-18T05:09:49Z</time>
      </trkpt>
      <trkpt lat="40.4953354038" lon="-5.7761996426">
        <ele>857.15</ele>
        <time>2020-07-18T05:09:59Z</time>
      </trkpt>
      <trkpt lat="40.4954282753" lon="-5.7759809587">
        <ele>859.08</ele>
        <time>2020-07-18T05:10:11Z</time>
      </trkpt>
      <trkpt lat="40.4955377430" lon="-5.7757462654">
        <ele>860.52</ele>
        <time>2020-07-18T05:10:23Z</time>
      </trkpt>
      <trkpt lat="40.4956088215" lon="-5.7755746040">
        <ele>860.04</ele>
        <time>2020-07-18T05:10:32Z</time>
      </trkpt>
      <trkpt lat="40.4956883658" lon="-5.7754179463">
        <ele>861.00</ele>
        <time>2020-07-18T05:10:41Z</time>
      </trkpt>
      <trkpt lat="40.4957793932" lon="-5.7752389088">
        <ele>862.44</ele>
        <time>2020-07-18T05:10:51Z</time>
      </trkpt>
      <trkpt lat="40.4958600271" lon="-5.7751089055">
        <ele>863.40</ele>
        <time>2020-07-18T05:10:58Z</time>
      </trkpt>
      <trkpt lat="40.4959980771" lon="-5.7749416865">
        <ele>864.36</ele>
        <time>2020-07-18T05:11:08Z</time>
      </trkpt>
      <trkpt lat="40.4961645417" lon="-5.7748115994">
        <ele>865.80</ele>
        <time>2020-07-18T05:11:18Z</time>
      </trkpt>
      <trkpt lat="40.4963217862" lon="-5.7747568656">
        <ele>866.77</ele>
        <time>2020-07-18T05:11:26Z</time>
      </trkpt>
      <trkpt lat="40.4965263046" lon="-5.7746994495">
        <ele>867.25</ele>
        <time>2020-07-18T05:11:36Z</time>
      </trkpt>
      <trkpt lat="40.4966875724" lon="-5.7746629883">
        <ele>867.25</ele>
        <time>2020-07-18T05:11:44Z</time>
      </trkpt>
      <trkpt lat="40.4968980420" lon="-5.7746267784">
        <ele>868.69</ele>
        <time>2020-07-18T05:11:54Z</time>
      </trkpt>
      <trkpt lat="40.4970819410" lon="-5.7745974418">
        <ele>869.65</ele>
        <time>2020-07-18T05:12:03Z</time>
      </trkpt>
      <trkpt lat="40.4972292110" lon="-5.7745573763">
        <ele>870.13</ele>
        <time>2020-07-18T05:12:11Z</time>
      </trkpt>
      <trkpt lat="40.4974562768" lon="-5.7744972780">
        <ele>870.61</ele>
        <time>2020-07-18T05:12:23Z</time>
      </trkpt>
      <trkpt lat="40.4976505693" lon="-5.7743800152">
        <ele>872.05</ele>
        <time>2020-07-18T05:12:35Z</time>
      </trkpt>
      <trkpt lat="40.4977963306" lon="-5.7742417138">
        <ele>873.50</ele>
        <time>2020-07-18T05:12:45Z</time>
      </trkpt>
      <trkpt lat="40.4979125038" lon="-5.7740899175">
        <ele>873.98</ele>
        <time>2020-07-18T05:12:54Z</time>
      </trkpt>
      <trkpt lat="40.4980012681" lon="-5.7739613391">
        <ele>874.46</ele>
        <time>2020-07-18T05:13:02Z</time>
      </trkpt>
      <trkpt lat="40.4981534835" lon="-5.7737443317">
        <ele>875.90</ele>
        <time>2020-07-18T05:13:16Z</time>
      </trkpt>
      <trkpt lat="40.4982523061" lon="-5.7736130711">
        <ele>876.38</ele>
        <time>2020-07-18T05:13:25Z</time>
      </trkpt>
      <trkpt lat="40.4983445909" lon="-5.7734870911">
        <ele>877.82</ele>
        <time>2020-07-18T05:13:34Z</time>
      </trkpt>
      <trkpt lat="40.4984300025" lon="-5.7733647991">
        <ele>879.26</ele>
        <time>2020-07-18T05:13:42Z</time>
      </trkpt>
      <trkpt lat="40.4984858260" lon="-5.7732632104">
        <ele>879.74</ele>
        <time>2020-07-18T05:13:49Z</time>
      </trkpt>
      <trkpt lat="40.4985657055" lon="-5.7730513997">
        <ele>881.67</ele>
        <time>2020-07-18T05:14:00Z</time>
      </trkpt>
      <trkpt lat="40.4986566491" lon="-5.7727923989">
        <ele>882.63</ele>
        <time>2020-07-18T05:14:13Z</time>
      </trkpt>
      <trkpt lat="40.4987164121" lon="-5.7725938316">
        <ele>884.07</ele>
        <time>2020-07-18T05:14:23Z</time>
      </trkpt>
      <trkpt lat="40.4987630993" lon="-5.7724231761">
        <ele>885.51</ele>
        <time>2020-07-18T05:14:32Z</time>
      </trkpt>
      <trkpt lat="40.4988055956" lon="-5.7722650934">
        <ele>886.95</ele>
        <time>2020-07-18T05:14:41Z</time>
      </trkpt>
      <trkpt lat="40.4988554679" lon="-5.7720974553">
        <ele>889.36</ele>
        <time>2020-07-18T05:14:50Z</time>
      </trkpt>
      <trkpt lat="40.4989126325" lon="-5.7719562203">
        <ele>889.84</ele>
        <time>2020-07-18T05:14:58Z</time>
      </trkpt>
      <trkpt lat="40.4989944398" lon="-5.7717816252">
        <ele>890.80</ele>
        <time>2020-07-18T05:15:07Z</time>
      </trkpt>
      <trkpt lat="40.4990772530" lon="-5.7716097962">
        <ele>891.28</ele>
        <time>2020-07-18T05:15:16Z</time>
      </trkpt>
      <trkpt lat="40.4991467390" lon="-5.7714495342">
        <ele>891.76</ele>
        <time>2020-07-18T05:15:24Z</time>
      </trkpt>
      <trkpt lat="40.4992053285" lon="-5.7713137474">
        <ele>892.24</ele>
        <time>2020-07-18T05:15:31Z</time>
      </trkpt>
      <trkpt lat="40.4992873035" lon="-5.7711034454">
        <ele>893.68</ele>
        <time>2020-07-18T05:15:41Z</time>
      </trkpt>
      <trkpt lat="40.4993628245" lon="-5.7709222287">
        <ele>894.16</ele>
        <time>2020-07-18T05:15:50Z</time>
      </trkpt>
      <trkpt lat="40.4994204920" lon="-5.7707237452">
        <ele>894.64</ele>
        <time>2020-07-18T05:15:59Z</time>
      </trkpt>
      <trkpt lat="40.4994771536" lon="-5.7704865374">
        <ele>895.61</ele>
        <time>2020-07-18T05:16:10Z</time>
      </trkpt>
      <trkpt lat="40.4995143693" lon="-5.7702512573">
        <ele>896.57</ele>
        <time>2020-07-18T05:16:21Z</time>
      </trkpt>
      <trkpt lat="40.4995321389" lon="-5.7700547017">
        <ele>898.01</ele>
        <time>2020-07-18T05:16:30Z</time>
      </trkpt>
      <trkpt lat="40.4995481484" lon="-5.7698371913">
        <ele>899.45</ele>
        <time>2020-07-18T05:16:40Z</time>
      </trkpt>
      <trkpt lat="40.4995570332" lon="-5.7695957925">
        <ele>901.37</ele>
        <time>2020-07-18T05:16:51Z</time>
      </trkpt>
      <trkpt lat="40.4995600507" lon="-5.7695501111">
        <ele>901.37</ele>
        <time>2020-07-18T05:16:53Z</time>
      </trkpt>
      <trkpt lat="40.4995597154" lon="-5.7695302460">
        <ele>901.85</ele>
        <time>2020-07-18T05:16:54Z</time>
      </trkpt>
      <trkpt lat="40.4995753895" lon="-5.7693511248">
        <ele>902.82</ele>
        <time>2020-07-18T05:17:02Z</time>
      </trkpt>
      <trkpt lat="40.4996419419" lon="-5.7691326924">
        <ele>904.26</ele>
        <time>2020-07-18T05:17:13Z</time>
      </trkpt>
      <trkpt lat="40.4997047223" lon="-5.7689725142">
        <ele>904.74</ele>
        <time>2020-07-18T05:17:22Z</time>
      </trkpt>
      <trkpt lat="40.4997500684" lon="-5.7688462827">
        <ele>905.22</ele>
        <time>2020-07-18T05:17:30Z</time>
      </trkpt>
      <trkpt lat="40.4997561034" lon="-5.7688399963">
        <ele>905.22</ele>
        <time>2020-07-18T05:17:37Z</time>
      </trkpt>
      <trkpt lat="40.4997564387" lon="-5.7688360568">
        <ele>904.26</ele>
        <time>2020-07-18T05:17:54Z</time>
      </trkpt>
      <trkpt lat="40.4997524992" lon="-5.7688297704">
        <ele>904.74</ele>
        <time>2020-07-18T05:18:08Z</time>
      </trkpt>
      <trkpt lat="40.4997519124" lon="-5.7688332070">
        <ele>903.78</ele>
        <time>2020-07-18T05:18:23Z</time>
      </trkpt>
      <trkpt lat="40.4997498170" lon="-5.7688420080">
        <ele>903.78</ele>
        <time>2020-07-18T05:18:33Z</time>
      </trkpt>
      <trkpt lat="40.4998002760" lon="-5.7687145192">
        <ele>905.22</ele>
        <time>2020-07-18T05:18:40Z</time>
      </trkpt>
      <trkpt lat="40.4998588655" lon="-5.7685533352">
        <ele>907.14</ele>
        <time>2020-07-18T05:18:49Z</time>
      </trkpt>
      <trkpt lat="40.4999118391" lon="-5.7684151176">
        <ele>908.10</ele>
        <time>2020-07-18T05:18:56Z</time>
      </trkpt>
      <trkpt lat="40.4999737814" lon="-5.7683070749">
        <ele>909.06</ele>
        <time>2020-07-18T05:19:02Z</time>
      </trkpt>
      <trkpt lat="40.5000770465" lon="-5.7681758981">
        <ele>910.03</ele>
        <time>2020-07-18T05:19:10Z</time>
      </trkpt>
      <trkpt lat="40.5001931358" lon="-5.7680386025">
        <ele>910.99</ele>
        <time>2020-07-18T05:19:19Z</time>
      </trkpt>
      <trkpt lat="40.5003104825" lon="-5.7678942662">
        <ele>911.47</ele>
        <time>2020-07-18T05:19:27Z</time>
      </trkpt>
      <trkpt lat="40.5004434194" lon="-5.7677332498">
        <ele>911.47</ele>
        <time>2020-07-18T05:19:36Z</time>
      </trkpt>
      <trkpt lat="40.5005994067" lon="-5.7675002329">
        <ele>911.95</ele>
        <time>2020-07-18T05:19:46Z</time>
      </trkpt>
      <trkpt lat="40.5007797852" lon="-5.7672285754">
        <ele>911.95</ele>
        <time>2020-07-18T05:19:57Z</time>
      </trkpt>
      <trkpt lat="40.5009817891" lon="-5.7669986598">
        <ele>912.91</ele>
        <time>2020-07-18T05:20:08Z</time>
      </trkpt>
      <trkpt lat="40.5011181626" lon="-5.7668314409">
        <ele>913.39</ele>
        <time>2020-07-18T05:20:16Z</time>
      </trkpt>
      <trkpt lat="40.5012818612" lon="-5.7666436024">
        <ele>915.31</ele>
        <time>2020-07-18T05:20:25Z</time>
      </trkpt>
      <trkpt lat="40.5014437158" lon="-5.7665111683">
        <ele>916.27</ele>
        <time>2020-07-18T05:20:33Z</time>
      </trkpt>
      <trkpt lat="40.5016303807" lon="-5.7663567737">
        <ele>917.24</ele>
        <time>2020-07-18T05:20:43Z</time>
      </trkpt>
      <trkpt lat="40.5017667543" lon="-5.7662371639">
        <ele>918.20</ele>
        <time>2020-07-18T05:20:52Z</time>
      </trkpt>
      <trkpt lat="40.5018792395" lon="-5.7661246788">
        <ele>918.68</ele>
        <time>2020-07-18T05:21:00Z</time>
      </trkpt>
      <trkpt lat="40.5020373221" lon="-5.7659699488">
        <ele>919.64</ele>
        <time>2020-07-18T05:21:11Z</time>
      </trkpt>
      <trkpt lat="40.5021599494" lon="-5.7658659294">
        <ele>921.08</ele>
        <time>2020-07-18T05:21:20Z</time>
      </trkpt>
      <trkpt lat="40.5022979155" lon="-5.7657817751">
        <ele>923.48</ele>
        <time>2020-07-18T05:21:29Z</time>
      </trkpt>
      <trkpt lat="40.5024041142" lon="-5.7656992134">
        <ele>923.96</ele>
        <time>2020-07-18T05:21:36Z</time>
      </trkpt>
      <trkpt lat="40.5025404040" lon="-5.7656390313">
        <ele>925.41</ele>
        <time>2020-07-18T05:21:44Z</time>
      </trkpt>
      <trkpt lat="40.5027219560" lon="-5.7655617502">
        <ele>926.85</ele>
        <time>2020-07-18T05:21:55Z</time>
      </trkpt>
      <trkpt lat="40.5028743390" lon="-5.7654977962">
        <ele>928.29</ele>
        <time>2020-07-18T05:22:05Z</time>
      </trkpt>
      <trkpt lat="40.5029837228" lon="-5.7654620893">
        <ele>929.73</ele>
        <time>2020-07-18T05:22:12Z</time>
      </trkpt>
      <trkpt lat="40.5031242035" lon="-5.7654992212">
        <ele>930.69</ele>
        <time>2020-07-18T05:22:21Z</time>
      </trkpt>
      <trkpt lat="40.5031765066" lon="-5.7655458245">
        <ele>931.17</ele>
        <time>2020-07-18T05:22:26Z</time>
      </trkpt>
      <trkpt lat="40.5031781830" lon="-5.7655597385">
        <ele>931.17</ele>
        <time>2020-07-18T05:22:27Z</time>
      </trkpt>
      <trkpt lat="40.5031852238" lon="-5.7655723114">
        <ele>931.65</ele>
        <time>2020-07-18T05:22:28Z</time>
      </trkpt>
      <trkpt lat="40.5031940248" lon="-5.7655821182">
        <ele>931.65</ele>
        <time>2020-07-18T05:22:29Z</time>
      </trkpt>
      <trkpt lat="40.5032022391" lon="-5.7655927632">
        <ele>931.65</ele>
        <time>2020-07-18T05:22:30Z</time>
      </trkpt>
      <trkpt lat="40.5032702163" lon="-5.7657199167">
        <ele>933.58</ele>
        <time>2020-07-18T05:22:38Z</time>
      </trkpt>
      <trkpt lat="40.5033799354" lon="-5.7658147160">
        <ele>935.02</ele>
        <time>2020-07-18T05:22:47Z</time>
      </trkpt>
      <trkpt lat="40.5034087691" lon="-5.7658239361">
        <ele>935.50</ele>
        <time>2020-07-18T05:22:50Z</time>
      </trkpt>
      <trkpt lat="40.5034162290" lon="-5.7658188231">
        <ele>935.02</ele>
        <time>2020-07-18T05:22:57Z</time>
      </trkpt>
      <trkpt lat="40.5034152232" lon="-5.7658184879">
        <ele>934.06</ele>
        <time>2020-07-18T05:23:11Z</time>
      </trkpt>
      <trkpt lat="40.5034365971" lon="-5.7658270374">
        <ele>935.02</ele>
        <time>2020-07-18T05:23:26Z</time>
      </trkpt>
      <trkpt lat="40.5034505110" lon="-5.7658333238">
        <ele>935.02</ele>
        <time>2020-07-18T05:23:27Z</time>
      </trkpt>
      <trkpt lat="40.5034642573" lon="-5.7658361737">
        <ele>935.02</ele>
        <time>2020-07-18T05:23:28Z</time>
      </trkpt>
      <trkpt lat="40.5034783389" lon="-5.7658401970">
        <ele>935.50</ele>
        <time>2020-07-18T05:23:29Z</time>
      </trkpt>
      <trkpt lat="40.5034951027" lon="-5.7658453938">
        <ele>935.50</ele>
        <time>2020-07-18T05:23:30Z</time>
      </trkpt>
      <trkpt lat="40.5035118666" lon="-5.7658488303">
        <ele>935.98</ele>
        <time>2020-07-18T05:23:31Z</time>
      </trkpt>
      <trkpt lat="40.5035276245" lon="-5.7658495847">
        <ele>936.46</ele>
        <time>2020-07-18T05:23:32Z</time>
      </trkpt>
      <trkpt lat="40.5035432987" lon="-5.7658495847">
        <ele>936.46</ele>
        <time>2020-07-18T05:23:33Z</time>
      </trkpt>
      <trkpt lat="40.5035627447" lon="-5.7658525184">
        <ele>936.46</ele>
        <time>2020-07-18T05:23:34Z</time>
      </trkpt>
      <trkpt lat="40.5037050694" lon="-5.7658605650">
        <ele>937.90</ele>
        <time>2020-07-18T05:23:42Z</time>
      </trkpt>
      <trkpt lat="40.5038703606" lon="-5.7658918295">
        <ele>939.35</ele>
        <time>2020-07-18T05:23:52Z</time>
      </trkpt>
      <trkpt lat="40.5040188041" lon="-5.7659210823">
        <ele>940.31</ele>
        <time>2020-07-18T05:24:01Z</time>
      </trkpt>
      <trkpt lat="40.5041534174" lon="-5.7659209147">
        <ele>941.27</ele>
        <time>2020-07-18T05:24:09Z</time>
      </trkpt>
      <trkpt lat="40.5042939819" lon="-5.7658716291">
        <ele>941.75</ele>
        <time>2020-07-18T05:24:17Z</time>
      </trkpt>
      <trkpt lat="40.5044315290" lon="-5.7658127043">
        <ele>943.19</ele>
        <time>2020-07-18T05:24:26Z</time>
      </trkpt>
      <trkpt lat="40.5045543239" lon="-5.7657874748">
        <ele>943.67</ele>
        <time>2020-07-18T05:24:34Z</time>
      </trkpt>
      <trkpt lat="40.5046985764" lon="-5.7657774165">
        <ele>944.15</ele>
        <time>2020-07-18T05:24:43Z</time>
      </trkpt>
      <trkpt lat="40.5048418231" lon="-5.7658063341">
        <ele>944.63</ele>
        <time>2020-07-18T05:24:52Z</time>
      </trkpt>
      <trkpt lat="40.5049923621" lon="-5.7657913305">
        <ele>945.59</ele>
        <time>2020-07-18T05:25:01Z</time>
      </trkpt>
      <trkpt lat="40.5051625986" lon="-5.7656810246">
        <ele>946.56</ele>
        <time>2020-07-18T05:25:12Z</time>
      </trkpt>
      <trkpt lat="40.5052761734" lon="-5.7655351795">
        <ele>946.56</ele>
        <time>2020-07-18T05:25:21Z</time>
      </trkpt>
      <trkpt lat="40.5053797737" lon="-5.7653855626">
        <ele>947.04</ele>
        <time>2020-07-18T05:25:30Z</time>
      </trkpt>
      <trkpt lat="40.5055104475" lon="-5.7651800383">
        <ele>947.04</ele>
        <time>2020-07-18T05:25:42Z</time>
      </trkpt>
      <trkpt lat="40.5056212563" lon="-5.7650392223">
        <ele>948.96</ele>
        <time>2020-07-18T05:25:51Z</time>
      </trkpt>
      <trkpt lat="40.5057374295" lon="-5.7649046090">
        <ele>950.88</ele>
        <time>2020-07-18T05:26:00Z</time>
      </trkpt>
      <trkpt lat="40.5058711208" lon="-5.7648223825">
        <ele>952.32</ele>
        <time>2020-07-18T05:26:08Z</time>
      </trkpt>
      <trkpt lat="40.5059834383" lon="-5.7648932096">
        <ele>951.84</ele>
        <time>2020-07-18T05:26:14Z</time>
      </trkpt>
      <trkpt lat="40.5060920678" lon="-5.7650083769">
        <ele>950.40</ele>
        <time>2020-07-18T05:26:19Z</time>
      </trkpt>
      <trkpt lat="40.5061297864" lon="-5.7650203630">
        <ele>950.40</ele>
        <time>2020-07-18T05:26:20Z</time>
      </trkpt>
      <trkpt lat="40.5061739590" lon="-5.7650239673">
        <ele>950.40</ele>
        <time>2020-07-18T05:26:21Z</time>
      </trkpt>
      <trkpt lat="40.5062169582" lon="-5.7650195248">
        <ele>949.92</ele>
        <time>2020-07-18T05:26:22Z</time>
      </trkpt>
      <trkpt lat="40.5062590353" lon="-5.7650122326">
        <ele>949.92</ele>
        <time>2020-07-18T05:26:23Z</time>
      </trkpt>
      <trkpt lat="40.5066226423" lon="-5.7649717480">
        <ele>948.96</ele>
        <time>2020-07-18T05:26:31Z</time>
      </trkpt>
      <trkpt lat="40.5067974050" lon="-5.7649360411">
        <ele>949.92</ele>
        <time>2020-07-18T05:26:37Z</time>
      </trkpt>
      <trkpt lat="40.5069573317" lon="-5.7649060339">
        <ele>948.96</ele>
        <time>2020-07-18T05:26:44Z</time>
      </trkpt>
      <trkpt lat="40.5071959645" lon="-5.7648953050">
        <ele>948.00</ele>
        <time>2020-07-18T05:26:52Z</time>
      </trkpt>
      <trkpt lat="40.5074385367" lon="-5.7648952212">
        <ele>947.04</ele>
        <time>2020-07-18T05:26:59Z</time>
      </trkpt>
      <trkpt lat="40.5077989586" lon="-5.7648953050">
        <ele>947.04</ele>
        <time>2020-07-18T05:27:09Z</time>
      </trkpt>
      <trkpt lat="40.5080831051" lon="-5.7649207860">
        <ele>946.56</ele>
        <time>2020-07-18T05:27:16Z</time>
      </trkpt>
      <trkpt lat="40.5082064867" lon="-5.7649453450">
        <ele>946.56</ele>
        <time>2020-07-18T05:27:19Z</time>
      </trkpt>
      <trkpt lat="40.5085290223" lon="-5.7651061937">
        <ele>947.52</ele>
        <time>2020-07-18T05:27:27Z</time>
      </trkpt>
      <trkpt lat="40.5090230517" lon="-5.7654066011">
        <ele>946.56</ele>
        <time>2020-07-18T05:27:39Z</time>
      </trkpt>
      <trkpt lat="40.5094374530" lon="-5.7656164840">
        <ele>947.52</ele>
        <time>2020-07-18T05:27:49Z</time>
      </trkpt>
      <trkpt lat="40.5097909179" lon="-5.7657327410">
        <ele>947.04</ele>
        <time>2020-07-18T05:27:57Z</time>
      </trkpt>
      <trkpt lat="40.5102318898" lon="-5.7658553682">
        <ele>946.56</ele>
        <time>2020-07-18T05:28:07Z</time>
      </trkpt>
      <trkpt lat="40.5104768928" lon="-5.7659226749">
        <ele>946.56</ele>
        <time>2020-07-18T05:28:13Z</time>
      </trkpt>
      <trkpt lat="40.5108682439" lon="-5.7659940887">
        <ele>946.56</ele>
        <time>2020-07-18T05:28:22Z</time>
      </trkpt>
      <trkpt lat="40.5111197848" lon="-5.7660327293">
        <ele>947.04</ele>
        <time>2020-07-18T05:28:29Z</time>
      </trkpt>
      <trkpt lat="40.5114827212" lon="-5.7661511656">
        <ele>947.52</ele>
        <time>2020-07-18T05:28:40Z</time>
      </trkpt>
      <trkpt lat="40.5117749982" lon="-5.7662975136">
        <ele>947.52</ele>
        <time>2020-07-18T05:28:51Z</time>
      </trkpt>
      <trkpt lat="40.5120195821" lon="-5.7664058078">
        <ele>948.96</ele>
        <time>2020-07-18T05:29:01Z</time>
      </trkpt>
      <trkpt lat="40.5122781638" lon="-5.7664974220">
        <ele>950.88</ele>
        <time>2020-07-18T05:29:12Z</time>
      </trkpt>
      <trkpt lat="40.5125145335" lon="-5.7665099110">
        <ele>952.32</ele>
        <time>2020-07-18T05:29:22Z</time>
      </trkpt>
      <trkpt lat="40.5127002764" lon="-5.7664301153">
        <ele>953.28</ele>
        <time>2020-07-18T05:29:30Z</time>
      </trkpt>
      <trkpt lat="40.5129402503" lon="-5.7663100027">
        <ele>952.80</ele>
        <time>2020-07-18T05:29:40Z</time>
      </trkpt>
      <trkpt lat="40.5132316053" lon="-5.7662463840">
        <ele>953.28</ele>
        <time>2020-07-18T05:29:51Z</time>
      </trkpt>
      <trkpt lat="40.5135686416" lon="-5.7662764750">
        <ele>952.32</ele>
        <time>2020-07-18T05:30:03Z</time>
      </trkpt>
      <trkpt lat="40.5138066877" lon="-5.7663340587">
        <ele>952.80</ele>
        <time>2020-07-18T05:30:12Z</time>
      </trkpt>
      <trkpt lat="40.5140232760" lon="-5.7664590329">
        <ele>952.80</ele>
        <time>2020-07-18T05:30:21Z</time>
      </trkpt>
      <trkpt lat="40.5142717157" lon="-5.7666674070">
        <ele>953.77</ele>
        <time>2020-07-18T05:30:31Z</time>
      </trkpt>
      <trkpt lat="40.5144773237" lon="-5.7668231428">
        <ele>953.28</ele>
        <time>2020-07-18T05:30:39Z</time>
      </trkpt>
      <trkpt lat="40.5146862008" lon="-5.7669722568">
        <ele>951.36</ele>
        <time>2020-07-18T05:30:47Z</time>
      </trkpt>
      <trkpt lat="40.5149549246" lon="-5.7671212871">
        <ele>950.40</ele>
        <time>2020-07-18T05:30:57Z</time>
      </trkpt>
      <trkpt lat="40.5151907913" lon="-5.7672122307">
        <ele>951.36</ele>
        <time>2020-07-18T05:31:06Z</time>
      </trkpt>
      <trkpt lat="40.5154295079" lon="-5.7671976462">
        <ele>953.28</ele>
        <time>2020-07-18T05:31:16Z</time>
      </trkpt>
      <trkpt lat="40.5157579109" lon="-5.7671274897">
        <ele>954.25</ele>
        <time>2020-07-18T05:31:29Z</time>
      </trkpt>
      <trkpt lat="40.5160439014" lon="-5.7670810539">
        <ele>955.69</ele>
        <time>2020-07-18T05:31:40Z</time>
      </trkpt>
      <trkpt lat="40.5162579753" lon="-5.7670352887">
        <ele>956.17</ele>
        <time>2020-07-18T05:31:49Z</time>
      </trkpt>
      <trkpt lat="40.5163930077" lon="-5.7670103107">
        <ele>956.65</ele>
        <time>2020-07-18T05:31:55Z</time>
      </trkpt>
      <trkpt lat="40.5165959336" lon="-5.7669665571">
        <ele>957.61</ele>
        <time>2020-07-18T05:32:03Z</time>
      </trkpt>
      <trkpt lat="40.5168442894" lon="-5.7669040281">
        <ele>958.57</ele>
        <time>2020-07-18T05:32:12Z</time>
      </trkpt>
      <trkpt lat="40.5171088222" lon="-5.7667799760">
        <ele>958.09</ele>
        <time>2020-07-18T05:32:21Z</time>
      </trkpt>
      <trkpt lat="40.5174219701" lon="-5.7665405050">
        <ele>956.65</ele>
        <time>2020-07-18T05:32:32Z</time>
      </trkpt>
      <trkpt lat="40.5177685618" lon="-5.7662514970">
        <ele>955.21</ele>
        <time>2020-07-18T05:32:44Z</time>
      </trkpt>
      <trkpt lat="40.5180606712" lon="-5.7660092600">
        <ele>954.25</ele>
        <time>2020-07-18T05:32:53Z</time>
      </trkpt>
      <trkpt lat="40.5183995515" lon="-5.7657370158">
        <ele>953.77</ele>
        <time>2020-07-18T05:33:03Z</time>
      </trkpt>
      <trkpt lat="40.5187401921" lon="-5.7655146439">
        <ele>952.32</ele>
        <time>2020-07-18T05:33:12Z</time>
      </trkpt>
      <trkpt lat="40.5191027932" lon="-5.7653790247">
        <ele>950.40</ele>
        <time>2020-07-18T05:33:20Z</time>
      </trkpt>
      <trkpt lat="40.5194776319" lon="-5.7654131390">
        <ele>947.04</ele>
        <time>2020-07-18T05:33:26Z</time>
      </trkpt>
      <trkpt lat="40.5200343579" lon="-5.7654568087">
        <ele>941.75</ele>
        <time>2020-07-18T05:33:32Z</time>
      </trkpt>
      <trkpt lat="40.5206448119" lon="-5.7653672900">
        <ele>939.35</ele>
        <time>2020-07-18T05:33:38Z</time>
      </trkpt>
      <trkpt lat="40.5212845188" lon="-5.7651424035">
        <ele>937.90</ele>
        <time>2020-07-18T05:33:45Z</time>
      </trkpt>
      <trkpt lat="40.5217857566" lon="-5.7647627871">
        <ele>937.90</ele>
        <time>2020-07-18T05:33:52Z</time>
      </trkpt>
      <trkpt lat="40.5220232159" lon="-5.7645862643">
        <ele>937.90</ele>
        <time>2020-07-18T05:33:56Z</time>
      </trkpt>
      <trkpt lat="40.5223595817" lon="-5.7643916365">
        <ele>937.90</ele>
        <time>2020-07-18T05:34:03Z</time>
      </trkpt>
      <trkpt lat="40.5225138087" lon="-5.7643396687">
        <ele>939.35</ele>
        <time>2020-07-18T05:34:08Z</time>
      </trkpt>
      <trkpt lat="40.5225407984" lon="-5.7643555943">
        <ele>939.35</ele>
        <time>2020-07-18T05:34:09Z</time>
      </trkpt>
      <trkpt lat="40.5225565564" lon="-5.7643735316">
        <ele>939.35</ele>
        <time>2020-07-18T05:34:10Z</time>
      </trkpt>
      <trkpt lat="40.5225723982" lon="-5.7643964980">
        <ele>939.83</ele>
        <time>2020-07-18T05:34:11Z</time>
      </trkpt>
      <trkpt lat="40.5225874856" lon="-5.7644079812">
        <ele>939.83</ele>
        <time>2020-07-18T05:34:12Z</time>
      </trkpt>
      <trkpt lat="40.5226029083" lon="-5.7644155249">
        <ele>940.31</ele>
        <time>2020-07-18T05:34:18Z</time>
      </trkpt>
      <trkpt lat="40.5226117093" lon="-5.7644241583">
        <ele>943.19</ele>
        <time>2020-07-18T05:34:36Z</time>
      </trkpt>
      <trkpt lat="40.5226110388" lon="-5.7644306961">
        <ele>944.63</ele>
        <time>2020-07-18T05:34:55Z</time>
      </trkpt>
      <trkpt lat="40.5226173252" lon="-5.7644377369">
        <ele>945.11</ele>
        <time>2020-07-18T05:35:19Z</time>
      </trkpt>
      <trkpt lat="40.5226117931" lon="-5.7644319534">
        <ele>944.63</ele>
        <time>2020-07-18T05:35:35Z</time>
      </trkpt>
      <trkpt lat="40.5225991365" lon="-5.7644354738">
        <ele>944.63</ele>
        <time>2020-07-18T05:35:44Z</time>
      </trkpt>
      <trkpt lat="40.5225836299" lon="-5.7644336298">
        <ele>945.11</ele>
        <time>2020-07-18T05:36:04Z</time>
      </trkpt>
      <trkpt lat="40.5225908384" lon="-5.7644232363">
        <ele>944.63</ele>
        <time>2020-07-18T05:36:20Z</time>
      </trkpt>
      <trkpt lat="40.5225950293" lon="-5.7644011918">
        <ele>944.15</ele>
        <time>2020-07-18T05:36:28Z</time>
      </trkpt>
      <trkpt lat="40.5225965381" lon="-5.7643848471">
        <ele>944.15</ele>
        <time>2020-07-18T05:36:44Z</time>
      </trkpt>
      <trkpt lat="40.5225998908" lon="-5.7642516587">
        <ele>944.63</ele>
        <time>2020-07-18T05:36:49Z</time>
      </trkpt>
      <trkpt lat="40.5227117892" lon="-5.7640400995">
        <ele>944.63</ele>
        <time>2020-07-18T05:36:56Z</time>
      </trkpt>
      <trkpt lat="40.5228353385" lon="-5.7637432963">
        <ele>944.15</ele>
        <time>2020-07-18T05:37:07Z</time>
      </trkpt>
      <trkpt lat="40.5228796788" lon="-5.7636508439">
        <ele>944.15</ele>
        <time>2020-07-18T05:37:12Z</time>
      </trkpt>
      <trkpt lat="40.5228866357" lon="-5.7636279613">
        <ele>944.15</ele>
        <time>2020-07-18T05:37:13Z</time>
      </trkpt>
      <trkpt lat="40.5228926707" lon="-5.7636031508">
        <ele>944.15</ele>
        <time>2020-07-18T05:37:14Z</time>
      </trkpt>
      <trkpt lat="40.5229010526" lon="-5.7635813579">
        <ele>944.15</ele>
        <time>2020-07-18T05:37:15Z</time>
      </trkpt>
      <trkpt lat="40.5229108594" lon="-5.7635598164">
        <ele>944.15</ele>
        <time>2020-07-18T05:37:16Z</time>
      </trkpt>
      <trkpt lat="40.5230378453" lon="-5.7632530387">
        <ele>944.63</ele>
        <time>2020-07-18T05:37:29Z</time>
      </trkpt>
      <trkpt lat="40.5231107678" lon="-5.7630705647">
        <ele>945.11</ele>
        <time>2020-07-18T05:37:37Z</time>
      </trkpt>
      <trkpt lat="40.5232155416" lon="-5.7628181018">
        <ele>946.56</ele>
        <time>2020-07-18T05:37:48Z</time>
      </trkpt>
      <trkpt lat="40.5233359896" lon="-5.7625397388">
        <ele>947.52</ele>
        <time>2020-07-18T05:38:00Z</time>
      </trkpt>
      <trkpt lat="40.5234561861" lon="-5.7622971665">
        <ele>948.00</ele>
        <time>2020-07-18T05:38:11Z</time>
      </trkpt>
      <trkpt lat="40.5235765502" lon="-5.7620898820">
        <ele>948.00</ele>
        <time>2020-07-18T05:38:20Z</time>
      </trkpt>
      <trkpt lat="40.5237363931" lon="-5.7619011216">
        <ele>948.96</ele>
        <time>2020-07-18T05:38:29Z</time>
      </trkpt>
      <trkpt lat="40.5239759479" lon="-5.7617381774">
        <ele>950.40</ele>
        <time>2020-07-18T05:38:39Z</time>
      </trkpt>
      <trkpt lat="40.5242372118" lon="-5.7615800947">
        <ele>951.84</ele>
        <time>2020-07-18T05:38:50Z</time>
      </trkpt>
      <trkpt lat="40.5244834721" lon="-5.7614023983">
        <ele>951.84</ele>
        <time>2020-07-18T05:39:00Z</time>
      </trkpt>
      <trkpt lat="40.5246393755" lon="-5.7611777633">
        <ele>951.36</ele>
        <time>2020-07-18T05:39:09Z</time>
      </trkpt>
      <trkpt lat="40.5248556286" lon="-5.7608282380">
        <ele>950.40</ele>
        <time>2020-07-18T05:39:22Z</time>
      </trkpt>
      <trkpt lat="40.5250228476" lon="-5.7605653815">
        <ele>950.40</ele>
        <time>2020-07-18T05:39:32Z</time>
      </trkpt>
      <trkpt lat="40.5252188165" lon="-5.7602461986">
        <ele>950.88</ele>
        <time>2020-07-18T05:39:44Z</time>
      </trkpt>
      <trkpt lat="40.5253998656" lon="-5.7599728648">
        <ele>951.36</ele>
        <time>2020-07-18T05:39:55Z</time>
      </trkpt>
      <trkpt lat="40.5255892966" lon="-5.7596898917">
        <ele>952.80</ele>
        <time>2020-07-18T05:40:06Z</time>
      </trkpt>
      <trkpt lat="40.5257804040" lon="-5.7594327349">
        <ele>953.28</ele>
        <time>2020-07-18T05:40:16Z</time>
      </trkpt>
      <trkpt lat="40.5259630457" lon="-5.7591926772">
        <ele>954.25</ele>
        <time>2020-07-18T05:40:26Z</time>
      </trkpt>
      <trkpt lat="40.5261228047" lon="-5.7589564752">
        <ele>954.73</ele>
        <time>2020-07-18T05:40:35Z</time>
      </trkpt>
      <trkpt lat="40.5262895208" lon="-5.7586840633">
        <ele>956.17</ele>
        <time>2020-07-18T05:40:45Z</time>
      </trkpt>
      <trkpt lat="40.5264436640" lon="-5.7583788782">
        <ele>957.13</ele>
        <time>2020-07-18T05:40:55Z</time>
      </trkpt>
      <trkpt lat="40.5265366193" lon="-5.7580728550">
        <ele>956.65</ele>
        <time>2020-07-18T05:41:04Z</time>
      </trkpt>
      <trkpt lat="40.5266043451" lon="-5.7576786540">
        <ele>955.69</ele>
        <time>2020-07-18T05:41:14Z</time>
      </trkpt>
      <trkpt lat="40.5267205182" lon="-5.7574099302">
        <ele>956.17</ele>
        <time>2020-07-18T05:41:21Z</time>
      </trkpt>
      <trkpt lat="40.5269096140" lon="-5.7571333274">
        <ele>956.65</ele>
        <time>2020-07-18T05:41:30Z</time>
      </trkpt>
      <trkpt lat="40.5271654297" lon="-5.7567847241">
        <ele>958.09</ele>
        <time>2020-07-18T05:41:42Z</time>
      </trkpt>
      <trkpt lat="40.5274007935" lon="-5.7564379647">
        <ele>958.57</ele>
        <time>2020-07-18T05:41:54Z</time>
      </trkpt>
      <trkpt lat="40.5275872070" lon="-5.7561886031">
        <ele>959.53</ele>
        <time>2020-07-18T05:42:03Z</time>
      </trkpt>
      <trkpt lat="40.5278328806" lon="-5.7559292670">
        <ele>960.98</ele>
        <time>2020-07-18T05:42:14Z</time>
      </trkpt>
      <trkpt lat="40.5280929711" lon="-5.7557323761">
        <ele>962.42</ele>
        <time>2020-07-18T05:42:24Z</time>
      </trkpt>
      <trkpt lat="40.5283706635" lon="-5.7555829268">
        <ele>963.86</ele>
        <time>2020-07-18T05:42:34Z</time>
      </trkpt>
      <trkpt lat="40.5286423210" lon="-5.7554294541">
        <ele>965.30</ele>
        <time>2020-07-18T05:42:44Z</time>
      </trkpt>
      <trkpt lat="40.5288776848" lon="-5.7552839443">
        <ele>965.30</ele>
        <time>2020-07-18T05:42:53Z</time>
      </trkpt>
      <trkpt lat="40.5291041639" lon="-5.7550963573">
        <ele>965.30</ele>
        <time>2020-07-18T05:43:01Z</time>
      </trkpt>
      <trkpt lat="40.5293262843" lon="-5.7548589818">
        <ele>965.30</ele>
        <time>2020-07-18T05:43:10Z</time>
      </trkpt>
      <trkpt lat="40.5295673478" lon="-5.7545942813">
        <ele>964.82</ele>
        <time>2020-07-18T05:43:20Z</time>
      </trkpt>
      <trkpt lat="40.5297815893" lon="-5.7543684728">
        <ele>965.78</ele>
        <time>2020-07-18T05:43:29Z</time>
      </trkpt>
      <trkpt lat="40.5299920589" lon="-5.7541243918">
        <ele>966.26</ele>
        <time>2020-07-18T05:43:38Z</time>
      </trkpt>
      <trkpt lat="40.5302079767" lon="-5.7538365573">
        <ele>966.26</ele>
        <time>2020-07-18T05:43:48Z</time>
      </trkpt>
      <trkpt lat="40.5304339528" lon="-5.7535348926">
        <ele>967.70</ele>
        <time>2020-07-18T05:43:59Z</time>
      </trkpt>
      <trkpt lat="40.5306290835" lon="-5.7532371674">
        <ele>967.22</ele>
        <time>2020-07-18T05:44:09Z</time>
      </trkpt>
      <trkpt lat="40.5307573266" lon="-5.7530183159">
        <ele>967.22</ele>
        <time>2020-07-18T05:44:17Z</time>
      </trkpt>
      <trkpt lat="40.5309424829" lon="-5.7526875660">
        <ele>967.70</ele>
        <time>2020-07-18T05:44:29Z</time>
      </trkpt>
      <trkpt lat="40.5310784373" lon="-5.7524485141">
        <ele>968.67</ele>
        <time>2020-07-18T05:44:38Z</time>
      </trkpt>
      <trkpt lat="40.5312219355" lon="-5.7521859091">
        <ele>969.63</ele>
        <time>2020-07-18T05:44:48Z</time>
      </trkpt>
      <trkpt lat="40.5313038267" lon="-5.7520306762">
        <ele>970.59</ele>
        <time>2020-07-18T05:44:55Z</time>
      </trkpt>
      <trkpt lat="40.5314140487" lon="-5.7517679036">
        <ele>971.55</ele>
        <time>2020-07-18T05:45:06Z</time>
      </trkpt>
      <trkpt lat="40.5315184873" lon="-5.7515286002">
        <ele>972.51</ele>
        <time>2020-07-18T05:45:16Z</time>
      </trkpt>
      <trkpt lat="40.5316131189" lon="-5.7512776460">
        <ele>972.51</ele>
        <time>2020-07-18T05:45:27Z</time>
      </trkpt>
      <trkpt lat="40.5317152943" lon="-5.7510065753">
        <ele>973.47</ele>
        <time>2020-07-18T05:45:39Z</time>
      </trkpt>
      <trkpt lat="40.5317997839" lon="-5.7508409489">
        <ele>975.39</ele>
        <time>2020-07-18T05:45:47Z</time>
      </trkpt>
      <trkpt lat="40.5319028813" lon="-5.7507063355">
        <ele>976.36</ele>
        <time>2020-07-18T05:45:56Z</time>
      </trkpt>
      <trkpt lat="40.5320568569" lon="-5.7505752426">
        <ele>978.76</ele>
        <time>2020-07-18T05:46:06Z</time>
      </trkpt>
      <trkpt lat="40.5321979243" lon="-5.7505074330">
        <ele>982.12</ele>
        <time>2020-07-18T05:46:15Z</time>
      </trkpt>
      <trkpt lat="40.5323095713" lon="-5.7504463289">
        <ele>984.05</ele>
        <time>2020-07-18T05:46:23Z</time>
      </trkpt>
      <trkpt lat="40.5324596912" lon="-5.7503844704">
        <ele>986.93</ele>
        <time>2020-07-18T05:46:32Z</time>
      </trkpt>
      <trkpt lat="40.5325578433" lon="-5.7503418066">
        <ele>987.89</ele>
        <time>2020-07-18T05:46:39Z</time>
      </trkpt>
      <trkpt lat="40.5325879343" lon="-5.7503226958">
        <ele>988.37</ele>
        <time>2020-07-18T05:46:41Z</time>
      </trkpt>
      <trkpt lat="40.5326062068" lon="-5.7503155712">
        <ele>988.85</ele>
        <time>2020-07-18T05:46:42Z</time>
      </trkpt>
      <trkpt lat="40.5326232221" lon="-5.7503076084">
        <ele>988.85</ele>
        <time>2020-07-18T05:46:43Z</time>
      </trkpt>
      <trkpt lat="40.5326402374" lon="-5.7502990589">
        <ele>989.33</ele>
        <time>2020-07-18T05:46:44Z</time>
      </trkpt>
      <trkpt lat="40.5326564144" lon="-5.7502910122">
        <ele>989.33</ele>
        <time>2020-07-18T05:46:45Z</time>
      </trkpt>
      <trkpt lat="40.5326731782" lon="-5.7502835523">
        <ele>989.33</ele>
        <time>2020-07-18T05:46:46Z</time>
      </trkpt>
      <trkpt lat="40.5328072887" lon="-5.7502105460">
        <ele>990.78</ele>
        <time>2020-07-18T05:46:54Z</time>
      </trkpt>
      <trkpt lat="40.5329538044" lon="-5.7501377910">
        <ele>991.74</ele>
        <time>2020-07-18T05:47:03Z</time>
      </trkpt>
      <trkpt lat="40.5331176706" lon="-5.7500465121">
        <ele>992.70</ele>
        <time>2020-07-18T05:47:13Z</time>
      </trkpt>
      <trkpt lat="40.5332644377" lon="-5.7499418221">
        <ele>993.18</ele>
        <time>2020-07-18T05:47:23Z</time>
      </trkpt>
      <trkpt lat="40.5334096961" lon="-5.7498050295">
        <ele>993.66</ele>
        <time>2020-07-18T05:47:33Z</time>
      </trkpt>
      <trkpt lat="40.5335520208" lon="-5.7496417500">
        <ele>993.18</ele>
        <time>2020-07-18T05:47:43Z</time>
      </trkpt>
      <trkpt lat="40.5337275378" lon="-5.7494491339">
        <ele>992.22</ele>
        <time>2020-07-18T05:47:53Z</time>
      </trkpt>
      <trkpt lat="40.5339122750" lon="-5.7493100781">
        <ele>992.22</ele>
        <time>2020-07-18T05:48:02Z</time>
      </trkpt>
      <trkpt lat="40.5341991037" lon="-5.7491806615">
        <ele>992.70</ele>
        <time>2020-07-18T05:48:12Z</time>
      </trkpt>
      <trkpt lat="40.5344580207" lon="-5.7491022069">
        <ele>994.14</ele>
        <time>2020-07-18T05:48:21Z</time>
      </trkpt>
      <trkpt lat="40.5347404070" lon="-5.7490289491">
        <ele>996.06</ele>
        <time>2020-07-18T05:48:31Z</time>
      </trkpt>
      <trkpt lat="40.5350463465" lon="-5.7489258517">
        <ele>997.51</ele>
        <time>2020-07-18T05:48:42Z</time>
      </trkpt>
      <trkpt lat="40.5353804491" lon="-5.7487639133">
        <ele>997.99</ele>
        <time>2020-07-18T05:48:54Z</time>
      </trkpt>
      <trkpt lat="40.5356593151" lon="-5.7486712933">
        <ele>999.43</ele>
        <time>2020-07-18T05:49:04Z</time>
      </trkpt>
      <trkpt lat="40.5359237641" lon="-5.7486484945">
        <ele>1001.35</ele>
        <time>2020-07-18T05:49:14Z</time>
      </trkpt>
      <trkpt lat="40.5361314677" lon="-5.7486381847">
        <ele>1002.31</ele>
        <time>2020-07-18T05:49:22Z</time>
      </trkpt>
      <trkpt lat="40.5364620499" lon="-5.7486153860">
        <ele>1004.23</ele>
        <time>2020-07-18T05:49:35Z</time>
      </trkpt>
      <trkpt lat="40.5366782192" lon="-5.7485857978">
        <ele>1004.72</ele>
        <time>2020-07-18T05:49:43Z</time>
      </trkpt>
      <trkpt lat="40.5369909480" lon="-5.7485510129">
        <ele>1005.20</ele>
        <time>2020-07-18T05:49:54Z</time>
      </trkpt>
      <trkpt lat="40.5372730829" lon="-5.7485097740">
        <ele>1005.20</ele>
        <time>2020-07-18T05:50:04Z</time>
      </trkpt>
      <trkpt lat="40.5375884939" lon="-5.7484507654">
        <ele>1005.68</ele>
        <time>2020-07-18T05:50:15Z</time>
      </trkpt>
      <trkpt lat="40.5378322396" lon="-5.7483663596">
        <ele>1006.16</ele>
        <time>2020-07-18T05:50:24Z</time>
      </trkpt>
      <trkpt lat="40.5381082557" lon="-5.7482458279">
        <ele>1006.64</ele>
        <time>2020-07-18T05:50:35Z</time>
      </trkpt>
      <trkpt lat="40.5383899715" lon="-5.7481105439">
        <ele>1007.12</ele>
        <time>2020-07-18T05:50:46Z</time>
      </trkpt>
      <trkpt lat="40.5386698432" lon="-5.7479792833">
        <ele>1008.56</ele>
        <time>2020-07-18T05:50:57Z</time>
      </trkpt>
      <trkpt lat="40.5389324483" lon="-5.7478478551">
        <ele>1009.04</ele>
        <time>2020-07-18T05:51:08Z</time>
      </trkpt>
      <trkpt lat="40.5391803849" lon="-5.7477295026">
        <ele>1009.52</ele>
        <time>2020-07-18T05:51:18Z</time>
      </trkpt>
      <trkpt lat="40.5394519586" lon="-5.7475587633">
        <ele>1010.96</ele>
        <time>2020-07-18T05:51:30Z</time>
      </trkpt>
      <trkpt lat="40.5396268051" lon="-5.7473648060">
        <ele>1010.96</ele>
        <time>2020-07-18T05:51:39Z</time>
      </trkpt>
      <trkpt lat="40.5397927668" lon="-5.7470780611">
        <ele>1011.93</ele>
        <time>2020-07-18T05:51:49Z</time>
      </trkpt>
      <trkpt lat="40.5399315711" lon="-5.7468141988">
        <ele>1011.93</ele>
        <time>2020-07-18T05:51:58Z</time>
      </trkpt>
      <trkpt lat="40.5401141290" lon="-5.7464811020">
        <ele>1010.96</ele>
        <time>2020-07-18T05:52:09Z</time>
      </trkpt>
      <trkpt lat="40.5402873829" lon="-5.7462905813">
        <ele>1010.96</ele>
        <time>2020-07-18T05:52:17Z</time>
      </trkpt>
      <trkpt lat="40.5404683482" lon="-5.7461448200">
        <ele>1010.00</ele>
        <time>2020-07-18T05:52:24Z</time>
      </trkpt>
      <trkpt lat="40.5407602061" lon="-5.7459613401">
        <ele>1010.00</ele>
        <time>2020-07-18T05:52:33Z</time>
      </trkpt>
      <trkpt lat="40.5411467794" lon="-5.7457160857">
        <ele>1008.08</ele>
        <time>2020-07-18T05:52:42Z</time>
      </trkpt>
      <trkpt lat="40.5415556487" lon="-5.7454505470">
        <ele>1006.64</ele>
        <time>2020-07-18T05:52:50Z</time>
      </trkpt>
      <trkpt lat="40.5419774260" lon="-5.7451595273">
        <ele>1005.20</ele>
        <time>2020-07-18T05:52:58Z</time>
      </trkpt>
      <trkpt lat="40.5424143746" lon="-5.7448581140">
        <ele>1004.72</ele>
        <time>2020-07-18T05:53:07Z</time>
      </trkpt>
      <trkpt lat="40.5425978545" lon="-5.7447698526">
        <ele>1004.72</ele>
        <time>2020-07-18T05:53:11Z</time>
      </trkpt>
      <trkpt lat="40.5426429491" lon="-5.7447581179">
        <ele>1005.20</ele>
        <time>2020-07-18T05:53:12Z</time>
      </trkpt>
      <trkpt lat="40.5427324679" lon="-5.7447395939">
        <ele>1005.20</ele>
        <time>2020-07-18T05:53:14Z</time>
      </trkpt>
      <trkpt lat="40.5431536585" lon="-5.7447060663">
        <ele>1007.12</ele>
        <time>2020-07-18T05:53:24Z</time>
      </trkpt>
      <trkpt lat="40.5433443468" lon="-5.7446851954">
        <ele>1007.12</ele>
        <time>2020-07-18T05:53:31Z</time>
      </trkpt>
      <trkpt lat="40.5434098095" lon="-5.7447054796">
        <ele>1007.12</ele>
        <time>2020-07-18T05:53:34Z</time>
      </trkpt>
      <trkpt lat="40.5436158367" lon="-5.7447011210">
        <ele>1006.64</ele>
        <time>2020-07-18T05:53:40Z</time>
      </trkpt>
      <trkpt lat="40.5439615902" lon="-5.7447089162">
        <ele>1006.64</ele>
        <time>2020-07-18T05:53:48Z</time>
      </trkpt>
      <trkpt lat="40.5443501752" lon="-5.7446961757">
        <ele>1006.16</ele>
        <time>2020-07-18T05:53:57Z</time>
      </trkpt>
      <trkpt lat="40.5448560230" lon="-5.7446817588">
        <ele>1005.20</ele>
        <time>2020-07-18T05:54:08Z</time>
      </trkpt>
      <trkpt lat="40.5452096555" lon="-5.7446834352">
        <ele>1003.27</ele>
        <time>2020-07-18T05:54:16Z</time>
      </trkpt>
      <trkpt lat="40.5452499725" lon="-5.7446862850">
        <ele>1003.27</ele>
        <time>2020-07-18T05:54:17Z</time>
      </trkpt>
      <trkpt lat="40.5452882778" lon="-5.7446955051">
        <ele>1003.27</ele>
        <time>2020-07-18T05:54:18Z</time>
      </trkpt>
      <trkpt lat="40.5453196261" lon="-5.7447048929">
        <ele>1003.75</ele>
        <time>2020-07-18T05:54:19Z</time>
      </trkpt>
      <trkpt lat="40.5453439336" lon="-5.7447143644">
        <ele>1003.75</ele>
        <time>2020-07-18T05:54:20Z</time>
      </trkpt>
      <trkpt lat="40.5453613680" lon="-5.7447253447">
        <ele>1003.75</ele>
        <time>2020-07-18T05:54:21Z</time>
      </trkpt>
      <trkpt lat="40.5453725159" lon="-5.7447357383">
        <ele>1003.75</ele>
        <time>2020-07-18T05:54:22Z</time>
      </trkpt>
      <trkpt lat="40.5453839153" lon="-5.7447407674">
        <ele>1003.75</ele>
        <time>2020-07-18T05:54:27Z</time>
      </trkpt>
      <trkpt lat="40.5453777127" lon="-5.7447481435">
        <ele>1003.75</ele>
        <time>2020-07-18T05:54:36Z</time>
      </trkpt>
      <trkpt lat="40.5453663971" lon="-5.7447492331">
        <ele>1002.31</ele>
        <time>2020-07-18T05:55:00Z</time>
      </trkpt>
      <trkpt lat="40.5453702528" lon="-5.7447613031">
        <ele>1001.35</ele>
        <time>2020-07-18T05:55:20Z</time>
      </trkpt>
      <trkpt lat="40.5453778803" lon="-5.7447625604">
        <ele>1001.83</ele>
        <time>2020-07-18T05:55:42Z</time>
      </trkpt>
      <trkpt lat="40.5453736894" lon="-5.7447478082">
        <ele>1001.35</ele>
        <time>2020-07-18T05:56:04Z</time>
      </trkpt>
      <trkpt lat="40.5453782994" lon="-5.7447634824">
        <ele>1002.31</ele>
        <time>2020-07-18T05:56:25Z</time>
      </trkpt>
      <trkpt lat="40.5453751143" lon="-5.7447551843">
        <ele>1002.31</ele>
        <time>2020-07-18T05:56:43Z</time>
      </trkpt>
      <trkpt lat="40.5453780480" lon="-5.7447566092">
        <ele>1002.31</ele>
        <time>2020-07-18T05:57:04Z</time>
      </trkpt>
      <trkpt lat="40.5453700852" lon="-5.7447566092">
        <ele>1001.83</ele>
        <time>2020-07-18T05:57:22Z</time>
      </trkpt>
      <trkpt lat="40.5453751143" lon="-5.7447562739">
        <ele>1002.31</ele>
        <time>2020-07-18T05:57:39Z</time>
      </trkpt>
      <trkpt lat="40.5453808978" lon="-5.7447484788">
        <ele>1002.31</ele>
        <time>2020-07-18T05:57:54Z</time>
      </trkpt>
      <trkpt lat="40.5453837477" lon="-5.7447533403">
        <ele>1003.27</ele>
        <time>2020-07-18T05:58:11Z</time>
      </trkpt>
      <trkpt lat="40.5453808140" lon="-5.7447670028">
        <ele>1003.27</ele>
        <time>2020-07-18T05:58:31Z</time>
      </trkpt>
      <trkpt lat="40.5453844182" lon="-5.7447690982">
        <ele>1003.75</ele>
        <time>2020-07-18T05:58:50Z</time>
      </trkpt>
      <trkpt lat="40.5453859270" lon="-5.7447628118">
        <ele>1002.31</ele>
        <time>2020-07-18T05:59:09Z</time>
      </trkpt>
      <trkpt lat="40.5453848373" lon="-5.7447644882">
        <ele>1001.83</ele>
        <time>2020-07-18T05:59:30Z</time>
      </trkpt>
      <trkpt lat="40.5453814007" lon="-5.7447497360">
        <ele>1001.83</ele>
        <time>2020-07-18T05:59:48Z</time>
      </trkpt>
      <trkpt lat="40.5453758687" lon="-5.7447461318">
        <ele>1001.83</ele>
        <time>2020-07-18T06:00:02Z</time>
      </trkpt>
      <trkpt lat="40.5453742761" lon="-5.7447393425">
        <ele>1000.87</ele>
        <time>2020-07-18T06:00:18Z</time>
      </trkpt>
      <trkpt lat="40.5453874357" lon="-5.7447088324">
        <ele>1001.35</ele>
        <time>2020-07-18T06:00:24Z</time>
      </trkpt>
      <trkpt lat="40.5453915428" lon="-5.7447060663">
        <ele>1000.87</ele>
        <time>2020-07-18T06:00:27Z</time>
      </trkpt>
      <trkpt lat="40.5454011820" lon="-5.7446973491">
        <ele>1000.87</ele>
        <time>2020-07-18T06:00:28Z</time>
      </trkpt>
      <trkpt lat="40.5454154313" lon="-5.7446893863">
        <ele>1000.87</ele>
        <time>2020-07-18T06:00:29Z</time>
      </trkpt>
      <trkpt lat="40.5454374757" lon="-5.7446823455">
        <ele>1000.87</ele>
        <time>2020-07-18T06:00:30Z</time>
      </trkpt>
      <trkpt lat="40.5454638787" lon="-5.7446781546">
        <ele>1000.39</ele>
        <time>2020-07-18T06:00:31Z</time>
      </trkpt>
      <trkpt lat="40.5457186885" lon="-5.7446552720">
        <ele>999.91</ele>
        <time>2020-07-18T06:00:38Z</time>
      </trkpt>
      <trkpt lat="40.5458900146" lon="-5.7446364127">
        <ele>999.91</ele>
        <time>2020-07-18T06:00:42Z</time>
      </trkpt>
      <trkpt lat="40.5459372047" lon="-5.7446288690">
        <ele>999.91</ele>
        <time>2020-07-18T06:00:43Z</time>
      </trkpt>
      <trkpt lat="40.5463544559" lon="-5.7445843611">
        <ele>998.95</ele>
        <time>2020-07-18T06:00:52Z</time>
      </trkpt>
      <trkpt lat="40.5463904981" lon="-5.7445781585">
        <ele>998.95</ele>
        <time>2020-07-18T06:00:53Z</time>
      </trkpt>
      <trkpt lat="40.5465179030" lon="-5.7445732132">
        <ele>998.95</ele>
        <time>2020-07-18T06:00:56Z</time>
      </trkpt>
      <trkpt lat="40.5469034705" lon="-5.7446155418">
        <ele>998.95</ele>
        <time>2020-07-18T06:01:05Z</time>
      </trkpt>
      <trkpt lat="40.5470654927" lon="-5.7446781546">
        <ele>999.91</ele>
        <time>2020-07-18T06:01:09Z</time>
      </trkpt>
      <trkpt lat="40.5471012834" lon="-5.7447007857">
        <ele>999.91</ele>
        <time>2020-07-18T06:01:10Z</time>
      </trkpt>
      <trkpt lat="40.5471406784" lon="-5.7447253447">
        <ele>1000.39</ele>
        <time>2020-07-18T06:01:11Z</time>
      </trkpt>
      <trkpt lat="40.5474568438" lon="-5.7450108323">
        <ele>1001.35</ele>
        <time>2020-07-18T06:01:21Z</time>
      </trkpt>
      <trkpt lat="40.5476342048" lon="-5.7452539913">
        <ele>1002.31</ele>
        <time>2020-07-18T06:01:29Z</time>
      </trkpt>
      <trkpt lat="40.5478407349" lon="-5.7455555722">
        <ele>1003.75</ele>
        <time>2020-07-18T06:01:40Z</time>
      </trkpt>
      <trkpt lat="40.5480280705" lon="-5.7458336838">
        <ele>1005.20</ele>
        <time>2020-07-18T06:01:50Z</time>
      </trkpt>
      <trkpt lat="40.5482413899" lon="-5.7461081911">
        <ele>1004.72</ele>
        <time>2020-07-18T06:02:00Z</time>
      </trkpt>
      <trkpt lat="40.5485123768" lon="-5.7463418785">
        <ele>1003.75</ele>
        <time>2020-07-18T06:02:09Z</time>
      </trkpt>
      <trkpt lat="40.5488417018" lon="-5.7465962693">
        <ele>1001.35</ele>
        <time>2020-07-18T06:02:16Z</time>
      </trkpt>
      <trkpt lat="40.5493604578" lon="-5.7469849382">
        <ele>1000.39</ele>
        <time>2020-07-18T06:02:25Z</time>
      </trkpt>
      <trkpt lat="40.5498859193" lon="-5.7472596131">
        <ele>999.91</ele>
        <time>2020-07-18T06:02:34Z</time>
      </trkpt>
      <trkpt lat="40.5503983051" lon="-5.7473558374">
        <ele>998.47</ele>
        <time>2020-07-18T06:02:43Z</time>
      </trkpt>
      <trkpt lat="40.5508596450" lon="-5.7473366428">
        <ele>997.02</ele>
        <time>2020-07-18T06:02:51Z</time>
      </trkpt>
      <trkpt lat="40.5514266808" lon="-5.7472771313">
        <ele>994.62</ele>
        <time>2020-07-18T06:03:00Z</time>
      </trkpt>
      <trkpt lat="40.5519663077" lon="-5.7471879479">
        <ele>990.30</ele>
        <time>2020-07-18T06:03:07Z</time>
      </trkpt>
      <trkpt lat="40.5526460800" lon="-5.7470365707">
        <ele>983.57</ele>
        <time>2020-07-18T06:03:14Z</time>
      </trkpt>
      <trkpt lat="40.5531655904" lon="-5.7467908971">
        <ele>980.20</ele>
        <time>2020-07-18T06:03:19Z</time>
      </trkpt>
      <trkpt lat="40.5536087416" lon="-5.7465453073">
        <ele>978.28</ele>
        <time>2020-07-18T06:03:24Z</time>
      </trkpt>
      <trkpt lat="40.5542754382" lon="-5.7461002283">
        <ele>974.91</ele>
        <time>2020-07-18T06:03:32Z</time>
      </trkpt>
      <trkpt lat="40.5547570623" lon="-5.7456533890">
        <ele>973.95</ele>
        <time>2020-07-18T06:03:39Z</time>
      </trkpt>
      <trkpt lat="40.5551302247" lon="-5.7452663127">
        <ele>973.47</ele>
        <time>2020-07-18T06:03:46Z</time>
      </trkpt>
      <trkpt lat="40.5555599649" lon="-5.7448129356">
        <ele>973.47</ele>
        <time>2020-07-18T06:03:56Z</time>
      </trkpt>
      <trkpt lat="40.5559710134" lon="-5.7443831954">
        <ele>972.99</ele>
        <time>2020-07-18T06:04:06Z</time>
      </trkpt>
      <trkpt lat="40.5563333631" lon="-5.7440016512">
        <ele>972.51</ele>
        <time>2020-07-18T06:04:15Z</time>
      </trkpt>
      <trkpt lat="40.5567647796" lon="-5.7435306720">
        <ele>972.03</ele>
        <time>2020-07-18T06:04:26Z</time>
      </trkpt>
      <trkpt lat="40.5571156461" lon="-5.7431376446">
        <ele>972.03</ele>
        <time>2020-07-18T06:04:36Z</time>
      </trkpt>
      <trkpt lat="40.5572047457" lon="-5.7430665661">
        <ele>971.55</ele>
        <time>2020-07-18T06:04:40Z</time>
      </trkpt>
      <trkpt lat="40.5572246108" lon="-5.7430693321">
        <ele>971.55</ele>
        <time>2020-07-18T06:04:41Z</time>
      </trkpt>
      <trkpt lat="40.5572444759" lon="-5.7430787198">
        <ele>971.55</ele>
        <time>2020-07-18T06:04:42Z</time>
      </trkpt>
      <trkpt lat="40.5572593957" lon="-5.7430905383">
        <ele>971.55</ele>
        <time>2020-07-18T06:04:43Z</time>
      </trkpt>
      <trkpt lat="40.5572702922" lon="-5.7431026921">
        <ele>971.55</ele>
        <time>2020-07-18T06:04:44Z</time>
      </trkpt>
      <trkpt lat="40.5572790094" lon="-5.7431191206">
        <ele>971.55</ele>
        <time>2020-07-18T06:04:45Z</time>
      </trkpt>
      <trkpt lat="40.5572863016" lon="-5.7431349624">
        <ele>972.03</ele>
        <time>2020-07-18T06:04:46Z</time>
      </trkpt>
      <trkpt lat="40.5572940130" lon="-5.7431510556">
        <ele>972.03</ele>
        <time>2020-07-18T06:04:47Z</time>
      </trkpt>
      <trkpt lat="40.5572990421" lon="-5.7431668136">
        <ele>972.03</ele>
        <time>2020-07-18T06:04:48Z</time>
      </trkpt>
      <trkpt lat="40.5573055800" lon="-5.7431837451">
        <ele>972.03</ele>
        <time>2020-07-18T06:04:49Z</time>
      </trkpt>
      <trkpt lat="40.5573205836" lon="-5.7432009280">
        <ele>972.03</ele>
        <time>2020-07-18T06:04:55Z</time>
      </trkpt>
      <trkpt lat="40.5573274568" lon="-5.7432051189">
        <ele>971.55</ele>
        <time>2020-07-18T06:05:09Z</time>
      </trkpt>
      <trkpt lat="40.5573225114" lon="-5.7432036940">
        <ele>971.55</ele>
        <time>2020-07-18T06:05:24Z</time>
      </trkpt>
      <trkpt lat="40.5573179014" lon="-5.7431967370">
        <ele>971.55</ele>
        <time>2020-07-18T06:05:37Z</time>
      </trkpt>
      <trkpt lat="40.5573197454" lon="-5.7431989163">
        <ele>971.55</ele>
        <time>2020-07-18T06:05:50Z</time>
      </trkpt>
      <trkpt lat="40.5573212542" lon="-5.7431943901">
        <ele>971.07</ele>
        <time>2020-07-18T06:06:04Z</time>
      </trkpt>
      <trkpt lat="40.5573150516" lon="-5.7431965694">
        <ele>970.59</ele>
        <time>2020-07-18T06:06:19Z</time>
      </trkpt>
      <trkpt lat="40.5573212542" lon="-5.7432067953">
        <ele>971.07</ele>
        <time>2020-07-18T06:06:26Z</time>
      </trkpt>
      <trkpt lat="40.5573182367" lon="-5.7432083040">
        <ele>971.07</ele>
        <time>2020-07-18T06:06:40Z</time>
      </trkpt>
      <trkpt lat="40.5573154707" lon="-5.7432129141">
        <ele>971.55</ele>
        <time>2020-07-18T06:06:51Z</time>
      </trkpt>
      <trkpt lat="40.5573153868" lon="-5.7432212122">
        <ele>972.99</ele>
        <time>2020-07-18T06:07:08Z</time>
      </trkpt>
      <trkpt lat="40.5573168118" lon="-5.7432197034">
        <ele>973.95</ele>
        <time>2020-07-18T06:07:23Z</time>
      </trkpt>
      <trkpt lat="40.5573044065" lon="-5.7432164345">
        <ele>973.47</ele>
        <time>2020-07-18T06:07:33Z</time>
      </trkpt>
      <trkpt lat="40.5572975334" lon="-5.7432080526">
        <ele>973.47</ele>
        <time>2020-07-18T06:07:35Z</time>
      </trkpt>
      <trkpt lat="40.5572894029" lon="-5.7431791350">
        <ele>973.47</ele>
        <time>2020-07-18T06:07:37Z</time>
      </trkpt>
      <trkpt lat="40.5572589766" lon="-5.7430078089">
        <ele>973.47</ele>
        <time>2020-07-18T06:07:46Z</time>
      </trkpt>
      <trkpt lat="40.5573216733" lon="-5.7428810745">
        <ele>972.51</ele>
        <time>2020-07-18T06:07:53Z</time>
      </trkpt>
      <trkpt lat="40.5574284587" lon="-5.7427505683">
        <ele>971.55</ele>
        <time>2020-07-18T06:08:02Z</time>
      </trkpt>
      <trkpt lat="40.5575612281" lon="-5.7425306272">
        <ele>971.07</ele>
        <time>2020-07-18T06:08:09Z</time>
      </trkpt>
      <trkpt lat="40.5577962566" lon="-5.7420434710">
        <ele>970.11</ele>
        <time>2020-07-18T06:08:19Z</time>
      </trkpt>
      <trkpt lat="40.5580045469" lon="-5.7416135632">
        <ele>969.15</ele>
        <time>2020-07-18T06:08:27Z</time>
      </trkpt>
      <trkpt lat="40.5583492946" lon="-5.7409052085">
        <ele>967.22</ele>
        <time>2020-07-18T06:08:40Z</time>
      </trkpt>
      <trkpt lat="40.5586074572" lon="-5.7404082455">
        <ele>965.78</ele>
        <time>2020-07-18T06:08:49Z</time>
      </trkpt>
      <trkpt lat="40.5589087866" lon="-5.7398245297">
        <ele>964.34</ele>
        <time>2020-07-18T06:08:59Z</time>
      </trkpt>
      <trkpt lat="40.5592344236" lon="-5.7392108906">
        <ele>962.42</ele>
        <time>2020-07-18T06:09:09Z</time>
      </trkpt>
      <trkpt lat="40.5595591385" lon="-5.7385999337">
        <ele>960.49</ele>
        <time>2020-07-18T06:09:19Z</time>
      </trkpt>
      <trkpt lat="40.5596830230" lon="-5.7383447886">
        <ele>960.49</ele>
        <time>2020-07-18T06:09:23Z</time>
      </trkpt>
      <trkpt lat="40.5599812511" lon="-5.7379007991">
        <ele>960.49</ele>
        <time>2020-07-18T06:09:31Z</time>
      </trkpt>
      <trkpt lat="40.5604155175" lon="-5.7373972144">
        <ele>959.05</ele>
        <time>2020-07-18T06:09:41Z</time>
      </trkpt>
      <trkpt lat="40.5608061142" lon="-5.7369901054">
        <ele>958.09</ele>
        <time>2020-07-18T06:09:49Z</time>
      </trkpt>
      <trkpt lat="40.5613389518" lon="-5.7365212217">
        <ele>957.13</ele>
        <time>2020-07-18T06:10:00Z</time>
      </trkpt>
      <trkpt lat="40.5616494175" lon="-5.7362742908">
        <ele>956.65</ele>
        <time>2020-07-18T06:10:08Z</time>
      </trkpt>
      <trkpt lat="40.5618747231" lon="-5.7361370791">
        <ele>956.17</ele>
        <time>2020-07-18T06:10:15Z</time>
      </trkpt>
      <trkpt lat="40.5619051494" lon="-5.7361083291">
        <ele>955.69</ele>
        <time>2020-07-18T06:10:17Z</time>
      </trkpt>
      <trkpt lat="40.5619023833" lon="-5.7360832673">
        <ele>955.69</ele>
        <time>2020-07-18T06:10:18Z</time>
      </trkpt>
      <trkpt lat="40.5618838593" lon="-5.7360558584">
        <ele>956.65</ele>
        <time>2020-07-18T06:10:25Z</time>
      </trkpt>
      <trkpt lat="40.5619034730" lon="-5.7360992767">
        <ele>957.61</ele>
        <time>2020-07-18T06:10:33Z</time>
      </trkpt>
      <trkpt lat="40.5619211588" lon="-5.7361175492">
        <ele>957.61</ele>
        <time>2020-07-18T06:10:34Z</time>
      </trkpt>
      <trkpt lat="40.5619489867" lon="-5.7361120172">
        <ele>957.13</ele>
        <time>2020-07-18T06:10:35Z</time>
      </trkpt>
      <trkpt lat="40.5619719531" lon="-5.7360904757">
        <ele>957.13</ele>
        <time>2020-07-18T06:10:36Z</time>
      </trkpt>
      <trkpt lat="40.5619964283" lon="-5.7360721193">
        <ele>956.65</ele>
        <time>2020-07-18T06:10:37Z</time>
      </trkpt>
      <trkpt lat="40.5620226637" lon="-5.7360556070">
        <ele>956.17</ele>
        <time>2020-07-18T06:10:38Z</time>
      </trkpt>
      <trkpt lat="40.5622715224" lon="-5.7359515037">
        <ele>955.21</ele>
        <time>2020-07-18T06:10:47Z</time>
      </trkpt>
      <trkpt lat="40.5624609534" lon="-5.7359534316">
        <ele>954.73</ele>
        <time>2020-07-18T06:10:56Z</time>
      </trkpt>
      <trkpt lat="40.5625992548" lon="-5.7359935809">
        <ele>954.25</ele>
        <time>2020-07-18T06:11:02Z</time>
      </trkpt>
      <trkpt lat="40.5628137477" lon="-5.7359948382">
        <ele>954.25</ele>
        <time>2020-07-18T06:11:10Z</time>
      </trkpt>
      <trkpt lat="40.5629875045" lon="-5.7360235043">
        <ele>954.25</ele>
        <time>2020-07-18T06:11:17Z</time>
      </trkpt>
      <trkpt lat="40.5632271431" lon="-5.7360084169">
        <ele>954.73</ele>
        <time>2020-07-18T06:11:26Z</time>
      </trkpt>
      <trkpt lat="40.5634502694" lon="-5.7360153738">
        <ele>953.77</ele>
        <time>2020-07-18T06:11:34Z</time>
      </trkpt>
      <trkpt lat="40.5635031592" lon="-5.7359875459">
        <ele>954.25</ele>
        <time>2020-07-18T06:11:36Z</time>
      </trkpt>
      <trkpt lat="40.5635195039" lon="-5.7359535154">
        <ele>953.77</ele>
        <time>2020-07-18T06:11:37Z</time>
      </trkpt>
      <trkpt lat="40.5635278858" lon="-5.7359134499">
        <ele>953.77</ele>
        <time>2020-07-18T06:11:38Z</time>
      </trkpt>
      <trkpt lat="40.5635693762" lon="-5.7355287205">
        <ele>952.32</ele>
        <time>2020-07-18T06:11:48Z</time>
      </trkpt>
      <trkpt lat="40.5636220984" lon="-5.7352399640">
        <ele>951.36</ele>
        <time>2020-07-18T06:11:55Z</time>
      </trkpt>
      <trkpt lat="40.5637176521" lon="-5.7349233795">
        <ele>950.88</ele>
        <time>2020-07-18T06:12:03Z</time>
      </trkpt>
      <trkpt lat="40.5637853779" lon="-5.7346947212">
        <ele>949.92</ele>
        <time>2020-07-18T06:12:10Z</time>
      </trkpt>
      <trkpt lat="40.5638504215" lon="-5.7345331181">
        <ele>949.92</ele>
        <time>2020-07-18T06:12:17Z</time>
      </trkpt>
      <trkpt lat="40.5639957637" lon="-5.7343099918">
        <ele>950.88</ele>
        <time>2020-07-18T06:12:25Z</time>
      </trkpt>
      <trkpt lat="40.5641685985" lon="-5.7339450438">
        <ele>949.92</ele>
        <time>2020-07-18T06:12:34Z</time>
      </trkpt>
      <trkpt lat="40.5642858613" lon="-5.7336458936">
        <ele>948.96</ele>
        <time>2020-07-18T06:12:42Z</time>
      </trkpt>
      <trkpt lat="40.5642814189" lon="-5.7336254418">
        <ele>948.48</ele>
        <time>2020-07-18T06:12:43Z</time>
      </trkpt>
      <trkpt lat="40.5642751325" lon="-5.7336090133">
        <ele>948.48</ele>
        <time>2020-07-18T06:12:44Z</time>
      </trkpt>
      <trkpt lat="40.5642689299" lon="-5.7335936744">
        <ele>948.48</ele>
        <time>2020-07-18T06:12:45Z</time>
      </trkpt>
      <trkpt lat="40.5642604642" lon="-5.7335778326">
        <ele>948.48</ele>
        <time>2020-07-18T06:12:46Z</time>
      </trkpt>
      <trkpt lat="40.5642505735" lon="-5.7335601468">
        <ele>948.48</ele>
        <time>2020-07-18T06:12:47Z</time>
      </trkpt>
      <trkpt lat="40.5641630664" lon="-5.7334291376">
        <ele>948.96</ele>
        <time>2020-07-18T06:12:57Z</time>
      </trkpt>
      <trkpt lat="40.5640741345" lon="-5.7333195861">
        <ele>950.40</ele>
        <time>2020-07-18T06:13:05Z</time>
      </trkpt>
      <trkpt lat="40.5639509205" lon="-5.7331951987">
        <ele>953.28</ele>
        <time>2020-07-18T06:13:13Z</time>
      </trkpt>
      <trkpt lat="40.5638268683" lon="-5.7331209350">
        <ele>954.25</ele>
        <time>2020-07-18T06:13:19Z</time>
      </trkpt>
      <trkpt lat="40.5638090987" lon="-5.7331328373">
        <ele>954.25</ele>
        <time>2020-07-18T06:13:20Z</time>
      </trkpt>
      <trkpt lat="40.5637960229" lon="-5.7331537083">
        <ele>954.73</ele>
        <time>2020-07-18T06:13:21Z</time>
      </trkpt>
      <trkpt lat="40.5637829471" lon="-5.7331719808">
        <ele>954.73</ele>
        <time>2020-07-18T06:13:22Z</time>
      </trkpt>
      <trkpt lat="40.5637703743" lon="-5.7331930194">
        <ele>954.73</ele>
        <time>2020-07-18T06:13:23Z</time>
      </trkpt>
      <trkpt lat="40.5637572985" lon="-5.7332120463">
        <ele>955.21</ele>
        <time>2020-07-18T06:13:24Z</time>
      </trkpt>
      <trkpt lat="40.5637450609" lon="-5.7332311571">
        <ele>954.73</ele>
        <time>2020-07-18T06:13:25Z</time>
      </trkpt>
      <trkpt lat="40.5637350865" lon="-5.7332516927">
        <ele>955.21</ele>
        <time>2020-07-18T06:13:26Z</time>
      </trkpt>
      <trkpt lat="40.5637246929" lon="-5.7332737371">
        <ele>955.21</ele>
        <time>2020-07-18T06:13:27Z</time>
      </trkpt>
      <trkpt lat="40.5637139641" lon="-5.7332988828">
        <ele>955.21</ele>
        <time>2020-07-18T06:13:28Z</time>
      </trkpt>
      <trkpt lat="40.5637098569" lon="-5.7333209272">
        <ele>955.21</ele>
        <time>2020-07-18T06:13:29Z</time>
      </trkpt>
      <trkpt lat="40.5637142994" lon="-5.7333512697">
        <ele>955.69</ele>
        <time>2020-07-18T06:13:31Z</time>
      </trkpt>
      <trkpt lat="40.5637929216" lon="-5.7334440574">
        <ele>956.65</ele>
        <time>2020-07-18T06:13:37Z</time>
      </trkpt>
      <trkpt lat="40.5637978669" lon="-5.7334783394">
        <ele>954.73</ele>
        <time>2020-07-18T06:13:40Z</time>
      </trkpt>
      <trkpt lat="40.5637762416" lon="-5.7334302273">
        <ele>954.73</ele>
        <time>2020-07-18T06:13:46Z</time>
      </trkpt>
      <trkpt lat="40.5637797620" lon="-5.7334428001">
        <ele>956.65</ele>
        <time>2020-07-18T06:13:57Z</time>
      </trkpt>
      <trkpt lat="40.5637468211" lon="-5.7334030699">
        <ele>957.61</ele>
        <time>2020-07-18T06:14:03Z</time>
      </trkpt>
      <trkpt lat="40.5637686141" lon="-5.7333722245">
        <ele>957.61</ele>
        <time>2020-07-18T06:14:12Z</time>
      </trkpt>
      <trkpt lat="40.5637526046" lon="-5.7333787624">
        <ele>956.65</ele>
        <time>2020-07-18T06:14:23Z</time>
      </trkpt>
      <trkpt lat="40.5637627468" lon="-5.7333731465">
        <ele>956.65</ele>
        <time>2020-07-18T06:14:29Z</time>
      </trkpt>
      <trkpt lat="40.5637925863" lon="-5.7334143016">
        <ele>956.65</ele>
        <time>2020-07-18T06:14:34Z</time>
      </trkpt>
      <trkpt lat="40.5637231842" lon="-5.7334171515">
        <ele>955.69</ele>
        <time>2020-07-18T06:14:39Z</time>
      </trkpt>
      <trkpt lat="40.5636942666" lon="-5.7332919259">
        <ele>955.69</ele>
        <time>2020-07-18T06:14:46Z</time>
      </trkpt>
      <trkpt lat="40.5637091864" lon="-5.7332669478">
        <ele>955.69</ele>
        <time>2020-07-18T06:14:47Z</time>
      </trkpt>
      <trkpt lat="40.5638109427" lon="-5.7331385370">
        <ele>954.25</ele>
        <time>2020-07-18T06:14:52Z</time>
      </trkpt>
      <trkpt lat="40.5639912374" lon="-5.7332303189">
        <ele>953.28</ele>
        <time>2020-07-18T06:14:58Z</time>
      </trkpt>
      <trkpt lat="40.5640810076" lon="-5.7333290577">
        <ele>953.28</ele>
        <time>2020-07-18T06:15:02Z</time>
      </trkpt>
      <trkpt lat="40.5641281139" lon="-5.7333591487">
        <ele>953.28</ele>
        <time>2020-07-18T06:15:04Z</time>
      </trkpt>
      <trkpt lat="40.5641570315" lon="-5.7333707996">
        <ele>952.80</ele>
        <time>2020-07-18T06:15:05Z</time>
      </trkpt>
      <trkpt lat="40.5643552635" lon="-5.7334654313">
        <ele>952.80</ele>
        <time>2020-07-18T06:15:13Z</time>
      </trkpt>
      <trkpt lat="40.5644689221" lon="-5.7333877310">
        <ele>951.84</ele>
        <time>2020-07-18T06:15:18Z</time>
      </trkpt>
      <trkpt lat="40.5646330398" lon="-5.7331247907">
        <ele>949.92</ele>
        <time>2020-07-18T06:15:26Z</time>
      </trkpt>
      <trkpt lat="40.5648375582" lon="-5.7327265665">
        <ele>948.48</ele>
        <time>2020-07-18T06:15:36Z</time>
      </trkpt>
      <trkpt lat="40.5650113150" lon="-5.7323723473">
        <ele>949.44</ele>
        <time>2020-07-18T06:15:45Z</time>
      </trkpt>
      <trkpt lat="40.5650708266" lon="-5.7323135901">
        <ele>949.92</ele>
        <time>2020-07-18T06:15:48Z</time>
      </trkpt>
      <trkpt lat="40.5650941283" lon="-5.7323202118">
        <ele>949.92</ele>
        <time>2020-07-18T06:15:49Z</time>
      </trkpt>
      <trkpt lat="40.5651151668" lon="-5.7323401608">
        <ele>949.92</ele>
        <time>2020-07-18T06:15:50Z</time>
      </trkpt>
      <trkpt lat="40.5651275720" lon="-5.7323593553">
        <ele>949.92</ele>
        <time>2020-07-18T06:15:51Z</time>
      </trkpt>
      <trkpt lat="40.5651427433" lon="-5.7323886920">
        <ele>950.40</ele>
        <time>2020-07-18T06:15:52Z</time>
      </trkpt>
      <trkpt lat="40.5652782787" lon="-5.7326191943">
        <ele>950.40</ele>
        <time>2020-07-18T06:15:59Z</time>
      </trkpt>
      <trkpt lat="40.5653742515" lon="-5.7328279037">
        <ele>949.92</ele>
        <time>2020-07-18T06:16:04Z</time>
      </trkpt>
      <trkpt lat="40.5655332562" lon="-5.7332460769">
        <ele>949.92</ele>
        <time>2020-07-18T06:16:13Z</time>
      </trkpt>
      <trkpt lat="40.5657194182" lon="-5.7336436305">
        <ele>949.92</ele>
        <time>2020-07-18T06:16:22Z</time>
      </trkpt>
      <trkpt lat="40.5659740604" lon="-5.7339705247">
        <ele>950.40</ele>
        <time>2020-07-18T06:16:31Z</time>
      </trkpt>
      <trkpt lat="40.5660056602" lon="-5.7340034656">
        <ele>950.40</ele>
        <time>2020-07-18T06:16:32Z</time>
      </trkpt>
      <trkpt lat="40.5663782358" lon="-5.7342445292">
        <ele>950.40</ele>
        <time>2020-07-18T06:16:41Z</time>
      </trkpt>
      <trkpt lat="40.5668743607" lon="-5.7343876082">
        <ele>949.92</ele>
        <time>2020-07-18T06:16:51Z</time>
      </trkpt>
      <trkpt lat="40.5673143268" lon="-5.7344669849">
        <ele>948.96</ele>
        <time>2020-07-18T06:17:01Z</time>
      </trkpt>
      <trkpt lat="40.5678173248" lon="-5.7345634606">
        <ele>947.52</ele>
        <time>2020-07-18T06:17:12Z</time>
      </trkpt>
      <trkpt lat="40.5682832748" lon="-5.7346443459">
        <ele>947.04</ele>
        <time>2020-07-18T06:17:22Z</time>
      </trkpt>
      <trkpt lat="40.5683275312" lon="-5.7346359640">
        <ele>947.04</ele>
        <time>2020-07-18T06:17:23Z</time>
      </trkpt>
      <trkpt lat="40.5683758110" lon="-5.7346162666">
        <ele>947.04</ele>
        <time>2020-07-18T06:17:24Z</time>
      </trkpt>
      <trkpt lat="40.5684219953" lon="-5.7345886063">
        <ele>947.04</ele>
        <time>2020-07-18T06:17:25Z</time>
      </trkpt>
      <trkpt lat="40.5684559420" lon="-5.7345632929">
        <ele>947.04</ele>
        <time>2020-07-18T06:17:26Z</time>
      </trkpt>
      <trkpt lat="40.5684934091" lon="-5.7345269155">
        <ele>947.52</ele>
        <time>2020-07-18T06:17:27Z</time>
      </trkpt>
      <trkpt lat="40.5685276072" lon="-5.7344862632">
        <ele>947.52</ele>
        <time>2020-07-18T06:17:28Z</time>
      </trkpt>
      <trkpt lat="40.5685557704" lon="-5.7344495505">
        <ele>947.52</ele>
        <time>2020-07-18T06:17:29Z</time>
      </trkpt>
      <trkpt lat="40.5685814191" lon="-5.7344119158">
        <ele>947.52</ele>
        <time>2020-07-18T06:17:30Z</time>
      </trkpt>
      <trkpt lat="40.5687441956" lon="-5.7342891209">
        <ele>948.00</ele>
        <time>2020-07-18T06:17:36Z</time>
      </trkpt>
      <trkpt lat="40.5688216444" lon="-5.7342898753">
        <ele>947.52</ele>
        <time>2020-07-18T06:17:38Z</time>
      </trkpt>
      <trkpt lat="40.5688552558" lon="-5.7343077287">
        <ele>947.52</ele>
        <time>2020-07-18T06:17:39Z</time>
      </trkpt>
      <trkpt lat="40.5688933935" lon="-5.7343404181">
        <ele>947.52</ele>
        <time>2020-07-18T06:17:40Z</time>
      </trkpt>
      <trkpt lat="40.5689270888" lon="-5.7343795616">
        <ele>947.52</ele>
        <time>2020-07-18T06:17:41Z</time>
      </trkpt>
      <trkpt lat="40.5689587723" lon="-5.7344176155">
        <ele>947.52</ele>
        <time>2020-07-18T06:17:42Z</time>
      </trkpt>
      <trkpt lat="40.5689933058" lon="-5.7344555855">
        <ele>947.52</ele>
        <time>2020-07-18T06:17:43Z</time>
      </trkpt>
      <trkpt lat="40.5693528056" lon="-5.7348367944">
        <ele>948.00</ele>
        <time>2020-07-18T06:17:53Z</time>
      </trkpt>
      <trkpt lat="40.5697274767" lon="-5.7351536304">
        <ele>948.48</ele>
        <time>2020-07-18T06:18:02Z</time>
      </trkpt>
      <trkpt lat="40.5702325702" lon="-5.7354466617">
        <ele>948.00</ele>
        <time>2020-07-18T06:18:12Z</time>
      </trkpt>
      <trkpt lat="40.5707183015" lon="-5.7357286289">
        <ele>948.00</ele>
        <time>2020-07-18T06:18:22Z</time>
      </trkpt>
      <trkpt lat="40.5712756980" lon="-5.7360381726">
        <ele>948.48</ele>
        <time>2020-07-18T06:18:34Z</time>
      </trkpt>
      <trkpt lat="40.5716147460" lon="-5.7362290286">
        <ele>950.40</ele>
        <time>2020-07-18T06:18:43Z</time>
      </trkpt>
      <trkpt lat="40.5719660316" lon="-5.7364335470">
        <ele>951.36</ele>
        <time>2020-07-18T06:18:53Z</time>
      </trkpt>
      <trkpt lat="40.5723124556" lon="-5.7366236486">
        <ele>952.80</ele>
        <time>2020-07-18T06:19:03Z</time>
      </trkpt>
      <trkpt lat="40.5726913176" lon="-5.7368211262">
        <ele>953.28</ele>
        <time>2020-07-18T06:19:14Z</time>
      </trkpt>
      <trkpt lat="40.5731202196" lon="-5.7370201964">
        <ele>952.32</ele>
        <time>2020-07-18T06:19:26Z</time>
      </trkpt>
      <trkpt lat="40.5735261552" lon="-5.7371973898">
        <ele>952.32</ele>
        <time>2020-07-18T06:19:37Z</time>
      </trkpt>
      <trkpt lat="40.5738882534" lon="-5.7373406366">
        <ele>952.80</ele>
        <time>2020-07-18T06:19:47Z</time>
      </trkpt>
      <trkpt lat="40.5742009822" lon="-5.7374701370">
        <ele>953.28</ele>
        <time>2020-07-18T06:19:56Z</time>
      </trkpt>
      <trkpt lat="40.5745873041" lon="-5.7376355119">
        <ele>954.25</ele>
        <time>2020-07-18T06:20:07Z</time>
      </trkpt>
      <trkpt lat="40.5749845225" lon="-5.7379086781">
        <ele>954.25</ele>
        <time>2020-07-18T06:20:19Z</time>
      </trkpt>
      <trkpt lat="40.5752184615" lon="-5.7381437067">
        <ele>954.25</ele>
        <time>2020-07-18T06:20:28Z</time>
      </trkpt>
      <trkpt lat="40.5752481334" lon="-5.7381451316">
        <ele>954.25</ele>
        <time>2020-07-18T06:20:29Z</time>
      </trkpt>
      <trkpt lat="40.5752792303" lon="-5.7381381746">
        <ele>954.25</ele>
        <time>2020-07-18T06:20:30Z</time>
      </trkpt>
      <trkpt lat="40.5753067229" lon="-5.7381270267">
        <ele>954.73</ele>
        <time>2020-07-18T06:20:31Z</time>
      </trkpt>
      <trkpt lat="40.5753369816" lon="-5.7381116878">
        <ele>954.73</ele>
        <time>2020-07-18T06:20:32Z</time>
      </trkpt>
      <trkpt lat="40.5756181106" lon="-5.7380080037">
        <ele>954.25</ele>
        <time>2020-07-18T06:20:40Z</time>
      </trkpt>
      <trkpt lat="40.5758711603" lon="-5.7380461413">
        <ele>954.25</ele>
        <time>2020-07-18T06:20:48Z</time>
      </trkpt>
      <trkpt lat="40.5761485174" lon="-5.7382231671">
        <ele>953.77</ele>
        <time>2020-07-18T06:20:57Z</time>
      </trkpt>
      <trkpt lat="40.5764514394" lon="-5.7384358998">
        <ele>952.80</ele>
        <time>2020-07-18T06:21:07Z</time>
      </trkpt>
      <trkpt lat="40.5767724663" lon="-5.7386725210">
        <ele>951.84</ele>
        <time>2020-07-18T06:21:18Z</time>
      </trkpt>
      <trkpt lat="40.5770111829" lon="-5.7388430089">
        <ele>952.80</ele>
        <time>2020-07-18T06:21:27Z</time>
      </trkpt>
      <trkpt lat="40.5772237480" lon="-5.7388628740">
        <ele>953.77</ele>
        <time>2020-07-18T06:21:35Z</time>
      </trkpt>
      <trkpt lat="40.5774716847" lon="-5.7387637999">
        <ele>953.28</ele>
        <time>2020-07-18T06:21:43Z</time>
      </trkpt>
      <trkpt lat="40.5776522309" lon="-5.7387114130">
        <ele>953.28</ele>
        <time>2020-07-18T06:21:50Z</time>
      </trkpt>
      <trkpt lat="40.5778589286" lon="-5.7387075573">
        <ele>953.28</ele>
        <time>2020-07-18T06:21:56Z</time>
      </trkpt>
      <trkpt lat="40.5782747548" lon="-5.7387537416">
        <ele>953.28</ele>
        <time>2020-07-18T06:22:07Z</time>
      </trkpt>
      <trkpt lat="40.5785471667" lon="-5.7387622911">
        <ele>953.28</ele>
        <time>2020-07-18T06:22:14Z</time>
      </trkpt>
      <trkpt lat="40.5786709674" lon="-5.7387654763">
        <ele>953.28</ele>
        <time>2020-07-18T06:22:17Z</time>
      </trkpt>
      <trkpt lat="40.5787125416" lon="-5.7387682423">
        <ele>953.28</ele>
        <time>2020-07-18T06:22:18Z</time>
      </trkpt>
      <trkpt lat="40.5790600553" lon="-5.7387723494">
        <ele>953.77</ele>
        <time>2020-07-18T06:22:27Z</time>
      </trkpt>
      <trkpt lat="40.5793271866" lon="-5.7387831621">
        <ele>954.25</ele>
        <time>2020-07-18T06:22:34Z</time>
      </trkpt>
      <trkpt lat="40.5797523167" lon="-5.7388173603">
        <ele>954.73</ele>
        <time>2020-07-18T06:22:45Z</time>
      </trkpt>
      <trkpt lat="40.5801940430" lon="-5.7388378121">
        <ele>955.21</ele>
        <time>2020-07-18T06:22:57Z</time>
      </trkpt>
      <trkpt lat="40.5805195123" lon="-5.7388116606">
        <ele>955.21</ele>
        <time>2020-07-18T06:23:06Z</time>
      </trkpt>
      <trkpt lat="40.5809521861" lon="-5.7387902029">
        <ele>954.25</ele>
        <time>2020-07-18T06:23:17Z</time>
      </trkpt>
      <trkpt lat="40.5813611392" lon="-5.7387953997">
        <ele>953.77</ele>
        <time>2020-07-18T06:23:27Z</time>
      </trkpt>
      <trkpt lat="40.5817810725" lon="-5.7387857605">
        <ele>951.36</ele>
        <time>2020-07-18T06:23:36Z</time>
      </trkpt>
      <trkpt lat="40.5823252257" lon="-5.7387516461">
        <ele>949.44</ele>
        <time>2020-07-18T06:23:47Z</time>
      </trkpt>
      <trkpt lat="40.5827868171" lon="-5.7386487164">
        <ele>948.48</ele>
        <time>2020-07-18T06:23:56Z</time>
      </trkpt>
      <trkpt lat="40.5832196586" lon="-5.7385732792">
        <ele>948.00</ele>
        <time>2020-07-18T06:24:05Z</time>
      </trkpt>
      <trkpt lat="40.5834634881" lon="-5.7385797333">
        <ele>948.00</ele>
        <time>2020-07-18T06:24:12Z</time>
      </trkpt>
      <trkpt lat="40.5836121831" lon="-5.7385806553">
        <ele>948.96</ele>
        <time>2020-07-18T06:24:20Z</time>
      </trkpt>
      <trkpt lat="40.5836152006" lon="-5.7385832537">
        <ele>949.44</ele>
        <time>2020-07-18T06:24:28Z</time>
      </trkpt>
      <trkpt lat="40.5836182181" lon="-5.7385744527">
        <ele>950.88</ele>
        <time>2020-07-18T06:24:45Z</time>
      </trkpt>
      <trkpt lat="40.5836136080" lon="-5.7385778055">
        <ele>950.40</ele>
        <time>2020-07-18T06:25:01Z</time>
      </trkpt>
      <trkpt lat="40.5836094171" lon="-5.7385721896">
        <ele>949.92</ele>
        <time>2020-07-18T06:25:18Z</time>
      </trkpt>
      <trkpt lat="40.5836026277" lon="-5.7385678310">
        <ele>950.40</ele>
        <time>2020-07-18T06:25:34Z</time>
      </trkpt>
      <trkpt lat="40.5836022925" lon="-5.7385639753">
        <ele>949.92</ele>
        <time>2020-07-18T06:25:48Z</time>
      </trkpt>
      <trkpt lat="40.5836228281" lon="-5.7385530788">
        <ele>949.44</ele>
        <time>2020-07-18T06:25:52Z</time>
      </trkpt>
      <trkpt lat="40.5836362392" lon="-5.7385486364">
        <ele>949.44</ele>
        <time>2020-07-18T06:25:53Z</time>
      </trkpt>
      <trkpt lat="40.5836545117" lon="-5.7385455351">
        <ele>949.44</ele>
        <time>2020-07-18T06:25:54Z</time>
      </trkpt>
      <trkpt lat="40.5836742092" lon="-5.7385410089">
        <ele>949.44</ele>
        <time>2020-07-18T06:25:55Z</time>
      </trkpt>
      <trkpt lat="40.5836975109" lon="-5.7385353930">
        <ele>949.44</ele>
        <time>2020-07-18T06:25:56Z</time>
      </trkpt>
      <trkpt lat="40.5837227404" lon="-5.7385337166">
        <ele>948.96</ele>
        <time>2020-07-18T06:25:57Z</time>
      </trkpt>
      <trkpt lat="40.5837498978" lon="-5.7385324594">
        <ele>948.96</ele>
        <time>2020-07-18T06:25:58Z</time>
      </trkpt>
      <trkpt lat="40.5840092339" lon="-5.7385014463">
        <ele>948.00</ele>
        <time>2020-07-18T06:26:06Z</time>
      </trkpt>
      <trkpt lat="40.5842785444" lon="-5.7384956628">
        <ele>947.52</ele>
        <time>2020-07-18T06:26:14Z</time>
      </trkpt>
      <trkpt lat="40.5845881719" lon="-5.7385141868">
        <ele>946.56</ele>
        <time>2020-07-18T06:26:22Z</time>
      </trkpt>
      <trkpt lat="40.5847444106" lon="-5.7385487203">
        <ele>946.07</ele>
        <time>2020-07-18T06:26:28Z</time>
      </trkpt>
      <trkpt lat="40.5850718915" lon="-5.7385917194">
        <ele>943.67</ele>
        <time>2020-07-18T06:26:39Z</time>
      </trkpt>
      <trkpt lat="40.5853019748" lon="-5.7385867741">
        <ele>941.75</ele>
        <time>2020-07-18T06:26:47Z</time>
      </trkpt>
      <trkpt lat="40.5856225826" lon="-5.7385346387">
        <ele>939.35</ele>
        <time>2020-07-18T06:26:57Z</time>
      </trkpt>
      <trkpt lat="40.5859476328" lon="-5.7384907175">
        <ele>937.90</ele>
        <time>2020-07-18T06:27:06Z</time>
      </trkpt>
      <trkpt lat="40.5861546658" lon="-5.7384562679">
        <ele>936.94</ele>
        <time>2020-07-18T06:27:13Z</time>
      </trkpt>
      <trkpt lat="40.5862350482" lon="-5.7384556811">
        <ele>936.46</ele>
        <time>2020-07-18T06:27:18Z</time>
      </trkpt>
      <trkpt lat="40.5865001678" lon="-5.7384079881">
        <ele>935.50</ele>
        <time>2020-07-18T06:27:25Z</time>
      </trkpt>
      <trkpt lat="40.5869812053" lon="-5.7383179665">
        <ele>934.54</ele>
        <time>2020-07-18T06:27:37Z</time>
      </trkpt>
      <trkpt lat="40.5872597359" lon="-5.7382723689">
        <ele>933.58</ele>
        <time>2020-07-18T06:27:45Z</time>
      </trkpt>
      <trkpt lat="40.5874367617" lon="-5.7382419426">
        <ele>933.58</ele>
        <time>2020-07-18T06:27:53Z</time>
      </trkpt>
      <trkpt lat="40.5875325669" lon="-5.7382675912">
        <ele>933.58</ele>
        <time>2020-07-18T06:27:59Z</time>
      </trkpt>
      <trkpt lat="40.5875569582" lon="-5.7383623067">
        <ele>934.06</ele>
        <time>2020-07-18T06:28:03Z</time>
      </trkpt>
      <trkpt lat="40.5875500012" lon="-5.7384568546">
        <ele>935.02</ele>
        <time>2020-07-18T06:28:07Z</time>
      </trkpt>
      <trkpt lat="40.5875261128" lon="-5.7384625543">
        <ele>935.98</ele>
        <time>2020-07-18T06:28:11Z</time>
      </trkpt>
      <trkpt lat="40.5875571258" lon="-5.7383316290">
        <ele>935.98</ele>
        <time>2020-07-18T06:28:19Z</time>
      </trkpt>
      <trkpt lat="40.5875451397" lon="-5.7383119315">
        <ele>935.50</ele>
        <time>2020-07-18T06:28:24Z</time>
      </trkpt>
      <trkpt lat="40.5875399429" lon="-5.7382854447">
        <ele>935.98</ele>
        <time>2020-07-18T06:28:31Z</time>
      </trkpt>
      <trkpt lat="40.5875552818" lon="-5.7382465526">
        <ele>935.98</ele>
        <time>2020-07-18T06:28:34Z</time>
      </trkpt>
      <trkpt lat="40.5876044836" lon="-5.7382333092">
        <ele>935.98</ele>
        <time>2020-07-18T06:28:37Z</time>
      </trkpt>
      <trkpt lat="40.5878171325" lon="-5.7383035496">
        <ele>935.02</ele>
        <time>2020-07-18T06:28:45Z</time>
      </trkpt>
      <trkpt lat="40.5880721938" lon="-5.7383840997">
        <ele>934.06</ele>
        <time>2020-07-18T06:28:53Z</time>
      </trkpt>
      <trkpt lat="40.5884900317" lon="-5.7383644022">
        <ele>932.62</ele>
        <time>2020-07-18T06:29:04Z</time>
      </trkpt>
      <trkpt lat="40.5888597574" lon="-5.7383345626">
        <ele>931.17</ele>
        <time>2020-07-18T06:29:12Z</time>
      </trkpt>
      <trkpt lat="40.5892446544" lon="-5.7383175474">
        <ele>929.73</ele>
        <time>2020-07-18T06:29:20Z</time>
      </trkpt>
      <trkpt lat="40.5896045733" lon="-5.7382914796">
        <ele>928.29</ele>
        <time>2020-07-18T06:29:28Z</time>
      </trkpt>
      <trkpt lat="40.5899939127" lon="-5.7383262645">
        <ele>927.81</ele>
        <time>2020-07-18T06:29:37Z</time>
      </trkpt>
      <trkpt lat="40.5903984234" lon="-5.7382753864">
        <ele>926.85</ele>
        <time>2020-07-18T06:29:46Z</time>
      </trkpt>
      <trkpt lat="40.5906234775" lon="-5.7382580359">
        <ele>925.89</ele>
        <time>2020-07-18T06:29:51Z</time>
      </trkpt>
      <trkpt lat="40.5910348613" lon="-5.7381939981">
        <ele>924.93</ele>
        <time>2020-07-18T06:30:00Z</time>
      </trkpt>
      <trkpt lat="40.5911627691" lon="-5.7382092532">
        <ele>924.93</ele>
        <time>2020-07-18T06:30:03Z</time>
      </trkpt>
      <trkpt lat="40.5912073608" lon="-5.7382176351">
        <ele>924.93</ele>
        <time>2020-07-18T06:30:04Z</time>
      </trkpt>
      <trkpt lat="40.5912483484" lon="-5.7382199820">
        <ele>924.93</ele>
        <time>2020-07-18T06:30:05Z</time>
      </trkpt>
      <trkpt lat="40.5915276334" lon="-5.7382173836">
        <ele>924.93</ele>
        <time>2020-07-18T06:30:12Z</time>
      </trkpt>
      <trkpt lat="40.5918686930" lon="-5.7382002007">
        <ele>923.48</ele>
        <time>2020-07-18T06:30:20Z</time>
      </trkpt>
      <trkpt lat="40.5920653325" lon="-5.7381944172">
        <ele>923.48</ele>
        <time>2020-07-18T06:30:26Z</time>
      </trkpt>
      <trkpt lat="40.5923636444" lon="-5.7382207364">
        <ele>923.00</ele>
        <time>2020-07-18T06:30:34Z</time>
      </trkpt>
      <trkpt lat="40.5925709289" lon="-5.7381896395">
        <ele>923.00</ele>
        <time>2020-07-18T06:30:41Z</time>
      </trkpt>
      <trkpt lat="40.5927223060" lon="-5.7381647453">
        <ele>922.52</ele>
        <time>2020-07-18T06:30:47Z</time>
      </trkpt>
      <trkpt lat="40.5930452608" lon="-5.7381876279">
        <ele>922.04</ele>
        <time>2020-07-18T06:30:57Z</time>
      </trkpt>
      <trkpt lat="40.5931978952" lon="-5.7381825149">
        <ele>921.56</ele>
        <time>2020-07-18T06:31:03Z</time>
      </trkpt>
      <trkpt lat="40.5933050159" lon="-5.7381685171">
        <ele>921.08</ele>
        <time>2020-07-18T06:31:11Z</time>
      </trkpt>
      <trkpt lat="40.5935387034" lon="-5.7381501608">
        <ele>920.60</ele>
        <time>2020-07-18T06:31:21Z</time>
      </trkpt>
      <trkpt lat="40.5937574711" lon="-5.7381284516">
        <ele>920.12</ele>
        <time>2020-07-18T06:31:31Z</time>
      </trkpt>
      <trkpt lat="40.5939113628" lon="-5.7381078321">
        <ele>920.12</ele>
        <time>2020-07-18T06:31:39Z</time>
      </trkpt>
      <trkpt lat="40.5941199884" lon="-5.7380618993">
        <ele>920.12</ele>
        <time>2020-07-18T06:31:48Z</time>
      </trkpt>
      <trkpt lat="40.5941803381" lon="-5.7380439620">
        <ele>920.12</ele>
        <time>2020-07-18T06:31:53Z</time>
      </trkpt>
      <trkpt lat="40.5941752251" lon="-5.7380489074">
        <ele>920.12</ele>
        <time>2020-07-18T06:32:04Z</time>
      </trkpt>
      <trkpt lat="40.5941820145" lon="-5.7380483206">
        <ele>921.08</ele>
        <time>2020-07-18T06:32:17Z</time>
      </trkpt>
      <trkpt lat="40.5941877142" lon="-5.7380507514">
        <ele>920.60</ele>
        <time>2020-07-18T06:32:28Z</time>
      </trkpt>
      <trkpt lat="40.5941829365" lon="-5.7380485721">
        <ele>921.08</ele>
        <time>2020-07-18T06:32:43Z</time>
      </trkpt>
      <trkpt lat="40.5941906478" lon="-5.7380494941">
        <ele>920.12</ele>
        <time>2020-07-18T06:32:59Z</time>
      </trkpt>
      <trkpt lat="40.5941866245" lon="-5.7380448841">
        <ele>920.60</ele>
        <time>2020-07-18T06:33:06Z</time>
      </trkpt>
      <trkpt lat="40.5942564458" lon="-5.7380334847">
        <ele>920.60</ele>
        <time>2020-07-18T06:33:11Z</time>
      </trkpt>
      <trkpt lat="40.5944084097" lon="-5.7380510028">
        <ele>921.08</ele>
        <time>2020-07-18T06:33:19Z</time>
      </trkpt>
      <trkpt lat="40.5947064701" lon="-5.7381086703">
        <ele>922.04</ele>
        <time>2020-07-18T06:33:30Z</time>
      </trkpt>
      <trkpt lat="40.5949037801" lon="-5.7381337322">
        <ele>921.08</ele>
        <time>2020-07-18T06:33:37Z</time>
      </trkpt>
      <trkpt lat="40.5952659622" lon="-5.7381210756">
        <ele>919.64</ele>
        <time>2020-07-18T06:33:47Z</time>
      </trkpt>
      <trkpt lat="40.5956416391" lon="-5.7381187286">
        <ele>918.68</ele>
        <time>2020-07-18T06:33:57Z</time>
      </trkpt>
      <trkpt lat="40.5959925894" lon="-5.7380874641">
        <ele>918.20</ele>
        <time>2020-07-18T06:34:06Z</time>
      </trkpt>
      <trkpt lat="40.5961166415" lon="-5.7380646653">
        <ele>917.72</ele>
        <time>2020-07-18T06:34:09Z</time>
      </trkpt>
      <trkpt lat="40.5961640831" lon="-5.7380627375">
        <ele>917.72</ele>
        <time>2020-07-18T06:34:10Z</time>
      </trkpt>
      <trkpt lat="40.5962078366" lon="-5.7380647492">
        <ele>917.72</ele>
        <time>2020-07-18T06:34:11Z</time>
      </trkpt>
      <trkpt lat="40.5965246726" lon="-5.7380641624">
        <ele>916.27</ele>
        <time>2020-07-18T06:34:18Z</time>
      </trkpt>
      <trkpt lat="40.5965700187" lon="-5.7380541041">
        <ele>916.27</ele>
        <time>2020-07-18T06:34:19Z</time>
      </trkpt>
      <trkpt lat="40.5968964100" lon="-5.7380167209">
        <ele>915.79</ele>
        <time>2020-07-18T06:34:27Z</time>
      </trkpt>
      <trkpt lat="40.5971082207" lon="-5.7379937544">
        <ele>915.31</ele>
        <time>2020-07-18T06:34:33Z</time>
      </trkpt>
      <trkpt lat="40.5971128307" lon="-5.7379968558">
        <ele>915.31</ele>
        <time>2020-07-18T06:34:39Z</time>
      </trkpt>
      <trkpt lat="40.5971127469" lon="-5.7379819360">
        <ele>915.31</ele>
        <time>2020-07-18T06:34:44Z</time>
      </trkpt>
      <trkpt lat="40.5971130822" lon="-5.7379621547">
        <ele>915.31</ele>
        <time>2020-07-18T06:34:52Z</time>
      </trkpt>
      <trkpt lat="40.5971146747" lon="-5.7379637472">
        <ele>915.79</ele>
        <time>2020-07-18T06:35:04Z</time>
      </trkpt>
      <trkpt lat="40.5971139204" lon="-5.7379614841">
        <ele>916.27</ele>
        <time>2020-07-18T06:35:34Z</time>
      </trkpt>
      <trkpt lat="40.5971197877" lon="-5.7379638311">
        <ele>916.27</ele>
        <time>2020-07-18T06:36:06Z</time>
      </trkpt>
      <trkpt lat="40.5971120764" lon="-5.7379555330">
        <ele>916.75</ele>
        <time>2020-07-18T06:36:35Z</time>
      </trkpt>
      <trkpt lat="40.5971137527" lon="-5.7379961014">
        <ele>916.75</ele>
        <time>2020-07-18T06:37:00Z</time>
      </trkpt>
      <trkpt lat="40.5971207097" lon="-5.7379945088">
        <ele>917.24</ele>
        <time>2020-07-18T06:37:06Z</time>
      </trkpt>
      <trkpt lat="40.5971241463" lon="-5.7379999571">
        <ele>917.72</ele>
        <time>2020-07-18T06:37:13Z</time>
      </trkpt>
      <trkpt lat="40.5971374735" lon="-5.7380047347">
        <ele>917.72</ele>
        <time>2020-07-18T06:37:14Z</time>
      </trkpt>
      <trkpt lat="40.5972969811" lon="-5.7380106021">
        <ele>916.75</ele>
        <time>2020-07-18T06:37:21Z</time>
      </trkpt>
      <trkpt lat="40.5975709017" lon="-5.7380069140">
        <ele>915.79</ele>
        <time>2020-07-18T06:37:30Z</time>
      </trkpt>
      <trkpt lat="40.5978222750" lon="-5.7379998732">
        <ele>915.31</ele>
        <time>2020-07-18T06:37:38Z</time>
      </trkpt>
      <trkpt lat="40.5982234329" lon="-5.7379671838">
        <ele>914.35</ele>
        <time>2020-07-18T06:37:48Z</time>
      </trkpt>
      <trkpt lat="40.5988332164" lon="-5.7379437145">
        <ele>913.87</ele>
        <time>2020-07-18T06:38:03Z</time>
      </trkpt>
      <trkpt lat="40.5992708355" lon="-5.7379215863">
        <ele>913.39</ele>
        <time>2020-07-18T06:38:14Z</time>
      </trkpt>
      <trkpt lat="40.5997179262" lon="-5.7379020564">
        <ele>912.91</ele>
        <time>2020-07-18T06:38:25Z</time>
      </trkpt>
      <trkpt lat="40.6001208443" lon="-5.7378979493">
        <ele>912.43</ele>
        <time>2020-07-18T06:38:35Z</time>
      </trkpt>
      <trkpt lat="40.6004771590" lon="-5.7378912438">
        <ele>912.43</ele>
        <time>2020-07-18T06:38:45Z</time>
      </trkpt>
      <trkpt lat="40.6007586233" lon="-5.7378914952">
        <ele>912.91</ele>
        <time>2020-07-18T06:38:54Z</time>
      </trkpt>
      <trkpt lat="40.6011003535" lon="-5.7378800120">
        <ele>912.43</ele>
        <time>2020-07-18T06:39:05Z</time>
      </trkpt>
      <trkpt lat="40.6013747770" lon="-5.7378616557">
        <ele>911.95</ele>
        <time>2020-07-18T06:39:14Z</time>
      </trkpt>
      <trkpt lat="40.6017592549" lon="-5.7378427964">
        <ele>911.47</ele>
        <time>2020-07-18T06:39:25Z</time>
      </trkpt>
      <trkpt lat="40.6020843890" lon="-5.7378160581">
        <ele>910.99</ele>
        <time>2020-07-18T06:39:34Z</time>
      </trkpt>
      <trkpt lat="40.6023946870" lon="-5.7377874758">
        <ele>910.51</ele>
        <time>2020-07-18T06:39:43Z</time>
      </trkpt>
      <trkpt lat="40.6026333198" lon="-5.7377621625">
        <ele>910.51</ele>
        <time>2020-07-18T06:39:51Z</time>
      </trkpt>
      <trkpt lat="40.6029416900" lon="-5.7377338316">
        <ele>910.03</ele>
        <time>2020-07-18T06:39:59Z</time>
      </trkpt>
      <trkpt lat="40.6032080669" lon="-5.7377597317">
        <ele>910.03</ele>
        <time>2020-07-18T06:40:07Z</time>
      </trkpt>
      <trkpt lat="40.6034842506" lon="-5.7377727237">
        <ele>910.51</ele>
        <time>2020-07-18T06:40:16Z</time>
      </trkpt>
      <trkpt lat="40.6037483644" lon="-5.7377573848">
        <ele>909.54</ele>
        <time>2020-07-18T06:40:26Z</time>
      </trkpt>
      <trkpt lat="40.6040118914" lon="-5.7377471589">
        <ele>909.54</ele>
        <time>2020-07-18T06:40:34Z</time>
      </trkpt>
      <trkpt lat="40.6043003127" lon="-5.7377368491">
        <ele>910.03</ele>
        <time>2020-07-18T06:40:43Z</time>
      </trkpt>
      <trkpt lat="40.6045753229" lon="-5.7377196662">
        <ele>909.54</ele>
        <time>2020-07-18T06:40:52Z</time>
      </trkpt>
      <trkpt lat="40.6048015505" lon="-5.7377064228">
        <ele>909.06</ele>
        <time>2020-07-18T06:41:01Z</time>
      </trkpt>
      <trkpt lat="40.6050293706" lon="-5.7376968674">
        <ele>909.06</ele>
        <time>2020-07-18T06:41:09Z</time>
      </trkpt>
      <trkpt lat="40.6052645668" lon="-5.7376976218">
        <ele>909.54</ele>
        <time>2020-07-18T06:41:18Z</time>
      </trkpt>
      <trkpt lat="40.6054992601" lon="-5.7376787625">
        <ele>909.06</ele>
        <time>2020-07-18T06:41:26Z</time>
      </trkpt>
      <trkpt lat="40.6057787128" lon="-5.7376738172">
        <ele>908.58</ele>
        <time>2020-07-18T06:41:35Z</time>
      </trkpt>
      <trkpt lat="40.6060939562" lon="-5.7376700453">
        <ele>909.06</ele>
        <time>2020-07-18T06:41:44Z</time>
      </trkpt>
      <trkpt lat="40.6064686272" lon="-5.7376507670">
        <ele>908.58</ele>
        <time>2020-07-18T06:41:54Z</time>
      </trkpt>
      <trkpt lat="40.6069483235" lon="-5.7376412954">
        <ele>908.58</ele>
        <time>2020-07-18T06:42:06Z</time>
      </trkpt>
      <trkpt lat="40.6073006149" lon="-5.7376025710">
        <ele>907.62</ele>
        <time>2020-07-18T06:42:15Z</time>
      </trkpt>
      <trkpt lat="40.6074752100" lon="-5.7375933509">
        <ele>907.62</ele>
        <time>2020-07-18T06:42:21Z</time>
      </trkpt>
      <trkpt lat="40.6077981647" lon="-5.7375728153">
        <ele>907.62</ele>
        <time>2020-07-18T06:42:30Z</time>
      </trkpt>
      <trkpt lat="40.6081279926" lon="-5.7375652716">
        <ele>908.10</ele>
        <time>2020-07-18T06:42:39Z</time>
      </trkpt>
      <trkpt lat="40.6084206887" lon="-5.7375617512">
        <ele>907.62</ele>
        <time>2020-07-18T06:42:47Z</time>
      </trkpt>
      <trkpt lat="40.6087764166" lon="-5.7375381142">
        <ele>907.62</ele>
        <time>2020-07-18T06:42:56Z</time>
      </trkpt>
      <trkpt lat="40.6090702023" lon="-5.7375367731">
        <ele>907.14</ele>
        <time>2020-07-18T06:43:04Z</time>
      </trkpt>
      <trkpt lat="40.6093207374" lon="-5.7375110406">
        <ele>906.66</ele>
        <time>2020-07-18T06:43:12Z</time>
      </trkpt>
      <trkpt lat="40.6095058098" lon="-5.7374974620">
        <ele>906.66</ele>
        <time>2020-07-18T06:43:19Z</time>
      </trkpt>
      <trkpt lat="40.6096359808" lon="-5.7374972105">
        <ele>907.14</ele>
        <time>2020-07-18T06:43:24Z</time>
      </trkpt>
      <trkpt lat="40.6098715123" lon="-5.7374488469">
        <ele>906.66</ele>
        <time>2020-07-18T06:43:31Z</time>
      </trkpt>
      <trkpt lat="40.6101736799" lon="-5.7373967953">
        <ele>906.66</ele>
        <time>2020-07-18T06:43:40Z</time>
      </trkpt>
      <trkpt lat="40.6104487740" lon="-5.7373650279">
        <ele>906.66</ele>
        <time>2020-07-18T06:43:50Z</time>
      </trkpt>
      <trkpt lat="40.6105782744" lon="-5.7374293171">
        <ele>907.14</ele>
        <time>2020-07-18T06:43:58Z</time>
      </trkpt>
      <trkpt lat="40.6105855666" lon="-5.7374272216">
        <ele>907.62</ele>
        <time>2020-07-18T06:44:04Z</time>
      </trkpt>
      <trkpt lat="40.6105977204" lon="-5.7374240365">
        <ele>907.14</ele>
        <time>2020-07-18T06:44:22Z</time>
      </trkpt>
      <trkpt lat="40.6105941162" lon="-5.7374248747">
        <ele>907.62</ele>
        <time>2020-07-18T06:44:48Z</time>
      </trkpt>
      <trkpt lat="40.6105957087" lon="-5.7374246232">
        <ele>908.58</ele>
        <time>2020-07-18T06:45:03Z</time>
      </trkpt>
      <trkpt lat="40.6105912663" lon="-5.7374219410">
        <ele>907.62</ele>
        <time>2020-07-18T06:45:20Z</time>
      </trkpt>
      <trkpt lat="40.6105959602" lon="-5.7374152355">
        <ele>907.14</ele>
        <time>2020-07-18T06:45:36Z</time>
      </trkpt>
      <trkpt lat="40.6105934456" lon="-5.7374247909">
        <ele>907.14</ele>
        <time>2020-07-18T06:45:54Z</time>
      </trkpt>
      <trkpt lat="40.6105885841" lon="-5.7374157384">
        <ele>907.62</ele>
        <time>2020-07-18T06:46:03Z</time>
      </trkpt>
      <trkpt lat="40.6105648633" lon="-5.7373608369">
        <ele>907.62</ele>
        <time>2020-07-18T06:46:10Z</time>
      </trkpt>
      <trkpt lat="40.6105786934" lon="-5.7373452466">
        <ele>907.62</ele>
        <time>2020-07-18T06:46:15Z</time>
      </trkpt>
      <trkpt lat="40.6105838902" lon="-5.7373452466">
        <ele>907.62</ele>
        <time>2020-07-18T06:46:17Z</time>
      </trkpt>
      <trkpt lat="40.6105978042" lon="-5.7373443246">
        <ele>907.62</ele>
        <time>2020-07-18T06:46:18Z</time>
      </trkpt>
      <trkpt lat="40.6107726507" lon="-5.7373086177">
        <ele>907.14</ele>
        <time>2020-07-18T06:46:25Z</time>
      </trkpt>
      <trkpt lat="40.6111203320" lon="-5.7372126449">
        <ele>907.14</ele>
        <time>2020-07-18T06:46:34Z</time>
      </trkpt>
      <trkpt lat="40.6113299634" lon="-5.7371409796">
        <ele>906.66</ele>
        <time>2020-07-18T06:46:39Z</time>
      </trkpt>
      <trkpt lat="40.6118233223" lon="-5.7371413149">
        <ele>905.70</ele>
        <time>2020-07-18T06:46:50Z</time>
      </trkpt>
      <trkpt lat="40.6123294216" lon="-5.7371248025">
        <ele>904.26</ele>
        <time>2020-07-18T06:47:02Z</time>
      </trkpt>
      <trkpt lat="40.6126768515" lon="-5.7371170074">
        <ele>904.74</ele>
        <time>2020-07-18T06:47:12Z</time>
      </trkpt>
      <trkpt lat="40.6130314898" lon="-5.7370828930">
        <ele>904.26</ele>
        <time>2020-07-18T06:47:22Z</time>
      </trkpt>
      <trkpt lat="40.6132809352" lon="-5.7371438295">
        <ele>904.26</ele>
        <time>2020-07-18T06:47:30Z</time>
      </trkpt>
      <trkpt lat="40.6135030556" lon="-5.7371455058">
        <ele>904.74</ele>
        <time>2020-07-18T06:47:37Z</time>
      </trkpt>
      <trkpt lat="40.6137977634" lon="-5.7371267304">
        <ele>904.26</ele>
        <time>2020-07-18T06:47:46Z</time>
      </trkpt>
      <trkpt lat="40.6141339615" lon="-5.7371085417">
        <ele>903.78</ele>
        <time>2020-07-18T06:47:56Z</time>
      </trkpt>
      <trkpt lat="40.6144084688" lon="-5.7371076196">
        <ele>903.78</ele>
        <time>2020-07-18T06:48:04Z</time>
      </trkpt>
      <trkpt lat="40.6147087086" lon="-5.7370863296">
        <ele>903.30</ele>
        <time>2020-07-18T06:48:14Z</time>
      </trkpt>
      <trkpt lat="40.6148972176" lon="-5.7370787859">
        <ele>902.82</ele>
        <time>2020-07-18T06:48:22Z</time>
      </trkpt>
      <trkpt lat="40.6150536239" lon="-5.7370455097">
        <ele>902.33</ele>
        <time>2020-07-18T06:48:30Z</time>
      </trkpt>
      <trkpt lat="40.6152006425" lon="-5.7369693182">
        <ele>901.37</ele>
        <time>2020-07-18T06:48:37Z</time>
      </trkpt>
      <trkpt lat="40.6154114474" lon="-5.7370134071">
        <ele>900.89</ele>
        <time>2020-07-18T06:48:45Z</time>
      </trkpt>
      <trkpt lat="40.6155612320" lon="-5.7370621059">
        <ele>901.85</ele>
        <time>2020-07-18T06:48:52Z</time>
      </trkpt>
      <trkpt lat="40.6157981884" lon="-5.7371066976">
        <ele>901.85</ele>
        <time>2020-07-18T06:49:00Z</time>
      </trkpt>
      <trkpt lat="40.6161158625" lon="-5.7371186838">
        <ele>901.85</ele>
        <time>2020-07-18T06:49:12Z</time>
      </trkpt>
      <trkpt lat="40.6163805630" lon="-5.7371837273">
        <ele>900.89</ele>
        <time>2020-07-18T06:49:21Z</time>
      </trkpt>
      <trkpt lat="40.6165439263" lon="-5.7371931989">
        <ele>900.89</ele>
        <time>2020-07-18T06:49:28Z</time>
      </trkpt>
      <trkpt lat="40.6167808827" lon="-5.7371781114">
        <ele>899.93</ele>
        <time>2020-07-18T06:49:37Z</time>
      </trkpt>
      <trkpt lat="40.6169433240" lon="-5.7371943723">
        <ele>899.93</ele>
        <time>2020-07-18T06:49:45Z</time>
      </trkpt>
      <trkpt lat="40.6170859002" lon="-5.7371897623">
        <ele>901.37</ele>
        <time>2020-07-18T06:49:52Z</time>
      </trkpt>
      <trkpt lat="40.6173134688" lon="-5.7371607609">
        <ele>902.82</ele>
        <time>2020-07-18T06:50:01Z</time>
      </trkpt>
      <trkpt lat="40.6175370980" lon="-5.7371512894">
        <ele>902.82</ele>
        <time>2020-07-18T06:50:10Z</time>
      </trkpt>
      <trkpt lat="40.6177676842" lon="-5.7371229585">
        <ele>903.78</ele>
        <time>2020-07-18T06:50:20Z</time>
      </trkpt>
      <trkpt lat="40.6179209892" lon="-5.7371135708">
        <ele>904.74</ele>
        <time>2020-07-18T06:50:28Z</time>
      </trkpt>
      <trkpt lat="40.6181434449" lon="-5.7371250540">
        <ele>905.22</ele>
        <time>2020-07-18T06:50:39Z</time>
      </trkpt>
      <trkpt lat="40.6183524895" lon="-5.7371175103">
        <ele>906.66</ele>
        <time>2020-07-18T06:50:48Z</time>
      </trkpt>
      <trkpt lat="40.6184693333" lon="-5.7371508703">
        <ele>907.14</ele>
        <time>2020-07-18T06:50:55Z</time>
      </trkpt>
      <trkpt lat="40.6186228059" lon="-5.7371248025">
        <ele>907.62</ele>
        <time>2020-07-18T06:51:03Z</time>
      </trkpt>
      <trkpt lat="40.6187460199" lon="-5.7371341903">
        <ele>907.62</ele>
        <time>2020-07-18T06:51:11Z</time>
      </trkpt>
      <trkpt lat="40.6188995764" lon="-5.7371498644">
        <ele>908.10</ele>
        <time>2020-07-18T06:51:19Z</time>
      </trkpt>
      <trkpt lat="40.6190875825" lon="-5.7371542230">
        <ele>909.06</ele>
        <time>2020-07-18T06:51:28Z</time>
      </trkpt>
      <trkpt lat="40.6193222757" lon="-5.7371371239">
        <ele>909.54</ele>
        <time>2020-07-18T06:51:39Z</time>
      </trkpt>
      <trkpt lat="40.6193801947" lon="-5.7371260598">
        <ele>909.54</ele>
        <time>2020-07-18T06:51:42Z</time>
      </trkpt>
      <trkpt lat="40.6193956174" lon="-5.7371113915">
        <ele>910.03</ele>
        <time>2020-07-18T06:51:43Z</time>
      </trkpt>
      <trkpt lat="40.6194119621" lon="-5.7370985672">
        <ele>910.03</ele>
        <time>2020-07-18T06:51:44Z</time>
      </trkpt>
      <trkpt lat="40.6194282230" lon="-5.7370899338">
        <ele>910.03</ele>
        <time>2020-07-18T06:51:45Z</time>
      </trkpt>
      <trkpt lat="40.6194464117" lon="-5.7370844856">
        <ele>910.03</ele>
        <time>2020-07-18T06:51:46Z</time>
      </trkpt>
      <trkpt lat="40.6194633432" lon="-5.7370807976">
        <ele>910.03</ele>
        <time>2020-07-18T06:51:47Z</time>
      </trkpt>
      <trkpt lat="40.6194788497" lon="-5.7370776962">
        <ele>910.51</ele>
        <time>2020-07-18T06:51:48Z</time>
      </trkpt>
      <trkpt lat="40.6194943562" lon="-5.7370717451">
        <ele>910.51</ele>
        <time>2020-07-18T06:51:49Z</time>
      </trkpt>
      <trkpt lat="40.6195096951" lon="-5.7370642852">
        <ele>910.51</ele>
        <time>2020-07-18T06:51:50Z</time>
      </trkpt>
      <trkpt lat="40.6195246987" lon="-5.7370556518">
        <ele>910.51</ele>
        <time>2020-07-18T06:51:51Z</time>
      </trkpt>
      <trkpt lat="40.6196080148" lon="-5.7369942125">
        <ele>910.99</ele>
        <time>2020-07-18T06:51:59Z</time>
      </trkpt>
      <trkpt lat="40.6196201686" lon="-5.7369827293">
        <ele>911.95</ele>
        <time>2020-07-18T06:52:06Z</time>
      </trkpt>
      <trkpt lat="40.6196316518" lon="-5.7369881775">
        <ele>911.47</ele>
        <time>2020-07-18T06:52:15Z</time>
      </trkpt>
      <trkpt lat="40.6196440570" lon="-5.7369870041">
        <ele>911.95</ele>
        <time>2020-07-18T06:52:26Z</time>
      </trkpt>
      <trkpt lat="40.6196499243" lon="-5.7369964756">
        <ele>912.43</ele>
        <time>2020-07-18T06:52:41Z</time>
      </trkpt>
      <trkpt lat="40.6197119504" lon="-5.7370750979">
        <ele>912.91</ele>
        <time>2020-07-18T06:52:48Z</time>
      </trkpt>
      <trkpt lat="40.6197652593" lon="-5.7371393032">
        <ele>912.91</ele>
        <time>2020-07-18T06:52:57Z</time>
      </trkpt>
      <trkpt lat="40.6197607331" lon="-5.7371340226">
        <ele>913.39</ele>
        <time>2020-07-18T06:53:11Z</time>
      </trkpt>
      <trkpt lat="40.6197581347" lon="-5.7371420693">
        <ele>912.91</ele>
        <time>2020-07-18T06:53:22Z</time>
      </trkpt>
      <trkpt lat="40.6197593082" lon="-5.7371319272">
        <ele>913.87</ele>
        <time>2020-07-18T06:53:33Z</time>
      </trkpt>
      <trkpt lat="40.6197836995" lon="-5.7371376269">
        <ele>914.35</ele>
        <time>2020-07-18T06:53:40Z</time>
      </trkpt>
      <trkpt lat="40.6197978649" lon="-5.7371400576">
        <ele>914.35</ele>
        <time>2020-07-18T06:53:41Z</time>
      </trkpt>
      <trkpt lat="40.6198142935" lon="-5.7371425722">
        <ele>914.35</ele>
        <time>2020-07-18T06:53:42Z</time>
      </trkpt>
      <trkpt lat="40.6199774891" lon="-5.7371627726">
        <ele>915.31</ele>
        <time>2020-07-18T06:53:50Z</time>
      </trkpt>
      <trkpt lat="40.6202341430" lon="-5.7372252177">
        <ele>914.35</ele>
        <time>2020-07-18T06:53:59Z</time>
      </trkpt>
      <trkpt lat="40.6204773020" lon="-5.7372449990">
        <ele>914.35</ele>
        <time>2020-07-18T06:54:07Z</time>
      </trkpt>
      <trkpt lat="40.6207241490" lon="-5.7372377068">
        <ele>913.39</ele>
        <time>2020-07-18T06:54:15Z</time>
      </trkpt>
      <trkpt lat="40.6209130771" lon="-5.7372670434">
        <ele>913.39</ele>
        <time>2020-07-18T06:54:22Z</time>
      </trkpt>
      <trkpt lat="40.6211961340" lon="-5.7372879144">
        <ele>913.87</ele>
        <time>2020-07-18T06:54:31Z</time>
      </trkpt>
      <trkpt lat="40.6212145742" lon="-5.7372838911">
        <ele>913.39</ele>
        <time>2020-07-18T06:54:36Z</time>
      </trkpt>
      <trkpt lat="40.6212136522" lon="-5.7372726593">
        <ele>911.95</ele>
        <time>2020-07-18T06:54:57Z</time>
      </trkpt>
      <trkpt lat="40.6212227885" lon="-5.7372751739">
        <ele>911.95</ele>
        <time>2020-07-18T06:55:19Z</time>
      </trkpt>
      <trkpt lat="40.6212178431" lon="-5.7372587454">
        <ele>911.47</ele>
        <time>2020-07-18T06:55:46Z</time>
      </trkpt>
      <trkpt lat="40.6212061085" lon="-5.7372689713">
        <ele>913.87</ele>
        <time>2020-07-18T06:56:03Z</time>
      </trkpt>
      <trkpt lat="40.6212129816" lon="-5.7372918539">
        <ele>915.31</ele>
        <time>2020-07-18T06:56:24Z</time>
      </trkpt>
      <trkpt lat="40.6212252192" lon="-5.7372920215">
        <ele>916.27</ele>
        <time>2020-07-18T06:56:42Z</time>
      </trkpt>
      <trkpt lat="40.6212206092" lon="-5.7372880820">
        <ele>915.79</ele>
        <time>2020-07-18T06:57:01Z</time>
      </trkpt>
      <trkpt lat="40.6212156639" lon="-5.7372781914">
        <ele>914.83</ele>
        <time>2020-07-18T06:57:17Z</time>
      </trkpt>
      <trkpt lat="40.6212133169" lon="-5.7372782752">
        <ele>914.35</ele>
        <time>2020-07-18T06:57:35Z</time>
      </trkpt>
      <trkpt lat="40.6212082040" lon="-5.7372830529">
        <ele>913.87</ele>
        <time>2020-07-18T06:57:50Z</time>
      </trkpt>
      <trkpt lat="40.6212181784" lon="-5.7372736651">
        <ele>911.95</ele>
        <time>2020-07-18T06:58:05Z</time>
      </trkpt>
      <trkpt lat="40.6212302484" lon="-5.7372706477">
        <ele>910.99</ele>
        <time>2020-07-18T06:58:19Z</time>
      </trkpt>
      <trkpt lat="40.6212355290" lon="-5.7372722402">
        <ele>911.47</ele>
        <time>2020-07-18T06:58:29Z</time>
      </trkpt>
      <trkpt lat="40.6212366186" lon="-5.7372791972">
        <ele>912.43</ele>
        <time>2020-07-18T06:58:44Z</time>
      </trkpt>
      <trkpt lat="40.6212312542" lon="-5.7372767664">
        <ele>912.91</ele>
        <time>2020-07-18T06:58:57Z</time>
      </trkpt>
      <trkpt lat="40.6212319247" lon="-5.7372765988">
        <ele>912.91</ele>
        <time>2020-07-18T06:59:11Z</time>
      </trkpt>
      <trkpt lat="40.6212276500" lon="-5.7372734137">
        <ele>912.43</ele>
        <time>2020-07-18T06:59:31Z</time>
      </trkpt>
      <trkpt lat="40.6212304998" lon="-5.7372731622">
        <ele>910.51</ele>
        <time>2020-07-18T06:59:51Z</time>
      </trkpt>
      <trkpt lat="40.6212242972" lon="-5.7372821309">
        <ele>911.47</ele>
        <time>2020-07-18T07:00:09Z</time>
      </trkpt>
      <trkpt lat="40.6212204415" lon="-5.7372755930">
        <ele>911.47</ele>
        <time>2020-07-18T07:00:23Z</time>
      </trkpt>
      <trkpt lat="40.6212231237" lon="-5.7372808736">
        <ele>911.95</ele>
        <time>2020-07-18T07:00:39Z</time>
      </trkpt>
      <trkpt lat="40.6212180946" lon="-5.7372824661">
        <ele>911.95</ele>
        <time>2020-07-18T07:00:51Z</time>
      </trkpt>
      <trkpt lat="40.6212232076" lon="-5.7372762635">
        <ele>910.99</ele>
        <time>2020-07-18T07:01:11Z</time>
      </trkpt>
      <trkpt lat="40.6212216150" lon="-5.7372842263">
        <ele>910.99</ele>
        <time>2020-07-18T07:01:29Z</time>
      </trkpt>
      <trkpt lat="40.6212263089" lon="-5.7372786105">
        <ele>910.51</ele>
        <time>2020-07-18T07:01:40Z</time>
      </trkpt>
      <trkpt lat="40.6212191004" lon="-5.7372822985">
        <ele>911.95</ele>
        <time>2020-07-18T07:02:00Z</time>
      </trkpt>
      <trkpt lat="40.6212137360" lon="-5.7372858189">
        <ele>911.95</ele>
        <time>2020-07-18T07:02:13Z</time>
      </trkpt>
      <trkpt lat="40.6212264765" lon="-5.7372871600">
        <ele>912.91</ele>
        <time>2020-07-18T07:02:29Z</time>
      </trkpt>
      <trkpt lat="40.6212305836" lon="-5.7372939494">
        <ele>914.83</ele>
        <time>2020-07-18T07:02:41Z</time>
      </trkpt>
      <trkpt lat="40.6212265603" lon="-5.7372951228">
        <ele>915.31</ele>
        <time>2020-07-18T07:02:54Z</time>
      </trkpt>
      <trkpt lat="40.6212199386" lon="-5.7372835558">
        <ele>914.35</ele>
        <time>2020-07-18T07:03:13Z</time>
      </trkpt>
      <trkpt lat="40.6212169211" lon="-5.7372784428">
        <ele>915.31</ele>
        <time>2020-07-18T07:03:29Z</time>
      </trkpt>
      <trkpt lat="40.6212053541" lon="-5.7372784428">
        <ele>913.39</ele>
        <time>2020-07-18T07:03:44Z</time>
      </trkpt>
      <trkpt lat="40.6211940385" lon="-5.7372889202">
        <ele>914.35</ele>
        <time>2020-07-18T07:04:00Z</time>
      </trkpt>
      <trkpt lat="40.6211862434" lon="-5.7372965477">
        <ele>914.83</ele>
        <time>2020-07-18T07:04:14Z</time>
      </trkpt>
      <trkpt lat="40.6211914402" lon="-5.7372950390">
        <ele>914.83</ele>
        <time>2020-07-18T07:04:26Z</time>
      </trkpt>
      <trkpt lat="40.6211981457" lon="-5.7372915186">
        <ele>914.83</ele>
        <time>2020-07-18T07:04:35Z</time>
      </trkpt>
      <trkpt lat="40.6212044321" lon="-5.7372829691">
        <ele>914.35</ele>
        <time>2020-07-18T07:04:46Z</time>
      </trkpt>
      <trkpt lat="40.6212184299" lon="-5.7372786943">
        <ele>913.87</ele>
        <time>2020-07-18T07:04:59Z</time>
      </trkpt>
      <trkpt lat="40.6212168373" lon="-5.7372899260">
        <ele>914.35</ele>
        <time>2020-07-18T07:05:11Z</time>
      </trkpt>
      <trkpt lat="40.6212128140" lon="-5.7372974698">
        <ele>914.35</ele>
        <time>2020-07-18T07:05:20Z</time>
      </trkpt>
      <trkpt lat="40.6212061923" lon="-5.7372948714">
        <ele>915.79</ele>
        <time>2020-07-18T07:05:31Z</time>
      </trkpt>
      <trkpt lat="40.6212127302" lon="-5.7372889202">
        <ele>916.27</ele>
        <time>2020-07-18T07:05:46Z</time>
      </trkpt>
      <trkpt lat="40.6212326791" lon="-5.7372977212">
        <ele>914.83</ele>
        <time>2020-07-18T07:06:06Z</time>
      </trkpt>
      <trkpt lat="40.6212314218" lon="-5.7372954581">
        <ele>916.27</ele>
        <time>2020-07-18T07:06:25Z</time>
      </trkpt>
      <trkpt lat="40.6212314218" lon="-5.7372861542">
        <ele>915.79</ele>
        <time>2020-07-18T07:06:38Z</time>
      </trkpt>
      <trkpt lat="40.6212232076" lon="-5.7372776885">
        <ele>916.27</ele>
        <time>2020-07-18T07:06:53Z</time>
      </trkpt>
      <trkpt lat="40.6212237943" lon="-5.7372698933">
        <ele>916.75</ele>
        <time>2020-07-18T07:07:05Z</time>
      </trkpt>
      <trkpt lat="40.6212196033" lon="-5.7372723240">
        <ele>916.27</ele>
        <time>2020-07-18T07:07:14Z</time>
      </trkpt>
      <trkpt lat="40.6212225370" lon="-5.7372768503">
        <ele>915.31</ele>
        <time>2020-07-18T07:07:26Z</time>
      </trkpt>
      <trkpt lat="40.6212292425" lon="-5.7372790296">
        <ele>916.27</ele>
        <time>2020-07-18T07:07:38Z</time>
      </trkpt>
      <trkpt lat="40.6212325115" lon="-5.7372865733">
        <ele>915.79</ele>
        <time>2020-07-18T07:07:50Z</time>
      </trkpt>
      <trkpt lat="40.6212391332" lon="-5.7372831367">
        <ele>916.27</ele>
        <time>2020-07-18T07:08:05Z</time>
      </trkpt>
      <trkpt lat="40.6212484371" lon="-5.7372886688">
        <ele>914.35</ele>
        <time>2020-07-18T07:08:18Z</time>
      </trkpt>
      <trkpt lat="40.6212423183" lon="-5.7372834720">
        <ele>913.87</ele>
        <time>2020-07-18T07:08:31Z</time>
      </trkpt>
      <trkpt lat="40.6212413125" lon="-5.7372840587">
        <ele>913.39</ele>
        <time>2020-07-18T07:08:44Z</time>
      </trkpt>
      <trkpt lat="40.6212343555" lon="-5.7372804545">
        <ele>912.91</ele>
        <time>2020-07-18T07:08:58Z</time>
      </trkpt>
      <trkpt lat="40.6212263089" lon="-5.7372862380">
        <ele>912.91</ele>
        <time>2020-07-18T07:09:12Z</time>
      </trkpt>
      <trkpt lat="40.6212297454" lon="-5.7372719888">
        <ele>913.87</ele>
        <time>2020-07-18T07:09:31Z</time>
      </trkpt>
      <trkpt lat="40.6212302484" lon="-5.7372646965">
        <ele>913.87</ele>
        <time>2020-07-18T07:09:45Z</time>
      </trkpt>
      <trkpt lat="40.6212327629" lon="-5.7372697257">
        <ele>915.31</ele>
        <time>2020-07-18T07:09:56Z</time>
      </trkpt>
      <trkpt lat="40.6212413125" lon="-5.7372601703">
        <ele>914.35</ele>
        <time>2020-07-18T07:10:13Z</time>
      </trkpt>
      <trkpt lat="40.6212370377" lon="-5.7372672949">
        <ele>914.35</ele>
        <time>2020-07-18T07:10:25Z</time>
      </trkpt>
      <trkpt lat="40.6212276500" lon="-5.7372693904">
        <ele>914.83</ele>
        <time>2020-07-18T07:10:39Z</time>
      </trkpt>
      <trkpt lat="40.6212206930" lon="-5.7372569013">
        <ele>914.35</ele>
        <time>2020-07-18T07:10:54Z</time>
      </trkpt>
      <trkpt lat="40.6212192681" lon="-5.7372583263">
        <ele>913.87</ele>
        <time>2020-07-18T07:11:07Z</time>
      </trkpt>
      <trkpt lat="40.6212176755" lon="-5.7372613437">
        <ele>913.39</ele>
        <time>2020-07-18T07:11:19Z</time>
      </trkpt>
      <trkpt lat="40.6212188490" lon="-5.7372615114">
        <ele>912.91</ele>
        <time>2020-07-18T07:11:29Z</time>
      </trkpt>
      <trkpt lat="40.6212225370" lon="-5.7372632716">
        <ele>913.39</ele>
        <time>2020-07-18T07:11:44Z</time>
      </trkpt>
      <trkpt lat="40.6212196033" lon="-5.7372607570">
        <ele>913.87</ele>
        <time>2020-07-18T07:12:00Z</time>
      </trkpt>
      <trkpt lat="40.6212237105" lon="-5.7372593321">
        <ele>913.87</ele>
        <time>2020-07-18T07:12:11Z</time>
      </trkpt>
      <trkpt lat="40.6212310866" lon="-5.7372603379">
        <ele>914.83</ele>
        <time>2020-07-18T07:12:27Z</time>
      </trkpt>
      <trkpt lat="40.6212231237" lon="-5.7372651156">
        <ele>914.83</ele>
        <time>2020-07-18T07:12:38Z</time>
      </trkpt>
      <trkpt lat="40.6212114729" lon="-5.7372651994">
        <ele>915.79</ele>
        <time>2020-07-18T07:12:51Z</time>
      </trkpt>
      <trkpt lat="40.6212118082" lon="-5.7372553088">
        <ele>916.75</ele>
        <time>2020-07-18T07:13:01Z</time>
      </trkpt>
      <trkpt lat="40.6212199386" lon="-5.7372565661">
        <ele>916.75</ele>
        <time>2020-07-18T07:13:10Z</time>
      </trkpt>
      <trkpt lat="40.6212209444" lon="-5.7372506987">
        <ele>916.27</ele>
        <time>2020-07-18T07:13:23Z</time>
      </trkpt>
      <trkpt lat="40.6212173402" lon="-5.7372563984">
        <ele>916.27</ele>
        <time>2020-07-18T07:13:34Z</time>
      </trkpt>
      <trkpt lat="40.6212159991" lon="-5.7372484356">
        <ele>915.79</ele>
        <time>2020-07-18T07:13:45Z</time>
      </trkpt>
      <trkpt lat="40.6212104671" lon="-5.7372530457">
        <ele>916.75</ele>
        <time>2020-07-18T07:14:00Z</time>
      </trkpt>
      <trkpt lat="40.6212094612" lon="-5.7372564822">
        <ele>917.24</ele>
        <time>2020-07-18T07:14:08Z</time>
      </trkpt>
      <trkpt lat="40.6212074496" lon="-5.7372693904">
        <ele>917.72</ele>
        <time>2020-07-18T07:14:22Z</time>
      </trkpt>
      <trkpt lat="40.6212117244" lon="-5.7372703962">
        <ele>916.75</ele>
        <time>2020-07-18T07:14:33Z</time>
      </trkpt>
      <trkpt lat="40.6212145742" lon="-5.7372702286">
        <ele>916.75</ele>
        <time>2020-07-18T07:14:46Z</time>
      </trkpt>
      <trkpt lat="40.6212175079" lon="-5.7372701447">
        <ele>916.27</ele>
        <time>2020-07-18T07:14:57Z</time>
      </trkpt>
      <trkpt lat="40.6212166697" lon="-5.7372755092">
        <ele>916.27</ele>
        <time>2020-07-18T07:15:06Z</time>
      </trkpt>
      <trkpt lat="40.6212153286" lon="-5.7372773532">
        <ele>916.27</ele>
        <time>2020-07-18T07:15:16Z</time>
      </trkpt>
      <trkpt lat="40.6212115567" lon="-5.7372754253">
        <ele>916.75</ele>
        <time>2020-07-18T07:15:26Z</time>
      </trkpt>
      <trkpt lat="40.6212144066" lon="-5.7372771855">
        <ele>916.27</ele>
        <time>2020-07-18T07:15:38Z</time>
      </trkpt>
      <trkpt lat="40.6212253869" lon="-5.7372656185">
        <ele>914.83</ele>
        <time>2020-07-18T07:15:50Z</time>
      </trkpt>
      <trkpt lat="40.6212310027" lon="-5.7372776885">
        <ele>914.35</ele>
        <time>2020-07-18T07:16:02Z</time>
      </trkpt>
      <trkpt lat="40.6212356128" lon="-5.7372880820">
        <ele>914.35</ele>
        <time>2020-07-18T07:16:13Z</time>
      </trkpt>
      <trkpt lat="40.6212336849" lon="-5.7372890878">
        <ele>913.87</ele>
        <time>2020-07-18T07:16:25Z</time>
      </trkpt>
      <trkpt lat="40.6212341040" lon="-5.7373051811">
        <ele>913.87</ele>
        <time>2020-07-18T07:16:44Z</time>
      </trkpt>
      <trkpt lat="40.6212369539" lon="-5.7373007387">
        <ele>911.47</ele>
        <time>2020-07-18T07:16:59Z</time>
      </trkpt>
      <trkpt lat="40.6212361995" lon="-5.7372931112">
        <ele>910.99</ele>
        <time>2020-07-18T07:17:11Z</time>
      </trkpt>
      <trkpt lat="40.6212304160" lon="-5.7372766826">
        <ele>911.95</ele>
        <time>2020-07-18T07:17:27Z</time>
      </trkpt>
      <trkpt lat="40.6212265603" lon="-5.7372657862">
        <ele>911.95</ele>
        <time>2020-07-18T07:17:41Z</time>
      </trkpt>
      <trkpt lat="40.6212265603" lon="-5.7372638583">
        <ele>911.47</ele>
        <time>2020-07-18T07:18:01Z</time>
      </trkpt>
      <trkpt lat="40.6212286558" lon="-5.7372733299">
        <ele>911.95</ele>
        <time>2020-07-18T07:18:18Z</time>
      </trkpt>
      <trkpt lat="40.6212261412" lon="-5.7372821309">
        <ele>912.91</ele>
        <time>2020-07-18T07:18:30Z</time>
      </trkpt>
      <trkpt lat="40.6212230399" lon="-5.7372777723">
        <ele>913.87</ele>
        <time>2020-07-18T07:18:42Z</time>
      </trkpt>
      <trkpt lat="40.6212206092" lon="-5.7372643612">
        <ele>913.39</ele>
        <time>2020-07-18T07:18:58Z</time>
      </trkpt>
      <trkpt lat="40.6212265603" lon="-5.7372638583">
        <ele>912.43</ele>
        <time>2020-07-18T07:19:12Z</time>
      </trkpt>
      <trkpt lat="40.6212217826" lon="-5.7372848131">
        <ele>910.51</ele>
        <time>2020-07-18T07:19:27Z</time>
      </trkpt>
      <trkpt lat="40.6212191842" lon="-5.7372818794">
        <ele>909.54</ele>
        <time>2020-07-18T07:19:36Z</time>
      </trkpt>
      <trkpt lat="40.6212164182" lon="-5.7372860704">
        <ele>907.62</ele>
        <time>2020-07-18T07:19:52Z</time>
      </trkpt>
      <trkpt lat="40.6212200224" lon="-5.7372912671">
        <ele>907.62</ele>
        <time>2020-07-18T07:20:04Z</time>
      </trkpt>
      <trkpt lat="40.6212258898" lon="-5.7372904290">
        <ele>907.14</ele>
        <time>2020-07-18T07:20:16Z</time>
      </trkpt>
      <trkpt lat="40.6212403066" lon="-5.7373004034">
        <ele>907.14</ele>
        <time>2020-07-18T07:20:29Z</time>
      </trkpt>
      <trkpt lat="40.6212369539" lon="-5.7373156585">
        <ele>907.62</ele>
        <time>2020-07-18T07:20:41Z</time>
      </trkpt>
      <trkpt lat="40.6212398037" lon="-5.7373077795">
        <ele>908.58</ele>
        <time>2020-07-18T07:20:53Z</time>
      </trkpt>
      <trkpt lat="40.6212485209" lon="-5.7372835558">
        <ele>909.06</ele>
        <time>2020-07-18T07:21:13Z</time>
      </trkpt>
      <trkpt lat="40.6212315056" lon="-5.7372639421">
        <ele>908.58</ele>
        <time>2020-07-18T07:21:26Z</time>
      </trkpt>
      <trkpt lat="40.6212236267" lon="-5.7372693904">
        <ele>908.10</ele>
        <time>2020-07-18T07:21:42Z</time>
      </trkpt>
      <trkpt lat="40.6212280691" lon="-5.7372800354">
        <ele>906.66</ele>
        <time>2020-07-18T07:21:56Z</time>
      </trkpt>
      <trkpt lat="40.6212370377" lon="-5.7372803707">
        <ele>906.66</ele>
        <time>2020-07-18T07:22:07Z</time>
      </trkpt>
      <trkpt lat="40.6212418992" lon="-5.7373024989">
        <ele>907.14</ele>
        <time>2020-07-18T07:22:21Z</time>
      </trkpt>
      <trkpt lat="40.6212403066" lon="-5.7373184245">
        <ele>907.62</ele>
        <time>2020-07-18T07:22:35Z</time>
      </trkpt>
      <trkpt lat="40.6212250516" lon="-5.7372973021">
        <ele>908.10</ele>
        <time>2020-07-18T07:22:51Z</time>
      </trkpt>
      <trkpt lat="40.6212262250" lon="-5.7372842263">
        <ele>908.10</ele>
        <time>2020-07-18T07:23:05Z</time>
      </trkpt>
      <trkpt lat="40.6212304998" lon="-5.7372931112">
        <ele>908.10</ele>
        <time>2020-07-18T07:23:20Z</time>
      </trkpt>
      <trkpt lat="40.6212318409" lon="-5.7372938655">
        <ele>910.51</ele>
        <time>2020-07-18T07:23:36Z</time>
      </trkpt>
      <trkpt lat="40.6212262250" lon="-5.7372802030">
        <ele>910.51</ele>
        <time>2020-07-18T07:23:48Z</time>
      </trkpt>
      <trkpt lat="40.6212175917" lon="-5.7372707315">
        <ele>910.03</ele>
        <time>2020-07-18T07:24:03Z</time>
      </trkpt>
      <trkpt lat="40.6212160829" lon="-5.7372753415">
        <ele>909.54</ele>
        <time>2020-07-18T07:24:17Z</time>
      </trkpt>
      <trkpt lat="40.6212320086" lon="-5.7372805383">
        <ele>908.58</ele>
        <time>2020-07-18T07:24:35Z</time>
      </trkpt>
      <trkpt lat="40.6212388817" lon="-5.7372961286">
        <ele>909.54</ele>
        <time>2020-07-18T07:24:50Z</time>
      </trkpt>
      <trkpt lat="40.6212355290" lon="-5.7373009901">
        <ele>909.54</ele>
        <time>2020-07-18T07:25:01Z</time>
      </trkpt>
      <trkpt lat="40.6212290749" lon="-5.7372750062">
        <ele>909.06</ele>
        <time>2020-07-18T07:25:17Z</time>
      </trkpt>
      <trkpt lat="40.6212320086" lon="-5.7372765988">
        <ele>910.03</ele>
        <time>2020-07-18T07:25:28Z</time>
      </trkpt>
      <trkpt lat="40.6212311704" lon="-5.7372848969">
        <ele>911.47</ele>
        <time>2020-07-18T07:25:39Z</time>
      </trkpt>
      <trkpt lat="40.6212297454" lon="-5.7372923568">
        <ele>912.43</ele>
        <time>2020-07-18T07:25:57Z</time>
      </trkpt>
      <trkpt lat="40.6212277338" lon="-5.7372864895">
        <ele>912.91</ele>
        <time>2020-07-18T07:26:12Z</time>
      </trkpt>
      <trkpt lat="40.6212191842" lon="-5.7372931950">
        <ele>911.47</ele>
        <time>2020-07-18T07:26:26Z</time>
      </trkpt>
      <trkpt lat="40.6212258060" lon="-5.7372927759">
        <ele>911.95</ele>
        <time>2020-07-18T07:26:41Z</time>
      </trkpt>
      <trkpt lat="40.6212248001" lon="-5.7372841425">
        <ele>911.95</ele>
        <time>2020-07-18T07:26:55Z</time>
      </trkpt>
      <trkpt lat="40.6212340202" lon="-5.7373046782">
        <ele>913.87</ele>
        <time>2020-07-18T07:27:09Z</time>
      </trkpt>
      <trkpt lat="40.6212313380" lon="-5.7372964639">
        <ele>915.31</ele>
        <time>2020-07-18T07:27:27Z</time>
      </trkpt>
      <trkpt lat="40.6212366186" lon="-5.7372927759">
        <ele>914.35</ele>
        <time>2020-07-18T07:27:42Z</time>
      </trkpt>
      <trkpt lat="40.6212369539" lon="-5.7372936141">
        <ele>913.87</ele>
        <time>2020-07-18T07:27:58Z</time>
      </trkpt>
      <trkpt lat="40.6212315895" lon="-5.7372859865">
        <ele>912.91</ele>
        <time>2020-07-18T07:28:06Z</time>
      </trkpt>
      <trkpt lat="40.6212315056" lon="-5.7372877467">
        <ele>912.43</ele>
        <time>2020-07-18T07:28:16Z</time>
      </trkpt>
      <trkpt lat="40.6212280691" lon="-5.7372825500">
        <ele>912.91</ele>
        <time>2020-07-18T07:28:29Z</time>
      </trkpt>
      <trkpt lat="40.6212284882" lon="-5.7372958772">
        <ele>912.91</ele>
        <time>2020-07-18T07:28:49Z</time>
      </trkpt>
      <trkpt lat="40.6212298293" lon="-5.7372916862">
        <ele>913.39</ele>
        <time>2020-07-18T07:29:11Z</time>
      </trkpt>
      <trkpt lat="40.6212278176" lon="-5.7372848969">
        <ele>912.91</ele>
        <time>2020-07-18T07:29:21Z</time>
      </trkpt>
      <trkpt lat="40.6212294940" lon="-5.7372874953">
        <ele>912.91</ele>
        <time>2020-07-18T07:29:40Z</time>
      </trkpt>
      <trkpt lat="40.6212279852" lon="-5.7372862380">
        <ele>912.43</ele>
        <time>2020-07-18T07:29:55Z</time>
      </trkpt>
      <trkpt lat="40.6212291587" lon="-5.7372885849">
        <ele>911.47</ele>
        <time>2020-07-18T07:30:09Z</time>
      </trkpt>
      <trkpt lat="40.6212301645" lon="-5.7372763474">
        <ele>911.47</ele>
        <time>2020-07-18T07:30:20Z</time>
      </trkpt>
      <trkpt lat="40.6212428212" lon="-5.7372755092">
        <ele>913.39</ele>
        <time>2020-07-18T07:30:35Z</time>
      </trkpt>
      <trkpt lat="40.6212546397" lon="-5.7372797001">
        <ele>914.83</ele>
        <time>2020-07-18T07:30:48Z</time>
      </trkpt>
      <trkpt lat="40.6212572381" lon="-5.7372799516">
        <ele>913.87</ele>
        <time>2020-07-18T07:31:01Z</time>
      </trkpt>
      <trkpt lat="40.6212453358" lon="-5.7372735813">
        <ele>913.39</ele>
        <time>2020-07-18T07:31:17Z</time>
      </trkpt>
      <trkpt lat="40.6212412287" lon="-5.7372777723">
        <ele>913.39</ele>
        <time>2020-07-18T07:31:30Z</time>
      </trkpt>
      <trkpt lat="40.6212318409" lon="-5.7372917701">
        <ele>913.87</ele>
        <time>2020-07-18T07:31:43Z</time>
      </trkpt>
      <trkpt lat="40.6212433241" lon="-5.7372870762">
        <ele>913.87</ele>
        <time>2020-07-18T07:31:54Z</time>
      </trkpt>
      <trkpt lat="40.6212460063" lon="-5.7372956257">
        <ele>911.47</ele>
        <time>2020-07-18T07:32:05Z</time>
      </trkpt>
      <trkpt lat="40.6212430727" lon="-5.7372869924">
        <ele>909.06</ele>
        <time>2020-07-18T07:32:24Z</time>
      </trkpt>
      <trkpt lat="40.6212511193" lon="-5.7372873276">
        <ele>907.62</ele>
        <time>2020-07-18T07:32:36Z</time>
      </trkpt>
      <trkpt lat="40.6212559808" lon="-5.7373016607">
        <ele>907.14</ele>
        <time>2020-07-18T07:32:50Z</time>
      </trkpt>
      <trkpt lat="40.6212729961" lon="-5.7372970507">
        <ele>908.58</ele>
        <time>2020-07-18T07:33:00Z</time>
      </trkpt>
      <trkpt lat="40.6213404704" lon="-5.7373028342">
        <ele>909.06</ele>
        <time>2020-07-18T07:33:06Z</time>
      </trkpt>
      <trkpt lat="40.6215774268" lon="-5.7373482641">
        <ele>908.10</ele>
        <time>2020-07-18T07:33:14Z</time>
      </trkpt>
      <trkpt lat="40.6219212525" lon="-5.7374062669">
        <ele>907.62</ele>
        <time>2020-07-18T07:33:23Z</time>
      </trkpt>
      <trkpt lat="40.6221476477" lon="-5.7374754176">
        <ele>908.10</ele>
        <time>2020-07-18T07:33:29Z</time>
      </trkpt>
      <trkpt lat="40.6224640645" lon="-5.7375414670">
        <ele>908.58</ele>
        <time>2020-07-18T07:33:37Z</time>
      </trkpt>
      <trkpt lat="40.6227524858" lon="-5.7375379466">
        <ele>909.06</ele>
        <time>2020-07-18T07:33:45Z</time>
      </trkpt>
      <trkpt lat="40.6229532324" lon="-5.7374939416">
        <ele>909.06</ele>
        <time>2020-07-18T07:33:52Z</time>
      </trkpt>
      <trkpt lat="40.6230622809" lon="-5.7375646848">
        <ele>909.54</ele>
        <time>2020-07-18T07:33:57Z</time>
      </trkpt>
      <trkpt lat="40.6231813878" lon="-5.7377345022">
        <ele>909.06</ele>
        <time>2020-07-18T07:34:04Z</time>
      </trkpt>
      <trkpt lat="40.6233117264" lon="-5.7378581353">
        <ele>909.06</ele>
        <time>2020-07-18T07:34:12Z</time>
      </trkpt>
      <trkpt lat="40.6235540472" lon="-5.7379078399">
        <ele>908.58</ele>
        <time>2020-07-18T07:34:21Z</time>
      </trkpt>
      <trkpt lat="40.6238147244" lon="-5.7379556168">
        <ele>909.54</ele>
        <time>2020-07-18T07:34:30Z</time>
      </trkpt>
      <trkpt lat="40.6239864696" lon="-5.7379756495">
        <ele>911.47</ele>
        <time>2020-07-18T07:34:38Z</time>
      </trkpt>
      <trkpt lat="40.6239894032" lon="-5.7379774097">
        <ele>912.91</ele>
        <time>2020-07-18T07:34:47Z</time>
      </trkpt>
      <trkpt lat="40.6240089331" lon="-5.7379755657">
        <ele>912.91</ele>
        <time>2020-07-18T07:34:50Z</time>
      </trkpt>
      <trkpt lat="40.6240292173" lon="-5.7379828580">
        <ele>912.91</ele>
        <time>2020-07-18T07:34:51Z</time>
      </trkpt>
      <trkpt lat="40.6240545306" lon="-5.7379938383">
        <ele>912.91</ele>
        <time>2020-07-18T07:34:52Z</time>
      </trkpt>
      <trkpt lat="40.6242625695" lon="-5.7380334847">
        <ele>913.39</ele>
        <time>2020-07-18T07:34:59Z</time>
      </trkpt>
      <trkpt lat="40.6244646572" lon="-5.7380593009">
        <ele>913.87</ele>
        <time>2020-07-18T07:35:07Z</time>
      </trkpt>
      <trkpt lat="40.6246690080" lon="-5.7381169684">
        <ele>914.83</ele>
        <time>2020-07-18T07:35:16Z</time>
      </trkpt>
      <trkpt lat="40.6249188725" lon="-5.7382003684">
        <ele>914.83</ele>
        <time>2020-07-18T07:35:25Z</time>
      </trkpt>
      <trkpt lat="40.6251057889" lon="-5.7383017056">
        <ele>915.79</ele>
        <time>2020-07-18T07:35:34Z</time>
      </trkpt>
      <trkpt lat="40.6252825633" lon="-5.7383650728">
        <ele>915.79</ele>
        <time>2020-07-18T07:35:41Z</time>
      </trkpt>
      <trkpt lat="40.6255023368" lon="-5.7384668291">
        <ele>917.24</ele>
        <time>2020-07-18T07:35:50Z</time>
      </trkpt>
      <trkpt lat="40.6257053465" lon="-5.7385338843">
        <ele>916.75</ele>
        <time>2020-07-18T07:35:59Z</time>
      </trkpt>
      <trkpt lat="40.6259515230" lon="-5.7386264205">
        <ele>918.68</ele>
        <time>2020-07-18T07:36:09Z</time>
      </trkpt>
      <trkpt lat="40.6261664350" lon="-5.7386425138">
        <ele>918.68</ele>
        <time>2020-07-18T07:36:18Z</time>
      </trkpt>
      <trkpt lat="40.6263180636" lon="-5.7386659831">
        <ele>920.12</ele>
        <time>2020-07-18T07:36:26Z</time>
      </trkpt>
      <trkpt lat="40.6264868751" lon="-5.7387114968">
        <ele>921.08</ele>
        <time>2020-07-18T07:36:34Z</time>
      </trkpt>
      <trkpt lat="40.6265803333" lon="-5.7387678232">
        <ele>921.56</ele>
        <time>2020-07-18T07:36:40Z</time>
      </trkpt>
      <trkpt lat="40.6266854424" lon="-5.7387759537">
        <ele>922.04</ele>
        <time>2020-07-18T07:36:46Z</time>
      </trkpt>
      <trkpt lat="40.6267016195" lon="-5.7387797255">
        <ele>922.04</ele>
        <time>2020-07-18T07:36:47Z</time>
      </trkpt>
      <trkpt lat="40.6267224904" lon="-5.7387846708">
        <ele>922.52</ele>
        <time>2020-07-18T07:36:48Z</time>
      </trkpt>
      <trkpt lat="40.6269037910" lon="-5.7388070505">
        <ele>923.48</ele>
        <time>2020-07-18T07:36:55Z</time>
      </trkpt>
      <trkpt lat="40.6271198764" lon="-5.7388203777">
        <ele>923.96</ele>
        <time>2020-07-18T07:37:03Z</time>
      </trkpt>
      <trkpt lat="40.6273863371" lon="-5.7388674840">
        <ele>923.96</ele>
        <time>2020-07-18T07:37:13Z</time>
      </trkpt>
      <trkpt lat="40.6276509538" lon="-5.7389172725">
        <ele>924.45</ele>
        <time>2020-07-18T07:37:23Z</time>
      </trkpt>
      <trkpt lat="40.6279159058" lon="-5.7389614452">
        <ele>924.93</ele>
        <time>2020-07-18T07:37:33Z</time>
      </trkpt>
      <trkpt lat="40.6281527784" lon="-5.7390201185">
        <ele>925.41</ele>
        <time>2020-07-18T07:37:42Z</time>
      </trkpt>
      <trkpt lat="40.6284000445" lon="-5.7390441746">
        <ele>925.89</ele>
        <time>2020-07-18T07:37:51Z</time>
      </trkpt>
      <trkpt lat="40.6286464725" lon="-5.7390554901">
        <ele>926.37</ele>
        <time>2020-07-18T07:38:00Z</time>
      </trkpt>
      <trkpt lat="40.6288965046" lon="-5.7390941307">
        <ele>926.37</ele>
        <time>2020-07-18T07:38:10Z</time>
      </trkpt>
      <trkpt lat="40.6291327905" lon="-5.7391232159">
        <ele>926.85</ele>
        <time>2020-07-18T07:38:20Z</time>
      </trkpt>
      <trkpt lat="40.6293017697" lon="-5.7391938753">
        <ele>927.81</ele>
        <time>2020-07-18T07:38:28Z</time>
      </trkpt>
      <trkpt lat="40.6295600999" lon="-5.7392853219">
        <ele>928.29</ele>
        <time>2020-07-18T07:38:38Z</time>
      </trkpt>
      <trkpt lat="40.6298864912" lon="-5.7393903472">
        <ele>928.77</ele>
        <time>2020-07-18T07:38:50Z</time>
      </trkpt>
      <trkpt lat="40.6301823724" lon="-5.7394679636">
        <ele>929.25</ele>
        <time>2020-07-18T07:39:00Z</time>
      </trkpt>
      <trkpt lat="40.6304516830" lon="-5.7395330910">
        <ele>929.25</ele>
        <time>2020-07-18T07:39:10Z</time>
      </trkpt>
      <trkpt lat="40.6306858733" lon="-5.7395664509">
        <ele>929.73</ele>
        <time>2020-07-18T07:39:19Z</time>
      </trkpt>
      <trkpt lat="40.6309235003" lon="-5.7395589072">
        <ele>930.21</ele>
        <time>2020-07-18T07:39:28Z</time>
      </trkpt>
      <trkpt lat="40.6311813276" lon="-5.7395982184">
        <ele>930.69</ele>
        <time>2020-07-18T07:39:38Z</time>
      </trkpt>
      <trkpt lat="40.6314898655" lon="-5.7396533713">
        <ele>931.17</ele>
        <time>2020-07-18T07:39:50Z</time>
      </trkpt>
      <trkpt lat="40.6317300908" lon="-5.7396967057">
        <ele>931.65</ele>
        <time>2020-07-18T07:40:00Z</time>
      </trkpt>
      <trkpt lat="40.6317502074" lon="-5.7396977115">
        <ele>932.14</ele>
        <time>2020-07-18T07:40:01Z</time>
      </trkpt>
      <trkpt lat="40.6317699887" lon="-5.7396942750">
        <ele>932.14</ele>
        <time>2020-07-18T07:40:02Z</time>
      </trkpt>
      <trkpt lat="40.6317887641" lon="-5.7396957837">
        <ele>932.14</ele>
        <time>2020-07-18T07:40:03Z</time>
      </trkpt>
      <trkpt lat="40.6318051927" lon="-5.7396947779">
        <ele>932.14</ele>
        <time>2020-07-18T07:40:04Z</time>
      </trkpt>
      <trkpt lat="40.6318228785" lon="-5.7396929339">
        <ele>932.14</ele>
        <time>2020-07-18T07:40:05Z</time>
      </trkpt>
      <trkpt lat="40.6318418216" lon="-5.7396964543">
        <ele>932.14</ele>
        <time>2020-07-18T07:40:06Z</time>
      </trkpt>
      <trkpt lat="40.6318604294" lon="-5.7397027407">
        <ele>932.14</ele>
        <time>2020-07-18T07:40:07Z</time>
      </trkpt>
      <trkpt lat="40.6320235413" lon="-5.7397806924">
        <ele>932.62</ele>
        <time>2020-07-18T07:40:17Z</time>
      </trkpt>
      <trkpt lat="40.6320430711" lon="-5.7397922594">
        <ele>932.62</ele>
        <time>2020-07-18T07:40:19Z</time>
      </trkpt>
      <trkpt lat="40.6320539676" lon="-5.7397924270">
        <ele>932.62</ele>
        <time>2020-07-18T07:40:20Z</time>
      </trkpt>
      <trkpt lat="40.6320729945" lon="-5.7397975400">
        <ele>932.62</ele>
        <time>2020-07-18T07:40:22Z</time>
      </trkpt>
      <trkpt lat="40.6320832204" lon="-5.7398007251">
        <ele>932.62</ele>
        <time>2020-07-18T07:40:23Z</time>
      </trkpt>
      <trkpt lat="40.6321440730" lon="-5.7398195844">
        <ele>932.62</ele>
        <time>2020-07-18T07:40:29Z</time>
      </trkpt>
      <trkpt lat="40.6321682129" lon="-5.7398345880">
        <ele>932.62</ele>
        <time>2020-07-18T07:40:31Z</time>
      </trkpt>
      <trkpt lat="40.6321796123" lon="-5.7398397010">
        <ele>932.62</ele>
        <time>2020-07-18T07:40:32Z</time>
      </trkpt>
      <trkpt lat="40.6322812848" lon="-5.7398702111">
        <ele>933.10</ele>
        <time>2020-07-18T07:40:40Z</time>
      </trkpt>
      <trkpt lat="40.6324455701" lon="-5.7399047446">
        <ele>934.06</ele>
        <time>2020-07-18T07:40:51Z</time>
      </trkpt>
      <trkpt lat="40.6326508429" lon="-5.7399563771">
        <ele>935.50</ele>
        <time>2020-07-18T07:41:02Z</time>
      </trkpt>
      <trkpt lat="40.6328696944" lon="-5.7400111947">
        <ele>936.46</ele>
        <time>2020-07-18T07:41:13Z</time>
      </trkpt>
      <trkpt lat="40.6330612209" lon="-5.7400224265">
        <ele>936.94</ele>
        <time>2020-07-18T07:41:23Z</time>
      </trkpt>
      <trkpt lat="40.6331717782" lon="-5.7400286291">
        <ele>936.46</ele>
        <time>2020-07-18T07:41:31Z</time>
      </trkpt>
      <trkpt lat="40.6331923977" lon="-5.7400234323">
        <ele>936.46</ele>
        <time>2020-07-18T07:41:32Z</time>
      </trkpt>
      <trkpt lat="40.6332138553" lon="-5.7400202472">
        <ele>936.46</ele>
        <time>2020-07-18T07:41:33Z</time>
      </trkpt>
      <trkpt lat="40.6332379114" lon="-5.7400204986">
        <ele>936.46</ele>
        <time>2020-07-18T07:41:34Z</time>
      </trkpt>
      <trkpt lat="40.6332642306" lon="-5.7400232647">
        <ele>936.46</ele>
        <time>2020-07-18T07:41:35Z</time>
      </trkpt>
      <trkpt lat="40.6335277576" lon="-5.7400468178">
        <ele>936.46</ele>
        <time>2020-07-18T07:41:45Z</time>
      </trkpt>
      <trkpt lat="40.6337760296" lon="-5.7401069999">
        <ele>936.46</ele>
        <time>2020-07-18T07:41:55Z</time>
      </trkpt>
      <trkpt lat="40.6339494511" lon="-5.7401496638">
        <ele>936.94</ele>
        <time>2020-07-18T07:42:02Z</time>
      </trkpt>
      <trkpt lat="40.6342458352" lon="-5.7402050681">
        <ele>936.94</ele>
        <time>2020-07-18T07:42:13Z</time>
      </trkpt>
      <trkpt lat="40.6344567239" lon="-5.7402611431">
        <ele>937.42</ele>
        <time>2020-07-18T07:42:21Z</time>
      </trkpt>
      <trkpt lat="40.6347205024" lon="-5.7402881328">
        <ele>937.90</ele>
        <time>2020-07-18T07:42:31Z</time>
      </trkpt>
      <trkpt lat="40.6349072512" lon="-5.7402619813">
        <ele>938.38</ele>
        <time>2020-07-18T07:42:38Z</time>
      </trkpt>
      <trkpt lat="40.6351748854" lon="-5.7402187306">
        <ele>938.86</ele>
        <time>2020-07-18T07:42:48Z</time>
      </trkpt>
      <trkpt lat="40.6354985945" lon="-5.7401723787">
        <ele>939.35</ele>
        <time>2020-07-18T07:43:00Z</time>
      </trkpt>
      <trkpt lat="40.6357801426" lon="-5.7400967740">
        <ele>939.83</ele>
        <time>2020-07-18T07:43:10Z</time>
      </trkpt>
      <trkpt lat="40.6359979883" lon="-5.7400230132">
        <ele>939.83</ele>
        <time>2020-07-18T07:43:18Z</time>
      </trkpt>
      <trkpt lat="40.6362139061" lon="-5.7399167307">
        <ele>940.79</ele>
        <time>2020-07-18T07:43:26Z</time>
      </trkpt>
      <trkpt lat="40.6363870762" lon="-5.7399144676">
        <ele>940.79</ele>
        <time>2020-07-18T07:43:33Z</time>
      </trkpt>
      <trkpt lat="40.6366578117" lon="-5.7398527768">
        <ele>940.79</ele>
        <time>2020-07-18T07:43:42Z</time>
      </trkpt>
      <trkpt lat="40.6369160581" lon="-5.7398082688">
        <ele>941.75</ele>
        <time>2020-07-18T07:43:51Z</time>
      </trkpt>
      <trkpt lat="40.6372213271" lon="-5.7397720590">
        <ele>942.23</ele>
        <time>2020-07-18T07:44:02Z</time>
      </trkpt>
      <trkpt lat="40.6375269312" lon="-5.7397360168">
        <ele>942.71</ele>
        <time>2020-07-18T07:44:13Z</time>
      </trkpt>
      <trkpt lat="40.6377964932" lon="-5.7397259586">
        <ele>943.19</ele>
        <time>2020-07-18T07:44:23Z</time>
      </trkpt>
      <trkpt lat="40.6380917039" lon="-5.7397336699">
        <ele>943.67</ele>
        <time>2020-07-18T07:44:35Z</time>
      </trkpt>
      <trkpt lat="40.6382241379" lon="-5.7397150621">
        <ele>944.63</ele>
        <time>2020-07-18T07:44:43Z</time>
      </trkpt>
      <trkpt lat="40.6382312626" lon="-5.7397110388">
        <ele>945.11</ele>
        <time>2020-07-18T07:44:50Z</time>
      </trkpt>
      <trkpt lat="40.6382703222" lon="-5.7397116255">
        <ele>945.59</ele>
        <time>2020-07-18T07:44:57Z</time>
      </trkpt>
      <trkpt lat="40.6382685620" lon="-5.7397122961">
        <ele>945.11</ele>
        <time>2020-07-18T07:45:04Z</time>
      </trkpt>
      <trkpt lat="40.6382703222" lon="-5.7397298142">
        <ele>943.67</ele>
        <time>2020-07-18T07:45:24Z</time>
      </trkpt>
      <trkpt lat="40.6382633653" lon="-5.7397272997">
        <ele>943.67</ele>
        <time>2020-07-18T07:45:44Z</time>
      </trkpt>
      <trkpt lat="40.6382802967" lon="-5.7397316583">
        <ele>943.19</ele>
        <time>2020-07-18T07:45:57Z</time>
      </trkpt>
      <trkpt lat="40.6382987369" lon="-5.7397487573">
        <ele>943.67</ele>
        <time>2020-07-18T07:46:03Z</time>
      </trkpt>
      <trkpt lat="40.6383512076" lon="-5.7397839613">
        <ele>944.15</ele>
        <time>2020-07-18T07:46:10Z</time>
      </trkpt>
      <trkpt lat="40.6383680552" lon="-5.7397858892">
        <ele>944.15</ele>
        <time>2020-07-18T07:46:16Z</time>
      </trkpt>
      <trkpt lat="40.6383865792" lon="-5.7397857215">
        <ele>944.15</ele>
        <time>2020-07-18T07:46:18Z</time>
      </trkpt>
      <trkpt lat="40.6383988168" lon="-5.7397734001">
        <ele>944.63</ele>
        <time>2020-07-18T07:46:19Z</time>
      </trkpt>
      <trkpt lat="40.6384104677" lon="-5.7397538703">
        <ele>944.63</ele>
        <time>2020-07-18T07:46:20Z</time>
      </trkpt>
      <trkpt lat="40.6384201907" lon="-5.7397346757">
        <ele>944.63</ele>
        <time>2020-07-18T07:46:21Z</time>
      </trkpt>
      <trkpt lat="40.6384330150" lon="-5.7397119608">
        <ele>944.63</ele>
        <time>2020-07-18T07:46:22Z</time>
      </trkpt>
      <trkpt lat="40.6384480186" lon="-5.7396912575">
        <ele>945.11</ele>
        <time>2020-07-18T07:46:23Z</time>
      </trkpt>
      <trkpt lat="40.6384638604" lon="-5.7396705542">
        <ele>945.11</ele>
        <time>2020-07-18T07:46:24Z</time>
      </trkpt>
      <trkpt lat="40.6384834740" lon="-5.7396535389">
        <ele>945.11</ele>
        <time>2020-07-18T07:46:25Z</time>
      </trkpt>
      <trkpt lat="40.6385044288" lon="-5.7396382000">
        <ele>945.59</ele>
        <time>2020-07-18T07:46:26Z</time>
      </trkpt>
      <trkpt lat="40.6385276467" lon="-5.7396240346">
        <ele>945.59</ele>
        <time>2020-07-18T07:46:27Z</time>
      </trkpt>
      <trkpt lat="40.6385506969" lon="-5.7396138087">
        <ele>946.07</ele>
        <time>2020-07-18T07:46:28Z</time>
      </trkpt>
      <trkpt lat="40.6385736633" lon="-5.7396026608">
        <ele>946.07</ele>
        <time>2020-07-18T07:46:29Z</time>
      </trkpt>
      <trkpt lat="40.6385973841" lon="-5.7395915128">
        <ele>946.56</ele>
        <time>2020-07-18T07:46:30Z</time>
      </trkpt>
      <trkpt lat="40.6386225298" lon="-5.7395839691">
        <ele>946.56</ele>
        <time>2020-07-18T07:46:31Z</time>
      </trkpt>
      <trkpt lat="40.6386489328" lon="-5.7395806164">
        <ele>947.04</ele>
        <time>2020-07-18T07:46:32Z</time>
      </trkpt>
      <trkpt lat="40.6386748329" lon="-5.7395793591">
        <ele>947.04</ele>
        <time>2020-07-18T07:46:33Z</time>
      </trkpt>
      <trkpt lat="40.6390273757" lon="-5.7395478431">
        <ele>947.04</ele>
        <time>2020-07-18T07:46:45Z</time>
      </trkpt>
      <trkpt lat="40.6392316427" lon="-5.7395179197">
        <ele>947.52</ele>
        <time>2020-07-18T07:46:53Z</time>
      </trkpt>
      <trkpt lat="40.6392453890" lon="-5.7395189255">
        <ele>947.52</ele>
        <time>2020-07-18T07:46:54Z</time>
      </trkpt>
      <trkpt lat="40.6392676849" lon="-5.7395185065">
        <ele>947.52</ele>
        <time>2020-07-18T07:46:55Z</time>
      </trkpt>
      <trkpt lat="40.6392940041" lon="-5.7395185903">
        <ele>947.52</ele>
        <time>2020-07-18T07:46:56Z</time>
      </trkpt>
      <trkpt lat="40.6393246818" lon="-5.7395191770">
        <ele>947.52</ele>
        <time>2020-07-18T07:46:57Z</time>
      </trkpt>
      <trkpt lat="40.6393552758" lon="-5.7395191770">
        <ele>947.52</ele>
        <time>2020-07-18T07:46:58Z</time>
      </trkpt>
      <trkpt lat="40.6395871192" lon="-5.7395286486">
        <ele>947.04</ele>
        <time>2020-07-18T07:47:06Z</time>
      </trkpt>
      <trkpt lat="40.6397632230" lon="-5.7395216078">
        <ele>947.52</ele>
        <time>2020-07-18T07:47:13Z</time>
      </trkpt>
      <trkpt lat="40.6397653185" lon="-5.7395256311">
        <ele>947.04</ele>
        <time>2020-07-18T07:47:20Z</time>
      </trkpt>
      <trkpt lat="40.6397594512" lon="-5.7395212725">
        <ele>947.04</ele>
        <time>2020-07-18T07:47:31Z</time>
      </trkpt>
      <trkpt lat="40.6397716887" lon="-5.7395285647">
        <ele>945.11</ele>
        <time>2020-07-18T07:47:46Z</time>
      </trkpt>
      <trkpt lat="40.6397585291" lon="-5.7395404670">
        <ele>943.67</ele>
        <time>2020-07-18T07:48:00Z</time>
      </trkpt>
      <trkpt lat="40.6397514883" lon="-5.7395523693">
        <ele>942.23</ele>
        <time>2020-07-18T07:48:16Z</time>
      </trkpt>
      <trkpt lat="40.6397484709" lon="-5.7395378686">
        <ele>942.71</ele>
        <time>2020-07-18T07:48:35Z</time>
      </trkpt>
      <trkpt lat="40.6397627201" lon="-5.7395452447">
        <ele>943.67</ele>
        <time>2020-07-18T07:48:44Z</time>
      </trkpt>
      <trkpt lat="40.6397838425" lon="-5.7395470049">
        <ele>944.15</ele>
        <time>2020-07-18T07:48:52Z</time>
      </trkpt>
      <trkpt lat="40.6397953257" lon="-5.7395494357">
        <ele>943.67</ele>
        <time>2020-07-18T07:48:54Z</time>
      </trkpt>
      <trkpt lat="40.6398079824" lon="-5.7395505253">
        <ele>944.15</ele>
        <time>2020-07-18T07:48:55Z</time>
      </trkpt>
      <trkpt lat="40.6398233213" lon="-5.7395511959">
        <ele>944.15</ele>
        <time>2020-07-18T07:48:56Z</time>
      </trkpt>
      <trkpt lat="40.6398408394" lon="-5.7395523693">
        <ele>944.15</ele>
        <time>2020-07-18T07:48:57Z</time>
      </trkpt>
      <trkpt lat="40.6398621295" lon="-5.7395524532">
        <ele>944.15</ele>
        <time>2020-07-18T07:48:58Z</time>
      </trkpt>
      <trkpt lat="40.6398852635" lon="-5.7395529561">
        <ele>944.15</ele>
        <time>2020-07-18T07:48:59Z</time>
      </trkpt>
      <trkpt lat="40.6399106607" lon="-5.7395563927">
        <ele>944.15</ele>
        <time>2020-07-18T07:49:00Z</time>
      </trkpt>
      <trkpt lat="40.6401757803" lon="-5.7395789400">
        <ele>945.59</ele>
        <time>2020-07-18T07:49:09Z</time>
      </trkpt>
      <trkpt lat="40.6404081266" lon="-5.7396449056">
        <ele>947.04</ele>
        <time>2020-07-18T07:49:17Z</time>
      </trkpt>
      <trkpt lat="40.6406475976" lon="-5.7396332547">
        <ele>947.52</ele>
        <time>2020-07-18T07:49:25Z</time>
      </trkpt>
      <trkpt lat="40.6407767627" lon="-5.7396687940">
        <ele>947.52</ele>
        <time>2020-07-18T07:49:31Z</time>
      </trkpt>
      <trkpt lat="40.6409158185" lon="-5.7397176605">
        <ele>947.04</ele>
        <time>2020-07-18T07:49:37Z</time>
      </trkpt>
      <trkpt lat="40.6411153916" lon="-5.7397371065">
        <ele>947.04</ele>
        <time>2020-07-18T07:49:45Z</time>
      </trkpt>
      <trkpt lat="40.6413118634" lon="-5.7398025692">
        <ele>946.07</ele>
        <time>2020-07-18T07:49:54Z</time>
      </trkpt>
      <trkpt lat="40.6415377557" lon="-5.7398681995">
        <ele>945.11</ele>
        <time>2020-07-18T07:50:03Z</time>
      </trkpt>
      <trkpt lat="40.6417328864" lon="-5.7399664354">
        <ele>944.63</ele>
        <time>2020-07-18T07:50:11Z</time>
      </trkpt>
      <trkpt lat="40.6419206411" lon="-5.7400476560">
        <ele>944.15</ele>
        <time>2020-07-18T07:50:18Z</time>
      </trkpt>
      <trkpt lat="40.6421670690" lon="-5.7401396055">
        <ele>943.19</ele>
        <time>2020-07-18T07:50:27Z</time>
      </trkpt>
      <trkpt lat="40.6423309352" lon="-5.7401688583">
        <ele>942.71</ele>
        <time>2020-07-18T07:50:34Z</time>
      </trkpt>
      <trkpt lat="40.6425354537" lon="-5.7401546091">
        <ele>942.23</ele>
        <time>2020-07-18T07:50:41Z</time>
      </trkpt>
      <trkpt lat="40.6428146549" lon="-5.7401530165">
        <ele>940.79</ele>
        <time>2020-07-18T07:50:49Z</time>
      </trkpt>
      <trkpt lat="40.6430382840" lon="-5.7401026413">
        <ele>939.83</ele>
        <time>2020-07-18T07:50:55Z</time>
      </trkpt>
      <trkpt lat="40.6431918405" lon="-5.7401422039">
        <ele>939.83</ele>
        <time>2020-07-18T07:51:00Z</time>
      </trkpt>
      <trkpt lat="40.6434321497" lon="-5.7402036432">
        <ele>941.27</ele>
        <time>2020-07-18T07:51:10Z</time>
      </trkpt>
      <trkpt lat="40.6436275318" lon="-5.7401924115">
        <ele>943.19</ele>
        <time>2020-07-18T07:51:20Z</time>
      </trkpt>
      <trkpt lat="40.6437737122" lon="-5.7401336543">
        <ele>944.15</ele>
        <time>2020-07-18T07:51:28Z</time>
      </trkpt>
      <trkpt lat="40.6438911427" lon="-5.7401073352">
        <ele>946.07</ele>
        <time>2020-07-18T07:51:35Z</time>
      </trkpt>
      <trkpt lat="40.6439053919" lon="-5.7401116099">
        <ele>946.07</ele>
        <time>2020-07-18T07:51:36Z</time>
      </trkpt>
      <trkpt lat="40.6439172104" lon="-5.7401131187">
        <ele>946.07</ele>
        <time>2020-07-18T07:51:37Z</time>
      </trkpt>
      <trkpt lat="40.6439298671" lon="-5.7401116937">
        <ele>946.07</ele>
        <time>2020-07-18T07:51:38Z</time>
      </trkpt>
      <trkpt lat="40.6439425237" lon="-5.7401080895">
        <ele>946.07</ele>
        <time>2020-07-18T07:51:39Z</time>
      </trkpt>
      <trkpt lat="40.6439563539" lon="-5.7401062455">
        <ele>946.56</ele>
        <time>2020-07-18T07:51:40Z</time>
      </trkpt>
      <trkpt lat="40.6439713575" lon="-5.7401019707">
        <ele>946.56</ele>
        <time>2020-07-18T07:51:41Z</time>
      </trkpt>
      <trkpt lat="40.6439865287" lon="-5.7400954328">
        <ele>946.56</ele>
        <time>2020-07-18T07:51:42Z</time>
      </trkpt>
      <trkpt lat="40.6440032087" lon="-5.7400893979">
        <ele>947.04</ele>
        <time>2020-07-18T07:51:43Z</time>
      </trkpt>
      <trkpt lat="40.6441108324" lon="-5.7400661800">
        <ele>948.48</ele>
        <time>2020-07-18T07:51:50Z</time>
      </trkpt>
      <trkpt lat="40.6442348007" lon="-5.7401189860">
        <ele>949.92</ele>
        <time>2020-07-18T07:51:59Z</time>
      </trkpt>
      <trkpt lat="40.6444014329" lon="-5.7401214167">
        <ele>950.88</ele>
        <time>2020-07-18T07:52:09Z</time>
      </trkpt>
      <trkpt lat="40.6445591804" lon="-5.7400963549">
        <ele>950.88</ele>
        <time>2020-07-18T07:52:18Z</time>
      </trkpt>
      <trkpt lat="40.6447236333" lon="-5.7400750648">
        <ele>951.36</ele>
        <time>2020-07-18T07:52:27Z</time>
      </trkpt>
      <trkpt lat="40.6448343582" lon="-5.7400677726">
        <ele>951.84</ele>
        <time>2020-07-18T07:52:34Z</time>
      </trkpt>
      <trkpt lat="40.6449920218" lon="-5.7400535233">
        <ele>952.80</ele>
        <time>2020-07-18T07:52:44Z</time>
      </trkpt>
      <trkpt lat="40.6451386213" lon="-5.7400453091">
        <ele>953.28</ele>
        <time>2020-07-18T07:52:53Z</time>
      </trkpt>
      <trkpt lat="40.6453357637" lon="-5.7399962749">
        <ele>954.25</ele>
        <time>2020-07-18T07:53:04Z</time>
      </trkpt>
      <trkpt lat="40.6454988755" lon="-5.7399780024">
        <ele>954.73</ele>
        <time>2020-07-18T07:53:13Z</time>
      </trkpt>
      <trkpt lat="40.6457342394" lon="-5.7399005536">
        <ele>956.17</ele>
        <time>2020-07-18T07:53:25Z</time>
      </trkpt>
      <trkpt lat="40.6459013745" lon="-5.7398361806">
        <ele>956.65</ele>
        <time>2020-07-18T07:53:34Z</time>
      </trkpt>
      <trkpt lat="40.6460633129" lon="-5.7397858053">
        <ele>958.09</ele>
        <time>2020-07-18T07:53:43Z</time>
      </trkpt>
      <trkpt lat="40.6462131813" lon="-5.7397551276">
        <ele>958.09</ele>
        <time>2020-07-18T07:53:51Z</time>
      </trkpt>
      <trkpt lat="40.6463649776" lon="-5.7397423033">
        <ele>958.09</ele>
        <time>2020-07-18T07:53:59Z</time>
      </trkpt>
      <trkpt lat="40.6465515587" lon="-5.7397424709">
        <ele>959.05</ele>
        <time>2020-07-18T07:54:09Z</time>
      </trkpt>
      <trkpt lat="40.6467364635" lon="-5.7397350948">
        <ele>959.53</ele>
        <time>2020-07-18T07:54:18Z</time>
      </trkpt>
      <trkpt lat="40.6468971446" lon="-5.7396578137">
        <ele>959.53</ele>
        <time>2020-07-18T07:54:26Z</time>
      </trkpt>
      <trkpt lat="40.6470811274" lon="-5.7396325842">
        <ele>960.01</ele>
        <time>2020-07-18T07:54:36Z</time>
      </trkpt>
      <trkpt lat="40.6471838895" lon="-5.7396222744">
        <ele>960.01</ele>
        <time>2020-07-18T07:54:44Z</time>
      </trkpt>
      <trkpt lat="40.6471723225" lon="-5.7396302372">
        <ele>960.49</ele>
        <time>2020-07-18T07:55:00Z</time>
      </trkpt>
      <trkpt lat="40.6471717358" lon="-5.7396229450">
        <ele>961.94</ele>
        <time>2020-07-18T07:55:14Z</time>
      </trkpt>
      <trkpt lat="40.6472058501" lon="-5.7396288123">
        <ele>961.46</ele>
        <time>2020-07-18T07:55:23Z</time>
      </trkpt>
      <trkpt lat="40.6473770924" lon="-5.7396434806">
        <ele>960.98</ele>
        <time>2020-07-18T07:55:30Z</time>
      </trkpt>
      <trkpt lat="40.6475774199" lon="-5.7397679519">
        <ele>961.46</ele>
        <time>2020-07-18T07:55:38Z</time>
      </trkpt>
      <trkpt lat="40.6477497518" lon="-5.7398482505">
        <ele>961.94</ele>
        <time>2020-07-18T07:55:45Z</time>
      </trkpt>
      <trkpt lat="40.6480090879" lon="-5.7397925947">
        <ele>961.94</ele>
        <time>2020-07-18T07:55:54Z</time>
      </trkpt>
      <trkpt lat="40.6483171228" lon="-5.7397312392">
        <ele>961.46</ele>
        <time>2020-07-18T07:56:03Z</time>
      </trkpt>
      <trkpt lat="40.6484767143" lon="-5.7396978792">
        <ele>961.46</ele>
        <time>2020-07-18T07:56:07Z</time>
      </trkpt>
      <trkpt lat="40.6488799676" lon="-5.7396262139">
        <ele>961.46</ele>
        <time>2020-07-18T07:56:17Z</time>
      </trkpt>
      <trkpt lat="40.6492128968" lon="-5.7395641040">
        <ele>961.46</ele>
        <time>2020-07-18T07:56:25Z</time>
      </trkpt>
      <trkpt lat="40.6495278049" lon="-5.7395072747">
        <ele>962.42</ele>
        <time>2020-07-18T07:56:33Z</time>
      </trkpt>
      <trkpt lat="40.6498767436" lon="-5.7394459192">
        <ele>962.42</ele>
        <time>2020-07-18T07:56:43Z</time>
      </trkpt>
      <trkpt lat="40.6502600480" lon="-5.7393832225">
        <ele>963.38</ele>
        <time>2020-07-18T07:56:55Z</time>
      </trkpt>
      <trkpt lat="40.6505407579" lon="-5.7393255550">
        <ele>964.82</ele>
        <time>2020-07-18T07:57:05Z</time>
      </trkpt>
      <trkpt lat="40.6508191209" lon="-5.7392959669">
        <ele>965.30</ele>
        <time>2020-07-18T07:57:15Z</time>
      </trkpt>
      <trkpt lat="40.6510568317" lon="-5.7392532192">
        <ele>965.78</ele>
        <time>2020-07-18T07:57:23Z</time>
      </trkpt>
      <trkpt lat="40.6512952968" lon="-5.7392099686">
        <ele>966.74</ele>
        <time>2020-07-18T07:57:31Z</time>
      </trkpt>
      <trkpt lat="40.6515693851" lon="-5.7391550671">
        <ele>967.22</ele>
        <time>2020-07-18T07:57:40Z</time>
      </trkpt>
      <trkpt lat="40.6518914178" lon="-5.7390913647">
        <ele>967.70</ele>
        <time>2020-07-18T07:57:51Z</time>
      </trkpt>
      <trkpt lat="40.6521885563" lon="-5.7390400674">
        <ele>968.18</ele>
        <time>2020-07-18T07:58:01Z</time>
      </trkpt>
      <trkpt lat="40.6524971779" lon="-5.7390080485">
        <ele>968.67</ele>
        <time>2020-07-18T07:58:12Z</time>
      </trkpt>
      <trkpt lat="40.6527638901" lon="-5.7389756106">
        <ele>968.67</ele>
        <time>2020-07-18T07:58:22Z</time>
      </trkpt>
      <trkpt lat="40.6529373117" lon="-5.7390104793">
        <ele>969.15</ele>
        <time>2020-07-18T07:58:30Z</time>
      </trkpt>
      <trkpt lat="40.6530307699" lon="-5.7391859964">
        <ele>970.11</ele>
        <time>2020-07-18T07:58:37Z</time>
      </trkpt>
      <trkpt lat="40.6530948915" lon="-5.7393875811">
        <ele>971.07</ele>
        <time>2020-07-18T07:58:44Z</time>
      </trkpt>
      <trkpt lat="40.6531772856" lon="-5.7397358492">
        <ele>972.03</ele>
        <time>2020-07-18T07:58:54Z</time>
      </trkpt>
      <trkpt lat="40.6532511301" lon="-5.7400619891">
        <ele>972.03</ele>
        <time>2020-07-18T07:59:04Z</time>
      </trkpt>
      <trkpt lat="40.6533162575" lon="-5.7402913179">
        <ele>972.51</ele>
        <time>2020-07-18T07:59:12Z</time>
      </trkpt>
      <trkpt lat="40.6533864979" lon="-5.7405781467">
        <ele>973.47</ele>
        <time>2020-07-18T07:59:21Z</time>
      </trkpt>
      <trkpt lat="40.6534612644" lon="-5.7409368083">
        <ele>974.43</ele>
        <time>2020-07-18T07:59:32Z</time>
      </trkpt>
      <trkpt lat="40.6535154954" lon="-5.7413379662">
        <ele>975.39</ele>
        <time>2020-07-18T07:59:44Z</time>
      </trkpt>
      <trkpt lat="40.6535543036" lon="-5.7417339273">
        <ele>976.36</ele>
        <time>2020-07-18T07:59:55Z</time>
      </trkpt>
      <trkpt lat="40.6536030024" lon="-5.7420918345">
        <ele>976.84</ele>
        <time>2020-07-18T08:00:05Z</time>
      </trkpt>
      <trkpt lat="40.6536448281" lon="-5.7424428686">
        <ele>977.32</ele>
        <time>2020-07-18T08:00:15Z</time>
      </trkpt>
      <trkpt lat="40.6537165772" lon="-5.7428659871">
        <ele>978.76</ele>
        <time>2020-07-18T08:00:27Z</time>
      </trkpt>
      <trkpt lat="40.6537873205" lon="-5.7432462741">
        <ele>979.24</ele>
        <time>2020-07-18T08:00:38Z</time>
      </trkpt>
      <trkpt lat="40.6538478378" lon="-5.7435892615">
        <ele>979.72</ele>
        <time>2020-07-18T08:00:48Z</time>
      </trkpt>
      <trkpt lat="40.6539229397" lon="-5.7439680398">
        <ele>980.20</ele>
        <time>2020-07-18T08:00:59Z</time>
      </trkpt>
      <trkpt lat="40.6539801881" lon="-5.7442576345">
        <ele>980.68</ele>
        <time>2020-07-18T08:01:08Z</time>
      </trkpt>
      <trkpt lat="40.6540367659" lon="-5.7445343211">
        <ele>981.16</ele>
        <time>2020-07-18T08:01:17Z</time>
      </trkpt>
      <trkpt lat="40.6540763285" lon="-5.7447492331">
        <ele>981.64</ele>
        <time>2020-07-18T08:01:25Z</time>
      </trkpt>
      <trkpt lat="40.6540831178" lon="-5.7447520830">
        <ele>983.09</ele>
        <time>2020-07-18T08:01:40Z</time>
      </trkpt>
      <trkpt lat="40.6540883984" lon="-5.7447840180">
        <ele>983.09</ele>
        <time>2020-07-18T08:01:57Z</time>
      </trkpt>
      <trkpt lat="40.6541113649" lon="-5.7449753769">
        <ele>983.09</ele>
        <time>2020-07-18T08:02:04Z</time>
      </trkpt>
      <trkpt lat="40.6541807670" lon="-5.7453280035">
        <ele>983.09</ele>
        <time>2020-07-18T08:02:14Z</time>
      </trkpt>
      <trkpt lat="40.6542440504" lon="-5.7456456777">
        <ele>983.09</ele>
        <time>2020-07-18T08:02:23Z</time>
      </trkpt>
      <trkpt lat="40.6542428769" lon="-5.7459993940">
        <ele>984.53</ele>
        <time>2020-07-18T08:02:33Z</time>
      </trkpt>
      <trkpt lat="40.6542201620" lon="-5.7462184969">
        <ele>984.53</ele>
        <time>2020-07-18T08:02:40Z</time>
      </trkpt>
      <trkpt lat="40.6542529352" lon="-5.7463376038">
        <ele>984.05</ele>
        <time>2020-07-18T08:02:45Z</time>
      </trkpt>
      <trkpt lat="40.6542775780" lon="-5.7463563792">
        <ele>983.57</ele>
        <time>2020-07-18T08:02:46Z</time>
      </trkpt>
      <trkpt lat="40.6543773226" lon="-5.7464236859">
        <ele>983.09</ele>
        <time>2020-07-18T08:02:49Z</time>
      </trkpt>
      <trkpt lat="40.6544165500" lon="-5.7464636676">
        <ele>982.60</ele>
        <time>2020-07-18T08:02:50Z</time>
      </trkpt>
      <trkpt lat="40.6544934958" lon="-5.7465616520">
        <ele>981.16</ele>
        <time>2020-07-18T08:02:52Z</time>
      </trkpt>
      <trkpt lat="40.6545252632" lon="-5.7466125302">
        <ele>981.16</ele>
        <time>2020-07-18T08:02:53Z</time>
      </trkpt>
      <trkpt lat="40.6546543445" lon="-5.7468859479">
        <ele>979.24</ele>
        <time>2020-07-18T08:02:59Z</time>
      </trkpt>
      <trkpt lat="40.6546832621" lon="-5.7469286118">
        <ele>978.76</ele>
        <time>2020-07-18T08:03:00Z</time>
      </trkpt>
      <trkpt lat="40.6547196396" lon="-5.7469613012">
        <ele>978.28</ele>
        <time>2020-07-18T08:03:01Z</time>
      </trkpt>
      <trkpt lat="40.6547598727" lon="-5.7469877880">
        <ele>977.80</ele>
        <time>2020-07-18T08:03:02Z</time>
      </trkpt>
      <trkpt lat="40.6548032071" lon="-5.7470121793">
        <ele>977.80</ele>
        <time>2020-07-18T08:03:03Z</time>
      </trkpt>
      <trkpt lat="40.6551223900" lon="-5.7472778019">
        <ele>975.88</ele>
        <time>2020-07-18T08:03:10Z</time>
      </trkpt>
      <trkpt lat="40.6554388069" lon="-5.7476495393">
        <ele>974.43</ele>
        <time>2020-07-18T08:03:18Z</time>
      </trkpt>
      <trkpt lat="40.6556931138" lon="-5.7478552312">
        <ele>975.39</ele>
        <time>2020-07-18T08:03:25Z</time>
      </trkpt>
      <trkpt lat="40.6559175812" lon="-5.7479644474">
        <ele>975.88</ele>
        <time>2020-07-18T08:03:32Z</time>
      </trkpt>
      <trkpt lat="40.6561887357" lon="-5.7481089514">
        <ele>975.39</ele>
        <time>2020-07-18T08:03:40Z</time>
      </trkpt>
      <trkpt lat="40.6563690305" lon="-5.7482942753">
        <ele>975.39</ele>
        <time>2020-07-18T08:03:47Z</time>
      </trkpt>
      <trkpt lat="40.6563828606" lon="-5.7486121170">
        <ele>973.47</ele>
        <time>2020-07-18T08:03:53Z</time>
      </trkpt>
      <trkpt lat="40.6563755684" lon="-5.7486800104">
        <ele>972.99</ele>
        <time>2020-07-18T08:03:54Z</time>
      </trkpt>
      <trkpt lat="40.6563586369" lon="-5.7487520110">
        <ele>972.51</ele>
        <time>2020-07-18T08:03:55Z</time>
      </trkpt>
      <trkpt lat="40.6563325692" lon="-5.7488210779">
        <ele>972.51</ele>
        <time>2020-07-18T08:03:56Z</time>
      </trkpt>
      <trkpt lat="40.6562997960" lon="-5.7488856185">
        <ele>972.51</ele>
        <time>2020-07-18T08:03:57Z</time>
      </trkpt>
      <trkpt lat="40.6562623288" lon="-5.7489496563">
        <ele>972.03</ele>
        <time>2020-07-18T08:03:58Z</time>
      </trkpt>
      <trkpt lat="40.6559508573" lon="-5.7494151033">
        <ele>971.55</ele>
        <time>2020-07-18T08:04:05Z</time>
      </trkpt>
      <trkpt lat="40.6557298265" lon="-5.7497289218">
        <ele>969.63</ele>
        <time>2020-07-18T08:04:10Z</time>
      </trkpt>
      <trkpt lat="40.6557163317" lon="-5.7497778721">
        <ele>969.63</ele>
        <time>2020-07-18T08:04:11Z</time>
      </trkpt>
      <trkpt lat="40.6557127275" lon="-5.7498339470">
        <ele>969.63</ele>
        <time>2020-07-18T08:04:12Z</time>
      </trkpt>
      <trkpt lat="40.6557160802" lon="-5.7498772815">
        <ele>969.63</ele>
        <time>2020-07-18T08:04:13Z</time>
      </trkpt>
      <trkpt lat="40.6557307485" lon="-5.7499164250">
        <ele>969.63</ele>
        <time>2020-07-18T08:04:14Z</time>
      </trkpt>
      <trkpt lat="40.6557532959" lon="-5.7499488629">
        <ele>969.63</ele>
        <time>2020-07-18T08:04:15Z</time>
      </trkpt>
      <trkpt lat="40.6557744183" lon="-5.7499784511">
        <ele>969.63</ele>
        <time>2020-07-18T08:04:16Z</time>
      </trkpt>
      <trkpt lat="40.6559703033" lon="-5.7502884138">
        <ele>969.63</ele>
        <time>2020-07-18T08:04:25Z</time>
      </trkpt>
      <trkpt lat="40.6561401207" lon="-5.7505907491">
        <ele>970.11</ele>
        <time>2020-07-18T08:04:33Z</time>
      </trkpt>
      <trkpt lat="40.6563962717" lon="-5.7510382589">
        <ele>970.59</ele>
        <time>2020-07-18T08:04:44Z</time>
      </trkpt>
      <trkpt lat="40.6566046458" lon="-5.7514019497">
        <ele>970.59</ele>
        <time>2020-07-18T08:04:53Z</time>
      </trkpt>
      <trkpt lat="40.6567851920" lon="-5.7517161034">
        <ele>970.59</ele>
        <time>2020-07-18T08:05:01Z</time>
      </trkpt>
      <trkpt lat="40.6569399219" lon="-5.7521372102">
        <ele>971.55</ele>
        <time>2020-07-18T08:05:11Z</time>
      </trkpt>
      <trkpt lat="40.6569567695" lon="-5.7524776831">
        <ele>971.07</ele>
        <time>2020-07-18T08:05:18Z</time>
      </trkpt>
      <trkpt lat="40.6569379941" lon="-5.7528375182">
        <ele>971.07</ele>
        <time>2020-07-18T08:05:26Z</time>
      </trkpt>
      <trkpt lat="40.6568758842" lon="-5.7532946672">
        <ele>970.59</ele>
        <time>2020-07-18T08:05:35Z</time>
      </trkpt>
      <trkpt lat="40.6567978486" lon="-5.7538723480">
        <ele>969.63</ele>
        <time>2020-07-18T08:05:45Z</time>
      </trkpt>
      <trkpt lat="40.6566950027" lon="-5.7545392960">
        <ele>968.18</ele>
        <time>2020-07-18T08:05:55Z</time>
      </trkpt>
      <trkpt lat="40.6566074118" lon="-5.7552067470">
        <ele>966.74</ele>
        <time>2020-07-18T08:06:04Z</time>
      </trkpt>
      <trkpt lat="40.6565673463" lon="-5.7558488846">
        <ele>965.30</ele>
        <time>2020-07-18T08:06:12Z</time>
      </trkpt>
      <trkpt lat="40.6566113513" lon="-5.7565707341">
        <ele>965.30</ele>
        <time>2020-07-18T08:06:22Z</time>
      </trkpt>
      <trkpt lat="40.6566554401" lon="-5.7571552042">
        <ele>965.30</ele>
        <time>2020-07-18T08:06:32Z</time>
      </trkpt>
      <trkpt lat="40.6567029655" lon="-5.7577374112">
        <ele>965.78</ele>
        <time>2020-07-18T08:06:42Z</time>
      </trkpt>
      <trkpt lat="40.6567459647" lon="-5.7582992502">
        <ele>967.22</ele>
        <time>2020-07-18T08:06:53Z</time>
      </trkpt>
      <trkpt lat="40.6567775644" lon="-5.7586795371">
        <ele>968.18</ele>
        <time>2020-07-18T08:07:02Z</time>
      </trkpt>
      <trkpt lat="40.6568183005" lon="-5.7592629176">
        <ele>970.11</ele>
        <time>2020-07-18T08:07:15Z</time>
      </trkpt>
      <trkpt lat="40.6568510737" lon="-5.7597800810">
        <ele>971.55</ele>
        <time>2020-07-18T08:07:27Z</time>
      </trkpt>
      <trkpt lat="40.6568654068" lon="-5.7601991761">
        <ele>972.99</ele>
        <time>2020-07-18T08:07:38Z</time>
      </trkpt>
      <trkpt lat="40.6568432786" lon="-5.7605844084">
        <ele>973.95</ele>
        <time>2020-07-18T08:07:49Z</time>
      </trkpt>
      <trkpt lat="40.6567939930" lon="-5.7609132305">
        <ele>974.91</ele>
        <time>2020-07-18T08:07:59Z</time>
      </trkpt>
      <trkpt lat="40.6567024626" lon="-5.7614186592">
        <ele>976.36</ele>
        <time>2020-07-18T08:08:13Z</time>
      </trkpt>
      <trkpt lat="40.6566195656" lon="-5.7618611399">
        <ele>977.32</ele>
        <time>2020-07-18T08:08:25Z</time>
      </trkpt>
      <trkpt lat="40.6565605570" lon="-5.7621896267">
        <ele>978.28</ele>
        <time>2020-07-18T08:08:34Z</time>
      </trkpt>
      <trkpt lat="40.6564712059" lon="-5.7627047785">
        <ele>978.76</ele>
        <time>2020-07-18T08:08:48Z</time>
      </trkpt>
      <trkpt lat="40.6564080901" lon="-5.7630659547">
        <ele>978.76</ele>
        <time>2020-07-18T08:08:58Z</time>
      </trkpt>
      <trkpt lat="40.6563621573" lon="-5.7633523643">
        <ele>978.76</ele>
        <time>2020-07-18T08:09:07Z</time>
      </trkpt>
      <trkpt lat="40.6562990416" lon="-5.7636073418">
        <ele>979.72</ele>
        <time>2020-07-18T08:09:16Z</time>
      </trkpt>
      <trkpt lat="40.6561960280" lon="-5.7639903110">
        <ele>981.16</ele>
        <time>2020-07-18T08:09:27Z</time>
      </trkpt>
      <trkpt lat="40.6561050843" lon="-5.7643221505">
        <ele>982.12</ele>
        <time>2020-07-18T08:09:37Z</time>
      </trkpt>
      <trkpt lat="40.6560104527" lon="-5.7646410819">
        <ele>983.09</ele>
        <time>2020-07-18T08:09:46Z</time>
      </trkpt>
      <trkpt lat="40.6559148990" lon="-5.7649286650">
        <ele>984.05</ele>
        <time>2020-07-18T08:09:55Z</time>
      </trkpt>
      <trkpt lat="40.6558229495" lon="-5.7651971374">
        <ele>985.49</ele>
        <time>2020-07-18T08:10:04Z</time>
      </trkpt>
      <trkpt lat="40.6557850633" lon="-5.7653109636">
        <ele>986.45</ele>
        <time>2020-07-18T08:10:09Z</time>
      </trkpt>
      <trkpt lat="40.6557049323" lon="-5.7655568048">
        <ele>987.89</ele>
        <time>2020-07-18T08:10:19Z</time>
      </trkpt>
      <trkpt lat="40.6556397211" lon="-5.7657852955">
        <ele>989.33</ele>
        <time>2020-07-18T08:10:29Z</time>
      </trkpt>
      <trkpt lat="40.6555882562" lon="-5.7659930829">
        <ele>990.30</ele>
        <time>2020-07-18T08:10:38Z</time>
      </trkpt>
      <trkpt lat="40.6555604283" lon="-5.7662051450">
        <ele>991.26</ele>
        <time>2020-07-18T08:10:48Z</time>
      </trkpt>
      <trkpt lat="40.6555471849" lon="-5.7663420215">
        <ele>992.70</ele>
        <time>2020-07-18T08:10:55Z</time>
      </trkpt>
      <trkpt lat="40.6555320974" lon="-5.7665865216">
        <ele>994.14</ele>
        <time>2020-07-18T08:11:06Z</time>
      </trkpt>
      <trkpt lat="40.6555040181" lon="-5.7668208797">
        <ele>995.58</ele>
        <time>2020-07-18T08:11:17Z</time>
      </trkpt>
      <trkpt lat="40.6554909423" lon="-5.7669819798">
        <ele>996.54</ele>
        <time>2020-07-18T08:11:25Z</time>
      </trkpt>
      <trkpt lat="40.6554790400" lon="-5.7671745960">
        <ele>998.47</ele>
        <time>2020-07-18T08:11:34Z</time>
      </trkpt>
      <trkpt lat="40.6554631982" lon="-5.7673945371">
        <ele>999.91</ele>
        <time>2020-07-18T08:11:44Z</time>
      </trkpt>
      <trkpt lat="40.6554436684" lon="-5.7676637638">
        <ele>1000.87</ele>
        <time>2020-07-18T08:11:55Z</time>
      </trkpt>
      <trkpt lat="40.6554191932" lon="-5.7678910811">
        <ele>1000.87</ele>
        <time>2020-07-18T08:12:05Z</time>
      </trkpt>
      <trkpt lat="40.6553796306" lon="-5.7681203261">
        <ele>1000.87</ele>
        <time>2020-07-18T08:12:12Z</time>
      </trkpt>
      <trkpt lat="40.6553313509" lon="-5.7683757227">
        <ele>1001.35</ele>
        <time>2020-07-18T08:12:20Z</time>
      </trkpt>
      <trkpt lat="40.6552773714" lon="-5.7687233202">
        <ele>1001.35</ele>
        <time>2020-07-18T08:12:29Z</time>
      </trkpt>
      <trkpt lat="40.6552881841" lon="-5.7690197043">
        <ele>1001.83</ele>
        <time>2020-07-18T08:12:37Z</time>
      </trkpt>
      <trkpt lat="40.6553388946" lon="-5.7693094667">
        <ele>1002.31</ele>
        <time>2020-07-18T08:12:45Z</time>
      </trkpt>
      <trkpt lat="40.6554268207" lon="-5.7696970459">
        <ele>1002.79</ele>
        <time>2020-07-18T08:12:55Z</time>
      </trkpt>
      <trkpt lat="40.6555095501" lon="-5.7700397819">
        <ele>1002.31</ele>
        <time>2020-07-18T08:13:04Z</time>
      </trkpt>
      <trkpt lat="40.6556040142" lon="-5.7704434544">
        <ele>1002.79</ele>
        <time>2020-07-18T08:13:15Z</time>
      </trkpt>
      <trkpt lat="40.6557067763" lon="-5.7708493061">
        <ele>1003.27</ele>
        <time>2020-07-18T08:13:26Z</time>
      </trkpt>
      <trkpt lat="40.6558453292" lon="-5.7713662181">
        <ele>1004.72</ele>
        <time>2020-07-18T08:13:40Z</time>
      </trkpt>
      <trkpt lat="40.6559867319" lon="-5.7717942819">
        <ele>1004.72</ele>
        <time>2020-07-18T08:13:52Z</time>
      </trkpt>
      <trkpt lat="40.6561514363" lon="-5.7721813582">
        <ele>1004.72</ele>
        <time>2020-07-18T08:14:03Z</time>
      </trkpt>
      <trkpt lat="40.6562902406" lon="-5.7725143712">
        <ele>1004.72</ele>
        <time>2020-07-18T08:14:12Z</time>
      </trkpt>
      <trkpt lat="40.6564037316" lon="-5.7728650700">
        <ele>1004.23</ele>
        <time>2020-07-18T08:14:21Z</time>
      </trkpt>
      <trkpt lat="40.6564956810" lon="-5.7732428424">
        <ele>1003.27</ele>
        <time>2020-07-18T08:14:29Z</time>
      </trkpt>
      <trkpt lat="40.6566120218" lon="-5.7737431582">
        <ele>1002.31</ele>
        <time>2020-07-18T08:14:37Z</time>
      </trkpt>
      <trkpt lat="40.6567846052" lon="-5.7743224315">
        <ele>1000.39</ele>
        <time>2020-07-18T08:14:44Z</time>
      </trkpt>
      <trkpt lat="40.6570828333" lon="-5.7751464564">
        <ele>996.06</ele>
        <time>2020-07-18T08:14:52Z</time>
      </trkpt>
      <trkpt lat="40.6574890204" lon="-5.7761815377">
        <ele>990.30</ele>
        <time>2020-07-18T08:15:01Z</time>
      </trkpt>
      <trkpt lat="40.6578638591" lon="-5.7768982742">
        <ele>985.49</ele>
        <time>2020-07-18T08:15:08Z</time>
      </trkpt>
      <trkpt lat="40.6581365224" lon="-5.7775109075">
        <ele>981.64</ele>
        <time>2020-07-18T08:15:14Z</time>
      </trkpt>
      <trkpt lat="40.6582517736" lon="-5.7780641131">
        <ele>978.76</ele>
        <time>2020-07-18T08:15:20Z</time>
      </trkpt>
      <trkpt lat="40.6582915038" lon="-5.7783230301">
        <ele>977.80</ele>
        <time>2020-07-18T08:15:25Z</time>
      </trkpt>
      <trkpt lat="40.6583140511" lon="-5.7783654425">
        <ele>977.80</ele>
        <time>2020-07-18T08:15:30Z</time>
      </trkpt>
      <trkpt lat="40.6582992151" lon="-5.7783759199">
        <ele>977.32</ele>
        <time>2020-07-18T08:15:39Z</time>
      </trkpt>
      <trkpt lat="40.6582892407" lon="-5.7783819549">
        <ele>977.32</ele>
        <time>2020-07-18T08:15:40Z</time>
      </trkpt>
      <trkpt lat="40.6582759134" lon="-5.7783804461">
        <ele>977.32</ele>
        <time>2020-07-18T08:15:41Z</time>
      </trkpt>
      <trkpt lat="40.6582636759" lon="-5.7783731539">
        <ele>977.32</ele>
        <time>2020-07-18T08:15:42Z</time>
      </trkpt>
      <trkpt lat="40.6582552940" lon="-5.7783656940">
        <ele>977.32</ele>
        <time>2020-07-18T08:15:43Z</time>
      </trkpt>
      <trkpt lat="40.6582475826" lon="-5.7783538755">
        <ele>977.32</ele>
        <time>2020-07-18T08:15:44Z</time>
      </trkpt>
      <trkpt lat="40.6582372729" lon="-5.7783264667">
        <ele>976.84</ele>
        <time>2020-07-18T08:15:51Z</time>
      </trkpt>
      <trkpt lat="40.6582393683" lon="-5.7783368602">
        <ele>977.32</ele>
        <time>2020-07-18T08:16:09Z</time>
      </trkpt>
      <trkpt lat="40.6582455710" lon="-5.7783351839">
        <ele>978.28</ele>
        <time>2020-07-18T08:16:22Z</time>
      </trkpt>
      <trkpt lat="40.6582488399" lon="-5.7783358544">
        <ele>978.28</ele>
        <time>2020-07-18T08:16:34Z</time>
      </trkpt>
      <trkpt lat="40.6582465768" lon="-5.7783374470">
        <ele>977.32</ele>
        <time>2020-07-18T08:16:50Z</time>
      </trkpt>
      <trkpt lat="40.6582402904" lon="-5.7783397101">
        <ele>977.32</ele>
        <time>2020-07-18T08:17:01Z</time>
      </trkpt>
      <trkpt lat="40.6582422182" lon="-5.7783387881">
        <ele>978.28</ele>
        <time>2020-07-18T08:17:11Z</time>
      </trkpt>
      <trkpt lat="40.6582506001" lon="-5.7783404645">
        <ele>978.28</ele>
        <time>2020-07-18T08:17:30Z</time>
      </trkpt>
      <trkpt lat="40.6582509354" lon="-5.7783292327">
        <ele>977.80</ele>
        <time>2020-07-18T08:17:52Z</time>
      </trkpt>
      <trkpt lat="40.6582434755" lon="-5.7783189230">
        <ele>976.84</ele>
        <time>2020-07-18T08:18:15Z</time>
      </trkpt>
      <trkpt lat="40.6582479179" lon="-5.7783200126">
        <ele>976.84</ele>
        <time>2020-07-18T08:18:33Z</time>
      </trkpt>
      <trkpt lat="40.6582414638" lon="-5.7783216890">
        <ele>975.88</ele>
        <time>2020-07-18T08:18:50Z</time>
      </trkpt>
      <trkpt lat="40.6582455710" lon="-5.7783169113">
        <ele>976.36</ele>
        <time>2020-07-18T08:19:05Z</time>
      </trkpt>
      <trkpt lat="40.6582508516" lon="-5.7783187553">
        <ele>976.36</ele>
        <time>2020-07-18T08:19:18Z</time>
      </trkpt>
      <trkpt lat="40.6582342554" lon="-5.7783191744">
        <ele>975.88</ele>
        <time>2020-07-18T08:19:36Z</time>
      </trkpt>
      <trkpt lat="40.6582344230" lon="-5.7783174142">
        <ele>974.91</ele>
        <time>2020-07-18T08:19:52Z</time>
      </trkpt>
      <trkpt lat="40.6582221854" lon="-5.7783302385">
        <ele>974.91</ele>
        <time>2020-07-18T08:20:15Z</time>
      </trkpt>
      <trkpt lat="40.6582225207" lon="-5.7783205993">
        <ele>976.36</ele>
        <time>2020-07-18T08:20:47Z</time>
      </trkpt>
      <trkpt lat="40.6582242809" lon="-5.7783214375">
        <ele>977.32</ele>
        <time>2020-07-18T08:21:11Z</time>
      </trkpt>
      <trkpt lat="40.6582250353" lon="-5.7783232816">
        <ele>977.32</ele>
        <time>2020-07-18T08:21:30Z</time>
      </trkpt>
      <trkpt lat="40.6582288910" lon="-5.7783240359">
        <ele>976.84</ele>
        <time>2020-07-18T08:22:00Z</time>
      </trkpt>
      <trkpt lat="40.6582329981" lon="-5.7783207670">
        <ele>976.36</ele>
        <time>2020-07-18T08:22:14Z</time>
      </trkpt>
      <trkpt lat="40.6582346745" lon="-5.7783237007">
        <ele>975.88</ele>
        <time>2020-07-18T08:22:31Z</time>
      </trkpt>
      <trkpt lat="40.6582340878" lon="-5.7783203479">
        <ele>976.36</ele>
        <time>2020-07-18T08:22:54Z</time>
      </trkpt>
      <trkpt lat="40.6582360156" lon="-5.7783141453">
        <ele>976.84</ele>
        <time>2020-07-18T08:23:15Z</time>
      </trkpt>
      <trkpt lat="40.6582260411" lon="-5.7783097029">
        <ele>976.36</ele>
        <time>2020-07-18T08:23:36Z</time>
      </trkpt>
      <trkpt lat="40.6582243647" lon="-5.7783048414">
        <ele>976.36</ele>
        <time>2020-07-18T08:23:58Z</time>
      </trkpt>
      <trkpt lat="40.6582245324" lon="-5.7783029135">
        <ele>976.84</ele>
        <time>2020-07-18T08:24:23Z</time>
      </trkpt>
      <trkpt lat="40.6582231075" lon="-5.7783081941">
        <ele>975.88</ele>
        <time>2020-07-18T08:24:53Z</time>
      </trkpt>
      <trkpt lat="40.6582290586" lon="-5.7783022430">
        <ele>976.36</ele>
        <time>2020-07-18T08:25:14Z</time>
      </trkpt>
      <trkpt lat="40.6582199223" lon="-5.7782989740">
        <ele>975.39</ele>
        <time>2020-07-18T08:25:36Z</time>
      </trkpt>
      <trkpt lat="40.6582257058" lon="-5.7782998960">
        <ele>975.88</ele>
        <time>2020-07-18T08:26:01Z</time>
      </trkpt>
      <trkpt lat="40.6582341716" lon="-5.7783099543">
        <ele>975.39</ele>
        <time>2020-07-18T08:26:26Z</time>
      </trkpt>
      <trkpt lat="40.6582392845" lon="-5.7783045061">
        <ele>975.88</ele>
        <time>2020-07-18T08:26:45Z</time>
      </trkpt>
      <trkpt lat="40.6582334172" lon="-5.7783055119">
        <ele>975.88</ele>
        <time>2020-07-18T08:27:03Z</time>
      </trkpt>
      <trkpt lat="40.6582402065" lon="-5.7783077750">
        <ele>976.36</ele>
        <time>2020-07-18T08:27:19Z</time>
      </trkpt>
      <trkpt lat="40.6582512707" lon="-5.7783121336">
        <ele>977.32</ele>
        <time>2020-07-18T08:27:36Z</time>
      </trkpt>
      <trkpt lat="40.6582420506" lon="-5.7783217728">
        <ele>977.32</ele>
        <time>2020-07-18T08:27:51Z</time>
      </trkpt>
      <trkpt lat="40.6582311541" lon="-5.7783270534">
        <ele>977.80</ele>
        <time>2020-07-18T08:28:05Z</time>
      </trkpt>
      <trkpt lat="40.6582372729" lon="-5.7783250418">
        <ele>977.80</ele>
        <time>2020-07-18T08:28:20Z</time>
      </trkpt>
      <trkpt lat="40.6582463253" lon="-5.7783189230">
        <ele>977.32</ele>
        <time>2020-07-18T08:28:36Z</time>
      </trkpt>
      <trkpt lat="40.6582583953" lon="-5.7783630956">
        <ele>977.32</ele>
        <time>2020-07-18T08:28:44Z</time>
      </trkpt>
      <trkpt lat="40.6582520250" lon="-5.7783712260">
        <ele>976.84</ele>
        <time>2020-07-18T08:28:54Z</time>
      </trkpt>
      <trkpt lat="40.6582539529" lon="-5.7783788536">
        <ele>975.88</ele>
        <time>2020-07-18T08:29:02Z</time>
      </trkpt>
      <trkpt lat="40.6582652684" lon="-5.7783872355">
        <ele>975.88</ele>
        <time>2020-07-18T08:29:03Z</time>
      </trkpt>
      <trkpt lat="40.6582888216" lon="-5.7783899177">
        <ele>975.88</ele>
        <time>2020-07-18T08:29:05Z</time>
      </trkpt>
      <trkpt lat="40.6584152207" lon="-5.7783055957">
        <ele>976.84</ele>
        <time>2020-07-18T08:29:12Z</time>
      </trkpt>
      <trkpt lat="40.6585840322" lon="-5.7781431545">
        <ele>979.24</ele>
        <time>2020-07-18T08:29:22Z</time>
      </trkpt>
      <trkpt lat="40.6587149575" lon="-5.7780199405">
        <ele>980.68</ele>
        <time>2020-07-18T08:29:30Z</time>
      </trkpt>
      <trkpt lat="40.6588445418" lon="-5.7779041026">
        <ele>981.16</ele>
        <time>2020-07-18T08:29:38Z</time>
      </trkpt>
      <trkpt lat="40.6590032950" lon="-5.7777621131">
        <ele>982.12</ele>
        <time>2020-07-18T08:29:47Z</time>
      </trkpt>
      <trkpt lat="40.6591546722" lon="-5.7776254881">
        <ele>982.12</ele>
        <time>2020-07-18T08:29:56Z</time>
      </trkpt>
      <trkpt lat="40.6593050435" lon="-5.7774856780">
        <ele>983.09</ele>
        <time>2020-07-18T08:30:05Z</time>
      </trkpt>
      <trkpt lat="40.6594605278" lon="-5.7773487177">
        <ele>983.57</ele>
        <time>2020-07-18T08:30:14Z</time>
      </trkpt>
      <trkpt lat="40.6596478634" lon="-5.7771732844">
        <ele>985.49</ele>
        <time>2020-07-18T08:30:25Z</time>
      </trkpt>
      <trkpt lat="40.6598067004" lon="-5.7770263497">
        <ele>986.93</ele>
        <time>2020-07-18T08:30:34Z</time>
      </trkpt>
      <trkpt lat="40.6599369552" lon="-5.7768985257">
        <ele>987.89</ele>
        <time>2020-07-18T08:30:43Z</time>
      </trkpt>
      <trkpt lat="40.6601164956" lon="-5.7767451368">
        <ele>988.85</ele>
        <time>2020-07-18T08:30:55Z</time>
      </trkpt>
      <trkpt lat="40.6602257118" lon="-5.7766510919">
        <ele>989.81</ele>
        <time>2020-07-18T08:31:03Z</time>
      </trkpt>
      <trkpt lat="40.6603433099" lon="-5.7765327394">
        <ele>990.78</ele>
        <time>2020-07-18T08:31:12Z</time>
      </trkpt>
      <trkpt lat="40.6604847126" lon="-5.7763998862">
        <ele>992.70</ele>
        <time>2020-07-18T08:31:23Z</time>
      </trkpt>
      <trkpt lat="40.6606080942" lon="-5.7762907539">
        <ele>993.18</ele>
        <time>2020-07-18T08:31:32Z</time>
      </trkpt>
      <trkpt lat="40.6607231777" lon="-5.7761875726">
        <ele>994.14</ele>
        <time>2020-07-18T08:31:40Z</time>
      </trkpt>
      <trkpt lat="40.6608818471" lon="-5.7760377042">
        <ele>995.10</ele>
        <time>2020-07-18T08:31:51Z</time>
      </trkpt>
      <trkpt lat="40.6610007863" lon="-5.7759341877">
        <ele>995.58</ele>
        <time>2020-07-18T08:31:59Z</time>
      </trkpt>
      <trkpt lat="40.6611573603" lon="-5.7757884264">
        <ele>997.02</ele>
        <time>2020-07-18T08:32:10Z</time>
      </trkpt>
      <trkpt lat="40.6611653231" lon="-5.7757781167">
        <ele>996.54</ele>
        <time>2020-07-18T08:32:16Z</time>
      </trkpt>
      <trkpt lat="40.6611616351" lon="-5.7757710759">
        <ele>995.58</ele>
        <time>2020-07-18T08:32:30Z</time>
      </trkpt>
      <trkpt lat="40.6612312887" lon="-5.7757122349">
        <ele>996.54</ele>
        <time>2020-07-18T08:32:36Z</time>
      </trkpt>
      <trkpt lat="40.6614120863" lon="-5.7755469438">
        <ele>997.99</ele>
        <time>2020-07-18T08:32:47Z</time>
      </trkpt>
      <trkpt lat="40.6615774613" lon="-5.7753989194">
        <ele>997.99</ele>
        <time>2020-07-18T08:32:57Z</time>
      </trkpt>
      <trkpt lat="40.6617197022" lon="-5.7752720173">
        <ele>999.43</ele>
        <time>2020-07-18T08:33:06Z</time>
      </trkpt>
      <trkpt lat="40.6619051099" lon="-5.7750881184">
        <ele>999.91</ele>
        <time>2020-07-18T08:33:17Z</time>
      </trkpt>
      <trkpt lat="40.6620287430" lon="-5.7749454584">
        <ele>1000.87</ele>
        <time>2020-07-18T08:33:25Z</time>
      </trkpt>
      <trkpt lat="40.6621727441" lon="-5.7747390959">
        <ele>1001.83</ele>
        <time>2020-07-18T08:33:33Z</time>
      </trkpt>
      <trkpt lat="40.6623603310" lon="-5.7744451426">
        <ele>1002.31</ele>
        <time>2020-07-18T08:33:43Z</time>
      </trkpt>
      <trkpt lat="40.6625947729" lon="-5.7740834635">
        <ele>1002.79</ele>
        <time>2020-07-18T08:33:55Z</time>
      </trkpt>
      <trkpt lat="40.6627905741" lon="-5.7737908512">
        <ele>1003.75</ele>
        <time>2020-07-18T08:34:05Z</time>
      </trkpt>
      <trkpt lat="40.6629886385" lon="-5.7734254841">
        <ele>1005.20</ele>
        <time>2020-07-18T08:34:16Z</time>
      </trkpt>
      <trkpt lat="40.6630881317" lon="-5.7731703389">
        <ele>1005.68</ele>
        <time>2020-07-18T08:34:23Z</time>
      </trkpt>
      <trkpt lat="40.6632442866" lon="-5.7727929857">
        <ele>1006.16</ele>
        <time>2020-07-18T08:34:34Z</time>
      </trkpt>
      <trkpt lat="40.6633897964" lon="-5.7724235952">
        <ele>1007.60</ele>
        <time>2020-07-18T08:34:43Z</time>
      </trkpt>
      <trkpt lat="40.6635674089" lon="-5.7719640154">
        <ele>1009.04</ele>
        <time>2020-07-18T08:34:54Z</time>
      </trkpt>
      <trkpt lat="40.6637472007" lon="-5.7715225406">
        <ele>1010.00</ele>
        <time>2020-07-18T08:35:04Z</time>
      </trkpt>
      <trkpt lat="40.6639202032" lon="-5.7711542398">
        <ele>1010.00</ele>
        <time>2020-07-18T08:35:13Z</time>
      </trkpt>
      <trkpt lat="40.6641693972" lon="-5.7708774693">
        <ele>1009.52</ele>
        <time>2020-07-18T08:35:22Z</time>
      </trkpt>
      <trkpt lat="40.6644619256" lon="-5.7707932312">
        <ele>1009.04</ele>
        <time>2020-07-18T08:35:31Z</time>
      </trkpt>
      <trkpt lat="40.6648005545" lon="-5.7707792334">
        <ele>1008.56</ele>
        <time>2020-07-18T08:35:41Z</time>
      </trkpt>
      <trkpt lat="40.6651162170" lon="-5.7707923092">
        <ele>1008.56</ele>
        <time>2020-07-18T08:35:50Z</time>
      </trkpt>
      <trkpt lat="40.6654773094" lon="-5.7707961649">
        <ele>1009.04</ele>
        <time>2020-07-18T08:36:00Z</time>
      </trkpt>
      <trkpt lat="40.6658839155" lon="-5.7708073128">
        <ele>1010.00</ele>
        <time>2020-07-18T08:36:11Z</time>
      </trkpt>
      <trkpt lat="40.6661866698" lon="-5.7708237413">
        <ele>1011.44</ele>
        <time>2020-07-18T08:36:20Z</time>
      </trkpt>
      <trkpt lat="40.6665133126" lon="-5.7708348054">
        <ele>1012.89</ele>
        <time>2020-07-18T08:36:31Z</time>
      </trkpt>
      <trkpt lat="40.6667468324" lon="-5.7708467916">
        <ele>1014.33</ele>
        <time>2020-07-18T08:36:40Z</time>
      </trkpt>
      <trkpt lat="40.6669727247" lon="-5.7708358113">
        <ele>1016.25</ele>
        <time>2020-07-18T08:36:49Z</time>
      </trkpt>
      <trkpt lat="40.6672473997" lon="-5.7707567699">
        <ele>1019.13</ele>
        <time>2020-07-18T08:37:00Z</time>
      </trkpt>
      <trkpt lat="40.6674905587" lon="-5.7706469670">
        <ele>1020.58</ele>
        <time>2020-07-18T08:37:10Z</time>
      </trkpt>
      <trkpt lat="40.6677073985" lon="-5.7705525029">
        <ele>1022.50</ele>
        <time>2020-07-18T08:37:19Z</time>
      </trkpt>
      <trkpt lat="40.6678311992" lon="-5.7704905607">
        <ele>1022.98</ele>
        <time>2020-07-18T08:37:26Z</time>
      </trkpt>
      <trkpt lat="40.6679945625" lon="-5.7704096753">
        <ele>1024.42</ele>
        <time>2020-07-18T08:37:35Z</time>
      </trkpt>
      <trkpt lat="40.6682077982" lon="-5.7703190669">
        <ele>1025.86</ele>
        <time>2020-07-18T08:37:46Z</time>
      </trkpt>
      <trkpt lat="40.6683805492" lon="-5.7702473179">
        <ele>1026.83</ele>
        <time>2020-07-18T08:37:55Z</time>
      </trkpt>
      <trkpt lat="40.6685937848" lon="-5.7701658458">
        <ele>1028.27</ele>
        <time>2020-07-18T08:38:06Z</time>
      </trkpt>
      <trkpt lat="40.6687807012" lon="-5.7701153029">
        <ele>1029.23</ele>
        <time>2020-07-18T08:38:16Z</time>
      </trkpt>
      <trkpt lat="40.6689794362" lon="-5.7700976171">
        <ele>1029.71</ele>
        <time>2020-07-18T08:38:27Z</time>
      </trkpt>
      <trkpt lat="40.6691467389" lon="-5.7700858824">
        <ele>1030.19</ele>
        <time>2020-07-18T08:38:36Z</time>
      </trkpt>
      <trkpt lat="40.6693387683" lon="-5.7701002993">
        <ele>1031.15</ele>
        <time>2020-07-18T08:38:46Z</time>
      </trkpt>
      <trkpt lat="40.6694682688" lon="-5.7701075915">
        <ele>1032.11</ele>
        <time>2020-07-18T08:38:53Z</time>
      </trkpt>
      <trkpt lat="40.6696043070" lon="-5.7701011375">
        <ele>1033.55</ele>
        <time>2020-07-18T08:39:00Z</time>
      </trkpt>
      <trkpt lat="40.6697846018" lon="-5.7700966951">
        <ele>1034.52</ele>
        <time>2020-07-18T08:39:09Z</time>
      </trkpt>
      <trkpt lat="40.6699803192" lon="-5.7701004669">
        <ele>1035.48</ele>
        <time>2020-07-18T08:39:19Z</time>
      </trkpt>
      <trkpt lat="40.6701740250" lon="-5.7701036520">
        <ele>1037.40</ele>
        <time>2020-07-18T08:39:29Z</time>
      </trkpt>
      <trkpt lat="40.6703474466" lon="-5.7701116148">
        <ele>1040.28</ele>
        <time>2020-07-18T08:39:38Z</time>
      </trkpt>
      <trkpt lat="40.6705653761" lon="-5.7701747306">
        <ele>1042.21</ele>
        <time>2020-07-18T08:39:49Z</time>
      </trkpt>
      <trkpt lat="40.6707102992" lon="-5.7702579629">
        <ele>1043.17</ele>
        <time>2020-07-18T08:39:58Z</time>
      </trkpt>
      <trkpt lat="40.6708655320" lon="-5.7703723758">
        <ele>1043.65</ele>
        <time>2020-07-18T08:40:08Z</time>
      </trkpt>
      <trkpt lat="40.6710467488" lon="-5.7705141976">
        <ele>1045.09</ele>
        <time>2020-07-18T08:40:19Z</time>
      </trkpt>
      <trkpt lat="40.6712451484" lon="-5.7706646528">
        <ele>1045.57</ele>
        <time>2020-07-18T08:40:30Z</time>
      </trkpt>
      <trkpt lat="40.6714427937" lon="-5.7708187122">
        <ele>1047.01</ele>
        <time>2020-07-18T08:40:41Z</time>
      </trkpt>
      <trkpt lat="40.6716092583" lon="-5.7709516492">
        <ele>1048.45</ele>
        <time>2020-07-18T08:40:50Z</time>
      </trkpt>
      <trkpt lat="40.6717939116" lon="-5.7710974943">
        <ele>1049.90</ele>
        <time>2020-07-18T08:41:00Z</time>
      </trkpt>
      <trkpt lat="40.6719959993" lon="-5.7712587621">
        <ele>1050.86</ele>
        <time>2020-07-18T08:41:11Z</time>
      </trkpt>
      <trkpt lat="40.6721612904" lon="-5.7713778690">
        <ele>1052.30</ele>
        <time>2020-07-18T08:41:20Z</time>
      </trkpt>
      <trkpt lat="40.6724273320" lon="-5.7714691479">
        <ele>1054.22</ele>
        <time>2020-07-18T08:41:33Z</time>
      </trkpt>
      <trkpt lat="40.6726797950" lon="-5.7715172600">
        <ele>1055.67</ele>
        <time>2020-07-18T08:41:45Z</time>
      </trkpt>
      <trkpt lat="40.6729144044" lon="-5.7715512067">
        <ele>1056.15</ele>
        <time>2020-07-18T08:41:56Z</time>
      </trkpt>
      <trkpt lat="40.6731537916" lon="-5.7715526316">
        <ele>1056.63</ele>
        <time>2020-07-18T08:42:07Z</time>
      </trkpt>
      <trkpt lat="40.6733791810" lon="-5.7715293299">
        <ele>1059.03</ele>
        <time>2020-07-18T08:42:17Z</time>
      </trkpt>
      <trkpt lat="40.6735726353" lon="-5.7714895159">
        <ele>1059.99</ele>
        <time>2020-07-18T08:42:26Z</time>
      </trkpt>
      <trkpt lat="40.6737964321" lon="-5.7714439183">
        <ele>1062.39</ele>
        <time>2020-07-18T08:42:37Z</time>
      </trkpt>
      <trkpt lat="40.6740281917" lon="-5.7713981532">
        <ele>1062.39</ele>
        <time>2020-07-18T08:42:48Z</time>
      </trkpt>
      <trkpt lat="40.6742592808" lon="-5.7713646255">
        <ele>1063.36</ele>
        <time>2020-07-18T08:42:59Z</time>
      </trkpt>
      <trkpt lat="40.6744681578" lon="-5.7713362109">
        <ele>1064.32</ele>
        <time>2020-07-18T08:43:09Z</time>
      </trkpt>
      <trkpt lat="40.6746443454" lon="-5.7713250630">
        <ele>1064.32</ele>
        <time>2020-07-18T08:43:19Z</time>
      </trkpt>
      <trkpt lat="40.6748196110" lon="-5.7713572495">
        <ele>1064.80</ele>
        <time>2020-07-18T08:43:28Z</time>
      </trkpt>
      <trkpt lat="40.6751089543" lon="-5.7714275736">
        <ele>1065.76</ele>
        <time>2020-07-18T08:43:38Z</time>
      </trkpt>
      <trkpt lat="40.6753965374" lon="-5.7715063635">
        <ele>1066.72</ele>
        <time>2020-07-18T08:43:48Z</time>
      </trkpt>
      <trkpt lat="40.6757451408" lon="-5.7715967204">
        <ele>1068.64</ele>
        <time>2020-07-18T08:44:00Z</time>
      </trkpt>
      <trkpt lat="40.6759696919" lon="-5.7716532983">
        <ele>1070.08</ele>
        <time>2020-07-18T08:44:08Z</time>
      </trkpt>
      <trkpt lat="40.6762215681" lon="-5.7717181742">
        <ele>1072.49</ele>
        <time>2020-07-18T08:44:17Z</time>
      </trkpt>
      <trkpt lat="40.6765012722" lon="-5.7717919350">
        <ele>1073.93</ele>
        <time>2020-07-18T08:44:27Z</time>
      </trkpt>
      <trkpt lat="40.6768357102" lon="-5.7718755025">
        <ele>1075.37</ele>
        <time>2020-07-18T08:44:40Z</time>
      </trkpt>
      <trkpt lat="40.6770854071" lon="-5.7719420549">
        <ele>1076.33</ele>
        <time>2020-07-18T08:44:50Z</time>
      </trkpt>
      <trkpt lat="40.6773803663" lon="-5.7720153965">
        <ele>1077.29</ele>
        <time>2020-07-18T08:45:01Z</time>
      </trkpt>
      <trkpt lat="40.6776376069" lon="-5.7720784284">
        <ele>1078.74</ele>
        <time>2020-07-18T08:45:11Z</time>
      </trkpt>
      <trkpt lat="40.6779240165" lon="-5.7721457351">
        <ele>1079.70</ele>
        <time>2020-07-18T08:45:22Z</time>
      </trkpt>
      <trkpt lat="40.6781634875" lon="-5.7721947692">
        <ele>1080.66</ele>
        <time>2020-07-18T08:45:31Z</time>
      </trkpt>
      <trkpt lat="40.6784236617" lon="-5.7722594775">
        <ele>1080.66</ele>
        <time>2020-07-18T08:45:41Z</time>
      </trkpt>
      <trkpt lat="40.6787064672" lon="-5.7722864673">
        <ele>1082.10</ele>
        <time>2020-07-18T08:45:52Z</time>
      </trkpt>
      <trkpt lat="40.6789091416" lon="-5.7722495031">
        <ele>1083.06</ele>
        <time>2020-07-18T08:46:00Z</time>
      </trkpt>
      <trkpt lat="40.6791673042" lon="-5.7722037379">
        <ele>1084.99</ele>
        <time>2020-07-18T08:46:10Z</time>
      </trkpt>
      <trkpt lat="40.6794424821" lon="-5.7721586432">
        <ele>1085.95</ele>
        <time>2020-07-18T08:46:20Z</time>
      </trkpt>
      <trkpt lat="40.6797115412" lon="-5.7721115369">
        <ele>1087.39</ele>
        <time>2020-07-18T08:46:30Z</time>
      </trkpt>
      <trkpt lat="40.6797548756" lon="-5.7720771711">
        <ele>1087.39</ele>
        <time>2020-07-18T08:46:33Z</time>
      </trkpt>
      <trkpt lat="40.6797620840" lon="-5.7720571384">
        <ele>1087.39</ele>
        <time>2020-07-18T08:46:34Z</time>
      </trkpt>
      <trkpt lat="40.6797725614" lon="-5.7720154803">
        <ele>1086.91</ele>
        <time>2020-07-18T08:46:36Z</time>
      </trkpt>
      <trkpt lat="40.6797851343" lon="-5.7720008958">
        <ele>1086.91</ele>
        <time>2020-07-18T08:46:37Z</time>
      </trkpt>
      <trkpt lat="40.6797964498" lon="-5.7719860598">
        <ele>1086.91</ele>
        <time>2020-07-18T08:46:38Z</time>
      </trkpt>
      <trkpt lat="40.6798210088" lon="-5.7719563879">
        <ele>1088.35</ele>
        <time>2020-07-18T08:46:44Z</time>
      </trkpt>
      <trkpt lat="40.6798189972" lon="-5.7719629258">
        <ele>1089.79</ele>
        <time>2020-07-18T08:46:59Z</time>
      </trkpt>
      <trkpt lat="40.6798188295" lon="-5.7719731517">
        <ele>1089.31</ele>
        <time>2020-07-18T08:47:13Z</time>
      </trkpt>
      <trkpt lat="40.6798285525" lon="-5.7719875686">
        <ele>1089.79</ele>
        <time>2020-07-18T08:47:15Z</time>
      </trkpt>
      <trkpt lat="40.6798832864" lon="-5.7720541209">
        <ele>1088.83</ele>
        <time>2020-07-18T08:47:22Z</time>
      </trkpt>
      <trkpt lat="40.6799361762" lon="-5.7720601559">
        <ele>1089.31</ele>
        <time>2020-07-18T08:47:25Z</time>
      </trkpt>
      <trkpt lat="40.6799592264" lon="-5.7720608264">
        <ele>1089.31</ele>
        <time>2020-07-18T08:47:26Z</time>
      </trkpt>
      <trkpt lat="40.6799776666" lon="-5.7720587309">
        <ele>1089.31</ele>
        <time>2020-07-18T08:47:27Z</time>
      </trkpt>
      <trkpt lat="40.6800210848" lon="-5.7720578928">
        <ele>1089.31</ele>
        <time>2020-07-18T08:47:29Z</time>
      </trkpt>
      <trkpt lat="40.6802177243" lon="-5.7720158156">
        <ele>1090.75</ele>
        <time>2020-07-18T08:47:37Z</time>
      </trkpt>
      <trkpt lat="40.6805211492" lon="-5.7719642669">
        <ele>1090.75</ele>
        <time>2020-07-18T08:47:49Z</time>
      </trkpt>
      <trkpt lat="40.6808678247" lon="-5.7718940265">
        <ele>1092.20</ele>
        <time>2020-07-18T08:48:02Z</time>
      </trkpt>
      <trkpt lat="40.6810869277" lon="-5.7718535420">
        <ele>1092.20</ele>
        <time>2020-07-18T08:48:10Z</time>
      </trkpt>
      <trkpt lat="40.6813622732" lon="-5.7717992272">
        <ele>1093.64</ele>
        <time>2020-07-18T08:48:20Z</time>
      </trkpt>
      <trkpt lat="40.6816954538" lon="-5.7717403863">
        <ele>1096.04</ele>
        <time>2020-07-18T08:48:32Z</time>
      </trkpt>
      <trkpt lat="40.6819925085" lon="-5.7716812100">
        <ele>1097.96</ele>
        <time>2020-07-18T08:48:43Z</time>
      </trkpt>
      <trkpt lat="40.6822720449" lon="-5.7716321759">
        <ele>1099.40</ele>
        <time>2020-07-18T08:48:53Z</time>
      </trkpt>
      <trkpt lat="40.6825509109" lon="-5.7715756819">
        <ele>1100.85</ele>
        <time>2020-07-18T08:49:03Z</time>
      </trkpt>
      <trkpt lat="40.6828629691" lon="-5.7715166733">
        <ele>1102.29</ele>
        <time>2020-07-18T08:49:14Z</time>
      </trkpt>
      <trkpt lat="40.6831402425" lon="-5.7714791223">
        <ele>1103.25</ele>
        <time>2020-07-18T08:49:23Z</time>
      </trkpt>
      <trkpt lat="40.6834450923" lon="-5.7714852411">
        <ele>1103.73</ele>
        <time>2020-07-18T08:49:33Z</time>
      </trkpt>
      <trkpt lat="40.6836877484" lon="-5.7714978140">
        <ele>1103.73</ele>
        <time>2020-07-18T08:49:41Z</time>
      </trkpt>
      <trkpt lat="40.6837186776" lon="-5.7714856602">
        <ele>1102.77</ele>
        <time>2020-07-18T08:49:46Z</time>
      </trkpt>
      <trkpt lat="40.6837273110" lon="-5.7714806311">
        <ele>1102.77</ele>
        <time>2020-07-18T08:49:52Z</time>
      </trkpt>
      <trkpt lat="40.6837276462" lon="-5.7714694832">
        <ele>1100.85</ele>
        <time>2020-07-18T08:50:08Z</time>
      </trkpt>
      <trkpt lat="40.6837331783" lon="-5.7714668848">
        <ele>1099.40</ele>
        <time>2020-07-18T08:50:20Z</time>
      </trkpt>
      <trkpt lat="40.6837408897" lon="-5.7714951318">
        <ele>1100.85</ele>
        <time>2020-07-18T08:50:48Z</time>
      </trkpt>
      <trkpt lat="40.6837423146" lon="-5.7714873366">
        <ele>1100.37</ele>
        <time>2020-07-18T08:51:04Z</time>
      </trkpt>
      <trkpt lat="40.6837541331" lon="-5.7714968082">
        <ele>1100.85</ele>
        <time>2020-07-18T08:51:18Z</time>
      </trkpt>
      <trkpt lat="40.6837633532" lon="-5.7715160865">
        <ele>1102.29</ele>
        <time>2020-07-18T08:51:31Z</time>
      </trkpt>
      <trkpt lat="40.6837498583" lon="-5.7714946289">
        <ele>1102.77</ele>
        <time>2020-07-18T08:51:51Z</time>
      </trkpt>
      <trkpt lat="40.6837473437" lon="-5.7714984845">
        <ele>1102.77</ele>
        <time>2020-07-18T08:52:06Z</time>
      </trkpt>
      <trkpt lat="40.6837408897" lon="-5.7714905217">
        <ele>1101.81</ele>
        <time>2020-07-18T08:52:21Z</time>
      </trkpt>
      <trkpt lat="40.6837429013" lon="-5.7715082075">
        <ele>1102.29</ele>
        <time>2020-07-18T08:52:36Z</time>
      </trkpt>
      <trkpt lat="40.6837470923" lon="-5.7715138234">
        <ele>1100.85</ele>
        <time>2020-07-18T08:52:51Z</time>
      </trkpt>
      <trkpt lat="40.6837318372" lon="-5.7714933716">
        <ele>1099.40</ele>
        <time>2020-07-18T08:53:08Z</time>
      </trkpt>
      <trkpt lat="40.6837354414" lon="-5.7714880910">
        <ele>1098.92</ele>
        <time>2020-07-18T08:53:24Z</time>
      </trkpt>
      <trkpt lat="40.6837429851" lon="-5.7714927848">
        <ele>1099.40</ele>
        <time>2020-07-18T08:53:41Z</time>
      </trkpt>
      <trkpt lat="40.6837462541" lon="-5.7714925334">
        <ele>1098.92</ele>
        <time>2020-07-18T08:53:51Z</time>
      </trkpt>
      <trkpt lat="40.6837532111" lon="-5.7714973949">
        <ele>1100.37</ele>
        <time>2020-07-18T08:54:08Z</time>
      </trkpt>
      <trkpt lat="40.6837423146" lon="-5.7715001609">
        <ele>1099.40</ele>
        <time>2020-07-18T08:54:22Z</time>
      </trkpt>
      <trkpt lat="40.6837431528" lon="-5.7714962214">
        <ele>1099.40</ele>
        <time>2020-07-18T08:54:30Z</time>
      </trkpt>
      <trkpt lat="40.6837478466" lon="-5.7715000771">
        <ele>1099.40</ele>
        <time>2020-07-18T08:54:31Z</time>
      </trkpt>
      <trkpt lat="40.6837594975" lon="-5.7715033460">
        <ele>1099.40</ele>
        <time>2020-07-18T08:54:32Z</time>
      </trkpt>
      <trkpt lat="40.6837734114" lon="-5.7715050224">
        <ele>1099.40</ele>
        <time>2020-07-18T08:54:33Z</time>
      </trkpt>
      <trkpt lat="40.6839182507" lon="-5.7715260610">
        <ele>1099.40</ele>
        <time>2020-07-18T08:54:39Z</time>
      </trkpt>
      <trkpt lat="40.6841297261" lon="-5.7715349458">
        <ele>1098.44</ele>
        <time>2020-07-18T08:54:45Z</time>
      </trkpt>
      <trkpt lat="40.6844693609" lon="-5.7715287432">
        <ele>1096.04</ele>
        <time>2020-07-18T08:54:51Z</time>
      </trkpt>
      <trkpt lat="40.6850516517" lon="-5.7714755181">
        <ele>1091.23</ele>
        <time>2020-07-18T08:54:58Z</time>
      </trkpt>
      <trkpt lat="40.6857691426" lon="-5.7713991590">
        <ele>1085.47</ele>
        <time>2020-07-18T08:55:06Z</time>
      </trkpt>
      <trkpt lat="40.6866257731" lon="-5.7713111490">
        <ele>1080.18</ele>
        <time>2020-07-18T08:55:16Z</time>
      </trkpt>
      <trkpt lat="40.6872851774" lon="-5.7713062037">
        <ele>1074.89</ele>
        <time>2020-07-18T08:55:23Z</time>
      </trkpt>
      <trkpt lat="40.6881777663" lon="-5.7714285795">
        <ele>1068.16</ele>
        <time>2020-07-18T08:55:32Z</time>
      </trkpt>
      <trkpt lat="40.6889134459" lon="-5.7715211157">
        <ele>1063.36</ele>
        <time>2020-07-18T08:55:40Z</time>
      </trkpt>
      <trkpt lat="40.6894433498" lon="-5.7715926133">
        <ele>1059.99</ele>
        <time>2020-07-18T08:55:46Z</time>
      </trkpt>
      <trkpt lat="40.6896620337" lon="-5.7715733349">
        <ele>1059.03</ele>
        <time>2020-07-18T08:55:49Z</time>
      </trkpt>
      <trkpt lat="40.6897197850" lon="-5.7715444174">
        <ele>1058.07</ele>
        <time>2020-07-18T08:55:50Z</time>
      </trkpt>
      <trkpt lat="40.6897766981" lon="-5.7714984007">
        <ele>1057.59</ele>
        <time>2020-07-18T08:55:51Z</time>
      </trkpt>
      <trkpt lat="40.6898288336" lon="-5.7714332733">
        <ele>1056.63</ele>
        <time>2020-07-18T08:55:52Z</time>
      </trkpt>
      <trkpt lat="40.6898684800" lon="-5.7713547349">
        <ele>1056.15</ele>
        <time>2020-07-18T08:55:53Z</time>
      </trkpt>
      <trkpt lat="40.6898912787" lon="-5.7712645456">
        <ele>1055.67</ele>
        <time>2020-07-18T08:55:54Z</time>
      </trkpt>
      <trkpt lat="40.6899006665" lon="-5.7711700816">
        <ele>1055.18</ele>
        <time>2020-07-18T08:55:55Z</time>
      </trkpt>
      <trkpt lat="40.6898988225" lon="-5.7710583508">
        <ele>1054.70</ele>
        <time>2020-07-18T08:55:56Z</time>
      </trkpt>
      <trkpt lat="40.6898920331" lon="-5.7709531579">
        <ele>1054.70</ele>
        <time>2020-07-18T08:55:57Z</time>
      </trkpt>
      <trkpt lat="40.6897737645" lon="-5.7701995410">
        <ele>1050.86</ele>
        <time>2020-07-18T08:56:04Z</time>
      </trkpt>
      <trkpt lat="40.6896836590" lon="-5.7694196049">
        <ele>1047.01</ele>
        <time>2020-07-18T08:56:11Z</time>
      </trkpt>
      <trkpt lat="40.6896934658" lon="-5.7693063654">
        <ele>1046.53</ele>
        <time>2020-07-18T08:56:12Z</time>
      </trkpt>
      <trkpt lat="40.6897149235" lon="-5.7691989932">
        <ele>1045.57</ele>
        <time>2020-07-18T08:56:13Z</time>
      </trkpt>
      <trkpt lat="40.6897477806" lon="-5.7690866757">
        <ele>1044.61</ele>
        <time>2020-07-18T08:56:14Z</time>
      </trkpt>
      <trkpt lat="40.6897859182" lon="-5.7689865120">
        <ele>1043.65</ele>
        <time>2020-07-18T08:56:15Z</time>
      </trkpt>
      <trkpt lat="40.6898290850" lon="-5.7688964903">
        <ele>1043.17</ele>
        <time>2020-07-18T08:56:16Z</time>
      </trkpt>
      <trkpt lat="40.6898778677" lon="-5.7688083127">
        <ele>1042.21</ele>
        <time>2020-07-18T08:56:17Z</time>
      </trkpt>
      <trkpt lat="40.6902123056" lon="-5.7683749683">
        <ele>1039.32</ele>
        <time>2020-07-18T08:56:23Z</time>
      </trkpt>
      <trkpt lat="40.6907441374" lon="-5.7677589823">
        <ele>1034.04</ele>
        <time>2020-07-18T08:56:32Z</time>
      </trkpt>
      <trkpt lat="40.6910704449" lon="-5.7675459143">
        <ele>1031.15</ele>
        <time>2020-07-18T08:56:37Z</time>
      </trkpt>
      <trkpt lat="40.6911503244" lon="-5.7675242890">
        <ele>1030.67</ele>
        <time>2020-07-18T08:56:38Z</time>
      </trkpt>
      <trkpt lat="40.6912356522" lon="-5.7675102912">
        <ele>1030.19</ele>
        <time>2020-07-18T08:56:39Z</time>
      </trkpt>
      <trkpt lat="40.6919319369" lon="-5.7674388774">
        <ele>1024.90</ele>
        <time>2020-07-18T08:56:46Z</time>
      </trkpt>
      <trkpt lat="40.6929705385" lon="-5.7673081197">
        <ele>1019.13</ele>
        <time>2020-07-18T08:56:56Z</time>
      </trkpt>
      <trkpt lat="40.6938252412" lon="-5.7671835646">
        <ele>1014.81</ele>
        <time>2020-07-18T08:57:05Z</time>
      </trkpt>
      <trkpt lat="40.6944960449" lon="-5.7669736817">
        <ele>1010.00</ele>
        <time>2020-07-18T08:57:12Z</time>
      </trkpt>
      <trkpt lat="40.6954084150" lon="-5.7666676585">
        <ele>1005.20</ele>
        <time>2020-07-18T08:57:21Z</time>
      </trkpt>
      <trkpt lat="40.6962993275" lon="-5.7663621381">
        <ele>1001.35</ele>
        <time>2020-07-18T08:57:30Z</time>
      </trkpt>
      <trkpt lat="40.6970891543" lon="-5.7660968509">
        <ele>997.99</ele>
        <time>2020-07-18T08:57:38Z</time>
      </trkpt>
      <trkpt lat="40.6977282744" lon="-5.7658864651">
        <ele>995.58</ele>
        <time>2020-07-18T08:57:45Z</time>
      </trkpt>
      <trkpt lat="40.6987647805" lon="-5.7655351795">
        <ele>991.26</ele>
        <time>2020-07-18T08:57:56Z</time>
      </trkpt>
      <trkpt lat="40.6997126900" lon="-5.7652155776">
        <ele>988.85</ele>
        <time>2020-07-18T08:58:06Z</time>
      </trkpt>
      <trkpt lat="40.7003582641" lon="-5.7650072034">
        <ele>989.33</ele>
        <time>2020-07-18T08:58:14Z</time>
      </trkpt>
      <trkpt lat="40.7006803807" lon="-5.7648923714">
        <ele>989.81</ele>
        <time>2020-07-18T08:58:20Z</time>
      </trkpt>
      <trkpt lat="40.7009587437" lon="-5.7648004219">
        <ele>990.30</ele>
        <time>2020-07-18T08:58:29Z</time>
      </trkpt>
      <trkpt lat="40.7012157328" lon="-5.7647050358">
        <ele>990.78</ele>
        <time>2020-07-18T08:58:37Z</time>
      </trkpt>
      <trkpt lat="40.7015480753" lon="-5.7645860128">
        <ele>990.78</ele>
        <time>2020-07-18T08:58:47Z</time>
      </trkpt>
      <trkpt lat="40.7018732093" lon="-5.7644767128">
        <ele>989.81</ele>
        <time>2020-07-18T08:58:55Z</time>
      </trkpt>
      <trkpt lat="40.7023143489" lon="-5.7643917203">
        <ele>988.37</ele>
        <time>2020-07-18T08:59:03Z</time>
      </trkpt>
      <trkpt lat="40.7027527224" lon="-5.7644243259">
        <ele>988.37</ele>
        <time>2020-07-18T08:59:11Z</time>
      </trkpt>
      <trkpt lat="40.7031495217" lon="-5.7644819096">
        <ele>987.41</ele>
        <time>2020-07-18T08:59:20Z</time>
      </trkpt>
      <trkpt lat="40.7035899907" lon="-5.7645549159">
        <ele>987.89</ele>
        <time>2020-07-18T08:59:30Z</time>
      </trkpt>
      <trkpt lat="40.7041664142" lon="-5.7646483742">
        <ele>988.37</ele>
        <time>2020-07-18T08:59:43Z</time>
      </trkpt>
      <trkpt lat="40.7046152651" lon="-5.7647207100">
        <ele>988.37</ele>
        <time>2020-07-18T08:59:53Z</time>
      </trkpt>
      <trkpt lat="40.7051971368" lon="-5.7648096420">
        <ele>988.85</ele>
        <time>2020-07-18T09:00:06Z</time>
      </trkpt>
      <trkpt lat="40.7057256997" lon="-5.7648939639">
        <ele>988.85</ele>
        <time>2020-07-18T09:00:18Z</time>
      </trkpt>
      <trkpt lat="40.7061167993" lon="-5.7649440877">
        <ele>988.37</ele>
        <time>2020-07-18T09:00:27Z</time>
      </trkpt>
      <trkpt lat="40.7064806577" lon="-5.7650003303">
        <ele>987.41</ele>
        <time>2020-07-18T09:00:36Z</time>
      </trkpt>
      <trkpt lat="40.7067949791" lon="-5.7650300860">
        <ele>985.97</ele>
        <time>2020-07-18T09:00:45Z</time>
      </trkpt>
      <trkpt lat="40.7072026748" lon="-5.7650877535">
        <ele>985.01</ele>
        <time>2020-07-18T09:00:55Z</time>
      </trkpt>
      <trkpt lat="40.7076788507" lon="-5.7651613466">
        <ele>984.05</ele>
        <time>2020-07-18T09:01:06Z</time>
      </trkpt>
      <trkpt lat="40.7081663422" lon="-5.7652253006">
        <ele>983.57</ele>
        <time>2020-07-18T09:01:17Z</time>
      </trkpt>
      <trkpt lat="40.7086581085" lon="-5.7652954571">
        <ele>983.09</ele>
        <time>2020-07-18T09:01:28Z</time>
      </trkpt>
      <trkpt lat="40.7091046963" lon="-5.7653601654">
        <ele>984.53</ele>
        <time>2020-07-18T09:01:39Z</time>
      </trkpt>
      <trkpt lat="40.7093303371" lon="-5.7653905079">
        <ele>984.53</ele>
        <time>2020-07-18T09:01:45Z</time>
      </trkpt>
      <trkpt lat="40.7098203432" lon="-5.7654627599">
        <ele>985.01</ele>
        <time>2020-07-18T09:01:58Z</time>
      </trkpt>
      <trkpt lat="40.7101796754" lon="-5.7655166555">
        <ele>985.97</ele>
        <time>2020-07-18T09:02:08Z</time>
      </trkpt>
      <trkpt lat="40.7104617264" lon="-5.7655588165">
        <ele>986.93</ele>
        <time>2020-07-18T09:02:18Z</time>
      </trkpt>
      <trkpt lat="40.7107361499" lon="-5.7656003069">
        <ele>987.41</ele>
        <time>2020-07-18T09:02:28Z</time>
      </trkpt>
      <trkpt lat="40.7109919656" lon="-5.7656344213">
        <ele>988.85</ele>
        <time>2020-07-18T09:02:38Z</time>
      </trkpt>
      <trkpt lat="40.7112172712" lon="-5.7656612433">
        <ele>990.30</ele>
        <time>2020-07-18T09:02:47Z</time>
      </trkpt>
      <trkpt lat="40.7114342786" lon="-5.7656937651">
        <ele>992.22</ele>
        <time>2020-07-18T09:02:56Z</time>
      </trkpt>
      <trkpt lat="40.7116705645" lon="-5.7657325733">
        <ele>992.70</ele>
        <time>2020-07-18T09:03:06Z</time>
      </trkpt>
      <trkpt lat="40.7119185850" lon="-5.7657737285">
        <ele>994.62</ele>
        <time>2020-07-18T09:03:16Z</time>
      </trkpt>
      <trkpt lat="40.7122714631" lon="-5.7658196613">
        <ele>995.58</ele>
        <time>2020-07-18T09:03:29Z</time>
      </trkpt>
      <trkpt lat="40.7125608902" lon="-5.7658568770">
        <ele>996.06</ele>
        <time>2020-07-18T09:03:39Z</time>
      </trkpt>
      <trkpt lat="40.7129752077" lon="-5.7659198251">
        <ele>995.58</ele>
        <time>2020-07-18T09:03:50Z</time>
      </trkpt>
      <trkpt lat="40.7132874336" lon="-5.7659632433">
        <ele>996.06</ele>
        <time>2020-07-18T09:03:58Z</time>
      </trkpt>
      <trkpt lat="40.7136788685" lon="-5.7660284545">
        <ele>996.06</ele>
        <time>2020-07-18T09:04:08Z</time>
      </trkpt>
      <trkpt lat="40.7140211016" lon="-5.7660657540">
        <ele>995.58</ele>
        <time>2020-07-18T09:04:17Z</time>
      </trkpt>
      <trkpt lat="40.7144350000" lon="-5.7660879660">
        <ele>996.06</ele>
        <time>2020-07-18T09:04:28Z</time>
      </trkpt>
      <trkpt lat="40.7147878781" lon="-5.7661012933">
        <ele>996.06</ele>
        <time>2020-07-18T09:04:37Z</time>
      </trkpt>
      <trkpt lat="40.7152844220" lon="-5.7661090046">
        <ele>995.10</ele>
        <time>2020-07-18T09:04:48Z</time>
      </trkpt>
      <trkpt lat="40.7157901861" lon="-5.7661204040">
        <ele>993.18</ele>
        <time>2020-07-18T09:04:57Z</time>
      </trkpt>
      <trkpt lat="40.7164044119" lon="-5.7661295403">
        <ele>991.26</ele>
        <time>2020-07-18T09:05:06Z</time>
      </trkpt>
      <trkpt lat="40.7171923947" lon="-5.7661446277">
        <ele>988.85</ele>
        <time>2020-07-18T09:05:17Z</time>
      </trkpt>
      <trkpt lat="40.7180888392" lon="-5.7661576197">
        <ele>985.49</ele>
        <time>2020-07-18T09:05:29Z</time>
      </trkpt>
      <trkpt lat="40.7188237645" lon="-5.7661731262">
        <ele>984.53</ele>
        <time>2020-07-18T09:05:39Z</time>
      </trkpt>
      <trkpt lat="40.7193690911" lon="-5.7661844417">
        <ele>984.05</ele>
        <time>2020-07-18T09:05:47Z</time>
      </trkpt>
      <trkpt lat="40.7197890244" lon="-5.7661908958">
        <ele>984.05</ele>
        <time>2020-07-18T09:05:54Z</time>
      </trkpt>
      <trkpt lat="40.7201772742" lon="-5.7661973499">
        <ele>984.53</ele>
        <time>2020-07-18T09:06:02Z</time>
      </trkpt>
      <trkpt lat="40.7206505165" lon="-5.7662064023">
        <ele>984.53</ele>
        <time>2020-07-18T09:06:13Z</time>
      </trkpt>
      <trkpt lat="40.7211258542" lon="-5.7662219089">
        <ele>985.49</ele>
        <time>2020-07-18T09:06:25Z</time>
      </trkpt>
      <trkpt lat="40.7214927301" lon="-5.7662245072">
        <ele>986.45</ele>
        <time>2020-07-18T09:06:35Z</time>
      </trkpt>
      <trkpt lat="40.7215695921" lon="-5.7662069052">
        <ele>986.45</ele>
        <time>2020-07-18T09:06:37Z</time>
      </trkpt>
      <trkpt lat="40.7216529083" lon="-5.7661674265">
        <ele>985.97</ele>
        <time>2020-07-18T09:06:39Z</time>
      </trkpt>
      <trkpt lat="40.7216980029" lon="-5.7661384251">
        <ele>985.49</ele>
        <time>2020-07-18T09:06:40Z</time>
      </trkpt>
      <trkpt lat="40.7217402477" lon="-5.7661030535">
        <ele>985.01</ele>
        <time>2020-07-18T09:06:41Z</time>
      </trkpt>
      <trkpt lat="40.7217841689" lon="-5.7660585456">
        <ele>984.53</ele>
        <time>2020-07-18T09:06:42Z</time>
      </trkpt>
      <trkpt lat="40.7218252402" lon="-5.7660051528">
        <ele>984.53</ele>
        <time>2020-07-18T09:06:43Z</time>
      </trkpt>
      <trkpt lat="40.7218653895" lon="-5.7659432944">
        <ele>984.05</ele>
        <time>2020-07-18T09:06:44Z</time>
      </trkpt>
      <trkpt lat="40.7221305091" lon="-5.7654951978">
        <ele>981.16</ele>
        <time>2020-07-18T09:06:50Z</time>
      </trkpt>
      <trkpt lat="40.7223471813" lon="-5.7652212773">
        <ele>979.72</ele>
        <time>2020-07-18T09:06:54Z</time>
      </trkpt>
      <trkpt lat="40.7224136498" lon="-5.7651684713">
        <ele>979.24</ele>
        <time>2020-07-18T09:06:55Z</time>
      </trkpt>
      <trkpt lat="40.7230254449" lon="-5.7647891901">
        <ele>976.36</ele>
        <time>2020-07-18T09:07:03Z</time>
      </trkpt>
      <trkpt lat="40.7239279244" lon="-5.7642584480">
        <ele>973.95</ele>
        <time>2020-07-18T09:07:15Z</time>
      </trkpt>
      <trkpt lat="40.7246860676" lon="-5.7638108544">
        <ele>972.51</ele>
        <time>2020-07-18T09:07:26Z</time>
      </trkpt>
      <trkpt lat="40.7252745610" lon="-5.7634416316">
        <ele>971.07</ele>
        <time>2020-07-18T09:07:36Z</time>
      </trkpt>
      <trkpt lat="40.7258653175" lon="-5.7630791143">
        <ele>969.15</ele>
        <time>2020-07-18T09:07:46Z</time>
      </trkpt>
      <trkpt lat="40.7264364604" lon="-5.7627369650">
        <ele>966.74</ele>
        <time>2020-07-18T09:07:55Z</time>
      </trkpt>
      <trkpt lat="40.7271099463" lon="-5.7623306103">
        <ele>964.34</ele>
        <time>2020-07-18T09:08:05Z</time>
      </trkpt>
      <trkpt lat="40.7276646607" lon="-5.7619889639">
        <ele>962.90</ele>
        <time>2020-07-18T09:08:14Z</time>
      </trkpt>
      <trkpt lat="40.7282545790" lon="-5.7616447192">
        <ele>962.42</ele>
        <time>2020-07-18T09:08:25Z</time>
      </trkpt>
      <trkpt lat="40.7287230436" lon="-5.7613536995">
        <ele>960.01</ele>
        <time>2020-07-18T09:08:33Z</time>
      </trkpt>
      <trkpt lat="40.7293684501" lon="-5.7609496918">
        <ele>957.13</ele>
        <time>2020-07-18T09:08:43Z</time>
      </trkpt>
      <trkpt lat="40.7299666665" lon="-5.7605927903">
        <ele>952.80</ele>
        <time>2020-07-18T09:08:51Z</time>
      </trkpt>
      <trkpt lat="40.7306510489" lon="-5.7602181192">
        <ele>949.44</ele>
        <time>2020-07-18T09:08:59Z</time>
      </trkpt>
      <trkpt lat="40.7315163128" lon="-5.7599372417">
        <ele>946.56</ele>
        <time>2020-07-18T09:09:09Z</time>
      </trkpt>
      <trkpt lat="40.7321867812" lon="-5.7597033028">
        <ele>944.15</ele>
        <time>2020-07-18T09:09:17Z</time>
      </trkpt>
      <trkpt lat="40.7330726646" lon="-5.7594158873">
        <ele>940.79</ele>
        <time>2020-07-18T09:09:28Z</time>
      </trkpt>
      <trkpt lat="40.7337723859" lon="-5.7591842953">
        <ele>940.79</ele>
        <time>2020-07-18T09:09:37Z</time>
      </trkpt>
      <trkpt lat="40.7340229210" lon="-5.7590888254">
        <ele>942.71</ele>
        <time>2020-07-18T09:09:42Z</time>
      </trkpt>
      <trkpt lat="40.7342727017" lon="-5.7590006478">
        <ele>946.56</ele>
        <time>2020-07-18T09:09:51Z</time>
      </trkpt>
      <trkpt lat="40.7345249970" lon="-5.7590045035">
        <ele>949.44</ele>
        <time>2020-07-18T09:10:00Z</time>
      </trkpt>
      <trkpt lat="40.7346784696" lon="-5.7591116242">
        <ele>950.88</ele>
        <time>2020-07-18T09:10:07Z</time>
      </trkpt>
      <trkpt lat="40.7347151823" lon="-5.7591319084">
        <ele>950.88</ele>
        <time>2020-07-18T09:10:10Z</time>
      </trkpt>
      <trkpt lat="40.7347280066" lon="-5.7591435593">
        <ele>950.88</ele>
        <time>2020-07-18T09:10:11Z</time>
      </trkpt>
      <trkpt lat="40.7348647155" lon="-5.7592634205">
        <ele>950.88</ele>
        <time>2020-07-18T09:10:19Z</time>
      </trkpt>
      <trkpt lat="40.7350311801" lon="-5.7593922503">
        <ele>950.40</ele>
        <time>2020-07-18T09:10:27Z</time>
      </trkpt>
      <trkpt lat="40.7352340221" lon="-5.7594785001">
        <ele>950.40</ele>
        <time>2020-07-18T09:10:35Z</time>
      </trkpt>
      <trkpt lat="40.7355043385" lon="-5.7594673522">
        <ele>950.88</ele>
        <time>2020-07-18T09:10:45Z</time>
      </trkpt>
      <trkpt lat="40.7357663568" lon="-5.7594368421">
        <ele>951.36</ele>
        <time>2020-07-18T09:10:55Z</time>
      </trkpt>
      <trkpt lat="40.7360334042" lon="-5.7595006283">
        <ele>951.36</ele>
        <time>2020-07-18T09:11:04Z</time>
      </trkpt>
      <trkpt lat="40.7364040520" lon="-5.7596152928">
        <ele>951.36</ele>
        <time>2020-07-18T09:11:15Z</time>
      </trkpt>
      <trkpt lat="40.7366668247" lon="-5.7596930768">
        <ele>951.36</ele>
        <time>2020-07-18T09:11:23Z</time>
      </trkpt>
      <trkpt lat="40.7369433437" lon="-5.7597777341">
        <ele>951.36</ele>
        <time>2020-07-18T09:11:31Z</time>
      </trkpt>
      <trkpt lat="40.7372331899" lon="-5.7597971801">
        <ele>951.36</ele>
        <time>2020-07-18T09:11:40Z</time>
      </trkpt>
      <trkpt lat="40.7375230361" lon="-5.7596744690">
        <ele>952.32</ele>
        <time>2020-07-18T09:11:49Z</time>
      </trkpt>
      <trkpt lat="40.7378216833" lon="-5.7594983652">
        <ele>952.32</ele>
        <time>2020-07-18T09:11:59Z</time>
      </trkpt>
      <trkpt lat="40.7381070033" lon="-5.7593252789">
        <ele>953.77</ele>
        <time>2020-07-18T09:12:10Z</time>
      </trkpt>
      <trkpt lat="40.7383725420" lon="-5.7591708843">
        <ele>954.73</ele>
        <time>2020-07-18T09:12:20Z</time>
      </trkpt>
      <trkpt lat="40.7386922278" lon="-5.7589798607">
        <ele>955.69</ele>
        <time>2020-07-18T09:12:33Z</time>
      </trkpt>
      <trkpt lat="40.7389145996" lon="-5.7588461693">
        <ele>955.69</ele>
        <time>2020-07-18T09:12:42Z</time>
      </trkpt>
      <trkpt lat="40.7391596865" lon="-5.7587082032">
        <ele>957.13</ele>
        <time>2020-07-18T09:12:52Z</time>
      </trkpt>
      <trkpt lat="40.7393937092" lon="-5.7585583348">
        <ele>958.09</ele>
        <time>2020-07-18T09:13:02Z</time>
      </trkpt>
      <trkpt lat="40.7396187633" lon="-5.7584243920">
        <ele>959.05</ele>
        <time>2020-07-18T09:13:12Z</time>
      </trkpt>
      <trkpt lat="40.7398494333" lon="-5.7582825702">
        <ele>959.53</ele>
        <time>2020-07-18T09:13:22Z</time>
      </trkpt>
      <trkpt lat="40.7398953661" lon="-5.7582502998">
        <ele>960.49</ele>
        <time>2020-07-18T09:13:27Z</time>
      </trkpt>
      <trkpt lat="40.7399014849" lon="-5.7582478691">
        <ele>960.98</ele>
        <time>2020-07-18T09:13:46Z</time>
      </trkpt>
      <trkpt lat="40.7399000600" lon="-5.7582565024">
        <ele>961.94</ele>
        <time>2020-07-18T09:13:59Z</time>
      </trkpt>
      <trkpt lat="40.7399041671" lon="-5.7582442649">
        <ele>961.46</ele>
        <time>2020-07-18T09:14:09Z</time>
      </trkpt>
      <trkpt lat="40.7399028260" lon="-5.7582444325">
        <ele>960.49</ele>
        <time>2020-07-18T09:14:25Z</time>
      </trkpt>
      <trkpt lat="40.7399047539" lon="-5.7582512219">
        <ele>961.46</ele>
        <time>2020-07-18T09:14:36Z</time>
      </trkpt>
      <trkpt lat="40.7399310730" lon="-5.7582464442">
        <ele>961.46</ele>
        <time>2020-07-18T09:14:45Z</time>
      </trkpt>
      <trkpt lat="40.7399433106" lon="-5.7582507189">
        <ele>961.46</ele>
        <time>2020-07-18T09:14:46Z</time>
      </trkpt>
      <trkpt lat="40.7399586495" lon="-5.7582500484">
        <ele>961.46</ele>
        <time>2020-07-18T09:14:47Z</time>
      </trkpt>
      <trkpt lat="40.7399744913" lon="-5.7582417503">
        <ele>961.46</ele>
        <time>2020-07-18T09:14:48Z</time>
      </trkpt>
      <trkpt lat="40.7399887405" lon="-5.7582323626">
        <ele>961.46</ele>
        <time>2020-07-18T09:14:49Z</time>
      </trkpt>
      <trkpt lat="40.7400024869" lon="-5.7582199574">
        <ele>961.46</ele>
        <time>2020-07-18T09:14:50Z</time>
      </trkpt>
      <trkpt lat="40.7400158979" lon="-5.7582029421">
        <ele>961.94</ele>
        <time>2020-07-18T09:14:51Z</time>
      </trkpt>
      <trkpt lat="40.7400306500" lon="-5.7581863459">
        <ele>961.46</ele>
        <time>2020-07-18T09:14:52Z</time>
      </trkpt>
      <trkpt lat="40.7401979528" lon="-5.7580658980">
        <ele>961.94</ele>
        <time>2020-07-18T09:15:00Z</time>
      </trkpt>
      <trkpt lat="40.7404115237" lon="-5.7579008583">
        <ele>962.42</ele>
        <time>2020-07-18T09:15:10Z</time>
      </trkpt>
      <trkpt lat="40.7406176347" lon="-5.7577346452">
        <ele>962.90</ele>
        <time>2020-07-18T09:15:20Z</time>
      </trkpt>
      <trkpt lat="40.7408198062" lon="-5.7575633191">
        <ele>963.86</ele>
        <time>2020-07-18T09:15:30Z</time>
      </trkpt>
      <trkpt lat="40.7410284318" lon="-5.7573836111">
        <ele>964.82</ele>
        <time>2020-07-18T09:15:40Z</time>
      </trkpt>
      <trkpt lat="40.7411997579" lon="-5.7572318148">
        <ele>965.30</ele>
        <time>2020-07-18T09:15:48Z</time>
      </trkpt>
      <trkpt lat="40.7413488720" lon="-5.7571071759">
        <ele>966.26</ele>
        <time>2020-07-18T09:15:56Z</time>
      </trkpt>
      <trkpt lat="40.7415838167" lon="-5.7568974607">
        <ele>967.22</ele>
        <time>2020-07-18T09:16:07Z</time>
      </trkpt>
      <trkpt lat="40.7418113016" lon="-5.7566910982">
        <ele>967.22</ele>
        <time>2020-07-18T09:16:18Z</time>
      </trkpt>
      <trkpt lat="40.7419981342" lon="-5.7565240469">
        <ele>968.18</ele>
        <time>2020-07-18T09:16:27Z</time>
      </trkpt>
      <trkpt lat="40.7421959471" lon="-5.7563466858">
        <ele>968.67</ele>
        <time>2020-07-18T09:16:37Z</time>
      </trkpt>
      <trkpt lat="40.7424247731" lon="-5.7561451849">
        <ele>969.63</ele>
        <time>2020-07-18T09:16:49Z</time>
      </trkpt>
      <trkpt lat="40.7426390145" lon="-5.7559442706">
        <ele>970.11</ele>
        <time>2020-07-18T09:17:00Z</time>
      </trkpt>
      <trkpt lat="40.7428154536" lon="-5.7557844277">
        <ele>971.07</ele>
        <time>2020-07-18T09:17:09Z</time>
      </trkpt>
      <trkpt lat="40.7429845165" lon="-5.7556382474">
        <ele>972.99</ele>
        <time>2020-07-18T09:17:18Z</time>
      </trkpt>
      <trkpt lat="40.7431576867" lon="-5.7554770634">
        <ele>973.95</ele>
        <time>2020-07-18T09:17:27Z</time>
      </trkpt>
      <trkpt lat="40.7433170266" lon="-5.7553346548">
        <ele>974.91</ele>
        <time>2020-07-18T09:17:35Z</time>
      </trkpt>
      <trkpt lat="40.7435030211" lon="-5.7551640831">
        <ele>976.36</ele>
        <time>2020-07-18T09:17:45Z</time>
      </trkpt>
      <trkpt lat="40.7436498720" lon="-5.7550364267">
        <ele>977.32</ele>
        <time>2020-07-18T09:17:53Z</time>
      </trkpt>
      <trkpt lat="40.7438116428" lon="-5.7548877317">
        <ele>978.28</ele>
        <time>2020-07-18T09:18:03Z</time>
      </trkpt>
      <trkpt lat="40.7440351043" lon="-5.7546925172">
        <ele>978.76</ele>
        <time>2020-07-18T09:18:16Z</time>
      </trkpt>
      <trkpt lat="40.7442501001" lon="-5.7545051817">
        <ele>980.20</ele>
        <time>2020-07-18T09:18:29Z</time>
      </trkpt>
      <trkpt lat="40.7444600668" lon="-5.7543259766">
        <ele>981.16</ele>
        <time>2020-07-18T09:18:42Z</time>
      </trkpt>
      <trkpt lat="40.7446428761" lon="-5.7541694865">
        <ele>982.60</ele>
        <time>2020-07-18T09:18:53Z</time>
      </trkpt>
      <trkpt lat="40.7448162138" lon="-5.7540111523">
        <ele>983.57</ele>
        <time>2020-07-18T09:19:04Z</time>
      </trkpt>
      <trkpt lat="40.7449385896" lon="-5.7539109886">
        <ele>984.53</ele>
        <time>2020-07-18T09:19:13Z</time>
      </trkpt>
      <trkpt lat="40.7450206485" lon="-5.7538368925">
        <ele>985.49</ele>
        <time>2020-07-18T09:19:21Z</time>
      </trkpt>
      <trkpt lat="40.7451875322" lon="-5.7536883652">
        <ele>987.41</ele>
        <time>2020-07-18T09:19:31Z</time>
      </trkpt>
      <trkpt lat="40.7453337125" lon="-5.7535421848">
        <ele>988.85</ele>
        <time>2020-07-18T09:19:41Z</time>
      </trkpt>
      <trkpt lat="40.7454293501" lon="-5.7534620538">
        <ele>988.85</ele>
        <time>2020-07-18T09:19:48Z</time>
      </trkpt>
      <trkpt lat="40.7455560006" lon="-5.7533613872">
        <ele>989.33</ele>
        <time>2020-07-18T09:19:57Z</time>
      </trkpt>
      <trkpt lat="40.7457041927" lon="-5.7532293722">
        <ele>991.74</ele>
        <time>2020-07-18T09:20:08Z</time>
      </trkpt>
      <trkpt lat="40.7458846550" lon="-5.7530632429">
        <ele>993.18</ele>
        <time>2020-07-18T09:20:21Z</time>
      </trkpt>
      <trkpt lat="40.7459992357" lon="-5.7529614028">
        <ele>994.62</ele>
        <time>2020-07-18T09:20:29Z</time>
      </trkpt>
      <trkpt lat="40.7461635210" lon="-5.7528154738">
        <ele>995.10</ele>
        <time>2020-07-18T09:20:40Z</time>
      </trkpt>
      <trkpt lat="40.7462709770" lon="-5.7527149748">
        <ele>995.58</ele>
        <time>2020-07-18T09:20:46Z</time>
      </trkpt>
      <trkpt lat="40.7465469930" lon="-5.7524742465">
        <ele>996.54</ele>
        <time>2020-07-18T09:20:58Z</time>
      </trkpt>
      <trkpt lat="40.7468028925" lon="-5.7522878330">
        <ele>996.54</ele>
        <time>2020-07-18T09:21:09Z</time>
      </trkpt>
      <trkpt lat="40.7470447943" lon="-5.7521898486">
        <ele>996.54</ele>
        <time>2020-07-18T09:21:18Z</time>
      </trkpt>
      <trkpt lat="40.7472351473" lon="-5.7521694805">
        <ele>996.06</ele>
        <time>2020-07-18T09:21:26Z</time>
      </trkpt>
      <trkpt lat="40.7474707626" lon="-5.7521578297">
        <ele>995.58</ele>
        <time>2020-07-18T09:21:34Z</time>
      </trkpt>
      <trkpt lat="40.7476250734" lon="-5.7521641999">
        <ele>995.58</ele>
        <time>2020-07-18T09:21:38Z</time>
      </trkpt>
      <trkpt lat="40.7479831483" lon="-5.7521419041">
        <ele>994.62</ele>
        <time>2020-07-18T09:21:46Z</time>
      </trkpt>
      <trkpt lat="40.7483993098" lon="-5.7521288283">
        <ele>993.66</ele>
        <time>2020-07-18T09:21:54Z</time>
      </trkpt>
      <trkpt lat="40.7488808502" lon="-5.7521302532">
        <ele>991.74</ele>
        <time>2020-07-18T09:22:02Z</time>
      </trkpt>
      <trkpt lat="40.7490118593" lon="-5.7521345280">
        <ele>991.26</ele>
        <time>2020-07-18T09:22:04Z</time>
      </trkpt>
      <trkpt lat="40.7495586108" lon="-5.7521207817">
        <ele>989.81</ele>
        <time>2020-07-18T09:22:12Z</time>
      </trkpt>
      <trkpt lat="40.7500683982" lon="-5.7520851586">
        <ele>989.81</ele>
        <time>2020-07-18T09:22:20Z</time>
      </trkpt>
      <trkpt lat="40.7503928617" lon="-5.7520183548">
        <ele>989.81</ele>
        <time>2020-07-18T09:22:27Z</time>
      </trkpt>
      <trkpt lat="40.7505998109" lon="-5.7519450132">
        <ele>989.81</ele>
        <time>2020-07-18T09:22:34Z</time>
      </trkpt>
      <trkpt lat="40.7509269565" lon="-5.7518280018">
        <ele>990.78</ele>
        <time>2020-07-18T09:22:45Z</time>
      </trkpt>
      <trkpt lat="40.7513523381" lon="-5.7516814861">
        <ele>991.26</ele>
        <time>2020-07-18T09:22:59Z</time>
      </trkpt>
      <trkpt lat="40.7517156936" lon="-5.7515607867">
        <ele>992.70</ele>
        <time>2020-07-18T09:23:11Z</time>
      </trkpt>
      <trkpt lat="40.7519317791" lon="-5.7514889538">
        <ele>993.18</ele>
        <time>2020-07-18T09:23:19Z</time>
      </trkpt>
      <trkpt lat="40.7522143330" lon="-5.7513885386">
        <ele>994.14</ele>
        <time>2020-07-18T09:23:30Z</time>
      </trkpt>
      <trkpt lat="40.7522262353" lon="-5.7513688412">
        <ele>995.10</ele>
        <time>2020-07-18T09:23:38Z</time>
      </trkpt>
      <trkpt lat="40.7522197813" lon="-5.7513692603">
        <ele>997.51</ele>
        <time>2020-07-18T09:23:51Z</time>
      </trkpt>
      <trkpt lat="40.7522133272" lon="-5.7513749599">
        <ele>996.06</ele>
        <time>2020-07-18T09:23:59Z</time>
      </trkpt>
      <trkpt lat="40.7522253972" lon="-5.7513747923">
        <ele>995.10</ele>
        <time>2020-07-18T09:24:15Z</time>
      </trkpt>
      <trkpt lat="40.7522215415" lon="-5.7513776422">
        <ele>993.18</ele>
        <time>2020-07-18T09:24:27Z</time>
      </trkpt>
      <trkpt lat="40.7522261515" lon="-5.7513747085">
        <ele>993.18</ele>
        <time>2020-07-18T09:24:44Z</time>
      </trkpt>
      <trkpt lat="40.7522160932" lon="-5.7513800729">
        <ele>994.62</ele>
        <time>2020-07-18T09:24:56Z</time>
      </trkpt>
      <trkpt lat="40.7522089686" lon="-5.7513748761">
        <ele>996.06</ele>
        <time>2020-07-18T09:25:11Z</time>
      </trkpt>
      <trkpt lat="40.7522044424" lon="-5.7513779774">
        <ele>996.06</ele>
        <time>2020-07-18T09:25:31Z</time>
      </trkpt>
      <trkpt lat="40.7522126567" lon="-5.7513750438">
        <ele>996.06</ele>
        <time>2020-07-18T09:25:41Z</time>
      </trkpt>
      <trkpt lat="40.7522549853" lon="-5.7513605431">
        <ele>995.58</ele>
        <time>2020-07-18T09:25:48Z</time>
      </trkpt>
      <trkpt lat="40.7524115592" lon="-5.7513194717">
        <ele>996.06</ele>
        <time>2020-07-18T09:25:55Z</time>
      </trkpt>
      <trkpt lat="40.7527526189" lon="-5.7512095012">
        <ele>995.58</ele>
        <time>2020-07-18T09:26:07Z</time>
      </trkpt>
      <trkpt lat="40.7530894876" lon="-5.7510981895">
        <ele>996.06</ele>
        <time>2020-07-18T09:26:18Z</time>
      </trkpt>
      <trkpt lat="40.7533981092" lon="-5.7509905659">
        <ele>997.02</ele>
        <time>2020-07-18T09:26:29Z</time>
      </trkpt>
      <trkpt lat="40.7536756340" lon="-5.7508967724">
        <ele>998.95</ele>
        <time>2020-07-18T09:26:39Z</time>
      </trkpt>
      <trkpt lat="40.7539271750" lon="-5.7508102711">
        <ele>1000.39</ele>
        <time>2020-07-18T09:26:48Z</time>
      </trkpt>
      <trkpt lat="40.7543093897" lon="-5.7506759930">
        <ele>1002.31</ele>
        <time>2020-07-18T09:27:01Z</time>
      </trkpt>
      <trkpt lat="40.7547133137" lon="-5.7505345065">
        <ele>1003.75</ele>
        <time>2020-07-18T09:27:15Z</time>
      </trkpt>
      <trkpt lat="40.7549413014" lon="-5.7504614163">
        <ele>1004.72</ele>
        <time>2020-07-18T09:27:24Z</time>
      </trkpt>
      <trkpt lat="40.7552671898" lon="-5.7503538765">
        <ele>1005.68</ele>
        <time>2020-07-18T09:27:35Z</time>
      </trkpt>
      <trkpt lat="40.7555921562" lon="-5.7502428163">
        <ele>1006.64</ele>
        <time>2020-07-18T09:27:46Z</time>
      </trkpt>
      <trkpt lat="40.7558520790" lon="-5.7501524594">
        <ele>1006.16</ele>
        <time>2020-07-18T09:27:55Z</time>
      </trkpt>
      <trkpt lat="40.7561871037" lon="-5.7500482723">
        <ele>1005.68</ele>
        <time>2020-07-18T09:28:04Z</time>
      </trkpt>
      <trkpt lat="40.7566539757" lon="-5.7498850767">
        <ele>1004.23</ele>
        <time>2020-07-18T09:28:13Z</time>
      </trkpt>
      <trkpt lat="40.7570242044" lon="-5.7497247308">
        <ele>1003.75</ele>
        <time>2020-07-18T09:28:20Z</time>
      </trkpt>
      <trkpt lat="40.7570744120" lon="-5.7496874314">
        <ele>1003.75</ele>
        <time>2020-07-18T09:28:21Z</time>
      </trkpt>
      <trkpt lat="40.7571184170" lon="-5.7496449351">
        <ele>1003.75</ele>
        <time>2020-07-18T09:28:22Z</time>
      </trkpt>
      <trkpt lat="40.7571597397" lon="-5.7495960686">
        <ele>1003.75</ele>
        <time>2020-07-18T09:28:23Z</time>
      </trkpt>
      <trkpt lat="40.7572024036" lon="-5.7495378144">
        <ele>1003.27</ele>
        <time>2020-07-18T09:28:24Z</time>
      </trkpt>
      <trkpt lat="40.7572412118" lon="-5.7494783867">
        <ele>1002.79</ele>
        <time>2020-07-18T09:28:25Z</time>
      </trkpt>
      <trkpt lat="40.7575488277" lon="-5.7488903962">
        <ele>999.43</ele>
        <time>2020-07-18T09:28:33Z</time>
      </trkpt>
      <trkpt lat="40.7580158673" lon="-5.7479689736">
        <ele>995.58</ele>
        <time>2020-07-18T09:28:44Z</time>
      </trkpt>
      <trkpt lat="40.7585877646" lon="-5.7469281089">
        <ele>991.74</ele>
        <time>2020-07-18T09:28:56Z</time>
      </trkpt>
      <trkpt lat="40.7590702269" lon="-5.7464533579">
        <ele>988.85</ele>
        <time>2020-07-18T09:29:03Z</time>
      </trkpt>
      <trkpt lat="40.7599664200" lon="-5.7456693146">
        <ele>985.97</ele>
        <time>2020-07-18T09:29:15Z</time>
      </trkpt>
      <trkpt lat="40.7605199609" lon="-5.7451801468">
        <ele>985.49</ele>
        <time>2020-07-18T09:29:24Z</time>
      </trkpt>
      <trkpt lat="40.7610134035" lon="-5.7447476406">
        <ele>985.49</ele>
        <time>2020-07-18T09:29:34Z</time>
      </trkpt>
      <trkpt lat="40.7614117116" lon="-5.7443982828">
        <ele>985.01</ele>
        <time>2020-07-18T09:29:44Z</time>
      </trkpt>
      <trkpt lat="40.7617908251" lon="-5.7440615818">
        <ele>985.01</ele>
        <time>2020-07-18T09:29:55Z</time>
      </trkpt>
      <trkpt lat="40.7621709444" lon="-5.7437216118">
        <ele>985.97</ele>
        <time>2020-07-18T09:30:06Z</time>
      </trkpt>
      <trkpt lat="40.7624982577" lon="-5.7434285805">
        <ele>986.45</ele>
        <time>2020-07-18T09:30:16Z</time>
      </trkpt>
      <trkpt lat="40.7628540695" lon="-5.7431156002">
        <ele>987.89</ele>
        <time>2020-07-18T09:30:27Z</time>
      </trkpt>
      <trkpt lat="40.7632157486" lon="-5.7427990995">
        <ele>988.85</ele>
        <time>2020-07-18T09:30:39Z</time>
      </trkpt>
      <trkpt lat="40.7635474205" lon="-5.7425073255">
        <ele>989.33</ele>
        <time>2020-07-18T09:30:50Z</time>
      </trkpt>
      <trkpt lat="40.7639256120" lon="-5.7421761565">
        <ele>989.81</ele>
        <time>2020-07-18T09:31:03Z</time>
      </trkpt>
      <trkpt lat="40.7643718645" lon="-5.7417837996">
        <ele>990.30</ele>
        <time>2020-07-18T09:31:18Z</time>
      </trkpt>
      <trkpt lat="40.7646685839" lon="-5.7415258046">
        <ele>990.30</ele>
        <time>2020-07-18T09:31:28Z</time>
      </trkpt>
      <trkpt lat="40.7649680693" lon="-5.7412651274">
        <ele>990.78</ele>
        <time>2020-07-18T09:31:38Z</time>
      </trkpt>
      <trkpt lat="40.7652476057" lon="-5.7410186157">
        <ele>990.78</ele>
        <time>2020-07-18T09:31:48Z</time>
      </trkpt>
      <trkpt lat="40.7655743323" lon="-5.7407235727">
        <ele>990.78</ele>
        <time>2020-07-18T09:31:59Z</time>
      </trkpt>
      <trkpt lat="40.7659174036" lon="-5.7404217403">
        <ele>990.30</ele>
        <time>2020-07-18T09:32:10Z</time>
      </trkpt>
      <trkpt lat="40.7662256062" lon="-5.7401410304">
        <ele>989.81</ele>
        <time>2020-07-18T09:32:20Z</time>
      </trkpt>
      <trkpt lat="40.7665221579" lon="-5.7398728095">
        <ele>989.81</ele>
        <time>2020-07-18T09:32:30Z</time>
      </trkpt>
      <trkpt lat="40.7668617927" lon="-5.7395827956">
        <ele>989.33</ele>
        <time>2020-07-18T09:32:41Z</time>
      </trkpt>
      <trkpt lat="40.7671799697" lon="-5.7392965537">
        <ele>989.33</ele>
        <time>2020-07-18T09:32:51Z</time>
      </trkpt>
      <trkpt lat="40.7674451731" lon="-5.7390625309">
        <ele>989.33</ele>
        <time>2020-07-18T09:33:00Z</time>
      </trkpt>
      <trkpt lat="40.7677579857" lon="-5.7387903705">
        <ele>989.33</ele>
        <time>2020-07-18T09:33:09Z</time>
      </trkpt>
      <trkpt lat="40.7680799346" lon="-5.7385097444">
        <ele>988.37</ele>
        <time>2020-07-18T09:33:18Z</time>
      </trkpt>
      <trkpt lat="40.7683924958" lon="-5.7382311299">
        <ele>988.37</ele>
        <time>2020-07-18T09:33:27Z</time>
      </trkpt>
      <trkpt lat="40.7687321305" lon="-5.7379283756">
        <ele>988.37</ele>
        <time>2020-07-18T09:33:37Z</time>
      </trkpt>
      <trkpt lat="40.7691031974" lon="-5.7375996374">
        <ele>989.33</ele>
        <time>2020-07-18T09:33:48Z</time>
      </trkpt>
      <trkpt lat="40.7693947200" lon="-5.7373408880">
        <ele>990.30</ele>
        <time>2020-07-18T09:33:58Z</time>
      </trkpt>
      <trkpt lat="40.7697572373" lon="-5.7370242197">
        <ele>991.26</ele>
        <time>2020-07-18T09:34:11Z</time>
      </trkpt>
      <trkpt lat="40.7699137274" lon="-5.7368810568">
        <ele>991.74</ele>
        <time>2020-07-18T09:34:19Z</time>
      </trkpt>
      <trkpt lat="40.7699304912" lon="-5.7368644606">
        <ele>991.74</ele>
        <time>2020-07-18T09:34:25Z</time>
      </trkpt>
      <trkpt lat="40.7699289825" lon="-5.7368625328">
        <ele>992.22</ele>
        <time>2020-07-18T09:34:44Z</time>
      </trkpt>
      <trkpt lat="40.7699288987" lon="-5.7368604373">
        <ele>991.74</ele>
        <time>2020-07-18T09:34:59Z</time>
      </trkpt>
      <trkpt lat="40.7699342631" lon="-5.7368531451">
        <ele>990.78</ele>
        <time>2020-07-18T09:35:13Z</time>
      </trkpt>
      <trkpt lat="40.7699410524" lon="-5.7368528936">
        <ele>990.78</ele>
        <time>2020-07-18T09:35:15Z</time>
      </trkpt>
      <trkpt lat="40.7699524518" lon="-5.7368488703">
        <ele>991.26</ele>
        <time>2020-07-18T09:35:16Z</time>
      </trkpt>
      <trkpt lat="40.7699666172" lon="-5.7368388120">
        <ele>991.26</ele>
        <time>2020-07-18T09:35:17Z</time>
      </trkpt>
      <trkpt lat="40.7699816208" lon="-5.7368264068">
        <ele>991.26</ele>
        <time>2020-07-18T09:35:18Z</time>
      </trkpt>
      <trkpt lat="40.7699948642" lon="-5.7368147559">
        <ele>991.26</ele>
        <time>2020-07-18T09:35:19Z</time>
      </trkpt>
      <trkpt lat="40.7701039128" lon="-5.7367137540">
        <ele>991.74</ele>
        <time>2020-07-18T09:35:25Z</time>
      </trkpt>
      <trkpt lat="40.7703534421" lon="-5.7364964113">
        <ele>993.18</ele>
        <time>2020-07-18T09:35:36Z</time>
      </trkpt>
      <trkpt lat="40.7705321442" lon="-5.7363406755">
        <ele>993.66</ele>
        <time>2020-07-18T09:35:44Z</time>
      </trkpt>
      <trkpt lat="40.7707970124" lon="-5.7361077424">
        <ele>994.62</ele>
        <time>2020-07-18T09:35:55Z</time>
      </trkpt>
      <trkpt lat="40.7709980942" lon="-5.7359325606">
        <ele>994.62</ele>
        <time>2020-07-18T09:36:03Z</time>
      </trkpt>
      <trkpt lat="40.7712154370" lon="-5.7357372623">
        <ele>994.62</ele>
        <time>2020-07-18T09:36:12Z</time>
      </trkpt>
      <trkpt lat="40.7714729290" lon="-5.7355133817">
        <ele>995.10</ele>
        <time>2020-07-18T09:36:23Z</time>
      </trkpt>
      <trkpt lat="40.7717238832" lon="-5.7352952007">
        <ele>996.54</ele>
        <time>2020-07-18T09:36:34Z</time>
      </trkpt>
      <trkpt lat="40.7719308324" lon="-5.7351061050">
        <ele>997.51</ele>
        <time>2020-07-18T09:36:43Z</time>
      </trkpt>
      <trkpt lat="40.7721511088" lon="-5.7349082083">
        <ele>997.51</ele>
        <time>2020-07-18T09:36:52Z</time>
      </trkpt>
      <trkpt lat="40.7723652665" lon="-5.7347243931">
        <ele>997.02</ele>
        <time>2020-07-18T09:37:01Z</time>
      </trkpt>
      <trkpt lat="40.7726611476" lon="-5.7344637159">
        <ele>997.02</ele>
        <time>2020-07-18T09:37:13Z</time>
      </trkpt>
      <trkpt lat="40.7728792448" lon="-5.7342712674">
        <ele>996.54</ele>
        <time>2020-07-18T09:37:22Z</time>
      </trkpt>
      <trkpt lat="40.7730724476" lon="-5.7340998575">
        <ele>996.54</ele>
        <time>2020-07-18T09:37:31Z</time>
      </trkpt>
      <trkpt lat="40.7732633874" lon="-5.7339249272">
        <ele>997.02</ele>
        <time>2020-07-18T09:37:39Z</time>
      </trkpt>
      <trkpt lat="40.7735082228" lon="-5.7337051537">
        <ele>997.02</ele>
        <time>2020-07-18T09:37:49Z</time>
      </trkpt>
      <trkpt lat="40.7737138309" lon="-5.7335248590">
        <ele>997.51</ele>
        <time>2020-07-18T09:37:57Z</time>
      </trkpt>
      <trkpt lat="40.7739004120" lon="-5.7333568856">
        <ele>998.47</ele>
        <time>2020-07-18T09:38:05Z</time>
      </trkpt>
      <trkpt lat="40.7740985602" lon="-5.7331865653">
        <ele>998.95</ele>
        <time>2020-07-18T09:38:14Z</time>
      </trkpt>
      <trkpt lat="40.7742942777" lon="-5.7330106292">
        <ele>999.91</ele>
        <time>2020-07-18T09:38:23Z</time>
      </trkpt>
      <trkpt lat="40.7745089382" lon="-5.7328160852">
        <ele>1000.87</ele>
        <time>2020-07-18T09:38:33Z</time>
      </trkpt>
      <trkpt lat="40.7746893167" lon="-5.7326522190">
        <ele>1001.83</ele>
        <time>2020-07-18T09:38:42Z</time>
      </trkpt>
      <trkpt lat="40.7749363314" lon="-5.7324381452">
        <ele>1003.75</ele>
        <time>2020-07-18T09:38:54Z</time>
      </trkpt>
      <trkpt lat="40.7751414366" lon="-5.7322610356">
        <ele>1004.23</ele>
        <time>2020-07-18T09:39:04Z</time>
      </trkpt>
      <trkpt lat="40.7753280178" lon="-5.7320988458">
        <ele>1005.20</ele>
        <time>2020-07-18T09:39:13Z</time>
      </trkpt>
      <trkpt lat="40.7755621243" lon="-5.7318938244">
        <ele>1006.16</ele>
        <time>2020-07-18T09:39:24Z</time>
      </trkpt>
      <trkpt lat="40.7757568359" lon="-5.7317185588">
        <ele>1006.64</ele>
        <time>2020-07-18T09:39:33Z</time>
      </trkpt>
      <trkpt lat="40.7759903558" lon="-5.7315140404">
        <ele>1007.12</ele>
        <time>2020-07-18T09:39:43Z</time>
      </trkpt>
      <trkpt lat="40.7761828881" lon="-5.7313453127">
        <ele>1007.60</ele>
        <time>2020-07-18T09:39:51Z</time>
      </trkpt>
      <trkpt lat="40.7764070202" lon="-5.7311473321">
        <ele>1008.56</ele>
        <time>2020-07-18T09:40:00Z</time>
      </trkpt>
      <trkpt lat="40.7766713016" lon="-5.7309154049">
        <ele>1008.56</ele>
        <time>2020-07-18T09:40:09Z</time>
      </trkpt>
      <trkpt lat="40.7768883929" lon="-5.7307273149">
        <ele>1008.56</ele>
        <time>2020-07-18T09:40:17Z</time>
      </trkpt>
      <trkpt lat="40.7771682646" lon="-5.7304850779">
        <ele>1008.56</ele>
        <time>2020-07-18T09:40:26Z</time>
      </trkpt>
      <trkpt lat="40.7774300314" lon="-5.7302529830">
        <ele>1008.56</ele>
        <time>2020-07-18T09:40:34Z</time>
      </trkpt>
      <trkpt lat="40.7777202129" lon="-5.7299989276">
        <ele>1008.56</ele>
        <time>2020-07-18T09:40:43Z</time>
      </trkpt>
      <trkpt lat="40.7780827302" lon="-5.7296791580">
        <ele>1008.56</ele>
        <time>2020-07-18T09:40:54Z</time>
      </trkpt>
      <trkpt lat="40.7783325110" lon="-5.7294531818">
        <ele>1008.56</ele>
        <time>2020-07-18T09:41:02Z</time>
      </trkpt>
      <trkpt lat="40.7786152326" lon="-5.7292009704">
        <ele>1009.04</ele>
        <time>2020-07-18T09:41:11Z</time>
      </trkpt>
      <trkpt lat="40.7789169811" lon="-5.7289288938">
        <ele>1009.04</ele>
        <time>2020-07-18T09:41:21Z</time>
      </trkpt>
      <trkpt lat="40.7790787518" lon="-5.7287855633">
        <ele>1009.52</ele>
        <time>2020-07-18T09:41:28Z</time>
      </trkpt>
      <trkpt lat="40.7792795822" lon="-5.7286468428">
        <ele>1009.52</ele>
        <time>2020-07-18T09:41:34Z</time>
      </trkpt>
      <trkpt lat="40.7793183066" lon="-5.7286284026">
        <ele>1009.52</ele>
        <time>2020-07-18T09:41:35Z</time>
      </trkpt>
      <trkpt lat="40.7797288522" lon="-5.7284522988">
        <ele>1010.00</ele>
        <time>2020-07-18T09:41:46Z</time>
      </trkpt>
      <trkpt lat="40.7799629588" lon="-5.7283666357">
        <ele>1009.52</ele>
        <time>2020-07-18T09:41:54Z</time>
      </trkpt>
      <trkpt lat="40.7801818103" lon="-5.7282813080">
        <ele>1009.52</ele>
        <time>2020-07-18T09:42:01Z</time>
      </trkpt>
      <trkpt lat="40.7804978918" lon="-5.7281782106">
        <ele>1008.56</ele>
        <time>2020-07-18T09:42:09Z</time>
      </trkpt>
      <trkpt lat="40.7807185035" lon="-5.7281252369">
        <ele>1007.60</ele>
        <time>2020-07-18T09:42:14Z</time>
      </trkpt>
      <trkpt lat="40.7811398618" lon="-5.7281088922">
        <ele>1005.68</ele>
        <time>2020-07-18T09:42:22Z</time>
      </trkpt>
      <trkpt lat="40.7816944923" lon="-5.7281161007">
        <ele>1004.72</ele>
        <time>2020-07-18T09:42:33Z</time>
      </trkpt>
      <trkpt lat="40.7821446843" lon="-5.7281241473">
        <ele>1004.72</ele>
        <time>2020-07-18T09:42:43Z</time>
      </trkpt>
      <trkpt lat="40.7825680543" lon="-5.7281176094">
        <ele>1004.72</ele>
        <time>2020-07-18T09:42:53Z</time>
      </trkpt>
      <trkpt lat="40.7829449046" lon="-5.7281135023">
        <ele>1004.72</ele>
        <time>2020-07-18T09:43:02Z</time>
      </trkpt>
      <trkpt lat="40.7833483256" lon="-5.7281098980">
        <ele>1003.27</ele>
        <time>2020-07-18T09:43:11Z</time>
      </trkpt>
      <trkpt lat="40.7839031238" lon="-5.7281083893">
        <ele>1001.35</ele>
        <time>2020-07-18T09:43:23Z</time>
      </trkpt>
      <trkpt lat="40.7843509689" lon="-5.7281082217">
        <ele>999.91</ele>
        <time>2020-07-18T09:43:32Z</time>
      </trkpt>
      <trkpt lat="40.7850430626" lon="-5.7281163521">
        <ele>998.95</ele>
        <time>2020-07-18T09:43:45Z</time>
      </trkpt>
      <trkpt lat="40.7855892275" lon="-5.7281125803">
        <ele>997.99</ele>
        <time>2020-07-18T09:43:56Z</time>
      </trkpt>
      <trkpt lat="40.7861425169" lon="-5.7281124964">
        <ele>997.02</ele>
        <time>2020-07-18T09:44:08Z</time>
      </trkpt>
      <trkpt lat="40.7865719218" lon="-5.7281132508">
        <ele>995.58</ele>
        <time>2020-07-18T09:44:17Z</time>
      </trkpt>
      <trkpt lat="40.7870682981" lon="-5.7281132508">
        <ele>994.14</ele>
        <time>2020-07-18T09:44:26Z</time>
      </trkpt>
      <trkpt lat="40.7877298817" lon="-5.7281112392">
        <ele>992.22</ele>
        <time>2020-07-18T09:44:37Z</time>
      </trkpt>
      <trkpt lat="40.7884586044" lon="-5.7281138375">
        <ele>990.30</ele>
        <time>2020-07-18T09:44:49Z</time>
      </trkpt>
      <trkpt lat="40.7891080342" lon="-5.7281081378">
        <ele>988.85</ele>
        <time>2020-07-18T09:45:00Z</time>
      </trkpt>
      <trkpt lat="40.7896101940" lon="-5.7281082217">
        <ele>988.37</ele>
        <time>2020-07-18T09:45:10Z</time>
      </trkpt>
      <trkpt lat="40.7896965276" lon="-5.7281119097">
        <ele>988.37</ele>
        <time>2020-07-18T09:45:12Z</time>
      </trkpt>
      <trkpt lat="40.7897377666" lon="-5.7281073835">
        <ele>988.37</ele>
        <time>2020-07-18T09:45:13Z</time>
      </trkpt>
      <trkpt lat="40.7900590450" lon="-5.7280948106">
        <ele>989.33</ele>
        <time>2020-07-18T09:45:21Z</time>
      </trkpt>
      <trkpt lat="40.7901801635" lon="-5.7280938048">
        <ele>989.33</ele>
        <time>2020-07-18T09:45:24Z</time>
      </trkpt>
      <trkpt lat="40.7902196422" lon="-5.7280951459">
        <ele>989.33</ele>
        <time>2020-07-18T09:45:25Z</time>
      </trkpt>
      <trkpt lat="40.7906851731" lon="-5.7280945592">
        <ele>990.78</ele>
        <time>2020-07-18T09:45:37Z</time>
      </trkpt>
      <trkpt lat="40.7908487041" lon="-5.7280919608">
        <ele>990.78</ele>
        <time>2020-07-18T09:45:41Z</time>
      </trkpt>
      <trkpt lat="40.7913189288" lon="-5.7280971576">
        <ele>991.74</ele>
        <time>2020-07-18T09:45:53Z</time>
      </trkpt>
      <trkpt lat="40.7916364353" lon="-5.7280974928">
        <ele>992.70</ele>
        <time>2020-07-18T09:46:02Z</time>
      </trkpt>
      <trkpt lat="40.7919139601" lon="-5.7280892786">
        <ele>993.66</ele>
        <time>2020-07-18T09:46:12Z</time>
      </trkpt>
      <trkpt lat="40.7922030520" lon="-5.7280894462">
        <ele>995.10</ele>
        <time>2020-07-18T09:46:23Z</time>
      </trkpt>
      <trkpt lat="40.7924124319" lon="-5.7280881889">
        <ele>996.06</ele>
        <time>2020-07-18T09:46:31Z</time>
      </trkpt>
      <trkpt lat="40.7927317824" lon="-5.7280870993">
        <ele>997.02</ele>
        <time>2020-07-18T09:46:43Z</time>
      </trkpt>
      <trkpt lat="40.7931393944" lon="-5.7280918770">
        <ele>997.51</ele>
        <time>2020-07-18T09:46:58Z</time>
      </trkpt>
      <trkpt lat="40.7935120538" lon="-5.7280806452">
        <ele>997.99</ele>
        <time>2020-07-18T09:47:11Z</time>
      </trkpt>
      <trkpt lat="40.7938631717" lon="-5.7280850876">
        <ele>998.47</ele>
        <time>2020-07-18T09:47:22Z</time>
      </trkpt>
      <trkpt lat="40.7941540238" lon="-5.7280783821">
        <ele>998.47</ele>
        <time>2020-07-18T09:47:31Z</time>
      </trkpt>
      <trkpt lat="40.7945224084" lon="-5.7280709222">
        <ele>997.99</ele>
        <time>2020-07-18T09:47:42Z</time>
      </trkpt>
      <trkpt lat="40.7948964089" lon="-5.7280692458">
        <ele>997.02</ele>
        <time>2020-07-18T09:47:52Z</time>
      </trkpt>
      <trkpt lat="40.7952721696" lon="-5.7280672342">
        <ele>996.06</ele>
        <time>2020-07-18T09:48:00Z</time>
      </trkpt>
      <trkpt lat="40.7957832143" lon="-5.7280671503">
        <ele>993.66</ele>
        <time>2020-07-18T09:48:09Z</time>
      </trkpt>
      <trkpt lat="40.7963238470" lon="-5.7280626241">
        <ele>990.78</ele>
        <time>2020-07-18T09:48:17Z</time>
      </trkpt>
      <trkpt lat="40.7969862688" lon="-5.7280602772">
        <ele>986.93</ele>
        <time>2020-07-18T09:48:25Z</time>
      </trkpt>
      <trkpt lat="40.7980750781" lon="-5.7280489616">
        <ele>982.60</ele>
        <time>2020-07-18T09:48:37Z</time>
      </trkpt>
      <trkpt lat="40.7988623902" lon="-5.7280454412">
        <ele>980.68</ele>
        <time>2020-07-18T09:48:46Z</time>
      </trkpt>
      <trkpt lat="40.7997185178" lon="-5.7280366402">
        <ele>978.28</ele>
        <time>2020-07-18T09:48:56Z</time>
      </trkpt>
      <trkpt lat="40.8006000426" lon="-5.7280331198">
        <ele>975.88</ele>
        <time>2020-07-18T09:49:07Z</time>
      </trkpt>
      <trkpt lat="40.8014901169" lon="-5.7280283421">
        <ele>973.95</ele>
        <time>2020-07-18T09:49:19Z</time>
      </trkpt>
      <trkpt lat="40.8021327574" lon="-5.7280242350">
        <ele>972.99</ele>
        <time>2020-07-18T09:49:29Z</time>
      </trkpt>
      <trkpt lat="40.8026145492" lon="-5.7280246541">
        <ele>972.51</ele>
        <time>2020-07-18T09:49:38Z</time>
      </trkpt>
      <trkpt lat="40.8027141262" lon="-5.7280267496">
        <ele>972.03</ele>
        <time>2020-07-18T09:49:40Z</time>
      </trkpt>
      <trkpt lat="40.8031423576" lon="-5.7280136738">
        <ele>971.07</ele>
        <time>2020-07-18T09:49:49Z</time>
      </trkpt>
      <trkpt lat="40.8035766240" lon="-5.7280104887">
        <ele>969.15</ele>
        <time>2020-07-18T09:49:57Z</time>
      </trkpt>
      <trkpt lat="40.8041993994" lon="-5.7280094828">
        <ele>966.26</ele>
        <time>2020-07-18T09:50:06Z</time>
      </trkpt>
      <trkpt lat="40.8049385995" lon="-5.7280035317">
        <ele>962.90</ele>
        <time>2020-07-18T09:50:15Z</time>
      </trkpt>
      <trkpt lat="40.8057349641" lon="-5.7279943116">
        <ele>961.94</ele>
        <time>2020-07-18T09:50:25Z</time>
      </trkpt>
      <trkpt lat="40.8063408919" lon="-5.7279951498">
        <ele>960.98</ele>
        <time>2020-07-18T09:50:34Z</time>
      </trkpt>
      <trkpt lat="40.8068241924" lon="-5.7279877737">
        <ele>960.98</ele>
        <time>2020-07-18T09:50:43Z</time>
      </trkpt>
      <trkpt lat="40.8071757294" lon="-5.7279834151">
        <ele>961.46</ele>
        <time>2020-07-18T09:50:51Z</time>
      </trkpt>
      <trkpt lat="40.8075100835" lon="-5.7279824931">
        <ele>961.94</ele>
        <time>2020-07-18T09:51:00Z</time>
      </trkpt>
      <trkpt lat="40.8078484610" lon="-5.7279774640">
        <ele>963.38</ele>
        <time>2020-07-18T09:51:10Z</time>
      </trkpt>
      <trkpt lat="40.8081999980" lon="-5.7279766258">
        <ele>964.34</ele>
        <time>2020-07-18T09:51:20Z</time>
      </trkpt>
      <trkpt lat="40.8086309955" lon="-5.7279741950">
        <ele>965.30</ele>
        <time>2020-07-18T09:51:32Z</time>
      </trkpt>
      <trkpt lat="40.8088951930" lon="-5.7279700041">
        <ele>965.78</ele>
        <time>2020-07-18T09:51:40Z</time>
      </trkpt>
      <trkpt lat="40.8092085924" lon="-5.7279771287">
        <ele>966.74</ele>
        <time>2020-07-18T09:51:49Z</time>
      </trkpt>
      <trkpt lat="40.8095914777" lon="-5.7279690821">
        <ele>966.74</ele>
        <time>2020-07-18T09:52:00Z</time>
      </trkpt>
      <trkpt lat="40.8099927194" lon="-5.7279705070">
        <ele>967.70</ele>
        <time>2020-07-18T09:52:11Z</time>
      </trkpt>
      <trkpt lat="40.8103283308" lon="-5.7279608678">
        <ele>967.22</ele>
        <time>2020-07-18T09:52:20Z</time>
      </trkpt>
      <trkpt lat="40.8107191790" lon="-5.7279501390">
        <ele>966.26</ele>
        <time>2020-07-18T09:52:30Z</time>
      </trkpt>
      <trkpt lat="40.8111677784" lon="-5.7279456966">
        <ele>964.82</ele>
        <time>2020-07-18T09:52:40Z</time>
      </trkpt>
      <trkpt lat="40.8116013743" lon="-5.7279467862">
        <ele>963.86</ele>
        <time>2020-07-18T09:52:49Z</time>
      </trkpt>
      <trkpt lat="40.8122161031" lon="-5.7279425114">
        <ele>963.38</ele>
        <time>2020-07-18T09:53:02Z</time>
      </trkpt>
      <trkpt lat="40.8128021657" lon="-5.7279363088">
        <ele>962.90</ele>
        <time>2020-07-18T09:53:14Z</time>
      </trkpt>
      <trkpt lat="40.8134439681" lon="-5.7279334590">
        <ele>960.98</ele>
        <time>2020-07-18T09:53:26Z</time>
      </trkpt>
      <trkpt lat="40.8138670865" lon="-5.7279301062">
        <ele>960.49</ele>
        <time>2020-07-18T09:53:35Z</time>
      </trkpt>
      <trkpt lat="40.8142964076" lon="-5.7279254124">
        <ele>960.49</ele>
        <time>2020-07-18T09:53:44Z</time>
      </trkpt>
      <trkpt lat="40.8148217853" lon="-5.7279239874">
        <ele>960.01</ele>
        <time>2020-07-18T09:53:54Z</time>
      </trkpt>
      <trkpt lat="40.8154379390" lon="-5.7279262505">
        <ele>960.01</ele>
        <time>2020-07-18T09:54:06Z</time>
      </trkpt>
      <trkpt lat="40.8159729559" lon="-5.7279188745">
        <ele>960.49</ele>
        <time>2020-07-18T09:54:16Z</time>
      </trkpt>
      <trkpt lat="40.8165641315" lon="-5.7279174495">
        <ele>960.49</ele>
        <time>2020-07-18T09:54:27Z</time>
      </trkpt>
      <trkpt lat="40.8170641959" lon="-5.7279152703">
        <ele>960.49</ele>
        <time>2020-07-18T09:54:37Z</time>
      </trkpt>
      <trkpt lat="40.8175070118" lon="-5.7279111631">
        <ele>960.98</ele>
        <time>2020-07-18T09:54:47Z</time>
      </trkpt>
      <trkpt lat="40.8179177251" lon="-5.7279064693">
        <ele>961.94</ele>
        <time>2020-07-18T09:54:57Z</time>
      </trkpt>
      <trkpt lat="40.8183884528" lon="-5.7279011048">
        <ele>962.42</ele>
        <time>2020-07-18T09:55:09Z</time>
      </trkpt>
      <trkpt lat="40.8186960686" lon="-5.7279006019">
        <ele>963.86</ele>
        <time>2020-07-18T09:55:18Z</time>
      </trkpt>
      <trkpt lat="40.8189052809" lon="-5.7278946508">
        <ele>964.82</ele>
        <time>2020-07-18T09:55:26Z</time>
      </trkpt>
      <trkpt lat="40.8191142417" lon="-5.7278939802">
        <ele>965.30</ele>
        <time>2020-07-18T09:55:34Z</time>
      </trkpt>
      <trkpt lat="40.8193054330" lon="-5.7278871909">
        <ele>966.26</ele>
        <time>2020-07-18T09:55:41Z</time>
      </trkpt>
      <trkpt lat="40.8196655195" lon="-5.7278898731">
        <ele>966.26</ele>
        <time>2020-07-18T09:55:53Z</time>
      </trkpt>
      <trkpt lat="40.8199846186" lon="-5.7278856821">
        <ele>966.26</ele>
        <time>2020-07-18T09:56:02Z</time>
      </trkpt>
      <trkpt lat="40.8205125108" lon="-5.7278095745">
        <ele>966.26</ele>
        <time>2020-07-18T09:56:15Z</time>
      </trkpt>
      <trkpt lat="40.8209425025" lon="-5.7276440319">
        <ele>965.78</ele>
        <time>2020-07-18T09:56:26Z</time>
      </trkpt>
      <trkpt lat="40.8213497791" lon="-5.7274312153">
        <ele>964.82</ele>
        <time>2020-07-18T09:56:36Z</time>
      </trkpt>
      <trkpt lat="40.8218158130" lon="-5.7271930855">
        <ele>963.38</ele>
        <time>2020-07-18T09:56:46Z</time>
      </trkpt>
      <trkpt lat="40.8223169670" lon="-5.7269345876">
        <ele>961.46</ele>
        <time>2020-07-18T09:56:55Z</time>
      </trkpt>
      <trkpt lat="40.8228863496" lon="-5.7266410533">
        <ele>959.53</ele>
        <time>2020-07-18T09:57:04Z</time>
      </trkpt>
      <trkpt lat="40.8235194348" lon="-5.7263112254">
        <ele>958.09</ele>
        <time>2020-07-18T09:57:14Z</time>
      </trkpt>
      <trkpt lat="40.8239452355" lon="-5.7260869257">
        <ele>958.09</ele>
        <time>2020-07-18T09:57:22Z</time>
      </trkpt>
      <trkpt lat="40.8244047314" lon="-5.7258502208">
        <ele>958.09</ele>
        <time>2020-07-18T09:57:32Z</time>
      </trkpt>
      <trkpt lat="40.8249157760" lon="-5.7255870290">
        <ele>958.57</ele>
        <time>2020-07-18T09:57:44Z</time>
      </trkpt>
      <trkpt lat="40.8252757788" lon="-5.7254059799">
        <ele>958.57</ele>
        <time>2020-07-18T09:57:53Z</time>
      </trkpt>
      <trkpt lat="40.8256797027" lon="-5.7251915708">
        <ele>959.05</ele>
        <time>2020-07-18T09:58:03Z</time>
      </trkpt>
      <trkpt lat="40.8260091953" lon="-5.7250220887">
        <ele>958.57</ele>
        <time>2020-07-18T09:58:11Z</time>
      </trkpt>
      <trkpt lat="40.8263586368" lon="-5.7248409558">
        <ele>958.57</ele>
        <time>2020-07-18T09:58:20Z</time>
      </trkpt>
      <trkpt lat="40.8266761433" lon="-5.7246795204">
        <ele>958.57</ele>
        <time>2020-07-18T09:58:28Z</time>
      </trkpt>
      <trkpt lat="40.8271192946" lon="-5.7244465873">
        <ele>958.57</ele>
        <time>2020-07-18T09:58:38Z</time>
      </trkpt>
      <trkpt lat="40.8275027666" lon="-5.7242492773">
        <ele>957.61</ele>
        <time>2020-07-18T09:58:47Z</time>
      </trkpt>
      <trkpt lat="40.8278666250" lon="-5.7240634505">
        <ele>956.17</ele>
        <time>2020-07-18T09:58:55Z</time>
      </trkpt>
      <trkpt lat="40.8283556253" lon="-5.7238072995">
        <ele>954.25</ele>
        <time>2020-07-18T09:59:04Z</time>
      </trkpt>
      <trkpt lat="40.8288996946" lon="-5.7235242426">
        <ele>951.36</ele>
        <time>2020-07-18T09:59:13Z</time>
      </trkpt>
      <trkpt lat="40.8294737712" lon="-5.7232173812">
        <ele>950.40</ele>
        <time>2020-07-18T09:59:22Z</time>
      </trkpt>
      <trkpt lat="40.8299320936" lon="-5.7229809277">
        <ele>950.88</ele>
        <time>2020-07-18T09:59:31Z</time>
      </trkpt>
      <trkpt lat="40.8304988779" lon="-5.7226863876">
        <ele>951.36</ele>
        <time>2020-07-18T09:59:43Z</time>
      </trkpt>
      <trkpt lat="40.8310081623" lon="-5.7224186696">
        <ele>951.36</ele>
        <time>2020-07-18T09:59:55Z</time>
      </trkpt>
      <trkpt lat="40.8315065503" lon="-5.7221568190">
        <ele>950.88</ele>
        <time>2020-07-18T10:00:07Z</time>
      </trkpt>
      <trkpt lat="40.8319714945" lon="-5.7219139952">
        <ele>950.40</ele>
        <time>2020-07-18T10:00:18Z</time>
      </trkpt>
      <trkpt lat="40.8323205169" lon="-5.7217338681">
        <ele>949.92</ele>
        <time>2020-07-18T10:00:26Z</time>
      </trkpt>
      <trkpt lat="40.8326850459" lon="-5.7215491310">
        <ele>948.96</ele>
        <time>2020-07-18T10:00:35Z</time>
      </trkpt>
      <trkpt lat="40.8330266085" lon="-5.7213760447">
        <ele>948.00</ele>
        <time>2020-07-18T10:00:44Z</time>
      </trkpt>
      <trkpt lat="40.8334282693" lon="-5.7211792376">
        <ele>947.52</ele>
        <time>2020-07-18T10:00:54Z</time>
      </trkpt>
      <trkpt lat="40.8336205501" lon="-5.7210532576">
        <ele>947.52</ele>
        <time>2020-07-18T10:01:01Z</time>
      </trkpt>
      <trkpt lat="40.8336308599" lon="-5.7210309617">
        <ele>947.04</ele>
        <time>2020-07-18T10:01:02Z</time>
      </trkpt>
      <trkpt lat="40.8336347155" lon="-5.7210092526">
        <ele>947.04</ele>
        <time>2020-07-18T10:01:03Z</time>
      </trkpt>
      <trkpt lat="40.8336337097" lon="-5.7209685165">
        <ele>947.04</ele>
        <time>2020-07-18T10:01:05Z</time>
      </trkpt>
      <trkpt lat="40.8336210530" lon="-5.7209174708">
        <ele>946.56</ele>
        <time>2020-07-18T10:01:08Z</time>
      </trkpt>
      <trkpt lat="40.8336105756" lon="-5.7209047303">
        <ele>946.56</ele>
        <time>2020-07-18T10:01:09Z</time>
      </trkpt>
      <trkpt lat="40.8335643914" lon="-5.7208564505">
        <ele>947.04</ele>
        <time>2020-07-18T10:01:17Z</time>
      </trkpt>
      <trkpt lat="40.8335638046" lon="-5.7208580431">
        <ele>948.96</ele>
        <time>2020-07-18T10:01:34Z</time>
      </trkpt>
      <trkpt lat="40.8335590269" lon="-5.7208587136">
        <ele>949.44</ele>
        <time>2020-07-18T10:01:49Z</time>
      </trkpt>
      <trkpt lat="40.8335608710" lon="-5.7208502479">
        <ele>948.96</ele>
        <time>2020-07-18T10:01:57Z</time>
      </trkpt>
      <trkpt lat="40.8335560095" lon="-5.7208361663">
        <ele>948.96</ele>
        <time>2020-07-18T10:02:03Z</time>
      </trkpt>
      <trkpt lat="40.8335964940" lon="-5.7208392676">
        <ele>948.48</ele>
        <time>2020-07-18T10:02:07Z</time>
      </trkpt>
      <trkpt lat="40.8336125873" lon="-5.7208587974">
        <ele>948.48</ele>
        <time>2020-07-18T10:02:08Z</time>
      </trkpt>
      <trkpt lat="40.8337679878" lon="-5.7209513336">
        <ele>948.48</ele>
        <time>2020-07-18T10:02:15Z</time>
      </trkpt>
      <trkpt lat="40.8340196125" lon="-5.7208577916">
        <ele>948.48</ele>
        <time>2020-07-18T10:02:22Z</time>
      </trkpt>
      <trkpt lat="40.8344741631" lon="-5.7206119504">
        <ele>947.04</ele>
        <time>2020-07-18T10:02:32Z</time>
      </trkpt>
      <trkpt lat="40.8350870479" lon="-5.7202955335">
        <ele>944.63</ele>
        <time>2020-07-18T10:02:45Z</time>
      </trkpt>
      <trkpt lat="40.8355241641" lon="-5.7200688031">
        <ele>944.15</ele>
        <time>2020-07-18T10:02:54Z</time>
      </trkpt>
      <trkpt lat="40.8360623661" lon="-5.7197968941">
        <ele>943.67</ele>
        <time>2020-07-18T10:03:06Z</time>
      </trkpt>
      <trkpt lat="40.8366090339" lon="-5.7195101492">
        <ele>943.19</ele>
        <time>2020-07-18T10:03:18Z</time>
      </trkpt>
      <trkpt lat="40.8368302323" lon="-5.7193945628">
        <ele>943.19</ele>
        <time>2020-07-18T10:03:23Z</time>
      </trkpt>
      <trkpt lat="40.8369181585" lon="-5.7193500549">
        <ele>943.19</ele>
        <time>2020-07-18T10:03:25Z</time>
      </trkpt>
      <trkpt lat="40.8369589783" lon="-5.7193275075">
        <ele>943.19</ele>
        <time>2020-07-18T10:03:26Z</time>
      </trkpt>
      <trkpt lat="40.8374894690" lon="-5.7190505695">
        <ele>943.19</ele>
        <time>2020-07-18T10:03:38Z</time>
      </trkpt>
      <trkpt lat="40.8378804009" lon="-5.7188443746">
        <ele>942.71</ele>
        <time>2020-07-18T10:03:48Z</time>
      </trkpt>
      <trkpt lat="40.8380297665" lon="-5.7187618129">
        <ele>942.71</ele>
        <time>2020-07-18T10:03:54Z</time>
      </trkpt>
      <trkpt lat="40.8383416571" lon="-5.7185976114">
        <ele>941.75</ele>
        <time>2020-07-18T10:04:01Z</time>
      </trkpt>
      <trkpt lat="40.8388985507" lon="-5.7183029875">
        <ele>939.83</ele>
        <time>2020-07-18T10:04:12Z</time>
      </trkpt>
      <trkpt lat="40.8394217491" lon="-5.7180347666">
        <ele>939.83</ele>
        <time>2020-07-18T10:04:23Z</time>
      </trkpt>
      <trkpt lat="40.8399314526" lon="-5.7177683897">
        <ele>939.83</ele>
        <time>2020-07-18T10:04:34Z</time>
      </trkpt>
      <trkpt lat="40.8403425850" lon="-5.7175492030">
        <ele>939.83</ele>
        <time>2020-07-18T10:04:43Z</time>
      </trkpt>
      <trkpt lat="40.8408657834" lon="-5.7172743604">
        <ele>940.79</ele>
        <time>2020-07-18T10:04:55Z</time>
      </trkpt>
      <trkpt lat="40.8413831983" lon="-5.7170031220">
        <ele>941.27</ele>
        <time>2020-07-18T10:05:07Z</time>
      </trkpt>
      <trkpt lat="40.8418390900" lon="-5.7167696021">
        <ele>941.75</ele>
        <time>2020-07-18T10:05:18Z</time>
      </trkpt>
      <trkpt lat="40.8422234003" lon="-5.7165679336">
        <ele>942.71</ele>
        <time>2020-07-18T10:05:28Z</time>
      </trkpt>
      <trkpt lat="40.8424745221" lon="-5.7164358348">
        <ele>942.23</ele>
        <time>2020-07-18T10:05:36Z</time>
      </trkpt>
      <trkpt lat="40.8425244782" lon="-5.7163585536">
        <ele>942.23</ele>
        <time>2020-07-18T10:05:39Z</time>
      </trkpt>
      <trkpt lat="40.8425215445" lon="-5.7163233496">
        <ele>942.23</ele>
        <time>2020-07-18T10:05:40Z</time>
      </trkpt>
      <trkpt lat="40.8425147552" lon="-5.7162997127">
        <ele>942.23</ele>
        <time>2020-07-18T10:05:41Z</time>
      </trkpt>
      <trkpt lat="40.8425081335" lon="-5.7162828650">
        <ele>942.71</ele>
        <time>2020-07-18T10:05:46Z</time>
      </trkpt>
      <trkpt lat="40.8425202873" lon="-5.7162971143">
        <ele>941.75</ele>
        <time>2020-07-18T10:05:52Z</time>
      </trkpt>
      <trkpt lat="40.8425332792" lon="-5.7163099386">
        <ele>941.75</ele>
        <time>2020-07-18T10:05:54Z</time>
      </trkpt>
      <trkpt lat="40.8425409067" lon="-5.7163253613">
        <ele>941.75</ele>
        <time>2020-07-18T10:05:55Z</time>
      </trkpt>
      <trkpt lat="40.8425471094" lon="-5.7163387723">
        <ele>941.75</ele>
        <time>2020-07-18T10:05:56Z</time>
      </trkpt>
      <trkpt lat="40.8425476961" lon="-5.7163425442">
        <ele>941.27</ele>
        <time>2020-07-18T10:06:02Z</time>
      </trkpt>
      <trkpt lat="40.8425549045" lon="-5.7163469866">
        <ele>941.27</ele>
        <time>2020-07-18T10:06:07Z</time>
      </trkpt>
      <trkpt lat="40.8425966464" lon="-5.7163619064">
        <ele>941.75</ele>
        <time>2020-07-18T10:06:09Z</time>
      </trkpt>
      <trkpt lat="40.8426205348" lon="-5.7163542788">
        <ele>941.75</ele>
        <time>2020-07-18T10:06:10Z</time>
      </trkpt>
      <trkpt lat="40.8427264821" lon="-5.7162992936">
        <ele>941.75</ele>
        <time>2020-07-18T10:06:13Z</time>
      </trkpt>
      <trkpt lat="40.8430087008" lon="-5.7161496766">
        <ele>941.75</ele>
        <time>2020-07-18T10:06:21Z</time>
      </trkpt>
      <trkpt lat="40.8434288017" lon="-5.7159433980">
        <ele>941.27</ele>
        <time>2020-07-18T10:06:31Z</time>
      </trkpt>
      <trkpt lat="40.8435514290" lon="-5.7158847246">
        <ele>941.27</ele>
        <time>2020-07-18T10:06:34Z</time>
      </trkpt>
      <trkpt lat="40.8440621383" lon="-5.7156601734">
        <ele>939.83</ele>
        <time>2020-07-18T10:06:46Z</time>
      </trkpt>
      <trkpt lat="40.8445002604" lon="-5.7154799625">
        <ele>936.94</ele>
        <time>2020-07-18T10:06:53Z</time>
      </trkpt>
      <trkpt lat="40.8452320006" lon="-5.7151788007">
        <ele>933.10</ele>
        <time>2020-07-18T10:07:02Z</time>
      </trkpt>
      <trkpt lat="40.8461080771" lon="-5.7148182951">
        <ele>929.73</ele>
        <time>2020-07-18T10:07:13Z</time>
      </trkpt>
      <trkpt lat="40.8468387276" lon="-5.7145514153">
        <ele>926.85</ele>
        <time>2020-07-18T10:07:23Z</time>
      </trkpt>
      <trkpt lat="40.8473889995" lon="-5.7144412771">
        <ele>925.41</ele>
        <time>2020-07-18T10:07:31Z</time>
      </trkpt>
      <trkpt lat="40.8477389440" lon="-5.7143896446">
        <ele>925.41</ele>
        <time>2020-07-18T10:07:37Z</time>
      </trkpt>
      <trkpt lat="40.8482131921" lon="-5.7143168896">
        <ele>925.89</ele>
        <time>2020-07-18T10:07:47Z</time>
      </trkpt>
      <trkpt lat="40.8483291976" lon="-5.7142765727">
        <ele>925.41</ele>
        <time>2020-07-18T10:07:51Z</time>
      </trkpt>
      <trkpt lat="40.8483418543" lon="-5.7142502535">
        <ele>925.89</ele>
        <time>2020-07-18T10:07:52Z</time>
      </trkpt>
      <trkpt lat="40.8483510744" lon="-5.7142074220">
        <ele>925.89</ele>
        <time>2020-07-18T10:07:54Z</time>
      </trkpt>
      <trkpt lat="40.8483524993" lon="-5.7141831983">
        <ele>925.89</ele>
        <time>2020-07-18T10:07:55Z</time>
      </trkpt>
      <trkpt lat="40.8483776450" lon="-5.7140500098">
        <ele>926.85</ele>
        <time>2020-07-18T10:08:02Z</time>
      </trkpt>
      <trkpt lat="40.8483881224" lon="-5.7140254509">
        <ele>926.85</ele>
        <time>2020-07-18T10:08:08Z</time>
      </trkpt>
      <trkpt lat="40.8483912237" lon="-5.7140186615">
        <ele>926.85</ele>
        <time>2020-07-18T10:08:13Z</time>
      </trkpt>
      <trkpt lat="40.8483910561" lon="-5.7140187453">
        <ele>926.85</ele>
        <time>2020-07-18T10:08:23Z</time>
      </trkpt>
      <trkpt lat="40.8483942412" lon="-5.7140184939">
        <ele>927.33</ele>
        <time>2020-07-18T10:08:48Z</time>
      </trkpt>
      <trkpt lat="40.8483993541" lon="-5.7140249480">
        <ele>927.33</ele>
        <time>2020-07-18T10:09:08Z</time>
      </trkpt>
      <trkpt lat="40.8483973425" lon="-5.7140286360">
        <ele>927.33</ele>
        <time>2020-07-18T10:09:24Z</time>
      </trkpt>
      <trkpt lat="40.8483968396" lon="-5.7140279654">
        <ele>927.33</ele>
        <time>2020-07-18T10:09:43Z</time>
      </trkpt>
      <trkpt lat="40.8483971749" lon="-5.7140267082">
        <ele>927.81</ele>
        <time>2020-07-18T10:10:02Z</time>
      </trkpt>
      <trkpt lat="40.8483970072" lon="-5.7140232716">
        <ele>927.81</ele>
        <time>2020-07-18T10:10:19Z</time>
      </trkpt>
      <trkpt lat="40.8483958337" lon="-5.7140272111">
        <ele>927.33</ele>
        <time>2020-07-18T10:10:37Z</time>
      </trkpt>
      <trkpt lat="40.8483938221" lon="-5.7140254509">
        <ele>926.85</ele>
        <time>2020-07-18T10:10:47Z</time>
      </trkpt>
      <trkpt lat="40.8483901341" lon="-5.7140232716">
        <ele>926.37</ele>
        <time>2020-07-18T10:11:05Z</time>
      </trkpt>
      <trkpt lat="40.8483919781" lon="-5.7140223496">
        <ele>926.37</ele>
        <time>2020-07-18T10:11:21Z</time>
      </trkpt>
      <trkpt lat="40.8483943250" lon="-5.7140223496">
        <ele>925.89</ele>
        <time>2020-07-18T10:11:37Z</time>
      </trkpt>
      <trkpt lat="40.8483954147" lon="-5.7140225172">
        <ele>925.41</ele>
        <time>2020-07-18T10:11:55Z</time>
      </trkpt>
      <trkpt lat="40.8483934868" lon="-5.7140236907">
        <ele>925.89</ele>
        <time>2020-07-18T10:12:14Z</time>
      </trkpt>
      <trkpt lat="40.8483907208" lon="-5.7140200026">
        <ele>926.85</ele>
        <time>2020-07-18T10:12:36Z</time>
      </trkpt>
      <trkpt lat="40.8483897150" lon="-5.7140180748">
        <ele>927.33</ele>
        <time>2020-07-18T10:12:52Z</time>
      </trkpt>
      <trkpt lat="40.8483913075" lon="-5.7140152249">
        <ele>927.81</ele>
        <time>2020-07-18T10:13:15Z</time>
      </trkpt>
      <trkpt lat="40.8483913075" lon="-5.7140149735">
        <ele>928.29</ele>
        <time>2020-07-18T10:13:31Z</time>
      </trkpt>
      <trkpt lat="40.8483923133" lon="-5.7140170690">
        <ele>928.77</ele>
        <time>2020-07-18T10:13:49Z</time>
      </trkpt>
      <trkpt lat="40.8483919781" lon="-5.7140190806">
        <ele>928.77</ele>
        <time>2020-07-18T10:14:08Z</time>
      </trkpt>
      <trkpt lat="40.8483905531" lon="-5.7140226848">
        <ele>927.81</ele>
        <time>2020-07-18T10:14:27Z</time>
      </trkpt>
      <trkpt lat="40.8483897150" lon="-5.7140273787">
        <ele>927.33</ele>
        <time>2020-07-18T10:14:50Z</time>
      </trkpt>
      <trkpt lat="40.8483892120" lon="-5.7140267920">
        <ele>927.33</ele>
        <time>2020-07-18T10:15:09Z</time>
      </trkpt>
      <trkpt lat="40.8483889606" lon="-5.7140214276">
        <ele>926.85</ele>
        <time>2020-07-18T10:15:30Z</time>
      </trkpt>
      <trkpt lat="40.8483846858" lon="-5.7140283845">
        <ele>927.33</ele>
        <time>2020-07-18T10:15:48Z</time>
      </trkpt>
      <trkpt lat="40.8483855240" lon="-5.7140262891">
        <ele>927.33</ele>
        <time>2020-07-18T10:16:06Z</time>
      </trkpt>
      <trkpt lat="40.8483858593" lon="-5.7140256185">
        <ele>926.37</ele>
        <time>2020-07-18T10:16:28Z</time>
      </trkpt>
      <trkpt lat="40.8483869489" lon="-5.7140227687">
        <ele>926.37</ele>
        <time>2020-07-18T10:16:46Z</time>
      </trkpt>
      <trkpt lat="40.8483913913" lon="-5.7140221819">
        <ele>927.33</ele>
        <time>2020-07-18T10:17:07Z</time>
      </trkpt>
      <trkpt lat="40.8483980130" lon="-5.7140184101">
        <ele>926.85</ele>
        <time>2020-07-18T10:17:25Z</time>
      </trkpt>
      <trkpt lat="40.8483957499" lon="-5.7140206732">
        <ele>926.85</ele>
        <time>2020-07-18T10:17:47Z</time>
      </trkpt>
      <trkpt lat="40.8483966719" lon="-5.7140202541">
        <ele>927.33</ele>
        <time>2020-07-18T10:18:07Z</time>
      </trkpt>
      <trkpt lat="40.8483990189" lon="-5.7140191644">
        <ele>927.33</ele>
        <time>2020-07-18T10:18:29Z</time>
      </trkpt>
      <trkpt lat="40.8483999409" lon="-5.7140215114">
        <ele>927.81</ele>
        <time>2020-07-18T10:18:49Z</time>
      </trkpt>
      <trkpt lat="40.8483987674" lon="-5.7140177395">
        <ele>928.29</ele>
        <time>2020-07-18T10:19:13Z</time>
      </trkpt>
      <trkpt lat="40.8484014496" lon="-5.7140189968">
        <ele>928.77</ele>
        <time>2020-07-18T10:19:31Z</time>
      </trkpt>
      <trkpt lat="40.8483991027" lon="-5.7140184939">
        <ele>928.77</ele>
        <time>2020-07-18T10:19:59Z</time>
      </trkpt>
      <trkpt lat="40.8483971749" lon="-5.7140202541">
        <ele>928.77</ele>
        <time>2020-07-18T10:20:20Z</time>
      </trkpt>
      <trkpt lat="40.8483955823" lon="-5.7140228525">
        <ele>929.25</ele>
        <time>2020-07-18T10:20:39Z</time>
      </trkpt>
      <trkpt lat="40.8483916428" lon="-5.7140219305">
        <ele>929.25</ele>
        <time>2020-07-18T10:20:58Z</time>
      </trkpt>
      <trkpt lat="40.8483882900" lon="-5.7140184939">
        <ele>928.29</ele>
        <time>2020-07-18T10:21:21Z</time>
      </trkpt>
      <trkpt lat="40.8483902179" lon="-5.7140121236">
        <ele>927.81</ele>
        <time>2020-07-18T10:21:43Z</time>
      </trkpt>
      <trkpt lat="40.8483920619" lon="-5.7140132971">
        <ele>927.81</ele>
        <time>2020-07-18T10:22:04Z</time>
      </trkpt>
      <trkpt lat="40.8483957499" lon="-5.7140134647">
        <ele>927.33</ele>
        <time>2020-07-18T10:22:29Z</time>
      </trkpt>
      <trkpt lat="40.8483884577" lon="-5.7140127104">
        <ele>926.85</ele>
        <time>2020-07-18T10:22:51Z</time>
      </trkpt>
      <trkpt lat="40.8483887929" lon="-5.7140126266">
        <ele>926.37</ele>
        <time>2020-07-18T10:23:08Z</time>
      </trkpt>
      <trkpt lat="40.8483870327" lon="-5.7140162308">
        <ele>925.89</ele>
        <time>2020-07-18T10:23:31Z</time>
      </trkpt>
      <trkpt lat="40.8483874518" lon="-5.7140135486">
        <ele>925.89</ele>
        <time>2020-07-18T10:23:49Z</time>
      </trkpt>
      <trkpt lat="40.8483874518" lon="-5.7140102796">
        <ele>925.89</ele>
        <time>2020-07-18T10:24:16Z</time>
      </trkpt>
      <trkpt lat="40.8483908046" lon="-5.7140104473">
        <ele>926.37</ele>
        <time>2020-07-18T10:24:38Z</time>
      </trkpt>
      <trkpt lat="40.8483941574" lon="-5.7140104473">
        <ele>926.37</ele>
        <time>2020-07-18T10:25:01Z</time>
      </trkpt>
      <trkpt lat="40.8483923133" lon="-5.7140137162">
        <ele>926.85</ele>
        <time>2020-07-18T10:25:21Z</time>
      </trkpt>
      <trkpt lat="40.8483914752" lon="-5.7140142191">
        <ele>925.89</ele>
        <time>2020-07-18T10:25:44Z</time>
      </trkpt>
      <trkpt lat="40.8483908046" lon="-5.7140158117">
        <ele>925.89</ele>
        <time>2020-07-18T10:26:06Z</time>
      </trkpt>
      <trkpt lat="40.8483806625" lon="-5.7140129618">
        <ele>925.89</ele>
        <time>2020-07-18T10:26:24Z</time>
      </trkpt>
      <trkpt lat="40.8483797405" lon="-5.7140312344">
        <ele>925.89</ele>
        <time>2020-07-18T10:26:30Z</time>
      </trkpt>
      <trkpt lat="40.8483695146" lon="-5.7140929252">
        <ele>925.89</ele>
        <time>2020-07-18T10:26:36Z</time>
      </trkpt>
      <trkpt lat="40.8483681735" lon="-5.7141113654">
        <ele>925.89</ele>
        <time>2020-07-18T10:26:37Z</time>
      </trkpt>
      <trkpt lat="40.8483675029" lon="-5.7141292188">
        <ele>925.89</ele>
        <time>2020-07-18T10:26:38Z</time>
      </trkpt>
      <trkpt lat="40.8483615518" lon="-5.7141478267">
        <ele>925.89</ele>
        <time>2020-07-18T10:26:39Z</time>
      </trkpt>
      <trkpt lat="40.8483535890" lon="-5.7141692843">
        <ele>925.41</ele>
        <time>2020-07-18T10:26:40Z</time>
      </trkpt>
      <trkpt lat="40.8483501524" lon="-5.7141936757">
        <ele>925.41</ele>
        <time>2020-07-18T10:26:41Z</time>
      </trkpt>
      <trkpt lat="40.8483534213" lon="-5.7142199110">
        <ele>925.41</ele>
        <time>2020-07-18T10:26:42Z</time>
      </trkpt>
      <trkpt lat="40.8483688440" lon="-5.7142491639">
        <ele>925.41</ele>
        <time>2020-07-18T10:26:43Z</time>
      </trkpt>
      <trkpt lat="40.8483923972" lon="-5.7142686937">
        <ele>925.41</ele>
        <time>2020-07-18T10:26:44Z</time>
      </trkpt>
      <trkpt lat="40.8484242484" lon="-5.7142727170">
        <ele>925.41</ele>
        <time>2020-07-18T10:26:45Z</time>
      </trkpt>
      <trkpt lat="40.8484466281" lon="-5.7142690290">
        <ele>925.41</ele>
        <time>2020-07-18T10:26:46Z</time>
      </trkpt>
      <trkpt lat="40.8484793175" lon="-5.7142632455">
        <ele>925.41</ele>
        <time>2020-07-18T10:26:47Z</time>
      </trkpt>
      <trkpt lat="40.8488498814" lon="-5.7142226771">
        <ele>925.41</ele>
        <time>2020-07-18T10:26:57Z</time>
      </trkpt>
      <trkpt lat="40.8493038453" lon="-5.7142608147">
        <ele>925.41</ele>
        <time>2020-07-18T10:27:08Z</time>
      </trkpt>
      <trkpt lat="40.8496953640" lon="-5.7143635768">
        <ele>925.89</ele>
        <time>2020-07-18T10:27:18Z</time>
      </trkpt>
      <trkpt lat="40.8501328155" lon="-5.7144903950">
        <ele>925.41</ele>
        <time>2020-07-18T10:27:28Z</time>
      </trkpt>
      <trkpt lat="40.8506664075" lon="-5.7146517467">
        <ele>924.93</ele>
        <time>2020-07-18T10:27:39Z</time>
      </trkpt>
      <trkpt lat="40.8511191979" lon="-5.7147862762">
        <ele>924.45</ele>
        <time>2020-07-18T10:27:48Z</time>
      </trkpt>
      <trkpt lat="40.8516613394" lon="-5.7149457838">
        <ele>923.96</ele>
        <time>2020-07-18T10:27:59Z</time>
      </trkpt>
      <trkpt lat="40.8521291334" lon="-5.7150777988">
        <ele>923.00</ele>
        <time>2020-07-18T10:28:08Z</time>
      </trkpt>
      <trkpt lat="40.8527041320" lon="-5.7152446825">
        <ele>922.52</ele>
        <time>2020-07-18T10:28:19Z</time>
      </trkpt>
      <trkpt lat="40.8532842435" lon="-5.7154100575">
        <ele>921.56</ele>
        <time>2020-07-18T10:28:30Z</time>
      </trkpt>
      <trkpt lat="40.8538195118" lon="-5.7155705709">
        <ele>920.60</ele>
        <time>2020-07-18T10:28:40Z</time>
      </trkpt>
      <trkpt lat="40.8544717077" lon="-5.7157652825">
        <ele>920.12</ele>
        <time>2020-07-18T10:28:52Z</time>
      </trkpt>
      <trkpt lat="40.8551440202" lon="-5.7159569766">
        <ele>919.64</ele>
        <time>2020-07-18T10:29:04Z</time>
      </trkpt>
      <trkpt lat="40.8556543943" lon="-5.7161055040">
        <ele>918.68</ele>
        <time>2020-07-18T10:29:14Z</time>
      </trkpt>
      <trkpt lat="40.8561682887" lon="-5.7162535284">
        <ele>917.72</ele>
        <time>2020-07-18T10:29:24Z</time>
      </trkpt>
      <trkpt lat="40.8567755576" lon="-5.7164245192">
        <ele>917.24</ele>
        <time>2020-07-18T10:29:36Z</time>
      </trkpt>
      <trkpt lat="40.8573746961" lon="-5.7165968511">
        <ele>916.27</ele>
        <time>2020-07-18T10:29:47Z</time>
      </trkpt>
      <trkpt lat="40.8581595775" lon="-5.7168276049">
        <ele>914.35</ele>
        <time>2020-07-18T10:30:01Z</time>
      </trkpt>
      <trkpt lat="40.8588157967" lon="-5.7170167007">
        <ele>913.39</ele>
        <time>2020-07-18T10:30:13Z</time>
      </trkpt>
      <trkpt lat="40.8593433537" lon="-5.7171663176">
        <ele>912.43</ele>
        <time>2020-07-18T10:30:23Z</time>
      </trkpt>
      <trkpt lat="40.8599058632" lon="-5.7172699180">
        <ele>910.99</ele>
        <time>2020-07-18T10:30:33Z</time>
      </trkpt>
      <trkpt lat="40.8604426403" lon="-5.7173254900">
        <ele>908.10</ele>
        <time>2020-07-18T10:30:41Z</time>
      </trkpt>
      <trkpt lat="40.8611835167" lon="-5.7174051180">
        <ele>903.78</ele>
        <time>2020-07-18T10:30:50Z</time>
      </trkpt>
      <trkpt lat="40.8619020134" lon="-5.7174969837">
        <ele>898.97</ele>
        <time>2020-07-18T10:30:58Z</time>
      </trkpt>
      <trkpt lat="40.8619839884" lon="-5.7175302599">
        <ele>898.49</ele>
        <time>2020-07-18T10:30:59Z</time>
      </trkpt>
      <trkpt lat="40.8620571624" lon="-5.7175802998">
        <ele>898.01</ele>
        <time>2020-07-18T10:31:00Z</time>
      </trkpt>
      <trkpt lat="40.8621222898" lon="-5.7176493667">
        <ele>897.53</ele>
        <time>2020-07-18T10:31:01Z</time>
      </trkpt>
      <trkpt lat="40.8621812984" lon="-5.7177388854">
        <ele>896.57</ele>
        <time>2020-07-18T10:31:02Z</time>
      </trkpt>
      <trkpt lat="40.8622276504" lon="-5.7178371213">
        <ele>896.09</ele>
        <time>2020-07-18T10:31:03Z</time>
      </trkpt>
      <trkpt lat="40.8622682188" lon="-5.7179486006">
        <ele>895.12</ele>
        <time>2020-07-18T10:31:04Z</time>
      </trkpt>
      <trkpt lat="40.8622968011" lon="-5.7180620078">
        <ele>894.64</ele>
        <time>2020-07-18T10:31:05Z</time>
      </trkpt>
      <trkpt lat="40.8623178396" lon="-5.7181816176">
        <ele>893.68</ele>
        <time>2020-07-18T10:31:06Z</time>
      </trkpt>
      <trkpt lat="40.8624150697" lon="-5.7186121959">
        <ele>890.32</ele>
        <time>2020-07-18T10:31:10Z</time>
      </trkpt>
      <trkpt lat="40.8624613378" lon="-5.7186976075">
        <ele>889.84</ele>
        <time>2020-07-18T10:31:11Z</time>
      </trkpt>
      <trkpt lat="40.8625194244" lon="-5.7187701110">
        <ele>888.88</ele>
        <time>2020-07-18T10:31:12Z</time>
      </trkpt>
      <trkpt lat="40.8625944424" lon="-5.7188226655">
        <ele>887.91</ele>
        <time>2020-07-18T10:31:13Z</time>
      </trkpt>
      <trkpt lat="40.8626785967" lon="-5.7188444585">
        <ele>886.95</ele>
        <time>2020-07-18T10:31:14Z</time>
      </trkpt>
      <trkpt lat="40.8627677802" lon="-5.7188395970">
        <ele>886.47</ele>
        <time>2020-07-18T10:31:15Z</time>
      </trkpt>
      <trkpt lat="40.8628591429" lon="-5.7188151218">
        <ele>885.99</ele>
        <time>2020-07-18T10:31:16Z</time>
      </trkpt>
      <trkpt lat="40.8629550319" lon="-5.7187769003">
        <ele>885.03</ele>
        <time>2020-07-18T10:31:17Z</time>
      </trkpt>
      <trkpt lat="40.8630452212" lon="-5.7187390141">
        <ele>884.55</ele>
        <time>2020-07-18T10:31:18Z</time>
      </trkpt>
      <trkpt lat="40.8638902847" lon="-5.7183850463">
        <ele>878.78</ele>
        <time>2020-07-18T10:31:27Z</time>
      </trkpt>
      <trkpt lat="40.8647083584" lon="-5.7180569787">
        <ele>873.01</ele>
        <time>2020-07-18T10:31:36Z</time>
      </trkpt>
      <trkpt lat="40.8647994697" lon="-5.7180666178">
        <ele>872.05</ele>
        <time>2020-07-18T10:31:37Z</time>
      </trkpt>
      <trkpt lat="40.8648788463" lon="-5.7181024086">
        <ele>871.57</ele>
        <time>2020-07-18T10:31:38Z</time>
      </trkpt>
      <trkpt lat="40.8649476618" lon="-5.7181646861">
        <ele>871.09</ele>
        <time>2020-07-18T10:31:39Z</time>
      </trkpt>
      <trkpt lat="40.8650091849" lon="-5.7182562165">
        <ele>870.13</ele>
        <time>2020-07-18T10:31:40Z</time>
      </trkpt>
      <trkpt lat="40.8650571294" lon="-5.7183590624">
        <ele>869.17</ele>
        <time>2020-07-18T10:31:41Z</time>
      </trkpt>
      <trkpt lat="40.8651012182" lon="-5.7184660155">
        <ele>868.69</ele>
        <time>2020-07-18T10:31:42Z</time>
      </trkpt>
      <trkpt lat="40.8652608935" lon="-5.7187724579">
        <ele>865.80</ele>
        <time>2020-07-18T10:31:45Z</time>
      </trkpt>
      <trkpt lat="40.8653373364" lon="-5.7188440394">
        <ele>864.84</ele>
        <time>2020-07-18T10:31:46Z</time>
      </trkpt>
      <trkpt lat="40.8654235862" lon="-5.7188963424">
        <ele>863.88</ele>
        <time>2020-07-18T10:31:47Z</time>
      </trkpt>
      <trkpt lat="40.8655273542" lon="-5.7189266849">
        <ele>863.40</ele>
        <time>2020-07-18T10:31:48Z</time>
      </trkpt>
      <trkpt lat="40.8656272665" lon="-5.7189316303">
        <ele>862.44</ele>
        <time>2020-07-18T10:31:49Z</time>
      </trkpt>
      <trkpt lat="40.8657347225" lon="-5.7189266849">
        <ele>861.96</ele>
        <time>2020-07-18T10:31:50Z</time>
      </trkpt>
      <trkpt lat="40.8667014912" lon="-5.7188825961">
        <ele>859.56</ele>
        <time>2020-07-18T10:32:00Z</time>
      </trkpt>
      <trkpt lat="40.8672284614" lon="-5.7188539300">
        <ele>858.59</ele>
        <time>2020-07-18T10:32:07Z</time>
      </trkpt>
      <trkpt lat="40.8673529327" lon="-5.7188349869">
        <ele>858.59</ele>
        <time>2020-07-18T10:32:11Z</time>
      </trkpt>
      <trkpt lat="40.8675552718" lon="-5.7187934127">
        <ele>858.59</ele>
        <time>2020-07-18T10:32:17Z</time>
      </trkpt>
      <trkpt lat="40.8679944836" lon="-5.7186546922">
        <ele>858.11</ele>
        <time>2020-07-18T10:32:26Z</time>
      </trkpt>
      <trkpt lat="40.8684435859" lon="-5.7185635809">
        <ele>856.67</ele>
        <time>2020-07-18T10:32:34Z</time>
      </trkpt>
      <trkpt lat="40.8690866455" lon="-5.7185282093">
        <ele>854.27</ele>
        <time>2020-07-18T10:32:44Z</time>
      </trkpt>
      <trkpt lat="40.8697893005" lon="-5.7185001299">
        <ele>852.35</ele>
        <time>2020-07-18T10:32:55Z</time>
      </trkpt>
      <trkpt lat="40.8704737667" lon="-5.7184195798">
        <ele>850.42</ele>
        <time>2020-07-18T10:33:05Z</time>
      </trkpt>
      <trkpt lat="40.8710501064" lon="-5.7182466611">
        <ele>850.42</ele>
        <time>2020-07-18T10:33:14Z</time>
      </trkpt>
      <trkpt lat="40.8716639969" lon="-5.7179815415">
        <ele>851.87</ele>
        <time>2020-07-18T10:33:25Z</time>
      </trkpt>
      <trkpt lat="40.8721902966" lon="-5.7177565712">
        <ele>852.35</ele>
        <time>2020-07-18T10:33:36Z</time>
      </trkpt>
      <trkpt lat="40.8727339469" lon="-5.7175580878">
        <ele>849.94</ele>
        <time>2020-07-18T10:33:47Z</time>
      </trkpt>
      <trkpt lat="40.8732611686" lon="-5.7173925452">
        <ele>846.58</ele>
        <time>2020-07-18T10:33:56Z</time>
      </trkpt>
      <trkpt lat="40.8739530947" lon="-5.7172052935">
        <ele>842.73</ele>
        <time>2020-07-18T10:34:05Z</time>
      </trkpt>
      <trkpt lat="40.8749022614" lon="-5.7169558480">
        <ele>839.85</ele>
        <time>2020-07-18T10:34:17Z</time>
      </trkpt>
      <trkpt lat="40.8755345922" lon="-5.7167884614">
        <ele>838.89</ele>
        <time>2020-07-18T10:34:26Z</time>
      </trkpt>
      <trkpt lat="40.8763356507" lon="-5.7166579552">
        <ele>836.00</ele>
        <time>2020-07-18T10:34:38Z</time>
      </trkpt>
      <trkpt lat="40.8771273214" lon="-5.7165929954">
        <ele>833.60</ele>
        <time>2020-07-18T10:34:50Z</time>
      </trkpt>
      <trkpt lat="40.8775680419" lon="-5.7165275328">
        <ele>834.08</ele>
        <time>2020-07-18T10:34:58Z</time>
      </trkpt>
      <trkpt lat="40.8781572897" lon="-5.7163758203">
        <ele>834.56</ele>
        <time>2020-07-18T10:35:09Z</time>
      </trkpt>
      <trkpt lat="40.8788020257" lon="-5.7161674462">
        <ele>834.56</ele>
        <time>2020-07-18T10:35:21Z</time>
      </trkpt>
      <trkpt lat="40.8794604242" lon="-5.7159289811">
        <ele>833.60</ele>
        <time>2020-07-18T10:35:33Z</time>
      </trkpt>
      <trkpt lat="40.8798865601" lon="-5.7156597544">
        <ele>832.16</ele>
        <time>2020-07-18T10:35:41Z</time>
      </trkpt>
      <trkpt lat="40.8803627361" lon="-5.7151870988">
        <ele>830.24</ele>
        <time>2020-07-18T10:35:50Z</time>
      </trkpt>
      <trkpt lat="40.8809903730" lon="-5.7145749684">
        <ele>826.87</ele>
        <time>2020-07-18T10:36:01Z</time>
      </trkpt>
      <trkpt lat="40.8814678900" lon="-5.7143615652">
        <ele>824.95</ele>
        <time>2020-07-18T10:36:08Z</time>
      </trkpt>
      <trkpt lat="40.8819845505" lon="-5.7142760698">
        <ele>823.51</ele>
        <time>2020-07-18T10:36:16Z</time>
      </trkpt>
      <trkpt lat="40.8827162907" lon="-5.7142026443">
        <ele>822.55</ele>
        <time>2020-07-18T10:36:28Z</time>
      </trkpt>
      <trkpt lat="40.8831913769" lon="-5.7141228486">
        <ele>821.58</ele>
        <time>2020-07-18T10:36:36Z</time>
      </trkpt>
      <trkpt lat="40.8836488612" lon="-5.7139463257">
        <ele>821.58</ele>
        <time>2020-07-18T10:36:44Z</time>
      </trkpt>
      <trkpt lat="40.8840082772" lon="-5.7137143984">
        <ele>822.55</ele>
        <time>2020-07-18T10:36:52Z</time>
      </trkpt>
      <trkpt lat="40.8843352553" lon="-5.7134683058">
        <ele>823.51</ele>
        <time>2020-07-18T10:37:01Z</time>
      </trkpt>
      <trkpt lat="40.8847323898" lon="-5.7131686527">
        <ele>824.47</ele>
        <time>2020-07-18T10:37:12Z</time>
      </trkpt>
      <trkpt lat="40.8851780556" lon="-5.7128529903">
        <ele>825.91</ele>
        <time>2020-07-18T10:37:24Z</time>
      </trkpt>
      <trkpt lat="40.8856274094" lon="-5.7126309536">
        <ele>825.91</ele>
        <time>2020-07-18T10:37:35Z</time>
      </trkpt>
      <trkpt lat="40.8859963808" lon="-5.7124817558">
        <ele>825.91</ele>
        <time>2020-07-18T10:37:44Z</time>
      </trkpt>
      <trkpt lat="40.8865138795" lon="-5.7122880500">
        <ele>826.39</ele>
        <time>2020-07-18T10:37:56Z</time>
      </trkpt>
      <trkpt lat="40.8869661670" lon="-5.7121168915">
        <ele>826.39</ele>
        <time>2020-07-18T10:38:06Z</time>
      </trkpt>
      <trkpt lat="40.8875404950" lon="-5.7118995488">
        <ele>824.47</ele>
        <time>2020-07-18T10:38:18Z</time>
      </trkpt>
      <trkpt lat="40.8880844805" lon="-5.7116986345">
        <ele>823.51</ele>
        <time>2020-07-18T10:38:29Z</time>
      </trkpt>
      <trkpt lat="40.8886977006" lon="-5.7114674617">
        <ele>822.55</ele>
        <time>2020-07-18T10:38:41Z</time>
      </trkpt>
      <trkpt lat="40.8892353997" lon="-5.7112599257">
        <ele>823.51</ele>
        <time>2020-07-18T10:38:52Z</time>
      </trkpt>
      <trkpt lat="40.8897561673" lon="-5.7110390626">
        <ele>823.51</ele>
        <time>2020-07-18T10:39:03Z</time>
      </trkpt>
      <trkpt lat="40.8902959619" lon="-5.7107785530">
        <ele>823.03</ele>
        <time>2020-07-18T10:39:14Z</time>
      </trkpt>
      <trkpt lat="40.8908980340" lon="-5.7104774751">
        <ele>821.58</ele>
        <time>2020-07-18T10:39:26Z</time>
      </trkpt>
      <trkpt lat="40.8913902193" lon="-5.7102302089">
        <ele>821.58</ele>
        <time>2020-07-18T10:39:36Z</time>
      </trkpt>
      <trkpt lat="40.8919030242" lon="-5.7099632453">
        <ele>820.62</ele>
        <time>2020-07-18T10:39:47Z</time>
      </trkpt>
      <trkpt lat="40.8924102131" lon="-5.7096941024">
        <ele>819.18</ele>
        <time>2020-07-18T10:39:58Z</time>
      </trkpt>
      <trkpt lat="40.8929272089" lon="-5.7094347663">
        <ele>817.26</ele>
        <time>2020-07-18T10:40:07Z</time>
      </trkpt>
      <trkpt lat="40.8934803307" lon="-5.7091495302">
        <ele>816.78</ele>
        <time>2020-07-18T10:40:17Z</time>
      </trkpt>
      <trkpt lat="40.8940241486" lon="-5.7088762801">
        <ele>817.74</ele>
        <time>2020-07-18T10:40:28Z</time>
      </trkpt>
      <trkpt lat="40.8945391327" lon="-5.7086181175">
        <ele>818.22</ele>
        <time>2020-07-18T10:40:39Z</time>
      </trkpt>
      <trkpt lat="40.8949887380" lon="-5.7083897945">
        <ele>819.18</ele>
        <time>2020-07-18T10:40:49Z</time>
      </trkpt>
      <trkpt lat="40.8954492398" lon="-5.7081896346">
        <ele>820.62</ele>
        <time>2020-07-18T10:41:00Z</time>
      </trkpt>
      <trkpt lat="40.8959052153" lon="-5.7080532610">
        <ele>821.10</ele>
        <time>2020-07-18T10:41:11Z</time>
      </trkpt>
      <trkpt lat="40.8963341173" lon="-5.7079883013">
        <ele>820.62</ele>
        <time>2020-07-18T10:41:20Z</time>
      </trkpt>
      <trkpt lat="40.8967728261" lon="-5.7079639100">
        <ele>820.62</ele>
        <time>2020-07-18T10:41:29Z</time>
      </trkpt>
      <trkpt lat="40.8972306456" lon="-5.7079566177">
        <ele>819.66</ele>
        <time>2020-07-18T10:41:38Z</time>
      </trkpt>
      <trkpt lat="40.8977482282" lon="-5.7079215813">
        <ele>817.74</ele>
        <time>2020-07-18T10:41:47Z</time>
      </trkpt>
      <trkpt lat="40.8982700855" lon="-5.7077390235">
        <ele>814.85</ele>
        <time>2020-07-18T10:41:55Z</time>
      </trkpt>
      <trkpt lat="40.8987758495" lon="-5.7073627599">
        <ele>813.89</ele>
        <time>2020-07-18T10:42:03Z</time>
      </trkpt>
      <trkpt lat="40.8991537895" lon="-5.7069588359">
        <ele>814.37</ele>
        <time>2020-07-18T10:42:11Z</time>
      </trkpt>
      <trkpt lat="40.8994940110" lon="-5.7065558340">
        <ele>815.82</ele>
        <time>2020-07-18T10:42:20Z</time>
      </trkpt>
      <trkpt lat="40.8999199793" lon="-5.7061833423">
        <ele>816.30</ele>
        <time>2020-07-18T10:42:31Z</time>
      </trkpt>
      <trkpt lat="40.9004063811" lon="-5.7059107628">
        <ele>815.82</ele>
        <time>2020-07-18T10:42:42Z</time>
      </trkpt>
      <trkpt lat="40.9008887596" lon="-5.7056599762">
        <ele>815.82</ele>
        <time>2020-07-18T10:42:52Z</time>
      </trkpt>
      <trkpt lat="40.9013834596" lon="-5.7054148894">
        <ele>815.34</ele>
        <time>2020-07-18T10:43:02Z</time>
      </trkpt>
      <trkpt lat="40.9019140340" lon="-5.7053069305">
        <ele>813.89</ele>
        <time>2020-07-18T10:43:12Z</time>
      </trkpt>
      <trkpt lat="40.9023679141" lon="-5.7053249516">
        <ele>812.45</ele>
        <time>2020-07-18T10:43:20Z</time>
      </trkpt>
      <trkpt lat="40.9029752668" lon="-5.7053974550">
        <ele>810.53</ele>
        <time>2020-07-18T10:43:30Z</time>
      </trkpt>
      <trkpt lat="40.9035445657" lon="-5.7054153923">
        <ele>810.53</ele>
        <time>2020-07-18T10:43:40Z</time>
      </trkpt>
      <trkpt lat="40.9040818457" lon="-5.7053464931">
        <ele>811.49</ele>
        <time>2020-07-18T10:43:50Z</time>
      </trkpt>
      <trkpt lat="40.9045812394" lon="-5.7052102871">
        <ele>812.45</ele>
        <time>2020-07-18T10:44:00Z</time>
      </trkpt>
      <trkpt lat="40.9050737601" lon="-5.7049739175">
        <ele>813.41</ele>
        <time>2020-07-18T10:44:11Z</time>
      </trkpt>
      <trkpt lat="40.9056511894" lon="-5.7046057004">
        <ele>813.41</ele>
        <time>2020-07-18T10:44:24Z</time>
      </trkpt>
      <trkpt lat="40.9060876351" lon="-5.7042715978">
        <ele>813.41</ele>
        <time>2020-07-18T10:44:34Z</time>
      </trkpt>
      <trkpt lat="40.9065893758" lon="-5.7038959209">
        <ele>812.93</ele>
        <time>2020-07-18T10:44:45Z</time>
      </trkpt>
      <trkpt lat="40.9071059525" lon="-5.7035144605">
        <ele>812.45</ele>
        <time>2020-07-18T10:44:56Z</time>
      </trkpt>
      <trkpt lat="40.9076374490" lon="-5.7031697128">
        <ele>810.53</ele>
        <time>2020-07-18T10:45:06Z</time>
      </trkpt>
      <trkpt lat="40.9080894012" lon="-5.7029045094">
        <ele>809.09</ele>
        <time>2020-07-18T10:45:14Z</time>
      </trkpt>
      <trkpt lat="40.9086028766" lon="-5.7026315108">
        <ele>807.64</ele>
        <time>2020-07-18T10:45:23Z</time>
      </trkpt>
      <trkpt lat="40.9092928749" lon="-5.7023042813">
        <ele>806.68</ele>
        <time>2020-07-18T10:45:35Z</time>
      </trkpt>
      <trkpt lat="40.9098324180" lon="-5.7020757068">
        <ele>805.72</ele>
        <time>2020-07-18T10:45:45Z</time>
      </trkpt>
      <trkpt lat="40.9103457257" lon="-5.7018300332">
        <ele>805.72</ele>
        <time>2020-07-18T10:45:55Z</time>
      </trkpt>
      <trkpt lat="40.9107825905" lon="-5.7015751395">
        <ele>804.28</ele>
        <time>2020-07-18T10:46:04Z</time>
      </trkpt>
      <trkpt lat="40.9111149330" lon="-5.7013390213">
        <ele>804.76</ele>
        <time>2020-07-18T10:46:13Z</time>
      </trkpt>
      <trkpt lat="40.9111855086" lon="-5.7012769114">
        <ele>804.76</ele>
        <time>2020-07-18T10:46:15Z</time>
      </trkpt>
      <trkpt lat="40.9112223890" lon="-5.7012420427">
        <ele>804.76</ele>
        <time>2020-07-18T10:46:16Z</time>
      </trkpt>
      <trkpt lat="40.9116362035" lon="-5.7008805312">
        <ele>804.76</ele>
        <time>2020-07-18T10:46:26Z</time>
      </trkpt>
      <trkpt lat="40.9120627586" lon="-5.7005105540">
        <ele>804.28</ele>
        <time>2020-07-18T10:46:36Z</time>
      </trkpt>
      <trkpt lat="40.9124929179" lon="-5.7001273334">
        <ele>803.80</ele>
        <time>2020-07-18T10:46:46Z</time>
      </trkpt>
      <trkpt lat="40.9129551798" lon="-5.6997105852">
        <ele>803.32</ele>
        <time>2020-07-18T10:46:57Z</time>
      </trkpt>
      <trkpt lat="40.9134593513" lon="-5.6992608123">
        <ele>803.32</ele>
        <time>2020-07-18T10:47:09Z</time>
      </trkpt>
      <trkpt lat="40.9138022549" lon="-5.6989526097">
        <ele>802.84</ele>
        <time>2020-07-18T10:47:17Z</time>
      </trkpt>
      <trkpt lat="40.9143332485" lon="-5.6984940358">
        <ele>802.36</ele>
        <time>2020-07-18T10:47:29Z</time>
      </trkpt>
      <trkpt lat="40.9148230031" lon="-5.6980539858">
        <ele>802.36</ele>
        <time>2020-07-18T10:47:41Z</time>
      </trkpt>
      <trkpt lat="40.9153204691" lon="-5.6976061407">
        <ele>803.32</ele>
        <time>2020-07-18T10:47:53Z</time>
      </trkpt>
      <trkpt lat="40.9157450963" lon="-5.6972394325">
        <ele>803.32</ele>
        <time>2020-07-18T10:48:03Z</time>
      </trkpt>
      <trkpt lat="40.9162299056" lon="-5.6968117878">
        <ele>803.32</ele>
        <time>2020-07-18T10:48:15Z</time>
      </trkpt>
      <trkpt lat="40.9166678600" lon="-5.6964454986">
        <ele>803.80</ele>
        <time>2020-07-18T10:48:26Z</time>
      </trkpt>
      <trkpt lat="40.9170098417" lon="-5.6962276530">
        <ele>803.80</ele>
        <time>2020-07-18T10:48:34Z</time>
      </trkpt>
      <trkpt lat="40.9174749535" lon="-5.6959539000">
        <ele>803.80</ele>
        <time>2020-07-18T10:48:44Z</time>
      </trkpt>
      <trkpt lat="40.9179789573" lon="-5.6956562586">
        <ele>803.80</ele>
        <time>2020-07-18T10:48:55Z</time>
      </trkpt>
      <trkpt lat="40.9185195062" lon="-5.6953357346">
        <ele>803.80</ele>
        <time>2020-07-18T10:49:07Z</time>
      </trkpt>
      <trkpt lat="40.9190594684" lon="-5.6950232573">
        <ele>803.80</ele>
        <time>2020-07-18T10:49:19Z</time>
      </trkpt>
      <trkpt lat="40.9195031226" lon="-5.6947610714">
        <ele>804.28</ele>
        <time>2020-07-18T10:49:29Z</time>
      </trkpt>
      <trkpt lat="40.9197614528" lon="-5.6946131308">
        <ele>804.28</ele>
        <time>2020-07-18T10:49:36Z</time>
      </trkpt>
      <trkpt lat="40.9199197870" lon="-5.6945174094">
        <ele>804.76</ele>
        <time>2020-07-18T10:49:42Z</time>
      </trkpt>
      <trkpt lat="40.9201150853" lon="-5.6944203470">
        <ele>804.76</ele>
        <time>2020-07-18T10:49:51Z</time>
      </trkpt>
      <trkpt lat="40.9203771874" lon="-5.6942708977">
        <ele>805.24</ele>
        <time>2020-07-18T10:49:58Z</time>
      </trkpt>
      <trkpt lat="40.9209201671" lon="-5.6939508766">
        <ele>804.28</ele>
        <time>2020-07-18T10:50:10Z</time>
      </trkpt>
      <trkpt lat="40.9214647394" lon="-5.6936324481">
        <ele>803.32</ele>
        <time>2020-07-18T10:50:22Z</time>
      </trkpt>
      <trkpt lat="40.9220165201" lon="-5.6933242455">
        <ele>802.36</ele>
        <time>2020-07-18T10:50:33Z</time>
      </trkpt>
      <trkpt lat="40.9225544706" lon="-5.6929565314">
        <ele>802.36</ele>
        <time>2020-07-18T10:50:44Z</time>
      </trkpt>
      <trkpt lat="40.9226651955" lon="-5.6928801723">
        <ele>802.84</ele>
        <time>2020-07-18T10:50:48Z</time>
      </trkpt>
      <trkpt lat="40.9226709791" lon="-5.6928716227">
        <ele>803.32</ele>
        <time>2020-07-18T10:50:54Z</time>
      </trkpt>
      <trkpt lat="40.9226699732" lon="-5.6928683538">
        <ele>802.36</ele>
        <time>2020-07-18T10:51:13Z</time>
      </trkpt>
      <trkpt lat="40.9226804506" lon="-5.6928674318">
        <ele>802.36</ele>
        <time>2020-07-18T10:51:19Z</time>
      </trkpt>
      <trkpt lat="40.9226965439" lon="-5.6928586308">
        <ele>802.36</ele>
        <time>2020-07-18T10:51:20Z</time>
      </trkpt>
      <trkpt lat="40.9228699654" lon="-5.6927497499">
        <ele>802.84</ele>
        <time>2020-07-18T10:51:27Z</time>
      </trkpt>
      <trkpt lat="40.9232088458" lon="-5.6925277133">
        <ele>803.32</ele>
        <time>2020-07-18T10:51:36Z</time>
      </trkpt>
      <trkpt lat="40.9236630611" lon="-5.6922659464">
        <ele>803.32</ele>
        <time>2020-07-18T10:51:47Z</time>
      </trkpt>
      <trkpt lat="40.9241627902" lon="-5.6919846497">
        <ele>803.80</ele>
        <time>2020-07-18T10:51:59Z</time>
      </trkpt>
      <trkpt lat="40.9246774390" lon="-5.6916576717">
        <ele>803.80</ele>
        <time>2020-07-18T10:52:11Z</time>
      </trkpt>
      <trkpt lat="40.9251604043" lon="-5.6913013570">
        <ele>803.32</ele>
        <time>2020-07-18T10:52:23Z</time>
      </trkpt>
      <trkpt lat="40.9254402760" lon="-5.6910447031">
        <ele>803.32</ele>
        <time>2020-07-18T10:52:30Z</time>
      </trkpt>
      <trkpt lat="40.9254737198" lon="-5.6910050567">
        <ele>803.32</ele>
        <time>2020-07-18T10:52:31Z</time>
      </trkpt>
      <trkpt lat="40.9255418647" lon="-5.6909251772">
        <ele>802.84</ele>
        <time>2020-07-18T10:52:33Z</time>
      </trkpt>
      <trkpt lat="40.9257999435" lon="-5.6906689424">
        <ele>802.84</ele>
        <time>2020-07-18T10:52:41Z</time>
      </trkpt>
      <trkpt lat="40.9261597786" lon="-5.6903083529">
        <ele>802.84</ele>
        <time>2020-07-18T10:52:51Z</time>
      </trkpt>
      <trkpt lat="40.9265223797" lon="-5.6899670418">
        <ele>801.40</ele>
        <time>2020-07-18T10:53:01Z</time>
      </trkpt>
      <trkpt lat="40.9268520400" lon="-5.6896577496">
        <ele>801.40</ele>
        <time>2020-07-18T10:53:10Z</time>
      </trkpt>
      <trkpt lat="40.9272801876" lon="-5.6892603636">
        <ele>801.40</ele>
        <time>2020-07-18T10:53:21Z</time>
      </trkpt>
      <trkpt lat="40.9275747277" lon="-5.6889762171">
        <ele>800.92</ele>
        <time>2020-07-18T10:53:29Z</time>
      </trkpt>
      <trkpt lat="40.9276090097" lon="-5.6889443658">
        <ele>800.92</ele>
        <time>2020-07-18T10:53:30Z</time>
      </trkpt>
      <trkpt lat="40.9280555137" lon="-5.6885354966">
        <ele>800.44</ele>
        <time>2020-07-18T10:53:43Z</time>
      </trkpt>
      <trkpt lat="40.9284872655" lon="-5.6881802715">
        <ele>800.44</ele>
        <time>2020-07-18T10:53:54Z</time>
      </trkpt>
      <trkpt lat="40.9288685583" lon="-5.6879016571">
        <ele>799.95</ele>
        <time>2020-07-18T10:54:05Z</time>
      </trkpt>
      <trkpt lat="40.9289466776" lon="-5.6878379546">
        <ele>800.44</ele>
        <time>2020-07-18T10:54:11Z</time>
      </trkpt>
      <trkpt lat="40.9290662874" lon="-5.6877505314">
        <ele>799.95</ele>
        <time>2020-07-18T10:54:18Z</time>
      </trkpt>
      <trkpt lat="40.9292354342" lon="-5.6876032613">
        <ele>799.47</ele>
        <time>2020-07-18T10:54:26Z</time>
      </trkpt>
      <trkpt lat="40.9292760026" lon="-5.6875669677">
        <ele>799.95</ele>
        <time>2020-07-18T10:54:31Z</time>
      </trkpt>
      <trkpt lat="40.9292703867" lon="-5.6875807140">
        <ele>799.47</ele>
        <time>2020-07-18T10:54:44Z</time>
      </trkpt>
      <trkpt lat="40.9292853903" lon="-5.6875752658">
        <ele>800.44</ele>
        <time>2020-07-18T10:54:57Z</time>
      </trkpt>
      <trkpt lat="40.9292857256" lon="-5.6875735894">
        <ele>799.95</ele>
        <time>2020-07-18T10:55:08Z</time>
      </trkpt>
      <trkpt lat="40.9292946104" lon="-5.6875718292">
        <ele>800.44</ele>
        <time>2020-07-18T10:55:18Z</time>
      </trkpt>
      <trkpt lat="40.9293060936" lon="-5.6875657942">
        <ele>800.44</ele>
        <time>2020-07-18T10:55:19Z</time>
      </trkpt>
      <trkpt lat="40.9293256234" lon="-5.6875522155">
        <ele>799.95</ele>
        <time>2020-07-18T10:55:20Z</time>
      </trkpt>
      <trkpt lat="40.9294697922" lon="-5.6874295883">
        <ele>799.95</ele>
        <time>2020-07-18T10:55:25Z</time>
      </trkpt>
      <trkpt lat="40.9298211616" lon="-5.6871285103">
        <ele>799.95</ele>
        <time>2020-07-18T10:55:35Z</time>
      </trkpt>
      <trkpt lat="40.9302360658" lon="-5.6867683399">
        <ele>799.95</ele>
        <time>2020-07-18T10:55:46Z</time>
      </trkpt>
      <trkpt lat="40.9306073841" lon="-5.6864472292">
        <ele>799.47</ele>
        <time>2020-07-18T10:55:56Z</time>
      </trkpt>
      <trkpt lat="40.9311125614" lon="-5.6860058382">
        <ele>799.95</ele>
        <time>2020-07-18T10:56:09Z</time>
      </trkpt>
      <trkpt lat="40.9316512663" lon="-5.6855295785">
        <ele>800.44</ele>
        <time>2020-07-18T10:56:23Z</time>
      </trkpt>
      <trkpt lat="40.9320050664" lon="-5.6852517184">
        <ele>800.44</ele>
        <time>2020-07-18T10:56:32Z</time>
      </trkpt>
      <trkpt lat="40.9324739501" lon="-5.6850457750">
        <ele>800.44</ele>
        <time>2020-07-18T10:56:43Z</time>
      </trkpt>
      <trkpt lat="40.9330503736" lon="-5.6848783884">
        <ele>799.95</ele>
        <time>2020-07-18T10:56:55Z</time>
      </trkpt>
      <trkpt lat="40.9335215203" lon="-5.6847467087">
        <ele>799.95</ele>
        <time>2020-07-18T10:57:05Z</time>
      </trkpt>
      <trkpt lat="40.9340211656" lon="-5.6846014503">
        <ele>800.44</ele>
        <time>2020-07-18T10:57:16Z</time>
      </trkpt>
      <trkpt lat="40.9343688469" lon="-5.6844984367">
        <ele>801.40</ele>
        <time>2020-07-18T10:57:26Z</time>
      </trkpt>
      <trkpt lat="40.9346174542" lon="-5.6844320521">
        <ele>801.40</ele>
        <time>2020-07-18T10:57:35Z</time>
      </trkpt>
      <trkpt lat="40.9348696657" lon="-5.6843590457">
        <ele>800.92</ele>
        <time>2020-07-18T10:57:45Z</time>
      </trkpt>
      <trkpt lat="40.9352372121" lon="-5.6842575409">
        <ele>800.92</ele>
        <time>2020-07-18T10:57:57Z</time>
      </trkpt>
      <trkpt lat="40.9355347697" lon="-5.6841665134">
        <ele>801.40</ele>
        <time>2020-07-18T10:58:07Z</time>
      </trkpt>
      <trkpt lat="40.9358931798" lon="-5.6840599794">
        <ele>802.36</ele>
        <time>2020-07-18T10:58:20Z</time>
      </trkpt>
      <trkpt lat="40.9362352453" lon="-5.6839470752">
        <ele>803.32</ele>
        <time>2020-07-18T10:58:32Z</time>
      </trkpt>
      <trkpt lat="40.9363438748" lon="-5.6839184090">
        <ele>804.28</ele>
        <time>2020-07-18T10:58:38Z</time>
      </trkpt>
      <trkpt lat="40.9365062322" lon="-5.6837972905">
        <ele>802.84</ele>
        <time>2020-07-18T10:58:46Z</time>
      </trkpt>
      <trkpt lat="40.9365465492" lon="-5.6837609969">
        <ele>802.36</ele>
        <time>2020-07-18T10:58:47Z</time>
      </trkpt>
      <trkpt lat="40.9365960862" lon="-5.6837242004">
        <ele>801.88</ele>
        <time>2020-07-18T10:58:48Z</time>
      </trkpt>
      <trkpt lat="40.9366487246" lon="-5.6836920138">
        <ele>801.40</ele>
        <time>2020-07-18T10:58:49Z</time>
      </trkpt>
      <trkpt lat="40.9367053024" lon="-5.6836594921">
        <ele>800.92</ele>
        <time>2020-07-18T10:58:50Z</time>
      </trkpt>
      <trkpt lat="40.9372117370" lon="-5.6833745074">
        <ele>797.07</ele>
        <time>2020-07-18T10:58:58Z</time>
      </trkpt>
      <trkpt lat="40.9378512762" lon="-5.6830256525">
        <ele>794.19</ele>
        <time>2020-07-18T10:59:07Z</time>
      </trkpt>
      <trkpt lat="40.9379066806" lon="-5.6829761993">
        <ele>794.19</ele>
        <time>2020-07-18T10:59:08Z</time>
      </trkpt>
      <trkpt lat="40.9380329121" lon="-5.6828746106">
        <ele>793.71</ele>
        <time>2020-07-18T10:59:10Z</time>
      </trkpt>
      <trkpt lat="40.9380922560" lon="-5.6828471180">
        <ele>794.19</ele>
        <time>2020-07-18T10:59:11Z</time>
      </trkpt>
      <trkpt lat="40.9383388516" lon="-5.6827933900">
        <ele>795.63</ele>
        <time>2020-07-18T10:59:16Z</time>
      </trkpt>
      <trkpt lat="40.9386385046" lon="-5.6827411707">
        <ele>798.03</ele>
        <time>2020-07-18T10:59:25Z</time>
      </trkpt>
      <trkpt lat="40.9390150197" lon="-5.6825747900">
        <ele>798.99</ele>
        <time>2020-07-18T10:59:34Z</time>
      </trkpt>
      <trkpt lat="40.9394157585" lon="-5.6823924836">
        <ele>798.51</ele>
        <time>2020-07-18T10:59:43Z</time>
      </trkpt>
      <trkpt lat="40.9394580033" lon="-5.6823638175">
        <ele>798.51</ele>
        <time>2020-07-18T10:59:44Z</time>
      </trkpt>
      <trkpt lat="40.9394927043" lon="-5.6823281106">
        <ele>798.51</ele>
        <time>2020-07-18T10:59:45Z</time>
      </trkpt>
      <trkpt lat="40.9395243041" lon="-5.6822722033">
        <ele>798.03</ele>
        <time>2020-07-18T10:59:46Z</time>
      </trkpt>
      <trkpt lat="40.9395431634" lon="-5.6822068244">
        <ele>797.55</ele>
        <time>2020-07-18T10:59:47Z</time>
      </trkpt>
      <trkpt lat="40.9396296646" lon="-5.6818538625">
        <ele>795.15</ele>
        <time>2020-07-18T10:59:51Z</time>
      </trkpt>
      <trkpt lat="40.9398863185" lon="-5.6813353579">
        <ele>792.74</ele>
        <time>2020-07-18T10:59:57Z</time>
      </trkpt>
      <trkpt lat="40.9401739016" lon="-5.6811470166">
        <ele>791.30</ele>
        <time>2020-07-18T11:00:01Z</time>
      </trkpt>
      <trkpt lat="40.9404792544" lon="-5.6810593419">
        <ele>789.38</ele>
        <time>2020-07-18T11:00:05Z</time>
      </trkpt>
      <trkpt lat="40.9408565238" lon="-5.6810177676">
        <ele>788.90</ele>
        <time>2020-07-18T11:00:11Z</time>
      </trkpt>
      <trkpt lat="40.9410722740" lon="-5.6808619481">
        <ele>789.86</ele>
        <time>2020-07-18T11:00:16Z</time>
      </trkpt>
      <trkpt lat="40.9413663112" lon="-5.6803951599">
        <ele>787.46</ele>
        <time>2020-07-18T11:00:24Z</time>
      </trkpt>
      <trkpt lat="40.9415187780" lon="-5.6801478937">
        <ele>787.46</ele>
        <time>2020-07-18T11:00:28Z</time>
      </trkpt>
      <trkpt lat="40.9418189339" lon="-5.6798541918">
        <ele>787.94</ele>
        <time>2020-07-18T11:00:36Z</time>
      </trkpt>
      <trkpt lat="40.9419129789" lon="-5.6797825266">
        <ele>787.46</ele>
        <time>2020-07-18T11:00:41Z</time>
      </trkpt>
      <trkpt lat="40.9419094585" lon="-5.6797907408">
        <ele>788.42</ele>
        <time>2020-07-18T11:00:55Z</time>
      </trkpt>
      <trkpt lat="40.9419151582" lon="-5.6797930878">
        <ele>786.98</ele>
        <time>2020-07-18T11:01:14Z</time>
      </trkpt>
      <trkpt lat="40.9419212770" lon="-5.6797945127">
        <ele>787.46</ele>
        <time>2020-07-18T11:01:32Z</time>
      </trkpt>
      <trkpt lat="40.9419229534" lon="-5.6797957700">
        <ele>787.94</ele>
        <time>2020-07-18T11:01:51Z</time>
      </trkpt>
      <trkpt lat="40.9419355262" lon="-5.6797824427">
        <ele>787.94</ele>
        <time>2020-07-18T11:02:00Z</time>
      </trkpt>
      <trkpt lat="40.9420774318" lon="-5.6796827819">
        <ele>787.94</ele>
        <time>2020-07-18T11:02:06Z</time>
      </trkpt>
      <trkpt lat="40.9423657693" lon="-5.6794379465">
        <ele>788.42</ele>
        <time>2020-07-18T11:02:15Z</time>
      </trkpt>
      <trkpt lat="40.9423930943" lon="-5.6793900859">
        <ele>788.42</ele>
        <time>2020-07-18T11:02:16Z</time>
      </trkpt>
      <trkpt lat="40.9424178209" lon="-5.6793641858">
        <ele>788.42</ele>
        <time>2020-07-18T11:02:17Z</time>
      </trkpt>
      <trkpt lat="40.9424637537" lon="-5.6793360226">
        <ele>788.42</ele>
        <time>2020-07-18T11:02:18Z</time>
      </trkpt>
      <trkpt lat="40.9425054956" lon="-5.6793309096">
        <ele>788.90</ele>
        <time>2020-07-18T11:02:19Z</time>
      </trkpt>
      <trkpt lat="40.9425417893" lon="-5.6793371122">
        <ele>789.38</ele>
        <time>2020-07-18T11:02:20Z</time>
      </trkpt>
      <trkpt lat="40.9425624926" lon="-5.6793452427">
        <ele>789.38</ele>
        <time>2020-07-18T11:02:21Z</time>
      </trkpt>
      <trkpt lat="40.9425940085" lon="-5.6793520320">
        <ele>789.86</ele>
        <time>2020-07-18T11:02:22Z</time>
      </trkpt>
      <trkpt lat="40.9426231775" lon="-5.6793567259">
        <ele>790.34</ele>
        <time>2020-07-18T11:02:23Z</time>
      </trkpt>
      <trkpt lat="40.9426446352" lon="-5.6793600786">
        <ele>790.34</ele>
        <time>2020-07-18T11:02:24Z</time>
      </trkpt>
      <trkpt lat="40.9426743910" lon="-5.6793549657">
        <ele>790.82</ele>
        <time>2020-07-18T11:02:30Z</time>
      </trkpt>
      <trkpt lat="40.9427330643" lon="-5.6793689635">
        <ele>790.82</ele>
        <time>2020-07-18T11:02:37Z</time>
      </trkpt>
      <trkpt lat="40.9428392630" lon="-5.6793773454">
        <ele>791.78</ele>
        <time>2020-07-18T11:02:43Z</time>
      </trkpt>
      <trkpt lat="40.9429808334" lon="-5.6793967076">
        <ele>793.22</ele>
        <time>2020-07-18T11:02:50Z</time>
      </trkpt>
      <trkpt lat="40.9429888800" lon="-5.6794170756">
        <ele>793.22</ele>
        <time>2020-07-18T11:02:51Z</time>
      </trkpt>
      <trkpt lat="40.9429791570" lon="-5.6794431433">
        <ele>793.22</ele>
        <time>2020-07-18T11:02:52Z</time>
      </trkpt>
      <trkpt lat="40.9429633152" lon="-5.6794572249">
        <ele>793.22</ele>
        <time>2020-07-18T11:02:53Z</time>
      </trkpt>
      <trkpt lat="40.9429355711" lon="-5.6794738211">
        <ele>793.22</ele>
        <time>2020-07-18T11:02:54Z</time>
      </trkpt>
      <trkpt lat="40.9429058153" lon="-5.6794898305">
        <ele>793.22</ele>
        <time>2020-07-18T11:02:55Z</time>
      </trkpt>
      <trkpt lat="40.9426968545" lon="-5.6796025671">
        <ele>793.71</ele>
        <time>2020-07-18T11:03:03Z</time>
      </trkpt>
      <trkpt lat="40.9426300507" lon="-5.6796407886">
        <ele>793.71</ele>
        <time>2020-07-18T11:03:10Z</time>
      </trkpt>
      <trkpt lat="40.9426297154" lon="-5.6796660181">
        <ele>794.19</ele>
        <time>2020-07-18T11:03:14Z</time>
      </trkpt>
      <trkpt lat="40.9426401090" lon="-5.6796894874">
        <ele>794.19</ele>
        <time>2020-07-18T11:03:15Z</time>
      </trkpt>
      <trkpt lat="40.9426508378" lon="-5.6797109451">
        <ele>794.19</ele>
        <time>2020-07-18T11:03:16Z</time>
      </trkpt>
      <trkpt lat="40.9427223355" lon="-5.6799622346">
        <ele>794.19</ele>
        <time>2020-07-18T11:03:23Z</time>
      </trkpt>
      <trkpt lat="40.9426392708" lon="-5.6801955868">
        <ele>794.67</ele>
        <time>2020-07-18T11:03:29Z</time>
      </trkpt>
      <trkpt lat="40.9424673580" lon="-5.6803001091">
        <ele>795.15</ele>
        <time>2020-07-18T11:03:35Z</time>
      </trkpt>
      <trkpt lat="40.9421811160" lon="-5.6803401746">
        <ele>794.67</ele>
        <time>2020-07-18T11:03:43Z</time>
      </trkpt>
      <trkpt lat="40.9420418926" lon="-5.6804685853">
        <ele>795.15</ele>
        <time>2020-07-18T11:03:48Z</time>
      </trkpt>
      <trkpt lat="40.9420386236" lon="-5.6805047113">
        <ele>795.15</ele>
        <time>2020-07-18T11:03:49Z</time>
      </trkpt>
      <trkpt lat="40.9420506936" lon="-5.6805400830">
        <ele>795.15</ele>
        <time>2020-07-18T11:03:50Z</time>
      </trkpt>
      <trkpt lat="40.9420695528" lon="-5.6805664022">
        <ele>794.67</ele>
        <time>2020-07-18T11:03:51Z</time>
      </trkpt>
      <trkpt lat="40.9420937765" lon="-5.6805903744">
        <ele>795.15</ele>
        <time>2020-07-18T11:03:52Z</time>
      </trkpt>
      <trkpt lat="40.9421129711" lon="-5.6806083955">
        <ele>795.15</ele>
        <time>2020-07-18T11:03:53Z</time>
      </trkpt>
      <trkpt lat="40.9422766697" lon="-5.6807929650">
        <ele>796.11</ele>
        <time>2020-07-18T11:04:02Z</time>
      </trkpt>
      <trkpt lat="40.9423378576" lon="-5.6808633730">
        <ele>796.11</ele>
        <time>2020-07-18T11:04:07Z</time>
      </trkpt>
      <trkpt lat="40.9423229378" lon="-5.6808873452">
        <ele>796.11</ele>
        <time>2020-07-18T11:04:10Z</time>
      </trkpt>
      <trkpt lat="40.9423103649" lon="-5.6808879320">
        <ele>796.59</ele>
        <time>2020-07-18T11:04:11Z</time>
      </trkpt>
      <trkpt lat="40.9422915056" lon="-5.6808735989">
        <ele>796.59</ele>
        <time>2020-07-18T11:04:12Z</time>
      </trkpt>
      <trkpt lat="40.9422782622" lon="-5.6808660552">
        <ele>796.11</ele>
        <time>2020-07-18T11:04:13Z</time>
      </trkpt>
      <trkpt lat="40.9422614984" lon="-5.6808685698">
        <ele>796.11</ele>
        <time>2020-07-18T11:04:14Z</time>
      </trkpt>
      <trkpt lat="40.9422463272" lon="-5.6808823999">
        <ele>795.63</ele>
        <time>2020-07-18T11:04:15Z</time>
      </trkpt>
      <trkpt lat="40.9422421362" lon="-5.6808826514">
        <ele>796.59</ele>
        <time>2020-07-18T11:04:21Z</time>
      </trkpt>
      <trkpt lat="40.9422403760" lon="-5.6808704976">
        <ele>797.07</ele>
        <time>2020-07-18T11:04:36Z</time>
      </trkpt>
      <trkpt lat="40.9422410466" lon="-5.6808710843">
        <ele>797.07</ele>
        <time>2020-07-18T11:04:48Z</time>
      </trkpt>
      <trkpt lat="40.9422397055" lon="-5.6808786280">
        <ele>798.03</ele>
        <time>2020-07-18T11:04:58Z</time>
      </trkpt>
      <trkpt lat="40.9422384482" lon="-5.6808741018">
        <ele>798.99</ele>
        <time>2020-07-18T11:05:09Z</time>
      </trkpt>
      <trkpt lat="40.9422376100" lon="-5.6808720063">
        <ele>798.99</ele>
        <time>2020-07-18T11:05:19Z</time>
      </trkpt>
      <trkpt lat="40.9422376100" lon="-5.6808742695">
        <ele>798.51</ele>
        <time>2020-07-18T11:05:27Z</time>
      </trkpt>
      <trkpt lat="40.9422455728" lon="-5.6808600202">
        <ele>799.47</ele>
        <time>2020-07-18T11:05:39Z</time>
      </trkpt>
      <trkpt lat="40.9422570560" lon="-5.6808425020">
        <ele>800.44</ele>
        <time>2020-07-18T11:05:53Z</time>
      </trkpt>
      <trkpt lat="40.9422554635" lon="-5.6808560807">
        <ele>800.44</ele>
        <time>2020-07-18T11:06:00Z</time>
      </trkpt>
      <trkpt lat="40.9422704671" lon="-5.6808559969">
        <ele>799.47</ele>
        <time>2020-07-18T11:06:12Z</time>
      </trkpt>
      <trkpt lat="40.9422808606" lon="-5.6808813103">
        <ele>800.92</ele>
        <time>2020-07-18T11:06:28Z</time>
      </trkpt>
      <trkpt lat="40.9422619175" lon="-5.6808797177">
        <ele>801.40</ele>
        <time>2020-07-18T11:06:45Z</time>
      </trkpt>
      <trkpt lat="40.9422655217" lon="-5.6808701623">
        <ele>799.95</ele>
        <time>2020-07-18T11:06:58Z</time>
      </trkpt>
      <trkpt lat="40.9422594868" lon="-5.6808684859">
        <ele>798.51</ele>
        <time>2020-07-18T11:07:13Z</time>
      </trkpt>
      <trkpt lat="40.9422725625" lon="-5.6808654685">
        <ele>798.99</ele>
        <time>2020-07-18T11:07:25Z</time>
      </trkpt>
      <trkpt lat="40.9422762506" lon="-5.6808522251">
        <ele>801.40</ele>
        <time>2020-07-18T11:07:41Z</time>
      </trkpt>
      <trkpt lat="40.9422658570" lon="-5.6808536500">
        <ele>804.28</ele>
        <time>2020-07-18T11:07:55Z</time>
      </trkpt>
      <trkpt lat="40.9422660246" lon="-5.6808561645">
        <ele>802.84</ele>
        <time>2020-07-18T11:08:13Z</time>
      </trkpt>
      <trkpt lat="40.9422557987" lon="-5.6808550749">
        <ele>801.88</ele>
        <time>2020-07-18T11:08:30Z</time>
      </trkpt>
      <trkpt lat="40.9422545414" lon="-5.6808599364">
        <ele>800.44</ele>
        <time>2020-07-18T11:08:47Z</time>
      </trkpt>
      <trkpt lat="40.9422641806" lon="-5.6808670610">
        <ele>800.44</ele>
        <time>2020-07-18T11:09:00Z</time>
      </trkpt>
      <trkpt lat="40.9422776755" lon="-5.6808510516">
        <ele>799.95</ele>
        <time>2020-07-18T11:09:19Z</time>
      </trkpt>
      <trkpt lat="40.9422891587" lon="-5.6808559131">
        <ele>801.40</ele>
        <time>2020-07-18T11:09:38Z</time>
      </trkpt>
      <trkpt lat="40.9422865603" lon="-5.6808575895">
        <ele>802.84</ele>
        <time>2020-07-18T11:09:54Z</time>
      </trkpt>
      <trkpt lat="40.9422592353" lon="-5.6808774546">
        <ele>803.32</ele>
        <time>2020-07-18T11:10:10Z</time>
      </trkpt>
      <trkpt lat="40.9422587324" lon="-5.6808793824">
        <ele>805.72</ele>
        <time>2020-07-18T11:10:30Z</time>
      </trkpt>
      <trkpt lat="40.9422513563" lon="-5.6808692403">
        <ele>805.24</ele>
        <time>2020-07-18T11:10:45Z</time>
      </trkpt>
      <trkpt lat="40.9422481712" lon="-5.6808613613">
        <ele>805.24</ele>
        <time>2020-07-18T11:10:57Z</time>
      </trkpt>
      <trkpt lat="40.9422174934" lon="-5.6809211243">
        <ele>804.76</ele>
        <time>2020-07-18T11:11:05Z</time>
      </trkpt>
      <trkpt lat="40.9422018193" lon="-5.6809415761">
        <ele>803.80</ele>
        <time>2020-07-18T11:11:13Z</time>
      </trkpt>
      <trkpt lat="40.9422123805" lon="-5.6809225492">
        <ele>805.72</ele>
        <time>2020-07-18T11:11:25Z</time>
      </trkpt>
      <trkpt lat="40.9422081895" lon="-5.6809350383">
        <ele>804.76</ele>
        <time>2020-07-18T11:11:47Z</time>
      </trkpt>
      <trkpt lat="40.9421967063" lon="-5.6809322722">
        <ele>801.40</ele>
        <time>2020-07-18T11:12:08Z</time>
      </trkpt>
      <trkpt lat="40.9422370233" lon="-5.6809471082">
        <ele>804.28</ele>
        <time>2020-07-18T11:12:32Z</time>
      </trkpt>
      <trkpt lat="40.9422539547" lon="-5.6809248962">
        <ele>803.32</ele>
        <time>2020-07-18T11:12:57Z</time>
      </trkpt>
      <trkpt lat="40.9422259592" lon="-5.6809483655">
        <ele>804.28</ele>
        <time>2020-07-18T11:13:13Z</time>
      </trkpt>
      <trkpt lat="40.9422350954" lon="-5.6809488684">
        <ele>804.76</ele>
        <time>2020-07-18T11:13:27Z</time>
      </trkpt>
      <trkpt lat="40.9422344249" lon="-5.6809331942">
        <ele>803.80</ele>
        <time>2020-07-18T11:13:39Z</time>
      </trkpt>
      <trkpt lat="40.9422325809" lon="-5.6809265725">
        <ele>802.36</ele>
        <time>2020-07-18T11:13:56Z</time>
      </trkpt>
      <trkpt lat="40.9422276355" lon="-5.6809322722">
        <ele>801.40</ele>
        <time>2020-07-18T11:14:03Z</time>
      </trkpt>
      <trkpt lat="40.9422132187" lon="-5.6809633691">
        <ele>802.36</ele>
        <time>2020-07-18T11:14:24Z</time>
      </trkpt>
      <trkpt lat="40.9422052559" lon="-5.6809554901">
        <ele>802.36</ele>
        <time>2020-07-18T11:14:40Z</time>
      </trkpt>
      <trkpt lat="40.9421936888" lon="-5.6809621956">
        <ele>801.88</ele>
        <time>2020-07-18T11:14:57Z</time>
      </trkpt>
      <trkpt lat="40.9421853907" lon="-5.6809761096">
        <ele>802.36</ele>
        <time>2020-07-18T11:15:10Z</time>
      </trkpt>
      <trkpt lat="40.9421673696" lon="-5.6809471082">
        <ele>801.88</ele>
        <time>2020-07-18T11:15:15Z</time>
      </trkpt>
      <trkpt lat="40.9421662800" lon="-5.6809393968">
        <ele>801.40</ele>
        <time>2020-07-18T11:15:25Z</time>
      </trkpt>
      <trkpt lat="40.9421692137" lon="-5.6809430011">
        <ele>800.44</ele>
        <time>2020-07-18T11:15:34Z</time>
      </trkpt>
      <trkpt lat="40.9422661085" lon="-5.6808198709">
        <ele>801.88</ele>
        <time>2020-07-18T11:15:43Z</time>
      </trkpt>
      <trkpt lat="40.9424386080" lon="-5.6806864310">
        <ele>801.40</ele>
        <time>2020-07-18T11:15:50Z</time>
      </trkpt>
      <trkpt lat="40.9426689427" lon="-5.6805273425">
        <ele>800.44</ele>
        <time>2020-07-18T11:15:59Z</time>
      </trkpt>
      <trkpt lat="40.9426961001" lon="-5.6804746203">
        <ele>799.95</ele>
        <time>2020-07-18T11:16:01Z</time>
      </trkpt>
      <trkpt lat="40.9426961839" lon="-5.6804363150">
        <ele>799.47</ele>
        <time>2020-07-18T11:16:02Z</time>
      </trkpt>
      <trkpt lat="40.9426843654" lon="-5.6804009434">
        <ele>798.99</ele>
        <time>2020-07-18T11:16:03Z</time>
      </trkpt>
      <trkpt lat="40.9426570404" lon="-5.6803615484">
        <ele>798.51</ele>
        <time>2020-07-18T11:16:04Z</time>
      </trkpt>
      <trkpt lat="40.9426142927" lon="-5.6803187169">
        <ele>798.03</ele>
        <time>2020-07-18T11:16:05Z</time>
      </trkpt>
      <trkpt lat="40.9425631631" lon="-5.6802908890">
        <ele>797.55</ele>
        <time>2020-07-18T11:16:06Z</time>
      </trkpt>
      <trkpt lat="40.9425182361" lon="-5.6802809145">
        <ele>797.55</ele>
        <time>2020-07-18T11:16:07Z</time>
      </trkpt>
      <trkpt lat="40.9424709622" lon="-5.6802712753">
        <ele>797.07</ele>
        <time>2020-07-18T11:16:08Z</time>
      </trkpt>
      <trkpt lat="40.9424218442" lon="-5.6802540924">
        <ele>797.07</ele>
        <time>2020-07-18T11:16:09Z</time>
      </trkpt>
      <trkpt lat="40.9423769172" lon="-5.6802253425">
        <ele>797.07</ele>
        <time>2020-07-18T11:16:10Z</time>
      </trkpt>
      <trkpt lat="40.9423332475" lon="-5.6801795773">
        <ele>796.59</ele>
        <time>2020-07-18T11:16:11Z</time>
      </trkpt>
      <trkpt lat="40.9423008095" lon="-5.6801268551">
        <ele>796.59</ele>
        <time>2020-07-18T11:16:12Z</time>
      </trkpt>
      <trkpt lat="40.9422750771" lon="-5.6800606381">
        <ele>796.59</ele>
        <time>2020-07-18T11:16:13Z</time>
      </trkpt>
      <trkpt lat="40.9422657732" lon="-5.6799949240">
        <ele>796.59</ele>
        <time>2020-07-18T11:16:14Z</time>
      </trkpt>
      <trkpt lat="40.9422713052" lon="-5.6799237616">
        <ele>796.59</ele>
        <time>2020-07-18T11:16:15Z</time>
      </trkpt>
      <trkpt lat="40.9423782583" lon="-5.6797068380">
        <ele>795.63</ele>
        <time>2020-07-18T11:16:19Z</time>
      </trkpt>
      <trkpt lat="40.9426551964" lon="-5.6795970351">
        <ele>795.15</ele>
        <time>2020-07-18T11:16:25Z</time>
      </trkpt>
      <trkpt lat="40.9427116066" lon="-5.6795743201">
        <ele>794.67</ele>
        <time>2020-07-18T11:16:27Z</time>
      </trkpt>
      <trkpt lat="40.9430922288" lon="-5.6793888286">
        <ele>793.71</ele>
        <time>2020-07-18T11:16:35Z</time>
      </trkpt>
      <trkpt lat="40.9435044508" lon="-5.6792135630">
        <ele>792.74</ele>
        <time>2020-07-18T11:16:45Z</time>
      </trkpt>
      <trkpt lat="40.9438803792" lon="-5.6790843979">
        <ele>792.26</ele>
        <time>2020-07-18T11:16:55Z</time>
      </trkpt>
      <trkpt lat="40.9442566428" lon="-5.6789731700">
        <ele>791.30</ele>
        <time>2020-07-18T11:17:04Z</time>
      </trkpt>
      <trkpt lat="40.9448128659" lon="-5.6788030174">
        <ele>790.34</ele>
        <time>2020-07-18T11:17:16Z</time>
      </trkpt>
      <trkpt lat="40.9448556136" lon="-5.6787963957">
        <ele>789.86</ele>
        <time>2020-07-18T11:17:17Z</time>
      </trkpt>
      <trkpt lat="40.9450837690" lon="-5.6787271611">
        <ele>789.86</ele>
        <time>2020-07-18T11:17:23Z</time>
      </trkpt>
      <trkpt lat="40.9454933088" lon="-5.6785851717">
        <ele>789.86</ele>
        <time>2020-07-18T11:17:32Z</time>
      </trkpt>
      <trkpt lat="40.9459114820" lon="-5.6784465350">
        <ele>790.34</ele>
        <time>2020-07-18T11:17:41Z</time>
      </trkpt>
      <trkpt lat="40.9463792760" lon="-5.6783038750">
        <ele>790.34</ele>
        <time>2020-07-18T11:17:52Z</time>
      </trkpt>
      <trkpt lat="40.9467749856" lon="-5.6782224029">
        <ele>790.34</ele>
        <time>2020-07-18T11:18:01Z</time>
      </trkpt>
      <trkpt lat="40.9472597949" lon="-5.6781441998">
        <ele>789.38</ele>
        <time>2020-07-18T11:18:11Z</time>
      </trkpt>
      <trkpt lat="40.9477968235" lon="-5.6780395098">
        <ele>787.46</ele>
        <time>2020-07-18T11:18:20Z</time>
      </trkpt>
      <trkpt lat="40.9485193435" lon="-5.6778173894">
        <ele>786.02</ele>
        <time>2020-07-18T11:18:31Z</time>
      </trkpt>
      <trkpt lat="40.9490997065" lon="-5.6776354183">
        <ele>785.53</ele>
        <time>2020-07-18T11:18:41Z</time>
      </trkpt>
      <trkpt lat="40.9496625513" lon="-5.6774616614">
        <ele>785.05</ele>
        <time>2020-07-18T11:18:51Z</time>
      </trkpt>
      <trkpt lat="40.9501844924" lon="-5.6772997230">
        <ele>784.57</ele>
        <time>2020-07-18T11:19:01Z</time>
      </trkpt>
      <trkpt lat="40.9508477524" lon="-5.6770903431">
        <ele>784.09</ele>
        <time>2020-07-18T11:19:14Z</time>
      </trkpt>
      <trkpt lat="40.9513995331" lon="-5.6769175921">
        <ele>784.09</ele>
        <time>2020-07-18T11:19:25Z</time>
      </trkpt>
      <trkpt lat="40.9518306982" lon="-5.6767780334">
        <ele>784.09</ele>
        <time>2020-07-18T11:19:35Z</time>
      </trkpt>
      <trkpt lat="40.9520664811" lon="-5.6766916160">
        <ele>784.09</ele>
        <time>2020-07-18T11:19:41Z</time>
      </trkpt>
      <trkpt lat="40.9520998411" lon="-5.6766575016">
        <ele>784.09</ele>
        <time>2020-07-18T11:19:42Z</time>
      </trkpt>
      <trkpt lat="40.9521154314" lon="-5.6766114011">
        <ele>783.61</ele>
        <time>2020-07-18T11:19:43Z</time>
      </trkpt>
      <trkpt lat="40.9521202929" lon="-5.6765561644">
        <ele>783.13</ele>
        <time>2020-07-18T11:19:44Z</time>
      </trkpt>
      <trkpt lat="40.9521250706" lon="-5.6764891930">
        <ele>782.65</ele>
        <time>2020-07-18T11:19:45Z</time>
      </trkpt>
      <trkpt lat="40.9521330334" lon="-5.6764233112">
        <ele>781.69</ele>
        <time>2020-07-18T11:19:46Z</time>
      </trkpt>
      <trkpt lat="40.9521653038" lon="-5.6761191320">
        <ele>780.25</ele>
        <time>2020-07-18T11:19:51Z</time>
      </trkpt>
      <trkpt lat="40.9521313570" lon="-5.6759262644">
        <ele>778.81</ele>
        <time>2020-07-18T11:19:56Z</time>
      </trkpt>
      <trkpt lat="40.9521975741" lon="-5.6758851092">
        <ele>778.81</ele>
        <time>2020-07-18T11:19:58Z</time>
      </trkpt>
      <trkpt lat="40.9527822118" lon="-5.6757088378">
        <ele>778.32</ele>
        <time>2020-07-18T11:20:10Z</time>
      </trkpt>
      <trkpt lat="40.9532634169" lon="-5.6756639946">
        <ele>777.84</ele>
        <time>2020-07-18T11:20:19Z</time>
      </trkpt>
      <trkpt lat="40.9535703622" lon="-5.6756282877">
        <ele>779.29</ele>
        <time>2020-07-18T11:20:26Z</time>
      </trkpt>
      <trkpt lat="40.9537680913" lon="-5.6756041478">
        <ele>779.77</ele>
        <time>2020-07-18T11:20:31Z</time>
      </trkpt>
      <trkpt lat="40.9541414212" lon="-5.6756943371">
        <ele>779.77</ele>
        <time>2020-07-18T11:20:40Z</time>
      </trkpt>
      <trkpt lat="40.9544720873" lon="-5.6757537648">
        <ele>779.29</ele>
        <time>2020-07-18T11:20:48Z</time>
      </trkpt>
      <trkpt lat="40.9548207745" lon="-5.6757659186">
        <ele>779.77</ele>
        <time>2020-07-18T11:20:57Z</time>
      </trkpt>
      <trkpt lat="40.9549753368" lon="-5.6757238414">
        <ele>780.25</ele>
        <time>2020-07-18T11:21:03Z</time>
      </trkpt>
      <trkpt lat="40.9550958686" lon="-5.6757495739">
        <ele>780.25</ele>
        <time>2020-07-18T11:21:09Z</time>
      </trkpt>
      <trkpt lat="40.9551169071" lon="-5.6757849455">
        <ele>780.25</ele>
        <time>2020-07-18T11:21:15Z</time>
      </trkpt>
      <trkpt lat="40.9551168233" lon="-5.6757858675">
        <ele>780.25</ele>
        <time>2020-07-18T11:21:33Z</time>
      </trkpt>
      <trkpt lat="40.9551138896" lon="-5.6757879630">
        <ele>782.17</ele>
        <time>2020-07-18T11:21:56Z</time>
      </trkpt>
      <trkpt lat="40.9551225230" lon="-5.6758220773">
        <ele>782.17</ele>
        <time>2020-07-18T11:22:16Z</time>
      </trkpt>
      <trkpt lat="40.9552197531" lon="-5.6759518292">
        <ele>782.17</ele>
        <time>2020-07-18T11:22:21Z</time>
      </trkpt>
      <trkpt lat="40.9553427994" lon="-5.6760768872">
        <ele>781.21</ele>
        <time>2020-07-18T11:22:28Z</time>
      </trkpt>
      <trkpt lat="40.9554419573" lon="-5.6761569344">
        <ele>781.69</ele>
        <time>2020-07-18T11:22:33Z</time>
      </trkpt>
      <trkpt lat="40.9554754850" lon="-5.6761647295">
        <ele>781.21</ele>
        <time>2020-07-18T11:22:34Z</time>
      </trkpt>
      <trkpt lat="40.9558110964" lon="-5.6761740334">
        <ele>781.69</ele>
        <time>2020-07-18T11:22:42Z</time>
      </trkpt>
      <trkpt lat="40.9562791418" lon="-5.6761687528">
        <ele>782.17</ele>
        <time>2020-07-18T11:22:52Z</time>
      </trkpt>
      <trkpt lat="40.9567969758" lon="-5.6760495622">
        <ele>783.13</ele>
        <time>2020-07-18T11:23:03Z</time>
      </trkpt>
      <trkpt lat="40.9571825434" lon="-5.6758529227">
        <ele>782.17</ele>
        <time>2020-07-18T11:23:12Z</time>
      </trkpt>
      <trkpt lat="40.9575084317" lon="-5.6755795050">
        <ele>782.17</ele>
        <time>2020-07-18T11:23:21Z</time>
      </trkpt>
      <trkpt lat="40.9575673565" lon="-5.6755005475">
        <ele>782.17</ele>
        <time>2020-07-18T11:23:26Z</time>
      </trkpt>
      <trkpt lat="40.9576194920" lon="-5.6752905808">
        <ele>782.17</ele>
        <time>2020-07-18T11:23:31Z</time>
      </trkpt>
      <trkpt lat="40.9576340765" lon="-5.6752326619">
        <ele>782.17</ele>
        <time>2020-07-18T11:23:32Z</time>
      </trkpt>
      <trkpt lat="40.9577111062" lon="-5.6750676222">
        <ele>782.17</ele>
        <time>2020-07-18T11:23:35Z</time>
      </trkpt>
      <trkpt lat="40.9577388503" lon="-5.6750382017">
        <ele>782.17</ele>
        <time>2020-07-18T11:23:36Z</time>
      </trkpt>
      <trkpt lat="40.9577743057" lon="-5.6750059314">
        <ele>782.17</ele>
        <time>2020-07-18T11:23:37Z</time>
      </trkpt>
      <trkpt lat="40.9578178078" lon="-5.6749766786">
        <ele>782.17</ele>
        <time>2020-07-18T11:23:38Z</time>
      </trkpt>
      <trkpt lat="40.9578597173" lon="-5.6749572325">
        <ele>782.17</ele>
        <time>2020-07-18T11:23:39Z</time>
      </trkpt>
      <trkpt lat="40.9579069074" lon="-5.6749437377">
        <ele>782.17</ele>
        <time>2020-07-18T11:23:40Z</time>
      </trkpt>
      <trkpt lat="40.9579497389" lon="-5.6749397144">
        <ele>782.17</ele>
        <time>2020-07-18T11:23:41Z</time>
      </trkpt>
      <trkpt lat="40.9579941630" lon="-5.6749410555">
        <ele>782.17</ele>
        <time>2020-07-18T11:23:42Z</time>
      </trkpt>
      <trkpt lat="40.9581298660" lon="-5.6749413908">
        <ele>781.69</ele>
        <time>2020-07-18T11:23:45Z</time>
      </trkpt>
      <trkpt lat="40.9581775591" lon="-5.6749315001">
        <ele>781.69</ele>
        <time>2020-07-18T11:23:46Z</time>
      </trkpt>
      <trkpt lat="40.9582234919" lon="-5.6749148201">
        <ele>781.21</ele>
        <time>2020-07-18T11:23:47Z</time>
      </trkpt>
      <trkpt lat="40.9582687542" lon="-5.6748933624">
        <ele>781.21</ele>
        <time>2020-07-18T11:23:48Z</time>
      </trkpt>
      <trkpt lat="40.9583115019" lon="-5.6748651154">
        <ele>781.21</ele>
        <time>2020-07-18T11:23:49Z</time>
      </trkpt>
      <trkpt lat="40.9583519865" lon="-5.6748340186">
        <ele>781.21</ele>
        <time>2020-07-18T11:23:50Z</time>
      </trkpt>
      <trkpt lat="40.9583925549" lon="-5.6748020835">
        <ele>781.21</ele>
        <time>2020-07-18T11:23:51Z</time>
      </trkpt>
      <trkpt lat="40.9586143401" lon="-5.6745466031">
        <ele>781.69</ele>
        <time>2020-07-18T11:23:59Z</time>
      </trkpt>
      <trkpt lat="40.9587633703" lon="-5.6743768696">
        <ele>782.17</ele>
        <time>2020-07-18T11:24:08Z</time>
      </trkpt>
      <trkpt lat="40.9587627836" lon="-5.6743707508">
        <ele>782.17</ele>
        <time>2020-07-18T11:24:16Z</time>
      </trkpt>
      <trkpt lat="40.9587632027" lon="-5.6743626203">
        <ele>780.73</ele>
        <time>2020-07-18T11:24:35Z</time>
      </trkpt>
      <trkpt lat="40.9587559942" lon="-5.6743648835">
        <ele>779.77</ele>
        <time>2020-07-18T11:24:48Z</time>
      </trkpt>
      <trkpt lat="40.9587654658" lon="-5.6743622012">
        <ele>779.77</ele>
        <time>2020-07-18T11:25:02Z</time>
      </trkpt>
      <trkpt lat="40.9587680642" lon="-5.6743693259">
        <ele>779.77</ele>
        <time>2020-07-18T11:25:03Z</time>
      </trkpt>
      <trkpt lat="40.9588252287" lon="-5.6743451022">
        <ele>780.25</ele>
        <time>2020-07-18T11:25:08Z</time>
      </trkpt>
      <trkpt lat="40.9589995723" lon="-5.6742100697">
        <ele>780.73</ele>
        <time>2020-07-18T11:25:17Z</time>
      </trkpt>
      <trkpt lat="40.9591978043" lon="-5.6740306132">
        <ele>781.21</ele>
        <time>2020-07-18T11:25:27Z</time>
      </trkpt>
      <trkpt lat="40.9594067652" lon="-5.6738483906">
        <ele>781.21</ele>
        <time>2020-07-18T11:25:35Z</time>
      </trkpt>
      <trkpt lat="40.9595772531" lon="-5.6736823451">
        <ele>781.69</ele>
        <time>2020-07-18T11:25:44Z</time>
      </trkpt>
      <trkpt lat="40.9597404487" lon="-5.6735408586">
        <ele>782.17</ele>
        <time>2020-07-18T11:25:52Z</time>
      </trkpt>
      <trkpt lat="40.9599691909" lon="-5.6733337417">
        <ele>781.21</ele>
        <time>2020-07-18T11:26:03Z</time>
      </trkpt>
      <trkpt lat="40.9599895589" lon="-5.6733255275">
        <ele>781.21</ele>
        <time>2020-07-18T11:26:06Z</time>
      </trkpt>
      <trkpt lat="40.9601227473" lon="-5.6732564606">
        <ele>781.69</ele>
        <time>2020-07-18T11:26:12Z</time>
      </trkpt>
      <trkpt lat="40.9603344742" lon="-5.6729984656">
        <ele>782.65</ele>
        <time>2020-07-18T11:26:20Z</time>
      </trkpt>
      <trkpt lat="40.9605217259" lon="-5.6729720626">
        <ele>782.17</ele>
        <time>2020-07-18T11:26:25Z</time>
      </trkpt>
      <trkpt lat="40.9606788028" lon="-5.6728851423">
        <ele>782.17</ele>
        <time>2020-07-18T11:26:30Z</time>
      </trkpt>
      <trkpt lat="40.9609958064" lon="-5.6726035941">
        <ele>782.65</ele>
        <time>2020-07-18T11:26:40Z</time>
      </trkpt>
      <trkpt lat="40.9610644542" lon="-5.6725475192">
        <ele>782.65</ele>
        <time>2020-07-18T11:26:42Z</time>
      </trkpt>
      <trkpt lat="40.9614941943" lon="-5.6723024324">
        <ele>784.09</ele>
        <time>2020-07-18T11:26:53Z</time>
      </trkpt>
      <trkpt lat="40.9617791791" lon="-5.6721112411">
        <ele>785.53</ele>
        <time>2020-07-18T11:27:02Z</time>
      </trkpt>
      <trkpt lat="40.9620044846" lon="-5.6718167011">
        <ele>787.94</ele>
        <time>2020-07-18T11:27:11Z</time>
      </trkpt>
      <trkpt lat="40.9621484019" lon="-5.6715637352">
        <ele>788.42</ele>
        <time>2020-07-18T11:27:18Z</time>
      </trkpt>
      <trkpt lat="40.9623157047" lon="-5.6711415388">
        <ele>789.38</ele>
        <time>2020-07-18T11:27:28Z</time>
      </trkpt>
      <trkpt lat="40.9624959994" lon="-5.6707827095">
        <ele>789.38</ele>
        <time>2020-07-18T11:27:37Z</time>
      </trkpt>
      <trkpt lat="40.9627488814" lon="-5.6704799552">
        <ele>789.86</ele>
        <time>2020-07-18T11:27:46Z</time>
      </trkpt>
      <trkpt lat="40.9629884362" lon="-5.6702041067">
        <ele>790.34</ele>
        <time>2020-07-18T11:27:55Z</time>
      </trkpt>
      <trkpt lat="40.9631333593" lon="-5.6699710898">
        <ele>792.26</ele>
        <time>2020-07-18T11:28:03Z</time>
      </trkpt>
      <trkpt lat="40.9632958844" lon="-5.6696446985">
        <ele>793.71</ele>
        <time>2020-07-18T11:28:13Z</time>
      </trkpt>
      <trkpt lat="40.9634765983" lon="-5.6693578698">
        <ele>794.19</ele>
        <time>2020-07-18T11:28:22Z</time>
      </trkpt>
      <trkpt lat="40.9636779316" lon="-5.6690675206">
        <ele>794.67</ele>
        <time>2020-07-18T11:28:32Z</time>
      </trkpt>
      <trkpt lat="40.9638755769" lon="-5.6687927619">
        <ele>795.63</ele>
        <time>2020-07-18T11:28:41Z</time>
      </trkpt>
      <trkpt lat="40.9640879743" lon="-5.6685010716">
        <ele>795.63</ele>
        <time>2020-07-18T11:28:51Z</time>
      </trkpt>
      <trkpt lat="40.9642039798" lon="-5.6683367025">
        <ele>795.63</ele>
        <time>2020-07-18T11:28:57Z</time>
      </trkpt>
      <trkpt lat="40.9642629884" lon="-5.6682693958">
        <ele>796.11</ele>
        <time>2020-07-18T11:29:00Z</time>
      </trkpt>
      <trkpt lat="40.9642567020" lon="-5.6681757700">
        <ele>797.07</ele>
        <time>2020-07-18T11:29:04Z</time>
      </trkpt>
      <trkpt lat="40.9641565382" lon="-5.6679618638">
        <ele>800.44</ele>
        <time>2020-07-18T11:29:12Z</time>
      </trkpt>
      <trkpt lat="40.9641322307" lon="-5.6679005083">
        <ele>801.88</ele>
        <time>2020-07-18T11:29:15Z</time>
      </trkpt>
      <trkpt lat="40.9641139582" lon="-5.6678512227">
        <ele>804.76</ele>
        <time>2020-07-18T11:29:21Z</time>
      </trkpt>
      <trkpt lat="40.9641194064" lon="-5.6678216346">
        <ele>807.64</ele>
        <time>2020-07-18T11:29:37Z</time>
      </trkpt>
      <trkpt lat="40.9641153831" lon="-5.6678139232">
        <ele>808.61</ele>
        <time>2020-07-18T11:29:49Z</time>
      </trkpt>
      <trkpt lat="40.9641044028" lon="-5.6677767914">
        <ele>808.13</ele>
        <time>2020-07-18T11:29:55Z</time>
      </trkpt>
      <trkpt lat="40.9640982840" lon="-5.6677671522">
        <ele>807.64</ele>
        <time>2020-07-18T11:30:04Z</time>
      </trkpt>
      <trkpt lat="40.9640780836" lon="-5.6677625421">
        <ele>807.64</ele>
        <time>2020-07-18T11:30:17Z</time>
      </trkpt>
      <trkpt lat="40.9640599787" lon="-5.6677618716">
        <ele>808.13</ele>
        <time>2020-07-18T11:30:33Z</time>
      </trkpt>
      <trkpt lat="40.9642346576" lon="-5.6678038649">
        <ele>808.61</ele>
        <time>2020-08-08T05:05:42Z</time>
      </trkpt>
      <trkpt lat="40.9641224239" lon="-5.6678108219">
        <ele>811.01</ele>
        <time>2020-08-08T05:05:56Z</time>
      </trkpt>
      <trkpt lat="40.9641309734" lon="-5.6678177789">
        <ele>811.97</ele>
        <time>2020-08-08T05:06:05Z</time>
      </trkpt>
      <trkpt lat="40.9641747270" lon="-5.6678224728">
        <ele>811.01</ele>
        <time>2020-08-08T05:06:19Z</time>
      </trkpt>
      <trkpt lat="40.9641597234" lon="-5.6678209640">
        <ele>811.01</ele>
        <time>2020-08-08T05:06:23Z</time>
      </trkpt>
      <trkpt lat="40.9640944283" lon="-5.6679125782">
        <ele>807.16</ele>
        <time>2020-08-08T05:07:00Z</time>
      </trkpt>
      <trkpt lat="40.9640950151" lon="-5.6678717583">
        <ele>812.45</ele>
        <time>2020-08-08T05:07:08Z</time>
      </trkpt>
      <trkpt lat="40.9640921652" lon="-5.6678295974">
        <ele>808.61</ele>
        <time>2020-08-08T05:07:27Z</time>
      </trkpt>
      <trkpt lat="40.9640937578" lon="-5.6678228080">
        <ele>809.09</ele>
        <time>2020-08-08T05:07:37Z</time>
      </trkpt>
      <trkpt lat="40.9640920814" lon="-5.6678061280">
        <ele>809.57</ele>
        <time>2020-08-08T05:07:50Z</time>
      </trkpt>
      <trkpt lat="40.9640886448" lon="-5.6678073015">
        <ele>808.61</ele>
        <time>2020-08-08T05:08:03Z</time>
      </trkpt>
      <trkpt lat="40.9640764073" lon="-5.6678224728">
        <ele>807.64</ele>
        <time>2020-08-08T05:08:11Z</time>
      </trkpt>
      <trkpt lat="40.9640728869" lon="-5.6678425893">
        <ele>808.61</ele>
        <time>2020-08-08T05:08:28Z</time>
      </trkpt>
      <trkpt lat="40.9640779998" lon="-5.6678448524">
        <ele>808.13</ele>
        <time>2020-08-08T05:08:41Z</time>
      </trkpt>
      <trkpt lat="40.9640737250" lon="-5.6678369734">
        <ele>807.64</ele>
        <time>2020-08-08T05:08:50Z</time>
      </trkpt>
      <trkpt lat="40.9640687797" lon="-5.6678283401">
        <ele>807.64</ele>
        <time>2020-08-08T05:09:00Z</time>
      </trkpt>
      <trkpt lat="40.9640628286" lon="-5.6678178627">
        <ele>807.16</ele>
        <time>2020-08-08T05:09:12Z</time>
      </trkpt>
      <trkpt lat="40.9640457295" lon="-5.6678053737">
        <ele>806.20</ele>
        <time>2020-08-08T05:09:28Z</time>
      </trkpt>
      <trkpt lat="40.9640418738" lon="-5.6678042002">
        <ele>806.68</ele>
        <time>2020-08-08T05:09:36Z</time>
      </trkpt>
      <trkpt lat="40.9640420415" lon="-5.6677949801">
        <ele>806.68</ele>
        <time>2020-08-08T05:09:55Z</time>
      </trkpt>
      <trkpt lat="40.9640523512" lon="-5.6677968241">
        <ele>805.72</ele>
        <time>2020-08-08T05:10:07Z</time>
      </trkpt>
      <trkpt lat="40.9640696179" lon="-5.6677771267">
        <ele>804.76</ele>
        <time>2020-08-08T05:10:15Z</time>
      </trkpt>
      <trkpt lat="40.9640567098" lon="-5.6677624583">
        <ele>790.82</ele>
        <time>2020-08-08T05:10:59Z</time>
      </trkpt>
      <trkpt lat="40.9640894830" lon="-5.6677567586">
        <ele>796.11</ele>
        <time>2020-08-08T05:11:15Z</time>
      </trkpt>
      <trkpt lat="40.9640944283" lon="-5.6677693315">
        <ele>797.55</ele>
        <time>2020-08-08T05:11:27Z</time>
      </trkpt>
      <trkpt lat="40.9640811011" lon="-5.6677721813">
        <ele>798.03</ele>
        <time>2020-08-08T05:11:38Z</time>
      </trkpt>
      <trkpt lat="40.9640674386" lon="-5.6677753665">
        <ele>797.07</ele>
        <time>2020-08-08T05:11:48Z</time>
      </trkpt>
      <trkpt lat="40.9640660137" lon="-5.6677884422">
        <ele>797.07</ele>
        <time>2020-08-08T05:11:57Z</time>
      </trkpt>
      <trkpt lat="40.9640596434" lon="-5.6677985843">
        <ele>797.07</ele>
        <time>2020-08-08T05:12:07Z</time>
      </trkpt>
      <trkpt lat="40.9640621580" lon="-5.6677930523">
        <ele>796.59</ele>
        <time>2020-08-08T05:12:13Z</time>
      </trkpt>
      <trkpt lat="40.9640636668" lon="-5.6677819882">
        <ele>796.11</ele>
        <time>2020-08-08T05:12:16Z</time>
      </trkpt>
      <trkpt lat="40.9640338272" lon="-5.6676603667">
        <ele>796.11</ele>
        <time>2020-08-08T05:12:23Z</time>
      </trkpt>
      <trkpt lat="40.9639787581" lon="-5.6675462052">
        <ele>795.63</ele>
        <time>2020-08-08T05:12:30Z</time>
      </trkpt>
      <trkpt lat="40.9639696218" lon="-5.6675284356">
        <ele>795.63</ele>
        <time>2020-08-08T05:12:31Z</time>
      </trkpt>
      <trkpt lat="40.9639179893" lon="-5.6674426049">
        <ele>795.63</ele>
        <time>2020-08-08T05:12:36Z</time>
      </trkpt>
      <trkpt lat="40.9638557956" lon="-5.6672950834">
        <ele>796.59</ele>
        <time>2020-08-08T05:12:44Z</time>
      </trkpt>
      <trkpt lat="40.9639025666" lon="-5.6671642419">
        <ele>797.07</ele>
        <time>2020-08-08T05:12:50Z</time>
      </trkpt>
      <trkpt lat="40.9639256168" lon="-5.6671165489">
        <ele>797.07</ele>
        <time>2020-08-08T05:12:52Z</time>
      </trkpt>
      <trkpt lat="40.9639365971" lon="-5.6670459732">
        <ele>798.99</ele>
        <time>2020-08-08T05:12:55Z</time>
      </trkpt>
      <trkpt lat="40.9639624134" lon="-5.6668206677">
        <ele>802.84</ele>
        <time>2020-08-08T05:13:03Z</time>
      </trkpt>
      <trkpt lat="40.9639659338" lon="-5.6667939294">
        <ele>802.84</ele>
        <time>2020-08-08T05:13:04Z</time>
      </trkpt>
      <trkpt lat="40.9639482480" lon="-5.6665939372">
        <ele>805.72</ele>
        <time>2020-08-08T05:13:12Z</time>
      </trkpt>
      <trkpt lat="40.9639838710" lon="-5.6664814521">
        <ele>805.72</ele>
        <time>2020-08-08T05:13:16Z</time>
      </trkpt>
      <trkpt lat="40.9639215097" lon="-5.6664019078">
        <ele>807.16</ele>
        <time>2020-08-08T05:13:22Z</time>
      </trkpt>
      <trkpt lat="40.9638987109" lon="-5.6663614232">
        <ele>804.76</ele>
        <time>2020-08-08T05:13:24Z</time>
      </trkpt>
      <trkpt lat="40.9637536202" lon="-5.6663322542">
        <ele>809.09</ele>
        <time>2020-08-08T05:13:31Z</time>
      </trkpt>
      <trkpt lat="40.9636235330" lon="-5.6662744191">
        <ele>811.49</ele>
        <time>2020-08-08T05:13:38Z</time>
      </trkpt>
      <trkpt lat="40.9634988103" lon="-5.6662475131">
        <ele>813.89</ele>
        <time>2020-08-08T05:13:44Z</time>
      </trkpt>
      <trkpt lat="40.9632785339" lon="-5.6661690585">
        <ele>819.66</ele>
        <time>2020-08-08T05:13:55Z</time>
      </trkpt>
      <trkpt lat="40.9630914498" lon="-5.6661575753">
        <ele>823.03</ele>
        <time>2020-08-08T05:14:03Z</time>
      </trkpt>
      <trkpt lat="40.9629117418" lon="-5.6661327649">
        <ele>824.95</ele>
        <time>2020-08-08T05:14:11Z</time>
      </trkpt>
      <trkpt lat="40.9627204668" lon="-5.6660781987">
        <ele>826.39</ele>
        <time>2020-08-08T05:14:19Z</time>
      </trkpt>
      <trkpt lat="40.9626996797" lon="-5.6660569925">
        <ele>825.43</ele>
        <time>2020-08-08T05:14:20Z</time>
      </trkpt>
      <trkpt lat="40.9626933932" lon="-5.6659392267">
        <ele>819.66</ele>
        <time>2020-08-08T05:14:24Z</time>
      </trkpt>
      <trkpt lat="40.9627538268" lon="-5.6657035276">
        <ele>817.26</ele>
        <time>2020-08-08T05:14:32Z</time>
      </trkpt>
      <trkpt lat="40.9628876019" lon="-5.6654487178">
        <ele>816.78</ele>
        <time>2020-08-08T05:14:41Z</time>
      </trkpt>
      <trkpt lat="40.9630446788" lon="-5.6653217319">
        <ele>816.30</ele>
        <time>2020-08-08T05:14:48Z</time>
      </trkpt>
      <trkpt lat="40.9632953815" lon="-5.6651261821">
        <ele>817.74</ele>
        <time>2020-08-08T05:14:57Z</time>
      </trkpt>
      <trkpt lat="40.9635334276" lon="-5.6649478152">
        <ele>818.70</ele>
        <time>2020-08-08T05:15:06Z</time>
      </trkpt>
      <trkpt lat="40.9637517761" lon="-5.6648046523">
        <ele>818.22</ele>
        <time>2020-08-08T05:15:14Z</time>
      </trkpt>
      <trkpt lat="40.9640435502" lon="-5.6646137126">
        <ele>817.26</ele>
        <time>2020-08-08T05:15:25Z</time>
      </trkpt>
      <trkpt lat="40.9641047381" lon="-5.6645330787">
        <ele>816.30</ele>
        <time>2020-08-08T05:15:30Z</time>
      </trkpt>
      <trkpt lat="40.9641811810" lon="-5.6643730681">
        <ele>813.89</ele>
        <time>2020-08-08T05:15:36Z</time>
      </trkpt>
      <trkpt lat="40.9642108530" lon="-5.6641978864">
        <ele>811.49</ele>
        <time>2020-08-08T05:15:42Z</time>
      </trkpt>
      <trkpt lat="40.9642867092" lon="-5.6640974712">
        <ele>812.45</ele>
        <time>2020-08-08T05:15:48Z</time>
      </trkpt>
      <trkpt lat="40.9643937461" lon="-5.6640980579">
        <ele>811.97</ele>
        <time>2020-08-08T05:15:53Z</time>
      </trkpt>
      <trkpt lat="40.9644210711" lon="-5.6641904265">
        <ele>811.01</ele>
        <time>2020-08-08T05:15:58Z</time>
      </trkpt>
      <trkpt lat="40.9644018766" lon="-5.6642661151">
        <ele>810.53</ele>
        <time>2020-08-08T05:16:03Z</time>
      </trkpt>
      <trkpt lat="40.9645335563" lon="-5.6641522050">
        <ele>811.01</ele>
        <time>2020-08-08T05:16:07Z</time>
      </trkpt>
      <trkpt lat="40.9647211432" lon="-5.6641155761">
        <ele>811.01</ele>
        <time>2020-08-08T05:16:17Z</time>
      </trkpt>
      <trkpt lat="40.9647539165" lon="-5.6641021650">
        <ele>809.57</ele>
        <time>2020-08-08T05:16:24Z</time>
      </trkpt>
      <trkpt lat="40.9647678304" lon="-5.6640727445">
        <ele>808.13</ele>
        <time>2020-08-08T05:16:37Z</time>
      </trkpt>
      <trkpt lat="40.9647805709" lon="-5.6640430726">
        <ele>806.20</ele>
        <time>2020-08-08T05:16:53Z</time>
      </trkpt>
      <trkpt lat="40.9648067225" lon="-5.6640456710">
        <ele>808.13</ele>
        <time>2020-08-08T05:17:09Z</time>
      </trkpt>
      <trkpt lat="40.9648177866" lon="-5.6640513707">
        <ele>810.53</ele>
        <time>2020-08-08T05:17:27Z</time>
      </trkpt>
      <trkpt lat="40.9647970833" lon="-5.6640677154">
        <ele>811.49</ele>
        <time>2020-08-08T05:17:39Z</time>
      </trkpt>
      <trkpt lat="40.9647886176" lon="-5.6640745047">
        <ele>811.01</ele>
        <time>2020-08-08T05:18:00Z</time>
      </trkpt>
      <trkpt lat="40.9648019448" lon="-5.6640719902">
        <ele>811.49</ele>
        <time>2020-08-08T05:18:14Z</time>
      </trkpt>
      <trkpt lat="40.9648026992" lon="-5.6640586630">
        <ele>814.85</ele>
        <time>2020-08-08T05:18:37Z</time>
      </trkpt>
      <trkpt lat="40.9648608696" lon="-5.6640538014">
        <ele>814.85</ele>
        <time>2020-08-08T05:18:54Z</time>
      </trkpt>
      <trkpt lat="40.9648639709" lon="-5.6640605070">
        <ele>812.93</ele>
        <time>2020-08-08T05:19:09Z</time>
      </trkpt>
      <trkpt lat="40.9648298565" lon="-5.6640829705">
        <ele>814.85</ele>
        <time>2020-08-08T05:19:21Z</time>
      </trkpt>
      <trkpt lat="40.9648216423" lon="-5.6640900951">
        <ele>813.89</ele>
        <time>2020-08-08T05:19:35Z</time>
      </trkpt>
      <trkpt lat="40.9648136795" lon="-5.6640898436">
        <ele>811.49</ele>
        <time>2020-08-08T05:19:50Z</time>
      </trkpt>
      <trkpt lat="40.9647977538" lon="-5.6641004048">
        <ele>814.85</ele>
        <time>2020-08-08T05:20:05Z</time>
      </trkpt>
      <trkpt lat="40.9647964127" lon="-5.6641005725">
        <ele>814.85</ele>
        <time>2020-08-08T05:20:20Z</time>
      </trkpt>
      <trkpt lat="40.9647760447" lon="-5.6640977226">
        <ele>815.34</ele>
        <time>2020-08-08T05:20:36Z</time>
      </trkpt>
      <trkpt lat="40.9647783916" lon="-5.6641112175">
        <ele>816.30</ele>
        <time>2020-08-08T05:20:48Z</time>
      </trkpt>
      <trkpt lat="40.9647907969" lon="-5.6640993990">
        <ele>815.82</ele>
        <time>2020-08-08T05:20:54Z</time>
      </trkpt>
      <trkpt lat="40.9648391604" lon="-5.6640965492">
        <ele>814.37</ele>
        <time>2020-08-08T05:21:01Z</time>
      </trkpt>
      <trkpt lat="40.9649878554" lon="-5.6640429888">
        <ele>812.45</ele>
        <time>2020-08-08T05:21:07Z</time>
      </trkpt>
      <trkpt lat="40.9652082995" lon="-5.6639679708">
        <ele>811.49</ele>
        <time>2020-08-08T05:21:15Z</time>
      </trkpt>
      <trkpt lat="40.9653258976" lon="-5.6639579125">
        <ele>812.45</ele>
        <time>2020-08-08T05:21:21Z</time>
      </trkpt>
      <trkpt lat="40.9653344471" lon="-5.6639667135">
        <ele>814.85</ele>
        <time>2020-08-08T05:21:28Z</time>
      </trkpt>
      <trkpt lat="40.9653937072" lon="-5.6639916915">
        <ele>814.85</ele>
        <time>2020-08-08T05:21:34Z</time>
      </trkpt>
      <trkpt lat="40.9655424021" lon="-5.6640110537">
        <ele>815.82</ele>
        <time>2020-08-08T05:21:41Z</time>
      </trkpt>
      <trkpt lat="40.9658733197" lon="-5.6640233751">
        <ele>819.66</ele>
        <time>2020-08-08T05:21:49Z</time>
      </trkpt>
      <trkpt lat="40.9661406185" lon="-5.6640168373">
        <ele>822.06</ele>
        <time>2020-08-08T05:21:56Z</time>
      </trkpt>
      <trkpt lat="40.9662653413" lon="-5.6640273146">
        <ele>822.06</ele>
        <time>2020-08-08T05:21:59Z</time>
      </trkpt>
      <trkpt lat="40.9664565325" lon="-5.6640394684">
        <ele>822.55</ele>
        <time>2020-08-08T05:22:04Z</time>
      </trkpt>
      <trkpt lat="40.9667001944" lon="-5.6640976388">
        <ele>821.10</ele>
        <time>2020-08-08T05:22:11Z</time>
      </trkpt>
      <trkpt lat="40.9669037070" lon="-5.6641220301">
        <ele>823.51</ele>
        <time>2020-08-08T05:22:17Z</time>
      </trkpt>
      <trkpt lat="40.9672048688" lon="-5.6640577409">
        <ele>826.39</ele>
        <time>2020-08-08T05:22:26Z</time>
      </trkpt>
      <trkpt lat="40.9674067050" lon="-5.6640146580">
        <ele>827.35</ele>
        <time>2020-08-08T05:22:33Z</time>
      </trkpt>
      <trkpt lat="40.9676380455" lon="-5.6639842317">
        <ele>826.39</ele>
        <time>2020-08-08T05:22:40Z</time>
      </trkpt>
      <trkpt lat="40.9678946156" lon="-5.6639254745">
        <ele>824.95</ele>
        <time>2020-08-08T05:22:48Z</time>
      </trkpt>
      <trkpt lat="40.9680300672" lon="-5.6639308389">
        <ele>823.99</ele>
        <time>2020-08-08T05:22:53Z</time>
      </trkpt>
      <trkpt lat="40.9682449792" lon="-5.6639029272">
        <ele>823.99</ele>
        <time>2020-08-08T05:23:00Z</time>
      </trkpt>
      <trkpt lat="40.9684546106" lon="-5.6638305075">
        <ele>824.95</ele>
        <time>2020-08-08T05:23:07Z</time>
      </trkpt>
      <trkpt lat="40.9686641581" lon="-5.6637617759">
        <ele>826.87</ele>
        <time>2020-08-08T05:23:14Z</time>
      </trkpt>
      <trkpt lat="40.9688326344" lon="-5.6637128256">
        <ele>828.79</ele>
        <time>2020-08-08T05:23:19Z</time>
      </trkpt>
      <trkpt lat="40.9690496419" lon="-5.6636463571">
        <ele>830.24</ele>
        <time>2020-08-08T05:23:26Z</time>
      </trkpt>
      <trkpt lat="40.9690997656" lon="-5.6636615284">
        <ele>831.68</ele>
        <time>2020-08-08T05:23:28Z</time>
      </trkpt>
      <trkpt lat="40.9693444334" lon="-5.6636204571">
        <ele>839.37</ele>
        <time>2020-08-08T05:23:36Z</time>
      </trkpt>
      <trkpt lat="40.9694968164" lon="-5.6636103150">
        <ele>843.21</ele>
        <time>2020-08-08T05:23:43Z</time>
      </trkpt>
      <trkpt lat="40.9696797933" lon="-5.6635649689">
        <ele>841.77</ele>
        <time>2020-08-08T05:23:51Z</time>
      </trkpt>
      <trkpt lat="40.9697488602" lon="-5.6635636277">
        <ele>838.41</ele>
        <time>2020-08-08T05:23:55Z</time>
      </trkpt>
      <trkpt lat="40.9698113054" lon="-5.6634525675">
        <ele>833.60</ele>
        <time>2020-08-08T05:24:00Z</time>
      </trkpt>
      <trkpt lat="40.9698815458" lon="-5.6634002645">
        <ele>831.20</ele>
        <time>2020-08-08T05:24:04Z</time>
      </trkpt>
      <trkpt lat="40.9700800292" lon="-5.6632402539">
        <ele>828.31</ele>
        <time>2020-08-08T05:24:13Z</time>
      </trkpt>
      <trkpt lat="40.9701988846" lon="-5.6633477937">
        <ele>826.87</ele>
        <time>2020-08-08T05:24:19Z</time>
      </trkpt>
      <trkpt lat="40.9703117888" lon="-5.6634897832">
        <ele>825.91</ele>
        <time>2020-08-08T05:24:24Z</time>
      </trkpt>
      <trkpt lat="40.9705505893" lon="-5.6634710077">
        <ele>827.35</ele>
        <time>2020-08-08T05:24:31Z</time>
      </trkpt>
      <trkpt lat="40.9708404355" lon="-5.6634346303">
        <ele>830.24</ele>
        <time>2020-08-08T05:24:38Z</time>
      </trkpt>
      <trkpt lat="40.9711137693" lon="-5.6633641385">
        <ele>833.12</ele>
        <time>2020-08-08T05:24:45Z</time>
      </trkpt>
      <trkpt lat="40.9714353830" lon="-5.6632907130">
        <ele>836.96</ele>
        <time>2020-08-08T05:24:54Z</time>
      </trkpt>
      <trkpt lat="40.9715716727" lon="-5.6632949878">
        <ele>839.85</ele>
        <time>2020-08-08T05:25:00Z</time>
      </trkpt>
      <trkpt lat="40.9715867601" lon="-5.6632961612">
        <ele>840.33</ele>
        <time>2020-08-08T05:25:01Z</time>
      </trkpt>
      <trkpt lat="40.9717948828" lon="-5.6633234024">
        <ele>843.21</ele>
        <time>2020-08-08T05:25:10Z</time>
      </trkpt>
      <trkpt lat="40.9719435778" lon="-5.6633112486">
        <ele>844.66</ele>
        <time>2020-08-08T05:25:19Z</time>
      </trkpt>
      <trkpt lat="40.9720185120" lon="-5.6633215584">
        <ele>844.66</ele>
        <time>2020-08-08T05:25:25Z</time>
      </trkpt>
      <trkpt lat="40.9722409677" lon="-5.6632422656">
        <ele>845.14</ele>
        <time>2020-08-08T05:25:32Z</time>
      </trkpt>
      <trkpt lat="40.9724728111" lon="-5.6632027030">
        <ele>844.18</ele>
        <time>2020-08-08T05:25:38Z</time>
      </trkpt>
      <trkpt lat="40.9725414589" lon="-5.6632013619">
        <ele>843.69</ele>
        <time>2020-08-08T05:25:40Z</time>
      </trkpt>
      <trkpt lat="40.9728100151" lon="-5.6631472148">
        <ele>845.62</ele>
        <time>2020-08-08T05:25:47Z</time>
      </trkpt>
      <trkpt lat="40.9730471391" lon="-5.6631003600">
        <ele>848.02</ele>
        <time>2020-08-08T05:25:53Z</time>
      </trkpt>
      <trkpt lat="40.9732676670" lon="-5.6630619708">
        <ele>851.38</ele>
        <time>2020-08-08T05:25:59Z</time>
      </trkpt>
      <trkpt lat="40.9735299367" lon="-5.6630242523">
        <ele>855.23</ele>
        <time>2020-08-08T05:26:05Z</time>
      </trkpt>
      <trkpt lat="40.9738336131" lon="-5.6629670877">
        <ele>859.08</ele>
        <time>2020-08-08T05:26:12Z</time>
      </trkpt>
      <trkpt lat="40.9740695637" lon="-5.6629257649">
        <ele>860.52</ele>
        <time>2020-08-08T05:26:17Z</time>
      </trkpt>
      <trkpt lat="40.9743179195" lon="-5.6628770661">
        <ele>861.48</ele>
        <time>2020-08-08T05:26:23Z</time>
      </trkpt>
      <trkpt lat="40.9743697196" lon="-5.6628639903">
        <ele>861.48</ele>
        <time>2020-08-08T05:26:24Z</time>
      </trkpt>
      <trkpt lat="40.9747121204" lon="-5.6628214940">
        <ele>858.59</ele>
        <time>2020-08-08T05:26:32Z</time>
      </trkpt>
      <trkpt lat="40.9751152899" lon="-5.6627526786">
        <ele>856.19</ele>
        <time>2020-08-08T05:26:42Z</time>
      </trkpt>
      <trkpt lat="40.9754308686" lon="-5.6625966914">
        <ele>848.02</ele>
        <time>2020-08-08T05:26:51Z</time>
      </trkpt>
      <trkpt lat="40.9757233132" lon="-5.6623781752">
        <ele>841.77</ele>
        <time>2020-08-08T05:26:58Z</time>
      </trkpt>
      <trkpt lat="40.9759487025" lon="-5.6623649318">
        <ele>836.48</ele>
        <time>2020-08-08T05:27:04Z</time>
      </trkpt>
      <trkpt lat="40.9760173503" lon="-5.6624611560">
        <ele>834.08</ele>
        <time>2020-08-08T05:27:07Z</time>
      </trkpt>
      <trkpt lat="40.9760656301" lon="-5.6626825221">
        <ele>830.72</ele>
        <time>2020-08-08T05:27:12Z</time>
      </trkpt>
      <trkpt lat="40.9762173425" lon="-5.6628121063">
        <ele>829.27</ele>
        <time>2020-08-08T05:27:17Z</time>
      </trkpt>
      <trkpt lat="40.9765634313" lon="-5.6628727913">
        <ele>828.31</ele>
        <time>2020-08-08T05:27:26Z</time>
      </trkpt>
      <trkpt lat="40.9768842906" lon="-5.6629388407">
        <ele>829.76</ele>
        <time>2020-08-08T05:27:34Z</time>
      </trkpt>
      <trkpt lat="40.9772576205" lon="-5.6629999448">
        <ele>828.79</ele>
        <time>2020-08-08T05:27:43Z</time>
      </trkpt>
      <trkpt lat="40.9776853491" lon="-5.6630752981">
        <ele>828.31</ele>
        <time>2020-08-08T05:27:54Z</time>
      </trkpt>
      <trkpt lat="40.9780224692" lon="-5.6631351449">
        <ele>829.27</ele>
        <time>2020-08-08T05:28:03Z</time>
      </trkpt>
      <trkpt lat="40.9783052746" lon="-5.6631749589">
        <ele>829.27</ele>
        <time>2020-08-08T05:28:12Z</time>
      </trkpt>
      <trkpt lat="40.9784163348" lon="-5.6631674152">
        <ele>829.27</ele>
        <time>2020-08-08T05:28:19Z</time>
      </trkpt>
      <trkpt lat="40.9785710648" lon="-5.6630649883">
        <ele>829.27</ele>
        <time>2020-08-08T05:28:26Z</time>
      </trkpt>
      <trkpt lat="40.9786885791" lon="-5.6629685126">
        <ele>829.76</ele>
        <time>2020-08-08T05:28:31Z</time>
      </trkpt>
      <trkpt lat="40.9788100328" lon="-5.6628106814">
        <ele>829.76</ele>
        <time>2020-08-08T05:28:37Z</time>
      </trkpt>
      <trkpt lat="40.9789503459" lon="-5.6627430394">
        <ele>830.72</ele>
        <time>2020-08-08T05:28:43Z</time>
      </trkpt>
      <trkpt lat="40.9790122043" lon="-5.6626568735">
        <ele>829.76</ele>
        <time>2020-08-08T05:28:49Z</time>
      </trkpt>
      <trkpt lat="40.9790346678" lon="-5.6626356672">
        <ele>828.79</ele>
        <time>2020-08-08T05:28:55Z</time>
      </trkpt>
      <trkpt lat="40.9790946823" lon="-5.6626448035">
        <ele>828.31</ele>
        <time>2020-08-08T05:28:59Z</time>
      </trkpt>
      <trkpt lat="40.9792791680" lon="-5.6626961846">
        <ele>828.79</ele>
        <time>2020-08-08T05:29:08Z</time>
      </trkpt>
      <trkpt lat="40.9793685190" lon="-5.6629071571">
        <ele>828.79</ele>
        <time>2020-08-08T05:29:14Z</time>
      </trkpt>
      <trkpt lat="40.9795183875" lon="-5.6632030383">
        <ele>829.76</ele>
        <time>2020-08-08T05:29:22Z</time>
      </trkpt>
      <trkpt lat="40.9797012806" lon="-5.6632503122">
        <ele>831.20</ele>
        <time>2020-08-08T05:29:29Z</time>
      </trkpt>
      <trkpt lat="40.9797053877" lon="-5.6632567663">
        <ele>830.24</ele>
        <time>2020-08-08T05:29:37Z</time>
      </trkpt>
      <trkpt lat="40.9797070641" lon="-5.6632796489">
        <ele>831.20</ele>
        <time>2020-08-08T05:29:59Z</time>
      </trkpt>
      <trkpt lat="40.9797130153" lon="-5.6632628012">
        <ele>833.12</ele>
        <time>2020-08-08T05:30:16Z</time>
      </trkpt>
      <trkpt lat="40.9797130153" lon="-5.6632709317">
        <ele>834.08</ele>
        <time>2020-08-08T05:30:25Z</time>
      </trkpt>
      <trkpt lat="40.9797996841" lon="-5.6632888690">
        <ele>833.60</ele>
        <time>2020-08-08T05:30:31Z</time>
      </trkpt>
      <trkpt lat="40.9801266622" lon="-5.6633456144">
        <ele>834.08</ele>
        <time>2020-08-08T05:30:42Z</time>
      </trkpt>
      <trkpt lat="40.9804557357" lon="-5.6633981690">
        <ele>835.04</ele>
        <time>2020-08-08T05:30:52Z</time>
      </trkpt>
      <trkpt lat="40.9807568137" lon="-5.6634504721">
        <ele>836.48</ele>
        <time>2020-08-08T05:31:01Z</time>
      </trkpt>
      <trkpt lat="40.9810958616" lon="-5.6635121629">
        <ele>837.93</ele>
        <time>2020-08-08T05:31:11Z</time>
      </trkpt>
      <trkpt lat="40.9814587142" lon="-5.6635755301">
        <ele>839.85</ele>
        <time>2020-08-08T05:31:22Z</time>
      </trkpt>
      <trkpt lat="40.9817387536" lon="-5.6636109855">
        <ele>840.33</ele>
        <time>2020-08-08T05:31:31Z</time>
      </trkpt>
      <trkpt lat="40.9821112454" lon="-5.6636755262">
        <ele>842.25</ele>
        <time>2020-08-08T05:31:43Z</time>
      </trkpt>
      <trkpt lat="40.9824392293" lon="-5.6637301762">
        <ele>841.29</ele>
        <time>2020-08-08T05:31:53Z</time>
      </trkpt>
      <trkpt lat="40.9828549717" lon="-5.6638079602">
        <ele>842.25</ele>
        <time>2020-08-08T05:32:05Z</time>
      </trkpt>
      <trkpt lat="40.9832238592" lon="-5.6639297493">
        <ele>844.18</ele>
        <time>2020-08-08T05:32:16Z</time>
      </trkpt>
      <trkpt lat="40.9836472291" lon="-5.6639978103">
        <ele>846.10</ele>
        <time>2020-08-08T05:32:28Z</time>
      </trkpt>
      <trkpt lat="40.9840180445" lon="-5.6640491914">
        <ele>846.10</ele>
        <time>2020-08-08T05:32:39Z</time>
      </trkpt>
      <trkpt lat="40.9844021872" lon="-5.6641248800">
        <ele>847.06</ele>
        <time>2020-08-08T05:32:50Z</time>
      </trkpt>
      <trkpt lat="40.9846508782" lon="-5.6641280651">
        <ele>847.54</ele>
        <time>2020-08-08T05:32:58Z</time>
      </trkpt>
      <trkpt lat="40.9848317597" lon="-5.6639702339">
        <ele>847.54</ele>
        <time>2020-08-08T05:33:05Z</time>
      </trkpt>
      <trkpt lat="40.9850671235" lon="-5.6638821401">
        <ele>847.06</ele>
        <time>2020-08-08T05:33:12Z</time>
      </trkpt>
      <trkpt lat="40.9852728993" lon="-5.6639855728">
        <ele>846.58</ele>
        <time>2020-08-08T05:33:18Z</time>
      </trkpt>
      <trkpt lat="40.9854158945" lon="-5.6642061006">
        <ele>847.06</ele>
        <time>2020-08-08T05:33:26Z</time>
      </trkpt>
      <trkpt lat="40.9855768271" lon="-5.6643229444">
        <ele>847.54</ele>
        <time>2020-08-08T05:33:35Z</time>
      </trkpt>
      <trkpt lat="40.9857530985" lon="-5.6643579807">
        <ele>846.10</ele>
        <time>2020-08-08T05:33:44Z</time>
      </trkpt>
      <trkpt lat="40.9859799966" lon="-5.6643893290">
        <ele>845.14</ele>
        <time>2020-08-08T05:33:55Z</time>
      </trkpt>
      <trkpt lat="40.9862027876" lon="-5.6644307356">
        <ele>844.18</ele>
        <time>2020-08-08T05:34:05Z</time>
      </trkpt>
      <trkpt lat="40.9863976669" lon="-5.6644677836">
        <ele>843.21</ele>
        <time>2020-08-08T05:34:14Z</time>
      </trkpt>
      <trkpt lat="40.9865377285" lon="-5.6645000540">
        <ele>842.73</ele>
        <time>2020-08-08T05:34:21Z</time>
      </trkpt>
      <trkpt lat="40.9868653771" lon="-5.6645475794">
        <ele>840.81</ele>
        <time>2020-08-08T05:34:29Z</time>
      </trkpt>
      <trkpt lat="40.9873413015" lon="-5.6646267045">
        <ele>838.89</ele>
        <time>2020-08-08T05:34:38Z</time>
      </trkpt>
      <trkpt lat="40.9879275318" lon="-5.6647303049">
        <ele>836.00</ele>
        <time>2020-08-08T05:34:47Z</time>
      </trkpt>
      <trkpt lat="40.9886434302" lon="-5.6648568716">
        <ele>832.64</ele>
        <time>2020-08-08T05:34:56Z</time>
      </trkpt>
      <trkpt lat="40.9895563871" lon="-5.6650157087">
        <ele>828.79</ele>
        <time>2020-08-08T05:35:06Z</time>
      </trkpt>
      <trkpt lat="40.9907130897" lon="-5.6652143598">
        <ele>825.91</ele>
        <time>2020-08-08T05:35:19Z</time>
      </trkpt>
      <trkpt lat="40.9914351068" lon="-5.6653421838">
        <ele>823.99</ele>
        <time>2020-08-08T05:35:28Z</time>
      </trkpt>
      <trkpt lat="40.9921593033" lon="-5.6654739473">
        <ele>822.55</ele>
        <time>2020-08-08T05:35:38Z</time>
      </trkpt>
      <trkpt lat="40.9923584573" lon="-5.6654902082">
        <ele>822.06</ele>
        <time>2020-08-08T05:35:41Z</time>
      </trkpt>
      <trkpt lat="40.9924136940" lon="-5.6654726062">
        <ele>822.06</ele>
        <time>2020-08-08T05:35:42Z</time>
      </trkpt>
      <trkpt lat="40.9924620576" lon="-5.6654431857">
        <ele>822.06</ele>
        <time>2020-08-08T05:35:43Z</time>
      </trkpt>
      <trkpt lat="40.9926421847" lon="-5.6653905474">
        <ele>821.58</ele>
        <time>2020-08-08T05:35:48Z</time>
      </trkpt>
      <trkpt lat="40.9928255808" lon="-5.6655352190">
        <ele>821.10</ele>
        <time>2020-08-08T05:35:54Z</time>
      </trkpt>
      <trkpt lat="40.9929317795" lon="-5.6656005140">
        <ele>821.10</ele>
        <time>2020-08-08T05:35:57Z</time>
      </trkpt>
      <trkpt lat="40.9929723479" lon="-5.6656101532">
        <ele>821.58</ele>
        <time>2020-08-08T05:35:58Z</time>
      </trkpt>
      <trkpt lat="40.9932585061" lon="-5.6656566728">
        <ele>821.10</ele>
        <time>2020-08-08T05:36:06Z</time>
      </trkpt>
      <trkpt lat="40.9932737611" lon="-5.6656494644">
        <ele>821.10</ele>
        <time>2020-08-08T05:36:07Z</time>
      </trkpt>
      <trkpt lat="40.9932876751" lon="-5.6656425074">
        <ele>820.62</ele>
        <time>2020-08-08T05:36:08Z</time>
      </trkpt>
      <trkpt lat="40.9932886809" lon="-5.6656398252">
        <ele>821.10</ele>
        <time>2020-08-08T05:36:13Z</time>
      </trkpt>
      <trkpt lat="40.9933014214" lon="-5.6656386517">
        <ele>820.62</ele>
        <time>2020-08-08T05:36:22Z</time>
      </trkpt>
      <trkpt lat="40.9933337756" lon="-5.6656429265">
        <ele>820.62</ele>
        <time>2020-08-08T05:36:24Z</time>
      </trkpt>
      <trkpt lat="40.9933564905" lon="-5.6656531524">
        <ele>820.62</ele>
        <time>2020-08-08T05:36:25Z</time>
      </trkpt>
      <trkpt lat="40.9935703967" lon="-5.6657144241">
        <ele>821.10</ele>
        <time>2020-08-08T05:36:32Z</time>
      </trkpt>
      <trkpt lat="40.9939371888" lon="-5.6657807250">
        <ele>820.62</ele>
        <time>2020-08-08T05:36:41Z</time>
      </trkpt>
      <trkpt lat="40.9943092614" lon="-5.6658526417">
        <ele>820.14</ele>
        <time>2020-08-08T05:36:49Z</time>
      </trkpt>
      <trkpt lat="40.9945602994" lon="-5.6658959761">
        <ele>820.14</ele>
        <time>2020-08-08T05:36:56Z</time>
      </trkpt>
      <trkpt lat="40.9950421751" lon="-5.6659811363">
        <ele>819.18</ele>
        <time>2020-08-08T05:37:06Z</time>
      </trkpt>
      <trkpt lat="40.9954896010" lon="-5.6660567410">
        <ele>818.22</ele>
        <time>2020-08-08T05:37:15Z</time>
      </trkpt>
      <trkpt lat="40.9959169943" lon="-5.6661261432">
        <ele>817.26</ele>
        <time>2020-08-08T05:37:24Z</time>
      </trkpt>
      <trkpt lat="40.9961899091" lon="-5.6661832239">
        <ele>816.78</ele>
        <time>2020-08-08T05:37:31Z</time>
      </trkpt>
      <trkpt lat="40.9963233490" lon="-5.6662305817">
        <ele>817.26</ele>
        <time>2020-08-08T05:37:37Z</time>
      </trkpt>
      <trkpt lat="40.9964636620" lon="-5.6661598384">
        <ele>818.22</ele>
        <time>2020-08-08T05:37:43Z</time>
      </trkpt>
      <trkpt lat="40.9965868760" lon="-5.6660385523">
        <ele>817.74</ele>
        <time>2020-08-08T05:37:47Z</time>
      </trkpt>
      <trkpt lat="40.9966189787" lon="-5.6660253089">
        <ele>817.26</ele>
        <time>2020-08-08T05:37:48Z</time>
      </trkpt>
      <trkpt lat="40.9966654144" lon="-5.6660197768">
        <ele>816.78</ele>
        <time>2020-08-08T05:37:49Z</time>
      </trkpt>
      <trkpt lat="40.9967090003" lon="-5.6660299189">
        <ele>816.78</ele>
        <time>2020-08-08T05:37:50Z</time>
      </trkpt>
      <trkpt lat="40.9967506584" lon="-5.6660507899">
        <ele>816.30</ele>
        <time>2020-08-08T05:37:51Z</time>
      </trkpt>
      <trkpt lat="40.9967899695" lon="-5.6660822220">
        <ele>816.30</ele>
        <time>2020-08-08T05:37:52Z</time>
      </trkpt>
      <trkpt lat="40.9968262631" lon="-5.6661226228">
        <ele>816.30</ele>
        <time>2020-08-08T05:37:53Z</time>
      </trkpt>
      <trkpt lat="40.9968608804" lon="-5.6661602575">
        <ele>816.30</ele>
        <time>2020-08-08T05:37:54Z</time>
      </trkpt>
      <trkpt lat="40.9968980122" lon="-5.6661938690">
        <ele>815.82</ele>
        <time>2020-08-08T05:37:55Z</time>
      </trkpt>
      <trkpt lat="40.9972156025" lon="-5.6663542986">
        <ele>814.85</ele>
        <time>2020-08-08T05:38:02Z</time>
      </trkpt>
      <trkpt lat="40.9978437424" lon="-5.6664757524">
        <ele>812.93</ele>
        <time>2020-08-08T05:38:14Z</time>
      </trkpt>
      <trkpt lat="40.9980742447" lon="-5.6664763391">
        <ele>812.45</ele>
        <time>2020-08-08T05:38:18Z</time>
      </trkpt>
      <trkpt lat="40.9981309064" lon="-5.6664496008">
        <ele>812.45</ele>
        <time>2020-08-08T05:38:19Z</time>
      </trkpt>
      <trkpt lat="40.9981773421" lon="-5.6664117146">
        <ele>812.93</ele>
        <time>2020-08-08T05:38:20Z</time>
      </trkpt>
      <trkpt lat="40.9982288908" lon="-5.6663564779">
        <ele>812.93</ele>
        <time>2020-08-08T05:38:21Z</time>
      </trkpt>
      <trkpt lat="40.9982672799" lon="-5.6663086172">
        <ele>812.93</ele>
        <time>2020-08-08T05:38:22Z</time>
      </trkpt>
      <trkpt lat="40.9983056691" lon="-5.6662718207">
        <ele>812.93</ele>
        <time>2020-08-08T05:38:23Z</time>
      </trkpt>
      <trkpt lat="40.9983457346" lon="-5.6662375387">
        <ele>812.93</ele>
        <time>2020-08-08T05:38:24Z</time>
      </trkpt>
      <trkpt lat="40.9983850457" lon="-5.6662074476">
        <ele>812.93</ele>
        <time>2020-08-08T05:38:25Z</time>
      </trkpt>
      <trkpt lat="40.9984447248" lon="-5.6661719084">
        <ele>812.93</ele>
        <time>2020-08-08T05:38:26Z</time>
      </trkpt>
      <trkpt lat="40.9984786715" lon="-5.6661569886">
        <ele>812.93</ele>
        <time>2020-08-08T05:38:27Z</time>
      </trkpt>
      <trkpt lat="40.9985300526" lon="-5.6661387999">
        <ele>812.93</ele>
        <time>2020-08-08T05:38:28Z</time>
      </trkpt>
      <trkpt lat="40.9985794220" lon="-5.6661296636">
        <ele>812.93</ele>
        <time>2020-08-08T05:38:29Z</time>
      </trkpt>
      <trkpt lat="40.9986279532" lon="-5.6661288254">
        <ele>813.41</ele>
        <time>2020-08-08T05:38:30Z</time>
      </trkpt>
      <trkpt lat="40.9986917395" lon="-5.6661376264">
        <ele>813.41</ele>
        <time>2020-08-08T05:38:31Z</time>
      </trkpt>
      <trkpt lat="40.9987318050" lon="-5.6661512051">
        <ele>813.41</ele>
        <time>2020-08-08T05:38:32Z</time>
      </trkpt>
      <trkpt lat="40.9987781569" lon="-5.6661714055">
        <ele>813.41</ele>
        <time>2020-08-08T05:38:33Z</time>
      </trkpt>
      <trkpt lat="40.9988199826" lon="-5.6661968865">
        <ele>813.41</ele>
        <time>2020-08-08T05:38:34Z</time>
      </trkpt>
      <trkpt lat="40.9988609701" lon="-5.6662284024">
        <ele>813.41</ele>
        <time>2020-08-08T05:38:35Z</time>
      </trkpt>
      <trkpt lat="40.9989018738" lon="-5.6662664562">
        <ele>813.41</ele>
        <time>2020-08-08T05:38:36Z</time>
      </trkpt>
      <trkpt lat="40.9989374131" lon="-5.6663062703">
        <ele>813.41</ele>
        <time>2020-08-08T05:38:37Z</time>
      </trkpt>
      <trkpt lat="40.9989711083" lon="-5.6663522031">
        <ele>813.41</ele>
        <time>2020-08-08T05:38:38Z</time>
      </trkpt>
      <trkpt lat="40.9990000259" lon="-5.6663985550">
        <ele>813.41</ele>
        <time>2020-08-08T05:38:39Z</time>
      </trkpt>
      <trkpt lat="40.9990281053" lon="-5.6664516963">
        <ele>813.89</ele>
        <time>2020-08-08T05:38:40Z</time>
      </trkpt>
      <trkpt lat="40.9990524128" lon="-5.6665021554">
        <ele>813.89</ele>
        <time>2020-08-08T05:38:41Z</time>
      </trkpt>
      <trkpt lat="40.9991405904" lon="-5.6667127926">
        <ele>813.41</ele>
        <time>2020-08-08T05:38:45Z</time>
      </trkpt>
      <trkpt lat="40.9991801530" lon="-5.6667507626">
        <ele>813.41</ele>
        <time>2020-08-08T05:38:46Z</time>
      </trkpt>
      <trkpt lat="40.9992174525" lon="-5.6667687837">
        <ele>813.41</ele>
        <time>2020-08-08T05:38:47Z</time>
      </trkpt>
      <trkpt lat="40.9992637206" lon="-5.6667840388">
        <ele>813.41</ele>
        <time>2020-08-08T05:38:48Z</time>
      </trkpt>
      <trkpt lat="40.9993122518" lon="-5.6667935941">
        <ele>813.41</ele>
        <time>2020-08-08T05:38:49Z</time>
      </trkpt>
      <trkpt lat="40.9993602801" lon="-5.6668001320">
        <ele>813.41</ele>
        <time>2020-08-08T05:38:50Z</time>
      </trkpt>
      <trkpt lat="40.9996767808" lon="-5.6668339949">
        <ele>814.37</ele>
        <time>2020-08-08T05:38:57Z</time>
      </trkpt>
      <trkpt lat="40.9997165948" lon="-5.6668414548">
        <ele>814.37</ele>
        <time>2020-08-08T05:38:58Z</time>
      </trkpt>
      <trkpt lat="40.9997572470" lon="-5.6668488309">
        <ele>814.85</ele>
        <time>2020-08-08T05:38:59Z</time>
      </trkpt>
      <trkpt lat="41.0001744144" lon="-5.6669004634">
        <ele>816.30</ele>
        <time>2020-08-08T05:39:09Z</time>
      </trkpt>
      <trkpt lat="41.0005650111" lon="-5.6669870485">
        <ele>816.78</ele>
        <time>2020-08-08T05:39:18Z</time>
      </trkpt>
      <trkpt lat="41.0010804981" lon="-5.6671173032">
        <ele>817.26</ele>
        <time>2020-08-08T05:39:29Z</time>
      </trkpt>
      <trkpt lat="41.0015515611" lon="-5.6672018766">
        <ele>816.30</ele>
        <time>2020-08-08T05:39:39Z</time>
      </trkpt>
      <trkpt lat="41.0018378869" lon="-5.6672225799">
        <ele>815.34</ele>
        <time>2020-08-08T05:39:45Z</time>
      </trkpt>
      <trkpt lat="41.0018843226" lon="-5.6672108453">
        <ele>815.34</ele>
        <time>2020-08-08T05:39:46Z</time>
      </trkpt>
      <trkpt lat="41.0019320156" lon="-5.6671895552">
        <ele>815.34</ele>
        <time>2020-08-08T05:39:47Z</time>
      </trkpt>
      <trkpt lat="41.0019817203" lon="-5.6671583746">
        <ele>814.85</ele>
        <time>2020-08-08T05:39:48Z</time>
      </trkpt>
      <trkpt lat="41.0020263959" lon="-5.6671251822">
        <ele>814.85</ele>
        <time>2020-08-08T05:39:49Z</time>
      </trkpt>
      <trkpt lat="41.0021283198" lon="-5.6670618989">
        <ele>814.85</ele>
        <time>2020-08-08T05:39:51Z</time>
      </trkpt>
      <trkpt lat="41.0021778569" lon="-5.6670452189">
        <ele>814.85</ele>
        <time>2020-08-08T05:39:52Z</time>
      </trkpt>
      <trkpt lat="41.0022217780" lon="-5.6670382619">
        <ele>814.85</ele>
        <time>2020-08-08T05:39:53Z</time>
      </trkpt>
      <trkpt lat="41.0022665374" lon="-5.6670432072">
        <ele>814.37</ele>
        <time>2020-08-08T05:39:54Z</time>
      </trkpt>
      <trkpt lat="41.0023097880" lon="-5.6670656707">
        <ele>814.37</ele>
        <time>2020-08-08T05:39:55Z</time>
      </trkpt>
      <trkpt lat="41.0023454949" lon="-5.6670974381">
        <ele>814.37</ele>
        <time>2020-08-08T05:39:56Z</time>
      </trkpt>
      <trkpt lat="41.0023812018" lon="-5.6671364978">
        <ele>814.37</ele>
        <time>2020-08-08T05:39:57Z</time>
      </trkpt>
      <trkpt lat="41.0024162382" lon="-5.6671774015">
        <ele>814.37</ele>
        <time>2020-08-08T05:39:58Z</time>
      </trkpt>
      <trkpt lat="41.0025751591" lon="-5.6673235819">
        <ele>813.41</ele>
        <time>2020-08-08T05:40:02Z</time>
      </trkpt>
      <trkpt lat="41.0026188288" lon="-5.6673479732">
        <ele>813.41</ele>
        <time>2020-08-08T05:40:03Z</time>
      </trkpt>
      <trkpt lat="41.0030235071" lon="-5.6674580276">
        <ele>812.93</ele>
        <time>2020-08-08T05:40:11Z</time>
      </trkpt>
      <trkpt lat="41.0035765450" lon="-5.6675547548">
        <ele>812.45</ele>
        <time>2020-08-08T05:40:22Z</time>
      </trkpt>
      <trkpt lat="41.0041403119" lon="-5.6676493865">
        <ele>811.49</ele>
        <time>2020-08-08T05:40:33Z</time>
      </trkpt>
      <trkpt lat="41.0046608280" lon="-5.6677395757">
        <ele>811.01</ele>
        <time>2020-08-08T05:40:43Z</time>
      </trkpt>
      <trkpt lat="41.0051453859" lon="-5.6678311061">
        <ele>810.53</ele>
        <time>2020-08-08T05:40:53Z</time>
      </trkpt>
      <trkpt lat="41.0056983400" lon="-5.6679259893">
        <ele>810.05</ele>
        <time>2020-08-08T05:41:04Z</time>
      </trkpt>
      <trkpt lat="41.0061859991" lon="-5.6680105627">
        <ele>809.09</ele>
        <time>2020-08-08T05:41:14Z</time>
      </trkpt>
      <trkpt lat="41.0062323511" lon="-5.6680185255">
        <ele>809.09</ele>
        <time>2020-08-08T05:41:15Z</time>
      </trkpt>
      <trkpt lat="41.0066567268" lon="-5.6680932920">
        <ele>808.61</ele>
        <time>2020-08-08T05:41:24Z</time>
      </trkpt>
      <trkpt lat="41.0071836133" lon="-5.6681824755">
        <ele>808.61</ele>
        <time>2020-08-08T05:41:35Z</time>
      </trkpt>
      <trkpt lat="41.0075821728" lon="-5.6682493631">
        <ele>809.09</ele>
        <time>2020-08-08T05:41:44Z</time>
      </trkpt>
      <trkpt lat="41.0077704303" lon="-5.6683198549">
        <ele>809.57</ele>
        <time>2020-08-08T05:41:50Z</time>
      </trkpt>
      <trkpt lat="41.0080293473" lon="-5.6684812065">
        <ele>810.05</ele>
        <time>2020-08-08T05:41:58Z</time>
      </trkpt>
      <trkpt lat="41.0081993323" lon="-5.6686108746">
        <ele>810.53</ele>
        <time>2020-08-08T05:42:04Z</time>
      </trkpt>
      <trkpt lat="41.0083606839" lon="-5.6687052548">
        <ele>811.49</ele>
        <time>2020-08-08T05:42:10Z</time>
      </trkpt>
      <trkpt lat="41.0086563975" lon="-5.6688118726">
        <ele>813.41</ele>
        <time>2020-08-08T05:42:20Z</time>
      </trkpt>
      <trkpt lat="41.0089986306" lon="-5.6689113658">
        <ele>813.41</ele>
        <time>2020-08-08T05:42:30Z</time>
      </trkpt>
      <trkpt lat="41.0094038118" lon="-5.6690458115">
        <ele>812.93</ele>
        <time>2020-08-08T05:42:40Z</time>
      </trkpt>
      <trkpt lat="41.0095621459" lon="-5.6691122800">
        <ele>812.93</ele>
        <time>2020-08-08T05:42:44Z</time>
      </trkpt>
      <trkpt lat="41.0099921376" lon="-5.6692480668">
        <ele>812.93</ele>
        <time>2020-08-08T05:42:55Z</time>
      </trkpt>
      <trkpt lat="41.0103118233" lon="-5.6693324726">
        <ele>812.93</ele>
        <time>2020-08-08T05:43:04Z</time>
      </trkpt>
      <trkpt lat="41.0107281525" lon="-5.6695102528">
        <ele>812.45</ele>
        <time>2020-08-08T05:43:15Z</time>
      </trkpt>
      <trkpt lat="41.0109786037" lon="-5.6696032919">
        <ele>812.45</ele>
        <time>2020-08-08T05:43:22Z</time>
      </trkpt>
      <trkpt lat="41.0113642551" lon="-5.6697304454">
        <ele>810.53</ele>
        <time>2020-08-08T05:43:32Z</time>
      </trkpt>
      <trkpt lat="41.0117231682" lon="-5.6698182039">
        <ele>807.64</ele>
        <time>2020-08-08T05:43:39Z</time>
      </trkpt>
      <trkpt lat="41.0122430138" lon="-5.6698982511">
        <ele>807.64</ele>
        <time>2020-08-08T05:43:48Z</time>
      </trkpt>
      <trkpt lat="41.0126416571" lon="-5.6699760351">
        <ele>807.64</ele>
        <time>2020-08-08T05:43:57Z</time>
      </trkpt>
      <trkpt lat="41.0130641051" lon="-5.6700586807">
        <ele>808.13</ele>
        <time>2020-08-08T05:44:08Z</time>
      </trkpt>
      <trkpt lat="41.0133785103" lon="-5.6701707467">
        <ele>809.09</ele>
        <time>2020-08-08T05:44:17Z</time>
      </trkpt>
      <trkpt lat="41.0138720367" lon="-5.6702870876">
        <ele>809.09</ele>
        <time>2020-08-08T05:44:31Z</time>
      </trkpt>
      <trkpt lat="41.0142417625" lon="-5.6703712419">
        <ele>810.05</ele>
        <time>2020-08-08T05:44:42Z</time>
      </trkpt>
      <trkpt lat="41.0145606939" lon="-5.6704343576">
        <ele>810.53</ele>
        <time>2020-08-08T05:44:52Z</time>
      </trkpt>
      <trkpt lat="41.0148985684" lon="-5.6704799552">
        <ele>811.49</ele>
        <time>2020-08-08T05:45:02Z</time>
      </trkpt>
      <trkpt lat="41.0152204335" lon="-5.6705160812">
        <ele>812.93</ele>
        <time>2020-08-08T05:45:12Z</time>
      </trkpt>
      <trkpt lat="41.0154981259" lon="-5.6705356948">
        <ele>813.89</ele>
        <time>2020-08-08T05:45:21Z</time>
      </trkpt>
      <trkpt lat="41.0158237629" lon="-5.6705633551">
        <ele>815.82</ele>
        <time>2020-08-08T05:45:32Z</time>
      </trkpt>
      <trkpt lat="41.0161369946" lon="-5.6706478447">
        <ele>817.74</ele>
        <time>2020-08-08T05:45:42Z</time>
      </trkpt>
      <trkpt lat="41.0165289324" lon="-5.6707402971">
        <ele>818.22</ele>
        <time>2020-08-08T05:45:53Z</time>
      </trkpt>
      <trkpt lat="41.0169158410" lon="-5.6708495133">
        <ele>818.70</ele>
        <time>2020-08-08T05:46:03Z</time>
      </trkpt>
      <trkpt lat="41.0172822140" lon="-5.6709196698">
        <ele>818.70</ele>
        <time>2020-08-08T05:46:12Z</time>
      </trkpt>
      <trkpt lat="41.0174481757" lon="-5.6710274611">
        <ele>818.22</ele>
        <time>2020-08-08T05:46:17Z</time>
      </trkpt>
      <trkpt lat="41.0177376028" lon="-5.6710822787">
        <ele>818.22</ele>
        <time>2020-08-08T05:46:25Z</time>
      </trkpt>
      <trkpt lat="41.0179619864" lon="-5.6710684486">
        <ele>820.62</ele>
        <time>2020-08-08T05:46:31Z</time>
      </trkpt>
      <trkpt lat="41.0183084942" lon="-5.6711052451">
        <ele>821.10</ele>
        <time>2020-08-08T05:46:41Z</time>
      </trkpt>
      <trkpt lat="41.0186269227" lon="-5.6711025629">
        <ele>821.10</ele>
        <time>2020-08-08T05:46:50Z</time>
      </trkpt>
      <trkpt lat="41.0189838242" lon="-5.6711699534">
        <ele>821.10</ele>
        <time>2020-08-08T05:47:00Z</time>
      </trkpt>
      <trkpt lat="41.0191833973" lon="-5.6712046545">
        <ele>821.10</ele>
        <time>2020-08-08T05:47:06Z</time>
      </trkpt>
      <trkpt lat="41.0194046795" lon="-5.6711905729">
        <ele>822.06</ele>
        <time>2020-08-08T05:47:12Z</time>
      </trkpt>
      <trkpt lat="41.0196487606" lon="-5.6711052451">
        <ele>821.10</ele>
        <time>2020-08-08T05:47:19Z</time>
      </trkpt>
      <trkpt lat="41.0198606551" lon="-5.6710308976">
        <ele>822.06</ele>
        <time>2020-08-08T05:47:25Z</time>
      </trkpt>
      <trkpt lat="41.0200914089" lon="-5.6710266229">
        <ele>823.03</ele>
        <time>2020-08-08T05:47:32Z</time>
      </trkpt>
      <trkpt lat="41.0201581288" lon="-5.6710282154">
        <ele>823.51</ele>
        <time>2020-08-08T05:47:35Z</time>
      </trkpt>
      <trkpt lat="41.0202146228" lon="-5.6711226795">
        <ele>823.03</ele>
        <time>2020-08-08T05:47:39Z</time>
      </trkpt>
      <trkpt lat="41.0202451330" lon="-5.6713669281">
        <ele>820.14</ele>
        <time>2020-08-08T05:47:47Z</time>
      </trkpt>
      <trkpt lat="41.0203919001" lon="-5.6714273617">
        <ele>819.66</ele>
        <time>2020-08-08T05:47:53Z</time>
      </trkpt>
      <trkpt lat="41.0204513278" lon="-5.6715247594">
        <ele>819.66</ele>
        <time>2020-08-08T05:47:57Z</time>
      </trkpt>
      <trkpt lat="41.0204504058" lon="-5.6715582870">
        <ele>819.66</ele>
        <time>2020-08-08T05:47:58Z</time>
      </trkpt>
      <trkpt lat="41.0203767288" lon="-5.6718986761">
        <ele>823.99</ele>
        <time>2020-08-08T05:48:09Z</time>
      </trkpt>
      <trkpt lat="41.0203320533" lon="-5.6721403264">
        <ele>830.24</ele>
        <time>2020-08-08T05:48:16Z</time>
      </trkpt>
      <trkpt lat="41.0202587955" lon="-5.6723221298">
        <ele>831.68</ele>
        <time>2020-08-08T05:48:22Z</time>
      </trkpt>
      <trkpt lat="41.0200970247" lon="-5.6726184301">
        <ele>831.20</ele>
        <time>2020-08-08T05:48:30Z</time>
      </trkpt>
      <trkpt lat="41.0198595654" lon="-5.6729231961">
        <ele>831.20</ele>
        <time>2020-08-08T05:48:40Z</time>
      </trkpt>
      <trkpt lat="41.0196049232" lon="-5.6732467376">
        <ele>829.76</ele>
        <time>2020-08-08T05:48:50Z</time>
      </trkpt>
      <trkpt lat="41.0194843914" lon="-5.6734998710">
        <ele>827.83</ele>
        <time>2020-08-08T05:48:57Z</time>
      </trkpt>
      <trkpt lat="41.0194929410" lon="-5.6736615580">
        <ele>827.35</ele>
        <time>2020-08-08T05:49:03Z</time>
      </trkpt>
      <trkpt lat="41.0195254628" lon="-5.6739973370">
        <ele>825.91</ele>
        <time>2020-08-08T05:49:09Z</time>
      </trkpt>
      <trkpt lat="41.0196032468" lon="-5.6745313480">
        <ele>825.43</ele>
        <time>2020-08-08T05:49:17Z</time>
      </trkpt>
      <trkpt lat="41.0197319929" lon="-5.6750133913">
        <ele>824.95</ele>
        <time>2020-08-08T05:49:25Z</time>
      </trkpt>
      <trkpt lat="41.0198347550" lon="-5.6754779164">
        <ele>824.95</ele>
        <time>2020-08-08T05:49:33Z</time>
      </trkpt>
      <trkpt lat="41.0198933445" lon="-5.6761248317">
        <ele>825.43</ele>
        <time>2020-08-08T05:49:44Z</time>
      </trkpt>
      <trkpt lat="41.0199079290" lon="-5.6766646262">
        <ele>824.95</ele>
        <time>2020-08-08T05:49:54Z</time>
      </trkpt>
      <trkpt lat="41.0199402831" lon="-5.6772121321">
        <ele>824.47</ele>
        <time>2020-08-08T05:50:03Z</time>
      </trkpt>
      <trkpt lat="41.0200148821" lon="-5.6779583730">
        <ele>824.47</ele>
        <time>2020-08-08T05:50:15Z</time>
      </trkpt>
      <trkpt lat="41.0200728010" lon="-5.6786759477">
        <ele>823.51</ele>
        <time>2020-08-08T05:50:26Z</time>
      </trkpt>
      <trkpt lat="41.0200930852" lon="-5.6790015008">
        <ele>823.51</ele>
        <time>2020-08-08T05:50:32Z</time>
      </trkpt>
      <trkpt lat="41.0201306362" lon="-5.6794335879">
        <ele>823.51</ele>
        <time>2020-08-08T05:50:40Z</time>
      </trkpt>
      <trkpt lat="41.0201639961" lon="-5.6797757372">
        <ele>823.03</ele>
        <time>2020-08-08T05:50:46Z</time>
      </trkpt>
      <trkpt lat="41.0201900639" lon="-5.6799378432">
        <ele>822.55</ele>
        <time>2020-08-08T05:50:49Z</time>
      </trkpt>
      <trkpt lat="41.0201955121" lon="-5.6800007075">
        <ele>822.55</ele>
        <time>2020-08-08T05:50:50Z</time>
      </trkpt>
      <trkpt lat="41.0201994516" lon="-5.6801121030">
        <ele>822.06</ele>
        <time>2020-08-08T05:50:52Z</time>
      </trkpt>
      <trkpt lat="41.0201973561" lon="-5.6801680941">
        <ele>822.55</ele>
        <time>2020-08-08T05:50:53Z</time>
      </trkpt>
      <trkpt lat="41.0202009603" lon="-5.6802235823">
        <ele>822.55</ele>
        <time>2020-08-08T05:50:54Z</time>
      </trkpt>
      <trkpt lat="41.0202496592" lon="-5.6807812303">
        <ele>822.55</ele>
        <time>2020-08-08T05:51:04Z</time>
      </trkpt>
      <trkpt lat="41.0203224141" lon="-5.6814778503">
        <ele>822.55</ele>
        <time>2020-08-08T05:51:16Z</time>
      </trkpt>
      <trkpt lat="41.0203562770" lon="-5.6821991969">
        <ele>823.03</ele>
        <time>2020-08-08T05:51:29Z</time>
      </trkpt>
      <trkpt lat="41.0203425307" lon="-5.6826405041">
        <ele>823.03</ele>
        <time>2020-08-08T05:51:37Z</time>
      </trkpt>
      <trkpt lat="41.0203130264" lon="-5.6830732618">
        <ele>822.55</ele>
        <time>2020-08-08T05:51:45Z</time>
      </trkpt>
      <trkpt lat="41.0202328954" lon="-5.6835927721">
        <ele>821.10</ele>
        <time>2020-08-08T05:51:54Z</time>
      </trkpt>
      <trkpt lat="41.0201693606" lon="-5.6841547787">
        <ele>820.14</ele>
        <time>2020-08-08T05:52:04Z</time>
      </trkpt>
      <trkpt lat="41.0201330669" lon="-5.6847058889">
        <ele>818.70</ele>
        <time>2020-08-08T05:52:13Z</time>
      </trkpt>
      <trkpt lat="41.0200856254" lon="-5.6850372255">
        <ele>817.26</ele>
        <time>2020-08-08T05:52:20Z</time>
      </trkpt>
      <trkpt lat="41.0200194921" lon="-5.6854377128">
        <ele>815.82</ele>
        <time>2020-08-08T05:52:29Z</time>
      </trkpt>
      <trkpt lat="41.0199649259" lon="-5.6859236956">
        <ele>814.37</ele>
        <time>2020-08-08T05:52:39Z</time>
      </trkpt>
      <trkpt lat="41.0199572146" lon="-5.6864701118">
        <ele>813.41</ele>
        <time>2020-08-08T05:52:49Z</time>
      </trkpt>
      <trkpt lat="41.0199743137" lon="-5.6872117426">
        <ele>812.45</ele>
        <time>2020-08-08T05:53:01Z</time>
      </trkpt>
      <trkpt lat="41.0199775826" lon="-5.6879200134">
        <ele>811.01</ele>
        <time>2020-08-08T05:53:13Z</time>
      </trkpt>
      <trkpt lat="41.0199293867" lon="-5.6886538491">
        <ele>811.01</ele>
        <time>2020-08-08T05:53:26Z</time>
      </trkpt>
      <trkpt lat="41.0199217591" lon="-5.6887084991">
        <ele>811.01</ele>
        <time>2020-08-08T05:53:27Z</time>
      </trkpt>
      <trkpt lat="41.0199360922" lon="-5.6890070625">
        <ele>811.97</ele>
        <time>2020-08-08T05:53:34Z</time>
      </trkpt>
      <trkpt lat="41.0200398602" lon="-5.6890203059">
        <ele>811.49</ele>
        <time>2020-08-08T05:53:39Z</time>
      </trkpt>
      <trkpt lat="41.0200655088" lon="-5.6890244130">
        <ele>811.49</ele>
        <time>2020-08-08T05:53:41Z</time>
      </trkpt>
      <trkpt lat="41.0200758185" lon="-5.6890301127">
        <ele>811.49</ele>
        <time>2020-08-08T05:53:42Z</time>
      </trkpt>
      <trkpt lat="41.0202335659" lon="-5.6890802365">
        <ele>811.97</ele>
        <time>2020-08-08T05:53:50Z</time>
      </trkpt>
      <trkpt lat="41.0203993600" lon="-5.6891161110">
        <ele>811.49</ele>
        <time>2020-08-08T05:53:56Z</time>
      </trkpt>
      <trkpt lat="41.0206400044" lon="-5.6891928893">
        <ele>813.41</ele>
        <time>2020-08-08T05:54:05Z</time>
      </trkpt>
      <trkpt lat="41.0208135098" lon="-5.6892277580">
        <ele>813.89</ele>
        <time>2020-08-08T05:54:12Z</time>
      </trkpt>
      <trkpt lat="41.0210515559" lon="-5.6892633811">
        <ele>815.82</ele>
        <time>2020-08-08T05:54:21Z</time>
      </trkpt>
      <trkpt lat="41.0213180166" lon="-5.6893273350">
        <ele>817.26</ele>
        <time>2020-08-08T05:54:31Z</time>
      </trkpt>
      <trkpt lat="41.0216093715" lon="-5.6893808953">
        <ele>818.22</ele>
        <time>2020-08-08T05:54:42Z</time>
      </trkpt>
      <trkpt lat="41.0217629280" lon="-5.6894155126">
        <ele>818.22</ele>
        <time>2020-08-08T05:54:51Z</time>
      </trkpt>
      <trkpt lat="41.0218742397" lon="-5.6894515548">
        <ele>818.22</ele>
        <time>2020-08-08T05:54:58Z</time>
      </trkpt>
      <trkpt lat="41.0221476573" lon="-5.6895053666">
        <ele>818.22</ele>
        <time>2020-08-08T05:55:09Z</time>
      </trkpt>
      <trkpt lat="41.0224069096" lon="-5.6895559095">
        <ele>817.74</ele>
        <time>2020-08-08T05:55:20Z</time>
      </trkpt>
      <trkpt lat="41.0226901341" lon="-5.6896073744">
        <ele>816.78</ele>
        <time>2020-08-08T05:55:29Z</time>
      </trkpt>
      <trkpt lat="41.0230236501" lon="-5.6896792073">
        <ele>816.30</ele>
        <time>2020-08-08T05:55:39Z</time>
      </trkpt>
      <trkpt lat="41.0233684815" lon="-5.6897817180">
        <ele>815.82</ele>
        <time>2020-08-08T05:55:50Z</time>
      </trkpt>
      <trkpt lat="41.0235097166" lon="-5.6898382958">
        <ele>815.34</ele>
        <time>2020-08-08T05:55:58Z</time>
      </trkpt>
      <trkpt lat="41.0235193558" lon="-5.6898408104">
        <ele>815.34</ele>
        <time>2020-08-08T05:56:04Z</time>
      </trkpt>
      <trkpt lat="41.0235121474" lon="-5.6898561493">
        <ele>814.85</ele>
        <time>2020-08-08T05:56:22Z</time>
      </trkpt>
      <trkpt lat="41.0235086270" lon="-5.6898478512">
        <ele>813.89</ele>
        <time>2020-08-08T05:56:45Z</time>
      </trkpt>
      <trkpt lat="41.0235352814" lon="-5.6898525450">
        <ele>813.89</ele>
        <time>2020-08-08T05:56:53Z</time>
      </trkpt>
      <trkpt lat="41.0236650333" lon="-5.6899187621">
        <ele>814.37</ele>
        <time>2020-08-08T05:56:59Z</time>
      </trkpt>
      <trkpt lat="41.0238997266" lon="-5.6900418084">
        <ele>813.89</ele>
        <time>2020-08-08T05:57:07Z</time>
      </trkpt>
      <trkpt lat="41.0243577138" lon="-5.6902829558">
        <ele>812.93</ele>
        <time>2020-08-08T05:57:19Z</time>
      </trkpt>
      <trkpt lat="41.0248538386" lon="-5.6905534398">
        <ele>811.49</ele>
        <time>2020-08-08T05:57:32Z</time>
      </trkpt>
      <trkpt lat="41.0252106562" lon="-5.6907434575">
        <ele>810.53</ele>
        <time>2020-08-08T05:57:42Z</time>
      </trkpt>
      <trkpt lat="41.0254700761" lon="-5.6908793282">
        <ele>809.57</ele>
        <time>2020-08-08T05:57:49Z</time>
      </trkpt>
      <trkpt lat="41.0255077947" lon="-5.6909021270">
        <ele>809.57</ele>
        <time>2020-08-08T05:57:50Z</time>
      </trkpt>
      <trkpt lat="41.0259993095" lon="-5.6911637262">
        <ele>808.61</ele>
        <time>2020-08-08T05:58:03Z</time>
      </trkpt>
      <trkpt lat="41.0262455698" lon="-5.6912879460">
        <ele>808.13</ele>
        <time>2020-08-08T05:58:12Z</time>
      </trkpt>
      <trkpt lat="41.0266234260" lon="-5.6914824899">
        <ele>807.16</ele>
        <time>2020-08-08T05:58:24Z</time>
      </trkpt>
      <trkpt lat="41.0270027909" lon="-5.6916860025">
        <ele>805.24</ele>
        <time>2020-08-08T05:58:34Z</time>
      </trkpt>
      <trkpt lat="41.0274286754" lon="-5.6919124816">
        <ele>801.88</ele>
        <time>2020-08-08T05:58:44Z</time>
      </trkpt>
      <trkpt lat="41.0277484450" lon="-5.6920742523">
        <ele>799.47</ele>
        <time>2020-08-08T05:58:52Z</time>
      </trkpt>
      <trkpt lat="41.0280636884" lon="-5.6922418065">
        <ele>796.11</ele>
        <time>2020-08-08T05:59:00Z</time>
      </trkpt>
      <trkpt lat="41.0283861402" lon="-5.6924042478">
        <ele>792.74</ele>
        <time>2020-08-08T05:59:08Z</time>
      </trkpt>
      <trkpt lat="41.0285374336" lon="-5.6924899109">
        <ele>791.30</ele>
        <time>2020-08-08T05:59:14Z</time>
      </trkpt>
      <trkpt lat="41.0286865477" lon="-5.6925686169">
        <ele>789.38</ele>
        <time>2020-08-08T05:59:19Z</time>
      </trkpt>
      <trkpt lat="41.0290928185" lon="-5.6926994585">
        <ele>786.02</ele>
        <time>2020-08-08T05:59:28Z</time>
      </trkpt>
      <trkpt lat="41.0294528212" lon="-5.6927685253">
        <ele>784.57</ele>
        <time>2020-08-08T05:59:36Z</time>
      </trkpt>
      <trkpt lat="41.0299456771" lon="-5.6928565353">
        <ele>783.13</ele>
        <time>2020-08-08T05:59:45Z</time>
      </trkpt>
      <trkpt lat="41.0303414706" lon="-5.6929374207">
        <ele>781.69</ele>
        <time>2020-08-08T05:59:53Z</time>
      </trkpt>
      <trkpt lat="41.0305773374" lon="-5.6929750554">
        <ele>782.17</ele>
        <time>2020-08-08T06:00:00Z</time>
      </trkpt>
      <trkpt lat="41.0306381900" lon="-5.6929877959">
        <ele>782.65</ele>
        <time>2020-08-08T06:00:06Z</time>
      </trkpt>
      <trkpt lat="41.0306978691" lon="-5.6930095050">
        <ele>782.17</ele>
        <time>2020-08-08T06:00:13Z</time>
      </trkpt>
      <trkpt lat="41.0307721328" lon="-5.6930206530">
        <ele>783.13</ele>
        <time>2020-08-08T06:00:22Z</time>
      </trkpt>
      <trkpt lat="41.0308235139" lon="-5.6930303760">
        <ele>783.61</ele>
        <time>2020-08-08T06:00:29Z</time>
      </trkpt>
      <trkpt lat="41.0310275294" lon="-5.6930656638">
        <ele>784.57</ele>
        <time>2020-08-08T06:00:37Z</time>
      </trkpt>
      <trkpt lat="41.0313074011" lon="-5.6931088306">
        <ele>785.53</ele>
        <time>2020-08-08T06:00:46Z</time>
      </trkpt>
      <trkpt lat="41.0316446889" lon="-5.6931577809">
        <ele>786.98</ele>
        <time>2020-08-08T06:00:57Z</time>
      </trkpt>
      <trkpt lat="41.0319797136" lon="-5.6932213996">
        <ele>787.94</ele>
        <time>2020-08-08T06:01:08Z</time>
      </trkpt>
      <trkpt lat="41.0323530436" lon="-5.6932834256">
        <ele>790.34</ele>
        <time>2020-08-08T06:01:20Z</time>
      </trkpt>
      <trkpt lat="41.0327132139" lon="-5.6933550071">
        <ele>791.78</ele>
        <time>2020-08-08T06:01:32Z</time>
      </trkpt>
      <trkpt lat="41.0331274476" lon="-5.6934348028">
        <ele>794.19</ele>
        <time>2020-08-08T06:01:46Z</time>
      </trkpt>
      <trkpt lat="41.0333971772" lon="-5.6934831664">
        <ele>795.63</ele>
        <time>2020-08-08T06:01:56Z</time>
      </trkpt>
      <trkpt lat="41.0335436091" lon="-5.6935072225">
        <ele>796.11</ele>
        <time>2020-08-08T06:02:03Z</time>
      </trkpt>
      <trkpt lat="41.0336903762" lon="-5.6935343798">
        <ele>795.63</ele>
        <time>2020-08-08T06:02:11Z</time>
      </trkpt>
      <trkpt lat="41.0338145960" lon="-5.6935665663">
        <ele>796.11</ele>
        <time>2020-08-08T06:02:17Z</time>
      </trkpt>
      <trkpt lat="41.0341037717" lon="-5.6936156843">
        <ele>797.07</ele>
        <time>2020-08-08T06:02:27Z</time>
      </trkpt>
      <trkpt lat="41.0343668796" lon="-5.6936788000">
        <ele>797.07</ele>
        <time>2020-08-08T06:02:36Z</time>
      </trkpt>
      <trkpt lat="41.0344413947" lon="-5.6936860085">
        <ele>797.07</ele>
        <time>2020-08-08T06:02:42Z</time>
      </trkpt>
      <trkpt lat="41.0344462562" lon="-5.6936896965">
        <ele>797.07</ele>
        <time>2020-08-08T06:03:00Z</time>
      </trkpt>
      <trkpt lat="41.0344492737" lon="-5.6936798058">
        <ele>798.03</ele>
        <time>2020-08-08T06:03:10Z</time>
      </trkpt>
      <trkpt lat="41.0344429873" lon="-5.6936850026">
        <ele>797.07</ele>
        <time>2020-08-08T06:03:24Z</time>
      </trkpt>
      <trkpt lat="41.0344439931" lon="-5.6936777942">
        <ele>798.03</ele>
        <time>2020-08-08T06:03:43Z</time>
      </trkpt>
      <trkpt lat="41.0344454180" lon="-5.6936762854">
        <ele>797.55</ele>
        <time>2020-08-08T06:03:50Z</time>
      </trkpt>
      <trkpt lat="41.0344558116" lon="-5.6936808955">
        <ele>797.55</ele>
        <time>2020-08-08T06:03:51Z</time>
      </trkpt>
      <trkpt lat="41.0344719049" lon="-5.6936892774">
        <ele>797.55</ele>
        <time>2020-08-08T06:03:52Z</time>
      </trkpt>
      <trkpt lat="41.0344877467" lon="-5.6936946418">
        <ele>797.55</ele>
        <time>2020-08-08T06:03:53Z</time>
      </trkpt>
      <trkpt lat="41.0347097833" lon="-5.6937418319">
        <ele>797.55</ele>
        <time>2020-08-08T06:04:01Z</time>
      </trkpt>
      <trkpt lat="41.0349729750" lon="-5.6937946379">
        <ele>798.51</ele>
        <time>2020-08-08T06:04:11Z</time>
      </trkpt>
      <trkpt lat="41.0349752381" lon="-5.6938197836">
        <ele>798.51</ele>
        <time>2020-08-08T06:04:14Z</time>
      </trkpt>
      <trkpt lat="41.0349541996" lon="-5.6938211247">
        <ele>798.51</ele>
        <time>2020-08-08T06:04:16Z</time>
      </trkpt>
      <trkpt lat="41.0349349212" lon="-5.6938128266">
        <ele>798.51</ele>
        <time>2020-08-08T06:04:17Z</time>
      </trkpt>
      <trkpt lat="41.0349102784" lon="-5.6938059535">
        <ele>798.51</ele>
        <time>2020-08-08T06:04:18Z</time>
      </trkpt>
      <trkpt lat="41.0348758288" lon="-5.6937986612">
        <ele>798.51</ele>
        <time>2020-08-08T06:04:19Z</time>
      </trkpt>
      <trkpt lat="41.0348393675" lon="-5.6937893573">
        <ele>798.51</ele>
        <time>2020-08-08T06:04:20Z</time>
      </trkpt>
      <trkpt lat="41.0345210228" lon="-5.6937204581">
        <ele>798.51</ele>
        <time>2020-08-08T06:04:30Z</time>
      </trkpt>
      <trkpt lat="41.0345177539" lon="-5.6937129982">
        <ele>798.51</ele>
        <time>2020-08-08T06:04:35Z</time>
      </trkpt>
      <trkpt lat="41.0345238727" lon="-5.6937230565">
        <ele>799.47</ele>
        <time>2020-08-08T06:04:49Z</time>
      </trkpt>
      <trkpt lat="41.0345403850" lon="-5.6937103998">
        <ele>798.99</ele>
        <time>2020-08-08T06:04:57Z</time>
      </trkpt>
      <trkpt lat="41.0345551372" lon="-5.6937072985">
        <ele>798.51</ele>
        <time>2020-08-08T06:04:58Z</time>
      </trkpt>
      <trkpt lat="41.0345709790" lon="-5.6937109865">
        <ele>798.51</ele>
        <time>2020-08-08T06:04:59Z</time>
      </trkpt>
      <trkpt lat="41.0345969629" lon="-5.6937215477">
        <ele>798.51</ele>
        <time>2020-08-08T06:05:00Z</time>
      </trkpt>
      <trkpt lat="41.0346263833" lon="-5.6937324442">
        <ele>798.51</ele>
        <time>2020-08-08T06:05:01Z</time>
      </trkpt>
      <trkpt lat="41.0346569773" lon="-5.6937408261">
        <ele>798.51</ele>
        <time>2020-08-08T06:05:02Z</time>
      </trkpt>
      <trkpt lat="41.0346911754" lon="-5.6937479507">
        <ele>798.51</ele>
        <time>2020-08-08T06:05:03Z</time>
      </trkpt>
      <trkpt lat="41.0350694507" lon="-5.6938203704">
        <ele>798.99</ele>
        <time>2020-08-08T06:05:14Z</time>
      </trkpt>
      <trkpt lat="41.0353984404" lon="-5.6938849948">
        <ele>799.47</ele>
        <time>2020-08-08T06:05:23Z</time>
      </trkpt>
      <trkpt lat="41.0357467923" lon="-5.6939595100">
        <ele>799.95</ele>
        <time>2020-08-08T06:05:32Z</time>
      </trkpt>
      <trkpt lat="41.0362155084" lon="-5.6940556504">
        <ele>800.44</ele>
        <time>2020-08-08T06:05:44Z</time>
      </trkpt>
      <trkpt lat="41.0365256388" lon="-5.6941223703">
        <ele>800.92</ele>
        <time>2020-08-08T06:05:54Z</time>
      </trkpt>
      <trkpt lat="41.0368224420" lon="-5.6941859890">
        <ele>801.88</ele>
        <time>2020-08-08T06:06:04Z</time>
      </trkpt>
      <trkpt lat="41.0371057503" lon="-5.6942501105">
        <ele>803.32</ele>
        <time>2020-08-08T06:06:14Z</time>
      </trkpt>
      <trkpt lat="41.0373326484" lon="-5.6943000667">
        <ele>804.28</ele>
        <time>2020-08-08T06:06:22Z</time>
      </trkpt>
      <trkpt lat="41.0376348160" lon="-5.6943615060">
        <ele>805.24</ele>
        <time>2020-08-08T06:06:33Z</time>
      </trkpt>
      <trkpt lat="41.0379649792" lon="-5.6944239512">
        <ele>806.20</ele>
        <time>2020-08-08T06:06:45Z</time>
      </trkpt>
      <trkpt lat="41.0382321104" lon="-5.6944857258">
        <ele>806.68</ele>
        <time>2020-08-08T06:06:55Z</time>
      </trkpt>
      <trkpt lat="41.0385236330" lon="-5.6945525296">
        <ele>808.13</ele>
        <time>2020-08-08T06:07:06Z</time>
      </trkpt>
      <trkpt lat="41.0387273133" lon="-5.6946000550">
        <ele>808.13</ele>
        <time>2020-08-08T06:07:14Z</time>
      </trkpt>
      <trkpt lat="41.0389579833" lon="-5.6946568843">
        <ele>808.13</ele>
        <time>2020-08-08T06:07:23Z</time>
      </trkpt>
      <trkpt lat="41.0391873121" lon="-5.6947055832">
        <ele>808.61</ele>
        <time>2020-08-08T06:07:31Z</time>
      </trkpt>
      <trkpt lat="41.0395183973" lon="-5.6947802659">
        <ele>808.61</ele>
        <time>2020-08-08T06:07:42Z</time>
      </trkpt>
      <trkpt lat="41.0398078244" lon="-5.6948374305">
        <ele>808.61</ele>
        <time>2020-08-08T06:07:51Z</time>
      </trkpt>
      <trkpt lat="41.0401603673" lon="-5.6949132867">
        <ele>809.09</ele>
        <time>2020-08-08T06:08:01Z</time>
      </trkpt>
      <trkpt lat="41.0405339487" lon="-5.6950015482">
        <ele>810.05</ele>
        <time>2020-08-08T06:08:12Z</time>
      </trkpt>
      <trkpt lat="41.0409237072" lon="-5.6950838584">
        <ele>811.01</ele>
        <time>2020-08-08T06:08:24Z</time>
      </trkpt>
      <trkpt lat="41.0413617454" lon="-5.6951798312">
        <ele>812.45</ele>
        <time>2020-08-08T06:08:38Z</time>
      </trkpt>
      <trkpt lat="41.0416421201" lon="-5.6952354871">
        <ele>812.93</ele>
        <time>2020-08-08T06:08:47Z</time>
      </trkpt>
      <trkpt lat="41.0419809166" lon="-5.6953068171">
        <ele>813.89</ele>
        <time>2020-08-08T06:08:58Z</time>
      </trkpt>
      <trkpt lat="41.0423504747" lon="-5.6953906361">
        <ele>815.34</ele>
        <time>2020-08-08T06:09:10Z</time>
      </trkpt>
      <trkpt lat="41.0426171031" lon="-5.6954535842">
        <ele>816.30</ele>
        <time>2020-08-08T06:09:19Z</time>
      </trkpt>
      <trkpt lat="41.0429142416" lon="-5.6955186278">
        <ele>816.78</ele>
        <time>2020-08-08T06:09:29Z</time>
      </trkpt>
      <trkpt lat="41.0432237852" lon="-5.6955898739">
        <ele>817.26</ele>
        <time>2020-08-08T06:09:39Z</time>
      </trkpt>
      <trkpt lat="41.0434780922" lon="-5.6956399139">
        <ele>817.26</ele>
        <time>2020-08-08T06:09:47Z</time>
      </trkpt>
      <trkpt lat="41.0438028071" lon="-5.6956770457">
        <ele>817.26</ele>
        <time>2020-08-08T06:09:57Z</time>
      </trkpt>
      <trkpt lat="41.0440747999" lon="-5.6956772972">
        <ele>817.26</ele>
        <time>2020-08-08T06:10:06Z</time>
      </trkpt>
      <trkpt lat="41.0443956591" lon="-5.6956710108">
        <ele>816.78</ele>
        <time>2020-08-08T06:10:15Z</time>
      </trkpt>
      <trkpt lat="41.0447633732" lon="-5.6956697535">
        <ele>816.78</ele>
        <time>2020-08-08T06:10:25Z</time>
      </trkpt>
      <trkpt lat="41.0451714881" lon="-5.6956592761">
        <ele>817.26</ele>
        <time>2020-08-08T06:10:37Z</time>
      </trkpt>
      <trkpt lat="41.0454503540" lon="-5.6956548337">
        <ele>818.22</ele>
        <time>2020-08-08T06:10:46Z</time>
      </trkpt>
      <trkpt lat="41.0456870589" lon="-5.6957267504">
        <ele>818.70</ele>
        <time>2020-08-08T06:10:54Z</time>
      </trkpt>
      <trkpt lat="41.0459805094" lon="-5.6959467754">
        <ele>818.22</ele>
        <time>2020-08-08T06:11:03Z</time>
      </trkpt>
      <trkpt lat="41.0462522507" lon="-5.6961669680">
        <ele>818.22</ele>
        <time>2020-08-08T06:11:11Z</time>
      </trkpt>
      <trkpt lat="41.0465777200" lon="-5.6964362785">
        <ele>818.22</ele>
        <time>2020-08-08T06:11:21Z</time>
      </trkpt>
      <trkpt lat="41.0469535645" lon="-5.6967412960">
        <ele>818.22</ele>
        <time>2020-08-08T06:11:33Z</time>
      </trkpt>
      <trkpt lat="41.0471549816" lon="-5.6968707126">
        <ele>819.18</ele>
        <time>2020-08-08T06:11:40Z</time>
      </trkpt>
      <trkpt lat="41.0474158265" lon="-5.6970069185">
        <ele>819.18</ele>
        <time>2020-08-08T06:11:48Z</time>
      </trkpt>
      <trkpt lat="41.0476996377" lon="-5.6971282884">
        <ele>820.14</ele>
        <time>2020-08-08T06:11:56Z</time>
      </trkpt>
      <trkpt lat="41.0479842871" lon="-5.6971793342">
        <ele>820.14</ele>
        <time>2020-08-08T06:12:04Z</time>
      </trkpt>
      <trkpt lat="41.0482862871" lon="-5.6971129496">
        <ele>821.10</ele>
        <time>2020-08-08T06:12:13Z</time>
      </trkpt>
      <trkpt lat="41.0485464614" lon="-5.6970330700">
        <ele>821.58</ele>
        <time>2020-08-08T06:12:21Z</time>
      </trkpt>
      <trkpt lat="41.0488766246" lon="-5.6969443895">
        <ele>822.06</ele>
        <time>2020-08-08T06:12:31Z</time>
      </trkpt>
      <trkpt lat="41.0492146667" lon="-5.6968060881">
        <ele>822.06</ele>
        <time>2020-08-08T06:12:41Z</time>
      </trkpt>
      <trkpt lat="41.0495113861" lon="-5.6965957861">
        <ele>822.06</ele>
        <time>2020-08-08T06:12:50Z</time>
      </trkpt>
      <trkpt lat="41.0498032440" lon="-5.6963680498">
        <ele>822.55</ele>
        <time>2020-08-08T06:12:59Z</time>
      </trkpt>
      <trkpt lat="41.0501780827" lon="-5.6960870046">
        <ele>823.99</ele>
        <time>2020-08-08T06:13:11Z</time>
      </trkpt>
      <trkpt lat="41.0503093433" lon="-5.6959073804">
        <ele>825.43</ele>
        <time>2020-08-08T06:13:17Z</time>
      </trkpt>
      <trkpt lat="41.0503380932" lon="-5.6959004235">
        <ele>825.43</ele>
        <time>2020-08-08T06:13:18Z</time>
      </trkpt>
      <trkpt lat="41.0503696091" lon="-5.6959077995">
        <ele>825.91</ele>
        <time>2020-08-08T06:13:19Z</time>
      </trkpt>
      <trkpt lat="41.0504654981" lon="-5.6959568337">
        <ele>826.39</ele>
        <time>2020-08-08T06:13:22Z</time>
      </trkpt>
      <trkpt lat="41.0507617146" lon="-5.6960491184">
        <ele>826.39</ele>
        <time>2020-08-08T06:13:32Z</time>
      </trkpt>
      <trkpt lat="41.0509866010" lon="-5.6960486155">
        <ele>825.91</ele>
        <time>2020-08-08T06:13:39Z</time>
      </trkpt>
      <trkpt lat="41.0511668120" lon="-5.6960759405">
        <ele>825.91</ele>
        <time>2020-08-08T06:13:45Z</time>
      </trkpt>
      <trkpt lat="41.0513488669" lon="-5.6960867532">
        <ele>827.83</ele>
        <time>2020-08-08T06:13:51Z</time>
      </trkpt>
      <trkpt lat="41.0516232904" lon="-5.6960782874">
        <ele>830.24</ele>
        <time>2020-08-08T06:13:59Z</time>
      </trkpt>
      <trkpt lat="41.0518815368" lon="-5.6959300954">
        <ele>832.16</ele>
        <time>2020-08-08T06:14:07Z</time>
      </trkpt>
      <trkpt lat="41.0521910805" lon="-5.6957360543">
        <ele>831.68</ele>
        <time>2020-08-08T06:14:17Z</time>
      </trkpt>
      <trkpt lat="41.0524352454" lon="-5.6957772933">
        <ele>830.24</ele>
        <time>2020-08-08T06:14:24Z</time>
      </trkpt>
      <trkpt lat="41.0526625626" lon="-5.6958494615">
        <ele>829.76</ele>
        <time>2020-08-08T06:14:32Z</time>
      </trkpt>
      <trkpt lat="41.0528943222" lon="-5.6959456857">
        <ele>830.72</ele>
        <time>2020-08-08T06:14:41Z</time>
      </trkpt>
      <trkpt lat="41.0529796500" lon="-5.6959844101">
        <ele>832.64</ele>
        <time>2020-08-08T06:14:48Z</time>
      </trkpt>
      <trkpt lat="41.0529908817" lon="-5.6959815603">
        <ele>832.64</ele>
        <time>2020-08-08T06:14:49Z</time>
      </trkpt>
      <trkpt lat="41.0530018620" lon="-5.6959669758">
        <ele>832.64</ele>
        <time>2020-08-08T06:14:50Z</time>
      </trkpt>
      <trkpt lat="41.0530087352" lon="-5.6959488709">
        <ele>832.64</ele>
        <time>2020-08-08T06:14:51Z</time>
      </trkpt>
      <trkpt lat="41.0530146863" lon="-5.6959329452">
        <ele>832.64</ele>
        <time>2020-08-08T06:14:52Z</time>
      </trkpt>
      <trkpt lat="41.0530244093" lon="-5.6959166005">
        <ele>832.64</ele>
        <time>2020-08-08T06:14:53Z</time>
      </trkpt>
      <trkpt lat="41.0530399159" lon="-5.6959058717">
        <ele>832.16</ele>
        <time>2020-08-08T06:14:54Z</time>
      </trkpt>
      <trkpt lat="41.0530570149" lon="-5.6959087215">
        <ele>832.16</ele>
        <time>2020-08-08T06:14:55Z</time>
      </trkpt>
      <trkpt lat="41.0530684981" lon="-5.6959184445">
        <ele>832.16</ele>
        <time>2020-08-08T06:14:56Z</time>
      </trkpt>
      <trkpt lat="41.0530791432" lon="-5.6959279999">
        <ele>832.16</ele>
        <time>2020-08-08T06:14:57Z</time>
      </trkpt>
      <trkpt lat="41.0531083960" lon="-5.6959535647">
        <ele>831.20</ele>
        <time>2020-08-08T06:15:04Z</time>
      </trkpt>
      <trkpt lat="41.0530997626" lon="-5.6959811412">
        <ele>830.72</ele>
        <time>2020-08-08T06:15:19Z</time>
      </trkpt>
      <trkpt lat="41.0530939791" lon="-5.6959767826">
        <ele>830.24</ele>
        <time>2020-08-08T06:15:33Z</time>
      </trkpt>
      <trkpt lat="41.0530961584" lon="-5.6959523913">
        <ele>830.72</ele>
        <time>2020-08-08T06:15:51Z</time>
      </trkpt>
      <trkpt lat="41.0531135090" lon="-5.6959634554">
        <ele>830.24</ele>
        <time>2020-08-08T06:16:00Z</time>
      </trkpt>
      <trkpt lat="41.0531366430" lon="-5.6959757768">
        <ele>830.72</ele>
        <time>2020-08-08T06:16:02Z</time>
      </trkpt>
      <trkpt lat="41.0531452764" lon="-5.6959875952">
        <ele>830.72</ele>
        <time>2020-08-08T06:16:03Z</time>
      </trkpt>
      <trkpt lat="41.0531544965" lon="-5.6959993299">
        <ele>830.72</ele>
        <time>2020-08-08T06:16:04Z</time>
      </trkpt>
      <trkpt lat="41.0531634651" lon="-5.6960093044">
        <ele>830.72</ele>
        <time>2020-08-08T06:16:05Z</time>
      </trkpt>
      <trkpt lat="41.0531724337" lon="-5.6960190274">
        <ele>831.20</ele>
        <time>2020-08-08T06:16:06Z</time>
      </trkpt>
      <trkpt lat="41.0531817377" lon="-5.6960312650">
        <ele>831.20</ele>
        <time>2020-08-08T06:16:07Z</time>
      </trkpt>
      <trkpt lat="41.0531917959" lon="-5.6960498728">
        <ele>831.20</ele>
        <time>2020-08-08T06:16:08Z</time>
      </trkpt>
      <trkpt lat="41.0532665625" lon="-5.6961910240">
        <ele>832.16</ele>
        <time>2020-08-08T06:16:16Z</time>
      </trkpt>
      <trkpt lat="41.0534056183" lon="-5.6964170840">
        <ele>833.12</ele>
        <time>2020-08-08T06:16:25Z</time>
      </trkpt>
      <trkpt lat="41.0536116455" lon="-5.6967324950">
        <ele>833.12</ele>
        <time>2020-08-08T06:16:36Z</time>
      </trkpt>
      <trkpt lat="41.0538169183" lon="-5.6970711239">
        <ele>835.04</ele>
        <time>2020-08-08T06:16:48Z</time>
      </trkpt>
      <trkpt lat="41.0540164076" lon="-5.6973227486">
        <ele>836.96</ele>
        <time>2020-08-08T06:16:58Z</time>
      </trkpt>
      <trkpt lat="41.0542975366" lon="-5.6975083239">
        <ele>838.41</ele>
        <time>2020-08-08T06:17:09Z</time>
      </trkpt>
      <trkpt lat="41.0544831958" lon="-5.6976266764">
        <ele>839.85</ele>
        <time>2020-08-08T06:17:17Z</time>
      </trkpt>
      <trkpt lat="41.0548035521" lon="-5.6978346314">
        <ele>839.85</ele>
        <time>2020-08-08T06:17:28Z</time>
      </trkpt>
      <trkpt lat="41.0550775565" lon="-5.6980181113">
        <ele>840.33</ele>
        <time>2020-08-08T06:17:37Z</time>
      </trkpt>
      <trkpt lat="41.0554058757" lon="-5.6982403155">
        <ele>839.37</ele>
        <time>2020-08-08T06:17:48Z</time>
      </trkpt>
      <trkpt lat="41.0557511263" lon="-5.6984643638">
        <ele>839.85</ele>
        <time>2020-08-08T06:17:59Z</time>
      </trkpt>
      <trkpt lat="41.0561708920" lon="-5.6987482589">
        <ele>839.37</ele>
        <time>2020-08-08T06:18:12Z</time>
      </trkpt>
      <trkpt lat="41.0564394481" lon="-5.6989238597">
        <ele>839.37</ele>
        <time>2020-08-08T06:18:20Z</time>
      </trkpt>
      <trkpt lat="41.0568279494" lon="-5.6991775800">
        <ele>838.41</ele>
        <time>2020-08-08T06:18:31Z</time>
      </trkpt>
      <trkpt lat="41.0572037101" lon="-5.6994248461">
        <ele>837.45</ele>
        <time>2020-08-08T06:18:42Z</time>
      </trkpt>
      <trkpt lat="41.0575399082" lon="-5.6996521633">
        <ele>836.96</ele>
        <time>2020-08-08T06:18:52Z</time>
      </trkpt>
      <trkpt lat="41.0577772837" lon="-5.6998266745">
        <ele>836.96</ele>
        <time>2020-08-08T06:19:01Z</time>
      </trkpt>
      <trkpt lat="41.0580661241" lon="-5.7000214700">
        <ele>836.96</ele>
        <time>2020-08-08T06:19:10Z</time>
      </trkpt>
      <trkpt lat="41.0584244505" lon="-5.7002614439">
        <ele>836.00</ele>
        <time>2020-08-08T06:19:20Z</time>
      </trkpt>
      <trkpt lat="41.0587608162" lon="-5.7004880905">
        <ele>835.52</ele>
        <time>2020-08-08T06:19:29Z</time>
      </trkpt>
      <trkpt lat="41.0590799991" lon="-5.7006952073">
        <ele>835.04</ele>
        <time>2020-08-08T06:19:38Z</time>
      </trkpt>
      <trkpt lat="41.0594890360" lon="-5.7009603269">
        <ele>834.08</ele>
        <time>2020-08-08T06:19:49Z</time>
      </trkpt>
      <trkpt lat="41.0599094722" lon="-5.7012422942">
        <ele>832.64</ele>
        <time>2020-08-08T06:20:00Z</time>
      </trkpt>
      <trkpt lat="41.0603551380" lon="-5.7015418634">
        <ele>831.20</ele>
        <time>2020-08-08T06:20:11Z</time>
      </trkpt>
      <trkpt lat="41.0607495904" lon="-5.7018006966">
        <ele>830.24</ele>
        <time>2020-08-08T06:20:21Z</time>
      </trkpt>
      <trkpt lat="41.0610749759" lon="-5.7020188775">
        <ele>829.76</ele>
        <time>2020-08-08T06:20:31Z</time>
      </trkpt>
      <trkpt lat="41.0612614732" lon="-5.7021353021">
        <ele>829.27</ele>
        <time>2020-08-08T06:20:36Z</time>
      </trkpt>
      <trkpt lat="41.0616140999" lon="-5.7021720149">
        <ele>829.76</ele>
        <time>2020-08-08T06:20:45Z</time>
      </trkpt>
      <trkpt lat="41.0619177762" lon="-5.7021028642">
        <ele>829.76</ele>
        <time>2020-08-08T06:20:54Z</time>
      </trkpt>
      <trkpt lat="41.0622124001" lon="-5.7020192966">
        <ele>829.76</ele>
        <time>2020-08-08T06:21:02Z</time>
      </trkpt>
      <trkpt lat="41.0625874065" lon="-5.7019164506">
        <ele>829.76</ele>
        <time>2020-08-08T06:21:11Z</time>
      </trkpt>
      <trkpt lat="41.0631411988" lon="-5.7017528359">
        <ele>829.76</ele>
        <time>2020-08-08T06:21:24Z</time>
      </trkpt>
      <trkpt lat="41.0635297000" lon="-5.7016287837">
        <ele>829.27</ele>
        <time>2020-08-08T06:21:33Z</time>
      </trkpt>
      <trkpt lat="41.0639861785" lon="-5.7014949247">
        <ele>829.27</ele>
        <time>2020-08-08T06:21:44Z</time>
      </trkpt>
      <trkpt lat="41.0644476861" lon="-5.7013498340">
        <ele>829.27</ele>
        <time>2020-08-08T06:21:55Z</time>
      </trkpt>
      <trkpt lat="41.0646937788" lon="-5.7012925856">
        <ele>829.27</ele>
        <time>2020-08-08T06:22:01Z</time>
      </trkpt>
      <trkpt lat="41.0650728084" lon="-5.7012691163">
        <ele>828.79</ele>
        <time>2020-08-08T06:22:10Z</time>
      </trkpt>
      <trkpt lat="41.0654781573" lon="-5.7012640033">
        <ele>826.87</ele>
        <time>2020-08-08T06:22:19Z</time>
      </trkpt>
      <trkpt lat="41.0660194606" lon="-5.7012596447">
        <ele>825.91</ele>
        <time>2020-08-08T06:22:31Z</time>
      </trkpt>
      <trkpt lat="41.0664708260" lon="-5.7012625784">
        <ele>824.47</ele>
        <time>2020-08-08T06:22:41Z</time>
      </trkpt>
      <trkpt lat="41.0669123847" lon="-5.7012661826">
        <ele>823.99</ele>
        <time>2020-08-08T06:22:51Z</time>
      </trkpt>
      <trkpt lat="41.0673649237" lon="-5.7012679428">
        <ele>823.03</ele>
        <time>2020-08-08T06:23:01Z</time>
      </trkpt>
      <trkpt lat="41.0675774049" lon="-5.7012728881">
        <ele>823.03</ele>
        <time>2020-08-08T06:23:06Z</time>
      </trkpt>
      <trkpt lat="41.0676202364" lon="-5.7012744807">
        <ele>823.03</ele>
        <time>2020-08-08T06:23:07Z</time>
      </trkpt>
      <trkpt lat="41.0676669236" lon="-5.7012728881">
        <ele>823.03</ele>
        <time>2020-08-08T06:23:08Z</time>
      </trkpt>
      <trkpt lat="41.0681695864" lon="-5.7012681942">
        <ele>823.03</ele>
        <time>2020-08-08T06:23:19Z</time>
      </trkpt>
      <trkpt lat="41.0685614403" lon="-5.7012673561">
        <ele>822.55</ele>
        <time>2020-08-08T06:23:28Z</time>
      </trkpt>
      <trkpt lat="41.0689470917" lon="-5.7012637518">
        <ele>822.06</ele>
        <time>2020-08-08T06:23:37Z</time>
      </trkpt>
      <trkpt lat="41.0693264566" lon="-5.7012623269">
        <ele>821.10</ele>
        <time>2020-08-08T06:23:46Z</time>
      </trkpt>
      <trkpt lat="41.0697468929" lon="-5.7012646738">
        <ele>819.66</ele>
        <time>2020-08-08T06:23:56Z</time>
      </trkpt>
      <trkpt lat="41.0698691010" lon="-5.7012578007">
        <ele>819.66</ele>
        <time>2020-08-08T06:23:59Z</time>
      </trkpt>
      <trkpt lat="41.0702365637" lon="-5.7012592256">
        <ele>819.66</ele>
        <time>2020-08-08T06:24:08Z</time>
      </trkpt>
      <trkpt lat="41.0702782217" lon="-5.7012613211">
        <ele>819.18</ele>
        <time>2020-08-08T06:24:09Z</time>
      </trkpt>
      <trkpt lat="41.0703202151" lon="-5.7012622431">
        <ele>819.18</ele>
        <time>2020-08-08T06:24:10Z</time>
      </trkpt>
      <trkpt lat="41.0703622084" lon="-5.7012625784">
        <ele>819.18</ele>
        <time>2020-08-08T06:24:11Z</time>
      </trkpt>
      <trkpt lat="41.0707027651" lon="-5.7012574654">
        <ele>819.18</ele>
        <time>2020-08-08T06:24:19Z</time>
      </trkpt>
      <trkpt lat="41.0710463393" lon="-5.7012548670">
        <ele>819.18</ele>
        <time>2020-08-08T06:24:27Z</time>
      </trkpt>
      <trkpt lat="41.0715220962" lon="-5.7012536936">
        <ele>819.66</ele>
        <time>2020-08-08T06:24:38Z</time>
      </trkpt>
      <trkpt lat="41.0719965119" lon="-5.7012614887">
        <ele>819.66</ele>
        <time>2020-08-08T06:24:49Z</time>
      </trkpt>
      <trkpt lat="41.0724345502" lon="-5.7012584712">
        <ele>819.18</ele>
        <time>2020-08-08T06:24:59Z</time>
      </trkpt>
      <trkpt lat="41.0728213750" lon="-5.7012489159">
        <ele>818.22</ele>
        <time>2020-08-08T06:25:08Z</time>
      </trkpt>
      <trkpt lat="41.0733190086" lon="-5.7012477424">
        <ele>818.22</ele>
        <time>2020-08-08T06:25:19Z</time>
      </trkpt>
      <trkpt lat="41.0734097008" lon="-5.7012473233">
        <ele>818.22</ele>
        <time>2020-08-08T06:25:21Z</time>
      </trkpt>
      <trkpt lat="41.0734540410" lon="-5.7012484968">
        <ele>817.74</ele>
        <time>2020-08-08T06:25:22Z</time>
      </trkpt>
      <trkpt lat="41.0738805961" lon="-5.7012336608">
        <ele>816.30</ele>
        <time>2020-08-08T06:25:31Z</time>
      </trkpt>
      <trkpt lat="41.0743563529" lon="-5.7012350857">
        <ele>814.37</ele>
        <time>2020-08-08T06:25:40Z</time>
      </trkpt>
      <trkpt lat="41.0749349557" lon="-5.7012445573">
        <ele>813.89</ele>
        <time>2020-08-08T06:25:51Z</time>
      </trkpt>
      <trkpt lat="41.0753988102" lon="-5.7012467366">
        <ele>813.41</ele>
        <time>2020-08-08T06:26:01Z</time>
      </trkpt>
      <trkpt lat="41.0757982079" lon="-5.7012437191">
        <ele>812.93</ele>
        <time>2020-08-08T06:26:10Z</time>
      </trkpt>
      <trkpt lat="41.0763439536" lon="-5.7012333255">
        <ele>812.93</ele>
        <time>2020-08-08T06:26:22Z</time>
      </trkpt>
      <trkpt lat="41.0767264199" lon="-5.7012313139">
        <ele>812.93</ele>
        <time>2020-08-08T06:26:30Z</time>
      </trkpt>
      <trkpt lat="41.0771968123" lon="-5.7012296375">
        <ele>812.45</ele>
        <time>2020-08-08T06:26:40Z</time>
      </trkpt>
      <trkpt lat="41.0777978785" lon="-5.7012184057">
        <ele>812.45</ele>
        <time>2020-08-08T06:26:53Z</time>
      </trkpt>
      <trkpt lat="41.0782538541" lon="-5.7012158073">
        <ele>812.45</ele>
        <time>2020-08-08T06:27:03Z</time>
      </trkpt>
      <trkpt lat="41.0786997713" lon="-5.7012726367">
        <ele>811.97</ele>
        <time>2020-08-08T06:27:13Z</time>
      </trkpt>
      <trkpt lat="41.0792264063" lon="-5.7014345750">
        <ele>811.97</ele>
        <time>2020-08-08T06:27:25Z</time>
      </trkpt>
      <trkpt lat="41.0796572361" lon="-5.7015621476">
        <ele>812.45</ele>
        <time>2020-08-08T06:27:36Z</time>
      </trkpt>
      <trkpt lat="41.0800050851" lon="-5.7016553544">
        <ele>813.89</ele>
        <time>2020-08-08T06:27:46Z</time>
      </trkpt>
      <trkpt lat="41.0803798400" lon="-5.7017582003">
        <ele>815.34</ele>
        <time>2020-08-08T06:27:57Z</time>
      </trkpt>
      <trkpt lat="41.0807099193" lon="-5.7018530834">
        <ele>816.30</ele>
        <time>2020-08-08T06:28:07Z</time>
      </trkpt>
      <trkpt lat="41.0811662301" lon="-5.7019737829">
        <ele>817.26</ele>
        <time>2020-08-08T06:28:20Z</time>
      </trkpt>
      <trkpt lat="41.0815417394" lon="-5.7020733599">
        <ele>817.26</ele>
        <time>2020-08-08T06:28:32Z</time>
      </trkpt>
      <trkpt lat="41.0816565715" lon="-5.7020812389">
        <ele>817.74</ele>
        <time>2020-08-08T06:28:38Z</time>
      </trkpt>
      <trkpt lat="41.0818220302" lon="-5.7021731883">
        <ele>816.78</ele>
        <time>2020-08-08T06:28:46Z</time>
      </trkpt>
      <trkpt lat="41.0820416361" lon="-5.7022119127">
        <ele>815.82</ele>
        <time>2020-08-08T06:28:54Z</time>
      </trkpt>
      <trkpt lat="41.0823490843" lon="-5.7023005933">
        <ele>815.34</ele>
        <time>2020-08-08T06:29:04Z</time>
      </trkpt>
      <trkpt lat="41.0826218314" lon="-5.7023746055">
        <ele>814.85</ele>
        <time>2020-08-08T06:29:12Z</time>
      </trkpt>
      <trkpt lat="41.0830123443" lon="-5.7024846599">
        <ele>813.41</ele>
        <time>2020-08-08T06:29:21Z</time>
      </trkpt>
      <trkpt lat="41.0835390631" lon="-5.7026299182">
        <ele>811.97</ele>
        <time>2020-08-08T06:29:32Z</time>
      </trkpt>
      <trkpt lat="41.0837486107" lon="-5.7026770245">
        <ele>811.97</ele>
        <time>2020-08-08T06:29:39Z</time>
      </trkpt>
      <trkpt lat="41.0837724991" lon="-5.7026785333">
        <ele>811.97</ele>
        <time>2020-08-08T06:29:43Z</time>
      </trkpt>
      <trkpt lat="41.0837958846" lon="-5.7026939560">
        <ele>811.97</ele>
        <time>2020-08-08T06:29:49Z</time>
      </trkpt>
      <trkpt lat="41.0839361139" lon="-5.7027180959">
        <ele>811.01</ele>
        <time>2020-08-08T06:29:56Z</time>
      </trkpt>
      <trkpt lat="41.0841355193" lon="-5.7027714886">
        <ele>810.53</ele>
        <time>2020-08-08T06:30:03Z</time>
      </trkpt>
      <trkpt lat="41.0844285507" lon="-5.7028423995">
        <ele>809.57</ele>
        <time>2020-08-08T06:30:11Z</time>
      </trkpt>
      <trkpt lat="41.0845132917" lon="-5.7028503623">
        <ele>809.57</ele>
        <time>2020-08-08T06:30:13Z</time>
      </trkpt>
      <trkpt lat="41.0845520999" lon="-5.7028484344">
        <ele>809.09</ele>
        <time>2020-08-08T06:30:14Z</time>
      </trkpt>
      <trkpt lat="41.0847265273" lon="-5.7028302457">
        <ele>808.61</ele>
        <time>2020-08-08T06:30:18Z</time>
      </trkpt>
      <trkpt lat="41.0851689242" lon="-5.7029123884">
        <ele>807.64</ele>
        <time>2020-08-08T06:30:27Z</time>
      </trkpt>
      <trkpt lat="41.0852156114" lon="-5.7029348519">
        <ele>807.64</ele>
        <time>2020-08-08T06:30:28Z</time>
      </trkpt>
      <trkpt lat="41.0853933915" lon="-5.7030105405">
        <ele>807.16</ele>
        <time>2020-08-08T06:30:32Z</time>
      </trkpt>
      <trkpt lat="41.0854703374" lon="-5.7030453254">
        <ele>807.16</ele>
        <time>2020-08-08T06:30:34Z</time>
      </trkpt>
      <trkpt lat="41.0858759377" lon="-5.7031403761">
        <ele>806.68</ele>
        <time>2020-08-08T06:30:44Z</time>
      </trkpt>
      <trkpt lat="41.0862741619" lon="-5.7031822857">
        <ele>808.13</ele>
        <time>2020-08-08T06:30:54Z</time>
      </trkpt>
      <trkpt lat="41.0864479188" lon="-5.7031904161">
        <ele>809.09</ele>
        <time>2020-08-08T06:30:59Z</time>
      </trkpt>
      <trkpt lat="41.0864993837" lon="-5.7030861452">
        <ele>808.61</ele>
        <time>2020-08-08T06:31:04Z</time>
      </trkpt>
      <trkpt lat="41.0865165666" lon="-5.7029956207">
        <ele>808.13</ele>
        <time>2020-08-08T06:31:10Z</time>
      </trkpt>
      <trkpt lat="41.0865611583" lon="-5.7029546332">
        <ele>808.13</ele>
        <time>2020-08-08T06:31:14Z</time>
      </trkpt>
      <trkpt lat="41.0867054109" lon="-5.7030009851">
        <ele>809.09</ele>
        <time>2020-08-08T06:31:23Z</time>
      </trkpt>
      <trkpt lat="41.0867552832" lon="-5.7031297311">
        <ele>810.05</ele>
        <time>2020-08-08T06:31:32Z</time>
      </trkpt>
      <trkpt lat="41.0867650062" lon="-5.7031161524">
        <ele>810.53</ele>
        <time>2020-08-08T06:31:43Z</time>
      </trkpt>
      <trkpt lat="41.0867675208" lon="-5.7031006459">
        <ele>813.89</ele>
        <time>2020-08-08T06:32:02Z</time>
      </trkpt>
      <trkpt lat="41.0867722146" lon="-5.7031029090">
        <ele>814.85</ele>
        <time>2020-08-08T06:32:20Z</time>
      </trkpt>
      <trkpt lat="41.0867676884" lon="-5.7031081896">
        <ele>815.34</ele>
        <time>2020-08-08T06:32:32Z</time>
      </trkpt>
      <trkpt lat="41.0867520142" lon="-5.7031205110">
        <ele>814.85</ele>
        <time>2020-08-08T06:32:50Z</time>
      </trkpt>
      <trkpt lat="41.0867633298" lon="-5.7031376939">
        <ele>814.85</ele>
        <time>2020-08-08T06:32:52Z</time>
      </trkpt>
      <trkpt lat="41.0868394375" lon="-5.7032318227">
        <ele>814.85</ele>
        <time>2020-08-08T06:33:00Z</time>
      </trkpt>
      <trkpt lat="41.0869649146" lon="-5.7033267058">
        <ele>814.85</ele>
        <time>2020-08-08T06:33:08Z</time>
      </trkpt>
      <trkpt lat="41.0871592909" lon="-5.7033756562">
        <ele>813.41</ele>
        <time>2020-08-08T06:33:16Z</time>
      </trkpt>
      <trkpt lat="41.0873773880" lon="-5.7034309767">
        <ele>812.93</ele>
        <time>2020-08-08T06:33:25Z</time>
      </trkpt>
      <trkpt lat="41.0875556711" lon="-5.7034502551">
        <ele>812.93</ele>
        <time>2020-08-08T06:33:33Z</time>
      </trkpt>
      <trkpt lat="41.0877725109" lon="-5.7034754846">
        <ele>813.41</ele>
        <time>2020-08-08T06:33:42Z</time>
      </trkpt>
      <trkpt lat="41.0879561584" lon="-5.7034811843">
        <ele>813.89</ele>
        <time>2020-08-08T06:33:50Z</time>
      </trkpt>
      <trkpt lat="41.0880813841" lon="-5.7034464832">
        <ele>811.01</ele>
        <time>2020-08-08T06:33:57Z</time>
      </trkpt>
      <trkpt lat="41.0881385487" lon="-5.7034451421">
        <ele>809.57</ele>
        <time>2020-08-08T06:34:01Z</time>
      </trkpt>
      <trkpt lat="41.0881835595" lon="-5.7034987025">
        <ele>809.09</ele>
        <time>2020-08-08T06:34:08Z</time>
      </trkpt>
      <trkpt lat="41.0881817155" lon="-5.7035080064">
        <ele>809.09</ele>
        <time>2020-08-08T06:34:14Z</time>
      </trkpt>
      <trkpt lat="41.0881849844" lon="-5.7035145443">
        <ele>808.61</ele>
        <time>2020-08-08T06:34:29Z</time>
      </trkpt>
      <trkpt lat="41.0882032569" lon="-5.7035106886">
        <ele>808.61</ele>
        <time>2020-08-08T06:34:42Z</time>
      </trkpt>
      <trkpt lat="41.0881792009" lon="-5.7035059948">
        <ele>806.68</ele>
        <time>2020-08-08T06:35:13Z</time>
      </trkpt>
      <trkpt lat="41.0881852359" lon="-5.7035389356">
        <ele>807.64</ele>
        <time>2020-08-08T06:35:35Z</time>
      </trkpt>
      <trkpt lat="41.0881845653" lon="-5.7035243511">
        <ele>807.64</ele>
        <time>2020-08-08T06:35:52Z</time>
      </trkpt>
      <trkpt lat="41.0881828889" lon="-5.7034895662">
        <ele>808.61</ele>
        <time>2020-08-08T06:36:11Z</time>
      </trkpt>
      <trkpt lat="41.0881863255" lon="-5.7034928352">
        <ele>809.09</ele>
        <time>2020-08-08T06:36:25Z</time>
      </trkpt>
      <trkpt lat="41.0881897621" lon="-5.7035209984">
        <ele>807.64</ele>
        <time>2020-08-08T06:36:40Z</time>
      </trkpt>
      <trkpt lat="41.0881868284" lon="-5.7035034802">
        <ele>806.20</ele>
        <time>2020-08-08T06:36:53Z</time>
      </trkpt>
      <trkpt lat="41.0881855711" lon="-5.7035018038">
        <ele>807.16</ele>
        <time>2020-08-08T06:37:00Z</time>
      </trkpt>
      <trkpt lat="41.0881937016" lon="-5.7035039831">
        <ele>806.68</ele>
        <time>2020-08-08T06:37:01Z</time>
      </trkpt>
      <trkpt lat="41.0882051848" lon="-5.7035019714">
        <ele>806.68</ele>
        <time>2020-08-08T06:37:02Z</time>
      </trkpt>
      <trkpt lat="41.0882201046" lon="-5.7034930028">
        <ele>806.68</ele>
        <time>2020-08-08T06:37:03Z</time>
      </trkpt>
      <trkpt lat="41.0882343538" lon="-5.7034833636">
        <ele>806.68</ele>
        <time>2020-08-08T06:37:04Z</time>
      </trkpt>
      <trkpt lat="41.0882552247" lon="-5.7034759037">
        <ele>806.20</ele>
        <time>2020-08-08T06:37:05Z</time>
      </trkpt>
      <trkpt lat="41.0882765148" lon="-5.7034723833">
        <ele>806.20</ele>
        <time>2020-08-08T06:37:06Z</time>
      </trkpt>
      <trkpt lat="41.0883034207" lon="-5.7034728024">
        <ele>806.20</ele>
        <time>2020-08-08T06:37:07Z</time>
      </trkpt>
      <trkpt lat="41.0883312486" lon="-5.7034751493">
        <ele>806.20</ele>
        <time>2020-08-08T06:37:08Z</time>
      </trkpt>
      <trkpt lat="41.0886589810" lon="-5.7035258599">
        <ele>806.68</ele>
        <time>2020-08-08T06:37:19Z</time>
      </trkpt>
      <trkpt lat="41.0889755655" lon="-5.7036671788">
        <ele>807.16</ele>
        <time>2020-08-08T06:37:30Z</time>
      </trkpt>
      <trkpt lat="41.0892867018" lon="-5.7038644888">
        <ele>807.64</ele>
        <time>2020-08-08T06:37:41Z</time>
      </trkpt>
      <trkpt lat="41.0896036215" lon="-5.7040188834">
        <ele>807.64</ele>
        <time>2020-08-08T06:37:53Z</time>
      </trkpt>
      <trkpt lat="41.0898406617" lon="-5.7041590288">
        <ele>808.13</ele>
        <time>2020-08-08T06:38:05Z</time>
      </trkpt>
      <trkpt lat="41.0900467727" lon="-5.7042598631">
        <ele>809.09</ele>
        <time>2020-08-08T06:38:15Z</time>
      </trkpt>
      <trkpt lat="41.0902064480" lon="-5.7043422572">
        <ele>810.05</ele>
        <time>2020-08-08T06:38:23Z</time>
      </trkpt>
      <trkpt lat="41.0904055182" lon="-5.7044430915">
        <ele>811.49</ele>
        <time>2020-08-08T06:38:33Z</time>
      </trkpt>
      <trkpt lat="41.0905742459" lon="-5.7045109849">
        <ele>812.45</ele>
        <time>2020-08-08T06:38:41Z</time>
      </trkpt>
      <trkpt lat="41.0907582287" lon="-5.7045901939">
        <ele>813.41</ele>
        <time>2020-08-08T06:38:50Z</time>
      </trkpt>
      <trkpt lat="41.0909376852" lon="-5.7046435867">
        <ele>814.37</ele>
        <time>2020-08-08T06:38:57Z</time>
      </trkpt>
      <trkpt lat="41.0912074149" lon="-5.7047086302">
        <ele>815.34</ele>
        <time>2020-08-08T06:39:07Z</time>
      </trkpt>
      <trkpt lat="41.0914928187" lon="-5.7047843188">
        <ele>814.37</ele>
        <time>2020-08-08T06:39:15Z</time>
      </trkpt>
      <trkpt lat="41.0918650590" lon="-5.7048835605">
        <ele>813.41</ele>
        <time>2020-08-08T06:39:23Z</time>
      </trkpt>
      <trkpt lat="41.0921001714" lon="-5.7049496938">
        <ele>812.93</ele>
        <time>2020-08-08T06:39:30Z</time>
      </trkpt>
      <trkpt lat="41.0923262313" lon="-5.7050040923">
        <ele>812.93</ele>
        <time>2020-08-08T06:39:38Z</time>
      </trkpt>
      <trkpt lat="41.0925719887" lon="-5.7050654478">
        <ele>812.45</ele>
        <time>2020-08-08T06:39:48Z</time>
      </trkpt>
      <trkpt lat="41.0928353481" lon="-5.7051394600">
        <ele>812.45</ele>
        <time>2020-08-08T06:39:59Z</time>
      </trkpt>
      <trkpt lat="41.0931115318" lon="-5.7052374445">
        <ele>813.89</ele>
        <time>2020-08-08T06:40:11Z</time>
      </trkpt>
      <trkpt lat="41.0933147930" lon="-5.7053018175">
        <ele>814.37</ele>
        <time>2020-08-08T06:40:21Z</time>
      </trkpt>
      <trkpt lat="41.0934881307" lon="-5.7053480018">
        <ele>815.34</ele>
        <time>2020-08-08T06:40:29Z</time>
      </trkpt>
      <trkpt lat="41.0936930683" lon="-5.7053937670">
        <ele>816.30</ele>
        <time>2020-08-08T06:40:38Z</time>
      </trkpt>
      <trkpt lat="41.0938654840" lon="-5.7054515183">
        <ele>816.30</ele>
        <time>2020-08-08T06:40:46Z</time>
      </trkpt>
      <trkpt lat="41.0942254867" lon="-5.7055585552">
        <ele>816.30</ele>
        <time>2020-08-08T06:40:58Z</time>
      </trkpt>
      <trkpt lat="41.0946011636" lon="-5.7056580484">
        <ele>816.30</ele>
        <time>2020-08-08T06:41:10Z</time>
      </trkpt>
      <trkpt lat="41.0949110426" lon="-5.7057442982">
        <ele>816.78</ele>
        <time>2020-08-08T06:41:20Z</time>
      </trkpt>
      <trkpt lat="41.0952189099" lon="-5.7058445457">
        <ele>817.26</ele>
        <time>2020-08-08T06:41:31Z</time>
      </trkpt>
      <trkpt lat="41.0954218358" lon="-5.7058971841">
        <ele>817.74</ele>
        <time>2020-08-08T06:41:40Z</time>
      </trkpt>
      <trkpt lat="41.0956711136" lon="-5.7059590425">
        <ele>818.22</ele>
        <time>2020-08-08T06:41:51Z</time>
      </trkpt>
      <trkpt lat="41.0958355665" lon="-5.7060087472">
        <ele>818.22</ele>
        <time>2020-08-08T06:41:59Z</time>
      </trkpt>
      <trkpt lat="41.0960540827" lon="-5.7060719468">
        <ele>818.70</ele>
        <time>2020-08-08T06:42:09Z</time>
      </trkpt>
      <trkpt lat="41.0962715931" lon="-5.7061323803">
        <ele>819.18</ele>
        <time>2020-08-08T06:42:19Z</time>
      </trkpt>
      <trkpt lat="41.0965114832" lon="-5.7061962504">
        <ele>819.66</ele>
        <time>2020-08-08T06:42:30Z</time>
      </trkpt>
      <trkpt lat="41.0967187677" lon="-5.7062541693">
        <ele>821.10</ele>
        <time>2020-08-08T06:42:40Z</time>
      </trkpt>
      <trkpt lat="41.0969289858" lon="-5.7063131779">
        <ele>822.06</ele>
        <time>2020-08-08T06:42:50Z</time>
      </trkpt>
      <trkpt lat="41.0971742403" lon="-5.7063843403">
        <ele>822.55</ele>
        <time>2020-08-08T06:43:02Z</time>
      </trkpt>
      <trkpt lat="41.0973590612" lon="-5.7064149342">
        <ele>822.55</ele>
        <time>2020-08-08T06:43:11Z</time>
      </trkpt>
      <trkpt lat="41.0974819399" lon="-5.7064462826">
        <ele>823.03</ele>
        <time>2020-08-08T06:43:19Z</time>
      </trkpt>
      <trkpt lat="41.0974969435" lon="-5.7064393256">
        <ele>823.03</ele>
        <time>2020-08-08T06:43:20Z</time>
      </trkpt>
      <trkpt lat="41.0975085944" lon="-5.7064320333">
        <ele>823.03</ele>
        <time>2020-08-08T06:43:21Z</time>
      </trkpt>
      <trkpt lat="41.0976538528" lon="-5.7063519862">
        <ele>822.55</ele>
        <time>2020-08-08T06:43:31Z</time>
      </trkpt>
      <trkpt lat="41.0976944212" lon="-5.7063343003">
        <ele>822.55</ele>
        <time>2020-08-08T06:43:37Z</time>
      </trkpt>
      <trkpt lat="41.0976995341" lon="-5.7063340489">
        <ele>823.03</ele>
        <time>2020-08-08T06:43:50Z</time>
      </trkpt>
      <trkpt lat="41.0976986960" lon="-5.7063353900">
        <ele>823.51</ele>
        <time>2020-08-08T06:44:08Z</time>
      </trkpt>
      <trkpt lat="41.0976985283" lon="-5.7063375693">
        <ele>823.51</ele>
        <time>2020-08-08T06:44:26Z</time>
      </trkpt>
      <trkpt lat="41.0977035575" lon="-5.7063375693">
        <ele>824.47</ele>
        <time>2020-08-08T06:44:39Z</time>
      </trkpt>
      <trkpt lat="41.0977038089" lon="-5.7063436043">
        <ele>823.99</ele>
        <time>2020-08-08T06:44:56Z</time>
      </trkpt>
      <trkpt lat="41.0976994503" lon="-5.7063340489">
        <ele>823.51</ele>
        <time>2020-08-08T06:45:18Z</time>
      </trkpt>
      <trkpt lat="41.0976979416" lon="-5.7063350547">
        <ele>823.51</ele>
        <time>2020-08-08T06:45:34Z</time>
      </trkpt>
      <trkpt lat="41.0977029707" lon="-5.7063343842">
        <ele>823.51</ele>
        <time>2020-08-08T06:45:49Z</time>
      </trkpt>
      <trkpt lat="41.0977016296" lon="-5.7063338812">
        <ele>823.03</ele>
        <time>2020-08-08T06:46:06Z</time>
      </trkpt>
      <trkpt lat="41.0977020487" lon="-5.7063332107">
        <ele>822.55</ele>
        <time>2020-08-08T06:46:27Z</time>
      </trkpt>
      <trkpt lat="41.0977012105" lon="-5.7063390780">
        <ele>822.55</ele>
        <time>2020-08-08T06:46:49Z</time>
      </trkpt>
      <trkpt lat="41.0976996180" lon="-5.7063380722">
        <ele>821.58</ele>
        <time>2020-08-08T06:47:10Z</time>
      </trkpt>
      <trkpt lat="41.0976979416" lon="-5.7063310314">
        <ele>822.06</ele>
        <time>2020-08-08T06:47:34Z</time>
      </trkpt>
      <trkpt lat="41.0977044795" lon="-5.7063291874">
        <ele>822.55</ele>
        <time>2020-08-08T06:47:58Z</time>
      </trkpt>
      <trkpt lat="41.0977090057" lon="-5.7063275948">
        <ele>822.06</ele>
        <time>2020-08-08T06:48:16Z</time>
      </trkpt>
      <trkpt lat="41.0977156274" lon="-5.7063328754">
        <ele>822.06</ele>
        <time>2020-08-08T06:48:37Z</time>
      </trkpt>
      <trkpt lat="41.0977147054" lon="-5.7063270081">
        <ele>822.06</ele>
        <time>2020-08-08T06:48:55Z</time>
      </trkpt>
      <trkpt lat="41.0977162141" lon="-5.7063291874">
        <ele>822.55</ele>
        <time>2020-08-08T06:49:15Z</time>
      </trkpt>
      <trkpt lat="41.0977145378" lon="-5.7063274272">
        <ele>822.55</ele>
        <time>2020-08-08T06:49:38Z</time>
      </trkpt>
      <trkpt lat="41.0977116879" lon="-5.7063285168">
        <ele>822.55</ele>
        <time>2020-08-08T06:49:52Z</time>
      </trkpt>
      <trkpt lat="41.0977088381" lon="-5.7063280977">
        <ele>823.51</ele>
        <time>2020-08-08T06:50:07Z</time>
      </trkpt>
      <trkpt lat="41.0977077484" lon="-5.7063260023">
        <ele>823.51</ele>
        <time>2020-08-08T06:50:27Z</time>
      </trkpt>
      <trkpt lat="41.0977106821" lon="-5.7063291874">
        <ele>823.99</ele>
        <time>2020-08-08T06:50:48Z</time>
      </trkpt>
      <trkpt lat="41.0977042280" lon="-5.7063292712">
        <ele>823.51</ele>
        <time>2020-08-08T06:51:08Z</time>
      </trkpt>
      <trkpt lat="41.0977022164" lon="-5.7063220628">
        <ele>823.99</ele>
        <time>2020-08-08T06:51:33Z</time>
      </trkpt>
      <trkpt lat="41.0976974387" lon="-5.7063195482">
        <ele>823.99</ele>
        <time>2020-08-08T06:51:56Z</time>
      </trkpt>
      <trkpt lat="41.0977022164" lon="-5.7063242421">
        <ele>823.51</ele>
        <time>2020-08-08T06:52:13Z</time>
      </trkpt>
      <trkpt lat="41.0977035575" lon="-5.7063258346">
        <ele>823.03</ele>
        <time>2020-08-08T06:52:34Z</time>
      </trkpt>
      <trkpt lat="41.0977057368" lon="-5.7063253317">
        <ele>823.03</ele>
        <time>2020-08-08T06:52:56Z</time>
      </trkpt>
      <trkpt lat="41.0977012105" lon="-5.7063234039">
        <ele>823.03</ele>
        <time>2020-08-08T06:53:05Z</time>
      </trkpt>
      <trkpt lat="41.0977487359" lon="-5.7063071430">
        <ele>822.55</ele>
        <time>2020-08-08T06:53:13Z</time>
      </trkpt>
      <trkpt lat="41.0978837684" lon="-5.7062271796">
        <ele>823.03</ele>
        <time>2020-08-08T06:53:20Z</time>
      </trkpt>
      <trkpt lat="41.0980856884" lon="-5.7061384153">
        <ele>823.03</ele>
        <time>2020-08-08T06:53:28Z</time>
      </trkpt>
      <trkpt lat="41.0983539093" lon="-5.7060245890">
        <ele>823.51</ele>
        <time>2020-08-08T06:53:38Z</time>
      </trkpt>
      <trkpt lat="41.0986894369" lon="-5.7058837730">
        <ele>823.99</ele>
        <time>2020-08-08T06:53:50Z</time>
      </trkpt>
      <trkpt lat="41.0989822168" lon="-5.7057632413">
        <ele>824.95</ele>
        <time>2020-08-08T06:54:01Z</time>
      </trkpt>
      <trkpt lat="41.0992253758" lon="-5.7056591380">
        <ele>825.43</ele>
        <time>2020-08-08T06:54:10Z</time>
      </trkpt>
      <trkpt lat="41.0995776672" lon="-5.7055127062">
        <ele>825.91</ele>
        <time>2020-08-08T06:54:23Z</time>
      </trkpt>
      <trkpt lat="41.0998443794" lon="-5.7053978741">
        <ele>826.39</ele>
        <time>2020-08-08T06:54:33Z</time>
      </trkpt>
      <trkpt lat="41.1001119297" lon="-5.7052838802">
        <ele>826.87</ele>
        <time>2020-08-08T06:54:43Z</time>
      </trkpt>
      <trkpt lat="41.1003924720" lon="-5.7051703893">
        <ele>827.35</ele>
        <time>2020-08-08T06:54:53Z</time>
      </trkpt>
      <trkpt lat="41.1006660573" lon="-5.7050539646">
        <ele>827.35</ele>
        <time>2020-08-08T06:55:03Z</time>
      </trkpt>
      <trkpt lat="41.1009905208" lon="-5.7049141545">
        <ele>828.31</ele>
        <time>2020-08-08T06:55:15Z</time>
      </trkpt>
      <trkpt lat="41.1013353523" lon="-5.7047678065">
        <ele>828.31</ele>
        <time>2020-08-08T06:55:28Z</time>
      </trkpt>
      <trkpt lat="41.1016210075" lon="-5.7046461012">
        <ele>828.79</ele>
        <time>2020-08-08T06:55:39Z</time>
      </trkpt>
      <trkpt lat="41.1019199900" lon="-5.7045238931">
        <ele>829.27</ele>
        <time>2020-08-08T06:55:50Z</time>
      </trkpt>
      <trkpt lat="41.1021706928" lon="-5.7044138387">
        <ele>829.27</ele>
        <time>2020-08-08T06:55:59Z</time>
      </trkpt>
      <trkpt lat="41.1024826672" lon="-5.7042832486">
        <ele>829.76</ele>
        <time>2020-08-08T06:56:10Z</time>
      </trkpt>
      <trkpt lat="41.1027272511" lon="-5.7041780557">
        <ele>830.24</ele>
        <time>2020-08-08T06:56:19Z</time>
      </trkpt>
      <trkpt lat="41.1029922869" lon="-5.7040633913">
        <ele>831.20</ele>
        <time>2020-08-08T06:56:29Z</time>
      </trkpt>
      <trkpt lat="41.1032870784" lon="-5.7039448712">
        <ele>831.20</ele>
        <time>2020-08-08T06:56:40Z</time>
      </trkpt>
      <trkpt lat="41.1035474204" lon="-5.7038352359">
        <ele>831.68</ele>
        <time>2020-08-08T06:56:50Z</time>
      </trkpt>
      <trkpt lat="41.1037402041" lon="-5.7037561107">
        <ele>832.16</ele>
        <time>2020-08-08T06:56:58Z</time>
      </trkpt>
      <trkpt lat="41.1040175613" lon="-5.7036385126">
        <ele>832.16</ele>
        <time>2020-08-08T06:57:08Z</time>
      </trkpt>
      <trkpt lat="41.1042905599" lon="-5.7035208307">
        <ele>832.64</ele>
        <time>2020-08-08T06:57:18Z</time>
      </trkpt>
      <trkpt lat="41.1046063900" lon="-5.7033841219">
        <ele>833.12</ele>
        <time>2020-08-08T06:57:29Z</time>
      </trkpt>
      <trkpt lat="41.1048731022" lon="-5.7032718882">
        <ele>833.12</ele>
        <time>2020-08-08T06:57:38Z</time>
      </trkpt>
      <trkpt lat="41.1052014213" lon="-5.7031347603">
        <ele>832.64</ele>
        <time>2020-08-08T06:57:48Z</time>
      </trkpt>
      <trkpt lat="41.1055774335" lon="-5.7029803656">
        <ele>832.64</ele>
        <time>2020-08-08T06:57:59Z</time>
      </trkpt>
      <trkpt lat="41.1059210077" lon="-5.7028422318">
        <ele>833.12</ele>
        <time>2020-08-08T06:58:09Z</time>
      </trkpt>
      <trkpt lat="41.1063225009" lon="-5.7026646193">
        <ele>833.12</ele>
        <time>2020-08-08T06:58:20Z</time>
      </trkpt>
      <trkpt lat="41.1066985969" lon="-5.7024962269">
        <ele>833.12</ele>
        <time>2020-08-08T06:58:30Z</time>
      </trkpt>
      <trkpt lat="41.1071082205" lon="-5.7023264095">
        <ele>833.60</ele>
        <time>2020-08-08T06:58:41Z</time>
      </trkpt>
      <trkpt lat="41.1074750125" lon="-5.7021769602">
        <ele>833.60</ele>
        <time>2020-08-08T06:58:51Z</time>
      </trkpt>
      <trkpt lat="41.1078839656" lon="-5.7019990124">
        <ele>833.60</ele>
        <time>2020-08-08T06:59:02Z</time>
      </trkpt>
      <trkpt lat="41.1082927510" lon="-5.7018252555">
        <ele>833.60</ele>
        <time>2020-08-08T06:59:13Z</time>
      </trkpt>
      <trkpt lat="41.1086259317" lon="-5.7016844396">
        <ele>834.08</ele>
        <time>2020-08-08T06:59:22Z</time>
      </trkpt>
      <trkpt lat="41.1090093199" lon="-5.7015111856">
        <ele>833.12</ele>
        <time>2020-08-08T06:59:33Z</time>
      </trkpt>
      <trkpt lat="41.1093342025" lon="-5.7013723813">
        <ele>832.64</ele>
        <time>2020-08-08T06:59:42Z</time>
      </trkpt>
      <trkpt lat="41.1096597556" lon="-5.7012168970">
        <ele>831.20</ele>
        <time>2020-08-08T06:59:52Z</time>
      </trkpt>
      <trkpt lat="41.1100101192" lon="-5.7010359317">
        <ele>830.72</ele>
        <time>2020-08-08T07:00:01Z</time>
      </trkpt>
      <trkpt lat="41.1103867181" lon="-5.7008361071">
        <ele>830.24</ele>
        <time>2020-08-08T07:00:12Z</time>
      </trkpt>
      <trkpt lat="41.1107457988" lon="-5.7006506156">
        <ele>830.24</ele>
        <time>2020-08-08T07:00:22Z</time>
      </trkpt>
      <trkpt lat="41.1109882034" lon="-5.7005277369">
        <ele>830.24</ele>
        <time>2020-08-08T07:00:30Z</time>
      </trkpt>
      <trkpt lat="41.1112223100" lon="-5.7004088815">
        <ele>829.27</ele>
        <time>2020-08-08T07:00:38Z</time>
      </trkpt>
      <trkpt lat="41.1112779658" lon="-5.7003165968">
        <ele>829.27</ele>
        <time>2020-08-08T07:00:43Z</time>
      </trkpt>
      <trkpt lat="41.1113036145" lon="-5.7000190392">
        <ele>828.79</ele>
        <time>2020-08-08T07:00:51Z</time>
      </trkpt>
      <trkpt lat="41.1113360524" lon="-5.6995121855">
        <ele>828.79</ele>
        <time>2020-08-08T07:01:03Z</time>
      </trkpt>
      <trkpt lat="41.1113818176" lon="-5.6993375905">
        <ele>828.79</ele>
        <time>2020-08-08T07:01:09Z</time>
      </trkpt>
      <trkpt lat="41.1115337815" lon="-5.6993209943">
        <ele>828.79</ele>
        <time>2020-08-08T07:01:15Z</time>
      </trkpt>
      <trkpt lat="41.1118189339" lon="-5.6993332319">
        <ele>828.31</ele>
        <time>2020-08-08T07:01:24Z</time>
      </trkpt>
      <trkpt lat="41.1120149866" lon="-5.6993208267">
        <ele>828.31</ele>
        <time>2020-08-08T07:01:32Z</time>
      </trkpt>
      <trkpt lat="41.1120221950" lon="-5.6993204914">
        <ele>828.79</ele>
        <time>2020-08-08T07:01:39Z</time>
      </trkpt>
      <trkpt lat="41.1120209377" lon="-5.6993135344">
        <ele>828.79</ele>
        <time>2020-08-08T07:01:49Z</time>
      </trkpt>
      <trkpt lat="41.1120097898" lon="-5.6992432941">
        <ele>828.31</ele>
        <time>2020-08-08T07:01:57Z</time>
      </trkpt>
      <trkpt lat="41.1120137293" lon="-5.6991931703">
        <ele>828.31</ele>
        <time>2020-08-08T07:02:01Z</time>
      </trkpt>
      <trkpt lat="41.1120328400" lon="-5.6990757398">
        <ele>828.79</ele>
        <time>2020-08-08T07:02:11Z</time>
      </trkpt>
      <trkpt lat="41.1120321695" lon="-5.6990806013">
        <ele>827.83</ele>
        <time>2020-08-08T07:02:21Z</time>
      </trkpt>
      <trkpt lat="41.1120368633" lon="-5.6990788411">
        <ele>826.87</ele>
        <time>2020-08-08T07:02:31Z</time>
      </trkpt>
      <trkpt lat="41.1122217681" lon="-5.6990677770">
        <ele>826.87</ele>
        <time>2020-08-08T07:02:39Z</time>
      </trkpt>
      <trkpt lat="41.1124868877" lon="-5.6990398653">
        <ele>827.35</ele>
        <time>2020-08-08T07:02:47Z</time>
      </trkpt>
      <trkpt lat="41.1128567811" lon="-5.6990106124">
        <ele>827.35</ele>
        <time>2020-08-08T07:02:56Z</time>
      </trkpt>
      <trkpt lat="41.1133301910" lon="-5.6990044098">
        <ele>826.39</ele>
        <time>2020-08-08T07:03:06Z</time>
      </trkpt>
      <trkpt lat="41.1138480250" lon="-5.6990097743">
        <ele>825.91</ele>
        <time>2020-08-08T07:03:17Z</time>
      </trkpt>
      <trkpt lat="41.1142921820" lon="-5.6990228500">
        <ele>825.91</ele>
        <time>2020-08-08T07:03:26Z</time>
      </trkpt>
      <trkpt lat="41.1147998739" lon="-5.6990505941">
        <ele>826.87</ele>
        <time>2020-08-08T07:03:37Z</time>
      </trkpt>
      <trkpt lat="41.1150190607" lon="-5.6990634184">
        <ele>827.35</ele>
        <time>2020-08-08T07:03:42Z</time>
      </trkpt>
      <trkpt lat="41.1154519022" lon="-5.6990962755">
        <ele>828.79</ele>
        <time>2020-08-08T07:03:52Z</time>
      </trkpt>
      <trkpt lat="41.1156756151" lon="-5.6991091836">
        <ele>829.27</ele>
        <time>2020-08-08T07:03:57Z</time>
      </trkpt>
      <trkpt lat="41.1157583445" lon="-5.6991204154">
        <ele>829.27</ele>
        <time>2020-08-08T07:03:59Z</time>
      </trkpt>
      <trkpt lat="41.1159264855" lon="-5.6991290487">
        <ele>829.76</ele>
        <time>2020-08-08T07:04:03Z</time>
      </trkpt>
      <trkpt lat="41.1163345166" lon="-5.6991508417">
        <ele>830.24</ele>
        <time>2020-08-08T07:04:13Z</time>
      </trkpt>
      <trkpt lat="41.1166131310" lon="-5.6991717126">
        <ele>830.72</ele>
        <time>2020-08-08T07:04:21Z</time>
      </trkpt>
      <trkpt lat="41.1169940047" lon="-5.6991950981">
        <ele>831.20</ele>
        <time>2020-08-08T07:04:31Z</time>
      </trkpt>
      <trkpt lat="41.1173908040" lon="-5.6992228422">
        <ele>831.20</ele>
        <time>2020-08-08T07:04:41Z</time>
      </trkpt>
      <trkpt lat="41.1177710909" lon="-5.6992403604">
        <ele>831.68</ele>
        <time>2020-08-08T07:04:50Z</time>
      </trkpt>
      <trkpt lat="41.1181530543" lon="-5.6992702000">
        <ele>831.68</ele>
        <time>2020-08-08T07:04:59Z</time>
      </trkpt>
      <trkpt lat="41.1185446568" lon="-5.6992969383">
        <ele>831.20</ele>
        <time>2020-08-08T07:05:08Z</time>
      </trkpt>
      <trkpt lat="41.1189574655" lon="-5.6993881334">
        <ele>830.24</ele>
        <time>2020-08-08T07:05:17Z</time>
      </trkpt>
      <trkpt lat="41.1193584558" lon="-5.6996089965">
        <ele>829.76</ele>
        <time>2020-08-08T07:05:26Z</time>
      </trkpt>
      <trkpt lat="41.1196848471" lon="-5.6999430154">
        <ele>829.76</ele>
        <time>2020-08-08T07:05:34Z</time>
      </trkpt>
      <trkpt lat="41.1199825723" lon="-5.7004346140">
        <ele>829.76</ele>
        <time>2020-08-08T07:05:43Z</time>
      </trkpt>
      <trkpt lat="41.1202460993" lon="-5.7009659428">
        <ele>829.27</ele>
        <time>2020-08-08T07:05:53Z</time>
      </trkpt>
      <trkpt lat="41.1205166671" lon="-5.7013137080">
        <ele>828.79</ele>
        <time>2020-08-08T07:06:00Z</time>
      </trkpt>
      <trkpt lat="41.1206137296" lon="-5.7013964374">
        <ele>828.31</ele>
        <time>2020-08-08T07:06:02Z</time>
      </trkpt>
      <trkpt lat="41.1207707226" lon="-5.7014945894">
        <ele>828.31</ele>
        <time>2020-08-08T07:06:05Z</time>
      </trkpt>
      <trkpt lat="41.1212029774" lon="-5.7015656680">
        <ele>828.79</ele>
        <time>2020-08-08T07:06:13Z</time>
      </trkpt>
      <trkpt lat="41.1215910595" lon="-5.7014095131">
        <ele>829.27</ele>
        <time>2020-08-08T07:06:21Z</time>
      </trkpt>
      <trkpt lat="41.1219020281" lon="-5.7010911684">
        <ele>828.79</ele>
        <time>2020-08-08T07:06:29Z</time>
      </trkpt>
      <trkpt lat="41.1220244039" lon="-5.7008477580">
        <ele>828.79</ele>
        <time>2020-08-08T07:06:34Z</time>
      </trkpt>
      <trkpt lat="41.1220480409" lon="-5.7005366217">
        <ele>828.31</ele>
        <time>2020-08-08T07:06:40Z</time>
      </trkpt>
      <trkpt lat="41.1219461169" lon="-5.7002766151">
        <ele>828.79</ele>
        <time>2020-08-08T07:06:45Z</time>
      </trkpt>
      <trkpt lat="41.1220118310" lon="-5.7000004314">
        <ele>828.79</ele>
        <time>2020-08-08T07:06:50Z</time>
      </trkpt>
      <trkpt lat="41.1221093126" lon="-5.6998549215">
        <ele>828.31</ele>
        <time>2020-08-08T07:06:53Z</time>
      </trkpt>
      <trkpt lat="41.1221719254" lon="-5.6996982638">
        <ele>828.31</ele>
        <time>2020-08-08T07:06:56Z</time>
      </trkpt>
      <trkpt lat="41.1222257372" lon="-5.6990987901">
        <ele>828.79</ele>
        <time>2020-08-08T07:07:06Z</time>
      </trkpt>
      <trkpt lat="41.1222492065" lon="-5.6986514479">
        <ele>828.31</ele>
        <time>2020-08-08T07:07:13Z</time>
      </trkpt>
      <trkpt lat="41.1221737694" lon="-5.6983426586">
        <ele>828.79</ele>
        <time>2020-08-08T07:07:18Z</time>
      </trkpt>
      <trkpt lat="41.1221172754" lon="-5.6982408185">
        <ele>828.79</ele>
        <time>2020-08-08T07:07:20Z</time>
      </trkpt>
      <trkpt lat="41.1220736057" lon="-5.6979339570">
        <ele>828.31</ele>
        <time>2020-08-08T07:07:25Z</time>
      </trkpt>
      <trkpt lat="41.1221611127" lon="-5.6977614574">
        <ele>827.83</ele>
        <time>2020-08-08T07:07:28Z</time>
      </trkpt>
      <trkpt lat="41.1222021841" lon="-5.6977193803">
        <ele>827.83</ele>
        <time>2020-08-08T07:07:29Z</time>
      </trkpt>
      <trkpt lat="41.1222325265" lon="-5.6976878643">
        <ele>827.83</ele>
        <time>2020-08-08T07:07:30Z</time>
      </trkpt>
      <trkpt lat="41.1222637910" lon="-5.6976409256">
        <ele>827.35</ele>
        <time>2020-08-08T07:07:31Z</time>
      </trkpt>
      <trkpt lat="41.1223220453" lon="-5.6974777300">
        <ele>826.87</ele>
        <time>2020-08-08T07:07:34Z</time>
      </trkpt>
      <trkpt lat="41.1224298365" lon="-5.6970663462">
        <ele>826.39</ele>
        <time>2020-08-08T07:07:42Z</time>
      </trkpt>
      <trkpt lat="41.1226770189" lon="-5.6966174953">
        <ele>825.43</ele>
        <time>2020-08-08T07:07:51Z</time>
      </trkpt>
      <trkpt lat="41.1227159109" lon="-5.6965685450">
        <ele>825.43</ele>
        <time>2020-08-08T07:07:52Z</time>
      </trkpt>
      <trkpt lat="41.1231197510" lon="-5.6962733343">
        <ele>823.51</ele>
        <time>2020-08-08T07:08:00Z</time>
      </trkpt>
      <trkpt lat="41.1233669333" lon="-5.6962098833">
        <ele>823.03</ele>
        <time>2020-08-08T07:08:04Z</time>
      </trkpt>
      <trkpt lat="41.1238694284" lon="-5.6963132322">
        <ele>821.58</ele>
        <time>2020-08-08T07:08:12Z</time>
      </trkpt>
      <trkpt lat="41.1242264137" lon="-5.6966006476">
        <ele>821.10</ele>
        <time>2020-08-08T07:08:19Z</time>
      </trkpt>
      <trkpt lat="41.1247147433" lon="-5.6970746443">
        <ele>820.62</ele>
        <time>2020-08-08T07:08:30Z</time>
      </trkpt>
      <trkpt lat="41.1251011491" lon="-5.6972899754">
        <ele>821.10</ele>
        <time>2020-08-08T07:08:38Z</time>
      </trkpt>
      <trkpt lat="41.1255227588" lon="-5.6973686814">
        <ele>820.14</ele>
        <time>2020-08-08T07:08:46Z</time>
      </trkpt>
      <trkpt lat="41.1260693427" lon="-5.6973271910">
        <ele>818.70</ele>
        <time>2020-08-08T07:08:55Z</time>
      </trkpt>
      <trkpt lat="41.1267317645" lon="-5.6972479820">
        <ele>817.26</ele>
        <time>2020-08-08T07:09:05Z</time>
      </trkpt>
      <trkpt lat="41.1272927653" lon="-5.6971940864">
        <ele>815.82</ele>
        <time>2020-08-08T07:09:14Z</time>
      </trkpt>
      <trkpt lat="41.1279960070" lon="-5.6971222535">
        <ele>812.93</ele>
        <time>2020-08-08T07:09:24Z</time>
      </trkpt>
      <trkpt lat="41.1287507135" lon="-5.6970546115">
        <ele>810.53</ele>
        <time>2020-08-08T07:09:34Z</time>
      </trkpt>
      <trkpt lat="41.1295472458" lon="-5.6969686970">
        <ele>808.61</ele>
        <time>2020-08-08T07:09:45Z</time>
      </trkpt>
      <trkpt lat="41.1300510820" lon="-5.6969162263">
        <ele>808.13</ele>
        <time>2020-08-08T07:09:53Z</time>
      </trkpt>
      <trkpt lat="41.1305603664" lon="-5.6968668569">
        <ele>808.61</ele>
        <time>2020-08-08T07:10:03Z</time>
      </trkpt>
      <trkpt lat="41.1311631929" lon="-5.6968157273">
        <ele>807.64</ele>
        <time>2020-08-08T07:10:15Z</time>
      </trkpt>
      <trkpt lat="41.1316114571" lon="-5.6967815291">
        <ele>807.64</ele>
        <time>2020-08-08T07:10:24Z</time>
      </trkpt>
      <trkpt lat="41.1321613099" lon="-5.6967278849">
        <ele>807.64</ele>
        <time>2020-08-08T07:10:35Z</time>
      </trkpt>
      <trkpt lat="41.1328247376" lon="-5.6966501847">
        <ele>807.16</ele>
        <time>2020-08-08T07:10:48Z</time>
      </trkpt>
      <trkpt lat="41.1332386360" lon="-5.6966015697">
        <ele>806.68</ele>
        <time>2020-08-08T07:10:56Z</time>
      </trkpt>
      <trkpt lat="41.1337350123" lon="-5.6965621747">
        <ele>807.64</ele>
        <time>2020-08-08T07:11:06Z</time>
      </trkpt>
      <trkpt lat="41.1342059914" lon="-5.6965074409">
        <ele>808.13</ele>
        <time>2020-08-08T07:11:16Z</time>
      </trkpt>
      <trkpt lat="41.1346808262" lon="-5.6964622624">
        <ele>808.61</ele>
        <time>2020-08-08T07:11:27Z</time>
      </trkpt>
      <trkpt lat="41.1350288428" lon="-5.6964316685">
        <ele>810.05</ele>
        <time>2020-08-08T07:11:36Z</time>
      </trkpt>
      <trkpt lat="41.1354215350" lon="-5.6963967998">
        <ele>810.53</ele>
        <time>2020-08-08T07:11:46Z</time>
      </trkpt>
      <trkpt lat="41.1357192602" lon="-5.6963712350">
        <ele>811.01</ele>
        <time>2020-08-08T07:11:54Z</time>
      </trkpt>
      <trkpt lat="41.1360741500" lon="-5.6963317562">
        <ele>811.49</ele>
        <time>2020-08-08T07:12:04Z</time>
      </trkpt>
      <trkpt lat="41.1364127789" lon="-5.6962989829">
        <ele>812.45</ele>
        <time>2020-08-08T07:12:13Z</time>
      </trkpt>
      <trkpt lat="41.1368139368" lon="-5.6962545589">
        <ele>813.89</ele>
        <time>2020-08-08T07:12:24Z</time>
      </trkpt>
      <trkpt lat="41.1371839140" lon="-5.6962139066">
        <ele>814.85</ele>
        <time>2020-08-08T07:12:35Z</time>
      </trkpt>
      <trkpt lat="41.1375080422" lon="-5.6961791217">
        <ele>815.34</ele>
        <time>2020-08-08T07:12:45Z</time>
      </trkpt>
      <trkpt lat="41.1378054321" lon="-5.6961455941">
        <ele>816.30</ele>
        <time>2020-08-08T07:12:54Z</time>
      </trkpt>
      <trkpt lat="41.1381743196" lon="-5.6961135752">
        <ele>817.74</ele>
        <time>2020-08-08T07:13:05Z</time>
      </trkpt>
      <trkpt lat="41.1384959333" lon="-5.6960776169">
        <ele>818.70</ele>
        <time>2020-08-08T07:13:15Z</time>
      </trkpt>
      <trkpt lat="41.1388634797" lon="-5.6960452627">
        <ele>819.66</ele>
        <time>2020-08-08T07:13:26Z</time>
      </trkpt>
      <trkpt lat="41.1392155197" lon="-5.6960020121">
        <ele>821.10</ele>
        <time>2020-08-08T07:13:37Z</time>
      </trkpt>
      <trkpt lat="41.1395792942" lon="-5.6959635392">
        <ele>822.55</ele>
        <time>2020-08-08T07:13:48Z</time>
      </trkpt>
      <trkpt lat="41.1399615090" lon="-5.6959270779">
        <ele>823.51</ele>
        <time>2020-08-08T07:13:59Z</time>
      </trkpt>
      <trkpt lat="41.1403408740" lon="-5.6958861742">
        <ele>824.47</ele>
        <time>2020-08-08T07:14:10Z</time>
      </trkpt>
      <trkpt lat="41.1406738870" lon="-5.6958506349">
        <ele>825.91</ele>
        <time>2020-08-08T07:14:20Z</time>
      </trkpt>
      <trkpt lat="41.1409471370" lon="-5.6958204601">
        <ele>826.39</ele>
        <time>2020-08-08T07:14:28Z</time>
      </trkpt>
      <trkpt lat="41.1412929744" lon="-5.6957850046">
        <ele>826.87</ele>
        <time>2020-08-08T07:14:38Z</time>
      </trkpt>
      <trkpt lat="41.1417085491" lon="-5.6957356352">
        <ele>827.83</ele>
        <time>2020-08-08T07:14:50Z</time>
      </trkpt>
      <trkpt lat="41.1420268100" lon="-5.6957058795">
        <ele>828.31</ele>
        <time>2020-08-08T07:14:59Z</time>
      </trkpt>
      <trkpt lat="41.1423850525" lon="-5.6956746988">
        <ele>829.27</ele>
        <time>2020-08-08T07:15:09Z</time>
      </trkpt>
      <trkpt lat="41.1426855437" lon="-5.6956427637">
        <ele>829.76</ele>
        <time>2020-08-08T07:15:17Z</time>
      </trkpt>
      <trkpt lat="41.1430411041" lon="-5.6956062187">
        <ele>830.24</ele>
        <time>2020-08-08T07:15:26Z</time>
      </trkpt>
      <trkpt lat="41.1434113327" lon="-5.6955700088">
        <ele>830.24</ele>
        <time>2020-08-08T07:15:35Z</time>
      </trkpt>
      <trkpt lat="41.1438631173" lon="-5.6955280155">
        <ele>830.72</ele>
        <time>2020-08-08T07:15:46Z</time>
      </trkpt>
      <trkpt lat="41.1441684701" lon="-5.6954939011">
        <ele>831.20</ele>
        <time>2020-08-08T07:15:54Z</time>
      </trkpt>
      <trkpt lat="41.1443316657" lon="-5.6954820827">
        <ele>831.20</ele>
        <time>2020-08-08T07:15:58Z</time>
      </trkpt>
      <trkpt lat="41.1447833665" lon="-5.6954355631">
        <ele>832.16</ele>
        <time>2020-08-08T07:16:09Z</time>
      </trkpt>
      <trkpt lat="41.1448224261" lon="-5.6954294443">
        <ele>832.16</ele>
        <time>2020-08-08T07:16:10Z</time>
      </trkpt>
      <trkpt lat="41.1451817583" lon="-5.6953946594">
        <ele>832.64</ele>
        <time>2020-08-08T07:16:19Z</time>
      </trkpt>
      <trkpt lat="41.1455892865" lon="-5.6953511573">
        <ele>832.64</ele>
        <time>2020-08-08T07:16:29Z</time>
      </trkpt>
      <trkpt lat="41.1457888596" lon="-5.6953333039">
        <ele>833.12</ele>
        <time>2020-08-08T07:16:34Z</time>
      </trkpt>
      <trkpt lat="41.1461859941" lon="-5.6953109242">
        <ele>833.12</ele>
        <time>2020-08-08T07:16:44Z</time>
      </trkpt>
      <trkpt lat="41.1465055123" lon="-5.6952954177">
        <ele>833.60</ele>
        <time>2020-08-08T07:16:52Z</time>
      </trkpt>
      <trkpt lat="41.1469110288" lon="-5.6952862814">
        <ele>833.12</ele>
        <time>2020-08-08T07:17:02Z</time>
      </trkpt>
      <trkpt lat="41.1472973507" lon="-5.6952869520">
        <ele>833.60</ele>
        <time>2020-08-08T07:17:12Z</time>
      </trkpt>
      <trkpt lat="41.1475024559" lon="-5.6952815875">
        <ele>833.60</ele>
        <time>2020-08-08T07:17:19Z</time>
      </trkpt>
      <trkpt lat="41.1475055572" lon="-5.6952871196">
        <ele>834.08</ele>
        <time>2020-08-08T07:17:25Z</time>
      </trkpt>
      <trkpt lat="41.1474928167" lon="-5.6952751335">
        <ele>833.60</ele>
        <time>2020-08-08T07:17:38Z</time>
      </trkpt>
      <trkpt lat="41.1475012824" lon="-5.6952503230">
        <ele>833.60</ele>
        <time>2020-08-08T07:17:59Z</time>
      </trkpt>
      <trkpt lat="41.1475090776" lon="-5.6952447072">
        <ele>834.08</ele>
        <time>2020-08-08T07:18:16Z</time>
      </trkpt>
      <trkpt lat="41.1475096643" lon="-5.6952502392">
        <ele>833.60</ele>
        <time>2020-08-08T07:18:27Z</time>
      </trkpt>
      <trkpt lat="41.1475068983" lon="-5.6952687632">
        <ele>833.60</ele>
        <time>2020-08-08T07:18:41Z</time>
      </trkpt>
      <trkpt lat="41.1475225724" lon="-5.6952733733">
        <ele>833.60</ele>
        <time>2020-08-08T07:18:47Z</time>
      </trkpt>
      <trkpt lat="41.1476625502" lon="-5.6952801626">
        <ele>833.60</ele>
        <time>2020-08-08T07:18:54Z</time>
      </trkpt>
      <trkpt lat="41.1479475349" lon="-5.6952783186">
        <ele>833.60</ele>
        <time>2020-08-08T07:19:03Z</time>
      </trkpt>
      <trkpt lat="41.1482920311" lon="-5.6952656619">
        <ele>833.60</ele>
        <time>2020-08-08T07:19:13Z</time>
      </trkpt>
      <trkpt lat="41.1486159079" lon="-5.6952651590">
        <ele>833.60</ele>
        <time>2020-08-08T07:19:22Z</time>
      </trkpt>
      <trkpt lat="41.1489290558" lon="-5.6952638179">
        <ele>834.08</ele>
        <time>2020-08-08T07:19:30Z</time>
      </trkpt>
      <trkpt lat="41.1493254360" lon="-5.6952481437">
        <ele>834.56</ele>
        <time>2020-08-08T07:19:40Z</time>
      </trkpt>
      <trkpt lat="41.1497665755" lon="-5.6952392589">
        <ele>834.56</ele>
        <time>2020-08-08T07:19:51Z</time>
      </trkpt>
      <trkpt lat="41.1502378061" lon="-5.6952310447">
        <ele>834.08</ele>
        <time>2020-08-08T07:20:02Z</time>
      </trkpt>
      <trkpt lat="41.1506361980" lon="-5.6952267699">
        <ele>834.08</ele>
        <time>2020-08-08T07:20:11Z</time>
      </trkpt>
      <trkpt lat="41.1506780237" lon="-5.6952252612">
        <ele>834.08</ele>
        <time>2020-08-08T07:20:12Z</time>
      </trkpt>
      <trkpt lat="41.1508477572" lon="-5.6952204835">
        <ele>834.56</ele>
        <time>2020-08-08T07:20:16Z</time>
      </trkpt>
      <trkpt lat="41.1508929357" lon="-5.6952170469">
        <ele>834.56</ele>
        <time>2020-08-08T07:20:17Z</time>
      </trkpt>
      <trkpt lat="41.1513507552" lon="-5.6952069048">
        <ele>835.04</ele>
        <time>2020-08-08T07:20:28Z</time>
      </trkpt>
      <trkpt lat="41.1517050583" lon="-5.6951974332">
        <ele>835.52</ele>
        <time>2020-08-08T07:20:36Z</time>
      </trkpt>
      <trkpt lat="41.1521356367" lon="-5.6951891351">
        <ele>836.48</ele>
        <time>2020-08-08T07:20:46Z</time>
      </trkpt>
      <trkpt lat="41.1524962261" lon="-5.6951790769">
        <ele>836.96</ele>
        <time>2020-08-08T07:20:55Z</time>
      </trkpt>
      <trkpt lat="41.1530053429" lon="-5.6951681804">
        <ele>837.45</ele>
        <time>2020-08-08T07:21:08Z</time>
      </trkpt>
      <trkpt lat="41.1534430459" lon="-5.6951553561">
        <ele>837.93</ele>
        <time>2020-08-08T07:21:19Z</time>
      </trkpt>
      <trkpt lat="41.1537635699" lon="-5.6951566972">
        <ele>838.89</ele>
        <time>2020-08-08T07:21:27Z</time>
      </trkpt>
      <trkpt lat="41.1541687511" lon="-5.6951489858">
        <ele>839.37</ele>
        <time>2020-08-08T07:21:37Z</time>
      </trkpt>
      <trkpt lat="41.1545234732" lon="-5.6951395143">
        <ele>839.37</ele>
        <time>2020-08-08T07:21:46Z</time>
      </trkpt>
      <trkpt lat="41.1549667083" lon="-5.6951251812">
        <ele>840.33</ele>
        <time>2020-08-08T07:21:57Z</time>
      </trkpt>
      <trkpt lat="41.1553645134" lon="-5.6951209903">
        <ele>840.81</ele>
        <time>2020-08-08T07:22:07Z</time>
      </trkpt>
      <trkpt lat="41.1557784118" lon="-5.6951108482">
        <ele>841.29</ele>
        <time>2020-08-08T07:22:17Z</time>
      </trkpt>
      <trkpt lat="41.1562058050" lon="-5.6950965151">
        <ele>841.77</ele>
        <time>2020-08-08T07:22:27Z</time>
      </trkpt>
      <trkpt lat="41.1565037817" lon="-5.6950950902">
        <ele>841.77</ele>
        <time>2020-08-08T07:22:34Z</time>
      </trkpt>
      <trkpt lat="41.1565468647" lon="-5.6950910669">
        <ele>841.77</ele>
        <time>2020-08-08T07:22:35Z</time>
      </trkpt>
      <trkpt lat="41.1569338571" lon="-5.6950816792">
        <ele>841.77</ele>
        <time>2020-08-08T07:22:44Z</time>
      </trkpt>
      <trkpt lat="41.1571019143" lon="-5.6950784940">
        <ele>841.77</ele>
        <time>2020-08-08T07:22:48Z</time>
      </trkpt>
      <trkpt lat="41.1571427342" lon="-5.6950780749">
        <ele>842.25</ele>
        <time>2020-08-08T07:22:49Z</time>
      </trkpt>
      <trkpt lat="41.1572258826" lon="-5.6950713694">
        <ele>842.25</ele>
        <time>2020-08-08T07:22:51Z</time>
      </trkpt>
      <trkpt lat="41.1576712132" lon="-5.6950607244">
        <ele>842.73</ele>
        <time>2020-08-08T07:23:02Z</time>
      </trkpt>
      <trkpt lat="41.1580809206" lon="-5.6950525101">
        <ele>843.21</ele>
        <time>2020-08-08T07:23:12Z</time>
      </trkpt>
      <trkpt lat="41.1584337149" lon="-5.6950504985">
        <ele>843.69</ele>
        <time>2020-08-08T07:23:21Z</time>
      </trkpt>
      <trkpt lat="41.1587784626" lon="-5.6950381771">
        <ele>844.18</ele>
        <time>2020-08-08T07:23:30Z</time>
      </trkpt>
      <trkpt lat="41.1591141578" lon="-5.6950212456">
        <ele>844.66</ele>
        <time>2020-08-08T07:23:39Z</time>
      </trkpt>
      <trkpt lat="41.1592230387" lon="-5.6950091757">
        <ele>845.14</ele>
        <time>2020-08-08T07:23:44Z</time>
      </trkpt>
      <trkpt lat="41.1592319235" lon="-5.6950182281">
        <ele>845.14</ele>
        <time>2020-08-08T07:23:55Z</time>
      </trkpt>
      <trkpt lat="41.1592202727" lon="-5.6950163841">
        <ele>844.18</ele>
        <time>2020-08-08T07:24:08Z</time>
      </trkpt>
      <trkpt lat="41.1592255533" lon="-5.6950328127">
        <ele>845.14</ele>
        <time>2020-08-08T07:24:19Z</time>
      </trkpt>
      <trkpt lat="41.1592294928" lon="-5.6950331479">
        <ele>845.62</ele>
        <time>2020-08-08T07:24:31Z</time>
      </trkpt>
      <trkpt lat="41.1592247151" lon="-5.6950271130">
        <ele>845.14</ele>
        <time>2020-08-08T07:24:46Z</time>
      </trkpt>
      <trkpt lat="41.1592204403" lon="-5.6950232573">
        <ele>844.66</ele>
        <time>2020-08-08T07:24:57Z</time>
      </trkpt>
      <trkpt lat="41.1592157464" lon="-5.6949919090">
        <ele>844.18</ele>
        <time>2020-08-08T07:25:07Z</time>
      </trkpt>
      <trkpt lat="41.1592173390" lon="-5.6949858740">
        <ele>844.18</ele>
        <time>2020-08-08T07:25:16Z</time>
      </trkpt>
      <trkpt lat="41.1592190992" lon="-5.6949934177">
        <ele>843.69</ele>
        <time>2020-08-08T07:25:24Z</time>
      </trkpt>
      <trkpt lat="41.1592227034" lon="-5.6949945074">
        <ele>843.21</ele>
        <time>2020-08-08T07:25:33Z</time>
      </trkpt>
      <trkpt lat="41.1592204403" lon="-5.6950001232">
        <ele>842.73</ele>
        <time>2020-08-08T07:25:42Z</time>
      </trkpt>
      <trkpt lat="41.1592226196" lon="-5.6950016320">
        <ele>843.69</ele>
        <time>2020-08-08T07:25:52Z</time>
      </trkpt>
      <trkpt lat="41.1592180934" lon="-5.6949938368">
        <ele>843.69</ele>
        <time>2020-08-08T07:26:05Z</time>
      </trkpt>
      <trkpt lat="41.1592133157" lon="-5.6949989498">
        <ele>844.66</ele>
        <time>2020-08-08T07:26:14Z</time>
      </trkpt>
      <trkpt lat="41.1592175066" lon="-5.6950089242">
        <ele>844.66</ele>
        <time>2020-08-08T07:26:31Z</time>
      </trkpt>
      <trkpt lat="41.1592175905" lon="-5.6950163841">
        <ele>845.14</ele>
        <time>2020-08-08T07:26:45Z</time>
      </trkpt>
      <trkpt lat="41.1592237093" lon="-5.6950250175">
        <ele>845.14</ele>
        <time>2020-08-08T07:26:55Z</time>
      </trkpt>
      <trkpt lat="41.1592255533" lon="-5.6950296275">
        <ele>846.10</ele>
        <time>2020-08-08T07:27:09Z</time>
      </trkpt>
      <trkpt lat="41.1592310853" lon="-5.6950350758">
        <ele>846.10</ele>
        <time>2020-08-08T07:27:12Z</time>
      </trkpt>
      <trkpt lat="41.1592921894" lon="-5.6950482354">
        <ele>846.58</ele>
        <time>2020-08-08T07:27:16Z</time>
      </trkpt>
      <trkpt lat="41.1594961211" lon="-5.6950364169">
        <ele>847.06</ele>
        <time>2020-08-08T07:27:24Z</time>
      </trkpt>
      <trkpt lat="41.1598065868" lon="-5.6950298790">
        <ele>847.06</ele>
        <time>2020-08-08T07:27:33Z</time>
      </trkpt>
      <trkpt lat="41.1601383425" lon="-5.6950090919">
        <ele>847.06</ele>
        <time>2020-08-08T07:27:42Z</time>
      </trkpt>
      <trkpt lat="41.1606006045" lon="-5.6950071640">
        <ele>848.02</ele>
        <time>2020-08-08T07:27:54Z</time>
      </trkpt>
      <trkpt lat="41.1610365473" lon="-5.6949943397">
        <ele>848.50</ele>
        <time>2020-08-08T07:28:05Z</time>
      </trkpt>
      <trkpt lat="41.1613250524" lon="-5.6949820183">
        <ele>848.50</ele>
        <time>2020-08-08T07:28:12Z</time>
      </trkpt>
      <trkpt lat="41.1613661237" lon="-5.6949821860">
        <ele>848.50</ele>
        <time>2020-08-08T07:28:13Z</time>
      </trkpt>
      <trkpt lat="41.1617428064" lon="-5.6949628238">
        <ele>848.50</ele>
        <time>2020-08-08T07:28:22Z</time>
      </trkpt>
      <trkpt lat="41.1622255202" lon="-5.6949484069">
        <ele>849.46</ele>
        <time>2020-08-08T07:28:33Z</time>
      </trkpt>
      <trkpt lat="41.1628032848" lon="-5.6949277036">
        <ele>848.98</ele>
        <time>2020-08-08T07:28:46Z</time>
      </trkpt>
      <trkpt lat="41.1632868368" lon="-5.6949137896">
        <ele>849.46</ele>
        <time>2020-08-08T07:28:57Z</time>
      </trkpt>
      <trkpt lat="41.1638757493" lon="-5.6948958524">
        <ele>848.98</ele>
        <time>2020-08-08T07:29:10Z</time>
      </trkpt>
      <trkpt lat="41.1643975228" lon="-5.6948758196">
        <ele>848.98</ele>
        <time>2020-08-08T07:29:21Z</time>
      </trkpt>
      <trkpt lat="41.1648131814" lon="-5.6948605645">
        <ele>848.02</ele>
        <time>2020-08-08T07:29:30Z</time>
      </trkpt>
      <trkpt lat="41.1652652174" lon="-5.6948387716">
        <ele>848.02</ele>
        <time>2020-08-08T07:29:40Z</time>
      </trkpt>
      <trkpt lat="41.1657912657" lon="-5.6948214211">
        <ele>848.50</ele>
        <time>2020-08-08T07:29:52Z</time>
      </trkpt>
      <trkpt lat="41.1662739795" lon="-5.6948028971">
        <ele>848.98</ele>
        <time>2020-08-08T07:30:03Z</time>
      </trkpt>
      <trkpt lat="41.1668555159" lon="-5.6947832834">
        <ele>848.50</ele>
        <time>2020-08-08T07:30:16Z</time>
      </trkpt>
      <trkpt lat="41.1674155109" lon="-5.6947583891">
        <ele>848.02</ele>
        <time>2020-08-08T07:30:28Z</time>
      </trkpt>
      <trkpt lat="41.1678859871" lon="-5.6947376858">
        <ele>847.54</ele>
        <time>2020-08-08T07:30:38Z</time>
      </trkpt>
      <trkpt lat="41.1683521885" lon="-5.6947280467">
        <ele>847.54</ele>
        <time>2020-08-08T07:30:48Z</time>
      </trkpt>
      <trkpt lat="41.1687826831" lon="-5.6947039068">
        <ele>846.58</ele>
        <time>2020-08-08T07:30:57Z</time>
      </trkpt>
      <trkpt lat="41.1688295379" lon="-5.6947008055">
        <ele>846.58</ele>
        <time>2020-08-08T07:30:58Z</time>
      </trkpt>
      <trkpt lat="41.1692937277" lon="-5.6946867239">
        <ele>846.10</ele>
        <time>2020-08-08T07:31:08Z</time>
      </trkpt>
      <trkpt lat="41.1698066164" lon="-5.6946687028">
        <ele>846.10</ele>
        <time>2020-08-08T07:31:19Z</time>
      </trkpt>
      <trkpt lat="41.1702048406" lon="-5.6946479995">
        <ele>846.10</ele>
        <time>2020-08-08T07:31:28Z</time>
      </trkpt>
      <trkpt lat="41.1706948467" lon="-5.6946261227">
        <ele>845.14</ele>
        <time>2020-08-08T07:31:39Z</time>
      </trkpt>
      <trkpt lat="41.1707388517" lon="-5.6946216803">
        <ele>845.14</ele>
        <time>2020-08-08T07:31:40Z</time>
      </trkpt>
      <trkpt lat="41.1711802427" lon="-5.6946075987">
        <ele>845.14</ele>
        <time>2020-08-08T07:31:50Z</time>
      </trkpt>
      <trkpt lat="41.1716180295" lon="-5.6945947744">
        <ele>845.14</ele>
        <time>2020-08-08T07:32:00Z</time>
      </trkpt>
      <trkpt lat="41.1721185967" lon="-5.6945832912">
        <ele>845.62</ele>
        <time>2020-08-08T07:32:11Z</time>
      </trkpt>
      <trkpt lat="41.1725640111" lon="-5.6945683714">
        <ele>846.10</ele>
        <time>2020-08-08T07:32:21Z</time>
      </trkpt>
      <trkpt lat="41.1731079128" lon="-5.6945403758">
        <ele>847.06</ele>
        <time>2020-08-08T07:32:33Z</time>
      </trkpt>
      <trkpt lat="41.1736642197" lon="-5.6945220195">
        <ele>847.54</ele>
        <time>2020-08-08T07:32:46Z</time>
      </trkpt>
      <trkpt lat="41.1740370467" lon="-5.6945005618">
        <ele>848.02</ele>
        <time>2020-08-08T07:32:55Z</time>
      </trkpt>
      <trkpt lat="41.1743645277" lon="-5.6944798585">
        <ele>848.50</ele>
        <time>2020-08-08T07:33:03Z</time>
      </trkpt>
      <trkpt lat="41.1746064294" lon="-5.6944690458">
        <ele>849.46</ele>
        <time>2020-08-08T07:33:09Z</time>
      </trkpt>
      <trkpt lat="41.1749301385" lon="-5.6944619212">
        <ele>849.94</ele>
        <time>2020-08-08T07:33:17Z</time>
      </trkpt>
      <trkpt lat="41.1752889678" lon="-5.6944482587">
        <ele>850.90</ele>
        <time>2020-08-08T07:33:26Z</time>
      </trkpt>
      <trkpt lat="41.1756362300" lon="-5.6944293994">
        <ele>851.38</ele>
        <time>2020-08-08T07:33:35Z</time>
      </trkpt>
      <trkpt lat="41.1759791337" lon="-5.6944191735">
        <ele>851.87</ele>
        <time>2020-08-08T07:33:44Z</time>
      </trkpt>
      <trkpt lat="41.1763217021" lon="-5.6944060139">
        <ele>852.35</ele>
        <time>2020-08-08T07:33:53Z</time>
      </trkpt>
      <trkpt lat="41.1767371930" lon="-5.6943875737">
        <ele>852.83</ele>
        <time>2020-08-08T07:34:04Z</time>
      </trkpt>
      <trkpt lat="41.1771023087" lon="-5.6943756714">
        <ele>853.31</ele>
        <time>2020-08-08T07:34:14Z</time>
      </trkpt>
      <trkpt lat="41.1774157081" lon="-5.6943646912">
        <ele>854.27</ele>
        <time>2020-08-08T07:34:23Z</time>
      </trkpt>
      <trkpt lat="41.1776940711" lon="-5.6943470892">
        <ele>855.23</ele>
        <time>2020-08-08T07:34:31Z</time>
      </trkpt>
      <trkpt lat="41.1780710891" lon="-5.6943238713">
        <ele>855.71</ele>
        <time>2020-08-08T07:34:42Z</time>
      </trkpt>
      <trkpt lat="41.1783472728" lon="-5.6943230331">
        <ele>856.19</ele>
        <time>2020-08-08T07:34:50Z</time>
      </trkpt>
      <trkpt lat="41.1786284018" lon="-5.6943132263">
        <ele>856.67</ele>
        <time>2020-08-08T07:34:58Z</time>
      </trkpt>
      <trkpt lat="41.1789353471" lon="-5.6942993961">
        <ele>857.15</ele>
        <time>2020-08-08T07:35:07Z</time>
      </trkpt>
      <trkpt lat="41.1792903207" lon="-5.6942827161">
        <ele>857.63</ele>
        <time>2020-08-08T07:35:17Z</time>
      </trkpt>
      <trkpt lat="41.1796931550" lon="-5.6942628510">
        <ele>858.11</ele>
        <time>2020-08-08T07:35:28Z</time>
      </trkpt>
      <trkpt lat="41.1801160220" lon="-5.6942530442">
        <ele>858.11</ele>
        <time>2020-08-08T07:35:39Z</time>
      </trkpt>
      <trkpt lat="41.1804803833" lon="-5.6942582410">
        <ele>858.59</ele>
        <time>2020-08-08T07:35:48Z</time>
      </trkpt>
      <trkpt lat="41.1807282362" lon="-5.6942660362">
        <ele>859.08</ele>
        <time>2020-08-08T07:35:56Z</time>
      </trkpt>
      <trkpt lat="41.1809319165" lon="-5.6942744181">
        <ele>859.56</ele>
        <time>2020-08-08T07:36:04Z</time>
      </trkpt>
      <trkpt lat="41.1809563916" lon="-5.6942803692">
        <ele>859.56</ele>
        <time>2020-08-08T07:36:05Z</time>
      </trkpt>
      <trkpt lat="41.1812102795" lon="-5.6943058502">
        <ele>860.52</ele>
        <time>2020-08-08T07:36:13Z</time>
      </trkpt>
      <trkpt lat="41.1815498304" lon="-5.6943539623">
        <ele>861.00</ele>
        <time>2020-08-08T07:36:22Z</time>
      </trkpt>
      <trkpt lat="41.1819053907" lon="-5.6944192573">
        <ele>861.96</ele>
        <time>2020-08-08T07:36:31Z</time>
      </trkpt>
      <trkpt lat="41.1823120806" lon="-5.6945100334">
        <ele>861.48</ele>
        <time>2020-08-08T07:36:41Z</time>
      </trkpt>
      <trkpt lat="41.1827450898" lon="-5.6946159806">
        <ele>861.48</ele>
        <time>2020-08-08T07:36:51Z</time>
      </trkpt>
      <trkpt lat="41.1832193378" lon="-5.6947376858">
        <ele>861.00</ele>
        <time>2020-08-08T07:37:02Z</time>
      </trkpt>
      <trkpt lat="41.1836544424" lon="-5.6948428787">
        <ele>860.52</ele>
        <time>2020-08-08T07:37:12Z</time>
      </trkpt>
      <trkpt lat="41.1840172112" lon="-5.6949367560">
        <ele>860.04</ele>
        <time>2020-08-08T07:37:20Z</time>
      </trkpt>
      <trkpt lat="41.1841916386" lon="-5.6949790008">
        <ele>860.04</ele>
        <time>2020-08-08T07:37:24Z</time>
      </trkpt>
      <trkpt lat="41.1842347216" lon="-5.6949879695">
        <ele>859.56</ele>
        <time>2020-08-08T07:37:25Z</time>
      </trkpt>
      <trkpt lat="41.1846676469" lon="-5.6950970180">
        <ele>860.04</ele>
        <time>2020-08-08T07:37:35Z</time>
      </trkpt>
      <trkpt lat="41.1850605905" lon="-5.6951991096">
        <ele>860.04</ele>
        <time>2020-08-08T07:37:44Z</time>
      </trkpt>
      <trkpt lat="41.1855372693" lon="-5.6953247543">
        <ele>860.04</ele>
        <time>2020-08-08T07:37:54Z</time>
      </trkpt>
      <trkpt lat="41.1860592943" lon="-5.6954578590">
        <ele>860.04</ele>
        <time>2020-08-08T07:38:05Z</time>
      </trkpt>
      <trkpt lat="41.1865662318" lon="-5.6955809053">
        <ele>860.04</ele>
        <time>2020-08-08T07:38:17Z</time>
      </trkpt>
      <trkpt lat="41.1869421601" lon="-5.6956780516">
        <ele>859.56</ele>
        <time>2020-08-08T07:38:26Z</time>
      </trkpt>
      <trkpt lat="41.1873364449" lon="-5.6957824063">
        <ele>859.08</ele>
        <time>2020-08-08T07:38:35Z</time>
      </trkpt>
      <trkpt lat="41.1877806019" lon="-5.6958914548">
        <ele>858.11</ele>
        <time>2020-08-08T07:38:45Z</time>
      </trkpt>
      <trkpt lat="41.1881727912" lon="-5.6959940493">
        <ele>857.15</ele>
        <time>2020-08-08T07:38:54Z</time>
      </trkpt>
      <trkpt lat="41.1885532457" lon="-5.6960829813">
        <ele>856.19</ele>
        <time>2020-08-08T07:39:03Z</time>
      </trkpt>
      <trkpt lat="41.1889702454" lon="-5.6961939577">
        <ele>856.19</ele>
        <time>2020-08-08T07:39:13Z</time>
      </trkpt>
      <trkpt lat="41.1892665457" lon="-5.6962677184">
        <ele>855.71</ele>
        <time>2020-08-08T07:39:20Z</time>
      </trkpt>
      <trkpt lat="41.1893123947" lon="-5.6962761004">
        <ele>855.71</ele>
        <time>2020-08-08T07:39:21Z</time>
      </trkpt>
      <trkpt lat="41.1893562321" lon="-5.6962888408">
        <ele>855.71</ele>
        <time>2020-08-08T07:39:22Z</time>
      </trkpt>
      <trkpt lat="41.1897186656" lon="-5.6963827182">
        <ele>855.23</ele>
        <time>2020-08-08T07:39:30Z</time>
      </trkpt>
      <trkpt lat="41.1900636647" lon="-5.6964729074">
        <ele>854.75</ele>
        <time>2020-08-08T07:39:38Z</time>
      </trkpt>
      <trkpt lat="41.1904763896" lon="-5.6965778489">
        <ele>854.75</ele>
        <time>2020-08-08T07:39:47Z</time>
      </trkpt>
      <trkpt lat="41.1909185350" lon="-5.6966866460">
        <ele>854.75</ele>
        <time>2020-08-08T07:39:58Z</time>
      </trkpt>
      <trkpt lat="41.1912697367" lon="-5.6967786793">
        <ele>854.75</ele>
        <time>2020-08-08T07:40:07Z</time>
      </trkpt>
      <trkpt lat="41.1916991416" lon="-5.6968880631">
        <ele>854.75</ele>
        <time>2020-08-08T07:40:18Z</time>
      </trkpt>
      <trkpt lat="41.1920505948" lon="-5.6969805993">
        <ele>855.23</ele>
        <time>2020-08-08T07:40:27Z</time>
      </trkpt>
      <trkpt lat="41.1925100908" lon="-5.6970952637">
        <ele>855.71</ele>
        <time>2020-08-08T07:40:39Z</time>
      </trkpt>
      <trkpt lat="41.1929600313" lon="-5.6972048990">
        <ele>856.19</ele>
        <time>2020-08-08T07:40:51Z</time>
      </trkpt>
      <trkpt lat="41.1933485325" lon="-5.6973049790">
        <ele>856.19</ele>
        <time>2020-08-08T07:41:01Z</time>
      </trkpt>
      <trkpt lat="41.1937816255" lon="-5.6974146981">
        <ele>856.67</ele>
        <time>2020-08-08T07:41:12Z</time>
      </trkpt>
      <trkpt lat="41.1942899879" lon="-5.6975385826">
        <ele>858.11</ele>
        <time>2020-08-08T07:41:25Z</time>
      </trkpt>
      <trkpt lat="41.1946924031" lon="-5.6976393331">
        <ele>859.56</ele>
        <time>2020-08-08T07:41:35Z</time>
      </trkpt>
      <trkpt lat="41.1951063853" lon="-5.6977484655">
        <ele>859.08</ele>
        <time>2020-08-08T07:41:45Z</time>
      </trkpt>
      <trkpt lat="41.1955772806" lon="-5.6978644710">
        <ele>858.59</ele>
        <time>2020-08-08T07:41:56Z</time>
      </trkpt>
      <trkpt lat="41.1960399617" lon="-5.6979885232">
        <ele>857.63</ele>
        <time>2020-08-08T07:42:07Z</time>
      </trkpt>
      <trkpt lat="41.1964310613" lon="-5.6980875973">
        <ele>857.63</ele>
        <time>2020-08-08T07:42:17Z</time>
      </trkpt>
      <trkpt lat="41.1968554370" lon="-5.6981732603">
        <ele>857.63</ele>
        <time>2020-08-08T07:42:27Z</time>
      </trkpt>
      <trkpt lat="41.1972964928" lon="-5.6982664671">
        <ele>856.67</ele>
        <time>2020-08-08T07:42:37Z</time>
      </trkpt>
      <trkpt lat="41.1976962257" lon="-5.6983627751">
        <ele>856.19</ele>
        <time>2020-08-08T07:42:46Z</time>
      </trkpt>
      <trkpt lat="41.1978305876" lon="-5.6983872503">
        <ele>856.19</ele>
        <time>2020-08-08T07:42:49Z</time>
      </trkpt>
      <trkpt lat="41.1982438155" lon="-5.6985015795">
        <ele>856.19</ele>
        <time>2020-08-08T07:42:58Z</time>
      </trkpt>
      <trkpt lat="41.1984663550" lon="-5.6985590793">
        <ele>855.71</ele>
        <time>2020-08-08T07:43:03Z</time>
      </trkpt>
      <trkpt lat="41.1989380885" lon="-5.6987057626">
        <ele>855.23</ele>
        <time>2020-08-08T07:43:14Z</time>
      </trkpt>
      <trkpt lat="41.1994560901" lon="-5.6988493446">
        <ele>854.75</ele>
        <time>2020-08-08T07:43:26Z</time>
      </trkpt>
      <trkpt lat="41.1999848206" lon="-5.6989859696">
        <ele>853.79</ele>
        <time>2020-08-08T07:43:37Z</time>
      </trkpt>
      <trkpt lat="41.2004527822" lon="-5.6991077587">
        <ele>853.31</ele>
        <time>2020-08-08T07:43:47Z</time>
      </trkpt>
      <trkpt lat="41.2008500844" lon="-5.6992103532">
        <ele>852.83</ele>
        <time>2020-08-08T07:43:56Z</time>
      </trkpt>
      <trkpt lat="41.2013042998" lon="-5.6993178930">
        <ele>852.83</ele>
        <time>2020-08-08T07:44:06Z</time>
      </trkpt>
      <trkpt lat="41.2018167693" lon="-5.6994456332">
        <ele>852.35</ele>
        <time>2020-08-08T07:44:17Z</time>
      </trkpt>
      <trkpt lat="41.2023423985" lon="-5.6995721161">
        <ele>851.87</ele>
        <time>2020-08-08T07:44:29Z</time>
      </trkpt>
      <trkpt lat="41.2027318217" lon="-5.6996685080">
        <ele>851.38</ele>
        <time>2020-08-08T07:44:38Z</time>
      </trkpt>
      <trkpt lat="41.2029610667" lon="-5.6997281034">
        <ele>850.90</ele>
        <time>2020-08-08T07:44:43Z</time>
      </trkpt>
      <trkpt lat="41.2033582851" lon="-5.6998261716">
        <ele>850.42</ele>
        <time>2020-08-08T07:44:52Z</time>
      </trkpt>
      <trkpt lat="41.2037824094" lon="-5.6999373157">
        <ele>849.94</ele>
        <time>2020-08-08T07:45:02Z</time>
      </trkpt>
      <trkpt lat="41.2042414024" lon="-5.7000502199">
        <ele>849.46</ele>
        <time>2020-08-08T07:45:13Z</time>
      </trkpt>
      <trkpt lat="41.2045096233" lon="-5.7001215499">
        <ele>849.94</ele>
        <time>2020-08-08T07:45:21Z</time>
      </trkpt>
      <trkpt lat="41.2047495134" lon="-5.7001767028">
        <ele>848.98</ele>
        <time>2020-08-08T07:45:30Z</time>
      </trkpt>
      <trkpt lat="41.2049563788" lon="-5.7002288383">
        <ele>848.02</ele>
        <time>2020-08-08T07:45:36Z</time>
      </trkpt>
      <trkpt lat="41.2051261123" lon="-5.7002761122">
        <ele>848.02</ele>
        <time>2020-08-08T07:45:40Z</time>
      </trkpt>
      <trkpt lat="41.2051657587" lon="-5.7002914511">
        <ele>848.02</ele>
        <time>2020-08-08T07:45:41Z</time>
      </trkpt>
      <trkpt lat="41.2052095961" lon="-5.7003039401">
        <ele>848.02</ele>
        <time>2020-08-08T07:45:42Z</time>
      </trkpt>
      <trkpt lat="41.2052536011" lon="-5.7003112324">
        <ele>848.02</ele>
        <time>2020-08-08T07:45:43Z</time>
      </trkpt>
      <trkpt lat="41.2052955944" lon="-5.7003136631">
        <ele>847.54</ele>
        <time>2020-08-08T07:45:44Z</time>
      </trkpt>
      <trkpt lat="41.2053364143" lon="-5.7003186923">
        <ele>847.54</ele>
        <time>2020-08-08T07:45:45Z</time>
      </trkpt>
      <trkpt lat="41.2053789105" lon="-5.7003314327">
        <ele>847.54</ele>
        <time>2020-08-08T07:45:46Z</time>
      </trkpt>
      <trkpt lat="41.2055383343" lon="-5.7003761083">
        <ele>847.06</ele>
        <time>2020-08-08T07:45:50Z</time>
      </trkpt>
      <trkpt lat="41.2059009355" lon="-5.7004716620">
        <ele>846.58</ele>
        <time>2020-08-08T07:45:59Z</time>
      </trkpt>
      <trkpt lat="41.2062439229" lon="-5.7005616836">
        <ele>846.58</ele>
        <time>2020-08-08T07:46:08Z</time>
      </trkpt>
      <trkpt lat="41.2067204341" lon="-5.7006838080">
        <ele>846.58</ele>
        <time>2020-08-08T07:46:18Z</time>
      </trkpt>
      <trkpt lat="41.2071255315" lon="-5.7007796969">
        <ele>846.58</ele>
        <time>2020-08-08T07:46:27Z</time>
      </trkpt>
      <trkpt lat="41.2075727899" lon="-5.7008871529">
        <ele>845.14</ele>
        <time>2020-08-08T07:46:37Z</time>
      </trkpt>
      <trkpt lat="41.2079765461" lon="-5.7009898312">
        <ele>845.14</ele>
        <time>2020-08-08T07:46:46Z</time>
      </trkpt>
      <trkpt lat="41.2082873471" lon="-5.7010807749">
        <ele>845.62</ele>
        <time>2020-08-08T07:46:53Z</time>
      </trkpt>
      <trkpt lat="41.2087765988" lon="-5.7012065034">
        <ele>845.14</ele>
        <time>2020-08-08T07:47:04Z</time>
      </trkpt>
      <trkpt lat="41.2091360986" lon="-5.7013011351">
        <ele>844.66</ele>
        <time>2020-08-08T07:47:12Z</time>
      </trkpt>
      <trkpt lat="41.2095381785" lon="-5.7013968565">
        <ele>844.66</ele>
        <time>2020-08-08T07:47:21Z</time>
      </trkpt>
      <trkpt lat="41.2100190483" lon="-5.7015203219">
        <ele>844.18</ele>
        <time>2020-08-08T07:47:32Z</time>
      </trkpt>
      <trkpt lat="41.2104554940" lon="-5.7016267721">
        <ele>844.66</ele>
        <time>2020-08-08T07:47:42Z</time>
      </trkpt>
      <trkpt lat="41.2108848989" lon="-5.7017389219">
        <ele>842.73</ele>
        <time>2020-08-08T07:47:52Z</time>
      </trkpt>
      <trkpt lat="41.2113127112" lon="-5.7018411811">
        <ele>842.25</ele>
        <time>2020-08-08T07:48:03Z</time>
      </trkpt>
      <trkpt lat="41.2118112668" lon="-5.7019631378">
        <ele>841.77</ele>
        <time>2020-08-08T07:48:14Z</time>
      </trkpt>
      <trkpt lat="41.2123809848" lon="-5.7021033671">
        <ele>841.77</ele>
        <time>2020-08-08T07:48:26Z</time>
      </trkpt>
      <trkpt lat="41.2128159218" lon="-5.7022065483">
        <ele>840.81</ele>
        <time>2020-08-08T07:48:36Z</time>
      </trkpt>
      <trkpt lat="41.2132009864" lon="-5.7023174409">
        <ele>840.33</ele>
        <time>2020-08-08T07:48:45Z</time>
      </trkpt>
      <trkpt lat="41.2136793416" lon="-5.7024325244">
        <ele>839.37</ele>
        <time>2020-08-08T07:48:56Z</time>
      </trkpt>
      <trkpt lat="41.2138145417" lon="-5.7024734281">
        <ele>839.37</ele>
        <time>2020-08-08T07:48:59Z</time>
      </trkpt>
      <trkpt lat="41.2143084873" lon="-5.7025943790">
        <ele>839.37</ele>
        <time>2020-08-08T07:49:10Z</time>
      </trkpt>
      <trkpt lat="41.2147696596" lon="-5.7027023379">
        <ele>839.37</ele>
        <time>2020-08-08T07:49:21Z</time>
      </trkpt>
      <trkpt lat="41.2151585799" lon="-5.7028033398">
        <ele>839.85</ele>
        <time>2020-08-08T07:49:30Z</time>
      </trkpt>
      <trkpt lat="41.2156676967" lon="-5.7029367797">
        <ele>839.37</ele>
        <time>2020-08-08T07:49:42Z</time>
      </trkpt>
      <trkpt lat="41.2161191460" lon="-5.7030567247">
        <ele>838.89</ele>
        <time>2020-08-08T07:49:52Z</time>
      </trkpt>
      <trkpt lat="41.2165539991" lon="-5.7031599060">
        <ele>838.89</ele>
        <time>2020-08-08T07:50:02Z</time>
      </trkpt>
      <trkpt lat="41.2169373035" lon="-5.7032521907">
        <ele>838.89</ele>
        <time>2020-08-08T07:50:11Z</time>
      </trkpt>
      <trkpt lat="41.2170206197" lon="-5.7032762468">
        <ele>838.89</ele>
        <time>2020-08-08T07:50:13Z</time>
      </trkpt>
      <trkpt lat="41.2170631159" lon="-5.7032857183">
        <ele>838.89</ele>
        <time>2020-08-08T07:50:14Z</time>
      </trkpt>
      <trkpt lat="41.2174426485" lon="-5.7033849601">
        <ele>838.89</ele>
        <time>2020-08-08T07:50:23Z</time>
      </trkpt>
      <trkpt lat="41.2178479135" lon="-5.7034955174">
        <ele>838.89</ele>
        <time>2020-08-08T07:50:32Z</time>
      </trkpt>
      <trkpt lat="41.2180932518" lon="-5.7035546936">
        <ele>839.37</ele>
        <time>2020-08-08T07:50:38Z</time>
      </trkpt>
      <trkpt lat="41.2185162865" lon="-5.7036634907">
        <ele>840.33</ele>
        <time>2020-08-08T07:50:48Z</time>
      </trkpt>
      <trkpt lat="41.2189015187" lon="-5.7037590444">
        <ele>840.33</ele>
        <time>2020-08-08T07:50:58Z</time>
      </trkpt>
      <trkpt lat="41.2189898640" lon="-5.7037789095">
        <ele>840.33</ele>
        <time>2020-08-08T07:51:04Z</time>
      </trkpt>
      <trkpt lat="41.2191764452" lon="-5.7038209029">
        <ele>840.81</ele>
        <time>2020-08-08T07:51:12Z</time>
      </trkpt>
      <trkpt lat="41.2193973921" lon="-5.7038717810">
        <ele>842.25</ele>
        <time>2020-08-08T07:51:20Z</time>
      </trkpt>
      <trkpt lat="41.2196773477" lon="-5.7039240841">
        <ele>842.73</ele>
        <time>2020-08-08T07:51:29Z</time>
      </trkpt>
      <trkpt lat="41.2200227659" lon="-5.7039921451">
        <ele>843.21</ele>
        <time>2020-08-08T07:51:39Z</time>
      </trkpt>
      <trkpt lat="41.2202709541" lon="-5.7040228229">
        <ele>843.69</ele>
        <time>2020-08-08T07:51:46Z</time>
      </trkpt>
      <trkpt lat="41.2206028774" lon="-5.7040690910">
        <ele>844.18</ele>
        <time>2020-08-08T07:51:56Z</time>
      </trkpt>
      <trkpt lat="41.2208708469" lon="-5.7040878665">
        <ele>845.14</ele>
        <time>2020-08-08T07:52:04Z</time>
      </trkpt>
      <trkpt lat="41.2211585976" lon="-5.7041099109">
        <ele>846.10</ele>
        <time>2020-08-08T07:52:13Z</time>
      </trkpt>
      <trkpt lat="41.2213847414" lon="-5.7041168679">
        <ele>847.06</ele>
        <time>2020-08-08T07:52:20Z</time>
      </trkpt>
      <trkpt lat="41.2216879986" lon="-5.7041210588">
        <ele>847.54</ele>
        <time>2020-08-08T07:52:29Z</time>
      </trkpt>
      <trkpt lat="41.2219766714" lon="-5.7041137666">
        <ele>848.02</ele>
        <time>2020-08-08T07:52:37Z</time>
      </trkpt>
      <trkpt lat="41.2224126980" lon="-5.7040898781">
        <ele>848.50</ele>
        <time>2020-08-08T07:52:49Z</time>
      </trkpt>
      <trkpt lat="41.2227384187" lon="-5.7040640619">
        <ele>848.50</ele>
        <time>2020-08-08T07:52:58Z</time>
      </trkpt>
      <trkpt lat="41.2230737787" lon="-5.7040230744">
        <ele>849.46</ele>
        <time>2020-08-08T07:53:08Z</time>
      </trkpt>
      <trkpt lat="41.2233483698" lon="-5.7039709389">
        <ele>849.46</ele>
        <time>2020-08-08T07:53:16Z</time>
      </trkpt>
      <trkpt lat="41.2236157525" lon="-5.7039294485">
        <ele>849.94</ele>
        <time>2020-08-08T07:53:24Z</time>
      </trkpt>
      <trkpt lat="41.2240142282" lon="-5.7038571127">
        <ele>851.38</ele>
        <time>2020-08-08T07:53:36Z</time>
      </trkpt>
      <trkpt lat="41.2242829520" lon="-5.7037990261">
        <ele>852.35</ele>
        <time>2020-08-08T07:53:44Z</time>
      </trkpt>
      <trkpt lat="41.2246212456" lon="-5.7037257683">
        <ele>853.31</ele>
        <time>2020-08-08T07:53:54Z</time>
      </trkpt>
      <trkpt lat="41.2249571085" lon="-5.7036644965">
        <ele>854.27</ele>
        <time>2020-08-08T07:54:04Z</time>
      </trkpt>
      <trkpt lat="41.2252601981" lon="-5.7036080863">
        <ele>855.23</ele>
        <time>2020-08-08T07:54:13Z</time>
      </trkpt>
      <trkpt lat="41.2255928759" lon="-5.7035598904">
        <ele>856.19</ele>
        <time>2020-08-08T07:54:23Z</time>
      </trkpt>
      <trkpt lat="41.2259834725" lon="-5.7035322301">
        <ele>857.15</ele>
        <time>2020-08-08T07:54:34Z</time>
      </trkpt>
      <trkpt lat="41.2262743246" lon="-5.7035111915">
        <ele>857.63</ele>
        <time>2020-08-08T07:54:42Z</time>
      </trkpt>
      <trkpt lat="41.2266349979" lon="-5.7035153825">
        <ele>858.11</ele>
        <time>2020-08-08T07:54:52Z</time>
      </trkpt>
      <trkpt lat="41.2270726170" lon="-5.7035442162">
        <ele>859.08</ele>
        <time>2020-08-08T07:55:04Z</time>
      </trkpt>
      <trkpt lat="41.2274784688" lon="-5.7035982795">
        <ele>859.08</ele>
        <time>2020-08-08T07:55:15Z</time>
      </trkpt>
      <trkpt lat="41.2278572470" lon="-5.7036739681">
        <ele>858.59</ele>
        <time>2020-08-08T07:55:25Z</time>
      </trkpt>
      <trkpt lat="41.2282703910" lon="-5.7037539314">
        <ele>858.59</ele>
        <time>2020-08-08T07:55:35Z</time>
      </trkpt>
      <trkpt lat="41.2286456488" lon="-5.7038271893">
        <ele>858.59</ele>
        <time>2020-08-08T07:55:44Z</time>
      </trkpt>
      <trkpt lat="41.2290263548" lon="-5.7039177977">
        <ele>858.59</ele>
        <time>2020-08-08T07:55:53Z</time>
      </trkpt>
      <trkpt lat="41.2294291891" lon="-5.7040002756">
        <ele>858.11</ele>
        <time>2020-08-08T07:56:02Z</time>
      </trkpt>
      <trkpt lat="41.2298761960" lon="-5.7040959969">
        <ele>857.15</ele>
        <time>2020-08-08T07:56:12Z</time>
      </trkpt>
      <trkpt lat="41.2302813772" lon="-5.7041824143">
        <ele>856.67</ele>
        <time>2020-08-08T07:56:21Z</time>
      </trkpt>
      <trkpt lat="41.2306921743" lon="-5.7042829972">
        <ele>855.23</ele>
        <time>2020-08-08T07:56:30Z</time>
      </trkpt>
      <trkpt lat="41.2311243452" lon="-5.7043780480">
        <ele>854.75</ele>
        <time>2020-08-08T07:56:39Z</time>
      </trkpt>
      <trkpt lat="41.2317500543" lon="-5.7045124099">
        <ele>853.31</ele>
        <time>2020-08-08T07:56:51Z</time>
      </trkpt>
      <trkpt lat="41.2323262263" lon="-5.7046401501">
        <ele>853.31</ele>
        <time>2020-08-08T07:57:02Z</time>
      </trkpt>
      <trkpt lat="41.2327695452" lon="-5.7047367934">
        <ele>854.27</ele>
        <time>2020-08-08T07:57:11Z</time>
      </trkpt>
      <trkpt lat="41.2333266903" lon="-5.7048450038">
        <ele>854.27</ele>
        <time>2020-08-08T07:57:22Z</time>
      </trkpt>
      <trkpt lat="41.2338243239" lon="-5.7048821356">
        <ele>854.27</ele>
        <time>2020-08-08T07:57:32Z</time>
      </trkpt>
      <trkpt lat="41.2342424970" lon="-5.7048493624">
        <ele>856.19</ele>
        <time>2020-08-08T07:57:42Z</time>
      </trkpt>
      <trkpt lat="41.2345797848" lon="-5.7047797088">
        <ele>857.63</ele>
        <time>2020-08-08T07:57:51Z</time>
      </trkpt>
      <trkpt lat="41.2349689566" lon="-5.7046476938">
        <ele>859.56</ele>
        <time>2020-08-08T07:58:02Z</time>
      </trkpt>
      <trkpt lat="41.2353023048" lon="-5.7045061234">
        <ele>859.08</ele>
        <time>2020-08-08T07:58:12Z</time>
      </trkpt>
      <trkpt lat="41.2356648222" lon="-5.7043602783">
        <ele>859.56</ele>
        <time>2020-08-08T07:58:23Z</time>
      </trkpt>
      <trkpt lat="41.2359687500" lon="-5.7042603660">
        <ele>860.04</ele>
        <time>2020-08-08T07:58:32Z</time>
      </trkpt>
      <trkpt lat="41.2362780422" lon="-5.7041824982">
        <ele>861.00</ele>
        <time>2020-08-08T07:58:41Z</time>
      </trkpt>
      <trkpt lat="41.2366320938" lon="-5.7041312847">
        <ele>861.96</ele>
        <time>2020-08-08T07:58:51Z</time>
      </trkpt>
      <trkpt lat="41.2369732372" lon="-5.7041234057">
        <ele>862.92</ele>
        <time>2020-08-08T07:59:00Z</time>
      </trkpt>
      <trkpt lat="41.2374105211" lon="-5.7041752059">
        <ele>863.88</ele>
        <time>2020-08-08T07:59:11Z</time>
      </trkpt>
      <trkpt lat="41.2378425244" lon="-5.7042894512">
        <ele>863.40</ele>
        <time>2020-08-08T07:59:22Z</time>
      </trkpt>
      <trkpt lat="41.2381772976" lon="-5.7044122461">
        <ele>862.92</ele>
        <time>2020-08-08T07:59:31Z</time>
      </trkpt>
      <trkpt lat="41.2386277411" lon="-5.7046522200">
        <ele>861.48</ele>
        <time>2020-08-08T07:59:42Z</time>
      </trkpt>
      <trkpt lat="41.2390414719" lon="-5.7049607579">
        <ele>861.00</ele>
        <time>2020-08-08T07:59:52Z</time>
      </trkpt>
      <trkpt lat="41.2394113652" lon="-5.7052882388">
        <ele>858.59</ele>
        <time>2020-08-08T08:00:00Z</time>
      </trkpt>
      <trkpt lat="41.2398768123" lon="-5.7057258580">
        <ele>856.19</ele>
        <time>2020-08-08T08:00:08Z</time>
      </trkpt>
      <trkpt lat="41.2404191215" lon="-5.7061523292">
        <ele>852.83</ele>
        <time>2020-08-08T08:00:16Z</time>
      </trkpt>
      <trkpt lat="41.2411460001" lon="-5.7065480389">
        <ele>849.46</ele>
        <time>2020-08-08T08:00:25Z</time>
      </trkpt>
      <trkpt lat="41.2418786623" lon="-5.7067731768">
        <ele>848.02</ele>
        <time>2020-08-08T08:00:34Z</time>
      </trkpt>
      <trkpt lat="41.2422939856" lon="-5.7068684790">
        <ele>848.02</ele>
        <time>2020-08-08T08:00:41Z</time>
      </trkpt>
      <trkpt lat="41.2427808065" lon="-5.7069759350">
        <ele>848.50</ele>
        <time>2020-08-08T08:00:51Z</time>
      </trkpt>
      <trkpt lat="41.2433065195" lon="-5.7070875820">
        <ele>848.50</ele>
        <time>2020-08-08T08:01:02Z</time>
      </trkpt>
      <trkpt lat="41.2437889818" lon="-5.7071848121">
        <ele>848.02</ele>
        <time>2020-08-08T08:01:12Z</time>
      </trkpt>
      <trkpt lat="41.2443309557" lon="-5.7072514482">
        <ele>848.50</ele>
        <time>2020-08-08T08:01:23Z</time>
      </trkpt>
      <trkpt lat="41.2448850833" lon="-5.7072600815">
        <ele>848.50</ele>
        <time>2020-08-08T08:01:34Z</time>
      </trkpt>
      <trkpt lat="41.2453697249" lon="-5.7071903441">
        <ele>848.02</ele>
        <time>2020-08-08T08:01:44Z</time>
      </trkpt>
      <trkpt lat="41.2455052603" lon="-5.7071766816">
        <ele>848.02</ele>
        <time>2020-08-08T08:01:47Z</time>
      </trkpt>
      <trkpt lat="41.2456341740" lon="-5.7071520388">
        <ele>848.02</ele>
        <time>2020-08-08T08:01:50Z</time>
      </trkpt>
      <trkpt lat="41.2460019719" lon="-5.7071264740">
        <ele>848.02</ele>
        <time>2020-08-08T08:01:58Z</time>
      </trkpt>
      <trkpt lat="41.2464260962" lon="-5.7070478518">
        <ele>848.02</ele>
        <time>2020-08-08T08:02:07Z</time>
      </trkpt>
      <trkpt lat="41.2464649044" lon="-5.7070553955">
        <ele>848.02</ele>
        <time>2020-08-08T08:02:08Z</time>
      </trkpt>
      <trkpt lat="41.2465050537" lon="-5.7070743386">
        <ele>848.02</ele>
        <time>2020-08-08T08:02:09Z</time>
      </trkpt>
      <trkpt lat="41.2465401739" lon="-5.7071056869">
        <ele>848.02</ele>
        <time>2020-08-08T08:02:10Z</time>
      </trkpt>
      <trkpt lat="41.2465685885" lon="-5.7071429864">
        <ele>848.50</ele>
        <time>2020-08-08T08:02:11Z</time>
      </trkpt>
      <trkpt lat="41.2465940695" lon="-5.7071857341">
        <ele>848.50</ele>
        <time>2020-08-08T08:02:12Z</time>
      </trkpt>
      <trkpt lat="41.2466135155" lon="-5.7072301582">
        <ele>848.50</ele>
        <time>2020-08-08T08:02:13Z</time>
      </trkpt>
      <trkpt lat="41.2466297764" lon="-5.7072780188">
        <ele>848.98</ele>
        <time>2020-08-08T08:02:14Z</time>
      </trkpt>
      <trkpt lat="41.2466418464" lon="-5.7073319983">
        <ele>848.50</ele>
        <time>2020-08-08T08:02:15Z</time>
      </trkpt>
      <trkpt lat="41.2466481328" lon="-5.7073853910">
        <ele>848.98</ele>
        <time>2020-08-08T08:02:16Z</time>
      </trkpt>
      <trkpt lat="41.2466528267" lon="-5.7074423041">
        <ele>848.98</ele>
        <time>2020-08-08T08:02:17Z</time>
      </trkpt>
      <trkpt lat="41.2466746196" lon="-5.7076058351">
        <ele>848.98</ele>
        <time>2020-08-08T08:02:20Z</time>
      </trkpt>
      <trkpt lat="41.2468469515" lon="-5.7078406960">
        <ele>848.98</ele>
        <time>2020-08-08T08:02:26Z</time>
      </trkpt>
      <trkpt lat="41.2469269149" lon="-5.7078942563">
        <ele>848.98</ele>
        <time>2020-08-08T08:02:28Z</time>
      </trkpt>
      <trkpt lat="41.2473577447" lon="-5.7080111839">
        <ele>847.06</ele>
        <time>2020-08-08T08:02:37Z</time>
      </trkpt>
      <trkpt lat="41.2478631735" lon="-5.7081249263">
        <ele>844.66</ele>
        <time>2020-08-08T08:02:46Z</time>
      </trkpt>
      <trkpt lat="41.2486257590" lon="-5.7082972582">
        <ele>843.69</ele>
        <time>2020-08-08T08:02:59Z</time>
      </trkpt>
      <trkpt lat="41.2490444351" lon="-5.7083908841">
        <ele>843.21</ele>
        <time>2020-08-08T08:03:07Z</time>
      </trkpt>
      <trkpt lat="41.2495385483" lon="-5.7084985916">
        <ele>843.21</ele>
        <time>2020-08-08T08:03:17Z</time>
      </trkpt>
      <trkpt lat="41.2500101142" lon="-5.7086140942">
        <ele>843.21</ele>
        <time>2020-08-08T08:03:27Z</time>
      </trkpt>
      <trkpt lat="41.2505354080" lon="-5.7087331172">
        <ele>843.69</ele>
        <time>2020-08-08T08:03:38Z</time>
      </trkpt>
      <trkpt lat="41.2511311099" lon="-5.7088626176">
        <ele>843.69</ele>
        <time>2020-08-08T08:03:50Z</time>
      </trkpt>
      <trkpt lat="41.2516059447" lon="-5.7089678943">
        <ele>843.69</ele>
        <time>2020-08-08T08:04:00Z</time>
      </trkpt>
      <trkpt lat="41.2520079408" lon="-5.7090474386">
        <ele>843.21</ele>
        <time>2020-08-08T08:04:10Z</time>
      </trkpt>
      <trkpt lat="41.2523903232" lon="-5.7091324311">
        <ele>843.21</ele>
        <time>2020-08-08T08:04:19Z</time>
      </trkpt>
      <trkpt lat="41.2528142799" lon="-5.7092258893">
        <ele>845.62</ele>
        <time>2020-08-08T08:04:29Z</time>
      </trkpt>
      <trkpt lat="41.2531724386" lon="-5.7093186770">
        <ele>845.14</ele>
        <time>2020-08-08T08:04:39Z</time>
      </trkpt>
      <trkpt lat="41.2534215488" lon="-5.7093631011">
        <ele>845.62</ele>
        <time>2020-08-08T08:04:48Z</time>
      </trkpt>
      <trkpt lat="41.2535507977" lon="-5.7093030866">
        <ele>845.14</ele>
        <time>2020-08-08T08:04:54Z</time>
      </trkpt>
      <trkpt lat="41.2535689026" lon="-5.7093122229">
        <ele>845.14</ele>
        <time>2020-08-08T08:04:55Z</time>
      </trkpt>
      <trkpt lat="41.2535852473" lon="-5.7093223650">
        <ele>845.14</ele>
        <time>2020-08-08T08:04:56Z</time>
      </trkpt>
      <trkpt lat="41.2536008377" lon="-5.7093323395">
        <ele>845.14</ele>
        <time>2020-08-08T08:04:57Z</time>
      </trkpt>
      <trkpt lat="41.2536150869" lon="-5.7093391288">
        <ele>845.14</ele>
        <time>2020-08-08T08:04:58Z</time>
      </trkpt>
      <trkpt lat="41.2536275759" lon="-5.7093444932">
        <ele>845.62</ele>
        <time>2020-08-08T08:04:59Z</time>
      </trkpt>
      <trkpt lat="41.2536447588" lon="-5.7093449123">
        <ele>845.14</ele>
        <time>2020-08-08T08:05:04Z</time>
      </trkpt>
      <trkpt lat="41.2536467705" lon="-5.7093575690">
        <ele>845.62</ele>
        <time>2020-08-08T08:05:18Z</time>
      </trkpt>
      <trkpt lat="41.2536507100" lon="-5.7093559764">
        <ele>844.66</ele>
        <time>2020-08-08T08:05:36Z</time>
      </trkpt>
      <trkpt lat="41.2536455970" lon="-5.7093657833">
        <ele>845.62</ele>
        <time>2020-08-08T08:05:54Z</time>
      </trkpt>
      <trkpt lat="41.2536248937" lon="-5.7093867380">
        <ele>848.98</ele>
        <time>2020-08-08T08:06:14Z</time>
      </trkpt>
      <trkpt lat="41.2536210380" lon="-5.7093771826">
        <ele>850.42</ele>
        <time>2020-08-08T08:06:33Z</time>
      </trkpt>
      <trkpt lat="41.2536179367" lon="-5.7093698066">
        <ele>849.94</ele>
        <time>2020-08-08T08:06:40Z</time>
      </trkpt>
      <trkpt lat="41.2536134105" lon="-5.7093605027">
        <ele>849.46</ele>
        <time>2020-08-08T08:06:41Z</time>
      </trkpt>
      <trkpt lat="41.2536080461" lon="-5.7093501929">
        <ele>849.46</ele>
        <time>2020-08-08T08:06:42Z</time>
      </trkpt>
      <trkpt lat="41.2535770331" lon="-5.7093091216">
        <ele>848.98</ele>
        <time>2020-08-08T08:06:50Z</time>
      </trkpt>
      <trkpt lat="41.2535793800" lon="-5.7093040925">
        <ele>847.06</ele>
        <time>2020-08-08T08:07:13Z</time>
      </trkpt>
      <trkpt lat="41.2535970658" lon="-5.7093381230">
        <ele>845.14</ele>
        <time>2020-08-08T08:07:41Z</time>
      </trkpt>
      <trkpt lat="41.2536090519" lon="-5.7093270589">
        <ele>843.21</ele>
        <time>2020-08-08T08:08:05Z</time>
      </trkpt>
      <trkpt lat="41.2536330242" lon="-5.7093520369">
        <ele>843.21</ele>
        <time>2020-08-08T08:08:28Z</time>
      </trkpt>
      <trkpt lat="41.2536019273" lon="-5.7093138993">
        <ele>843.69</ele>
        <time>2020-08-08T08:08:50Z</time>
      </trkpt>
      <trkpt lat="41.2535913661" lon="-5.7092926092">
        <ele>844.66</ele>
        <time>2020-08-08T08:09:12Z</time>
      </trkpt>
      <trkpt lat="41.2535911147" lon="-5.7093036734">
        <ele>844.66</ele>
        <time>2020-08-08T08:09:32Z</time>
      </trkpt>
      <trkpt lat="41.2535686512" lon="-5.7093104627">
        <ele>842.73</ele>
        <time>2020-08-08T08:09:49Z</time>
      </trkpt>
      <trkpt lat="41.2535815593" lon="-5.7093033381">
        <ele>844.66</ele>
        <time>2020-08-08T08:10:11Z</time>
      </trkpt>
      <trkpt lat="41.2535905279" lon="-5.7093139831">
        <ele>844.18</ele>
        <time>2020-08-08T08:10:23Z</time>
      </trkpt>
      <trkpt lat="41.2535735965" lon="-5.7092957944">
        <ele>842.25</ele>
        <time>2020-08-08T08:10:43Z</time>
      </trkpt>
      <trkpt lat="41.2535922043" lon="-5.7092911843">
        <ele>841.29</ele>
        <time>2020-08-08T08:11:16Z</time>
      </trkpt>
      <trkpt lat="41.2535991613" lon="-5.7092900947">
        <ele>840.33</ele>
        <time>2020-08-08T08:11:35Z</time>
      </trkpt>
      <trkpt lat="41.2536049448" lon="-5.7092895079">
        <ele>837.45</ele>
        <time>2020-08-08T08:12:05Z</time>
      </trkpt>
      <trkpt lat="41.2535962276" lon="-5.7092936151">
        <ele>837.93</ele>
        <time>2020-08-08T08:12:36Z</time>
      </trkpt>
      <trkpt lat="41.2535941321" lon="-5.7093030028">
        <ele>839.37</ele>
        <time>2020-08-08T08:13:10Z</time>
      </trkpt>
      <trkpt lat="41.2535929587" lon="-5.7092908490">
        <ele>840.33</ele>
        <time>2020-08-08T08:13:35Z</time>
      </trkpt>
      <trkpt lat="41.2535809726" lon="-5.7092986442">
        <ele>840.81</ele>
        <time>2020-08-08T08:14:00Z</time>
      </trkpt>
      <trkpt lat="41.2535897736" lon="-5.7092935313">
        <ele>840.81</ele>
        <time>2020-08-08T08:14:26Z</time>
      </trkpt>
      <trkpt lat="41.2536074594" lon="-5.7092837244">
        <ele>840.81</ele>
        <time>2020-08-08T08:14:53Z</time>
      </trkpt>
      <trkpt lat="41.2536134105" lon="-5.7093239576">
        <ele>842.25</ele>
        <time>2020-08-08T08:15:17Z</time>
      </trkpt>
      <trkpt lat="41.2536295876" lon="-5.7093121391">
        <ele>842.73</ele>
        <time>2020-08-08T08:15:41Z</time>
      </trkpt>
      <trkpt lat="41.2536512129" lon="-5.7093005721">
        <ele>847.06</ele>
        <time>2020-08-08T08:16:13Z</time>
      </trkpt>
      <trkpt lat="41.2536476087" lon="-5.7093221974">
        <ele>847.54</ele>
        <time>2020-08-08T08:16:38Z</time>
      </trkpt>
      <trkpt lat="41.2536207028" lon="-5.7092955429">
        <ele>847.06</ele>
        <time>2020-08-08T08:17:00Z</time>
      </trkpt>
      <trkpt lat="41.2536131591" lon="-5.7092898432">
        <ele>844.66</ele>
        <time>2020-08-08T08:17:20Z</time>
      </trkpt>
      <trkpt lat="41.2536080461" lon="-5.7092838082">
        <ele>843.69</ele>
        <time>2020-08-08T08:17:39Z</time>
      </trkpt>
      <trkpt lat="41.2536222953" lon="-5.7092964649">
        <ele>844.18</ele>
        <time>2020-08-08T08:17:55Z</time>
      </trkpt>
      <trkpt lat="41.2536295876" lon="-5.7093094569">
        <ele>844.18</ele>
        <time>2020-08-08T08:18:12Z</time>
      </trkpt>
      <trkpt lat="41.2536339462" lon="-5.7092993148">
        <ele>841.77</ele>
        <time>2020-08-08T08:18:29Z</time>
      </trkpt>
      <trkpt lat="41.2536262348" lon="-5.7093226165">
        <ele>840.81</ele>
        <time>2020-08-08T08:18:51Z</time>
      </trkpt>
      <trkpt lat="41.2536113150" lon="-5.7093127258">
        <ele>843.69</ele>
        <time>2020-08-08T08:19:11Z</time>
      </trkpt>
      <trkpt lat="41.2536017597" lon="-5.7093309145">
        <ele>840.33</ele>
        <time>2020-08-08T08:19:33Z</time>
      </trkpt>
      <trkpt lat="41.2536098901" lon="-5.7093133125">
        <ele>842.73</ele>
        <time>2020-08-08T08:19:49Z</time>
      </trkpt>
      <trkpt lat="41.2536227144" lon="-5.7093029190">
        <ele>844.66</ele>
        <time>2020-08-08T08:20:06Z</time>
      </trkpt>
      <trkpt lat="41.2536015920" lon="-5.7093072776">
        <ele>844.18</ele>
        <time>2020-08-08T08:20:17Z</time>
      </trkpt>
      <trkpt lat="41.2535899412" lon="-5.7093079481">
        <ele>844.66</ele>
        <time>2020-08-08T08:20:33Z</time>
      </trkpt>
      <trkpt lat="41.2535902765" lon="-5.7093316689">
        <ele>845.62</ele>
        <time>2020-08-08T08:20:54Z</time>
      </trkpt>
      <trkpt lat="41.2535839062" lon="-5.7093279809">
        <ele>845.62</ele>
        <time>2020-08-08T08:21:07Z</time>
      </trkpt>
      <trkpt lat="41.2535880972" lon="-5.7093235385">
        <ele>845.62</ele>
        <time>2020-08-08T08:21:14Z</time>
      </trkpt>
      <trkpt lat="41.2535865046" lon="-5.7093253825">
        <ele>845.62</ele>
        <time>2020-08-08T08:21:18Z</time>
      </trkpt>
      <trkpt lat="41.2536541466" lon="-5.7093688007">
        <ele>845.62</ele>
        <time>2020-08-08T08:21:24Z</time>
      </trkpt>
      <trkpt lat="41.2537879217" lon="-5.7095093653">
        <ele>844.66</ele>
        <time>2020-08-08T08:21:33Z</time>
      </trkpt>
      <trkpt lat="41.2539818790" lon="-5.7096521091">
        <ele>844.18</ele>
        <time>2020-08-08T08:21:41Z</time>
      </trkpt>
      <trkpt lat="41.2542117108" lon="-5.7098062523">
        <ele>843.69</ele>
        <time>2020-08-08T08:21:49Z</time>
      </trkpt>
      <trkpt lat="41.2545121182" lon="-5.7100075856">
        <ele>844.18</ele>
        <time>2020-08-08T08:21:59Z</time>
      </trkpt>
      <trkpt lat="41.2547896430" lon="-5.7101620641">
        <ele>844.66</ele>
        <time>2020-08-08T08:22:08Z</time>
      </trkpt>
      <trkpt lat="41.2550761364" lon="-5.7103667501">
        <ele>844.66</ele>
        <time>2020-08-08T08:22:17Z</time>
      </trkpt>
      <trkpt lat="41.2553488836" lon="-5.7105866913">
        <ele>845.62</ele>
        <time>2020-08-08T08:22:26Z</time>
      </trkpt>
      <trkpt lat="41.2556508835" lon="-5.7108524814">
        <ele>845.14</ele>
        <time>2020-08-08T08:22:37Z</time>
      </trkpt>
      <trkpt lat="41.2559009995" lon="-5.7110808045">
        <ele>844.66</ele>
        <time>2020-08-08T08:22:46Z</time>
      </trkpt>
      <trkpt lat="41.2560958788" lon="-5.7112823054">
        <ele>843.69</ele>
        <time>2020-08-08T08:22:54Z</time>
      </trkpt>
      <trkpt lat="41.2561658677" lon="-5.7114646956">
        <ele>843.69</ele>
        <time>2020-08-08T08:23:00Z</time>
      </trkpt>
      <trkpt lat="41.2562535424" lon="-5.7116581500">
        <ele>844.18</ele>
        <time>2020-08-08T08:23:08Z</time>
      </trkpt>
      <trkpt lat="41.2562746648" lon="-5.7117675338">
        <ele>844.66</ele>
        <time>2020-08-08T08:23:16Z</time>
      </trkpt>
      <trkpt lat="41.2562765926" lon="-5.7117731497">
        <ele>844.66</ele>
        <time>2020-08-08T08:23:23Z</time>
      </trkpt>
      <trkpt lat="41.2562280614" lon="-5.7117747422">
        <ele>845.14</ele>
        <time>2020-08-08T08:23:29Z</time>
      </trkpt>
      <trkpt lat="41.2562257145" lon="-5.7117493451">
        <ele>845.14</ele>
        <time>2020-08-08T08:23:30Z</time>
      </trkpt>
      <trkpt lat="41.2561917678" lon="-5.7115104608">
        <ele>844.18</ele>
        <time>2020-08-08T08:23:37Z</time>
      </trkpt>
      <trkpt lat="41.2562412210" lon="-5.7114364486">
        <ele>843.69</ele>
        <time>2020-08-08T08:23:41Z</time>
      </trkpt>
      <trkpt lat="41.2562730722" lon="-5.7114355266">
        <ele>843.69</ele>
        <time>2020-08-08T08:23:42Z</time>
      </trkpt>
      <trkpt lat="41.2563159876" lon="-5.7114376221">
        <ele>843.21</ele>
        <time>2020-08-08T08:23:43Z</time>
      </trkpt>
      <trkpt lat="41.2563587353" lon="-5.7114398014">
        <ele>843.21</ele>
        <time>2020-08-08T08:23:44Z</time>
      </trkpt>
      <trkpt lat="41.2567200791" lon="-5.7114939485">
        <ele>843.21</ele>
        <time>2020-08-08T08:23:52Z</time>
      </trkpt>
      <trkpt lat="41.2570732925" lon="-5.7116003986">
        <ele>843.21</ele>
        <time>2020-08-08T08:24:01Z</time>
      </trkpt>
      <trkpt lat="41.2574154418" lon="-5.7116916776">
        <ele>843.21</ele>
        <time>2020-08-08T08:24:11Z</time>
      </trkpt>
      <trkpt lat="41.2575524021" lon="-5.7118433900">
        <ele>843.21</ele>
        <time>2020-08-08T08:24:17Z</time>
      </trkpt>
      <trkpt lat="41.2575857621" lon="-5.7120646723">
        <ele>842.25</ele>
        <time>2020-08-08T08:24:24Z</time>
      </trkpt>
      <trkpt lat="41.2576292641" lon="-5.7122954261">
        <ele>842.25</ele>
        <time>2020-08-08T08:24:32Z</time>
      </trkpt>
      <trkpt lat="41.2576458603" lon="-5.7123306300">
        <ele>842.25</ele>
        <time>2020-08-08T08:24:34Z</time>
      </trkpt>
      <trkpt lat="41.2576512247" lon="-5.7123455498">
        <ele>842.25</ele>
        <time>2020-08-08T08:24:35Z</time>
      </trkpt>
      <trkpt lat="41.2576518953" lon="-5.7123440411">
        <ele>842.73</ele>
        <time>2020-08-08T08:24:40Z</time>
      </trkpt>
      <trkpt lat="41.2576526497" lon="-5.7123786584">
        <ele>841.29</ele>
        <time>2020-08-08T08:24:58Z</time>
      </trkpt>
      <trkpt lat="41.2577259913" lon="-5.7125421055">
        <ele>841.77</ele>
        <time>2020-08-08T08:25:05Z</time>
      </trkpt>
      <trkpt lat="41.2578993291" lon="-5.7127902936">
        <ele>841.77</ele>
        <time>2020-08-08T08:25:15Z</time>
      </trkpt>
      <trkpt lat="41.2580918614" lon="-5.7130048703">
        <ele>841.29</ele>
        <time>2020-08-08T08:25:24Z</time>
      </trkpt>
      <trkpt lat="41.2583733257" lon="-5.7132012583">
        <ele>841.29</ele>
        <time>2020-08-08T08:25:34Z</time>
      </trkpt>
      <trkpt lat="41.2587720528" lon="-5.7134524640">
        <ele>841.29</ele>
        <time>2020-08-08T08:25:46Z</time>
      </trkpt>
      <trkpt lat="41.2590950076" lon="-5.7136049308">
        <ele>841.77</ele>
        <time>2020-08-08T08:25:57Z</time>
      </trkpt>
      <trkpt lat="41.2593260128" lon="-5.7137471717">
        <ele>841.77</ele>
        <time>2020-08-08T08:26:06Z</time>
      </trkpt>
      <trkpt lat="41.2596699223" lon="-5.7139815297">
        <ele>841.77</ele>
        <time>2020-08-08T08:26:18Z</time>
      </trkpt>
      <trkpt lat="41.2599635404" lon="-5.7142157201">
        <ele>842.73</ele>
        <time>2020-08-08T08:26:29Z</time>
      </trkpt>
      <trkpt lat="41.2602094654" lon="-5.7144132815">
        <ele>842.73</ele>
        <time>2020-08-08T08:26:38Z</time>
      </trkpt>
      <trkpt lat="41.2604652811" lon="-5.7146155369">
        <ele>843.21</ele>
        <time>2020-08-08T08:26:47Z</time>
      </trkpt>
      <trkpt lat="41.2608091068" lon="-5.7149001025">
        <ele>843.21</ele>
        <time>2020-08-08T08:26:59Z</time>
      </trkpt>
      <trkpt lat="41.2611349113" lon="-5.7151646353">
        <ele>843.21</ele>
        <time>2020-08-08T08:27:10Z</time>
      </trkpt>
      <trkpt lat="41.2615014520" lon="-5.7154226303">
        <ele>843.21</ele>
        <time>2020-08-08T08:27:22Z</time>
      </trkpt>
      <trkpt lat="41.2618020270" lon="-5.7155795395">
        <ele>843.21</ele>
        <time>2020-08-08T08:27:31Z</time>
      </trkpt>
      <trkpt lat="41.2621100619" lon="-5.7157529611">
        <ele>843.69</ele>
        <time>2020-08-08T08:27:40Z</time>
      </trkpt>
      <trkpt lat="41.2624990661" lon="-5.7159748301">
        <ele>844.18</ele>
        <time>2020-08-08T08:27:53Z</time>
      </trkpt>
      <trkpt lat="41.2628749944" lon="-5.7161991298">
        <ele>844.18</ele>
        <time>2020-08-08T08:28:05Z</time>
      </trkpt>
      <trkpt lat="41.2630227674" lon="-5.7162763271">
        <ele>844.18</ele>
        <time>2020-08-08T08:28:12Z</time>
      </trkpt>
      <trkpt lat="41.2630074285" lon="-5.7162806019">
        <ele>845.14</ele>
        <time>2020-08-08T08:28:18Z</time>
      </trkpt>
      <trkpt lat="41.2629951909" lon="-5.7162770815">
        <ele>844.66</ele>
        <time>2020-08-08T08:28:41Z</time>
      </trkpt>
      <trkpt lat="41.2629942689" lon="-5.7162971981">
        <ele>846.58</ele>
        <time>2020-08-08T08:29:07Z</time>
      </trkpt>
      <trkpt lat="41.2629986275" lon="-5.7162857987">
        <ele>846.58</ele>
        <time>2020-08-08T08:29:23Z</time>
      </trkpt>
      <trkpt lat="41.2630230188" lon="-5.7163033169">
        <ele>846.58</ele>
        <time>2020-08-08T08:29:28Z</time>
      </trkpt>
      <trkpt lat="41.2630374357" lon="-5.7163132075">
        <ele>846.58</ele>
        <time>2020-08-08T08:29:29Z</time>
      </trkpt>
      <trkpt lat="41.2630563788" lon="-5.7163251098">
        <ele>846.10</ele>
        <time>2020-08-08T08:29:30Z</time>
      </trkpt>
      <trkpt lat="41.2632677704" lon="-5.7164468989">
        <ele>846.58</ele>
        <time>2020-08-08T08:29:38Z</time>
      </trkpt>
      <trkpt lat="41.2635717820" lon="-5.7166306302">
        <ele>847.06</ele>
        <time>2020-08-08T08:29:49Z</time>
      </trkpt>
      <trkpt lat="41.2638269272" lon="-5.7167892158">
        <ele>847.54</ele>
        <time>2020-08-08T08:29:59Z</time>
      </trkpt>
      <trkpt lat="41.2641663942" lon="-5.7169516571">
        <ele>848.02</ele>
        <time>2020-08-08T08:30:10Z</time>
      </trkpt>
      <trkpt lat="41.2645100523" lon="-5.7170526590">
        <ele>847.06</ele>
        <time>2020-08-08T08:30:20Z</time>
      </trkpt>
      <trkpt lat="41.2648361083" lon="-5.7171379030">
        <ele>846.58</ele>
        <time>2020-08-08T08:30:30Z</time>
      </trkpt>
      <trkpt lat="41.2651797663" lon="-5.7172396593">
        <ele>845.62</ele>
        <time>2020-08-08T08:30:41Z</time>
      </trkpt>
      <trkpt lat="41.2654445507" lon="-5.7173301838">
        <ele>845.14</ele>
        <time>2020-08-08T08:30:50Z</time>
      </trkpt>
      <trkpt lat="41.2657685950" lon="-5.7174386457">
        <ele>845.62</ele>
        <time>2020-08-08T08:31:01Z</time>
      </trkpt>
      <trkpt lat="41.2660348881" lon="-5.7175345346">
        <ele>846.58</ele>
        <time>2020-08-08T08:31:10Z</time>
      </trkpt>
      <trkpt lat="41.2663258240" lon="-5.7176605985">
        <ele>847.06</ele>
        <time>2020-08-08T08:31:20Z</time>
      </trkpt>
      <trkpt lat="41.2665361259" lon="-5.7177520450">
        <ele>847.54</ele>
        <time>2020-08-08T08:31:27Z</time>
      </trkpt>
      <trkpt lat="41.2668003235" lon="-5.7178733312">
        <ele>847.06</ele>
        <time>2020-08-08T08:31:36Z</time>
      </trkpt>
      <trkpt lat="41.2671390362" lon="-5.7180138957">
        <ele>846.10</ele>
        <time>2020-08-08T08:31:47Z</time>
      </trkpt>
      <trkpt lat="41.2673836201" lon="-5.7181161549">
        <ele>846.10</ele>
        <time>2020-08-08T08:31:56Z</time>
      </trkpt>
      <trkpt lat="41.2675101031" lon="-5.7181961183">
        <ele>846.10</ele>
        <time>2020-08-08T08:32:02Z</time>
      </trkpt>
      <trkpt lat="41.2677240930" lon="-5.7182966173">
        <ele>846.58</ele>
        <time>2020-08-08T08:32:11Z</time>
      </trkpt>
      <trkpt lat="41.2679294497" lon="-5.7184176520">
        <ele>846.10</ele>
        <time>2020-08-08T08:32:20Z</time>
      </trkpt>
      <trkpt lat="41.2682660669" lon="-5.7186291274">
        <ele>846.10</ele>
        <time>2020-08-08T08:32:32Z</time>
      </trkpt>
      <trkpt lat="41.2685527280" lon="-5.7188138645">
        <ele>846.10</ele>
        <time>2020-08-08T08:32:43Z</time>
      </trkpt>
      <trkpt lat="41.2687020935" lon="-5.7188962586">
        <ele>845.62</ele>
        <time>2020-08-08T08:32:51Z</time>
      </trkpt>
      <trkpt lat="41.2688660435" lon="-5.7190066483">
        <ele>845.62</ele>
        <time>2020-08-08T08:33:01Z</time>
      </trkpt>
      <trkpt lat="41.2690170016" lon="-5.7191034593">
        <ele>846.58</ele>
        <time>2020-08-08T08:33:08Z</time>
      </trkpt>
      <trkpt lat="41.2692137249" lon="-5.7192295231">
        <ele>847.06</ele>
        <time>2020-08-08T08:33:17Z</time>
      </trkpt>
      <trkpt lat="41.2692843005" lon="-5.7192631345">
        <ele>848.02</ele>
        <time>2020-08-08T08:33:24Z</time>
      </trkpt>
      <trkpt lat="41.2692891620" lon="-5.7192499749">
        <ele>846.10</ele>
        <time>2020-08-08T08:33:36Z</time>
      </trkpt>
      <trkpt lat="41.2692813668" lon="-5.7192385755">
        <ele>844.18</ele>
        <time>2020-08-08T08:33:49Z</time>
      </trkpt>
      <trkpt lat="41.2692874856" lon="-5.7192434371">
        <ele>844.18</ele>
        <time>2020-08-08T08:33:53Z</time>
      </trkpt>
      <trkpt lat="41.2692978792" lon="-5.7192523219">
        <ele>844.18</ele>
        <time>2020-08-08T08:33:54Z</time>
      </trkpt>
      <trkpt lat="41.2693121284" lon="-5.7192646433">
        <ele>844.66</ele>
        <time>2020-08-08T08:33:55Z</time>
      </trkpt>
      <trkpt lat="41.2693322450" lon="-5.7192796469">
        <ele>844.66</ele>
        <time>2020-08-08T08:33:56Z</time>
      </trkpt>
      <trkpt lat="41.2693542894" lon="-5.7192975003">
        <ele>845.14</ele>
        <time>2020-08-08T08:33:57Z</time>
      </trkpt>
      <trkpt lat="41.2693795189" lon="-5.7193189580">
        <ele>845.14</ele>
        <time>2020-08-08T08:33:58Z</time>
      </trkpt>
      <trkpt lat="41.2695586402" lon="-5.7195207942">
        <ele>845.62</ele>
        <time>2020-08-08T08:34:05Z</time>
      </trkpt>
      <trkpt lat="41.2697345763" lon="-5.7196681481">
        <ele>846.10</ele>
        <time>2020-08-08T08:34:11Z</time>
      </trkpt>
      <trkpt lat="41.2698630709" lon="-5.7198479399">
        <ele>847.06</ele>
        <time>2020-08-08T08:34:17Z</time>
      </trkpt>
      <trkpt lat="41.2701271009" lon="-5.7200605050">
        <ele>847.54</ele>
        <time>2020-08-08T08:34:26Z</time>
      </trkpt>
      <trkpt lat="41.2702467106" lon="-5.7201658655">
        <ele>847.06</ele>
        <time>2020-08-08T08:34:30Z</time>
      </trkpt>
      <trkpt lat="41.2702839263" lon="-5.7201926038">
        <ele>846.58</ele>
        <time>2020-08-08T08:34:31Z</time>
      </trkpt>
      <trkpt lat="41.2703244947" lon="-5.7202113792">
        <ele>846.10</ele>
        <time>2020-08-08T08:34:32Z</time>
      </trkpt>
      <trkpt lat="41.2703686673" lon="-5.7202264667">
        <ele>846.10</ele>
        <time>2020-08-08T08:34:33Z</time>
      </trkpt>
      <trkpt lat="41.2704135105" lon="-5.7202435657">
        <ele>846.10</ele>
        <time>2020-08-08T08:34:34Z</time>
      </trkpt>
      <trkpt lat="41.2704529893" lon="-5.7202682085">
        <ele>846.10</ele>
        <time>2020-08-08T08:34:35Z</time>
      </trkpt>
      <trkpt lat="41.2704871036" lon="-5.7202986348">
        <ele>845.62</ele>
        <time>2020-08-08T08:34:36Z</time>
      </trkpt>
      <trkpt lat="41.2705194578" lon="-5.7203308214">
        <ele>845.62</ele>
        <time>2020-08-08T08:34:37Z</time>
      </trkpt>
      <trkpt lat="41.2706513889" lon="-5.7205581386">
        <ele>846.58</ele>
        <time>2020-08-08T08:34:43Z</time>
      </trkpt>
      <trkpt lat="41.2707966473" lon="-5.7207567897">
        <ele>848.02</ele>
        <time>2020-08-08T08:34:49Z</time>
      </trkpt>
      <trkpt lat="41.2710389681" lon="-5.7208955102">
        <ele>848.50</ele>
        <time>2020-08-08T08:34:57Z</time>
      </trkpt>
      <trkpt lat="41.2711937819" lon="-5.7210531738">
        <ele>849.46</ele>
        <time>2020-08-08T08:35:03Z</time>
      </trkpt>
      <trkpt lat="41.2713483442" lon="-5.7212230749">
        <ele>848.98</ele>
        <time>2020-08-08T08:35:10Z</time>
      </trkpt>
      <trkpt lat="41.2714838795" lon="-5.7213866059">
        <ele>848.98</ele>
        <time>2020-08-08T08:35:17Z</time>
      </trkpt>
      <trkpt lat="41.2716570497" lon="-5.7215824910">
        <ele>848.98</ele>
        <time>2020-08-08T08:35:25Z</time>
      </trkpt>
      <trkpt lat="41.2718857918" lon="-5.7217994146">
        <ele>848.98</ele>
        <time>2020-08-08T08:35:34Z</time>
      </trkpt>
      <trkpt lat="41.2721343990" lon="-5.7219957188">
        <ele>848.50</ele>
        <time>2020-08-08T08:35:42Z</time>
      </trkpt>
      <trkpt lat="41.2723195553" lon="-5.7221438270">
        <ele>848.98</ele>
        <time>2020-08-08T08:35:48Z</time>
      </trkpt>
      <trkpt lat="41.2725219782" lon="-5.7223268040">
        <ele>848.98</ele>
        <time>2020-08-08T08:35:55Z</time>
      </trkpt>
      <trkpt lat="41.2727606110" lon="-5.7225651853">
        <ele>848.02</ele>
        <time>2020-08-08T08:36:03Z</time>
      </trkpt>
      <trkpt lat="41.2729336973" lon="-5.7227691170">
        <ele>848.02</ele>
        <time>2020-08-08T08:36:10Z</time>
      </trkpt>
      <trkpt lat="41.2730783690" lon="-5.7229078375">
        <ele>847.06</ele>
        <time>2020-08-08T08:36:16Z</time>
      </trkpt>
      <trkpt lat="41.2732548919" lon="-5.7231022138">
        <ele>847.54</ele>
        <time>2020-08-08T08:36:25Z</time>
      </trkpt>
      <trkpt lat="41.2734245416" lon="-5.7232918125">
        <ele>848.50</ele>
        <time>2020-08-08T08:36:33Z</time>
      </trkpt>
      <trkpt lat="41.2735540420" lon="-5.7234825008">
        <ele>848.50</ele>
        <time>2020-08-08T08:36:41Z</time>
      </trkpt>
      <trkpt lat="41.2736288086" lon="-5.7235516515">
        <ele>848.50</ele>
        <time>2020-08-08T08:36:46Z</time>
      </trkpt>
      <trkpt lat="41.2737761624" lon="-5.7236452773">
        <ele>848.50</ele>
        <time>2020-08-08T08:36:52Z</time>
      </trkpt>
      <trkpt lat="41.2739472371" lon="-5.7237824891">
        <ele>848.02</ele>
        <time>2020-08-08T08:36:58Z</time>
      </trkpt>
      <trkpt lat="41.2742536794" lon="-5.7240717486">
        <ele>846.58</ele>
        <time>2020-08-08T08:37:07Z</time>
      </trkpt>
      <trkpt lat="41.2745167036" lon="-5.7243543863">
        <ele>847.06</ele>
        <time>2020-08-08T08:37:16Z</time>
      </trkpt>
      <trkpt lat="41.2748049572" lon="-5.7246936858">
        <ele>846.58</ele>
        <time>2020-08-08T08:37:26Z</time>
      </trkpt>
      <trkpt lat="41.2750302628" lon="-5.7249343302">
        <ele>846.10</ele>
        <time>2020-08-08T08:37:33Z</time>
      </trkpt>
      <trkpt lat="41.2752804626" lon="-5.7252377551">
        <ele>846.10</ele>
        <time>2020-08-08T08:37:42Z</time>
      </trkpt>
      <trkpt lat="41.2756216899" lon="-5.7256529946">
        <ele>845.62</ele>
        <time>2020-08-08T08:37:54Z</time>
      </trkpt>
      <trkpt lat="41.2757914234" lon="-5.7257968280">
        <ele>845.62</ele>
        <time>2020-08-08T08:38:00Z</time>
      </trkpt>
      <trkpt lat="41.2760560401" lon="-5.7259781286">
        <ele>845.14</ele>
        <time>2020-08-08T08:38:08Z</time>
      </trkpt>
      <trkpt lat="41.2763543520" lon="-5.7262444217">
        <ele>846.58</ele>
        <time>2020-08-08T08:38:18Z</time>
      </trkpt>
      <trkpt lat="41.2765980139" lon="-5.7264391333">
        <ele>846.58</ele>
        <time>2020-08-08T08:38:26Z</time>
      </trkpt>
      <trkpt lat="41.2769390736" lon="-5.7267607469">
        <ele>847.06</ele>
        <time>2020-08-08T08:38:38Z</time>
      </trkpt>
      <trkpt lat="41.2771684024" lon="-5.7269842923">
        <ele>847.06</ele>
        <time>2020-08-08T08:38:47Z</time>
      </trkpt>
      <trkpt lat="41.2774116453" lon="-5.7272699475">
        <ele>847.54</ele>
        <time>2020-08-08T08:38:57Z</time>
      </trkpt>
      <trkpt lat="41.2776906788" lon="-5.7276176289">
        <ele>848.50</ele>
        <time>2020-08-08T08:39:08Z</time>
      </trkpt>
      <trkpt lat="41.2779272161" lon="-5.7278792281">
        <ele>848.50</ele>
        <time>2020-08-08T08:39:17Z</time>
      </trkpt>
      <trkpt lat="41.2782018073" lon="-5.7281712536">
        <ele>848.98</ele>
        <time>2020-08-08T08:39:27Z</time>
      </trkpt>
      <trkpt lat="41.2784179766" lon="-5.7283376344">
        <ele>850.42</ele>
        <time>2020-08-08T08:39:35Z</time>
      </trkpt>
      <trkpt lat="41.2786522508" lon="-5.7285676338">
        <ele>850.42</ele>
        <time>2020-08-08T08:39:44Z</time>
      </trkpt>
      <trkpt lat="41.2789141852" lon="-5.7287934422">
        <ele>848.98</ele>
        <time>2020-08-08T08:39:53Z</time>
      </trkpt>
      <trkpt lat="41.2791668158" lon="-5.7291055005">
        <ele>848.98</ele>
        <time>2020-08-08T08:40:02Z</time>
      </trkpt>
      <trkpt lat="41.2793367170" lon="-5.7292251941">
        <ele>849.46</ele>
        <time>2020-08-08T08:40:08Z</time>
      </trkpt>
      <trkpt lat="41.2795927003" lon="-5.7294150442">
        <ele>849.94</ele>
        <time>2020-08-08T08:40:16Z</time>
      </trkpt>
      <trkpt lat="41.2798548862" lon="-5.7297754660">
        <ele>849.94</ele>
        <time>2020-08-08T08:40:26Z</time>
      </trkpt>
      <trkpt lat="41.2798829656" lon="-5.7298165374">
        <ele>849.94</ele>
        <time>2020-08-08T08:40:27Z</time>
      </trkpt>
      <trkpt lat="41.2801184133" lon="-5.7300545834">
        <ele>849.94</ele>
        <time>2020-08-08T08:40:35Z</time>
      </trkpt>
      <trkpt lat="41.2803740613" lon="-5.7302176952">
        <ele>848.98</ele>
        <time>2020-08-08T08:40:43Z</time>
      </trkpt>
      <trkpt lat="41.2806426175" lon="-5.7304835692">
        <ele>849.94</ele>
        <time>2020-08-08T08:40:52Z</time>
      </trkpt>
      <trkpt lat="41.2808527518" lon="-5.7307969686">
        <ele>850.42</ele>
        <time>2020-08-08T08:41:01Z</time>
      </trkpt>
      <trkpt lat="41.2810569350" lon="-5.7310376968">
        <ele>850.42</ele>
        <time>2020-08-08T08:41:09Z</time>
      </trkpt>
      <trkpt lat="41.2813368067" lon="-5.7312975358">
        <ele>849.94</ele>
        <time>2020-08-08T08:41:18Z</time>
      </trkpt>
      <trkpt lat="41.2815825641" lon="-5.7315638289">
        <ele>849.94</ele>
        <time>2020-08-08T08:41:26Z</time>
      </trkpt>
      <trkpt lat="41.2816139124" lon="-5.7315955125">
        <ele>849.94</ele>
        <time>2020-08-08T08:41:27Z</time>
      </trkpt>
      <trkpt lat="41.2816471048" lon="-5.7316253521">
        <ele>849.94</ele>
        <time>2020-08-08T08:41:28Z</time>
      </trkpt>
      <trkpt lat="41.2818621006" lon="-5.7317665033">
        <ele>849.46</ele>
        <time>2020-08-08T08:41:35Z</time>
      </trkpt>
      <trkpt lat="41.2821676210" lon="-5.7320626359">
        <ele>849.46</ele>
        <time>2020-08-08T08:41:45Z</time>
      </trkpt>
      <trkpt lat="41.2824259512" lon="-5.7323422562">
        <ele>849.46</ele>
        <time>2020-08-08T08:41:54Z</time>
      </trkpt>
      <trkpt lat="41.2826633267" lon="-5.7326331921">
        <ele>850.90</ele>
        <time>2020-08-08T08:42:04Z</time>
      </trkpt>
      <trkpt lat="41.2829090003" lon="-5.7328869123">
        <ele>850.90</ele>
        <time>2020-08-08T08:42:13Z</time>
      </trkpt>
      <trkpt lat="41.2832482997" lon="-5.7331687957">
        <ele>851.38</ele>
        <time>2020-08-08T08:42:24Z</time>
      </trkpt>
      <trkpt lat="41.2835587654" lon="-5.7334283832">
        <ele>850.90</ele>
        <time>2020-08-08T08:42:34Z</time>
      </trkpt>
      <trkpt lat="41.2838978134" lon="-5.7337474823">
        <ele>849.94</ele>
        <time>2020-08-08T08:42:44Z</time>
      </trkpt>
      <trkpt lat="41.2842020765" lon="-5.7340750471">
        <ele>850.90</ele>
        <time>2020-08-08T08:42:54Z</time>
      </trkpt>
      <trkpt lat="41.2844309025" lon="-5.7343555056">
        <ele>850.90</ele>
        <time>2020-08-08T08:43:02Z</time>
      </trkpt>
      <trkpt lat="41.2847407814" lon="-5.7346583437">
        <ele>850.90</ele>
        <time>2020-08-08T08:43:12Z</time>
      </trkpt>
      <trkpt lat="41.2849499099" lon="-5.7348896842">
        <ele>850.90</ele>
        <time>2020-08-08T08:43:20Z</time>
      </trkpt>
      <trkpt lat="41.2850832660" lon="-5.7350321766">
        <ele>850.42</ele>
        <time>2020-08-08T08:43:27Z</time>
      </trkpt>
      <trkpt lat="41.2852248363" lon="-5.7351848949">
        <ele>850.42</ele>
        <time>2020-08-08T08:43:34Z</time>
      </trkpt>
      <trkpt lat="41.2854120880" lon="-5.7353459112">
        <ele>851.38</ele>
        <time>2020-08-08T08:43:41Z</time>
      </trkpt>
      <trkpt lat="41.2856278382" lon="-5.7355268765">
        <ele>850.90</ele>
        <time>2020-08-08T08:43:48Z</time>
      </trkpt>
      <trkpt lat="41.2858937122" lon="-5.7357712090">
        <ele>851.87</ele>
        <time>2020-08-08T08:43:57Z</time>
      </trkpt>
      <trkpt lat="41.2861486897" lon="-5.7360561937">
        <ele>851.38</ele>
        <time>2020-08-08T08:44:06Z</time>
      </trkpt>
      <trkpt lat="41.2863778509" lon="-5.7362522464">
        <ele>852.35</ele>
        <time>2020-08-08T08:44:14Z</time>
      </trkpt>
      <trkpt lat="41.2866418809" lon="-5.7364905439">
        <ele>853.79</ele>
        <time>2020-08-08T08:44:24Z</time>
      </trkpt>
      <trkpt lat="41.2868777476" lon="-5.7367570885">
        <ele>854.75</ele>
        <time>2020-08-08T08:44:34Z</time>
      </trkpt>
      <trkpt lat="41.2871116865" lon="-5.7370326854">
        <ele>855.23</ele>
        <time>2020-08-08T08:44:44Z</time>
      </trkpt>
      <trkpt lat="41.2874455377" lon="-5.7373773493">
        <ele>855.71</ele>
        <time>2020-08-08T08:44:57Z</time>
      </trkpt>
      <trkpt lat="41.2876442727" lon="-5.7375599910">
        <ele>855.71</ele>
        <time>2020-08-08T08:45:04Z</time>
      </trkpt>
      <trkpt lat="41.2878500484" lon="-5.7377822790">
        <ele>856.67</ele>
        <time>2020-08-08T08:45:12Z</time>
      </trkpt>
      <trkpt lat="41.2881649565" lon="-5.7380979415">
        <ele>858.11</ele>
        <time>2020-08-08T08:45:24Z</time>
      </trkpt>
      <trkpt lat="41.2884276453" lon="-5.7383936550">
        <ele>858.59</ele>
        <time>2020-08-08T08:45:35Z</time>
      </trkpt>
      <trkpt lat="41.2886855565" lon="-5.7386646420">
        <ele>858.59</ele>
        <time>2020-08-08T08:45:46Z</time>
      </trkpt>
      <trkpt lat="41.2889045756" lon="-5.7389191166">
        <ele>857.15</ele>
        <time>2020-08-08T08:45:56Z</time>
      </trkpt>
      <trkpt lat="41.2889438029" lon="-5.7389792148">
        <ele>856.67</ele>
        <time>2020-08-08T08:45:59Z</time>
      </trkpt>
      <trkpt lat="41.2889531069" lon="-5.7389992476">
        <ele>856.67</ele>
        <time>2020-08-08T08:46:00Z</time>
      </trkpt>
      <trkpt lat="41.2889647577" lon="-5.7390143350">
        <ele>856.67</ele>
        <time>2020-08-08T08:46:01Z</time>
      </trkpt>
      <trkpt lat="41.2889800128" lon="-5.7390266564">
        <ele>856.67</ele>
        <time>2020-08-08T08:46:02Z</time>
      </trkpt>
      <trkpt lat="41.2889990397" lon="-5.7390419953">
        <ele>856.67</ele>
        <time>2020-08-08T08:46:03Z</time>
      </trkpt>
      <trkpt lat="41.2890185695" lon="-5.7390589267">
        <ele>856.67</ele>
        <time>2020-08-08T08:46:04Z</time>
      </trkpt>
      <trkpt lat="41.2890423741" lon="-5.7390765287">
        <ele>856.19</ele>
        <time>2020-08-08T08:46:05Z</time>
      </trkpt>
      <trkpt lat="41.2892611418" lon="-5.7392753474">
        <ele>858.11</ele>
        <time>2020-08-08T08:46:14Z</time>
      </trkpt>
      <trkpt lat="41.2895405944" lon="-5.7395304926">
        <ele>861.00</ele>
        <time>2020-08-08T08:46:26Z</time>
      </trkpt>
      <trkpt lat="41.2897741143" lon="-5.7397325803">
        <ele>861.48</ele>
        <time>2020-08-08T08:46:35Z</time>
      </trkpt>
      <trkpt lat="41.2899989169" lon="-5.7399801817">
        <ele>861.96</ele>
        <time>2020-08-08T08:46:45Z</time>
      </trkpt>
      <trkpt lat="41.2902560737" lon="-5.7402275316">
        <ele>862.44</ele>
        <time>2020-08-08T08:46:57Z</time>
      </trkpt>
      <trkpt lat="41.2903777789" lon="-5.7403515000">
        <ele>862.92</ele>
        <time>2020-08-08T08:47:05Z</time>
      </trkpt>
      <trkpt lat="41.2905537989" lon="-5.7405083254">
        <ele>862.92</ele>
        <time>2020-08-08T08:47:14Z</time>
      </trkpt>
      <trkpt lat="41.2906345166" lon="-5.7406005263">
        <ele>862.44</ele>
        <time>2020-08-08T08:47:19Z</time>
      </trkpt>
      <trkpt lat="41.2906629313" lon="-5.7406382449">
        <ele>862.44</ele>
        <time>2020-08-08T08:47:20Z</time>
      </trkpt>
      <trkpt lat="41.2906927709" lon="-5.7406717725">
        <ele>862.44</ele>
        <time>2020-08-08T08:47:21Z</time>
      </trkpt>
      <trkpt lat="41.2907223590" lon="-5.7406996842">
        <ele>862.44</ele>
        <time>2020-08-08T08:47:22Z</time>
      </trkpt>
      <trkpt lat="41.2909036595" lon="-5.7408694178">
        <ele>862.92</ele>
        <time>2020-08-08T08:47:30Z</time>
      </trkpt>
      <trkpt lat="41.2911474891" lon="-5.7410850003">
        <ele>862.44</ele>
        <time>2020-08-08T08:47:41Z</time>
      </trkpt>
      <trkpt lat="41.2913789134" lon="-5.7413119823">
        <ele>861.96</ele>
        <time>2020-08-08T08:47:51Z</time>
      </trkpt>
      <trkpt lat="41.2916224916" lon="-5.7415639423">
        <ele>861.48</ele>
        <time>2020-08-08T08:48:01Z</time>
      </trkpt>
      <trkpt lat="41.2918628007" lon="-5.7418162376">
        <ele>861.00</ele>
        <time>2020-08-08T08:48:11Z</time>
      </trkpt>
      <trkpt lat="41.2921106536" lon="-5.7420779206">
        <ele>859.56</ele>
        <time>2020-08-08T08:48:21Z</time>
      </trkpt>
      <trkpt lat="41.2923471071" lon="-5.7423220016">
        <ele>858.59</ele>
        <time>2020-08-08T08:48:29Z</time>
      </trkpt>
      <trkpt lat="41.2925957143" lon="-5.7425233349">
        <ele>859.56</ele>
        <time>2020-08-08T08:48:38Z</time>
      </trkpt>
      <trkpt lat="41.2928423099" lon="-5.7427126821">
        <ele>859.08</ele>
        <time>2020-08-08T08:48:46Z</time>
      </trkpt>
      <trkpt lat="41.2929870654" lon="-5.7428275142">
        <ele>858.59</ele>
        <time>2020-08-08T08:48:50Z</time>
      </trkpt>
      <trkpt lat="41.2930504326" lon="-5.7429007720">
        <ele>858.59</ele>
        <time>2020-08-08T08:48:52Z</time>
      </trkpt>
      <trkpt lat="41.2930788472" lon="-5.7429389097">
        <ele>859.08</ele>
        <time>2020-08-08T08:48:53Z</time>
      </trkpt>
      <trkpt lat="41.2931075972" lon="-5.7429755386">
        <ele>858.59</ele>
        <time>2020-08-08T08:48:54Z</time>
      </trkpt>
      <trkpt lat="41.2933020573" lon="-5.7432651334">
        <ele>858.59</ele>
        <time>2020-08-08T08:49:02Z</time>
      </trkpt>
      <trkpt lat="41.2935111858" lon="-5.7435004972">
        <ele>857.63</ele>
        <time>2020-08-08T08:49:10Z</time>
      </trkpt>
      <trkpt lat="41.2936953362" lon="-5.7436269801">
        <ele>858.11</ele>
        <time>2020-08-08T08:49:17Z</time>
      </trkpt>
      <trkpt lat="41.2939044647" lon="-5.7438197639">
        <ele>858.11</ele>
        <time>2020-08-08T08:49:25Z</time>
      </trkpt>
      <trkpt lat="41.2941512279" lon="-5.7440424711">
        <ele>857.63</ele>
        <time>2020-08-08T08:49:34Z</time>
      </trkpt>
      <trkpt lat="41.2943473645" lon="-5.7442197483">
        <ele>857.15</ele>
        <time>2020-08-08T08:49:41Z</time>
      </trkpt>
      <trkpt lat="41.2945893500" lon="-5.7443941757">
        <ele>857.63</ele>
        <time>2020-08-08T08:49:49Z</time>
      </trkpt>
      <trkpt lat="41.2948405556" lon="-5.7445370872">
        <ele>858.11</ele>
        <time>2020-08-08T08:49:57Z</time>
      </trkpt>
      <trkpt lat="41.2951022387" lon="-5.7447038032">
        <ele>859.08</ele>
        <time>2020-08-08T08:50:06Z</time>
      </trkpt>
      <trkpt lat="41.2954075914" lon="-5.7448415179">
        <ele>859.08</ele>
        <time>2020-08-08T08:50:16Z</time>
      </trkpt>
      <trkpt lat="41.2957254332" lon="-5.7449555956">
        <ele>859.56</ele>
        <time>2020-08-08T08:50:26Z</time>
      </trkpt>
      <trkpt lat="41.2960011978" lon="-5.7449962478">
        <ele>859.56</ele>
        <time>2020-08-08T08:50:34Z</time>
      </trkpt>
      <trkpt lat="41.2962546665" lon="-5.7450244110">
        <ele>860.04</ele>
        <time>2020-08-08T08:50:42Z</time>
      </trkpt>
      <trkpt lat="41.2964896951" lon="-5.7451094873">
        <ele>860.52</ele>
        <time>2020-08-08T08:50:50Z</time>
      </trkpt>
      <trkpt lat="41.2965346221" lon="-5.7452190388">
        <ele>861.00</ele>
        <time>2020-08-08T08:50:54Z</time>
      </trkpt>
      <trkpt lat="41.2965199538" lon="-5.7452805620">
        <ele>861.48</ele>
        <time>2020-08-08T08:50:56Z</time>
      </trkpt>
      <trkpt lat="41.2965005077" lon="-5.7453106530">
        <ele>861.48</ele>
        <time>2020-08-08T08:50:57Z</time>
      </trkpt>
      <trkpt lat="41.2964835763" lon="-5.7453293446">
        <ele>861.00</ele>
        <time>2020-08-08T08:50:58Z</time>
      </trkpt>
      <trkpt lat="41.2964606937" lon="-5.7453496289">
        <ele>861.00</ele>
        <time>2020-08-08T08:50:59Z</time>
      </trkpt>
      <trkpt lat="41.2962632161" lon="-5.7455313485">
        <ele>861.48</ele>
        <time>2020-08-08T08:51:08Z</time>
      </trkpt>
      <trkpt lat="41.2961115036" lon="-5.7457007468">
        <ele>862.44</ele>
        <time>2020-08-08T08:51:16Z</time>
      </trkpt>
      <trkpt lat="41.2960820831" lon="-5.7457304187">
        <ele>862.92</ele>
        <time>2020-08-08T08:51:19Z</time>
      </trkpt>
      <trkpt lat="41.2960752938" lon="-5.7457497809">
        <ele>862.92</ele>
        <time>2020-08-08T08:51:20Z</time>
      </trkpt>
      <trkpt lat="41.2960706837" lon="-5.7457720768">
        <ele>862.92</ele>
        <time>2020-08-08T08:51:21Z</time>
      </trkpt>
      <trkpt lat="41.2960690074" lon="-5.7457973901">
        <ele>862.92</ele>
        <time>2020-08-08T08:51:22Z</time>
      </trkpt>
      <trkpt lat="41.2960697617" lon="-5.7458212785">
        <ele>862.92</ele>
        <time>2020-08-08T08:51:23Z</time>
      </trkpt>
      <trkpt lat="41.2960739527" lon="-5.7458444126">
        <ele>863.40</ele>
        <time>2020-08-08T08:51:24Z</time>
      </trkpt>
      <trkpt lat="41.2960798200" lon="-5.7458664570">
        <ele>863.40</ele>
        <time>2020-08-08T08:51:25Z</time>
      </trkpt>
      <trkpt lat="41.2960917223" lon="-5.7458907645">
        <ele>863.40</ele>
        <time>2020-08-08T08:51:26Z</time>
      </trkpt>
      <trkpt lat="41.2961053848" lon="-5.7459158264">
        <ele>863.40</ele>
        <time>2020-08-08T08:51:27Z</time>
      </trkpt>
      <trkpt lat="41.2962765433" lon="-5.7461498491">
        <ele>862.44</ele>
        <time>2020-08-08T08:51:36Z</time>
      </trkpt>
      <trkpt lat="41.2964839116" lon="-5.7465026435">
        <ele>862.44</ele>
        <time>2020-08-08T08:51:46Z</time>
      </trkpt>
      <trkpt lat="41.2966958061" lon="-5.7468655799">
        <ele>862.44</ele>
        <time>2020-08-08T08:51:55Z</time>
      </trkpt>
      <trkpt lat="41.2969011627" lon="-5.7472017780">
        <ele>862.92</ele>
        <time>2020-08-08T08:52:04Z</time>
      </trkpt>
      <trkpt lat="41.2971196789" lon="-5.7475584280">
        <ele>861.96</ele>
        <time>2020-08-08T08:52:14Z</time>
      </trkpt>
      <trkpt lat="41.2973319925" lon="-5.7479154970">
        <ele>861.96</ele>
        <time>2020-08-08T08:52:24Z</time>
      </trkpt>
      <trkpt lat="41.2974817771" lon="-5.7481744979">
        <ele>862.44</ele>
        <time>2020-08-08T08:52:32Z</time>
      </trkpt>
      <trkpt lat="41.2977049872" lon="-5.7485510968">
        <ele>862.92</ele>
        <time>2020-08-08T08:52:43Z</time>
      </trkpt>
      <trkpt lat="41.2979246769" lon="-5.7489124406">
        <ele>863.40</ele>
        <time>2020-08-08T08:52:54Z</time>
      </trkpt>
      <trkpt lat="41.2982138526" lon="-5.7494098227">
        <ele>864.36</ele>
        <time>2020-08-08T08:53:08Z</time>
      </trkpt>
      <trkpt lat="41.2984458636" lon="-5.7498076279">
        <ele>864.84</ele>
        <time>2020-08-08T08:53:19Z</time>
      </trkpt>
      <trkpt lat="41.2985893618" lon="-5.7500383817">
        <ele>865.32</ele>
        <time>2020-08-08T08:53:26Z</time>
      </trkpt>
      <trkpt lat="41.2987802178" lon="-5.7503445726">
        <ele>865.80</ele>
        <time>2020-08-08T08:53:35Z</time>
      </trkpt>
      <trkpt lat="41.2989808805" lon="-5.7506849617">
        <ele>866.29</ele>
        <time>2020-08-08T08:53:45Z</time>
      </trkpt>
      <trkpt lat="41.2991952058" lon="-5.7510348223">
        <ele>866.29</ele>
        <time>2020-08-08T08:53:55Z</time>
      </trkpt>
      <trkpt lat="41.2994606607" lon="-5.7514929771">
        <ele>866.29</ele>
        <time>2020-08-08T08:54:08Z</time>
      </trkpt>
      <trkpt lat="41.2996410392" lon="-5.7517772075">
        <ele>866.29</ele>
        <time>2020-08-08T08:54:16Z</time>
      </trkpt>
      <trkpt lat="41.2997345813" lon="-5.7519539818">
        <ele>866.77</ele>
        <time>2020-08-08T08:54:23Z</time>
      </trkpt>
      <trkpt lat="41.2997412868" lon="-5.7519610226">
        <ele>866.77</ele>
        <time>2020-08-08T08:54:24Z</time>
      </trkpt>
      <trkpt lat="41.2997477408" lon="-5.7519610226">
        <ele>867.25</ele>
        <time>2020-08-08T08:54:31Z</time>
      </trkpt>
      <trkpt lat="41.2997469865" lon="-5.7519643754">
        <ele>867.25</ele>
        <time>2020-08-08T08:54:49Z</time>
      </trkpt>
      <trkpt lat="41.2997422926" lon="-5.7519630343">
        <ele>867.73</ele>
        <time>2020-08-08T08:55:02Z</time>
      </trkpt>
      <trkpt lat="41.2997472379" lon="-5.7519587595">
        <ele>868.21</ele>
        <time>2020-08-08T08:55:16Z</time>
      </trkpt>
      <trkpt lat="41.2997624930" lon="-5.7519668899">
        <ele>868.21</ele>
        <time>2020-08-08T08:55:26Z</time>
      </trkpt>
      <trkpt lat="41.2997628283" lon="-5.7519821450">
        <ele>867.73</ele>
        <time>2020-08-08T08:55:30Z</time>
      </trkpt>
      <trkpt lat="41.2997677736" lon="-5.7519972324">
        <ele>867.73</ele>
        <time>2020-08-08T08:55:31Z</time>
      </trkpt>
      <trkpt lat="41.2997757364" lon="-5.7520152535">
        <ele>867.73</ele>
        <time>2020-08-08T08:55:32Z</time>
      </trkpt>
      <trkpt lat="41.2998931669" lon="-5.7522070315">
        <ele>867.73</ele>
        <time>2020-08-08T08:55:39Z</time>
      </trkpt>
      <trkpt lat="41.3001420256" lon="-5.7526137214">
        <ele>868.21</ele>
        <time>2020-08-08T08:55:50Z</time>
      </trkpt>
      <trkpt lat="41.3003447000" lon="-5.7529575471">
        <ele>868.21</ele>
        <time>2020-08-08T08:55:58Z</time>
      </trkpt>
      <trkpt lat="41.3005819079" lon="-5.7533582859">
        <ele>868.21</ele>
        <time>2020-08-08T08:56:07Z</time>
      </trkpt>
      <trkpt lat="41.3006083108" lon="-5.7534016203">
        <ele>868.69</ele>
        <time>2020-08-08T08:56:08Z</time>
      </trkpt>
      <trkpt lat="41.3006329536" lon="-5.7534424402">
        <ele>868.69</ele>
        <time>2020-08-08T08:56:09Z</time>
      </trkpt>
      <trkpt lat="41.3008188643" lon="-5.7537385728">
        <ele>869.17</ele>
        <time>2020-08-08T08:56:17Z</time>
      </trkpt>
      <trkpt lat="41.3010186050" lon="-5.7540722564">
        <ele>870.13</ele>
        <time>2020-08-08T08:56:27Z</time>
      </trkpt>
      <trkpt lat="41.3012114726" lon="-5.7544045150">
        <ele>870.13</ele>
        <time>2020-08-08T08:56:36Z</time>
      </trkpt>
      <trkpt lat="41.3014194276" lon="-5.7547485083">
        <ele>870.13</ele>
        <time>2020-08-08T08:56:45Z</time>
      </trkpt>
      <trkpt lat="41.3016680349" lon="-5.7551824395">
        <ele>869.65</ele>
        <time>2020-08-08T08:56:56Z</time>
      </trkpt>
      <trkpt lat="41.3019069191" lon="-5.7555890456">
        <ele>868.69</ele>
        <time>2020-08-08T08:57:07Z</time>
      </trkpt>
      <trkpt lat="41.3021126110" lon="-5.7559300214">
        <ele>869.17</ele>
        <time>2020-08-08T08:57:16Z</time>
      </trkpt>
      <trkpt lat="41.3023635652" lon="-5.7563363761">
        <ele>870.13</ele>
        <time>2020-08-08T08:57:27Z</time>
      </trkpt>
      <trkpt lat="41.3025839254" lon="-5.7566947024">
        <ele>870.61</ele>
        <time>2020-08-08T08:57:37Z</time>
      </trkpt>
      <trkpt lat="41.3028275035" lon="-5.7570898253">
        <ele>871.09</ele>
        <time>2020-08-08T08:57:48Z</time>
      </trkpt>
      <trkpt lat="41.3030461874" lon="-5.7574385963">
        <ele>871.57</ele>
        <time>2020-08-08T08:57:58Z</time>
      </trkpt>
      <trkpt lat="41.3032595906" lon="-5.7577315439">
        <ele>872.53</ele>
        <time>2020-08-08T08:58:07Z</time>
      </trkpt>
      <trkpt lat="41.3034943677" lon="-5.7580541633">
        <ele>873.98</ele>
        <time>2020-08-08T08:58:17Z</time>
      </trkpt>
      <trkpt lat="41.3037192542" lon="-5.7583705802">
        <ele>874.94</ele>
        <time>2020-08-08T08:58:27Z</time>
      </trkpt>
      <trkpt lat="41.3039853796" lon="-5.7587105501">
        <ele>875.42</ele>
        <time>2020-08-08T08:58:38Z</time>
      </trkpt>
      <trkpt lat="41.3042307179" lon="-5.7590532862">
        <ele>874.94</ele>
        <time>2020-08-08T08:58:48Z</time>
      </trkpt>
      <trkpt lat="41.3045278564" lon="-5.7594666816">
        <ele>874.46</ele>
        <time>2020-08-08T08:58:59Z</time>
      </trkpt>
      <trkpt lat="41.3048338797" lon="-5.7598851901">
        <ele>874.46</ele>
        <time>2020-08-08T08:59:10Z</time>
      </trkpt>
      <trkpt lat="41.3051194511" lon="-5.7602801453">
        <ele>874.46</ele>
        <time>2020-08-08T08:59:21Z</time>
      </trkpt>
      <trkpt lat="41.3052336127" lon="-5.7604396529">
        <ele>874.94</ele>
        <time>2020-08-08T08:59:27Z</time>
      </trkpt>
      <trkpt lat="41.3054252230" lon="-5.7607035991">
        <ele>875.42</ele>
        <time>2020-08-08T08:59:37Z</time>
      </trkpt>
      <trkpt lat="41.3056638557" lon="-5.7610299904">
        <ele>876.86</ele>
        <time>2020-08-08T08:59:50Z</time>
      </trkpt>
      <trkpt lat="41.3058410492" lon="-5.7612831239">
        <ele>877.34</ele>
        <time>2020-08-08T09:00:00Z</time>
      </trkpt>
      <trkpt lat="41.3059697114" lon="-5.7614392787">
        <ele>878.30</ele>
        <time>2020-08-08T09:00:07Z</time>
      </trkpt>
      <trkpt lat="41.3061350025" lon="-5.7616508380">
        <ele>878.78</ele>
        <time>2020-08-08T09:00:16Z</time>
      </trkpt>
      <trkpt lat="41.3062979467" lon="-5.7618937455">
        <ele>879.74</ele>
        <time>2020-08-08T09:00:26Z</time>
      </trkpt>
      <trkpt lat="41.3064660877" lon="-5.7620995212">
        <ele>880.71</ele>
        <time>2020-08-08T09:00:35Z</time>
      </trkpt>
      <trkpt lat="41.3066234998" lon="-5.7623346336">
        <ele>880.22</ele>
        <time>2020-08-08T09:00:44Z</time>
      </trkpt>
      <trkpt lat="41.3067835104" lon="-5.7625443488">
        <ele>881.19</ele>
        <time>2020-08-08T09:00:53Z</time>
      </trkpt>
      <trkpt lat="41.3069545012" lon="-5.7627785392">
        <ele>881.19</ele>
        <time>2020-08-08T09:01:02Z</time>
      </trkpt>
      <trkpt lat="41.3071964029" lon="-5.7630998176">
        <ele>881.67</ele>
        <time>2020-08-08T09:01:14Z</time>
      </trkpt>
      <trkpt lat="41.3074225467" lon="-5.7634110376">
        <ele>882.15</ele>
        <time>2020-08-08T09:01:25Z</time>
      </trkpt>
      <trkpt lat="41.3076645322" lon="-5.7637531869">
        <ele>883.11</ele>
        <time>2020-08-08T09:01:37Z</time>
      </trkpt>
      <trkpt lat="41.3077702280" lon="-5.7639021333">
        <ele>883.11</ele>
        <time>2020-08-08T09:01:45Z</time>
      </trkpt>
      <trkpt lat="41.3078823779" lon="-5.7640420273">
        <ele>884.07</ele>
        <time>2020-08-08T09:01:52Z</time>
      </trkpt>
      <trkpt lat="41.3080654386" lon="-5.7642985135">
        <ele>885.03</ele>
        <time>2020-08-08T09:02:02Z</time>
      </trkpt>
      <trkpt lat="41.3082246110" lon="-5.7645085640">
        <ele>885.51</ele>
        <time>2020-08-08T09:02:11Z</time>
      </trkpt>
      <trkpt lat="41.3083923329" lon="-5.7647333667">
        <ele>885.99</ele>
        <time>2020-08-08T09:02:20Z</time>
      </trkpt>
      <trkpt lat="41.3086217456" lon="-5.7650346123">
        <ele>885.99</ele>
        <time>2020-08-08T09:02:31Z</time>
      </trkpt>
      <trkpt lat="41.3088297006" lon="-5.7653068565">
        <ele>885.51</ele>
        <time>2020-08-08T09:02:40Z</time>
      </trkpt>
      <trkpt lat="41.3090454508" lon="-5.7655957807">
        <ele>885.03</ele>
        <time>2020-08-08T09:02:48Z</time>
      </trkpt>
      <trkpt lat="41.3094109017" lon="-5.7661004551">
        <ele>884.07</ele>
        <time>2020-08-08T09:03:01Z</time>
      </trkpt>
      <trkpt lat="41.3096599281" lon="-5.7664256729">
        <ele>883.11</ele>
        <time>2020-08-08T09:03:09Z</time>
      </trkpt>
      <trkpt lat="41.3097692281" lon="-5.7665933110">
        <ele>881.67</ele>
        <time>2020-08-08T09:03:15Z</time>
      </trkpt>
      <trkpt lat="41.3098749239" lon="-5.7667101547">
        <ele>880.71</ele>
        <time>2020-08-08T09:03:21Z</time>
      </trkpt>
      <trkpt lat="41.3101185020" lon="-5.7668506354">
        <ele>879.26</ele>
        <time>2020-08-08T09:03:29Z</time>
      </trkpt>
      <trkpt lat="41.3103177398" lon="-5.7669254020">
        <ele>878.78</ele>
        <time>2020-08-08T09:03:37Z</time>
      </trkpt>
      <trkpt lat="41.3105265331" lon="-5.7668772060">
        <ele>879.26</ele>
        <time>2020-08-08T09:03:44Z</time>
      </trkpt>
      <trkpt lat="41.3107530121" lon="-5.7667259965">
        <ele>880.71</ele>
        <time>2020-08-08T09:03:53Z</time>
      </trkpt>
      <trkpt lat="41.3110384159" lon="-5.7665873598">
        <ele>881.67</ele>
        <time>2020-08-08T09:04:04Z</time>
      </trkpt>
      <trkpt lat="41.3112666551" lon="-5.7664817479">
        <ele>882.15</ele>
        <time>2020-08-08T09:04:12Z</time>
      </trkpt>
      <trkpt lat="41.3113986701" lon="-5.7664115913">
        <ele>882.63</ele>
        <time>2020-08-08T09:04:18Z</time>
      </trkpt>
      <trkpt lat="41.3115789648" lon="-5.7663280237">
        <ele>881.67</ele>
        <time>2020-08-08T09:04:24Z</time>
      </trkpt>
      <trkpt lat="41.3118734211" lon="-5.7661283668">
        <ele>879.74</ele>
        <time>2020-08-08T09:04:33Z</time>
      </trkpt>
      <trkpt lat="41.3120833039" lon="-5.7658919971">
        <ele>877.82</ele>
        <time>2020-08-08T09:04:41Z</time>
      </trkpt>
      <trkpt lat="41.3123013172" lon="-5.7656924240">
        <ele>876.86</ele>
        <time>2020-08-08T09:04:49Z</time>
      </trkpt>
      <trkpt lat="41.3124599867" lon="-5.7654875703">
        <ele>875.90</ele>
        <time>2020-08-08T09:04:57Z</time>
      </trkpt>
      <trkpt lat="41.3125914149" lon="-5.7652426511">
        <ele>875.90</ele>
        <time>2020-08-08T09:05:05Z</time>
      </trkpt>
      <trkpt lat="41.3126001321" lon="-5.7652260549">
        <ele>875.42</ele>
        <time>2020-08-08T09:05:10Z</time>
      </trkpt>
      <trkpt lat="41.3125959411" lon="-5.7652404718">
        <ele>874.46</ele>
        <time>2020-08-08T09:05:20Z</time>
      </trkpt>
      <trkpt lat="41.3126003835" lon="-5.7652359456">
        <ele>873.98</ele>
        <time>2020-08-08T09:05:36Z</time>
      </trkpt>
      <trkpt lat="41.3125981204" lon="-5.7652349398">
        <ele>873.98</ele>
        <time>2020-08-08T09:05:48Z</time>
      </trkpt>
      <trkpt lat="41.3126392756" lon="-5.7651522104">
        <ele>873.50</ele>
        <time>2020-08-08T09:05:55Z</time>
      </trkpt>
      <trkpt lat="41.3127753139" lon="-5.7648442592">
        <ele>874.94</ele>
        <time>2020-08-08T09:06:05Z</time>
      </trkpt>
      <trkpt lat="41.3127950113" lon="-5.7647905312">
        <ele>875.42</ele>
        <time>2020-08-08T09:06:10Z</time>
      </trkpt>
      <trkpt lat="41.3128034770" lon="-5.7648041099">
        <ele>876.86</ele>
        <time>2020-08-08T09:06:22Z</time>
      </trkpt>
      <trkpt lat="41.3128069974" lon="-5.7648030203">
        <ele>877.34</ele>
        <time>2020-08-08T09:06:35Z</time>
      </trkpt>
      <trkpt lat="41.3127921615" lon="-5.7648026850">
        <ele>876.86</ele>
        <time>2020-08-08T09:06:48Z</time>
      </trkpt>
      <trkpt lat="41.3127962686" lon="-5.7647989132">
        <ele>875.90</ele>
        <time>2020-08-08T09:07:03Z</time>
      </trkpt>
      <trkpt lat="41.3128460571" lon="-5.7647206262">
        <ele>875.42</ele>
        <time>2020-08-08T09:07:08Z</time>
      </trkpt>
      <trkpt lat="41.3130266033" lon="-5.7644107472">
        <ele>874.46</ele>
        <time>2020-08-08T09:07:18Z</time>
      </trkpt>
      <trkpt lat="41.3132420182" lon="-5.7641824242">
        <ele>872.53</ele>
        <time>2020-08-08T09:07:26Z</time>
      </trkpt>
      <trkpt lat="41.3134827465" lon="-5.7639285363">
        <ele>872.05</ele>
        <time>2020-08-08T09:07:34Z</time>
      </trkpt>
      <trkpt lat="41.3136679027" lon="-5.7638214156">
        <ele>873.01</ele>
        <time>2020-08-08T09:07:41Z</time>
      </trkpt>
      <trkpt lat="41.3138238061" lon="-5.7637564559">
        <ele>873.01</ele>
        <time>2020-08-08T09:07:49Z</time>
      </trkpt>
      <trkpt lat="41.3140415680" lon="-5.7636501733">
        <ele>870.61</ele>
        <time>2020-08-08T09:07:57Z</time>
      </trkpt>
      <trkpt lat="41.3142167497" lon="-5.7635457348">
        <ele>869.17</ele>
        <time>2020-08-08T09:08:04Z</time>
      </trkpt>
      <trkpt lat="41.3144428935" lon="-5.7634304836">
        <ele>867.25</ele>
        <time>2020-08-08T09:08:11Z</time>
      </trkpt>
      <trkpt lat="41.3147385232" lon="-5.7632675394">
        <ele>865.32</ele>
        <time>2020-08-08T09:08:21Z</time>
      </trkpt>
      <trkpt lat="41.3150232565" lon="-5.7630444132">
        <ele>862.92</ele>
        <time>2020-08-08T09:08:31Z</time>
      </trkpt>
      <trkpt lat="41.3151183911" lon="-5.7629900984">
        <ele>861.96</ele>
        <time>2020-08-08T09:08:37Z</time>
      </trkpt>
      <trkpt lat="41.3153605442" lon="-5.7629046030">
        <ele>859.08</ele>
        <time>2020-08-08T09:08:45Z</time>
      </trkpt>
      <trkpt lat="41.3155153580" lon="-5.7628434990">
        <ele>858.11</ele>
        <time>2020-08-08T09:08:49Z</time>
      </trkpt>
      <trkpt lat="41.3156327885" lon="-5.7627742644">
        <ele>857.15</ele>
        <time>2020-08-08T09:08:52Z</time>
      </trkpt>
      <trkpt lat="41.3156710938" lon="-5.7627459336">
        <ele>856.67</ele>
        <time>2020-08-08T09:08:53Z</time>
      </trkpt>
      <trkpt lat="41.3157125004" lon="-5.7627202012">
        <ele>856.67</ele>
        <time>2020-08-08T09:08:54Z</time>
      </trkpt>
      <trkpt lat="41.3157927152" lon="-5.7626837399">
        <ele>856.19</ele>
        <time>2020-08-08T09:08:56Z</time>
      </trkpt>
      <trkpt lat="41.3161204476" lon="-5.7625527307">
        <ele>854.27</ele>
        <time>2020-08-08T09:09:03Z</time>
      </trkpt>
      <trkpt lat="41.3161690626" lon="-5.7625358831">
        <ele>853.79</ele>
        <time>2020-08-08T09:09:04Z</time>
      </trkpt>
      <trkpt lat="41.3164709788" lon="-5.7625181973">
        <ele>851.38</ele>
        <time>2020-08-08T09:09:11Z</time>
      </trkpt>
      <trkpt lat="41.3167081028" lon="-5.7625786308">
        <ele>849.94</ele>
        <time>2020-08-08T09:09:18Z</time>
      </trkpt>
      <trkpt lat="41.3169786707" lon="-5.7626435906">
        <ele>848.98</ele>
        <time>2020-08-08T09:09:25Z</time>
      </trkpt>
      <trkpt lat="41.3172527589" lon="-5.7626942173">
        <ele>846.58</ele>
        <time>2020-08-08T09:09:32Z</time>
      </trkpt>
      <trkpt lat="41.3175669964" lon="-5.7627443410">
        <ele>843.21</ele>
        <time>2020-08-08T09:09:40Z</time>
      </trkpt>
      <trkpt lat="41.3178902864" lon="-5.7628167607">
        <ele>840.33</ele>
        <time>2020-08-08T09:09:47Z</time>
      </trkpt>
      <trkpt lat="41.3180634566" lon="-5.7628616039">
        <ele>839.37</ele>
        <time>2020-08-08T09:09:52Z</time>
      </trkpt>
      <trkpt lat="41.3182919472" lon="-5.7628944609">
        <ele>838.89</ele>
        <time>2020-08-08T09:10:00Z</time>
      </trkpt>
      <trkpt lat="41.3185102120" lon="-5.7629477698">
        <ele>838.41</ele>
        <time>2020-08-08T09:10:08Z</time>
      </trkpt>
      <trkpt lat="41.3187685423" lon="-5.7630204409">
        <ele>838.41</ele>
        <time>2020-08-08T09:10:16Z</time>
      </trkpt>
      <trkpt lat="41.3190747332" lon="-5.7631441578">
        <ele>837.45</ele>
        <time>2020-08-08T09:10:25Z</time>
      </trkpt>
      <trkpt lat="41.3193769008" lon="-5.7632366102">
        <ele>836.00</ele>
        <time>2020-08-08T09:10:33Z</time>
      </trkpt>
      <trkpt lat="41.3195742108" lon="-5.7632603310">
        <ele>836.00</ele>
        <time>2020-08-08T09:10:40Z</time>
      </trkpt>
      <trkpt lat="41.3197705150" lon="-5.7632853091">
        <ele>835.52</ele>
        <time>2020-08-08T09:10:47Z</time>
      </trkpt>
      <trkpt lat="41.3199798111" lon="-5.7632776815">
        <ele>835.04</ele>
        <time>2020-08-08T09:10:55Z</time>
      </trkpt>
      <trkpt lat="41.3202894386" lon="-5.7632378675">
        <ele>834.56</ele>
        <time>2020-08-08T09:11:05Z</time>
      </trkpt>
      <trkpt lat="41.3205999043" lon="-5.7632149011">
        <ele>834.08</ele>
        <time>2020-08-08T09:11:14Z</time>
      </trkpt>
      <trkpt lat="41.3208299037" lon="-5.7632227801">
        <ele>832.64</ele>
        <time>2020-08-08T09:11:21Z</time>
      </trkpt>
      <trkpt lat="41.3210734818" lon="-5.7632089499">
        <ele>831.20</ele>
        <time>2020-08-08T09:11:28Z</time>
      </trkpt>
      <trkpt lat="41.3213069178" lon="-5.7632859796">
        <ele>828.31</ele>
        <time>2020-08-08T09:11:35Z</time>
      </trkpt>
      <trkpt lat="41.3215261046" lon="-5.7633757498">
        <ele>826.87</ele>
        <time>2020-08-08T09:11:43Z</time>
      </trkpt>
      <trkpt lat="41.3215823472" lon="-5.7633964531">
        <ele>825.91</ele>
        <time>2020-08-08T09:11:48Z</time>
      </trkpt>
      <trkpt lat="41.3216125220" lon="-5.7634102833">
        <ele>825.43</ele>
        <time>2020-08-08T09:11:59Z</time>
      </trkpt>
      <trkpt lat="41.3216162100" lon="-5.7634340879">
        <ele>825.43</ele>
        <time>2020-08-08T09:12:04Z</time>
      </trkpt>
      <trkpt lat="41.3216638193" lon="-5.7634587307">
        <ele>825.91</ele>
        <time>2020-08-08T09:12:11Z</time>
      </trkpt>
      <trkpt lat="41.3217977621" lon="-5.7635138836">
        <ele>825.91</ele>
        <time>2020-08-08T09:12:17Z</time>
      </trkpt>
      <trkpt lat="41.3220108300" lon="-5.7636272907">
        <ele>825.43</ele>
        <time>2020-08-08T09:12:25Z</time>
      </trkpt>
      <trkpt lat="41.3223020174" lon="-5.7637739740">
        <ele>823.51</ele>
        <time>2020-08-08T09:12:34Z</time>
      </trkpt>
      <trkpt lat="41.3226221222" lon="-5.7639087550">
        <ele>822.06</ele>
        <time>2020-08-08T09:12:42Z</time>
      </trkpt>
      <trkpt lat="41.3228392135" lon="-5.7640044764">
        <ele>821.10</ele>
        <time>2020-08-08T09:12:49Z</time>
      </trkpt>
      <trkpt lat="41.3230767567" lon="-5.7640848588">
        <ele>820.62</ele>
        <time>2020-08-08T09:12:58Z</time>
      </trkpt>
      <trkpt lat="41.3232804369" lon="-5.7641842682">
        <ele>820.62</ele>
        <time>2020-08-08T09:13:06Z</time>
      </trkpt>
      <trkpt lat="41.3234172296" lon="-5.7642369065">
        <ele>820.62</ele>
        <time>2020-08-08T09:13:12Z</time>
      </trkpt>
      <trkpt lat="41.3234230969" lon="-5.7642464619">
        <ele>820.62</ele>
        <time>2020-08-08T09:13:18Z</time>
      </trkpt>
      <trkpt lat="41.3234588876" lon="-5.7642784808">
        <ele>820.62</ele>
        <time>2020-08-08T09:13:26Z</time>
      </trkpt>
      <trkpt lat="41.3236121926" lon="-5.7643446140">
        <ele>820.14</ele>
        <time>2020-08-08T09:13:32Z</time>
      </trkpt>
      <trkpt lat="41.3238475565" lon="-5.7643916365">
        <ele>819.18</ele>
        <time>2020-08-08T09:13:40Z</time>
      </trkpt>
      <trkpt lat="41.3239705190" lon="-5.7643752918">
        <ele>818.70</ele>
        <time>2020-08-08T09:13:46Z</time>
      </trkpt>
      <trkpt lat="41.3241619617" lon="-5.7643462066">
        <ele>818.22</ele>
        <time>2020-08-08T09:13:54Z</time>
      </trkpt>
      <trkpt lat="41.3243969902" lon="-5.7643462066">
        <ele>817.26</ele>
        <time>2020-08-08T09:14:03Z</time>
      </trkpt>
      <trkpt lat="41.3246135786" lon="-5.7643561810">
        <ele>815.82</ele>
        <time>2020-08-08T09:14:12Z</time>
      </trkpt>
      <trkpt lat="41.3246250618" lon="-5.7643553428">
        <ele>815.82</ele>
        <time>2020-08-08T09:14:13Z</time>
      </trkpt>
      <trkpt lat="41.3246406522" lon="-5.7643552590">
        <ele>815.82</ele>
        <time>2020-08-08T09:14:14Z</time>
      </trkpt>
      <trkpt lat="41.3247611839" lon="-5.7643510681">
        <ele>815.34</ele>
        <time>2020-08-08T09:14:20Z</time>
      </trkpt>
      <trkpt lat="41.3249353599" lon="-5.7643718552">
        <ele>813.41</ele>
        <time>2020-08-08T09:14:27Z</time>
      </trkpt>
      <trkpt lat="41.3250890840" lon="-5.7643793989">
        <ele>812.45</ele>
        <time>2020-08-08T09:14:33Z</time>
      </trkpt>
      <trkpt lat="41.3251487631" lon="-5.7644046284">
        <ele>811.49</ele>
        <time>2020-08-08T09:14:38Z</time>
      </trkpt>
      <trkpt lat="41.3251558878" lon="-5.7644086517">
        <ele>810.05</ele>
        <time>2020-08-08T09:14:49Z</time>
      </trkpt>
      <trkpt lat="41.3251713105" lon="-5.7644147705">
        <ele>810.05</ele>
        <time>2020-08-08T09:14:50Z</time>
      </trkpt>
      <trkpt lat="41.3251920138" lon="-5.7644213084">
        <ele>810.05</ele>
        <time>2020-08-08T09:14:51Z</time>
      </trkpt>
      <trkpt lat="41.3252909202" lon="-5.7644578535">
        <ele>809.57</ele>
        <time>2020-08-08T09:14:58Z</time>
      </trkpt>
      <trkpt lat="41.3253578078" lon="-5.7644553389">
        <ele>809.57</ele>
        <time>2020-08-08T09:15:04Z</time>
      </trkpt>
      <trkpt lat="41.3254704606" lon="-5.7644915488">
        <ele>809.09</ele>
        <time>2020-08-08T09:15:11Z</time>
      </trkpt>
      <trkpt lat="41.3256834447" lon="-5.7645347156">
        <ele>808.61</ele>
        <time>2020-08-08T09:15:17Z</time>
      </trkpt>
      <trkpt lat="41.3259093370" lon="-5.7645731047">
        <ele>807.64</ele>
        <time>2020-08-08T09:15:24Z</time>
      </trkpt>
      <trkpt lat="41.3261058927" lon="-5.7646129187">
        <ele>807.16</ele>
        <time>2020-08-08T09:15:30Z</time>
      </trkpt>
      <trkpt lat="41.3262170367" lon="-5.7646471169">
        <ele>806.68</ele>
        <time>2020-08-08T09:15:33Z</time>
      </trkpt>
      <trkpt lat="41.3264552504" lon="-5.7647145074">
        <ele>805.72</ele>
        <time>2020-08-08T09:15:40Z</time>
      </trkpt>
      <trkpt lat="41.3266021851" lon="-5.7646865956">
        <ele>805.24</ele>
        <time>2020-08-08T09:15:46Z</time>
      </trkpt>
      <trkpt lat="41.3267473597" lon="-5.7647199556">
        <ele>805.24</ele>
        <time>2020-08-08T09:15:52Z</time>
      </trkpt>
      <trkpt lat="41.3269130699" lon="-5.7647405751">
        <ele>805.24</ele>
        <time>2020-08-08T09:15:58Z</time>
      </trkpt>
      <trkpt lat="41.3270000741" lon="-5.7646803092">
        <ele>804.28</ele>
        <time>2020-08-08T09:16:04Z</time>
      </trkpt>
      <trkpt lat="41.3270367868" lon="-5.7646653894">
        <ele>803.32</ele>
        <time>2020-08-08T09:16:11Z</time>
      </trkpt>
      <trkpt lat="41.3271260541" lon="-5.7646384835">
        <ele>802.84</ele>
        <time>2020-08-08T09:16:17Z</time>
      </trkpt>
      <trkpt lat="41.3272128906" lon="-5.7646060456">
        <ele>803.80</ele>
        <time>2020-08-08T09:16:21Z</time>
      </trkpt>
      <trkpt lat="41.3273807801" lon="-5.7646161038">
        <ele>803.80</ele>
        <time>2020-08-08T09:16:28Z</time>
      </trkpt>
      <trkpt lat="41.3276039902" lon="-5.7646404952">
        <ele>804.76</ele>
        <time>2020-08-08T09:16:37Z</time>
      </trkpt>
      <trkpt lat="41.3278204110" lon="-5.7646415848">
        <ele>805.72</ele>
        <time>2020-08-08T09:16:45Z</time>
      </trkpt>
      <trkpt lat="41.3280716166" lon="-5.7647440117">
        <ele>804.76</ele>
        <time>2020-08-08T09:16:54Z</time>
      </trkpt>
      <trkpt lat="41.3283462916" lon="-5.7649071235">
        <ele>803.32</ele>
        <time>2020-08-08T09:17:02Z</time>
      </trkpt>
      <trkpt lat="41.3286779635" lon="-5.7651620172">
        <ele>802.36</ele>
        <time>2020-08-08T09:17:11Z</time>
      </trkpt>
      <trkpt lat="41.3287839945" lon="-5.7652538829">
        <ele>802.36</ele>
        <time>2020-08-08T09:17:14Z</time>
      </trkpt>
      <trkpt lat="41.3288164325" lon="-5.7652960438">
        <ele>801.88</ele>
        <time>2020-08-08T09:17:15Z</time>
      </trkpt>
      <trkpt lat="41.3288459368" lon="-5.7653320860">
        <ele>801.88</ele>
        <time>2020-08-08T09:17:16Z</time>
      </trkpt>
      <trkpt lat="41.3288791291" lon="-5.7653589081">
        <ele>801.88</ele>
        <time>2020-08-08T09:17:17Z</time>
      </trkpt>
      <trkpt lat="41.3289122377" lon="-5.7653824612">
        <ele>801.88</ele>
        <time>2020-08-08T09:17:18Z</time>
      </trkpt>
      <trkpt lat="41.3291347772" lon="-5.7655850518">
        <ele>801.40</ele>
        <time>2020-08-08T09:17:26Z</time>
      </trkpt>
      <trkpt lat="41.3293330930" lon="-5.7657632511">
        <ele>800.92</ele>
        <time>2020-08-08T09:17:32Z</time>
      </trkpt>
      <trkpt lat="41.3293688837" lon="-5.7657821942">
        <ele>800.92</ele>
        <time>2020-08-08T09:17:33Z</time>
      </trkpt>
      <trkpt lat="41.3294024952" lon="-5.7658094354">
        <ele>800.92</ele>
        <time>2020-08-08T09:17:34Z</time>
      </trkpt>
      <trkpt lat="41.3294329215" lon="-5.7658443041">
        <ele>800.92</ele>
        <time>2020-08-08T09:17:35Z</time>
      </trkpt>
      <trkpt lat="41.3294617552" lon="-5.7658810169">
        <ele>800.44</ele>
        <time>2020-08-08T09:17:36Z</time>
      </trkpt>
      <trkpt lat="41.3294885773" lon="-5.7659196574">
        <ele>800.92</ele>
        <time>2020-08-08T09:17:37Z</time>
      </trkpt>
      <trkpt lat="41.3295861427" lon="-5.7661081664">
        <ele>800.92</ele>
        <time>2020-08-08T09:17:42Z</time>
      </trkpt>
      <trkpt lat="41.3297941815" lon="-5.7663048897">
        <ele>801.88</ele>
        <time>2020-08-08T09:17:51Z</time>
      </trkpt>
      <trkpt lat="41.3299755659" lon="-5.7664537523">
        <ele>800.44</ele>
        <time>2020-08-08T09:17:58Z</time>
      </trkpt>
      <trkpt lat="41.3302220777" lon="-5.7666799799">
        <ele>798.51</ele>
        <time>2020-08-08T09:18:06Z</time>
      </trkpt>
      <trkpt lat="41.3303009514" lon="-5.7667311933">
        <ele>798.03</ele>
        <time>2020-08-08T09:18:08Z</time>
      </trkpt>
      <trkpt lat="41.3306674920" lon="-5.7669316884">
        <ele>797.55</ele>
        <time>2020-08-08T09:18:17Z</time>
      </trkpt>
      <trkpt lat="41.3309844118" lon="-5.7671925332">
        <ele>797.07</ele>
        <time>2020-08-08T09:18:27Z</time>
      </trkpt>
      <trkpt lat="41.3311873376" lon="-5.7673308346">
        <ele>797.07</ele>
        <time>2020-08-08T09:18:35Z</time>
      </trkpt>
      <trkpt lat="41.3313634414" lon="-5.7674220297">
        <ele>797.07</ele>
        <time>2020-08-08T09:18:43Z</time>
      </trkpt>
      <trkpt lat="41.3314916007" lon="-5.7675392926">
        <ele>797.07</ele>
        <time>2020-08-08T09:18:50Z</time>
      </trkpt>
      <trkpt lat="41.3316364400" lon="-5.7676759176">
        <ele>797.07</ele>
        <time>2020-08-08T09:18:57Z</time>
      </trkpt>
      <trkpt lat="41.3318405394" lon="-5.7678289711">
        <ele>796.59</ele>
        <time>2020-08-08T09:19:05Z</time>
      </trkpt>
      <trkpt lat="41.3321333192" lon="-5.7680101879">
        <ele>797.55</ele>
        <time>2020-08-08T09:19:16Z</time>
      </trkpt>
      <trkpt lat="41.3323053997" lon="-5.7680930849">
        <ele>797.07</ele>
        <time>2020-08-08T09:19:22Z</time>
      </trkpt>
      <trkpt lat="41.3326794002" lon="-5.7682609744">
        <ele>795.63</ele>
        <time>2020-08-08T09:19:32Z</time>
      </trkpt>
      <trkpt lat="41.3330309372" lon="-5.7684098370">
        <ele>794.67</ele>
        <time>2020-08-08T09:19:41Z</time>
      </trkpt>
      <trkpt lat="41.3332668878" lon="-5.7684975956">
        <ele>794.67</ele>
        <time>2020-08-08T09:19:48Z</time>
      </trkpt>
      <trkpt lat="41.3334751781" lon="-5.7685647346">
        <ele>794.67</ele>
        <time>2020-08-08T09:19:55Z</time>
      </trkpt>
      <trkpt lat="41.3337125536" lon="-5.7686551753">
        <ele>794.67</ele>
        <time>2020-08-08T09:20:03Z</time>
      </trkpt>
      <trkpt lat="41.3339671120" lon="-5.7687250804">
        <ele>794.19</ele>
        <time>2020-08-08T09:20:11Z</time>
      </trkpt>
      <trkpt lat="41.3342826907" lon="-5.7687878609">
        <ele>794.19</ele>
        <time>2020-08-08T09:20:21Z</time>
      </trkpt>
      <trkpt lat="41.3345813379" lon="-5.7688632980">
        <ele>793.71</ele>
        <time>2020-08-08T09:20:31Z</time>
      </trkpt>
      <trkpt lat="41.3348562643" lon="-5.7689578459">
        <ele>793.71</ele>
        <time>2020-08-08T09:20:40Z</time>
      </trkpt>
      <trkpt lat="41.3351422548" lon="-5.7690404914">
        <ele>793.22</ele>
        <time>2020-08-08T09:20:49Z</time>
      </trkpt>
      <trkpt lat="41.3354756869" lon="-5.7691560779">
        <ele>792.74</ele>
        <time>2020-08-08T09:21:00Z</time>
      </trkpt>
      <trkpt lat="41.3356667943" lon="-5.7692509610">
        <ele>793.22</ele>
        <time>2020-08-08T09:21:08Z</time>
      </trkpt>
      <trkpt lat="41.3359081093" lon="-5.7693943754">
        <ele>793.22</ele>
        <time>2020-08-08T09:21:17Z</time>
      </trkpt>
      <trkpt lat="41.3361225184" lon="-5.7695570681">
        <ele>793.22</ele>
        <time>2020-08-08T09:21:26Z</time>
      </trkpt>
      <trkpt lat="41.3361614943" lon="-5.7695956249">
        <ele>793.22</ele>
        <time>2020-08-08T09:21:31Z</time>
      </trkpt>
      <trkpt lat="41.3361568004" lon="-5.7695904281">
        <ele>793.71</ele>
        <time>2020-08-08T09:21:40Z</time>
      </trkpt>
      <trkpt lat="41.3361563813" lon="-5.7696051802">
        <ele>795.15</ele>
        <time>2020-08-08T09:21:56Z</time>
      </trkpt>
      <trkpt lat="41.3361541182" lon="-5.7696069404">
        <ele>795.15</ele>
        <time>2020-08-08T09:22:22Z</time>
      </trkpt>
      <trkpt lat="41.3361586444" lon="-5.7696008217">
        <ele>794.19</ele>
        <time>2020-08-08T09:22:34Z</time>
      </trkpt>
      <trkpt lat="41.3362145517" lon="-5.7696425635">
        <ele>793.71</ele>
        <time>2020-08-08T09:22:39Z</time>
      </trkpt>
      <trkpt lat="41.3364165556" lon="-5.7697508577">
        <ele>794.19</ele>
        <time>2020-08-08T09:22:47Z</time>
      </trkpt>
      <trkpt lat="41.3365992811" lon="-5.7698465791">
        <ele>794.67</ele>
        <time>2020-08-08T09:22:54Z</time>
      </trkpt>
      <trkpt lat="41.3369344734" lon="-5.7700472418">
        <ele>795.15</ele>
        <time>2020-08-08T09:23:05Z</time>
      </trkpt>
      <trkpt lat="41.3372451067" lon="-5.7702687755">
        <ele>794.67</ele>
        <time>2020-08-08T09:23:15Z</time>
      </trkpt>
      <trkpt lat="41.3375210389" lon="-5.7704736292">
        <ele>793.22</ele>
        <time>2020-08-08T09:23:24Z</time>
      </trkpt>
      <trkpt lat="41.3377229590" lon="-5.7706603780">
        <ele>791.78</ele>
        <time>2020-08-08T09:23:34Z</time>
      </trkpt>
      <trkpt lat="41.3377354480" lon="-5.7706599589">
        <ele>791.30</ele>
        <time>2020-08-08T09:23:41Z</time>
      </trkpt>
      <trkpt lat="41.3377287425" lon="-5.7706706040">
        <ele>791.30</ele>
        <time>2020-08-08T09:23:56Z</time>
      </trkpt>
      <trkpt lat="41.3377282396" lon="-5.7706721127">
        <ele>791.78</ele>
        <time>2020-08-08T09:24:17Z</time>
      </trkpt>
      <trkpt lat="41.3377290778" lon="-5.7706722803">
        <ele>791.78</ele>
        <time>2020-08-08T09:24:33Z</time>
      </trkpt>
      <trkpt lat="41.3377407286" lon="-5.7706734538">
        <ele>790.82</ele>
        <time>2020-08-08T09:24:54Z</time>
      </trkpt>
      <trkpt lat="41.3377435785" lon="-5.7706746273">
        <ele>789.86</ele>
        <time>2020-08-08T09:25:22Z</time>
      </trkpt>
      <trkpt lat="41.3377320115" lon="-5.7706706040">
        <ele>788.90</ele>
        <time>2020-08-08T09:25:43Z</time>
      </trkpt>
      <trkpt lat="41.3377372921" lon="-5.7706649881">
        <ele>790.34</ele>
        <time>2020-08-08T09:26:05Z</time>
      </trkpt>
      <trkpt lat="41.3377291616" lon="-5.7706707716">
        <ele>790.34</ele>
        <time>2020-08-08T09:26:22Z</time>
      </trkpt>
      <trkpt lat="41.3377423212" lon="-5.7706907205">
        <ele>790.34</ele>
        <time>2020-08-08T09:26:29Z</time>
      </trkpt>
      <trkpt lat="41.3377462607" lon="-5.7706997730">
        <ele>790.34</ele>
        <time>2020-08-08T09:26:37Z</time>
      </trkpt>
      <trkpt lat="41.3377547264" lon="-5.7707089931">
        <ele>790.34</ele>
        <time>2020-08-08T09:26:42Z</time>
      </trkpt>
      <trkpt lat="41.3377648685" lon="-5.7707179617">
        <ele>790.34</ele>
        <time>2020-08-08T09:26:43Z</time>
      </trkpt>
      <trkpt lat="41.3377763517" lon="-5.7707264274">
        <ele>790.34</ele>
        <time>2020-08-08T09:26:44Z</time>
      </trkpt>
      <trkpt lat="41.3377891760" lon="-5.7707351446">
        <ele>790.34</ele>
        <time>2020-08-08T09:26:45Z</time>
      </trkpt>
      <trkpt lat="41.3377999887" lon="-5.7707437780">
        <ele>789.86</ele>
        <time>2020-08-08T09:26:46Z</time>
      </trkpt>
      <trkpt lat="41.3379700575" lon="-5.7708587777">
        <ele>789.86</ele>
        <time>2020-08-08T09:26:56Z</time>
      </trkpt>
      <trkpt lat="41.3381566387" lon="-5.7709684130">
        <ele>789.86</ele>
        <time>2020-08-08T09:27:04Z</time>
      </trkpt>
      <trkpt lat="41.3384199981" lon="-5.7711549103">
        <ele>789.86</ele>
        <time>2020-08-08T09:27:14Z</time>
      </trkpt>
      <trkpt lat="41.3387251832" lon="-5.7712975703">
        <ele>789.86</ele>
        <time>2020-08-08T09:27:24Z</time>
      </trkpt>
      <trkpt lat="41.3389573619" lon="-5.7714031823">
        <ele>790.34</ele>
        <time>2020-08-08T09:27:32Z</time>
      </trkpt>
      <trkpt lat="41.3392177038" lon="-5.7715160027">
        <ele>792.26</ele>
        <time>2020-08-08T09:27:42Z</time>
      </trkpt>
      <trkpt lat="41.3394942228" lon="-5.7715932839">
        <ele>793.71</ele>
        <time>2020-08-08T09:27:52Z</time>
      </trkpt>
      <trkpt lat="41.3398155849" lon="-5.7716186810">
        <ele>794.19</ele>
        <time>2020-08-08T09:28:02Z</time>
      </trkpt>
      <trkpt lat="41.3400815427" lon="-5.7716051023">
        <ele>794.19</ele>
        <time>2020-08-08T09:28:10Z</time>
      </trkpt>
      <trkpt lat="41.3404903281" lon="-5.7715356164">
        <ele>793.71</ele>
        <time>2020-08-08T09:28:22Z</time>
      </trkpt>
      <trkpt lat="41.3409032207" lon="-5.7714061160">
        <ele>793.22</ele>
        <time>2020-08-08T09:28:34Z</time>
      </trkpt>
      <trkpt lat="41.3412880339" lon="-5.7713849936">
        <ele>794.19</ele>
        <time>2020-08-08T09:28:45Z</time>
      </trkpt>
      <trkpt lat="41.3415712584" lon="-5.7713960577">
        <ele>795.15</ele>
        <time>2020-08-08T09:28:54Z</time>
      </trkpt>
      <trkpt lat="41.3419149164" lon="-5.7714507915">
        <ele>796.11</ele>
        <time>2020-08-08T09:29:06Z</time>
      </trkpt>
      <trkpt lat="41.3421818800" lon="-5.7715040166">
        <ele>797.07</ele>
        <time>2020-08-08T09:29:16Z</time>
      </trkpt>
      <trkpt lat="41.3424168248" lon="-5.7715233788">
        <ele>797.55</ele>
        <time>2020-08-08T09:29:24Z</time>
      </trkpt>
      <trkpt lat="41.3427633327" lon="-5.7715268992">
        <ele>798.51</ele>
        <time>2020-08-08T09:29:35Z</time>
      </trkpt>
      <trkpt lat="41.3431469724" lon="-5.7714699861">
        <ele>798.99</ele>
        <time>2020-08-08T09:29:47Z</time>
      </trkpt>
      <trkpt lat="41.3434520736" lon="-5.7713809703">
        <ele>798.99</ele>
        <time>2020-08-08T09:29:57Z</time>
      </trkpt>
      <trkpt lat="41.3437391538" lon="-5.7712753583">
        <ele>799.47</ele>
        <time>2020-08-08T09:30:06Z</time>
      </trkpt>
      <trkpt lat="41.3441055268" lon="-5.7711169403">
        <ele>799.95</ele>
        <time>2020-08-08T09:30:17Z</time>
      </trkpt>
      <trkpt lat="41.3444771804" lon="-5.7709192112">
        <ele>799.47</ele>
        <time>2020-08-08T09:30:28Z</time>
      </trkpt>
      <trkpt lat="41.3448231015" lon="-5.7707058918">
        <ele>799.47</ele>
        <time>2020-08-08T09:30:38Z</time>
      </trkpt>
      <trkpt lat="41.3450374268" lon="-5.7705872040">
        <ele>798.99</ele>
        <time>2020-08-08T09:30:45Z</time>
      </trkpt>
      <trkpt lat="41.3452256843" lon="-5.7704714499">
        <ele>797.55</ele>
        <time>2020-08-08T09:30:52Z</time>
      </trkpt>
      <trkpt lat="41.3454891276" lon="-5.7703359146">
        <ele>795.63</ele>
        <time>2020-08-08T09:30:59Z</time>
      </trkpt>
      <trkpt lat="41.3456689194" lon="-5.7702681888">
        <ele>794.67</ele>
        <time>2020-08-08T09:31:03Z</time>
      </trkpt>
      <trkpt lat="41.3457129244" lon="-5.7702552807">
        <ele>794.19</ele>
        <time>2020-08-08T09:31:04Z</time>
      </trkpt>
      <trkpt lat="41.3457603659" lon="-5.7702354994">
        <ele>793.71</ele>
        <time>2020-08-08T09:31:05Z</time>
      </trkpt>
      <trkpt lat="41.3461627811" lon="-5.7700749021">
        <ele>792.26</ele>
        <time>2020-08-08T09:31:14Z</time>
      </trkpt>
      <trkpt lat="41.3466387894" lon="-5.7699558791">
        <ele>789.86</ele>
        <time>2020-08-08T09:31:23Z</time>
      </trkpt>
      <trkpt lat="41.3470575493" lon="-5.7698217686">
        <ele>786.98</ele>
        <time>2020-08-08T09:31:31Z</time>
      </trkpt>
      <trkpt lat="41.3473905623" lon="-5.7697179168">
        <ele>785.05</ele>
        <time>2020-08-08T09:31:38Z</time>
      </trkpt>
      <trkpt lat="41.3476813305" lon="-5.7696301583">
        <ele>784.09</ele>
        <time>2020-08-08T09:31:45Z</time>
      </trkpt>
      <trkpt lat="41.3480409142" lon="-5.7695505302">
        <ele>784.09</ele>
        <time>2020-08-08T09:31:55Z</time>
      </trkpt>
      <trkpt lat="41.3483653776" lon="-5.7695280667">
        <ele>783.61</ele>
        <time>2020-08-08T09:32:04Z</time>
      </trkpt>
      <trkpt lat="41.3486439921" lon="-5.7695102133">
        <ele>781.69</ele>
        <time>2020-08-08T09:32:12Z</time>
      </trkpt>
      <trkpt lat="41.3488940243" lon="-5.7694953773">
        <ele>779.77</ele>
        <time>2020-08-08T09:32:19Z</time>
      </trkpt>
      <trkpt lat="41.3491866365" lon="-5.7694403082">
        <ele>777.84</ele>
        <time>2020-08-08T09:32:27Z</time>
      </trkpt>
      <trkpt lat="41.3495375868" lon="-5.7693947107">
        <ele>775.44</ele>
        <time>2020-08-08T09:32:36Z</time>
      </trkpt>
      <trkpt lat="41.3497754652" lon="-5.7693706546">
        <ele>773.52</ele>
        <time>2020-08-08T09:32:43Z</time>
      </trkpt>
      <trkpt lat="41.3500664011" lon="-5.7693545613">
        <ele>771.60</ele>
        <time>2020-08-08T09:32:51Z</time>
      </trkpt>
      <trkpt lat="41.3504276611" lon="-5.7693067845">
        <ele>770.15</ele>
        <time>2020-08-08T09:32:59Z</time>
      </trkpt>
      <trkpt lat="41.3508818764" lon="-5.7692447584">
        <ele>768.23</ele>
        <time>2020-08-08T09:33:08Z</time>
      </trkpt>
      <trkpt lat="41.3511497620" lon="-5.7692119014">
        <ele>766.79</ele>
        <time>2020-08-08T09:33:15Z</time>
      </trkpt>
      <trkpt lat="41.3513220940" lon="-5.7691987418">
        <ele>766.79</ele>
        <time>2020-08-08T09:33:23Z</time>
      </trkpt>
      <trkpt lat="41.3514088467" lon="-5.7692131586">
        <ele>765.83</ele>
        <time>2020-08-08T09:33:31Z</time>
      </trkpt>
      <trkpt lat="41.3513978664" lon="-5.7692440879">
        <ele>766.31</ele>
        <time>2020-08-08T09:33:34Z</time>
      </trkpt>
      <trkpt lat="41.3513940107" lon="-5.7692562416">
        <ele>766.31</ele>
        <time>2020-08-08T09:33:35Z</time>
      </trkpt>
      <trkpt lat="41.3513935078" lon="-5.7692723349">
        <ele>766.79</ele>
        <time>2020-08-08T09:33:42Z</time>
      </trkpt>
      <trkpt lat="41.3514024764" lon="-5.7692731731">
        <ele>766.79</ele>
        <time>2020-08-08T09:33:44Z</time>
      </trkpt>
      <trkpt lat="41.3514160551" lon="-5.7692678086">
        <ele>766.79</ele>
        <time>2020-08-08T09:33:45Z</time>
      </trkpt>
      <trkpt lat="41.3514329027" lon="-5.7692603488">
        <ele>766.79</ele>
        <time>2020-08-08T09:33:46Z</time>
      </trkpt>
      <trkpt lat="41.3514491636" lon="-5.7692474406">
        <ele>767.27</ele>
        <time>2020-08-08T09:33:47Z</time>
      </trkpt>
      <trkpt lat="41.3514666818" lon="-5.7692375500">
        <ele>766.79</ele>
        <time>2020-08-08T09:33:48Z</time>
      </trkpt>
      <trkpt lat="41.3514819369" lon="-5.7692364603">
        <ele>766.79</ele>
        <time>2020-08-08T09:33:49Z</time>
      </trkpt>
      <trkpt lat="41.3514959347" lon="-5.7692366280">
        <ele>766.79</ele>
        <time>2020-08-08T09:33:50Z</time>
      </trkpt>
      <trkpt lat="41.3515101839" lon="-5.7692382205">
        <ele>766.31</ele>
        <time>2020-08-08T09:33:51Z</time>
      </trkpt>
      <trkpt lat="41.3515194040" lon="-5.7692350354">
        <ele>766.79</ele>
        <time>2020-08-08T09:33:56Z</time>
      </trkpt>
      <trkpt lat="41.3515442144" lon="-5.7692314312">
        <ele>767.27</ele>
        <time>2020-08-08T09:34:03Z</time>
      </trkpt>
      <trkpt lat="41.3515825197" lon="-5.7692475244">
        <ele>767.27</ele>
        <time>2020-08-08T09:34:14Z</time>
      </trkpt>
      <trkpt lat="41.3516051508" lon="-5.7692277431">
        <ele>767.27</ele>
        <time>2020-08-08T09:34:17Z</time>
      </trkpt>
      <trkpt lat="41.3516164664" lon="-5.7692290843">
        <ele>767.75</ele>
        <time>2020-08-08T09:34:24Z</time>
      </trkpt>
      <trkpt lat="41.3516276143" lon="-5.7692153379">
        <ele>766.31</ele>
        <time>2020-08-08T09:34:44Z</time>
      </trkpt>
      <trkpt lat="41.3516286202" lon="-5.7692157570">
        <ele>767.75</ele>
        <time>2020-08-08T09:35:06Z</time>
      </trkpt>
      <trkpt lat="41.3516354933" lon="-5.7692085486">
        <ele>768.23</ele>
        <time>2020-08-08T09:35:31Z</time>
      </trkpt>
      <trkpt lat="41.3516345713" lon="-5.7692006696">
        <ele>767.75</ele>
        <time>2020-08-08T09:35:53Z</time>
      </trkpt>
      <trkpt lat="41.3516302966" lon="-5.7692071237">
        <ele>768.23</ele>
        <time>2020-08-08T09:36:13Z</time>
      </trkpt>
      <trkpt lat="41.3516260218" lon="-5.7692156732">
        <ele>768.23</ele>
        <time>2020-08-08T09:36:33Z</time>
      </trkpt>
      <trkpt lat="41.3516250998" lon="-5.7692142483">
        <ele>768.71</ele>
        <time>2020-08-08T09:36:55Z</time>
      </trkpt>
      <trkpt lat="41.3516230043" lon="-5.7692158408">
        <ele>769.19</ele>
        <time>2020-08-08T09:37:15Z</time>
      </trkpt>
      <trkpt lat="41.3516207412" lon="-5.7692162599">
        <ele>768.71</ele>
        <time>2020-08-08T09:37:40Z</time>
      </trkpt>
      <trkpt lat="41.3516222499" lon="-5.7692151703">
        <ele>768.71</ele>
        <time>2020-08-08T09:38:11Z</time>
      </trkpt>
      <trkpt lat="41.3516269438" lon="-5.7692161761">
        <ele>769.19</ele>
        <time>2020-08-08T09:38:40Z</time>
      </trkpt>
      <trkpt lat="41.3516284525" lon="-5.7692133263">
        <ele>769.19</ele>
        <time>2020-08-08T09:39:07Z</time>
      </trkpt>
      <trkpt lat="41.3516290393" lon="-5.7692127395">
        <ele>769.19</ele>
        <time>2020-08-08T09:39:29Z</time>
      </trkpt>
      <trkpt lat="41.3516337331" lon="-5.7692161761">
        <ele>769.67</ele>
        <time>2020-08-08T09:39:59Z</time>
      </trkpt>
      <trkpt lat="41.3516345713" lon="-5.7692144159">
        <ele>769.67</ele>
        <time>2020-08-08T09:40:20Z</time>
      </trkpt>
      <trkpt lat="41.3516391814" lon="-5.7692139968">
        <ele>769.19</ele>
        <time>2020-08-08T09:40:36Z</time>
      </trkpt>
      <trkpt lat="41.3516370021" lon="-5.7692129910">
        <ele>769.19</ele>
        <time>2020-08-08T09:41:03Z</time>
      </trkpt>
      <trkpt lat="41.3516320568" lon="-5.7692121528">
        <ele>769.67</ele>
        <time>2020-08-08T09:41:34Z</time>
      </trkpt>
      <trkpt lat="41.3516323082" lon="-5.7692116499">
        <ele>770.15</ele>
        <time>2020-08-08T09:41:55Z</time>
      </trkpt>
      <trkpt lat="41.3516355772" lon="-5.7692024298">
        <ele>769.19</ele>
        <time>2020-08-08T09:42:13Z</time>
      </trkpt>
      <trkpt lat="41.3516375888" lon="-5.7692018431">
        <ele>769.67</ele>
        <time>2020-08-08T09:42:31Z</time>
      </trkpt>
      <trkpt lat="41.3516368344" lon="-5.7692036033">
        <ele>770.15</ele>
        <time>2020-08-08T09:42:51Z</time>
      </trkpt>
      <trkpt lat="41.3516401034" lon="-5.7691992447">
        <ele>769.19</ele>
        <time>2020-08-08T09:43:11Z</time>
      </trkpt>
      <trkpt lat="41.3516384270" lon="-5.7692010887">
        <ele>769.19</ele>
        <time>2020-08-08T09:43:28Z</time>
      </trkpt>
      <trkpt lat="41.3516389299" lon="-5.7692045253">
        <ele>769.67</ele>
        <time>2020-08-08T09:43:52Z</time>
      </trkpt>
      <trkpt lat="41.3516395167" lon="-5.7692015916">
        <ele>769.67</ele>
        <time>2020-08-08T09:44:15Z</time>
      </trkpt>
      <trkpt lat="41.3516366668" lon="-5.7692054473">
        <ele>770.15</ele>
        <time>2020-08-08T09:44:36Z</time>
      </trkpt>
      <trkpt lat="41.3516377565" lon="-5.7692068722">
        <ele>770.15</ele>
        <time>2020-08-08T09:44:54Z</time>
      </trkpt>
      <trkpt lat="41.3516377565" lon="-5.7692063693">
        <ele>770.15</ele>
        <time>2020-08-08T09:45:11Z</time>
      </trkpt>
      <trkpt lat="41.3516356610" lon="-5.7692082133">
        <ele>770.15</ele>
        <time>2020-08-08T09:45:32Z</time>
      </trkpt>
      <trkpt lat="41.3516341522" lon="-5.7692032680">
        <ele>769.67</ele>
        <time>2020-08-08T09:45:55Z</time>
      </trkpt>
      <trkpt lat="41.3516359963" lon="-5.7692009211">
        <ele>769.19</ele>
        <time>2020-08-08T09:46:17Z</time>
      </trkpt>
      <trkpt lat="41.3516382594" lon="-5.7692027651">
        <ele>769.19</ele>
        <time>2020-08-08T09:46:35Z</time>
      </trkpt>
      <trkpt lat="41.3516406901" lon="-5.7691992447">
        <ele>769.19</ele>
        <time>2020-08-08T09:46:58Z</time>
      </trkpt>
      <trkpt lat="41.3516414445" lon="-5.7692015078">
        <ele>769.19</ele>
        <time>2020-08-08T09:47:19Z</time>
      </trkpt>
      <trkpt lat="41.3516380079" lon="-5.7692044415">
        <ele>768.71</ele>
        <time>2020-08-08T09:47:35Z</time>
      </trkpt>
      <trkpt lat="41.3516376726" lon="-5.7692056987">
        <ele>768.71</ele>
        <time>2020-08-08T09:47:54Z</time>
      </trkpt>
      <trkpt lat="41.3516330626" lon="-5.7692105602">
        <ele>769.19</ele>
        <time>2020-08-08T09:48:12Z</time>
      </trkpt>
      <trkpt lat="41.3516271953" lon="-5.7692160923">
        <ele>769.67</ele>
        <time>2020-08-08T09:48:26Z</time>
      </trkpt>
      <trkpt lat="41.3516408578" lon="-5.7692174334">
        <ele>769.67</ele>
        <time>2020-08-08T09:48:33Z</time>
      </trkpt>
      <trkpt lat="41.3516538497" lon="-5.7692243904">
        <ele>769.67</ele>
        <time>2020-08-08T09:48:34Z</time>
      </trkpt>
      <trkpt lat="41.3518218230" lon="-5.7692968938">
        <ele>769.67</ele>
        <time>2020-08-08T09:48:42Z</time>
      </trkpt>
      <trkpt lat="41.3520425186" lon="-5.7693060301">
        <ele>768.71</ele>
        <time>2020-08-08T09:48:49Z</time>
      </trkpt>
      <trkpt lat="41.3523686584" lon="-5.7693891786">
        <ele>768.23</ele>
        <time>2020-08-08T09:48:58Z</time>
      </trkpt>
      <trkpt lat="41.3526719995" lon="-5.7695099618">
        <ele>767.27</ele>
        <time>2020-08-08T09:49:06Z</time>
      </trkpt>
      <trkpt lat="41.3527100533" lon="-5.7695228700">
        <ele>767.27</ele>
        <time>2020-08-08T09:49:07Z</time>
      </trkpt>
      <trkpt lat="41.3529569842" lon="-5.7696154900">
        <ele>767.27</ele>
        <time>2020-08-08T09:49:15Z</time>
      </trkpt>
      <trkpt lat="41.3530799467" lon="-5.7696750853">
        <ele>767.27</ele>
        <time>2020-08-08T09:49:21Z</time>
      </trkpt>
      <trkpt lat="41.3533562142" lon="-5.7697948627">
        <ele>767.75</ele>
        <time>2020-08-08T09:49:32Z</time>
      </trkpt>
      <trkpt lat="41.3536057435" lon="-5.7698744070">
        <ele>767.27</ele>
        <time>2020-08-08T09:49:40Z</time>
      </trkpt>
      <trkpt lat="41.3538163807" lon="-5.7700198330">
        <ele>766.31</ele>
        <time>2020-08-08T09:49:48Z</time>
      </trkpt>
      <trkpt lat="41.3539488148" lon="-5.7702078391">
        <ele>765.83</ele>
        <time>2020-08-08T09:49:55Z</time>
      </trkpt>
      <trkpt lat="41.3539815042" lon="-5.7703667600">
        <ele>765.83</ele>
        <time>2020-08-08T09:50:01Z</time>
      </trkpt>
      <trkpt lat="41.3539949153" lon="-5.7704224158">
        <ele>765.35</ele>
        <time>2020-08-08T09:50:04Z</time>
      </trkpt>
      <trkpt lat="41.3540125173" lon="-5.7704426162">
        <ele>764.87</ele>
        <time>2020-08-08T09:50:05Z</time>
      </trkpt>
      <trkpt lat="41.3540376630" lon="-5.7704619784">
        <ele>764.87</ele>
        <time>2020-08-08T09:50:06Z</time>
      </trkpt>
      <trkpt lat="41.3540607132" lon="-5.7704743836">
        <ele>764.87</ele>
        <time>2020-08-08T09:50:07Z</time>
      </trkpt>
      <trkpt lat="41.3540847693" lon="-5.7704840228">
        <ele>764.87</ele>
        <time>2020-08-08T09:50:08Z</time>
      </trkpt>
      <trkpt lat="41.3541106693" lon="-5.7704852801">
        <ele>764.39</ele>
        <time>2020-08-08T09:50:09Z</time>
      </trkpt>
      <trkpt lat="41.3541353121" lon="-5.7704799157">
        <ele>764.87</ele>
        <time>2020-08-08T09:50:10Z</time>
      </trkpt>
      <trkpt lat="41.3541619666" lon="-5.7704664208">
        <ele>764.87</ele>
        <time>2020-08-08T09:50:11Z</time>
      </trkpt>
      <trkpt lat="41.3541839272" lon="-5.7704465557">
        <ele>765.35</ele>
        <time>2020-08-08T09:50:12Z</time>
      </trkpt>
      <trkpt lat="41.3542069774" lon="-5.7704276964">
        <ele>765.35</ele>
        <time>2020-08-08T09:50:13Z</time>
      </trkpt>
      <trkpt lat="41.3542287704" lon="-5.7704136148">
        <ele>765.35</ele>
        <time>2020-08-08T09:50:14Z</time>
      </trkpt>
      <trkpt lat="41.3542528264" lon="-5.7703978568">
        <ele>765.35</ele>
        <time>2020-08-08T09:50:15Z</time>
      </trkpt>
      <trkpt lat="41.3542761281" lon="-5.7703826018">
        <ele>765.35</ele>
        <time>2020-08-08T09:50:16Z</time>
      </trkpt>
      <trkpt lat="41.3544103224" lon="-5.7702715416">
        <ele>764.39</ele>
        <time>2020-08-08T09:50:24Z</time>
      </trkpt>
      <trkpt lat="41.3544983324" lon="-5.7701826096">
        <ele>765.83</ele>
        <time>2020-08-08T09:50:32Z</time>
      </trkpt>
      <trkpt lat="41.3545186166" lon="-5.7701435499">
        <ele>765.83</ele>
        <time>2020-08-08T09:50:34Z</time>
      </trkpt>
      <trkpt lat="41.3545322791" lon="-5.7701374311">
        <ele>765.83</ele>
        <time>2020-08-08T09:50:35Z</time>
      </trkpt>
      <trkpt lat="41.3545461930" lon="-5.7701431308">
        <ele>765.83</ele>
        <time>2020-08-08T09:50:36Z</time>
      </trkpt>
      <trkpt lat="41.3545528147" lon="-5.7701564580">
        <ele>765.83</ele>
        <time>2020-08-08T09:50:37Z</time>
      </trkpt>
      <trkpt lat="41.3545517251" lon="-5.7701726351">
        <ele>765.83</ele>
        <time>2020-08-08T09:50:38Z</time>
      </trkpt>
      <trkpt lat="41.3545439299" lon="-5.7701829448">
        <ele>765.35</ele>
        <time>2020-08-08T09:50:39Z</time>
      </trkpt>
      <trkpt lat="41.3545282558" lon="-5.7701907400">
        <ele>765.35</ele>
        <time>2020-08-08T09:50:40Z</time>
      </trkpt>
      <trkpt lat="41.3545034453" lon="-5.7702028099">
        <ele>765.35</ele>
        <time>2020-08-08T09:50:41Z</time>
      </trkpt>
      <trkpt lat="41.3544743601" lon="-5.7702195738">
        <ele>765.35</ele>
        <time>2020-08-08T09:50:42Z</time>
      </trkpt>
      <trkpt lat="41.3543011900" lon="-5.7703512534">
        <ele>766.31</ele>
        <time>2020-08-08T09:50:49Z</time>
      </trkpt>
      <trkpt lat="41.3541788980" lon="-5.7704504952">
        <ele>766.79</ele>
        <time>2020-08-08T09:50:55Z</time>
      </trkpt>
      <trkpt lat="41.3541757967" lon="-5.7705099229">
        <ele>766.79</ele>
        <time>2020-08-08T09:50:58Z</time>
      </trkpt>
      <trkpt lat="41.3541785628" lon="-5.7705261000">
        <ele>766.31</ele>
        <time>2020-08-08T09:50:59Z</time>
      </trkpt>
      <trkpt lat="41.3541835081" lon="-5.7705473900">
        <ele>766.31</ele>
        <time>2020-08-08T09:51:00Z</time>
      </trkpt>
      <trkpt lat="41.3541968353" lon="-5.7705716137">
        <ele>765.83</ele>
        <time>2020-08-08T09:51:01Z</time>
      </trkpt>
      <trkpt lat="41.3542172872" lon="-5.7705930714">
        <ele>765.83</ele>
        <time>2020-08-08T09:51:02Z</time>
      </trkpt>
      <trkpt lat="41.3542441931" lon="-5.7706141099">
        <ele>765.83</ele>
        <time>2020-08-08T09:51:03Z</time>
      </trkpt>
      <trkpt lat="41.3542672433" lon="-5.7706297841">
        <ele>765.83</ele>
        <time>2020-08-08T09:51:04Z</time>
      </trkpt>
      <trkpt lat="41.3542969152" lon="-5.7706443686">
        <ele>765.83</ele>
        <time>2020-08-08T09:51:05Z</time>
      </trkpt>
      <trkpt lat="41.3543242402" lon="-5.7706565224">
        <ele>765.83</ele>
        <time>2020-08-08T09:51:06Z</time>
      </trkpt>
      <trkpt lat="41.3546048664" lon="-5.7707282715">
        <ele>766.79</ele>
        <time>2020-08-08T09:51:15Z</time>
      </trkpt>
      <trkpt lat="41.3549356163" lon="-5.7707661577">
        <ele>767.75</ele>
        <time>2020-08-08T09:51:25Z</time>
      </trkpt>
      <trkpt lat="41.3552858960" lon="-5.7707593683">
        <ele>768.23</ele>
        <time>2020-08-08T09:51:34Z</time>
      </trkpt>
      <trkpt lat="41.3554079365" lon="-5.7707390003">
        <ele>768.23</ele>
        <time>2020-08-08T09:51:37Z</time>
      </trkpt>
      <trkpt lat="41.3554469962" lon="-5.7707433589">
        <ele>767.75</ele>
        <time>2020-08-08T09:51:38Z</time>
      </trkpt>
      <trkpt lat="41.3556176517" lon="-5.7707678340">
        <ele>766.79</ele>
        <time>2020-08-08T09:51:42Z</time>
      </trkpt>
      <trkpt lat="41.3559409417" lon="-5.7708597835">
        <ele>766.31</ele>
        <time>2020-08-08T09:51:50Z</time>
      </trkpt>
      <trkpt lat="41.3560421951" lon="-5.7708642259">
        <ele>765.83</ele>
        <time>2020-08-08T09:51:55Z</time>
      </trkpt>
      <trkpt lat="41.3560668379" lon="-5.7708764635">
        <ele>765.35</ele>
        <time>2020-08-08T09:51:56Z</time>
      </trkpt>
      <trkpt lat="41.3563094940" lon="-5.7709952351">
        <ele>763.90</ele>
        <time>2020-08-08T09:52:03Z</time>
      </trkpt>
      <trkpt lat="41.3566629589" lon="-5.7711585145">
        <ele>761.98</ele>
        <time>2020-08-08T09:52:12Z</time>
      </trkpt>
      <trkpt lat="41.3569703232" lon="-5.7713179383">
        <ele>760.54</ele>
        <time>2020-08-08T09:52:21Z</time>
      </trkpt>
      <trkpt lat="41.3573081978" lon="-5.7715263125">
        <ele>759.10</ele>
        <time>2020-08-08T09:52:31Z</time>
      </trkpt>
      <trkpt lat="41.3576419652" lon="-5.7717413083">
        <ele>758.14</ele>
        <time>2020-08-08T09:52:40Z</time>
      </trkpt>
      <trkpt lat="41.3580439612" lon="-5.7718707249">
        <ele>757.66</ele>
        <time>2020-08-08T09:52:49Z</time>
      </trkpt>
      <trkpt lat="41.3585353922" lon="-5.7718458306">
        <ele>755.73</ele>
        <time>2020-08-08T09:52:59Z</time>
      </trkpt>
      <trkpt lat="41.3589788787" lon="-5.7718108781">
        <ele>754.29</ele>
        <time>2020-08-08T09:53:08Z</time>
      </trkpt>
      <trkpt lat="41.3594793621" lon="-5.7717741653">
        <ele>752.85</ele>
        <time>2020-08-08T09:53:18Z</time>
      </trkpt>
      <trkpt lat="41.3600475714" lon="-5.7717351057">
        <ele>751.41</ele>
        <time>2020-08-08T09:53:29Z</time>
      </trkpt>
      <trkpt lat="41.3607412577" lon="-5.7716842275">
        <ele>749.00</ele>
        <time>2020-08-08T09:53:42Z</time>
      </trkpt>
      <trkpt lat="41.3612389751" lon="-5.7716493588">
        <ele>747.08</ele>
        <time>2020-08-08T09:53:51Z</time>
      </trkpt>
      <trkpt lat="41.3617935218" lon="-5.7716053538">
        <ele>745.16</ele>
        <time>2020-08-08T09:54:00Z</time>
      </trkpt>
      <trkpt lat="41.3624748029" lon="-5.7715558168">
        <ele>742.28</ele>
        <time>2020-08-08T09:54:11Z</time>
      </trkpt>
      <trkpt lat="41.3630141784" lon="-5.7714949641">
        <ele>739.87</ele>
        <time>2020-08-08T09:54:20Z</time>
      </trkpt>
      <trkpt lat="41.3635587506" lon="-5.7714508753">
        <ele>737.47</ele>
        <time>2020-08-08T09:54:29Z</time>
      </trkpt>
      <trkpt lat="41.3641513512" lon="-5.7714281604">
        <ele>735.55</ele>
        <time>2020-08-08T09:54:39Z</time>
      </trkpt>
      <trkpt lat="41.3644665945" lon="-5.7713763602">
        <ele>735.07</ele>
        <time>2020-08-08T09:54:45Z</time>
      </trkpt>
      <trkpt lat="41.3647918962" lon="-5.7713475265">
        <ele>735.55</ele>
        <time>2020-08-08T09:54:53Z</time>
      </trkpt>
      <trkpt lat="41.3650573511" lon="-5.7712759450">
        <ele>736.99</ele>
        <time>2020-08-08T09:55:01Z</time>
      </trkpt>
      <trkpt lat="41.3654167671" lon="-5.7712119911">
        <ele>736.99</ele>
        <time>2020-08-08T09:55:10Z</time>
      </trkpt>
      <trkpt lat="41.3658627681" lon="-5.7711283397">
        <ele>736.51</ele>
        <time>2020-08-08T09:55:20Z</time>
      </trkpt>
      <trkpt lat="41.3662754092" lon="-5.7710575964">
        <ele>735.55</ele>
        <time>2020-08-08T09:55:29Z</time>
      </trkpt>
      <trkpt lat="41.3667169679" lon="-5.7709789742">
        <ele>735.07</ele>
        <time>2020-08-08T09:55:38Z</time>
      </trkpt>
      <trkpt lat="41.3668138627" lon="-5.7709629647">
        <ele>735.07</ele>
        <time>2020-08-08T09:55:40Z</time>
      </trkpt>
      <trkpt lat="41.3673561718" lon="-5.7708559278">
        <ele>734.10</ele>
        <time>2020-08-08T09:55:51Z</time>
      </trkpt>
      <trkpt lat="41.3678319287" lon="-5.7707684208">
        <ele>733.62</ele>
        <time>2020-08-08T09:56:01Z</time>
      </trkpt>
      <trkpt lat="41.3680716511" lon="-5.7707242481">
        <ele>733.14</ele>
        <time>2020-08-08T09:56:06Z</time>
      </trkpt>
      <trkpt lat="41.3683375251" lon="-5.7706825901">
        <ele>733.14</ele>
        <time>2020-08-08T09:56:13Z</time>
      </trkpt>
      <trkpt lat="41.3686961867" lon="-5.7706190553">
        <ele>733.62</ele>
        <time>2020-08-08T09:56:22Z</time>
      </trkpt>
      <trkpt lat="41.3687811792" lon="-5.7706036326">
        <ele>733.62</ele>
        <time>2020-08-08T09:56:24Z</time>
      </trkpt>
      <trkpt lat="41.3688228372" lon="-5.7705982681">
        <ele>733.62</ele>
        <time>2020-08-08T09:56:25Z</time>
      </trkpt>
      <trkpt lat="41.3692384958" lon="-5.7705411036">
        <ele>734.10</ele>
        <time>2020-08-08T09:56:35Z</time>
      </trkpt>
      <trkpt lat="41.3695308566" lon="-5.7704975177">
        <ele>734.10</ele>
        <time>2020-08-08T09:56:43Z</time>
      </trkpt>
      <trkpt lat="41.3696486223" lon="-5.7704913989">
        <ele>734.58</ele>
        <time>2020-08-08T09:56:46Z</time>
      </trkpt>
      <trkpt lat="41.3700163364" lon="-5.7704325579">
        <ele>734.10</ele>
        <time>2020-08-08T09:56:55Z</time>
      </trkpt>
      <trkpt lat="41.3704633433" lon="-5.7703489903">
        <ele>733.62</ele>
        <time>2020-08-08T09:57:05Z</time>
      </trkpt>
      <trkpt lat="41.3708245195" lon="-5.7702848688">
        <ele>733.62</ele>
        <time>2020-08-08T09:57:13Z</time>
      </trkpt>
      <trkpt lat="41.3712762203" lon="-5.7701959368">
        <ele>733.14</ele>
        <time>2020-08-08T09:57:23Z</time>
      </trkpt>
      <trkpt lat="41.3717992511" lon="-5.7701106928">
        <ele>733.14</ele>
        <time>2020-08-08T09:57:34Z</time>
      </trkpt>
      <trkpt lat="41.3723192643" lon="-5.7700140495">
        <ele>732.66</ele>
        <time>2020-08-08T09:57:45Z</time>
      </trkpt>
      <trkpt lat="41.3728752360" lon="-5.7699343376">
        <ele>732.18</ele>
        <time>2020-08-08T09:57:57Z</time>
      </trkpt>
      <trkpt lat="41.3732947502" lon="-5.7699160650">
        <ele>731.70</ele>
        <time>2020-08-08T09:58:07Z</time>
      </trkpt>
      <trkpt lat="41.3736933097" lon="-5.7699057553">
        <ele>731.70</ele>
        <time>2020-08-08T09:58:16Z</time>
      </trkpt>
      <trkpt lat="41.3742367923" lon="-5.7699268777">
        <ele>731.22</ele>
        <time>2020-08-08T09:58:28Z</time>
      </trkpt>
      <trkpt lat="41.3747171592" lon="-5.7699284703">
        <ele>730.26</ele>
        <time>2020-08-08T09:58:38Z</time>
      </trkpt>
      <trkpt lat="41.3752845302" lon="-5.7699150592">
        <ele>729.30</ele>
        <time>2020-08-08T09:58:50Z</time>
      </trkpt>
      <trkpt lat="41.3757360633" lon="-5.7699212618">
        <ele>728.82</ele>
        <time>2020-08-08T09:59:00Z</time>
      </trkpt>
      <trkpt lat="41.3761917874" lon="-5.7699290570">
        <ele>728.82</ele>
        <time>2020-08-08T09:59:10Z</time>
      </trkpt>
      <trkpt lat="41.3766643591" lon="-5.7699271291">
        <ele>728.34</ele>
        <time>2020-08-08T09:59:20Z</time>
      </trkpt>
      <trkpt lat="41.3769005612" lon="-5.7699274644">
        <ele>728.34</ele>
        <time>2020-08-08T09:59:25Z</time>
      </trkpt>
      <trkpt lat="41.3769500144" lon="-5.7699319907">
        <ele>728.34</ele>
        <time>2020-08-08T09:59:26Z</time>
      </trkpt>
      <trkpt lat="41.3773792516" lon="-5.7699491736">
        <ele>728.82</ele>
        <time>2020-08-08T09:59:35Z</time>
      </trkpt>
      <trkpt lat="41.3776018750" lon="-5.7700117864">
        <ele>729.30</ele>
        <time>2020-08-08T09:59:40Z</time>
      </trkpt>
      <trkpt lat="41.3780155219" lon="-5.7702350803">
        <ele>729.30</ele>
        <time>2020-08-08T09:59:50Z</time>
      </trkpt>
      <trkpt lat="41.3781465311" lon="-5.7702979445">
        <ele>729.30</ele>
        <time>2020-08-08T09:59:53Z</time>
      </trkpt>
      <trkpt lat="41.3784868363" lon="-5.7704644930">
        <ele>729.78</ele>
        <time>2020-08-08T10:00:01Z</time>
      </trkpt>
      <trkpt lat="41.3789969590" lon="-5.7707038801">
        <ele>730.26</ele>
        <time>2020-08-08T10:00:13Z</time>
      </trkpt>
      <trkpt lat="41.3790407125" lon="-5.7707287744">
        <ele>730.26</ele>
        <time>2020-08-08T10:00:14Z</time>
      </trkpt>
      <trkpt lat="41.3790793531" lon="-5.7707484718">
        <ele>730.26</ele>
        <time>2020-08-08T10:00:15Z</time>
      </trkpt>
      <trkpt lat="41.3794954307" lon="-5.7709425967">
        <ele>730.26</ele>
        <time>2020-08-08T10:00:25Z</time>
      </trkpt>
      <trkpt lat="41.3795328140" lon="-5.7709629647">
        <ele>730.26</ele>
        <time>2020-08-08T10:00:26Z</time>
      </trkpt>
      <trkpt lat="41.3799973391" lon="-5.7711561676">
        <ele>729.78</ele>
        <time>2020-08-08T10:00:37Z</time>
      </trkpt>
      <trkpt lat="41.3804511353" lon="-5.7713592611">
        <ele>728.34</ele>
        <time>2020-08-08T10:00:47Z</time>
      </trkpt>
      <trkpt lat="41.3809449971" lon="-5.7715615164">
        <ele>728.34</ele>
        <time>2020-08-08T10:00:58Z</time>
      </trkpt>
      <trkpt lat="41.3814000506" lon="-5.7717333455">
        <ele>727.37</ele>
        <time>2020-08-08T10:01:08Z</time>
      </trkpt>
      <trkpt lat="41.3814442232" lon="-5.7717522047">
        <ele>727.37</ele>
        <time>2020-08-08T10:01:09Z</time>
      </trkpt>
      <trkpt lat="41.3819421083" lon="-5.7719366066">
        <ele>726.89</ele>
        <time>2020-08-08T10:01:20Z</time>
      </trkpt>
      <trkpt lat="41.3824445195" lon="-5.7721143030">
        <ele>726.89</ele>
        <time>2020-08-08T10:01:32Z</time>
      </trkpt>
      <trkpt lat="41.3825955614" lon="-5.7721954398">
        <ele>726.89</ele>
        <time>2020-08-08T10:01:36Z</time>
      </trkpt>
      <trkpt lat="41.3828101382" lon="-5.7723256946">
        <ele>726.41</ele>
        <time>2020-08-08T10:01:42Z</time>
      </trkpt>
      <trkpt lat="41.3828500360" lon="-5.7723451406">
        <ele>726.41</ele>
        <time>2020-08-08T10:01:43Z</time>
      </trkpt>
      <trkpt lat="41.3828893472" lon="-5.7723645028">
        <ele>726.41</ele>
        <time>2020-08-08T10:01:44Z</time>
      </trkpt>
      <trkpt lat="41.3832643535" lon="-5.7725885510">
        <ele>725.93</ele>
        <time>2020-08-08T10:01:54Z</time>
      </trkpt>
      <trkpt lat="41.3837197423" lon="-5.7728419360">
        <ele>725.93</ele>
        <time>2020-08-08T10:02:06Z</time>
      </trkpt>
      <trkpt lat="41.3837586343" lon="-5.7728680875">
        <ele>725.45</ele>
        <time>2020-08-08T10:02:07Z</time>
      </trkpt>
      <trkpt lat="41.3837940898" lon="-5.7728906348">
        <ele>725.45</ele>
        <time>2020-08-08T10:02:08Z</time>
      </trkpt>
      <trkpt lat="41.3841848541" lon="-5.7731235679">
        <ele>724.49</ele>
        <time>2020-08-08T10:02:18Z</time>
      </trkpt>
      <trkpt lat="41.3842577767" lon="-5.7731718477">
        <ele>724.49</ele>
        <time>2020-08-08T10:02:20Z</time>
      </trkpt>
      <trkpt lat="41.3845798932" lon="-5.7733537350">
        <ele>724.49</ele>
        <time>2020-08-08T10:02:29Z</time>
      </trkpt>
      <trkpt lat="41.3848668057" lon="-5.7734833192">
        <ele>724.49</ele>
        <time>2020-08-08T10:02:38Z</time>
      </trkpt>
      <trkpt lat="41.3852415606" lon="-5.7737187669">
        <ele>724.97</ele>
        <time>2020-08-08T10:02:48Z</time>
      </trkpt>
      <trkpt lat="41.3855376095" lon="-5.7738872431">
        <ele>724.01</ele>
        <time>2020-08-08T10:02:56Z</time>
      </trkpt>
      <trkpt lat="41.3858484942" lon="-5.7740648557">
        <ele>724.49</ele>
        <time>2020-08-08T10:03:06Z</time>
      </trkpt>
      <trkpt lat="41.3861908950" lon="-5.7742789295">
        <ele>724.49</ele>
        <time>2020-08-08T10:03:17Z</time>
      </trkpt>
      <trkpt lat="41.3866041228" lon="-5.7745298836">
        <ele>724.49</ele>
        <time>2020-08-08T10:03:29Z</time>
      </trkpt>
      <trkpt lat="41.3869340345" lon="-5.7747214101">
        <ele>725.45</ele>
        <time>2020-08-08T10:03:38Z</time>
      </trkpt>
      <trkpt lat="41.3870809693" lon="-5.7748156227">
        <ele>725.45</ele>
        <time>2020-08-08T10:03:42Z</time>
      </trkpt>
      <trkpt lat="41.3874403015" lon="-5.7750172913">
        <ele>726.41</ele>
        <time>2020-08-08T10:03:52Z</time>
      </trkpt>
      <trkpt lat="41.3878734782" lon="-5.7752727717">
        <ele>727.37</ele>
        <time>2020-08-08T10:04:04Z</time>
      </trkpt>
      <trkpt lat="41.3883071579" lon="-5.7755378913">
        <ele>727.37</ele>
        <time>2020-08-08T10:04:16Z</time>
      </trkpt>
      <trkpt lat="41.3886539172" lon="-5.7757412363">
        <ele>726.89</ele>
        <time>2020-08-08T10:04:26Z</time>
      </trkpt>
      <trkpt lat="41.3887799811" lon="-5.7757706568">
        <ele>726.89</ele>
        <time>2020-08-08T10:04:30Z</time>
      </trkpt>
      <trkpt lat="41.3887995109" lon="-5.7757575810">
        <ele>726.89</ele>
        <time>2020-08-08T10:04:31Z</time>
      </trkpt>
      <trkpt lat="41.3888161909" lon="-5.7757393923">
        <ele>726.89</ele>
        <time>2020-08-08T10:04:32Z</time>
      </trkpt>
      <trkpt lat="41.3888344634" lon="-5.7757156715">
        <ele>726.89</ele>
        <time>2020-08-08T10:04:33Z</time>
      </trkpt>
      <trkpt lat="41.3888547476" lon="-5.7756878436">
        <ele>726.41</ele>
        <time>2020-08-08T10:04:34Z</time>
      </trkpt>
      <trkpt lat="41.3890695758" lon="-5.7754230592">
        <ele>725.93</ele>
        <time>2020-08-08T10:04:43Z</time>
      </trkpt>
      <trkpt lat="41.3893781975" lon="-5.7750144415">
        <ele>724.97</ele>
        <time>2020-08-08T10:04:54Z</time>
      </trkpt>
      <trkpt lat="41.3897299021" lon="-5.7745660935">
        <ele>724.01</ele>
        <time>2020-08-08T10:05:05Z</time>
      </trkpt>
      <trkpt lat="41.3900187425" lon="-5.7742016483">
        <ele>723.05</ele>
        <time>2020-08-08T10:05:14Z</time>
      </trkpt>
      <trkpt lat="41.3902028091" lon="-5.7739748340">
        <ele>723.53</ele>
        <time>2020-08-08T10:05:21Z</time>
      </trkpt>
      <trkpt lat="41.3904038910" lon="-5.7736377139">
        <ele>723.53</ele>
        <time>2020-08-08T10:05:30Z</time>
      </trkpt>
      <trkpt lat="41.3904312998" lon="-5.7735367958">
        <ele>723.53</ele>
        <time>2020-08-08T10:05:32Z</time>
      </trkpt>
      <trkpt lat="41.3905312121" lon="-5.7729889546">
        <ele>723.53</ele>
        <time>2020-08-08T10:05:42Z</time>
      </trkpt>
      <trkpt lat="41.3905389234" lon="-5.7729410939">
        <ele>723.53</ele>
        <time>2020-08-08T10:05:45Z</time>
      </trkpt>
      <trkpt lat="41.3905343972" lon="-5.7729509007">
        <ele>722.09</ele>
        <time>2020-08-08T10:05:58Z</time>
      </trkpt>
      <trkpt lat="41.3905488141" lon="-5.7728999387">
        <ele>722.09</ele>
        <time>2020-08-08T10:06:06Z</time>
      </trkpt>
      <trkpt lat="41.3905822579" lon="-5.7727293670">
        <ele>722.09</ele>
        <time>2020-08-08T10:06:16Z</time>
      </trkpt>
      <trkpt lat="41.3906164560" lon="-5.7725221664">
        <ele>722.09</ele>
        <time>2020-08-08T10:06:27Z</time>
      </trkpt>
      <trkpt lat="41.3906605449" lon="-5.7723023091">
        <ele>722.09</ele>
        <time>2020-08-08T10:06:40Z</time>
      </trkpt>
      <trkpt lat="41.3906975929" lon="-5.7720966171">
        <ele>721.61</ele>
        <time>2020-08-08T10:06:52Z</time>
      </trkpt>
      <trkpt lat="41.3907234930" lon="-5.7719769236">
        <ele>721.61</ele>
        <time>2020-08-08T10:07:00Z</time>
      </trkpt>
      <trkpt lat="41.3907228224" lon="-5.7719661947">
        <ele>721.61</ele>
        <time>2020-08-08T10:07:06Z</time>
      </trkpt>
      <trkpt lat="41.3907456212" lon="-5.7718463335">
        <ele>722.09</ele>
        <time>2020-08-08T10:07:12Z</time>
      </trkpt>
      <trkpt lat="41.3908001035" lon="-5.7715774421">
        <ele>723.05</ele>
        <time>2020-08-08T10:07:21Z</time>
      </trkpt>
      <trkpt lat="41.3908485509" lon="-5.7714129053">
        <ele>723.53</ele>
        <time>2020-08-08T10:07:30Z</time>
      </trkpt>
      <trkpt lat="41.3908633869" lon="-5.7713534776">
        <ele>724.01</ele>
        <time>2020-08-08T10:07:38Z</time>
      </trkpt>
      <trkpt lat="41.3908680808" lon="-5.7713351212">
        <ele>723.05</ele>
        <time>2020-08-08T10:07:46Z</time>
      </trkpt>
      <trkpt lat="41.3908644766" lon="-5.7713295054">
        <ele>722.57</ele>
        <time>2020-08-08T10:07:56Z</time>
      </trkpt>
      <trkpt lat="41.3908705115" lon="-5.7713370491">
        <ele>723.53</ele>
        <time>2020-08-08T10:08:11Z</time>
      </trkpt>
      <trkpt lat="41.3908739481" lon="-5.7712636236">
        <ele>723.53</ele>
        <time>2020-08-08T10:08:19Z</time>
      </trkpt>
      <trkpt lat="41.3909070566" lon="-5.7710553333">
        <ele>723.53</ele>
        <time>2020-08-08T10:08:26Z</time>
      </trkpt>
      <trkpt lat="41.3909784704" lon="-5.7707130164">
        <ele>723.53</ele>
        <time>2020-08-08T10:08:34Z</time>
      </trkpt>
      <trkpt lat="41.3910861779" lon="-5.7701519318">
        <ele>723.53</ele>
        <time>2020-08-08T10:08:46Z</time>
      </trkpt>
      <trkpt lat="41.3912025187" lon="-5.7695590798">
        <ele>724.01</ele>
        <time>2020-08-08T10:08:58Z</time>
      </trkpt>
      <trkpt lat="41.3912948873" lon="-5.7690943871">
        <ele>725.45</ele>
        <time>2020-08-08T10:09:08Z</time>
      </trkpt>
      <trkpt lat="41.3913837355" lon="-5.7686453685">
        <ele>726.41</ele>
        <time>2020-08-08T10:09:18Z</time>
      </trkpt>
      <trkpt lat="41.3914439175" lon="-5.7683345675">
        <ele>727.86</ele>
        <time>2020-08-08T10:09:26Z</time>
      </trkpt>
      <trkpt lat="41.3915427402" lon="-5.7681562845">
        <ele>728.82</ele>
        <time>2020-08-08T10:09:32Z</time>
      </trkpt>
      <trkpt lat="41.3915674668" lon="-5.7681545243">
        <ele>728.34</ele>
        <time>2020-08-08T10:09:33Z</time>
      </trkpt>
      <trkpt lat="41.3918291498" lon="-5.7681910694">
        <ele>727.37</ele>
        <time>2020-08-08T10:09:41Z</time>
      </trkpt>
      <trkpt lat="41.3922097720" lon="-5.7682662550">
        <ele>726.41</ele>
        <time>2020-08-08T10:09:51Z</time>
      </trkpt>
      <trkpt lat="41.3924754784" lon="-5.7683235034">
        <ele>725.93</ele>
        <time>2020-08-08T10:09:58Z</time>
      </trkpt>
      <trkpt lat="41.3928639796" lon="-5.7683981862">
        <ele>725.45</ele>
        <time>2020-08-08T10:10:07Z</time>
      </trkpt>
      <trkpt lat="41.3932656404" lon="-5.7684888784">
        <ele>725.93</ele>
        <time>2020-08-08T10:10:17Z</time>
      </trkpt>
      <trkpt lat="41.3937364519" lon="-5.7685826719">
        <ele>725.93</ele>
        <time>2020-08-08T10:10:28Z</time>
      </trkpt>
      <trkpt lat="41.3941372745" lon="-5.7686788961">
        <ele>724.97</ele>
        <time>2020-08-08T10:10:37Z</time>
      </trkpt>
      <trkpt lat="41.3945473172" lon="-5.7688335422">
        <ele>724.97</ele>
        <time>2020-08-08T10:10:47Z</time>
      </trkpt>
      <trkpt lat="41.3949587010" lon="-5.7690311875">
        <ele>724.97</ele>
        <time>2020-08-08T10:10:57Z</time>
      </trkpt>
      <trkpt lat="41.3953265827" lon="-5.7692139968">
        <ele>724.49</ele>
        <time>2020-08-08T10:11:06Z</time>
      </trkpt>
      <trkpt lat="41.3953653071" lon="-5.7692369632">
        <ele>724.49</ele>
        <time>2020-08-08T10:11:07Z</time>
      </trkpt>
      <trkpt lat="41.3956832327" lon="-5.7693869155">
        <ele>724.49</ele>
        <time>2020-08-08T10:11:15Z</time>
      </trkpt>
      <trkpt lat="41.3958873320" lon="-5.7694783621">
        <ele>724.49</ele>
        <time>2020-08-08T10:11:21Z</time>
      </trkpt>
      <trkpt lat="41.3962503523" lon="-5.7696566451">
        <ele>724.97</ele>
        <time>2020-08-08T10:11:31Z</time>
      </trkpt>
      <trkpt lat="41.3965970278" lon="-5.7698172424">
        <ele>725.45</ele>
        <time>2020-08-08T10:11:40Z</time>
      </trkpt>
      <trkpt lat="41.3970732875" lon="-5.7700476609">
        <ele>726.41</ele>
        <time>2020-08-08T10:11:52Z</time>
      </trkpt>
      <trkpt lat="41.3974914607" lon="-5.7702546101">
        <ele>727.37</ele>
        <time>2020-08-08T10:12:03Z</time>
      </trkpt>
      <trkpt lat="41.3978042733" lon="-5.7704043947">
        <ele>728.34</ele>
        <time>2020-08-08T10:12:12Z</time>
      </trkpt>
      <trkpt lat="41.3980951253" lon="-5.7705481444">
        <ele>728.82</ele>
        <time>2020-08-08T10:12:22Z</time>
      </trkpt>
      <trkpt lat="41.3983521145" lon="-5.7706655748">
        <ele>729.30</ele>
        <time>2020-08-08T10:12:31Z</time>
      </trkpt>
      <trkpt lat="41.3985878136" lon="-5.7707830053">
        <ele>729.78</ele>
        <time>2020-08-08T10:12:38Z</time>
      </trkpt>
      <trkpt lat="41.3989681844" lon="-5.7709543314">
        <ele>729.30</ele>
        <time>2020-08-08T10:12:48Z</time>
      </trkpt>
      <trkpt lat="41.3992540911" lon="-5.7710923813">
        <ele>727.86</ele>
        <time>2020-08-08T10:12:56Z</time>
      </trkpt>
      <trkpt lat="41.3994875271" lon="-5.7712057047">
        <ele>727.37</ele>
        <time>2020-08-08T10:13:02Z</time>
      </trkpt>
      <trkpt lat="41.3995264191" lon="-5.7712250669">
        <ele>727.37</ele>
        <time>2020-08-08T10:13:03Z</time>
      </trkpt>
      <trkpt lat="41.3995682448" lon="-5.7712448481">
        <ele>726.89</ele>
        <time>2020-08-08T10:13:04Z</time>
      </trkpt>
      <trkpt lat="41.4000378828" lon="-5.7714778651">
        <ele>725.93</ele>
        <time>2020-08-08T10:13:15Z</time>
      </trkpt>
      <trkpt lat="41.4002125617" lon="-5.7715617679">
        <ele>725.45</ele>
        <time>2020-08-08T10:13:21Z</time>
      </trkpt>
      <trkpt lat="41.4003619272" lon="-5.7716401387">
        <ele>725.45</ele>
        <time>2020-08-08T10:13:28Z</time>
      </trkpt>
      <trkpt lat="41.4006075170" lon="-5.7717476785">
        <ele>725.93</ele>
        <time>2020-08-08T10:13:37Z</time>
      </trkpt>
      <trkpt lat="41.4007492550" lon="-5.7717878278">
        <ele>725.45</ele>
        <time>2020-08-08T10:13:44Z</time>
      </trkpt>
      <trkpt lat="41.4007786755" lon="-5.7717835531">
        <ele>724.97</ele>
        <time>2020-08-08T10:13:47Z</time>
      </trkpt>
      <trkpt lat="41.4008063357" lon="-5.7717918511">
        <ele>724.49</ele>
        <time>2020-08-08T10:13:51Z</time>
      </trkpt>
      <trkpt lat="41.4008150529" lon="-5.7718009874">
        <ele>724.49</ele>
        <time>2020-08-08T10:13:52Z</time>
      </trkpt>
      <trkpt lat="41.4008249436" lon="-5.7718096208">
        <ele>724.49</ele>
        <time>2020-08-08T10:13:53Z</time>
      </trkpt>
      <trkpt lat="41.4008381031" lon="-5.7718174998">
        <ele>724.49</ele>
        <time>2020-08-08T10:13:54Z</time>
      </trkpt>
      <trkpt lat="41.4008573815" lon="-5.7718345150">
        <ele>724.01</ele>
        <time>2020-08-08T10:13:55Z</time>
      </trkpt>
      <trkpt lat="41.4008807670" lon="-5.7718589064">
        <ele>723.53</ele>
        <time>2020-08-08T10:13:56Z</time>
      </trkpt>
      <trkpt lat="41.4009441342" lon="-5.7719020732">
        <ele>723.05</ele>
        <time>2020-08-08T10:13:58Z</time>
      </trkpt>
      <trkpt lat="41.4009756502" lon="-5.7718996424">
        <ele>723.05</ele>
        <time>2020-08-08T10:13:59Z</time>
      </trkpt>
      <trkpt lat="41.4009997062" lon="-5.7718856446">
        <ele>723.05</ele>
        <time>2020-08-08T10:14:00Z</time>
      </trkpt>
      <trkpt lat="41.4011761453" lon="-5.7717715669">
        <ele>723.05</ele>
        <time>2020-08-08T10:14:07Z</time>
      </trkpt>
      <trkpt lat="41.4014079887" lon="-5.7716490235">
        <ele>724.49</ele>
        <time>2020-08-08T10:14:16Z</time>
      </trkpt>
      <trkpt lat="41.4014461264" lon="-5.7716209441">
        <ele>725.45</ele>
        <time>2020-08-08T10:14:22Z</time>
      </trkpt>
      <trkpt lat="41.4014427736" lon="-5.7716147415">
        <ele>725.93</ele>
        <time>2020-08-08T10:14:36Z</time>
      </trkpt>
      <trkpt lat="41.4014487248" lon="-5.7716170885">
        <ele>725.93</ele>
        <time>2020-08-08T10:14:51Z</time>
      </trkpt>
      <trkpt lat="41.4014533348" lon="-5.7716227043">
        <ele>725.93</ele>
        <time>2020-08-08T10:15:06Z</time>
      </trkpt>
      <trkpt lat="41.4014492277" lon="-5.7716265600">
        <ele>726.41</ele>
        <time>2020-08-08T10:15:23Z</time>
      </trkpt>
      <trkpt lat="41.4014565200" lon="-5.7716256380">
        <ele>725.93</ele>
        <time>2020-08-08T10:15:43Z</time>
      </trkpt>
      <trkpt lat="41.4014452044" lon="-5.7716288231">
        <ele>725.93</ele>
        <time>2020-08-08T10:15:58Z</time>
      </trkpt>
      <trkpt lat="41.4014447015" lon="-5.7716307510">
        <ele>725.93</ele>
        <time>2020-08-08T10:16:10Z</time>
      </trkpt>
      <trkpt lat="41.4014416002" lon="-5.7716245484">
        <ele>725.93</ele>
        <time>2020-08-08T10:16:24Z</time>
      </trkpt>
      <trkpt lat="41.4014457911" lon="-5.7716134842">
        <ele>726.89</ele>
        <time>2020-08-08T10:16:34Z</time>
      </trkpt>
      <trkpt lat="41.4015997667" lon="-5.7715592533">
        <ele>727.37</ele>
        <time>2020-08-08T10:16:43Z</time>
      </trkpt>
      <trkpt lat="41.4018093981" lon="-5.7714247238">
        <ele>727.37</ele>
        <time>2020-08-08T10:16:52Z</time>
      </trkpt>
      <trkpt lat="41.4020638727" lon="-5.7712988276">
        <ele>727.86</ele>
        <time>2020-08-08T10:17:01Z</time>
      </trkpt>
      <trkpt lat="41.4023627713" lon="-5.7711672317">
        <ele>729.30</ele>
        <time>2020-08-08T10:17:11Z</time>
      </trkpt>
      <trkpt lat="41.4026350155" lon="-5.7710306905">
        <ele>730.26</ele>
        <time>2020-08-08T10:17:21Z</time>
      </trkpt>
      <trkpt lat="41.4029122889" lon="-5.7709056325">
        <ele>731.22</ele>
        <time>2020-08-08T10:17:31Z</time>
      </trkpt>
      <trkpt lat="41.4030848723" lon="-5.7708364818">
        <ele>732.18</ele>
        <time>2020-08-08T10:17:39Z</time>
      </trkpt>
      <trkpt lat="41.4032290410" lon="-5.7707947399">
        <ele>733.14</ele>
        <time>2020-08-08T10:17:46Z</time>
      </trkpt>
      <trkpt lat="41.4034214057" lon="-5.7707328815">
        <ele>733.62</ele>
        <time>2020-08-08T10:17:55Z</time>
      </trkpt>
      <trkpt lat="41.4036354795" lon="-5.7706760522">
        <ele>735.55</ele>
        <time>2020-08-08T10:18:06Z</time>
      </trkpt>
      <trkpt lat="41.4037733618" lon="-5.7706098352">
        <ele>736.51</ele>
        <time>2020-08-08T10:18:14Z</time>
      </trkpt>
      <trkpt lat="41.4039185364" lon="-5.7705245912">
        <ele>737.47</ele>
        <time>2020-08-08T10:18:23Z</time>
      </trkpt>
      <trkpt lat="41.4040653035" lon="-5.7704897225">
        <ele>737.95</ele>
        <time>2020-08-08T10:18:32Z</time>
      </trkpt>
      <trkpt lat="41.4041875955" lon="-5.7705090009">
        <ele>739.39</ele>
        <time>2020-08-08T10:18:40Z</time>
      </trkpt>
      <trkpt lat="41.4043300040" lon="-5.7705482282">
        <ele>739.39</ele>
        <time>2020-08-08T10:18:48Z</time>
      </trkpt>
      <trkpt lat="41.4044647012" lon="-5.7705380023">
        <ele>740.35</ele>
        <time>2020-08-08T10:18:56Z</time>
      </trkpt>
      <trkpt lat="41.4045839757" lon="-5.7705082465">
        <ele>741.79</ele>
        <time>2020-08-08T10:19:04Z</time>
      </trkpt>
      <trkpt lat="41.4046159945" lon="-5.7705141138">
        <ele>742.28</ele>
        <time>2020-08-08T10:19:06Z</time>
      </trkpt>
      <trkpt lat="41.4047735743" lon="-5.7705631480">
        <ele>742.76</ele>
        <time>2020-08-08T10:19:15Z</time>
      </trkpt>
      <trkpt lat="41.4049205091" lon="-5.7706223242">
        <ele>744.20</ele>
        <time>2020-08-08T10:19:24Z</time>
      </trkpt>
      <trkpt lat="41.4050403703" lon="-5.7707190514">
        <ele>745.64</ele>
        <time>2020-08-08T10:19:32Z</time>
      </trkpt>
      <trkpt lat="41.4051800128" lon="-5.7708534133">
        <ele>746.60</ele>
        <time>2020-08-08T10:19:42Z</time>
      </trkpt>
      <trkpt lat="41.4053401072" lon="-5.7709751185">
        <ele>746.60</ele>
        <time>2020-08-08T10:19:51Z</time>
      </trkpt>
      <trkpt lat="41.4054928254" lon="-5.7711039484">
        <ele>747.08</ele>
        <time>2020-08-08T10:19:59Z</time>
      </trkpt>
      <trkpt lat="41.4056815021" lon="-5.7712414116">
        <ele>747.08</ele>
        <time>2020-08-08T10:20:08Z</time>
      </trkpt>
      <trkpt lat="41.4057441149" lon="-5.7713021804">
        <ele>747.56</ele>
        <time>2020-08-08T10:20:13Z</time>
      </trkpt>
      <trkpt lat="41.4057597890" lon="-5.7713041082">
        <ele>747.56</ele>
        <time>2020-08-08T10:20:14Z</time>
      </trkpt>
      <trkpt lat="41.4057773910" lon="-5.7713039406">
        <ele>747.56</ele>
        <time>2020-08-08T10:20:15Z</time>
      </trkpt>
      <trkpt lat="41.4057933167" lon="-5.7713061199">
        <ele>747.56</ele>
        <time>2020-08-08T10:20:16Z</time>
      </trkpt>
      <trkpt lat="41.4058078174" lon="-5.7713140827">
        <ele>747.56</ele>
        <time>2020-08-08T10:20:17Z</time>
      </trkpt>
      <trkpt lat="41.4058265928" lon="-5.7713257335">
        <ele>747.56</ele>
        <time>2020-08-08T10:20:18Z</time>
      </trkpt>
      <trkpt lat="41.4058457874" lon="-5.7713356242">
        <ele>747.56</ele>
        <time>2020-08-08T10:20:19Z</time>
      </trkpt>
      <trkpt lat="41.4060420077" lon="-5.7714287471">
        <ele>747.56</ele>
        <time>2020-08-08T10:20:28Z</time>
      </trkpt>
      <trkpt lat="41.4062953927" lon="-5.7715331018">
        <ele>748.04</ele>
        <time>2020-08-08T10:20:39Z</time>
      </trkpt>
      <trkpt lat="41.4065491129" lon="-5.7716162503">
        <ele>748.04</ele>
        <time>2020-08-08T10:20:48Z</time>
      </trkpt>
      <trkpt lat="41.4068311639" lon="-5.7716500293">
        <ele>749.49</ele>
        <time>2020-08-08T10:20:58Z</time>
      </trkpt>
      <trkpt lat="41.4070800226" lon="-5.7716708165">
        <ele>750.45</ele>
        <time>2020-08-08T10:21:07Z</time>
      </trkpt>
      <trkpt lat="41.4073504228" lon="-5.7716986444">
        <ele>750.93</ele>
        <time>2020-08-08T10:21:17Z</time>
      </trkpt>
      <trkpt lat="41.4076188952" lon="-5.7716931961">
        <ele>751.89</ele>
        <time>2020-08-08T10:21:27Z</time>
      </trkpt>
      <trkpt lat="41.4077718649" lon="-5.7717025839">
        <ele>752.37</ele>
        <time>2020-08-08T10:21:34Z</time>
      </trkpt>
      <trkpt lat="41.4079266787" lon="-5.7716998179">
        <ele>752.85</ele>
        <time>2020-08-08T10:21:41Z</time>
      </trkpt>
      <trkpt lat="41.4081414230" lon="-5.7717000693">
        <ele>753.33</ele>
        <time>2020-08-08T10:21:50Z</time>
      </trkpt>
      <trkpt lat="41.4084082190" lon="-5.7717030868">
        <ele>754.77</ele>
        <time>2020-08-08T10:22:00Z</time>
      </trkpt>
      <trkpt lat="41.4086970594" lon="-5.7717221137">
        <ele>755.25</ele>
        <time>2020-08-08T10:22:10Z</time>
      </trkpt>
      <trkpt lat="41.4089107141" lon="-5.7717564795">
        <ele>754.77</ele>
        <time>2020-08-08T10:22:17Z</time>
      </trkpt>
      <trkpt lat="41.4092169888" lon="-5.7718198467">
        <ele>753.81</ele>
        <time>2020-08-08T10:22:27Z</time>
      </trkpt>
      <trkpt lat="41.4095254429" lon="-5.7718342636">
        <ele>752.85</ele>
        <time>2020-08-08T10:22:36Z</time>
      </trkpt>
      <trkpt lat="41.4099223260" lon="-5.7718212716">
        <ele>752.37</ele>
        <time>2020-08-08T10:22:48Z</time>
      </trkpt>
      <trkpt lat="41.4102726057" lon="-5.7718087826">
        <ele>751.89</ele>
        <time>2020-08-08T10:22:59Z</time>
      </trkpt>
      <trkpt lat="41.4106230531" lon="-5.7717985567">
        <ele>751.89</ele>
        <time>2020-08-08T10:23:09Z</time>
      </trkpt>
      <trkpt lat="41.4109161682" lon="-5.7717655320">
        <ele>752.37</ele>
        <time>2020-08-08T10:23:18Z</time>
      </trkpt>
      <trkpt lat="41.4112251252" lon="-5.7716970518">
        <ele>753.81</ele>
        <time>2020-08-08T10:23:28Z</time>
      </trkpt>
      <trkpt lat="41.4113034122" lon="-5.7716817968">
        <ele>754.77</ele>
        <time>2020-08-08T10:23:32Z</time>
      </trkpt>
      <trkpt lat="41.4113134705" lon="-5.7716931961">
        <ele>755.25</ele>
        <time>2020-08-08T10:23:33Z</time>
      </trkpt>
      <trkpt lat="41.4113222715" lon="-5.7717084512">
        <ele>755.25</ele>
        <time>2020-08-08T10:23:34Z</time>
      </trkpt>
      <trkpt lat="41.4113331679" lon="-5.7717252150">
        <ele>755.25</ele>
        <time>2020-08-08T10:23:35Z</time>
      </trkpt>
      <trkpt lat="41.4113422204" lon="-5.7717429008">
        <ele>755.25</ele>
        <time>2020-08-08T10:23:36Z</time>
      </trkpt>
      <trkpt lat="41.4113491774" lon="-5.7717631012">
        <ele>755.25</ele>
        <time>2020-08-08T10:23:37Z</time>
      </trkpt>
      <trkpt lat="41.4113564696" lon="-5.7717799488">
        <ele>755.25</ele>
        <time>2020-08-08T10:23:38Z</time>
      </trkpt>
      <trkpt lat="41.4113657735" lon="-5.7717967127">
        <ele>755.25</ele>
        <time>2020-08-08T10:23:39Z</time>
      </trkpt>
      <trkpt lat="41.4113738202" lon="-5.7718110457">
        <ele>754.77</ele>
        <time>2020-08-08T10:23:40Z</time>
      </trkpt>
      <trkpt lat="41.4113791008" lon="-5.7718293183">
        <ele>754.77</ele>
        <time>2020-08-08T10:23:41Z</time>
      </trkpt>
      <trkpt lat="41.4113824535" lon="-5.7718467526">
        <ele>754.77</ele>
        <time>2020-08-08T10:23:42Z</time>
      </trkpt>
      <trkpt lat="41.4114495926" lon="-5.7720695436">
        <ele>754.29</ele>
        <time>2020-08-08T10:23:52Z</time>
      </trkpt>
      <trkpt lat="41.4115359262" lon="-5.7723658439">
        <ele>752.85</ele>
        <time>2020-08-08T10:24:01Z</time>
      </trkpt>
      <trkpt lat="41.4116065856" lon="-5.7725933287">
        <ele>751.89</ele>
        <time>2020-08-08T10:24:10Z</time>
      </trkpt>
      <trkpt lat="41.4116211701" lon="-5.7726174686">
        <ele>751.41</ele>
        <time>2020-08-08T10:24:12Z</time>
      </trkpt>
      <trkpt lat="41.4116343297" lon="-5.7726264372">
        <ele>751.89</ele>
        <time>2020-08-08T10:24:13Z</time>
      </trkpt>
      <trkpt lat="41.4116508421" lon="-5.7726256829">
        <ele>751.89</ele>
        <time>2020-08-08T10:24:14Z</time>
      </trkpt>
      <trkpt lat="41.4116664324" lon="-5.7726168819">
        <ele>751.89</ele>
        <time>2020-08-08T10:24:15Z</time>
      </trkpt>
      <trkpt lat="41.4116800949" lon="-5.7726084162">
        <ele>751.89</ele>
        <time>2020-08-08T10:24:16Z</time>
      </trkpt>
      <trkpt lat="41.4116941765" lon="-5.7725967653">
        <ele>752.37</ele>
        <time>2020-08-08T10:24:17Z</time>
      </trkpt>
      <trkpt lat="41.4117111079" lon="-5.7725852821">
        <ele>752.37</ele>
        <time>2020-08-08T10:24:18Z</time>
      </trkpt>
      <trkpt lat="41.4117284585" lon="-5.7725755591">
        <ele>752.37</ele>
        <time>2020-08-08T10:24:19Z</time>
      </trkpt>
      <trkpt lat="41.4117489941" lon="-5.7725644112">
        <ele>752.85</ele>
        <time>2020-08-08T10:24:20Z</time>
      </trkpt>
      <trkpt lat="41.4117679372" lon="-5.7725525927">
        <ele>752.85</ele>
        <time>2020-08-08T10:24:21Z</time>
      </trkpt>
      <trkpt lat="41.4117884729" lon="-5.7725399360">
        <ele>752.85</ele>
        <time>2020-08-08T10:24:22Z</time>
      </trkpt>
      <trkpt lat="41.4118104335" lon="-5.7725248486">
        <ele>753.33</ele>
        <time>2020-08-08T10:24:23Z</time>
      </trkpt>
      <trkpt lat="41.4118308015" lon="-5.7725120243">
        <ele>753.33</ele>
        <time>2020-08-08T10:24:24Z</time>
      </trkpt>
      <trkpt lat="41.4118544385" lon="-5.7724988647">
        <ele>753.33</ele>
        <time>2020-08-08T10:24:25Z</time>
      </trkpt>
      <trkpt lat="41.4120902214" lon="-5.7723504212">
        <ele>753.81</ele>
        <time>2020-08-08T10:24:34Z</time>
      </trkpt>
      <trkpt lat="41.4124094881" lon="-5.7721552067">
        <ele>753.81</ele>
        <time>2020-08-08T10:24:45Z</time>
      </trkpt>
      <trkpt lat="41.4125774615" lon="-5.7720469963">
        <ele>753.81</ele>
        <time>2020-08-08T10:24:53Z</time>
      </trkpt>
      <trkpt lat="41.4125700854" lon="-5.7720497623">
        <ele>754.29</ele>
        <time>2020-08-08T10:25:00Z</time>
      </trkpt>
      <trkpt lat="41.4125764556" lon="-5.7720453199">
        <ele>754.77</ele>
        <time>2020-08-08T10:25:14Z</time>
      </trkpt>
      <trkpt lat="41.4127060398" lon="-5.7719744090">
        <ele>754.77</ele>
        <time>2020-08-08T10:25:21Z</time>
      </trkpt>
      <trkpt lat="41.4129769430" lon="-5.7718218584">
        <ele>754.29</ele>
        <time>2020-08-08T10:25:29Z</time>
      </trkpt>
      <trkpt lat="41.4133223612" lon="-5.7716324273">
        <ele>753.33</ele>
        <time>2020-08-08T10:25:38Z</time>
      </trkpt>
      <trkpt lat="41.4137862157" lon="-5.7713784557">
        <ele>751.89</ele>
        <time>2020-08-08T10:25:49Z</time>
      </trkpt>
      <trkpt lat="41.4143277705" lon="-5.7710839156">
        <ele>750.45</ele>
        <time>2020-08-08T10:26:00Z</time>
      </trkpt>
      <trkpt lat="41.4150129911" lon="-5.7707865257">
        <ele>749.00</ele>
        <time>2020-08-08T10:26:12Z</time>
      </trkpt>
      <trkpt lat="41.4157528616" lon="-5.7705314644">
        <ele>748.52</ele>
        <time>2020-08-08T10:26:25Z</time>
      </trkpt>
      <trkpt lat="41.4163875394" lon="-5.7703325618">
        <ele>748.04</ele>
        <time>2020-08-08T10:26:36Z</time>
      </trkpt>
      <trkpt lat="41.4171561599" lon="-5.7701305579">
        <ele>747.56</ele>
        <time>2020-08-08T10:26:49Z</time>
      </trkpt>
      <trkpt lat="41.4177931007" lon="-5.7699646801">
        <ele>746.12</ele>
        <time>2020-08-08T10:27:00Z</time>
      </trkpt>
      <trkpt lat="41.4184005372" lon="-5.7698048372">
        <ele>744.68</ele>
        <time>2020-08-08T10:27:10Z</time>
      </trkpt>
      <trkpt lat="41.4190980792" lon="-5.7696186751">
        <ele>743.24</ele>
        <time>2020-08-08T10:27:22Z</time>
      </trkpt>
      <trkpt lat="41.4197709784" lon="-5.7694997359">
        <ele>741.79</ele>
        <time>2020-08-08T10:27:33Z</time>
      </trkpt>
      <trkpt lat="41.4205240086" lon="-5.7693895139">
        <ele>740.35</ele>
        <time>2020-08-08T10:27:45Z</time>
      </trkpt>
      <trkpt lat="41.4211653918" lon="-5.7692075428">
        <ele>738.43</ele>
        <time>2020-08-08T10:27:55Z</time>
      </trkpt>
      <trkpt lat="41.4215681423" lon="-5.7689412497">
        <ele>736.99</ele>
        <time>2020-08-08T10:28:02Z</time>
      </trkpt>
      <trkpt lat="41.4221008960" lon="-5.7684594579">
        <ele>734.58</ele>
        <time>2020-08-08T10:28:12Z</time>
      </trkpt>
      <trkpt lat="41.4226213284" lon="-5.7679564599">
        <ele>731.22</ele>
        <time>2020-08-08T10:28:21Z</time>
      </trkpt>
      <trkpt lat="41.4233389869" lon="-5.7672648691">
        <ele>727.37</ele>
        <time>2020-08-08T10:28:32Z</time>
      </trkpt>
      <trkpt lat="41.4238691423" lon="-5.7667463645">
        <ele>725.93</ele>
        <time>2020-08-08T10:28:41Z</time>
      </trkpt>
      <trkpt lat="41.4243104495" lon="-5.7663177978">
        <ele>724.01</ele>
        <time>2020-08-08T10:28:49Z</time>
      </trkpt>
      <trkpt lat="41.4248621464" lon="-5.7657891512">
        <ele>721.61</ele>
        <time>2020-08-08T10:28:59Z</time>
      </trkpt>
      <trkpt lat="41.4255075529" lon="-5.7651669625">
        <ele>719.20</ele>
        <time>2020-08-08T10:29:10Z</time>
      </trkpt>
      <trkpt lat="41.4261590783" lon="-5.7645364758">
        <ele>716.32</ele>
        <time>2020-08-08T10:29:21Z</time>
      </trkpt>
      <trkpt lat="41.4267549478" lon="-5.7639007084">
        <ele>713.92</ele>
        <time>2020-08-08T10:29:31Z</time>
      </trkpt>
      <trkpt lat="41.4274069760" lon="-5.7631758414">
        <ele>710.07</ele>
        <time>2020-08-08T10:29:41Z</time>
      </trkpt>
      <trkpt lat="41.4282051008" lon="-5.7622922212">
        <ele>705.75</ele>
        <time>2020-08-08T10:29:53Z</time>
      </trkpt>
      <trkpt lat="41.4287367649" lon="-5.7615877222">
        <ele>703.34</ele>
        <time>2020-08-08T10:30:02Z</time>
      </trkpt>
      <trkpt lat="41.4291162137" lon="-5.7608395535">
        <ele>700.46</ele>
        <time>2020-08-08T10:30:10Z</time>
      </trkpt>
      <trkpt lat="41.4294636436" lon="-5.7598573621">
        <ele>699.02</ele>
        <time>2020-08-08T10:30:20Z</time>
      </trkpt>
      <trkpt lat="41.4296011068" lon="-5.7593456469">
        <ele>699.50</ele>
        <time>2020-08-08T10:30:26Z</time>
      </trkpt>
      <trkpt lat="41.4297744446" lon="-5.7585022599">
        <ele>699.98</ele>
        <time>2020-08-08T10:30:37Z</time>
      </trkpt>
      <trkpt lat="41.4299220499" lon="-5.7577727828">
        <ele>700.94</ele>
        <time>2020-08-08T10:30:47Z</time>
      </trkpt>
      <trkpt lat="41.4299823996" lon="-5.7575112674">
        <ele>702.38</ele>
        <time>2020-08-08T10:30:53Z</time>
      </trkpt>
      <trkpt lat="41.4299995825" lon="-5.7571822777">
        <ele>704.30</ele>
        <time>2020-08-08T10:31:02Z</time>
      </trkpt>
      <trkpt lat="41.4299052022" lon="-5.7568967063">
        <ele>707.19</ele>
        <time>2020-08-08T10:31:11Z</time>
      </trkpt>
      <trkpt lat="41.4298490435" lon="-5.7565928623">
        <ele>709.11</ele>
        <time>2020-08-08T10:31:21Z</time>
      </trkpt>
      <trkpt lat="41.4298461936" lon="-5.7563539781">
        <ele>710.07</ele>
        <time>2020-08-08T10:31:28Z</time>
      </trkpt>
      <trkpt lat="41.4298721775" lon="-5.7562378049">
        <ele>710.55</ele>
        <time>2020-08-08T10:31:34Z</time>
      </trkpt>
      <trkpt lat="41.4299284201" lon="-5.7561389823">
        <ele>710.55</ele>
        <time>2020-08-08T10:31:42Z</time>
      </trkpt>
      <trkpt lat="41.4299299289" lon="-5.7561357971">
        <ele>710.55</ele>
        <time>2020-08-08T10:31:48Z</time>
      </trkpt>
      <trkpt lat="41.4299366344" lon="-5.7561352942">
        <ele>710.07</ele>
        <time>2020-08-08T10:32:05Z</time>
      </trkpt>
      <trkpt lat="41.4299302641" lon="-5.7561394852">
        <ele>709.59</ele>
        <time>2020-08-08T10:32:40Z</time>
      </trkpt>
      <trkpt lat="41.4299390651" lon="-5.7561337017">
        <ele>708.63</ele>
        <time>2020-08-08T10:33:05Z</time>
      </trkpt>
      <trkpt lat="41.4299419988" lon="-5.7561218832">
        <ele>707.19</ele>
        <time>2020-08-08T10:33:32Z</time>
      </trkpt>
      <trkpt lat="41.4299380593" lon="-5.7561308518">
        <ele>707.19</ele>
        <time>2020-08-08T10:34:02Z</time>
      </trkpt>
      <trkpt lat="41.4299273305" lon="-5.7561329473">
        <ele>708.15</ele>
        <time>2020-08-08T10:34:29Z</time>
      </trkpt>
      <trkpt lat="41.4299294259" lon="-5.7561311033">
        <ele>707.67</ele>
        <time>2020-08-08T10:34:56Z</time>
      </trkpt>
      <trkpt lat="41.4299232233" lon="-5.7561524771">
        <ele>707.67</ele>
        <time>2020-08-08T10:35:27Z</time>
      </trkpt>
      <trkpt lat="41.4299283363" lon="-5.7561425865">
        <ele>706.71</ele>
        <time>2020-08-08T10:35:55Z</time>
      </trkpt>
      <trkpt lat="41.4299260732" lon="-5.7561475318">
        <ele>706.71</ele>
        <time>2020-08-08T10:36:22Z</time>
      </trkpt>
      <trkpt lat="41.4299256541" lon="-5.7561412454">
        <ele>707.19</ele>
        <time>2020-08-08T10:36:39Z</time>
      </trkpt>
      <trkpt lat="41.4299313538" lon="-5.7561301813">
        <ele>707.67</ele>
        <time>2020-08-08T10:37:03Z</time>
      </trkpt>
      <trkpt lat="41.4299385622" lon="-5.7561308518">
        <ele>708.15</ele>
        <time>2020-08-08T10:37:25Z</time>
      </trkpt>
      <trkpt lat="41.4299384784" lon="-5.7561274990">
        <ele>708.15</ele>
        <time>2020-08-08T10:37:31Z</time>
      </trkpt>
      <trkpt lat="41.4299377240" lon="-5.7561242301">
        <ele>707.67</ele>
        <time>2020-08-08T10:37:48Z</time>
      </trkpt>
      <trkpt lat="41.4299364667" lon="-5.7561227214">
        <ele>708.15</ele>
        <time>2020-08-08T10:38:01Z</time>
      </trkpt>
      <trkpt lat="41.4299917035" lon="-5.7560799737">
        <ele>708.15</ele>
        <time>2020-08-08T10:38:07Z</time>
      </trkpt>
      <trkpt lat="41.4300980698" lon="-5.7559009362">
        <ele>708.15</ele>
        <time>2020-08-08T10:38:14Z</time>
      </trkpt>
      <trkpt lat="41.4302445017" lon="-5.7555612177">
        <ele>708.63</ele>
        <time>2020-08-08T10:38:24Z</time>
      </trkpt>
      <trkpt lat="41.4303963818" lon="-5.7551583834">
        <ele>710.07</ele>
        <time>2020-08-08T10:38:34Z</time>
      </trkpt>
      <trkpt lat="41.4305631816" lon="-5.7548675314">
        <ele>711.51</ele>
        <time>2020-08-08T10:38:42Z</time>
      </trkpt>
      <trkpt lat="41.4307700470" lon="-5.7548547909">
        <ele>711.99</ele>
        <time>2020-08-08T10:38:48Z</time>
      </trkpt>
      <trkpt lat="41.4311929978" lon="-5.7549412083">
        <ele>713.92</ele>
        <time>2020-08-08T10:39:00Z</time>
      </trkpt>
      <trkpt lat="41.4315686747" lon="-5.7550233509">
        <ele>714.40</ele>
        <time>2020-08-08T10:39:10Z</time>
      </trkpt>
      <trkpt lat="41.4319427591" lon="-5.7550650928">
        <ele>714.40</ele>
        <time>2020-08-08T10:39:20Z</time>
      </trkpt>
      <trkpt lat="41.4322857466" lon="-5.7550215907">
        <ele>714.40</ele>
        <time>2020-08-08T10:39:28Z</time>
      </trkpt>
      <trkpt lat="41.4327855594" lon="-5.7549203373">
        <ele>714.40</ele>
        <time>2020-08-08T10:39:39Z</time>
      </trkpt>
      <trkpt lat="41.4332269505" lon="-5.7548196707">
        <ele>714.88</ele>
        <time>2020-08-08T10:39:49Z</time>
      </trkpt>
      <trkpt lat="41.4337499812" lon="-5.7547014859">
        <ele>713.92</ele>
        <time>2020-08-08T10:40:00Z</time>
      </trkpt>
      <trkpt lat="41.4342451841" lon="-5.7545891684">
        <ele>713.92</ele>
        <time>2020-08-08T10:40:10Z</time>
      </trkpt>
      <trkpt lat="41.4349410497" lon="-5.7544387970">
        <ele>714.40</ele>
        <time>2020-08-08T10:40:24Z</time>
      </trkpt>
      <trkpt lat="41.4355354942" lon="-5.7543120626">
        <ele>714.40</ele>
        <time>2020-08-08T10:40:36Z</time>
      </trkpt>
      <trkpt lat="41.4361957368" lon="-5.7541750185">
        <ele>713.92</ele>
        <time>2020-08-08T10:40:50Z</time>
      </trkpt>
      <trkpt lat="41.4366602618" lon="-5.7540713344">
        <ele>713.44</ele>
        <time>2020-08-08T10:41:00Z</time>
      </trkpt>
      <trkpt lat="41.4370325860" lon="-5.7539877668">
        <ele>713.92</ele>
        <time>2020-08-08T10:41:08Z</time>
      </trkpt>
      <trkpt lat="41.4375549462" lon="-5.7538768742">
        <ele>714.40</ele>
        <time>2020-08-08T10:41:19Z</time>
      </trkpt>
      <trkpt lat="41.4380333014" lon="-5.7537752017">
        <ele>713.44</ele>
        <time>2020-08-08T10:41:29Z</time>
      </trkpt>
      <trkpt lat="41.4384312741" lon="-5.7536902931">
        <ele>711.51</ele>
        <time>2020-08-08T10:41:36Z</time>
      </trkpt>
      <trkpt lat="41.4389864076" lon="-5.7535717729">
        <ele>708.63</ele>
        <time>2020-08-08T10:41:44Z</time>
      </trkpt>
      <trkpt lat="41.4395733085" lon="-5.7534365728">
        <ele>707.19</ele>
        <time>2020-08-08T10:41:52Z</time>
      </trkpt>
      <trkpt lat="41.4399380889" lon="-5.7533545978">
        <ele>708.63</ele>
        <time>2020-08-08T10:41:59Z</time>
      </trkpt>
      <trkpt lat="41.4402056392" lon="-5.7532993611">
        <ele>710.07</ele>
        <time>2020-08-08T10:42:05Z</time>
      </trkpt>
      <trkpt lat="41.4406216331" lon="-5.7532068249">
        <ele>712.95</ele>
        <time>2020-08-08T10:42:15Z</time>
      </trkpt>
      <trkpt lat="41.4411075320" lon="-5.7531019673">
        <ele>713.44</ele>
        <time>2020-08-08T10:42:26Z</time>
      </trkpt>
      <trkpt lat="41.4415805228" lon="-5.7530030608">
        <ele>713.44</ele>
        <time>2020-08-08T10:42:36Z</time>
      </trkpt>
      <trkpt lat="41.4421027154" lon="-5.7528839540">
        <ele>713.44</ele>
        <time>2020-08-08T10:42:47Z</time>
      </trkpt>
      <trkpt lat="41.4425999299" lon="-5.7527783420">
        <ele>713.44</ele>
        <time>2020-08-08T10:42:58Z</time>
      </trkpt>
      <trkpt lat="41.4430901036" lon="-5.7526765019">
        <ele>712.95</ele>
        <time>2020-08-08T10:43:09Z</time>
      </trkpt>
      <trkpt lat="41.4435920957" lon="-5.7525634300">
        <ele>713.44</ele>
        <time>2020-08-08T10:43:20Z</time>
      </trkpt>
      <trkpt lat="41.4441587124" lon="-5.7524428144">
        <ele>712.95</ele>
        <time>2020-08-08T10:43:32Z</time>
      </trkpt>
      <trkpt lat="41.4447762910" lon="-5.7523074467">
        <ele>712.95</ele>
        <time>2020-08-08T10:43:45Z</time>
      </trkpt>
      <trkpt lat="41.4452585019" lon="-5.7522058580">
        <ele>713.44</ele>
        <time>2020-08-08T10:43:55Z</time>
      </trkpt>
      <trkpt lat="41.4457987156" lon="-5.7520732563">
        <ele>713.44</ele>
        <time>2020-08-08T10:44:07Z</time>
      </trkpt>
      <trkpt lat="41.4462895598" lon="-5.7519247290">
        <ele>714.40</ele>
        <time>2020-08-08T10:44:18Z</time>
      </trkpt>
      <trkpt lat="41.4467279334" lon="-5.7517806441">
        <ele>714.88</ele>
        <time>2020-08-08T10:44:28Z</time>
      </trkpt>
      <trkpt lat="41.4467729442" lon="-5.7517658919">
        <ele>714.88</ele>
        <time>2020-08-08T10:44:29Z</time>
      </trkpt>
      <trkpt lat="41.4468151890" lon="-5.7517508045">
        <ele>714.88</ele>
        <time>2020-08-08T10:44:30Z</time>
      </trkpt>
      <trkpt lat="41.4472602680" lon="-5.7516166940">
        <ele>715.36</ele>
        <time>2020-08-08T10:44:40Z</time>
      </trkpt>
      <trkpt lat="41.4478980470" lon="-5.7514123432">
        <ele>714.88</ele>
        <time>2020-08-08T10:44:55Z</time>
      </trkpt>
      <trkpt lat="41.4484251011" lon="-5.7512397598">
        <ele>714.40</ele>
        <time>2020-08-08T10:45:07Z</time>
      </trkpt>
      <trkpt lat="41.4489103295" lon="-5.7510869578">
        <ele>714.40</ele>
        <time>2020-08-08T10:45:18Z</time>
      </trkpt>
      <trkpt lat="41.4494543150" lon="-5.7509167213">
        <ele>713.92</ele>
        <time>2020-08-08T10:45:30Z</time>
      </trkpt>
      <trkpt lat="41.4499975462" lon="-5.7507422101">
        <ele>713.44</ele>
        <time>2020-08-08T10:45:42Z</time>
      </trkpt>
      <trkpt lat="41.4505406097" lon="-5.7505683694">
        <ele>713.92</ele>
        <time>2020-08-08T10:45:54Z</time>
      </trkpt>
      <trkpt lat="41.4510966651" lon="-5.7503937744">
        <ele>714.40</ele>
        <time>2020-08-08T10:46:06Z</time>
      </trkpt>
      <trkpt lat="41.4515768643" lon="-5.7502637710">
        <ele>714.88</ele>
        <time>2020-08-08T10:46:17Z</time>
      </trkpt>
      <trkpt lat="41.4521006495" lon="-5.7501601707">
        <ele>714.40</ele>
        <time>2020-08-08T10:46:28Z</time>
      </trkpt>
      <trkpt lat="41.4525266178" lon="-5.7500719931">
        <ele>714.40</ele>
        <time>2020-08-08T10:46:37Z</time>
      </trkpt>
      <trkpt lat="41.4530836791" lon="-5.7499460969">
        <ele>714.40</ele>
        <time>2020-08-08T10:46:49Z</time>
      </trkpt>
      <trkpt lat="41.4536348730" lon="-5.7497994136">
        <ele>713.44</ele>
        <time>2020-08-08T10:47:00Z</time>
      </trkpt>
      <trkpt lat="41.4541486837" lon="-5.7495805621">
        <ele>712.95</ele>
        <time>2020-08-08T10:47:10Z</time>
      </trkpt>
      <trkpt lat="41.4547609817" lon="-5.7492938172">
        <ele>711.51</ele>
        <time>2020-08-08T10:47:22Z</time>
      </trkpt>
      <trkpt lat="41.4552498981" lon="-5.7490633149">
        <ele>710.07</ele>
        <time>2020-08-08T10:47:32Z</time>
      </trkpt>
      <trkpt lat="41.4557457715" lon="-5.7487784978">
        <ele>708.63</ele>
        <time>2020-08-08T10:47:42Z</time>
      </trkpt>
      <trkpt lat="41.4562087040" lon="-5.7484025694">
        <ele>705.75</ele>
        <time>2020-08-08T10:47:50Z</time>
      </trkpt>
      <trkpt lat="41.4568698686" lon="-5.7478447538">
        <ele>702.38</ele>
        <time>2020-08-08T10:48:00Z</time>
      </trkpt>
      <trkpt lat="41.4575686678" lon="-5.7472781371">
        <ele>699.02</ele>
        <time>2020-08-08T10:48:10Z</time>
      </trkpt>
      <trkpt lat="41.4582481049" lon="-5.7468013745">
        <ele>696.61</ele>
        <time>2020-08-08T10:48:20Z</time>
      </trkpt>
      <trkpt lat="41.4588868059" lon="-5.7464388572">
        <ele>694.21</ele>
        <time>2020-08-08T10:48:28Z</time>
      </trkpt>
      <trkpt lat="41.4595866948" lon="-5.7461854722">
        <ele>689.88</ele>
        <time>2020-08-08T10:48:36Z</time>
      </trkpt>
      <trkpt lat="41.4604182635" lon="-5.7460639346">
        <ele>685.56</ele>
        <time>2020-08-08T10:48:45Z</time>
      </trkpt>
      <trkpt lat="41.4609833714" lon="-5.7458742522">
        <ele>682.19</ele>
        <time>2020-08-08T10:48:51Z</time>
      </trkpt>
      <trkpt lat="41.4617990144" lon="-5.7453681529">
        <ele>679.31</ele>
        <time>2020-08-08T10:49:00Z</time>
      </trkpt>
      <trkpt lat="41.4624194428" lon="-5.7449603733">
        <ele>677.87</ele>
        <time>2020-08-08T10:49:08Z</time>
      </trkpt>
      <trkpt lat="41.4632255305" lon="-5.7444370072">
        <ele>674.98</ele>
        <time>2020-08-08T10:49:19Z</time>
      </trkpt>
      <trkpt lat="41.4639625512" lon="-5.7439507730">
        <ele>672.10</ele>
        <time>2020-08-08T10:49:29Z</time>
      </trkpt>
      <trkpt lat="41.4646797907" lon="-5.7434771955">
        <ele>670.66</ele>
        <time>2020-08-08T10:49:39Z</time>
      </trkpt>
      <trkpt lat="41.4651108719" lon="-5.7431959826">
        <ele>670.66</ele>
        <time>2020-08-08T10:49:47Z</time>
      </trkpt>
      <trkpt lat="41.4656612277" lon="-5.7428353932">
        <ele>668.25</ele>
        <time>2020-08-08T10:49:58Z</time>
      </trkpt>
      <trkpt lat="41.4661483839" lon="-5.7425108459">
        <ele>667.29</ele>
        <time>2020-08-08T10:50:07Z</time>
      </trkpt>
      <trkpt lat="41.4667785354" lon="-5.7421037368">
        <ele>666.33</ele>
        <time>2020-08-08T10:50:19Z</time>
      </trkpt>
      <trkpt lat="41.4673650172" lon="-5.7417218573">
        <ele>665.85</ele>
        <time>2020-08-08T10:50:30Z</time>
      </trkpt>
      <trkpt lat="41.4678954240" lon="-5.7413788699">
        <ele>666.81</ele>
        <time>2020-08-08T10:50:41Z</time>
      </trkpt>
      <trkpt lat="41.4683160279" lon="-5.7411015965">
        <ele>667.77</ele>
        <time>2020-08-08T10:50:50Z</time>
      </trkpt>
      <trkpt lat="41.4687031042" lon="-5.7408421766">
        <ele>667.29</ele>
        <time>2020-08-08T10:50:58Z</time>
      </trkpt>
      <trkpt lat="41.4691453334" lon="-5.7405603770">
        <ele>666.81</ele>
        <time>2020-08-08T10:51:07Z</time>
      </trkpt>
      <trkpt lat="41.4695149753" lon="-5.7403219957">
        <ele>666.81</ele>
        <time>2020-08-08T10:51:15Z</time>
      </trkpt>
      <trkpt lat="41.4697723836" lon="-5.7401491608">
        <ele>666.33</ele>
        <time>2020-08-08T10:51:22Z</time>
      </trkpt>
      <trkpt lat="41.4698752295" lon="-5.7400469854">
        <ele>666.33</ele>
        <time>2020-08-08T10:51:25Z</time>
      </trkpt>
      <trkpt lat="41.4699461404" lon="-5.7399619929">
        <ele>666.33</ele>
        <time>2020-08-08T10:51:27Z</time>
      </trkpt>
      <trkpt lat="41.4699786622" lon="-5.7399379369">
        <ele>665.85</ele>
        <time>2020-08-08T10:51:28Z</time>
      </trkpt>
      <trkpt lat="41.4700238407" lon="-5.7399229333">
        <ele>665.85</ele>
        <time>2020-08-08T10:51:29Z</time>
      </trkpt>
      <trkpt lat="41.4700684324" lon="-5.7399209216">
        <ele>665.85</ele>
        <time>2020-08-08T10:51:30Z</time>
      </trkpt>
      <trkpt lat="41.4701187238" lon="-5.7399308123">
        <ele>665.37</ele>
        <time>2020-08-08T10:51:31Z</time>
      </trkpt>
      <trkpt lat="41.4701678418" lon="-5.7399460673">
        <ele>665.37</ele>
        <time>2020-08-08T10:51:32Z</time>
      </trkpt>
      <trkpt lat="41.4706316125" lon="-5.7399915811">
        <ele>662.49</ele>
        <time>2020-08-08T10:51:41Z</time>
      </trkpt>
      <trkpt lat="41.4711851534" lon="-5.7400112785">
        <ele>660.56</ele>
        <time>2020-08-08T10:51:50Z</time>
      </trkpt>
      <trkpt lat="41.4713830501" lon="-5.7399655972">
        <ele>660.08</ele>
        <time>2020-08-08T10:51:53Z</time>
      </trkpt>
      <trkpt lat="41.4714535419" lon="-5.7399312314">
        <ele>660.08</ele>
        <time>2020-08-08T10:51:54Z</time>
      </trkpt>
      <trkpt lat="41.4715128858" lon="-5.7398938481">
        <ele>660.08</ele>
        <time>2020-08-08T10:51:55Z</time>
      </trkpt>
      <trkpt lat="41.4715754148" lon="-5.7398433890">
        <ele>660.08</ele>
        <time>2020-08-08T10:51:56Z</time>
      </trkpt>
      <trkpt lat="41.4716278855" lon="-5.7397924270">
        <ele>660.08</ele>
        <time>2020-08-08T10:51:57Z</time>
      </trkpt>
      <trkpt lat="41.4716820326" lon="-5.7397325803">
        <ele>660.08</ele>
        <time>2020-08-08T10:51:58Z</time>
      </trkpt>
      <trkpt lat="41.4717281330" lon="-5.7396720629">
        <ele>660.08</ele>
        <time>2020-08-08T10:51:59Z</time>
      </trkpt>
      <trkpt lat="41.4717671927" lon="-5.7396135572">
        <ele>660.56</ele>
        <time>2020-08-08T10:52:00Z</time>
      </trkpt>
      <trkpt lat="41.4718086831" lon="-5.7395401318">
        <ele>660.56</ele>
        <time>2020-08-08T10:52:01Z</time>
      </trkpt>
      <trkpt lat="41.4718360081" lon="-5.7394784410">
        <ele>660.56</ele>
        <time>2020-08-08T10:52:02Z</time>
      </trkpt>
      <trkpt lat="41.4718519337" lon="-5.7394323405">
        <ele>660.56</ele>
        <time>2020-08-08T10:52:03Z</time>
      </trkpt>
      <trkpt lat="41.4718664344" lon="-5.7393772714">
        <ele>660.56</ele>
        <time>2020-08-08T10:52:04Z</time>
      </trkpt>
      <trkpt lat="41.4718751516" lon="-5.7393200230">
        <ele>660.56</ele>
        <time>2020-08-08T10:52:05Z</time>
      </trkpt>
      <trkpt lat="41.4718748163" lon="-5.7392733358">
        <ele>660.56</ele>
        <time>2020-08-08T10:52:06Z</time>
      </trkpt>
      <trkpt lat="41.4718695357" lon="-5.7392281573">
        <ele>660.56</ele>
        <time>2020-08-08T10:52:07Z</time>
      </trkpt>
      <trkpt lat="41.4718583040" lon="-5.7391823083">
        <ele>660.56</ele>
        <time>2020-08-08T10:52:08Z</time>
      </trkpt>
      <trkpt lat="41.4718397800" lon="-5.7391311787">
        <ele>661.04</ele>
        <time>2020-08-08T10:52:09Z</time>
      </trkpt>
      <trkpt lat="41.4718200825" lon="-5.7390837371">
        <ele>661.04</ele>
        <time>2020-08-08T10:52:10Z</time>
      </trkpt>
      <trkpt lat="41.4717904944" lon="-5.7390265726">
        <ele>661.04</ele>
        <time>2020-08-08T10:52:11Z</time>
      </trkpt>
      <trkpt lat="41.4716992155" lon="-5.7387911249">
        <ele>661.52</ele>
        <time>2020-08-08T10:52:15Z</time>
      </trkpt>
      <trkpt lat="41.4716882352" lon="-5.7387202978">
        <ele>661.52</ele>
        <time>2020-08-08T10:52:16Z</time>
      </trkpt>
      <trkpt lat="41.4716856368" lon="-5.7386691682">
        <ele>662.01</ele>
        <time>2020-08-08T10:52:17Z</time>
      </trkpt>
      <trkpt lat="41.4716860559" lon="-5.7386078127">
        <ele>662.01</ele>
        <time>2020-08-08T10:52:18Z</time>
      </trkpt>
      <trkpt lat="41.4716920909" lon="-5.7385469601">
        <ele>662.01</ele>
        <time>2020-08-08T10:52:19Z</time>
      </trkpt>
      <trkpt lat="41.4717031550" lon="-5.7384812459">
        <ele>662.01</ele>
        <time>2020-08-08T10:52:20Z</time>
      </trkpt>
      <trkpt lat="41.4717204217" lon="-5.7384197228">
        <ele>662.01</ele>
        <time>2020-08-08T10:52:21Z</time>
      </trkpt>
      <trkpt lat="41.4717455674" lon="-5.7383613009">
        <ele>662.01</ele>
        <time>2020-08-08T10:52:22Z</time>
      </trkpt>
      <trkpt lat="41.4717801008" lon="-5.7383024599">
        <ele>662.01</ele>
        <time>2020-08-08T10:52:23Z</time>
      </trkpt>
      <trkpt lat="41.4718169812" lon="-5.7382549345">
        <ele>662.01</ele>
        <time>2020-08-08T10:52:24Z</time>
      </trkpt>
      <trkpt lat="41.4718623273" lon="-5.7382134441">
        <ele>661.52</ele>
        <time>2020-08-08T10:52:25Z</time>
      </trkpt>
      <trkpt lat="41.4719074219" lon="-5.7381837722">
        <ele>661.52</ele>
        <time>2020-08-08T10:52:26Z</time>
      </trkpt>
      <trkpt lat="41.4719619043" lon="-5.7381581236">
        <ele>661.52</ele>
        <time>2020-08-08T10:52:27Z</time>
      </trkpt>
      <trkpt lat="41.4720094297" lon="-5.7381427009">
        <ele>661.52</ele>
        <time>2020-08-08T10:52:28Z</time>
      </trkpt>
      <trkpt lat="41.4720656723" lon="-5.7381363306">
        <ele>661.04</ele>
        <time>2020-08-08T10:52:29Z</time>
      </trkpt>
      <trkpt lat="41.4721209090" lon="-5.7381406054">
        <ele>661.04</ele>
        <time>2020-08-08T10:52:30Z</time>
      </trkpt>
      <trkpt lat="41.4721781574" lon="-5.7381569501">
        <ele>660.56</ele>
        <time>2020-08-08T10:52:31Z</time>
      </trkpt>
      <trkpt lat="41.4722266886" lon="-5.7381839398">
        <ele>660.56</ele>
        <time>2020-08-08T10:52:32Z</time>
      </trkpt>
      <trkpt lat="41.4722811710" lon="-5.7382260170">
        <ele>660.08</ele>
        <time>2020-08-08T10:52:33Z</time>
      </trkpt>
      <trkpt lat="41.4723259304" lon="-5.7382705249">
        <ele>660.08</ele>
        <time>2020-08-08T10:52:34Z</time>
      </trkpt>
      <trkpt lat="41.4723733719" lon="-5.7383302040">
        <ele>660.08</ele>
        <time>2020-08-08T10:52:35Z</time>
      </trkpt>
      <trkpt lat="41.4724105876" lon="-5.7383865304">
        <ele>659.60</ele>
        <time>2020-08-08T10:52:36Z</time>
      </trkpt>
      <trkpt lat="41.4724473841" lon="-5.7384566031">
        <ele>659.60</ele>
        <time>2020-08-08T10:52:37Z</time>
      </trkpt>
      <trkpt lat="41.4724690095" lon="-5.7385006920">
        <ele>659.12</ele>
        <time>2020-08-08T10:52:38Z</time>
      </trkpt>
      <trkpt lat="41.4725061413" lon="-5.7385650650">
        <ele>659.12</ele>
        <time>2020-08-08T10:52:39Z</time>
      </trkpt>
      <trkpt lat="41.4725481346" lon="-5.7386192959">
        <ele>659.12</ele>
        <time>2020-08-08T10:52:40Z</time>
      </trkpt>
      <trkpt lat="41.4726089034" lon="-5.7386768796">
        <ele>658.64</ele>
        <time>2020-08-08T10:52:41Z</time>
      </trkpt>
      <trkpt lat="41.4726487175" lon="-5.7387052104">
        <ele>658.64</ele>
        <time>2020-08-08T10:52:42Z</time>
      </trkpt>
      <trkpt lat="41.4727105759" lon="-5.7387407497">
        <ele>658.16</ele>
        <time>2020-08-08T10:52:43Z</time>
      </trkpt>
      <trkpt lat="41.4727654774" lon="-5.7387643866">
        <ele>658.16</ele>
        <time>2020-08-08T10:52:44Z</time>
      </trkpt>
      <trkpt lat="41.4728240669" lon="-5.7387844194">
        <ele>657.68</ele>
        <time>2020-08-08T10:52:45Z</time>
      </trkpt>
      <trkpt lat="41.4735611714" lon="-5.7390282489">
        <ele>655.28</ele>
        <time>2020-08-08T10:52:57Z</time>
      </trkpt>
      <trkpt lat="41.4743986912" lon="-5.7393142395">
        <ele>653.35</ele>
        <time>2020-08-08T10:53:10Z</time>
      </trkpt>
      <trkpt lat="41.4748428483" lon="-5.7394676283">
        <ele>652.39</ele>
        <time>2020-08-08T10:53:18Z</time>
      </trkpt>
      <trkpt lat="41.4748594444" lon="-5.7394699752">
        <ele>652.87</ele>
        <time>2020-08-08T10:53:22Z</time>
      </trkpt>
      <trkpt lat="41.4748535771" lon="-5.7394681312">
        <ele>652.87</ele>
        <time>2020-08-08T10:53:40Z</time>
      </trkpt>
      <trkpt lat="41.4748571813" lon="-5.7394696400">
        <ele>653.35</ele>
        <time>2020-08-08T10:53:55Z</time>
      </trkpt>
      <trkpt lat="41.4748586901" lon="-5.7394756749">
        <ele>653.83</ele>
        <time>2020-08-08T10:54:15Z</time>
      </trkpt>
      <trkpt lat="41.4748566784" lon="-5.7394787762">
        <ele>653.83</ele>
        <time>2020-08-08T10:54:36Z</time>
      </trkpt>
      <trkpt lat="41.4748490509" lon="-5.7394735795">
        <ele>653.35</ele>
        <time>2020-08-08T10:54:56Z</time>
      </trkpt>
      <trkpt lat="41.4748479612" lon="-5.7394709811">
        <ele>653.35</ele>
        <time>2020-08-08T10:55:10Z</time>
      </trkpt>
      <trkpt lat="41.4748479612" lon="-5.7394693047">
        <ele>653.35</ele>
        <time>2020-08-08T10:55:23Z</time>
      </trkpt>
      <trkpt lat="41.4748485480" lon="-5.7394721545">
        <ele>652.87</ele>
        <time>2020-08-08T10:55:34Z</time>
      </trkpt>
      <trkpt lat="41.4748512302" lon="-5.7394714840">
        <ele>652.39</ele>
        <time>2020-08-08T10:55:51Z</time>
      </trkpt>
      <trkpt lat="41.4748558402" lon="-5.7394709811">
        <ele>652.39</ele>
        <time>2020-08-08T10:56:06Z</time>
      </trkpt>
      <trkpt lat="41.4748555887" lon="-5.7394698076">
        <ele>652.87</ele>
        <time>2020-08-08T10:56:24Z</time>
      </trkpt>
      <trkpt lat="41.4748783875" lon="-5.7394847274">
        <ele>652.87</ele>
        <time>2020-08-08T10:56:38Z</time>
      </trkpt>
      <trkpt lat="41.4750398230" lon="-5.7395463344">
        <ele>652.87</ele>
        <time>2020-08-08T10:56:44Z</time>
      </trkpt>
      <trkpt lat="41.4753227122" lon="-5.7396387029">
        <ele>652.39</ele>
        <time>2020-08-08T10:56:51Z</time>
      </trkpt>
      <trkpt lat="41.4760330785" lon="-5.7398725580">
        <ele>650.95</ele>
        <time>2020-08-08T10:57:05Z</time>
      </trkpt>
      <trkpt lat="41.4766580332" lon="-5.7400750648">
        <ele>649.99</ele>
        <time>2020-08-08T10:57:16Z</time>
      </trkpt>
      <trkpt lat="41.4772433415" lon="-5.7402635738">
        <ele>649.51</ele>
        <time>2020-08-08T10:57:26Z</time>
      </trkpt>
      <trkpt lat="41.4773643762" lon="-5.7403110992">
        <ele>649.51</ele>
        <time>2020-08-08T10:57:28Z</time>
      </trkpt>
      <trkpt lat="41.4779280592" lon="-5.7404592913">
        <ele>649.03</ele>
        <time>2020-08-08T10:57:38Z</time>
      </trkpt>
      <trkpt lat="41.4784340747" lon="-5.7406094950">
        <ele>649.03</ele>
        <time>2020-08-08T10:57:49Z</time>
      </trkpt>
      <trkpt lat="41.4784816839" lon="-5.7406326290">
        <ele>649.03</ele>
        <time>2020-08-08T10:57:50Z</time>
      </trkpt>
      <trkpt lat="41.4789226558" lon="-5.7408130076">
        <ele>649.03</ele>
        <time>2020-08-08T10:57:58Z</time>
      </trkpt>
      <trkpt lat="41.4795685653" lon="-5.7410021033">
        <ele>648.55</ele>
        <time>2020-08-08T10:58:09Z</time>
      </trkpt>
      <trkpt lat="41.4801973756" lon="-5.7411660533">
        <ele>647.59</ele>
        <time>2020-08-08T10:58:20Z</time>
      </trkpt>
      <trkpt lat="41.4807604719" lon="-5.7411847450">
        <ele>647.59</ele>
        <time>2020-08-08T10:58:30Z</time>
      </trkpt>
      <trkpt lat="41.4812791441" lon="-5.7411647961">
        <ele>648.07</ele>
        <time>2020-08-08T10:58:39Z</time>
      </trkpt>
      <trkpt lat="41.4819067810" lon="-5.7410489582">
        <ele>648.07</ele>
        <time>2020-08-08T10:58:50Z</time>
      </trkpt>
      <trkpt lat="41.4824959449" lon="-5.7408591080">
        <ele>649.03</ele>
        <time>2020-08-08T10:59:01Z</time>
      </trkpt>
      <trkpt lat="41.4830063190" lon="-5.7406136859">
        <ele>649.03</ele>
        <time>2020-08-08T10:59:11Z</time>
      </trkpt>
      <trkpt lat="41.4834511466" lon="-5.7403255999">
        <ele>649.51</ele>
        <time>2020-08-08T10:59:20Z</time>
      </trkpt>
      <trkpt lat="41.4839732554" lon="-5.7399376016">
        <ele>649.03</ele>
        <time>2020-08-08T10:59:31Z</time>
      </trkpt>
      <trkpt lat="41.4844408818" lon="-5.7395839691">
        <ele>649.03</ele>
        <time>2020-08-08T10:59:41Z</time>
      </trkpt>
      <trkpt lat="41.4849085081" lon="-5.7392232120">
        <ele>649.03</ele>
        <time>2020-08-08T10:59:51Z</time>
      </trkpt>
      <trkpt lat="41.4854748733" lon="-5.7387916278">
        <ele>648.55</ele>
        <time>2020-08-08T11:00:03Z</time>
      </trkpt>
      <trkpt lat="41.4859290887" lon="-5.7384400908">
        <ele>648.07</ele>
        <time>2020-08-08T11:00:13Z</time>
      </trkpt>
      <trkpt lat="41.4864622615" lon="-5.7380346581">
        <ele>647.10</ele>
        <time>2020-08-08T11:00:25Z</time>
      </trkpt>
      <trkpt lat="41.4869519323" lon="-5.7376635075">
        <ele>646.14</ele>
        <time>2020-08-08T11:00:36Z</time>
      </trkpt>
      <trkpt lat="41.4873375837" lon="-5.7373710629">
        <ele>646.14</ele>
        <time>2020-08-08T11:00:45Z</time>
      </trkpt>
      <trkpt lat="41.4877246600" lon="-5.7370747626">
        <ele>645.18</ele>
        <time>2020-08-08T11:00:54Z</time>
      </trkpt>
      <trkpt lat="41.4882918634" lon="-5.7366294321">
        <ele>644.70</ele>
        <time>2020-08-08T11:01:07Z</time>
      </trkpt>
      <trkpt lat="41.4888191689" lon="-5.7362304535">
        <ele>643.74</ele>
        <time>2020-08-08T11:01:19Z</time>
      </trkpt>
      <trkpt lat="41.4892641641" lon="-5.7358902320">
        <ele>643.26</ele>
        <time>2020-08-08T11:01:29Z</time>
      </trkpt>
      <trkpt lat="41.4898037910" lon="-5.7354687899">
        <ele>643.26</ele>
        <time>2020-08-08T11:01:41Z</time>
      </trkpt>
      <trkpt lat="41.4901939686" lon="-5.7351508643">
        <ele>642.78</ele>
        <time>2020-08-08T11:01:50Z</time>
      </trkpt>
      <trkpt lat="41.4905859903" lon="-5.7348438352">
        <ele>642.30</ele>
        <time>2020-08-08T11:02:00Z</time>
      </trkpt>
      <trkpt lat="41.4909241162" lon="-5.7346259896">
        <ele>642.30</ele>
        <time>2020-08-08T11:02:07Z</time>
      </trkpt>
      <trkpt lat="41.4913793374" lon="-5.7342671603">
        <ele>641.82</ele>
        <time>2020-08-08T11:02:16Z</time>
      </trkpt>
      <trkpt lat="41.4918477181" lon="-5.7339118514">
        <ele>641.82</ele>
        <time>2020-08-08T11:02:26Z</time>
      </trkpt>
      <trkpt lat="41.4923461061" lon="-5.7335303910">
        <ele>640.86</ele>
        <time>2020-08-08T11:02:37Z</time>
      </trkpt>
      <trkpt lat="41.4927475154" lon="-5.7332228590">
        <ele>640.86</ele>
        <time>2020-08-08T11:02:46Z</time>
      </trkpt>
      <trkpt lat="41.4929575659" lon="-5.7330455817">
        <ele>640.38</ele>
        <time>2020-08-08T11:02:51Z</time>
      </trkpt>
      <trkpt lat="41.4931206778" lon="-5.7328774408">
        <ele>639.89</ele>
        <time>2020-08-08T11:02:55Z</time>
      </trkpt>
      <trkpt lat="41.4935641643" lon="-5.7325698249">
        <ele>639.89</ele>
        <time>2020-08-08T11:03:04Z</time>
      </trkpt>
      <trkpt lat="41.4941292722" lon="-5.7321625482">
        <ele>639.41</ele>
        <time>2020-08-08T11:03:16Z</time>
      </trkpt>
      <trkpt lat="41.4945766982" lon="-5.7318184711">
        <ele>638.93</ele>
        <time>2020-08-08T11:03:26Z</time>
      </trkpt>
      <trkpt lat="41.4949853998" lon="-5.7314976957">
        <ele>638.93</ele>
        <time>2020-08-08T11:03:35Z</time>
      </trkpt>
      <trkpt lat="41.4954365138" lon="-5.7311574742">
        <ele>638.93</ele>
        <time>2020-08-08T11:03:45Z</time>
      </trkpt>
      <trkpt lat="41.4959830139" lon="-5.7307359483">
        <ele>639.41</ele>
        <time>2020-08-08T11:03:57Z</time>
      </trkpt>
      <trkpt lat="41.4964819048" lon="-5.7303588465">
        <ele>638.93</ele>
        <time>2020-08-08T11:04:08Z</time>
      </trkpt>
      <trkpt lat="41.4969719946" lon="-5.7300019450">
        <ele>638.93</ele>
        <time>2020-08-08T11:04:19Z</time>
      </trkpt>
      <trkpt lat="41.4974206779" lon="-5.7297135238">
        <ele>638.93</ele>
        <time>2020-08-08T11:04:29Z</time>
      </trkpt>
      <trkpt lat="41.4979034755" lon="-5.7294997852">
        <ele>639.41</ele>
        <time>2020-08-08T11:04:39Z</time>
      </trkpt>
      <trkpt lat="41.4985954016" lon="-5.7293184847">
        <ele>638.93</ele>
        <time>2020-08-08T11:04:53Z</time>
      </trkpt>
      <trkpt lat="41.4991242159" lon="-5.7292743959">
        <ele>639.41</ele>
        <time>2020-08-08T11:05:04Z</time>
      </trkpt>
      <trkpt lat="41.4997355919" lon="-5.7293173112">
        <ele>639.41</ele>
        <time>2020-08-08T11:05:17Z</time>
      </trkpt>
      <trkpt lat="41.5002879594" lon="-5.7294527628">
        <ele>639.41</ele>
        <time>2020-08-08T11:05:29Z</time>
      </trkpt>
      <trkpt lat="41.5007686615" lon="-5.7296437863">
        <ele>638.93</ele>
        <time>2020-08-08T11:05:40Z</time>
      </trkpt>
      <trkpt lat="41.5011580847" lon="-5.7298536692">
        <ele>639.89</ele>
        <time>2020-08-08T11:05:50Z</time>
      </trkpt>
      <trkpt lat="41.5015476756" lon="-5.7300628815">
        <ele>640.86</ele>
        <time>2020-08-08T11:06:01Z</time>
      </trkpt>
      <trkpt lat="41.5018988773" lon="-5.7302512228">
        <ele>641.34</ele>
        <time>2020-08-08T11:06:11Z</time>
      </trkpt>
      <trkpt lat="41.5023308806" lon="-5.7304823119">
        <ele>640.86</ele>
        <time>2020-08-08T11:06:22Z</time>
      </trkpt>
      <trkpt lat="41.5026900452" lon="-5.7306646183">
        <ele>640.86</ele>
        <time>2020-08-08T11:06:31Z</time>
      </trkpt>
      <trkpt lat="41.5031011775" lon="-5.7308853976">
        <ele>639.89</ele>
        <time>2020-08-08T11:06:41Z</time>
      </trkpt>
      <trkpt lat="41.5036548022" lon="-5.7311687898">
        <ele>639.41</ele>
        <time>2020-08-08T11:06:53Z</time>
      </trkpt>
      <trkpt lat="41.5040870570" lon="-5.7313936763">
        <ele>640.38</ele>
        <time>2020-08-08T11:07:03Z</time>
      </trkpt>
      <trkpt lat="41.5044411924" lon="-5.7315757312">
        <ele>640.86</ele>
        <time>2020-08-08T11:07:12Z</time>
      </trkpt>
      <trkpt lat="41.5047514904" lon="-5.7317354903">
        <ele>641.82</ele>
        <time>2020-08-08T11:07:22Z</time>
      </trkpt>
      <trkpt lat="41.5048273467" lon="-5.7317780703">
        <ele>642.30</ele>
        <time>2020-08-08T11:07:28Z</time>
      </trkpt>
      <trkpt lat="41.5048301127" lon="-5.7317725383">
        <ele>642.78</ele>
        <time>2020-08-08T11:07:35Z</time>
      </trkpt>
      <trkpt lat="41.5048300289" lon="-5.7317691855">
        <ele>642.30</ele>
        <time>2020-08-08T11:07:53Z</time>
      </trkpt>
      <trkpt lat="41.5048503131" lon="-5.7317787409">
        <ele>641.82</ele>
        <time>2020-08-08T11:08:02Z</time>
      </trkpt>
      <trkpt lat="41.5050011873" lon="-5.7318318821">
        <ele>643.26</ele>
        <time>2020-08-08T11:08:08Z</time>
      </trkpt>
      <trkpt lat="41.5052436758" lon="-5.7318662480">
        <ele>646.14</ele>
        <time>2020-08-08T11:08:16Z</time>
      </trkpt>
      <trkpt lat="41.5052637085" lon="-5.7318887953">
        <ele>646.14</ele>
        <time>2020-08-08T11:08:21Z</time>
      </trkpt>
      <trkpt lat="41.5052569192" lon="-5.7318857778">
        <ele>645.66</ele>
        <time>2020-08-08T11:08:40Z</time>
      </trkpt>
      <trkpt lat="41.5052539017" lon="-5.7318902202">
        <ele>645.66</ele>
        <time>2020-08-08T11:08:56Z</time>
      </trkpt>
      <trkpt lat="41.5053045284" lon="-5.7320187986">
        <ele>645.66</ele>
        <time>2020-08-08T11:09:01Z</time>
      </trkpt>
      <trkpt lat="41.5052656364" lon="-5.7322438527">
        <ele>645.66</ele>
        <time>2020-08-08T11:09:06Z</time>
      </trkpt>
      <trkpt lat="41.5052043647" lon="-5.7324271649">
        <ele>644.70</ele>
        <time>2020-08-08T11:09:11Z</time>
      </trkpt>
      <trkpt lat="41.5052365512" lon="-5.7324818987">
        <ele>644.70</ele>
        <time>2020-08-08T11:09:16Z</time>
      </trkpt>
      <trkpt lat="41.5052935481" lon="-5.7323923800">
        <ele>646.14</ele>
        <time>2020-08-08T11:09:21Z</time>
      </trkpt>
      <trkpt lat="41.5053407382" lon="-5.7323982473">
        <ele>646.62</ele>
        <time>2020-08-08T11:09:23Z</time>
      </trkpt>
      <trkpt lat="41.5053697396" lon="-5.7324093953">
        <ele>647.10</ele>
        <time>2020-08-08T11:09:24Z</time>
      </trkpt>
      <trkpt lat="41.5053871740" lon="-5.7324177772">
        <ele>647.10</ele>
        <time>2020-08-08T11:09:25Z</time>
      </trkpt>
      <trkpt lat="41.5056187660" lon="-5.7325307652">
        <ele>649.51</ele>
        <time>2020-08-08T11:09:34Z</time>
      </trkpt>
      <trkpt lat="41.5058836341" lon="-5.7326618582">
        <ele>650.47</ele>
        <time>2020-08-08T11:09:43Z</time>
      </trkpt>
      <trkpt lat="41.5060434770" lon="-5.7327787019">
        <ele>650.47</ele>
        <time>2020-08-08T11:09:50Z</time>
      </trkpt>
      <trkpt lat="41.5061094426" lon="-5.7329291571">
        <ele>651.43</ele>
        <time>2020-08-08T11:09:56Z</time>
      </trkpt>
      <trkpt lat="41.5061724745" lon="-5.7330024987">
        <ele>651.43</ele>
        <time>2020-08-08T11:10:00Z</time>
      </trkpt>
      <trkpt lat="41.5062452294" lon="-5.7334167324">
        <ele>650.95</ele>
        <time>2020-08-08T11:10:11Z</time>
      </trkpt>
      <trkpt lat="41.5062969457" lon="-5.7337999530">
        <ele>652.39</ele>
        <time>2020-08-08T11:10:20Z</time>
      </trkpt>
      <trkpt lat="41.5063542780" lon="-5.7341966685">
        <ele>651.91</ele>
        <time>2020-08-08T11:10:29Z</time>
      </trkpt>
      <trkpt lat="41.5064082574" lon="-5.7346825674">
        <ele>651.43</ele>
        <time>2020-08-08T11:10:39Z</time>
      </trkpt>
      <trkpt lat="41.5065033920" lon="-5.7351298258">
        <ele>652.39</ele>
        <time>2020-08-08T11:10:48Z</time>
      </trkpt>
      <trkpt lat="41.5065660886" lon="-5.7355894893">
        <ele>653.35</ele>
        <time>2020-08-08T11:10:57Z</time>
      </trkpt>
      <trkpt lat="41.5066484828" lon="-5.7360488176">
        <ele>655.76</ele>
        <time>2020-08-08T11:11:07Z</time>
      </trkpt>
      <trkpt lat="41.5067166276" lon="-5.7361736242">
        <ele>657.20</ele>
        <time>2020-08-08T11:11:12Z</time>
      </trkpt>
      <trkpt lat="41.5068586171" lon="-5.7363151945">
        <ele>657.68</ele>
        <time>2020-08-08T11:11:18Z</time>
      </trkpt>
      <trkpt lat="41.5069011971" lon="-5.7365810685">
        <ele>657.68</ele>
        <time>2020-08-08T11:11:24Z</time>
      </trkpt>
      <trkpt lat="41.5069583617" lon="-5.7368661370">
        <ele>657.20</ele>
        <time>2020-08-08T11:11:30Z</time>
      </trkpt>
      <trkpt lat="41.5071570966" lon="-5.7371406443">
        <ele>657.68</ele>
        <time>2020-08-08T11:11:38Z</time>
      </trkpt>
      <trkpt lat="41.5073099826" lon="-5.7373476774">
        <ele>658.64</ele>
        <time>2020-08-08T11:11:46Z</time>
      </trkpt>
      <trkpt lat="41.5074415784" lon="-5.7375416346">
        <ele>660.56</ele>
        <time>2020-08-08T11:11:54Z</time>
      </trkpt>
      <trkpt lat="41.5075756889" lon="-5.7377443928">
        <ele>662.49</ele>
        <time>2020-08-08T11:12:04Z</time>
      </trkpt>
      <trkpt lat="41.5075802151" lon="-5.7377794292">
        <ele>663.45</ele>
        <time>2020-08-08T11:12:10Z</time>
      </trkpt>
      <trkpt lat="41.5075839870" lon="-5.7377896551">
        <ele>664.41</ele>
        <time>2020-08-08T11:12:24Z</time>
      </trkpt>
      <trkpt lat="41.5075807180" lon="-5.7377846260">
        <ele>666.33</ele>
        <time>2020-08-08T11:12:39Z</time>
      </trkpt>
      <trkpt lat="41.5075844899" lon="-5.7378241885">
        <ele>666.81</ele>
        <time>2020-08-08T11:12:52Z</time>
      </trkpt>
      <trkpt lat="41.5076875873" lon="-5.7379183173">
        <ele>669.22</ele>
        <time>2020-08-08T11:12:59Z</time>
      </trkpt>
      <trkpt lat="41.5078532975" lon="-5.7380683534">
        <ele>672.10</ele>
        <time>2020-08-08T11:13:07Z</time>
      </trkpt>
      <trkpt lat="41.5080156550" lon="-5.7382416073">
        <ele>672.10</ele>
        <time>2020-08-08T11:13:14Z</time>
      </trkpt>
      <trkpt lat="41.5081925131" lon="-5.7384686731">
        <ele>673.06</ele>
        <time>2020-08-08T11:13:22Z</time>
      </trkpt>
      <trkpt lat="41.5083681978" lon="-5.7387112454">
        <ele>674.98</ele>
        <time>2020-08-08T11:13:30Z</time>
      </trkpt>
      <trkpt lat="41.5085536893" lon="-5.7388410810">
        <ele>674.98</ele>
        <time>2020-08-08T11:13:36Z</time>
      </trkpt>
      <trkpt lat="41.5087129455" lon="-5.7387432642">
        <ele>673.54</ele>
        <time>2020-08-08T11:13:41Z</time>
      </trkpt>
      <trkpt lat="41.5089917276" lon="-5.7384017017">
        <ele>671.14</ele>
        <time>2020-08-08T11:13:50Z</time>
      </trkpt>
      <trkpt lat="41.5092588589" lon="-5.7380033936">
        <ele>668.73</ele>
        <time>2020-08-08T11:14:00Z</time>
      </trkpt>
      <trkpt lat="41.5095095616" lon="-5.7376593165">
        <ele>668.73</ele>
        <time>2020-08-08T11:14:11Z</time>
      </trkpt>
      <trkpt lat="41.5095930453" lon="-5.7375418860">
        <ele>667.77</ele>
        <time>2020-08-08T11:14:17Z</time>
      </trkpt>
      <trkpt lat="41.5096134134" lon="-5.7375433948">
        <ele>668.25</ele>
        <time>2020-08-08T11:14:19Z</time>
      </trkpt>
      <trkpt lat="41.5096226335" lon="-5.7375584822">
        <ele>668.25</ele>
        <time>2020-08-08T11:14:20Z</time>
      </trkpt>
      <trkpt lat="41.5096232202" lon="-5.7375749946">
        <ele>668.73</ele>
        <time>2020-08-08T11:14:21Z</time>
      </trkpt>
      <trkpt lat="41.5096211247" lon="-5.7375838794">
        <ele>668.73</ele>
        <time>2020-08-08T11:14:22Z</time>
      </trkpt>
      <trkpt lat="41.5096213762" lon="-5.7376004755">
        <ele>669.22</ele>
        <time>2020-08-08T11:14:23Z</time>
      </trkpt>
      <trkpt lat="41.5096199512" lon="-5.7376197539">
        <ele>669.22</ele>
        <time>2020-08-08T11:14:24Z</time>
      </trkpt>
      <trkpt lat="41.5096152574" lon="-5.7376469113">
        <ele>670.66</ele>
        <time>2020-08-08T11:14:29Z</time>
      </trkpt>
      <trkpt lat="41.5096050315" lon="-5.7376428880">
        <ele>671.62</ele>
        <time>2020-08-08T11:14:34Z</time>
      </trkpt>
      <trkpt lat="41.5095927101" lon="-5.7376070973">
        <ele>674.98</ele>
        <time>2020-08-08T11:14:48Z</time>
      </trkpt>
      <trkpt lat="41.5095975716" lon="-5.7376427203">
        <ele>677.87</ele>
        <time>2020-08-08T11:14:59Z</time>
      </trkpt>
      <trkpt lat="41.5096886829" lon="-5.7377749868">
        <ele>680.27</ele>
        <time>2020-08-08T11:15:04Z</time>
      </trkpt>
      <trkpt lat="41.5096932091" lon="-5.7377326582">
        <ele>684.60</ele>
        <time>2020-08-08T11:15:11Z</time>
      </trkpt>
      <trkpt lat="41.5097078774" lon="-5.7377459854">
        <ele>689.40</ele>
        <time>2020-08-08T11:15:18Z</time>
      </trkpt>
      <trkpt lat="41.5097269043" lon="-5.7377687003">
        <ele>691.81</ele>
        <time>2020-08-08T11:15:26Z</time>
      </trkpt>
      <trkpt lat="41.5097816382" lon="-5.7376929279">
        <ele>691.33</ele>
        <time>2020-08-08T11:15:32Z</time>
      </trkpt>
      <trkpt lat="41.5098199435" lon="-5.7376343384">
        <ele>690.36</ele>
        <time>2020-08-08T11:15:36Z</time>
      </trkpt>
      <trkpt lat="41.5098727494" lon="-5.7375302352">
        <ele>687.96</ele>
        <time>2020-08-08T11:15:44Z</time>
      </trkpt>
      <trkpt lat="41.5099319257" lon="-5.7374838833">
        <ele>681.71</ele>
        <time>2020-08-08T11:15:52Z</time>
      </trkpt>
      <trkpt lat="41.5099784452" lon="-5.7374511939">
        <ele>673.06</ele>
        <time>2020-08-08T11:16:04Z</time>
      </trkpt>
      <trkpt lat="41.5099833906" lon="-5.7373021636">
        <ele>662.97</ele>
        <time>2020-08-08T11:16:17Z</time>
      </trkpt>
      <trkpt lat="41.5099853184" lon="-5.7372687198">
        <ele>658.16</ele>
        <time>2020-08-08T11:16:27Z</time>
      </trkpt>
      <trkpt lat="41.5100023337" lon="-5.7372978888">
        <ele>654.31</ele>
        <time>2020-08-08T11:16:42Z</time>
      </trkpt>
      <trkpt lat="41.5099606756" lon="-5.7372647803">
        <ele>651.91</ele>
        <time>2020-08-08T11:16:55Z</time>
      </trkpt>
      <trkpt lat="41.5098287445" lon="-5.7371824700">
        <ele>651.91</ele>
        <time>2020-08-08T11:17:17Z</time>
      </trkpt>
      <trkpt lat="41.5098685585" lon="-5.7371808775">
        <ele>652.39</ele>
        <time>2020-08-08T11:17:31Z</time>
      </trkpt>
      <trkpt lat="41.5098944586" lon="-5.7371978089">
        <ele>651.43</ele>
        <time>2020-08-08T11:17:53Z</time>
      </trkpt>
      <trkpt lat="41.5099263098" lon="-5.7372458372">
        <ele>649.99</ele>
        <time>2020-08-08T11:18:13Z</time>
      </trkpt>
      <trkpt lat="41.5099745896" lon="-5.7372774370">
        <ele>648.55</ele>
        <time>2020-08-08T11:18:33Z</time>
      </trkpt>
      <trkpt lat="41.5099898446" lon="-5.7372451667">
        <ele>644.22</ele>
        <time>2020-08-08T11:18:56Z</time>
      </trkpt>
      <trkpt lat="41.5100205224" lon="-5.7371927798">
        <ele>646.14</ele>
        <time>2020-08-08T11:19:20Z</time>
      </trkpt>
      <trkpt lat="41.5100179240" lon="-5.7371547259">
        <ele>644.22</ele>
        <time>2020-08-08T11:19:39Z</time>
      </trkpt>
      <trkpt lat="41.5099538863" lon="-5.7371212821">
        <ele>645.18</ele>
        <time>2020-08-08T11:19:59Z</time>
      </trkpt>
      <trkpt lat="41.5098173451" lon="-5.7372140698">
        <ele>646.14</ele>
        <time>2020-08-08T11:20:27Z</time>
      </trkpt>
      <trkpt lat="41.5097756032" lon="-5.7372620981">
        <ele>649.99</ele>
        <time>2020-08-08T11:20:53Z</time>
      </trkpt>
      <trkpt lat="41.5098012518" lon="-5.7373419777">
        <ele>652.39</ele>
        <time>2020-08-08T11:21:14Z</time>
      </trkpt>
      <trkpt lat="41.5098479390" lon="-5.7373728231">
        <ele>654.31</ele>
        <time>2020-08-08T11:21:35Z</time>
      </trkpt>
      <trkpt lat="41.5098141599" lon="-5.7371975575">
        <ele>660.08</ele>
        <time>2020-08-08T11:21:57Z</time>
      </trkpt>
      <trkpt lat="41.5097652096" lon="-5.7371611800">
        <ele>669.22</ele>
        <time>2020-08-08T11:22:19Z</time>
      </trkpt>
      <trkpt lat="41.5098071191" lon="-5.7371232938">
        <ele>668.25</ele>
        <time>2020-08-08T11:22:38Z</time>
      </trkpt>
      <trkpt lat="41.5098740906" lon="-5.7371074520">
        <ele>668.25</ele>
        <time>2020-08-08T11:23:03Z</time>
      </trkpt>
      <trkpt lat="41.5098417364" lon="-5.7370858267">
        <ele>668.25</ele>
        <time>2020-08-08T11:23:21Z</time>
      </trkpt>
      <trkpt lat="41.5098818019" lon="-5.7371342741">
        <ele>666.81</ele>
        <time>2020-08-08T11:23:41Z</time>
      </trkpt>
      <trkpt lat="41.5099057741" lon="-5.7372136507">
        <ele>664.89</ele>
        <time>2020-08-08T11:24:01Z</time>
      </trkpt>
      <trkpt lat="41.5098807123" lon="-5.7373044267">
        <ele>661.04</ele>
        <time>2020-08-08T11:24:25Z</time>
      </trkpt>
      <trkpt lat="41.5098803770" lon="-5.7374281436">
        <ele>659.60</ele>
        <time>2020-08-08T11:24:50Z</time>
      </trkpt>
      <trkpt lat="41.5098077059" lon="-5.7374058478">
        <ele>660.08</ele>
        <time>2020-08-08T11:25:05Z</time>
      </trkpt>
      <trkpt lat="41.5097039379" lon="-5.7373048458">
        <ele>665.37</ele>
        <time>2020-08-08T11:25:25Z</time>
      </trkpt>
      <trkpt lat="41.5096973162" lon="-5.7372957096">
        <ele>667.77</ele>
        <time>2020-08-08T11:25:42Z</time>
      </trkpt>
      <trkpt lat="41.5098046046" lon="-5.7372436579">
        <ele>656.24</ele>
        <time>2020-08-08T11:26:01Z</time>
      </trkpt>
      <trkpt lat="41.5098420717" lon="-5.7373108808">
        <ele>652.39</ele>
        <time>2020-08-08T11:26:22Z</time>
      </trkpt>
      <trkpt lat="41.5098869987" lon="-5.7373421453">
        <ele>651.91</ele>
        <time>2020-08-08T11:26:36Z</time>
      </trkpt>
      <trkpt lat="41.5098656248" lon="-5.7373338472">
        <ele>653.35</ele>
        <time>2020-08-08T11:26:49Z</time>
      </trkpt>
      <trkpt lat="41.5098513756" lon="-5.7373341825">
        <ele>655.76</ele>
        <time>2020-08-08T11:27:03Z</time>
      </trkpt>
      <trkpt lat="41.5099386312" lon="-5.7376541197">
        <ele>658.16</ele>
        <time>2020-08-08T11:28:17Z</time>
      </trkpt>
      <trkpt lat="41.5100461710" lon="-5.7376751583">
        <ele>653.35</ele>
        <time>2020-08-08T11:28:30Z</time>
      </trkpt>
      <trkpt lat="41.5097912773" lon="-5.7375766709">
        <ele>657.68</ele>
        <time>2020-08-08T11:28:46Z</time>
      </trkpt>
      <trkpt lat="41.5097405668" lon="-5.7375330012">
        <ele>659.60</ele>
        <time>2020-08-08T11:29:03Z</time>
      </trkpt>
      <trkpt lat="41.5097419079" lon="-5.7375501841">
        <ele>661.52</ele>
        <time>2020-08-08T11:29:22Z</time>
      </trkpt>
      <trkpt lat="41.5097353701" lon="-5.7375456579">
        <ele>663.93</ele>
        <time>2020-08-08T11:29:45Z</time>
      </trkpt>
      <trkpt lat="41.5097424947" lon="-5.7374970429">
        <ele>662.01</ele>
        <time>2020-08-08T11:30:06Z</time>
      </trkpt>
      <trkpt lat="41.5097209532" lon="-5.7375254575">
        <ele>664.89</ele>
        <time>2020-08-08T11:30:29Z</time>
      </trkpt>
      <trkpt lat="41.5097378846" lon="-5.7375423051">
        <ele>664.41</ele>
        <time>2020-08-08T11:30:52Z</time>
      </trkpt>
      <trkpt lat="41.5097149182" lon="-5.7375703845">
        <ele>663.45</ele>
        <time>2020-08-08T11:31:14Z</time>
      </trkpt>
      <trkpt lat="41.5097079612" lon="-5.7375461608">
        <ele>668.73</ele>
        <time>2020-08-08T11:31:37Z</time>
      </trkpt>
      <trkpt lat="41.5096631180" lon="-5.7374769263">
        <ele>671.62</ele>
        <time>2020-08-08T11:31:52Z</time>
      </trkpt>
      <trkpt lat="41.5096462704" lon="-5.7374036685">
        <ele>672.58</ele>
        <time>2020-08-08T11:32:08Z</time>
      </trkpt>
      <trkpt lat="41.5096453484" lon="-5.7374253776">
        <ele>674.98</ele>
        <time>2020-08-08T11:32:24Z</time>
      </trkpt>
      <trkpt lat="41.5100453328" lon="-5.7376674470">
        <ele>675.46</ele>
        <time>2020-08-10T05:11:08Z</time>
      </trkpt>
      <trkpt lat="41.5100713167" lon="-5.7377179060">
        <ele>671.62</ele>
        <time>2020-08-10T05:11:22Z</time>
      </trkpt>
      <trkpt lat="41.5100704785" lon="-5.7377339154">
        <ele>669.22</ele>
        <time>2020-08-10T05:11:34Z</time>
      </trkpt>
      <trkpt lat="41.5100837220" lon="-5.7377308980">
        <ele>667.29</ele>
        <time>2020-08-10T05:11:40Z</time>
      </trkpt>
      <trkpt lat="41.5100416448" lon="-5.7376839593">
        <ele>670.66</ele>
        <time>2020-08-10T05:11:46Z</time>
      </trkpt>
      <trkpt lat="41.5100064408" lon="-5.7377411239">
        <ele>672.58</ele>
        <time>2020-08-10T05:11:51Z</time>
      </trkpt>
      <trkpt lat="41.5099330992" lon="-5.7378630806">
        <ele>674.98</ele>
        <time>2020-08-10T05:12:00Z</time>
      </trkpt>
      <trkpt lat="41.5099123120" lon="-5.7378367614">
        <ele>677.87</ele>
        <time>2020-08-10T05:12:05Z</time>
      </trkpt>
      <trkpt lat="41.5098452568" lon="-5.7378007192">
        <ele>682.19</ele>
        <time>2020-08-10T05:12:13Z</time>
      </trkpt>
      <trkpt lat="41.5098237991" lon="-5.7378370967">
        <ele>683.15</ele>
        <time>2020-08-10T05:12:19Z</time>
      </trkpt>
      <trkpt lat="41.5098048560" lon="-5.7378244400">
        <ele>685.08</ele>
        <time>2020-08-10T05:12:24Z</time>
      </trkpt>
      <trkpt lat="41.5097885951" lon="-5.7378336601">
        <ele>685.08</ele>
        <time>2020-08-10T05:12:30Z</time>
      </trkpt>
      <trkpt lat="41.5097002499" lon="-5.7377873920">
        <ele>683.15</ele>
        <time>2020-08-10T05:12:41Z</time>
      </trkpt>
      <trkpt lat="41.5096875932" lon="-5.7377733942">
        <ele>682.19</ele>
        <time>2020-08-10T05:12:42Z</time>
      </trkpt>
      <trkpt lat="41.5095807239" lon="-5.7378315646">
        <ele>674.50</ele>
        <time>2020-08-10T05:12:49Z</time>
      </trkpt>
      <trkpt lat="41.5094403271" lon="-5.7379966881">
        <ele>668.73</ele>
        <time>2020-08-10T05:12:57Z</time>
      </trkpt>
      <trkpt lat="41.5093270876" lon="-5.7381162141">
        <ele>668.25</ele>
        <time>2020-08-10T05:13:04Z</time>
      </trkpt>
      <trkpt lat="41.5091836732" lon="-5.7382188924">
        <ele>671.14</ele>
        <time>2020-08-10T05:13:11Z</time>
      </trkpt>
      <trkpt lat="41.5090231597" lon="-5.7384101674">
        <ele>672.10</ele>
        <time>2020-08-10T05:13:20Z</time>
      </trkpt>
      <trkpt lat="41.5088696033" lon="-5.7386472914">
        <ele>669.22</ele>
        <time>2020-08-10T05:13:28Z</time>
      </trkpt>
      <trkpt lat="41.5087365825" lon="-5.7388518099">
        <ele>667.29</ele>
        <time>2020-08-10T05:13:36Z</time>
      </trkpt>
      <trkpt lat="41.5087020490" lon="-5.7389083877">
        <ele>668.25</ele>
        <time>2020-08-10T05:13:40Z</time>
      </trkpt>
      <trkpt lat="41.5086929966" lon="-5.7390042767">
        <ele>668.25</ele>
        <time>2020-08-10T05:13:47Z</time>
      </trkpt>
      <trkpt lat="41.5085838642" lon="-5.7391082123">
        <ele>668.73</ele>
        <time>2020-08-10T05:13:54Z</time>
      </trkpt>
      <trkpt lat="41.5084315650" lon="-5.7392286602">
        <ele>668.25</ele>
        <time>2020-08-10T05:14:01Z</time>
      </trkpt>
      <trkpt lat="41.5082773380" lon="-5.7394162472">
        <ele>669.70</ele>
        <time>2020-08-10T05:14:08Z</time>
      </trkpt>
      <trkpt lat="41.5081078559" lon="-5.7396509405">
        <ele>672.10</ele>
        <time>2020-08-10T05:14:16Z</time>
      </trkpt>
      <trkpt lat="41.5079247113" lon="-5.7399014756">
        <ele>672.10</ele>
        <time>2020-08-10T05:14:24Z</time>
      </trkpt>
      <trkpt lat="41.5076707397" lon="-5.7402862050">
        <ele>670.66</ele>
        <time>2020-08-10T05:14:34Z</time>
      </trkpt>
      <trkpt lat="41.5074509662" lon="-5.7406084053">
        <ele>668.25</ele>
        <time>2020-08-10T05:14:44Z</time>
      </trkpt>
      <trkpt lat="41.5072370600" lon="-5.7408052124">
        <ele>666.81</ele>
        <time>2020-08-10T05:14:53Z</time>
      </trkpt>
      <trkpt lat="41.5071000997" lon="-5.7408716809">
        <ele>666.81</ele>
        <time>2020-08-10T05:14:59Z</time>
      </trkpt>
      <trkpt lat="41.5070192982" lon="-5.7409758680">
        <ele>666.33</ele>
        <time>2020-08-10T05:15:06Z</time>
      </trkpt>
      <trkpt lat="41.5069734491" lon="-5.7410611957">
        <ele>666.81</ele>
        <time>2020-08-10T05:15:10Z</time>
      </trkpt>
      <trkpt lat="41.5069714375" lon="-5.7410791330">
        <ele>666.81</ele>
        <time>2020-08-10T05:15:11Z</time>
      </trkpt>
      <trkpt lat="41.5069674142" lon="-5.7411005907">
        <ele>666.33</ele>
        <time>2020-08-10T05:15:12Z</time>
      </trkpt>
      <trkpt lat="41.5069687553" lon="-5.7411230542">
        <ele>665.85</ele>
        <time>2020-08-10T05:15:13Z</time>
      </trkpt>
      <trkpt lat="41.5069762990" lon="-5.7411456015">
        <ele>665.37</ele>
        <time>2020-08-10T05:15:14Z</time>
      </trkpt>
      <trkpt lat="41.5069846809" lon="-5.7411699928">
        <ele>664.89</ele>
        <time>2020-08-10T05:15:15Z</time>
      </trkpt>
      <trkpt lat="41.5069909673" lon="-5.7412663009">
        <ele>664.41</ele>
        <time>2020-08-10T05:15:19Z</time>
      </trkpt>
      <trkpt lat="41.5068937372" lon="-5.7413957175">
        <ele>664.89</ele>
        <time>2020-08-10T05:15:25Z</time>
      </trkpt>
      <trkpt lat="41.5067429468" lon="-5.7415990625">
        <ele>664.89</ele>
        <time>2020-08-10T05:15:32Z</time>
      </trkpt>
      <trkpt lat="41.5065646637" lon="-5.7418785151">
        <ele>663.93</ele>
        <time>2020-08-10T05:15:41Z</time>
      </trkpt>
      <trkpt lat="41.5063992050" lon="-5.7421488315">
        <ele>669.70</ele>
        <time>2020-08-10T05:15:49Z</time>
      </trkpt>
      <trkpt lat="41.5062363446" lon="-5.7423945889">
        <ele>670.66</ele>
        <time>2020-08-10T05:15:56Z</time>
      </trkpt>
      <trkpt lat="41.5060678683" lon="-5.7426457107">
        <ele>672.58</ele>
        <time>2020-08-10T05:16:03Z</time>
      </trkpt>
      <trkpt lat="41.5058373660" lon="-5.7429656480">
        <ele>672.58</ele>
        <time>2020-08-10T05:16:11Z</time>
      </trkpt>
      <trkpt lat="41.5056054387" lon="-5.7433112338">
        <ele>672.10</ele>
        <time>2020-08-10T05:16:20Z</time>
      </trkpt>
      <trkpt lat="41.5053911973" lon="-5.7435497828">
        <ele>671.14</ele>
        <time>2020-08-10T05:16:27Z</time>
      </trkpt>
      <trkpt lat="41.5051144268" lon="-5.7438469213">
        <ele>667.77</ele>
        <time>2020-08-10T05:16:36Z</time>
      </trkpt>
      <trkpt lat="41.5049459506" lon="-5.7441178244">
        <ele>667.29</ele>
        <time>2020-08-10T05:16:44Z</time>
      </trkpt>
      <trkpt lat="41.5046388377" lon="-5.7445010450">
        <ele>667.29</ele>
        <time>2020-08-10T05:16:55Z</time>
      </trkpt>
      <trkpt lat="41.5044167172" lon="-5.7447767258">
        <ele>666.81</ele>
        <time>2020-08-10T05:17:04Z</time>
      </trkpt>
      <trkpt lat="41.5042283759" lon="-5.7450554240">
        <ele>666.33</ele>
        <time>2020-08-10T05:17:12Z</time>
      </trkpt>
      <trkpt lat="41.5041050781" lon="-5.7451800629">
        <ele>665.85</ele>
        <time>2020-08-10T05:17:17Z</time>
      </trkpt>
      <trkpt lat="41.5040002204" lon="-5.7452970743">
        <ele>667.29</ele>
        <time>2020-08-10T05:17:21Z</time>
      </trkpt>
      <trkpt lat="41.5038913395" lon="-5.7454963960">
        <ele>667.29</ele>
        <time>2020-08-10T05:17:26Z</time>
      </trkpt>
      <trkpt lat="41.5037734061" lon="-5.7456772774">
        <ele>668.25</ele>
        <time>2020-08-10T05:17:31Z</time>
      </trkpt>
      <trkpt lat="41.5035436582" lon="-5.7459173352">
        <ele>664.89</ele>
        <time>2020-08-10T05:17:39Z</time>
      </trkpt>
      <trkpt lat="41.5033576638" lon="-5.7460649405">
        <ele>661.04</ele>
        <time>2020-08-10T05:17:47Z</time>
      </trkpt>
      <trkpt lat="41.5033089649" lon="-5.7461045031">
        <ele>659.60</ele>
        <time>2020-08-10T05:17:50Z</time>
      </trkpt>
      <trkpt lat="41.5033138264" lon="-5.7463632524">
        <ele>660.56</ele>
        <time>2020-08-10T05:17:57Z</time>
      </trkpt>
      <trkpt lat="41.5033138264" lon="-5.7463971153">
        <ele>661.04</ele>
        <time>2020-08-10T05:17:58Z</time>
      </trkpt>
      <trkpt lat="41.5032704920" lon="-5.7465873007">
        <ele>662.49</ele>
        <time>2020-08-10T05:18:04Z</time>
      </trkpt>
      <trkpt lat="41.5031459369" lon="-5.7467219979">
        <ele>665.85</ele>
        <time>2020-08-10T05:18:11Z</time>
      </trkpt>
      <trkpt lat="41.5030268300" lon="-5.7467745524">
        <ele>665.85</ele>
        <time>2020-08-10T05:18:17Z</time>
      </trkpt>
      <trkpt lat="41.5029166080" lon="-5.7468770631">
        <ele>663.45</ele>
        <time>2020-08-10T05:18:23Z</time>
      </trkpt>
      <trkpt lat="41.5027722716" lon="-5.7471477985">
        <ele>661.04</ele>
        <time>2020-08-10T05:18:31Z</time>
      </trkpt>
      <trkpt lat="41.5026453696" lon="-5.7473791391">
        <ele>660.56</ele>
        <time>2020-08-10T05:18:38Z</time>
      </trkpt>
      <trkpt lat="41.5025328007" lon="-5.7475677319">
        <ele>661.52</ele>
        <time>2020-08-10T05:18:44Z</time>
      </trkpt>
      <trkpt lat="41.5024833474" lon="-5.7476643752">
        <ele>662.01</ele>
        <time>2020-08-10T05:18:47Z</time>
      </trkpt>
      <trkpt lat="41.5025001951" lon="-5.7478069514">
        <ele>662.97</ele>
        <time>2020-08-10T05:18:51Z</time>
      </trkpt>
      <trkpt lat="41.5027012769" lon="-5.7480310835">
        <ele>662.49</ele>
        <time>2020-08-10T05:19:00Z</time>
      </trkpt>
      <trkpt lat="41.5028872713" lon="-5.7482892461">
        <ele>662.49</ele>
        <time>2020-08-10T05:19:09Z</time>
      </trkpt>
      <trkpt lat="41.5030004270" lon="-5.7483801059">
        <ele>661.52</ele>
        <time>2020-08-10T05:19:13Z</time>
      </trkpt>
      <trkpt lat="41.5032132436" lon="-5.7485640887">
        <ele>660.08</ele>
        <time>2020-08-10T05:19:21Z</time>
      </trkpt>
      <trkpt lat="41.5033132397" lon="-5.7486798428">
        <ele>660.08</ele>
        <time>2020-08-10T05:19:27Z</time>
      </trkpt>
      <trkpt lat="41.5033083782" lon="-5.7487147953">
        <ele>662.01</ele>
        <time>2020-08-10T05:19:34Z</time>
      </trkpt>
      <trkpt lat="41.5033062827" lon="-5.7487198245">
        <ele>662.01</ele>
        <time>2020-08-10T05:19:41Z</time>
      </trkpt>
      <trkpt lat="41.5033158381" lon="-5.7488310523">
        <ele>662.97</ele>
        <time>2020-08-10T05:19:46Z</time>
      </trkpt>
      <trkpt lat="41.5033529699" lon="-5.7489723712">
        <ele>663.45</ele>
        <time>2020-08-10T05:19:51Z</time>
      </trkpt>
      <trkpt lat="41.5034113079" lon="-5.7490737922">
        <ele>663.45</ele>
        <time>2020-08-10T05:19:56Z</time>
      </trkpt>
      <trkpt lat="41.5034188516" lon="-5.7491296157">
        <ele>663.45</ele>
        <time>2020-08-10T05:20:00Z</time>
      </trkpt>
      <trkpt lat="41.5034049377" lon="-5.7490220759">
        <ele>663.45</ele>
        <time>2020-08-10T05:20:06Z</time>
      </trkpt>
      <trkpt lat="41.5033915266" lon="-5.7490017917">
        <ele>663.45</ele>
        <time>2020-08-10T05:20:07Z</time>
      </trkpt>
      <trkpt lat="41.5032848250" lon="-5.7489644084">
        <ele>665.37</ele>
        <time>2020-08-10T05:20:13Z</time>
      </trkpt>
      <trkpt lat="41.5032023471" lon="-5.7491177972">
        <ele>666.33</ele>
        <time>2020-08-10T05:20:20Z</time>
      </trkpt>
      <trkpt lat="41.5031560790" lon="-5.7493704278">
        <ele>667.29</ele>
        <time>2020-08-10T05:20:27Z</time>
      </trkpt>
      <trkpt lat="41.5031513013" lon="-5.7494652271">
        <ele>666.81</ele>
        <time>2020-08-10T05:20:31Z</time>
      </trkpt>
      <trkpt lat="41.5032031015" lon="-5.7494986709">
        <ele>666.33</ele>
        <time>2020-08-10T05:20:35Z</time>
      </trkpt>
      <trkpt lat="41.5033519641" lon="-5.7495859265">
        <ele>665.37</ele>
        <time>2020-08-10T05:20:42Z</time>
      </trkpt>
      <trkpt lat="41.5035556443" lon="-5.7497955579">
        <ele>666.33</ele>
        <time>2020-08-10T05:20:51Z</time>
      </trkpt>
      <trkpt lat="41.5035977215" lon="-5.7498439215">
        <ele>665.85</ele>
        <time>2020-08-10T05:20:53Z</time>
      </trkpt>
      <trkpt lat="41.5037314128" lon="-5.7497364655">
        <ele>665.85</ele>
        <time>2020-08-10T05:20:59Z</time>
      </trkpt>
      <trkpt lat="41.5039712191" lon="-5.7495016884">
        <ele>665.37</ele>
        <time>2020-08-10T05:21:08Z</time>
      </trkpt>
      <trkpt lat="41.5042169765" lon="-5.7492420170">
        <ele>664.41</ele>
        <time>2020-08-10T05:21:17Z</time>
      </trkpt>
      <trkpt lat="41.5043384302" lon="-5.7490213215">
        <ele>662.01</ele>
        <time>2020-08-10T05:21:25Z</time>
      </trkpt>
      <trkpt lat="41.5043597203" lon="-5.7489385083">
        <ele>661.52</ele>
        <time>2020-08-10T05:21:28Z</time>
      </trkpt>
      <trkpt lat="41.5044494066" lon="-5.7489126921">
        <ele>660.08</ele>
        <time>2020-08-10T05:21:33Z</time>
      </trkpt>
      <trkpt lat="41.5044933278" lon="-5.7489338145">
        <ele>659.12</ele>
        <time>2020-08-10T05:21:35Z</time>
      </trkpt>
      <trkpt lat="41.5045105945" lon="-5.7488561980">
        <ele>658.16</ele>
        <time>2020-08-10T05:21:40Z</time>
      </trkpt>
      <trkpt lat="41.5044990275" lon="-5.7487904001">
        <ele>656.72</ele>
        <time>2020-08-10T05:21:48Z</time>
      </trkpt>
      <trkpt lat="41.5045099240" lon="-5.7488078345">
        <ele>656.24</ele>
        <time>2020-08-10T05:22:00Z</time>
      </trkpt>
      <trkpt lat="41.5044934954" lon="-5.7488117740">
        <ele>654.31</ele>
        <time>2020-08-10T05:22:12Z</time>
      </trkpt>
      <trkpt lat="41.5044945851" lon="-5.7488100976">
        <ele>652.87</ele>
        <time>2020-08-10T05:22:25Z</time>
      </trkpt>
      <trkpt lat="41.5044958424" lon="-5.7488079183">
        <ele>652.87</ele>
        <time>2020-08-10T05:22:26Z</time>
      </trkpt>
      <trkpt lat="41.5045404341" lon="-5.7486923318">
        <ele>651.43</ele>
        <time>2020-08-10T05:22:33Z</time>
      </trkpt>
      <trkpt lat="41.5045691002" lon="-5.7485759910">
        <ele>650.47</ele>
        <time>2020-08-10T05:22:41Z</time>
      </trkpt>
      <trkpt lat="41.5046131890" lon="-5.7484117895">
        <ele>650.47</ele>
        <time>2020-08-10T05:22:50Z</time>
      </trkpt>
      <trkpt lat="41.5046610497" lon="-5.7482928503">
        <ele>649.51</ele>
        <time>2020-08-10T05:22:56Z</time>
      </trkpt>
      <trkpt lat="41.5047442820" lon="-5.7481031679">
        <ele>648.07</ele>
        <time>2020-08-10T05:23:03Z</time>
      </trkpt>
      <trkpt lat="41.5047976747" lon="-5.7480273955">
        <ele>647.10</ele>
        <time>2020-08-10T05:23:07Z</time>
      </trkpt>
      <trkpt lat="41.5048722737" lon="-5.7481211890">
        <ele>648.55</ele>
        <time>2020-08-10T05:23:13Z</time>
      </trkpt>
      <trkpt lat="41.5049054660" lon="-5.7484229375">
        <ele>651.43</ele>
        <time>2020-08-10T05:23:21Z</time>
      </trkpt>
      <trkpt lat="41.5049617924" lon="-5.7487366721">
        <ele>652.39</ele>
        <time>2020-08-10T05:23:28Z</time>
      </trkpt>
      <trkpt lat="41.5050241537" lon="-5.7488560304">
        <ele>653.83</ele>
        <time>2020-08-10T05:23:32Z</time>
      </trkpt>
      <trkpt lat="41.5050851740" lon="-5.7488999516">
        <ele>653.83</ele>
        <time>2020-08-10T05:23:35Z</time>
      </trkpt>
      <trkpt lat="41.5051149298" lon="-5.7489238400">
        <ele>653.83</ele>
        <time>2020-08-10T05:23:36Z</time>
      </trkpt>
      <trkpt lat="41.5051332023" lon="-5.7489468902">
        <ele>653.35</ele>
        <time>2020-08-10T05:23:37Z</time>
      </trkpt>
      <trkpt lat="41.5051573422" lon="-5.7489771489">
        <ele>652.87</ele>
        <time>2020-08-10T05:23:38Z</time>
      </trkpt>
      <trkpt lat="41.5051814821" lon="-5.7490140293">
        <ele>652.87</ele>
        <time>2020-08-10T05:23:39Z</time>
      </trkpt>
      <trkpt lat="41.5052062087" lon="-5.7490650751">
        <ele>652.39</ele>
        <time>2020-08-10T05:23:40Z</time>
      </trkpt>
      <trkpt lat="41.5052240621" lon="-5.7491006143">
        <ele>652.39</ele>
        <time>2020-08-10T05:23:41Z</time>
      </trkpt>
      <trkpt lat="41.5052425023" lon="-5.7491333876">
        <ele>652.39</ele>
        <time>2020-08-10T05:23:42Z</time>
      </trkpt>
      <trkpt lat="41.5054735076" lon="-5.7495880220">
        <ele>652.87</ele>
        <time>2020-08-10T05:23:52Z</time>
      </trkpt>
      <trkpt lat="41.5055797063" lon="-5.7497804705">
        <ele>652.39</ele>
        <time>2020-08-10T05:23:56Z</time>
      </trkpt>
      <trkpt lat="41.5057435725" lon="-5.7500865776">
        <ele>649.03</ele>
        <time>2020-08-10T05:24:03Z</time>
      </trkpt>
      <trkpt lat="41.5057962108" lon="-5.7501667086">
        <ele>647.10</ele>
        <time>2020-08-10T05:24:08Z</time>
      </trkpt>
      <trkpt lat="41.5058050118" lon="-5.7501761802">
        <ele>646.14</ele>
        <time>2020-08-10T05:24:24Z</time>
      </trkpt>
      <trkpt lat="41.5058133099" lon="-5.7502001524">
        <ele>646.62</ele>
        <time>2020-08-10T05:24:43Z</time>
      </trkpt>
      <trkpt lat="41.5058180876" lon="-5.7501905970">
        <ele>647.59</ele>
        <time>2020-08-10T05:24:53Z</time>
      </trkpt>
      <trkpt lat="41.5058362763" lon="-5.7502180059">
        <ele>650.95</ele>
        <time>2020-08-10T05:25:08Z</time>
      </trkpt>
      <trkpt lat="41.5059388708" lon="-5.7504177466">
        <ele>651.91</ele>
        <time>2020-08-10T05:25:15Z</time>
      </trkpt>
      <trkpt lat="41.5059845522" lon="-5.7504815329">
        <ele>652.39</ele>
        <time>2020-08-10T05:25:17Z</time>
      </trkpt>
      <trkpt lat="41.5060107876" lon="-5.7505019847">
        <ele>652.39</ele>
        <time>2020-08-10T05:25:18Z</time>
      </trkpt>
      <trkpt lat="41.5060412977" lon="-5.7505260408">
        <ele>652.39</ele>
        <time>2020-08-10T05:25:19Z</time>
      </trkpt>
      <trkpt lat="41.5063002985" lon="-5.7506450638">
        <ele>653.35</ele>
        <time>2020-08-10T05:25:27Z</time>
      </trkpt>
      <trkpt lat="41.5065018833" lon="-5.7506810222">
        <ele>658.16</ele>
        <time>2020-08-10T05:25:35Z</time>
      </trkpt>
      <trkpt lat="41.5067107603" lon="-5.7506744005">
        <ele>665.37</ele>
        <time>2020-08-10T05:25:43Z</time>
      </trkpt>
      <trkpt lat="41.5070082340" lon="-5.7507022284">
        <ele>667.77</ele>
        <time>2020-08-10T05:25:53Z</time>
      </trkpt>
      <trkpt lat="41.5072383173" lon="-5.7507453114">
        <ele>669.70</ele>
        <time>2020-08-10T05:26:02Z</time>
      </trkpt>
      <trkpt lat="41.5074437577" lon="-5.7507743128">
        <ele>672.10</ele>
        <time>2020-08-10T05:26:10Z</time>
      </trkpt>
      <trkpt lat="41.5075562429" lon="-5.7507842034">
        <ele>672.10</ele>
        <time>2020-08-10T05:26:17Z</time>
      </trkpt>
      <trkpt lat="41.5075712465" lon="-5.7507908251">
        <ele>672.10</ele>
        <time>2020-08-10T05:26:25Z</time>
      </trkpt>
      <trkpt lat="41.5075823106" lon="-5.7507930044">
        <ele>673.06</ele>
        <time>2020-08-10T05:26:38Z</time>
      </trkpt>
      <trkpt lat="41.5076151676" lon="-5.7508178987">
        <ele>674.50</ele>
        <time>2020-08-10T05:26:48Z</time>
      </trkpt>
      <trkpt lat="41.5077736694" lon="-5.7509422023">
        <ele>674.98</ele>
        <time>2020-08-10T05:26:55Z</time>
      </trkpt>
      <trkpt lat="41.5080079436" lon="-5.7511193119">
        <ele>674.98</ele>
        <time>2020-08-10T05:27:05Z</time>
      </trkpt>
      <trkpt lat="41.5082322434" lon="-5.7512877043">
        <ele>674.50</ele>
        <time>2020-08-10T05:27:14Z</time>
      </trkpt>
      <trkpt lat="41.5084718820" lon="-5.7514755428">
        <ele>675.46</ele>
        <time>2020-08-10T05:27:24Z</time>
      </trkpt>
      <trkpt lat="41.5086992830" lon="-5.7516487967">
        <ele>675.94</ele>
        <time>2020-08-10T05:27:35Z</time>
      </trkpt>
      <trkpt lat="41.5087478980" lon="-5.7516728528">
        <ele>675.94</ele>
        <time>2020-08-10T05:27:41Z</time>
      </trkpt>
      <trkpt lat="41.5087538492" lon="-5.7516501378">
        <ele>677.39</ele>
        <time>2020-08-10T05:27:55Z</time>
      </trkpt>
      <trkpt lat="41.5087558609" lon="-5.7516704220">
        <ele>674.50</ele>
        <time>2020-08-10T05:28:09Z</time>
      </trkpt>
      <trkpt lat="41.5087903943" lon="-5.7517052907">
        <ele>673.06</ele>
        <time>2020-08-10T05:28:16Z</time>
      </trkpt>
      <trkpt lat="41.5089564398" lon="-5.7518279180">
        <ele>673.06</ele>
        <time>2020-08-10T05:28:23Z</time>
      </trkpt>
      <trkpt lat="41.5092140995" lon="-5.7520012558">
        <ele>674.98</ele>
        <time>2020-08-10T05:28:33Z</time>
      </trkpt>
      <trkpt lat="41.5094184503" lon="-5.7521550637">
        <ele>677.39</ele>
        <time>2020-08-10T05:28:42Z</time>
      </trkpt>
      <trkpt lat="41.5096928738" lon="-5.7523413934">
        <ele>679.31</ele>
        <time>2020-08-10T05:28:54Z</time>
      </trkpt>
      <trkpt lat="41.5098859090" lon="-5.7524744142">
        <ele>680.27</ele>
        <time>2020-08-10T05:29:02Z</time>
      </trkpt>
      <trkpt lat="41.5101455804" lon="-5.7526516914">
        <ele>681.71</ele>
        <time>2020-08-10T05:29:13Z</time>
      </trkpt>
      <trkpt lat="41.5103709698" lon="-5.7528220955">
        <ele>682.19</ele>
        <time>2020-08-10T05:29:22Z</time>
      </trkpt>
      <trkpt lat="41.5106507577" lon="-5.7530270331">
        <ele>682.19</ele>
        <time>2020-08-10T05:29:33Z</time>
      </trkpt>
      <trkpt lat="41.5109359939" lon="-5.7532209065">
        <ele>679.79</ele>
        <time>2020-08-10T05:29:44Z</time>
      </trkpt>
      <trkpt lat="41.5111705195" lon="-5.7533890475">
        <ele>677.87</ele>
        <time>2020-08-10T05:29:53Z</time>
      </trkpt>
      <trkpt lat="41.5114237368" lon="-5.7535784785">
        <ele>677.39</ele>
        <time>2020-08-10T05:30:02Z</time>
      </trkpt>
      <trkpt lat="41.5117914509" lon="-5.7538389880">
        <ele>676.91</ele>
        <time>2020-08-10T05:30:12Z</time>
      </trkpt>
      <trkpt lat="41.5121646971" lon="-5.7541108970">
        <ele>675.94</ele>
        <time>2020-08-10T05:30:21Z</time>
      </trkpt>
      <trkpt lat="41.5125664417" lon="-5.7544054370">
        <ele>675.46</ele>
        <time>2020-08-10T05:30:31Z</time>
      </trkpt>
      <trkpt lat="41.5128456429" lon="-5.7545860671">
        <ele>675.94</ele>
        <time>2020-08-10T05:30:39Z</time>
      </trkpt>
      <trkpt lat="41.5132153686" lon="-5.7548588142">
        <ele>677.39</ele>
        <time>2020-08-10T05:30:50Z</time>
      </trkpt>
      <trkpt lat="41.5134658199" lon="-5.7550401147">
        <ele>678.83</ele>
        <time>2020-08-10T05:30:58Z</time>
      </trkpt>
      <trkpt lat="41.5137396567" lon="-5.7552116923">
        <ele>679.31</ele>
        <time>2020-08-10T05:31:06Z</time>
      </trkpt>
      <trkpt lat="41.5140761901" lon="-5.7554857805">
        <ele>679.79</ele>
        <time>2020-08-10T05:31:16Z</time>
      </trkpt>
      <trkpt lat="41.5143076982" lon="-5.7556442823">
        <ele>678.35</ele>
        <time>2020-08-10T05:31:23Z</time>
      </trkpt>
      <trkpt lat="41.5145921800" lon="-5.7558547519">
        <ele>679.31</ele>
        <time>2020-08-10T05:31:32Z</time>
      </trkpt>
      <trkpt lat="41.5149366762" lon="-5.7560680714">
        <ele>681.71</ele>
        <time>2020-08-10T05:31:43Z</time>
      </trkpt>
      <trkpt lat="41.5153816715" lon="-5.7563742623">
        <ele>682.19</ele>
        <time>2020-08-10T05:31:57Z</time>
      </trkpt>
      <trkpt lat="41.5157550853" lon="-5.7566379569">
        <ele>683.63</ele>
        <time>2020-08-10T05:32:08Z</time>
      </trkpt>
      <trkpt lat="41.5160593484" lon="-5.7568589877">
        <ele>684.60</ele>
        <time>2020-08-10T05:32:17Z</time>
      </trkpt>
      <trkpt lat="41.5164299123" lon="-5.7571303938">
        <ele>682.67</ele>
        <time>2020-08-10T05:32:28Z</time>
      </trkpt>
      <trkpt lat="41.5167844668" lon="-5.7573769055">
        <ele>683.63</ele>
        <time>2020-08-10T05:32:39Z</time>
      </trkpt>
      <trkpt lat="41.5171308909" lon="-5.7576291170">
        <ele>683.63</ele>
        <time>2020-08-10T05:32:50Z</time>
      </trkpt>
      <trkpt lat="41.5174193960" lon="-5.7578377426">
        <ele>683.63</ele>
        <time>2020-08-10T05:32:59Z</time>
      </trkpt>
      <trkpt lat="41.5177379921" lon="-5.7581064664">
        <ele>685.08</ele>
        <time>2020-08-10T05:33:09Z</time>
      </trkpt>
      <trkpt lat="41.5179917961" lon="-5.7582866773">
        <ele>689.40</ele>
        <time>2020-08-10T05:33:18Z</time>
      </trkpt>
      <trkpt lat="41.5182207897" lon="-5.7584198657">
        <ele>691.33</ele>
        <time>2020-08-10T05:33:28Z</time>
      </trkpt>
      <trkpt lat="41.5184431616" lon="-5.7585391402">
        <ele>694.21</ele>
        <time>2020-08-10T05:33:38Z</time>
      </trkpt>
      <trkpt lat="41.5186690539" lon="-5.7586004119">
        <ele>694.69</ele>
        <time>2020-08-10T05:33:47Z</time>
      </trkpt>
      <trkpt lat="41.5189297311" lon="-5.7586466800">
        <ele>695.17</ele>
        <time>2020-08-10T05:33:57Z</time>
      </trkpt>
      <trkpt lat="41.5191172343" lon="-5.7587821316">
        <ele>694.21</ele>
        <time>2020-08-10T05:34:04Z</time>
      </trkpt>
      <trkpt lat="41.5192816034" lon="-5.7590925135">
        <ele>696.61</ele>
        <time>2020-08-10T05:34:14Z</time>
      </trkpt>
      <trkpt lat="41.5194349084" lon="-5.7592325751">
        <ele>698.53</ele>
        <time>2020-08-10T05:34:22Z</time>
      </trkpt>
      <trkpt lat="41.5196305420" lon="-5.7593908254">
        <ele>699.50</ele>
        <time>2020-08-10T05:34:32Z</time>
      </trkpt>
      <trkpt lat="41.5198132675" lon="-5.7595411967">
        <ele>699.02</ele>
        <time>2020-08-10T05:34:40Z</time>
      </trkpt>
      <trkpt lat="41.5200478770" lon="-5.7597002015">
        <ele>698.05</ele>
        <time>2020-08-10T05:34:49Z</time>
      </trkpt>
      <trkpt lat="41.5203186125" lon="-5.7598898001">
        <ele>698.05</ele>
        <time>2020-08-10T05:34:59Z</time>
      </trkpt>
      <trkpt lat="41.5206477698" lon="-5.7601262536">
        <ele>697.57</ele>
        <time>2020-08-10T05:35:09Z</time>
      </trkpt>
      <trkpt lat="41.5210498497" lon="-5.7604120765">
        <ele>696.61</ele>
        <time>2020-08-10T05:35:20Z</time>
      </trkpt>
      <trkpt lat="41.5215380117" lon="-5.7607569918">
        <ele>696.13</ele>
        <time>2020-08-10T05:35:32Z</time>
      </trkpt>
      <trkpt lat="41.5219316259" lon="-5.7610410545">
        <ele>696.13</ele>
        <time>2020-08-10T05:35:42Z</time>
      </trkpt>
      <trkpt lat="41.5223179478" lon="-5.7613124605">
        <ele>695.65</ele>
        <time>2020-08-10T05:35:52Z</time>
      </trkpt>
      <trkpt lat="41.5225299262" lon="-5.7614607364">
        <ele>695.65</ele>
        <time>2020-08-10T05:35:58Z</time>
      </trkpt>
      <trkpt lat="41.5225819778" lon="-5.7614811044">
        <ele>695.65</ele>
        <time>2020-08-10T05:36:04Z</time>
      </trkpt>
      <trkpt lat="41.5225763619" lon="-5.7614836190">
        <ele>694.69</ele>
        <time>2020-08-10T05:36:21Z</time>
      </trkpt>
      <trkpt lat="41.5225859173" lon="-5.7614749018">
        <ele>695.17</ele>
        <time>2020-08-10T05:36:35Z</time>
      </trkpt>
      <trkpt lat="41.5226398967" lon="-5.7615347486">
        <ele>695.17</ele>
        <time>2020-08-10T05:36:42Z</time>
      </trkpt>
      <trkpt lat="41.5228257235" lon="-5.7616696134">
        <ele>695.65</ele>
        <time>2020-08-10T05:36:49Z</time>
      </trkpt>
      <trkpt lat="41.5231538750" lon="-5.7619058155">
        <ele>696.13</ele>
        <time>2020-08-10T05:36:59Z</time>
      </trkpt>
      <trkpt lat="41.5235661808" lon="-5.7622026186">
        <ele>696.61</ele>
        <time>2020-08-10T05:37:11Z</time>
      </trkpt>
      <trkpt lat="41.5238674264" lon="-5.7624173630">
        <ele>698.05</ele>
        <time>2020-08-10T05:37:20Z</time>
      </trkpt>
      <trkpt lat="41.5242617112" lon="-5.7626982406">
        <ele>699.02</ele>
        <time>2020-08-10T05:37:32Z</time>
      </trkpt>
      <trkpt lat="41.5246948879" lon="-5.7630072813">
        <ele>699.98</ele>
        <time>2020-08-10T05:37:45Z</time>
      </trkpt>
      <trkpt lat="41.5250548068" lon="-5.7632641867">
        <ele>700.94</ele>
        <time>2020-08-10T05:37:56Z</time>
      </trkpt>
      <trkpt lat="41.5253163222" lon="-5.7634730637">
        <ele>701.90</ele>
        <time>2020-08-10T05:38:04Z</time>
      </trkpt>
      <trkpt lat="41.5254305676" lon="-5.7635421306">
        <ele>701.42</ele>
        <time>2020-08-10T05:38:07Z</time>
      </trkpt>
      <trkpt lat="41.5254653525" lon="-5.7635713834">
        <ele>701.42</ele>
        <time>2020-08-10T05:38:08Z</time>
      </trkpt>
      <trkpt lat="41.5255013108" lon="-5.7636080962">
        <ele>701.42</ele>
        <time>2020-08-10T05:38:09Z</time>
      </trkpt>
      <trkpt lat="41.5259043127" lon="-5.7640356570">
        <ele>701.90</ele>
        <time>2020-08-10T05:38:21Z</time>
      </trkpt>
      <trkpt lat="41.5263524093" lon="-5.7644827478">
        <ele>702.86</ele>
        <time>2020-08-10T05:38:34Z</time>
      </trkpt>
      <trkpt lat="41.5266959835" lon="-5.7648275793">
        <ele>702.86</ele>
        <time>2020-08-10T05:38:44Z</time>
      </trkpt>
      <trkpt lat="41.5269958880" lon="-5.7651248015">
        <ele>703.82</ele>
        <time>2020-08-10T05:38:53Z</time>
      </trkpt>
      <trkpt lat="41.5273847245" lon="-5.7655096147">
        <ele>704.30</ele>
        <time>2020-08-10T05:39:05Z</time>
      </trkpt>
      <trkpt lat="41.5276423842" lon="-5.7657310646">
        <ele>704.30</ele>
        <time>2020-08-10T05:39:14Z</time>
      </trkpt>
      <trkpt lat="41.5276721399" lon="-5.7657217607">
        <ele>704.30</ele>
        <time>2020-08-10T05:39:15Z</time>
      </trkpt>
      <trkpt lat="41.5276909154" lon="-5.7657128759">
        <ele>703.82</ele>
        <time>2020-08-10T05:39:16Z</time>
      </trkpt>
      <trkpt lat="41.5278461482" lon="-5.7655430585">
        <ele>702.86</ele>
        <time>2020-08-10T05:39:23Z</time>
      </trkpt>
      <trkpt lat="41.5279810969" lon="-5.7652221154">
        <ele>702.38</ele>
        <time>2020-08-10T05:39:31Z</time>
      </trkpt>
      <trkpt lat="41.5280210786" lon="-5.7649036869">
        <ele>702.86</ele>
        <time>2020-08-10T05:39:38Z</time>
      </trkpt>
      <trkpt lat="41.5281565301" lon="-5.7647098973">
        <ele>702.38</ele>
        <time>2020-08-10T05:39:44Z</time>
      </trkpt>
      <trkpt lat="41.5283887088" lon="-5.7646774594">
        <ele>702.38</ele>
        <time>2020-08-10T05:39:51Z</time>
      </trkpt>
      <trkpt lat="41.5285774693" lon="-5.7647471968">
        <ele>702.38</ele>
        <time>2020-08-10T05:39:57Z</time>
      </trkpt>
      <trkpt lat="41.5289214626" lon="-5.7647634577">
        <ele>702.38</ele>
        <time>2020-08-10T05:40:06Z</time>
      </trkpt>
      <trkpt lat="41.5293167531" lon="-5.7647649664">
        <ele>701.90</ele>
        <time>2020-08-10T05:40:16Z</time>
      </trkpt>
      <trkpt lat="41.5296803601" lon="-5.7647978235">
        <ele>701.90</ele>
        <time>2020-08-10T05:40:25Z</time>
      </trkpt>
      <trkpt lat="41.5300821047" lon="-5.7648615260">
        <ele>701.90</ele>
        <time>2020-08-10T05:40:35Z</time>
      </trkpt>
      <trkpt lat="41.5303260181" lon="-5.7648911141">
        <ele>701.90</ele>
        <time>2020-08-10T05:40:41Z</time>
      </trkpt>
      <trkpt lat="41.5306791477" lon="-5.7649171818">
        <ele>701.90</ele>
        <time>2020-08-10T05:40:50Z</time>
      </trkpt>
      <trkpt lat="41.5309551638" lon="-5.7649401482">
        <ele>701.42</ele>
        <time>2020-08-10T05:40:57Z</time>
      </trkpt>
      <trkpt lat="41.5313057788" lon="-5.7649733406">
        <ele>701.90</ele>
        <time>2020-08-10T05:41:06Z</time>
      </trkpt>
      <trkpt lat="41.5316379536" lon="-5.7650387194">
        <ele>702.86</ele>
        <time>2020-08-10T05:41:15Z</time>
      </trkpt>
      <trkpt lat="41.5319432225" lon="-5.7651375420">
        <ele>702.38</ele>
        <time>2020-08-10T05:41:23Z</time>
      </trkpt>
      <trkpt lat="41.5322031453" lon="-5.7652458362">
        <ele>702.86</ele>
        <time>2020-08-10T05:41:30Z</time>
      </trkpt>
      <trkpt lat="41.5326025430" lon="-5.7654508576">
        <ele>702.86</ele>
        <time>2020-08-10T05:41:41Z</time>
      </trkpt>
      <trkpt lat="41.5328896232" lon="-5.7656086888">
        <ele>702.86</ele>
        <time>2020-08-10T05:41:50Z</time>
      </trkpt>
      <trkpt lat="41.5332353767" lon="-5.7658250257">
        <ele>702.38</ele>
        <time>2020-08-10T05:42:00Z</time>
      </trkpt>
      <trkpt lat="41.5336978901" lon="-5.7660911512">
        <ele>702.86</ele>
        <time>2020-08-10T05:42:13Z</time>
      </trkpt>
      <trkpt lat="41.5340330824" lon="-5.7663098350">
        <ele>702.86</ele>
        <time>2020-08-10T05:42:23Z</time>
      </trkpt>
      <trkpt lat="41.5343824401" lon="-5.7665199693">
        <ele>703.34</ele>
        <time>2020-08-10T05:42:33Z</time>
      </trkpt>
      <trkpt lat="41.5344182309" lon="-5.7665386610">
        <ele>703.34</ele>
        <time>2020-08-10T05:42:34Z</time>
      </trkpt>
      <trkpt lat="41.5347004496" lon="-5.7666741963">
        <ele>702.86</ele>
        <time>2020-08-10T05:42:42Z</time>
      </trkpt>
      <trkpt lat="41.5351229813" lon="-5.7668668125">
        <ele>703.34</ele>
        <time>2020-08-10T05:42:54Z</time>
      </trkpt>
      <trkpt lat="41.5354466904" lon="-5.7670131605">
        <ele>704.78</ele>
        <time>2020-08-10T05:43:04Z</time>
      </trkpt>
      <trkpt lat="41.5357501991" lon="-5.7672034297">
        <ele>712.47</ele>
        <time>2020-08-10T05:43:14Z</time>
      </trkpt>
      <trkpt lat="41.5359349363" lon="-5.7673957106">
        <ele>718.72</ele>
        <time>2020-08-10T05:43:21Z</time>
      </trkpt>
      <trkpt lat="41.5360582341" lon="-5.7675914280">
        <ele>718.72</ele>
        <time>2020-08-10T05:43:28Z</time>
      </trkpt>
      <trkpt lat="41.5362112038" lon="-5.7677878998">
        <ele>718.24</ele>
        <time>2020-08-10T05:43:35Z</time>
      </trkpt>
      <trkpt lat="41.5363649279" lon="-5.7679934241">
        <ele>716.32</ele>
        <time>2020-08-10T05:43:42Z</time>
      </trkpt>
      <trkpt lat="41.5365889762" lon="-5.7683043089">
        <ele>713.44</ele>
        <time>2020-08-10T05:43:51Z</time>
      </trkpt>
      <trkpt lat="41.5368821751" lon="-5.7686690055">
        <ele>711.51</ele>
        <time>2020-08-10T05:44:01Z</time>
      </trkpt>
      <trkpt lat="41.5372203011" lon="-5.7690714207">
        <ele>709.59</ele>
        <time>2020-08-10T05:44:13Z</time>
      </trkpt>
      <trkpt lat="41.5374776255" lon="-5.7693630271">
        <ele>708.15</ele>
        <time>2020-08-10T05:44:22Z</time>
      </trkpt>
      <trkpt lat="41.5377486125" lon="-5.7697089482">
        <ele>707.67</ele>
        <time>2020-08-10T05:44:32Z</time>
      </trkpt>
      <trkpt lat="41.5379517060" lon="-5.7699330803">
        <ele>707.67</ele>
        <time>2020-08-10T05:44:40Z</time>
      </trkpt>
      <trkpt lat="41.5382635128" lon="-5.7702920772">
        <ele>707.67</ele>
        <time>2020-08-10T05:44:51Z</time>
      </trkpt>
      <trkpt lat="41.5385189932" lon="-5.7705954183">
        <ele>707.67</ele>
        <time>2020-08-10T05:45:00Z</time>
      </trkpt>
      <trkpt lat="41.5387637448" lon="-5.7708806545">
        <ele>706.71</ele>
        <time>2020-08-10T05:45:08Z</time>
      </trkpt>
      <trkpt lat="41.5388573706" lon="-5.7709903736">
        <ele>706.71</ele>
        <time>2020-08-10T05:45:11Z</time>
      </trkpt>
      <trkpt lat="41.5388880484" lon="-5.7710268348">
        <ele>706.71</ele>
        <time>2020-08-10T05:45:12Z</time>
      </trkpt>
      <trkpt lat="41.5391315427" lon="-5.7713089697">
        <ele>706.23</ele>
        <time>2020-08-10T05:45:21Z</time>
      </trkpt>
      <trkpt lat="41.5391550958" lon="-5.7713304274">
        <ele>706.23</ele>
        <time>2020-08-10T05:45:23Z</time>
      </trkpt>
      <trkpt lat="41.5391592029" lon="-5.7713260688">
        <ele>705.75</ele>
        <time>2020-08-10T05:45:30Z</time>
      </trkpt>
      <trkpt lat="41.5392293595" lon="-5.7713427488">
        <ele>705.26</ele>
        <time>2020-08-10T05:45:36Z</time>
      </trkpt>
      <trkpt lat="41.5393565129" lon="-5.7711736858">
        <ele>704.78</ele>
        <time>2020-08-10T05:45:42Z</time>
      </trkpt>
      <trkpt lat="41.5395073034" lon="-5.7708612923">
        <ele>705.75</ele>
        <time>2020-08-10T05:45:51Z</time>
      </trkpt>
      <trkpt lat="41.5397127438" lon="-5.7705279440">
        <ele>706.71</ele>
        <time>2020-08-10T05:46:00Z</time>
      </trkpt>
      <trkpt lat="41.5399487782" lon="-5.7701763231">
        <ele>705.75</ele>
        <time>2020-08-10T05:46:09Z</time>
      </trkpt>
      <trkpt lat="41.5399760194" lon="-5.7701343298">
        <ele>705.75</ele>
        <time>2020-08-10T05:46:10Z</time>
      </trkpt>
      <trkpt lat="41.5399997402" lon="-5.7700899057">
        <ele>705.75</ele>
        <time>2020-08-10T05:46:11Z</time>
      </trkpt>
      <trkpt lat="41.5401907638" lon="-5.7696320023">
        <ele>705.75</ele>
        <time>2020-08-10T05:46:21Z</time>
      </trkpt>
      <trkpt lat="41.5403719805" lon="-5.7692378014">
        <ele>706.23</ele>
        <time>2020-08-10T05:46:31Z</time>
      </trkpt>
      <trkpt lat="41.5405081026" lon="-5.7689603604">
        <ele>705.26</ele>
        <time>2020-08-10T05:46:40Z</time>
      </trkpt>
      <trkpt lat="41.5406452306" lon="-5.7688590232">
        <ele>704.30</ele>
        <time>2020-08-10T05:46:48Z</time>
      </trkpt>
      <trkpt lat="41.5407903213" lon="-5.7689042855">
        <ele>702.86</ele>
        <time>2020-08-10T05:46:54Z</time>
      </trkpt>
      <trkpt lat="41.5409137029" lon="-5.7690140046">
        <ele>702.86</ele>
        <time>2020-08-10T05:47:01Z</time>
      </trkpt>
      <trkpt lat="41.5410893876" lon="-5.7691539824">
        <ele>701.90</ele>
        <time>2020-08-10T05:47:08Z</time>
      </trkpt>
      <trkpt lat="41.5413162857" lon="-5.7693706546">
        <ele>700.46</ele>
        <time>2020-08-10T05:47:16Z</time>
      </trkpt>
      <trkpt lat="41.5416205488" lon="-5.7696186751">
        <ele>698.05</ele>
        <time>2020-08-10T05:47:25Z</time>
      </trkpt>
      <trkpt lat="41.5418609418" lon="-5.7698045019">
        <ele>696.61</ele>
        <time>2020-08-10T05:47:33Z</time>
      </trkpt>
      <trkpt lat="41.5421605948" lon="-5.7700471580">
        <ele>695.17</ele>
        <time>2020-08-10T05:47:41Z</time>
      </trkpt>
      <trkpt lat="41.5425223578" lon="-5.7703377586">
        <ele>693.25</ele>
        <time>2020-08-10T05:47:51Z</time>
      </trkpt>
      <trkpt lat="41.5428331587" lon="-5.7705882099">
        <ele>692.29</ele>
        <time>2020-08-10T05:48:01Z</time>
      </trkpt>
      <trkpt lat="41.5429709572" lon="-5.7707272656">
        <ele>691.33</ele>
        <time>2020-08-10T05:48:07Z</time>
      </trkpt>
      <trkpt lat="41.5432634857" lon="-5.7709669881">
        <ele>690.84</ele>
        <time>2020-08-10T05:48:17Z</time>
      </trkpt>
      <trkpt lat="41.5435347240" lon="-5.7711770386">
        <ele>690.36</ele>
        <time>2020-08-10T05:48:26Z</time>
      </trkpt>
      <trkpt lat="41.5436560940" lon="-5.7711887732">
        <ele>690.36</ele>
        <time>2020-08-10T05:48:30Z</time>
      </trkpt>
      <trkpt lat="41.5436793119" lon="-5.7711679861">
        <ele>690.36</ele>
        <time>2020-08-10T05:48:31Z</time>
      </trkpt>
      <trkpt lat="41.5437011048" lon="-5.7711369731">
        <ele>690.36</ele>
        <time>2020-08-10T05:48:32Z</time>
      </trkpt>
      <trkpt lat="41.5437151864" lon="-5.7711083908">
        <ele>690.36</ele>
        <time>2020-08-10T05:48:33Z</time>
      </trkpt>
      <trkpt lat="41.5437332075" lon="-5.7710707560">
        <ele>690.36</ele>
        <time>2020-08-10T05:48:34Z</time>
      </trkpt>
      <trkpt lat="41.5437512286" lon="-5.7710348815">
        <ele>690.36</ele>
        <time>2020-08-10T05:48:35Z</time>
      </trkpt>
      <trkpt lat="41.5438601933" lon="-5.7708047144">
        <ele>690.36</ele>
        <time>2020-08-10T05:48:43Z</time>
      </trkpt>
      <trkpt lat="41.5439860057" lon="-5.7705564424">
        <ele>690.84</ele>
        <time>2020-08-10T05:48:53Z</time>
      </trkpt>
      <trkpt lat="41.5440966468" lon="-5.7702432107">
        <ele>691.33</ele>
        <time>2020-08-10T05:49:03Z</time>
      </trkpt>
      <trkpt lat="41.5441222955" lon="-5.7699796837">
        <ele>691.81</ele>
        <time>2020-08-10T05:49:11Z</time>
      </trkpt>
      <trkpt lat="41.5440934617" lon="-5.7696810365">
        <ele>691.81</ele>
        <time>2020-08-10T05:49:19Z</time>
      </trkpt>
      <trkpt lat="41.5440457687" lon="-5.7692828123">
        <ele>691.81</ele>
        <time>2020-08-10T05:49:30Z</time>
      </trkpt>
      <trkpt lat="41.5440484509" lon="-5.7688800618">
        <ele>693.25</ele>
        <time>2020-08-10T05:49:40Z</time>
      </trkpt>
      <trkpt lat="41.5441340301" lon="-5.7683451287">
        <ele>696.13</ele>
        <time>2020-08-10T05:49:54Z</time>
      </trkpt>
      <trkpt lat="41.5442143288" lon="-5.7679420430">
        <ele>697.57</ele>
        <time>2020-08-10T05:50:05Z</time>
      </trkpt>
      <trkpt lat="41.5442932863" lon="-5.7676968724">
        <ele>699.02</ele>
        <time>2020-08-10T05:50:14Z</time>
      </trkpt>
      <trkpt lat="41.5443096310" lon="-5.7676507719">
        <ele>699.98</ele>
        <time>2020-08-10T05:50:17Z</time>
      </trkpt>
      <trkpt lat="41.5443176776" lon="-5.7676350977">
        <ele>699.98</ele>
        <time>2020-08-10T05:50:18Z</time>
      </trkpt>
      <trkpt lat="41.5443323459" lon="-5.7676281407">
        <ele>699.98</ele>
        <time>2020-08-10T05:50:19Z</time>
      </trkpt>
      <trkpt lat="41.5443502832" lon="-5.7676193397">
        <ele>699.98</ele>
        <time>2020-08-10T05:50:20Z</time>
      </trkpt>
      <trkpt lat="41.5443690587" lon="-5.7676091976">
        <ele>699.98</ele>
        <time>2020-08-10T05:50:21Z</time>
      </trkpt>
      <trkpt lat="41.5445113834" lon="-5.7674880791">
        <ele>699.50</ele>
        <time>2020-08-10T05:50:28Z</time>
      </trkpt>
      <trkpt lat="41.5446841344" lon="-5.7675322518">
        <ele>698.53</ele>
        <time>2020-08-10T05:50:33Z</time>
      </trkpt>
      <trkpt lat="41.5449310653" lon="-5.7676646858">
        <ele>698.53</ele>
        <time>2020-08-10T05:50:41Z</time>
      </trkpt>
      <trkpt lat="41.5452392679" lon="-5.7678676117">
        <ele>698.05</ele>
        <time>2020-08-10T05:50:50Z</time>
      </trkpt>
      <trkpt lat="41.5453726240" lon="-5.7679838687">
        <ele>698.53</ele>
        <time>2020-08-10T05:50:54Z</time>
      </trkpt>
      <trkpt lat="41.5458027832" lon="-5.7683478948">
        <ele>699.02</ele>
        <time>2020-08-10T05:51:06Z</time>
      </trkpt>
      <trkpt lat="41.5460907016" lon="-5.7685634773">
        <ele>699.02</ele>
        <time>2020-08-10T05:51:15Z</time>
      </trkpt>
      <trkpt lat="41.5461752750" lon="-5.7686357293">
        <ele>699.50</ele>
        <time>2020-08-10T05:51:22Z</time>
      </trkpt>
      <trkpt lat="41.5461879317" lon="-5.7686422672">
        <ele>699.02</ele>
        <time>2020-08-10T05:51:28Z</time>
      </trkpt>
      <trkpt lat="41.5462063719" lon="-5.7686516549">
        <ele>698.53</ele>
        <time>2020-08-10T05:51:38Z</time>
      </trkpt>
      <trkpt lat="41.5462000016" lon="-5.7686606236">
        <ele>697.57</ele>
        <time>2020-08-10T05:51:56Z</time>
      </trkpt>
      <trkpt lat="41.5462024324" lon="-5.7686569355">
        <ele>698.05</ele>
        <time>2020-08-10T05:52:10Z</time>
      </trkpt>
      <trkpt lat="41.5462053660" lon="-5.7686506491">
        <ele>698.53</ele>
        <time>2020-08-10T05:52:22Z</time>
      </trkpt>
      <trkpt lat="41.5462106466" lon="-5.7686433569">
        <ele>698.05</ele>
        <time>2020-08-10T05:52:32Z</time>
      </trkpt>
      <trkpt lat="41.5462432522" lon="-5.7686887868">
        <ele>698.05</ele>
        <time>2020-08-10T05:52:41Z</time>
      </trkpt>
      <trkpt lat="41.5462539811" lon="-5.7686987612">
        <ele>698.05</ele>
        <time>2020-08-10T05:52:42Z</time>
      </trkpt>
      <trkpt lat="41.5463183541" lon="-5.7687479630">
        <ele>697.57</ele>
        <time>2020-08-10T05:52:48Z</time>
      </trkpt>
      <trkpt lat="41.5463692322" lon="-5.7687867712">
        <ele>698.05</ele>
        <time>2020-08-10T05:52:56Z</time>
      </trkpt>
      <trkpt lat="41.5463749319" lon="-5.7687941473">
        <ele>698.53</ele>
        <time>2020-08-10T05:53:04Z</time>
      </trkpt>
      <trkpt lat="41.5463797096" lon="-5.7687816583">
        <ele>698.05</ele>
        <time>2020-08-10T05:53:18Z</time>
      </trkpt>
      <trkpt lat="41.5464191046" lon="-5.7688114140">
        <ele>697.57</ele>
        <time>2020-08-10T05:53:27Z</time>
      </trkpt>
      <trkpt lat="41.5464812145" lon="-5.7688675728">
        <ele>698.05</ele>
        <time>2020-08-10T05:53:36Z</time>
      </trkpt>
      <trkpt lat="41.5464836452" lon="-5.7688700873">
        <ele>698.05</ele>
        <time>2020-08-10T05:53:38Z</time>
      </trkpt>
      <trkpt lat="41.5465592500" lon="-5.7689508889">
        <ele>698.53</ele>
        <time>2020-08-10T05:53:44Z</time>
      </trkpt>
      <trkpt lat="41.5467470884" lon="-5.7691026013">
        <ele>699.02</ele>
        <time>2020-08-10T05:53:53Z</time>
      </trkpt>
      <trkpt lat="41.5470060054" lon="-5.7693124842">
        <ele>699.98</ele>
        <time>2020-08-10T05:54:02Z</time>
      </trkpt>
      <trkpt lat="41.5472692810" lon="-5.7694929466">
        <ele>699.98</ele>
        <time>2020-08-10T05:54:10Z</time>
      </trkpt>
      <trkpt lat="41.5476033837" lon="-5.7697363570">
        <ele>699.98</ele>
        <time>2020-08-10T05:54:20Z</time>
      </trkpt>
      <trkpt lat="41.5479931422" lon="-5.7699742354">
        <ele>700.94</ele>
        <time>2020-08-10T05:54:31Z</time>
      </trkpt>
      <trkpt lat="41.5482808929" lon="-5.7702075038">
        <ele>700.94</ele>
        <time>2020-08-10T05:54:40Z</time>
      </trkpt>
      <trkpt lat="41.5484519675" lon="-5.7703753095">
        <ele>700.94</ele>
        <time>2020-08-10T05:54:48Z</time>
      </trkpt>
      <trkpt lat="41.5484839026" lon="-5.7704100106">
        <ele>700.94</ele>
        <time>2020-08-10T05:54:50Z</time>
      </trkpt>
      <trkpt lat="41.5485655423" lon="-5.7705115993">
        <ele>699.98</ele>
        <time>2020-08-10T05:54:57Z</time>
      </trkpt>
      <trkpt lat="41.5487768501" lon="-5.7706314605">
        <ele>699.50</ele>
        <time>2020-08-10T05:55:04Z</time>
      </trkpt>
      <trkpt lat="41.5490719769" lon="-5.7708844263">
        <ele>700.46</ele>
        <time>2020-08-10T05:55:14Z</time>
      </trkpt>
      <trkpt lat="41.5493262839" lon="-5.7710964885">
        <ele>700.46</ele>
        <time>2020-08-10T05:55:22Z</time>
      </trkpt>
      <trkpt lat="41.5496228356" lon="-5.7713328581">
        <ele>700.94</ele>
        <time>2020-08-10T05:55:31Z</time>
      </trkpt>
      <trkpt lat="41.5499234106" lon="-5.7716021687">
        <ele>701.90</ele>
        <time>2020-08-10T05:55:40Z</time>
      </trkpt>
      <trkpt lat="41.5502514783" lon="-5.7718674559">
        <ele>702.86</ele>
        <time>2020-08-10T05:55:50Z</time>
      </trkpt>
      <trkpt lat="41.5505080484" lon="-5.7720821165">
        <ele>702.86</ele>
        <time>2020-08-10T05:55:58Z</time>
      </trkpt>
      <trkpt lat="41.5507906023" lon="-5.7723126188">
        <ele>704.30</ele>
        <time>2020-08-10T05:56:07Z</time>
      </trkpt>
      <trkpt lat="41.5511066839" lon="-5.7725676801">
        <ele>703.82</ele>
        <time>2020-08-10T05:56:16Z</time>
      </trkpt>
      <trkpt lat="41.5514183231" lon="-5.7728208974">
        <ele>703.34</ele>
        <time>2020-08-10T05:56:25Z</time>
      </trkpt>
      <trkpt lat="41.5516260266" lon="-5.7729074825">
        <ele>703.82</ele>
        <time>2020-08-10T05:56:32Z</time>
      </trkpt>
      <trkpt lat="41.5517354943" lon="-5.7727334742">
        <ele>703.82</ele>
        <time>2020-08-10T05:56:37Z</time>
      </trkpt>
      <trkpt lat="41.5518859494" lon="-5.7722966932">
        <ele>704.30</ele>
        <time>2020-08-10T05:56:46Z</time>
      </trkpt>
      <trkpt lat="41.5520198923" lon="-5.7719157357">
        <ele>704.78</ele>
        <time>2020-08-10T05:56:54Z</time>
      </trkpt>
      <trkpt lat="41.5521302819" lon="-5.7716533821">
        <ele>704.78</ele>
        <time>2020-08-10T05:57:00Z</time>
      </trkpt>
      <trkpt lat="41.5522566810" lon="-5.7715121470">
        <ele>705.26</ele>
        <time>2020-08-10T05:57:04Z</time>
      </trkpt>
      <trkpt lat="41.5526244789" lon="-5.7713025156">
        <ele>706.23</ele>
        <time>2020-08-10T05:57:13Z</time>
      </trkpt>
      <trkpt lat="41.5527404845" lon="-5.7711958978">
        <ele>706.23</ele>
        <time>2020-08-10T05:57:17Z</time>
      </trkpt>
      <trkpt lat="41.5527442563" lon="-5.7711404935">
        <ele>705.26</ele>
        <time>2020-08-10T05:57:22Z</time>
      </trkpt>
      <trkpt lat="41.5527874231" lon="-5.7710868493">
        <ele>704.30</ele>
        <time>2020-08-10T05:57:26Z</time>
      </trkpt>
      <trkpt lat="41.5528170951" lon="-5.7710796408">
        <ele>703.82</ele>
        <time>2020-08-10T05:57:27Z</time>
      </trkpt>
      <trkpt lat="41.5528418217" lon="-5.7710775454">
        <ele>704.30</ele>
        <time>2020-08-10T05:57:28Z</time>
      </trkpt>
      <trkpt lat="41.5528716613" lon="-5.7710767072">
        <ele>704.30</ele>
        <time>2020-08-10T05:57:29Z</time>
      </trkpt>
      <trkpt lat="41.5530947875" lon="-5.7711016852">
        <ele>704.30</ele>
        <time>2020-08-10T05:57:35Z</time>
      </trkpt>
      <trkpt lat="41.5534930956" lon="-5.7711594366">
        <ele>704.30</ele>
        <time>2020-08-10T05:57:44Z</time>
      </trkpt>
      <trkpt lat="41.5540481452" lon="-5.7712520566">
        <ele>703.34</ele>
        <time>2020-08-10T05:57:56Z</time>
      </trkpt>
      <trkpt lat="41.5545664821" lon="-5.7713373005">
        <ele>702.38</ele>
        <time>2020-08-10T05:58:07Z</time>
      </trkpt>
      <trkpt lat="41.5549289156" lon="-5.7713959739">
        <ele>701.90</ele>
        <time>2020-08-10T05:58:15Z</time>
      </trkpt>
      <trkpt lat="41.5553610865" lon="-5.7714616042">
        <ele>702.86</ele>
        <time>2020-08-10T05:58:25Z</time>
      </trkpt>
      <trkpt lat="41.5557872225" lon="-5.7715203613">
        <ele>703.82</ele>
        <time>2020-08-10T05:58:35Z</time>
      </trkpt>
      <trkpt lat="41.5562311281" lon="-5.7715946250">
        <ele>704.78</ele>
        <time>2020-08-10T05:58:46Z</time>
      </trkpt>
      <trkpt lat="41.5567054600" lon="-5.7716712356">
        <ele>706.23</ele>
        <time>2020-08-10T05:58:58Z</time>
      </trkpt>
      <trkpt lat="41.5570334438" lon="-5.7717268914">
        <ele>707.19</ele>
        <time>2020-08-10T05:59:07Z</time>
      </trkpt>
      <trkpt lat="41.5574874915" lon="-5.7718014065">
        <ele>708.63</ele>
        <time>2020-08-10T05:59:19Z</time>
      </trkpt>
      <trkpt lat="41.5578786749" lon="-5.7718629297">
        <ele>710.07</ele>
        <time>2020-08-10T05:59:29Z</time>
      </trkpt>
      <trkpt lat="41.5582608059" lon="-5.7719396241">
        <ele>711.03</ele>
        <time>2020-08-10T05:59:39Z</time>
      </trkpt>
      <trkpt lat="41.5586109180" lon="-5.7720277179">
        <ele>711.51</ele>
        <time>2020-08-10T05:59:48Z</time>
      </trkpt>
      <trkpt lat="41.5589720942" lon="-5.7721422147">
        <ele>711.99</ele>
        <time>2020-08-10T05:59:57Z</time>
      </trkpt>
      <trkpt lat="41.5594130661" lon="-5.7722922508">
        <ele>712.47</ele>
        <time>2020-08-10T06:00:08Z</time>
      </trkpt>
      <trkpt lat="41.5598294791" lon="-5.7724368386">
        <ele>712.95</ele>
        <time>2020-08-10T06:00:18Z</time>
      </trkpt>
      <trkpt lat="41.5601806808" lon="-5.7725468930">
        <ele>713.44</ele>
        <time>2020-08-10T06:00:27Z</time>
      </trkpt>
      <trkpt lat="41.5602474846" lon="-5.7725218311">
        <ele>712.47</ele>
        <time>2020-08-10T06:00:33Z</time>
      </trkpt>
      <trkpt lat="41.5602551121" lon="-5.7725194842">
        <ele>711.99</ele>
        <time>2020-08-10T06:00:44Z</time>
      </trkpt>
      <trkpt lat="41.5602580458" lon="-5.7725169696">
        <ele>711.03</ele>
        <time>2020-08-10T06:01:06Z</time>
      </trkpt>
      <trkpt lat="41.5602514241" lon="-5.7725216635">
        <ele>712.47</ele>
        <time>2020-08-10T06:01:36Z</time>
      </trkpt>
      <trkpt lat="41.5602488257" lon="-5.7725253515">
        <ele>712.95</ele>
        <time>2020-08-10T06:01:56Z</time>
      </trkpt>
      <trkpt lat="41.5602515917" lon="-5.7725276984">
        <ele>712.95</ele>
        <time>2020-08-10T06:02:15Z</time>
      </trkpt>
      <trkpt lat="41.5602509212" lon="-5.7725196518">
        <ele>711.99</ele>
        <time>2020-08-10T06:02:35Z</time>
      </trkpt>
      <trkpt lat="41.5602495801" lon="-5.7725221664">
        <ele>711.99</ele>
        <time>2020-08-10T06:02:57Z</time>
      </trkpt>
      <trkpt lat="41.5602536872" lon="-5.7725309674">
        <ele>711.51</ele>
        <time>2020-08-10T06:03:16Z</time>
      </trkpt>
      <trkpt lat="41.5602649190" lon="-5.7725457195">
        <ele>711.99</ele>
        <time>2020-08-10T06:03:24Z</time>
      </trkpt>
      <trkpt lat="41.5602683555" lon="-5.7725524250">
        <ele>711.99</ele>
        <time>2020-08-10T06:03:28Z</time>
      </trkpt>
      <trkpt lat="41.5602745581" lon="-5.7725654170">
        <ele>711.99</ele>
        <time>2020-08-10T06:03:29Z</time>
      </trkpt>
      <trkpt lat="41.5602925792" lon="-5.7725849468">
        <ele>711.99</ele>
        <time>2020-08-10T06:03:31Z</time>
      </trkpt>
      <trkpt lat="41.5603122767" lon="-5.7725920714">
        <ele>711.99</ele>
        <time>2020-08-10T06:03:32Z</time>
      </trkpt>
      <trkpt lat="41.5605569445" lon="-5.7726730406">
        <ele>712.47</ele>
        <time>2020-08-10T06:03:41Z</time>
      </trkpt>
      <trkpt lat="41.5609408356" lon="-5.7727996912">
        <ele>712.95</ele>
        <time>2020-08-10T06:03:52Z</time>
      </trkpt>
      <trkpt lat="41.5614208672" lon="-5.7729655690">
        <ele>713.44</ele>
        <time>2020-08-10T06:04:05Z</time>
      </trkpt>
      <trkpt lat="41.5618014056" lon="-5.7730990089">
        <ele>713.92</ele>
        <time>2020-08-10T06:04:15Z</time>
      </trkpt>
      <trkpt lat="41.5622868016" lon="-5.7732675690">
        <ele>715.36</ele>
        <time>2020-08-10T06:04:28Z</time>
      </trkpt>
      <trkpt lat="41.5627991036" lon="-5.7734388113">
        <ele>715.84</ele>
        <time>2020-08-10T06:04:42Z</time>
      </trkpt>
      <trkpt lat="41.5631777141" lon="-5.7735699881">
        <ele>716.80</ele>
        <time>2020-08-10T06:04:52Z</time>
      </trkpt>
      <trkpt lat="41.5635389742" lon="-5.7736972254">
        <ele>717.76</ele>
        <time>2020-08-10T06:05:02Z</time>
      </trkpt>
      <trkpt lat="41.5638722386" lon="-5.7738195173">
        <ele>719.68</ele>
        <time>2020-08-10T06:05:12Z</time>
      </trkpt>
      <trkpt lat="41.5642142203" lon="-5.7739325892">
        <ele>721.13</ele>
        <time>2020-08-10T06:05:22Z</time>
      </trkpt>
      <trkpt lat="41.5645032283" lon="-5.7740319986">
        <ele>722.57</ele>
        <time>2020-08-10T06:05:31Z</time>
      </trkpt>
      <trkpt lat="41.5648986027" lon="-5.7741629239">
        <ele>724.01</ele>
        <time>2020-08-10T06:05:42Z</time>
      </trkpt>
      <trkpt lat="41.5652695019" lon="-5.7742948551">
        <ele>724.97</ele>
        <time>2020-08-10T06:05:51Z</time>
      </trkpt>
      <trkpt lat="41.5655934624" lon="-5.7744102739">
        <ele>724.97</ele>
        <time>2020-08-10T06:05:59Z</time>
      </trkpt>
      <trkpt lat="41.5659962967" lon="-5.7745458931">
        <ele>725.45</ele>
        <time>2020-08-10T06:06:09Z</time>
      </trkpt>
      <trkpt lat="41.5665185731" lon="-5.7747212425">
        <ele>724.49</ele>
        <time>2020-08-10T06:06:21Z</time>
      </trkpt>
      <trkpt lat="41.5671635605" lon="-5.7749425247">
        <ele>723.05</ele>
        <time>2020-08-10T06:06:35Z</time>
      </trkpt>
      <trkpt lat="41.5677471086" lon="-5.7751374040">
        <ele>721.13</ele>
        <time>2020-08-10T06:06:46Z</time>
      </trkpt>
      <trkpt lat="41.5682420600" lon="-5.7753125019">
        <ele>719.20</ele>
        <time>2020-08-10T06:06:54Z</time>
      </trkpt>
      <trkpt lat="41.5690865368" lon="-5.7756057847">
        <ele>717.28</ele>
        <time>2020-08-10T06:07:07Z</time>
      </trkpt>
      <trkpt lat="41.5695886966" lon="-5.7757827267">
        <ele>717.28</ele>
        <time>2020-08-10T06:07:16Z</time>
      </trkpt>
      <trkpt lat="41.5700502880" lon="-5.7759402227">
        <ele>718.24</ele>
        <time>2020-08-10T06:07:26Z</time>
      </trkpt>
      <trkpt lat="41.5704232827" lon="-5.7760672923">
        <ele>719.68</ele>
        <time>2020-08-10T06:07:35Z</time>
      </trkpt>
      <trkpt lat="41.5707401186" lon="-5.7761809509">
        <ele>720.16</ele>
        <time>2020-08-10T06:07:43Z</time>
      </trkpt>
      <trkpt lat="41.5711024683" lon="-5.7763001416">
        <ele>721.13</ele>
        <time>2020-08-10T06:07:52Z</time>
      </trkpt>
      <trkpt lat="41.5715238266" lon="-5.7764398679">
        <ele>721.13</ele>
        <time>2020-08-10T06:08:02Z</time>
      </trkpt>
      <trkpt lat="41.5719584282" lon="-5.7765755709">
        <ele>721.13</ele>
        <time>2020-08-10T06:08:12Z</time>
      </trkpt>
      <trkpt lat="41.5723927785" lon="-5.7767274510">
        <ele>720.65</ele>
        <time>2020-08-10T06:08:21Z</time>
      </trkpt>
      <trkpt lat="41.5728741512" lon="-5.7769072428">
        <ele>720.65</ele>
        <time>2020-08-10T06:08:31Z</time>
      </trkpt>
      <trkpt lat="41.5733550210" lon="-5.7770732045">
        <ele>722.09</ele>
        <time>2020-08-10T06:08:42Z</time>
      </trkpt>
      <trkpt lat="41.5737240762" lon="-5.7772004418">
        <ele>723.05</ele>
        <time>2020-08-10T06:08:51Z</time>
      </trkpt>
      <trkpt lat="41.5740956459" lon="-5.7773209736">
        <ele>723.53</ele>
        <time>2020-08-10T06:09:01Z</time>
      </trkpt>
      <trkpt lat="41.5745549742" lon="-5.7774733566">
        <ele>724.01</ele>
        <time>2020-08-10T06:09:12Z</time>
      </trkpt>
      <trkpt lat="41.5750340838" lon="-5.7776078861">
        <ele>724.01</ele>
        <time>2020-08-10T06:09:23Z</time>
      </trkpt>
      <trkpt lat="41.5753722936" lon="-5.7777068764">
        <ele>724.01</ele>
        <time>2020-08-10T06:09:32Z</time>
      </trkpt>
      <trkpt lat="41.5756469686" lon="-5.7778045256">
        <ele>724.01</ele>
        <time>2020-08-10T06:09:39Z</time>
      </trkpt>
      <trkpt lat="41.5756812505" lon="-5.7778256480">
        <ele>724.01</ele>
        <time>2020-08-10T06:09:40Z</time>
      </trkpt>
      <trkpt lat="41.5757139400" lon="-5.7778527215">
        <ele>724.01</ele>
        <time>2020-08-10T06:09:41Z</time>
      </trkpt>
      <trkpt lat="41.5757453721" lon="-5.7778761908">
        <ele>724.49</ele>
        <time>2020-08-10T06:09:42Z</time>
      </trkpt>
      <trkpt lat="41.5757827554" lon="-5.7778958883">
        <ele>724.49</ele>
        <time>2020-08-10T06:09:43Z</time>
      </trkpt>
      <trkpt lat="41.5758214798" lon="-5.7779103052">
        <ele>724.01</ele>
        <time>2020-08-10T06:09:44Z</time>
      </trkpt>
      <trkpt lat="41.5758637246" lon="-5.7779264823">
        <ele>724.01</ele>
        <time>2020-08-10T06:09:45Z</time>
      </trkpt>
      <trkpt lat="41.5759085678" lon="-5.7779436652">
        <ele>724.01</ele>
        <time>2020-08-10T06:09:46Z</time>
      </trkpt>
      <trkpt lat="41.5759461187" lon="-5.7779575791">
        <ele>724.01</ele>
        <time>2020-08-10T06:09:47Z</time>
      </trkpt>
      <trkpt lat="41.5763700753" lon="-5.7780982275">
        <ele>724.01</ele>
        <time>2020-08-10T06:09:57Z</time>
      </trkpt>
      <trkpt lat="41.5766273160" lon="-5.7781771012">
        <ele>724.01</ele>
        <time>2020-08-10T06:10:03Z</time>
      </trkpt>
      <trkpt lat="41.5766791161" lon="-5.7781829685">
        <ele>724.01</ele>
        <time>2020-08-10T06:10:04Z</time>
      </trkpt>
      <trkpt lat="41.5768099576" lon="-5.7782024983">
        <ele>724.01</ele>
        <time>2020-08-10T06:10:07Z</time>
      </trkpt>
      <trkpt lat="41.5768582374" lon="-5.7782169990">
        <ele>724.01</ele>
        <time>2020-08-10T06:10:08Z</time>
      </trkpt>
      <trkpt lat="41.5773950145" lon="-5.7784017362">
        <ele>723.53</ele>
        <time>2020-08-10T06:10:20Z</time>
      </trkpt>
      <trkpt lat="41.5779200569" lon="-5.7785924245">
        <ele>724.01</ele>
        <time>2020-08-10T06:10:32Z</time>
      </trkpt>
      <trkpt lat="41.5784474462" lon="-5.7787862141">
        <ele>723.05</ele>
        <time>2020-08-10T06:10:44Z</time>
      </trkpt>
      <trkpt lat="41.5789118037" lon="-5.7789618149">
        <ele>722.57</ele>
        <time>2020-08-10T06:10:54Z</time>
      </trkpt>
      <trkpt lat="41.5794221777" lon="-5.7791338116">
        <ele>722.57</ele>
        <time>2020-08-10T06:11:05Z</time>
      </trkpt>
      <trkpt lat="41.5799437836" lon="-5.7793105859">
        <ele>722.57</ele>
        <time>2020-08-10T06:11:16Z</time>
      </trkpt>
      <trkpt lat="41.5804118291" lon="-5.7794695906">
        <ele>723.53</ele>
        <time>2020-08-10T06:11:27Z</time>
      </trkpt>
      <trkpt lat="41.5808773600" lon="-5.7796332892">
        <ele>724.97</ele>
        <time>2020-08-10T06:11:39Z</time>
      </trkpt>
      <trkpt lat="41.5812593233" lon="-5.7797597721">
        <ele>725.93</ele>
        <time>2020-08-10T06:11:49Z</time>
      </trkpt>
      <trkpt lat="41.5816541109" lon="-5.7798994146">
        <ele>726.41</ele>
        <time>2020-08-10T06:11:59Z</time>
      </trkpt>
      <trkpt lat="41.5820907243" lon="-5.7800438348">
        <ele>726.41</ele>
        <time>2020-08-10T06:12:09Z</time>
      </trkpt>
      <trkpt lat="41.5826348774" lon="-5.7802289072">
        <ele>725.93</ele>
        <time>2020-08-10T06:12:21Z</time>
      </trkpt>
      <trkpt lat="41.5830895957" lon="-5.7803894207">
        <ele>724.97</ele>
        <time>2020-08-10T06:12:31Z</time>
      </trkpt>
      <trkpt lat="41.5836413763" lon="-5.7805857249">
        <ele>723.53</ele>
        <time>2020-08-10T06:12:42Z</time>
      </trkpt>
      <trkpt lat="41.5843293630" lon="-5.7808251120">
        <ele>722.57</ele>
        <time>2020-08-10T06:12:55Z</time>
      </trkpt>
      <trkpt lat="41.5849066246" lon="-5.7810194883">
        <ele>722.57</ele>
        <time>2020-08-10T06:13:07Z</time>
      </trkpt>
      <trkpt lat="41.5853687190" lon="-5.7811782416">
        <ele>722.57</ele>
        <time>2020-08-10T06:13:17Z</time>
      </trkpt>
      <trkpt lat="41.5858138818" lon="-5.7813359052">
        <ele>723.05</ele>
        <time>2020-08-10T06:13:27Z</time>
      </trkpt>
      <trkpt lat="41.5862148721" lon="-5.7814669143">
        <ele>723.05</ele>
        <time>2020-08-10T06:13:36Z</time>
      </trkpt>
      <trkpt lat="41.5866601188" lon="-5.7816235721">
        <ele>723.05</ele>
        <time>2020-08-10T06:13:46Z</time>
      </trkpt>
      <trkpt lat="41.5870961454" lon="-5.7817748655">
        <ele>723.05</ele>
        <time>2020-08-10T06:13:56Z</time>
      </trkpt>
      <trkpt lat="41.5876188409" lon="-5.7819550764">
        <ele>724.01</ele>
        <time>2020-08-10T06:14:08Z</time>
      </trkpt>
      <trkpt lat="41.5880621597" lon="-5.7821131591">
        <ele>724.49</ele>
        <time>2020-08-10T06:14:19Z</time>
      </trkpt>
      <trkpt lat="41.5884904750" lon="-5.7822673861">
        <ele>725.45</ele>
        <time>2020-08-10T06:14:30Z</time>
      </trkpt>
      <trkpt lat="41.5890357178" lon="-5.7824530452">
        <ele>725.93</ele>
        <time>2020-08-10T06:14:44Z</time>
      </trkpt>
      <trkpt lat="41.5893761907" lon="-5.7825713977">
        <ele>725.93</ele>
        <time>2020-08-10T06:14:53Z</time>
      </trkpt>
      <trkpt lat="41.5897521190" lon="-5.7826842181">
        <ele>725.93</ele>
        <time>2020-08-10T06:15:03Z</time>
      </trkpt>
      <trkpt lat="41.5903112758" lon="-5.7828770857">
        <ele>726.41</ele>
        <time>2020-08-10T06:15:16Z</time>
      </trkpt>
      <trkpt lat="41.5907529183" lon="-5.7830456458">
        <ele>725.93</ele>
        <time>2020-08-10T06:15:26Z</time>
      </trkpt>
      <trkpt lat="41.5912596881" lon="-5.7832147088">
        <ele>725.93</ele>
        <time>2020-08-10T06:15:37Z</time>
      </trkpt>
      <trkpt lat="41.5917054377" lon="-5.7833646610">
        <ele>725.45</ele>
        <time>2020-08-10T06:15:47Z</time>
      </trkpt>
      <trkpt lat="41.5922031552" lon="-5.7835337240">
        <ele>724.49</ele>
        <time>2020-08-10T06:15:58Z</time>
      </trkpt>
      <trkpt lat="41.5926244296" lon="-5.7836911362">
        <ele>723.53</ele>
        <time>2020-08-10T06:16:07Z</time>
      </trkpt>
      <trkpt lat="41.5931405034" lon="-5.7838731911">
        <ele>721.61</ele>
        <time>2020-08-10T06:16:17Z</time>
      </trkpt>
      <trkpt lat="41.5938314237" lon="-5.7841176912">
        <ele>721.13</ele>
        <time>2020-08-10T06:16:30Z</time>
      </trkpt>
      <trkpt lat="41.5944288857" lon="-5.7843309268">
        <ele>722.09</ele>
        <time>2020-08-10T06:16:42Z</time>
      </trkpt>
      <trkpt lat="41.5950438660" lon="-5.7845413964">
        <ele>722.09</ele>
        <time>2020-08-10T06:16:55Z</time>
      </trkpt>
      <trkpt lat="41.5955606941" lon="-5.7847228646">
        <ele>722.57</ele>
        <time>2020-08-10T06:17:06Z</time>
      </trkpt>
      <trkpt lat="41.5960819647" lon="-5.7848932687">
        <ele>723.05</ele>
        <time>2020-08-10T06:17:17Z</time>
      </trkpt>
      <trkpt lat="41.5966900717" lon="-5.7850996312">
        <ele>722.57</ele>
        <time>2020-08-10T06:17:30Z</time>
      </trkpt>
      <trkpt lat="41.5972627234" lon="-5.7852962706">
        <ele>722.57</ele>
        <time>2020-08-10T06:17:43Z</time>
      </trkpt>
      <trkpt lat="41.5973866079" lon="-5.7853429578">
        <ele>722.57</ele>
        <time>2020-08-10T06:17:46Z</time>
      </trkpt>
      <trkpt lat="41.5974661522" lon="-5.7853787486">
        <ele>722.57</ele>
        <time>2020-08-10T06:17:48Z</time>
      </trkpt>
      <trkpt lat="41.5979124885" lon="-5.7855304610">
        <ele>723.05</ele>
        <time>2020-08-10T06:17:58Z</time>
      </trkpt>
      <trkpt lat="41.5983992256" lon="-5.7856961712">
        <ele>723.05</ele>
        <time>2020-08-10T06:18:09Z</time>
      </trkpt>
      <trkpt lat="41.5986602381" lon="-5.7857846841">
        <ele>723.53</ele>
        <time>2020-08-10T06:18:15Z</time>
      </trkpt>
      <trkpt lat="41.5987865534" lon="-5.7858307846">
        <ele>723.53</ele>
        <time>2020-08-10T06:18:18Z</time>
      </trkpt>
      <trkpt lat="41.5991592966" lon="-5.7859549206">
        <ele>724.01</ele>
        <time>2020-08-10T06:18:27Z</time>
      </trkpt>
      <trkpt lat="41.5995716024" lon="-5.7861013524">
        <ele>724.49</ele>
        <time>2020-08-10T06:18:37Z</time>
      </trkpt>
      <trkpt lat="41.6000072099" lon="-5.7862482034">
        <ele>724.97</ele>
        <time>2020-08-10T06:18:48Z</time>
      </trkpt>
      <trkpt lat="41.6003575735" lon="-5.7863688190">
        <ele>725.93</ele>
        <time>2020-08-10T06:18:58Z</time>
      </trkpt>
      <trkpt lat="41.6007230245" lon="-5.7864985708">
        <ele>726.41</ele>
        <time>2020-08-10T06:19:08Z</time>
      </trkpt>
      <trkpt lat="41.6012027208" lon="-5.7866629399">
        <ele>726.41</ele>
        <time>2020-08-10T06:19:20Z</time>
      </trkpt>
      <trkpt lat="41.6018278431" lon="-5.7868816238">
        <ele>726.41</ele>
        <time>2020-08-10T06:19:34Z</time>
      </trkpt>
      <trkpt lat="41.6023505386" lon="-5.7870646007">
        <ele>725.93</ele>
        <time>2020-08-10T06:19:45Z</time>
      </trkpt>
      <trkpt lat="41.6028970387" lon="-5.7872550376">
        <ele>726.41</ele>
        <time>2020-08-10T06:19:57Z</time>
      </trkpt>
      <trkpt lat="41.6033000406" lon="-5.7873961888">
        <ele>726.89</ele>
        <time>2020-08-10T06:20:06Z</time>
      </trkpt>
      <trkpt lat="41.6038411763" lon="-5.7875840273">
        <ele>727.37</ele>
        <time>2020-08-10T06:20:18Z</time>
      </trkpt>
      <trkpt lat="41.6042920388" lon="-5.7877419423">
        <ele>727.86</ele>
        <time>2020-08-10T06:20:28Z</time>
      </trkpt>
      <trkpt lat="41.6049630102" lon="-5.7879737020">
        <ele>728.34</ele>
        <time>2020-08-10T06:20:43Z</time>
      </trkpt>
      <trkpt lat="41.6054671817" lon="-5.7881527394">
        <ele>729.30</ele>
        <time>2020-08-10T06:20:54Z</time>
      </trkpt>
      <trkpt lat="41.6057359893" lon="-5.7882436831">
        <ele>730.74</ele>
        <time>2020-08-10T06:21:01Z</time>
      </trkpt>
      <trkpt lat="41.6059348918" lon="-5.7883021887">
        <ele>731.70</ele>
        <time>2020-08-10T06:21:07Z</time>
      </trkpt>
      <trkpt lat="41.6062298510" lon="-5.7884374727">
        <ele>731.22</ele>
        <time>2020-08-10T06:21:13Z</time>
      </trkpt>
      <trkpt lat="41.6062870994" lon="-5.7884590980">
        <ele>731.22</ele>
        <time>2020-08-10T06:21:14Z</time>
      </trkpt>
      <trkpt lat="41.6068261396" lon="-5.7886208687">
        <ele>730.74</ele>
        <time>2020-08-10T06:21:25Z</time>
      </trkpt>
      <trkpt lat="41.6074039880" lon="-5.7888241298">
        <ele>730.74</ele>
        <time>2020-08-10T06:21:38Z</time>
      </trkpt>
      <trkpt lat="41.6077657510" lon="-5.7889486849">
        <ele>730.74</ele>
        <time>2020-08-10T06:21:46Z</time>
      </trkpt>
      <trkpt lat="41.6082825791" lon="-5.7891281415">
        <ele>730.26</ele>
        <time>2020-08-10T06:21:57Z</time>
      </trkpt>
      <trkpt lat="41.6087229643" lon="-5.7892807759">
        <ele>729.78</ele>
        <time>2020-08-10T06:22:07Z</time>
      </trkpt>
      <trkpt lat="41.6090883315" lon="-5.7894145511">
        <ele>730.26</ele>
        <time>2020-08-10T06:22:16Z</time>
      </trkpt>
      <trkpt lat="41.6095826123" lon="-5.7895840332">
        <ele>730.26</ele>
        <time>2020-08-10T06:22:27Z</time>
      </trkpt>
      <trkpt lat="41.6101333033" lon="-5.7897714525">
        <ele>730.26</ele>
        <time>2020-08-10T06:22:39Z</time>
      </trkpt>
      <trkpt lat="41.6107223835" lon="-5.7899781503">
        <ele>730.26</ele>
        <time>2020-08-10T06:22:52Z</time>
      </trkpt>
      <trkpt lat="41.6111868247" lon="-5.7901349757">
        <ele>729.78</ele>
        <time>2020-08-10T06:23:02Z</time>
      </trkpt>
      <trkpt lat="41.6116825305" lon="-5.7903089840">
        <ele>730.26</ele>
        <time>2020-08-10T06:23:13Z</time>
      </trkpt>
      <trkpt lat="41.6122229956" lon="-5.7905043662">
        <ele>730.26</ele>
        <time>2020-08-10T06:23:25Z</time>
      </trkpt>
      <trkpt lat="41.6127379797" lon="-5.7906798832">
        <ele>730.26</ele>
        <time>2020-08-10T06:23:36Z</time>
      </trkpt>
      <trkpt lat="41.6133723222" lon="-5.7908968069">
        <ele>729.78</ele>
        <time>2020-08-10T06:23:49Z</time>
      </trkpt>
      <trkpt lat="41.6139589716" lon="-5.7911000680">
        <ele>728.82</ele>
        <time>2020-08-10T06:24:01Z</time>
      </trkpt>
      <trkpt lat="41.6145062260" lon="-5.7912881579">
        <ele>728.34</ele>
        <time>2020-08-10T06:24:13Z</time>
      </trkpt>
      <trkpt lat="41.6150820628" lon="-5.7914883178">
        <ele>727.37</ele>
        <time>2020-08-10T06:24:25Z</time>
      </trkpt>
      <trkpt lat="41.6156602465" lon="-5.7916930877">
        <ele>726.41</ele>
        <time>2020-08-10T06:24:36Z</time>
      </trkpt>
      <trkpt lat="41.6163235903" lon="-5.7919279486">
        <ele>724.97</ele>
        <time>2020-08-10T06:24:49Z</time>
      </trkpt>
      <trkpt lat="41.6169904545" lon="-5.7921538409">
        <ele>725.45</ele>
        <time>2020-08-10T06:25:02Z</time>
      </trkpt>
      <trkpt lat="41.6175159998" lon="-5.7923368178">
        <ele>725.93</ele>
        <time>2020-08-10T06:25:13Z</time>
      </trkpt>
      <trkpt lat="41.6181032360" lon="-5.7925389055">
        <ele>726.89</ele>
        <time>2020-08-10T06:25:25Z</time>
      </trkpt>
      <trkpt lat="41.6186968423" lon="-5.7927469444">
        <ele>726.89</ele>
        <time>2020-08-10T06:25:37Z</time>
      </trkpt>
      <trkpt lat="41.6192798875" lon="-5.7929454278">
        <ele>725.93</ele>
        <time>2020-08-10T06:25:49Z</time>
      </trkpt>
      <trkpt lat="41.6198794451" lon="-5.7931548078">
        <ele>724.97</ele>
        <time>2020-08-10T06:26:01Z</time>
      </trkpt>
      <trkpt lat="41.6203585546" lon="-5.7933188416">
        <ele>723.53</ele>
        <time>2020-08-10T06:26:11Z</time>
      </trkpt>
      <trkpt lat="41.6208384186" lon="-5.7934840489">
        <ele>722.57</ele>
        <time>2020-08-10T06:26:21Z</time>
      </trkpt>
      <trkpt lat="41.6213329509" lon="-5.7936533634">
        <ele>722.57</ele>
        <time>2020-08-10T06:26:31Z</time>
      </trkpt>
      <trkpt lat="41.6217840649" lon="-5.7938134577">
        <ele>721.61</ele>
        <time>2020-08-10T06:26:40Z</time>
      </trkpt>
      <trkpt lat="41.6222842969" lon="-5.7939885557">
        <ele>720.65</ele>
        <time>2020-08-10T06:26:50Z</time>
      </trkpt>
      <trkpt lat="41.6228366643" lon="-5.7941762265">
        <ele>720.16</ele>
        <time>2020-08-10T06:27:01Z</time>
      </trkpt>
      <trkpt lat="41.6232369002" lon="-5.7943150308">
        <ele>719.68</ele>
        <time>2020-08-10T06:27:10Z</time>
      </trkpt>
      <trkpt lat="41.6236498766" lon="-5.7944572717">
        <ele>719.68</ele>
        <time>2020-08-10T06:27:19Z</time>
      </trkpt>
      <trkpt lat="41.6241449118" lon="-5.7946152706">
        <ele>720.16</ele>
        <time>2020-08-10T06:27:29Z</time>
      </trkpt>
      <trkpt lat="41.6247682739" lon="-5.7948343735">
        <ele>719.68</ele>
        <time>2020-08-10T06:27:42Z</time>
      </trkpt>
      <trkpt lat="41.6252856888" lon="-5.7950178534">
        <ele>718.72</ele>
        <time>2020-08-10T06:27:52Z</time>
      </trkpt>
      <trkpt lat="41.6258482821" lon="-5.7952107210">
        <ele>717.76</ele>
        <time>2020-08-10T06:28:03Z</time>
      </trkpt>
      <trkpt lat="41.6263110470" lon="-5.7953722402">
        <ele>716.32</ele>
        <time>2020-08-10T06:28:12Z</time>
      </trkpt>
      <trkpt lat="41.6268263664" lon="-5.7955585700">
        <ele>715.36</ele>
        <time>2020-08-10T06:28:22Z</time>
      </trkpt>
      <trkpt lat="41.6274264269" lon="-5.7957572211">
        <ele>714.88</ele>
        <time>2020-08-10T06:28:33Z</time>
      </trkpt>
      <trkpt lat="41.6279640421" lon="-5.7959464844">
        <ele>714.40</ele>
        <time>2020-08-10T06:28:43Z</time>
      </trkpt>
      <trkpt lat="41.6286139749" lon="-5.7961666770">
        <ele>713.92</ele>
        <time>2020-08-10T06:28:55Z</time>
      </trkpt>
      <trkpt lat="41.6290645860" lon="-5.7963226642">
        <ele>713.92</ele>
        <time>2020-08-10T06:29:04Z</time>
      </trkpt>
      <trkpt lat="41.6296230722" lon="-5.7965156995">
        <ele>712.95</ele>
        <time>2020-08-10T06:29:16Z</time>
      </trkpt>
      <trkpt lat="41.6301895212" lon="-5.7967011910">
        <ele>711.99</ele>
        <time>2020-08-10T06:29:28Z</time>
      </trkpt>
      <trkpt lat="41.6307798587" lon="-5.7969118282">
        <ele>711.51</ele>
        <time>2020-08-10T06:29:40Z</time>
      </trkpt>
      <trkpt lat="41.6311873868" lon="-5.7970145904">
        <ele>711.03</ele>
        <time>2020-08-10T06:29:49Z</time>
      </trkpt>
      <trkpt lat="41.6312351637" lon="-5.7970002573">
        <ele>711.03</ele>
        <time>2020-08-10T06:29:50Z</time>
      </trkpt>
      <trkpt lat="41.6312782466" lon="-5.7969761174">
        <ele>711.51</ele>
        <time>2020-08-10T06:29:51Z</time>
      </trkpt>
      <trkpt lat="41.6313206591" lon="-5.7969420869">
        <ele>711.51</ele>
        <time>2020-08-10T06:29:52Z</time>
      </trkpt>
      <trkpt lat="41.6313613951" lon="-5.7969092298">
        <ele>711.51</ele>
        <time>2020-08-10T06:29:53Z</time>
      </trkpt>
      <trkpt lat="41.6314034723" lon="-5.7968800608">
        <ele>711.51</ele>
        <time>2020-08-10T06:29:54Z</time>
      </trkpt>
      <trkpt lat="41.6314497404" lon="-5.7968555018">
        <ele>711.03</ele>
        <time>2020-08-10T06:29:55Z</time>
      </trkpt>
      <trkpt lat="41.6314970981" lon="-5.7968379837">
        <ele>711.03</ele>
        <time>2020-08-10T06:29:56Z</time>
      </trkpt>
      <trkpt lat="41.6315463837" lon="-5.7968275063">
        <ele>711.03</ele>
        <time>2020-08-10T06:29:57Z</time>
      </trkpt>
      <trkpt lat="41.6315982677" lon="-5.7968304399">
        <ele>711.03</ele>
        <time>2020-08-10T06:29:58Z</time>
      </trkpt>
      <trkpt lat="41.6316456255" lon="-5.7968491316">
        <ele>711.03</ele>
        <time>2020-08-10T06:29:59Z</time>
      </trkpt>
      <trkpt lat="41.6316932347" lon="-5.7968809828">
        <ele>711.03</ele>
        <time>2020-08-10T06:30:00Z</time>
      </trkpt>
      <trkpt lat="41.6317348927" lon="-5.7969192881">
        <ele>711.03</ele>
        <time>2020-08-10T06:30:01Z</time>
      </trkpt>
      <trkpt lat="41.6317713540" lon="-5.7969644666">
        <ele>711.03</ele>
        <time>2020-08-10T06:30:02Z</time>
      </trkpt>
      <trkpt lat="41.6318047140" lon="-5.7970170211">
        <ele>711.03</ele>
        <time>2020-08-10T06:30:03Z</time>
      </trkpt>
      <trkpt lat="41.6318336315" lon="-5.7970712520">
        <ele>711.03</ele>
        <time>2020-08-10T06:30:04Z</time>
      </trkpt>
      <trkpt lat="41.6318622138" lon="-5.7971308473">
        <ele>711.03</ele>
        <time>2020-08-10T06:30:05Z</time>
      </trkpt>
      <trkpt lat="41.6318923887" lon="-5.7971852459">
        <ele>711.03</ele>
        <time>2020-08-10T06:30:06Z</time>
      </trkpt>
      <trkpt lat="41.6319303587" lon="-5.7972320169">
        <ele>711.03</ele>
        <time>2020-08-10T06:30:07Z</time>
      </trkpt>
      <trkpt lat="41.6319793090" lon="-5.7972707413">
        <ele>711.03</ele>
        <time>2020-08-10T06:30:08Z</time>
      </trkpt>
      <trkpt lat="41.6320301872" lon="-5.7972997427">
        <ele>711.03</ele>
        <time>2020-08-10T06:30:09Z</time>
      </trkpt>
      <trkpt lat="41.6320835799" lon="-5.7973264810">
        <ele>711.03</ele>
        <time>2020-08-10T06:30:10Z</time>
      </trkpt>
      <trkpt lat="41.6325360350" lon="-5.7975172531">
        <ele>711.03</ele>
        <time>2020-08-10T06:30:19Z</time>
      </trkpt>
      <trkpt lat="41.6330340877" lon="-5.7976891659">
        <ele>711.03</ele>
        <time>2020-08-10T06:30:29Z</time>
      </trkpt>
      <trkpt lat="41.6336353216" lon="-5.7978915051">
        <ele>710.55</ele>
        <time>2020-08-10T06:30:41Z</time>
      </trkpt>
      <trkpt lat="41.6340841725" lon="-5.7980474085">
        <ele>710.55</ele>
        <time>2020-08-10T06:30:50Z</time>
      </trkpt>
      <trkpt lat="41.6346394736" lon="-5.7982396055">
        <ele>710.55</ele>
        <time>2020-08-10T06:31:01Z</time>
      </trkpt>
      <trkpt lat="41.6352763306" lon="-5.7984578703">
        <ele>710.55</ele>
        <time>2020-08-10T06:31:14Z</time>
      </trkpt>
      <trkpt lat="41.6358632315" lon="-5.7986628916">
        <ele>710.07</ele>
        <time>2020-08-10T06:31:26Z</time>
      </trkpt>
      <trkpt lat="41.6364430077" lon="-5.7988525741">
        <ele>709.59</ele>
        <time>2020-08-10T06:31:38Z</time>
      </trkpt>
      <trkpt lat="41.6370020807" lon="-5.7990439329">
        <ele>709.11</ele>
        <time>2020-08-10T06:31:49Z</time>
      </trkpt>
      <trkpt lat="41.6375268716" lon="-5.7992236409">
        <ele>708.15</ele>
        <time>2020-08-10T06:31:59Z</time>
      </trkpt>
      <trkpt lat="41.6381533351" lon="-5.7994355354">
        <ele>707.19</ele>
        <time>2020-08-10T06:32:11Z</time>
      </trkpt>
      <trkpt lat="41.6386672296" lon="-5.7996042632">
        <ele>706.23</ele>
        <time>2020-08-10T06:32:21Z</time>
      </trkpt>
      <trkpt lat="41.6391004901" lon="-5.7997490186">
        <ele>705.26</ele>
        <time>2020-08-10T06:32:30Z</time>
      </trkpt>
      <trkpt lat="41.6395832039" lon="-5.7999132201">
        <ele>704.78</ele>
        <time>2020-08-10T06:32:40Z</time>
      </trkpt>
      <trkpt lat="41.6400316358" lon="-5.8000605740">
        <ele>704.30</ele>
        <time>2020-08-10T06:32:49Z</time>
      </trkpt>
      <trkpt lat="41.6405316163" lon="-5.8002328221">
        <ele>703.34</ele>
        <time>2020-08-10T06:32:59Z</time>
      </trkpt>
      <trkpt lat="41.6410574969" lon="-5.8004220016">
        <ele>702.38</ele>
        <time>2020-08-10T06:33:09Z</time>
      </trkpt>
      <trkpt lat="41.6414871532" lon="-5.8005672600">
        <ele>701.90</ele>
        <time>2020-08-10T06:33:17Z</time>
      </trkpt>
      <trkpt lat="41.6420794185" lon="-5.8007672522">
        <ele>700.94</ele>
        <time>2020-08-10T06:33:28Z</time>
      </trkpt>
      <trkpt lat="41.6424990166" lon="-5.8009128459">
        <ele>700.46</ele>
        <time>2020-08-10T06:33:36Z</time>
      </trkpt>
      <trkpt lat="41.6429494601" lon="-5.8010617085">
        <ele>699.98</ele>
        <time>2020-08-10T06:33:45Z</time>
      </trkpt>
      <trkpt lat="41.6435760073" lon="-5.8012801409">
        <ele>699.98</ele>
        <time>2020-08-10T06:33:57Z</time>
      </trkpt>
      <trkpt lat="41.6442053206" lon="-5.8014919516">
        <ele>699.50</ele>
        <time>2020-08-10T06:34:09Z</time>
      </trkpt>
      <trkpt lat="41.6447358113" lon="-5.8016676363">
        <ele>699.02</ele>
        <time>2020-08-10T06:34:20Z</time>
      </trkpt>
      <trkpt lat="41.6451769508" lon="-5.8018156607">
        <ele>698.53</ele>
        <time>2020-08-10T06:34:29Z</time>
      </trkpt>
      <trkpt lat="41.6455401387" lon="-5.8019430656">
        <ele>698.53</ele>
        <time>2020-08-10T06:34:38Z</time>
      </trkpt>
      <trkpt lat="41.6457156558" lon="-5.8021220192">
        <ele>698.05</ele>
        <time>2020-08-10T06:34:44Z</time>
      </trkpt>
      <trkpt lat="41.6458241176" lon="-5.8022416290">
        <ele>697.57</ele>
        <time>2020-08-10T06:34:47Z</time>
      </trkpt>
      <trkpt lat="41.6462560371" lon="-5.8025959320">
        <ele>698.05</ele>
        <time>2020-08-10T06:34:58Z</time>
      </trkpt>
      <trkpt lat="41.6467285249" lon="-5.8029264305">
        <ele>699.50</ele>
        <time>2020-08-10T06:35:10Z</time>
      </trkpt>
      <trkpt lat="41.6468084045" lon="-5.8029758837">
        <ele>699.50</ele>
        <time>2020-08-10T06:35:12Z</time>
      </trkpt>
      <trkpt lat="41.6468876973" lon="-5.8030203916">
        <ele>699.02</ele>
        <time>2020-08-10T06:35:14Z</time>
      </trkpt>
      <trkpt lat="41.6472308524" lon="-5.8032979164">
        <ele>698.05</ele>
        <time>2020-08-10T06:35:24Z</time>
      </trkpt>
      <trkpt lat="41.6474397294" lon="-5.8034781273">
        <ele>697.57</ele>
        <time>2020-08-10T06:35:31Z</time>
      </trkpt>
      <trkpt lat="41.6477617621" lon="-5.8038186841">
        <ele>697.09</ele>
        <time>2020-08-10T06:35:41Z</time>
      </trkpt>
      <trkpt lat="41.6480594035" lon="-5.8042065986">
        <ele>697.57</ele>
        <time>2020-08-10T06:35:52Z</time>
      </trkpt>
      <trkpt lat="41.6482096910" lon="-5.8044780046">
        <ele>697.57</ele>
        <time>2020-08-10T06:35:59Z</time>
      </trkpt>
      <trkpt lat="41.6483956017" lon="-5.8047240134">
        <ele>697.09</ele>
        <time>2020-08-10T06:36:06Z</time>
      </trkpt>
      <trkpt lat="41.6486586258" lon="-5.8051233273">
        <ele>694.21</ele>
        <time>2020-08-10T06:36:15Z</time>
      </trkpt>
      <trkpt lat="41.6489002760" lon="-5.8054932207">
        <ele>691.81</ele>
        <time>2020-08-10T06:36:23Z</time>
      </trkpt>
      <trkpt lat="41.6491179541" lon="-5.8057294227">
        <ele>691.33</ele>
        <time>2020-08-10T06:36:30Z</time>
      </trkpt>
      <trkpt lat="41.6492882743" lon="-5.8059238829">
        <ele>691.81</ele>
        <time>2020-08-10T06:36:38Z</time>
      </trkpt>
      <trkpt lat="41.6494135838" lon="-5.8061065245">
        <ele>691.33</ele>
        <time>2020-08-10T06:36:47Z</time>
      </trkpt>
      <trkpt lat="41.6495290026" lon="-5.8062750846">
        <ele>691.33</ele>
        <time>2020-08-10T06:36:54Z</time>
      </trkpt>
      <trkpt lat="41.6496346984" lon="-5.8065336663">
        <ele>691.33</ele>
        <time>2020-08-10T06:37:03Z</time>
      </trkpt>
      <trkpt lat="41.6496859957" lon="-5.8066561259">
        <ele>691.33</ele>
        <time>2020-08-10T06:37:08Z</time>
      </trkpt>
      <trkpt lat="41.6496989038" lon="-5.8066510968">
        <ele>691.33</ele>
        <time>2020-08-10T06:37:13Z</time>
      </trkpt>
      <trkpt lat="41.6497112252" lon="-5.8066382725">
        <ele>691.81</ele>
        <time>2020-08-10T06:37:18Z</time>
      </trkpt>
      <trkpt lat="41.6497180145" lon="-5.8066210896">
        <ele>691.81</ele>
        <time>2020-08-10T06:37:19Z</time>
      </trkpt>
      <trkpt lat="41.6497181822" lon="-5.8066036552">
        <ele>691.81</ele>
        <time>2020-08-10T06:37:20Z</time>
      </trkpt>
      <trkpt lat="41.6497130692" lon="-5.8065828681">
        <ele>692.29</ele>
        <time>2020-08-10T06:37:21Z</time>
      </trkpt>
      <trkpt lat="41.6497035138" lon="-5.8065630868">
        <ele>692.29</ele>
        <time>2020-08-10T06:37:22Z</time>
      </trkpt>
      <trkpt lat="41.6496889293" lon="-5.8065453172">
        <ele>692.29</ele>
        <time>2020-08-10T06:37:23Z</time>
      </trkpt>
      <trkpt lat="41.6496744286" lon="-5.8065245301">
        <ele>692.29</ele>
        <time>2020-08-10T06:37:24Z</time>
      </trkpt>
      <trkpt lat="41.6496625263" lon="-5.8065010607">
        <ele>692.29</ele>
        <time>2020-08-10T06:37:25Z</time>
      </trkpt>
      <trkpt lat="41.6496108100" lon="-5.8063115459">
        <ele>692.29</ele>
        <time>2020-08-10T06:37:33Z</time>
      </trkpt>
      <trkpt lat="41.6496220417" lon="-5.8062952012">
        <ele>692.29</ele>
        <time>2020-08-10T06:37:34Z</time>
      </trkpt>
      <trkpt lat="41.6496321838" lon="-5.8062818740">
        <ele>693.25</ele>
        <time>2020-08-10T06:37:39Z</time>
      </trkpt>
      <trkpt lat="41.6496284120" lon="-5.8062905073">
        <ele>694.21</ele>
        <time>2020-08-10T06:37:52Z</time>
      </trkpt>
      <trkpt lat="41.6496196948" lon="-5.8062966261">
        <ele>696.13</ele>
        <time>2020-08-10T06:38:11Z</time>
      </trkpt>
      <trkpt lat="41.6496086307" lon="-5.8062839694">
        <ele>695.17</ele>
        <time>2020-08-10T06:38:32Z</time>
      </trkpt>
      <trkpt lat="41.6496139113" lon="-5.8062898368">
        <ele>694.69</ele>
        <time>2020-08-10T06:38:49Z</time>
      </trkpt>
      <trkpt lat="41.6496266518" lon="-5.8062922675">
        <ele>694.69</ele>
        <time>2020-08-10T06:39:10Z</time>
      </trkpt>
      <trkpt lat="41.6496134084" lon="-5.8062957879">
        <ele>694.21</ele>
        <time>2020-08-10T06:39:30Z</time>
      </trkpt>
      <trkpt lat="41.6496071219" lon="-5.8062920999">
        <ele>692.77</ele>
        <time>2020-08-10T06:39:47Z</time>
      </trkpt>
      <trkpt lat="41.6496190242" lon="-5.8062813710">
        <ele>692.29</ele>
        <time>2020-08-10T06:40:03Z</time>
      </trkpt>
      <trkpt lat="41.6496191081" lon="-5.8062840533">
        <ele>692.29</ele>
        <time>2020-08-10T06:40:20Z</time>
      </trkpt>
      <trkpt lat="41.6496202815" lon="-5.8062886633">
        <ele>693.25</ele>
        <time>2020-08-10T06:40:32Z</time>
      </trkpt>
      <trkpt lat="41.6496213712" lon="-5.8062793594">
        <ele>693.73</ele>
        <time>2020-08-10T06:40:44Z</time>
      </trkpt>
      <trkpt lat="41.6496207844" lon="-5.8062662836">
        <ele>693.73</ele>
        <time>2020-08-10T06:40:47Z</time>
      </trkpt>
      <trkpt lat="41.6496084630" lon="-5.8062553033">
        <ele>693.73</ele>
        <time>2020-08-10T06:40:48Z</time>
      </trkpt>
      <trkpt lat="41.6495893523" lon="-5.8063220233">
        <ele>694.21</ele>
        <time>2020-08-10T06:40:52Z</time>
      </trkpt>
      <trkpt lat="41.6496000811" lon="-5.8063465822">
        <ele>694.21</ele>
        <time>2020-08-10T06:40:53Z</time>
      </trkpt>
      <trkpt lat="41.6496973950" lon="-5.8065563813">
        <ele>694.21</ele>
        <time>2020-08-10T06:41:01Z</time>
      </trkpt>
      <trkpt lat="41.6497906856" lon="-5.8067856263">
        <ele>695.17</ele>
        <time>2020-08-10T06:41:07Z</time>
      </trkpt>
      <trkpt lat="41.6499890853" lon="-5.8072061464">
        <ele>697.57</ele>
        <time>2020-08-10T06:41:17Z</time>
      </trkpt>
      <trkpt lat="41.6500903387" lon="-5.8071955852">
        <ele>697.57</ele>
        <time>2020-08-10T06:41:21Z</time>
      </trkpt>
      <trkpt lat="41.6503364313" lon="-5.8069549408">
        <ele>696.61</ele>
        <time>2020-08-10T06:41:30Z</time>
      </trkpt>
      <trkpt lat="41.6503863037" lon="-5.8069919888">
        <ele>696.13</ele>
        <time>2020-08-10T06:41:34Z</time>
      </trkpt>
      <trkpt lat="41.6504668538" lon="-5.8072037995">
        <ele>696.13</ele>
        <time>2020-08-10T06:41:42Z</time>
      </trkpt>
      <trkpt lat="41.6505242698" lon="-5.8073198888">
        <ele>697.09</ele>
        <time>2020-08-10T06:41:48Z</time>
      </trkpt>
      <trkpt lat="41.6505484097" lon="-5.8073574398">
        <ele>698.05</ele>
        <time>2020-08-10T06:41:50Z</time>
      </trkpt>
      <trkpt lat="41.6505536065" lon="-5.8073685039">
        <ele>698.05</ele>
        <time>2020-08-10T06:41:51Z</time>
      </trkpt>
      <trkpt lat="41.6505678557" lon="-5.8073574398">
        <ele>696.61</ele>
        <time>2020-08-10T06:41:57Z</time>
      </trkpt>
      <trkpt lat="41.6505707894" lon="-5.8073493931">
        <ele>693.25</ele>
        <time>2020-08-10T06:42:05Z</time>
      </trkpt>
      <trkpt lat="41.6505671013" lon="-5.8073387481">
        <ele>692.29</ele>
        <time>2020-08-10T06:42:18Z</time>
      </trkpt>
      <trkpt lat="41.6505599767" lon="-5.8073441964">
        <ele>693.25</ele>
        <time>2020-08-10T06:42:34Z</time>
      </trkpt>
      <trkpt lat="41.6505657602" lon="-5.8073384967">
        <ele>693.73</ele>
        <time>2020-08-10T06:42:53Z</time>
      </trkpt>
      <trkpt lat="41.6505703703" lon="-5.8073361497">
        <ele>694.21</ele>
        <time>2020-08-10T06:42:57Z</time>
      </trkpt>
      <trkpt lat="41.6506872140" lon="-5.8073530812">
        <ele>693.73</ele>
        <time>2020-08-10T06:43:04Z</time>
      </trkpt>
      <trkpt lat="41.6509781498" lon="-5.8074516524">
        <ele>692.29</ele>
        <time>2020-08-10T06:43:15Z</time>
      </trkpt>
      <trkpt lat="41.6511529963" lon="-5.8075353038">
        <ele>690.84</ele>
        <time>2020-08-10T06:43:22Z</time>
      </trkpt>
      <trkpt lat="41.6511837579" lon="-5.8075407520">
        <ele>689.40</ele>
        <time>2020-08-10T06:43:27Z</time>
      </trkpt>
      <trkpt lat="41.6511811595" lon="-5.8075319510">
        <ele>689.40</ele>
        <time>2020-08-10T06:43:39Z</time>
      </trkpt>
      <trkpt lat="41.6511881165" lon="-5.8075445239">
        <ele>689.88</ele>
        <time>2020-08-10T06:43:56Z</time>
      </trkpt>
      <trkpt lat="41.6511934809" lon="-5.8075384889">
        <ele>689.40</ele>
        <time>2020-08-10T06:44:18Z</time>
      </trkpt>
      <trkpt lat="41.6511898767" lon="-5.8075413387">
        <ele>688.44</ele>
        <time>2020-08-10T06:44:34Z</time>
      </trkpt>
      <trkpt lat="41.6511874460" lon="-5.8075463679">
        <ele>687.48</ele>
        <time>2020-08-10T06:44:56Z</time>
      </trkpt>
      <trkpt lat="41.6511812434" lon="-5.8075508103">
        <ele>688.92</ele>
        <time>2020-08-10T06:45:17Z</time>
      </trkpt>
      <trkpt lat="41.6511957441" lon="-5.8075545821">
        <ele>689.40</ele>
        <time>2020-08-10T06:45:36Z</time>
      </trkpt>
      <trkpt lat="41.6511869431" lon="-5.8075536601">
        <ele>689.88</ele>
        <time>2020-08-10T06:45:58Z</time>
      </trkpt>
      <trkpt lat="41.6511933971" lon="-5.8075260837">
        <ele>687.96</ele>
        <time>2020-08-10T06:46:21Z</time>
      </trkpt>
      <trkpt lat="41.6511967499" lon="-5.8075384051">
        <ele>687.96</ele>
        <time>2020-08-10T06:46:28Z</time>
      </trkpt>
      <trkpt lat="41.6512610391" lon="-5.8075608686">
        <ele>687.00</ele>
        <time>2020-08-10T06:46:36Z</time>
      </trkpt>
      <trkpt lat="41.6513810679" lon="-5.8075632993">
        <ele>686.52</ele>
        <time>2020-08-10T06:46:44Z</time>
      </trkpt>
      <trkpt lat="41.6513740271" lon="-5.8075715974">
        <ele>686.52</ele>
        <time>2020-08-10T06:46:55Z</time>
      </trkpt>
      <trkpt lat="41.6513795592" lon="-5.8075714298">
        <ele>687.96</ele>
        <time>2020-08-10T06:47:13Z</time>
      </trkpt>
      <trkpt lat="41.6514215525" lon="-5.8075687476">
        <ele>687.48</ele>
        <time>2020-08-10T06:47:25Z</time>
      </trkpt>
      <trkpt lat="41.6516090557" lon="-5.8075864334">
        <ele>686.52</ele>
        <time>2020-08-10T06:47:30Z</time>
      </trkpt>
      <trkpt lat="41.6517238040" lon="-5.8076016046">
        <ele>686.04</ele>
        <time>2020-08-10T06:47:33Z</time>
      </trkpt>
      <trkpt lat="41.6519477684" lon="-5.8075257484">
        <ele>685.08</ele>
        <time>2020-08-10T06:47:40Z</time>
      </trkpt>
      <trkpt lat="41.6521194298" lon="-5.8073613793">
        <ele>684.60</ele>
        <time>2020-08-10T06:47:49Z</time>
      </trkpt>
      <trkpt lat="41.6523284744" lon="-5.8070809208">
        <ele>684.60</ele>
        <time>2020-08-10T06:47:58Z</time>
      </trkpt>
      <trkpt lat="41.6524589807" lon="-5.8067976963">
        <ele>685.08</ele>
        <time>2020-08-10T06:48:06Z</time>
      </trkpt>
      <trkpt lat="41.6525941808" lon="-5.8065822814">
        <ele>685.08</ele>
        <time>2020-08-10T06:48:14Z</time>
      </trkpt>
      <trkpt lat="41.6528134514" lon="-5.8063518628">
        <ele>686.04</ele>
        <time>2020-08-10T06:48:23Z</time>
      </trkpt>
      <trkpt lat="41.6529981047" lon="-5.8061656170">
        <ele>687.48</ele>
        <time>2020-08-10T06:48:31Z</time>
      </trkpt>
      <trkpt lat="41.6531494819" lon="-5.8060040977">
        <ele>687.96</ele>
        <time>2020-08-10T06:48:38Z</time>
      </trkpt>
      <trkpt lat="41.6533532459" lon="-5.8058176842">
        <ele>688.92</ele>
        <time>2020-08-10T06:48:47Z</time>
      </trkpt>
      <trkpt lat="41.6535483766" lon="-5.8056861721">
        <ele>690.84</ele>
        <time>2020-08-10T06:48:56Z</time>
      </trkpt>
      <trkpt lat="41.6536907852" lon="-5.8056071308">
        <ele>692.29</ele>
        <time>2020-08-10T06:49:04Z</time>
      </trkpt>
      <trkpt lat="41.6537171882" lon="-5.8055837452">
        <ele>692.77</ele>
        <time>2020-08-10T06:49:06Z</time>
      </trkpt>
      <trkpt lat="41.6537300963" lon="-5.8055661432">
        <ele>692.29</ele>
        <time>2020-08-10T06:49:07Z</time>
      </trkpt>
      <trkpt lat="41.6537773702" lon="-5.8054175321">
        <ele>692.77</ele>
        <time>2020-08-10T06:49:13Z</time>
      </trkpt>
      <trkpt lat="41.6536979098" lon="-5.8051524125">
        <ele>691.81</ele>
        <time>2020-08-10T06:49:20Z</time>
      </trkpt>
      <trkpt lat="41.6536513064" lon="-5.8049664181">
        <ele>693.25</ele>
        <time>2020-08-10T06:49:27Z</time>
      </trkpt>
      <trkpt lat="41.6536379792" lon="-5.8047996182">
        <ele>694.21</ele>
        <time>2020-08-10T06:49:35Z</time>
      </trkpt>
      <trkpt lat="41.6536512226" lon="-5.8047864586">
        <ele>694.21</ele>
        <time>2020-08-10T06:49:36Z</time>
      </trkpt>
      <trkpt lat="41.6536829062" lon="-5.8047758136">
        <ele>694.21</ele>
        <time>2020-08-10T06:49:38Z</time>
      </trkpt>
      <trkpt lat="41.6537038609" lon="-5.8047857881">
        <ele>694.69</ele>
        <time>2020-08-10T06:49:39Z</time>
      </trkpt>
      <trkpt lat="41.6538717505" lon="-5.8048845269">
        <ele>695.65</ele>
        <time>2020-08-10T06:49:47Z</time>
      </trkpt>
      <trkpt lat="41.6540560685" lon="-5.8050328027">
        <ele>696.61</ele>
        <time>2020-08-10T06:49:56Z</time>
      </trkpt>
      <trkpt lat="41.6542720702" lon="-5.8052138519">
        <ele>698.53</ele>
        <time>2020-08-10T06:50:05Z</time>
      </trkpt>
      <trkpt lat="41.6545495111" lon="-5.8054444380">
        <ele>699.98</ele>
        <time>2020-08-10T06:50:18Z</time>
      </trkpt>
      <trkpt lat="41.6547697037" lon="-5.8056139201">
        <ele>701.90</ele>
        <time>2020-08-10T06:50:28Z</time>
      </trkpt>
      <trkpt lat="41.6550142039" lon="-5.8057795465">
        <ele>703.34</ele>
        <time>2020-08-10T06:50:39Z</time>
      </trkpt>
      <trkpt lat="41.6552300379" lon="-5.8058978152">
        <ele>704.78</ele>
        <time>2020-08-10T06:50:48Z</time>
      </trkpt>
      <trkpt lat="41.6554268450" lon="-5.8059910219">
        <ele>705.26</ele>
        <time>2020-08-10T06:50:56Z</time>
      </trkpt>
      <trkpt lat="41.6556087323" lon="-5.8060564846">
        <ele>705.75</ele>
        <time>2020-08-10T06:51:04Z</time>
      </trkpt>
      <trkpt lat="41.6558644641" lon="-5.8061330114">
        <ele>707.67</ele>
        <time>2020-08-10T06:51:15Z</time>
      </trkpt>
      <trkpt lat="41.6560682282" lon="-5.8061856497">
        <ele>708.63</ele>
        <time>2020-08-10T06:51:24Z</time>
      </trkpt>
      <trkpt lat="41.6562728304" lon="-5.8062170818">
        <ele>709.59</ele>
        <time>2020-08-10T06:51:33Z</time>
      </trkpt>
      <trkpt lat="41.6564605851" lon="-5.8062320016">
        <ele>710.07</ele>
        <time>2020-08-10T06:51:41Z</time>
      </trkpt>
      <trkpt lat="41.6567068454" lon="-5.8062496874">
        <ele>711.51</ele>
        <time>2020-08-10T06:51:51Z</time>
      </trkpt>
      <trkpt lat="41.6569609847" lon="-5.8062475920">
        <ele>712.47</ele>
        <time>2020-08-10T06:52:01Z</time>
      </trkpt>
      <trkpt lat="41.6571972705" lon="-5.8062463347">
        <ele>712.47</ele>
        <time>2020-08-10T06:52:10Z</time>
      </trkpt>
      <trkpt lat="41.6574161220" lon="-5.8062404674">
        <ele>712.95</ele>
        <time>2020-08-10T06:52:18Z</time>
      </trkpt>
      <trkpt lat="41.6577085666" lon="-5.8062327560">
        <ele>713.44</ele>
        <time>2020-08-10T06:52:28Z</time>
      </trkpt>
      <trkpt lat="41.6580001730" lon="-5.8062261343">
        <ele>713.44</ele>
        <time>2020-08-10T06:52:38Z</time>
      </trkpt>
      <trkpt lat="41.6582759377" lon="-5.8062202670">
        <ele>713.92</ele>
        <time>2020-08-10T06:52:47Z</time>
      </trkpt>
      <trkpt lat="41.6585498583" lon="-5.8062229492">
        <ele>713.92</ele>
        <time>2020-08-10T06:52:56Z</time>
      </trkpt>
      <trkpt lat="41.6587686259" lon="-5.8062162437">
        <ele>713.92</ele>
        <time>2020-08-10T06:53:03Z</time>
      </trkpt>
      <trkpt lat="41.6590820253" lon="-5.8062134776">
        <ele>713.44</ele>
        <time>2020-08-10T06:53:12Z</time>
      </trkpt>
      <trkpt lat="41.6595405992" lon="-5.8062015753">
        <ele>711.99</ele>
        <time>2020-08-10T06:53:23Z</time>
      </trkpt>
      <trkpt lat="41.6598935612" lon="-5.8061984740">
        <ele>711.51</ele>
        <time>2020-08-10T06:53:31Z</time>
      </trkpt>
      <trkpt lat="41.6600659769" lon="-5.8061975520">
        <ele>711.51</ele>
        <time>2020-08-10T06:53:35Z</time>
      </trkpt>
      <trkpt lat="41.6605187673" lon="-5.8061918523">
        <ele>710.55</ele>
        <time>2020-08-10T06:53:45Z</time>
      </trkpt>
      <trkpt lat="41.6610698774" lon="-5.8061892539">
        <ele>709.59</ele>
        <time>2020-08-10T06:53:55Z</time>
      </trkpt>
      <trkpt lat="41.6615620628" lon="-5.8061767649">
        <ele>709.11</ele>
        <time>2020-08-10T06:54:04Z</time>
      </trkpt>
      <trkpt lat="41.6620954871" lon="-5.8061734959">
        <ele>708.15</ele>
        <time>2020-08-10T06:54:14Z</time>
      </trkpt>
      <trkpt lat="41.6626818851" lon="-5.8061705623">
        <ele>707.19</ele>
        <time>2020-08-10T06:54:25Z</time>
      </trkpt>
      <trkpt lat="41.6631692927" lon="-5.8061664551">
        <ele>706.23</ele>
        <time>2020-08-10T06:54:34Z</time>
      </trkpt>
      <trkpt lat="41.6636868753" lon="-5.8061660361">
        <ele>706.23</ele>
        <time>2020-08-10T06:54:43Z</time>
      </trkpt>
      <trkpt lat="41.6643627919" lon="-5.8061568998">
        <ele>705.75</ele>
        <time>2020-08-10T06:54:54Z</time>
      </trkpt>
      <trkpt lat="41.6648942046" lon="-5.8061541338">
        <ele>706.23</ele>
        <time>2020-08-10T06:55:03Z</time>
      </trkpt>
      <trkpt lat="41.6653766669" lon="-5.8061434887">
        <ele>705.75</ele>
        <time>2020-08-10T06:55:12Z</time>
      </trkpt>
      <trkpt lat="41.6659688484" lon="-5.8061320055">
        <ele>705.75</ele>
        <time>2020-08-10T06:55:23Z</time>
      </trkpt>
      <trkpt lat="41.6666796338" lon="-5.8061244618">
        <ele>705.26</ele>
        <time>2020-08-10T06:55:36Z</time>
      </trkpt>
      <trkpt lat="41.6671542171" lon="-5.8061179239">
        <ele>705.26</ele>
        <time>2020-08-10T06:55:45Z</time>
      </trkpt>
      <trkpt lat="41.6678204108" lon="-5.8061153255">
        <ele>704.78</ele>
        <time>2020-08-10T06:55:57Z</time>
      </trkpt>
      <trkpt lat="41.6684034560" lon="-5.8060983941">
        <ele>704.78</ele>
        <time>2020-08-10T06:56:08Z</time>
      </trkpt>
      <trkpt lat="41.6687670629" lon="-5.8060944546">
        <ele>704.78</ele>
        <time>2020-08-10T06:56:15Z</time>
      </trkpt>
      <trkpt lat="41.6692696419" lon="-5.8060893416">
        <ele>704.78</ele>
        <time>2020-08-10T06:56:25Z</time>
      </trkpt>
      <trkpt lat="41.6698339954" lon="-5.8060771041">
        <ele>704.78</ele>
        <time>2020-08-10T06:56:36Z</time>
      </trkpt>
      <trkpt lat="41.6704525799" lon="-5.8060704824">
        <ele>704.78</ele>
        <time>2020-08-10T06:56:48Z</time>
      </trkpt>
      <trkpt lat="41.6709737666" lon="-5.8060612623">
        <ele>705.26</ele>
        <time>2020-08-10T06:56:58Z</time>
      </trkpt>
      <trkpt lat="41.6714853141" lon="-5.8060587477">
        <ele>705.26</ele>
        <time>2020-08-10T06:57:08Z</time>
      </trkpt>
      <trkpt lat="41.6719498392" lon="-5.8060518745">
        <ele>705.26</ele>
        <time>2020-08-10T06:57:17Z</time>
      </trkpt>
      <trkpt lat="41.6725484747" lon="-5.8060458396">
        <ele>705.26</ele>
        <time>2020-08-10T06:57:29Z</time>
      </trkpt>
      <trkpt lat="41.6731758602" lon="-5.8060413972">
        <ele>706.23</ele>
        <time>2020-08-10T06:57:42Z</time>
      </trkpt>
      <trkpt lat="41.6737572290" lon="-5.8060300816">
        <ele>706.71</ele>
        <time>2020-08-10T06:57:54Z</time>
      </trkpt>
      <trkpt lat="41.6742411163" lon="-5.8060292434">
        <ele>706.71</ele>
        <time>2020-08-10T06:58:04Z</time>
      </trkpt>
      <trkpt lat="41.6747241654" lon="-5.8060239628">
        <ele>707.19</ele>
        <time>2020-08-10T06:58:14Z</time>
      </trkpt>
      <trkpt lat="41.6750467010" lon="-5.8060383797">
        <ele>708.15</ele>
        <time>2020-08-10T06:58:21Z</time>
      </trkpt>
      <trkpt lat="41.6751628742" lon="-5.8060909342">
        <ele>709.59</ele>
        <time>2020-08-10T06:58:24Z</time>
      </trkpt>
      <trkpt lat="41.6753708292" lon="-5.8060667943">
        <ele>711.99</ele>
        <time>2020-08-10T06:58:29Z</time>
      </trkpt>
      <trkpt lat="41.6757750884" lon="-5.8060351945">
        <ele>712.95</ele>
        <time>2020-08-10T06:58:37Z</time>
      </trkpt>
      <trkpt lat="41.6763805971" lon="-5.8060134854">
        <ele>711.51</ele>
        <time>2020-08-10T06:58:49Z</time>
      </trkpt>
      <trkpt lat="41.6769079864" lon="-5.8060030080">
        <ele>710.55</ele>
        <time>2020-08-10T06:59:00Z</time>
      </trkpt>
      <trkpt lat="41.6773948912" lon="-5.8059941232">
        <ele>709.59</ele>
        <time>2020-08-10T06:59:10Z</time>
      </trkpt>
      <trkpt lat="41.6778408922" lon="-5.8059907705">
        <ele>710.07</ele>
        <time>2020-08-10T06:59:19Z</time>
      </trkpt>
      <trkpt lat="41.6782443970" lon="-5.8059912734">
        <ele>709.59</ele>
        <time>2020-08-10T06:59:27Z</time>
      </trkpt>
      <trkpt lat="41.6787407734" lon="-5.8059879206">
        <ele>709.59</ele>
        <time>2020-08-10T06:59:37Z</time>
      </trkpt>
      <trkpt lat="41.6789000295" lon="-5.8059828077">
        <ele>710.07</ele>
        <time>2020-08-10T06:59:41Z</time>
      </trkpt>
      <trkpt lat="41.6793372296" lon="-5.8059811313">
        <ele>710.55</ele>
        <time>2020-08-10T06:59:51Z</time>
      </trkpt>
      <trkpt lat="41.6793807317" lon="-5.8059808798">
        <ele>710.55</ele>
        <time>2020-08-10T06:59:52Z</time>
      </trkpt>
      <trkpt lat="41.6794249043" lon="-5.8059817180">
        <ele>710.55</ele>
        <time>2020-08-10T06:59:53Z</time>
      </trkpt>
      <trkpt lat="41.6798520461" lon="-5.8059735037">
        <ele>711.03</ele>
        <time>2020-08-10T07:00:03Z</time>
      </trkpt>
      <trkpt lat="41.6803133860" lon="-5.8059676364">
        <ele>711.99</ele>
        <time>2020-08-10T07:00:14Z</time>
      </trkpt>
      <trkpt lat="41.6806712933" lon="-5.8059676364">
        <ele>712.95</ele>
        <time>2020-08-10T07:00:23Z</time>
      </trkpt>
      <trkpt lat="41.6810049769" lon="-5.8059719112">
        <ele>713.44</ele>
        <time>2020-08-10T07:00:32Z</time>
      </trkpt>
      <trkpt lat="41.6812000237" lon="-5.8059758507">
        <ele>714.40</ele>
        <time>2020-08-10T07:00:40Z</time>
      </trkpt>
      <trkpt lat="41.6812015325" lon="-5.8059706539">
        <ele>714.40</ele>
        <time>2020-08-10T07:00:46Z</time>
      </trkpt>
      <trkpt lat="41.6812086571" lon="-5.8059729170">
        <ele>714.40</ele>
        <time>2020-08-10T07:00:57Z</time>
      </trkpt>
      <trkpt lat="41.6812067293" lon="-5.8059616014">
        <ele>714.40</ele>
        <time>2020-08-10T07:01:11Z</time>
      </trkpt>
      <trkpt lat="41.6812158655" lon="-5.8059577458">
        <ele>714.88</ele>
        <time>2020-08-10T07:01:22Z</time>
      </trkpt>
      <trkpt lat="41.6812694259" lon="-5.8059742581">
        <ele>715.36</ele>
        <time>2020-08-10T07:01:27Z</time>
      </trkpt>
      <trkpt lat="41.6814773809" lon="-5.8059739228">
        <ele>715.36</ele>
        <time>2020-08-10T07:01:35Z</time>
      </trkpt>
      <trkpt lat="41.6816995852" lon="-5.8059855737">
        <ele>714.40</ele>
        <time>2020-08-10T07:01:42Z</time>
      </trkpt>
      <trkpt lat="41.6820121463" lon="-5.8059698995">
        <ele>713.92</ele>
        <time>2020-08-10T07:01:52Z</time>
      </trkpt>
      <trkpt lat="41.6822906770" lon="-5.8059711568">
        <ele>713.44</ele>
        <time>2020-08-10T07:02:00Z</time>
      </trkpt>
      <trkpt lat="41.6826372687" lon="-5.8059719950">
        <ele>713.44</ele>
        <time>2020-08-10T07:02:07Z</time>
      </trkpt>
      <trkpt lat="41.6830913164" lon="-5.8059634455">
        <ele>712.95</ele>
        <time>2020-08-10T07:02:16Z</time>
      </trkpt>
      <trkpt lat="41.6835804004" lon="-5.8059530519">
        <ele>711.99</ele>
        <time>2020-08-10T07:02:25Z</time>
      </trkpt>
      <trkpt lat="41.6840730887" lon="-5.8059472684">
        <ele>711.99</ele>
        <time>2020-08-10T07:02:34Z</time>
      </trkpt>
      <trkpt lat="41.6846002266" lon="-5.8059569076">
        <ele>712.47</ele>
        <time>2020-08-10T07:02:44Z</time>
      </trkpt>
      <trkpt lat="41.6851668432" lon="-5.8060134854">
        <ele>712.47</ele>
        <time>2020-08-10T07:02:55Z</time>
      </trkpt>
      <trkpt lat="41.6856858507" lon="-5.8061560616">
        <ele>712.47</ele>
        <time>2020-08-10T07:03:05Z</time>
      </trkpt>
      <trkpt lat="41.6861940455" lon="-5.8063598257">
        <ele>712.47</ele>
        <time>2020-08-10T07:03:15Z</time>
      </trkpt>
      <trkpt lat="41.6867938545" lon="-5.8066895697">
        <ele>712.95</ele>
        <time>2020-08-10T07:03:27Z</time>
      </trkpt>
      <trkpt lat="41.6873563640" lon="-5.8070142847">
        <ele>711.51</ele>
        <time>2020-08-10T07:03:39Z</time>
      </trkpt>
      <trkpt lat="41.6878511477" lon="-5.8072985988">
        <ele>710.07</ele>
        <time>2020-08-10T07:03:49Z</time>
      </trkpt>
      <trkpt lat="41.6883684788" lon="-5.8075560071">
        <ele>708.15</ele>
        <time>2020-08-10T07:03:58Z</time>
      </trkpt>
      <trkpt lat="41.6885859054" lon="-5.8076209668">
        <ele>707.19</ele>
        <time>2020-08-10T07:04:02Z</time>
      </trkpt>
      <trkpt lat="41.6887809522" lon="-5.8075749502">
        <ele>706.71</ele>
        <time>2020-08-10T07:04:07Z</time>
      </trkpt>
      <trkpt lat="41.6888946947" lon="-5.8073795680">
        <ele>706.71</ele>
        <time>2020-08-10T07:04:14Z</time>
      </trkpt>
      <trkpt lat="41.6890406236" lon="-5.8071105927">
        <ele>706.23</ele>
        <time>2020-08-10T07:04:21Z</time>
      </trkpt>
      <trkpt lat="41.6890916694" lon="-5.8070443757">
        <ele>705.75</ele>
        <time>2020-08-10T07:04:25Z</time>
      </trkpt>
      <trkpt lat="41.6890866403" lon="-5.8070369158">
        <ele>705.75</ele>
        <time>2020-08-10T07:04:32Z</time>
      </trkpt>
      <trkpt lat="41.6890033241" lon="-5.8068369236">
        <ele>704.78</ele>
        <time>2020-08-10T07:04:39Z</time>
      </trkpt>
      <trkpt lat="41.6888500191" lon="-5.8063161559">
        <ele>706.71</ele>
        <time>2020-08-10T07:04:48Z</time>
      </trkpt>
      <trkpt lat="41.6887205187" lon="-5.8059115615">
        <ele>709.11</ele>
        <time>2020-08-10T07:04:57Z</time>
      </trkpt>
      <trkpt lat="41.6885951255" lon="-5.8055161033">
        <ele>710.55</ele>
        <time>2020-08-10T07:05:07Z</time>
      </trkpt>
      <trkpt lat="41.6884556506" lon="-5.8051114250">
        <ele>712.47</ele>
        <time>2020-08-10T07:05:18Z</time>
      </trkpt>
      <trkpt lat="41.6883208696" lon="-5.8046948444">
        <ele>714.40</ele>
        <time>2020-08-10T07:05:29Z</time>
      </trkpt>
      <trkpt lat="41.6882167663" lon="-5.8043641783">
        <ele>714.88</ele>
        <time>2020-08-10T07:05:38Z</time>
      </trkpt>
      <trkpt lat="41.6880715918" lon="-5.8039405569">
        <ele>714.88</ele>
        <time>2020-08-10T07:05:49Z</time>
      </trkpt>
      <trkpt lat="41.6879362240" lon="-5.8035416622">
        <ele>714.40</ele>
        <time>2020-08-10T07:05:57Z</time>
      </trkpt>
      <trkpt lat="41.6879017744" lon="-5.8034273330">
        <ele>713.92</ele>
        <time>2020-08-10T07:05:59Z</time>
      </trkpt>
      <trkpt lat="41.6876887064" lon="-5.8031612076">
        <ele>713.44</ele>
        <time>2020-08-10T07:06:05Z</time>
      </trkpt>
      <trkpt lat="41.6873768996" lon="-5.8028891310">
        <ele>712.47</ele>
        <time>2020-08-10T07:06:12Z</time>
      </trkpt>
      <trkpt lat="41.6873517539" lon="-5.8025739715">
        <ele>711.51</ele>
        <time>2020-08-10T07:06:16Z</time>
      </trkpt>
      <trkpt lat="41.6874744650" lon="-5.8023124561">
        <ele>711.03</ele>
        <time>2020-08-10T07:06:20Z</time>
      </trkpt>
      <trkpt lat="41.6876261774" lon="-5.8022081852">
        <ele>711.03</ele>
        <time>2020-08-10T07:06:23Z</time>
      </trkpt>
      <trkpt lat="41.6878620442" lon="-5.8020018227">
        <ele>711.03</ele>
        <time>2020-08-10T07:06:28Z</time>
      </trkpt>
      <trkpt lat="41.6881502979" lon="-5.8018301614">
        <ele>710.55</ele>
        <time>2020-08-10T07:06:34Z</time>
      </trkpt>
      <trkpt lat="41.6884469334" lon="-5.8018896729">
        <ele>709.11</ele>
        <time>2020-08-10T07:06:39Z</time>
      </trkpt>
      <trkpt lat="41.6885051876" lon="-5.8019238710">
        <ele>708.63</ele>
        <time>2020-08-10T07:06:40Z</time>
      </trkpt>
      <trkpt lat="41.6891250294" lon="-5.8022134658">
        <ele>706.23</ele>
        <time>2020-08-10T07:06:50Z</time>
      </trkpt>
      <trkpt lat="41.6896924004" lon="-5.8021579776">
        <ele>704.78</ele>
        <time>2020-08-10T07:06:58Z</time>
      </trkpt>
      <trkpt lat="41.6902285069" lon="-5.8019099571">
        <ele>703.34</ele>
        <time>2020-08-10T07:07:06Z</time>
      </trkpt>
      <trkpt lat="41.6906836443" lon="-5.8015637007">
        <ele>703.34</ele>
        <time>2020-08-10T07:07:14Z</time>
      </trkpt>
      <trkpt lat="41.6911615804" lon="-5.8011104073">
        <ele>702.86</ele>
        <time>2020-08-10T07:07:24Z</time>
      </trkpt>
      <trkpt lat="41.6914854571" lon="-5.8007834293">
        <ele>702.38</ele>
        <time>2020-08-10T07:07:31Z</time>
      </trkpt>
      <trkpt lat="41.6919730324" lon="-5.8002546988">
        <ele>701.90</ele>
        <time>2020-08-10T07:07:42Z</time>
      </trkpt>
      <trkpt lat="41.6923921276" lon="-5.7997676264">
        <ele>701.42</ele>
        <time>2020-08-10T07:07:52Z</time>
      </trkpt>
      <trkpt lat="41.6928684711" lon="-5.7991774566">
        <ele>700.46</ele>
        <time>2020-08-10T07:08:04Z</time>
      </trkpt>
      <trkpt lat="41.6932602413" lon="-5.7986822538">
        <ele>700.46</ele>
        <time>2020-08-10T07:08:14Z</time>
      </trkpt>
      <trkpt lat="41.6937257722" lon="-5.7980869710">
        <ele>700.46</ele>
        <time>2020-08-10T07:08:26Z</time>
      </trkpt>
      <trkpt lat="41.6940398421" lon="-5.7976737432">
        <ele>699.98</ele>
        <time>2020-08-10T07:08:34Z</time>
      </trkpt>
      <trkpt lat="41.6944931354" lon="-5.7971140835">
        <ele>699.98</ele>
        <time>2020-08-10T07:08:45Z</time>
      </trkpt>
      <trkpt lat="41.6948992386" lon="-5.7966144383">
        <ele>699.98</ele>
        <time>2020-08-10T07:08:55Z</time>
      </trkpt>
      <trkpt lat="41.6952848062" lon="-5.7961960137">
        <ele>699.98</ele>
        <time>2020-08-10T07:09:04Z</time>
      </trkpt>
      <trkpt lat="41.6957234312" lon="-5.7957474142">
        <ele>699.98</ele>
        <time>2020-08-10T07:09:14Z</time>
      </trkpt>
      <trkpt lat="41.6961200628" lon="-5.7953619305">
        <ele>699.50</ele>
        <time>2020-08-10T07:09:23Z</time>
      </trkpt>
      <trkpt lat="41.6966604441" lon="-5.7948719244">
        <ele>699.50</ele>
        <time>2020-08-10T07:09:35Z</time>
      </trkpt>
      <trkpt lat="41.6972309165" lon="-5.7944024540">
        <ele>699.02</ele>
        <time>2020-08-10T07:09:47Z</time>
      </trkpt>
      <trkpt lat="41.6977412067" lon="-5.7940160483">
        <ele>699.02</ele>
        <time>2020-08-10T07:09:58Z</time>
      </trkpt>
      <trkpt lat="41.6982150357" lon="-5.7936830353">
        <ele>699.02</ele>
        <time>2020-08-10T07:10:08Z</time>
      </trkpt>
      <trkpt lat="41.6986619588" lon="-5.7933983020">
        <ele>698.53</ele>
        <time>2020-08-10T07:10:17Z</time>
      </trkpt>
      <trkpt lat="41.6991673876" lon="-5.7931067795">
        <ele>698.05</ele>
        <time>2020-08-10T07:10:27Z</time>
      </trkpt>
      <trkpt lat="41.6996322479" lon="-5.7928642072">
        <ele>698.05</ele>
        <time>2020-08-10T07:10:36Z</time>
      </trkpt>
      <trkpt lat="41.7002250161" lon="-5.7925829943">
        <ele>697.09</ele>
        <time>2020-08-10T07:10:48Z</time>
      </trkpt>
      <trkpt lat="41.7006371543" lon="-5.7924114168">
        <ele>696.61</ele>
        <time>2020-08-10T07:10:57Z</time>
      </trkpt>
      <trkpt lat="41.7010358814" lon="-5.7922700979">
        <ele>695.65</ele>
        <time>2020-08-10T07:11:07Z</time>
      </trkpt>
      <trkpt lat="41.7010866757" lon="-5.7922374923">
        <ele>695.65</ele>
        <time>2020-08-10T07:11:09Z</time>
      </trkpt>
      <trkpt lat="41.7011014279" lon="-5.7922102511">
        <ele>695.65</ele>
        <time>2020-08-10T07:11:10Z</time>
      </trkpt>
      <trkpt lat="41.7011076305" lon="-5.7921744604">
        <ele>696.13</ele>
        <time>2020-08-10T07:11:11Z</time>
      </trkpt>
      <trkpt lat="41.7011067923" lon="-5.7921315450">
        <ele>695.65</ele>
        <time>2020-08-10T07:11:12Z</time>
      </trkpt>
      <trkpt lat="41.7011042777" lon="-5.7920985203">
        <ele>695.17</ele>
        <time>2020-08-10T07:11:13Z</time>
      </trkpt>
      <trkpt lat="41.7011013441" lon="-5.7920689322">
        <ele>695.17</ele>
        <time>2020-08-10T07:11:14Z</time>
      </trkpt>
      <trkpt lat="41.7011605203" lon="-5.7918853685">
        <ele>694.69</ele>
        <time>2020-08-10T07:11:21Z</time>
      </trkpt>
      <trkpt lat="41.7011782061" lon="-5.7918755617">
        <ele>694.21</ele>
        <time>2020-08-10T07:11:26Z</time>
      </trkpt>
      <trkpt lat="41.7011721712" lon="-5.7918746397">
        <ele>693.73</ele>
        <time>2020-08-10T07:11:43Z</time>
      </trkpt>
      <trkpt lat="41.7011789605" lon="-5.7918611448">
        <ele>692.77</ele>
        <time>2020-08-10T07:11:50Z</time>
      </trkpt>
      <trkpt lat="41.7011840735" lon="-5.7918471470">
        <ele>692.77</ele>
        <time>2020-08-10T07:11:51Z</time>
      </trkpt>
      <trkpt lat="41.7011884321" lon="-5.7918292098">
        <ele>692.77</ele>
        <time>2020-08-10T07:11:52Z</time>
      </trkpt>
      <trkpt lat="41.7011922039" lon="-5.7918129489">
        <ele>692.77</ele>
        <time>2020-08-10T07:11:53Z</time>
      </trkpt>
      <trkpt lat="41.7011974845" lon="-5.7917927485">
        <ele>692.77</ele>
        <time>2020-08-10T07:11:54Z</time>
      </trkpt>
      <trkpt lat="41.7012015078" lon="-5.7917686924">
        <ele>692.29</ele>
        <time>2020-08-10T07:11:55Z</time>
      </trkpt>
      <trkpt lat="41.7012064531" lon="-5.7917411998">
        <ele>692.29</ele>
        <time>2020-08-10T07:11:56Z</time>
      </trkpt>
      <trkpt lat="41.7012122367" lon="-5.7917175628">
        <ele>692.29</ele>
        <time>2020-08-10T07:11:57Z</time>
      </trkpt>
      <trkpt lat="41.7012594268" lon="-5.7916025631">
        <ele>692.29</ele>
        <time>2020-08-10T07:12:03Z</time>
      </trkpt>
      <trkpt lat="41.7012808844" lon="-5.7915692870">
        <ele>692.29</ele>
        <time>2020-08-10T07:12:09Z</time>
      </trkpt>
      <trkpt lat="41.7012843210" lon="-5.7915690355">
        <ele>692.29</ele>
        <time>2020-08-10T07:12:20Z</time>
      </trkpt>
      <trkpt lat="41.7012860812" lon="-5.7915668562">
        <ele>691.33</ele>
        <time>2020-08-10T07:12:38Z</time>
      </trkpt>
      <trkpt lat="41.7012858298" lon="-5.7915623300">
        <ele>690.84</ele>
        <time>2020-08-10T07:12:57Z</time>
      </trkpt>
      <trkpt lat="41.7012831476" lon="-5.7915756572">
        <ele>691.81</ele>
        <time>2020-08-10T07:13:17Z</time>
      </trkpt>
      <trkpt lat="41.7012818903" lon="-5.7915733941">
        <ele>691.33</ele>
        <time>2020-08-10T07:13:37Z</time>
      </trkpt>
      <trkpt lat="41.7012824770" lon="-5.7915734779">
        <ele>690.84</ele>
        <time>2020-08-10T07:13:52Z</time>
      </trkpt>
      <trkpt lat="41.7012844048" lon="-5.7915779203">
        <ele>691.33</ele>
        <time>2020-08-10T07:14:21Z</time>
      </trkpt>
      <trkpt lat="41.7012834828" lon="-5.7915767469">
        <ele>690.84</ele>
        <time>2020-08-10T07:14:51Z</time>
      </trkpt>
      <trkpt lat="41.7012803815" lon="-5.7915759925">
        <ele>690.84</ele>
        <time>2020-08-10T07:15:12Z</time>
      </trkpt>
      <trkpt lat="41.7012812197" lon="-5.7915748190">
        <ele>691.33</ele>
        <time>2020-08-10T07:15:25Z</time>
      </trkpt>
      <trkpt lat="41.7013081256" lon="-5.7915365137">
        <ele>691.33</ele>
        <time>2020-08-10T07:15:34Z</time>
      </trkpt>
      <trkpt lat="41.7014248017" lon="-5.7913319115">
        <ele>691.81</ele>
        <time>2020-08-10T07:15:41Z</time>
      </trkpt>
      <trkpt lat="41.7016397975" lon="-5.7909567375">
        <ele>692.29</ele>
        <time>2020-08-10T07:15:51Z</time>
      </trkpt>
      <trkpt lat="41.7018990498" lon="-5.7905082218">
        <ele>692.77</ele>
        <time>2020-08-10T07:16:02Z</time>
      </trkpt>
      <trkpt lat="41.7021873035" lon="-5.7900023740">
        <ele>693.73</ele>
        <time>2020-08-10T07:16:14Z</time>
      </trkpt>
      <trkpt lat="41.7024406884" lon="-5.7895726338">
        <ele>694.21</ele>
        <time>2020-08-10T07:16:24Z</time>
      </trkpt>
      <trkpt lat="41.7027173750" lon="-5.7891187537">
        <ele>693.73</ele>
        <time>2020-08-10T07:16:34Z</time>
      </trkpt>
      <trkpt lat="41.7030254100" lon="-5.7885974832">
        <ele>692.29</ele>
        <time>2020-08-10T07:16:46Z</time>
      </trkpt>
      <trkpt lat="41.7032570858" lon="-5.7882532384">
        <ele>691.33</ele>
        <time>2020-08-10T07:16:56Z</time>
      </trkpt>
      <trkpt lat="41.7035856564" lon="-5.7879992668">
        <ele>690.84</ele>
        <time>2020-08-10T07:17:07Z</time>
      </trkpt>
      <trkpt lat="41.7038256302" lon="-5.7879259251">
        <ele>690.84</ele>
        <time>2020-08-10T07:17:15Z</time>
      </trkpt>
      <trkpt lat="41.7039614171" lon="-5.7879110053">
        <ele>690.84</ele>
        <time>2020-08-10T07:17:22Z</time>
      </trkpt>
      <trkpt lat="41.7041703779" lon="-5.7879160345">
        <ele>690.84</ele>
        <time>2020-08-10T07:17:30Z</time>
      </trkpt>
      <trkpt lat="41.7045155447" lon="-5.7879932318">
        <ele>691.33</ele>
        <time>2020-08-10T07:17:41Z</time>
      </trkpt>
      <trkpt lat="41.7047958355" lon="-5.7881270908">
        <ele>691.33</ele>
        <time>2020-08-10T07:17:49Z</time>
      </trkpt>
      <trkpt lat="41.7050348036" lon="-5.7882663142">
        <ele>690.36</ele>
        <time>2020-08-10T07:17:57Z</time>
      </trkpt>
      <trkpt lat="41.7053333670" lon="-5.7884680666">
        <ele>689.40</ele>
        <time>2020-08-10T07:18:05Z</time>
      </trkpt>
      <trkpt lat="41.7055682279" lon="-5.7886421587">
        <ele>689.40</ele>
        <time>2020-08-10T07:18:11Z</time>
      </trkpt>
      <trkpt lat="41.7059024982" lon="-5.7889527921">
        <ele>688.92</ele>
        <time>2020-08-10T07:18:21Z</time>
      </trkpt>
      <trkpt lat="41.7061498482" lon="-5.7891993877">
        <ele>688.92</ele>
        <time>2020-08-10T07:18:28Z</time>
      </trkpt>
      <trkpt lat="41.7065139581" lon="-5.7895235997">
        <ele>688.92</ele>
        <time>2020-08-10T07:18:38Z</time>
      </trkpt>
      <trkpt lat="41.7068570293" lon="-5.7898371667">
        <ele>689.40</ele>
        <time>2020-08-10T07:18:48Z</time>
      </trkpt>
      <trkpt lat="41.7071946524" lon="-5.7901046332">
        <ele>689.40</ele>
        <time>2020-08-10T07:18:57Z</time>
      </trkpt>
      <trkpt lat="41.7075109016" lon="-5.7903365605">
        <ele>689.88</ele>
        <time>2020-08-10T07:19:06Z</time>
      </trkpt>
      <trkpt lat="41.7077393085" lon="-5.7904617023">
        <ele>691.33</ele>
        <time>2020-08-10T07:19:15Z</time>
      </trkpt>
      <trkpt lat="41.7079030909" lon="-5.7905111555">
        <ele>692.77</ele>
        <time>2020-08-10T07:19:23Z</time>
      </trkpt>
      <trkpt lat="41.7081273068" lon="-5.7905172743">
        <ele>694.69</ele>
        <time>2020-08-10T07:19:34Z</time>
      </trkpt>
      <trkpt lat="41.7082799412" lon="-5.7904955652">
        <ele>696.13</ele>
        <time>2020-08-10T07:19:42Z</time>
      </trkpt>
      <trkpt lat="41.7084742337" lon="-5.7904609479">
        <ele>698.05</ele>
        <time>2020-08-10T07:19:52Z</time>
      </trkpt>
      <trkpt lat="41.7086408660" lon="-5.7904081419">
        <ele>699.50</ele>
        <time>2020-08-10T07:20:01Z</time>
      </trkpt>
      <trkpt lat="41.7087753117" lon="-5.7903640531">
        <ele>700.46</ele>
        <time>2020-08-10T07:20:08Z</time>
      </trkpt>
      <trkpt lat="41.7089425307" lon="-5.7903078105">
        <ele>700.46</ele>
        <time>2020-08-10T07:20:17Z</time>
      </trkpt>
      <trkpt lat="41.7091053911" lon="-5.7902850118">
        <ele>700.46</ele>
        <time>2020-08-10T07:20:25Z</time>
      </trkpt>
      <trkpt lat="41.7092198879" lon="-5.7904146798">
        <ele>701.42</ele>
        <time>2020-08-10T07:20:32Z</time>
      </trkpt>
      <trkpt lat="41.7092777230" lon="-5.7906259038">
        <ele>702.38</ele>
        <time>2020-08-10T07:20:39Z</time>
      </trkpt>
      <trkpt lat="41.7093535792" lon="-5.7910570689">
        <ele>704.30</ele>
        <time>2020-08-10T07:20:51Z</time>
      </trkpt>
      <trkpt lat="41.7094171979" lon="-5.7914373558">
        <ele>704.78</ele>
        <time>2020-08-10T07:21:02Z</time>
      </trkpt>
      <trkpt lat="41.7095138412" lon="-5.7915814407">
        <ele>704.30</ele>
        <time>2020-08-10T07:21:09Z</time>
      </trkpt>
      <trkpt lat="41.7096832395" lon="-5.7915833686">
        <ele>703.34</ele>
        <time>2020-08-10T07:21:16Z</time>
      </trkpt>
      <trkpt lat="41.7098771129" lon="-5.7914696261">
        <ele>701.90</ele>
        <time>2020-08-10T07:21:22Z</time>
      </trkpt>
      <trkpt lat="41.7100039311" lon="-5.7913754135">
        <ele>701.42</ele>
        <time>2020-08-10T07:21:25Z</time>
      </trkpt>
      <trkpt lat="41.7104186676" lon="-5.7911569811">
        <ele>700.46</ele>
        <time>2020-08-10T07:21:35Z</time>
      </trkpt>
      <trkpt lat="41.7106974497" lon="-5.7910271455">
        <ele>699.98</ele>
        <time>2020-08-10T07:21:43Z</time>
      </trkpt>
      <trkpt lat="41.7110271100" lon="-5.7908812165">
        <ele>699.98</ele>
        <time>2020-08-10T07:21:52Z</time>
      </trkpt>
      <trkpt lat="41.7114138510" lon="-5.7907195296">
        <ele>700.94</ele>
        <time>2020-08-10T07:22:03Z</time>
      </trkpt>
      <trkpt lat="41.7117837444" lon="-5.7905785460">
        <ele>701.90</ele>
        <time>2020-08-10T07:22:13Z</time>
      </trkpt>
      <trkpt lat="41.7120171804" lon="-5.7904700842">
        <ele>702.86</ele>
        <time>2020-08-10T07:22:20Z</time>
      </trkpt>
      <trkpt lat="41.7123105470" lon="-5.7903746143">
        <ele>703.34</ele>
        <time>2020-08-10T07:22:29Z</time>
      </trkpt>
      <trkpt lat="41.7126348428" lon="-5.7903871872">
        <ele>703.34</ele>
        <time>2020-08-10T07:22:38Z</time>
      </trkpt>
      <trkpt lat="41.7130865436" lon="-5.7905510534">
        <ele>703.82</ele>
        <time>2020-08-10T07:22:51Z</time>
      </trkpt>
      <trkpt lat="41.7134614661" lon="-5.7906396501">
        <ele>703.82</ele>
        <time>2020-08-10T07:23:01Z</time>
      </trkpt>
      <trkpt lat="41.7136109993" lon="-5.7905452698">
        <ele>703.34</ele>
        <time>2020-08-10T07:23:06Z</time>
      </trkpt>
      <trkpt lat="41.7137442715" lon="-5.7904843334">
        <ele>703.34</ele>
        <time>2020-08-10T07:23:12Z</time>
      </trkpt>
      <trkpt lat="41.7139642965" lon="-5.7906787097">
        <ele>703.82</ele>
        <time>2020-08-10T07:23:21Z</time>
      </trkpt>
      <trkpt lat="41.7141481116" lon="-5.7908274885">
        <ele>705.26</ele>
        <time>2020-08-10T07:23:29Z</time>
      </trkpt>
      <trkpt lat="41.7143335193" lon="-5.7909026742">
        <ele>706.71</ele>
        <time>2020-08-10T07:23:37Z</time>
      </trkpt>
      <trkpt lat="41.7145396303" lon="-5.7910191827">
        <ele>707.67</ele>
        <time>2020-08-10T07:23:45Z</time>
      </trkpt>
      <trkpt lat="41.7148058396" lon="-5.7912371960">
        <ele>708.15</ele>
        <time>2020-08-10T07:23:56Z</time>
      </trkpt>
      <trkpt lat="41.7149495892" lon="-5.7914038282">
        <ele>707.67</ele>
        <time>2020-08-10T07:24:03Z</time>
      </trkpt>
      <trkpt lat="41.7151375115" lon="-5.7916318160">
        <ele>706.71</ele>
        <time>2020-08-10T07:24:11Z</time>
      </trkpt>
      <trkpt lat="41.7153632361" lon="-5.7917875517">
        <ele>706.71</ele>
        <time>2020-08-10T07:24:19Z</time>
      </trkpt>
      <trkpt lat="41.7156357318" lon="-5.7919931598">
        <ele>706.71</ele>
        <time>2020-08-10T07:24:29Z</time>
      </trkpt>
      <trkpt lat="41.7159581836" lon="-5.7921644021">
        <ele>706.71</ele>
        <time>2020-08-10T07:24:40Z</time>
      </trkpt>
      <trkpt lat="41.7162553221" lon="-5.7922868617">
        <ele>707.67</ele>
        <time>2020-08-10T07:24:51Z</time>
      </trkpt>
      <trkpt lat="41.7164465133" lon="-5.7923148572">
        <ele>708.15</ele>
        <time>2020-08-10T07:24:59Z</time>
      </trkpt>
      <trkpt lat="41.7166558933" lon="-5.7923457026">
        <ele>709.11</ele>
        <time>2020-08-10T07:25:09Z</time>
      </trkpt>
      <trkpt lat="41.7168378644" lon="-5.7923496421">
        <ele>710.07</ele>
        <time>2020-08-10T07:25:19Z</time>
      </trkpt>
      <trkpt lat="41.7169697955" lon="-5.7923371531">
        <ele>710.07</ele>
        <time>2020-08-10T07:25:26Z</time>
      </trkpt>
      <trkpt lat="41.7171933409" lon="-5.7923048828">
        <ele>711.51</ele>
        <time>2020-08-10T07:25:38Z</time>
      </trkpt>
      <trkpt lat="41.7173745576" lon="-5.7922760490">
        <ele>711.51</ele>
        <time>2020-08-10T07:25:47Z</time>
      </trkpt>
      <trkpt lat="41.7176125199" lon="-5.7922334690">
        <ele>711.99</ele>
        <time>2020-08-10T07:25:58Z</time>
      </trkpt>
      <trkpt lat="41.7178338021" lon="-5.7921862788">
        <ele>712.47</ele>
        <time>2020-08-10T07:26:08Z</time>
      </trkpt>
      <trkpt lat="41.7180187069" lon="-5.7921369933">
        <ele>712.95</ele>
        <time>2020-08-10T07:26:18Z</time>
      </trkpt>
      <trkpt lat="41.7180366442" lon="-5.7921387535">
        <ele>712.47</ele>
        <time>2020-08-10T07:26:29Z</time>
      </trkpt>
      <trkpt lat="41.7180483788" lon="-5.7921384182">
        <ele>712.47</ele>
        <time>2020-08-10T07:26:30Z</time>
      </trkpt>
      <trkpt lat="41.7181762028" lon="-5.7920789905">
        <ele>711.99</ele>
        <time>2020-08-10T07:26:37Z</time>
      </trkpt>
      <trkpt lat="41.7182994168" lon="-5.7920392603">
        <ele>711.99</ele>
        <time>2020-08-10T07:26:44Z</time>
      </trkpt>
      <trkpt lat="41.7184243072" lon="-5.7920020446">
        <ele>711.99</ele>
        <time>2020-08-10T07:26:52Z</time>
      </trkpt>
      <trkpt lat="41.7184222117" lon="-5.7920031343">
        <ele>712.47</ele>
        <time>2020-08-10T07:27:04Z</time>
      </trkpt>
      <trkpt lat="41.7184673063" lon="-5.7920053974">
        <ele>712.95</ele>
        <time>2020-08-10T07:27:11Z</time>
      </trkpt>
      <trkpt lat="41.7187325936" lon="-5.7919711992">
        <ele>712.95</ele>
        <time>2020-08-10T07:27:22Z</time>
      </trkpt>
      <trkpt lat="41.7188823782" lon="-5.7918929122">
        <ele>712.47</ele>
        <time>2020-08-10T07:27:30Z</time>
      </trkpt>
      <trkpt lat="41.7189043388" lon="-5.7918800879">
        <ele>712.47</ele>
        <time>2020-08-10T07:27:35Z</time>
      </trkpt>
      <trkpt lat="41.7189044226" lon="-5.7918821834">
        <ele>712.95</ele>
        <time>2020-08-10T07:27:42Z</time>
      </trkpt>
      <trkpt lat="41.7189021595" lon="-5.7918689400">
        <ele>713.44</ele>
        <time>2020-08-10T07:27:58Z</time>
      </trkpt>
      <trkpt lat="41.7188998964" lon="-5.7918666769">
        <ele>712.47</ele>
        <time>2020-08-10T07:28:16Z</time>
      </trkpt>
      <trkpt lat="41.7189022433" lon="-5.7918679342">
        <ele>713.44</ele>
        <time>2020-08-10T07:28:29Z</time>
      </trkpt>
      <trkpt lat="41.7189028300" lon="-5.7918924093">
        <ele>713.44</ele>
        <time>2020-08-10T07:28:51Z</time>
      </trkpt>
      <trkpt lat="41.7188913468" lon="-5.7918756455">
        <ele>713.44</ele>
        <time>2020-08-10T07:29:10Z</time>
      </trkpt>
      <trkpt lat="41.7188983038" lon="-5.7918707840">
        <ele>711.99</ele>
        <time>2020-08-10T07:29:31Z</time>
      </trkpt>
      <trkpt lat="41.7188997287" lon="-5.7918821834">
        <ele>711.51</ele>
        <time>2020-08-10T07:29:53Z</time>
      </trkpt>
      <trkpt lat="41.7189029139" lon="-5.7918735500">
        <ele>711.99</ele>
        <time>2020-08-10T07:30:15Z</time>
      </trkpt>
      <trkpt lat="41.7188959569" lon="-5.7918749750">
        <ele>711.99</ele>
        <time>2020-08-10T07:30:35Z</time>
      </trkpt>
      <trkpt lat="41.7188937776" lon="-5.7918775734">
        <ele>711.99</ele>
        <time>2020-08-10T07:30:56Z</time>
      </trkpt>
      <trkpt lat="41.7188966274" lon="-5.7918706164">
        <ele>712.95</ele>
        <time>2020-08-10T07:31:18Z</time>
      </trkpt>
      <trkpt lat="41.7188917659" lon="-5.7918736339">
        <ele>711.99</ele>
        <time>2020-08-10T07:31:42Z</time>
      </trkpt>
      <trkpt lat="41.7188968789" lon="-5.7918724604">
        <ele>711.03</ele>
        <time>2020-08-10T07:32:08Z</time>
      </trkpt>
      <trkpt lat="41.7188970465" lon="-5.7918766513">
        <ele>710.55</ele>
        <time>2020-08-10T07:32:32Z</time>
      </trkpt>
      <trkpt lat="41.7188972980" lon="-5.7918767352">
        <ele>709.11</ele>
        <time>2020-08-10T07:32:58Z</time>
      </trkpt>
      <trkpt lat="41.7188969627" lon="-5.7918798365">
        <ele>709.59</ele>
        <time>2020-08-10T07:33:20Z</time>
      </trkpt>
      <trkpt lat="41.7188967112" lon="-5.7918817643">
        <ele>710.55</ele>
        <time>2020-08-10T07:33:47Z</time>
      </trkpt>
      <trkpt lat="41.7189001478" lon="-5.7918748073">
        <ele>709.59</ele>
        <time>2020-08-10T07:34:20Z</time>
      </trkpt>
      <trkpt lat="41.7188995611" lon="-5.7918838598">
        <ele>710.07</ele>
        <time>2020-08-10T07:34:37Z</time>
      </trkpt>
      <trkpt lat="41.7188948672" lon="-5.7918831892">
        <ele>710.07</ele>
        <time>2020-08-10T07:35:02Z</time>
      </trkpt>
      <trkpt lat="41.7188920174" lon="-5.7918908168">
        <ele>709.59</ele>
        <time>2020-08-10T07:35:30Z</time>
      </trkpt>
      <trkpt lat="41.7188951187" lon="-5.7918888889">
        <ele>709.11</ele>
        <time>2020-08-10T07:35:53Z</time>
      </trkpt>
      <trkpt lat="41.7188933585" lon="-5.7918859553">
        <ele>709.59</ele>
        <time>2020-08-10T07:36:14Z</time>
      </trkpt>
      <trkpt lat="41.7189078592" lon="-5.7918943372">
        <ele>710.55</ele>
        <time>2020-08-10T07:36:32Z</time>
      </trkpt>
      <trkpt lat="41.7188963760" lon="-5.7918847818">
        <ele>709.59</ele>
        <time>2020-08-10T07:36:52Z</time>
      </trkpt>
      <trkpt lat="41.7189036682" lon="-5.7918826025">
        <ele>709.59</ele>
        <time>2020-08-10T07:37:13Z</time>
      </trkpt>
      <trkpt lat="41.7189029977" lon="-5.7918914873">
        <ele>709.11</ele>
        <time>2020-08-10T07:37:34Z</time>
      </trkpt>
      <trkpt lat="41.7189020757" lon="-5.7918932475">
        <ele>709.11</ele>
        <time>2020-08-10T07:37:55Z</time>
      </trkpt>
      <trkpt lat="41.7189072724" lon="-5.7918923255">
        <ele>709.11</ele>
        <time>2020-08-10T07:38:19Z</time>
      </trkpt>
      <trkpt lat="41.7189156543" lon="-5.7918940019">
        <ele>711.03</ele>
        <time>2020-08-10T07:38:36Z</time>
      </trkpt>
      <trkpt lat="41.7189107928" lon="-5.7918945048">
        <ele>711.03</ele>
        <time>2020-08-10T07:38:50Z</time>
      </trkpt>
      <trkpt lat="41.7188996449" lon="-5.7918990310">
        <ele>710.55</ele>
        <time>2020-08-10T07:39:07Z</time>
      </trkpt>
      <trkpt lat="41.7189070210" lon="-5.7918965165">
        <ele>710.55</ele>
        <time>2020-08-10T07:39:27Z</time>
      </trkpt>
      <trkpt lat="41.7189031653" lon="-5.7918928284">
        <ele>711.99</ele>
        <time>2020-08-10T07:39:47Z</time>
      </trkpt>
      <trkpt lat="41.7189077754" lon="-5.7919002883">
        <ele>711.99</ele>
        <time>2020-08-10T07:40:09Z</time>
      </trkpt>
      <trkpt lat="41.7189111281" lon="-5.7919002045">
        <ele>712.47</ele>
        <time>2020-08-10T07:40:29Z</time>
      </trkpt>
      <trkpt lat="41.7189080268" lon="-5.7918931637">
        <ele>712.47</ele>
        <time>2020-08-10T07:40:48Z</time>
      </trkpt>
      <trkpt lat="41.7189087812" lon="-5.7918958459">
        <ele>712.95</ele>
        <time>2020-08-10T07:41:09Z</time>
      </trkpt>
      <trkpt lat="41.7189073563" lon="-5.7919023838">
        <ele>711.03</ele>
        <time>2020-08-10T07:41:30Z</time>
      </trkpt>
      <trkpt lat="41.7189054284" lon="-5.7918902300">
        <ele>711.51</ele>
        <time>2020-08-10T07:41:50Z</time>
      </trkpt>
      <trkpt lat="41.7189057637" lon="-5.7918903977">
        <ele>712.47</ele>
        <time>2020-08-10T07:42:14Z</time>
      </trkpt>
      <trkpt lat="41.7189069372" lon="-5.7918931637">
        <ele>711.51</ele>
        <time>2020-08-10T07:42:35Z</time>
      </trkpt>
      <trkpt lat="41.7189048417" lon="-5.7918845303">
        <ele>711.03</ele>
        <time>2020-08-10T07:42:54Z</time>
      </trkpt>
      <trkpt lat="41.7189058475" lon="-5.7918883022">
        <ele>711.03</ele>
        <time>2020-08-10T07:43:14Z</time>
      </trkpt>
      <trkpt lat="41.7189135589" lon="-5.7918923255">
        <ele>711.03</ele>
        <time>2020-08-10T07:43:39Z</time>
      </trkpt>
      <trkpt lat="41.7189125530" lon="-5.7918954268">
        <ele>711.51</ele>
        <time>2020-08-10T07:43:55Z</time>
      </trkpt>
      <trkpt lat="41.7189117149" lon="-5.7918941695">
        <ele>711.51</ele>
        <time>2020-08-10T07:44:10Z</time>
      </trkpt>
      <trkpt lat="41.7189123016" lon="-5.7918933313">
        <ele>712.47</ele>
        <time>2020-08-10T07:44:25Z</time>
      </trkpt>
      <trkpt lat="41.7189052608" lon="-5.7918840274">
        <ele>711.51</ele>
        <time>2020-08-10T07:44:44Z</time>
      </trkpt>
      <trkpt lat="41.7189064343" lon="-5.7918867096">
        <ele>710.55</ele>
        <time>2020-08-10T07:45:02Z</time>
      </trkpt>
      <trkpt lat="41.7189086974" lon="-5.7918858714">
        <ele>711.51</ele>
        <time>2020-08-10T07:45:13Z</time>
      </trkpt>
      <trkpt lat="41.7189730704" lon="-5.7918559480">
        <ele>711.99</ele>
        <time>2020-08-10T07:45:19Z</time>
      </trkpt>
      <trkpt lat="41.7191602383" lon="-5.7917543594">
        <ele>711.99</ele>
        <time>2020-08-10T07:45:28Z</time>
      </trkpt>
      <trkpt lat="41.7193531897" lon="-5.7915874757">
        <ele>711.99</ele>
        <time>2020-08-10T07:45:37Z</time>
      </trkpt>
      <trkpt lat="41.7195778247" lon="-5.7914490066">
        <ele>711.03</ele>
        <time>2020-08-10T07:45:47Z</time>
      </trkpt>
      <trkpt lat="41.7198066507" lon="-5.7913509384">
        <ele>710.07</ele>
        <time>2020-08-10T07:45:56Z</time>
      </trkpt>
      <trkpt lat="41.7199601233" lon="-5.7913010661">
        <ele>709.11</ele>
        <time>2020-08-10T07:46:04Z</time>
      </trkpt>
      <trkpt lat="41.7201860156" lon="-5.7912119664">
        <ele>708.15</ele>
        <time>2020-08-10T07:46:12Z</time>
      </trkpt>
      <trkpt lat="41.7204533145" lon="-5.7911343500">
        <ele>707.19</ele>
        <time>2020-08-10T07:46:21Z</time>
      </trkpt>
      <trkpt lat="41.7205301765" lon="-5.7911021635">
        <ele>707.19</ele>
        <time>2020-08-10T07:46:26Z</time>
      </trkpt>
      <trkpt lat="41.7205502931" lon="-5.7910917699">
        <ele>707.19</ele>
        <time>2020-08-10T07:46:33Z</time>
      </trkpt>
      <trkpt lat="41.7205352895" lon="-5.7910890877">
        <ele>708.15</ele>
        <time>2020-08-10T07:46:49Z</time>
      </trkpt>
      <trkpt lat="41.7205312662" lon="-5.7910903450">
        <ele>707.67</ele>
        <time>2020-08-10T07:47:05Z</time>
      </trkpt>
      <trkpt lat="41.7205233034" lon="-5.7910872437">
        <ele>707.67</ele>
        <time>2020-08-10T07:47:26Z</time>
      </trkpt>
      <trkpt lat="41.7205375526" lon="-5.7910946198">
        <ele>708.63</ele>
        <time>2020-08-10T07:47:37Z</time>
      </trkpt>
      <trkpt lat="41.7205305956" lon="-5.7910780236">
        <ele>709.11</ele>
        <time>2020-08-10T07:47:43Z</time>
      </trkpt>
      <trkpt lat="41.7205268238" lon="-5.7910614274">
        <ele>709.11</ele>
        <time>2020-08-10T07:47:44Z</time>
      </trkpt>
      <trkpt lat="41.7204802204" lon="-5.7908687275">
        <ele>709.59</ele>
        <time>2020-08-10T07:47:50Z</time>
      </trkpt>
      <trkpt lat="41.7204378080" lon="-5.7905331161">
        <ele>710.07</ele>
        <time>2020-08-10T07:47:58Z</time>
      </trkpt>
      <trkpt lat="41.7203729320" lon="-5.7901444472">
        <ele>710.07</ele>
        <time>2020-08-10T07:48:05Z</time>
      </trkpt>
      <trkpt lat="41.7203130014" lon="-5.7897014637">
        <ele>710.07</ele>
        <time>2020-08-10T07:48:13Z</time>
      </trkpt>
      <trkpt lat="41.7202794738" lon="-5.7893768325">
        <ele>710.07</ele>
        <time>2020-08-10T07:48:20Z</time>
      </trkpt>
      <trkpt lat="41.7202279251" lon="-5.7890344318">
        <ele>709.59</ele>
        <time>2020-08-10T07:48:28Z</time>
      </trkpt>
      <trkpt lat="41.7201703414" lon="-5.7886267360">
        <ele>709.11</ele>
        <time>2020-08-10T07:48:37Z</time>
      </trkpt>
      <trkpt lat="41.7201018613" lon="-5.7881588582">
        <ele>708.15</ele>
        <time>2020-08-10T07:48:47Z</time>
      </trkpt>
      <trkpt lat="41.7200429365" lon="-5.7877622265">
        <ele>707.67</ele>
        <time>2020-08-10T07:48:56Z</time>
      </trkpt>
      <trkpt lat="41.7199737858" lon="-5.7873091847">
        <ele>706.71</ele>
        <time>2020-08-10T07:49:06Z</time>
      </trkpt>
      <trkpt lat="41.7198960856" lon="-5.7867882494">
        <ele>706.71</ele>
        <time>2020-08-10T07:49:17Z</time>
      </trkpt>
      <trkpt lat="41.7198358197" lon="-5.7863951381">
        <ele>707.19</ele>
        <time>2020-08-10T07:49:27Z</time>
      </trkpt>
      <trkpt lat="41.7198169604" lon="-5.7863024343">
        <ele>707.67</ele>
        <time>2020-08-10T07:49:31Z</time>
      </trkpt>
      <trkpt lat="41.7197972629" lon="-5.7862819824">
        <ele>707.67</ele>
        <time>2020-08-10T07:49:35Z</time>
      </trkpt>
      <trkpt lat="41.7197918985" lon="-5.7862880174">
        <ele>707.19</ele>
        <time>2020-08-10T07:49:42Z</time>
      </trkpt>
      <trkpt lat="41.7197820079" lon="-5.7862929627">
        <ele>706.71</ele>
        <time>2020-08-10T07:49:49Z</time>
      </trkpt>
      <trkpt lat="41.7197679263" lon="-5.7863043621">
        <ele>707.67</ele>
        <time>2020-08-10T07:49:59Z</time>
      </trkpt>
      <trkpt lat="41.7197578680" lon="-5.7862968184">
        <ele>707.67</ele>
        <time>2020-08-10T07:50:00Z</time>
      </trkpt>
      <trkpt lat="41.7197506595" lon="-5.7862855028">
        <ele>707.67</ele>
        <time>2020-08-10T07:50:01Z</time>
      </trkpt>
      <trkpt lat="41.7197478097" lon="-5.7862670626">
        <ele>707.67</ele>
        <time>2020-08-10T07:50:02Z</time>
      </trkpt>
      <trkpt lat="41.7197489832" lon="-5.7862428389">
        <ele>708.15</ele>
        <time>2020-08-10T07:50:03Z</time>
      </trkpt>
      <trkpt lat="41.7197569460" lon="-5.7862143405">
        <ele>708.15</ele>
        <time>2020-08-10T07:50:04Z</time>
      </trkpt>
      <trkpt lat="41.7197772302" lon="-5.7861886919">
        <ele>707.67</ele>
        <time>2020-08-10T07:50:05Z</time>
      </trkpt>
      <trkpt lat="41.7197985202" lon="-5.7861747779">
        <ele>707.67</ele>
        <time>2020-08-10T07:50:06Z</time>
      </trkpt>
      <trkpt lat="41.7198250908" lon="-5.7861594390">
        <ele>707.67</ele>
        <time>2020-08-10T07:50:07Z</time>
      </trkpt>
      <trkpt lat="41.7198524997" lon="-5.7861451060">
        <ele>707.67</ele>
        <time>2020-08-10T07:50:08Z</time>
      </trkpt>
      <trkpt lat="41.7198824231" lon="-5.7861306891">
        <ele>707.67</ele>
        <time>2020-08-10T07:50:09Z</time>
      </trkpt>
      <trkpt lat="41.7199125979" lon="-5.7861129194">
        <ele>707.67</ele>
        <time>2020-08-10T07:50:10Z</time>
      </trkpt>
      <trkpt lat="41.7201219779" lon="-5.7860240713">
        <ele>707.19</ele>
        <time>2020-08-10T07:50:17Z</time>
      </trkpt>
      <trkpt lat="41.7204379756" lon="-5.7858817466">
        <ele>707.19</ele>
        <time>2020-08-10T07:50:26Z</time>
      </trkpt>
      <trkpt lat="41.7206937913" lon="-5.7857726142">
        <ele>707.67</ele>
        <time>2020-08-10T07:50:34Z</time>
      </trkpt>
      <trkpt lat="41.7209135648" lon="-5.7856821734">
        <ele>708.15</ele>
        <time>2020-08-10T07:50:42Z</time>
      </trkpt>
      <trkpt lat="41.7211661953" lon="-5.7855732087">
        <ele>708.63</ele>
        <time>2020-08-10T07:50:51Z</time>
      </trkpt>
      <trkpt lat="41.7214465700" lon="-5.7854519226">
        <ele>709.59</ele>
        <time>2020-08-10T07:51:01Z</time>
      </trkpt>
      <trkpt lat="41.7217815947" lon="-5.7853100169">
        <ele>710.07</ele>
        <time>2020-08-10T07:51:12Z</time>
      </trkpt>
      <trkpt lat="41.7221228220" lon="-5.7851566281">
        <ele>711.03</ele>
        <time>2020-08-10T07:51:23Z</time>
      </trkpt>
      <trkpt lat="41.7224278394" lon="-5.7850273792">
        <ele>711.99</ele>
        <time>2020-08-10T07:51:33Z</time>
      </trkpt>
      <trkpt lat="41.7227802146" lon="-5.7848738227">
        <ele>713.44</ele>
        <time>2020-08-10T07:51:45Z</time>
      </trkpt>
      <trkpt lat="41.7230236251" lon="-5.7847687975">
        <ele>713.92</ele>
        <time>2020-08-10T07:51:53Z</time>
      </trkpt>
      <trkpt lat="41.7232763395" lon="-5.7846664544">
        <ele>714.40</ele>
        <time>2020-08-10T07:52:01Z</time>
      </trkpt>
      <trkpt lat="41.7235950194" lon="-5.7844741736">
        <ele>714.40</ele>
        <time>2020-08-10T07:52:11Z</time>
      </trkpt>
      <trkpt lat="41.7237586342" lon="-5.7841685694">
        <ele>714.40</ele>
        <time>2020-08-10T07:52:18Z</time>
      </trkpt>
      <trkpt lat="41.7237867974" lon="-5.7841238100">
        <ele>714.40</ele>
        <time>2020-08-10T07:52:19Z</time>
      </trkpt>
      <trkpt lat="41.7238160502" lon="-5.7840891089">
        <ele>714.40</ele>
        <time>2020-08-10T07:52:20Z</time>
      </trkpt>
      <trkpt lat="41.7238514218" lon="-5.7840575092">
        <ele>714.40</ele>
        <time>2020-08-10T07:52:21Z</time>
      </trkpt>
      <trkpt lat="41.7238841951" lon="-5.7840362191">
        <ele>714.40</ele>
        <time>2020-08-10T07:52:22Z</time>
      </trkpt>
      <trkpt lat="41.7239237577" lon="-5.7840208802">
        <ele>714.40</ele>
        <time>2020-08-10T07:52:23Z</time>
      </trkpt>
      <trkpt lat="41.7239608057" lon="-5.7840156835">
        <ele>714.40</ele>
        <time>2020-08-10T07:52:24Z</time>
      </trkpt>
      <trkpt lat="41.7239997815" lon="-5.7840172760">
        <ele>714.40</ele>
        <time>2020-08-10T07:52:25Z</time>
      </trkpt>
      <trkpt lat="41.7240339797" lon="-5.7840236463">
        <ele>714.40</ele>
        <time>2020-08-10T07:52:26Z</time>
      </trkpt>
      <trkpt lat="41.7240711953" lon="-5.7840365544">
        <ele>714.40</ele>
        <time>2020-08-10T07:52:27Z</time>
      </trkpt>
      <trkpt lat="41.7243133485" lon="-5.7841530629">
        <ele>715.36</ele>
        <time>2020-08-10T07:52:34Z</time>
      </trkpt>
      <trkpt lat="41.7245616205" lon="-5.7840988319">
        <ele>715.84</ele>
        <time>2020-08-10T07:52:41Z</time>
      </trkpt>
      <trkpt lat="41.7249746807" lon="-5.7839218061">
        <ele>717.28</ele>
        <time>2020-08-10T07:52:53Z</time>
      </trkpt>
      <trkpt lat="41.7253657803" lon="-5.7837546710">
        <ele>718.72</ele>
        <time>2020-08-10T07:53:05Z</time>
      </trkpt>
      <trkpt lat="41.7257094383" lon="-5.7836094964">
        <ele>719.68</ele>
        <time>2020-08-10T07:53:16Z</time>
      </trkpt>
      <trkpt lat="41.7260860372" lon="-5.7834405173">
        <ele>721.13</ele>
        <time>2020-08-10T07:53:28Z</time>
      </trkpt>
      <trkpt lat="41.7265149392" lon="-5.7832542714">
        <ele>721.13</ele>
        <time>2020-08-10T07:53:41Z</time>
      </trkpt>
      <trkpt lat="41.7269083019" lon="-5.7830854598">
        <ele>720.16</ele>
        <time>2020-08-10T07:53:52Z</time>
      </trkpt>
      <trkpt lat="41.7273906805" lon="-5.7828600705">
        <ele>721.13</ele>
        <time>2020-08-10T07:54:04Z</time>
      </trkpt>
      <trkpt lat="41.7278756574" lon="-5.7826335076">
        <ele>720.16</ele>
        <time>2020-08-10T07:54:15Z</time>
      </trkpt>
      <trkpt lat="41.7282899749" lon="-5.7824236248">
        <ele>718.72</ele>
        <time>2020-08-10T07:54:24Z</time>
      </trkpt>
      <trkpt lat="41.7287490517" lon="-5.7821596786">
        <ele>717.76</ele>
        <time>2020-08-10T07:54:34Z</time>
      </trkpt>
      <trkpt lat="41.7292209528" lon="-5.7818687428">
        <ele>717.76</ele>
        <time>2020-08-10T07:54:45Z</time>
      </trkpt>
      <trkpt lat="41.7296394613" lon="-5.7815943193">
        <ele>717.76</ele>
        <time>2020-08-10T07:54:55Z</time>
      </trkpt>
      <trkpt lat="41.7301376816" lon="-5.7812661678">
        <ele>718.72</ele>
        <time>2020-08-10T07:55:07Z</time>
      </trkpt>
      <trkpt lat="41.7306695133" lon="-5.7809257787">
        <ele>719.20</ele>
        <time>2020-08-10T07:55:20Z</time>
      </trkpt>
      <trkpt lat="41.7310560867" lon="-5.7806910016">
        <ele>719.68</ele>
        <time>2020-08-10T07:55:30Z</time>
      </trkpt>
      <trkpt lat="41.7314102221" lon="-5.7804619242">
        <ele>719.68</ele>
        <time>2020-08-10T07:55:40Z</time>
      </trkpt>
      <trkpt lat="41.7317932751" lon="-5.7802289911">
        <ele>719.68</ele>
        <time>2020-08-10T07:55:51Z</time>
      </trkpt>
      <trkpt lat="41.7320735659" lon="-5.7800595928">
        <ele>720.65</ele>
        <time>2020-08-10T07:56:00Z</time>
      </trkpt>
      <trkpt lat="41.7323823553" lon="-5.7798569184">
        <ele>720.16</ele>
        <time>2020-08-10T07:56:10Z</time>
      </trkpt>
      <trkpt lat="41.7327568587" lon="-5.7796214707">
        <ele>718.72</ele>
        <time>2020-08-10T07:56:21Z</time>
      </trkpt>
      <trkpt lat="41.7331151012" lon="-5.7793816645">
        <ele>715.36</ele>
        <time>2020-08-10T07:56:30Z</time>
      </trkpt>
      <trkpt lat="41.7335247248" lon="-5.7791288663">
        <ele>713.92</ele>
        <time>2020-08-10T07:56:39Z</time>
      </trkpt>
      <trkpt lat="41.7340159882" lon="-5.7788287103">
        <ele>712.47</ele>
        <time>2020-08-10T07:56:47Z</time>
      </trkpt>
      <trkpt lat="41.7346712016" lon="-5.7784123812">
        <ele>708.15</ele>
        <time>2020-08-10T07:56:56Z</time>
      </trkpt>
      <trkpt lat="41.7353731859" lon="-5.7780847326">
        <ele>705.75</ele>
        <time>2020-08-10T07:57:05Z</time>
      </trkpt>
      <trkpt lat="41.7354413308" lon="-5.7780560665">
        <ele>705.75</ele>
        <time>2020-08-10T07:57:06Z</time>
      </trkpt>
      <trkpt lat="41.7360030022" lon="-5.7777715009">
        <ele>703.34</ele>
        <time>2020-08-10T07:57:14Z</time>
      </trkpt>
      <trkpt lat="41.7366783321" lon="-5.7774824090">
        <ele>701.90</ele>
        <time>2020-08-10T07:57:24Z</time>
      </trkpt>
      <trkpt lat="41.7371081561" lon="-5.7772859372">
        <ele>701.90</ele>
        <time>2020-08-10T07:57:32Z</time>
      </trkpt>
      <trkpt lat="41.7376815621" lon="-5.7770272717">
        <ele>701.90</ele>
        <time>2020-08-10T07:57:44Z</time>
      </trkpt>
      <trkpt lat="41.7381320056" lon="-5.7768301293">
        <ele>701.90</ele>
        <time>2020-08-10T07:57:54Z</time>
      </trkpt>
      <trkpt lat="41.7386365123" lon="-5.7766044047">
        <ele>702.38</ele>
        <time>2020-08-10T07:58:05Z</time>
      </trkpt>
      <trkpt lat="41.7392730340" lon="-5.7763012312">
        <ele>701.90</ele>
        <time>2020-08-10T07:58:19Z</time>
      </trkpt>
      <trkpt lat="41.7398189474" lon="-5.7760557253">
        <ele>701.42</ele>
        <time>2020-08-10T07:58:31Z</time>
      </trkpt>
      <trkpt lat="41.7403829657" lon="-5.7758035138">
        <ele>701.42</ele>
        <time>2020-08-10T07:58:43Z</time>
      </trkpt>
      <trkpt lat="41.7408931721" lon="-5.7755749393">
        <ele>700.94</ele>
        <time>2020-08-10T07:58:54Z</time>
      </trkpt>
      <trkpt lat="41.7412677594" lon="-5.7754010987">
        <ele>700.94</ele>
        <time>2020-08-10T07:59:02Z</time>
      </trkpt>
      <trkpt lat="41.7417579331" lon="-5.7751846779">
        <ele>700.94</ele>
        <time>2020-08-10T07:59:12Z</time>
      </trkpt>
      <trkpt lat="41.7423095461" lon="-5.7749293651">
        <ele>700.94</ele>
        <time>2020-08-10T07:59:24Z</time>
      </trkpt>
      <trkpt lat="41.7428082693" lon="-5.7747133635">
        <ele>700.94</ele>
        <time>2020-08-10T07:59:35Z</time>
      </trkpt>
      <trkpt lat="41.7433575355" lon="-5.7744788378">
        <ele>700.94</ele>
        <time>2020-08-10T07:59:47Z</time>
      </trkpt>
      <trkpt lat="41.7438501399" lon="-5.7742578071">
        <ele>700.94</ele>
        <time>2020-08-10T07:59:58Z</time>
      </trkpt>
      <trkpt lat="41.7443857435" lon="-5.7740173303">
        <ele>701.42</ele>
        <time>2020-08-10T08:00:10Z</time>
      </trkpt>
      <trkpt lat="41.7447837163" lon="-5.7738527097">
        <ele>701.42</ele>
        <time>2020-08-10T08:00:19Z</time>
      </trkpt>
      <trkpt lat="41.7451440543" lon="-5.7736595068">
        <ele>701.42</ele>
        <time>2020-08-10T08:00:27Z</time>
      </trkpt>
      <trkpt lat="41.7456817534" lon="-5.7734191976">
        <ele>700.94</ele>
        <time>2020-08-10T08:00:39Z</time>
      </trkpt>
      <trkpt lat="41.7457239982" lon="-5.7733983267">
        <ele>700.94</ele>
        <time>2020-08-10T08:00:40Z</time>
      </trkpt>
      <trkpt lat="41.7461902834" lon="-5.7731954847">
        <ele>701.90</ele>
        <time>2020-08-10T08:00:51Z</time>
      </trkpt>
      <trkpt lat="41.7465722468" lon="-5.7730212249">
        <ele>702.38</ele>
        <time>2020-08-10T08:01:00Z</time>
      </trkpt>
      <trkpt lat="41.7466573231" lon="-5.7729828358">
        <ele>702.86</ele>
        <time>2020-08-10T08:01:02Z</time>
      </trkpt>
      <trkpt lat="41.7467857338" lon="-5.7729296945">
        <ele>702.86</ele>
        <time>2020-08-10T08:01:05Z</time>
      </trkpt>
      <trkpt lat="41.7473277915" lon="-5.7726723701">
        <ele>701.90</ele>
        <time>2020-08-10T08:01:17Z</time>
      </trkpt>
      <trkpt lat="41.7477743793" lon="-5.7724705338">
        <ele>701.42</ele>
        <time>2020-08-10T08:01:27Z</time>
      </trkpt>
      <trkpt lat="41.7482255772" lon="-5.7722650934">
        <ele>701.42</ele>
        <time>2020-08-10T08:01:37Z</time>
      </trkpt>
      <trkpt lat="41.7487270664" lon="-5.7720428053">
        <ele>700.46</ele>
        <time>2020-08-10T08:01:48Z</time>
      </trkpt>
      <trkpt lat="41.7492290586" lon="-5.7718180027">
        <ele>699.98</ele>
        <time>2020-08-10T08:01:59Z</time>
      </trkpt>
      <trkpt lat="41.7498033028" lon="-5.7715594210">
        <ele>699.98</ele>
        <time>2020-08-10T08:02:11Z</time>
      </trkpt>
      <trkpt lat="41.7503994238" lon="-5.7712926250">
        <ele>700.46</ele>
        <time>2020-08-10T08:02:24Z</time>
      </trkpt>
      <trkpt lat="41.7509537190" lon="-5.7710413355">
        <ele>699.02</ele>
        <time>2020-08-10T08:02:36Z</time>
      </trkpt>
      <trkpt lat="41.7514039949" lon="-5.7708387449">
        <ele>698.05</ele>
        <time>2020-08-10T08:02:46Z</time>
      </trkpt>
      <trkpt lat="41.7518498283" lon="-5.7706462126">
        <ele>696.61</ele>
        <time>2020-08-10T08:02:55Z</time>
      </trkpt>
      <trkpt lat="41.7523856834" lon="-5.7704030536">
        <ele>694.21</ele>
        <time>2020-08-10T08:03:04Z</time>
      </trkpt>
      <trkpt lat="41.7529842351" lon="-5.7701359224">
        <ele>693.25</ele>
        <time>2020-08-10T08:03:14Z</time>
      </trkpt>
      <trkpt lat="41.7535304837" lon="-5.7698934339">
        <ele>692.29</ele>
        <time>2020-08-10T08:03:24Z</time>
      </trkpt>
      <trkpt lat="41.7539886385" lon="-5.7696843892">
        <ele>693.25</ele>
        <time>2020-08-10T08:03:33Z</time>
      </trkpt>
      <trkpt lat="41.7544606235" lon="-5.7694740035">
        <ele>692.77</ele>
        <time>2020-08-10T08:03:43Z</time>
      </trkpt>
      <trkpt lat="41.7548197042" lon="-5.7692968938">
        <ele>693.73</ele>
        <time>2020-08-10T08:03:53Z</time>
      </trkpt>
      <trkpt lat="41.7551088799" lon="-5.7691251487">
        <ele>694.69</ele>
        <time>2020-08-10T08:04:02Z</time>
      </trkpt>
      <trkpt lat="41.7554681282" lon="-5.7688944787">
        <ele>696.61</ele>
        <time>2020-08-10T08:04:14Z</time>
      </trkpt>
      <trkpt lat="41.7557322420" lon="-5.7687306963">
        <ele>698.05</ele>
        <time>2020-08-10T08:04:23Z</time>
      </trkpt>
      <trkpt lat="41.7560278717" lon="-5.7685340568">
        <ele>699.02</ele>
        <time>2020-08-10T08:04:33Z</time>
      </trkpt>
      <trkpt lat="41.7563330568" lon="-5.7683380879">
        <ele>700.46</ele>
        <time>2020-08-10T08:04:43Z</time>
      </trkpt>
      <trkpt lat="41.7565725278" lon="-5.7681972720">
        <ele>701.42</ele>
        <time>2020-08-10T08:04:51Z</time>
      </trkpt>
      <trkpt lat="41.7569207121" lon="-5.7680062484">
        <ele>701.42</ele>
        <time>2020-08-10T08:05:02Z</time>
      </trkpt>
      <trkpt lat="41.7572263163" lon="-5.7678582240">
        <ele>701.90</ele>
        <time>2020-08-10T08:05:11Z</time>
      </trkpt>
      <trkpt lat="41.7576703057" lon="-5.7676956989">
        <ele>701.90</ele>
        <time>2020-08-10T08:05:23Z</time>
      </trkpt>
      <trkpt lat="41.7581637483" lon="-5.7675968762">
        <ele>701.90</ele>
        <time>2020-08-10T08:05:35Z</time>
      </trkpt>
      <trkpt lat="41.7587685026" lon="-5.7675514463">
        <ele>702.86</ele>
        <time>2020-08-10T08:05:49Z</time>
      </trkpt>
      <trkpt lat="41.7591139209" lon="-5.7675428968">
        <ele>702.86</ele>
        <time>2020-08-10T08:05:57Z</time>
      </trkpt>
      <trkpt lat="41.7595705669" lon="-5.7675280608">
        <ele>702.86</ele>
        <time>2020-08-10T08:06:08Z</time>
      </trkpt>
      <trkpt lat="41.7600275483" lon="-5.7675093692">
        <ele>702.38</ele>
        <time>2020-08-10T08:06:19Z</time>
      </trkpt>
      <trkpt lat="41.7605226673" lon="-5.7674853131">
        <ele>702.38</ele>
        <time>2020-08-10T08:06:31Z</time>
      </trkpt>
      <trkpt lat="41.7607917264" lon="-5.7674637716">
        <ele>702.38</ele>
        <time>2020-08-10T08:06:38Z</time>
      </trkpt>
      <trkpt lat="41.7612748593" lon="-5.7673690561">
        <ele>702.38</ele>
        <time>2020-08-10T08:06:50Z</time>
      </trkpt>
      <trkpt lat="41.7616191879" lon="-5.7672498655">
        <ele>701.90</ele>
        <time>2020-08-10T08:06:59Z</time>
      </trkpt>
      <trkpt lat="41.7620271351" lon="-5.7671018410">
        <ele>701.90</ele>
        <time>2020-08-10T08:07:09Z</time>
      </trkpt>
      <trkpt lat="41.7621103674" lon="-5.7670707442">
        <ele>701.90</ele>
        <time>2020-08-10T08:07:11Z</time>
      </trkpt>
      <trkpt lat="41.7625764012" lon="-5.7668756973">
        <ele>701.42</ele>
        <time>2020-08-10T08:07:22Z</time>
      </trkpt>
      <trkpt lat="41.7629760504" lon="-5.7667339593">
        <ele>702.86</ele>
        <time>2020-08-10T08:07:32Z</time>
      </trkpt>
      <trkpt lat="41.7633879371" lon="-5.7665700093">
        <ele>704.78</ele>
        <time>2020-08-10T08:07:43Z</time>
      </trkpt>
      <trkpt lat="41.7635477800" lon="-5.7663575280">
        <ele>706.23</ele>
        <time>2020-08-10T08:07:49Z</time>
      </trkpt>
      <trkpt lat="41.7636416573" lon="-5.7660402730">
        <ele>706.71</ele>
        <time>2020-08-10T08:07:57Z</time>
      </trkpt>
      <trkpt lat="41.7638024222" lon="-5.7659397740">
        <ele>706.71</ele>
        <time>2020-08-10T08:08:03Z</time>
      </trkpt>
      <trkpt lat="41.7640434019" lon="-5.7660138700">
        <ele>707.19</ele>
        <time>2020-08-10T08:08:11Z</time>
      </trkpt>
      <trkpt lat="41.7642278038" lon="-5.7661760598">
        <ele>707.19</ele>
        <time>2020-08-10T08:08:18Z</time>
      </trkpt>
      <trkpt lat="41.7644628324" lon="-5.7661583740">
        <ele>708.63</ele>
        <time>2020-08-10T08:08:25Z</time>
      </trkpt>
      <trkpt lat="41.7648110166" lon="-5.7660158817">
        <ele>709.11</ele>
        <time>2020-08-10T08:08:35Z</time>
      </trkpt>
      <trkpt lat="41.7651648168" lon="-5.7658769935">
        <ele>709.59</ele>
        <time>2020-08-10T08:08:45Z</time>
      </trkpt>
      <trkpt lat="41.7655796371" lon="-5.7657046616">
        <ele>709.59</ele>
        <time>2020-08-10T08:08:56Z</time>
      </trkpt>
      <trkpt lat="41.7660071980" lon="-5.7654891629">
        <ele>708.63</ele>
        <time>2020-08-10T08:09:07Z</time>
      </trkpt>
      <trkpt lat="41.7663856409" lon="-5.7652775198">
        <ele>708.63</ele>
        <time>2020-08-10T08:09:17Z</time>
      </trkpt>
      <trkpt lat="41.7668834422" lon="-5.7650118973">
        <ele>708.15</ele>
        <time>2020-08-10T08:09:29Z</time>
      </trkpt>
      <trkpt lat="41.7672671657" lon="-5.7648020145">
        <ele>706.71</ele>
        <time>2020-08-10T08:09:38Z</time>
      </trkpt>
      <trkpt lat="41.7676606122" lon="-5.7645845879">
        <ele>706.71</ele>
        <time>2020-08-10T08:09:47Z</time>
      </trkpt>
      <trkpt lat="41.7681299988" lon="-5.7643295266">
        <ele>706.71</ele>
        <time>2020-08-10T08:09:58Z</time>
      </trkpt>
      <trkpt lat="41.7685987148" lon="-5.7640681788">
        <ele>705.75</ele>
        <time>2020-08-10T08:10:09Z</time>
      </trkpt>
      <trkpt lat="41.7691031378" lon="-5.7637925819">
        <ele>705.26</ele>
        <time>2020-08-10T08:10:21Z</time>
      </trkpt>
      <trkpt lat="41.7694877833" lon="-5.7635814417">
        <ele>706.23</ele>
        <time>2020-08-10T08:10:31Z</time>
      </trkpt>
      <trkpt lat="41.7697684094" lon="-5.7634304836">
        <ele>707.67</ele>
        <time>2020-08-10T08:10:41Z</time>
      </trkpt>
      <trkpt lat="41.7700416595" lon="-5.7632865664">
        <ele>709.59</ele>
        <time>2020-08-10T08:10:52Z</time>
      </trkpt>
      <trkpt lat="41.7703356128" lon="-5.7631316688">
        <ele>711.03</ele>
        <time>2020-08-10T08:11:04Z</time>
      </trkpt>
      <trkpt lat="41.7705777660" lon="-5.7630031742">
        <ele>712.47</ele>
        <time>2020-08-10T08:11:14Z</time>
      </trkpt>
      <trkpt lat="41.7708842922" lon="-5.7628364582">
        <ele>713.92</ele>
        <time>2020-08-10T08:11:27Z</time>
      </trkpt>
      <trkpt lat="41.7711463105" lon="-5.7626921218">
        <ele>715.36</ele>
        <time>2020-08-10T08:11:38Z</time>
      </trkpt>
      <trkpt lat="41.7714050598" lon="-5.7625438459">
        <ele>716.32</ele>
        <time>2020-08-10T08:11:49Z</time>
      </trkpt>
      <trkpt lat="41.7716755439" lon="-5.7623968273">
        <ele>717.28</ele>
        <time>2020-08-10T08:12:00Z</time>
      </trkpt>
      <trkpt lat="41.7719286773" lon="-5.7622594479">
        <ele>717.76</ele>
        <time>2020-08-10T08:12:10Z</time>
      </trkpt>
      <trkpt lat="41.7722527217" lon="-5.7620839309">
        <ele>717.76</ele>
        <time>2020-08-10T08:12:22Z</time>
      </trkpt>
      <trkpt lat="41.7725987267" lon="-5.7618891355">
        <ele>717.28</ele>
        <time>2020-08-10T08:12:32Z</time>
      </trkpt>
      <trkpt lat="41.7730189115" lon="-5.7616554480">
        <ele>716.32</ele>
        <time>2020-08-10T08:12:43Z</time>
      </trkpt>
      <trkpt lat="41.7734579556" lon="-5.7614141330">
        <ele>713.92</ele>
        <time>2020-08-10T08:12:52Z</time>
      </trkpt>
      <trkpt lat="41.7739239894" lon="-5.7611564733">
        <ele>711.03</ele>
        <time>2020-08-10T08:13:00Z</time>
      </trkpt>
      <trkpt lat="41.7742895242" lon="-5.7609577384">
        <ele>710.07</ele>
        <time>2020-08-10T08:13:06Z</time>
      </trkpt>
      <trkpt lat="41.7747413088" lon="-5.7607056946">
        <ele>709.11</ele>
        <time>2020-08-10T08:13:14Z</time>
      </trkpt>
      <trkpt lat="41.7751267925" lon="-5.7604969852">
        <ele>710.07</ele>
        <time>2020-08-10T08:13:23Z</time>
      </trkpt>
      <trkpt lat="41.7755380087" lon="-5.7602683268">
        <ele>710.55</ele>
        <time>2020-08-10T08:13:33Z</time>
      </trkpt>
      <trkpt lat="41.7758952454" lon="-5.7600756269">
        <ele>710.55</ele>
        <time>2020-08-10T08:13:42Z</time>
      </trkpt>
      <trkpt lat="41.7762860097" lon="-5.7598607987">
        <ele>710.55</ele>
        <time>2020-08-10T08:13:52Z</time>
      </trkpt>
      <trkpt lat="41.7766963039" lon="-5.7596323080">
        <ele>711.03</ele>
        <time>2020-08-10T08:14:03Z</time>
      </trkpt>
      <trkpt lat="41.7771302350" lon="-5.7593971118">
        <ele>711.51</ele>
        <time>2020-08-10T08:14:15Z</time>
      </trkpt>
      <trkpt lat="41.7775645014" lon="-5.7591605745">
        <ele>711.51</ele>
        <time>2020-08-10T08:14:27Z</time>
      </trkpt>
      <trkpt lat="41.7777890526" lon="-5.7590345945">
        <ele>711.51</ele>
        <time>2020-08-10T08:14:34Z</time>
      </trkpt>
      <trkpt lat="41.7781193834" lon="-5.7588584907">
        <ele>711.99</ele>
        <time>2020-08-10T08:14:43Z</time>
      </trkpt>
      <trkpt lat="41.7784996703" lon="-5.7586518768">
        <ele>712.47</ele>
        <time>2020-08-10T08:14:53Z</time>
      </trkpt>
      <trkpt lat="41.7789216153" lon="-5.7584176864">
        <ele>712.95</ele>
        <time>2020-08-10T08:15:04Z</time>
      </trkpt>
      <trkpt lat="41.7793144751" lon="-5.7581992541">
        <ele>712.47</ele>
        <time>2020-08-10T08:15:14Z</time>
      </trkpt>
      <trkpt lat="41.7796588875" lon="-5.7580125891">
        <ele>712.95</ele>
        <time>2020-08-10T08:15:23Z</time>
      </trkpt>
      <trkpt lat="41.7800581176" lon="-5.7577970903">
        <ele>712.95</ele>
        <time>2020-08-10T08:15:34Z</time>
      </trkpt>
      <trkpt lat="41.7804499716" lon="-5.7575752214">
        <ele>712.95</ele>
        <time>2020-08-10T08:15:45Z</time>
      </trkpt>
      <trkpt lat="41.7808493692" lon="-5.7573625725">
        <ele>713.92</ele>
        <time>2020-08-10T08:15:56Z</time>
      </trkpt>
      <trkpt lat="41.7812234536" lon="-5.7571676094">
        <ele>714.40</ele>
        <time>2020-08-10T08:16:06Z</time>
      </trkpt>
      <trkpt lat="41.7817027308" lon="-5.7569087762">
        <ele>715.36</ele>
        <time>2020-08-10T08:16:19Z</time>
      </trkpt>
      <trkpt lat="41.7821520008" lon="-5.7566587441">
        <ele>715.36</ele>
        <time>2020-08-10T08:16:31Z</time>
      </trkpt>
      <trkpt lat="41.7825017776" lon="-5.7564558182">
        <ele>715.36</ele>
        <time>2020-08-10T08:16:41Z</time>
      </trkpt>
      <trkpt lat="41.7828017659" lon="-5.7562861685">
        <ele>715.84</ele>
        <time>2020-08-10T08:16:50Z</time>
      </trkpt>
      <trkpt lat="41.7830435000" lon="-5.7561489567">
        <ele>716.32</ele>
        <time>2020-08-10T08:17:00Z</time>
      </trkpt>
      <trkpt lat="41.7830625270" lon="-5.7561328635">
        <ele>715.84</ele>
        <time>2020-08-10T08:17:05Z</time>
      </trkpt>
      <trkpt lat="41.7830649577" lon="-5.7561291754">
        <ele>715.36</ele>
        <time>2020-08-10T08:17:23Z</time>
      </trkpt>
      <trkpt lat="41.7830647901" lon="-5.7561344560">
        <ele>714.88</ele>
        <time>2020-08-10T08:17:39Z</time>
      </trkpt>
      <trkpt lat="41.7830552347" lon="-5.7561304327">
        <ele>714.88</ele>
        <time>2020-08-10T08:18:00Z</time>
      </trkpt>
      <trkpt lat="41.7830515467" lon="-5.7561311871">
        <ele>715.36</ele>
        <time>2020-08-10T08:18:17Z</time>
      </trkpt>
      <trkpt lat="41.7830428295" lon="-5.7561288401">
        <ele>713.92</ele>
        <time>2020-08-10T08:18:34Z</time>
      </trkpt>
      <trkpt lat="41.7831026763" lon="-5.7561144233">
        <ele>714.40</ele>
        <time>2020-08-10T08:18:41Z</time>
      </trkpt>
      <trkpt lat="41.7832773551" lon="-5.7560111582">
        <ele>714.88</ele>
        <time>2020-08-10T08:18:47Z</time>
      </trkpt>
      <trkpt lat="41.7836998869" lon="-5.7557259221">
        <ele>715.84</ele>
        <time>2020-08-10T08:19:00Z</time>
      </trkpt>
      <trkpt lat="41.7839863803" lon="-5.7554996945">
        <ele>716.32</ele>
        <time>2020-08-10T08:19:09Z</time>
      </trkpt>
      <trkpt lat="41.7843214050" lon="-5.7552461419">
        <ele>716.80</ele>
        <time>2020-08-10T08:19:20Z</time>
      </trkpt>
      <trkpt lat="41.7845969182" lon="-5.7550252788">
        <ele>717.76</ele>
        <time>2020-08-10T08:19:29Z</time>
      </trkpt>
      <trkpt lat="41.7848819867" lon="-5.7548055891">
        <ele>718.24</ele>
        <time>2020-08-10T08:19:38Z</time>
      </trkpt>
      <trkpt lat="41.7851873394" lon="-5.7545714825">
        <ele>718.72</ele>
        <time>2020-08-10T08:19:48Z</time>
      </trkpt>
      <trkpt lat="41.7854674626" lon="-5.7543531340">
        <ele>719.20</ele>
        <time>2020-08-10T08:19:57Z</time>
      </trkpt>
      <trkpt lat="41.7858293932" lon="-5.7540667243">
        <ele>720.16</ele>
        <time>2020-08-10T08:20:08Z</time>
      </trkpt>
      <trkpt lat="41.7862624023" lon="-5.7537280954">
        <ele>721.13</ele>
        <time>2020-08-10T08:20:21Z</time>
      </trkpt>
      <trkpt lat="41.7866264284" lon="-5.7534553483">
        <ele>722.09</ele>
        <time>2020-08-10T08:20:32Z</time>
      </trkpt>
      <trkpt lat="41.7870279215" lon="-5.7531883847">
        <ele>723.53</ele>
        <time>2020-08-10T08:20:44Z</time>
      </trkpt>
      <trkpt lat="41.7873913608" lon="-5.7529833633">
        <ele>723.53</ele>
        <time>2020-08-10T08:20:54Z</time>
      </trkpt>
      <trkpt lat="41.7878237832" lon="-5.7527816948">
        <ele>722.57</ele>
        <time>2020-08-10T08:21:05Z</time>
      </trkpt>
      <trkpt lat="41.7881850433" lon="-5.7526350953">
        <ele>722.09</ele>
        <time>2020-08-10T08:21:14Z</time>
      </trkpt>
      <trkpt lat="41.7885504942" lon="-5.7524906751">
        <ele>721.61</ele>
        <time>2020-08-10T08:21:23Z</time>
      </trkpt>
      <trkpt lat="41.7891254090" lon="-5.7522626873">
        <ele>721.61</ele>
        <time>2020-08-10T08:21:37Z</time>
      </trkpt>
      <trkpt lat="41.7894984037" lon="-5.7521168422">
        <ele>721.61</ele>
        <time>2020-08-10T08:21:46Z</time>
      </trkpt>
      <trkpt lat="41.7898601666" lon="-5.7519734278">
        <ele>721.61</ele>
        <time>2020-08-10T08:21:55Z</time>
      </trkpt>
      <trkpt lat="41.7900651041" lon="-5.7518969011">
        <ele>721.13</ele>
        <time>2020-08-10T08:22:00Z</time>
      </trkpt>
      <trkpt lat="41.7905257735" lon="-5.7517057937">
        <ele>720.65</ele>
        <time>2020-08-10T08:22:11Z</time>
      </trkpt>
      <trkpt lat="41.7909172084" lon="-5.7515510637">
        <ele>720.16</ele>
        <time>2020-08-10T08:22:20Z</time>
      </trkpt>
      <trkpt lat="41.7913928814" lon="-5.7513659075">
        <ele>720.16</ele>
        <time>2020-08-10T08:22:31Z</time>
      </trkpt>
      <trkpt lat="41.7918049358" lon="-5.7511997782">
        <ele>719.68</ele>
        <time>2020-08-10T08:22:41Z</time>
      </trkpt>
      <trkpt lat="41.7922861408" lon="-5.7510103472">
        <ele>719.20</ele>
        <time>2020-08-10T08:22:53Z</time>
      </trkpt>
      <trkpt lat="41.7927410267" lon="-5.7508313935">
        <ele>719.20</ele>
        <time>2020-08-10T08:23:04Z</time>
      </trkpt>
      <trkpt lat="41.7932842579" lon="-5.7506230194">
        <ele>719.20</ele>
        <time>2020-08-10T08:23:17Z</time>
      </trkpt>
      <trkpt lat="41.7937159259" lon="-5.7504725643">
        <ele>720.65</ele>
        <time>2020-08-10T08:23:27Z</time>
      </trkpt>
      <trkpt lat="41.7941548023" lon="-5.7503622584">
        <ele>720.65</ele>
        <time>2020-08-10T08:23:37Z</time>
      </trkpt>
      <trkpt lat="41.7944753263" lon="-5.7503091171">
        <ele>721.13</ele>
        <time>2020-08-10T08:23:45Z</time>
      </trkpt>
      <trkpt lat="41.7948586307" lon="-5.7502748352">
        <ele>720.65</ele>
        <time>2020-08-10T08:23:54Z</time>
      </trkpt>
      <trkpt lat="41.7951691803" lon="-5.7502470072">
        <ele>720.65</ele>
        <time>2020-08-10T08:24:01Z</time>
      </trkpt>
      <trkpt lat="41.7952117603" lon="-5.7502415590">
        <ele>720.65</ele>
        <time>2020-08-10T08:24:02Z</time>
      </trkpt>
      <trkpt lat="41.7953323759" lon="-5.7502325904">
        <ele>720.65</ele>
        <time>2020-08-10T08:24:05Z</time>
      </trkpt>
      <trkpt lat="41.7953708488" lon="-5.7502276450">
        <ele>720.65</ele>
        <time>2020-08-10T08:24:06Z</time>
      </trkpt>
      <trkpt lat="41.7957332823" lon="-5.7501938660">
        <ele>720.16</ele>
        <time>2020-08-10T08:24:15Z</time>
      </trkpt>
      <trkpt lat="41.7957768682" lon="-5.7501882501">
        <ele>719.68</ele>
        <time>2020-08-10T08:24:16Z</time>
      </trkpt>
      <trkpt lat="41.7962819617" lon="-5.7501535490">
        <ele>718.24</ele>
        <time>2020-08-10T08:24:27Z</time>
      </trkpt>
      <trkpt lat="41.7968167271" lon="-5.7500960492">
        <ele>717.28</ele>
        <time>2020-08-10T08:24:38Z</time>
      </trkpt>
      <trkpt lat="41.7972487304" lon="-5.7500267308">
        <ele>716.32</ele>
        <time>2020-08-10T08:24:47Z</time>
      </trkpt>
      <trkpt lat="41.7976436857" lon="-5.7499399781">
        <ele>715.36</ele>
        <time>2020-08-10T08:24:56Z</time>
      </trkpt>
      <trkpt lat="41.7980956379" lon="-5.7498104777">
        <ele>714.88</ele>
        <time>2020-08-10T08:25:06Z</time>
      </trkpt>
      <trkpt lat="41.7985518649" lon="-5.7496303506">
        <ele>713.92</ele>
        <time>2020-08-10T08:25:16Z</time>
      </trkpt>
      <trkpt lat="41.7989011388" lon="-5.7494649757">
        <ele>713.44</ele>
        <time>2020-08-10T08:25:24Z</time>
      </trkpt>
      <trkpt lat="41.7989432998" lon="-5.7494398300">
        <ele>713.44</ele>
        <time>2020-08-10T08:25:25Z</time>
      </trkpt>
      <trkpt lat="41.7993571982" lon="-5.7492021192">
        <ele>713.44</ele>
        <time>2020-08-10T08:25:35Z</time>
      </trkpt>
      <trkpt lat="41.7996973358" lon="-5.7489740476">
        <ele>713.92</ele>
        <time>2020-08-10T08:25:44Z</time>
      </trkpt>
      <trkpt lat="41.8001210410" lon="-5.7486382686">
        <ele>713.44</ele>
        <time>2020-08-10T08:25:55Z</time>
      </trkpt>
      <trkpt lat="41.8004228733" lon="-5.7483745739">
        <ele>713.44</ele>
        <time>2020-08-10T08:26:03Z</time>
      </trkpt>
      <trkpt lat="41.8005309999" lon="-5.7482706383">
        <ele>713.44</ele>
        <time>2020-08-10T08:26:06Z</time>
      </trkpt>
      <trkpt lat="41.8005677126" lon="-5.7482373621">
        <ele>713.44</ele>
        <time>2020-08-10T08:26:07Z</time>
      </trkpt>
      <trkpt lat="41.8006047606" lon="-5.7482034154">
        <ele>713.44</ele>
        <time>2020-08-10T08:26:08Z</time>
      </trkpt>
      <trkpt lat="41.8009739835" lon="-5.7478400599">
        <ele>713.44</ele>
        <time>2020-08-10T08:26:18Z</time>
      </trkpt>
      <trkpt lat="41.8014068250" lon="-5.7474060450">
        <ele>713.44</ele>
        <time>2020-08-10T08:26:30Z</time>
      </trkpt>
      <trkpt lat="41.8016913068" lon="-5.7471183781">
        <ele>713.92</ele>
        <time>2020-08-10T08:26:38Z</time>
      </trkpt>
      <trkpt lat="41.8020757847" lon="-5.7467193995">
        <ele>712.95</ele>
        <time>2020-08-10T08:26:49Z</time>
      </trkpt>
      <trkpt lat="41.8024925329" lon="-5.7463076804">
        <ele>711.51</ele>
        <time>2020-08-10T08:27:00Z</time>
      </trkpt>
      <trkpt lat="41.8025305867" lon="-5.7462675311">
        <ele>711.51</ele>
        <time>2020-08-10T08:27:01Z</time>
      </trkpt>
      <trkpt lat="41.8025664613" lon="-5.7462284714">
        <ele>711.51</ele>
        <time>2020-08-10T08:27:02Z</time>
      </trkpt>
      <trkpt lat="41.8029780965" lon="-5.7458093762">
        <ele>710.07</ele>
        <time>2020-08-10T08:27:13Z</time>
      </trkpt>
      <trkpt lat="41.8034328148" lon="-5.7453528978">
        <ele>709.11</ele>
        <time>2020-08-10T08:27:25Z</time>
      </trkpt>
      <trkpt lat="41.8037896324" lon="-5.7449904643">
        <ele>708.15</ele>
        <time>2020-08-10T08:27:34Z</time>
      </trkpt>
      <trkpt lat="41.8043257389" lon="-5.7444572076">
        <ele>707.19</ele>
        <time>2020-08-10T08:27:47Z</time>
      </trkpt>
      <trkpt lat="41.8047292437" lon="-5.7440563850">
        <ele>706.71</ele>
        <time>2020-08-10T08:27:57Z</time>
      </trkpt>
      <trkpt lat="41.8051295634" lon="-5.7436650340">
        <ele>705.75</ele>
        <time>2020-08-10T08:28:07Z</time>
      </trkpt>
      <trkpt lat="41.8055689428" lon="-5.7432312705">
        <ele>705.75</ele>
        <time>2020-08-10T08:28:18Z</time>
      </trkpt>
      <trkpt lat="41.8059568573" lon="-5.7428450324">
        <ele>705.75</ele>
        <time>2020-08-10T08:28:28Z</time>
      </trkpt>
      <trkpt lat="41.8062974978" lon="-5.7425090857">
        <ele>706.23</ele>
        <time>2020-08-10T08:28:37Z</time>
      </trkpt>
      <trkpt lat="41.8065997493" lon="-5.7422064152">
        <ele>705.75</ele>
        <time>2020-08-10T08:28:47Z</time>
      </trkpt>
      <trkpt lat="41.8068057764" lon="-5.7419959456">
        <ele>705.75</ele>
        <time>2020-08-10T08:28:55Z</time>
      </trkpt>
      <trkpt lat="41.8070268910" lon="-5.7417706400">
        <ele>705.75</ele>
        <time>2020-08-10T08:29:05Z</time>
      </trkpt>
      <trkpt lat="41.8072347622" lon="-5.7415240444">
        <ele>705.75</ele>
        <time>2020-08-10T08:29:13Z</time>
      </trkpt>
      <trkpt lat="41.8075552862" lon="-5.7411374711">
        <ele>706.23</ele>
        <time>2020-08-10T08:29:24Z</time>
      </trkpt>
      <trkpt lat="41.8077851180" lon="-5.7408549171">
        <ele>705.75</ele>
        <time>2020-08-10T08:29:34Z</time>
      </trkpt>
      <trkpt lat="41.8079631496" lon="-5.7406591997">
        <ele>705.75</ele>
        <time>2020-08-10T08:29:43Z</time>
      </trkpt>
      <trkpt lat="41.8081025407" lon="-5.7404849399">
        <ele>706.23</ele>
        <time>2020-08-10T08:29:49Z</time>
      </trkpt>
      <trkpt lat="41.8083055504" lon="-5.7402232569">
        <ele>707.19</ele>
        <time>2020-08-10T08:29:58Z</time>
      </trkpt>
      <trkpt lat="41.8084164429" lon="-5.7400741428">
        <ele>706.71</ele>
        <time>2020-08-10T08:30:05Z</time>
      </trkpt>
      <trkpt lat="41.8084183708" lon="-5.7400474045">
        <ele>706.71</ele>
        <time>2020-08-10T08:30:06Z</time>
      </trkpt>
      <trkpt lat="41.8083976675" lon="-5.7399991248">
        <ele>706.71</ele>
        <time>2020-08-10T08:30:08Z</time>
      </trkpt>
      <trkpt lat="41.8083511479" lon="-5.7399372663">
        <ele>706.23</ele>
        <time>2020-08-10T08:30:11Z</time>
      </trkpt>
      <trkpt lat="41.8083585240" lon="-5.7398280501">
        <ele>705.75</ele>
        <time>2020-08-10T08:30:17Z</time>
      </trkpt>
      <trkpt lat="41.8083633855" lon="-5.7398692891">
        <ele>706.23</ele>
        <time>2020-08-10T08:30:21Z</time>
      </trkpt>
      <trkpt lat="41.8082978390" lon="-5.7399580535">
        <ele>706.71</ele>
        <time>2020-08-10T08:30:28Z</time>
      </trkpt>
      <trkpt lat="41.8082918879" lon="-5.7399846241">
        <ele>706.71</ele>
        <time>2020-08-10T08:30:29Z</time>
      </trkpt>
      <trkpt lat="41.8082835898" lon="-5.7400069200">
        <ele>706.71</ele>
        <time>2020-08-10T08:30:30Z</time>
      </trkpt>
      <trkpt lat="41.8082748726" lon="-5.7400228456">
        <ele>706.71</ele>
        <time>2020-08-10T08:30:31Z</time>
      </trkpt>
      <trkpt lat="41.8082677480" lon="-5.7400430460">
        <ele>706.71</ele>
        <time>2020-08-10T08:30:32Z</time>
      </trkpt>
      <trkpt lat="41.8082907982" lon="-5.7400630787">
        <ele>706.23</ele>
        <time>2020-08-10T08:30:36Z</time>
      </trkpt>
      <trkpt lat="41.8082847632" lon="-5.7400577143">
        <ele>706.23</ele>
        <time>2020-08-10T08:30:46Z</time>
      </trkpt>
      <trkpt lat="41.8082795665" lon="-5.7400600612">
        <ele>707.67</ele>
        <time>2020-08-10T08:31:03Z</time>
      </trkpt>
      <trkpt lat="41.8082811590" lon="-5.7400513440">
        <ele>707.19</ele>
        <time>2020-08-10T08:31:22Z</time>
      </trkpt>
      <trkpt lat="41.8082784768" lon="-5.7400551997">
        <ele>708.15</ele>
        <time>2020-08-10T08:31:33Z</time>
      </trkpt>
      <trkpt lat="41.8082856853" lon="-5.7400565408">
        <ele>708.15</ele>
        <time>2020-08-10T08:31:43Z</time>
      </trkpt>
      <trkpt lat="41.8082945701" lon="-5.7400021423">
        <ele>708.15</ele>
        <time>2020-08-10T08:31:47Z</time>
      </trkpt>
      <trkpt lat="41.8083670735" lon="-5.7399006374">
        <ele>708.15</ele>
        <time>2020-08-10T08:31:56Z</time>
      </trkpt>
      <trkpt lat="41.8083634693" lon="-5.7399017271">
        <ele>707.67</ele>
        <time>2020-08-10T08:32:06Z</time>
      </trkpt>
      <trkpt lat="41.8083577696" lon="-5.7399065048">
        <ele>707.19</ele>
        <time>2020-08-10T08:32:18Z</time>
      </trkpt>
      <trkpt lat="41.8083728570" lon="-5.7399194967">
        <ele>706.71</ele>
        <time>2020-08-10T08:32:20Z</time>
      </trkpt>
      <trkpt lat="41.8084122520" lon="-5.7399916649">
        <ele>707.67</ele>
        <time>2020-08-10T08:32:25Z</time>
      </trkpt>
      <trkpt lat="41.8085039500" lon="-5.7400443871">
        <ele>707.67</ele>
        <time>2020-08-10T08:32:33Z</time>
      </trkpt>
      <trkpt lat="41.8085719272" lon="-5.7400810160">
        <ele>706.23</ele>
        <time>2020-08-10T08:32:40Z</time>
      </trkpt>
      <trkpt lat="41.8086012639" lon="-5.7400691137">
        <ele>705.75</ele>
        <time>2020-08-10T08:32:41Z</time>
      </trkpt>
      <trkpt lat="41.8086311035" lon="-5.7400437165">
        <ele>705.26</ele>
        <time>2020-08-10T08:32:42Z</time>
      </trkpt>
      <trkpt lat="41.8086583447" lon="-5.7400098536">
        <ele>705.26</ele>
        <time>2020-08-10T08:32:43Z</time>
      </trkpt>
      <trkpt lat="41.8086818978" lon="-5.7399738114">
        <ele>705.26</ele>
        <time>2020-08-10T08:32:44Z</time>
      </trkpt>
      <trkpt lat="41.8087041937" lon="-5.7399379369">
        <ele>705.75</ele>
        <time>2020-08-10T08:32:45Z</time>
      </trkpt>
      <trkpt lat="41.8089533038" lon="-5.7396087795">
        <ele>706.23</ele>
        <time>2020-08-10T08:32:55Z</time>
      </trkpt>
      <trkpt lat="41.8091677129" lon="-5.7393439114">
        <ele>707.19</ele>
        <time>2020-08-10T08:33:03Z</time>
      </trkpt>
      <trkpt lat="41.8093026616" lon="-5.7391456794">
        <ele>708.15</ele>
        <time>2020-08-10T08:33:11Z</time>
      </trkpt>
      <trkpt lat="41.8093763385" lon="-5.7390107308">
        <ele>708.15</ele>
        <time>2020-08-10T08:33:19Z</time>
      </trkpt>
      <trkpt lat="41.8093915097" lon="-5.7390106469">
        <ele>707.67</ele>
        <time>2020-08-10T08:33:25Z</time>
      </trkpt>
      <trkpt lat="41.8093885761" lon="-5.7390111499">
        <ele>707.67</ele>
        <time>2020-08-10T08:33:37Z</time>
      </trkpt>
      <trkpt lat="41.8093929347" lon="-5.7390146703">
        <ele>707.67</ele>
        <time>2020-08-10T08:33:50Z</time>
      </trkpt>
      <trkpt lat="41.8093900010" lon="-5.7390138321">
        <ele>706.71</ele>
        <time>2020-08-10T08:34:00Z</time>
      </trkpt>
      <trkpt lat="41.8093860615" lon="-5.7390235551">
        <ele>706.71</ele>
        <time>2020-08-10T08:34:10Z</time>
      </trkpt>
      <trkpt lat="41.8093951978" lon="-5.7390250638">
        <ele>706.71</ele>
        <time>2020-08-10T08:34:20Z</time>
      </trkpt>
      <trkpt lat="41.8093946110" lon="-5.7390181907">
        <ele>707.19</ele>
        <time>2020-08-10T08:34:35Z</time>
      </trkpt>
      <trkpt lat="41.8093952816" lon="-5.7390293386">
        <ele>707.19</ele>
        <time>2020-08-10T08:34:46Z</time>
      </trkpt>
      <trkpt lat="41.8093951140" lon="-5.7390298415">
        <ele>707.19</ele>
        <time>2020-08-10T08:34:47Z</time>
      </trkpt>
      <trkpt lat="41.8093418051" lon="-5.7391274069">
        <ele>707.19</ele>
        <time>2020-08-10T08:34:52Z</time>
      </trkpt>
      <trkpt lat="41.8091363646" lon="-5.7394086197">
        <ele>708.15</ele>
        <time>2020-08-10T08:35:01Z</time>
      </trkpt>
      <trkpt lat="41.8088650424" lon="-5.7397331670">
        <ele>709.11</ele>
        <time>2020-08-10T08:35:11Z</time>
      </trkpt>
      <trkpt lat="41.8086259067" lon="-5.7400443032">
        <ele>710.55</ele>
        <time>2020-08-10T08:35:21Z</time>
      </trkpt>
      <trkpt lat="41.8086116575" lon="-5.7400745619">
        <ele>710.55</ele>
        <time>2020-08-10T08:35:22Z</time>
      </trkpt>
      <trkpt lat="41.8086958956" lon="-5.7402549405">
        <ele>709.11</ele>
        <time>2020-08-10T08:35:28Z</time>
      </trkpt>
      <trkpt lat="41.8088085484" lon="-5.7405370753">
        <ele>708.15</ele>
        <time>2020-08-10T08:35:36Z</time>
      </trkpt>
      <trkpt lat="41.8089364562" lon="-5.7408632990">
        <ele>706.71</ele>
        <time>2020-08-10T08:35:46Z</time>
      </trkpt>
      <trkpt lat="41.8091333471" lon="-5.7409524824">
        <ele>706.23</ele>
        <time>2020-08-10T08:35:53Z</time>
      </trkpt>
      <trkpt lat="41.8092385400" lon="-5.7409522310">
        <ele>706.23</ele>
        <time>2020-08-10T08:35:58Z</time>
      </trkpt>
      <trkpt lat="41.8092884962" lon="-5.7410594355">
        <ele>705.75</ele>
        <time>2020-08-10T08:36:02Z</time>
      </trkpt>
      <trkpt lat="41.8093946949" lon="-5.7416755054">
        <ele>706.23</ele>
        <time>2020-08-10T08:36:16Z</time>
      </trkpt>
      <trkpt lat="41.8094480876" lon="-5.7418740727">
        <ele>706.23</ele>
        <time>2020-08-10T08:36:22Z</time>
      </trkpt>
      <trkpt lat="41.8095281348" lon="-5.7418786827">
        <ele>706.23</ele>
        <time>2020-08-10T08:36:26Z</time>
      </trkpt>
      <trkpt lat="41.8097739760" lon="-5.7417811174">
        <ele>705.75</ele>
        <time>2020-08-10T08:36:36Z</time>
      </trkpt>
      <trkpt lat="41.8099238444" lon="-5.7418082748">
        <ele>705.26</ele>
        <time>2020-08-10T08:36:45Z</time>
      </trkpt>
      <trkpt lat="41.8099431228" lon="-5.7418170758">
        <ele>704.78</ele>
        <time>2020-08-10T08:36:50Z</time>
      </trkpt>
      <trkpt lat="41.8099453021" lon="-5.7418242004">
        <ele>703.82</ele>
        <time>2020-08-10T08:37:01Z</time>
      </trkpt>
      <trkpt lat="41.8099457212" lon="-5.7418257091">
        <ele>703.34</ele>
        <time>2020-08-10T08:37:14Z</time>
      </trkpt>
      <trkpt lat="41.8099550251" lon="-5.7418276370">
        <ele>703.34</ele>
        <time>2020-08-10T08:37:27Z</time>
      </trkpt>
      <trkpt lat="41.8099508341" lon="-5.7418151479">
        <ele>702.38</ele>
        <time>2020-08-10T08:37:46Z</time>
      </trkpt>
      <trkpt lat="41.8099451344" lon="-5.7418097835">
        <ele>703.34</ele>
        <time>2020-08-10T08:38:00Z</time>
      </trkpt>
      <trkpt lat="41.8099618144" lon="-5.7418073528">
        <ele>703.82</ele>
        <time>2020-08-10T08:38:14Z</time>
      </trkpt>
      <trkpt lat="41.8099610601" lon="-5.7418034971">
        <ele>704.30</ele>
        <time>2020-08-10T08:38:30Z</time>
      </trkpt>
      <trkpt lat="41.8099497445" lon="-5.7418034133">
        <ele>703.82</ele>
        <time>2020-08-10T08:38:47Z</time>
      </trkpt>
      <trkpt lat="41.8099482358" lon="-5.7418219373">
        <ele>703.82</ele>
        <time>2020-08-10T08:38:56Z</time>
      </trkpt>
      <trkpt lat="41.8099523429" lon="-5.7418230269">
        <ele>704.78</ele>
        <time>2020-08-10T08:39:03Z</time>
      </trkpt>
      <trkpt lat="41.8099518400" lon="-5.7418338396">
        <ele>705.26</ele>
        <time>2020-08-10T08:39:05Z</time>
      </trkpt>
      <trkpt lat="41.8099329807" lon="-5.7419137191">
        <ele>705.26</ele>
        <time>2020-08-10T08:39:09Z</time>
      </trkpt>
      <trkpt lat="41.8099598866" lon="-5.7420640066">
        <ele>704.78</ele>
        <time>2020-08-10T08:39:17Z</time>
      </trkpt>
      <trkpt lat="41.8100126088" lon="-5.7423401065">
        <ele>704.30</ele>
        <time>2020-08-10T08:39:25Z</time>
      </trkpt>
      <trkpt lat="41.8100678455" lon="-5.7427194715">
        <ele>703.82</ele>
        <time>2020-08-10T08:39:34Z</time>
      </trkpt>
      <trkpt lat="41.8101623096" lon="-5.7431696635">
        <ele>703.34</ele>
        <time>2020-08-10T08:39:45Z</time>
      </trkpt>
      <trkpt lat="41.8102898821" lon="-5.7437335979">
        <ele>703.82</ele>
        <time>2020-08-10T08:39:58Z</time>
      </trkpt>
      <trkpt lat="41.8103556801" lon="-5.7441662718">
        <ele>703.82</ele>
        <time>2020-08-10T08:40:09Z</time>
      </trkpt>
      <trkpt lat="41.8103540037" lon="-5.7441654336">
        <ele>703.82</ele>
        <time>2020-08-10T08:40:16Z</time>
      </trkpt>
      <trkpt lat="41.8103511538" lon="-5.7441703789">
        <ele>703.34</ele>
        <time>2020-08-10T08:40:30Z</time>
      </trkpt>
      <trkpt lat="41.8103481364" lon="-5.7441740669">
        <ele>702.86</ele>
        <time>2020-08-10T08:40:49Z</time>
      </trkpt>
      <trkpt lat="41.8103516567" lon="-5.7441681996">
        <ele>701.42</ele>
        <time>2020-08-10T08:41:07Z</time>
      </trkpt>
      <trkpt lat="41.8103479687" lon="-5.7441679481">
        <ele>700.94</ele>
        <time>2020-08-10T08:41:19Z</time>
      </trkpt>
      <trkpt lat="41.8103562668" lon="-5.7441805210">
        <ele>702.38</ele>
        <time>2020-08-10T08:41:33Z</time>
      </trkpt>
      <trkpt lat="41.8103674985" lon="-5.7442790084">
        <ele>702.86</ele>
        <time>2020-08-10T08:41:40Z</time>
      </trkpt>
      <trkpt lat="41.8103845976" lon="-5.7445434574">
        <ele>702.86</ele>
        <time>2020-08-10T08:41:46Z</time>
      </trkpt>
      <trkpt lat="41.8104143534" lon="-5.7450255845">
        <ele>702.38</ele>
        <time>2020-08-10T08:41:56Z</time>
      </trkpt>
      <trkpt lat="41.8104757927" lon="-5.7453814801">
        <ele>702.86</ele>
        <time>2020-08-10T08:42:04Z</time>
      </trkpt>
      <trkpt lat="41.8105533253" lon="-5.7459008228">
        <ele>703.34</ele>
        <time>2020-08-10T08:42:14Z</time>
      </trkpt>
      <trkpt lat="41.8106097355" lon="-5.7463728916">
        <ele>703.34</ele>
        <time>2020-08-10T08:42:23Z</time>
      </trkpt>
      <trkpt lat="41.8106548302" lon="-5.7469207328">
        <ele>703.34</ele>
        <time>2020-08-10T08:42:33Z</time>
      </trkpt>
      <trkpt lat="41.8106248230" lon="-5.7474812306">
        <ele>703.82</ele>
        <time>2020-08-10T08:42:44Z</time>
      </trkpt>
      <trkpt lat="41.8105638027" lon="-5.7478833944">
        <ele>704.78</ele>
        <time>2020-08-10T08:42:53Z</time>
      </trkpt>
      <trkpt lat="41.8105020281" lon="-5.7483506016">
        <ele>705.26</ele>
        <time>2020-08-10T08:43:03Z</time>
      </trkpt>
      <trkpt lat="41.8104875274" lon="-5.7486787532">
        <ele>704.78</ele>
        <time>2020-08-10T08:43:10Z</time>
      </trkpt>
      <trkpt lat="41.8104845937" lon="-5.7488106843">
        <ele>705.26</ele>
        <time>2020-08-10T08:43:16Z</time>
      </trkpt>
      <trkpt lat="41.8104845099" lon="-5.7488725428">
        <ele>705.75</ele>
        <time>2020-08-10T08:43:24Z</time>
      </trkpt>
      <trkpt lat="41.8105027825" lon="-5.7491480559">
        <ele>705.26</ele>
        <time>2020-08-10T08:43:30Z</time>
      </trkpt>
      <trkpt lat="41.8105343822" lon="-5.7495859265">
        <ele>704.78</ele>
        <time>2020-08-10T08:43:40Z</time>
      </trkpt>
      <trkpt lat="41.8105317000" lon="-5.7497881819">
        <ele>704.78</ele>
        <time>2020-08-10T08:43:50Z</time>
      </trkpt>
      <trkpt lat="41.8105653115" lon="-5.7500714902">
        <ele>704.78</ele>
        <time>2020-08-10T08:44:01Z</time>
      </trkpt>
      <trkpt lat="41.8106273375" lon="-5.7502986398">
        <ele>705.26</ele>
        <time>2020-08-10T08:44:09Z</time>
      </trkpt>
      <trkpt lat="41.8106782995" lon="-5.7505607419">
        <ele>705.26</ele>
        <time>2020-08-10T08:44:18Z</time>
      </trkpt>
      <trkpt lat="41.8106753659" lon="-5.7505845465">
        <ele>705.26</ele>
        <time>2020-08-10T08:44:23Z</time>
      </trkpt>
      <trkpt lat="41.8106712587" lon="-5.7505816128">
        <ele>704.30</ele>
        <time>2020-08-10T08:44:38Z</time>
      </trkpt>
      <trkpt lat="41.8106693309" lon="-5.7505807746">
        <ele>703.34</ele>
        <time>2020-08-10T08:45:05Z</time>
      </trkpt>
      <trkpt lat="41.8106728513" lon="-5.7505878992">
        <ele>703.82</ele>
        <time>2020-08-10T08:45:08Z</time>
      </trkpt>
      <trkpt lat="41.8106706720" lon="-5.7507956028">
        <ele>704.30</ele>
        <time>2020-08-10T08:45:15Z</time>
      </trkpt>
      <trkpt lat="41.8106363900" lon="-5.7511492353">
        <ele>704.78</ele>
        <time>2020-08-10T08:45:22Z</time>
      </trkpt>
      <trkpt lat="41.8105867691" lon="-5.7517093141">
        <ele>704.78</ele>
        <time>2020-08-10T08:45:31Z</time>
      </trkpt>
      <trkpt lat="41.8105053809" lon="-5.7524449937">
        <ele>703.82</ele>
        <time>2020-08-10T08:45:43Z</time>
      </trkpt>
      <trkpt lat="41.8104698416" lon="-5.7528854627">
        <ele>703.34</ele>
        <time>2020-08-10T08:45:50Z</time>
      </trkpt>
      <trkpt lat="41.8104778044" lon="-5.7530922443">
        <ele>703.34</ele>
        <time>2020-08-10T08:45:53Z</time>
      </trkpt>
      <trkpt lat="41.8105827458" lon="-5.7536563464">
        <ele>702.86</ele>
        <time>2020-08-10T08:46:02Z</time>
      </trkpt>
      <trkpt lat="41.8106970750" lon="-5.7542553172">
        <ele>702.38</ele>
        <time>2020-08-10T08:46:12Z</time>
      </trkpt>
      <trkpt lat="41.8107374758" lon="-5.7545988914">
        <ele>702.38</ele>
        <time>2020-08-10T08:46:19Z</time>
      </trkpt>
      <trkpt lat="41.8107336201" lon="-5.7548935153">
        <ele>702.38</ele>
        <time>2020-08-10T08:46:27Z</time>
      </trkpt>
      <trkpt lat="41.8107176945" lon="-5.7551060803">
        <ele>702.38</ele>
        <time>2020-08-10T08:46:36Z</time>
      </trkpt>
      <trkpt lat="41.8106985837" lon="-5.7554064039">
        <ele>702.38</ele>
        <time>2020-08-10T08:46:45Z</time>
      </trkpt>
      <trkpt lat="41.8106708396" lon="-5.7556949928">
        <ele>702.38</ele>
        <time>2020-08-10T08:46:53Z</time>
      </trkpt>
      <trkpt lat="41.8106478732" lon="-5.7561106514">
        <ele>701.90</ele>
        <time>2020-08-10T08:47:02Z</time>
      </trkpt>
      <trkpt lat="41.8106178660" lon="-5.7566228695">
        <ele>701.90</ele>
        <time>2020-08-10T08:47:12Z</time>
      </trkpt>
      <trkpt lat="41.8105893675" lon="-5.7571148034">
        <ele>701.42</ele>
        <time>2020-08-10T08:47:21Z</time>
      </trkpt>
      <trkpt lat="41.8105730228" lon="-5.7577488944">
        <ele>700.94</ele>
        <time>2020-08-10T08:47:32Z</time>
      </trkpt>
      <trkpt lat="41.8105931394" lon="-5.7581841666">
        <ele>700.46</ele>
        <time>2020-08-10T08:47:40Z</time>
      </trkpt>
      <trkpt lat="41.8106312770" lon="-5.7587928604">
        <ele>699.98</ele>
        <time>2020-08-10T08:47:50Z</time>
      </trkpt>
      <trkpt lat="41.8106451910" lon="-5.7589785196">
        <ele>699.98</ele>
        <time>2020-08-10T08:47:53Z</time>
      </trkpt>
      <trkpt lat="41.8106658105" lon="-5.7595442142">
        <ele>699.98</ele>
        <time>2020-08-10T08:48:02Z</time>
      </trkpt>
      <trkpt lat="41.8106766231" lon="-5.7602891978">
        <ele>699.98</ele>
        <time>2020-08-10T08:48:14Z</time>
      </trkpt>
      <trkpt lat="41.8106886931" lon="-5.7609178405">
        <ele>699.98</ele>
        <time>2020-08-10T08:48:24Z</time>
      </trkpt>
      <trkpt lat="41.8107543234" lon="-5.7617353275">
        <ele>699.50</ele>
        <time>2020-08-10T08:48:37Z</time>
      </trkpt>
      <trkpt lat="41.8108733464" lon="-5.7623421773">
        <ele>698.53</ele>
        <time>2020-08-10T08:48:47Z</time>
      </trkpt>
      <trkpt lat="41.8110471871" lon="-5.7629887573">
        <ele>699.02</ele>
        <time>2020-08-10T08:48:58Z</time>
      </trkpt>
      <trkpt lat="41.8112861551" lon="-5.7634589821">
        <ele>698.53</ele>
        <time>2020-08-10T08:49:07Z</time>
      </trkpt>
      <trkpt lat="41.8115334213" lon="-5.7638460584">
        <ele>698.05</ele>
        <time>2020-08-10T08:49:15Z</time>
      </trkpt>
      <trkpt lat="41.8117235228" lon="-5.7641482260">
        <ele>698.05</ele>
        <time>2020-08-10T08:49:22Z</time>
      </trkpt>
      <trkpt lat="41.8120224215" lon="-5.7645759545">
        <ele>697.57</ele>
        <time>2020-08-10T08:49:32Z</time>
      </trkpt>
      <trkpt lat="41.8120926619" lon="-5.7646469492">
        <ele>697.57</ele>
        <time>2020-08-10T08:49:34Z</time>
      </trkpt>
      <trkpt lat="41.8124869466" lon="-5.7649096381">
        <ele>697.09</ele>
        <time>2020-08-10T08:49:44Z</time>
      </trkpt>
      <trkpt lat="41.8128310237" lon="-5.7651082892">
        <ele>697.09</ele>
        <time>2020-08-10T08:49:52Z</time>
      </trkpt>
      <trkpt lat="41.8130913656" lon="-5.7654677052">
        <ele>697.09</ele>
        <time>2020-08-10T08:50:00Z</time>
      </trkpt>
      <trkpt lat="41.8133796193" lon="-5.7658444718">
        <ele>697.57</ele>
        <time>2020-08-10T08:50:09Z</time>
      </trkpt>
      <trkpt lat="41.8138545379" lon="-5.7661915664">
        <ele>698.53</ele>
        <time>2020-08-10T08:50:21Z</time>
      </trkpt>
      <trkpt lat="41.8141747266" lon="-5.7664213143">
        <ele>698.05</ele>
        <time>2020-08-10T08:50:30Z</time>
      </trkpt>
      <trkpt lat="41.8142301310" lon="-5.7664552610">
        <ele>698.05</ele>
        <time>2020-08-10T08:50:32Z</time>
      </trkpt>
      <trkpt lat="41.8143242598" lon="-5.7663742919">
        <ele>698.53</ele>
        <time>2020-08-10T08:50:37Z</time>
      </trkpt>
      <trkpt lat="41.8144033849" lon="-5.7661600504">
        <ele>698.53</ele>
        <time>2020-08-10T08:50:44Z</time>
      </trkpt>
      <trkpt lat="41.8145153672" lon="-5.7658614032">
        <ele>699.50</ele>
        <time>2020-08-10T08:50:53Z</time>
      </trkpt>
      <trkpt lat="41.8146534171" lon="-5.7654879894">
        <ele>699.98</ele>
        <time>2020-08-10T08:51:03Z</time>
      </trkpt>
      <trkpt lat="41.8147835042" lon="-5.7651155815">
        <ele>700.46</ele>
        <time>2020-08-10T08:51:13Z</time>
      </trkpt>
      <trkpt lat="41.8148876075" lon="-5.7648201194">
        <ele>700.46</ele>
        <time>2020-08-10T08:51:21Z</time>
      </trkpt>
      <trkpt lat="41.8150140904" lon="-5.7644814905">
        <ele>700.46</ele>
        <time>2020-08-10T08:51:30Z</time>
      </trkpt>
      <trkpt lat="41.8151376396" lon="-5.7641706057">
        <ele>700.46</ele>
        <time>2020-08-10T08:51:38Z</time>
      </trkpt>
      <trkpt lat="41.8152802996" lon="-5.7638280373">
        <ele>700.94</ele>
        <time>2020-08-10T08:51:47Z</time>
      </trkpt>
      <trkpt lat="41.8154807109" lon="-5.7635347545">
        <ele>701.42</ele>
        <time>2020-08-10T08:51:56Z</time>
      </trkpt>
      <trkpt lat="41.8156789429" lon="-5.7633208483">
        <ele>700.94</ele>
        <time>2020-08-10T08:52:04Z</time>
      </trkpt>
      <trkpt lat="41.8158884905" lon="-5.7630357798">
        <ele>701.42</ele>
        <time>2020-08-10T08:52:13Z</time>
      </trkpt>
      <trkpt lat="41.8161256984" lon="-5.7627223805">
        <ele>701.90</ele>
        <time>2020-08-10T08:52:23Z</time>
      </trkpt>
      <trkpt lat="41.8163544405" lon="-5.7623970788">
        <ele>702.86</ele>
        <time>2020-08-10T08:52:34Z</time>
      </trkpt>
      <trkpt lat="41.8165445421" lon="-5.7621378265">
        <ele>703.34</ele>
        <time>2020-08-10T08:52:43Z</time>
      </trkpt>
      <trkpt lat="41.8167926464" lon="-5.7617986947">
        <ele>703.82</ele>
        <time>2020-08-10T08:52:55Z</time>
      </trkpt>
      <trkpt lat="41.8169616256" lon="-5.7615901530">
        <ele>703.82</ele>
        <time>2020-08-10T08:53:04Z</time>
      </trkpt>
      <trkpt lat="41.8170068879" lon="-5.7615528535">
        <ele>704.78</ele>
        <time>2020-08-10T08:53:08Z</time>
      </trkpt>
      <trkpt lat="41.8170936406" lon="-5.7615691144">
        <ele>704.78</ele>
        <time>2020-08-10T08:53:17Z</time>
      </trkpt>
      <trkpt lat="41.8171913736" lon="-5.7616541907">
        <ele>706.23</ele>
        <time>2020-08-10T08:53:24Z</time>
      </trkpt>
      <trkpt lat="41.8173296750" lon="-5.7617783267">
        <ele>708.15</ele>
        <time>2020-08-10T08:53:33Z</time>
      </trkpt>
      <trkpt lat="41.8174815550" lon="-5.7619074918">
        <ele>710.55</ele>
        <time>2020-08-10T08:53:44Z</time>
      </trkpt>
      <trkpt lat="41.8175647873" lon="-5.7619999442">
        <ele>711.51</ele>
        <time>2020-08-10T08:53:51Z</time>
      </trkpt>
      <trkpt lat="41.8176787812" lon="-5.7621089928">
        <ele>712.47</ele>
        <time>2020-08-10T08:54:00Z</time>
      </trkpt>
      <trkpt lat="41.8177627679" lon="-5.7622095756">
        <ele>713.44</ele>
        <time>2020-08-10T08:54:08Z</time>
      </trkpt>
      <trkpt lat="41.8177739158" lon="-5.7622291055">
        <ele>713.92</ele>
        <time>2020-08-10T08:54:10Z</time>
      </trkpt>
      <trkpt lat="41.8178801145" lon="-5.7623218093">
        <ele>715.36</ele>
        <time>2020-08-10T08:54:19Z</time>
      </trkpt>
      <trkpt lat="41.8178940285" lon="-5.7623335440">
        <ele>715.36</ele>
        <time>2020-08-10T08:54:20Z</time>
      </trkpt>
      <trkpt lat="41.8180423044" lon="-5.7624780480">
        <ele>717.28</ele>
        <time>2020-08-10T08:54:31Z</time>
      </trkpt>
      <trkpt lat="41.8181842938" lon="-5.7626077998">
        <ele>718.24</ele>
        <time>2020-08-10T08:54:41Z</time>
      </trkpt>
      <trkpt lat="41.8183085974" lon="-5.7627345342">
        <ele>719.68</ele>
        <time>2020-08-10T08:54:50Z</time>
      </trkpt>
      <trkpt lat="41.8184437137" lon="-5.7628612686">
        <ele>721.13</ele>
        <time>2020-08-10T08:54:59Z</time>
      </trkpt>
      <trkpt lat="41.8186300434" lon="-5.7630218659">
        <ele>723.05</ele>
        <time>2020-08-10T08:55:11Z</time>
      </trkpt>
      <trkpt lat="41.8187932391" lon="-5.7631664537">
        <ele>723.53</ele>
        <time>2020-08-10T08:55:21Z</time>
      </trkpt>
      <trkpt lat="41.8189505674" lon="-5.7633191720">
        <ele>724.01</ele>
        <time>2020-08-10T08:55:32Z</time>
      </trkpt>
      <trkpt lat="41.8189452030" lon="-5.7633111253">
        <ele>723.05</ele>
        <time>2020-08-10T08:55:41Z</time>
      </trkpt>
      <trkpt lat="41.8189530820" lon="-5.7633074373">
        <ele>722.57</ele>
        <time>2020-08-10T08:55:55Z</time>
      </trkpt>
      <trkpt lat="41.8189489748" lon="-5.7633124664">
        <ele>722.57</ele>
        <time>2020-08-10T08:56:09Z</time>
      </trkpt>
      <trkpt lat="41.8189487234" lon="-5.7633154001">
        <ele>722.09</ele>
        <time>2020-08-10T08:56:21Z</time>
      </trkpt>
      <trkpt lat="41.8189492263" lon="-5.7633165736">
        <ele>722.57</ele>
        <time>2020-08-10T08:56:38Z</time>
      </trkpt>
      <trkpt lat="41.8189518247" lon="-5.7633221056">
        <ele>724.01</ele>
        <time>2020-08-10T08:56:58Z</time>
      </trkpt>
      <trkpt lat="41.8189453706" lon="-5.7633258775">
        <ele>723.53</ele>
        <time>2020-08-10T08:57:16Z</time>
      </trkpt>
      <trkpt lat="41.8189405091" lon="-5.7633217704">
        <ele>724.01</ele>
        <time>2020-08-10T08:57:36Z</time>
      </trkpt>
      <trkpt lat="41.8189376593" lon="-5.7633202616">
        <ele>723.53</ele>
        <time>2020-08-10T08:57:52Z</time>
      </trkpt>
      <trkpt lat="41.8189395033" lon="-5.7633153163">
        <ele>722.57</ele>
        <time>2020-08-10T08:58:09Z</time>
      </trkpt>
      <trkpt lat="41.8189348932" lon="-5.7633079402">
        <ele>722.57</ele>
        <time>2020-08-10T08:58:37Z</time>
      </trkpt>
      <trkpt lat="41.8189363182" lon="-5.7633072697">
        <ele>722.09</ele>
        <time>2020-08-10T08:59:09Z</time>
      </trkpt>
      <trkpt lat="41.8189406767" lon="-5.7633127179">
        <ele>722.57</ele>
        <time>2020-08-10T08:59:27Z</time>
      </trkpt>
      <trkpt lat="41.8189586140" lon="-5.7633322477">
        <ele>722.09</ele>
        <time>2020-08-10T08:59:39Z</time>
      </trkpt>
      <trkpt lat="41.8190599512" lon="-5.7634365186">
        <ele>722.57</ele>
        <time>2020-08-10T08:59:47Z</time>
      </trkpt>
      <trkpt lat="41.8191976659" lon="-5.7635583077">
        <ele>722.57</ele>
        <time>2020-08-10T08:59:55Z</time>
      </trkpt>
      <trkpt lat="41.8193368893" lon="-5.7637011353">
        <ele>723.53</ele>
        <time>2020-08-10T09:00:04Z</time>
      </trkpt>
      <trkpt lat="41.8195093889" lon="-5.7638659235">
        <ele>723.53</ele>
        <time>2020-08-10T09:00:13Z</time>
      </trkpt>
      <trkpt lat="41.8197182659" lon="-5.7640736271">
        <ele>724.49</ele>
        <time>2020-08-10T09:00:23Z</time>
      </trkpt>
      <trkpt lat="41.8200004008" lon="-5.7643410936">
        <ele>724.97</ele>
        <time>2020-08-10T09:00:35Z</time>
      </trkpt>
      <trkpt lat="41.8202267960" lon="-5.7645700034">
        <ele>724.97</ele>
        <time>2020-08-10T09:00:45Z</time>
      </trkpt>
      <trkpt lat="41.8204385228" lon="-5.7647730131">
        <ele>725.45</ele>
        <time>2020-08-10T09:00:54Z</time>
      </trkpt>
      <trkpt lat="41.8206558656" lon="-5.7649766095">
        <ele>725.45</ele>
        <time>2020-08-10T09:01:03Z</time>
      </trkpt>
      <trkpt lat="41.8209219910" lon="-5.7652258035">
        <ele>725.45</ele>
        <time>2020-08-10T09:01:14Z</time>
      </trkpt>
      <trkpt lat="41.8211282697" lon="-5.7654208504">
        <ele>725.45</ele>
        <time>2020-08-10T09:01:23Z</time>
      </trkpt>
      <trkpt lat="41.8213073071" lon="-5.7655942719">
        <ele>724.97</ele>
        <time>2020-08-10T09:01:31Z</time>
      </trkpt>
      <trkpt lat="41.8215692416" lon="-5.7658466510">
        <ele>725.93</ele>
        <time>2020-08-10T09:01:42Z</time>
      </trkpt>
      <trkpt lat="41.8217442557" lon="-5.7660168037">
        <ele>726.41</ele>
        <time>2020-08-10T09:01:50Z</time>
      </trkpt>
      <trkpt lat="41.8219985627" lon="-5.7662494853">
        <ele>726.41</ele>
        <time>2020-08-10T09:02:00Z</time>
      </trkpt>
      <trkpt lat="41.8222296517" lon="-5.7664570212">
        <ele>726.41</ele>
        <time>2020-08-10T09:02:09Z</time>
      </trkpt>
      <trkpt lat="41.8224757444" lon="-5.7666969951">
        <ele>726.41</ele>
        <time>2020-08-10T09:02:19Z</time>
      </trkpt>
      <trkpt lat="41.8227249384" lon="-5.7669418305">
        <ele>726.89</ele>
        <time>2020-08-10T09:02:30Z</time>
      </trkpt>
      <trkpt lat="41.8230095878" lon="-5.7672103029">
        <ele>727.37</ele>
        <time>2020-08-10T09:02:42Z</time>
      </trkpt>
      <trkpt lat="41.8233187124" lon="-5.7674549706">
        <ele>726.89</ele>
        <time>2020-08-10T09:02:53Z</time>
      </trkpt>
      <trkpt lat="41.8236544915" lon="-5.7676936034">
        <ele>726.41</ele>
        <time>2020-08-10T09:03:04Z</time>
      </trkpt>
      <trkpt lat="41.8239279930" lon="-5.7679257821">
        <ele>726.41</ele>
        <time>2020-08-10T09:03:14Z</time>
      </trkpt>
      <trkpt lat="41.8241478503" lon="-5.7681234274">
        <ele>726.41</ele>
        <time>2020-08-10T09:03:22Z</time>
      </trkpt>
      <trkpt lat="41.8244289793" lon="-5.7684064005">
        <ele>726.89</ele>
        <time>2020-08-10T09:03:32Z</time>
      </trkpt>
      <trkpt lat="41.8246562127" lon="-5.7686379086">
        <ele>725.93</ele>
        <time>2020-08-10T09:03:41Z</time>
      </trkpt>
      <trkpt lat="41.8249580450" lon="-5.7689047046">
        <ele>725.45</ele>
        <time>2020-08-10T09:03:52Z</time>
      </trkpt>
      <trkpt lat="41.8252818380" lon="-5.7691589277">
        <ele>725.93</ele>
        <time>2020-08-10T09:04:03Z</time>
      </trkpt>
      <trkpt lat="41.8255727738" lon="-5.7693876699">
        <ele>725.93</ele>
        <time>2020-08-10T09:04:13Z</time>
      </trkpt>
      <trkpt lat="41.8258374743" lon="-5.7695965469">
        <ele>725.93</ele>
        <time>2020-08-10T09:04:22Z</time>
      </trkpt>
      <trkpt lat="41.8260790408" lon="-5.7698097825">
        <ele>725.45</ele>
        <time>2020-08-10T09:04:31Z</time>
      </trkpt>
      <trkpt lat="41.8263242114" lon="-5.7700449787">
        <ele>724.49</ele>
        <time>2020-08-10T09:04:40Z</time>
      </trkpt>
      <trkpt lat="41.8265416380" lon="-5.7702259440">
        <ele>723.53</ele>
        <time>2020-08-10T09:04:47Z</time>
      </trkpt>
      <trkpt lat="41.8268273771" lon="-5.7705547661">
        <ele>721.61</ele>
        <time>2020-08-10T09:04:57Z</time>
      </trkpt>
      <trkpt lat="41.8270658422" lon="-5.7709013578">
        <ele>721.13</ele>
        <time>2020-08-10T09:05:06Z</time>
      </trkpt>
      <trkpt lat="41.8272827659" lon="-5.7711249869">
        <ele>719.68</ele>
        <time>2020-08-10T09:05:14Z</time>
      </trkpt>
      <trkpt lat="41.8275925610" lon="-5.7714966405">
        <ele>717.76</ele>
        <time>2020-08-10T09:05:26Z</time>
      </trkpt>
      <trkpt lat="41.8278260808" lon="-5.7718962897">
        <ele>714.88</ele>
        <time>2020-08-10T09:05:35Z</time>
      </trkpt>
      <trkpt lat="41.8280562479" lon="-5.7724900637">
        <ele>712.47</ele>
        <time>2020-08-10T09:05:47Z</time>
      </trkpt>
      <trkpt lat="41.8280575052" lon="-5.7724982779">
        <ele>711.99</ele>
        <time>2020-08-10T09:05:52Z</time>
      </trkpt>
      <trkpt lat="41.8280877639" lon="-5.7726124395">
        <ele>711.99</ele>
        <time>2020-08-10T09:05:59Z</time>
      </trkpt>
      <trkpt lat="41.8281972315" lon="-5.7730198838">
        <ele>712.47</ele>
        <time>2020-08-10T09:06:09Z</time>
      </trkpt>
      <trkpt lat="41.8283175118" lon="-5.7733908668">
        <ele>711.99</ele>
        <time>2020-08-10T09:06:18Z</time>
      </trkpt>
      <trkpt lat="41.8284973036" lon="-5.7739071921">
        <ele>711.51</ele>
        <time>2020-08-10T09:06:29Z</time>
      </trkpt>
      <trkpt lat="41.8286597449" lon="-5.7744317316">
        <ele>711.51</ele>
        <time>2020-08-10T09:06:41Z</time>
      </trkpt>
      <trkpt lat="41.8287840486" lon="-5.7748709433">
        <ele>711.99</ele>
        <time>2020-08-10T09:06:51Z</time>
      </trkpt>
      <trkpt lat="41.8288807757" lon="-5.7752001006">
        <ele>713.44</ele>
        <time>2020-08-10T09:07:00Z</time>
      </trkpt>
      <trkpt lat="41.8289881479" lon="-5.7755473629">
        <ele>714.40</ele>
        <time>2020-08-10T09:07:11Z</time>
      </trkpt>
      <trkpt lat="41.8291053269" lon="-5.7758869976">
        <ele>715.84</ele>
        <time>2020-08-10T09:07:22Z</time>
      </trkpt>
      <trkpt lat="41.8292779103" lon="-5.7762916759">
        <ele>717.76</ele>
        <time>2020-08-10T09:07:35Z</time>
      </trkpt>
      <trkpt lat="41.8294516671" lon="-5.7766235154">
        <ele>719.68</ele>
        <time>2020-08-10T09:07:46Z</time>
      </trkpt>
      <trkpt lat="41.8295828439" lon="-5.7769703586">
        <ele>721.13</ele>
        <time>2020-08-10T09:07:57Z</time>
      </trkpt>
      <trkpt lat="41.8296216521" lon="-5.7772441953">
        <ele>722.09</ele>
        <time>2020-08-10T09:08:06Z</time>
      </trkpt>
      <trkpt lat="41.8296417687" lon="-5.7775814831">
        <ele>723.53</ele>
        <time>2020-08-10T09:08:16Z</time>
      </trkpt>
      <trkpt lat="41.8297071476" lon="-5.7779451739">
        <ele>723.53</ele>
        <time>2020-08-10T09:08:27Z</time>
      </trkpt>
      <trkpt lat="41.8297845963" lon="-5.7780815475">
        <ele>722.57</ele>
        <time>2020-08-10T09:08:34Z</time>
      </trkpt>
      <trkpt lat="41.8298431020" lon="-5.7781440765">
        <ele>723.05</ele>
        <time>2020-08-10T09:08:41Z</time>
      </trkpt>
      <trkpt lat="41.8298406713" lon="-5.7781414781">
        <ele>724.49</ele>
        <time>2020-08-10T09:08:48Z</time>
      </trkpt>
      <trkpt lat="41.8298545014" lon="-5.7781237084">
        <ele>723.53</ele>
        <time>2020-08-10T09:08:54Z</time>
      </trkpt>
      <trkpt lat="41.8298599496" lon="-5.7781123091">
        <ele>723.53</ele>
        <time>2020-08-10T09:08:55Z</time>
      </trkpt>
      <trkpt lat="41.8299857620" lon="-5.7779966388">
        <ele>724.49</ele>
        <time>2020-08-10T09:09:03Z</time>
      </trkpt>
      <trkpt lat="41.8302391469" lon="-5.7778450940">
        <ele>725.45</ele>
        <time>2020-08-10T09:09:14Z</time>
      </trkpt>
      <trkpt lat="41.8304081261" lon="-5.7777447626">
        <ele>726.41</ele>
        <time>2020-08-10T09:09:22Z</time>
      </trkpt>
      <trkpt lat="41.8305921927" lon="-5.7776323613">
        <ele>726.89</ele>
        <time>2020-08-10T09:09:32Z</time>
      </trkpt>
      <trkpt lat="41.8306811247" lon="-5.7775657251">
        <ele>727.86</ele>
        <time>2020-08-10T09:09:39Z</time>
      </trkpt>
      <trkpt lat="41.8306846451" lon="-5.7775728498">
        <ele>728.34</ele>
        <time>2020-08-10T09:09:49Z</time>
      </trkpt>
      <trkpt lat="41.8306844775" lon="-5.7775736041">
        <ele>728.34</ele>
        <time>2020-08-10T09:10:09Z</time>
      </trkpt>
      <trkpt lat="41.8306932785" lon="-5.7775725145">
        <ele>728.34</ele>
        <time>2020-08-10T09:10:32Z</time>
      </trkpt>
      <trkpt lat="41.8306900095" lon="-5.7775772084">
        <ele>728.34</ele>
        <time>2020-08-10T09:10:57Z</time>
      </trkpt>
      <trkpt lat="41.8306841422" lon="-5.7775666472">
        <ele>729.30</ele>
        <time>2020-08-10T09:11:18Z</time>
      </trkpt>
      <trkpt lat="41.8306807894" lon="-5.7775627077">
        <ele>726.89</ele>
        <time>2020-08-10T09:11:30Z</time>
      </trkpt>
      <trkpt lat="41.8306695577" lon="-5.7775600255">
        <ele>725.93</ele>
        <time>2020-08-10T09:11:49Z</time>
      </trkpt>
      <trkpt lat="41.8306761794" lon="-5.7775620371">
        <ele>724.97</ele>
        <time>2020-08-10T09:12:06Z</time>
      </trkpt>
      <trkpt lat="41.8306823820" lon="-5.7775618695">
        <ele>726.41</ele>
        <time>2020-08-10T09:12:29Z</time>
      </trkpt>
      <trkpt lat="41.8306806218" lon="-5.7775529847">
        <ele>727.86</ele>
        <time>2020-08-10T09:12:51Z</time>
      </trkpt>
      <trkpt lat="41.8306988105" lon="-5.7775579300">
        <ele>729.30</ele>
        <time>2020-08-10T09:13:04Z</time>
      </trkpt>
      <trkpt lat="41.8306879979" lon="-5.7775662281">
        <ele>728.34</ele>
        <time>2020-08-10T09:13:19Z</time>
      </trkpt>
      <trkpt lat="41.8306901772" lon="-5.7775586843">
        <ele>729.78</ele>
        <time>2020-08-10T09:13:39Z</time>
      </trkpt>
      <trkpt lat="41.8306999840" lon="-5.7775401603">
        <ele>729.78</ele>
        <time>2020-08-10T09:14:02Z</time>
      </trkpt>
      <trkpt lat="41.8306956254" lon="-5.7775543258">
        <ele>730.26</ele>
        <time>2020-08-10T09:14:20Z</time>
      </trkpt>
      <trkpt lat="41.8307039235" lon="-5.7775598578">
        <ele>731.70</ele>
        <time>2020-08-10T09:14:38Z</time>
      </trkpt>
      <trkpt lat="41.8306967150" lon="-5.7775638811">
        <ele>730.26</ele>
        <time>2020-08-10T09:15:02Z</time>
      </trkpt>
      <trkpt lat="41.8307037558" lon="-5.7775643840">
        <ele>729.30</ele>
        <time>2020-08-10T09:15:30Z</time>
      </trkpt>
      <trkpt lat="41.8307081982" lon="-5.7775639649">
        <ele>729.78</ele>
        <time>2020-08-10T09:15:50Z</time>
      </trkpt>
      <trkpt lat="41.8307041749" lon="-5.7775639649">
        <ele>729.78</ele>
        <time>2020-08-10T09:16:11Z</time>
      </trkpt>
      <trkpt lat="41.8306872435" lon="-5.7775689941">
        <ele>730.26</ele>
        <time>2020-08-10T09:16:38Z</time>
      </trkpt>
      <trkpt lat="41.8307170831" lon="-5.7775600255">
        <ele>729.78</ele>
        <time>2020-08-10T09:17:08Z</time>
      </trkpt>
      <trkpt lat="41.8307080306" lon="-5.7775643840">
        <ele>731.70</ele>
        <time>2020-08-10T09:17:37Z</time>
      </trkpt>
      <trkpt lat="41.8307015765" lon="-5.7775469497">
        <ele>729.78</ele>
        <time>2020-08-10T09:18:00Z</time>
      </trkpt>
      <trkpt lat="41.8307137303" lon="-5.7775538228">
        <ele>730.74</ele>
        <time>2020-08-10T09:18:26Z</time>
      </trkpt>
      <trkpt lat="41.8307033367" lon="-5.7775608636">
        <ele>732.18</ele>
        <time>2020-08-10T09:18:49Z</time>
      </trkpt>
      <trkpt lat="41.8306921050" lon="-5.7775636297">
        <ele>731.70</ele>
        <time>2020-08-10T09:19:06Z</time>
      </trkpt>
      <trkpt lat="41.8306930270" lon="-5.7775656413">
        <ele>731.70</ele>
        <time>2020-08-10T09:19:32Z</time>
      </trkpt>
      <trkpt lat="41.8306989782" lon="-5.7775640488">
        <ele>731.22</ele>
        <time>2020-08-10T09:20:01Z</time>
      </trkpt>
      <trkpt lat="41.8307007384" lon="-5.7775687426">
        <ele>730.74</ele>
        <time>2020-08-10T09:20:25Z</time>
      </trkpt>
      <trkpt lat="41.8306870759" lon="-5.7775610313">
        <ele>730.26</ele>
        <time>2020-08-10T09:20:43Z</time>
      </trkpt>
      <trkpt lat="41.8306944519" lon="-5.7775527332">
        <ele>730.26</ele>
        <time>2020-08-10T09:21:07Z</time>
      </trkpt>
      <trkpt lat="41.8306875788" lon="-5.7775516436">
        <ele>730.26</ele>
        <time>2020-08-10T09:21:24Z</time>
      </trkpt>
      <trkpt lat="41.8306937814" lon="-5.7775587682">
        <ele>729.78</ele>
        <time>2020-08-10T09:21:45Z</time>
      </trkpt>
      <trkpt lat="41.8306861538" lon="-5.7775546610">
        <ele>730.26</ele>
        <time>2020-08-10T09:22:00Z</time>
      </trkpt>
      <trkpt lat="41.8306903448" lon="-5.7775477879">
        <ele>728.34</ele>
        <time>2020-08-10T09:22:25Z</time>
      </trkpt>
      <trkpt lat="41.8306869920" lon="-5.7775384001">
        <ele>727.86</ele>
        <time>2020-08-10T09:22:44Z</time>
      </trkpt>
      <trkpt lat="41.8306893390" lon="-5.7775553316">
        <ele>729.30</ele>
        <time>2020-08-10T09:23:03Z</time>
      </trkpt>
      <trkpt lat="41.8306909315" lon="-5.7775452733">
        <ele>728.34</ele>
        <time>2020-08-10T09:23:24Z</time>
      </trkpt>
      <trkpt lat="41.8307011575" lon="-5.7775803097">
        <ele>731.22</ele>
        <time>2020-08-10T09:23:48Z</time>
      </trkpt>
      <trkpt lat="41.8307056837" lon="-5.7775689103">
        <ele>733.14</ele>
        <time>2020-08-10T09:24:09Z</time>
      </trkpt>
      <trkpt lat="41.8306973018" lon="-5.7775619533">
        <ele>731.22</ele>
        <time>2020-08-10T09:24:37Z</time>
      </trkpt>
      <trkpt lat="41.8306993973" lon="-5.7775629591">
        <ele>730.26</ele>
        <time>2020-08-10T09:24:54Z</time>
      </trkpt>
      <trkpt lat="41.8307026662" lon="-5.7775797229">
        <ele>733.14</ele>
        <time>2020-08-10T09:25:14Z</time>
      </trkpt>
      <trkpt lat="41.8306900933" lon="-5.7775780465">
        <ele>733.14</ele>
        <time>2020-08-10T09:25:31Z</time>
      </trkpt>
      <trkpt lat="41.8306910992" lon="-5.7775923796">
        <ele>732.66</ele>
        <time>2020-08-10T09:25:46Z</time>
      </trkpt>
      <trkpt lat="41.8306917697" lon="-5.7775730174">
        <ele>731.70</ele>
        <time>2020-08-10T09:26:07Z</time>
      </trkpt>
      <trkpt lat="41.8306905963" lon="-5.7775726821">
        <ele>730.74</ele>
        <time>2020-08-10T09:26:28Z</time>
      </trkpt>
      <trkpt lat="41.8306835555" lon="-5.7775740232">
        <ele>729.30</ele>
        <time>2020-08-10T09:26:42Z</time>
      </trkpt>
      <trkpt lat="41.8306913506" lon="-5.7775849197">
        <ele>728.82</ele>
        <time>2020-08-10T09:27:06Z</time>
      </trkpt>
      <trkpt lat="41.8306875788" lon="-5.7775696646">
        <ele>728.82</ele>
        <time>2020-08-10T09:27:26Z</time>
      </trkpt>
      <trkpt lat="41.8306866568" lon="-5.7775585167">
        <ele>726.89</ele>
        <time>2020-08-10T09:27:46Z</time>
      </trkpt>
      <trkpt lat="41.8306853157" lon="-5.7775576785">
        <ele>726.41</ele>
        <time>2020-08-10T09:28:05Z</time>
      </trkpt>
      <trkpt lat="41.8306862377" lon="-5.7775635459">
        <ele>725.45</ele>
        <time>2020-08-10T09:28:25Z</time>
      </trkpt>
      <trkpt lat="41.8306918535" lon="-5.7775531523">
        <ele>725.93</ele>
        <time>2020-08-10T09:28:46Z</time>
      </trkpt>
      <trkpt lat="41.8306750897" lon="-5.7775549963">
        <ele>726.41</ele>
        <time>2020-08-10T09:29:05Z</time>
      </trkpt>
      <trkpt lat="41.8306798674" lon="-5.7775638811">
        <ele>727.37</ele>
        <time>2020-08-10T09:29:23Z</time>
      </trkpt>
      <trkpt lat="41.8306734972" lon="-5.7775666472">
        <ele>728.82</ele>
        <time>2020-08-10T09:29:43Z</time>
      </trkpt>
      <trkpt lat="41.8306732457" lon="-5.7775717601">
        <ele>729.30</ele>
        <time>2020-08-10T09:29:56Z</time>
      </trkpt>
      <trkpt lat="41.8306692224" lon="-5.7775756996">
        <ele>728.82</ele>
        <time>2020-08-10T09:30:21Z</time>
      </trkpt>
      <trkpt lat="41.8306678813" lon="-5.7775596064">
        <ele>729.30</ele>
        <time>2020-08-10T09:30:41Z</time>
      </trkpt>
      <trkpt lat="41.8306717370" lon="-5.7775641326">
        <ele>727.86</ele>
        <time>2020-08-10T09:31:11Z</time>
      </trkpt>
      <trkpt lat="41.8306780234" lon="-5.7775539905">
        <ele>727.37</ele>
        <time>2020-08-10T09:31:29Z</time>
      </trkpt>
      <trkpt lat="41.8306687195" lon="-5.7775568403">
        <ele>728.82</ele>
        <time>2020-08-10T09:31:53Z</time>
      </trkpt>
      <trkpt lat="41.8306628522" lon="-5.7775624562">
        <ele>729.78</ele>
        <time>2020-08-10T09:32:17Z</time>
      </trkpt>
      <trkpt lat="41.8306696415" lon="-5.7775501348">
        <ele>729.78</ele>
        <time>2020-08-10T09:32:38Z</time>
      </trkpt>
      <trkpt lat="41.8306654505" lon="-5.7775496319">
        <ele>729.30</ele>
        <time>2020-08-10T09:32:55Z</time>
      </trkpt>
      <trkpt lat="41.8306655344" lon="-5.7775535714">
        <ele>728.82</ele>
        <time>2020-08-10T09:33:17Z</time>
      </trkpt>
      <trkpt lat="41.8306605052" lon="-5.7775648870">
        <ele>730.74</ele>
        <time>2020-08-10T09:33:43Z</time>
      </trkpt>
      <trkpt lat="41.8306506984" lon="-5.7775625400">
        <ele>730.74</ele>
        <time>2020-08-10T09:34:02Z</time>
      </trkpt>
      <trkpt lat="41.8306590803" lon="-5.7775624562">
        <ele>729.78</ele>
        <time>2020-08-10T09:34:20Z</time>
      </trkpt>
      <trkpt lat="41.8306612596" lon="-5.7775668986">
        <ele>729.30</ele>
        <time>2020-08-10T09:34:41Z</time>
      </trkpt>
      <trkpt lat="41.8306703120" lon="-5.7775570080">
        <ele>729.30</ele>
        <time>2020-08-10T09:35:03Z</time>
      </trkpt>
      <trkpt lat="41.8306788616" lon="-5.7775529008">
        <ele>728.34</ele>
        <time>2020-08-10T09:35:23Z</time>
      </trkpt>
      <trkpt lat="41.8306750059" lon="-5.7775513921">
        <ele>729.78</ele>
        <time>2020-08-10T09:35:42Z</time>
      </trkpt>
      <trkpt lat="41.8306775205" lon="-5.7775560021">
        <ele>730.26</ele>
        <time>2020-08-10T09:36:04Z</time>
      </trkpt>
      <trkpt lat="41.8306849804" lon="-5.7775589358">
        <ele>729.30</ele>
        <time>2020-08-10T09:36:24Z</time>
      </trkpt>
      <trkpt lat="41.8306892551" lon="-5.7775474526">
        <ele>728.82</ele>
        <time>2020-08-10T09:36:41Z</time>
      </trkpt>
      <trkpt lat="41.8306703120" lon="-5.7775463630">
        <ele>728.82</ele>
        <time>2020-08-10T09:37:06Z</time>
      </trkpt>
      <trkpt lat="41.8306794483" lon="-5.7775498834">
        <ele>728.34</ele>
        <time>2020-08-10T09:37:27Z</time>
      </trkpt>
      <trkpt lat="41.8306727428" lon="-5.7775519788">
        <ele>729.78</ele>
        <time>2020-08-10T09:37:52Z</time>
      </trkpt>
      <trkpt lat="41.8306692224" lon="-5.7775596064">
        <ele>731.22</ele>
        <time>2020-08-10T09:38:17Z</time>
      </trkpt>
      <trkpt lat="41.8306675460" lon="-5.7775572594">
        <ele>731.22</ele>
        <time>2020-08-10T09:38:36Z</time>
      </trkpt>
      <trkpt lat="41.8306701444" lon="-5.7775509730">
        <ele>729.78</ele>
        <time>2020-08-10T09:38:56Z</time>
      </trkpt>
      <trkpt lat="41.8306728266" lon="-5.7775394898">
        <ele>729.30</ele>
        <time>2020-08-10T09:39:14Z</time>
      </trkpt>
      <trkpt lat="41.8306841422" lon="-5.7775423396">
        <ele>726.89</ele>
        <time>2020-08-10T09:39:42Z</time>
      </trkpt>
      <trkpt lat="41.8306758441" lon="-5.7775466144">
        <ele>727.37</ele>
        <time>2020-08-10T09:39:59Z</time>
      </trkpt>
      <trkpt lat="41.8306679651" lon="-5.7775455248">
        <ele>726.89</ele>
        <time>2020-08-10T09:40:19Z</time>
      </trkpt>
      <trkpt lat="41.8306789454" lon="-5.7775420882">
        <ele>727.86</ele>
        <time>2020-08-10T09:40:46Z</time>
      </trkpt>
      <trkpt lat="41.8306658696" lon="-5.7775579300">
        <ele>730.26</ele>
        <time>2020-08-10T09:41:19Z</time>
      </trkpt>
      <trkpt lat="41.8306681328" lon="-5.7775653061">
        <ele>731.70</ele>
        <time>2020-08-10T09:41:37Z</time>
      </trkpt>
      <trkpt lat="41.8306637742" lon="-5.7775699161">
        <ele>730.26</ele>
        <time>2020-08-10T09:42:00Z</time>
      </trkpt>
      <trkpt lat="41.8306639418" lon="-5.7775829919">
        <ele>729.78</ele>
        <time>2020-08-10T09:42:19Z</time>
      </trkpt>
      <trkpt lat="41.8306755088" lon="-5.7775781304">
        <ele>729.78</ele>
        <time>2020-08-10T09:42:42Z</time>
      </trkpt>
      <trkpt lat="41.8306729943" lon="-5.7775641326">
        <ele>729.78</ele>
        <time>2020-08-10T09:43:00Z</time>
      </trkpt>
      <trkpt lat="41.8306764308" lon="-5.7775580976">
        <ele>728.34</ele>
        <time>2020-08-10T09:43:19Z</time>
      </trkpt>
      <trkpt lat="41.8306802027" lon="-5.7775596902">
        <ele>729.30</ele>
        <time>2020-08-10T09:43:40Z</time>
      </trkpt>
      <trkpt lat="41.8306890037" lon="-5.7775594387">
        <ele>727.86</ele>
        <time>2020-08-10T09:44:01Z</time>
      </trkpt>
      <trkpt lat="41.8306809571" lon="-5.7775623724">
        <ele>729.30</ele>
        <time>2020-08-10T09:44:27Z</time>
      </trkpt>
      <trkpt lat="41.8306769338" lon="-5.7775720116">
        <ele>729.30</ele>
        <time>2020-08-10T09:44:51Z</time>
      </trkpt>
      <trkpt lat="41.8306795321" lon="-5.7775588520">
        <ele>727.86</ele>
        <time>2020-08-10T09:45:17Z</time>
      </trkpt>
      <trkpt lat="41.8306693900" lon="-5.7775544096">
        <ele>728.34</ele>
        <time>2020-08-10T09:45:38Z</time>
      </trkpt>
      <trkpt lat="41.8306817953" lon="-5.7775586005">
        <ele>728.34</ele>
        <time>2020-08-10T09:45:56Z</time>
      </trkpt>
      <trkpt lat="41.8306671269" lon="-5.7775662281">
        <ele>728.82</ele>
        <time>2020-08-10T09:46:17Z</time>
      </trkpt>
      <trkpt lat="41.8306706473" lon="-5.7775687426">
        <ele>728.82</ele>
        <time>2020-08-10T09:46:31Z</time>
      </trkpt>
      <trkpt lat="41.8306734134" lon="-5.7775813155">
        <ele>729.30</ele>
        <time>2020-08-10T09:46:51Z</time>
      </trkpt>
      <trkpt lat="41.8306664564" lon="-5.7775582653">
        <ele>728.82</ele>
        <time>2020-08-10T09:47:10Z</time>
      </trkpt>
      <trkpt lat="41.8306725752" lon="-5.7775445189">
        <ele>728.34</ele>
        <time>2020-08-10T09:47:31Z</time>
      </trkpt>
      <trkpt lat="41.8306575716" lon="-5.7775390707">
        <ele>728.34</ele>
        <time>2020-08-10T09:47:52Z</time>
      </trkpt>
      <trkpt lat="41.8306625169" lon="-5.7775384840">
        <ele>729.30</ele>
        <time>2020-08-10T09:48:10Z</time>
      </trkpt>
      <trkpt lat="41.8306662049" lon="-5.7775300182">
        <ele>729.30</ele>
        <time>2020-08-10T09:48:30Z</time>
      </trkpt>
      <trkpt lat="41.8306522071" lon="-5.7775222231">
        <ele>728.34</ele>
        <time>2020-08-10T09:48:49Z</time>
      </trkpt>
      <trkpt lat="41.8306599185" lon="-5.7775404118">
        <ele>727.86</ele>
        <time>2020-08-10T09:49:12Z</time>
      </trkpt>
      <trkpt lat="41.8306608405" lon="-5.7775477879">
        <ele>729.30</ele>
        <time>2020-08-10T09:49:34Z</time>
      </trkpt>
      <trkpt lat="41.8306513689" lon="-5.7775451057">
        <ele>729.30</ele>
        <time>2020-08-10T09:49:58Z</time>
      </trkpt>
      <trkpt lat="41.8306539673" lon="-5.7775761187">
        <ele>730.26</ele>
        <time>2020-08-10T09:50:24Z</time>
      </trkpt>
      <trkpt lat="41.8306534644" lon="-5.7775695808">
        <ele>731.22</ele>
        <time>2020-08-10T09:50:42Z</time>
      </trkpt>
      <trkpt lat="41.8306602538" lon="-5.7775521465">
        <ele>730.26</ele>
        <time>2020-08-10T09:51:04Z</time>
      </trkpt>
      <trkpt lat="41.8306551408" lon="-5.7775643840">
        <ele>730.26</ele>
        <time>2020-08-10T09:51:29Z</time>
      </trkpt>
      <trkpt lat="41.8306552246" lon="-5.7775562536">
        <ele>730.74</ele>
        <time>2020-08-10T09:51:46Z</time>
      </trkpt>
      <trkpt lat="41.8306583259" lon="-5.7775587682">
        <ele>730.26</ele>
        <time>2020-08-10T09:52:08Z</time>
      </trkpt>
      <trkpt lat="41.8306517042" lon="-5.7775562536">
        <ele>730.26</ele>
        <time>2020-08-10T09:52:32Z</time>
      </trkpt>
      <trkpt lat="41.8306477647" lon="-5.7775558345">
        <ele>729.78</ele>
        <time>2020-08-10T09:52:56Z</time>
      </trkpt>
      <trkpt lat="41.8306693062" lon="-5.7775518112">
        <ele>730.26</ele>
        <time>2020-08-10T09:53:14Z</time>
      </trkpt>
      <trkpt lat="41.8306595832" lon="-5.7775519788">
        <ele>731.22</ele>
        <time>2020-08-10T09:53:31Z</time>
      </trkpt>
      <trkpt lat="41.8306573201" lon="-5.7775491290">
        <ele>731.22</ele>
        <time>2020-08-10T09:53:55Z</time>
      </trkpt>
      <trkpt lat="41.8306579068" lon="-5.7775525656">
        <ele>730.26</ele>
        <time>2020-08-10T09:54:18Z</time>
      </trkpt>
      <trkpt lat="41.8306518719" lon="-5.7775585167">
        <ele>731.22</ele>
        <time>2020-08-10T09:54:42Z</time>
      </trkpt>
      <trkpt lat="41.8306510337" lon="-5.7775679883">
        <ele>731.70</ele>
        <time>2020-08-10T09:55:05Z</time>
      </trkpt>
      <trkpt lat="41.8306483515" lon="-5.7775614504">
        <ele>731.70</ele>
        <time>2020-08-10T09:55:20Z</time>
      </trkpt>
      <trkpt lat="41.8306664564" lon="-5.7775508054">
        <ele>731.70</ele>
        <time>2020-08-10T09:55:43Z</time>
      </trkpt>
      <trkpt lat="41.8306501117" lon="-5.7775392383">
        <ele>731.70</ele>
        <time>2020-08-10T09:56:03Z</time>
      </trkpt>
      <trkpt lat="41.8306426518" lon="-5.7775563374">
        <ele>731.22</ele>
        <time>2020-08-10T09:56:22Z</time>
      </trkpt>
      <trkpt lat="41.8306506146" lon="-5.7775554992">
        <ele>731.22</ele>
        <time>2020-08-10T09:56:44Z</time>
      </trkpt>
      <trkpt lat="41.8306481838" lon="-5.7775481232">
        <ele>731.70</ele>
        <time>2020-08-10T09:57:03Z</time>
      </trkpt>
      <trkpt lat="41.8306498602" lon="-5.7775495481">
        <ele>731.70</ele>
        <time>2020-08-10T09:57:16Z</time>
      </trkpt>
      <trkpt lat="41.8306755926" lon="-5.7775513083">
        <ele>732.18</ele>
        <time>2020-08-10T09:57:39Z</time>
      </trkpt>
      <trkpt lat="41.8308189232" lon="-5.7774758711">
        <ele>733.14</ele>
        <time>2020-08-10T09:57:51Z</time>
      </trkpt>
      <trkpt lat="41.8309384491" lon="-5.7774103247">
        <ele>733.14</ele>
        <time>2020-08-10T09:58:02Z</time>
      </trkpt>
      <trkpt lat="41.8310659379" lon="-5.7773368992">
        <ele>733.62</ele>
        <time>2020-08-10T09:58:14Z</time>
      </trkpt>
      <trkpt lat="41.8311928399" lon="-5.7772609591">
        <ele>734.10</ele>
        <time>2020-08-10T09:58:25Z</time>
      </trkpt>
      <trkpt lat="41.8313448038" lon="-5.7771654055">
        <ele>734.10</ele>
        <time>2020-08-10T09:58:38Z</time>
      </trkpt>
      <trkpt lat="41.8314511701" lon="-5.7770975120">
        <ele>734.10</ele>
        <time>2020-08-10T09:58:47Z</time>
      </trkpt>
      <trkpt lat="41.8315889686" lon="-5.7770098373">
        <ele>734.58</ele>
        <time>2020-08-10T09:58:59Z</time>
      </trkpt>
      <trkpt lat="41.8317005318" lon="-5.7769408543">
        <ele>735.07</ele>
        <time>2020-08-10T09:59:09Z</time>
      </trkpt>
      <trkpt lat="41.8318514898" lon="-5.7768523414">
        <ele>736.51</ele>
        <time>2020-08-10T09:59:22Z</time>
      </trkpt>
      <trkpt lat="41.8319801521" lon="-5.7767734677">
        <ele>736.99</ele>
        <time>2020-08-10T09:59:33Z</time>
      </trkpt>
      <trkpt lat="41.8321310263" lon="-5.7766853739">
        <ele>736.99</ele>
        <time>2020-08-10T09:59:46Z</time>
      </trkpt>
      <trkpt lat="41.8322554976" lon="-5.7766044885">
        <ele>737.47</ele>
        <time>2020-08-10T09:59:57Z</time>
      </trkpt>
      <trkpt lat="41.8323627021" lon="-5.7765375171">
        <ele>738.43</ele>
        <time>2020-08-10T10:00:07Z</time>
      </trkpt>
      <trkpt lat="41.8324966449" lon="-5.7764578052">
        <ele>739.87</ele>
        <time>2020-08-10T10:00:18Z</time>
      </trkpt>
      <trkpt lat="41.8326476868" lon="-5.7763815299">
        <ele>740.35</ele>
        <time>2020-08-10T10:00:30Z</time>
      </trkpt>
      <trkpt lat="41.8327500299" lon="-5.7763072662">
        <ele>740.35</ele>
        <time>2020-08-10T10:00:39Z</time>
      </trkpt>
      <trkpt lat="41.8328497745" lon="-5.7762473356">
        <ele>740.83</ele>
        <time>2020-08-10T10:00:47Z</time>
      </trkpt>
      <trkpt lat="41.8329826277" lon="-5.7761661150">
        <ele>741.31</ele>
        <time>2020-08-10T10:00:58Z</time>
      </trkpt>
      <trkpt lat="41.8331072666" lon="-5.7760867383">
        <ele>742.76</ele>
        <time>2020-08-10T10:01:09Z</time>
      </trkpt>
      <trkpt lat="41.8332174886" lon="-5.7760164142">
        <ele>743.72</ele>
        <time>2020-08-10T10:01:19Z</time>
      </trkpt>
      <trkpt lat="41.8333520181" lon="-5.7759370375">
        <ele>744.68</ele>
        <time>2020-08-10T10:01:31Z</time>
      </trkpt>
      <trkpt lat="41.8334607314" lon="-5.7758849859">
        <ele>745.64</ele>
        <time>2020-08-10T10:01:41Z</time>
      </trkpt>
      <trkpt lat="41.8335791677" lon="-5.7758144941">
        <ele>746.60</ele>
        <time>2020-08-10T10:01:52Z</time>
      </trkpt>
      <trkpt lat="41.8336954247" lon="-5.7757464331">
        <ele>748.04</ele>
        <time>2020-08-10T10:02:04Z</time>
      </trkpt>
      <trkpt lat="41.8337889668" lon="-5.7756730076">
        <ele>748.52</ele>
        <time>2020-08-10T10:02:14Z</time>
      </trkpt>
      <trkpt lat="41.8339050561" lon="-5.7756008394">
        <ele>749.49</ele>
        <time>2020-08-10T10:02:25Z</time>
      </trkpt>
      <trkpt lat="41.8340336345" lon="-5.7755309343">
        <ele>751.41</ele>
        <time>2020-08-10T10:02:37Z</time>
      </trkpt>
      <trkpt lat="41.8340772204" lon="-5.7754961494">
        <ele>752.37</ele>
        <time>2020-08-10T10:02:45Z</time>
      </trkpt>
      <trkpt lat="41.8341358099" lon="-5.7754690759">
        <ele>751.89</ele>
        <time>2020-08-10T10:02:53Z</time>
      </trkpt>
      <trkpt lat="41.8342498876" lon="-5.7754150964">
        <ele>752.37</ele>
        <time>2020-08-10T10:03:03Z</time>
      </trkpt>
      <trkpt lat="41.8343761191" lon="-5.7753388211">
        <ele>753.81</ele>
        <time>2020-08-10T10:03:14Z</time>
      </trkpt>
      <trkpt lat="41.8345107324" lon="-5.7752576005">
        <ele>754.29</ele>
        <time>2020-08-10T10:03:26Z</time>
      </trkpt>
      <trkpt lat="41.8346200325" lon="-5.7751828339">
        <ele>755.25</ele>
        <time>2020-08-10T10:03:36Z</time>
      </trkpt>
      <trkpt lat="41.8347574119" lon="-5.7750978414">
        <ele>757.66</ele>
        <time>2020-08-10T10:03:48Z</time>
      </trkpt>
      <trkpt lat="41.8348874152" lon="-5.7750157826">
        <ele>759.10</ele>
        <time>2020-08-10T10:03:59Z</time>
      </trkpt>
      <trkpt lat="41.8350138143" lon="-5.7749232464">
        <ele>759.58</ele>
        <time>2020-08-10T10:04:10Z</time>
      </trkpt>
      <trkpt lat="41.8351194263" lon="-5.7748503238">
        <ele>759.58</ele>
        <time>2020-08-10T10:04:19Z</time>
      </trkpt>
      <trkpt lat="41.8352336716" lon="-5.7747569494">
        <ele>760.54</ele>
        <time>2020-08-10T10:04:30Z</time>
      </trkpt>
      <trkpt lat="41.8352420535" lon="-5.7747473102">
        <ele>760.54</ele>
        <time>2020-08-10T10:04:37Z</time>
      </trkpt>
      <trkpt lat="41.8352930993" lon="-5.7747183926">
        <ele>760.54</ele>
        <time>2020-08-10T10:04:42Z</time>
      </trkpt>
      <trkpt lat="41.8354905769" lon="-5.7745881379">
        <ele>760.54</ele>
        <time>2020-08-10T10:04:50Z</time>
      </trkpt>
      <trkpt lat="41.8356910720" lon="-5.7744680252">
        <ele>760.06</ele>
        <time>2020-08-10T10:04:58Z</time>
      </trkpt>
      <trkpt lat="41.8360006157" lon="-5.7742702961">
        <ele>758.62</ele>
        <time>2020-08-10T10:05:07Z</time>
      </trkpt>
      <trkpt lat="41.8363540806" lon="-5.7740547974">
        <ele>756.69</ele>
        <time>2020-08-10T10:05:17Z</time>
      </trkpt>
      <trkpt lat="41.8367865868" lon="-5.7737931982">
        <ele>755.25</ele>
        <time>2020-08-10T10:05:30Z</time>
      </trkpt>
      <trkpt lat="41.8371862359" lon="-5.7735458482">
        <ele>753.81</ele>
        <time>2020-08-10T10:05:42Z</time>
      </trkpt>
      <trkpt lat="41.8374306522" lon="-5.7734180242">
        <ele>752.85</ele>
        <time>2020-08-10T10:05:50Z</time>
      </trkpt>
      <trkpt lat="41.8376600649" lon="-5.7732668985">
        <ele>750.45</ele>
        <time>2020-08-10T10:05:57Z</time>
      </trkpt>
      <trkpt lat="41.8379305489" lon="-5.7731104083">
        <ele>747.56</ele>
        <time>2020-08-10T10:06:05Z</time>
      </trkpt>
      <trkpt lat="41.8380360771" lon="-5.7731882762">
        <ele>746.60</ele>
        <time>2020-08-10T10:06:09Z</time>
      </trkpt>
      <trkpt lat="41.8381190579" lon="-5.7734406553">
        <ele>746.12</ele>
        <time>2020-08-10T10:06:15Z</time>
      </trkpt>
      <trkpt lat="41.8382129353" lon="-5.7738372032">
        <ele>746.12</ele>
        <time>2020-08-10T10:06:22Z</time>
      </trkpt>
      <trkpt lat="41.8383517396" lon="-5.7743584737">
        <ele>745.64</ele>
        <time>2020-08-10T10:06:32Z</time>
      </trkpt>
      <trkpt lat="41.8384560943" lon="-5.7747997809">
        <ele>746.12</ele>
        <time>2020-08-10T10:06:41Z</time>
      </trkpt>
      <trkpt lat="41.8385524023" lon="-5.7751803193">
        <ele>746.12</ele>
        <time>2020-08-10T10:06:49Z</time>
      </trkpt>
      <trkpt lat="41.8386724312" lon="-5.7756759413">
        <ele>745.16</ele>
        <time>2020-08-10T10:06:59Z</time>
      </trkpt>
      <trkpt lat="41.8388129119" lon="-5.7762223575">
        <ele>743.72</ele>
        <time>2020-08-10T10:07:10Z</time>
      </trkpt>
      <trkpt lat="41.8389037717" lon="-5.7766154688">
        <ele>742.28</ele>
        <time>2020-08-10T10:07:18Z</time>
      </trkpt>
      <trkpt lat="41.8390252255" lon="-5.7770697679">
        <ele>740.35</ele>
        <time>2020-08-10T10:07:26Z</time>
      </trkpt>
      <trkpt lat="41.8391832244" lon="-5.7776848320">
        <ele>739.87</ele>
        <time>2020-08-10T10:07:36Z</time>
      </trkpt>
      <trkpt lat="41.8392765988" lon="-5.7780610956">
        <ele>739.39</ele>
        <time>2020-08-10T10:07:43Z</time>
      </trkpt>
      <trkpt lat="41.8393932749" lon="-5.7785529457">
        <ele>738.91</ele>
        <time>2020-08-10T10:07:53Z</time>
      </trkpt>
      <trkpt lat="41.8394476734" lon="-5.7788442168">
        <ele>735.55</ele>
        <time>2020-08-10T10:08:02Z</time>
      </trkpt>
      <trkpt lat="41.8394665327" lon="-5.7790317200">
        <ele>732.18</ele>
        <time>2020-08-10T10:08:12Z</time>
      </trkpt>
      <trkpt lat="41.8395025749" lon="-5.7791986875">
        <ele>728.34</ele>
        <time>2020-08-10T10:08:21Z</time>
      </trkpt>
      <trkpt lat="41.8395721447" lon="-5.7793307863">
        <ele>724.49</ele>
        <time>2020-08-10T10:08:29Z</time>
      </trkpt>
      <trkpt lat="41.8395856395" lon="-5.7793426886">
        <ele>724.49</ele>
        <time>2020-08-10T10:08:34Z</time>
      </trkpt>
      <trkpt lat="41.8395848013" lon="-5.7793284394">
        <ele>724.01</ele>
        <time>2020-08-10T10:08:47Z</time>
      </trkpt>
      <trkpt lat="41.8395984638" lon="-5.7793189678">
        <ele>722.09</ele>
        <time>2020-08-10T10:09:00Z</time>
      </trkpt>
      <trkpt lat="41.8396086060" lon="-5.7793270145">
        <ele>723.05</ele>
        <time>2020-08-10T10:09:08Z</time>
      </trkpt>
      <trkpt lat="41.8396661058" lon="-5.7793455385">
        <ele>722.57</ele>
        <time>2020-08-10T10:09:15Z</time>
      </trkpt>
      <trkpt lat="41.8397280481" lon="-5.7793693431">
        <ele>721.61</ele>
        <time>2020-08-10T10:09:21Z</time>
      </trkpt>
      <trkpt lat="41.8398111127" lon="-5.7793963328">
        <ele>720.65</ele>
        <time>2020-08-10T10:09:27Z</time>
      </trkpt>
      <trkpt lat="41.8399550300" lon="-5.7794302795">
        <ele>720.16</ele>
        <time>2020-08-10T10:09:34Z</time>
      </trkpt>
      <trkpt lat="41.8401561119" lon="-5.7794608735">
        <ele>719.20</ele>
        <time>2020-08-10T10:09:42Z</time>
      </trkpt>
      <trkpt lat="41.8403465487" lon="-5.7794467919">
        <ele>717.28</ele>
        <time>2020-08-10T10:09:48Z</time>
      </trkpt>
      <trkpt lat="41.8405990954" lon="-5.7794265915">
        <ele>716.80</ele>
        <time>2020-08-10T10:09:53Z</time>
      </trkpt>
      <trkpt lat="41.8407368939" lon="-5.7794450317">
        <ele>717.76</ele>
        <time>2020-08-10T10:09:58Z</time>
      </trkpt>
      <trkpt lat="41.8409038614" lon="-5.7794423494">
        <ele>719.20</ele>
        <time>2020-08-10T10:10:05Z</time>
      </trkpt>
      <trkpt lat="41.8409594335" lon="-5.7794213109">
        <ele>719.68</ele>
        <time>2020-08-10T10:10:11Z</time>
      </trkpt>
      <trkpt lat="41.8409900274" lon="-5.7794312853">
        <ele>719.68</ele>
        <time>2020-08-10T10:10:14Z</time>
      </trkpt>
      <trkpt lat="41.8410057854" lon="-5.7794390805">
        <ele>719.68</ele>
        <time>2020-08-10T10:10:15Z</time>
      </trkpt>
      <trkpt lat="41.8410211243" lon="-5.7794472948">
        <ele>719.68</ele>
        <time>2020-08-10T10:10:16Z</time>
      </trkpt>
      <trkpt lat="41.8410367984" lon="-5.7794653997">
        <ele>719.20</ele>
        <time>2020-08-10T10:10:17Z</time>
      </trkpt>
      <trkpt lat="41.8410482816" lon="-5.7794856839">
        <ele>719.20</ele>
        <time>2020-08-10T10:10:18Z</time>
      </trkpt>
      <trkpt lat="41.8410597648" lon="-5.7795136794">
        <ele>719.20</ele>
        <time>2020-08-10T10:10:19Z</time>
      </trkpt>
      <trkpt lat="41.8412184343" lon="-5.7798494585">
        <ele>718.72</ele>
        <time>2020-08-10T10:10:28Z</time>
      </trkpt>
      <trkpt lat="41.8414216954" lon="-5.7801258937">
        <ele>717.28</ele>
        <time>2020-08-10T10:10:36Z</time>
      </trkpt>
      <trkpt lat="41.8417133018" lon="-5.7804879081">
        <ele>715.36</ele>
        <time>2020-08-10T10:10:44Z</time>
      </trkpt>
      <trkpt lat="41.8419993762" lon="-5.7809040695">
        <ele>712.95</ele>
        <time>2020-08-10T10:10:52Z</time>
      </trkpt>
      <trkpt lat="41.8421327323" lon="-5.7811405230">
        <ele>711.99</ele>
        <time>2020-08-10T10:10:59Z</time>
      </trkpt>
      <trkpt lat="41.8422080018" lon="-5.7812885474">
        <ele>711.51</ele>
        <time>2020-08-10T10:11:06Z</time>
      </trkpt>
      <trkpt lat="41.8422090076" lon="-5.7812882122">
        <ele>712.47</ele>
        <time>2020-08-10T10:11:20Z</time>
      </trkpt>
      <trkpt lat="41.8422498275" lon="-5.7813899685">
        <ele>711.99</ele>
        <time>2020-08-10T10:11:26Z</time>
      </trkpt>
      <trkpt lat="41.8424043898" lon="-5.7817266695">
        <ele>710.55</ele>
        <time>2020-08-10T10:11:33Z</time>
      </trkpt>
      <trkpt lat="41.8425686751" lon="-5.7821213733">
        <ele>709.59</ele>
        <time>2020-08-10T10:11:41Z</time>
      </trkpt>
      <trkpt lat="41.8427525740" lon="-5.7825423963">
        <ele>707.67</ele>
        <time>2020-08-10T10:11:50Z</time>
      </trkpt>
      <trkpt lat="41.8429279234" lon="-5.7827679534">
        <ele>706.71</ele>
        <time>2020-08-10T10:11:55Z</time>
      </trkpt>
      <trkpt lat="41.8429738563" lon="-5.7828002237">
        <ele>706.71</ele>
        <time>2020-08-10T10:11:56Z</time>
      </trkpt>
      <trkpt lat="41.8430217169" lon="-5.7828252017">
        <ele>706.23</ele>
        <time>2020-08-10T10:11:57Z</time>
      </trkpt>
      <trkpt lat="41.8434459250" lon="-5.7829070929">
        <ele>705.26</ele>
        <time>2020-08-10T10:12:05Z</time>
      </trkpt>
      <trkpt lat="41.8440239411" lon="-5.7830423769">
        <ele>703.82</ele>
        <time>2020-08-10T10:12:16Z</time>
      </trkpt>
      <trkpt lat="41.8443795014" lon="-5.7832207438">
        <ele>702.38</ele>
        <time>2020-08-10T10:12:23Z</time>
      </trkpt>
      <trkpt lat="41.8444365822" lon="-5.7832360826">
        <ele>702.38</ele>
        <time>2020-08-10T10:12:24Z</time>
      </trkpt>
      <trkpt lat="41.8444898073" lon="-5.7832407765">
        <ele>701.90</ele>
        <time>2020-08-10T10:12:25Z</time>
      </trkpt>
      <trkpt lat="41.8445437029" lon="-5.7832389325">
        <ele>701.90</ele>
        <time>2020-08-10T10:12:26Z</time>
      </trkpt>
      <trkpt lat="41.8445919827" lon="-5.7832327299">
        <ele>701.90</ele>
        <time>2020-08-10T10:12:27Z</time>
      </trkpt>
      <trkpt lat="41.8449390773" lon="-5.7831344102">
        <ele>702.86</ele>
        <time>2020-08-10T10:12:35Z</time>
      </trkpt>
      <trkpt lat="41.8452928774" lon="-5.7830579672">
        <ele>702.86</ele>
        <time>2020-08-10T10:12:44Z</time>
      </trkpt>
      <trkpt lat="41.8454365432" lon="-5.7831746433">
        <ele>703.34</ele>
        <time>2020-08-10T10:12:49Z</time>
      </trkpt>
      <trkpt lat="41.8454968091" lon="-5.7834093366">
        <ele>703.34</ele>
        <time>2020-08-10T10:12:56Z</time>
      </trkpt>
      <trkpt lat="41.8455289956" lon="-5.7835539244">
        <ele>703.82</ele>
        <time>2020-08-10T10:13:03Z</time>
      </trkpt>
      <trkpt lat="41.8455312587" lon="-5.7835794054">
        <ele>703.82</ele>
        <time>2020-08-10T10:13:17Z</time>
      </trkpt>
      <trkpt lat="41.8455232959" lon="-5.7835749630">
        <ele>704.30</ele>
        <time>2020-08-10T10:13:35Z</time>
      </trkpt>
      <trkpt lat="41.8455273192" lon="-5.7835723646">
        <ele>703.34</ele>
        <time>2020-08-10T10:13:45Z</time>
      </trkpt>
      <trkpt lat="41.8455296662" lon="-5.7835739572">
        <ele>703.34</ele>
        <time>2020-08-10T10:14:02Z</time>
      </trkpt>
      <trkpt lat="41.8455261458" lon="-5.7835797407">
        <ele>703.34</ele>
        <time>2020-08-10T10:14:14Z</time>
      </trkpt>
      <trkpt lat="41.8455662951" lon="-5.7837644778">
        <ele>703.34</ele>
        <time>2020-08-10T10:14:21Z</time>
      </trkpt>
      <trkpt lat="41.8456324283" lon="-5.7840805594">
        <ele>703.34</ele>
        <time>2020-08-10T10:14:30Z</time>
      </trkpt>
      <trkpt lat="41.8457051832" lon="-5.7844517939">
        <ele>703.34</ele>
        <time>2020-08-10T10:14:39Z</time>
      </trkpt>
      <trkpt lat="41.8458034191" lon="-5.7848469168">
        <ele>703.82</ele>
        <time>2020-08-10T10:14:50Z</time>
      </trkpt>
      <trkpt lat="41.8459814508" lon="-5.7850743178">
        <ele>703.82</ele>
        <time>2020-08-10T10:14:58Z</time>
      </trkpt>
      <trkpt lat="41.8462837860" lon="-5.7853110228">
        <ele>703.82</ele>
        <time>2020-08-10T10:15:07Z</time>
      </trkpt>
      <trkpt lat="41.8465592153" lon="-5.7856248412">
        <ele>703.34</ele>
        <time>2020-08-10T10:15:15Z</time>
      </trkpt>
      <trkpt lat="41.8468414340" lon="-5.7860575151">
        <ele>703.34</ele>
        <time>2020-08-10T10:15:24Z</time>
      </trkpt>
      <trkpt lat="41.8471363932" lon="-5.7865496166">
        <ele>702.86</ele>
        <time>2020-08-10T10:15:34Z</time>
      </trkpt>
      <trkpt lat="41.8474100623" lon="-5.7869878225">
        <ele>702.38</ele>
        <time>2020-08-10T10:15:43Z</time>
      </trkpt>
      <trkpt lat="41.8477842305" lon="-5.7874951791">
        <ele>702.38</ele>
        <time>2020-08-10T10:15:54Z</time>
      </trkpt>
      <trkpt lat="41.8481994700" lon="-5.7879405096">
        <ele>702.38</ele>
        <time>2020-08-10T10:16:05Z</time>
      </trkpt>
      <trkpt lat="41.8485809304" lon="-5.7883438468">
        <ele>703.82</ele>
        <time>2020-08-10T10:16:16Z</time>
      </trkpt>
      <trkpt lat="41.8489216547" lon="-5.7886840682">
        <ele>707.19</ele>
        <time>2020-08-10T10:16:27Z</time>
      </trkpt>
      <trkpt lat="41.8491970841" lon="-5.7889220305">
        <ele>709.11</ele>
        <time>2020-08-10T10:16:36Z</time>
      </trkpt>
      <trkpt lat="41.8495668937" lon="-5.7892136369">
        <ele>711.03</ele>
        <time>2020-08-10T10:16:48Z</time>
      </trkpt>
      <trkpt lat="41.8497995753" lon="-5.7894109469">
        <ele>711.51</ele>
        <time>2020-08-10T10:16:57Z</time>
      </trkpt>
      <trkpt lat="41.8499924429" lon="-5.7895785850">
        <ele>711.99</ele>
        <time>2020-08-10T10:17:05Z</time>
      </trkpt>
      <trkpt lat="41.8502595741" lon="-5.7898600493">
        <ele>713.44</ele>
        <time>2020-08-10T10:17:16Z</time>
      </trkpt>
      <trkpt lat="41.8504553754" lon="-5.7900959160">
        <ele>714.88</ele>
        <time>2020-08-10T10:17:25Z</time>
      </trkpt>
      <trkpt lat="41.8506441358" lon="-5.7903451938">
        <ele>715.84</ele>
        <time>2020-08-10T10:17:34Z</time>
      </trkpt>
      <trkpt lat="41.8508650828" lon="-5.7906430867">
        <ele>716.80</ele>
        <time>2020-08-10T10:17:45Z</time>
      </trkpt>
      <trkpt lat="41.8510590401" lon="-5.7908974774">
        <ele>717.76</ele>
        <time>2020-08-10T10:17:54Z</time>
      </trkpt>
      <trkpt lat="41.8513020314" lon="-5.7912517805">
        <ele>719.20</ele>
        <time>2020-08-10T10:18:06Z</time>
      </trkpt>
      <trkpt lat="41.8515205476" lon="-5.7915578876">
        <ele>719.20</ele>
        <time>2020-08-10T10:18:16Z</time>
      </trkpt>
      <trkpt lat="41.8517114874" lon="-5.7918909844">
        <ele>720.16</ele>
        <time>2020-08-10T10:18:26Z</time>
      </trkpt>
      <trkpt lat="41.8518524710" lon="-5.7922250032">
        <ele>721.61</ele>
        <time>2020-08-10T10:18:35Z</time>
      </trkpt>
      <trkpt lat="41.8519699853" lon="-5.7926738542">
        <ele>722.09</ele>
        <time>2020-08-10T10:18:46Z</time>
      </trkpt>
      <trkpt lat="41.8520201091" lon="-5.7930545602">
        <ele>723.05</ele>
        <time>2020-08-10T10:18:55Z</time>
      </trkpt>
      <trkpt lat="41.8520265631" lon="-5.7935027406">
        <ele>723.53</ele>
        <time>2020-08-10T10:19:05Z</time>
      </trkpt>
      <trkpt lat="41.8519797921" lon="-5.7939437963">
        <ele>724.49</ele>
        <time>2020-08-10T10:19:15Z</time>
      </trkpt>
      <trkpt lat="41.8519271538" lon="-5.7944606245">
        <ele>724.49</ele>
        <time>2020-08-10T10:19:26Z</time>
      </trkpt>
      <trkpt lat="41.8518992420" lon="-5.7949070446">
        <ele>724.01</ele>
        <time>2020-08-10T10:19:34Z</time>
      </trkpt>
      <trkpt lat="41.8519005831" lon="-5.7953809574">
        <ele>723.53</ele>
        <time>2020-08-10T10:19:43Z</time>
      </trkpt>
      <trkpt lat="41.8519253936" lon="-5.7958255336">
        <ele>724.49</ele>
        <time>2020-08-10T10:19:51Z</time>
      </trkpt>
      <trkpt lat="41.8519511260" lon="-5.7961475663">
        <ele>725.93</ele>
        <time>2020-08-10T10:19:58Z</time>
      </trkpt>
      <trkpt lat="41.8519869167" lon="-5.7966752071">
        <ele>727.37</ele>
        <time>2020-08-10T10:20:09Z</time>
      </trkpt>
      <trkpt lat="41.8520114757" lon="-5.7970375568">
        <ele>727.86</ele>
        <time>2020-08-10T10:20:17Z</time>
      </trkpt>
      <trkpt lat="41.8520512059" lon="-5.7975708134">
        <ele>727.37</ele>
        <time>2020-08-10T10:20:26Z</time>
      </trkpt>
      <trkpt lat="41.8520861585" lon="-5.7980778348">
        <ele>727.86</ele>
        <time>2020-08-10T10:20:35Z</time>
      </trkpt>
      <trkpt lat="41.8521416467" lon="-5.7986381650">
        <ele>728.34</ele>
        <time>2020-08-10T10:20:45Z</time>
      </trkpt>
      <trkpt lat="41.8522138149" lon="-5.7991580106">
        <ele>728.82</ele>
        <time>2020-08-10T10:20:54Z</time>
      </trkpt>
      <trkpt lat="41.8522894196" lon="-5.7996600028">
        <ele>729.30</ele>
        <time>2020-08-10T10:21:03Z</time>
      </trkpt>
      <trkpt lat="41.8523843866" lon="-5.8002411202">
        <ele>729.78</ele>
        <time>2020-08-10T10:21:14Z</time>
      </trkpt>
      <trkpt lat="41.8524826225" lon="-5.8008796535">
        <ele>730.26</ele>
        <time>2020-08-10T10:21:27Z</time>
      </trkpt>
      <trkpt lat="41.8525704648" lon="-5.8014114015">
        <ele>730.26</ele>
        <time>2020-08-10T10:21:37Z</time>
      </trkpt>
      <trkpt lat="41.8526536133" lon="-5.8019990567">
        <ele>730.74</ele>
        <time>2020-08-10T10:21:48Z</time>
      </trkpt>
      <trkpt lat="41.8526528589" lon="-5.8024007175">
        <ele>732.66</ele>
        <time>2020-08-10T10:21:57Z</time>
      </trkpt>
      <trkpt lat="41.8526148051" lon="-5.8026582096">
        <ele>734.10</ele>
        <time>2020-08-10T10:22:04Z</time>
      </trkpt>
      <trkpt lat="41.8525482528" lon="-5.8029255085">
        <ele>735.55</ele>
        <time>2020-08-10T10:22:12Z</time>
      </trkpt>
      <trkpt lat="41.8524539564" lon="-5.8031706791">
        <ele>736.99</ele>
        <time>2020-08-10T10:22:20Z</time>
      </trkpt>
      <trkpt lat="41.8523631804" lon="-5.8034404926">
        <ele>739.87</ele>
        <time>2020-08-10T10:22:29Z</time>
      </trkpt>
      <trkpt lat="41.8522814568" lon="-5.8036887646">
        <ele>741.31</ele>
        <time>2020-08-10T10:22:37Z</time>
      </trkpt>
      <trkpt lat="41.8522285670" lon="-5.8039244637">
        <ele>742.28</ele>
        <time>2020-08-10T10:22:45Z</time>
      </trkpt>
      <trkpt lat="41.8522080313" lon="-5.8042185009">
        <ele>742.76</ele>
        <time>2020-08-10T10:22:54Z</time>
      </trkpt>
      <trkpt lat="41.8522439059" lon="-5.8044886496">
        <ele>743.72</ele>
        <time>2020-08-10T10:23:02Z</time>
      </trkpt>
      <trkpt lat="41.8523060158" lon="-5.8047415316">
        <ele>744.20</ele>
        <time>2020-08-10T10:23:10Z</time>
      </trkpt>
      <trkpt lat="41.8523758370" lon="-5.8049592096">
        <ele>744.68</ele>
        <time>2020-08-10T10:23:17Z</time>
      </trkpt>
      <trkpt lat="41.8524710555" lon="-5.8052426856">
        <ele>745.64</ele>
        <time>2020-08-10T10:23:26Z</time>
      </trkpt>
      <trkpt lat="41.8525275495" lon="-5.8054539096">
        <ele>746.60</ele>
        <time>2020-08-10T10:23:33Z</time>
      </trkpt>
      <trkpt lat="41.8525818642" lon="-5.8057306800">
        <ele>747.56</ele>
        <time>2020-08-10T10:23:42Z</time>
      </trkpt>
      <trkpt lat="41.8526060041" lon="-5.8060150780">
        <ele>748.52</ele>
        <time>2020-08-10T10:23:51Z</time>
      </trkpt>
      <trkpt lat="41.8525977898" lon="-5.8062795270">
        <ele>749.49</ele>
        <time>2020-08-10T10:23:59Z</time>
      </trkpt>
      <trkpt lat="41.8525714707" lon="-5.8065715525">
        <ele>750.45</ele>
        <time>2020-08-10T10:24:08Z</time>
      </trkpt>
      <trkpt lat="41.8525359314" lon="-5.8068215847">
        <ele>751.41</ele>
        <time>2020-08-10T10:24:16Z</time>
      </trkpt>
      <trkpt lat="41.8525017332" lon="-5.8070641570">
        <ele>752.37</ele>
        <time>2020-08-10T10:24:24Z</time>
      </trkpt>
      <trkpt lat="41.8524699658" lon="-5.8073682524">
        <ele>753.81</ele>
        <time>2020-08-10T10:24:34Z</time>
      </trkpt>
      <trkpt lat="41.8524902500" lon="-5.8076991700">
        <ele>754.29</ele>
        <time>2020-08-10T10:24:45Z</time>
      </trkpt>
      <trkpt lat="41.8525009789" lon="-5.8077218011">
        <ele>755.25</ele>
        <time>2020-08-10T10:24:50Z</time>
      </trkpt>
      <trkpt lat="41.8525057565" lon="-5.8077232260">
        <ele>756.21</ele>
        <time>2020-08-10T10:25:01Z</time>
      </trkpt>
      <trkpt lat="41.8525056727" lon="-5.8077262435">
        <ele>754.77</ele>
        <time>2020-08-10T10:25:16Z</time>
      </trkpt>
      <trkpt lat="41.8525117077" lon="-5.8077566698">
        <ele>754.77</ele>
        <time>2020-08-10T10:25:24Z</time>
      </trkpt>
      <trkpt lat="41.8525075167" lon="-5.8077836595">
        <ele>754.77</ele>
        <time>2020-08-10T10:25:31Z</time>
      </trkpt>
      <trkpt lat="41.8525070138" lon="-5.8078029379">
        <ele>754.77</ele>
        <time>2020-08-10T10:25:32Z</time>
      </trkpt>
      <trkpt lat="41.8525076844" lon="-5.8078228030">
        <ele>754.77</ele>
        <time>2020-08-10T10:25:33Z</time>
      </trkpt>
      <trkpt lat="41.8525096122" lon="-5.8078466076">
        <ele>754.77</ele>
        <time>2020-08-10T10:25:34Z</time>
      </trkpt>
      <trkpt lat="41.8525126297" lon="-5.8078704122">
        <ele>754.77</ele>
        <time>2020-08-10T10:25:35Z</time>
      </trkpt>
      <trkpt lat="41.8525552936" lon="-5.8081299998">
        <ele>755.73</ele>
        <time>2020-08-10T10:25:44Z</time>
      </trkpt>
      <trkpt lat="41.8525770865" lon="-5.8083890844">
        <ele>756.69</ele>
        <time>2020-08-10T10:25:52Z</time>
      </trkpt>
      <trkpt lat="41.8525709677" lon="-5.8086791821">
        <ele>758.14</ele>
        <time>2020-08-10T10:26:01Z</time>
      </trkpt>
      <trkpt lat="41.8525377754" lon="-5.8089092653">
        <ele>758.62</ele>
        <time>2020-08-10T10:26:08Z</time>
      </trkpt>
      <trkpt lat="41.8524708878" lon="-5.8092584554">
        <ele>760.54</ele>
        <time>2020-08-10T10:26:19Z</time>
      </trkpt>
      <trkpt lat="41.8524202611" lon="-5.8095070627">
        <ele>761.98</ele>
        <time>2020-08-10T10:26:27Z</time>
      </trkpt>
      <trkpt lat="41.8523786869" lon="-5.8097933047">
        <ele>762.94</ele>
        <time>2020-08-10T10:26:36Z</time>
      </trkpt>
      <trkpt lat="41.8523566425" lon="-5.8101449255">
        <ele>764.39</ele>
        <time>2020-08-10T10:26:47Z</time>
      </trkpt>
      <trkpt lat="41.8523516972" lon="-5.8104776870">
        <ele>766.31</ele>
        <time>2020-08-10T10:26:58Z</time>
      </trkpt>
      <trkpt lat="41.8523552176" lon="-5.8107793517">
        <ele>767.27</ele>
        <time>2020-08-10T10:27:08Z</time>
      </trkpt>
      <trkpt lat="41.8523594085" lon="-5.8110316470">
        <ele>768.23</ele>
        <time>2020-08-10T10:27:16Z</time>
      </trkpt>
      <trkpt lat="41.8523718137" lon="-5.8112995327">
        <ele>769.19</ele>
        <time>2020-08-10T10:27:25Z</time>
      </trkpt>
      <trkpt lat="41.8523848057" lon="-5.8116167877">
        <ele>770.63</ele>
        <time>2020-08-10T10:27:35Z</time>
      </trkpt>
      <trkpt lat="41.8523909245" lon="-5.8118476253">
        <ele>771.60</ele>
        <time>2020-08-10T10:27:43Z</time>
      </trkpt>
      <trkpt lat="41.8523894157" lon="-5.8121188637">
        <ele>773.04</ele>
        <time>2020-08-10T10:27:52Z</time>
      </trkpt>
      <trkpt lat="41.8523757532" lon="-5.8124026749">
        <ele>774.00</ele>
        <time>2020-08-10T10:28:02Z</time>
      </trkpt>
      <trkpt lat="41.8523416389" lon="-5.8126868214">
        <ele>774.96</ele>
        <time>2020-08-10T10:28:12Z</time>
      </trkpt>
      <trkpt lat="41.8522825465" lon="-5.8129982930">
        <ele>776.40</ele>
        <time>2020-08-10T10:28:23Z</time>
      </trkpt>
      <trkpt lat="41.8521993142" lon="-5.8133109380">
        <ele>777.84</ele>
        <time>2020-08-10T10:28:34Z</time>
      </trkpt>
      <trkpt lat="41.8520991504" lon="-5.8136324678">
        <ele>779.77</ele>
        <time>2020-08-10T10:28:45Z</time>
      </trkpt>
      <trkpt lat="41.8519992381" lon="-5.8139408380">
        <ele>780.73</ele>
        <time>2020-08-10T10:28:55Z</time>
      </trkpt>
      <trkpt lat="41.8518895190" lon="-5.8142879326">
        <ele>781.21</ele>
        <time>2020-08-10T10:29:05Z</time>
      </trkpt>
      <trkpt lat="41.8517818116" lon="-5.8147227019">
        <ele>780.73</ele>
        <time>2020-08-10T10:29:15Z</time>
      </trkpt>
      <trkpt lat="41.8517164327" lon="-5.8152754046">
        <ele>780.25</ele>
        <time>2020-08-10T10:29:25Z</time>
      </trkpt>
      <trkpt lat="41.8517141696" lon="-5.8158895466">
        <ele>779.29</ele>
        <time>2020-08-10T10:29:36Z</time>
      </trkpt>
      <trkpt lat="41.8517843261" lon="-5.8165975660">
        <ele>778.32</ele>
        <time>2020-08-10T10:29:48Z</time>
      </trkpt>
      <trkpt lat="41.8518948834" lon="-5.8172898274">
        <ele>777.84</ele>
        <time>2020-08-10T10:30:00Z</time>
      </trkpt>
      <trkpt lat="41.8520124815" lon="-5.8180167899">
        <ele>776.88</ele>
        <time>2020-08-10T10:30:12Z</time>
      </trkpt>
      <trkpt lat="41.8521589134" lon="-5.8187864162">
        <ele>774.96</ele>
        <time>2020-08-10T10:30:25Z</time>
      </trkpt>
      <trkpt lat="41.8523250427" lon="-5.8194888197">
        <ele>773.52</ele>
        <time>2020-08-10T10:30:35Z</time>
      </trkpt>
      <trkpt lat="41.8525291421" lon="-5.8202516567">
        <ele>773.04</ele>
        <time>2020-08-10T10:30:45Z</time>
      </trkpt>
      <trkpt lat="41.8527470715" lon="-5.8211115561">
        <ele>772.56</ele>
        <time>2020-08-10T10:30:57Z</time>
      </trkpt>
      <trkpt lat="41.8529791664" lon="-5.8220262732">
        <ele>771.60</ele>
        <time>2020-08-10T10:31:09Z</time>
      </trkpt>
      <trkpt lat="41.8531863671" lon="-5.8227846678">
        <ele>771.11</ele>
        <time>2020-08-10T10:31:20Z</time>
      </trkpt>
      <trkpt lat="41.8534510676" lon="-5.8235240355">
        <ele>771.11</ele>
        <time>2020-08-10T10:31:32Z</time>
      </trkpt>
      <trkpt lat="41.8536568433" lon="-5.8241215814">
        <ele>770.63</ele>
        <time>2020-08-10T10:31:42Z</time>
      </trkpt>
      <trkpt lat="41.8537911214" lon="-5.8247236535">
        <ele>769.67</ele>
        <time>2020-08-10T10:31:51Z</time>
      </trkpt>
      <trkpt lat="41.8538919557" lon="-5.8254723251">
        <ele>769.67</ele>
        <time>2020-08-10T10:32:02Z</time>
      </trkpt>
      <trkpt lat="41.8540111464" lon="-5.8263991959">
        <ele>768.23</ele>
        <time>2020-08-10T10:32:15Z</time>
      </trkpt>
      <trkpt lat="41.8540976476" lon="-5.8270052914">
        <ele>766.79</ele>
        <time>2020-08-10T10:32:24Z</time>
      </trkpt>
      <trkpt lat="41.8541218713" lon="-5.8272084687">
        <ele>766.31</ele>
        <time>2020-08-10T10:32:27Z</time>
      </trkpt>
      <trkpt lat="41.8541970570" lon="-5.8279672824">
        <ele>765.83</ele>
        <time>2020-08-10T10:32:38Z</time>
      </trkpt>
      <trkpt lat="41.8541373778" lon="-5.8284660056">
        <ele>766.31</ele>
        <time>2020-08-10T10:32:46Z</time>
      </trkpt>
      <trkpt lat="41.8540497031" lon="-5.8287428599">
        <ele>766.79</ele>
        <time>2020-08-10T10:32:51Z</time>
      </trkpt>
      <trkpt lat="41.8538150098" lon="-5.8292704169">
        <ele>767.27</ele>
        <time>2020-08-10T10:33:01Z</time>
      </trkpt>
      <trkpt lat="41.8535451125" lon="-5.8298718184">
        <ele>767.27</ele>
        <time>2020-08-10T10:33:12Z</time>
      </trkpt>
      <trkpt lat="41.8532626424" lon="-5.8304935042">
        <ele>766.31</ele>
        <time>2020-08-10T10:33:22Z</time>
      </trkpt>
      <trkpt lat="41.8529653363" lon="-5.8311424311">
        <ele>763.90</ele>
        <time>2020-08-10T10:33:31Z</time>
      </trkpt>
      <trkpt lat="41.8525969516" lon="-5.8319330122">
        <ele>762.46</ele>
        <time>2020-08-10T10:33:41Z</time>
      </trkpt>
      <trkpt lat="41.8524102867" lon="-5.8323404565">
        <ele>762.94</ele>
        <time>2020-08-10T10:33:48Z</time>
      </trkpt>
      <trkpt lat="41.8522071932" lon="-5.8327849489">
        <ele>763.90</ele>
        <time>2020-08-10T10:33:57Z</time>
      </trkpt>
      <trkpt lat="41.8519864976" lon="-5.8332617953">
        <ele>766.31</ele>
        <time>2020-08-10T10:34:08Z</time>
      </trkpt>
      <trkpt lat="41.8517910317" lon="-5.8336990792">
        <ele>768.23</ele>
        <time>2020-08-10T10:34:16Z</time>
      </trkpt>
      <trkpt lat="41.8515845016" lon="-5.8341578208">
        <ele>768.23</ele>
        <time>2020-08-10T10:34:25Z</time>
      </trkpt>
      <trkpt lat="41.8515189551" lon="-5.8343060967">
        <ele>767.75</ele>
        <time>2020-08-10T10:34:28Z</time>
      </trkpt>
      <trkpt lat="41.8513204716" lon="-5.8347292151">
        <ele>767.27</ele>
        <time>2020-08-10T10:34:37Z</time>
      </trkpt>
      <trkpt lat="41.8510605488" lon="-5.8353145234">
        <ele>765.35</ele>
        <time>2020-08-10T10:34:48Z</time>
      </trkpt>
      <trkpt lat="41.8508275319" lon="-5.8360636979">
        <ele>763.90</ele>
        <time>2020-08-10T10:34:59Z</time>
      </trkpt>
      <trkpt lat="41.8506531045" lon="-5.8367469907">
        <ele>762.94</ele>
        <time>2020-08-10T10:35:09Z</time>
      </trkpt>
      <trkpt lat="41.8504904956" lon="-5.8373979293">
        <ele>762.94</ele>
        <time>2020-08-10T10:35:19Z</time>
      </trkpt>
      <trkpt lat="41.8503760826" lon="-5.8378840797">
        <ele>762.94</ele>
        <time>2020-08-10T10:35:27Z</time>
      </trkpt>
      <trkpt lat="41.8502320815" lon="-5.8384418953">
        <ele>763.42</ele>
        <time>2020-08-10T10:35:36Z</time>
      </trkpt>
      <trkpt lat="41.8502159882" lon="-5.8385033347">
        <ele>763.42</ele>
        <time>2020-08-10T10:35:37Z</time>
      </trkpt>
      <trkpt lat="41.8500836380" lon="-5.8390687779">
        <ele>761.50</ele>
        <time>2020-08-10T10:35:46Z</time>
      </trkpt>
      <trkpt lat="41.8499244656" lon="-5.8397350553">
        <ele>759.10</ele>
        <time>2020-08-10T10:35:54Z</time>
      </trkpt>
      <trkpt lat="41.8497264013" lon="-5.8405497763">
        <ele>758.62</ele>
        <time>2020-08-10T10:36:04Z</time>
      </trkpt>
      <trkpt lat="41.8495414965" lon="-5.8413168043">
        <ele>759.10</ele>
        <time>2020-08-10T10:36:15Z</time>
      </trkpt>
      <trkpt lat="41.8493624590" lon="-5.8420529030">
        <ele>757.18</ele>
        <time>2020-08-10T10:36:26Z</time>
      </trkpt>
      <trkpt lat="41.8491849303" lon="-5.8427779377">
        <ele>754.29</ele>
        <time>2020-08-10T10:36:35Z</time>
      </trkpt>
      <trkpt lat="41.8490226567" lon="-5.8435612265">
        <ele>751.41</ele>
        <time>2020-08-10T10:36:43Z</time>
      </trkpt>
      <trkpt lat="41.8489099201" lon="-5.8443515562">
        <ele>749.49</ele>
        <time>2020-08-10T10:36:51Z</time>
      </trkpt>
      <trkpt lat="41.8487992790" lon="-5.8453501761">
        <ele>747.08</ele>
        <time>2020-08-10T10:37:02Z</time>
      </trkpt>
      <trkpt lat="41.8486929126" lon="-5.8461994305">
        <ele>745.64</ele>
        <time>2020-08-10T10:37:12Z</time>
      </trkpt>
      <trkpt lat="41.8485784158" lon="-5.8471045084">
        <ele>742.76</ele>
        <time>2020-08-10T10:37:22Z</time>
      </trkpt>
      <trkpt lat="41.8484303914" lon="-5.8479434531">
        <ele>740.35</ele>
        <time>2020-08-10T10:37:30Z</time>
      </trkpt>
      <trkpt lat="41.8481960334" lon="-5.8485312760">
        <ele>738.43</ele>
        <time>2020-08-10T10:37:36Z</time>
      </trkpt>
      <trkpt lat="41.8478785269" lon="-5.8489932027">
        <ele>736.51</ele>
        <time>2020-08-10T10:37:42Z</time>
      </trkpt>
      <trkpt lat="41.8474351242" lon="-5.8494595718">
        <ele>735.55</ele>
        <time>2020-08-10T10:37:50Z</time>
      </trkpt>
      <trkpt lat="41.8471661489" lon="-5.8497403655">
        <ele>735.55</ele>
        <time>2020-08-10T10:37:57Z</time>
      </trkpt>
      <trkpt lat="41.8468679208" lon="-5.8500481490">
        <ele>735.07</ele>
        <time>2020-08-10T10:38:05Z</time>
      </trkpt>
      <trkpt lat="41.8464310560" lon="-5.8505032025">
        <ele>733.62</ele>
        <time>2020-08-10T10:38:16Z</time>
      </trkpt>
      <trkpt lat="41.8460126314" lon="-5.8509408217">
        <ele>732.18</ele>
        <time>2020-08-10T10:38:26Z</time>
      </trkpt>
      <trkpt lat="41.8456025049" lon="-5.8514631819">
        <ele>731.22</ele>
        <time>2020-08-10T10:38:36Z</time>
      </trkpt>
      <trkpt lat="41.8452503812" lon="-5.8519752324">
        <ele>729.78</ele>
        <time>2020-08-10T10:38:45Z</time>
      </trkpt>
      <trkpt lat="41.8448448647" lon="-5.8525937330">
        <ele>727.86</ele>
        <time>2020-08-10T10:38:55Z</time>
      </trkpt>
      <trkpt lat="41.8445497379" lon="-5.8532324340">
        <ele>725.93</ele>
        <time>2020-08-10T10:39:03Z</time>
      </trkpt>
      <trkpt lat="41.8441964407" lon="-5.8540497534">
        <ele>722.57</ele>
        <time>2020-08-10T10:39:12Z</time>
      </trkpt>
      <trkpt lat="41.8439568020" lon="-5.8546004444">
        <ele>722.57</ele>
        <time>2020-08-10T10:39:19Z</time>
      </trkpt>
      <trkpt lat="41.8437227793" lon="-5.8551487885">
        <ele>724.01</ele>
        <time>2020-08-10T10:39:28Z</time>
      </trkpt>
      <trkpt lat="41.8437014893" lon="-5.8552088868">
        <ele>724.01</ele>
        <time>2020-08-10T10:39:29Z</time>
      </trkpt>
      <trkpt lat="41.8434989825" lon="-5.8556943666">
        <ele>725.93</ele>
        <time>2020-08-10T10:39:38Z</time>
      </trkpt>
      <trkpt lat="41.8433331046" lon="-5.8560997993">
        <ele>727.86</ele>
        <time>2020-08-10T10:39:46Z</time>
      </trkpt>
      <trkpt lat="41.8431491219" lon="-5.8566318825">
        <ele>728.82</ele>
        <time>2020-08-10T10:39:56Z</time>
      </trkpt>
      <trkpt lat="41.8430259079" lon="-5.8571813162">
        <ele>729.30</ele>
        <time>2020-08-10T10:40:06Z</time>
      </trkpt>
      <trkpt lat="41.8429005984" lon="-5.8580726478">
        <ele>728.34</ele>
        <time>2020-08-10T10:40:20Z</time>
      </trkpt>
      <trkpt lat="41.8428033683" lon="-5.8588076569">
        <ele>727.37</ele>
        <time>2020-08-10T10:40:31Z</time>
      </trkpt>
      <trkpt lat="41.8426799867" lon="-5.8597450890">
        <ele>726.89</ele>
        <time>2020-08-10T10:40:44Z</time>
      </trkpt>
      <trkpt lat="41.8425851036" lon="-5.8604345843">
        <ele>726.89</ele>
        <time>2020-08-10T10:40:54Z</time>
      </trkpt>
      <trkpt lat="41.8424995244" lon="-5.8610792365">
        <ele>726.41</ele>
        <time>2020-08-10T10:41:04Z</time>
      </trkpt>
      <trkpt lat="41.8423768133" lon="-5.8619649522">
        <ele>725.45</ele>
        <time>2020-08-10T10:41:17Z</time>
      </trkpt>
      <trkpt lat="41.8422934972" lon="-5.8625467401">
        <ele>725.45</ele>
        <time>2020-08-10T10:41:26Z</time>
      </trkpt>
      <trkpt lat="41.8422190659" lon="-5.8630934916">
        <ele>724.49</ele>
        <time>2020-08-10T10:41:34Z</time>
      </trkpt>
      <trkpt lat="41.8421299662" lon="-5.8637649659">
        <ele>723.05</ele>
        <time>2020-08-10T10:41:43Z</time>
      </trkpt>
      <trkpt lat="41.8420326523" lon="-5.8644827083">
        <ele>721.13</ele>
        <time>2020-08-10T10:41:51Z</time>
      </trkpt>
      <trkpt lat="41.8419053312" lon="-5.8653928153">
        <ele>718.72</ele>
        <time>2020-08-10T10:42:00Z</time>
      </trkpt>
      <trkpt lat="41.8417322449" lon="-5.8666201774">
        <ele>717.28</ele>
        <time>2020-08-10T10:42:12Z</time>
      </trkpt>
      <trkpt lat="41.8416262139" lon="-5.8673845232">
        <ele>717.76</ele>
        <time>2020-08-10T10:42:21Z</time>
      </trkpt>
      <trkpt lat="41.8415246252" lon="-5.8681407385">
        <ele>717.76</ele>
        <time>2020-08-10T10:42:31Z</time>
      </trkpt>
      <trkpt lat="41.8414455839" lon="-5.8687355183">
        <ele>719.20</ele>
        <time>2020-08-10T10:42:40Z</time>
      </trkpt>
      <trkpt lat="41.8413693085" lon="-5.8692986984">
        <ele>720.65</ele>
        <time>2020-08-10T10:42:49Z</time>
      </trkpt>
      <trkpt lat="41.8413609266" lon="-5.8693594672">
        <ele>720.65</ele>
        <time>2020-08-10T10:42:50Z</time>
      </trkpt>
      <trkpt lat="41.8412648700" lon="-5.8700747788">
        <ele>721.61</ele>
        <time>2020-08-10T10:43:02Z</time>
      </trkpt>
      <trkpt lat="41.8411782850" lon="-5.8707155753">
        <ele>722.57</ele>
        <time>2020-08-10T10:43:13Z</time>
      </trkpt>
      <trkpt lat="41.8410865031" lon="-5.8713802602">
        <ele>721.61</ele>
        <time>2020-08-10T10:43:24Z</time>
      </trkpt>
      <trkpt lat="41.8410077132" lon="-5.8719334658">
        <ele>720.65</ele>
        <time>2020-08-10T10:43:33Z</time>
      </trkpt>
      <trkpt lat="41.8409980740" lon="-5.8720004372">
        <ele>720.65</ele>
        <time>2020-08-10T10:43:34Z</time>
      </trkpt>
      <trkpt lat="41.8409150094" lon="-5.8726049401">
        <ele>719.20</ele>
        <time>2020-08-10T10:43:43Z</time>
      </trkpt>
      <trkpt lat="41.8408248201" lon="-5.8732692059">
        <ele>717.76</ele>
        <time>2020-08-10T10:43:52Z</time>
      </trkpt>
      <trkpt lat="41.8407193758" lon="-5.8740568534">
        <ele>718.24</ele>
        <time>2020-08-10T10:44:03Z</time>
      </trkpt>
      <trkpt lat="41.8406166974" lon="-5.8748091292">
        <ele>717.76</ele>
        <time>2020-08-10T10:44:14Z</time>
      </trkpt>
      <trkpt lat="41.8405207247" lon="-5.8755018935">
        <ele>717.28</ele>
        <time>2020-08-10T10:44:24Z</time>
      </trkpt>
      <trkpt lat="41.8404269312" lon="-5.8761916403">
        <ele>717.28</ele>
        <time>2020-08-10T10:44:34Z</time>
      </trkpt>
      <trkpt lat="41.8403174635" lon="-5.8769574109">
        <ele>717.28</ele>
        <time>2020-08-10T10:44:45Z</time>
      </trkpt>
      <trkpt lat="41.8402069900" lon="-5.8777603135">
        <ele>717.76</ele>
        <time>2020-08-10T10:44:57Z</time>
      </trkpt>
      <trkpt lat="41.8401056528" lon="-5.8785049617">
        <ele>718.24</ele>
        <time>2020-08-10T10:45:08Z</time>
      </trkpt>
      <trkpt lat="41.8400284555" lon="-5.8790605143">
        <ele>719.20</ele>
        <time>2020-08-10T10:45:18Z</time>
      </trkpt>
      <trkpt lat="41.8399657588" lon="-5.8795650210">
        <ele>720.16</ele>
        <time>2020-08-10T10:45:28Z</time>
      </trkpt>
      <trkpt lat="41.8399001285" lon="-5.8800426219">
        <ele>721.13</ele>
        <time>2020-08-10T10:45:38Z</time>
      </trkpt>
      <trkpt lat="41.8398090173" lon="-5.8806727733">
        <ele>722.09</ele>
        <time>2020-08-10T10:45:51Z</time>
      </trkpt>
      <trkpt lat="41.8397251144" lon="-5.8812850714">
        <ele>723.05</ele>
        <time>2020-08-10T10:46:03Z</time>
      </trkpt>
      <trkpt lat="41.8396404572" lon="-5.8819221798">
        <ele>723.05</ele>
        <time>2020-08-10T10:46:15Z</time>
      </trkpt>
      <trkpt lat="41.8395613320" lon="-5.8825230785">
        <ele>723.05</ele>
        <time>2020-08-10T10:46:26Z</time>
      </trkpt>
      <trkpt lat="41.8394688796" lon="-5.8831900265">
        <ele>723.05</ele>
        <time>2020-08-10T10:46:38Z</time>
      </trkpt>
      <trkpt lat="41.8393617589" lon="-5.8839680348">
        <ele>723.05</ele>
        <time>2020-08-10T10:46:52Z</time>
      </trkpt>
      <trkpt lat="41.8392771855" lon="-5.8846253436">
        <ele>723.53</ele>
        <time>2020-08-10T10:47:04Z</time>
      </trkpt>
      <trkpt lat="41.8392009102" lon="-5.8851780463">
        <ele>723.53</ele>
        <time>2020-08-10T10:47:14Z</time>
      </trkpt>
      <trkpt lat="41.8391422369" lon="-5.8856208622">
        <ele>723.53</ele>
        <time>2020-08-10T10:47:22Z</time>
      </trkpt>
      <trkpt lat="41.8390539754" lon="-5.8862463199">
        <ele>724.01</ele>
        <time>2020-08-10T10:47:33Z</time>
      </trkpt>
      <trkpt lat="41.8389912788" lon="-5.8867545985">
        <ele>724.01</ele>
        <time>2020-08-10T10:47:42Z</time>
      </trkpt>
      <trkpt lat="41.8389142491" lon="-5.8873238973">
        <ele>723.53</ele>
        <time>2020-08-10T10:47:52Z</time>
      </trkpt>
      <trkpt lat="41.8388398178" lon="-5.8879377041">
        <ele>723.53</ele>
        <time>2020-08-10T10:48:03Z</time>
      </trkpt>
      <trkpt lat="41.8387528975" lon="-5.8885382675">
        <ele>724.49</ele>
        <time>2020-08-10T10:48:14Z</time>
      </trkpt>
      <trkpt lat="41.8386832438" lon="-5.8889757190">
        <ele>725.93</ele>
        <time>2020-08-10T10:48:24Z</time>
      </trkpt>
      <trkpt lat="41.8386367243" lon="-5.8890471328">
        <ele>725.93</ele>
        <time>2020-08-10T10:48:27Z</time>
      </trkpt>
      <trkpt lat="41.8386102375" lon="-5.8890544251">
        <ele>725.45</ele>
        <time>2020-08-10T10:48:28Z</time>
      </trkpt>
      <trkpt lat="41.8384653144" lon="-5.8890604600">
        <ele>725.93</ele>
        <time>2020-08-10T10:48:33Z</time>
      </trkpt>
      <trkpt lat="41.8384214770" lon="-5.8890783135">
        <ele>725.93</ele>
        <time>2020-08-10T10:48:35Z</time>
      </trkpt>
      <trkpt lat="41.8383689225" lon="-5.8891272638">
        <ele>726.89</ele>
        <time>2020-08-10T10:48:39Z</time>
      </trkpt>
      <trkpt lat="41.8383314554" lon="-5.8892952371">
        <ele>726.89</ele>
        <time>2020-08-10T10:48:46Z</time>
      </trkpt>
      <trkpt lat="41.8382474687" lon="-5.8893153537">
        <ele>727.37</ele>
        <time>2020-08-10T10:48:51Z</time>
      </trkpt>
      <trkpt lat="41.8382002786" lon="-5.8893135097">
        <ele>726.89</ele>
        <time>2020-08-10T10:48:58Z</time>
      </trkpt>
      <trkpt lat="41.8382058106" lon="-5.8893169463">
        <ele>727.86</ele>
        <time>2020-08-10T10:49:06Z</time>
      </trkpt>
      <trkpt lat="41.8381214887" lon="-5.8893071394">
        <ele>729.30</ele>
        <time>2020-08-10T10:49:14Z</time>
      </trkpt>
      <trkpt lat="41.8380943313" lon="-5.8892967459">
        <ele>728.82</ele>
        <time>2020-08-10T10:49:22Z</time>
      </trkpt>
      <trkpt lat="41.8380877934" lon="-5.8892790601">
        <ele>730.74</ele>
        <time>2020-08-10T10:49:36Z</time>
      </trkpt>
      <trkpt lat="41.8380886316" lon="-5.8892829157">
        <ele>732.66</ele>
        <time>2020-08-10T10:49:56Z</time>
      </trkpt>
      <trkpt lat="41.8380863685" lon="-5.8892798983">
        <ele>729.78</ele>
        <time>2020-08-10T10:50:09Z</time>
      </trkpt>
      <trkpt lat="41.8380862009" lon="-5.8892999310">
        <ele>727.86</ele>
        <time>2020-08-10T10:50:25Z</time>
      </trkpt>
      <trkpt lat="41.8380894698" lon="-5.8892976679">
        <ele>729.30</ele>
        <time>2020-08-10T10:50:45Z</time>
      </trkpt>
      <trkpt lat="41.8380836025" lon="-5.8892726060">
        <ele>730.74</ele>
        <time>2020-08-10T10:51:04Z</time>
      </trkpt>
      <trkpt lat="41.8380845245" lon="-5.8892818261">
        <ele>731.70</ele>
        <time>2020-08-10T10:51:25Z</time>
      </trkpt>
      <trkpt lat="41.8380915653" lon="-5.8892852627">
        <ele>730.74</ele>
        <time>2020-08-10T10:51:40Z</time>
      </trkpt>
      <trkpt lat="41.8381003663" lon="-5.8892924711">
        <ele>729.78</ele>
        <time>2020-08-10T10:51:58Z</time>
      </trkpt>
      <trkpt lat="41.8380923197" lon="-5.8892989252">
        <ele>729.78</ele>
        <time>2020-08-10T10:52:11Z</time>
      </trkpt>
      <trkpt lat="41.8380899727" lon="-5.8893083967">
        <ele>729.30</ele>
        <time>2020-08-10T10:52:33Z</time>
      </trkpt>
      <trkpt lat="41.8381029647" lon="-5.8892997634">
        <ele>729.78</ele>
        <time>2020-08-10T10:52:54Z</time>
      </trkpt>
      <trkpt lat="41.8381172139" lon="-5.8893127553">
        <ele>730.26</ele>
        <time>2020-08-10T10:53:04Z</time>
      </trkpt>
      <trkpt lat="41.8381830119" lon="-5.8893171139">
        <ele>731.22</ele>
        <time>2020-08-10T10:53:13Z</time>
      </trkpt>
      <trkpt lat="41.8381947465" lon="-5.8893153537">
        <ele>732.66</ele>
        <time>2020-08-10T10:53:21Z</time>
      </trkpt>
      <trkpt lat="41.8381992728" lon="-5.8893083129">
        <ele>731.22</ele>
        <time>2020-08-10T10:53:38Z</time>
      </trkpt>
      <trkpt lat="41.8381947465" lon="-5.8893369790">
        <ele>731.22</ele>
        <time>2020-08-10T10:53:50Z</time>
      </trkpt>
      <trkpt lat="41.8381961714" lon="-5.8893334586">
        <ele>733.14</ele>
        <time>2020-08-10T10:54:10Z</time>
      </trkpt>
      <trkpt lat="41.8382048048" lon="-5.8893135097">
        <ele>729.78</ele>
        <time>2020-08-10T10:54:34Z</time>
      </trkpt>
      <trkpt lat="41.8381947465" lon="-5.8893265855">
        <ele>729.30</ele>
        <time>2020-08-10T10:55:01Z</time>
      </trkpt>
      <trkpt lat="41.8381787371" lon="-5.8893252444">
        <ele>732.66</ele>
        <time>2020-08-10T10:55:23Z</time>
      </trkpt>
      <trkpt lat="41.8381998595" lon="-5.8892973326">
        <ele>732.66</ele>
        <time>2020-08-10T10:55:52Z</time>
      </trkpt>
      <trkpt lat="41.8381856102" lon="-5.8893140126">
        <ele>729.78</ele>
        <time>2020-08-10T10:56:16Z</time>
      </trkpt>
      <trkpt lat="41.8382028770" lon="-5.8893145993">
        <ele>731.22</ele>
        <time>2020-08-10T10:56:41Z</time>
      </trkpt>
      <trkpt lat="41.8381970096" lon="-5.8893207181">
        <ele>731.22</ele>
        <time>2020-08-10T10:57:07Z</time>
      </trkpt>
      <trkpt lat="41.8382157013" lon="-5.8893096540">
        <ele>727.37</ele>
        <time>2020-08-10T10:57:32Z</time>
      </trkpt>
      <trkpt lat="41.8382232450" lon="-5.8892889507">
        <ele>726.89</ele>
        <time>2020-08-10T10:57:51Z</time>
      </trkpt>
      <trkpt lat="41.8382146955" lon="-5.8892980032">
        <ele>728.34</ele>
        <time>2020-08-10T10:58:12Z</time>
      </trkpt>
      <trkpt lat="41.8382053077" lon="-5.8893048763">
        <ele>730.26</ele>
        <time>2020-08-10T10:58:41Z</time>
      </trkpt>
      <trkpt lat="41.8381985184" lon="-5.8893047087">
        <ele>734.58</ele>
        <time>2020-08-10T10:59:05Z</time>
      </trkpt>
      <trkpt lat="41.8381926510" lon="-5.8892923035">
        <ele>730.74</ele>
        <time>2020-08-10T10:59:32Z</time>
      </trkpt>
      <trkpt lat="41.8381955009" lon="-5.8892990090">
        <ele>732.66</ele>
        <time>2020-08-10T11:00:01Z</time>
      </trkpt>
      <trkpt lat="41.8381897174" lon="-5.8893171977">
        <ele>731.70</ele>
        <time>2020-08-10T11:00:37Z</time>
      </trkpt>
      <trkpt lat="41.8381963391" lon="-5.8893140126">
        <ele>729.78</ele>
        <time>2020-08-10T11:01:09Z</time>
      </trkpt>
      <trkpt lat="41.8381955009" lon="-5.8893195447">
        <ele>728.82</ele>
        <time>2020-08-10T11:01:35Z</time>
      </trkpt>
      <trkpt lat="41.8381959200" lon="-5.8893221430">
        <ele>727.86</ele>
        <time>2020-08-10T11:01:56Z</time>
      </trkpt>
      <trkpt lat="41.8382017873" lon="-5.8893068880">
        <ele>728.34</ele>
        <time>2020-08-10T11:02:24Z</time>
      </trkpt>
      <trkpt lat="41.8382183835" lon="-5.8893239871">
        <ele>728.34</ele>
        <time>2020-08-10T11:02:49Z</time>
      </trkpt>
      <trkpt lat="41.8382048886" lon="-5.8893191256">
        <ele>729.30</ele>
        <time>2020-08-10T11:03:15Z</time>
      </trkpt>
      <trkpt lat="41.8381877895" lon="-5.8893276751">
        <ele>727.37</ele>
        <time>2020-08-10T11:03:44Z</time>
      </trkpt>
      <trkpt lat="41.8382027932" lon="-5.8893307764">
        <ele>724.97</ele>
        <time>2020-08-10T11:04:12Z</time>
      </trkpt>
      <trkpt lat="41.8382068165" lon="-5.8893179521">
        <ele>726.41</ele>
        <time>2020-08-10T11:04:33Z</time>
      </trkpt>
      <trkpt lat="41.8382037990" lon="-5.8892907109">
        <ele>724.49</ele>
        <time>2020-08-10T11:05:06Z</time>
      </trkpt>
      <trkpt lat="41.8382026255" lon="-5.8893042058">
        <ele>724.01</ele>
        <time>2020-08-10T11:05:36Z</time>
      </trkpt>
      <trkpt lat="41.8382113427" lon="-5.8893024456">
        <ele>728.82</ele>
        <time>2020-08-10T11:06:10Z</time>
      </trkpt>
      <trkpt lat="41.8382108398" lon="-5.8893109951">
        <ele>730.26</ele>
        <time>2020-08-10T11:06:32Z</time>
      </trkpt>
      <trkpt lat="41.8382229935" lon="-5.8893156890">
        <ele>727.86</ele>
        <time>2020-08-10T11:06:52Z</time>
      </trkpt>
      <trkpt lat="41.8382147793" lon="-5.8892991766">
        <ele>726.41</ele>
        <time>2020-08-10T11:07:17Z</time>
      </trkpt>
      <trkpt lat="41.8382196408" lon="-5.8893168624">
        <ele>725.93</ele>
        <time>2020-08-10T11:07:45Z</time>
      </trkpt>
      <trkpt lat="41.8382039666" lon="-5.8892787248">
        <ele>725.45</ele>
        <time>2020-08-10T11:08:10Z</time>
      </trkpt>
      <trkpt lat="41.8381881248" lon="-5.8893048763">
        <ele>726.41</ele>
        <time>2020-08-10T11:08:31Z</time>
      </trkpt>
      <trkpt lat="41.8381767254" lon="-5.8892841730">
        <ele>726.89</ele>
        <time>2020-08-10T11:08:58Z</time>
      </trkpt>
      <trkpt lat="41.8381876219" lon="-5.8892870229">
        <ele>727.86</ele>
        <time>2020-08-10T11:09:18Z</time>
      </trkpt>
      <trkpt lat="41.8381991889" lon="-5.8892823290">
        <ele>728.34</ele>
        <time>2020-08-10T11:09:41Z</time>
      </trkpt>
      <trkpt lat="41.8381954171" lon="-5.8892932255">
        <ele>727.37</ele>
        <time>2020-08-10T11:09:58Z</time>
      </trkpt>
      <trkpt lat="41.8381984346" lon="-5.8893143479">
        <ele>727.37</ele>
        <time>2020-08-10T11:10:16Z</time>
      </trkpt>
      <trkpt lat="41.8382090796" lon="-5.8893263340">
        <ele>727.37</ele>
        <time>2020-08-10T11:10:36Z</time>
      </trkpt>
      <trkpt lat="41.8382027932" lon="-5.8893259149">
        <ele>725.45</ele>
        <time>2020-08-10T11:10:52Z</time>
      </trkpt>
      <trkpt lat="41.8381989375" lon="-5.8893283457">
        <ele>727.37</ele>
        <time>2020-08-10T11:11:09Z</time>
      </trkpt>
      <trkpt lat="41.8381917290" lon="-5.8893369790">
        <ele>724.49</ele>
        <time>2020-08-10T11:11:36Z</time>
      </trkpt>
      <trkpt lat="41.8381928187" lon="-5.8893253282">
        <ele>726.41</ele>
        <time>2020-08-10T11:12:06Z</time>
      </trkpt>
      <trkpt lat="41.8382103369" lon="-5.8893156052">
        <ele>726.89</ele>
        <time>2020-08-10T11:12:28Z</time>
      </trkpt>
      <trkpt lat="41.8382258434" lon="-5.8892986737">
        <ele>726.89</ele>
        <time>2020-08-10T11:12:53Z</time>
      </trkpt>
      <trkpt lat="41.8382073194" lon="-5.8893090673">
        <ele>727.37</ele>
        <time>2020-08-10T11:13:12Z</time>
      </trkpt>
      <trkpt lat="41.8381966744" lon="-5.8893099055">
        <ele>724.97</ele>
        <time>2020-08-10T11:13:42Z</time>
      </trkpt>
      <trkpt lat="41.8381999433" lon="-5.8893121686">
        <ele>724.49</ele>
        <time>2020-08-10T11:14:07Z</time>
      </trkpt>
      <trkpt lat="41.8382063136" lon="-5.8893209696">
        <ele>725.93</ele>
        <time>2020-08-10T11:14:28Z</time>
      </trkpt>
      <trkpt lat="41.8382102530" lon="-5.8893323690">
        <ele>727.37</ele>
        <time>2020-08-10T11:14:48Z</time>
      </trkpt>
      <trkpt lat="41.8382017873" lon="-5.8893323690">
        <ele>726.89</ele>
        <time>2020-08-10T11:15:07Z</time>
      </trkpt>
      <trkpt lat="41.8382088281" lon="-5.8893280942">
        <ele>729.30</ele>
        <time>2020-08-10T11:15:28Z</time>
      </trkpt>
      <trkpt lat="41.8381976802" lon="-5.8893337939">
        <ele>728.82</ele>
        <time>2020-08-10T11:15:49Z</time>
      </trkpt>
      <trkpt lat="41.8382099178" lon="-5.8893250767">
        <ele>725.93</ele>
        <time>2020-08-10T11:16:06Z</time>
      </trkpt>
      <trkpt lat="41.8382086605" lon="-5.8893156890">
        <ele>728.82</ele>
        <time>2020-08-10T11:16:27Z</time>
      </trkpt>
      <trkpt lat="41.8381952494" lon="-5.8893161081">
        <ele>725.45</ele>
        <time>2020-08-10T11:16:52Z</time>
      </trkpt>
      <trkpt lat="41.8382021226" lon="-5.8893054631">
        <ele>724.97</ele>
        <time>2020-08-10T11:17:07Z</time>
      </trkpt>
      <trkpt lat="41.8382140249" lon="-5.8893146832">
        <ele>724.01</ele>
        <time>2020-08-10T11:17:28Z</time>
      </trkpt>
      <trkpt lat="41.8382195570" lon="-5.8893245738">
        <ele>723.53</ele>
        <time>2020-08-10T11:17:52Z</time>
      </trkpt>
      <trkpt lat="41.8382167909" lon="-5.8893187903">
        <ele>720.65</ele>
        <time>2020-08-10T11:18:12Z</time>
      </trkpt>
      <trkpt lat="41.8382105883" lon="-5.8893243223">
        <ele>720.16</ele>
        <time>2020-08-10T11:18:27Z</time>
      </trkpt>
      <trkpt lat="41.8382168747" lon="-5.8893193770">
        <ele>718.24</ele>
        <time>2020-08-10T11:18:44Z</time>
      </trkpt>
      <trkpt lat="41.8382137734" lon="-5.8893151861">
        <ele>717.76</ele>
        <time>2020-08-10T11:19:00Z</time>
      </trkpt>
      <trkpt lat="41.8382028770" lon="-5.8893003501">
        <ele>717.28</ele>
        <time>2020-08-10T11:19:19Z</time>
      </trkpt>
      <trkpt lat="41.8382240832" lon="-5.8893309440">
        <ele>722.57</ele>
        <time>2020-08-10T11:19:43Z</time>
      </trkpt>
      <trkpt lat="41.8382112589" lon="-5.8893451095">
        <ele>725.45</ele>
        <time>2020-08-10T11:20:03Z</time>
      </trkpt>
      <trkpt lat="41.8382050563" lon="-5.8893354703">
        <ele>725.45</ele>
        <time>2020-08-10T11:20:25Z</time>
      </trkpt>
      <trkpt lat="41.8382140249" lon="-5.8893207181">
        <ele>726.41</ele>
        <time>2020-08-10T11:20:48Z</time>
      </trkpt>
      <trkpt lat="41.8382197246" lon="-5.8893349674">
        <ele>724.01</ele>
        <time>2020-08-10T11:21:09Z</time>
      </trkpt>
      <trkpt lat="41.8382105883" lon="-5.8893140964">
        <ele>721.61</ele>
        <time>2020-08-10T11:21:31Z</time>
      </trkpt>
      <trkpt lat="41.8381975964" lon="-5.8893156890">
        <ele>723.05</ele>
        <time>2020-08-10T11:21:48Z</time>
      </trkpt>
      <trkpt lat="41.8382122647" lon="-5.8893479593">
        <ele>722.09</ele>
        <time>2020-08-10T11:22:08Z</time>
      </trkpt>
      <trkpt lat="41.8382076547" lon="-5.8893373143">
        <ele>722.57</ele>
        <time>2020-08-10T11:22:26Z</time>
      </trkpt>
      <trkpt lat="41.8382204790" lon="-5.8893483784">
        <ele>721.61</ele>
        <time>2020-08-10T11:22:48Z</time>
      </trkpt>
      <trkpt lat="41.8381972611" lon="-5.8893528208">
        <ele>723.05</ele>
        <time>2020-08-10T11:23:13Z</time>
      </trkpt>
      <trkpt lat="41.8381980155" lon="-5.8893536590">
        <ele>724.97</ele>
        <time>2020-08-10T11:23:32Z</time>
      </trkpt>
      <trkpt lat="41.8382237479" lon="-5.8893280104">
        <ele>725.93</ele>
        <time>2020-08-10T11:23:56Z</time>
      </trkpt>
      <trkpt lat="41.8382149469" lon="-5.8893268369">
        <ele>726.89</ele>
        <time>2020-08-10T11:24:24Z</time>
      </trkpt>
      <trkpt lat="41.8382117618" lon="-5.8893060498">
        <ele>728.34</ele>
        <time>2020-08-10T11:24:48Z</time>
      </trkpt>
      <trkpt lat="41.8381946627" lon="-5.8893328719">
        <ele>729.78</ele>
        <time>2020-08-10T11:25:10Z</time>
      </trkpt>
      <trkpt lat="41.8381914776" lon="-5.8893168624">
        <ele>726.41</ele>
        <time>2020-08-10T11:25:41Z</time>
      </trkpt>
      <trkpt lat="41.8382074870" lon="-5.8893234842">
        <ele>726.89</ele>
        <time>2020-08-10T11:26:02Z</time>
      </trkpt>
      <trkpt lat="41.8381995242" lon="-5.8893074747">
        <ele>729.30</ele>
        <time>2020-08-10T11:26:24Z</time>
      </trkpt>
      <trkpt lat="41.8381947465" lon="-5.8893325366">
        <ele>727.86</ele>
        <time>2020-08-10T11:26:46Z</time>
      </trkpt>
      <trkpt lat="41.8381820060" lon="-5.8893092349">
        <ele>728.82</ele>
        <time>2020-08-10T11:27:05Z</time>
      </trkpt>
      <trkpt lat="41.8382025417" lon="-5.8893223945">
        <ele>729.30</ele>
        <time>2020-08-10T11:27:31Z</time>
      </trkpt>
      <trkpt lat="41.8382120971" lon="-5.8893268369">
        <ele>728.34</ele>
        <time>2020-08-10T11:27:51Z</time>
      </trkpt>
      <trkpt lat="41.8382065650" lon="-5.8893096540">
        <ele>727.37</ele>
        <time>2020-08-10T11:28:08Z</time>
      </trkpt>
      <trkpt lat="41.8382006139" lon="-5.8893189579">
        <ele>727.37</ele>
        <time>2020-08-10T11:28:29Z</time>
      </trkpt>
      <trkpt lat="41.8382094987" lon="-5.8893178683">
        <ele>727.86</ele>
        <time>2020-08-10T11:28:55Z</time>
      </trkpt>
      <trkpt lat="41.8381909747" lon="-5.8893031999">
        <ele>727.37</ele>
        <time>2020-08-10T11:29:21Z</time>
      </trkpt>
      <trkpt lat="41.8381931540" lon="-5.8892970812">
        <ele>730.26</ele>
        <time>2020-08-10T11:29:41Z</time>
      </trkpt>
      <trkpt lat="41.8381923158" lon="-5.8893293515">
        <ele>730.26</ele>
        <time>2020-08-10T11:30:02Z</time>
      </trkpt>
      <trkpt lat="41.8381964229" lon="-5.8893208858">
        <ele>728.34</ele>
        <time>2020-08-10T11:30:29Z</time>
      </trkpt>
      <trkpt lat="41.8382039666" lon="-5.8893154375">
        <ele>725.93</ele>
        <time>2020-08-10T11:30:53Z</time>
      </trkpt>
      <trkpt lat="41.8382012006" lon="-5.8893374819">
        <ele>726.41</ele>
        <time>2020-08-10T11:31:19Z</time>
      </trkpt>
      <trkpt lat="41.8381946627" lon="-5.8893228974">
        <ele>728.82</ele>
        <time>2020-08-10T11:31:43Z</time>
      </trkpt>
      <trkpt lat="41.8381948303" lon="-5.8893244062">
        <ele>727.37</ele>
        <time>2020-08-10T11:32:04Z</time>
      </trkpt>
      <trkpt lat="41.8382122647" lon="-5.8893291000">
        <ele>726.41</ele>
        <time>2020-08-10T11:32:26Z</time>
      </trkpt>
      <trkpt lat="41.8382051401" lon="-5.8893088158">
        <ele>728.34</ele>
        <time>2020-08-10T11:32:51Z</time>
      </trkpt>
      <trkpt lat="41.8381907232" lon="-5.8892936446">
        <ele>728.34</ele>
        <time>2020-08-10T11:33:11Z</time>
      </trkpt>
      <trkpt lat="41.8381896336" lon="-5.8893030323">
        <ele>726.89</ele>
        <time>2020-08-10T11:33:39Z</time>
      </trkpt>
      <trkpt lat="41.8381902203" lon="-5.8893072233">
        <ele>728.82</ele>
        <time>2020-08-10T11:34:03Z</time>
      </trkpt>
      <trkpt lat="41.8381840177" lon="-5.8893466182">
        <ele>728.82</ele>
        <time>2020-08-10T11:34:24Z</time>
      </trkpt>
      <trkpt lat="41.8381711096" lon="-5.8893245738">
        <ele>729.30</ele>
        <time>2020-08-10T11:34:45Z</time>
      </trkpt>
      <trkpt lat="41.8382157013" lon="-5.8893179521">
        <ele>730.74</ele>
        <time>2020-08-10T11:35:13Z</time>
      </trkpt>
      <trkpt lat="41.8382026255" lon="-5.8893098217">
        <ele>730.26</ele>
        <time>2020-08-10T11:35:38Z</time>
      </trkpt>
      <trkpt lat="41.8382046372" lon="-5.8893122524">
        <ele>730.26</ele>
        <time>2020-08-10T11:36:00Z</time>
      </trkpt>
      <trkpt lat="41.8382083252" lon="-5.8892877772">
        <ele>727.37</ele>
        <time>2020-08-10T11:36:23Z</time>
      </trkpt>
      <trkpt lat="41.8381913099" lon="-5.8892975003">
        <ele>730.74</ele>
        <time>2020-08-10T11:36:46Z</time>
      </trkpt>
      <trkpt lat="41.8381939922" lon="-5.8893165272">
        <ele>729.78</ele>
        <time>2020-08-10T11:37:08Z</time>
      </trkpt>
      <trkpt lat="41.8382019550" lon="-5.8893210534">
        <ele>728.34</ele>
        <time>2020-08-10T11:37:29Z</time>
      </trkpt>
      <trkpt lat="41.8381857779" lon="-5.8892938960">
        <ele>729.30</ele>
        <time>2020-08-10T11:37:47Z</time>
      </trkpt>
      <trkpt lat="41.8381981831" lon="-5.8893058822">
        <ele>728.34</ele>
        <time>2020-08-10T11:38:04Z</time>
      </trkpt>
      <trkpt lat="41.8381744623" lon="-5.8893226460">
        <ele>730.26</ele>
        <time>2020-08-10T11:38:24Z</time>
      </trkpt>
      <trkpt lat="41.8382012006" lon="-5.8893324528">
        <ele>732.18</ele>
        <time>2020-08-10T11:38:44Z</time>
      </trkpt>
      <trkpt lat="41.8381973449" lon="-5.8893184550">
        <ele>732.18</ele>
        <time>2020-08-10T11:39:14Z</time>
      </trkpt>
      <trkpt lat="41.8381938245" lon="-5.8892965782">
        <ele>728.34</ele>
        <time>2020-08-10T11:39:47Z</time>
      </trkpt>
      <trkpt lat="41.8381984346" lon="-5.8893100731">
        <ele>727.86</ele>
        <time>2020-08-10T11:40:03Z</time>
      </trkpt>
      <trkpt lat="41.8381866161" lon="-5.8893112466">
        <ele>729.30</ele>
        <time>2020-08-10T11:40:20Z</time>
      </trkpt>
      <trkpt lat="41.8381885439" lon="-5.8893480431">
        <ele>727.86</ele>
        <time>2020-08-10T11:40:34Z</time>
      </trkpt>
      <trkpt lat="41.8381882086" lon="-5.8893399127">
        <ele>728.34</ele>
        <time>2020-08-10T11:40:50Z</time>
      </trkpt>
      <trkpt lat="41.8382105883" lon="-5.8893415891">
        <ele>727.86</ele>
        <time>2020-08-10T11:41:09Z</time>
      </trkpt>
      <trkpt lat="41.8381914776" lon="-5.8893382363">
        <ele>728.34</ele>
        <time>2020-08-10T11:41:28Z</time>
      </trkpt>
      <trkpt lat="41.8381957524" lon="-5.8893402480">
        <ele>727.37</ele>
        <time>2020-08-10T11:41:43Z</time>
      </trkpt>
      <trkpt lat="41.8382001948" lon="-5.8893330395">
        <ele>726.41</ele>
        <time>2020-08-10T11:41:57Z</time>
      </trkpt>
      <trkpt lat="41.8382056430" lon="-5.8893182874">
        <ele>724.97</ele>
        <time>2020-08-10T11:42:13Z</time>
      </trkpt>
      <trkpt lat="41.8382106721" lon="-5.8893188741">
        <ele>724.01</ele>
        <time>2020-08-10T11:42:28Z</time>
      </trkpt>
      <trkpt lat="41.8382347282" lon="-5.8893482946">
        <ele>723.05</ele>
        <time>2020-08-10T11:42:48Z</time>
      </trkpt>
      <trkpt lat="41.8382302858" lon="-5.8893544972">
        <ele>722.57</ele>
        <time>2020-08-10T11:43:07Z</time>
      </trkpt>
      <trkpt lat="41.8382076547" lon="-5.8893292677">
        <ele>723.53</ele>
        <time>2020-08-10T11:43:20Z</time>
      </trkpt>
      <trkpt lat="41.8382170424" lon="-5.8893342130">
        <ele>722.57</ele>
        <time>2020-08-10T11:43:37Z</time>
      </trkpt>
      <trkpt lat="41.8382264301" lon="-5.8893278427">
        <ele>723.53</ele>
        <time>2020-08-10T11:43:56Z</time>
      </trkpt>
      <trkpt lat="41.8382056430" lon="-5.8893182874">
        <ele>724.49</ele>
        <time>2020-08-10T11:44:13Z</time>
      </trkpt>
      <trkpt lat="41.8382068165" lon="-5.8893213887">
        <ele>725.45</ele>
        <time>2020-08-10T11:44:30Z</time>
      </trkpt>
      <trkpt lat="41.8382023741" lon="-5.8893173654">
        <ele>724.49</ele>
        <time>2020-08-10T11:44:46Z</time>
      </trkpt>
      <trkpt lat="41.8382082414" lon="-5.8893268369">
        <ele>724.01</ele>
        <time>2020-08-10T11:45:07Z</time>
      </trkpt>
      <trkpt lat="41.8382008653" lon="-5.8893140964">
        <ele>723.53</ele>
        <time>2020-08-10T11:45:27Z</time>
      </trkpt>
      <trkpt lat="41.8381895497" lon="-5.8893075585">
        <ele>724.01</ele>
        <time>2020-08-10T11:45:44Z</time>
      </trkpt>
      <trkpt lat="41.8381858617" lon="-5.8893219754">
        <ele>728.82</ele>
        <time>2020-08-10T11:46:00Z</time>
      </trkpt>
      <trkpt lat="41.8381799944" lon="-5.8893378172">
        <ele>728.82</ele>
        <time>2020-08-10T11:46:19Z</time>
      </trkpt>
      <trkpt lat="41.8381974287" lon="-5.8893232327">
        <ele>730.74</ele>
        <time>2020-08-10T11:46:37Z</time>
      </trkpt>
      <trkpt lat="41.8381965067" lon="-5.8893055469">
        <ele>727.86</ele>
        <time>2020-08-10T11:46:56Z</time>
      </trkpt>
      <trkpt lat="41.8381918967" lon="-5.8892983384">
        <ele>724.01</ele>
        <time>2020-08-10T11:47:14Z</time>
      </trkpt>
      <trkpt lat="41.8381844368" lon="-5.8893024456">
        <ele>723.05</ele>
        <time>2020-08-10T11:47:31Z</time>
      </trkpt>
      <trkpt lat="41.8381786533" lon="-5.8892929740">
        <ele>724.97</ele>
        <time>2020-08-10T11:47:49Z</time>
      </trkpt>
      <trkpt lat="41.8381986860" lon="-5.8892885316">
        <ele>725.93</ele>
        <time>2020-08-10T11:48:08Z</time>
      </trkpt>
      <trkpt lat="41.8381815869" lon="-5.8893202152">
        <ele>725.93</ele>
        <time>2020-08-10T11:48:26Z</time>
      </trkpt>
      <trkpt lat="41.8381810840" lon="-5.8893078100">
        <ele>724.01</ele>
        <time>2020-08-10T11:48:44Z</time>
      </trkpt>
      <trkpt lat="41.8381803297" lon="-5.8893096540">
        <ele>725.93</ele>
        <time>2020-08-10T11:49:03Z</time>
      </trkpt>
      <trkpt lat="41.8381795753" lon="-5.8892899565">
        <ele>724.97</ele>
        <time>2020-08-10T11:49:22Z</time>
      </trkpt>
      <trkpt lat="41.8381926510" lon="-5.8893083967">
        <ele>725.93</ele>
        <time>2020-08-10T11:49:43Z</time>
      </trkpt>
      <trkpt lat="41.8382003624" lon="-5.8893310279">
        <ele>726.41</ele>
        <time>2020-08-10T11:50:04Z</time>
      </trkpt>
      <trkpt lat="41.8382018711" lon="-5.8893301897">
        <ele>728.34</ele>
        <time>2020-08-10T11:50:20Z</time>
      </trkpt>
      <trkpt lat="41.8381817546" lon="-5.8893441036">
        <ele>729.30</ele>
        <time>2020-08-10T11:50:36Z</time>
      </trkpt>
      <trkpt lat="41.8381939083" lon="-5.8893410023">
        <ele>726.89</ele>
        <time>2020-08-10T11:51:00Z</time>
      </trkpt>
      <trkpt lat="41.8381846044" lon="-5.8893299382">
        <ele>726.41</ele>
        <time>2020-08-10T11:51:17Z</time>
      </trkpt>
      <trkpt lat="41.8381965067" lon="-5.8893387392">
        <ele>726.41</ele>
        <time>2020-08-10T11:51:35Z</time>
      </trkpt>
      <trkpt lat="41.8382034637" lon="-5.8893109113">
        <ele>725.93</ele>
        <time>2020-08-10T11:51:50Z</time>
      </trkpt>
      <trkpt lat="41.8381862808" lon="-5.8893090673">
        <ele>728.34</ele>
        <time>2020-08-10T11:52:11Z</time>
      </trkpt>
      <trkpt lat="41.8381856102" lon="-5.8893103246">
        <ele>730.26</ele>
        <time>2020-08-10T11:52:30Z</time>
      </trkpt>
      <trkpt lat="41.8382067326" lon="-5.8893262502">
        <ele>729.30</ele>
        <time>2020-08-10T11:52:52Z</time>
      </trkpt>
      <trkpt lat="41.8382200599" lon="-5.8893187903">
        <ele>726.89</ele>
        <time>2020-08-10T11:53:13Z</time>
      </trkpt>
      <trkpt lat="41.8382150307" lon="-5.8893202152">
        <ele>724.97</ele>
        <time>2020-08-10T11:53:36Z</time>
      </trkpt>
      <trkpt lat="41.8382150307" lon="-5.8893325366">
        <ele>724.49</ele>
        <time>2020-08-10T11:53:56Z</time>
      </trkpt>
      <trkpt lat="41.8381918967" lon="-5.8893021103">
        <ele>724.97</ele>
        <time>2020-08-10T11:54:18Z</time>
      </trkpt>
      <trkpt lat="41.8381835986" lon="-5.8893158566">
        <ele>727.37</ele>
        <time>2020-08-10T11:54:41Z</time>
      </trkpt>
      <trkpt lat="41.8382068165" lon="-5.8893082291">
        <ele>726.41</ele>
        <time>2020-08-10T11:55:04Z</time>
      </trkpt>
      <trkpt lat="41.8381970096" lon="-5.8893093187">
        <ele>726.41</ele>
        <time>2020-08-10T11:55:23Z</time>
      </trkpt>
      <trkpt lat="41.8381990213" lon="-5.8892890345">
        <ele>726.89</ele>
        <time>2020-08-10T11:55:41Z</time>
      </trkpt>
      <trkpt lat="41.8381970096" lon="-5.8892880287">
        <ele>725.45</ele>
        <time>2020-08-10T11:55:59Z</time>
      </trkpt>
      <trkpt lat="41.8381906394" lon="-5.8892972488">
        <ele>727.86</ele>
        <time>2020-08-10T11:56:18Z</time>
      </trkpt>
      <trkpt lat="41.8381881248" lon="-5.8892968297">
        <ele>728.82</ele>
        <time>2020-08-10T11:56:42Z</time>
      </trkpt>
      <trkpt lat="41.8382168747" lon="-5.8893206343">
        <ele>731.22</ele>
        <time>2020-08-10T11:56:57Z</time>
      </trkpt>
      <trkpt lat="41.8382034637" lon="-5.8893137611">
        <ele>729.30</ele>
        <time>2020-08-10T11:57:24Z</time>
      </trkpt>
      <trkpt lat="41.8381917290" lon="-5.8893116657">
        <ele>729.30</ele>
        <time>2020-08-10T11:57:46Z</time>
      </trkpt>
      <trkpt lat="41.8381824251" lon="-5.8893433493">
        <ele>729.30</ele>
        <time>2020-08-10T11:58:05Z</time>
      </trkpt>
      <trkpt lat="41.8381942436" lon="-5.8893133420">
        <ele>728.82</ele>
        <time>2020-08-10T11:58:23Z</time>
      </trkpt>
      <trkpt lat="41.8381918967" lon="-5.8893061336">
        <ele>729.78</ele>
        <time>2020-08-10T11:58:38Z</time>
      </trkpt>
      <trkpt lat="41.8381989375" lon="-5.8893172815">
        <ele>728.82</ele>
        <time>2020-08-10T11:59:01Z</time>
      </trkpt>
      <trkpt lat="41.8381981831" lon="-5.8893131744">
        <ele>726.89</ele>
        <time>2020-08-10T11:59:20Z</time>
      </trkpt>
      <trkpt lat="41.8382033799" lon="-5.8893145155">
        <ele>727.37</ele>
        <time>2020-08-10T11:59:44Z</time>
      </trkpt>
      <trkpt lat="41.8381934892" lon="-5.8893324528">
        <ele>728.82</ele>
        <time>2020-08-10T11:59:59Z</time>
      </trkpt>
      <trkpt lat="41.8381822575" lon="-5.8893320337">
        <ele>727.37</ele>
        <time>2020-08-10T12:00:16Z</time>
      </trkpt>
      <trkpt lat="41.8381872866" lon="-5.8893104922">
        <ele>728.82</ele>
        <time>2020-08-10T12:00:33Z</time>
      </trkpt>
      <trkpt lat="41.8382098339" lon="-5.8893153537">
        <ele>728.34</ele>
        <time>2020-08-10T12:00:53Z</time>
      </trkpt>
      <trkpt lat="41.8382084090" lon="-5.8893166110">
        <ele>731.22</ele>
        <time>2020-08-10T12:01:14Z</time>
      </trkpt>
      <trkpt lat="41.8381934892" lon="-5.8893032838">
        <ele>728.82</ele>
        <time>2020-08-10T12:01:35Z</time>
      </trkpt>
      <trkpt lat="41.8381967582" lon="-5.8893109951">
        <ele>726.89</ele>
        <time>2020-08-10T12:01:57Z</time>
      </trkpt>
      <trkpt lat="41.8381966744" lon="-5.8893210534">
        <ele>725.45</ele>
        <time>2020-08-10T12:02:15Z</time>
      </trkpt>
      <trkpt lat="41.8381946627" lon="-5.8893152699">
        <ele>725.93</ele>
        <time>2020-08-10T12:02:33Z</time>
      </trkpt>
      <trkpt lat="41.8381976802" lon="-5.8893171977">
        <ele>727.86</ele>
        <time>2020-08-10T12:02:55Z</time>
      </trkpt>
      <trkpt lat="41.8382093310" lon="-5.8893182874">
        <ele>727.86</ele>
        <time>2020-08-10T12:03:10Z</time>
      </trkpt>
      <trkpt lat="41.8382108398" lon="-5.8893254120">
        <ele>729.78</ele>
        <time>2020-08-10T12:03:34Z</time>
      </trkpt>
      <trkpt lat="41.8382084090" lon="-5.8893353026">
        <ele>730.26</ele>
        <time>2020-08-10T12:03:57Z</time>
      </trkpt>
      <trkpt lat="41.8382017035" lon="-5.8893311117">
        <ele>728.34</ele>
        <time>2020-08-10T12:04:17Z</time>
      </trkpt>
      <trkpt lat="41.8381915614" lon="-5.8893376496">
        <ele>729.30</ele>
        <time>2020-08-10T12:04:39Z</time>
      </trkpt>
      <trkpt lat="41.8381784018" lon="-5.8893262502">
        <ele>730.26</ele>
        <time>2020-08-10T12:04:57Z</time>
      </trkpt>
      <trkpt lat="41.8381913099" lon="-5.8893410023">
        <ele>728.82</ele>
        <time>2020-08-10T12:05:23Z</time>
      </trkpt>
      <trkpt lat="41.8382180482" lon="-5.8893384039">
        <ele>730.74</ele>
        <time>2020-08-10T12:05:53Z</time>
      </trkpt>
      <trkpt lat="41.8382088281" lon="-5.8893056307">
        <ele>727.86</ele>
        <time>2020-08-10T12:06:19Z</time>
      </trkpt>
      <trkpt lat="41.8381804135" lon="-5.8893245738">
        <ele>726.41</ele>
        <time>2020-08-10T12:06:46Z</time>
      </trkpt>
      <trkpt lat="41.8381850235" lon="-5.8893298544">
        <ele>724.49</ele>
        <time>2020-08-10T12:07:16Z</time>
      </trkpt>
      <trkpt lat="41.8381980155" lon="-5.8892938960">
        <ele>724.49</ele>
        <time>2020-08-10T12:07:40Z</time>
      </trkpt>
      <trkpt lat="41.8381929863" lon="-5.8892954886">
        <ele>722.57</ele>
        <time>2020-08-10T12:08:12Z</time>
      </trkpt>
      <trkpt lat="41.8381849397" lon="-5.8892880287">
        <ele>722.09</ele>
        <time>2020-08-10T12:08:35Z</time>
      </trkpt>
      <trkpt lat="41.8381919805" lon="-5.8893167786">
        <ele>723.05</ele>
        <time>2020-08-10T12:09:03Z</time>
      </trkpt>
      <trkpt lat="41.8381950818" lon="-5.8893201314">
        <ele>725.45</ele>
        <time>2020-08-10T12:09:32Z</time>
      </trkpt>
      <trkpt lat="41.8381911423" lon="-5.8893373143">
        <ele>725.93</ele>
        <time>2020-08-10T12:09:51Z</time>
      </trkpt>
      <trkpt lat="41.8381962553" lon="-5.8893089835">
        <ele>729.30</ele>
        <time>2020-08-10T12:10:20Z</time>
      </trkpt>
      <trkpt lat="41.8382033799" lon="-5.8893078100">
        <ele>731.22</ele>
        <time>2020-08-10T12:10:43Z</time>
      </trkpt>
      <trkpt lat="41.8382169586" lon="-5.8893218078">
        <ele>731.22</ele>
        <time>2020-08-10T12:11:12Z</time>
      </trkpt>
      <trkpt lat="41.8382262625" lon="-5.8893275075">
        <ele>731.22</ele>
        <time>2020-08-10T12:11:32Z</time>
      </trkpt>
      <trkpt lat="41.8382132705" lon="-5.8893062174">
        <ele>732.18</ele>
        <time>2020-08-10T12:11:58Z</time>
      </trkpt>
      <trkpt lat="41.8382146955" lon="-5.8893089835">
        <ele>728.82</ele>
        <time>2020-08-10T12:12:22Z</time>
      </trkpt>
      <trkpt lat="41.8382100016" lon="-5.8893281780">
        <ele>726.41</ele>
        <time>2020-08-10T12:12:50Z</time>
      </trkpt>
      <trkpt lat="41.8381991051" lon="-5.8893256634">
        <ele>726.41</ele>
        <time>2020-08-10T12:13:08Z</time>
      </trkpt>
      <trkpt lat="41.8382003624" lon="-5.8893278427">
        <ele>725.45</ele>
        <time>2020-08-10T12:13:26Z</time>
      </trkpt>
      <trkpt lat="41.8381788209" lon="-5.8893165272">
        <ele>724.01</ele>
        <time>2020-08-10T12:13:41Z</time>
      </trkpt>
      <trkpt lat="41.8381848559" lon="-5.8893359732">
        <ele>722.57</ele>
        <time>2020-08-10T12:14:00Z</time>
      </trkpt>
      <trkpt lat="41.8381807487" lon="-5.8893298544">
        <ele>724.49</ele>
        <time>2020-08-10T12:14:18Z</time>
      </trkpt>
      <trkpt lat="41.8381871190" lon="-5.8893426787">
        <ele>727.37</ele>
        <time>2020-08-10T12:14:44Z</time>
      </trkpt>
      <trkpt lat="41.8381947465" lon="-5.8893346321">
        <ele>726.89</ele>
        <time>2020-08-10T12:14:58Z</time>
      </trkpt>
      <trkpt lat="41.8381810002" lon="-5.8893170301">
        <ele>727.86</ele>
        <time>2020-08-10T12:15:13Z</time>
      </trkpt>
      <trkpt lat="41.8381727021" lon="-5.8892958239">
        <ele>729.30</ele>
        <time>2020-08-10T12:15:36Z</time>
      </trkpt>
      <trkpt lat="41.8382050563" lon="-5.8893130068">
        <ele>731.70</ele>
        <time>2020-08-10T12:15:58Z</time>
      </trkpt>
      <trkpt lat="41.8382120132" lon="-5.8893266693">
        <ele>730.74</ele>
        <time>2020-08-10T12:16:14Z</time>
      </trkpt>
      <trkpt lat="41.8382070679" lon="-5.8892927226">
        <ele>726.89</ele>
        <time>2020-08-10T12:16:31Z</time>
      </trkpt>
      <trkpt lat="41.8382094149" lon="-5.8892979193">
        <ele>725.93</ele>
        <time>2020-08-10T12:16:51Z</time>
      </trkpt>
      <trkpt lat="41.8382087443" lon="-5.8893138450">
        <ele>725.93</ele>
        <time>2020-08-10T12:17:06Z</time>
      </trkpt>
      <trkpt lat="41.8382066488" lon="-5.8892899565">
        <ele>726.41</ele>
        <time>2020-08-10T12:17:23Z</time>
      </trkpt>
      <trkpt lat="41.8382199761" lon="-5.8893235680">
        <ele>727.37</ele>
        <time>2020-08-10T12:17:44Z</time>
      </trkpt>
      <trkpt lat="41.8382064812" lon="-5.8893177845">
        <ele>728.34</ele>
        <time>2020-08-10T12:18:02Z</time>
      </trkpt>
      <trkpt lat="41.8381883763" lon="-5.8893306088">
        <ele>728.82</ele>
        <time>2020-08-10T12:18:22Z</time>
      </trkpt>
      <trkpt lat="41.8381820060" lon="-5.8893250767">
        <ele>728.34</ele>
        <time>2020-08-10T12:18:48Z</time>
      </trkpt>
      <trkpt lat="41.8381904718" lon="-5.8892918006">
        <ele>729.78</ele>
        <time>2020-08-10T12:19:10Z</time>
      </trkpt>
      <trkpt lat="41.8381751329" lon="-5.8893074747">
        <ele>725.93</ele>
        <time>2020-08-10T12:19:30Z</time>
      </trkpt>
      <trkpt lat="41.8381831795" lon="-5.8892927226">
        <ele>723.53</ele>
        <time>2020-08-10T12:19:52Z</time>
      </trkpt>
      <trkpt lat="41.8381885439" lon="-5.8892907947">
        <ele>722.57</ele>
        <time>2020-08-10T12:20:11Z</time>
      </trkpt>
      <trkpt lat="41.8381892983" lon="-5.8892783057">
        <ele>722.57</ele>
        <time>2020-08-10T12:20:33Z</time>
      </trkpt>
      <trkpt lat="41.8381994404" lon="-5.8893087320">
        <ele>722.09</ele>
        <time>2020-08-10T12:20:59Z</time>
      </trkpt>
      <trkpt lat="41.8382069841" lon="-5.8892986737">
        <ele>722.09</ele>
        <time>2020-08-10T12:21:18Z</time>
      </trkpt>
      <trkpt lat="41.8381987698" lon="-5.8892936446">
        <ele>722.57</ele>
        <time>2020-08-10T12:21:39Z</time>
      </trkpt>
      <trkpt lat="41.8381825089" lon="-5.8892972488">
        <ele>723.05</ele>
        <time>2020-08-10T12:22:03Z</time>
      </trkpt>
      <trkpt lat="41.8381828442" lon="-5.8892816585">
        <ele>722.57</ele>
        <time>2020-08-10T12:22:23Z</time>
      </trkpt>
      <trkpt lat="41.8381874543" lon="-5.8892961591">
        <ele>721.61</ele>
        <time>2020-08-10T12:22:38Z</time>
      </trkpt>
      <trkpt lat="41.8381712772" lon="-5.8892972488">
        <ele>721.61</ele>
        <time>2020-08-10T12:23:00Z</time>
      </trkpt>
      <trkpt lat="41.8381716125" lon="-5.8892934769">
        <ele>721.61</ele>
        <time>2020-08-10T12:23:28Z</time>
      </trkpt>
      <trkpt lat="41.8381571956" lon="-5.8892897051">
        <ele>720.16</ele>
        <time>2020-08-10T12:24:00Z</time>
      </trkpt>
      <trkpt lat="41.8381737918" lon="-5.8893059660">
        <ele>724.01</ele>
        <time>2020-08-10T12:24:28Z</time>
      </trkpt>
      <trkpt lat="41.8381835148" lon="-5.8893182036">
        <ele>724.97</ele>
        <time>2020-08-10T12:24:55Z</time>
      </trkpt>
      <trkpt lat="41.8381861132" lon="-5.8893362246">
        <ele>726.41</ele>
        <time>2020-08-10T12:25:26Z</time>
      </trkpt>
      <trkpt lat="41.8381806649" lon="-5.8893550839">
        <ele>725.93</ele>
        <time>2020-08-10T12:25:47Z</time>
      </trkpt>
      <trkpt lat="41.8381679244" lon="-5.8893368114">
        <ele>725.93</ele>
        <time>2020-08-10T12:26:10Z</time>
      </trkpt>
      <trkpt lat="41.8381791562" lon="-5.8893476240">
        <ele>724.97</ele>
        <time>2020-08-10T12:26:38Z</time>
      </trkpt>
      <trkpt lat="41.8381752167" lon="-5.8893162757">
        <ele>725.93</ele>
        <time>2020-08-10T12:27:06Z</time>
      </trkpt>
      <trkpt lat="41.8381898850" lon="-5.8893083967">
        <ele>728.82</ele>
        <time>2020-08-10T12:27:29Z</time>
      </trkpt>
      <trkpt lat="41.8381916452" lon="-5.8893198799">
        <ele>729.78</ele>
        <time>2020-08-10T12:27:53Z</time>
      </trkpt>
      <trkpt lat="41.8381939083" lon="-5.8893259987">
        <ele>727.37</ele>
        <time>2020-08-10T12:28:13Z</time>
      </trkpt>
      <trkpt lat="41.8381949980" lon="-5.8893302735">
        <ele>729.30</ele>
        <time>2020-08-10T12:28:33Z</time>
      </trkpt>
      <trkpt lat="41.8381778151" lon="-5.8893313631">
        <ele>725.45</ele>
        <time>2020-08-10T12:28:59Z</time>
      </trkpt>
      <trkpt lat="41.8381907232" lon="-5.8893288486">
        <ele>724.97</ele>
        <time>2020-08-10T12:29:14Z</time>
      </trkpt>
      <trkpt lat="41.8381898850" lon="-5.8893159404">
        <ele>725.93</ele>
        <time>2020-08-10T12:29:31Z</time>
      </trkpt>
      <trkpt lat="41.8381728698" lon="-5.8893011045">
        <ele>724.97</ele>
        <time>2020-08-10T12:29:47Z</time>
      </trkpt>
      <trkpt lat="41.8381760549" lon="-5.8893033676">
        <ele>723.05</ele>
        <time>2020-08-10T12:30:07Z</time>
      </trkpt>
      <trkpt lat="41.8381830957" lon="-5.8893047925">
        <ele>722.09</ele>
        <time>2020-08-10T12:30:23Z</time>
      </trkpt>
      <trkpt lat="41.8381835148" lon="-5.8893068042">
        <ele>722.57</ele>
        <time>2020-08-10T12:30:38Z</time>
      </trkpt>
      <trkpt lat="41.8381877057" lon="-5.8893065527">
        <ele>722.09</ele>
        <time>2020-08-10T12:30:49Z</time>
      </trkpt>
      <trkpt lat="41.8381827604" lon="-5.8893025294">
        <ele>722.57</ele>
        <time>2020-08-10T12:31:04Z</time>
      </trkpt>
      <trkpt lat="41.8381793238" lon="-5.8892712649">
        <ele>722.09</ele>
        <time>2020-08-10T12:31:18Z</time>
      </trkpt>
      <trkpt lat="41.8381823413" lon="-5.8892736118">
        <ele>721.61</ele>
        <time>2020-08-10T12:31:28Z</time>
      </trkpt>
      <trkpt lat="41.8381928187" lon="-5.8892973326">
        <ele>722.09</ele>
        <time>2020-08-10T12:31:47Z</time>
      </trkpt>
      <trkpt lat="41.8381863646" lon="-5.8892804012">
        <ele>722.57</ele>
        <time>2020-08-10T12:32:05Z</time>
      </trkpt>
      <trkpt lat="41.8381832633" lon="-5.8892965782">
        <ele>723.05</ele>
        <time>2020-08-10T12:32:18Z</time>
      </trkpt>
      <trkpt lat="41.8381674215" lon="-5.8893182874">
        <ele>723.05</ele>
        <time>2020-08-10T12:32:34Z</time>
      </trkpt>
      <trkpt lat="41.8381751329" lon="-5.8893406671">
        <ele>724.49</ele>
        <time>2020-08-10T12:32:50Z</time>
      </trkpt>
      <trkpt lat="41.8381975964" lon="-5.8893406671">
        <ele>723.53</ele>
        <time>2020-08-10T12:33:02Z</time>
      </trkpt>
      <trkpt lat="41.8381912261" lon="-5.8893380687">
        <ele>723.53</ele>
        <time>2020-08-10T12:33:19Z</time>
      </trkpt>
      <trkpt lat="41.8381788209" lon="-5.8893075585">
        <ele>723.53</ele>
        <time>2020-08-10T12:33:34Z</time>
      </trkpt>
      <trkpt lat="41.8381720316" lon="-5.8893208858">
        <ele>723.53</ele>
        <time>2020-08-10T12:33:44Z</time>
      </trkpt>
      <trkpt lat="41.8381717801" lon="-5.8893251605">
        <ele>724.01</ele>
        <time>2020-08-10T12:33:58Z</time>
      </trkpt>
      <trkpt lat="41.8381619733" lon="-5.8893223107">
        <ele>722.57</ele>
        <time>2020-08-10T12:34:18Z</time>
      </trkpt>
      <trkpt lat="41.8381728698" lon="-5.8892999310">
        <ele>722.09</ele>
        <time>2020-08-10T12:34:30Z</time>
      </trkpt>
      <trkpt lat="41.8381742109" lon="-5.8893085644">
        <ele>723.53</ele>
        <time>2020-08-10T12:34:46Z</time>
      </trkpt>
      <trkpt lat="41.8381696846" lon="-5.8893202152">
        <ele>724.97</ele>
        <time>2020-08-10T12:35:00Z</time>
      </trkpt>
      <trkpt lat="41.8381690979" lon="-5.8893207181">
        <ele>724.01</ele>
        <time>2020-08-10T12:35:18Z</time>
      </trkpt>
      <trkpt lat="41.8381737918" lon="-5.8893148508">
        <ele>722.57</ele>
        <time>2020-08-10T12:35:34Z</time>
      </trkpt>
      <trkpt lat="41.8381802458" lon="-5.8893137611">
        <ele>722.09</ele>
        <time>2020-08-10T12:35:48Z</time>
      </trkpt>
      <trkpt lat="41.8381864484" lon="-5.8892982546">
        <ele>722.09</ele>
        <time>2020-08-10T12:36:00Z</time>
      </trkpt>
      <trkpt lat="41.8381782342" lon="-5.8892853465">
        <ele>721.61</ele>
        <time>2020-08-10T12:36:16Z</time>
      </trkpt>
      <trkpt lat="41.8381712772" lon="-5.8892865200">
        <ele>721.61</ele>
        <time>2020-08-10T12:36:32Z</time>
      </trkpt>
      <trkpt lat="41.8381619733" lon="-5.8893303573">
        <ele>722.09</ele>
        <time>2020-08-10T12:36:52Z</time>
      </trkpt>
      <trkpt lat="41.8381615542" lon="-5.8892979193">
        <ele>722.09</ele>
        <time>2020-08-10T12:37:09Z</time>
      </trkpt>
      <trkpt lat="41.8381665833" lon="-5.8893150184">
        <ele>722.57</ele>
        <time>2020-08-10T12:37:23Z</time>
      </trkpt>
      <trkpt lat="41.8381586205" lon="-5.8892841730">
        <ele>722.09</ele>
        <time>2020-08-10T12:37:41Z</time>
      </trkpt>
      <trkpt lat="41.8381688464" lon="-5.8892690856">
        <ele>721.13</ele>
        <time>2020-08-10T12:37:55Z</time>
      </trkpt>
      <trkpt lat="41.8381570280" lon="-5.8893252444">
        <ele>722.09</ele>
        <time>2020-08-10T12:38:11Z</time>
      </trkpt>
      <trkpt lat="41.8381592911" lon="-5.8893186226">
        <ele>721.61</ele>
        <time>2020-08-10T12:38:21Z</time>
      </trkpt>
      <trkpt lat="41.8381660804" lon="-5.8892936446">
        <ele>722.09</ele>
        <time>2020-08-10T12:38:38Z</time>
      </trkpt>
      <trkpt lat="41.8381551001" lon="-5.8892855980">
        <ele>722.57</ele>
        <time>2020-08-10T12:38:50Z</time>
      </trkpt>
      <trkpt lat="41.8381566927" lon="-5.8892657328">
        <ele>723.05</ele>
        <time>2020-08-10T12:39:04Z</time>
      </trkpt>
      <trkpt lat="41.8381746300" lon="-5.8892839216">
        <ele>724.01</ele>
        <time>2020-08-10T12:39:19Z</time>
      </trkpt>
      <trkpt lat="41.8381915614" lon="-5.8892938960">
        <ele>725.45</ele>
        <time>2020-08-10T12:39:36Z</time>
      </trkpt>
      <trkpt lat="41.8381911423" lon="-5.8893070556">
        <ele>725.93</ele>
        <time>2020-08-10T12:39:47Z</time>
      </trkpt>
      <trkpt lat="41.8382207304" lon="-5.8893080615">
        <ele>725.93</ele>
        <time>2020-08-10T12:39:51Z</time>
      </trkpt>
      <trkpt lat="41.8382606283" lon="-5.8893125877">
        <ele>725.93</ele>
        <time>2020-08-10T12:39:54Z</time>
      </trkpt>
      <trkpt lat="41.8383121770" lon="-5.8893834148">
        <ele>725.45</ele>
        <time>2020-08-10T12:39:58Z</time>
      </trkpt>
      <trkpt lat="41.8383452855" lon="-5.8895697445">
        <ele>724.97</ele>
        <time>2020-08-10T12:40:06Z</time>
      </trkpt>
      <trkpt lat="41.8383686710" lon="-5.8895984106">
        <ele>724.97</ele>
        <time>2020-08-10T12:40:07Z</time>
      </trkpt>
      <trkpt lat="41.8383854348" lon="-5.8896207064">
        <ele>724.97</ele>
        <time>2020-08-10T12:40:08Z</time>
      </trkpt>
      <trkpt lat="41.8384364806" lon="-5.8897426631">
        <ele>724.49</ele>
        <time>2020-08-10T12:40:12Z</time>
      </trkpt>
      <trkpt lat="41.8384348880" lon="-5.8897726703">
        <ele>724.97</ele>
        <time>2020-08-10T12:40:13Z</time>
      </trkpt>
      <trkpt lat="41.8383484706" lon="-5.8901244588">
        <ele>724.97</ele>
        <time>2020-08-10T12:40:22Z</time>
      </trkpt>
      <trkpt lat="41.8382043857" lon="-5.8905496728">
        <ele>725.93</ele>
        <time>2020-08-10T12:40:34Z</time>
      </trkpt>
      <trkpt lat="41.8380571157" lon="-5.8909800835">
        <ele>726.41</ele>
        <time>2020-08-10T12:40:46Z</time>
      </trkpt>
      <trkpt lat="41.8379235920" lon="-5.8913216460">
        <ele>726.41</ele>
        <time>2020-08-10T12:40:56Z</time>
      </trkpt>
      <trkpt lat="41.8377588876" lon="-5.8916865103">
        <ele>725.93</ele>
        <time>2020-08-10T12:41:06Z</time>
      </trkpt>
      <trkpt lat="41.8376062531" lon="-5.8919747639">
        <ele>725.45</ele>
        <time>2020-08-10T12:41:14Z</time>
      </trkpt>
      <trkpt lat="41.8374072667" lon="-5.8922728244">
        <ele>724.97</ele>
        <time>2020-08-10T12:41:23Z</time>
      </trkpt>
      <trkpt lat="41.8371798657" lon="-5.8925704658">
        <ele>723.53</ele>
        <time>2020-08-10T12:41:31Z</time>
      </trkpt>
      <trkpt lat="41.8368574977" lon="-5.8929261938">
        <ele>721.13</ele>
        <time>2020-08-10T12:41:39Z</time>
      </trkpt>
      <trkpt lat="41.8363640551" lon="-5.8934113383">
        <ele>717.76</ele>
        <time>2020-08-10T12:41:48Z</time>
      </trkpt>
      <trkpt lat="41.8357633241" lon="-5.8939942159">
        <ele>713.44</ele>
        <time>2020-08-10T12:41:57Z</time>
      </trkpt>
      <trkpt lat="41.8350430671" lon="-5.8947405405">
        <ele>708.63</ele>
        <time>2020-08-10T12:42:07Z</time>
      </trkpt>
      <trkpt lat="41.8346559908" lon="-5.8952751383">
        <ele>707.67</ele>
        <time>2020-08-10T12:42:14Z</time>
      </trkpt>
      <trkpt lat="41.8343963195" lon="-5.8957081474">
        <ele>707.67</ele>
        <time>2020-08-10T12:42:21Z</time>
      </trkpt>
      <trkpt lat="41.8341389950" lon="-5.8962570783">
        <ele>708.63</ele>
        <time>2020-08-10T12:42:31Z</time>
      </trkpt>
      <trkpt lat="41.8339833431" lon="-5.8966661990">
        <ele>709.11</ele>
        <time>2020-08-10T12:42:39Z</time>
      </trkpt>
      <trkpt lat="41.8338259310" lon="-5.8971749805">
        <ele>709.59</ele>
        <time>2020-08-10T12:42:49Z</time>
      </trkpt>
      <trkpt lat="41.8337127753" lon="-5.8976522461">
        <ele>710.07</ele>
        <time>2020-08-10T12:42:58Z</time>
      </trkpt>
      <trkpt lat="41.8335834425" lon="-5.8983405679">
        <ele>710.07</ele>
        <time>2020-08-10T12:43:11Z</time>
      </trkpt>
      <trkpt lat="41.8334738072" lon="-5.8989987150">
        <ele>710.07</ele>
        <time>2020-08-10T12:43:23Z</time>
      </trkpt>
      <trkpt lat="41.8333902396" lon="-5.8995292895">
        <ele>711.03</ele>
        <time>2020-08-10T12:43:33Z</time>
      </trkpt>
      <trkpt lat="41.8333075941" lon="-5.9000429325">
        <ele>710.55</ele>
        <time>2020-08-10T12:43:43Z</time>
      </trkpt>
      <trkpt lat="41.8332310673" lon="-5.9005091339">
        <ele>711.03</ele>
        <time>2020-08-10T12:43:52Z</time>
      </trkpt>
      <trkpt lat="41.8331310712" lon="-5.9011361003">
        <ele>710.55</ele>
        <time>2020-08-10T12:44:04Z</time>
      </trkpt>
      <trkpt lat="41.8330495991" lon="-5.9016297106">
        <ele>710.55</ele>
        <time>2020-08-10T12:44:13Z</time>
      </trkpt>
      <trkpt lat="41.8329506926" lon="-5.9022327885">
        <ele>711.03</ele>
        <time>2020-08-10T12:44:24Z</time>
      </trkpt>
      <trkpt lat="41.8328620959" lon="-5.9027599264">
        <ele>710.55</ele>
        <time>2020-08-10T12:44:34Z</time>
      </trkpt>
      <trkpt lat="41.8327701464" lon="-5.9033383615">
        <ele>710.55</ele>
        <time>2020-08-10T12:44:45Z</time>
      </trkpt>
      <trkpt lat="41.8326922785" lon="-5.9038053174">
        <ele>711.03</ele>
        <time>2020-08-10T12:44:54Z</time>
      </trkpt>
      <trkpt lat="41.8326006643" lon="-5.9043751191">
        <ele>711.51</ele>
        <time>2020-08-10T12:45:05Z</time>
      </trkpt>
      <trkpt lat="41.8325201143" lon="-5.9048941266">
        <ele>711.03</ele>
        <time>2020-08-10T12:45:15Z</time>
      </trkpt>
      <trkpt lat="41.8324177712" lon="-5.9055298101">
        <ele>711.03</ele>
        <time>2020-08-10T12:45:27Z</time>
      </trkpt>
      <trkpt lat="41.8323288392" lon="-5.9060613904">
        <ele>711.99</ele>
        <time>2020-08-10T12:45:37Z</time>
      </trkpt>
      <trkpt lat="41.8322319444" lon="-5.9065377340">
        <ele>711.99</ele>
        <time>2020-08-10T12:45:46Z</time>
      </trkpt>
      <trkpt lat="41.8320772145" lon="-5.9070547298">
        <ele>711.51</ele>
        <time>2020-08-10T12:45:56Z</time>
      </trkpt>
      <trkpt lat="41.8318784796" lon="-5.9075703006">
        <ele>711.51</ele>
        <time>2020-08-10T12:46:06Z</time>
      </trkpt>
      <trkpt lat="41.8316695187" lon="-5.9081518371">
        <ele>712.47</ele>
        <time>2020-08-10T12:46:18Z</time>
      </trkpt>
      <trkpt lat="41.8315551057" lon="-5.9085686691">
        <ele>713.44</ele>
        <time>2020-08-10T12:46:27Z</time>
      </trkpt>
      <trkpt lat="41.8314449675" lon="-5.9090385586">
        <ele>714.40</ele>
        <time>2020-08-10T12:46:37Z</time>
      </trkpt>
      <trkpt lat="41.8313225918" lon="-5.9095947817">
        <ele>714.40</ele>
        <time>2020-08-10T12:46:48Z</time>
      </trkpt>
      <trkpt lat="41.8312216736" lon="-5.9100850392">
        <ele>714.40</ele>
        <time>2020-08-10T12:46:58Z</time>
      </trkpt>
      <trkpt lat="41.8311028183" lon="-5.9106244985">
        <ele>713.44</ele>
        <time>2020-08-10T12:47:08Z</time>
      </trkpt>
      <trkpt lat="41.8309822865" lon="-5.9111922886">
        <ele>712.95</ele>
        <time>2020-08-10T12:47:18Z</time>
      </trkpt>
      <trkpt lat="41.8308620062" lon="-5.9117366932">
        <ele>712.95</ele>
        <time>2020-08-10T12:47:28Z</time>
      </trkpt>
      <trkpt lat="41.8307324219" lon="-5.9122978617">
        <ele>712.95</ele>
        <time>2020-08-10T12:47:39Z</time>
      </trkpt>
      <trkpt lat="41.8306321744" lon="-5.9127418511">
        <ele>713.44</ele>
        <time>2020-08-10T12:47:48Z</time>
      </trkpt>
      <trkpt lat="41.8304879218" lon="-5.9134444222">
        <ele>713.44</ele>
        <time>2020-08-10T12:48:02Z</time>
      </trkpt>
      <trkpt lat="41.8303503748" lon="-5.9140409622">
        <ele>713.92</ele>
        <time>2020-08-10T12:48:14Z</time>
      </trkpt>
      <trkpt lat="41.8302476965" lon="-5.9145142883">
        <ele>713.92</ele>
        <time>2020-08-10T12:48:24Z</time>
      </trkpt>
      <trkpt lat="41.8301368039" lon="-5.9150344692">
        <ele>713.92</ele>
        <time>2020-08-10T12:48:35Z</time>
      </trkpt>
      <trkpt lat="41.8300715089" lon="-5.9153241478">
        <ele>714.40</ele>
        <time>2020-08-10T12:48:42Z</time>
      </trkpt>
      <trkpt lat="41.8299915455" lon="-5.9156951308">
        <ele>715.36</ele>
        <time>2020-08-10T12:48:52Z</time>
      </trkpt>
      <trkpt lat="41.8299198803" lon="-5.9160252102">
        <ele>715.84</ele>
        <time>2020-08-10T12:49:01Z</time>
      </trkpt>
      <trkpt lat="41.8298500590" lon="-5.9163369332">
        <ele>716.80</ele>
        <time>2020-08-10T12:49:10Z</time>
      </trkpt>
      <trkpt lat="41.8297930621" lon="-5.9166048188">
        <ele>717.76</ele>
        <time>2020-08-10T12:49:18Z</time>
      </trkpt>
      <trkpt lat="41.8297310360" lon="-5.9168737940">
        <ele>718.24</ele>
        <time>2020-08-10T12:49:26Z</time>
      </trkpt>
      <trkpt lat="41.8296512403" lon="-5.9172193799">
        <ele>719.68</ele>
        <time>2020-08-10T12:49:36Z</time>
      </trkpt>
      <trkpt lat="41.8295730371" lon="-5.9175885189">
        <ele>720.16</ele>
        <time>2020-08-10T12:49:46Z</time>
      </trkpt>
      <trkpt lat="41.8294890504" lon="-5.9179517906">
        <ele>720.65</ele>
        <time>2020-08-10T12:49:56Z</time>
      </trkpt>
      <trkpt lat="41.8294236716" lon="-5.9182571433">
        <ele>720.65</ele>
        <time>2020-08-10T12:50:04Z</time>
      </trkpt>
      <trkpt lat="41.8293525930" lon="-5.9185997117">
        <ele>721.13</ele>
        <time>2020-08-10T12:50:13Z</time>
      </trkpt>
      <trkpt lat="41.8292601407" lon="-5.9190315474">
        <ele>721.61</ele>
        <time>2020-08-10T12:50:24Z</time>
      </trkpt>
      <trkpt lat="41.8291662633" lon="-5.9194591083">
        <ele>721.61</ele>
        <time>2020-08-10T12:50:34Z</time>
      </trkpt>
      <trkpt lat="41.8290842045" lon="-5.9198573325">
        <ele>721.61</ele>
        <time>2020-08-10T12:50:42Z</time>
      </trkpt>
      <trkpt lat="41.8289652653" lon="-5.9204097837">
        <ele>721.13</ele>
        <time>2020-08-10T12:50:53Z</time>
      </trkpt>
      <trkpt lat="41.8288551271" lon="-5.9209200740">
        <ele>721.13</ele>
        <time>2020-08-10T12:51:03Z</time>
      </trkpt>
      <trkpt lat="41.8287356850" lon="-5.9214599524">
        <ele>721.61</ele>
        <time>2020-08-10T12:51:15Z</time>
      </trkpt>
      <trkpt lat="41.8286764249" lon="-5.9217353817">
        <ele>721.61</ele>
        <time>2020-08-10T12:51:24Z</time>
      </trkpt>
      <trkpt lat="41.8286598288" lon="-5.9218118247">
        <ele>722.57</ele>
        <time>2020-08-10T12:51:30Z</time>
      </trkpt>
      <trkpt lat="41.8286634330" lon="-5.9218309354">
        <ele>721.61</ele>
        <time>2020-08-10T12:51:46Z</time>
      </trkpt>
      <trkpt lat="41.8286470044" lon="-5.9218119923">
        <ele>720.65</ele>
        <time>2020-08-10T12:52:03Z</time>
      </trkpt>
      <trkpt lat="41.8286589906" lon="-5.9218145907">
        <ele>720.65</ele>
        <time>2020-08-10T12:52:20Z</time>
      </trkpt>
      <trkpt lat="41.8286650255" lon="-5.9218052030">
        <ele>721.61</ele>
        <time>2020-08-10T12:52:35Z</time>
      </trkpt>
      <trkpt lat="41.8286550511" lon="-5.9218389820">
        <ele>721.61</ele>
        <time>2020-08-10T12:52:45Z</time>
      </trkpt>
      <trkpt lat="41.8286450766" lon="-5.9218694083">
        <ele>722.09</ele>
        <time>2020-08-10T12:52:52Z</time>
      </trkpt>
      <trkpt lat="41.8286393769" lon="-5.9218881000">
        <ele>722.09</ele>
        <time>2020-08-10T12:52:53Z</time>
      </trkpt>
      <trkpt lat="41.8286355212" lon="-5.9219123237">
        <ele>722.09</ele>
        <time>2020-08-10T12:52:54Z</time>
      </trkpt>
      <trkpt lat="41.8285763450" lon="-5.9221755993">
        <ele>722.57</ele>
        <time>2020-08-10T12:53:02Z</time>
      </trkpt>
      <trkpt lat="41.8284724932" lon="-5.9226306528">
        <ele>723.53</ele>
        <time>2020-08-10T12:53:13Z</time>
      </trkpt>
      <trkpt lat="41.8283834774" lon="-5.9230166394">
        <ele>723.53</ele>
        <time>2020-08-10T12:53:22Z</time>
      </trkpt>
      <trkpt lat="41.8282740097" lon="-5.9235063940">
        <ele>724.49</ele>
        <time>2020-08-10T12:53:33Z</time>
      </trkpt>
      <trkpt lat="41.8281761091" lon="-5.9239478689">
        <ele>724.49</ele>
        <time>2020-08-10T12:53:43Z</time>
      </trkpt>
      <trkpt lat="41.8280567508" lon="-5.9244971350">
        <ele>724.97</ele>
        <time>2020-08-10T12:53:55Z</time>
      </trkpt>
      <trkpt lat="41.8279517256" lon="-5.9249581397">
        <ele>725.45</ele>
        <time>2020-08-10T12:54:05Z</time>
      </trkpt>
      <trkpt lat="41.8278571777" lon="-5.9253857844">
        <ele>725.45</ele>
        <time>2020-08-10T12:54:14Z</time>
      </trkpt>
      <trkpt lat="41.8277645577" lon="-5.9258109145">
        <ele>725.45</ele>
        <time>2020-08-10T12:54:23Z</time>
      </trkpt>
      <trkpt lat="41.8276658189" lon="-5.9262121562">
        <ele>725.45</ele>
        <time>2020-08-10T12:54:32Z</time>
      </trkpt>
      <trkpt lat="41.8275706843" lon="-5.9266649466">
        <ele>725.93</ele>
        <time>2020-08-10T12:54:42Z</time>
      </trkpt>
      <trkpt lat="41.8274693470" lon="-5.9271140490">
        <ele>725.93</ele>
        <time>2020-08-10T12:54:52Z</time>
      </trkpt>
      <trkpt lat="41.8273632322" lon="-5.9275824297">
        <ele>726.89</ele>
        <time>2020-08-10T12:55:02Z</time>
      </trkpt>
      <trkpt lat="41.8272889685" lon="-5.9279161133">
        <ele>727.37</ele>
        <time>2020-08-10T12:55:10Z</time>
      </trkpt>
      <trkpt lat="41.8272399344" lon="-5.9281545784">
        <ele>728.34</ele>
        <time>2020-08-10T12:55:17Z</time>
      </trkpt>
      <trkpt lat="41.8271541037" lon="-5.9285450075">
        <ele>729.30</ele>
        <time>2020-08-10T12:55:29Z</time>
      </trkpt>
      <trkpt lat="41.8270978611" lon="-5.9288009908">
        <ele>730.26</ele>
        <time>2020-08-10T12:55:37Z</time>
      </trkpt>
      <trkpt lat="41.8270164728" lon="-5.9291534498">
        <ele>731.70</ele>
        <time>2020-08-10T12:55:48Z</time>
      </trkpt>
      <trkpt lat="41.8269672710" lon="-5.9293663502">
        <ele>733.14</ele>
        <time>2020-08-10T12:55:55Z</time>
      </trkpt>
      <trkpt lat="41.8269148003" lon="-5.9295837767">
        <ele>734.58</ele>
        <time>2020-08-10T12:56:02Z</time>
      </trkpt>
      <trkpt lat="41.8268609885" lon="-5.9298311267">
        <ele>735.07</ele>
        <time>2020-08-10T12:56:10Z</time>
      </trkpt>
      <trkpt lat="41.8268306460" lon="-5.9299851023">
        <ele>735.55</ele>
        <time>2020-08-10T12:56:16Z</time>
      </trkpt>
      <trkpt lat="41.8267842103" lon="-5.9302023612">
        <ele>736.51</ele>
        <time>2020-08-10T12:56:23Z</time>
      </trkpt>
      <trkpt lat="41.8267310690" lon="-5.9304322768">
        <ele>737.95</ele>
        <time>2020-08-10T12:56:31Z</time>
      </trkpt>
      <trkpt lat="41.8266626727" lon="-5.9307348635">
        <ele>739.39</ele>
        <time>2020-08-10T12:56:42Z</time>
      </trkpt>
      <trkpt lat="41.8265962042" lon="-5.9310090356">
        <ele>741.31</ele>
        <time>2020-08-10T12:56:52Z</time>
      </trkpt>
      <trkpt lat="41.8265533727" lon="-5.9312151466">
        <ele>742.28</ele>
        <time>2020-08-10T12:56:59Z</time>
      </trkpt>
      <trkpt lat="41.8264952861" lon="-5.9315340780">
        <ele>742.28</ele>
        <time>2020-08-10T12:57:08Z</time>
      </trkpt>
      <trkpt lat="41.8264103774" lon="-5.9319047257">
        <ele>742.76</ele>
        <time>2020-08-10T12:57:17Z</time>
      </trkpt>
      <trkpt lat="41.8263305817" lon="-5.9322889522">
        <ele>742.76</ele>
        <time>2020-08-10T12:57:26Z</time>
      </trkpt>
      <trkpt lat="41.8262461759" lon="-5.9326506313">
        <ele>740.83</ele>
        <time>2020-08-10T12:57:33Z</time>
      </trkpt>
      <trkpt lat="41.8261310086" lon="-5.9331660345">
        <ele>737.95</ele>
        <time>2020-08-10T12:57:40Z</time>
      </trkpt>
      <trkpt lat="41.8259590119" lon="-5.9339489043">
        <ele>734.58</ele>
        <time>2020-08-10T12:57:48Z</time>
      </trkpt>
      <trkpt lat="41.8257314432" lon="-5.9350014199">
        <ele>731.70</ele>
        <time>2020-08-10T12:57:58Z</time>
      </trkpt>
      <trkpt lat="41.8256083969" lon="-5.9355317429">
        <ele>732.18</ele>
        <time>2020-08-10T12:58:04Z</time>
      </trkpt>
      <trkpt lat="41.8255097419" lon="-5.9359762352">
        <ele>732.18</ele>
        <time>2020-08-10T12:58:11Z</time>
      </trkpt>
      <trkpt lat="41.8253963348" lon="-5.9364777245">
        <ele>733.14</ele>
        <time>2020-08-10T12:58:20Z</time>
      </trkpt>
      <trkpt lat="41.8252655771" lon="-5.9370530583">
        <ele>733.14</ele>
        <time>2020-08-10T12:58:31Z</time>
      </trkpt>
      <trkpt lat="41.8251486495" lon="-5.9375445731">
        <ele>733.14</ele>
        <time>2020-08-10T12:58:41Z</time>
      </trkpt>
      <trkpt lat="41.8250435404" lon="-5.9380049072">
        <ele>732.66</ele>
        <time>2020-08-10T12:58:51Z</time>
      </trkpt>
      <trkpt lat="41.8249442149" lon="-5.9384569433">
        <ele>732.18</ele>
        <time>2020-08-10T12:59:01Z</time>
      </trkpt>
      <trkpt lat="41.8248594739" lon="-5.9388203826">
        <ele>732.66</ele>
        <time>2020-08-10T12:59:11Z</time>
      </trkpt>
      <trkpt lat="41.8248533551" lon="-5.9388830792">
        <ele>733.14</ele>
        <time>2020-08-10T12:59:13Z</time>
      </trkpt>
      <trkpt lat="41.8248606473" lon="-5.9389099851">
        <ele>733.14</ele>
        <time>2020-08-10T12:59:14Z</time>
      </trkpt>
      <trkpt lat="41.8248738907" lon="-5.9389382321">
        <ele>733.62</ele>
        <time>2020-08-10T12:59:15Z</time>
      </trkpt>
      <trkpt lat="41.8248903193" lon="-5.9389590193">
        <ele>733.62</ele>
        <time>2020-08-10T12:59:16Z</time>
      </trkpt>
      <trkpt lat="41.8249054905" lon="-5.9389660601">
        <ele>733.62</ele>
        <time>2020-08-10T12:59:17Z</time>
      </trkpt>
      <trkpt lat="41.8249241821" lon="-5.9389702510">
        <ele>733.62</ele>
        <time>2020-08-10T12:59:18Z</time>
      </trkpt>
      <trkpt lat="41.8249684386" lon="-5.9389784653">
        <ele>734.58</ele>
        <time>2020-08-10T12:59:24Z</time>
      </trkpt>
      <trkpt lat="41.8249510881" lon="-5.9389896970">
        <ele>736.03</ele>
        <time>2020-08-10T12:59:35Z</time>
      </trkpt>
      <trkpt lat="41.8249640800" lon="-5.9389815666">
        <ele>737.95</ele>
        <time>2020-08-10T12:59:58Z</time>
      </trkpt>
      <trkpt lat="41.8249640800" lon="-5.9389822371">
        <ele>740.83</ele>
        <time>2020-08-10T13:00:18Z</time>
      </trkpt>
      <trkpt lat="41.8249434605" lon="-5.9389684908">
        <ele>740.35</ele>
        <time>2020-08-10T13:00:47Z</time>
      </trkpt>
      <trkpt lat="41.8249373417" lon="-5.9389672335">
        <ele>738.91</ele>
        <time>2020-08-10T13:01:07Z</time>
      </trkpt>
      <trkpt lat="41.8249489926" lon="-5.9389551636">
        <ele>738.91</ele>
        <time>2020-08-10T13:01:25Z</time>
      </trkpt>
      <trkpt lat="41.8249506690" lon="-5.9389292635">
        <ele>737.95</ele>
        <time>2020-08-10T13:01:48Z</time>
      </trkpt>
      <trkpt lat="41.8249478191" lon="-5.9389463626">
        <ele>737.95</ele>
        <time>2020-08-10T13:02:08Z</time>
      </trkpt>
      <trkpt lat="41.8249587994" lon="-5.9389731847">
        <ele>739.39</ele>
        <time>2020-08-10T13:02:27Z</time>
      </trkpt>
      <trkpt lat="41.8249630742" lon="-5.9389789682">
        <ele>738.91</ele>
        <time>2020-08-10T13:02:47Z</time>
      </trkpt>
      <trkpt lat="41.8249479029" lon="-5.9389627073">
        <ele>737.95</ele>
        <time>2020-08-10T13:03:18Z</time>
      </trkpt>
      <trkpt lat="41.8249485735" lon="-5.9389441833">
        <ele>738.43</ele>
        <time>2020-08-10T13:03:42Z</time>
      </trkpt>
      <trkpt lat="41.8249499146" lon="-5.9389668144">
        <ele>739.39</ele>
        <time>2020-08-10T13:04:11Z</time>
      </trkpt>
      <trkpt lat="41.8249481544" lon="-5.9389664792">
        <ele>738.91</ele>
        <time>2020-08-10T13:04:17Z</time>
      </trkpt>
      <trkpt lat="41.8249004614" lon="-5.9389569238">
        <ele>738.43</ele>
        <time>2020-08-10T13:04:24Z</time>
      </trkpt>
      <trkpt lat="41.8248905707" lon="-5.9389546607">
        <ele>737.95</ele>
        <time>2020-08-10T13:04:25Z</time>
      </trkpt>
      <trkpt lat="41.8248755671" lon="-5.9389534034">
        <ele>736.99</ele>
        <time>2020-08-10T13:04:33Z</time>
      </trkpt>
      <trkpt lat="41.8248546962" lon="-5.9389684070">
        <ele>736.03</ele>
        <time>2020-08-10T13:04:53Z</time>
      </trkpt>
      <trkpt lat="41.8248392735" lon="-5.9389858413">
        <ele>736.03</ele>
        <time>2020-08-10T13:04:54Z</time>
      </trkpt>
      <trkpt lat="41.8248305563" lon="-5.9390069637">
        <ele>736.03</ele>
        <time>2020-08-10T13:04:55Z</time>
      </trkpt>
      <trkpt lat="41.8247552030" lon="-5.9393157531">
        <ele>735.07</ele>
        <time>2020-08-10T13:05:04Z</time>
      </trkpt>
      <trkpt lat="41.8246904947" lon="-5.9396134783">
        <ele>734.58</ele>
        <time>2020-08-10T13:05:11Z</time>
      </trkpt>
      <trkpt lat="41.8245816976" lon="-5.9401119500">
        <ele>734.10</ele>
        <time>2020-08-10T13:05:22Z</time>
      </trkpt>
      <trkpt lat="41.8244888261" lon="-5.9405188076">
        <ele>734.10</ele>
        <time>2020-08-10T13:05:31Z</time>
      </trkpt>
      <trkpt lat="41.8243759219" lon="-5.9410145134">
        <ele>734.10</ele>
        <time>2020-08-10T13:05:42Z</time>
      </trkpt>
      <trkpt lat="41.8242865708" lon="-5.9414166771">
        <ele>734.10</ele>
        <time>2020-08-10T13:05:51Z</time>
      </trkpt>
      <trkpt lat="41.8241701461" lon="-5.9419177473">
        <ele>734.10</ele>
        <time>2020-08-10T13:06:02Z</time>
      </trkpt>
      <trkpt lat="41.8240849022" lon="-5.9422961902">
        <ele>734.58</ele>
        <time>2020-08-10T13:06:10Z</time>
      </trkpt>
      <trkpt lat="41.8239782844" lon="-5.9427609667">
        <ele>734.10</ele>
        <time>2020-08-10T13:06:20Z</time>
      </trkpt>
      <trkpt lat="41.8238817248" lon="-5.9432065487">
        <ele>734.58</ele>
        <time>2020-08-10T13:06:30Z</time>
      </trkpt>
      <trkpt lat="41.8237891886" lon="-5.9436202794">
        <ele>735.07</ele>
        <time>2020-08-10T13:06:39Z</time>
      </trkpt>
      <trkpt lat="41.8236768711" lon="-5.9441299830">
        <ele>735.07</ele>
        <time>2020-08-10T13:06:50Z</time>
      </trkpt>
      <trkpt lat="41.8235769589" lon="-5.9445531853">
        <ele>735.55</ele>
        <time>2020-08-10T13:06:59Z</time>
      </trkpt>
      <trkpt lat="41.8234617915" lon="-5.9450693429">
        <ele>736.03</ele>
        <time>2020-08-10T13:07:10Z</time>
      </trkpt>
      <trkpt lat="41.8233189639" lon="-5.9456863347">
        <ele>736.51</ele>
        <time>2020-08-10T13:07:23Z</time>
      </trkpt>
      <trkpt lat="41.8232047185" lon="-5.9461408015">
        <ele>736.99</ele>
        <time>2020-08-10T13:07:33Z</time>
      </trkpt>
      <trkpt lat="41.8230981007" lon="-5.9465010557">
        <ele>737.47</ele>
        <time>2020-08-10T13:07:41Z</time>
      </trkpt>
      <trkpt lat="41.8229802512" lon="-5.9468463063">
        <ele>737.95</ele>
        <time>2020-08-10T13:07:49Z</time>
      </trkpt>
      <trkpt lat="41.8228004593" lon="-5.9473096579">
        <ele>738.43</ele>
        <time>2020-08-10T13:08:00Z</time>
      </trkpt>
      <trkpt lat="41.8225821108" lon="-5.9478443395">
        <ele>738.91</ele>
        <time>2020-08-10T13:08:13Z</time>
      </trkpt>
      <trkpt lat="41.8223851360" lon="-5.9483370278">
        <ele>738.91</ele>
        <time>2020-08-10T13:08:25Z</time>
      </trkpt>
      <trkpt lat="41.8221911788" lon="-5.9488187358">
        <ele>740.35</ele>
        <time>2020-08-10T13:08:37Z</time>
      </trkpt>
      <trkpt lat="41.8220651150" lon="-5.9491398465">
        <ele>740.35</ele>
        <time>2020-08-10T13:08:45Z</time>
      </trkpt>
      <trkpt lat="41.8220027536" lon="-5.9493015334">
        <ele>740.83</ele>
        <time>2020-08-10T13:08:50Z</time>
      </trkpt>
      <trkpt lat="41.8218440842" lon="-5.9497075528">
        <ele>740.35</ele>
        <time>2020-08-10T13:09:00Z</time>
      </trkpt>
      <trkpt lat="41.8216755241" lon="-5.9501160029">
        <ele>740.83</ele>
        <time>2020-08-10T13:09:10Z</time>
      </trkpt>
      <trkpt lat="41.8215817306" lon="-5.9503637720">
        <ele>740.35</ele>
        <time>2020-08-10T13:09:18Z</time>
      </trkpt>
      <trkpt lat="41.8215161003" lon="-5.9506496787">
        <ele>740.83</ele>
        <time>2020-08-10T13:09:26Z</time>
      </trkpt>
      <trkpt lat="41.8215780426" lon="-5.9509071708">
        <ele>741.79</ele>
        <time>2020-08-10T13:09:34Z</time>
      </trkpt>
      <trkpt lat="41.8217719998" lon="-5.9511940833">
        <ele>741.79</ele>
        <time>2020-08-10T13:09:42Z</time>
      </trkpt>
      <trkpt lat="41.8220024183" lon="-5.9515511524">
        <ele>741.31</ele>
        <time>2020-08-10T13:09:50Z</time>
      </trkpt>
      <trkpt lat="41.8222281430" lon="-5.9519067965">
        <ele>741.79</ele>
        <time>2020-08-10T13:09:58Z</time>
      </trkpt>
      <trkpt lat="41.8225267064" lon="-5.9523618501">
        <ele>741.31</ele>
        <time>2020-08-10T13:10:08Z</time>
      </trkpt>
      <trkpt lat="41.8228484876" lon="-5.9528787620">
        <ele>741.31</ele>
        <time>2020-08-10T13:10:19Z</time>
      </trkpt>
      <trkpt lat="41.8231668323" lon="-5.9533313848">
        <ele>742.28</ele>
        <time>2020-08-10T13:10:29Z</time>
      </trkpt>
      <trkpt lat="41.8235545792" lon="-5.9539136756">
        <ele>741.31</ele>
        <time>2020-08-10T13:10:42Z</time>
      </trkpt>
      <trkpt lat="41.8238756899" lon="-5.9544022568">
        <ele>741.79</ele>
        <time>2020-08-10T13:10:53Z</time>
      </trkpt>
      <trkpt lat="41.8241674639" lon="-5.9548472520">
        <ele>741.79</ele>
        <time>2020-08-10T13:11:03Z</time>
      </trkpt>
      <trkpt lat="41.8243994750" lon="-5.9551964421">
        <ele>741.79</ele>
        <time>2020-08-10T13:11:11Z</time>
      </trkpt>
      <trkpt lat="41.8247157242" lon="-5.9556820896">
        <ele>741.31</ele>
        <time>2020-08-10T13:11:22Z</time>
      </trkpt>
      <trkpt lat="41.8251385912" lon="-5.9563210420">
        <ele>741.31</ele>
        <time>2020-08-10T13:11:36Z</time>
      </trkpt>
      <trkpt lat="41.8254015315" lon="-5.9567235410">
        <ele>741.31</ele>
        <time>2020-08-10T13:11:45Z</time>
      </trkpt>
      <trkpt lat="41.8256617896" lon="-5.9571360983">
        <ele>741.79</ele>
        <time>2020-08-10T13:11:55Z</time>
      </trkpt>
      <trkpt lat="41.8258259073" lon="-5.9574005473">
        <ele>742.76</ele>
        <time>2020-08-10T13:12:04Z</time>
      </trkpt>
      <trkpt lat="41.8259778712" lon="-5.9576391801">
        <ele>743.72</ele>
        <time>2020-08-10T13:12:13Z</time>
      </trkpt>
      <trkpt lat="41.8261310924" lon="-5.9578710236">
        <ele>744.68</ele>
        <time>2020-08-10T13:12:22Z</time>
      </trkpt>
      <trkpt lat="41.8263260555" lon="-5.9581808187">
        <ele>746.12</ele>
        <time>2020-08-10T13:12:34Z</time>
      </trkpt>
      <trkpt lat="41.8263511173" lon="-5.9582141787">
        <ele>746.60</ele>
        <time>2020-08-10T13:12:37Z</time>
      </trkpt>
      <trkpt lat="41.8263620138" lon="-5.9582229797">
        <ele>747.08</ele>
        <time>2020-08-10T13:12:38Z</time>
      </trkpt>
      <trkpt lat="41.8263724074" lon="-5.9582301043">
        <ele>747.08</ele>
        <time>2020-08-10T13:12:39Z</time>
      </trkpt>
      <trkpt lat="41.8263829686" lon="-5.9582363907">
        <ele>747.08</ele>
        <time>2020-08-10T13:12:40Z</time>
      </trkpt>
      <trkpt lat="41.8263947032" lon="-5.9582414199">
        <ele>747.56</ele>
        <time>2020-08-10T13:12:41Z</time>
      </trkpt>
      <trkpt lat="41.8264073599" lon="-5.9582478739">
        <ele>747.56</ele>
        <time>2020-08-10T13:12:42Z</time>
      </trkpt>
      <trkpt lat="41.8264195975" lon="-5.9582567587">
        <ele>747.56</ele>
        <time>2020-08-10T13:12:43Z</time>
      </trkpt>
      <trkpt lat="41.8264320865" lon="-5.9582677390">
        <ele>747.56</ele>
        <time>2020-08-10T13:12:44Z</time>
      </trkpt>
      <trkpt lat="41.8264460843" lon="-5.9582850058">
        <ele>748.04</ele>
        <time>2020-08-10T13:12:45Z</time>
      </trkpt>
      <trkpt lat="41.8264590763" lon="-5.9583020210">
        <ele>748.04</ele>
        <time>2020-08-10T13:12:46Z</time>
      </trkpt>
      <trkpt lat="41.8264715653" lon="-5.9583149292">
        <ele>748.04</ele>
        <time>2020-08-10T13:12:47Z</time>
      </trkpt>
      <trkpt lat="41.8264838867" lon="-5.9583247360">
        <ele>748.52</ele>
        <time>2020-08-10T13:12:52Z</time>
      </trkpt>
      <trkpt lat="41.8265003152" lon="-5.9583389014">
        <ele>748.04</ele>
        <time>2020-08-10T13:13:01Z</time>
      </trkpt>
      <trkpt lat="41.8265063502" lon="-5.9583469480">
        <ele>748.04</ele>
        <time>2020-08-10T13:13:12Z</time>
      </trkpt>
      <trkpt lat="41.8265344296" lon="-5.9584014304">
        <ele>748.52</ele>
        <time>2020-08-10T13:13:18Z</time>
      </trkpt>
      <trkpt lat="41.8265456613" lon="-5.9584109019">
        <ele>748.52</ele>
        <time>2020-08-10T13:13:19Z</time>
      </trkpt>
      <trkpt lat="41.8265547138" lon="-5.9584239777">
        <ele>748.04</ele>
        <time>2020-08-10T13:13:20Z</time>
      </trkpt>
      <trkpt lat="41.8265822902" lon="-5.9584989119">
        <ele>748.04</ele>
        <time>2020-08-10T13:13:24Z</time>
      </trkpt>
      <trkpt lat="41.8265786022" lon="-5.9585108981">
        <ele>748.04</ele>
        <time>2020-08-10T13:13:25Z</time>
      </trkpt>
      <trkpt lat="41.8265568931" lon="-5.9585556574">
        <ele>748.52</ele>
        <time>2020-08-10T13:13:29Z</time>
      </trkpt>
      <trkpt lat="41.8265449908" lon="-5.9585665539">
        <ele>748.52</ele>
        <time>2020-08-10T13:13:30Z</time>
      </trkpt>
      <trkpt lat="41.8265308253" lon="-5.9585740976">
        <ele>748.52</ele>
        <time>2020-08-10T13:13:31Z</time>
      </trkpt>
      <trkpt lat="41.8265164923" lon="-5.9585739300">
        <ele>748.52</ele>
        <time>2020-08-10T13:13:32Z</time>
      </trkpt>
      <trkpt lat="41.8264986388" lon="-5.9585714992">
        <ele>748.52</ele>
        <time>2020-08-10T13:13:33Z</time>
      </trkpt>
      <trkpt lat="41.8264815398" lon="-5.9585763607">
        <ele>748.52</ele>
        <time>2020-08-10T13:13:34Z</time>
      </trkpt>
      <trkpt lat="41.8264716491" lon="-5.9585856646">
        <ele>748.52</ele>
        <time>2020-08-10T13:13:35Z</time>
      </trkpt>
      <trkpt lat="41.8264615070" lon="-5.9586017579">
        <ele>748.52</ele>
        <time>2020-08-10T13:13:36Z</time>
      </trkpt>
      <trkpt lat="41.8264530413" lon="-5.9586160071">
        <ele>748.52</ele>
        <time>2020-08-10T13:13:37Z</time>
      </trkpt>
      <trkpt lat="41.8264437374" lon="-5.9586295858">
        <ele>748.52</ele>
        <time>2020-08-10T13:13:38Z</time>
      </trkpt>
      <trkpt lat="41.8264254648" lon="-5.9586540610">
        <ele>748.52</ele>
        <time>2020-08-10T13:13:40Z</time>
      </trkpt>
      <trkpt lat="41.8264115509" lon="-5.9586583357">
        <ele>748.52</ele>
        <time>2020-08-10T13:13:41Z</time>
      </trkpt>
      <trkpt lat="41.8263899256" lon="-5.9586529713">
        <ele>749.00</ele>
        <time>2020-08-10T13:13:42Z</time>
      </trkpt>
      <trkpt lat="41.8263719045" lon="-5.9586386383">
        <ele>749.00</ele>
        <time>2020-08-10T13:13:43Z</time>
      </trkpt>
      <trkpt lat="41.8263634387" lon="-5.9586246405">
        <ele>749.49</ele>
        <time>2020-08-10T13:13:44Z</time>
      </trkpt>
      <trkpt lat="41.8263579905" lon="-5.9586056136">
        <ele>749.49</ele>
        <time>2020-08-10T13:13:45Z</time>
      </trkpt>
      <trkpt lat="41.8263586611" lon="-5.9585896041">
        <ele>749.49</ele>
        <time>2020-08-10T13:13:46Z</time>
      </trkpt>
      <trkpt lat="41.8263664562" lon="-5.9585761931">
        <ele>749.97</ele>
        <time>2020-08-10T13:13:52Z</time>
      </trkpt>
      <trkpt lat="41.8263781071" lon="-5.9585815575">
        <ele>749.49</ele>
        <time>2020-08-10T13:14:09Z</time>
      </trkpt>
      <trkpt lat="41.8263899256" lon="-5.9585586749">
        <ele>749.97</ele>
        <time>2020-08-10T13:14:15Z</time>
      </trkpt>
      <trkpt lat="41.8264416419" lon="-5.9584759455">
        <ele>750.93</ele>
        <time>2020-08-10T13:14:21Z</time>
      </trkpt>
      <trkpt lat="41.8264592439" lon="-5.9584431723">
        <ele>750.45</ele>
        <time>2020-08-10T13:14:23Z</time>
      </trkpt>
      <trkpt lat="41.8265472539" lon="-5.9584932961">
        <ele>750.93</ele>
        <time>2020-08-10T13:14:29Z</time>
      </trkpt>
      <trkpt lat="41.8265665323" lon="-5.9584979899">
        <ele>750.93</ele>
        <time>2020-08-10T13:14:30Z</time>
      </trkpt>
      <trkpt lat="41.8265847210" lon="-5.9584818128">
        <ele>750.45</ele>
        <time>2020-08-10T13:14:31Z</time>
      </trkpt>
      <trkpt lat="41.8265957013" lon="-5.9584639594">
        <ele>750.45</ele>
        <time>2020-08-10T13:14:32Z</time>
      </trkpt>
      <trkpt lat="41.8266033288" lon="-5.9584368858">
        <ele>750.45</ele>
        <time>2020-08-10T13:14:33Z</time>
      </trkpt>
      <trkpt lat="41.8266134709" lon="-5.9584108181">
        <ele>749.97</ele>
        <time>2020-08-10T13:14:34Z</time>
      </trkpt>
      <trkpt lat="41.8266216852" lon="-5.9584003408">
        <ele>749.97</ele>
        <time>2020-08-10T13:14:35Z</time>
      </trkpt>
      <trkpt lat="41.8266319111" lon="-5.9583919588">
        <ele>749.97</ele>
        <time>2020-08-10T13:14:36Z</time>
      </trkpt>
      <trkpt lat="41.8266434781" lon="-5.9583867621">
        <ele>749.49</ele>
        <time>2020-08-10T13:14:42Z</time>
      </trkpt>
      <trkpt lat="41.8266394548" lon="-5.9583855886">
        <ele>749.00</ele>
        <time>2020-08-10T13:14:54Z</time>
      </trkpt>
      <trkpt lat="41.8266352639" lon="-5.9583921265">
        <ele>747.08</ele>
        <time>2020-08-10T13:15:14Z</time>
      </trkpt>
      <trkpt lat="41.8266443163" lon="-5.9583738539">
        <ele>746.60</ele>
        <time>2020-08-10T13:15:33Z</time>
      </trkpt>
      <trkpt lat="41.8266438134" lon="-5.9583862592">
        <ele>746.12</ele>
        <time>2020-08-10T13:15:48Z</time>
      </trkpt>
      <trkpt lat="41.8266415503" lon="-5.9584051184">
        <ele>747.08</ele>
        <time>2020-08-10T13:15:56Z</time>
      </trkpt>
      <trkpt lat="41.8266521953" lon="-5.9585608542">
        <ele>747.08</ele>
        <time>2020-08-10T13:16:03Z</time>
      </trkpt>
      <trkpt lat="41.8267038278" lon="-5.9587333538">
        <ele>746.60</ele>
        <time>2020-08-10T13:16:09Z</time>
      </trkpt>
      <trkpt lat="41.8269065022" lon="-5.9590467531">
        <ele>745.64</ele>
        <time>2020-08-10T13:16:17Z</time>
      </trkpt>
      <trkpt lat="41.8271817639" lon="-5.9594635013">
        <ele>744.20</ele>
        <time>2020-08-10T13:16:25Z</time>
      </trkpt>
      <trkpt lat="41.8276006076" lon="-5.9600819182">
        <ele>744.68</ele>
        <time>2020-08-10T13:16:37Z</time>
      </trkpt>
      <trkpt lat="41.8279202934" lon="-5.9605519753">
        <ele>746.60</ele>
        <time>2020-08-10T13:16:47Z</time>
      </trkpt>
      <trkpt lat="41.8281984050" lon="-5.9609976411">
        <ele>747.08</ele>
        <time>2020-08-10T13:16:57Z</time>
      </trkpt>
      <trkpt lat="41.8284191843" lon="-5.9613229427">
        <ele>748.52</ele>
        <time>2020-08-10T13:17:06Z</time>
      </trkpt>
      <trkpt lat="41.8286543805" lon="-5.9616771620">
        <ele>749.49</ele>
        <time>2020-08-10T13:17:16Z</time>
      </trkpt>
      <trkpt lat="41.8288501818" lon="-5.9619810898">
        <ele>750.45</ele>
        <time>2020-08-10T13:17:25Z</time>
      </trkpt>
      <trkpt lat="41.8290707096" lon="-5.9623411763">
        <ele>751.41</ele>
        <time>2020-08-10T13:17:36Z</time>
      </trkpt>
      <trkpt lat="41.8292523455" lon="-5.9625924658">
        <ele>752.37</ele>
        <time>2020-08-10T13:17:45Z</time>
      </trkpt>
      <trkpt lat="41.8293990288" lon="-5.9625783842">
        <ele>751.89</ele>
        <time>2020-08-10T13:17:50Z</time>
      </trkpt>
      <trkpt lat="41.8297433574" lon="-5.9623609576">
        <ele>749.97</ele>
        <time>2020-08-10T13:17:59Z</time>
      </trkpt>
      <trkpt lat="41.8301673140" lon="-5.9622093290">
        <ele>749.00</ele>
        <time>2020-08-10T13:18:07Z</time>
      </trkpt>
      <trkpt lat="41.8302869238" lon="-5.9622122627">
        <ele>748.52</ele>
        <time>2020-08-10T13:18:09Z</time>
      </trkpt>
      <trkpt lat="41.8308344297" lon="-5.9623470437">
        <ele>747.56</ele>
        <time>2020-08-10T13:18:19Z</time>
      </trkpt>
      <trkpt lat="41.8315043952" lon="-5.9625016060">
        <ele>749.00</ele>
        <time>2020-08-10T13:18:33Z</time>
      </trkpt>
      <trkpt lat="41.8318744563" lon="-5.9624892846">
        <ele>749.00</ele>
        <time>2020-08-10T13:18:42Z</time>
      </trkpt>
      <trkpt lat="41.8323217984" lon="-5.9623960778">
        <ele>749.49</ele>
        <time>2020-08-10T13:18:53Z</time>
      </trkpt>
      <trkpt lat="41.8327724095" lon="-5.9622908849">
        <ele>749.49</ele>
        <time>2020-08-10T13:19:04Z</time>
      </trkpt>
      <trkpt lat="41.8331209291" lon="-5.9622095805">
        <ele>748.52</ele>
        <time>2020-08-10T13:19:12Z</time>
      </trkpt>
      <trkpt lat="41.8336787447" lon="-5.9620815888">
        <ele>747.56</ele>
        <time>2020-08-10T13:19:23Z</time>
      </trkpt>
      <trkpt lat="41.8341496401" lon="-5.9619733784">
        <ele>747.08</ele>
        <time>2020-08-10T13:19:32Z</time>
      </trkpt>
      <trkpt lat="41.8347144965" lon="-5.9618433751">
        <ele>746.12</ele>
        <time>2020-08-10T13:19:42Z</time>
      </trkpt>
      <trkpt lat="41.8352285586" lon="-5.9617253579">
        <ele>744.20</ele>
        <time>2020-08-10T13:19:50Z</time>
      </trkpt>
      <trkpt lat="41.8359990232" lon="-5.9615483321">
        <ele>743.24</ele>
        <time>2020-08-10T13:20:01Z</time>
      </trkpt>
      <trkpt lat="41.8365149293" lon="-5.9614315722">
        <ele>742.76</ele>
        <time>2020-08-10T13:20:09Z</time>
      </trkpt>
      <trkpt lat="41.8369275704" lon="-5.9613355156">
        <ele>742.76</ele>
        <time>2020-08-10T13:20:16Z</time>
      </trkpt>
      <trkpt lat="41.8374556303" lon="-5.9612195101">
        <ele>741.79</ele>
        <time>2020-08-10T13:20:26Z</time>
      </trkpt>
      <trkpt lat="41.8378988653" lon="-5.9611101262">
        <ele>742.28</ele>
        <time>2020-08-10T13:20:36Z</time>
      </trkpt>
      <trkpt lat="41.8383252528" lon="-5.9610079508">
        <ele>742.76</ele>
        <time>2020-08-10T13:20:46Z</time>
      </trkpt>
      <trkpt lat="41.8387352116" lon="-5.9609118104">
        <ele>743.24</ele>
        <time>2020-08-10T13:20:56Z</time>
      </trkpt>
      <trkpt lat="41.8391279038" lon="-5.9608264826">
        <ele>744.20</ele>
        <time>2020-08-10T13:21:06Z</time>
      </trkpt>
      <trkpt lat="41.8394766748" lon="-5.9607394785">
        <ele>744.68</ele>
        <time>2020-08-10T13:21:15Z</time>
      </trkpt>
      <trkpt lat="41.8398356717" lon="-5.9606619459">
        <ele>745.16</ele>
        <time>2020-08-10T13:21:24Z</time>
      </trkpt>
      <trkpt lat="41.8402240053" lon="-5.9605704155">
        <ele>745.16</ele>
        <time>2020-08-10T13:21:34Z</time>
      </trkpt>
      <trkpt lat="41.8406112492" lon="-5.9604761191">
        <ele>745.64</ele>
        <time>2020-08-10T13:21:44Z</time>
      </trkpt>
      <trkpt lat="41.8407710083" lon="-5.9604413342">
        <ele>745.64</ele>
        <time>2020-08-10T13:21:48Z</time>
      </trkpt>
      <trkpt lat="41.8408111576" lon="-5.9604303539">
        <ele>745.64</ele>
        <time>2020-08-10T13:21:49Z</time>
      </trkpt>
      <trkpt lat="41.8411165103" lon="-5.9603615385">
        <ele>746.12</ele>
        <time>2020-08-10T13:21:56Z</time>
      </trkpt>
      <trkpt lat="41.8411581684" lon="-5.9603519831">
        <ele>746.12</ele>
        <time>2020-08-10T13:21:57Z</time>
      </trkpt>
      <trkpt lat="41.8412000779" lon="-5.9603421763">
        <ele>746.12</ele>
        <time>2020-08-10T13:21:58Z</time>
      </trkpt>
      <trkpt lat="41.8413268123" lon="-5.9603083972">
        <ele>746.12</ele>
        <time>2020-08-10T13:22:01Z</time>
      </trkpt>
      <trkpt lat="41.8414045963" lon="-5.9602931421">
        <ele>746.60</ele>
        <time>2020-08-10T13:22:03Z</time>
      </trkpt>
      <trkpt lat="41.8414455839" lon="-5.9602818266">
        <ele>746.12</ele>
        <time>2020-08-10T13:22:04Z</time>
      </trkpt>
      <trkpt lat="41.8414851464" lon="-5.9602741990">
        <ele>746.60</ele>
        <time>2020-08-10T13:22:05Z</time>
      </trkpt>
      <trkpt lat="41.8418308999" lon="-5.9601949062">
        <ele>747.08</ele>
        <time>2020-08-10T13:22:14Z</time>
      </trkpt>
      <trkpt lat="41.8421237636" lon="-5.9601335507">
        <ele>748.52</ele>
        <time>2020-08-10T13:22:23Z</time>
      </trkpt>
      <trkpt lat="41.8423336465" lon="-5.9600865282">
        <ele>749.49</ele>
        <time>2020-08-10T13:22:31Z</time>
      </trkpt>
      <trkpt lat="41.8426264264" lon="-5.9600223228">
        <ele>751.41</ele>
        <time>2020-08-10T13:22:42Z</time>
      </trkpt>
      <trkpt lat="41.8428827450" lon="-5.9599640686">
        <ele>753.33</ele>
        <time>2020-08-10T13:22:52Z</time>
      </trkpt>
      <trkpt lat="41.8430415820" lon="-5.9599297028">
        <ele>754.77</ele>
        <time>2020-08-10T13:22:59Z</time>
      </trkpt>
      <trkpt lat="41.8432809692" lon="-5.9598680120">
        <ele>756.21</ele>
        <time>2020-08-10T13:23:09Z</time>
      </trkpt>
      <trkpt lat="41.8435145728" lon="-5.9598145355">
        <ele>757.18</ele>
        <time>2020-08-10T13:23:19Z</time>
      </trkpt>
      <trkpt lat="41.8437244557" lon="-5.9597655851">
        <ele>757.66</ele>
        <time>2020-08-10T13:23:28Z</time>
      </trkpt>
      <trkpt lat="41.8439060915" lon="-5.9597184788">
        <ele>758.62</ele>
        <time>2020-08-10T13:23:35Z</time>
      </trkpt>
      <trkpt lat="41.8441513460" lon="-5.9596678521">
        <ele>760.54</ele>
        <time>2020-08-10T13:23:44Z</time>
      </trkpt>
      <trkpt lat="41.8443138711" lon="-5.9596324805">
        <ele>761.02</ele>
        <time>2020-08-10T13:23:50Z</time>
      </trkpt>
      <trkpt lat="41.8445369974" lon="-5.9595816862">
        <ele>761.50</ele>
        <time>2020-08-10T13:23:58Z</time>
      </trkpt>
      <trkpt lat="41.8448068947" lon="-5.9595274553">
        <ele>761.02</ele>
        <time>2020-08-10T13:24:07Z</time>
      </trkpt>
      <trkpt lat="41.8451188691" lon="-5.9594552033">
        <ele>760.06</ele>
        <time>2020-08-10T13:24:16Z</time>
      </trkpt>
      <trkpt lat="41.8455208652" lon="-5.9594489168">
        <ele>758.14</ele>
        <time>2020-08-10T13:24:24Z</time>
      </trkpt>
      <trkpt lat="41.8459940236" lon="-5.9595630784">
        <ele>755.73</ele>
        <time>2020-08-10T13:24:31Z</time>
      </trkpt>
      <trkpt lat="41.8465564493" lon="-5.9598340653">
        <ele>753.33</ele>
        <time>2020-08-10T13:24:38Z</time>
      </trkpt>
      <trkpt lat="41.8473065458" lon="-5.9602006897">
        <ele>749.97</ele>
        <time>2020-08-10T13:24:46Z</time>
      </trkpt>
      <trkpt lat="41.8479695544" lon="-5.9603358898">
        <ele>749.00</ele>
        <time>2020-08-10T13:24:53Z</time>
      </trkpt>
      <trkpt lat="41.8485945091" lon="-5.9604138415">
        <ele>748.52</ele>
        <time>2020-08-10T13:25:01Z</time>
      </trkpt>
      <trkpt lat="41.8488925695" lon="-5.9604415018">
        <ele>748.52</ele>
        <time>2020-08-10T13:25:07Z</time>
      </trkpt>
      <trkpt lat="41.8489372451" lon="-5.9604413342">
        <ele>748.52</ele>
        <time>2020-08-10T13:25:12Z</time>
      </trkpt>
      <trkpt lat="41.8489328027" lon="-5.9604399931">
        <ele>748.52</ele>
        <time>2020-08-10T13:25:27Z</time>
      </trkpt>
      <trkpt lat="41.8489318807" lon="-5.9604459442">
        <ele>748.04</ele>
        <time>2020-08-10T13:25:42Z</time>
      </trkpt>
      <trkpt lat="41.8489303719" lon="-5.9604455251">
        <ele>748.04</ele>
        <time>2020-08-10T13:26:01Z</time>
      </trkpt>
      <trkpt lat="41.8490116764" lon="-5.9604569245">
        <ele>748.04</ele>
        <time>2020-08-10T13:26:07Z</time>
      </trkpt>
      <trkpt lat="41.8493192084" lon="-5.9604950622">
        <ele>748.04</ele>
        <time>2020-08-10T13:26:16Z</time>
      </trkpt>
      <trkpt lat="41.8496378884" lon="-5.9605394024">
        <ele>748.04</ele>
        <time>2020-08-10T13:26:25Z</time>
      </trkpt>
      <trkpt lat="41.8499726616" lon="-5.9605837427">
        <ele>748.04</ele>
        <time>2020-08-10T13:26:35Z</time>
      </trkpt>
      <trkpt lat="41.8503956962" lon="-5.9606390633">
        <ele>749.00</ele>
        <time>2020-08-10T13:26:48Z</time>
      </trkpt>
      <trkpt lat="41.8507465627" lon="-5.9606814757">
        <ele>749.49</ele>
        <time>2020-08-10T13:26:59Z</time>
      </trkpt>
      <trkpt lat="41.8511422724" lon="-5.9607357066">
        <ele>750.45</ele>
        <time>2020-08-10T13:27:12Z</time>
      </trkpt>
      <trkpt lat="41.8514793087" lon="-5.9607763588">
        <ele>751.89</ele>
        <time>2020-08-10T13:27:23Z</time>
      </trkpt>
      <trkpt lat="41.8517433386" lon="-5.9608094674">
        <ele>752.37</ele>
        <time>2020-08-10T13:27:32Z</time>
      </trkpt>
      <trkpt lat="41.8520179298" lon="-5.9608455934">
        <ele>752.85</ele>
        <time>2020-08-10T13:27:42Z</time>
      </trkpt>
      <trkpt lat="41.8522079475" lon="-5.9608609322">
        <ele>753.33</ele>
        <time>2020-08-10T13:27:49Z</time>
      </trkpt>
      <trkpt lat="41.8524164055" lon="-5.9608811326">
        <ele>754.77</ele>
        <time>2020-08-10T13:27:56Z</time>
      </trkpt>
      <trkpt lat="41.8526974507" lon="-5.9609129000">
        <ele>756.21</ele>
        <time>2020-08-10T13:28:05Z</time>
      </trkpt>
      <trkpt lat="41.8530532625" lon="-5.9609572403">
        <ele>757.18</ele>
        <time>2020-08-10T13:28:16Z</time>
      </trkpt>
      <trkpt lat="41.8533970881" lon="-5.9610050172">
        <ele>757.18</ele>
        <time>2020-08-10T13:28:26Z</time>
      </trkpt>
      <trkpt lat="41.8537379801" lon="-5.9610485192">
        <ele>757.18</ele>
        <time>2020-08-10T13:28:36Z</time>
      </trkpt>
      <trkpt lat="41.8541481905" lon="-5.9611020796">
        <ele>757.18</ele>
        <time>2020-08-10T13:28:48Z</time>
      </trkpt>
      <trkpt lat="41.8544957880" lon="-5.9611382056">
        <ele>757.18</ele>
        <time>2020-08-10T13:28:58Z</time>
      </trkpt>
      <trkpt lat="41.8548888154" lon="-5.9611897543">
        <ele>757.18</ele>
        <time>2020-08-10T13:29:08Z</time>
      </trkpt>
      <trkpt lat="41.8553128559" lon="-5.9612444881">
        <ele>755.73</ele>
        <time>2020-08-10T13:29:16Z</time>
      </trkpt>
      <trkpt lat="41.8559079710" lon="-5.9613180812">
        <ele>754.29</ele>
        <time>2020-08-10T13:29:25Z</time>
      </trkpt>
      <trkpt lat="41.8564243801" lon="-5.9613784309">
        <ele>753.33</ele>
        <time>2020-08-10T13:29:33Z</time>
      </trkpt>
      <trkpt lat="41.8568991311" lon="-5.9614415467">
        <ele>752.85</ele>
        <time>2020-08-10T13:29:42Z</time>
      </trkpt>
      <trkpt lat="41.8573175557" lon="-5.9614961129">
        <ele>752.85</ele>
        <time>2020-08-10T13:29:52Z</time>
      </trkpt>
      <trkpt lat="41.8576154485" lon="-5.9615331609">
        <ele>752.85</ele>
        <time>2020-08-10T13:30:00Z</time>
      </trkpt>
      <trkpt lat="41.8579639681" lon="-5.9615789261">
        <ele>752.85</ele>
        <time>2020-08-10T13:30:09Z</time>
      </trkpt>
      <trkpt lat="41.8583969772" lon="-5.9616298042">
        <ele>752.85</ele>
        <time>2020-08-10T13:30:20Z</time>
      </trkpt>
      <trkpt lat="41.8588475883" lon="-5.9616898187">
        <ele>752.37</ele>
        <time>2020-08-10T13:30:31Z</time>
      </trkpt>
      <trkpt lat="41.8594069965" lon="-5.9617641661">
        <ele>752.85</ele>
        <time>2020-08-10T13:30:45Z</time>
      </trkpt>
      <trkpt lat="41.8598001916" lon="-5.9618100151">
        <ele>753.33</ele>
        <time>2020-08-10T13:30:55Z</time>
      </trkpt>
      <trkpt lat="41.8599993456" lon="-5.9618411958">
        <ele>753.33</ele>
        <time>2020-08-10T13:31:00Z</time>
      </trkpt>
      <trkpt lat="41.8600404169" lon="-5.9618448839">
        <ele>752.85</ele>
        <time>2020-08-10T13:31:01Z</time>
      </trkpt>
      <trkpt lat="41.8604545668" lon="-5.9618883021">
        <ele>753.81</ele>
        <time>2020-08-10T13:31:12Z</time>
      </trkpt>
      <trkpt lat="41.8607399706" lon="-5.9619280323">
        <ele>755.25</ele>
        <time>2020-08-10T13:31:21Z</time>
      </trkpt>
      <trkpt lat="41.8609926850" lon="-5.9619685169">
        <ele>757.18</ele>
        <time>2020-08-10T13:31:31Z</time>
      </trkpt>
      <trkpt lat="41.8612433877" lon="-5.9620569460">
        <ele>759.58</ele>
        <time>2020-08-10T13:31:42Z</time>
      </trkpt>
      <trkpt lat="41.8613873888" lon="-5.9621223249">
        <ele>761.02</ele>
        <time>2020-08-10T13:31:50Z</time>
      </trkpt>
      <trkpt lat="41.8615057413" lon="-5.9621727839">
        <ele>761.98</ele>
        <time>2020-08-10T13:31:57Z</time>
      </trkpt>
      <trkpt lat="41.8616777379" lon="-5.9622912202">
        <ele>763.90</ele>
        <time>2020-08-10T13:32:07Z</time>
      </trkpt>
      <trkpt lat="41.8618253432" lon="-5.9624082316">
        <ele>764.87</ele>
        <time>2020-08-10T13:32:16Z</time>
      </trkpt>
      <trkpt lat="41.8619497307" lon="-5.9625158552">
        <ele>766.31</ele>
        <time>2020-08-10T13:32:24Z</time>
      </trkpt>
      <trkpt lat="41.8620892055" lon="-5.9626363870">
        <ele>767.27</ele>
        <time>2020-08-10T13:32:33Z</time>
      </trkpt>
      <trkpt lat="41.8622430135" lon="-5.9627511352">
        <ele>767.75</ele>
        <time>2020-08-10T13:32:43Z</time>
      </trkpt>
      <trkpt lat="41.8623596895" lon="-5.9628455993">
        <ele>768.71</ele>
        <time>2020-08-10T13:32:51Z</time>
      </trkpt>
      <trkpt lat="41.8625141680" lon="-5.9629802126">
        <ele>769.67</ele>
        <time>2020-08-10T13:33:01Z</time>
      </trkpt>
      <trkpt lat="41.8626538105" lon="-5.9630962182">
        <ele>770.63</ele>
        <time>2020-08-10T13:33:10Z</time>
      </trkpt>
      <trkpt lat="41.8628198560" lon="-5.9632367827">
        <ele>772.08</ele>
        <time>2020-08-10T13:33:21Z</time>
      </trkpt>
      <trkpt lat="41.8629555590" lon="-5.9633516986">
        <ele>773.52</ele>
        <time>2020-08-10T13:33:30Z</time>
      </trkpt>
      <trkpt lat="41.8631067686" lon="-5.9634766728">
        <ele>774.00</ele>
        <time>2020-08-10T13:33:40Z</time>
      </trkpt>
      <trkpt lat="41.8632324133" lon="-5.9635796864">
        <ele>775.44</ele>
        <time>2020-08-10T13:33:48Z</time>
      </trkpt>
      <trkpt lat="41.8633663561" lon="-5.9636948537">
        <ele>776.40</ele>
        <time>2020-08-10T13:33:57Z</time>
      </trkpt>
      <trkpt lat="41.8635028973" lon="-5.9638083447">
        <ele>778.32</ele>
        <time>2020-08-10T13:34:06Z</time>
      </trkpt>
      <trkpt lat="41.8636353314" lon="-5.9639314748">
        <ele>779.77</ele>
        <time>2020-08-10T13:34:15Z</time>
      </trkpt>
      <trkpt lat="41.8637851160" lon="-5.9640481509">
        <ele>780.73</ele>
        <time>2020-08-10T13:34:25Z</time>
      </trkpt>
      <trkpt lat="41.8639204837" lon="-5.9641635697">
        <ele>781.69</ele>
        <time>2020-08-10T13:34:34Z</time>
      </trkpt>
      <trkpt lat="41.8640625570" lon="-5.9642753843">
        <ele>783.13</ele>
        <time>2020-08-10T13:34:43Z</time>
      </trkpt>
      <trkpt lat="41.8642155267" lon="-5.9643715248">
        <ele>783.61</ele>
        <time>2020-08-10T13:34:52Z</time>
      </trkpt>
      <trkpt lat="41.8643994257" lon="-5.9644654859">
        <ele>785.05</ele>
        <time>2020-08-10T13:35:03Z</time>
      </trkpt>
      <trkpt lat="41.8645050377" lon="-5.9644902125">
        <ele>786.02</ele>
        <time>2020-08-10T13:35:09Z</time>
      </trkpt>
      <trkpt lat="41.8645598553" lon="-5.9644877817">
        <ele>785.53</ele>
        <time>2020-08-10T13:35:12Z</time>
      </trkpt>
      <trkpt lat="41.8645750266" lon="-5.9644914698">
        <ele>785.53</ele>
        <time>2020-08-10T13:35:13Z</time>
      </trkpt>
      <trkpt lat="41.8645929638" lon="-5.9644939005">
        <ele>785.53</ele>
        <time>2020-08-10T13:35:14Z</time>
      </trkpt>
      <trkpt lat="41.8646113202" lon="-5.9644932300">
        <ele>785.53</ele>
        <time>2020-08-10T13:35:15Z</time>
      </trkpt>
      <trkpt lat="41.8646305986" lon="-5.9644895419">
        <ele>785.53</ele>
        <time>2020-08-10T13:35:16Z</time>
      </trkpt>
      <trkpt lat="41.8648193590" lon="-5.9644692577">
        <ele>786.02</ele>
        <time>2020-08-10T13:35:25Z</time>
      </trkpt>
      <trkpt lat="41.8650356960" lon="-5.9644054715">
        <ele>786.50</ele>
        <time>2020-08-10T13:35:35Z</time>
      </trkpt>
      <trkpt lat="41.8652459979" lon="-5.9642812517">
        <ele>786.98</ele>
        <time>2020-08-10T13:35:45Z</time>
      </trkpt>
      <trkpt lat="41.8654390331" lon="-5.9641136974">
        <ele>786.98</ele>
        <time>2020-08-10T13:35:55Z</time>
      </trkpt>
      <trkpt lat="41.8656762410" lon="-5.9638551157">
        <ele>787.94</ele>
        <time>2020-08-10T13:36:07Z</time>
      </trkpt>
      <trkpt lat="41.8658857048" lon="-5.9636241104">
        <ele>788.90</ele>
        <time>2020-08-10T13:36:18Z</time>
      </trkpt>
      <trkpt lat="41.8660467211" lon="-5.9634483419">
        <ele>790.34</ele>
        <time>2020-08-10T13:36:27Z</time>
      </trkpt>
      <trkpt lat="41.8662074022" lon="-5.9632829670">
        <ele>790.82</ele>
        <time>2020-08-10T13:36:36Z</time>
      </trkpt>
      <trkpt lat="41.8663753755" lon="-5.9631304163">
        <ele>791.30</ele>
        <time>2020-08-10T13:36:46Z</time>
      </trkpt>
      <trkpt lat="41.8663729448" lon="-5.9631320927">
        <ele>791.78</ele>
        <time>2020-08-10T13:36:54Z</time>
      </trkpt>
      <trkpt lat="41.8663737830" lon="-5.9631031752">
        <ele>790.82</ele>
        <time>2020-08-10T13:37:10Z</time>
      </trkpt>
      <trkpt lat="41.8663743697" lon="-5.9631374571">
        <ele>791.78</ele>
        <time>2020-08-10T13:37:27Z</time>
      </trkpt>
      <trkpt lat="41.8663720228" lon="-5.9631324280">
        <ele>792.74</ele>
        <time>2020-08-10T13:37:43Z</time>
      </trkpt>
      <trkpt lat="41.8664061371" lon="-5.9631181788">
        <ele>792.26</ele>
        <time>2020-08-10T13:37:51Z</time>
      </trkpt>
      <trkpt lat="41.8664113339" lon="-5.9631025884">
        <ele>792.26</ele>
        <time>2020-08-10T13:38:02Z</time>
      </trkpt>
      <trkpt lat="41.8664400000" lon="-5.9630956315">
        <ele>791.78</ele>
        <time>2020-08-10T13:38:09Z</time>
      </trkpt>
      <trkpt lat="41.8664546683" lon="-5.9630935360">
        <ele>791.78</ele>
        <time>2020-08-10T13:38:10Z</time>
      </trkpt>
      <trkpt lat="41.8664732762" lon="-5.9630854893">
        <ele>791.78</ele>
        <time>2020-08-10T13:38:11Z</time>
      </trkpt>
      <trkpt lat="41.8664917164" lon="-5.9630748443">
        <ele>791.78</ele>
        <time>2020-08-10T13:38:12Z</time>
      </trkpt>
      <trkpt lat="41.8665099051" lon="-5.9630654566">
        <ele>791.78</ele>
        <time>2020-08-10T13:38:13Z</time>
      </trkpt>
      <trkpt lat="41.8665280100" lon="-5.9630562365">
        <ele>791.78</ele>
        <time>2020-08-10T13:38:14Z</time>
      </trkpt>
      <trkpt lat="41.8665468693" lon="-5.9630492795">
        <ele>791.78</ele>
        <time>2020-08-10T13:38:15Z</time>
      </trkpt>
      <trkpt lat="41.8665658962" lon="-5.9630431607">
        <ele>792.26</ele>
        <time>2020-08-10T13:38:16Z</time>
      </trkpt>
      <trkpt lat="41.8665844202" lon="-5.9630343597">
        <ele>792.26</ele>
        <time>2020-08-10T13:38:17Z</time>
      </trkpt>
      <trkpt lat="41.8666052073" lon="-5.9630238824">
        <ele>792.26</ele>
        <time>2020-08-10T13:38:18Z</time>
      </trkpt>
      <trkpt lat="41.8668155931" lon="-5.9629698191">
        <ele>792.74</ele>
        <time>2020-08-10T13:38:27Z</time>
      </trkpt>
      <trkpt lat="41.8670855742" lon="-5.9629270714">
        <ele>793.71</ele>
        <time>2020-08-10T13:38:38Z</time>
      </trkpt>
      <trkpt lat="41.8673956208" lon="-5.9628905263">
        <ele>795.63</ele>
        <time>2020-08-10T13:38:50Z</time>
      </trkpt>
      <trkpt lat="41.8676328287" lon="-5.9628681466">
        <ele>796.59</ele>
        <time>2020-08-10T13:39:00Z</time>
      </trkpt>
      <trkpt lat="41.8678738922" lon="-5.9628408216">
        <ele>797.07</ele>
        <time>2020-08-10T13:39:10Z</time>
      </trkpt>
      <trkpt lat="41.8680798355" lon="-5.9628148377">
        <ele>798.03</ele>
        <time>2020-08-10T13:39:19Z</time>
      </trkpt>
      <trkpt lat="41.8682876229" lon="-5.9627980739">
        <ele>799.95</ele>
        <time>2020-08-10T13:39:28Z</time>
      </trkpt>
      <trkpt lat="41.8684422690" lon="-5.9627782088">
        <ele>800.92</ele>
        <time>2020-08-10T13:39:35Z</time>
      </trkpt>
      <trkpt lat="41.8686389085" lon="-5.9627615288">
        <ele>801.88</ele>
        <time>2020-08-10T13:39:44Z</time>
      </trkpt>
      <trkpt lat="41.8688225560" lon="-5.9627357963">
        <ele>802.36</ele>
        <time>2020-08-10T13:39:52Z</time>
      </trkpt>
      <trkpt lat="41.8689880986" lon="-5.9627161827">
        <ele>803.32</ele>
        <time>2020-08-10T13:40:00Z</time>
      </trkpt>
      <trkpt lat="41.8691340275" lon="-5.9627015982">
        <ele>804.28</ele>
        <time>2020-08-10T13:40:07Z</time>
      </trkpt>
      <trkpt lat="41.8692947924" lon="-5.9626855049">
        <ele>805.24</ele>
        <time>2020-08-10T13:40:14Z</time>
      </trkpt>
      <trkpt lat="41.8695261329" lon="-5.9626530670">
        <ele>806.20</ele>
        <time>2020-08-10T13:40:24Z</time>
      </trkpt>
      <trkpt lat="41.8697454873" lon="-5.9626062121">
        <ele>806.68</ele>
        <time>2020-08-10T13:40:33Z</time>
      </trkpt>
      <trkpt lat="41.8699251115" lon="-5.9625572618">
        <ele>806.68</ele>
        <time>2020-08-10T13:40:40Z</time>
      </trkpt>
      <trkpt lat="41.8701657560" lon="-5.9624597803">
        <ele>807.16</ele>
        <time>2020-08-10T13:40:49Z</time>
      </trkpt>
      <trkpt lat="41.8704174645" lon="-5.9623380750">
        <ele>807.16</ele>
        <time>2020-08-10T13:40:58Z</time>
      </trkpt>
      <trkpt lat="41.8705718592" lon="-5.9623045474">
        <ele>807.64</ele>
        <time>2020-08-10T13:41:05Z</time>
      </trkpt>
      <trkpt lat="41.8706471287" lon="-5.9624519013">
        <ele>808.61</ele>
        <time>2020-08-10T13:41:13Z</time>
      </trkpt>
      <trkpt lat="41.8706755433" lon="-5.9628333617">
        <ele>809.09</ele>
        <time>2020-08-10T13:41:24Z</time>
      </trkpt>
      <trkpt lat="41.8707014434" lon="-5.9631222859">
        <ele>809.57</ele>
        <time>2020-08-10T13:41:32Z</time>
      </trkpt>
      <trkpt lat="41.8707249127" lon="-5.9633822925">
        <ele>810.05</ele>
        <time>2020-08-10T13:41:40Z</time>
      </trkpt>
      <trkpt lat="41.8707368989" lon="-5.9635051712">
        <ele>810.05</ele>
        <time>2020-08-10T13:41:44Z</time>
      </trkpt>
      <trkpt lat="41.8708453607" lon="-5.9635686222">
        <ele>811.01</ele>
        <time>2020-08-10T13:41:51Z</time>
      </trkpt>
      <trkpt lat="41.8708874378" lon="-5.9635477513">
        <ele>811.49</ele>
        <time>2020-08-10T13:41:53Z</time>
      </trkpt>
      <trkpt lat="41.8711119890" lon="-5.9634360205">
        <ele>811.49</ele>
        <time>2020-08-10T13:42:02Z</time>
      </trkpt>
      <trkpt lat="41.8713424914" lon="-5.9633145668">
        <ele>811.97</ele>
        <time>2020-08-10T13:42:10Z</time>
      </trkpt>
      <trkpt lat="41.8716185912" lon="-5.9631652012">
        <ele>811.01</ele>
        <time>2020-08-10T13:42:19Z</time>
      </trkpt>
      <trkpt lat="41.8719275482" lon="-5.9629994072">
        <ele>809.09</ele>
        <time>2020-08-10T13:42:27Z</time>
      </trkpt>
      <trkpt lat="41.8722136226" lon="-5.9628217109">
        <ele>806.20</ele>
        <time>2020-08-10T13:42:36Z</time>
      </trkpt>
      <trkpt lat="41.8723800033" lon="-5.9627000056">
        <ele>804.76</ele>
        <time>2020-08-10T13:42:44Z</time>
      </trkpt>
      <trkpt lat="41.8725408521" lon="-5.9625978302">
        <ele>802.84</ele>
        <time>2020-08-10T13:42:52Z</time>
      </trkpt>
      <trkpt lat="41.8727214821" lon="-5.9624889493">
        <ele>800.92</ele>
        <time>2020-08-10T13:43:01Z</time>
      </trkpt>
      <trkpt lat="41.8728528265" lon="-5.9623853490">
        <ele>799.47</ele>
        <time>2020-08-10T13:43:08Z</time>
      </trkpt>
      <trkpt lat="41.8731223885" lon="-5.9623287711">
        <ele>797.55</ele>
        <time>2020-08-10T13:43:17Z</time>
      </trkpt>
      <trkpt lat="41.8733533937" lon="-5.9622820839">
        <ele>795.63</ele>
        <time>2020-08-10T13:43:25Z</time>
      </trkpt>
      <trkpt lat="41.8736491073" lon="-5.9622193035">
        <ele>793.71</ele>
        <time>2020-08-10T13:43:34Z</time>
      </trkpt>
      <trkpt lat="41.8739138078" lon="-5.9621794894">
        <ele>792.74</ele>
        <time>2020-08-10T13:43:42Z</time>
      </trkpt>
      <trkpt lat="41.8742370140" lon="-5.9621297847">
        <ele>790.82</ele>
        <time>2020-08-10T13:43:51Z</time>
      </trkpt>
      <trkpt lat="41.8744644150" lon="-5.9621076565">
        <ele>788.42</ele>
        <time>2020-08-10T13:43:59Z</time>
      </trkpt>
      <trkpt lat="41.8746844400" lon="-5.9620988555">
        <ele>786.98</ele>
        <time>2020-08-10T13:44:08Z</time>
      </trkpt>
      <trkpt lat="41.8748807441" lon="-5.9620963410">
        <ele>785.53</ele>
        <time>2020-08-10T13:44:14Z</time>
      </trkpt>
      <trkpt lat="41.8750880286" lon="-5.9620998614">
        <ele>784.57</ele>
        <time>2020-08-10T13:44:20Z</time>
      </trkpt>
      <trkpt lat="41.8754579220" lon="-5.9621262643">
        <ele>783.13</ele>
        <time>2020-08-10T13:44:30Z</time>
      </trkpt>
      <trkpt lat="41.8758051842" lon="-5.9621673357">
        <ele>782.17</ele>
        <time>2020-08-10T13:44:39Z</time>
      </trkpt>
      <trkpt lat="41.8760049250" lon="-5.9621798247">
        <ele>781.21</ele>
        <time>2020-08-10T13:44:46Z</time>
      </trkpt>
      <trkpt lat="41.8762287218" lon="-5.9622275177">
        <ele>780.25</ele>
        <time>2020-08-10T13:44:55Z</time>
      </trkpt>
      <trkpt lat="41.8764569610" lon="-5.9622595366">
        <ele>779.29</ele>
        <time>2020-08-10T13:45:03Z</time>
      </trkpt>
      <trkpt lat="41.8767330609" lon="-5.9622632246">
        <ele>778.81</ele>
        <time>2020-08-10T13:45:11Z</time>
      </trkpt>
      <trkpt lat="41.8770571053" lon="-5.9622571897">
        <ele>777.36</ele>
        <time>2020-08-10T13:45:20Z</time>
      </trkpt>
      <trkpt lat="41.8773746956" lon="-5.9622581117">
        <ele>776.40</ele>
        <time>2020-08-10T13:45:28Z</time>
      </trkpt>
      <trkpt lat="41.8776766118" lon="-5.9622823354">
        <ele>775.92</ele>
        <time>2020-08-10T13:45:36Z</time>
      </trkpt>
      <trkpt lat="41.8780055176" lon="-5.9622058086">
        <ele>774.48</ele>
        <time>2020-08-10T13:45:45Z</time>
      </trkpt>
      <trkpt lat="41.8783058412" lon="-5.9620771464">
        <ele>773.04</ele>
        <time>2020-08-10T13:45:53Z</time>
      </trkpt>
      <trkpt lat="41.8786401954" lon="-5.9619072452">
        <ele>771.60</ele>
        <time>2020-08-10T13:46:01Z</time>
      </trkpt>
      <trkpt lat="41.8791934010" lon="-5.9616100229">
        <ele>769.67</ele>
        <time>2020-08-10T13:46:13Z</time>
      </trkpt>
      <trkpt lat="41.8796175253" lon="-5.9613832925">
        <ele>768.23</ele>
        <time>2020-08-10T13:46:23Z</time>
      </trkpt>
      <trkpt lat="41.8800043501" lon="-5.9611574002">
        <ele>768.23</ele>
        <time>2020-08-10T13:46:33Z</time>
      </trkpt>
      <trkpt lat="41.8801708985" lon="-5.9610000718">
        <ele>768.23</ele>
        <time>2020-08-10T13:46:39Z</time>
      </trkpt>
      <trkpt lat="41.8803564738" lon="-5.9608875029">
        <ele>767.75</ele>
        <time>2020-08-10T13:46:47Z</time>
      </trkpt>
      <trkpt lat="41.8805431388" lon="-5.9608802944">
        <ele>767.27</ele>
        <time>2020-08-10T13:46:55Z</time>
      </trkpt>
      <trkpt lat="41.8805925082" lon="-5.9608870838">
        <ele>767.27</ele>
        <time>2020-08-10T13:46:58Z</time>
      </trkpt>
      <trkpt lat="41.8806055002" lon="-5.9608758520">
        <ele>767.27</ele>
        <time>2020-08-10T13:46:59Z</time>
      </trkpt>
      <trkpt lat="41.8807502557" lon="-5.9607219603">
        <ele>767.27</ele>
        <time>2020-08-10T13:47:06Z</time>
      </trkpt>
      <trkpt lat="41.8808604777" lon="-5.9605933819">
        <ele>766.79</ele>
        <time>2020-08-10T13:47:12Z</time>
      </trkpt>
      <trkpt lat="41.8809755612" lon="-5.9604959842">
        <ele>766.79</ele>
        <time>2020-08-10T13:47:18Z</time>
      </trkpt>
      <trkpt lat="41.8812095840" lon="-5.9602806531">
        <ele>766.31</ele>
        <time>2020-08-10T13:47:27Z</time>
      </trkpt>
      <trkpt lat="41.8814052176" lon="-5.9601069801">
        <ele>766.31</ele>
        <time>2020-08-10T13:47:36Z</time>
      </trkpt>
      <trkpt lat="41.8816291820" lon="-5.9599380847">
        <ele>766.31</ele>
        <time>2020-08-10T13:47:45Z</time>
      </trkpt>
      <trkpt lat="41.8818927091" lon="-5.9598902240">
        <ele>765.35</ele>
        <time>2020-08-10T13:47:54Z</time>
      </trkpt>
      <trkpt lat="41.8821687251" lon="-5.9598904755">
        <ele>765.83</ele>
        <time>2020-08-10T13:48:04Z</time>
      </trkpt>
      <trkpt lat="41.8824393768" lon="-5.9598618094">
        <ele>766.79</ele>
        <time>2020-08-10T13:48:14Z</time>
      </trkpt>
      <trkpt lat="41.8826783448" lon="-5.9598432016">
        <ele>766.79</ele>
        <time>2020-08-10T13:48:23Z</time>
      </trkpt>
      <trkpt lat="41.8829783332" lon="-5.9598233365">
        <ele>767.27</ele>
        <time>2020-08-10T13:48:33Z</time>
      </trkpt>
      <trkpt lat="41.8832122721" lon="-5.9598472249">
        <ele>767.75</ele>
        <time>2020-08-10T13:48:42Z</time>
      </trkpt>
      <trkpt lat="41.8834279384" lon="-5.9599705227">
        <ele>769.19</ele>
        <time>2020-08-10T13:48:51Z</time>
      </trkpt>
      <trkpt lat="41.8836713489" lon="-5.9600755479">
        <ele>771.11</ele>
        <time>2020-08-10T13:49:00Z</time>
      </trkpt>
      <trkpt lat="41.8839279190" lon="-5.9601850156">
        <ele>771.11</ele>
        <time>2020-08-10T13:49:09Z</time>
      </trkpt>
      <trkpt lat="41.8841700722" lon="-5.9602878615">
        <ele>772.08</ele>
        <time>2020-08-10T13:49:18Z</time>
      </trkpt>
      <trkpt lat="41.8844177574" lon="-5.9603880253">
        <ele>772.56</ele>
        <time>2020-08-10T13:49:27Z</time>
      </trkpt>
      <trkpt lat="41.8846532051" lon="-5.9604699165">
        <ele>772.08</ele>
        <time>2020-08-10T13:49:34Z</time>
      </trkpt>
      <trkpt lat="41.8849995453" lon="-5.9606282506">
        <ele>771.11</ele>
        <time>2020-08-10T13:49:44Z</time>
      </trkpt>
      <trkpt lat="41.8851908203" lon="-5.9607234690">
        <ele>770.63</ele>
        <time>2020-08-10T13:49:51Z</time>
      </trkpt>
      <trkpt lat="41.8853610568" lon="-5.9607997444">
        <ele>770.63</ele>
        <time>2020-08-10T13:49:58Z</time>
      </trkpt>
      <trkpt lat="41.8855033815" lon="-5.9608719125">
        <ele>769.67</ele>
        <time>2020-08-10T13:50:04Z</time>
      </trkpt>
      <trkpt lat="41.8857402541" lon="-5.9609710705">
        <ele>769.19</ele>
        <time>2020-08-10T13:50:13Z</time>
      </trkpt>
      <trkpt lat="41.8859145138" lon="-5.9610292409">
        <ele>770.15</ele>
        <time>2020-08-10T13:50:19Z</time>
      </trkpt>
      <trkpt lat="41.8861192837" lon="-5.9611196816">
        <ele>770.15</ele>
        <time>2020-08-10T13:50:27Z</time>
      </trkpt>
      <trkpt lat="41.8861590978" lon="-5.9611257166">
        <ele>770.15</ele>
        <time>2020-08-10T13:50:34Z</time>
      </trkpt>
      <trkpt lat="41.8861533143" lon="-5.9611191787">
        <ele>771.60</ele>
        <time>2020-08-10T13:50:45Z</time>
      </trkpt>
      <trkpt lat="41.8861402385" lon="-5.9611035883">
        <ele>774.00</ele>
        <time>2020-08-10T13:50:59Z</time>
      </trkpt>
      <trkpt lat="41.8861347064" lon="-5.9610883333">
        <ele>776.88</ele>
        <time>2020-08-10T13:51:18Z</time>
      </trkpt>
      <trkpt lat="41.8861295097" lon="-5.9610885847">
        <ele>778.32</ele>
        <time>2020-08-10T13:51:35Z</time>
      </trkpt>
      <trkpt lat="41.8861239776" lon="-5.9610760957">
        <ele>780.25</ele>
        <time>2020-08-10T13:51:56Z</time>
      </trkpt>
      <trkpt lat="41.8861124106" lon="-5.9610709827">
        <ele>780.73</ele>
        <time>2020-08-10T13:52:23Z</time>
      </trkpt>
      <trkpt lat="41.8861200381" lon="-5.9610695578">
        <ele>780.73</ele>
        <time>2020-08-10T13:52:50Z</time>
      </trkpt>
      <trkpt lat="41.8861282524" lon="-5.9611039236">
        <ele>778.32</ele>
        <time>2020-08-10T13:53:15Z</time>
      </trkpt>
      <trkpt lat="41.8861290906" lon="-5.9611340985">
        <ele>775.92</ele>
        <time>2020-08-10T13:53:38Z</time>
      </trkpt>
      <trkpt lat="41.8861305993" lon="-5.9611196816">
        <ele>774.96</ele>
        <time>2020-08-10T13:53:57Z</time>
      </trkpt>
      <trkpt lat="41.8861342035" lon="-5.9611224476">
        <ele>775.92</ele>
        <time>2020-08-10T13:54:23Z</time>
      </trkpt>
      <trkpt lat="41.8861355446" lon="-5.9611273091">
        <ele>776.40</ele>
        <time>2020-08-10T13:54:46Z</time>
      </trkpt>
      <trkpt lat="41.8861347903" lon="-5.9611083660">
        <ele>775.92</ele>
        <time>2020-08-10T13:55:15Z</time>
      </trkpt>
      <trkpt lat="41.8861320242" lon="-5.9611112159">
        <ele>774.96</ele>
        <time>2020-08-10T13:55:41Z</time>
      </trkpt>
      <trkpt lat="41.8861431722" lon="-5.9611043427">
        <ele>773.52</ele>
        <time>2020-08-10T13:56:13Z</time>
      </trkpt>
      <trkpt lat="41.8861460220" lon="-5.9611220285">
        <ele>774.48</ele>
        <time>2020-08-10T13:56:35Z</time>
      </trkpt>
      <trkpt lat="41.8861570023" lon="-5.9611330088">
        <ele>774.00</ele>
        <time>2020-08-10T13:56:55Z</time>
      </trkpt>
      <trkpt lat="41.8861495424" lon="-5.9611251298">
        <ele>774.00</ele>
        <time>2020-08-10T13:57:12Z</time>
      </trkpt>
      <trkpt lat="41.8861373048" lon="-5.9611178376">
        <ele>776.40</ele>
        <time>2020-08-10T13:57:34Z</time>
      </trkpt>
      <trkpt lat="41.8861285876" lon="-5.9610885847">
        <ele>776.88</ele>
        <time>2020-08-10T13:57:58Z</time>
      </trkpt>
      <trkpt lat="41.8861184455" lon="-5.9610848967">
        <ele>778.81</ele>
        <time>2020-08-10T13:58:18Z</time>
      </trkpt>
      <trkpt lat="41.8861414120" lon="-5.9610981401">
        <ele>778.81</ele>
        <time>2020-08-10T13:58:37Z</time>
      </trkpt>
      <trkpt lat="41.8861549906" lon="-5.9611229505">
        <ele>776.40</ele>
        <time>2020-08-10T13:58:47Z</time>
      </trkpt>
      <trkpt lat="41.8861608580" lon="-5.9611384571">
        <ele>774.00</ele>
        <time>2020-08-10T13:58:57Z</time>
      </trkpt>
      <trkpt lat="41.8862109818" lon="-5.9611587413">
        <ele>773.52</ele>
        <time>2020-08-10T13:59:09Z</time>
      </trkpt>
      <trkpt lat="41.8863673881" lon="-5.9612322506">
        <ele>773.04</ele>
        <time>2020-08-10T13:59:16Z</time>
      </trkpt>
      <trkpt lat="41.8866514508" lon="-5.9613796044">
        <ele>772.08</ele>
        <time>2020-08-10T13:59:27Z</time>
      </trkpt>
      <trkpt lat="41.8868920114" lon="-5.9615138825">
        <ele>772.08</ele>
        <time>2020-08-10T13:59:36Z</time>
      </trkpt>
      <trkpt lat="41.8871881440" lon="-5.9616746474">
        <ele>771.60</ele>
        <time>2020-08-10T13:59:46Z</time>
      </trkpt>
      <trkpt lat="41.8874910660" lon="-5.9618473146">
        <ele>770.63</ele>
        <time>2020-08-10T13:59:56Z</time>
      </trkpt>
      <trkpt lat="41.8876908068" lon="-5.9619442932">
        <ele>769.67</ele>
        <time>2020-08-10T14:00:03Z</time>
      </trkpt>
      <trkpt lat="41.8879766297" lon="-5.9620995261">
        <ele>769.67</ele>
        <time>2020-08-10T14:00:12Z</time>
      </trkpt>
      <trkpt lat="41.8881964870" lon="-5.9622364026">
        <ele>769.19</ele>
        <time>2020-08-10T14:00:19Z</time>
      </trkpt>
      <trkpt lat="41.8883940484" lon="-5.9623348061">
        <ele>768.71</ele>
        <time>2020-08-10T14:00:26Z</time>
      </trkpt>
      <trkpt lat="41.8886050209" lon="-5.9624391608">
        <ele>769.19</ele>
        <time>2020-08-10T14:00:33Z</time>
      </trkpt>
      <trkpt lat="41.8888783548" lon="-5.9625793062">
        <ele>768.71</ele>
        <time>2020-08-10T14:00:41Z</time>
      </trkpt>
      <trkpt lat="41.8891696259" lon="-5.9627206251">
        <ele>768.23</ele>
        <time>2020-08-10T14:00:50Z</time>
      </trkpt>
      <trkpt lat="41.8894266151" lon="-5.9628370497">
        <ele>767.27</ele>
        <time>2020-08-10T14:00:59Z</time>
      </trkpt>
      <trkpt lat="41.8896493223" lon="-5.9629442543">
        <ele>766.31</ele>
        <time>2020-08-10T14:01:07Z</time>
      </trkpt>
      <trkpt lat="41.8899574410" lon="-5.9630743414">
        <ele>765.35</ele>
        <time>2020-08-10T14:01:16Z</time>
      </trkpt>
      <trkpt lat="41.8902359717" lon="-5.9632174205">
        <ele>764.39</ele>
        <time>2020-08-10T14:01:23Z</time>
      </trkpt>
      <trkpt lat="41.8905597646" lon="-5.9633630142">
        <ele>763.90</ele>
        <time>2020-08-10T14:01:32Z</time>
      </trkpt>
      <trkpt lat="41.8908067793" lon="-5.9634796064">
        <ele>763.90</ele>
        <time>2020-08-10T14:01:40Z</time>
      </trkpt>
      <trkpt lat="41.8910994753" lon="-5.9636263736">
        <ele>763.90</ele>
        <time>2020-08-10T14:01:50Z</time>
      </trkpt>
      <trkpt lat="41.8913158122" lon="-5.9637317341">
        <ele>763.90</ele>
        <time>2020-08-10T14:01:59Z</time>
      </trkpt>
      <trkpt lat="41.8914980348" lon="-5.9638120327">
        <ele>764.39</ele>
        <time>2020-08-10T14:02:08Z</time>
      </trkpt>
      <trkpt lat="41.8917123601" lon="-5.9639237635">
        <ele>765.83</ele>
        <time>2020-08-10T14:02:19Z</time>
      </trkpt>
      <trkpt lat="41.8918891344" lon="-5.9640151262">
        <ele>767.27</ele>
        <time>2020-08-10T14:02:28Z</time>
      </trkpt>
      <trkpt lat="41.8920516595" lon="-5.9640929941">
        <ele>768.23</ele>
        <time>2020-08-10T14:02:37Z</time>
      </trkpt>
      <trkpt lat="41.8922562618" lon="-5.9641938284">
        <ele>770.15</ele>
        <time>2020-08-10T14:02:48Z</time>
      </trkpt>
      <trkpt lat="41.8924184516" lon="-5.9642742109">
        <ele>771.60</ele>
        <time>2020-08-10T14:02:57Z</time>
      </trkpt>
      <trkpt lat="41.8925865926" lon="-5.9643517435">
        <ele>772.56</ele>
        <time>2020-08-10T14:03:06Z</time>
      </trkpt>
      <trkpt lat="41.8927212898" lon="-5.9644114226">
        <ele>773.04</ele>
        <time>2020-08-10T14:03:13Z</time>
      </trkpt>
      <trkpt lat="41.8928980641" lon="-5.9644311201">
        <ele>773.52</ele>
        <time>2020-08-10T14:03:23Z</time>
      </trkpt>
      <trkpt lat="41.8930735812" lon="-5.9644307848">
        <ele>774.48</ele>
        <time>2020-08-10T14:03:32Z</time>
      </trkpt>
      <trkpt lat="41.8932687957" lon="-5.9644224867">
        <ele>774.96</ele>
        <time>2020-08-10T14:03:42Z</time>
      </trkpt>
      <trkpt lat="41.8934386130" lon="-5.9644203912">
        <ele>775.44</ele>
        <time>2020-08-10T14:03:51Z</time>
      </trkpt>
      <trkpt lat="41.8936222605" lon="-5.9644177929">
        <ele>777.36</ele>
        <time>2020-08-10T14:04:01Z</time>
      </trkpt>
      <trkpt lat="41.8937013019" lon="-5.9644105844">
        <ele>777.36</ele>
        <time>2020-08-10T14:04:08Z</time>
      </trkpt>
      <trkpt lat="41.8937074207" lon="-5.9643996879">
        <ele>777.36</ele>
        <time>2020-08-10T14:04:19Z</time>
      </trkpt>
      <trkpt lat="41.8936974462" lon="-5.9644114226">
        <ele>777.36</ele>
        <time>2020-08-10T14:04:30Z</time>
      </trkpt>
      <trkpt lat="41.8936989550" lon="-5.9644146077">
        <ele>778.32</ele>
        <time>2020-08-10T14:04:40Z</time>
      </trkpt>
      <trkpt lat="41.8937018048" lon="-5.9644125961">
        <ele>778.81</ele>
        <time>2020-08-10T14:04:51Z</time>
      </trkpt>
      <trkpt lat="41.8936973624" lon="-5.9644078184">
        <ele>777.84</ele>
        <time>2020-08-10T14:05:04Z</time>
      </trkpt>
      <trkpt lat="41.8936921656" lon="-5.9644092433">
        <ele>776.40</ele>
        <time>2020-08-10T14:05:19Z</time>
      </trkpt>
      <trkpt lat="41.8936956860" lon="-5.9644054715">
        <ele>777.84</ele>
        <time>2020-08-10T14:05:36Z</time>
      </trkpt>
      <trkpt lat="41.8937138747" lon="-5.9643994365">
        <ele>777.84</ele>
        <time>2020-08-10T14:05:48Z</time>
      </trkpt>
      <trkpt lat="41.8937264476" lon="-5.9643957485">
        <ele>777.84</ele>
        <time>2020-08-10T14:05:49Z</time>
      </trkpt>
      <trkpt lat="41.8937397748" lon="-5.9643881209">
        <ele>777.36</ele>
        <time>2020-08-10T14:05:50Z</time>
      </trkpt>
      <trkpt lat="41.8937524315" lon="-5.9643850196">
        <ele>777.36</ele>
        <time>2020-08-10T14:05:51Z</time>
      </trkpt>
      <trkpt lat="41.8937676866" lon="-5.9643880371">
        <ele>777.36</ele>
        <time>2020-08-10T14:05:52Z</time>
      </trkpt>
      <trkpt lat="41.8937835284" lon="-5.9643901326">
        <ele>777.84</ele>
        <time>2020-08-10T14:05:53Z</time>
      </trkpt>
      <trkpt lat="41.8937987834" lon="-5.9643903002">
        <ele>777.84</ele>
        <time>2020-08-10T14:05:54Z</time>
      </trkpt>
      <trkpt lat="41.8938142899" lon="-5.9643887077">
        <ele>777.84</ele>
        <time>2020-08-10T14:05:55Z</time>
      </trkpt>
      <trkpt lat="41.8938675150" lon="-5.9643898811">
        <ele>778.32</ele>
        <time>2020-08-10T14:06:02Z</time>
      </trkpt>
      <trkpt lat="41.8939038087" lon="-5.9643947426">
        <ele>778.32</ele>
        <time>2020-08-10T14:06:13Z</time>
      </trkpt>
      <trkpt lat="41.8940920662" lon="-5.9643776435">
        <ele>778.81</ele>
        <time>2020-08-10T14:06:22Z</time>
      </trkpt>
      <trkpt lat="41.8942876160" lon="-5.9643716086">
        <ele>779.77</ele>
        <time>2020-08-10T14:06:31Z</time>
      </trkpt>
      <trkpt lat="41.8945075572" lon="-5.9643649869">
        <ele>780.73</ele>
        <time>2020-08-10T14:06:41Z</time>
      </trkpt>
      <trkpt lat="41.8947344553" lon="-5.9643586166">
        <ele>781.69</ele>
        <time>2020-08-10T14:06:51Z</time>
      </trkpt>
      <trkpt lat="41.8949930370" lon="-5.9643496480">
        <ele>782.65</ele>
        <time>2020-08-10T14:07:02Z</time>
      </trkpt>
      <trkpt lat="41.8951940350" lon="-5.9643462952">
        <ele>782.65</ele>
        <time>2020-08-10T14:07:11Z</time>
      </trkpt>
      <trkpt lat="41.8953984696" lon="-5.9643330518">
        <ele>783.13</ele>
        <time>2020-08-10T14:07:20Z</time>
      </trkpt>
      <trkpt lat="41.8956640922" lon="-5.9643160366">
        <ele>783.61</ele>
        <time>2020-08-10T14:07:29Z</time>
      </trkpt>
      <trkpt lat="41.8959230091" lon="-5.9642919805">
        <ele>784.09</ele>
        <time>2020-08-10T14:07:37Z</time>
      </trkpt>
      <trkpt lat="41.8962264340" lon="-5.9642711096">
        <ele>783.61</ele>
        <time>2020-08-10T14:07:47Z</time>
      </trkpt>
      <trkpt lat="41.8964466266" lon="-5.9643844329">
        <ele>781.69</ele>
        <time>2020-08-10T14:07:55Z</time>
      </trkpt>
      <trkpt lat="41.8966449425" lon="-5.9645546693">
        <ele>782.17</ele>
        <time>2020-08-10T14:08:02Z</time>
      </trkpt>
      <trkpt lat="41.8968502991" lon="-5.9647453576">
        <ele>784.09</ele>
        <time>2020-08-10T14:08:11Z</time>
      </trkpt>
      <trkpt lat="41.8970196135" lon="-5.9649129119">
        <ele>786.50</ele>
        <time>2020-08-10T14:08:21Z</time>
      </trkpt>
      <trkpt lat="41.8972237967" lon="-5.9651011694">
        <ele>787.46</ele>
        <time>2020-08-10T14:08:32Z</time>
      </trkpt>
      <trkpt lat="41.8974120542" lon="-5.9652802907">
        <ele>787.94</ele>
        <time>2020-08-10T14:08:42Z</time>
      </trkpt>
      <trkpt lat="41.8976301514" lon="-5.9654798638">
        <ele>788.42</ele>
        <time>2020-08-10T14:08:54Z</time>
      </trkpt>
      <trkpt lat="41.8977735657" lon="-5.9656169917">
        <ele>789.38</ele>
        <time>2020-08-10T14:09:02Z</time>
      </trkpt>
      <trkpt lat="41.8979429640" lon="-5.9657692071">
        <ele>790.34</ele>
        <time>2020-08-10T14:09:12Z</time>
      </trkpt>
      <trkpt lat="41.8980639987" lon="-5.9658769146">
        <ele>791.30</ele>
        <time>2020-08-10T14:09:19Z</time>
      </trkpt>
      <trkpt lat="41.8982646614" lon="-5.9660464805">
        <ele>792.74</ele>
        <time>2020-08-10T14:09:30Z</time>
      </trkpt>
      <trkpt lat="41.8984506559" lon="-5.9662182257">
        <ele>793.71</ele>
        <time>2020-08-10T14:09:40Z</time>
      </trkpt>
      <trkpt lat="41.8986557610" lon="-5.9663970117">
        <ele>794.67</ele>
        <time>2020-08-10T14:09:51Z</time>
      </trkpt>
      <trkpt lat="41.8988247402" lon="-5.9665546753">
        <ele>794.67</ele>
        <time>2020-08-10T14:10:00Z</time>
      </trkpt>
      <trkpt lat="41.8990238104" lon="-5.9667388257">
        <ele>796.11</ele>
        <time>2020-08-10T14:10:11Z</time>
      </trkpt>
      <trkpt lat="41.8992237188" lon="-5.9669205453">
        <ele>797.55</ele>
        <time>2020-08-10T14:10:22Z</time>
      </trkpt>
      <trkpt lat="41.8993939552" lon="-5.9670718387">
        <ele>798.99</ele>
        <time>2020-08-10T14:10:31Z</time>
      </trkpt>
      <trkpt lat="41.8995289877" lon="-5.9671942983">
        <ele>799.47</ele>
        <time>2020-08-10T14:10:38Z</time>
      </trkpt>
      <trkpt lat="41.8997448217" lon="-5.9673827235">
        <ele>799.95</ele>
        <time>2020-08-10T14:10:49Z</time>
      </trkpt>
      <trkpt lat="41.8999351747" lon="-5.9675568156">
        <ele>800.44</ele>
        <time>2020-08-10T14:10:59Z</time>
      </trkpt>
      <trkpt lat="41.9001771603" lon="-5.9677748289">
        <ele>801.88</ele>
        <time>2020-08-10T14:11:11Z</time>
      </trkpt>
      <trkpt lat="41.9003713690" lon="-5.9679480828">
        <ele>802.36</ele>
        <time>2020-08-10T14:11:20Z</time>
      </trkpt>
      <trkpt lat="41.9006432779" lon="-5.9681861289">
        <ele>802.84</ele>
        <time>2020-08-10T14:11:30Z</time>
      </trkpt>
      <trkpt lat="41.9008916337" lon="-5.9684182238">
        <ele>803.80</ele>
        <time>2020-08-10T14:11:40Z</time>
      </trkpt>
      <trkpt lat="41.9010922965" lon="-5.9686022904">
        <ele>805.72</ele>
        <time>2020-08-10T14:11:50Z</time>
      </trkpt>
      <trkpt lat="41.9012892712" lon="-5.9687759634">
        <ele>807.64</ele>
        <time>2020-08-10T14:12:00Z</time>
      </trkpt>
      <trkpt lat="41.9014358707" lon="-5.9689095709">
        <ele>808.61</ele>
        <time>2020-08-10T14:12:08Z</time>
      </trkpt>
      <trkpt lat="41.9016098790" lon="-5.9690716770">
        <ele>810.05</ele>
        <time>2020-08-10T14:12:16Z</time>
      </trkpt>
      <trkpt lat="41.9019286428" lon="-5.9693583380">
        <ele>811.01</ele>
        <time>2020-08-10T14:12:27Z</time>
      </trkpt>
      <trkpt lat="41.9021051656" lon="-5.9695094638">
        <ele>811.97</ele>
        <time>2020-08-10T14:12:35Z</time>
      </trkpt>
      <trkpt lat="41.9022572972" lon="-5.9696499445">
        <ele>811.97</ele>
        <time>2020-08-10T14:12:43Z</time>
      </trkpt>
      <trkpt lat="41.9023939222" lon="-5.9698257968">
        <ele>811.49</ele>
        <time>2020-08-10T14:12:51Z</time>
      </trkpt>
      <trkpt lat="41.9025685173" lon="-5.9699776769">
        <ele>811.01</ele>
        <time>2020-08-10T14:12:59Z</time>
      </trkpt>
      <trkpt lat="41.9027815014" lon="-5.9701838717">
        <ele>810.05</ele>
        <time>2020-08-10T14:13:09Z</time>
      </trkpt>
      <trkpt lat="41.9028151967" lon="-5.9702244401">
        <ele>810.05</ele>
        <time>2020-08-10T14:13:14Z</time>
      </trkpt>
      <trkpt lat="41.9028159510" lon="-5.9702299722">
        <ele>809.57</ele>
        <time>2020-08-10T14:13:32Z</time>
      </trkpt>
      <trkpt lat="41.9028138556" lon="-5.9702292178">
        <ele>808.61</ele>
        <time>2020-08-10T14:13:45Z</time>
      </trkpt>
      <trkpt lat="41.9028167892" lon="-5.9702297207">
        <ele>809.09</ele>
        <time>2020-08-10T14:13:57Z</time>
      </trkpt>
      <trkpt lat="41.9028072339" lon="-5.9702250268">
        <ele>808.61</ele>
        <time>2020-08-10T14:14:10Z</time>
      </trkpt>
      <trkpt lat="41.9028050546" lon="-5.9702293854">
        <ele>808.61</ele>
        <time>2020-08-10T14:14:23Z</time>
      </trkpt>
      <trkpt lat="41.9028076530" lon="-5.9702361748">
        <ele>811.01</ele>
        <time>2020-08-10T14:14:40Z</time>
      </trkpt>
      <trkpt lat="41.9028168730" lon="-5.9702356718">
        <ele>810.05</ele>
        <time>2020-08-10T14:14:52Z</time>
      </trkpt>
      <trkpt lat="41.9028929807" lon="-5.9702861309">
        <ele>809.57</ele>
        <time>2020-08-10T14:14:58Z</time>
      </trkpt>
      <trkpt lat="41.9030458666" lon="-5.9704079200">
        <ele>808.61</ele>
        <time>2020-08-10T14:15:05Z</time>
      </trkpt>
      <trkpt lat="41.9032560010" lon="-5.9706030507">
        <ele>806.20</ele>
        <time>2020-08-10T14:15:12Z</time>
      </trkpt>
      <trkpt lat="41.9035232998" lon="-5.9708510712">
        <ele>801.88</ele>
        <time>2020-08-10T14:15:19Z</time>
      </trkpt>
      <trkpt lat="41.9038344361" lon="-5.9711647220">
        <ele>796.59</ele>
        <time>2020-08-10T14:15:26Z</time>
      </trkpt>
      <trkpt lat="41.9041241985" lon="-5.9714682307">
        <ele>793.22</ele>
        <time>2020-08-10T14:15:32Z</time>
      </trkpt>
      <trkpt lat="41.9044049084" lon="-5.9717371222">
        <ele>789.38</ele>
        <time>2020-08-10T14:15:39Z</time>
      </trkpt>
      <trkpt lat="41.9046781585" lon="-5.9719900042">
        <ele>787.46</ele>
        <time>2020-08-10T14:15:46Z</time>
      </trkpt>
      <trkpt lat="41.9047722872" lon="-5.9720853064">
        <ele>787.46</ele>
        <time>2020-08-10T14:15:52Z</time>
      </trkpt>
      <trkpt lat="41.9047755562" lon="-5.9720682912">
        <ele>788.42</ele>
        <time>2020-08-10T14:16:02Z</time>
      </trkpt>
      <trkpt lat="41.9047800824" lon="-5.9720630106">
        <ele>788.90</ele>
        <time>2020-08-10T14:16:22Z</time>
      </trkpt>
      <trkpt lat="41.9047722034" lon="-5.9720682073">
        <ele>789.38</ele>
        <time>2020-08-10T14:16:34Z</time>
      </trkpt>
      <trkpt lat="41.9047603011" lon="-5.9720605798">
        <ele>791.30</ele>
        <time>2020-08-10T14:16:57Z</time>
      </trkpt>
      <trkpt lat="41.9047592953" lon="-5.9720518626">
        <ele>790.82</ele>
        <time>2020-08-10T14:17:18Z</time>
      </trkpt>
      <trkpt lat="41.9047538470" lon="-5.9720509406">
        <ele>790.82</ele>
        <time>2020-08-10T14:17:39Z</time>
      </trkpt>
      <trkpt lat="41.9047475606" lon="-5.9720516112">
        <ele>792.26</ele>
        <time>2020-08-10T14:17:58Z</time>
      </trkpt>
      <trkpt lat="41.9047501590" lon="-5.9720454924">
        <ele>792.26</ele>
        <time>2020-08-10T14:18:14Z</time>
      </trkpt>
      <trkpt lat="41.9047584571" lon="-5.9720458277">
        <ele>792.74</ele>
        <time>2020-08-10T14:18:32Z</time>
      </trkpt>
      <trkpt lat="41.9047609717" lon="-5.9720480908">
        <ele>792.26</ele>
        <time>2020-08-10T14:18:49Z</time>
      </trkpt>
      <trkpt lat="41.9047708623" lon="-5.9720511921">
        <ele>791.30</ele>
        <time>2020-08-10T14:19:08Z</time>
      </trkpt>
      <trkpt lat="41.9047768973" lon="-5.9720576461">
        <ele>791.30</ele>
        <time>2020-08-10T14:19:13Z</time>
      </trkpt>
      <trkpt lat="41.9047877938" lon="-5.9720615018">
        <ele>790.82</ele>
        <time>2020-08-10T14:19:14Z</time>
      </trkpt>
      <trkpt lat="41.9049067330" lon="-5.9720991366">
        <ele>790.34</ele>
        <time>2020-08-10T14:19:20Z</time>
      </trkpt>
      <trkpt lat="41.9052088168" lon="-5.9722371865">
        <ele>791.30</ele>
        <time>2020-08-10T14:19:30Z</time>
      </trkpt>
      <trkpt lat="41.9055120740" lon="-5.9723344166">
        <ele>792.26</ele>
        <time>2020-08-10T14:19:40Z</time>
      </trkpt>
      <trkpt lat="41.9058097992" lon="-5.9724220075">
        <ele>794.19</ele>
        <time>2020-08-10T14:19:50Z</time>
      </trkpt>
      <trkpt lat="41.9060644414" lon="-5.9724909905">
        <ele>794.67</ele>
        <time>2020-08-10T14:19:58Z</time>
      </trkpt>
      <trkpt lat="41.9063549582" lon="-5.9725517593">
        <ele>794.19</ele>
        <time>2020-08-10T14:20:08Z</time>
      </trkpt>
      <trkpt lat="41.9066145457" lon="-5.9725924116">
        <ele>793.22</ele>
        <time>2020-08-10T14:20:16Z</time>
      </trkpt>
      <trkpt lat="41.9070070703" lon="-5.9726610593">
        <ele>790.82</ele>
        <time>2020-08-10T14:20:24Z</time>
      </trkpt>
      <trkpt lat="41.9073374849" lon="-5.9727691859">
        <ele>788.90</ele>
        <time>2020-08-10T14:20:30Z</time>
      </trkpt>
      <trkpt lat="41.9076457713" lon="-5.9729087446">
        <ele>787.46</ele>
        <time>2020-08-10T14:20:37Z</time>
      </trkpt>
      <trkpt lat="41.9080293272" lon="-5.9730947390">
        <ele>786.02</ele>
        <time>2020-08-10T14:20:44Z</time>
      </trkpt>
      <trkpt lat="41.9086355902" lon="-5.9734010138">
        <ele>783.13</ele>
        <time>2020-08-10T14:20:53Z</time>
      </trkpt>
      <trkpt lat="41.9091838505" lon="-5.9736736771">
        <ele>780.25</ele>
        <time>2020-08-10T14:21:01Z</time>
      </trkpt>
      <trkpt lat="41.9099481963" lon="-5.9740553051">
        <ele>776.88</ele>
        <time>2020-08-10T14:21:12Z</time>
      </trkpt>
      <trkpt lat="41.9105585665" lon="-5.9743466601">
        <ele>775.44</ele>
        <time>2020-08-10T14:21:22Z</time>
      </trkpt>
      <trkpt lat="41.9105972908" lon="-5.9743632562">
        <ele>775.44</ele>
        <time>2020-08-10T14:21:25Z</time>
      </trkpt>
      <trkpt lat="41.9105962850" lon="-5.9743737336">
        <ele>775.92</ele>
        <time>2020-08-10T14:21:37Z</time>
      </trkpt>
      <trkpt lat="41.9106065109" lon="-5.9743767511">
        <ele>775.92</ele>
        <time>2020-08-10T14:21:38Z</time>
      </trkpt>
      <trkpt lat="41.9106179103" lon="-5.9743785113">
        <ele>775.92</ele>
        <time>2020-08-10T14:21:39Z</time>
      </trkpt>
      <trkpt lat="41.9106309861" lon="-5.9743833728">
        <ele>775.92</ele>
        <time>2020-08-10T14:21:40Z</time>
      </trkpt>
      <trkpt lat="41.9106448162" lon="-5.9743932635">
        <ele>775.92</ele>
        <time>2020-08-10T14:21:41Z</time>
      </trkpt>
      <trkpt lat="41.9106583949" lon="-5.9744023997">
        <ele>775.92</ele>
        <time>2020-08-10T14:21:42Z</time>
      </trkpt>
      <trkpt lat="41.9106702134" lon="-5.9744127933">
        <ele>775.92</ele>
        <time>2020-08-10T14:21:43Z</time>
      </trkpt>
      <trkpt lat="41.9106806908" lon="-5.9744208399">
        <ele>775.92</ele>
        <time>2020-08-10T14:21:44Z</time>
      </trkpt>
      <trkpt lat="41.9106899947" lon="-5.9744281322">
        <ele>775.92</ele>
        <time>2020-08-10T14:21:45Z</time>
      </trkpt>
      <trkpt lat="41.9107023161" lon="-5.9744347539">
        <ele>775.92</ele>
        <time>2020-08-10T14:21:46Z</time>
      </trkpt>
      <trkpt lat="41.9107158948" lon="-5.9744396992">
        <ele>775.92</ele>
        <time>2020-08-10T14:21:47Z</time>
      </trkpt>
      <trkpt lat="41.9107308984" lon="-5.9744461533">
        <ele>775.92</ele>
        <time>2020-08-10T14:21:48Z</time>
      </trkpt>
      <trkpt lat="41.9107471593" lon="-5.9744551219">
        <ele>775.92</ele>
        <time>2020-08-10T14:21:49Z</time>
      </trkpt>
      <trkpt lat="41.9107632525" lon="-5.9744621627">
        <ele>775.92</ele>
        <time>2020-08-10T14:21:50Z</time>
      </trkpt>
      <trkpt lat="41.9107799325" lon="-5.9744720533">
        <ele>775.92</ele>
        <time>2020-08-10T14:21:51Z</time>
      </trkpt>
      <trkpt lat="41.9109385181" lon="-5.9745498374">
        <ele>776.88</ele>
        <time>2020-08-10T14:21:59Z</time>
      </trkpt>
      <trkpt lat="41.9111877959" lon="-5.9746708721">
        <ele>776.40</ele>
        <time>2020-08-10T14:22:09Z</time>
      </trkpt>
      <trkpt lat="41.9114079885" lon="-5.9747873805">
        <ele>776.40</ele>
        <time>2020-08-10T14:22:18Z</time>
      </trkpt>
      <trkpt lat="41.9116556738" lon="-5.9749060683">
        <ele>775.92</ele>
        <time>2020-08-10T14:22:28Z</time>
      </trkpt>
      <trkpt lat="41.9119268283" lon="-5.9750346467">
        <ele>774.96</ele>
        <time>2020-08-10T14:22:39Z</time>
      </trkpt>
      <trkpt lat="41.9121772796" lon="-5.9751634765">
        <ele>774.48</ele>
        <time>2020-08-10T14:22:48Z</time>
      </trkpt>
      <trkpt lat="41.9124395493" lon="-5.9753119200">
        <ele>774.00</ele>
        <time>2020-08-10T14:22:57Z</time>
      </trkpt>
      <trkpt lat="41.9126799423" lon="-5.9754217230">
        <ele>773.04</ele>
        <time>2020-08-10T14:23:04Z</time>
      </trkpt>
      <trkpt lat="41.9129106961" lon="-5.9755447693">
        <ele>772.56</ele>
        <time>2020-08-10T14:23:10Z</time>
      </trkpt>
      <trkpt lat="41.9133224990" lon="-5.9758711606">
        <ele>771.11</ele>
        <time>2020-08-10T14:23:20Z</time>
      </trkpt>
      <trkpt lat="41.9137291890" lon="-5.9762638528">
        <ele>769.67</ele>
        <time>2020-08-10T14:23:30Z</time>
      </trkpt>
      <trkpt lat="41.9141895231" lon="-5.9767372627">
        <ele>767.75</ele>
        <time>2020-08-10T14:23:41Z</time>
      </trkpt>
      <trkpt lat="41.9146029186" lon="-5.9771599621">
        <ele>766.79</ele>
        <time>2020-08-10T14:23:51Z</time>
      </trkpt>
      <trkpt lat="41.9150022324" lon="-5.9775799792">
        <ele>765.83</ele>
        <time>2020-08-10T14:24:02Z</time>
      </trkpt>
      <trkpt lat="41.9152466487" lon="-5.9778338671">
        <ele>764.87</ele>
        <time>2020-08-10T14:24:10Z</time>
      </trkpt>
      <trkpt lat="41.9155258499" lon="-5.9780771937">
        <ele>764.87</ele>
        <time>2020-08-10T14:24:18Z</time>
      </trkpt>
      <trkpt lat="41.9158310350" lon="-5.9782423172">
        <ele>764.87</ele>
        <time>2020-08-10T14:24:26Z</time>
      </trkpt>
      <trkpt lat="41.9159527402" lon="-5.9782994818">
        <ele>764.39</ele>
        <time>2020-08-10T14:24:29Z</time>
      </trkpt>
      <trkpt lat="41.9163926225" lon="-5.9785180818">
        <ele>763.90</ele>
        <time>2020-08-10T14:24:40Z</time>
      </trkpt>
      <trkpt lat="41.9169950299" lon="-5.9788288828">
        <ele>763.42</ele>
        <time>2020-08-10T14:24:55Z</time>
      </trkpt>
      <trkpt lat="41.9174309727" lon="-5.9790534340">
        <ele>763.42</ele>
        <time>2020-08-10T14:25:06Z</time>
      </trkpt>
      <trkpt lat="41.9178849366" lon="-5.9792825114">
        <ele>762.94</ele>
        <time>2020-08-10T14:25:18Z</time>
      </trkpt>
      <trkpt lat="41.9182183687" lon="-5.9794529993">
        <ele>762.46</ele>
        <time>2020-08-10T14:25:27Z</time>
      </trkpt>
      <trkpt lat="41.9186109770" lon="-5.9796561766">
        <ele>762.46</ele>
        <time>2020-08-10T14:25:37Z</time>
      </trkpt>
      <trkpt lat="41.9189248793" lon="-5.9798198752">
        <ele>761.98</ele>
        <time>2020-08-10T14:25:46Z</time>
      </trkpt>
      <trkpt lat="41.9193559606" lon="-5.9800425824">
        <ele>761.02</ele>
        <time>2020-08-10T14:25:58Z</time>
      </trkpt>
      <trkpt lat="41.9197182264" lon="-5.9802217036">
        <ele>759.58</ele>
        <time>2020-08-10T14:26:07Z</time>
      </trkpt>
      <trkpt lat="41.9201586116" lon="-5.9804526251">
        <ele>759.58</ele>
        <time>2020-08-10T14:26:18Z</time>
      </trkpt>
      <trkpt lat="41.9205010962" lon="-5.9806277230">
        <ele>759.10</ele>
        <time>2020-08-10T14:26:28Z</time>
      </trkpt>
      <trkpt lat="41.9208213687" lon="-5.9807983786">
        <ele>759.10</ele>
        <time>2020-08-10T14:26:38Z</time>
      </trkpt>
      <trkpt lat="41.9212511089" lon="-5.9810148831">
        <ele>758.14</ele>
        <time>2020-08-10T14:26:51Z</time>
      </trkpt>
      <trkpt lat="41.9215236884" lon="-5.9811670147">
        <ele>758.14</ele>
        <time>2020-08-10T14:27:01Z</time>
      </trkpt>
      <trkpt lat="41.9217230100" lon="-5.9812036436">
        <ele>758.14</ele>
        <time>2020-08-10T14:27:08Z</time>
      </trkpt>
      <trkpt lat="41.9220357388" lon="-5.9812067449">
        <ele>757.18</ele>
        <time>2020-08-10T14:27:15Z</time>
      </trkpt>
      <trkpt lat="41.9225485437" lon="-5.9812436253">
        <ele>755.73</ele>
        <time>2020-08-10T14:27:26Z</time>
      </trkpt>
      <trkpt lat="41.9230802078" lon="-5.9812873788">
        <ele>754.77</ele>
        <time>2020-08-10T14:27:37Z</time>
      </trkpt>
      <trkpt lat="41.9235031586" lon="-5.9813259356">
        <ele>753.81</ele>
        <time>2020-08-10T14:27:45Z</time>
      </trkpt>
      <trkpt lat="41.9240316376" lon="-5.9813733771">
        <ele>753.33</ele>
        <time>2020-08-10T14:27:55Z</time>
      </trkpt>
      <trkpt lat="41.9245514832" lon="-5.9813465551">
        <ele>752.85</ele>
        <time>2020-08-10T14:28:05Z</time>
      </trkpt>
      <trkpt lat="41.9251811318" lon="-5.9812529292">
        <ele>752.37</ele>
        <time>2020-08-10T14:28:17Z</time>
      </trkpt>
      <trkpt lat="41.9257918373" lon="-5.9811633267">
        <ele>752.37</ele>
        <time>2020-08-10T14:28:29Z</time>
      </trkpt>
      <trkpt lat="41.9263348170" lon="-5.9810914937">
        <ele>752.37</ele>
        <time>2020-08-10T14:28:40Z</time>
      </trkpt>
      <trkpt lat="41.9267697539" lon="-5.9810144641">
        <ele>752.37</ele>
        <time>2020-08-10T14:28:49Z</time>
      </trkpt>
      <trkpt lat="41.9273957983" lon="-5.9809262864">
        <ele>751.89</ele>
        <time>2020-08-10T14:29:01Z</time>
      </trkpt>
      <trkpt lat="41.9278529473" lon="-5.9808581416">
        <ele>751.89</ele>
        <time>2020-08-10T14:29:10Z</time>
      </trkpt>
      <trkpt lat="41.9284520019" lon="-5.9807728976">
        <ele>751.89</ele>
        <time>2020-08-10T14:29:22Z</time>
      </trkpt>
      <trkpt lat="41.9290570915" lon="-5.9806967061">
        <ele>751.89</ele>
        <time>2020-08-10T14:29:34Z</time>
      </trkpt>
      <trkpt lat="41.9294825569" lon="-5.9806796908">
        <ele>751.89</ele>
        <time>2020-08-10T14:29:43Z</time>
      </trkpt>
      <trkpt lat="41.9298559707" lon="-5.9806732368">
        <ele>751.89</ele>
        <time>2020-08-10T14:29:51Z</time>
      </trkpt>
      <trkpt lat="41.9301236887" lon="-5.9806547128">
        <ele>751.89</ele>
        <time>2020-08-10T14:29:57Z</time>
      </trkpt>
      <trkpt lat="41.9305706955" lon="-5.9806229454">
        <ele>751.89</ele>
        <time>2020-08-10T14:30:06Z</time>
      </trkpt>
      <trkpt lat="41.9308036286" lon="-5.9805461671">
        <ele>751.89</ele>
        <time>2020-08-10T14:30:11Z</time>
      </trkpt>
      <trkpt lat="41.9312223047" lon="-5.9803009965">
        <ele>752.37</ele>
        <time>2020-08-10T14:30:20Z</time>
      </trkpt>
      <trkpt lat="41.9313188642" lon="-5.9802496992">
        <ele>752.37</ele>
        <time>2020-08-10T14:30:22Z</time>
      </trkpt>
      <trkpt lat="41.9313658029" lon="-5.9802332707">
        <ele>752.85</ele>
        <time>2020-08-10T14:30:23Z</time>
      </trkpt>
      <trkpt lat="41.9314563274" lon="-5.9802139923">
        <ele>753.33</ele>
        <time>2020-08-10T14:30:25Z</time>
      </trkpt>
      <trkpt lat="41.9318053499" lon="-5.9802807122">
        <ele>753.81</ele>
        <time>2020-08-10T14:30:33Z</time>
      </trkpt>
      <trkpt lat="41.9323301408" lon="-5.9804562293">
        <ele>754.29</ele>
        <time>2020-08-10T14:30:45Z</time>
      </trkpt>
      <trkpt lat="41.9328067359" lon="-5.9806183353">
        <ele>754.77</ele>
        <time>2020-08-10T14:30:57Z</time>
      </trkpt>
      <trkpt lat="41.9330689218" lon="-5.9806977119">
        <ele>754.77</ele>
        <time>2020-08-10T14:31:05Z</time>
      </trkpt>
      <trkpt lat="41.9334203750" lon="-5.9808086045">
        <ele>755.73</ele>
        <time>2020-08-10T14:31:15Z</time>
      </trkpt>
      <trkpt lat="41.9336536434" lon="-5.9809484147">
        <ele>756.21</ele>
        <time>2020-08-10T14:31:22Z</time>
      </trkpt>
      <trkpt lat="41.9338995684" lon="-5.9810066689">
        <ele>756.21</ele>
        <time>2020-08-10T14:31:29Z</time>
      </trkpt>
      <trkpt lat="41.9339743350" lon="-5.9809946828">
        <ele>756.21</ele>
        <time>2020-08-10T14:31:31Z</time>
      </trkpt>
      <trkpt lat="41.9340144005" lon="-5.9809794277">
        <ele>756.21</ele>
        <time>2020-08-10T14:31:32Z</time>
      </trkpt>
      <trkpt lat="41.9340526219" lon="-5.9809613228">
        <ele>756.21</ele>
        <time>2020-08-10T14:31:33Z</time>
      </trkpt>
      <trkpt lat="41.9341278914" lon="-5.9809143841">
        <ele>756.21</ele>
        <time>2020-08-10T14:31:35Z</time>
      </trkpt>
      <trkpt lat="41.9341643527" lon="-5.9808822814">
        <ele>756.21</ele>
        <time>2020-08-10T14:31:36Z</time>
      </trkpt>
      <trkpt lat="41.9341950305" lon="-5.9808485024">
        <ele>756.21</ele>
        <time>2020-08-10T14:31:37Z</time>
      </trkpt>
      <trkpt lat="41.9342254568" lon="-5.9808051679">
        <ele>755.73</ele>
        <time>2020-08-10T14:31:38Z</time>
      </trkpt>
      <trkpt lat="41.9342537038" lon="-5.9807654377">
        <ele>755.73</ele>
        <time>2020-08-10T14:31:39Z</time>
      </trkpt>
      <trkpt lat="41.9342839625" lon="-5.9807201754">
        <ele>755.73</ele>
        <time>2020-08-10T14:31:40Z</time>
      </trkpt>
      <trkpt lat="41.9343081862" lon="-5.9806740750">
        <ele>755.73</ele>
        <time>2020-08-10T14:31:41Z</time>
      </trkpt>
      <trkpt lat="41.9343332481" lon="-5.9806242865">
        <ele>755.73</ele>
        <time>2020-08-10T14:31:42Z</time>
      </trkpt>
      <trkpt lat="41.9343615789" lon="-5.9805727378">
        <ele>755.73</ele>
        <time>2020-08-10T14:31:43Z</time>
      </trkpt>
      <trkpt lat="41.9343913347" lon="-5.9805241227">
        <ele>755.73</ele>
        <time>2020-08-10T14:31:44Z</time>
      </trkpt>
      <trkpt lat="41.9344962761" lon="-5.9803766850">
        <ele>755.25</ele>
        <time>2020-08-10T14:31:47Z</time>
      </trkpt>
      <trkpt lat="41.9345740601" lon="-5.9802951291">
        <ele>755.25</ele>
        <time>2020-08-10T14:31:49Z</time>
      </trkpt>
      <trkpt lat="41.9346066657" lon="-5.9802534711">
        <ele>755.25</ele>
        <time>2020-08-10T14:31:50Z</time>
      </trkpt>
      <trkpt lat="41.9347229227" lon="-5.9800632857">
        <ele>755.73</ele>
        <time>2020-08-10T14:31:54Z</time>
      </trkpt>
      <trkpt lat="41.9348337315" lon="-5.9798240662">
        <ele>756.69</ele>
        <time>2020-08-10T14:31:59Z</time>
      </trkpt>
      <trkpt lat="41.9348885491" lon="-5.9797405824">
        <ele>756.69</ele>
        <time>2020-08-10T14:32:01Z</time>
      </trkpt>
      <trkpt lat="41.9350976776" lon="-5.9795815777">
        <ele>756.21</ele>
        <time>2020-08-10T14:32:08Z</time>
      </trkpt>
      <trkpt lat="41.9352964964" lon="-5.9796071425">
        <ele>755.73</ele>
        <time>2020-08-10T14:32:14Z</time>
      </trkpt>
      <trkpt lat="41.9355145935" lon="-5.9796571825">
        <ele>756.21</ele>
        <time>2020-08-10T14:32:20Z</time>
      </trkpt>
      <trkpt lat="41.9355881866" lon="-5.9796503093">
        <ele>756.21</ele>
        <time>2020-08-10T14:32:22Z</time>
      </trkpt>
      <trkpt lat="41.9356179424" lon="-5.9796268400">
        <ele>756.69</ele>
        <time>2020-08-10T14:32:23Z</time>
      </trkpt>
      <trkpt lat="41.9356446806" lon="-5.9795916360">
        <ele>756.69</ele>
        <time>2020-08-10T14:32:24Z</time>
      </trkpt>
      <trkpt lat="41.9356651325" lon="-5.9795552585">
        <ele>756.69</ele>
        <time>2020-08-10T14:32:25Z</time>
      </trkpt>
      <trkpt lat="41.9356845785" lon="-5.9795165341">
        <ele>756.69</ele>
        <time>2020-08-10T14:32:26Z</time>
      </trkpt>
      <trkpt lat="41.9358476065" lon="-5.9792670049">
        <ele>758.62</ele>
        <time>2020-08-10T14:32:33Z</time>
      </trkpt>
      <trkpt lat="41.9360317569" lon="-5.9792468883">
        <ele>759.58</ele>
        <time>2020-08-10T14:32:39Z</time>
      </trkpt>
      <trkpt lat="41.9361979701" lon="-5.9792984370">
        <ele>761.02</ele>
        <time>2020-08-10T14:32:46Z</time>
      </trkpt>
      <trkpt lat="41.9362938590" lon="-5.9792983532">
        <ele>761.98</ele>
        <time>2020-08-10T14:32:52Z</time>
      </trkpt>
      <trkpt lat="41.9363233633" lon="-5.9792924859">
        <ele>761.98</ele>
        <time>2020-08-10T14:32:55Z</time>
      </trkpt>
      <trkpt lat="41.9363643508" lon="-5.9792571142">
        <ele>761.50</ele>
        <time>2020-08-10T14:32:58Z</time>
      </trkpt>
      <trkpt lat="41.9363795221" lon="-5.9792369138">
        <ele>761.50</ele>
        <time>2020-08-10T14:32:59Z</time>
      </trkpt>
      <trkpt lat="41.9363943581" lon="-5.9792106785">
        <ele>761.50</ele>
        <time>2020-08-10T14:33:00Z</time>
      </trkpt>
      <trkpt lat="41.9364085235" lon="-5.9791812580">
        <ele>761.50</ele>
        <time>2020-08-10T14:33:01Z</time>
      </trkpt>
      <trkpt lat="41.9364231918" lon="-5.9791515861">
        <ele>761.50</ele>
        <time>2020-08-10T14:33:02Z</time>
      </trkpt>
      <trkpt lat="41.9364413805" lon="-5.9791230876">
        <ele>761.50</ele>
        <time>2020-08-10T14:33:03Z</time>
      </trkpt>
      <trkpt lat="41.9364580605" lon="-5.9790946729">
        <ele>761.50</ele>
        <time>2020-08-10T14:33:04Z</time>
      </trkpt>
      <trkpt lat="41.9364724774" lon="-5.9790685214">
        <ele>761.50</ele>
        <time>2020-08-10T14:33:05Z</time>
      </trkpt>
      <trkpt lat="41.9366566278" lon="-5.9788437188">
        <ele>761.98</ele>
        <time>2020-08-10T14:33:14Z</time>
      </trkpt>
      <trkpt lat="41.9368275348" lon="-5.9787056688">
        <ele>762.46</ele>
        <time>2020-08-10T14:33:21Z</time>
      </trkpt>
      <trkpt lat="41.9370145351" lon="-5.9786179941">
        <ele>763.90</ele>
        <time>2020-08-10T14:33:29Z</time>
      </trkpt>
      <trkpt lat="41.9372140244" lon="-5.9785299841">
        <ele>764.87</ele>
        <time>2020-08-10T14:33:37Z</time>
      </trkpt>
      <trkpt lat="41.9373623002" lon="-5.9785205126">
        <ele>765.35</ele>
        <time>2020-08-10T14:33:44Z</time>
      </trkpt>
      <trkpt lat="41.9375586882" lon="-5.9785248712">
        <ele>766.79</ele>
        <time>2020-08-10T14:33:53Z</time>
      </trkpt>
      <trkpt lat="41.9377755281" lon="-5.9785522800">
        <ele>769.19</ele>
        <time>2020-08-10T14:34:03Z</time>
      </trkpt>
      <trkpt lat="41.9379808009" lon="-5.9785235301">
        <ele>770.15</ele>
        <time>2020-08-10T14:34:12Z</time>
      </trkpt>
      <trkpt lat="41.9382144045" lon="-5.9784413036">
        <ele>768.71</ele>
        <time>2020-08-10T14:34:20Z</time>
      </trkpt>
      <trkpt lat="41.9382566493" lon="-5.9784343466">
        <ele>768.23</ele>
        <time>2020-08-10T14:34:21Z</time>
      </trkpt>
      <trkpt lat="41.9383081980" lon="-5.9784329217">
        <ele>768.23</ele>
        <time>2020-08-10T14:34:22Z</time>
      </trkpt>
      <trkpt lat="41.9383630995" lon="-5.9784402139">
        <ele>767.75</ele>
        <time>2020-08-10T14:34:23Z</time>
      </trkpt>
      <trkpt lat="41.9384244550" lon="-5.9784591570">
        <ele>767.27</ele>
        <time>2020-08-10T14:34:24Z</time>
      </trkpt>
      <trkpt lat="41.9384866487" lon="-5.9784890804">
        <ele>766.79</ele>
        <time>2020-08-10T14:34:25Z</time>
      </trkpt>
      <trkpt lat="41.9385495130" lon="-5.9785278048">
        <ele>765.83</ele>
        <time>2020-08-10T14:34:26Z</time>
      </trkpt>
      <trkpt lat="41.9386164844" lon="-5.9785795212">
        <ele>765.83</ele>
        <time>2020-08-10T14:34:27Z</time>
      </trkpt>
      <trkpt lat="41.9386796001" lon="-5.9786337521">
        <ele>765.35</ele>
        <time>2020-08-10T14:34:28Z</time>
      </trkpt>
      <trkpt lat="41.9392566103" lon="-5.9790002089">
        <ele>763.90</ele>
        <time>2020-08-10T14:34:36Z</time>
      </trkpt>
      <trkpt lat="41.9396995101" lon="-5.9791239258">
        <ele>765.35</ele>
        <time>2020-08-10T14:34:43Z</time>
      </trkpt>
      <trkpt lat="41.9399959780" lon="-5.9792389255">
        <ele>766.79</ele>
        <time>2020-08-10T14:34:50Z</time>
      </trkpt>
      <trkpt lat="41.9403085392" lon="-5.9793297015">
        <ele>768.23</ele>
        <time>2020-08-10T14:34:58Z</time>
      </trkpt>
      <trkpt lat="41.9406240340" lon="-5.9793210682">
        <ele>769.19</ele>
        <time>2020-08-10T14:35:06Z</time>
      </trkpt>
      <trkpt lat="41.9410712924" lon="-5.9793519974">
        <ele>770.15</ele>
        <time>2020-08-10T14:35:17Z</time>
      </trkpt>
      <trkpt lat="41.9413867872" lon="-5.9795218986">
        <ele>771.11</ele>
        <time>2020-08-10T14:35:26Z</time>
      </trkpt>
      <trkpt lat="41.9416800700" lon="-5.9797116648">
        <ele>772.08</ele>
        <time>2020-08-10T14:35:35Z</time>
      </trkpt>
      <trkpt lat="41.9420036115" lon="-5.9798994195">
        <ele>773.52</ele>
        <time>2020-08-10T14:35:45Z</time>
      </trkpt>
      <trkpt lat="41.9423040189" lon="-5.9799912013">
        <ele>773.52</ele>
        <time>2020-08-10T14:35:54Z</time>
      </trkpt>
      <trkpt lat="41.9425957091" lon="-5.9800495394">
        <ele>774.48</ele>
        <time>2020-08-10T14:36:03Z</time>
      </trkpt>
      <trkpt lat="41.9428979605" lon="-5.9801123198">
        <ele>775.44</ele>
        <time>2020-08-10T14:36:12Z</time>
      </trkpt>
      <trkpt lat="41.9432189874" lon="-5.9801801294">
        <ele>775.92</ele>
        <time>2020-08-10T14:36:22Z</time>
      </trkpt>
      <trkpt lat="41.9435876235" lon="-5.9802428260">
        <ele>776.88</ele>
        <time>2020-08-10T14:36:33Z</time>
      </trkpt>
      <trkpt lat="41.9439115003" lon="-5.9802196082">
        <ele>777.84</ele>
        <time>2020-08-10T14:36:43Z</time>
      </trkpt>
      <trkpt lat="41.9442358799" lon="-5.9801657125">
        <ele>779.29</ele>
        <time>2020-08-10T14:36:54Z</time>
      </trkpt>
      <trkpt lat="41.9444123190" lon="-5.9801519662">
        <ele>780.25</ele>
        <time>2020-08-10T14:37:01Z</time>
      </trkpt>
      <trkpt lat="41.9445448369" lon="-5.9801709093">
        <ele>781.21</ele>
        <time>2020-08-10T14:37:08Z</time>
      </trkpt>
      <trkpt lat="41.9445434120" lon="-5.9801681433">
        <ele>780.25</ele>
        <time>2020-08-10T14:37:17Z</time>
      </trkpt>
      <trkpt lat="41.9445444178" lon="-5.9801694006">
        <ele>779.29</ele>
        <time>2020-08-10T14:37:26Z</time>
      </trkpt>
      <trkpt lat="41.9445416518" lon="-5.9801719151">
        <ele>779.29</ele>
        <time>2020-08-10T14:37:35Z</time>
      </trkpt>
      <trkpt lat="41.9445563201" lon="-5.9801554028">
        <ele>780.25</ele>
        <time>2020-08-10T14:37:55Z</time>
      </trkpt>
      <trkpt lat="41.9445538893" lon="-5.9801687300">
        <ele>783.13</ele>
        <time>2020-08-10T14:38:19Z</time>
      </trkpt>
      <trkpt lat="41.9445481896" lon="-5.9801741783">
        <ele>780.25</ele>
        <time>2020-08-10T14:38:45Z</time>
      </trkpt>
      <trkpt lat="41.9445439987" lon="-5.9801678918">
        <ele>781.21</ele>
        <time>2020-08-10T14:39:06Z</time>
      </trkpt>
      <trkpt lat="41.9445496146" lon="-5.9801696520">
        <ele>782.65</ele>
        <time>2020-08-10T14:39:29Z</time>
      </trkpt>
      <trkpt lat="41.9445343595" lon="-5.9801978152">
        <ele>782.17</ele>
        <time>2020-08-10T14:39:51Z</time>
      </trkpt>
      <trkpt lat="41.9445350301" lon="-5.9802005813">
        <ele>782.17</ele>
        <time>2020-08-10T14:40:09Z</time>
      </trkpt>
      <trkpt lat="41.9445346948" lon="-5.9802043531">
        <ele>783.61</ele>
        <time>2020-08-10T14:40:30Z</time>
      </trkpt>
      <trkpt lat="41.9445309229" lon="-5.9801917803">
        <ele>783.61</ele>
        <time>2020-08-10T14:40:53Z</time>
      </trkpt>
      <trkpt lat="41.9445398077" lon="-5.9801684786">
        <ele>783.13</ele>
        <time>2020-08-10T14:41:11Z</time>
      </trkpt>
      <trkpt lat="41.9445986487" lon="-5.9801625274">
        <ele>782.65</ele>
        <time>2020-08-10T14:41:18Z</time>
      </trkpt>
      <trkpt lat="41.9447565638" lon="-5.9802133217">
        <ele>783.61</ele>
        <time>2020-08-10T14:41:24Z</time>
      </trkpt>
      <trkpt lat="41.9449371938" lon="-5.9804455005">
        <ele>784.09</ele>
        <time>2020-08-10T14:41:31Z</time>
      </trkpt>
      <trkpt lat="41.9450634252" lon="-5.9807620849">
        <ele>785.53</ele>
        <time>2020-08-10T14:41:40Z</time>
      </trkpt>
      <trkpt lat="41.9451723900" lon="-5.9811145440">
        <ele>786.50</ele>
        <time>2020-08-10T14:41:51Z</time>
      </trkpt>
      <trkpt lat="41.9452079292" lon="-5.9815045539">
        <ele>785.53</ele>
        <time>2020-08-10T14:42:01Z</time>
      </trkpt>
      <trkpt lat="41.9451981224" lon="-5.9818806499">
        <ele>785.53</ele>
        <time>2020-08-10T14:42:10Z</time>
      </trkpt>
      <trkpt lat="41.9452368468" lon="-5.9822440892">
        <ele>785.05</ele>
        <time>2020-08-10T14:42:19Z</time>
      </trkpt>
      <trkpt lat="41.9453882240" lon="-5.9825778566">
        <ele>786.50</ele>
        <time>2020-08-10T14:42:29Z</time>
      </trkpt>
      <trkpt lat="41.9455642439" lon="-5.9827406332">
        <ele>787.94</ele>
        <time>2020-08-10T14:42:37Z</time>
      </trkpt>
      <trkpt lat="41.9457807485" lon="-5.9828199260">
        <ele>789.86</ele>
        <time>2020-08-10T14:42:46Z</time>
      </trkpt>
      <trkpt lat="41.9460322894" lon="-5.9828469995">
        <ele>790.82</ele>
        <time>2020-08-10T14:42:56Z</time>
      </trkpt>
      <trkpt lat="41.9462964032" lon="-5.9828718100">
        <ele>791.78</ele>
        <time>2020-08-10T14:43:07Z</time>
      </trkpt>
      <trkpt lat="41.9465295877" lon="-5.9829354286">
        <ele>793.22</ele>
        <time>2020-08-10T14:43:17Z</time>
      </trkpt>
      <trkpt lat="41.9466911070" lon="-5.9830251988">
        <ele>794.19</ele>
        <time>2020-08-10T14:43:25Z</time>
      </trkpt>
      <trkpt lat="41.9468389638" lon="-5.9831579681">
        <ele>795.63</ele>
        <time>2020-08-10T14:43:33Z</time>
      </trkpt>
      <trkpt lat="41.9470190071" lon="-5.9833045676">
        <ele>796.59</ele>
        <time>2020-08-10T14:43:43Z</time>
      </trkpt>
      <trkpt lat="41.9471564703" lon="-5.9833872970">
        <ele>798.03</ele>
        <time>2020-08-10T14:43:51Z</time>
      </trkpt>
      <trkpt lat="41.9473311491" lon="-5.9834336489">
        <ele>798.99</ele>
        <time>2020-08-10T14:44:01Z</time>
      </trkpt>
      <trkpt lat="41.9474705402" lon="-5.9834549390">
        <ele>799.95</ele>
        <time>2020-08-10T14:44:09Z</time>
      </trkpt>
      <trkpt lat="41.9476449676" lon="-5.9834745526">
        <ele>801.40</ele>
        <time>2020-08-10T14:44:19Z</time>
      </trkpt>
      <trkpt lat="41.9477570336" lon="-5.9834614769">
        <ele>801.88</ele>
        <time>2020-08-10T14:44:25Z</time>
      </trkpt>
      <trkpt lat="41.9477771502" lon="-5.9834597167">
        <ele>801.88</ele>
        <time>2020-08-10T14:44:26Z</time>
      </trkpt>
      <trkpt lat="41.9477961771" lon="-5.9834538493">
        <ele>802.36</ele>
        <time>2020-08-10T14:44:27Z</time>
      </trkpt>
      <trkpt lat="41.9479854405" lon="-5.9833408613">
        <ele>802.36</ele>
        <time>2020-08-10T14:44:37Z</time>
      </trkpt>
      <trkpt lat="41.9481419306" lon="-5.9831998777">
        <ele>802.84</ele>
        <time>2020-08-10T14:44:45Z</time>
      </trkpt>
      <trkpt lat="41.9483606145" lon="-5.9829770029">
        <ele>802.84</ele>
        <time>2020-08-10T14:44:54Z</time>
      </trkpt>
      <trkpt lat="41.9486693200" lon="-5.9826460853">
        <ele>802.36</ele>
        <time>2020-08-10T14:45:05Z</time>
      </trkpt>
      <trkpt lat="41.9489729963" lon="-5.9823341109">
        <ele>802.36</ele>
        <time>2020-08-10T14:45:15Z</time>
      </trkpt>
      <trkpt lat="41.9492598251" lon="-5.9820331167">
        <ele>802.84</ele>
        <time>2020-08-10T14:45:24Z</time>
      </trkpt>
      <trkpt lat="41.9496080931" lon="-5.9816697612">
        <ele>803.32</ele>
        <time>2020-08-10T14:45:35Z</time>
      </trkpt>
      <trkpt lat="41.9499301258" lon="-5.9813285340">
        <ele>803.32</ele>
        <time>2020-08-10T14:45:45Z</time>
      </trkpt>
      <trkpt lat="41.9501883723" lon="-5.9810625762">
        <ele>803.32</ele>
        <time>2020-08-10T14:45:53Z</time>
      </trkpt>
      <trkpt lat="41.9502209779" lon="-5.9810289647">
        <ele>803.32</ele>
        <time>2020-08-10T14:45:54Z</time>
      </trkpt>
      <trkpt lat="41.9505451061" lon="-5.9806713089">
        <ele>802.84</ele>
        <time>2020-08-10T14:46:04Z</time>
      </trkpt>
      <trkpt lat="41.9509260636" lon="-5.9802627750">
        <ele>802.84</ele>
        <time>2020-08-10T14:46:14Z</time>
      </trkpt>
      <trkpt lat="41.9512302428" lon="-5.9799428377">
        <ele>802.36</ele>
        <time>2020-08-10T14:46:22Z</time>
      </trkpt>
      <trkpt lat="41.9515122101" lon="-5.9796477109">
        <ele>802.36</ele>
        <time>2020-08-10T14:46:30Z</time>
      </trkpt>
      <trkpt lat="41.9515480008" lon="-5.9796120878">
        <ele>802.36</ele>
        <time>2020-08-10T14:46:31Z</time>
      </trkpt>
      <trkpt lat="41.9519344065" lon="-5.9791946691">
        <ele>802.36</ele>
        <time>2020-08-10T14:46:42Z</time>
      </trkpt>
      <trkpt lat="41.9521800801" lon="-5.9789273702">
        <ele>802.36</ele>
        <time>2020-08-10T14:46:50Z</time>
      </trkpt>
      <trkpt lat="41.9525006879" lon="-5.9786888212">
        <ele>801.88</ele>
        <time>2020-08-10T14:47:00Z</time>
      </trkpt>
      <trkpt lat="41.9528709166" lon="-5.9784942772">
        <ele>799.47</ele>
        <time>2020-08-10T14:47:08Z</time>
      </trkpt>
      <trkpt lat="41.9532142393" lon="-5.9782391321">
        <ele>797.07</ele>
        <time>2020-08-10T14:47:14Z</time>
      </trkpt>
      <trkpt lat="41.9535547961" lon="-5.9779417422">
        <ele>793.71</ele>
        <time>2020-08-10T14:47:19Z</time>
      </trkpt>
      <trkpt lat="41.9536138885" lon="-5.9778668080">
        <ele>793.22</ele>
        <time>2020-08-10T14:47:20Z</time>
      </trkpt>
      <trkpt lat="41.9540399406" lon="-5.9774150234">
        <ele>788.90</ele>
        <time>2020-08-10T14:47:26Z</time>
      </trkpt>
      <trkpt lat="41.9545173738" lon="-5.9770560265">
        <ele>785.05</ele>
        <time>2020-08-10T14:47:32Z</time>
      </trkpt>
      <trkpt lat="41.9547998440" lon="-5.9767573792">
        <ele>783.13</ele>
        <time>2020-08-10T14:47:36Z</time>
      </trkpt>
      <trkpt lat="41.9548809808" lon="-5.9767072555">
        <ele>782.65</ele>
        <time>2020-08-10T14:47:37Z</time>
      </trkpt>
      <trkpt lat="41.9549667276" lon="-5.9766720515">
        <ele>781.69</ele>
        <time>2020-08-10T14:47:38Z</time>
      </trkpt>
      <trkpt lat="41.9550538994" lon="-5.9766509291">
        <ele>781.21</ele>
        <time>2020-08-10T14:47:39Z</time>
      </trkpt>
      <trkpt lat="41.9551433343" lon="-5.9766410384">
        <ele>780.73</ele>
        <time>2020-08-10T14:47:40Z</time>
      </trkpt>
      <trkpt lat="41.9558347575" lon="-5.9766054992">
        <ele>775.92</ele>
        <time>2020-08-10T14:47:47Z</time>
      </trkpt>
      <trkpt lat="41.9566283561" lon="-5.9765691217">
        <ele>773.52</ele>
        <time>2020-08-10T14:47:55Z</time>
      </trkpt>
      <trkpt lat="41.9575255550" lon="-5.9766420443">
        <ele>770.63</ele>
        <time>2020-08-10T14:48:04Z</time>
      </trkpt>
      <trkpt lat="41.9583650026" lon="-5.9767185710">
        <ele>770.15</ele>
        <time>2020-08-10T14:48:13Z</time>
      </trkpt>
      <trkpt lat="41.9591856748" lon="-5.9767349996">
        <ele>768.23</ele>
        <time>2020-08-10T14:48:23Z</time>
      </trkpt>
      <trkpt lat="41.9601201732" lon="-5.9767134581">
        <ele>765.35</ele>
        <time>2020-08-10T14:48:34Z</time>
      </trkpt>
      <trkpt lat="41.9609993510" lon="-5.9766225982">
        <ele>762.94</ele>
        <time>2020-08-10T14:48:44Z</time>
      </trkpt>
      <trkpt lat="41.9616652932" lon="-5.9765982069">
        <ele>761.98</ele>
        <time>2020-08-10T14:48:52Z</time>
      </trkpt>
      <trkpt lat="41.9627147075" lon="-5.9765493404">
        <ele>760.54</ele>
        <time>2020-08-10T14:49:05Z</time>
      </trkpt>
      <trkpt lat="41.9634642173" lon="-5.9765356779">
        <ele>758.62</ele>
        <time>2020-08-10T14:49:15Z</time>
      </trkpt>
      <trkpt lat="41.9640263077" lon="-5.9765816946">
        <ele>757.66</ele>
        <time>2020-08-10T14:49:23Z</time>
      </trkpt>
      <trkpt lat="41.9646326546" lon="-5.9765894059">
        <ele>756.21</ele>
        <time>2020-08-10T14:49:33Z</time>
      </trkpt>
      <trkpt lat="41.9652070664" lon="-5.9765567165">
        <ele>755.25</ele>
        <time>2020-08-10T14:49:42Z</time>
      </trkpt>
      <trkpt lat="41.9658336975" lon="-5.9764965344">
        <ele>754.29</ele>
        <time>2020-08-10T14:49:51Z</time>
      </trkpt>
      <trkpt lat="41.9663315825" lon="-5.9763445705">
        <ele>753.33</ele>
        <time>2020-08-10T14:49:58Z</time>
      </trkpt>
      <trkpt lat="41.9668455608" lon="-5.9761175886">
        <ele>751.89</ele>
        <time>2020-08-10T14:50:06Z</time>
      </trkpt>
      <trkpt lat="41.9675908796" lon="-5.9757731762">
        <ele>749.49</ele>
        <time>2020-08-10T14:50:17Z</time>
      </trkpt>
      <trkpt lat="41.9682836439" lon="-5.9754000977">
        <ele>748.04</ele>
        <time>2020-08-10T14:50:27Z</time>
      </trkpt>
      <trkpt lat="41.9690080918" lon="-5.9751384147">
        <ele>747.08</ele>
        <time>2020-08-10T14:50:37Z</time>
      </trkpt>
      <trkpt lat="41.9697306119" lon="-5.9749261010">
        <ele>745.64</ele>
        <time>2020-08-10T14:50:47Z</time>
      </trkpt>
      <trkpt lat="41.9703206141" lon="-5.9748685174">
        <ele>745.16</ele>
        <time>2020-08-10T14:50:55Z</time>
      </trkpt>
      <trkpt lat="41.9709923398" lon="-5.9748238418">
        <ele>743.24</ele>
        <time>2020-08-10T14:51:04Z</time>
      </trkpt>
      <trkpt lat="41.9715934061" lon="-5.9746888094">
        <ele>742.28</ele>
        <time>2020-08-10T14:51:12Z</time>
      </trkpt>
      <trkpt lat="41.9722585101" lon="-5.9743720572">
        <ele>740.35</ele>
        <time>2020-08-10T14:51:21Z</time>
      </trkpt>
      <trkpt lat="41.9729702175" lon="-5.9740418103">
        <ele>738.43</ele>
        <time>2020-08-10T14:51:31Z</time>
      </trkpt>
      <trkpt lat="41.9733041525" lon="-5.9739372041">
        <ele>737.95</ele>
        <time>2020-08-10T14:51:36Z</time>
      </trkpt>
      <trkpt lat="41.9733722135" lon="-5.9739380423">
        <ele>737.95</ele>
        <time>2020-08-10T14:51:37Z</time>
      </trkpt>
      <trkpt lat="41.9734411966" lon="-5.9739487711">
        <ele>737.95</ele>
        <time>2020-08-10T14:51:38Z</time>
      </trkpt>
      <trkpt lat="41.9735050667" lon="-5.9739662893">
        <ele>737.95</ele>
        <time>2020-08-10T14:51:39Z</time>
      </trkpt>
      <trkpt lat="41.9735711999" lon="-5.9739894234">
        <ele>737.47</ele>
        <time>2020-08-10T14:51:40Z</time>
      </trkpt>
      <trkpt lat="41.9736314658" lon="-5.9740157425">
        <ele>737.95</ele>
        <time>2020-08-10T14:51:41Z</time>
      </trkpt>
      <trkpt lat="41.9742689095" lon="-5.9743467439">
        <ele>737.47</ele>
        <time>2020-08-10T14:51:52Z</time>
      </trkpt>
      <trkpt lat="41.9747890905" lon="-5.9745871369">
        <ele>737.47</ele>
        <time>2020-08-10T14:52:02Z</time>
      </trkpt>
      <trkpt lat="41.9752647635" lon="-5.9748409409">
        <ele>737.47</ele>
        <time>2020-08-10T14:52:12Z</time>
      </trkpt>
      <trkpt lat="41.9757110160" lon="-5.9750906378">
        <ele>737.95</ele>
        <time>2020-08-10T14:52:22Z</time>
      </trkpt>
      <trkpt lat="41.9761398342" lon="-5.9753463697">
        <ele>737.95</ele>
        <time>2020-08-10T14:52:32Z</time>
      </trkpt>
      <trkpt lat="41.9763531536" lon="-5.9754623752">
        <ele>738.43</ele>
        <time>2020-08-10T14:52:37Z</time>
      </trkpt>
      <trkpt lat="41.9767921139" lon="-5.9757059533">
        <ele>737.95</ele>
        <time>2020-08-10T14:52:47Z</time>
      </trkpt>
      <trkpt lat="41.9772363547" lon="-5.9759803768">
        <ele>737.95</ele>
        <time>2020-08-10T14:52:57Z</time>
      </trkpt>
      <trkpt lat="41.9777209964" lon="-5.9762842208">
        <ele>737.95</ele>
        <time>2020-08-10T14:53:08Z</time>
      </trkpt>
      <trkpt lat="41.9779855292" lon="-5.9764279705">
        <ele>737.95</ele>
        <time>2020-08-10T14:53:15Z</time>
      </trkpt>
      <trkpt lat="41.9783459511" lon="-5.9764588997">
        <ele>737.95</ele>
        <time>2020-08-10T14:53:23Z</time>
      </trkpt>
      <trkpt lat="41.9788950495" lon="-5.9764829557">
        <ele>737.47</ele>
        <time>2020-08-10T14:53:35Z</time>
      </trkpt>
      <trkpt lat="41.9791629352" lon="-5.9765226021">
        <ele>737.47</ele>
        <time>2020-08-10T14:53:43Z</time>
      </trkpt>
      <trkpt lat="41.9794353470" lon="-5.9766164795">
        <ele>736.99</ele>
        <time>2020-08-10T14:53:51Z</time>
      </trkpt>
      <trkpt lat="41.9797576312" lon="-5.9767672699">
        <ele>736.99</ele>
        <time>2020-08-10T14:54:01Z</time>
      </trkpt>
      <trkpt lat="41.9800987747" lon="-5.9769182280">
        <ele>736.99</ele>
        <time>2020-08-10T14:54:10Z</time>
      </trkpt>
      <trkpt lat="41.9804736134" lon="-5.9770713653">
        <ele>736.99</ele>
        <time>2020-08-10T14:54:19Z</time>
      </trkpt>
      <trkpt lat="41.9807542395" lon="-5.9771899693">
        <ele>736.03</ele>
        <time>2020-08-10T14:54:26Z</time>
      </trkpt>
      <trkpt lat="41.9811712392" lon="-5.9773154464">
        <ele>736.99</ele>
        <time>2020-08-10T14:54:36Z</time>
      </trkpt>
      <trkpt lat="41.9814682100" lon="-5.9774144366">
        <ele>737.47</ele>
        <time>2020-08-10T14:54:43Z</time>
      </trkpt>
      <trkpt lat="41.9818938430" lon="-5.9776421729">
        <ele>737.95</ele>
        <time>2020-08-10T14:54:53Z</time>
      </trkpt>
      <trkpt lat="41.9822453801" lon="-5.9778051171">
        <ele>738.91</ele>
        <time>2020-08-10T14:55:02Z</time>
      </trkpt>
      <trkpt lat="41.9822904747" lon="-5.9778134990">
        <ele>738.91</ele>
        <time>2020-08-10T14:55:03Z</time>
      </trkpt>
      <trkpt lat="41.9823371619" lon="-5.9778152592">
        <ele>739.39</ele>
        <time>2020-08-10T14:55:04Z</time>
      </trkpt>
      <trkpt lat="41.9823870342" lon="-5.9778113198">
        <ele>739.39</ele>
        <time>2020-08-10T14:55:05Z</time>
      </trkpt>
      <trkpt lat="41.9824337214" lon="-5.9778042790">
        <ele>739.87</ele>
        <time>2020-08-10T14:55:06Z</time>
      </trkpt>
      <trkpt lat="41.9824828394" lon="-5.9777936339">
        <ele>739.87</ele>
        <time>2020-08-10T14:55:07Z</time>
      </trkpt>
      <trkpt lat="41.9829995837" lon="-5.9776483756">
        <ele>740.83</ele>
        <time>2020-08-10T14:55:18Z</time>
      </trkpt>
      <trkpt lat="41.9833844807" lon="-5.9776720963">
        <ele>740.83</ele>
        <time>2020-08-10T14:55:26Z</time>
      </trkpt>
      <trkpt lat="41.9834775198" lon="-5.9776721802">
        <ele>740.83</ele>
        <time>2020-08-10T14:55:28Z</time>
      </trkpt>
      <trkpt lat="41.9835227821" lon="-5.9776643850">
        <ele>741.31</ele>
        <time>2020-08-10T14:55:29Z</time>
      </trkpt>
      <trkpt lat="41.9835671224" lon="-5.9776487947">
        <ele>741.31</ele>
        <time>2020-08-10T14:55:30Z</time>
      </trkpt>
      <trkpt lat="41.9836109597" lon="-5.9776240680">
        <ele>741.79</ele>
        <time>2020-08-10T14:55:31Z</time>
      </trkpt>
      <trkpt lat="41.9836481754" lon="-5.9775931388">
        <ele>741.79</ele>
        <time>2020-08-10T14:55:32Z</time>
      </trkpt>
      <trkpt lat="41.9836822059" lon="-5.9775509778">
        <ele>741.31</ele>
        <time>2020-08-10T14:55:33Z</time>
      </trkpt>
      <trkpt lat="41.9837145600" lon="-5.9775108285">
        <ele>741.31</ele>
        <time>2020-08-10T14:55:34Z</time>
      </trkpt>
      <trkpt lat="41.9837457407" lon="-5.9774702601">
        <ele>741.31</ele>
        <time>2020-08-10T14:55:35Z</time>
      </trkpt>
      <trkpt lat="41.9837750774" lon="-5.9774265066">
        <ele>741.31</ele>
        <time>2020-08-10T14:55:36Z</time>
      </trkpt>
      <trkpt lat="41.9837995525" lon="-5.9773832560">
        <ele>741.31</ele>
        <time>2020-08-10T14:55:37Z</time>
      </trkpt>
      <trkpt lat="41.9839892350" lon="-5.9770666715">
        <ele>740.83</ele>
        <time>2020-08-10T14:55:45Z</time>
      </trkpt>
      <trkpt lat="41.9840615708" lon="-5.9770295396">
        <ele>739.87</ele>
        <time>2020-08-10T14:55:48Z</time>
      </trkpt>
      <trkpt lat="41.9840856269" lon="-5.9770386759">
        <ele>739.87</ele>
        <time>2020-08-10T14:55:49Z</time>
      </trkpt>
      <trkpt lat="41.9841069169" lon="-5.9770514164">
        <ele>739.87</ele>
        <time>2020-08-10T14:55:50Z</time>
      </trkpt>
      <trkpt lat="41.9841279555" lon="-5.9770628996">
        <ele>739.39</ele>
        <time>2020-08-10T14:55:51Z</time>
      </trkpt>
      <trkpt lat="41.9841463957" lon="-5.9770772327">
        <ele>739.39</ele>
        <time>2020-08-10T14:55:52Z</time>
      </trkpt>
      <trkpt lat="41.9841640815" lon="-5.9770940803">
        <ele>739.39</ele>
        <time>2020-08-10T14:55:53Z</time>
      </trkpt>
      <trkpt lat="41.9841822702" lon="-5.9771048930">
        <ele>739.39</ele>
        <time>2020-08-10T14:55:54Z</time>
      </trkpt>
      <trkpt lat="41.9841986988" lon="-5.9770993609">
        <ele>739.39</ele>
        <time>2020-08-10T14:55:55Z</time>
      </trkpt>
      <trkpt lat="41.9842126127" lon="-5.9770835191">
        <ele>739.39</ele>
        <time>2020-08-10T14:55:56Z</time>
      </trkpt>
      <trkpt lat="41.9843463879" lon="-5.9768740553">
        <ele>739.39</ele>
        <time>2020-08-10T14:56:04Z</time>
      </trkpt>
      <trkpt lat="41.9845079910" lon="-5.9766241070">
        <ele>739.87</ele>
        <time>2020-08-10T14:56:12Z</time>
      </trkpt>
      <trkpt lat="41.9846479688" lon="-5.9764121287">
        <ele>738.43</ele>
        <time>2020-08-10T14:56:20Z</time>
      </trkpt>
      <trkpt lat="41.9847403374" lon="-5.9762874059">
        <ele>737.95</ele>
        <time>2020-08-10T14:56:28Z</time>
      </trkpt>
      <trkpt lat="41.9847473782" lon="-5.9762779344">
        <ele>737.95</ele>
        <time>2020-08-10T14:56:29Z</time>
      </trkpt>
      <trkpt lat="41.9847664051" lon="-5.9762446582">
        <ele>737.47</ele>
        <time>2020-08-10T14:56:35Z</time>
      </trkpt>
      <trkpt lat="41.9847622141" lon="-5.9762551356">
        <ele>736.99</ele>
        <time>2020-08-10T14:56:47Z</time>
      </trkpt>
      <trkpt lat="41.9847488869" lon="-5.9762729891">
        <ele>737.47</ele>
        <time>2020-08-10T14:56:55Z</time>
      </trkpt>
      <trkpt lat="41.9847410079" lon="-5.9762800299">
        <ele>736.99</ele>
        <time>2020-08-10T14:56:56Z</time>
      </trkpt>
      <trkpt lat="41.9847196341" lon="-5.9763114620">
        <ele>737.47</ele>
        <time>2020-08-10T14:56:59Z</time>
      </trkpt>
      <trkpt lat="41.9847138505" lon="-5.9763229452">
        <ele>737.95</ele>
        <time>2020-08-10T14:57:00Z</time>
      </trkpt>
      <trkpt lat="41.9847124256" lon="-5.9763366077">
        <ele>737.95</ele>
        <time>2020-08-10T14:57:01Z</time>
      </trkpt>
      <trkpt lat="41.9847334642" lon="-5.9764255397">
        <ele>737.95</ele>
        <time>2020-08-10T14:57:09Z</time>
      </trkpt>
      <trkpt lat="41.9847395830" lon="-5.9764454048">
        <ele>737.47</ele>
        <time>2020-08-10T14:57:30Z</time>
      </trkpt>
      <trkpt lat="41.9847217295" lon="-5.9764259588">
        <ele>735.55</ele>
        <time>2020-08-10T14:57:51Z</time>
      </trkpt>
      <trkpt lat="41.9847062230" lon="-5.9764313232">
        <ele>736.99</ele>
        <time>2020-08-10T14:58:18Z</time>
      </trkpt>
      <trkpt lat="41.9847495575" lon="-5.9764482547">
        <ele>737.47</ele>
        <time>2020-08-10T14:58:40Z</time>
      </trkpt>
      <trkpt lat="41.9847384933" lon="-5.9764266293">
        <ele>734.10</ele>
        <time>2020-08-10T14:58:56Z</time>
      </trkpt>
      <trkpt lat="41.9847406726" lon="-5.9764174093">
        <ele>734.58</ele>
        <time>2020-08-10T14:59:16Z</time>
      </trkpt>
      <trkpt lat="41.9847289380" lon="-5.9764159005">
        <ele>733.62</ele>
        <time>2020-08-10T14:59:37Z</time>
      </trkpt>
      <trkpt lat="41.9847385772" lon="-5.9764117096">
        <ele>733.14</ele>
        <time>2020-08-10T14:59:58Z</time>
      </trkpt>
      <trkpt lat="41.9847342186" lon="-5.9764104523">
        <ele>733.14</ele>
        <time>2020-08-10T15:00:28Z</time>
      </trkpt>
      <trkpt lat="41.9847141858" lon="-5.9764204267">
        <ele>733.62</ele>
        <time>2020-08-10T15:00:55Z</time>
      </trkpt>
      <trkpt lat="41.9847115036" lon="-5.9764178284">
        <ele>732.66</ele>
        <time>2020-08-10T15:01:22Z</time>
      </trkpt>
      <trkpt lat="41.9847213104" lon="-5.9764187504">
        <ele>735.55</ele>
        <time>2020-08-10T15:01:46Z</time>
      </trkpt>
      <trkpt lat="41.9847259205" lon="-5.9764311556">
        <ele>734.58</ele>
        <time>2020-08-10T15:02:04Z</time>
      </trkpt>
      <trkpt lat="41.9847213943" lon="-5.9764233604">
        <ele>735.07</ele>
        <time>2020-08-10T15:02:21Z</time>
      </trkpt>
      <trkpt lat="41.9847026188" lon="-5.9764360171">
        <ele>737.95</ele>
        <time>2020-08-10T15:02:51Z</time>
      </trkpt>
      <trkpt lat="41.9847132638" lon="-5.9764309879">
        <ele>736.03</ele>
        <time>2020-08-10T15:03:24Z</time>
      </trkpt>
      <trkpt lat="41.9847212266" lon="-5.9764047526">
        <ele>735.55</ele>
        <time>2020-08-10T15:03:51Z</time>
      </trkpt>
      <trkpt lat="41.9847106654" lon="-5.9763947781">
        <ele>737.47</ele>
        <time>2020-08-10T15:04:23Z</time>
      </trkpt>
      <trkpt lat="41.9846994337" lon="-5.9764270484">
        <ele>736.51</ele>
        <time>2020-08-10T15:04:46Z</time>
      </trkpt>
      <trkpt lat="41.9847081508" lon="-5.9764121287">
        <ele>738.91</ele>
        <time>2020-08-10T15:05:17Z</time>
      </trkpt>
      <trkpt lat="41.9847299438" lon="-5.9764135536">
        <ele>737.47</ele>
        <time>2020-08-10T15:05:32Z</time>
      </trkpt>
      <trkpt lat="41.9847114198" lon="-5.9763707221">
        <ele>738.91</ele>
        <time>2020-08-10T15:06:04Z</time>
      </trkpt>
      <trkpt lat="41.9847198855" lon="-5.9763851389">
        <ele>737.47</ele>
        <time>2020-08-10T15:06:39Z</time>
      </trkpt>
      <trkpt lat="41.9847161137" lon="-5.9763961192">
        <ele>737.47</ele>
        <time>2020-08-10T15:07:04Z</time>
      </trkpt>
      <trkpt lat="41.9847081508" lon="-5.9764084406">
        <ele>738.43</ele>
        <time>2020-08-10T15:07:30Z</time>
      </trkpt>
      <trkpt lat="41.9847394992" lon="-5.9764034115">
        <ele>736.99</ele>
        <time>2020-08-10T15:07:55Z</time>
      </trkpt>
      <trkpt lat="41.9847274292" lon="-5.9764241148">
        <ele>737.95</ele>
        <time>2020-08-10T15:08:22Z</time>
      </trkpt>
      <trkpt lat="41.9847372361" lon="-5.9764238633">
        <ele>737.47</ele>
        <time>2020-08-10T15:08:38Z</time>
      </trkpt>
      <trkpt lat="41.9847430196" lon="-5.9764235280">
        <ele>738.43</ele>
        <time>2020-08-10T15:08:56Z</time>
      </trkpt>
      <trkpt lat="41.9847438578" lon="-5.9764181636">
        <ele>737.47</ele>
        <time>2020-08-10T15:09:10Z</time>
      </trkpt>
      <trkpt lat="41.9847110845" lon="-5.9764122125">
        <ele>736.51</ele>
        <time>2020-08-10T15:09:24Z</time>
      </trkpt>
      <trkpt lat="41.9847067259" lon="-5.9764029086">
        <ele>736.51</ele>
        <time>2020-08-10T15:09:25Z</time>
      </trkpt>
      <trkpt lat="41.9847011101" lon="-5.9763651900">
        <ele>736.99</ele>
        <time>2020-08-10T15:09:33Z</time>
      </trkpt>
      <trkpt lat="41.9847079832" lon="-5.9763511084">
        <ele>736.99</ele>
        <time>2020-08-10T15:09:35Z</time>
      </trkpt>
      <trkpt lat="41.9847175386" lon="-5.9763374459">
        <ele>736.51</ele>
        <time>2020-08-10T15:09:36Z</time>
      </trkpt>
      <trkpt lat="41.9848095719" lon="-5.9762229491">
        <ele>736.51</ele>
        <time>2020-08-10T15:09:42Z</time>
      </trkpt>
      <trkpt lat="41.9849677384" lon="-5.9761474282">
        <ele>736.99</ele>
        <time>2020-08-10T15:09:49Z</time>
      </trkpt>
      <trkpt lat="41.9851366337" lon="-5.9761328436">
        <ele>738.91</ele>
        <time>2020-08-10T15:09:57Z</time>
      </trkpt>
      <trkpt lat="41.9852813892" lon="-5.9761196841">
        <ele>740.35</ele>
        <time>2020-08-10T15:10:04Z</time>
      </trkpt>
      <trkpt lat="41.9854482729" lon="-5.9761106316">
        <ele>742.76</ele>
        <time>2020-08-10T15:10:11Z</time>
      </trkpt>
      <trkpt lat="41.9855885860" lon="-5.9761340171">
        <ele>744.68</ele>
        <time>2020-08-10T15:10:17Z</time>
      </trkpt>
      <trkpt lat="41.9857471716" lon="-5.9761560615">
        <ele>745.16</ele>
        <time>2020-08-10T15:10:24Z</time>
      </trkpt>
      <trkpt lat="41.9859516900" lon="-5.9761433210">
        <ele>742.28</ele>
        <time>2020-08-10T15:10:32Z</time>
      </trkpt>
      <trkpt lat="41.9861846231" lon="-5.9762214404">
        <ele>742.28</ele>
        <time>2020-08-10T15:10:42Z</time>
      </trkpt>
      <trkpt lat="41.9863957632" lon="-5.9762332588">
        <ele>741.79</ele>
        <time>2020-08-10T15:10:51Z</time>
      </trkpt>
      <trkpt lat="41.9866493996" lon="-5.9762076940">
        <ele>739.87</ele>
        <time>2020-08-10T15:11:01Z</time>
      </trkpt>
      <trkpt lat="41.9868888706" lon="-5.9761097096">
        <ele>738.43</ele>
        <time>2020-08-10T15:11:10Z</time>
      </trkpt>
      <trkpt lat="41.9869617093" lon="-5.9759543091">
        <ele>736.99</ele>
        <time>2020-08-10T15:11:16Z</time>
      </trkpt>
      <trkpt lat="41.9870581012" lon="-5.9757649619">
        <ele>736.03</ele>
        <time>2020-08-10T15:11:22Z</time>
      </trkpt>
      <trkpt lat="41.9872360490" lon="-5.9753758740">
        <ele>735.07</ele>
        <time>2020-08-10T15:11:31Z</time>
      </trkpt>
      <trkpt lat="41.9874036033" lon="-5.9750435315">
        <ele>734.58</ele>
        <time>2020-08-10T15:11:40Z</time>
      </trkpt>
      <trkpt lat="41.9874819741" lon="-5.9750187211">
        <ele>734.10</ele>
        <time>2020-08-10T15:11:43Z</time>
      </trkpt>
      <trkpt lat="41.9875361212" lon="-5.9750597924">
        <ele>734.10</ele>
        <time>2020-08-10T15:11:50Z</time>
      </trkpt>
      <trkpt lat="41.9875361212" lon="-5.9750615526">
        <ele>734.10</ele>
        <time>2020-08-10T15:12:07Z</time>
      </trkpt>
      <trkpt lat="41.9875496160" lon="-5.9750488959">
        <ele>737.95</ele>
        <time>2020-08-10T15:12:20Z</time>
      </trkpt>
      <trkpt lat="41.9875442516" lon="-5.9750532545">
        <ele>738.43</ele>
        <time>2020-08-10T15:12:34Z</time>
      </trkpt>
      <trkpt lat="41.9875422399" lon="-5.9750554338">
        <ele>737.47</ele>
        <time>2020-08-10T15:12:40Z</time>
      </trkpt>
      <trkpt lat="41.9875370432" lon="-5.9750470519">
        <ele>737.95</ele>
        <time>2020-08-10T15:12:47Z</time>
      </trkpt>
      <trkpt lat="41.9875304215" lon="-5.9750581160">
        <ele>740.35</ele>
        <time>2020-08-10T15:13:00Z</time>
      </trkpt>
      <trkpt lat="41.9875302538" lon="-5.9750556014">
        <ele>738.91</ele>
        <time>2020-08-10T15:13:14Z</time>
      </trkpt>
      <trkpt lat="41.9875446707" lon="-5.9750595409">
        <ele>739.87</ele>
        <time>2020-08-10T15:13:28Z</time>
      </trkpt>
      <trkpt lat="41.9875294995" lon="-5.9750568587">
        <ele>738.43</ele>
        <time>2020-08-10T15:13:43Z</time>
      </trkpt>
      <trkpt lat="41.9875243865" lon="-5.9750503208">
        <ele>738.91</ele>
        <time>2020-08-10T15:14:00Z</time>
      </trkpt>
      <trkpt lat="41.9875330199" lon="-5.9750424419">
        <ele>738.43</ele>
        <time>2020-08-10T15:14:19Z</time>
      </trkpt>
      <trkpt lat="41.9875274878" lon="-5.9750649054">
        <ele>737.47</ele>
        <time>2020-08-10T15:14:34Z</time>
      </trkpt>
      <trkpt lat="41.9875405636" lon="-5.9750669170">
        <ele>736.03</ele>
        <time>2020-08-10T15:14:52Z</time>
      </trkpt>
      <trkpt lat="41.9875362050" lon="-5.9750561882">
        <ele>735.55</ele>
        <time>2020-08-10T15:15:07Z</time>
      </trkpt>
      <trkpt lat="41.9875385519" lon="-5.9750366583">
        <ele>735.55</ele>
        <time>2020-08-10T15:15:14Z</time>
      </trkpt>
      <trkpt lat="41.9875390548" lon="-5.9750343952">
        <ele>735.55</ele>
        <time>2020-08-10T15:15:21Z</time>
      </trkpt>
      <trkpt lat="41.9875748456" lon="-5.9749627300">
        <ele>735.55</ele>
        <time>2020-08-10T15:15:26Z</time>
      </trkpt>
      <trkpt lat="41.9876735844" lon="-5.9747460578">
        <ele>736.03</ele>
        <time>2020-08-10T15:15:35Z</time>
      </trkpt>
      <trkpt lat="41.9877931941" lon="-5.9745397791">
        <ele>736.51</ele>
        <time>2020-08-10T15:15:43Z</time>
      </trkpt>
      <trkpt lat="41.9880171586" lon="-5.9742384497">
        <ele>737.47</ele>
        <time>2020-08-10T15:15:54Z</time>
      </trkpt>
      <trkpt lat="41.9882160611" lon="-5.9740009066">
        <ele>737.47</ele>
        <time>2020-08-10T15:16:02Z</time>
      </trkpt>
      <trkpt lat="41.9884417020" lon="-5.9737409838">
        <ele>737.95</ele>
        <time>2020-08-10T15:16:11Z</time>
      </trkpt>
      <trkpt lat="41.9886987749" lon="-5.9734655544">
        <ele>737.95</ele>
        <time>2020-08-10T15:16:22Z</time>
      </trkpt>
      <trkpt lat="41.9888360705" lon="-5.9733260795">
        <ele>736.99</ele>
        <time>2020-08-10T15:16:29Z</time>
      </trkpt>
      <trkpt lat="41.9889234100" lon="-5.9732262511">
        <ele>736.51</ele>
        <time>2020-08-10T15:16:35Z</time>
      </trkpt>
      <trkpt lat="41.9890510663" lon="-5.9730876982">
        <ele>736.51</ele>
        <time>2020-08-10T15:16:44Z</time>
      </trkpt>
      <trkpt lat="41.9891756214" lon="-5.9729603771">
        <ele>736.51</ele>
        <time>2020-08-10T15:16:52Z</time>
      </trkpt>
      <trkpt lat="41.9893509708" lon="-5.9727758914">
        <ele>736.51</ele>
        <time>2020-08-10T15:17:01Z</time>
      </trkpt>
      <trkpt lat="41.9894354604" lon="-5.9726567008">
        <ele>736.03</ele>
        <time>2020-08-10T15:17:08Z</time>
      </trkpt>
      <trkpt lat="41.9893975742" lon="-5.9725456405">
        <ele>736.51</ele>
        <time>2020-08-10T15:17:14Z</time>
      </trkpt>
      <trkpt lat="41.9893550780" lon="-5.9725036472">
        <ele>736.03</ele>
        <time>2020-08-10T15:17:20Z</time>
      </trkpt>
      <trkpt lat="41.9893501326" lon="-5.9725075029">
        <ele>735.07</ele>
        <time>2020-08-10T15:17:29Z</time>
      </trkpt>
      <trkpt lat="41.9893586822" lon="-5.9725075029">
        <ele>734.58</ele>
        <time>2020-08-10T15:17:42Z</time>
      </trkpt>
      <trkpt lat="41.9893645495" lon="-5.9725147951">
        <ele>734.58</ele>
        <time>2020-08-10T15:18:03Z</time>
      </trkpt>
      <trkpt lat="41.9893760327" lon="-5.9725156333">
        <ele>730.74</ele>
        <time>2020-08-10T15:18:19Z</time>
      </trkpt>
      <trkpt lat="41.9893849175" lon="-5.9725133702">
        <ele>729.78</ele>
        <time>2020-08-10T15:18:46Z</time>
      </trkpt>
      <trkpt lat="41.9893618673" lon="-5.9725265298">
        <ele>733.14</ele>
        <time>2020-08-10T15:19:11Z</time>
      </trkpt>
      <trkpt lat="41.9893575925" lon="-5.9725215007">
        <ele>733.62</ele>
        <time>2020-08-10T15:19:31Z</time>
      </trkpt>
      <trkpt lat="41.9893587660" lon="-5.9725111071">
        <ele>731.70</ele>
        <time>2020-08-10T15:19:48Z</time>
      </trkpt>
      <trkpt lat="41.9893721770" lon="-5.9725099336">
        <ele>730.74</ele>
        <time>2020-08-10T15:20:12Z</time>
      </trkpt>
      <trkpt lat="41.9893789664" lon="-5.9724845365">
        <ele>730.74</ele>
        <time>2020-08-10T15:20:33Z</time>
      </trkpt>
      <trkpt lat="41.9893706683" lon="-5.9725140408">
        <ele>732.18</ele>
        <time>2020-08-10T15:20:55Z</time>
      </trkpt>
      <trkpt lat="41.9893787149" lon="-5.9725032281">
        <ele>731.22</ele>
        <time>2020-08-10T15:21:14Z</time>
      </trkpt>
      <trkpt lat="41.9893653877" lon="-5.9725217521">
        <ele>731.22</ele>
        <time>2020-08-10T15:21:37Z</time>
      </trkpt>
      <trkpt lat="41.9893770386" lon="-5.9724980313">
        <ele>732.18</ele>
        <time>2020-08-10T15:21:57Z</time>
      </trkpt>
      <trkpt lat="41.9893644657" lon="-5.9725090954">
        <ele>732.18</ele>
        <time>2020-08-10T15:22:10Z</time>
      </trkpt>
      <trkpt lat="41.9893663097" lon="-5.9725033958">
        <ele>732.18</ele>
        <time>2020-08-10T15:22:24Z</time>
      </trkpt>
      <trkpt lat="41.9893585145" lon="-5.9725012165">
        <ele>733.62</ele>
        <time>2020-08-10T15:22:44Z</time>
      </trkpt>
      <trkpt lat="41.9893528987" lon="-5.9724747296">
        <ele>733.14</ele>
        <time>2020-08-10T15:22:50Z</time>
      </trkpt>
      <trkpt lat="41.9893320277" lon="-5.9722567163">
        <ele>735.55</ele>
        <time>2020-08-10T15:23:00Z</time>
      </trkpt>
      <trkpt lat="41.9893261604" lon="-5.9720889106">
        <ele>736.51</ele>
        <time>2020-08-10T15:23:07Z</time>
      </trkpt>
      <trkpt lat="41.9893350452" lon="-5.9720352665">
        <ele>736.51</ele>
        <time>2020-08-10T15:23:09Z</time>
      </trkpt>
      <trkpt lat="41.9893549103" lon="-5.9720100369">
        <ele>736.51</ele>
        <time>2020-08-10T15:23:10Z</time>
      </trkpt>
      <trkpt lat="41.9893718418" lon="-5.9719914291">
        <ele>736.51</ele>
        <time>2020-08-10T15:23:11Z</time>
      </trkpt>
      <trkpt lat="41.9893897790" lon="-5.9719715640">
        <ele>736.03</ele>
        <time>2020-08-10T15:23:12Z</time>
      </trkpt>
      <trkpt lat="41.9895837363" lon="-5.9718731605">
        <ele>736.03</ele>
        <time>2020-08-10T15:23:20Z</time>
      </trkpt>
      <trkpt lat="41.9898249675" lon="-5.9718865715">
        <ele>736.99</ele>
        <time>2020-08-10T15:23:29Z</time>
      </trkpt>
      <trkpt lat="41.9900501054" lon="-5.9719311632">
        <ele>736.99</ele>
        <time>2020-08-10T15:23:37Z</time>
      </trkpt>
      <trkpt lat="41.9903028198" lon="-5.9719708096">
        <ele>737.95</ele>
        <time>2020-08-10T15:23:47Z</time>
      </trkpt>
      <trkpt lat="41.9905991200" lon="-5.9720185027">
        <ele>738.91</ele>
        <time>2020-08-10T15:23:58Z</time>
      </trkpt>
      <trkpt lat="41.9908464700" lon="-5.9720586520">
        <ele>739.87</ele>
        <time>2020-08-10T15:24:07Z</time>
      </trkpt>
      <trkpt lat="41.9909856096" lon="-5.9720850550">
        <ele>740.35</ele>
        <time>2020-08-10T15:24:15Z</time>
      </trkpt>
      <trkpt lat="41.9909958355" lon="-5.9720916767">
        <ele>740.35</ele>
        <time>2020-08-10T15:24:26Z</time>
      </trkpt>
      <trkpt lat="41.9911483862" lon="-5.9721162356">
        <ele>740.83</ele>
        <time>2020-08-10T15:24:32Z</time>
      </trkpt>
      <trkpt lat="41.9914021902" lon="-5.9721610788">
        <ele>740.35</ele>
        <time>2020-08-10T15:24:41Z</time>
      </trkpt>
      <trkpt lat="41.9916074630" lon="-5.9721917566">
        <ele>738.91</ele>
        <time>2020-08-10T15:24:49Z</time>
      </trkpt>
      <trkpt lat="41.9919455890" lon="-5.9722595662">
        <ele>738.43</ele>
        <time>2020-08-10T15:24:58Z</time>
      </trkpt>
      <trkpt lat="41.9923407119" lon="-5.9723411221">
        <ele>737.95</ele>
        <time>2020-08-10T15:25:07Z</time>
      </trkpt>
      <trkpt lat="41.9927082583" lon="-5.9724287968">
        <ele>738.91</ele>
        <time>2020-08-10T15:25:15Z</time>
      </trkpt>
      <trkpt lat="41.9928869605" lon="-5.9724701196">
        <ele>738.43</ele>
        <time>2020-08-10T15:25:19Z</time>
      </trkpt>
      <trkpt lat="41.9932892080" lon="-5.9725366719">
        <ele>738.43</ele>
        <time>2020-08-10T15:25:28Z</time>
      </trkpt>
      <trkpt lat="41.9935776293" lon="-5.9725871310">
        <ele>739.87</ele>
        <time>2020-08-10T15:25:37Z</time>
      </trkpt>
      <trkpt lat="41.9939398114" lon="-5.9726623166">
        <ele>740.35</ele>
        <time>2020-08-10T15:25:48Z</time>
      </trkpt>
      <trkpt lat="41.9942504447" lon="-5.9726970177">
        <ele>740.35</ele>
        <time>2020-08-10T15:25:57Z</time>
      </trkpt>
      <trkpt lat="41.9944662787" lon="-5.9726056550">
        <ele>741.79</ele>
        <time>2020-08-10T15:26:05Z</time>
      </trkpt>
      <trkpt lat="41.9945616648" lon="-5.9724412020">
        <ele>742.28</ele>
        <time>2020-08-10T15:26:11Z</time>
      </trkpt>
      <trkpt lat="41.9946239423" lon="-5.9721490089">
        <ele>744.68</ele>
        <time>2020-08-10T15:26:20Z</time>
      </trkpt>
      <trkpt lat="41.9946706295" lon="-5.9719039220">
        <ele>746.12</ele>
        <time>2020-08-10T15:26:28Z</time>
      </trkpt>
      <trkpt lat="41.9947119523" lon="-5.9716739226">
        <ele>747.08</ele>
        <time>2020-08-10T15:26:35Z</time>
      </trkpt>
      <trkpt lat="41.9947346672" lon="-5.9714663867">
        <ele>747.56</ele>
        <time>2020-08-10T15:26:43Z</time>
      </trkpt>
      <trkpt lat="41.9947632495" lon="-5.9712800570">
        <ele>748.04</ele>
        <time>2020-08-10T15:26:51Z</time>
      </trkpt>
      <trkpt lat="41.9947523531" lon="-5.9712319449">
        <ele>748.04</ele>
        <time>2020-08-10T15:26:53Z</time>
      </trkpt>
      <trkpt lat="41.9946882315" lon="-5.9711969085">
        <ele>748.52</ele>
        <time>2020-08-10T15:27:00Z</time>
      </trkpt>
      <trkpt lat="41.9946977869" lon="-5.9712000098">
        <ele>748.52</ele>
        <time>2020-08-10T15:27:09Z</time>
      </trkpt>
      <trkpt lat="41.9946670253" lon="-5.9711901192">
        <ele>749.49</ele>
        <time>2020-08-10T15:27:18Z</time>
      </trkpt>
      <trkpt lat="41.9946637563" lon="-5.9711922985">
        <ele>749.49</ele>
        <time>2020-08-10T15:27:26Z</time>
      </trkpt>
      <trkpt lat="41.9946603198" lon="-5.9711886942">
        <ele>748.52</ele>
        <time>2020-08-10T15:27:41Z</time>
      </trkpt>
      <trkpt lat="41.9946535304" lon="-5.9711954836">
        <ele>746.60</ele>
        <time>2020-08-10T15:28:00Z</time>
      </trkpt>
      <trkpt lat="41.9946574699" lon="-5.9711808152">
        <ele>747.56</ele>
        <time>2020-08-10T15:28:20Z</time>
      </trkpt>
      <trkpt lat="41.9946614932" lon="-5.9711876884">
        <ele>747.08</ele>
        <time>2020-08-10T15:28:39Z</time>
      </trkpt>
      <trkpt lat="41.9946588948" lon="-5.9711860958">
        <ele>747.56</ele>
        <time>2020-08-10T15:28:59Z</time>
      </trkpt>
      <trkpt lat="41.9946496747" lon="-5.9711793065">
        <ele>746.60</ele>
        <time>2020-08-10T15:29:19Z</time>
      </trkpt>
      <trkpt lat="41.9946542848" lon="-5.9711744450">
        <ele>746.60</ele>
        <time>2020-08-10T15:29:41Z</time>
      </trkpt>
      <trkpt lat="41.9946549553" lon="-5.9711792227">
        <ele>746.12</ele>
        <time>2020-08-10T15:30:01Z</time>
      </trkpt>
      <trkpt lat="41.9946541172" lon="-5.9711842518">
        <ele>746.12</ele>
        <time>2020-08-10T15:30:19Z</time>
      </trkpt>
      <trkpt lat="41.9946551230" lon="-5.9711788036">
        <ele>746.12</ele>
        <time>2020-08-10T15:30:37Z</time>
      </trkpt>
      <trkpt lat="41.9946578890" lon="-5.9711782169">
        <ele>744.20</ele>
        <time>2020-08-10T15:30:56Z</time>
      </trkpt>
      <trkpt lat="41.9946490880" lon="-5.9711855929">
        <ele>743.24</ele>
        <time>2020-08-10T15:31:20Z</time>
      </trkpt>
      <trkpt lat="41.9946389459" lon="-5.9711868502">
        <ele>745.16</ele>
        <time>2020-08-10T15:31:40Z</time>
      </trkpt>
      <trkpt lat="41.9946381915" lon="-5.9711912088">
        <ele>747.08</ele>
        <time>2020-08-10T15:31:58Z</time>
      </trkpt>
      <trkpt lat="41.9946584757" lon="-5.9711853415">
        <ele>748.04</ele>
        <time>2020-08-10T15:32:21Z</time>
      </trkpt>
      <trkpt lat="41.9946696237" lon="-5.9711710084">
        <ele>748.52</ele>
        <time>2020-08-10T15:32:28Z</time>
      </trkpt>
      <trkpt lat="41.9946973678" lon="-5.9711894486">
        <ele>747.08</ele>
        <time>2020-08-10T15:32:38Z</time>
      </trkpt>
      <trkpt lat="41.9947027322" lon="-5.9711954836">
        <ele>746.12</ele>
        <time>2020-08-10T15:32:51Z</time>
      </trkpt>
      <trkpt lat="41.9947192445" lon="-5.9711874370">
        <ele>746.12</ele>
        <time>2020-08-10T15:32:58Z</time>
      </trkpt>
      <trkpt lat="41.9947386906" lon="-5.9712039493">
        <ele>746.60</ele>
        <time>2020-08-10T15:33:05Z</time>
      </trkpt>
      <trkpt lat="41.9947362598" lon="-5.9712180309">
        <ele>746.60</ele>
        <time>2020-08-10T15:33:13Z</time>
      </trkpt>
      <trkpt lat="41.9947361760" lon="-5.9712171927">
        <ele>747.56</ele>
        <time>2020-08-10T15:33:28Z</time>
      </trkpt>
      <trkpt lat="41.9947386906" lon="-5.9712224733">
        <ele>747.56</ele>
        <time>2020-08-10T15:33:31Z</time>
      </trkpt>
      <trkpt lat="41.9948038179" lon="-5.9712247364">
        <ele>748.04</ele>
        <time>2020-08-10T15:33:36Z</time>
      </trkpt>
      <trkpt lat="41.9948255271" lon="-5.9712132532">
        <ele>748.04</ele>
        <time>2020-08-10T15:33:37Z</time>
      </trkpt>
      <trkpt lat="41.9948418718" lon="-5.9711988363">
        <ele>748.04</ele>
        <time>2020-08-10T15:33:38Z</time>
      </trkpt>
      <trkpt lat="41.9948585518" lon="-5.9711816534">
        <ele>748.04</ele>
        <time>2020-08-10T15:33:39Z</time>
      </trkpt>
      <trkpt lat="41.9949240983" lon="-5.9711195435">
        <ele>748.04</ele>
        <time>2020-08-10T15:33:43Z</time>
      </trkpt>
      <trkpt lat="41.9949393533" lon="-5.9711140115">
        <ele>747.56</ele>
        <time>2020-08-10T15:33:44Z</time>
      </trkpt>
      <trkpt lat="41.9949501660" lon="-5.9711076412">
        <ele>747.56</ele>
        <time>2020-08-10T15:33:45Z</time>
      </trkpt>
      <trkpt lat="41.9949626550" lon="-5.9711056296">
        <ele>747.56</ele>
        <time>2020-08-10T15:33:46Z</time>
      </trkpt>
      <trkpt lat="41.9949768204" lon="-5.9711092338">
        <ele>747.56</ele>
        <time>2020-08-10T15:33:47Z</time>
      </trkpt>
      <trkpt lat="41.9949896447" lon="-5.9711138438">
        <ele>747.56</ele>
        <time>2020-08-10T15:33:48Z</time>
      </trkpt>
      <trkpt lat="41.9950629026" lon="-5.9712484572">
        <ele>747.56</ele>
        <time>2020-08-10T15:33:54Z</time>
      </trkpt>
      <trkpt lat="41.9950490724" lon="-5.9716543928">
        <ele>747.08</ele>
        <time>2020-08-10T15:34:04Z</time>
      </trkpt>
      <trkpt lat="41.9950541854" lon="-5.9720597416">
        <ele>746.60</ele>
        <time>2020-08-10T15:34:14Z</time>
      </trkpt>
      <trkpt lat="41.9950806722" lon="-5.9723830316">
        <ele>746.60</ele>
        <time>2020-08-10T15:34:23Z</time>
      </trkpt>
      <trkpt lat="41.9951363280" lon="-5.9727911465">
        <ele>747.56</ele>
        <time>2020-08-10T15:34:33Z</time>
      </trkpt>
      <trkpt lat="41.9952237513" lon="-5.9731524903">
        <ele>748.04</ele>
        <time>2020-08-10T15:34:42Z</time>
      </trkpt>
      <trkpt lat="41.9954324607" lon="-5.9737106413">
        <ele>749.49</ele>
        <time>2020-08-10T15:34:56Z</time>
      </trkpt>
      <trkpt lat="41.9956057146" lon="-5.9740485996">
        <ele>749.97</ele>
        <time>2020-08-10T15:35:05Z</time>
      </trkpt>
      <trkpt lat="41.9958056230" lon="-5.9744531102">
        <ele>751.41</ele>
        <time>2020-08-10T15:35:16Z</time>
      </trkpt>
      <trkpt lat="41.9960562419" lon="-5.9749544319">
        <ele>751.89</ele>
        <time>2020-08-10T15:35:28Z</time>
      </trkpt>
      <trkpt lat="41.9962624367" lon="-5.9753881954">
        <ele>751.89</ele>
        <time>2020-08-10T15:35:38Z</time>
      </trkpt>
      <trkpt lat="41.9964400493" lon="-5.9758199472">
        <ele>752.37</ele>
        <time>2020-08-10T15:35:47Z</time>
      </trkpt>
      <trkpt lat="41.9964947831" lon="-5.9759749286">
        <ele>752.37</ele>
        <time>2020-08-10T15:35:50Z</time>
      </trkpt>
      <trkpt lat="41.9966607448" lon="-5.9765376896">
        <ele>752.37</ele>
        <time>2020-08-10T15:36:00Z</time>
      </trkpt>
      <trkpt lat="41.9967164006" lon="-5.9768193215">
        <ele>752.37</ele>
        <time>2020-08-10T15:36:05Z</time>
      </trkpt>
      <trkpt lat="41.9967257883" lon="-5.9768795874">
        <ele>752.37</ele>
        <time>2020-08-10T15:36:06Z</time>
      </trkpt>
      <trkpt lat="41.9967790134" lon="-5.9771657456">
        <ele>751.89</ele>
        <time>2020-08-10T15:36:11Z</time>
      </trkpt>
      <trkpt lat="41.9968291372" lon="-5.9777592681">
        <ele>751.41</ele>
        <time>2020-08-10T15:36:21Z</time>
      </trkpt>
      <trkpt lat="41.9968215097" lon="-5.9784034174">
        <ele>750.93</ele>
        <time>2020-08-10T15:36:32Z</time>
      </trkpt>
      <trkpt lat="41.9967763312" lon="-5.9790039808">
        <ele>749.00</ele>
        <time>2020-08-10T15:36:42Z</time>
      </trkpt>
      <trkpt lat="41.9967124611" lon="-5.9798640478">
        <ele>746.60</ele>
        <time>2020-08-10T15:36:55Z</time>
      </trkpt>
      <trkpt lat="41.9966527820" lon="-5.9806278907">
        <ele>744.20</ele>
        <time>2020-08-10T15:37:05Z</time>
      </trkpt>
      <trkpt lat="41.9965972099" lon="-5.9813999478">
        <ele>741.79</ele>
        <time>2020-08-10T15:37:14Z</time>
      </trkpt>
      <trkpt lat="41.9965167437" lon="-5.9824233782">
        <ele>738.91</ele>
        <time>2020-08-10T15:37:25Z</time>
      </trkpt>
      <trkpt lat="41.9964348525" lon="-5.9834709484">
        <ele>736.51</ele>
        <time>2020-08-10T15:37:36Z</time>
      </trkpt>
      <trkpt lat="41.9963643607" lon="-5.9843192808">
        <ele>736.03</ele>
        <time>2020-08-10T15:37:46Z</time>
      </trkpt>
      <trkpt lat="41.9963614270" lon="-5.9852437209">
        <ele>735.07</ele>
        <time>2020-08-10T15:37:57Z</time>
      </trkpt>
      <trkpt lat="41.9964201842" lon="-5.9858841822">
        <ele>734.58</ele>
        <time>2020-08-10T15:38:05Z</time>
      </trkpt>
      <trkpt lat="41.9965145644" lon="-5.9867139068">
        <ele>735.07</ele>
        <time>2020-08-10T15:38:16Z</time>
      </trkpt>
      <trkpt lat="41.9966044184" lon="-5.9874933399">
        <ele>735.07</ele>
        <time>2020-08-10T15:38:27Z</time>
      </trkpt>
      <trkpt lat="41.9966896623" lon="-5.9882179555">
        <ele>736.03</ele>
        <time>2020-08-10T15:38:38Z</time>
      </trkpt>
      <trkpt lat="41.9967597350" lon="-5.9888898488">
        <ele>736.99</ele>
        <time>2020-08-10T15:38:48Z</time>
      </trkpt>
      <trkpt lat="41.9968339987" lon="-5.9895531088">
        <ele>736.99</ele>
        <time>2020-08-10T15:38:58Z</time>
      </trkpt>
      <trkpt lat="41.9969347492" lon="-5.9903708473">
        <ele>737.47</ele>
        <time>2020-08-10T15:39:10Z</time>
      </trkpt>
      <trkpt lat="41.9970160536" lon="-5.9910158347">
        <ele>737.47</ele>
        <time>2020-08-10T15:39:20Z</time>
      </trkpt>
      <trkpt lat="41.9971177261" lon="-5.9918488283">
        <ele>737.95</ele>
        <time>2020-08-10T15:39:33Z</time>
      </trkpt>
      <trkpt lat="41.9972065743" lon="-5.9926073905">
        <ele>737.47</ele>
        <time>2020-08-10T15:39:45Z</time>
      </trkpt>
      <trkpt lat="41.9972913992" lon="-5.9933201876">
        <ele>736.99</ele>
        <time>2020-08-10T15:39:56Z</time>
      </trkpt>
      <trkpt lat="41.9973890483" lon="-5.9941510856">
        <ele>736.99</ele>
        <time>2020-08-10T15:40:09Z</time>
      </trkpt>
      <trkpt lat="41.9974680059" lon="-5.9948011022">
        <ele>736.99</ele>
        <time>2020-08-10T15:40:19Z</time>
      </trkpt>
      <trkpt lat="41.9975612126" lon="-5.9956038371">
        <ele>737.95</ele>
        <time>2020-08-10T15:40:32Z</time>
      </trkpt>
      <trkpt lat="41.9976286869" lon="-5.9961992875">
        <ele>736.99</ele>
        <time>2020-08-10T15:40:44Z</time>
      </trkpt>
      <trkpt lat="41.9976719376" lon="-5.9965469688">
        <ele>736.99</ele>
        <time>2020-08-10T15:40:52Z</time>
      </trkpt>
      <trkpt lat="41.9977263361" lon="-5.9970054589">
        <ele>737.95</ele>
        <time>2020-08-10T15:41:02Z</time>
      </trkpt>
      <trkpt lat="41.9977811538" lon="-5.9974662121">
        <ele>738.43</ele>
        <time>2020-08-10T15:41:12Z</time>
      </trkpt>
      <trkpt lat="41.9978342112" lon="-5.9979074355">
        <ele>738.43</ele>
        <time>2020-08-10T15:41:22Z</time>
      </trkpt>
      <trkpt lat="41.9978517294" lon="-5.9979835432">
        <ele>738.91</ele>
        <time>2020-08-10T15:41:27Z</time>
      </trkpt>
      <trkpt lat="41.9978456944" lon="-5.9979936015">
        <ele>737.95</ele>
        <time>2020-08-10T15:41:40Z</time>
      </trkpt>
      <trkpt lat="41.9978504721" lon="-5.9979846328">
        <ele>738.43</ele>
        <time>2020-08-10T15:41:55Z</time>
      </trkpt>
      <trkpt lat="41.9978384022" lon="-5.9979806934">
        <ele>737.95</ele>
        <time>2020-08-10T15:42:11Z</time>
      </trkpt>
      <trkpt lat="41.9978481252" lon="-5.9979826212">
        <ele>738.91</ele>
        <time>2020-08-10T15:42:27Z</time>
      </trkpt>
      <trkpt lat="41.9978506397" lon="-5.9979915898">
        <ele>738.43</ele>
        <time>2020-08-10T15:42:41Z</time>
      </trkpt>
      <trkpt lat="41.9978498854" lon="-5.9980080184">
        <ele>738.43</ele>
        <time>2020-08-10T15:42:42Z</time>
      </trkpt>
      <trkpt lat="41.9978496339" lon="-5.9980294760">
        <ele>738.43</ele>
        <time>2020-08-10T15:42:43Z</time>
      </trkpt>
      <trkpt lat="41.9978520647" lon="-5.9980591480">
        <ele>738.43</ele>
        <time>2020-08-10T15:42:44Z</time>
      </trkpt>
      <trkpt lat="41.9978540763" lon="-5.9980914183">
        <ele>738.43</ele>
        <time>2020-08-10T15:42:45Z</time>
      </trkpt>
      <trkpt lat="41.9978543278" lon="-5.9981272928">
        <ele>738.43</ele>
        <time>2020-08-10T15:42:46Z</time>
      </trkpt>
      <trkpt lat="41.9978927169" lon="-5.9984466434">
        <ele>738.43</ele>
        <time>2020-08-10T15:42:53Z</time>
      </trkpt>
      <trkpt lat="41.9979539048" lon="-5.9989983402">
        <ele>738.43</ele>
        <time>2020-08-10T15:43:03Z</time>
      </trkpt>
      <trkpt lat="41.9980228040" lon="-5.9995531384">
        <ele>737.95</ele>
        <time>2020-08-10T15:43:13Z</time>
      </trkpt>
      <trkpt lat="41.9980989955" lon="-6.0002997145">
        <ele>738.91</ele>
        <time>2020-08-10T15:43:25Z</time>
      </trkpt>
      <trkpt lat="41.9981543999" lon="-6.0010411777">
        <ele>738.91</ele>
        <time>2020-08-10T15:43:37Z</time>
      </trkpt>
      <trkpt lat="41.9981875923" lon="-6.0016220436">
        <ele>738.91</ele>
        <time>2020-08-10T15:43:47Z</time>
      </trkpt>
      <trkpt lat="41.9982105587" lon="-6.0022729822">
        <ele>738.91</ele>
        <time>2020-08-10T15:43:58Z</time>
      </trkpt>
      <trkpt lat="41.9982356206" lon="-6.0029945802">
        <ele>738.43</ele>
        <time>2020-08-10T15:44:10Z</time>
      </trkpt>
      <trkpt lat="41.9982569944" lon="-6.0036590975">
        <ele>738.91</ele>
        <time>2020-08-10T15:44:21Z</time>
      </trkpt>
      <trkpt lat="41.9982839841" lon="-6.0043432284">
        <ele>738.43</ele>
        <time>2020-08-10T15:44:32Z</time>
      </trkpt>
      <trkpt lat="41.9983142428" lon="-6.0052190535">
        <ele>737.95</ele>
        <time>2020-08-10T15:44:45Z</time>
      </trkpt>
      <trkpt lat="41.9983562361" lon="-6.0060581658">
        <ele>737.95</ele>
        <time>2020-08-10T15:44:57Z</time>
      </trkpt>
      <trkpt lat="41.9984434079" lon="-6.0068140458">
        <ele>738.43</ele>
        <time>2020-08-10T15:45:08Z</time>
      </trkpt>
      <trkpt lat="41.9985468406" lon="-6.0074620508">
        <ele>738.91</ele>
        <time>2020-08-10T15:45:19Z</time>
      </trkpt>
      <trkpt lat="41.9986339286" lon="-6.0080458503">
        <ele>738.43</ele>
        <time>2020-08-10T15:45:29Z</time>
      </trkpt>
      <trkpt lat="41.9987311587" lon="-6.0086801089">
        <ele>738.91</ele>
        <time>2020-08-10T15:45:40Z</time>
      </trkpt>
      <trkpt lat="41.9988379441" lon="-6.0093839373">
        <ele>738.91</ele>
        <time>2020-08-10T15:45:52Z</time>
      </trkpt>
      <trkpt lat="41.9989391975" lon="-6.0100241471">
        <ele>739.39</ele>
        <time>2020-08-10T15:46:03Z</time>
      </trkpt>
      <trkpt lat="41.9990319852" lon="-6.0106283147">
        <ele>739.87</ele>
        <time>2020-08-10T15:46:14Z</time>
      </trkpt>
      <trkpt lat="41.9991386030" lon="-6.0113485716">
        <ele>739.87</ele>
        <time>2020-08-10T15:46:27Z</time>
      </trkpt>
      <trkpt lat="41.9992219191" lon="-6.0119626299">
        <ele>739.87</ele>
        <time>2020-08-10T15:46:38Z</time>
      </trkpt>
      <trkpt lat="41.9993074983" lon="-6.0125978105">
        <ele>739.87</ele>
        <time>2020-08-10T15:46:49Z</time>
      </trkpt>
      <trkpt lat="41.9993814267" lon="-6.0131314863">
        <ele>739.39</ele>
        <time>2020-08-10T15:46:58Z</time>
      </trkpt>
      <trkpt lat="41.9994557742" lon="-6.0136794951">
        <ele>738.91</ele>
        <time>2020-08-10T15:47:07Z</time>
      </trkpt>
      <trkpt lat="41.9995628111" lon="-6.0144622810">
        <ele>739.39</ele>
        <time>2020-08-10T15:47:20Z</time>
      </trkpt>
      <trkpt lat="41.9996431936" lon="-6.0150736570">
        <ele>739.39</ele>
        <time>2020-08-10T15:47:30Z</time>
      </trkpt>
      <trkpt lat="41.9997183792" lon="-6.0156710353">
        <ele>740.83</ele>
        <time>2020-08-10T15:47:40Z</time>
      </trkpt>
      <trkpt lat="41.9997721910" lon="-6.0162908770">
        <ele>740.83</ele>
        <time>2020-08-10T15:47:50Z</time>
      </trkpt>
      <trkpt lat="41.9997826684" lon="-6.0167384706">
        <ele>740.83</ele>
        <time>2020-08-10T15:47:57Z</time>
      </trkpt>
      <trkpt lat="41.9997951575" lon="-6.0167997424">
        <ele>740.83</ele>
        <time>2020-08-10T15:47:58Z</time>
      </trkpt>
      <trkpt lat="41.9998131786" lon="-6.0168615170">
        <ele>740.83</ele>
        <time>2020-08-10T15:47:59Z</time>
      </trkpt>
      <trkpt lat="41.9998348039" lon="-6.0169199388">
        <ele>740.83</ele>
        <time>2020-08-10T15:48:00Z</time>
      </trkpt>
      <trkpt lat="41.9998518191" lon="-6.0169658717">
        <ele>741.31</ele>
        <time>2020-08-10T15:48:01Z</time>
      </trkpt>
      <trkpt lat="41.9998697564" lon="-6.0170271434">
        <ele>741.31</ele>
        <time>2020-08-10T15:48:02Z</time>
      </trkpt>
      <trkpt lat="41.9998788927" lon="-6.0170833021">
        <ele>741.31</ele>
        <time>2020-08-10T15:48:03Z</time>
      </trkpt>
      <trkpt lat="41.9998787250" lon="-6.0171480104">
        <ele>741.31</ele>
        <time>2020-08-10T15:48:04Z</time>
      </trkpt>
      <trkpt lat="41.9998671580" lon="-6.0172050074">
        <ele>741.31</ele>
        <time>2020-08-10T15:48:05Z</time>
      </trkpt>
      <trkpt lat="41.9998430181" lon="-6.0172598250">
        <ele>741.31</ele>
        <time>2020-08-10T15:48:06Z</time>
      </trkpt>
      <trkpt lat="41.9998098258" lon="-6.0173133854">
        <ele>741.31</ele>
        <time>2020-08-10T15:48:07Z</time>
      </trkpt>
      <trkpt lat="41.9997752924" lon="-6.0173656046">
        <ele>741.31</ele>
        <time>2020-08-10T15:48:08Z</time>
      </trkpt>
      <trkpt lat="41.9997452851" lon="-6.0174142197">
        <ele>740.83</ele>
        <time>2020-08-10T15:48:09Z</time>
      </trkpt>
      <trkpt lat="41.9996877015" lon="-6.0175319016">
        <ele>740.83</ele>
        <time>2020-08-10T15:48:11Z</time>
      </trkpt>
      <trkpt lat="41.9996667467" lon="-6.0175981186">
        <ele>740.35</ele>
        <time>2020-08-10T15:48:12Z</time>
      </trkpt>
      <trkpt lat="41.9995228294" lon="-6.0182084888">
        <ele>739.87</ele>
        <time>2020-08-10T15:48:21Z</time>
      </trkpt>
      <trkpt lat="41.9993288722" lon="-6.0188123211">
        <ele>739.39</ele>
        <time>2020-08-10T15:48:30Z</time>
      </trkpt>
      <trkpt lat="41.9989923388" lon="-6.0195342544">
        <ele>739.87</ele>
        <time>2020-08-10T15:48:42Z</time>
      </trkpt>
      <trkpt lat="41.9986161590" lon="-6.0202189721">
        <ele>740.83</ele>
        <time>2020-08-10T15:48:55Z</time>
      </trkpt>
      <trkpt lat="41.9983373769" lon="-6.0207129177">
        <ele>740.83</ele>
        <time>2020-08-10T15:49:05Z</time>
      </trkpt>
      <trkpt lat="41.9980090577" lon="-6.0213120561">
        <ele>740.83</ele>
        <time>2020-08-10T15:49:17Z</time>
      </trkpt>
      <trkpt lat="41.9977628812" lon="-6.0217857175">
        <ele>740.35</ele>
        <time>2020-08-10T15:49:26Z</time>
      </trkpt>
      <trkpt lat="41.9975506514" lon="-6.0222184751">
        <ele>739.87</ele>
        <time>2020-08-10T15:49:34Z</time>
      </trkpt>
      <trkpt lat="41.9972504955" lon="-6.0228416696">
        <ele>740.83</ele>
        <time>2020-08-10T15:49:45Z</time>
      </trkpt>
      <trkpt lat="41.9969531894" lon="-6.0235254653">
        <ele>741.31</ele>
        <time>2020-08-10T15:49:57Z</time>
      </trkpt>
      <trkpt lat="41.9967595674" lon="-6.0239987914">
        <ele>740.83</ele>
        <time>2020-08-10T15:50:06Z</time>
      </trkpt>
      <trkpt lat="41.9965652749" lon="-6.0244993586">
        <ele>739.87</ele>
        <time>2020-08-10T15:50:16Z</time>
      </trkpt>
      <trkpt lat="41.9964104611" lon="-6.0249334574">
        <ele>739.39</ele>
        <time>2020-08-10T15:50:25Z</time>
      </trkpt>
      <trkpt lat="41.9962188508" lon="-6.0254688095">
        <ele>739.87</ele>
        <time>2020-08-10T15:50:36Z</time>
      </trkpt>
      <trkpt lat="41.9961151667" lon="-6.0258533712">
        <ele>739.39</ele>
        <time>2020-08-10T15:50:45Z</time>
      </trkpt>
      <trkpt lat="41.9961393066" lon="-6.0260040779">
        <ele>739.87</ele>
        <time>2020-08-10T15:50:50Z</time>
      </trkpt>
      <trkpt lat="41.9961177651" lon="-6.0261687823">
        <ele>740.35</ele>
        <time>2020-08-10T15:50:56Z</time>
      </trkpt>
      <trkpt lat="41.9961081259" lon="-6.0261928383">
        <ele>740.83</ele>
        <time>2020-08-10T15:51:02Z</time>
      </trkpt>
      <trkpt lat="41.9961051922" lon="-6.0261979513">
        <ele>741.79</ele>
        <time>2020-08-10T15:51:09Z</time>
      </trkpt>
      <trkpt lat="41.9961099699" lon="-6.0261912458">
        <ele>741.31</ele>
        <time>2020-08-10T15:51:23Z</time>
      </trkpt>
      <trkpt lat="41.9961168431" lon="-6.0261776671">
        <ele>741.31</ele>
        <time>2020-08-10T15:51:43Z</time>
      </trkpt>
      <trkpt lat="41.9961061981" lon="-6.0261640884">
        <ele>744.20</ele>
        <time>2020-08-10T15:52:06Z</time>
      </trkpt>
      <trkpt lat="41.9962416496" lon="-6.0255378764">
        <ele>748.04</ele>
        <time>2020-08-11T05:13:05Z</time>
      </trkpt>
      <trkpt lat="41.9962072838" lon="-6.0256631859">
        <ele>745.16</ele>
        <time>2020-08-11T05:13:16Z</time>
      </trkpt>
      <trkpt lat="41.9962224551" lon="-6.0256785247">
        <ele>750.45</ele>
        <time>2020-08-11T05:13:21Z</time>
      </trkpt>
      <trkpt lat="41.9962740876" lon="-6.0257186741">
        <ele>756.21</ele>
        <time>2020-08-11T05:13:30Z</time>
      </trkpt>
      <trkpt lat="41.9962810446" lon="-6.0257579014">
        <ele>755.73</ele>
        <time>2020-08-11T05:13:41Z</time>
      </trkpt>
      <trkpt lat="41.9963742513" lon="-6.0258987173">
        <ele>739.87</ele>
        <time>2020-08-11T05:13:55Z</time>
      </trkpt>
      <trkpt lat="41.9963576552" lon="-6.0260220990">
        <ele>739.87</ele>
        <time>2020-08-11T05:14:10Z</time>
      </trkpt>
      <trkpt lat="41.9963548891" lon="-6.0260405391">
        <ele>739.87</ele>
        <time>2020-08-11T05:14:21Z</time>
      </trkpt>
      <trkpt lat="41.9963494409" lon="-6.0260545369">
        <ele>739.39</ele>
        <time>2020-08-11T05:14:45Z</time>
      </trkpt>
      <trkpt lat="41.9963539671" lon="-6.0260329954">
        <ele>742.76</ele>
        <time>2020-08-11T05:15:15Z</time>
      </trkpt>
      <trkpt lat="41.9963335991" lon="-6.0260235239">
        <ele>741.31</ele>
        <time>2020-08-11T05:15:40Z</time>
      </trkpt>
      <trkpt lat="41.9963512011" lon="-6.0260246973">
        <ele>741.79</ele>
        <time>2020-08-11T05:16:00Z</time>
      </trkpt>
      <trkpt lat="41.9963530451" lon="-6.0260031559">
        <ele>742.76</ele>
        <time>2020-08-11T05:16:24Z</time>
      </trkpt>
      <trkpt lat="41.9963552244" lon="-6.0259911697">
        <ele>742.76</ele>
        <time>2020-08-11T05:16:32Z</time>
      </trkpt>
      <trkpt lat="41.9963039272" lon="-6.0259754118">
        <ele>742.76</ele>
        <time>2020-08-11T05:16:36Z</time>
      </trkpt>
      <trkpt lat="41.9961175136" lon="-6.0260486696">
        <ele>742.76</ele>
        <time>2020-08-11T05:16:45Z</time>
      </trkpt>
      <trkpt lat="41.9959632028" lon="-6.0261888988">
        <ele>742.76</ele>
        <time>2020-08-11T05:16:52Z</time>
      </trkpt>
      <trkpt lat="41.9958242308" lon="-6.0265316349">
        <ele>743.24</ele>
        <time>2020-08-11T05:17:01Z</time>
      </trkpt>
      <trkpt lat="41.9956726860" lon="-6.0269400012">
        <ele>743.24</ele>
        <time>2020-08-11T05:17:10Z</time>
      </trkpt>
      <trkpt lat="41.9955197163" lon="-6.0273559950">
        <ele>741.79</ele>
        <time>2020-08-11T05:17:19Z</time>
      </trkpt>
      <trkpt lat="41.9953331351" lon="-6.0278879106">
        <ele>742.28</ele>
        <time>2020-08-11T05:17:30Z</time>
      </trkpt>
      <trkpt lat="41.9951417763" lon="-6.0284383502">
        <ele>742.76</ele>
        <time>2020-08-11T05:17:41Z</time>
      </trkpt>
      <trkpt lat="41.9949463103" lon="-6.0289928969">
        <ele>744.20</ele>
        <time>2020-08-11T05:17:52Z</time>
      </trkpt>
      <trkpt lat="41.9947374333" lon="-6.0295852460">
        <ele>743.72</ele>
        <time>2020-08-11T05:18:04Z</time>
      </trkpt>
      <trkpt lat="41.9945702981" lon="-6.0300693847">
        <ele>744.68</ele>
        <time>2020-08-11T05:18:14Z</time>
      </trkpt>
      <trkpt lat="41.9943491835" lon="-6.0307013802">
        <ele>743.72</ele>
        <time>2020-08-11T05:18:27Z</time>
      </trkpt>
      <trkpt lat="41.9942029193" lon="-6.0311071482">
        <ele>742.76</ele>
        <time>2020-08-11T05:18:36Z</time>
      </trkpt>
      <trkpt lat="41.9940188527" lon="-6.0316773690">
        <ele>741.79</ele>
        <time>2020-08-11T05:18:47Z</time>
      </trkpt>
      <trkpt lat="41.9939460978" lon="-6.0318818875">
        <ele>742.28</ele>
        <time>2020-08-11T05:18:51Z</time>
      </trkpt>
      <trkpt lat="41.9937723409" lon="-6.0322621744">
        <ele>741.79</ele>
        <time>2020-08-11T05:18:59Z</time>
      </trkpt>
      <trkpt lat="41.9935757853" lon="-6.0327801760">
        <ele>741.31</ele>
        <time>2020-08-11T05:19:09Z</time>
      </trkpt>
      <trkpt lat="41.9934089854" lon="-6.0332350619">
        <ele>741.31</ele>
        <time>2020-08-11T05:19:19Z</time>
      </trkpt>
      <trkpt lat="41.9933824148" lon="-6.0332623031">
        <ele>741.31</ele>
        <time>2020-08-11T05:19:20Z</time>
      </trkpt>
      <trkpt lat="41.9933516532" lon="-6.0332790669">
        <ele>741.31</ele>
        <time>2020-08-11T05:19:21Z</time>
      </trkpt>
      <trkpt lat="41.9933124259" lon="-6.0332881194">
        <ele>741.31</ele>
        <time>2020-08-11T05:19:22Z</time>
      </trkpt>
      <trkpt lat="41.9932842627" lon="-6.0332821682">
        <ele>741.31</ele>
        <time>2020-08-11T05:19:23Z</time>
      </trkpt>
      <trkpt lat="41.9932479691" lon="-6.0332656559">
        <ele>741.31</ele>
        <time>2020-08-11T05:19:24Z</time>
      </trkpt>
      <trkpt lat="41.9932082389" lon="-6.0332401749">
        <ele>740.83</ele>
        <time>2020-08-11T05:19:25Z</time>
      </trkpt>
      <trkpt lat="41.9931714423" lon="-6.0332145263">
        <ele>740.83</ele>
        <time>2020-08-11T05:19:26Z</time>
      </trkpt>
      <trkpt lat="41.9928011298" lon="-6.0328976065">
        <ele>740.35</ele>
        <time>2020-08-11T05:19:36Z</time>
      </trkpt>
      <trkpt lat="41.9925411232" lon="-6.0326959379">
        <ele>739.87</ele>
        <time>2020-08-11T05:19:44Z</time>
      </trkpt>
      <trkpt lat="41.9921523705" lon="-6.0324319080">
        <ele>738.91</ele>
        <time>2020-08-11T05:19:55Z</time>
      </trkpt>
      <trkpt lat="41.9918368757" lon="-6.0322222766">
        <ele>738.91</ele>
        <time>2020-08-11T05:20:04Z</time>
      </trkpt>
      <trkpt lat="41.9912775513" lon="-6.0318502877">
        <ele>738.43</ele>
        <time>2020-08-11T05:20:20Z</time>
      </trkpt>
      <trkpt lat="41.9909177162" lon="-6.0316155944">
        <ele>738.43</ele>
        <time>2020-08-11T05:20:30Z</time>
      </trkpt>
      <trkpt lat="41.9904027320" lon="-6.0312648118">
        <ele>738.91</ele>
        <time>2020-08-11T05:20:44Z</time>
      </trkpt>
      <trkpt lat="41.9900785200" lon="-6.0310460441">
        <ele>738.43</ele>
        <time>2020-08-11T05:20:53Z</time>
      </trkpt>
      <trkpt lat="41.9896396436" lon="-6.0307499114">
        <ele>738.91</ele>
        <time>2020-08-11T05:21:05Z</time>
      </trkpt>
      <trkpt lat="41.9892441016" lon="-6.0304895695">
        <ele>738.91</ele>
        <time>2020-08-11T05:21:16Z</time>
      </trkpt>
      <trkpt lat="41.9888640661" lon="-6.0302371904">
        <ele>738.43</ele>
        <time>2020-08-11T05:21:26Z</time>
      </trkpt>
      <trkpt lat="41.9884375948" lon="-6.0299509484">
        <ele>738.43</ele>
        <time>2020-08-11T05:21:37Z</time>
      </trkpt>
      <trkpt lat="41.9879252091" lon="-6.0296087991">
        <ele>738.43</ele>
        <time>2020-08-11T05:21:50Z</time>
      </trkpt>
      <trkpt lat="41.9875412341" lon="-6.0293513071">
        <ele>738.43</ele>
        <time>2020-08-11T05:22:00Z</time>
      </trkpt>
      <trkpt lat="41.9875053596" lon="-6.0293250717">
        <ele>738.43</ele>
        <time>2020-08-11T05:22:01Z</time>
      </trkpt>
      <trkpt lat="41.9870756194" lon="-6.0290357284">
        <ele>738.43</ele>
        <time>2020-08-11T05:22:12Z</time>
      </trkpt>
      <trkpt lat="41.9866395928" lon="-6.0287434515">
        <ele>738.91</ele>
        <time>2020-08-11T05:22:23Z</time>
      </trkpt>
      <trkpt lat="41.9862395246" lon="-6.0284835286">
        <ele>738.91</ele>
        <time>2020-08-11T05:22:33Z</time>
      </trkpt>
      <trkpt lat="41.9857273065" lon="-6.0281951912">
        <ele>738.43</ele>
        <time>2020-08-11T05:22:45Z</time>
      </trkpt>
      <trkpt lat="41.9851909485" lon="-6.0280622542">
        <ele>738.91</ele>
        <time>2020-08-11T05:22:57Z</time>
      </trkpt>
      <trkpt lat="41.9848442730" lon="-6.0280699655">
        <ele>738.43</ele>
        <time>2020-08-11T05:23:05Z</time>
      </trkpt>
      <trkpt lat="41.9848004356" lon="-6.0280745756">
        <ele>738.43</ele>
        <time>2020-08-11T05:23:06Z</time>
      </trkpt>
      <trkpt lat="41.9847581070" lon="-6.0280791856">
        <ele>738.43</ele>
        <time>2020-08-11T05:23:07Z</time>
      </trkpt>
      <trkpt lat="41.9843192305" lon="-6.0281858873">
        <ele>738.43</ele>
        <time>2020-08-11T05:23:18Z</time>
      </trkpt>
      <trkpt lat="41.9840029813" lon="-6.0282843746">
        <ele>737.95</ele>
        <time>2020-08-11T05:23:27Z</time>
      </trkpt>
      <trkpt lat="41.9839654304" lon="-6.0282729752">
        <ele>737.47</ele>
        <time>2020-08-11T05:23:28Z</time>
      </trkpt>
      <trkpt lat="41.9838856347" lon="-6.0282482486">
        <ele>737.47</ele>
        <time>2020-08-11T05:23:30Z</time>
      </trkpt>
      <trkpt lat="41.9838464074" lon="-6.0282449797">
        <ele>737.47</ele>
        <time>2020-08-11T05:23:31Z</time>
      </trkpt>
      <trkpt lat="41.9835693855" lon="-6.0282303113">
        <ele>736.99</ele>
        <time>2020-08-11T05:23:39Z</time>
      </trkpt>
      <trkpt lat="41.9835551362" lon="-6.0282407887">
        <ele>737.47</ele>
        <time>2020-08-11T05:23:40Z</time>
      </trkpt>
      <trkpt lat="41.9835746661" lon="-6.0282857157">
        <ele>737.47</ele>
        <time>2020-08-11T05:23:44Z</time>
      </trkpt>
      <trkpt lat="41.9836001471" lon="-6.0282926727">
        <ele>737.47</ele>
        <time>2020-08-11T05:23:46Z</time>
      </trkpt>
      <trkpt lat="41.9836286455" lon="-6.0283051617">
        <ele>737.47</ele>
        <time>2020-08-11T05:23:54Z</time>
      </trkpt>
      <trkpt lat="41.9836316630" lon="-6.0283183213">
        <ele>737.95</ele>
        <time>2020-08-11T05:24:09Z</time>
      </trkpt>
      <trkpt lat="41.9836970419" lon="-6.0283489991">
        <ele>737.95</ele>
        <time>2020-08-11T05:24:18Z</time>
      </trkpt>
      <trkpt lat="41.9837120455" lon="-6.0283683613">
        <ele>737.95</ele>
        <time>2020-08-11T05:24:19Z</time>
      </trkpt>
      <trkpt lat="41.9837225229" lon="-6.0283951834">
        <ele>737.95</ele>
        <time>2020-08-11T05:24:20Z</time>
      </trkpt>
      <trkpt lat="41.9837258756" lon="-6.0284247715">
        <ele>738.43</ele>
        <time>2020-08-11T05:24:21Z</time>
      </trkpt>
      <trkpt lat="41.9837218523" lon="-6.0284540243">
        <ele>738.43</ele>
        <time>2020-08-11T05:24:22Z</time>
      </trkpt>
      <trkpt lat="41.9837127160" lon="-6.0284828581">
        <ele>738.91</ele>
        <time>2020-08-11T05:24:23Z</time>
      </trkpt>
      <trkpt lat="41.9837010652" lon="-6.0285048187">
        <ele>738.91</ele>
        <time>2020-08-11T05:24:24Z</time>
      </trkpt>
      <trkpt lat="41.9836860616" lon="-6.0285269469">
        <ele>738.91</ele>
        <time>2020-08-11T05:24:25Z</time>
      </trkpt>
      <trkpt lat="41.9836698845" lon="-6.0285484046">
        <ele>738.91</ele>
        <time>2020-08-11T05:24:26Z</time>
      </trkpt>
      <trkpt lat="41.9834878296" lon="-6.0286864545">
        <ele>738.43</ele>
        <time>2020-08-11T05:24:35Z</time>
      </trkpt>
      <trkpt lat="41.9834372867" lon="-6.0287115164">
        <ele>738.43</ele>
        <time>2020-08-11T05:24:41Z</time>
      </trkpt>
      <trkpt lat="41.9834425673" lon="-6.0286906455">
        <ele>737.47</ele>
        <time>2020-08-11T05:24:51Z</time>
      </trkpt>
      <trkpt lat="41.9834407233" lon="-6.0287013743">
        <ele>738.43</ele>
        <time>2020-08-11T05:25:17Z</time>
      </trkpt>
      <trkpt lat="41.9834372029" lon="-6.0286990274">
        <ele>738.91</ele>
        <time>2020-08-11T05:25:41Z</time>
      </trkpt>
      <trkpt lat="41.9834360294" lon="-6.0286981892">
        <ele>739.39</ele>
        <time>2020-08-11T05:26:04Z</time>
      </trkpt>
      <trkpt lat="41.9834413938" lon="-6.0286929924">
        <ele>741.31</ele>
        <time>2020-08-11T05:26:31Z</time>
      </trkpt>
      <trkpt lat="41.9834339339" lon="-6.0286921542">
        <ele>742.28</ele>
        <time>2020-08-11T05:26:48Z</time>
      </trkpt>
      <trkpt lat="41.9834373705" lon="-6.0287076607">
        <ele>741.31</ele>
        <time>2020-08-11T05:27:06Z</time>
      </trkpt>
      <trkpt lat="41.9834368676" lon="-6.0287105106">
        <ele>739.39</ele>
        <time>2020-08-11T05:27:33Z</time>
      </trkpt>
      <trkpt lat="41.9834288210" lon="-6.0286942497">
        <ele>739.87</ele>
        <time>2020-08-11T05:27:52Z</time>
      </trkpt>
      <trkpt lat="41.9834349398" lon="-6.0286946688">
        <ele>739.39</ele>
        <time>2020-08-11T05:28:13Z</time>
      </trkpt>
      <trkpt lat="41.9834424835" lon="-6.0287018772">
        <ele>740.83</ele>
        <time>2020-08-11T05:28:40Z</time>
      </trkpt>
      <trkpt lat="41.9834443275" lon="-6.0287131090">
        <ele>739.39</ele>
        <time>2020-08-11T05:29:04Z</time>
      </trkpt>
      <trkpt lat="41.9834566489" lon="-6.0287131090">
        <ele>737.95</ele>
        <time>2020-08-11T05:29:17Z</time>
      </trkpt>
      <trkpt lat="41.9834488537" lon="-6.0287133604">
        <ele>739.39</ele>
        <time>2020-08-11T05:29:33Z</time>
      </trkpt>
      <trkpt lat="41.9834474288" lon="-6.0287222452">
        <ele>738.43</ele>
        <time>2020-08-11T05:29:50Z</time>
      </trkpt>
      <trkpt lat="41.9834389631" lon="-6.0287178028">
        <ele>738.91</ele>
        <time>2020-08-11T05:30:09Z</time>
      </trkpt>
      <trkpt lat="41.9834342692" lon="-6.0287188925">
        <ele>740.35</ele>
        <time>2020-08-11T05:30:26Z</time>
      </trkpt>
      <trkpt lat="41.9834432378" lon="-6.0287196469">
        <ele>738.91</ele>
        <time>2020-08-11T05:30:47Z</time>
      </trkpt>
      <trkpt lat="41.9834569003" lon="-6.0287254304">
        <ele>738.91</ele>
        <time>2020-08-11T05:31:10Z</time>
      </trkpt>
      <trkpt lat="41.9834563974" lon="-6.0287195630">
        <ele>739.39</ele>
        <time>2020-08-11T05:31:31Z</time>
      </trkpt>
      <trkpt lat="41.9834299106" lon="-6.0287161265">
        <ele>740.35</ele>
        <time>2020-08-11T05:31:38Z</time>
      </trkpt>
      <trkpt lat="41.9834139012" lon="-6.0287154559">
        <ele>739.39</ele>
        <time>2020-08-11T05:31:48Z</time>
      </trkpt>
      <trkpt lat="41.9834004901" lon="-6.0287150368">
        <ele>739.39</ele>
        <time>2020-08-11T05:31:49Z</time>
      </trkpt>
      <trkpt lat="41.9833856542" lon="-6.0287193954">
        <ele>739.39</ele>
        <time>2020-08-11T05:31:50Z</time>
      </trkpt>
      <trkpt lat="41.9832263142" lon="-6.0288069863">
        <ele>739.39</ele>
        <time>2020-08-11T05:31:57Z</time>
      </trkpt>
      <trkpt lat="41.9828997552" lon="-6.0289685056">
        <ele>739.39</ele>
        <time>2020-08-11T05:32:08Z</time>
      </trkpt>
      <trkpt lat="41.9826596137" lon="-6.0290789790">
        <ele>739.87</ele>
        <time>2020-08-11T05:32:16Z</time>
      </trkpt>
      <trkpt lat="41.9823505729" lon="-6.0292249080">
        <ele>740.35</ele>
        <time>2020-08-11T05:32:26Z</time>
      </trkpt>
      <trkpt lat="41.9819853734" lon="-6.0293883551">
        <ele>740.35</ele>
        <time>2020-08-11T05:32:37Z</time>
      </trkpt>
      <trkpt lat="41.9816939346" lon="-6.0295396484">
        <ele>740.35</ele>
        <time>2020-08-11T05:32:46Z</time>
      </trkpt>
      <trkpt lat="41.9815449882" lon="-6.0296121519">
        <ele>740.35</ele>
        <time>2020-08-11T05:32:54Z</time>
      </trkpt>
      <trkpt lat="41.9815204293" lon="-6.0296175163">
        <ele>740.35</ele>
        <time>2020-08-11T05:33:00Z</time>
      </trkpt>
      <trkpt lat="41.9815033302" lon="-6.0296393093">
        <ele>740.83</ele>
        <time>2020-08-11T05:33:11Z</time>
      </trkpt>
      <trkpt lat="41.9814993069" lon="-6.0296343639">
        <ele>740.35</ele>
        <time>2020-08-11T05:33:27Z</time>
      </trkpt>
      <trkpt lat="41.9814957865" lon="-6.0296414886">
        <ele>740.35</ele>
        <time>2020-08-11T05:33:39Z</time>
      </trkpt>
      <trkpt lat="41.9814843871" lon="-6.0296400636">
        <ele>740.35</ele>
        <time>2020-08-11T05:33:40Z</time>
      </trkpt>
      <trkpt lat="41.9814705569" lon="-6.0296403989">
        <ele>740.35</ele>
        <time>2020-08-11T05:33:41Z</time>
      </trkpt>
      <trkpt lat="41.9814490154" lon="-6.0296538938">
        <ele>740.35</ele>
        <time>2020-08-11T05:33:47Z</time>
      </trkpt>
      <trkpt lat="41.9813343510" lon="-6.0297021735">
        <ele>740.83</ele>
        <time>2020-08-11T05:33:54Z</time>
      </trkpt>
      <trkpt lat="41.9811299164" lon="-6.0298090428">
        <ele>739.87</ele>
        <time>2020-08-11T05:34:02Z</time>
      </trkpt>
      <trkpt lat="41.9808440097" lon="-6.0299424827">
        <ele>738.91</ele>
        <time>2020-08-11T05:34:12Z</time>
      </trkpt>
      <trkpt lat="41.9805412553" lon="-6.0300943628">
        <ele>737.95</ele>
        <time>2020-08-11T05:34:21Z</time>
      </trkpt>
      <trkpt lat="41.9801647402" lon="-6.0303381085">
        <ele>736.99</ele>
        <time>2020-08-11T05:34:32Z</time>
      </trkpt>
      <trkpt lat="41.9799888879" lon="-6.0304806009">
        <ele>736.99</ele>
        <time>2020-08-11T05:34:39Z</time>
      </trkpt>
      <trkpt lat="41.9799845293" lon="-6.0305023100">
        <ele>736.99</ele>
        <time>2020-08-11T05:34:40Z</time>
      </trkpt>
      <trkpt lat="41.9799895585" lon="-6.0305282939">
        <ele>736.99</ele>
        <time>2020-08-11T05:34:41Z</time>
      </trkpt>
      <trkpt lat="41.9800045621" lon="-6.0305546131">
        <ele>736.99</ele>
        <time>2020-08-11T05:34:42Z</time>
      </trkpt>
      <trkpt lat="41.9800281152" lon="-6.0305723827">
        <ele>736.99</ele>
        <time>2020-08-11T05:34:43Z</time>
      </trkpt>
      <trkpt lat="41.9800465554" lon="-6.0305812676">
        <ele>736.99</ele>
        <time>2020-08-11T05:34:44Z</time>
      </trkpt>
      <trkpt lat="41.9800736289" lon="-6.0305881407">
        <ele>736.99</ele>
        <time>2020-08-11T05:34:45Z</time>
      </trkpt>
      <trkpt lat="41.9801007025" lon="-6.0305891465">
        <ele>736.99</ele>
        <time>2020-08-11T05:34:46Z</time>
      </trkpt>
      <trkpt lat="41.9801280275" lon="-6.0305888951">
        <ele>736.99</ele>
        <time>2020-08-11T05:34:47Z</time>
      </trkpt>
      <trkpt lat="41.9804244954" lon="-6.0306137055">
        <ele>737.47</ele>
        <time>2020-08-11T05:34:56Z</time>
      </trkpt>
      <trkpt lat="41.9808457699" lon="-6.0307296272">
        <ele>737.47</ele>
        <time>2020-08-11T05:35:08Z</time>
      </trkpt>
      <trkpt lat="41.9810829777" lon="-6.0308494885">
        <ele>736.51</ele>
        <time>2020-08-11T05:35:15Z</time>
      </trkpt>
      <trkpt lat="41.9811958820" lon="-6.0309147835">
        <ele>735.55</ele>
        <time>2020-08-11T05:35:18Z</time>
      </trkpt>
      <trkpt lat="41.9813508634" lon="-6.0311255883">
        <ele>734.58</ele>
        <time>2020-08-11T05:35:24Z</time>
      </trkpt>
      <trkpt lat="41.9814186729" lon="-6.0313278437">
        <ele>733.62</ele>
        <time>2020-08-11T05:35:30Z</time>
      </trkpt>
      <trkpt lat="41.9814696349" lon="-6.0314976610">
        <ele>733.14</ele>
        <time>2020-08-11T05:35:36Z</time>
      </trkpt>
      <trkpt lat="41.9814762566" lon="-6.0316856671">
        <ele>733.62</ele>
        <time>2020-08-11T05:35:42Z</time>
      </trkpt>
      <trkpt lat="41.9813966285" lon="-6.0320840590">
        <ele>735.07</ele>
        <time>2020-08-11T05:35:53Z</time>
      </trkpt>
      <trkpt lat="41.9813344348" lon="-6.0325011425">
        <ele>736.03</ele>
        <time>2020-08-11T05:36:04Z</time>
      </trkpt>
      <trkpt lat="41.9813066907" lon="-6.0327572096">
        <ele>736.99</ele>
        <time>2020-08-11T05:36:13Z</time>
      </trkpt>
      <trkpt lat="41.9813063554" lon="-6.0329817608">
        <ele>736.99</ele>
        <time>2020-08-11T05:36:21Z</time>
      </trkpt>
      <trkpt lat="41.9812849816" lon="-6.0332317930">
        <ele>737.47</ele>
        <time>2020-08-11T05:36:30Z</time>
      </trkpt>
      <trkpt lat="41.9812880829" lon="-6.0334902909">
        <ele>738.91</ele>
        <time>2020-08-11T05:36:38Z</time>
      </trkpt>
      <trkpt lat="41.9812944531" lon="-6.0336030275">
        <ele>739.39</ele>
        <time>2020-08-11T05:36:44Z</time>
      </trkpt>
      <trkpt lat="41.9812903460" lon="-6.0335808992">
        <ele>737.47</ele>
        <time>2020-08-11T05:36:55Z</time>
      </trkpt>
      <trkpt lat="41.9812861551" lon="-6.0336070508">
        <ele>739.87</ele>
        <time>2020-08-11T05:37:17Z</time>
      </trkpt>
      <trkpt lat="41.9813097082" lon="-6.0337497946">
        <ele>739.39</ele>
        <time>2020-08-11T05:37:23Z</time>
      </trkpt>
      <trkpt lat="41.9813663699" lon="-6.0340297502">
        <ele>739.87</ele>
        <time>2020-08-11T05:37:31Z</time>
      </trkpt>
      <trkpt lat="41.9814719819" lon="-6.0344353504">
        <ele>739.87</ele>
        <time>2020-08-11T05:37:41Z</time>
      </trkpt>
      <trkpt lat="41.9815477543" lon="-6.0347448103">
        <ele>739.39</ele>
        <time>2020-08-11T05:37:48Z</time>
      </trkpt>
      <trkpt lat="41.9816536177" lon="-6.0351530090">
        <ele>739.39</ele>
        <time>2020-08-11T05:37:58Z</time>
      </trkpt>
      <trkpt lat="41.9817268755" lon="-6.0354914702">
        <ele>738.91</ele>
        <time>2020-08-11T05:38:07Z</time>
      </trkpt>
      <trkpt lat="41.9817809388" lon="-6.0358485393">
        <ele>738.91</ele>
        <time>2020-08-11T05:38:16Z</time>
      </trkpt>
      <trkpt lat="41.9818376005" lon="-6.0362246353">
        <ele>739.39</ele>
        <time>2020-08-11T05:38:26Z</time>
      </trkpt>
      <trkpt lat="41.9818777498" lon="-6.0365787707">
        <ele>739.87</ele>
        <time>2020-08-11T05:38:35Z</time>
      </trkpt>
      <trkpt lat="41.9818800967" lon="-6.0370057449">
        <ele>740.35</ele>
        <time>2020-08-11T05:38:45Z</time>
      </trkpt>
      <trkpt lat="41.9817690365" lon="-6.0372723732">
        <ele>739.87</ele>
        <time>2020-08-11T05:38:52Z</time>
      </trkpt>
      <trkpt lat="41.9815853890" lon="-6.0376305319">
        <ele>740.35</ele>
        <time>2020-08-11T05:39:02Z</time>
      </trkpt>
      <trkpt lat="41.9815477543" lon="-6.0379771236">
        <ele>737.95</ele>
        <time>2020-08-11T05:39:10Z</time>
      </trkpt>
      <trkpt lat="41.9815340079" lon="-6.0383803770">
        <ele>736.51</ele>
        <time>2020-08-11T05:39:19Z</time>
      </trkpt>
      <trkpt lat="41.9815169089" lon="-6.0386233684">
        <ele>736.51</ele>
        <time>2020-08-11T05:39:25Z</time>
      </trkpt>
      <trkpt lat="41.9815073535" lon="-6.0389496759">
        <ele>736.51</ele>
        <time>2020-08-11T05:39:33Z</time>
      </trkpt>
      <trkpt lat="41.9814920984" lon="-6.0392741393">
        <ele>735.07</ele>
        <time>2020-08-11T05:39:41Z</time>
      </trkpt>
      <trkpt lat="41.9814818725" lon="-6.0395944957">
        <ele>735.55</ele>
        <time>2020-08-11T05:39:49Z</time>
      </trkpt>
      <trkpt lat="41.9814685453" lon="-6.0399228986">
        <ele>734.58</ele>
        <time>2020-08-11T05:39:58Z</time>
      </trkpt>
      <trkpt lat="41.9814771786" lon="-6.0403516330">
        <ele>734.10</ele>
        <time>2020-08-11T05:40:09Z</time>
      </trkpt>
      <trkpt lat="41.9815089460" lon="-6.0407660343">
        <ele>735.07</ele>
        <time>2020-08-11T05:40:19Z</time>
      </trkpt>
      <trkpt lat="41.9815578125" lon="-6.0410626698">
        <ele>736.03</ele>
        <time>2020-08-11T05:40:26Z</time>
      </trkpt>
      <trkpt lat="41.9816891570" lon="-6.0412823595">
        <ele>736.03</ele>
        <time>2020-08-11T05:40:32Z</time>
      </trkpt>
      <trkpt lat="41.9817760773" lon="-6.0414390173">
        <ele>736.03</ele>
        <time>2020-08-11T05:40:38Z</time>
      </trkpt>
      <trkpt lat="41.9818374328" lon="-6.0416836850">
        <ele>737.47</ele>
        <time>2020-08-11T05:40:45Z</time>
      </trkpt>
      <trkpt lat="41.9819196593" lon="-6.0420260858">
        <ele>738.43</ele>
        <time>2020-08-11T05:40:55Z</time>
      </trkpt>
      <trkpt lat="41.9820328988" lon="-6.0423513874">
        <ele>739.39</ele>
        <time>2020-08-11T05:41:06Z</time>
      </trkpt>
      <trkpt lat="41.9820911530" lon="-6.0426166747">
        <ele>739.87</ele>
        <time>2020-08-11T05:41:14Z</time>
      </trkpt>
      <trkpt lat="41.9821143709" lon="-6.0429622605">
        <ele>739.39</ele>
        <time>2020-08-11T05:41:23Z</time>
      </trkpt>
      <trkpt lat="41.9821388461" lon="-6.0433081817">
        <ele>740.35</ele>
        <time>2020-08-11T05:41:32Z</time>
      </trkpt>
      <trkpt lat="41.9821362477" lon="-6.0436948389">
        <ele>740.83</ele>
        <time>2020-08-11T05:41:42Z</time>
      </trkpt>
      <trkpt lat="41.9820623193" lon="-6.0440402571">
        <ele>741.31</ele>
        <time>2020-08-11T05:41:51Z</time>
      </trkpt>
      <trkpt lat="41.9819246884" lon="-6.0442666523">
        <ele>739.87</ele>
        <time>2020-08-11T05:41:59Z</time>
      </trkpt>
      <trkpt lat="41.9818515144" lon="-6.0444942210">
        <ele>739.39</ele>
        <time>2020-08-11T05:42:07Z</time>
      </trkpt>
      <trkpt lat="41.9818076771" lon="-6.0447042715">
        <ele>738.91</ele>
        <time>2020-08-11T05:42:15Z</time>
      </trkpt>
      <trkpt lat="41.9817151409" lon="-6.0449637752">
        <ele>736.51</ele>
        <time>2020-08-11T05:42:24Z</time>
      </trkpt>
      <trkpt lat="41.9815924298" lon="-6.0451940261">
        <ele>736.51</ele>
        <time>2020-08-11T05:42:32Z</time>
      </trkpt>
      <trkpt lat="41.9814522006" lon="-6.0454739816">
        <ele>736.99</ele>
        <time>2020-08-11T05:42:41Z</time>
      </trkpt>
      <trkpt lat="41.9813035056" lon="-6.0457528476">
        <ele>737.95</ele>
        <time>2020-08-11T05:42:50Z</time>
      </trkpt>
      <trkpt lat="41.9811891764" lon="-6.0459473915">
        <ele>739.39</ele>
        <time>2020-08-11T05:42:58Z</time>
      </trkpt>
      <trkpt lat="41.9811128173" lon="-6.0461291112">
        <ele>740.35</ele>
        <time>2020-08-11T05:43:05Z</time>
      </trkpt>
      <trkpt lat="41.9809637871" lon="-6.0463512316">
        <ele>740.35</ele>
        <time>2020-08-11T05:43:15Z</time>
      </trkpt>
      <trkpt lat="41.9809250627" lon="-6.0464807320">
        <ele>739.87</ele>
        <time>2020-08-11T05:43:22Z</time>
      </trkpt>
      <trkpt lat="41.9809337799" lon="-6.0465601087">
        <ele>739.87</ele>
        <time>2020-08-11T05:43:30Z</time>
      </trkpt>
      <trkpt lat="41.9809273258" lon="-6.0465804767">
        <ele>739.39</ele>
        <time>2020-08-11T05:43:38Z</time>
      </trkpt>
      <trkpt lat="41.9809266552" lon="-6.0466320254">
        <ele>738.91</ele>
        <time>2020-08-11T05:43:46Z</time>
      </trkpt>
      <trkpt lat="41.9809246436" lon="-6.0466317739">
        <ele>738.91</ele>
        <time>2020-08-11T05:43:59Z</time>
      </trkpt>
      <trkpt lat="41.9809239730" lon="-6.0466539860">
        <ele>738.43</ele>
        <time>2020-08-11T05:44:12Z</time>
      </trkpt>
      <trkpt lat="41.9809289183" lon="-6.0466967337">
        <ele>738.43</ele>
        <time>2020-08-11T05:44:20Z</time>
      </trkpt>
      <trkpt lat="41.9809205364" lon="-6.0467694048">
        <ele>738.43</ele>
        <time>2020-08-11T05:44:30Z</time>
      </trkpt>
      <trkpt lat="41.9809083827" lon="-6.0467851628">
        <ele>738.91</ele>
        <time>2020-08-11T05:44:39Z</time>
      </trkpt>
      <trkpt lat="41.9809331093" lon="-6.0468594264">
        <ele>738.43</ele>
        <time>2020-08-11T05:44:47Z</time>
      </trkpt>
      <trkpt lat="41.9809495378" lon="-6.0468850750">
        <ele>737.95</ele>
        <time>2020-08-11T05:44:56Z</time>
      </trkpt>
      <trkpt lat="41.9809858315" lon="-6.0469317622">
        <ele>738.91</ele>
        <time>2020-08-11T05:45:07Z</time>
      </trkpt>
      <trkpt lat="41.9810255617" lon="-6.0469746776">
        <ele>738.91</ele>
        <time>2020-08-11T05:45:18Z</time>
      </trkpt>
      <trkpt lat="41.9810500368" lon="-6.0470670462">
        <ele>738.91</ele>
        <time>2020-08-11T05:45:28Z</time>
      </trkpt>
      <trkpt lat="41.9810494501" lon="-6.0470736679">
        <ele>738.43</ele>
        <time>2020-08-11T05:45:38Z</time>
      </trkpt>
      <trkpt lat="41.9810413197" lon="-6.0470717400">
        <ele>738.91</ele>
        <time>2020-08-11T05:45:51Z</time>
      </trkpt>
      <trkpt lat="41.9810387213" lon="-6.0470796190">
        <ele>738.91</ele>
        <time>2020-08-11T05:46:03Z</time>
      </trkpt>
      <trkpt lat="41.9810349494" lon="-6.0470946226">
        <ele>738.91</ele>
        <time>2020-08-11T05:46:04Z</time>
      </trkpt>
      <trkpt lat="41.9810333569" lon="-6.0471110512">
        <ele>738.91</ele>
        <time>2020-08-11T05:46:05Z</time>
      </trkpt>
      <trkpt lat="41.9810311776" lon="-6.0471342690">
        <ele>738.91</ele>
        <time>2020-08-11T05:46:06Z</time>
      </trkpt>
      <trkpt lat="41.9810239691" lon="-6.0471604206">
        <ele>738.91</ele>
        <time>2020-08-11T05:46:07Z</time>
      </trkpt>
      <trkpt lat="41.9810172636" lon="-6.0471852310">
        <ele>738.91</ele>
        <time>2020-08-11T05:46:08Z</time>
      </trkpt>
      <trkpt lat="41.9810113125" lon="-6.0472143162">
        <ele>738.91</ele>
        <time>2020-08-11T05:46:09Z</time>
      </trkpt>
      <trkpt lat="41.9809434190" lon="-6.0474985465">
        <ele>739.39</ele>
        <time>2020-08-11T05:46:18Z</time>
      </trkpt>
      <trkpt lat="41.9808671437" lon="-6.0477857944">
        <ele>739.39</ele>
        <time>2020-08-11T05:46:27Z</time>
      </trkpt>
      <trkpt lat="41.9807666447" lon="-6.0481400974">
        <ele>739.87</ele>
        <time>2020-08-11T05:46:38Z</time>
      </trkpt>
      <trkpt lat="41.9806868490" lon="-6.0485560074">
        <ele>739.39</ele>
        <time>2020-08-11T05:46:50Z</time>
      </trkpt>
      <trkpt lat="41.9806760363" lon="-6.0487960652">
        <ele>738.91</ele>
        <time>2020-08-11T05:46:58Z</time>
      </trkpt>
      <trkpt lat="41.9806953985" lon="-6.0491436627">
        <ele>738.91</ele>
        <time>2020-08-11T05:47:09Z</time>
      </trkpt>
      <trkpt lat="41.9807240646" lon="-6.0495363548">
        <ele>738.91</ele>
        <time>2020-08-11T05:47:20Z</time>
      </trkpt>
      <trkpt lat="41.9807104860" lon="-6.0499151330">
        <ele>737.95</ele>
        <time>2020-08-11T05:47:30Z</time>
      </trkpt>
      <trkpt lat="41.9806956500" lon="-6.0502171330">
        <ele>737.95</ele>
        <time>2020-08-11T05:47:38Z</time>
      </trkpt>
      <trkpt lat="41.9807293452" lon="-6.0506254993">
        <ele>737.95</ele>
        <time>2020-08-11T05:47:49Z</time>
      </trkpt>
      <trkpt lat="41.9807761163" lon="-6.0510053672">
        <ele>739.87</ele>
        <time>2020-08-11T05:48:00Z</time>
      </trkpt>
      <trkpt lat="41.9808366336" lon="-6.0512857419">
        <ele>741.31</ele>
        <time>2020-08-11T05:48:09Z</time>
      </trkpt>
      <trkpt lat="41.9809134118" lon="-6.0515719838">
        <ele>741.79</ele>
        <time>2020-08-11T05:48:18Z</time>
      </trkpt>
      <trkpt lat="41.9809820596" lon="-6.0518478323">
        <ele>740.83</ele>
        <time>2020-08-11T05:48:27Z</time>
      </trkpt>
      <trkpt lat="41.9809647929" lon="-6.0520424601">
        <ele>740.83</ele>
        <time>2020-08-11T05:48:34Z</time>
      </trkpt>
      <trkpt lat="41.9808313530" lon="-6.0521737207">
        <ele>741.79</ele>
        <time>2020-08-11T05:48:42Z</time>
      </trkpt>
      <trkpt lat="41.9807255734" lon="-6.0522456374">
        <ele>741.31</ele>
        <time>2020-08-11T05:48:49Z</time>
      </trkpt>
      <trkpt lat="41.9806477055" lon="-6.0523267742">
        <ele>740.83</ele>
        <time>2020-08-11T05:48:54Z</time>
      </trkpt>
      <trkpt lat="41.9806229789" lon="-6.0524043906">
        <ele>741.31</ele>
        <time>2020-08-11T05:48:57Z</time>
      </trkpt>
      <trkpt lat="41.9806218892" lon="-6.0524270218">
        <ele>740.83</ele>
        <time>2020-08-11T05:48:58Z</time>
      </trkpt>
      <trkpt lat="41.9806196261" lon="-6.0524466354">
        <ele>740.83</ele>
        <time>2020-08-11T05:48:59Z</time>
      </trkpt>
      <trkpt lat="41.9806149323" lon="-6.0524672549">
        <ele>740.83</ele>
        <time>2020-08-11T05:49:00Z</time>
      </trkpt>
      <trkpt lat="41.9806052931" lon="-6.0524900537">
        <ele>741.31</ele>
        <time>2020-08-11T05:49:01Z</time>
      </trkpt>
      <trkpt lat="41.9805961568" lon="-6.0525169596">
        <ele>741.31</ele>
        <time>2020-08-11T05:49:02Z</time>
      </trkpt>
      <trkpt lat="41.9805866852" lon="-6.0525412671">
        <ele>741.79</ele>
        <time>2020-08-11T05:49:03Z</time>
      </trkpt>
      <trkpt lat="41.9805784710" lon="-6.0525685083">
        <ele>741.79</ele>
        <time>2020-08-11T05:49:04Z</time>
      </trkpt>
      <trkpt lat="41.9805503916" lon="-6.0526444484">
        <ele>742.28</ele>
        <time>2020-08-11T05:49:10Z</time>
      </trkpt>
      <trkpt lat="41.9805344660" lon="-6.0526564345">
        <ele>746.12</ele>
        <time>2020-08-11T05:49:24Z</time>
      </trkpt>
      <trkpt lat="41.9805499725" lon="-6.0526845977">
        <ele>747.56</ele>
        <time>2020-08-11T05:49:39Z</time>
      </trkpt>
      <trkpt lat="41.9805235695" lon="-6.0527279321">
        <ele>747.56</ele>
        <time>2020-08-11T05:49:47Z</time>
      </trkpt>
      <trkpt lat="41.9803809095" lon="-6.0529472027">
        <ele>749.49</ele>
        <time>2020-08-11T05:49:55Z</time>
      </trkpt>
      <trkpt lat="41.9802219048" lon="-6.0531981569">
        <ele>751.41</ele>
        <time>2020-08-11T05:50:04Z</time>
      </trkpt>
      <trkpt lat="41.9800971821" lon="-6.0534029268">
        <ele>753.81</ele>
        <time>2020-08-11T05:50:11Z</time>
      </trkpt>
      <trkpt lat="41.9799365010" lon="-6.0537104588">
        <ele>753.81</ele>
        <time>2020-08-11T05:50:20Z</time>
      </trkpt>
      <trkpt lat="41.9797675218" lon="-6.0540671088">
        <ele>749.00</ele>
        <time>2020-08-11T05:50:30Z</time>
      </trkpt>
      <trkpt lat="41.9796852954" lon="-6.0543884709">
        <ele>747.56</ele>
        <time>2020-08-11T05:50:38Z</time>
      </trkpt>
      <trkpt lat="41.9796312321" lon="-6.0546884593">
        <ele>747.08</ele>
        <time>2020-08-11T05:50:46Z</time>
      </trkpt>
      <trkpt lat="41.9795819465" lon="-6.0549892019">
        <ele>746.60</ele>
        <time>2020-08-11T05:50:54Z</time>
      </trkpt>
      <trkpt lat="41.9795397855" lon="-6.0553645436">
        <ele>745.16</ele>
        <time>2020-08-11T05:51:03Z</time>
      </trkpt>
      <trkpt lat="41.9795164000" lon="-6.0557120573">
        <ele>745.16</ele>
        <time>2020-08-11T05:51:12Z</time>
      </trkpt>
      <trkpt lat="41.9795081019" lon="-6.0560212657">
        <ele>744.20</ele>
        <time>2020-08-11T05:51:20Z</time>
      </trkpt>
      <trkpt lat="41.9794913381" lon="-6.0563967749">
        <ele>743.24</ele>
        <time>2020-08-11T05:51:29Z</time>
      </trkpt>
      <trkpt lat="41.9794006459" lon="-6.0568363219">
        <ele>743.24</ele>
        <time>2020-08-11T05:51:39Z</time>
      </trkpt>
      <trkpt lat="41.9793168269" lon="-6.0571192112">
        <ele>743.72</ele>
        <time>2020-08-11T05:51:46Z</time>
      </trkpt>
      <trkpt lat="41.9792065211" lon="-6.0575228836">
        <ele>744.20</ele>
        <time>2020-08-11T05:51:54Z</time>
      </trkpt>
      <trkpt lat="41.9790856540" lon="-6.0580620077">
        <ele>744.68</ele>
        <time>2020-08-11T05:52:03Z</time>
      </trkpt>
      <trkpt lat="41.9789677206" lon="-6.0585698672">
        <ele>745.64</ele>
        <time>2020-08-11T05:52:12Z</time>
      </trkpt>
      <trkpt lat="41.9788960554" lon="-6.0590426065">
        <ele>746.12</ele>
        <time>2020-08-11T05:52:22Z</time>
      </trkpt>
      <trkpt lat="41.9788504578" lon="-6.0594818182">
        <ele>746.12</ele>
        <time>2020-08-11T05:52:32Z</time>
      </trkpt>
      <trkpt lat="41.9788017590" lon="-6.0597964749">
        <ele>748.04</ele>
        <time>2020-08-11T05:52:39Z</time>
      </trkpt>
      <trkpt lat="41.9787414931" lon="-6.0602226108">
        <ele>747.08</ele>
        <time>2020-08-11T05:52:47Z</time>
      </trkpt>
      <trkpt lat="41.9787056185" lon="-6.0606781673">
        <ele>747.56</ele>
        <time>2020-08-11T05:52:57Z</time>
      </trkpt>
      <trkpt lat="41.9786379766" lon="-6.0611564387">
        <ele>748.52</ele>
        <time>2020-08-11T05:53:07Z</time>
      </trkpt>
      <trkpt lat="41.9785022736" lon="-6.0615358036">
        <ele>749.49</ele>
        <time>2020-08-11T05:53:15Z</time>
      </trkpt>
      <trkpt lat="41.9785169419" lon="-6.0618031863">
        <ele>748.04</ele>
        <time>2020-08-11T05:53:20Z</time>
      </trkpt>
      <trkpt lat="41.9785907026" lon="-6.0623782687">
        <ele>744.20</ele>
        <time>2020-08-11T05:53:31Z</time>
      </trkpt>
      <trkpt lat="41.9786021020" lon="-6.0627846234">
        <ele>743.24</ele>
        <time>2020-08-11T05:53:39Z</time>
      </trkpt>
      <trkpt lat="41.9785082247" lon="-6.0631724540">
        <ele>744.20</ele>
        <time>2020-08-11T05:53:47Z</time>
      </trkpt>
      <trkpt lat="41.9782944862" lon="-6.0636512283">
        <ele>746.12</ele>
        <time>2020-08-11T05:53:58Z</time>
      </trkpt>
      <trkpt lat="41.9781597890" lon="-6.0640039388">
        <ele>747.08</ele>
        <time>2020-08-11T05:54:06Z</time>
      </trkpt>
      <trkpt lat="41.9780951645" lon="-6.0644290689">
        <ele>747.08</ele>
        <time>2020-08-11T05:54:15Z</time>
      </trkpt>
      <trkpt lat="41.9780333061" lon="-6.0647061747">
        <ele>746.60</ele>
        <time>2020-08-11T05:54:22Z</time>
      </trkpt>
      <trkpt lat="41.9780245889" lon="-6.0650431272">
        <ele>745.64</ele>
        <time>2020-08-11T05:54:29Z</time>
      </trkpt>
      <trkpt lat="41.9780153688" lon="-6.0655418504">
        <ele>745.16</ele>
        <time>2020-08-11T05:54:38Z</time>
      </trkpt>
      <trkpt lat="41.9779999461" lon="-6.0659657232">
        <ele>744.20</ele>
        <time>2020-08-11T05:54:46Z</time>
      </trkpt>
      <trkpt lat="41.9779941626" lon="-6.0662947129">
        <ele>743.72</ele>
        <time>2020-08-11T05:54:52Z</time>
      </trkpt>
      <trkpt lat="41.9779934082" lon="-6.0663507879">
        <ele>743.72</ele>
        <time>2020-08-11T05:54:53Z</time>
      </trkpt>
      <trkpt lat="41.9779836014" lon="-6.0667859763">
        <ele>743.24</ele>
        <time>2020-08-11T05:55:01Z</time>
      </trkpt>
      <trkpt lat="41.9779738784" lon="-6.0673429538">
        <ele>743.24</ele>
        <time>2020-08-11T05:55:11Z</time>
      </trkpt>
      <trkpt lat="41.9779612217" lon="-6.0679086484">
        <ele>742.76</ele>
        <time>2020-08-11T05:55:21Z</time>
      </trkpt>
      <trkpt lat="41.9779478107" lon="-6.0684190225">
        <ele>743.24</ele>
        <time>2020-08-11T05:55:30Z</time>
      </trkpt>
      <trkpt lat="41.9779288676" lon="-6.0691689514">
        <ele>743.24</ele>
        <time>2020-08-11T05:55:43Z</time>
      </trkpt>
      <trkpt lat="41.9779095054" lon="-6.0697914753">
        <ele>744.20</ele>
        <time>2020-08-11T05:55:54Z</time>
      </trkpt>
      <trkpt lat="41.9778150413" lon="-6.0703976545">
        <ele>744.20</ele>
        <time>2020-08-11T05:56:05Z</time>
      </trkpt>
      <trkpt lat="41.9776195753" lon="-6.0709573980">
        <ele>744.68</ele>
        <time>2020-08-11T05:56:16Z</time>
      </trkpt>
      <trkpt lat="41.9773728121" lon="-6.0715567041">
        <ele>745.16</ele>
        <time>2020-08-11T05:56:28Z</time>
      </trkpt>
      <trkpt lat="41.9771676231" lon="-6.0720601212">
        <ele>745.16</ele>
        <time>2020-08-11T05:56:39Z</time>
      </trkpt>
      <trkpt lat="41.9770008232" lon="-6.0725342017">
        <ele>745.64</ele>
        <time>2020-08-11T05:56:50Z</time>
      </trkpt>
      <trkpt lat="41.9770631008" lon="-6.0727318469">
        <ele>746.60</ele>
        <time>2020-08-11T05:56:57Z</time>
      </trkpt>
      <trkpt lat="41.9771573972" lon="-6.0730787739">
        <ele>746.60</ele>
        <time>2020-08-11T05:57:07Z</time>
      </trkpt>
      <trkpt lat="41.9772628415" lon="-6.0732671153">
        <ele>747.08</ele>
        <time>2020-08-11T05:57:14Z</time>
      </trkpt>
      <trkpt lat="41.9774882309" lon="-6.0732600745">
        <ele>747.08</ele>
        <time>2020-08-11T05:57:21Z</time>
      </trkpt>
      <trkpt lat="41.9777284563" lon="-6.0733312368">
        <ele>746.60</ele>
        <time>2020-08-11T05:57:28Z</time>
      </trkpt>
      <trkpt lat="41.9780447055" lon="-6.0736208316">
        <ele>746.12</ele>
        <time>2020-08-11T05:57:38Z</time>
      </trkpt>
      <trkpt lat="41.9783324562" lon="-6.0739125218">
        <ele>746.12</ele>
        <time>2020-08-11T05:57:47Z</time>
      </trkpt>
      <trkpt lat="41.9787430856" lon="-6.0743125062">
        <ele>746.60</ele>
        <time>2020-08-11T05:57:59Z</time>
      </trkpt>
      <trkpt lat="41.9790227897" lon="-6.0745684057">
        <ele>746.60</ele>
        <time>2020-08-11T05:58:08Z</time>
      </trkpt>
      <trkpt lat="41.9792579021" lon="-6.0747694038">
        <ele>746.12</ele>
        <time>2020-08-11T05:58:16Z</time>
      </trkpt>
      <trkpt lat="41.9796037395" lon="-6.0750846472">
        <ele>746.12</ele>
        <time>2020-08-11T05:58:26Z</time>
      </trkpt>
      <trkpt lat="41.9799137022" lon="-6.0753624234">
        <ele>745.64</ele>
        <time>2020-08-11T05:58:35Z</time>
      </trkpt>
      <trkpt lat="41.9800675940" lon="-6.0755530279">
        <ele>745.64</ele>
        <time>2020-08-11T05:58:40Z</time>
      </trkpt>
      <trkpt lat="41.9800900575" lon="-6.0755994637">
        <ele>745.64</ele>
        <time>2020-08-11T05:58:41Z</time>
      </trkpt>
      <trkpt lat="41.9801098388" lon="-6.0756500065">
        <ele>745.64</ele>
        <time>2020-08-11T05:58:42Z</time>
      </trkpt>
      <trkpt lat="41.9801256806" lon="-6.0757008847">
        <ele>745.64</ele>
        <time>2020-08-11T05:58:43Z</time>
      </trkpt>
      <trkpt lat="41.9801369123" lon="-6.0757543612">
        <ele>745.64</ele>
        <time>2020-08-11T05:58:44Z</time>
      </trkpt>
      <trkpt lat="41.9801435340" lon="-6.0758045688">
        <ele>745.64</ele>
        <time>2020-08-11T05:58:45Z</time>
      </trkpt>
      <trkpt lat="41.9801475573" lon="-6.0758541897">
        <ele>745.64</ele>
        <time>2020-08-11T05:58:46Z</time>
      </trkpt>
      <trkpt lat="41.9801474735" lon="-6.0758986976">
        <ele>745.64</ele>
        <time>2020-08-11T05:58:47Z</time>
      </trkpt>
      <trkpt lat="41.9801466353" lon="-6.0759384278">
        <ele>746.12</ele>
        <time>2020-08-11T05:58:48Z</time>
      </trkpt>
      <trkpt lat="41.9801450428" lon="-6.0759712011">
        <ele>746.12</ele>
        <time>2020-08-11T05:58:49Z</time>
      </trkpt>
      <trkpt lat="41.9801421091" lon="-6.0760038905">
        <ele>746.60</ele>
        <time>2020-08-11T05:58:50Z</time>
      </trkpt>
      <trkpt lat="41.9801013730" lon="-6.0762590356">
        <ele>748.52</ele>
        <time>2020-08-11T05:58:59Z</time>
      </trkpt>
      <trkpt lat="41.9800413586" lon="-6.0764412582">
        <ele>749.97</ele>
        <time>2020-08-11T05:59:07Z</time>
      </trkpt>
      <trkpt lat="41.9800438732" lon="-6.0765483789">
        <ele>750.45</ele>
        <time>2020-08-11T05:59:15Z</time>
      </trkpt>
      <trkpt lat="41.9800370838" lon="-6.0765651427">
        <ele>750.45</ele>
        <time>2020-08-11T05:59:28Z</time>
      </trkpt>
      <trkpt lat="41.9800328929" lon="-6.0766059626">
        <ele>750.93</ele>
        <time>2020-08-11T05:59:37Z</time>
      </trkpt>
      <trkpt lat="41.9800354913" lon="-6.0765959043">
        <ele>751.89</ele>
        <time>2020-08-11T05:59:52Z</time>
      </trkpt>
      <trkpt lat="41.9800329767" lon="-6.0766039509">
        <ele>751.89</ele>
        <time>2020-08-11T06:00:05Z</time>
      </trkpt>
      <trkpt lat="41.9800318033" lon="-6.0766181163">
        <ele>752.37</ele>
        <time>2020-08-11T06:00:22Z</time>
      </trkpt>
      <trkpt lat="41.9800306298" lon="-6.0766119976">
        <ele>752.85</ele>
        <time>2020-08-11T06:00:38Z</time>
      </trkpt>
      <trkpt lat="41.9800414424" lon="-6.0766118299">
        <ele>753.81</ele>
        <time>2020-08-11T06:00:52Z</time>
      </trkpt>
      <trkpt lat="41.9800441246" lon="-6.0766102374">
        <ele>753.81</ele>
        <time>2020-08-11T06:01:02Z</time>
      </trkpt>
      <trkpt lat="41.9800432026" lon="-6.0766049568">
        <ele>753.33</ele>
        <time>2020-08-11T06:01:12Z</time>
      </trkpt>
      <trkpt lat="41.9800338987" lon="-6.0765983351">
        <ele>751.89</ele>
        <time>2020-08-11T06:01:25Z</time>
      </trkpt>
      <trkpt lat="41.9800286181" lon="-6.0766059626">
        <ele>751.89</ele>
        <time>2020-08-11T06:01:39Z</time>
      </trkpt>
      <trkpt lat="41.9800357427" lon="-6.0765969940">
        <ele>751.89</ele>
        <time>2020-08-11T06:01:48Z</time>
      </trkpt>
      <trkpt lat="41.9800411072" lon="-6.0765905399">
        <ele>751.89</ele>
        <time>2020-08-11T06:01:49Z</time>
      </trkpt>
      <trkpt lat="41.9800873753" lon="-6.0765666515">
        <ele>751.41</ele>
        <time>2020-08-11T06:01:52Z</time>
      </trkpt>
      <trkpt lat="41.9801095873" lon="-6.0765601136">
        <ele>751.41</ele>
        <time>2020-08-11T06:01:53Z</time>
      </trkpt>
      <trkpt lat="41.9801279437" lon="-6.0765595268">
        <ele>751.41</ele>
        <time>2020-08-11T06:01:54Z</time>
      </trkpt>
      <trkpt lat="41.9801503234" lon="-6.0765626281">
        <ele>751.89</ele>
        <time>2020-08-11T06:01:55Z</time>
      </trkpt>
      <trkpt lat="41.9803433586" lon="-6.0765878577">
        <ele>751.41</ele>
        <time>2020-08-11T06:02:02Z</time>
      </trkpt>
      <trkpt lat="41.9805886131" lon="-6.0766148474">
        <ele>751.89</ele>
        <time>2020-08-11T06:02:10Z</time>
      </trkpt>
      <trkpt lat="41.9808119070" lon="-6.0767357983">
        <ele>751.41</ele>
        <time>2020-08-11T06:02:18Z</time>
      </trkpt>
      <trkpt lat="41.9809879269" lon="-6.0769795440">
        <ele>750.93</ele>
        <time>2020-08-11T06:02:26Z</time>
      </trkpt>
      <trkpt lat="41.9811982289" lon="-6.0773085337">
        <ele>749.97</ele>
        <time>2020-08-11T06:02:36Z</time>
      </trkpt>
      <trkpt lat="41.9814527035" lon="-6.0776314046">
        <ele>749.49</ele>
        <time>2020-08-11T06:02:46Z</time>
      </trkpt>
      <trkpt lat="41.9816995505" lon="-6.0779040679">
        <ele>749.49</ele>
        <time>2020-08-11T06:02:55Z</time>
      </trkpt>
      <trkpt lat="41.9819641672" lon="-6.0782071576">
        <ele>749.00</ele>
        <time>2020-08-11T06:03:05Z</time>
      </trkpt>
      <trkpt lat="41.9820996188" lon="-6.0784715228">
        <ele>749.00</ele>
        <time>2020-08-11T06:03:12Z</time>
      </trkpt>
      <trkpt lat="41.9820807595" lon="-6.0786614567">
        <ele>749.49</ele>
        <time>2020-08-11T06:03:17Z</time>
      </trkpt>
      <trkpt lat="41.9820343237" lon="-6.0789970681">
        <ele>750.45</ele>
        <time>2020-08-11T06:03:25Z</time>
      </trkpt>
      <trkpt lat="41.9821305480" lon="-6.0792555660">
        <ele>749.97</ele>
        <time>2020-08-11T06:03:31Z</time>
      </trkpt>
      <trkpt lat="41.9823686779" lon="-6.0794973839">
        <ele>749.00</ele>
        <time>2020-08-11T06:03:39Z</time>
      </trkpt>
      <trkpt lat="41.9826453645" lon="-6.0798205063">
        <ele>749.00</ele>
        <time>2020-08-11T06:03:48Z</time>
      </trkpt>
      <trkpt lat="41.9826738629" lon="-6.0800646711">
        <ele>749.49</ele>
        <time>2020-08-11T06:03:53Z</time>
      </trkpt>
      <trkpt lat="41.9826445263" lon="-6.0801931657">
        <ele>749.97</ele>
        <time>2020-08-11T06:03:58Z</time>
      </trkpt>
      <trkpt lat="41.9826400839" lon="-6.0801860411">
        <ele>751.89</ele>
        <time>2020-08-11T06:04:12Z</time>
      </trkpt>
      <trkpt lat="41.9826322887" lon="-6.0801944230">
        <ele>751.41</ele>
        <time>2020-08-11T06:04:13Z</time>
      </trkpt>
      <trkpt lat="41.9826236553" lon="-6.0802076664">
        <ele>751.89</ele>
        <time>2020-08-11T06:04:14Z</time>
      </trkpt>
      <trkpt lat="41.9826177042" lon="-6.0802260228">
        <ele>751.89</ele>
        <time>2020-08-11T06:04:15Z</time>
      </trkpt>
      <trkpt lat="41.9826103281" lon="-6.0802510008">
        <ele>751.89</ele>
        <time>2020-08-11T06:04:16Z</time>
      </trkpt>
      <trkpt lat="41.9826037064" lon="-6.0802761465">
        <ele>751.89</ele>
        <time>2020-08-11T06:04:17Z</time>
      </trkpt>
      <trkpt lat="41.9825466257" lon="-6.0805427749">
        <ele>752.85</ele>
        <time>2020-08-11T06:04:26Z</time>
      </trkpt>
      <trkpt lat="41.9824552629" lon="-6.0808470380">
        <ele>752.37</ele>
        <time>2020-08-11T06:04:36Z</time>
      </trkpt>
      <trkpt lat="41.9823483936" lon="-6.0810080543">
        <ele>751.89</ele>
        <time>2020-08-11T06:04:45Z</time>
      </trkpt>
      <trkpt lat="41.9821540173" lon="-6.0811573360">
        <ele>752.37</ele>
        <time>2020-08-11T06:04:55Z</time>
      </trkpt>
      <trkpt lat="41.9819126185" lon="-6.0812896024">
        <ele>751.89</ele>
        <time>2020-08-11T06:05:05Z</time>
      </trkpt>
      <trkpt lat="41.9815990515" lon="-6.0813730862">
        <ele>751.41</ele>
        <time>2020-08-11T06:05:17Z</time>
      </trkpt>
      <trkpt lat="41.9815534540" lon="-6.0814196896">
        <ele>751.89</ele>
        <time>2020-08-11T06:05:20Z</time>
      </trkpt>
      <trkpt lat="41.9814693835" lon="-6.0815881658">
        <ele>751.89</ele>
        <time>2020-08-11T06:05:27Z</time>
      </trkpt>
      <trkpt lat="41.9814458303" lon="-6.0818021558">
        <ele>751.89</ele>
        <time>2020-08-11T06:05:33Z</time>
      </trkpt>
      <trkpt lat="41.9814300723" lon="-6.0820818599">
        <ele>752.37</ele>
        <time>2020-08-11T06:05:39Z</time>
      </trkpt>
      <trkpt lat="41.9813779369" lon="-6.0824282840">
        <ele>752.37</ele>
        <time>2020-08-11T06:05:46Z</time>
      </trkpt>
      <trkpt lat="41.9812472630" lon="-6.0828115046">
        <ele>752.37</ele>
        <time>2020-08-11T06:05:54Z</time>
      </trkpt>
      <trkpt lat="41.9810332730" lon="-6.0831608623">
        <ele>751.89</ele>
        <time>2020-08-11T06:06:03Z</time>
      </trkpt>
      <trkpt lat="41.9807484560" lon="-6.0835674684">
        <ele>752.37</ele>
        <time>2020-08-11T06:06:14Z</time>
      </trkpt>
      <trkpt lat="41.9805018604" lon="-6.0837328434">
        <ele>751.89</ele>
        <time>2020-08-11T06:06:22Z</time>
      </trkpt>
      <trkpt lat="41.9803176261" lon="-6.0837862361">
        <ele>752.85</ele>
        <time>2020-08-11T06:06:30Z</time>
      </trkpt>
      <trkpt lat="41.9801139459" lon="-6.0838468373">
        <ele>752.37</ele>
        <time>2020-08-11T06:06:37Z</time>
      </trkpt>
      <trkpt lat="41.9797935057" lon="-6.0840203427">
        <ele>751.89</ele>
        <time>2020-08-11T06:06:48Z</time>
      </trkpt>
      <trkpt lat="41.9796189945" lon="-6.0842218436">
        <ele>751.89</ele>
        <time>2020-08-11T06:06:56Z</time>
      </trkpt>
      <trkpt lat="41.9794584811" lon="-6.0846449621">
        <ele>751.89</ele>
        <time>2020-08-11T06:07:07Z</time>
      </trkpt>
      <trkpt lat="41.9793133065" lon="-6.0850493051">
        <ele>751.89</ele>
        <time>2020-08-11T06:07:17Z</time>
      </trkpt>
      <trkpt lat="41.9791449141" lon="-6.0854668915">
        <ele>751.89</ele>
        <time>2020-08-11T06:07:28Z</time>
      </trkpt>
      <trkpt lat="41.9790119771" lon="-6.0858197697">
        <ele>751.89</ele>
        <time>2020-08-11T06:07:37Z</time>
      </trkpt>
      <trkpt lat="41.9789842330" lon="-6.0860900860">
        <ele>751.41</ele>
        <time>2020-08-11T06:07:44Z</time>
      </trkpt>
      <trkpt lat="41.9790195208" lon="-6.0864479933">
        <ele>750.45</ele>
        <time>2020-08-11T06:07:54Z</time>
      </trkpt>
      <trkpt lat="41.9790556468" lon="-6.0867541004">
        <ele>750.45</ele>
        <time>2020-08-11T06:08:02Z</time>
      </trkpt>
      <trkpt lat="41.9790947065" lon="-6.0871124268">
        <ele>750.45</ele>
        <time>2020-08-11T06:08:11Z</time>
      </trkpt>
      <trkpt lat="41.9791756757" lon="-6.0875508841">
        <ele>750.45</ele>
        <time>2020-08-11T06:08:22Z</time>
      </trkpt>
      <trkpt lat="41.9793059304" lon="-6.0879210290">
        <ele>750.45</ele>
        <time>2020-08-11T06:08:32Z</time>
      </trkpt>
      <trkpt lat="41.9794739876" lon="-6.0883930977">
        <ele>750.45</ele>
        <time>2020-08-11T06:08:44Z</time>
      </trkpt>
      <trkpt lat="41.9796502590" lon="-6.0887976922">
        <ele>751.41</ele>
        <time>2020-08-11T06:08:55Z</time>
      </trkpt>
      <trkpt lat="41.9797637500" lon="-6.0889934935">
        <ele>752.37</ele>
        <time>2020-08-11T06:09:04Z</time>
      </trkpt>
      <trkpt lat="41.9798562024" lon="-6.0891338903">
        <ele>751.89</ele>
        <time>2020-08-11T06:09:12Z</time>
      </trkpt>
      <trkpt lat="41.9799963478" lon="-6.0893727746">
        <ele>750.93</ele>
        <time>2020-08-11T06:09:21Z</time>
      </trkpt>
      <trkpt lat="41.9801754691" lon="-6.0896565020">
        <ele>750.93</ele>
        <time>2020-08-11T06:09:32Z</time>
      </trkpt>
      <trkpt lat="41.9802861102" lon="-6.0898411553">
        <ele>750.93</ele>
        <time>2020-08-11T06:09:39Z</time>
      </trkpt>
      <trkpt lat="41.9804692548" lon="-6.0901424009">
        <ele>750.45</ele>
        <time>2020-08-11T06:09:50Z</time>
      </trkpt>
      <trkpt lat="41.9806248229" lon="-6.0903991386">
        <ele>750.45</ele>
        <time>2020-08-11T06:09:59Z</time>
      </trkpt>
      <trkpt lat="41.9807932992" lon="-6.0906906612">
        <ele>750.45</ele>
        <time>2020-08-11T06:10:09Z</time>
      </trkpt>
      <trkpt lat="41.9809875078" lon="-6.0910170525">
        <ele>749.97</ele>
        <time>2020-08-11T06:10:20Z</time>
      </trkpt>
      <trkpt lat="41.9811626896" lon="-6.0913261771">
        <ele>749.97</ele>
        <time>2020-08-11T06:10:30Z</time>
      </trkpt>
      <trkpt lat="41.9813098758" lon="-6.0915723536">
        <ele>749.97</ele>
        <time>2020-08-11T06:10:39Z</time>
      </trkpt>
      <trkpt lat="41.9814822916" lon="-6.0918582603">
        <ele>749.97</ele>
        <time>2020-08-11T06:10:50Z</time>
      </trkpt>
      <trkpt lat="41.9815925974" lon="-6.0920392256">
        <ele>749.97</ele>
        <time>2020-08-11T06:10:59Z</time>
      </trkpt>
      <trkpt lat="41.9817005564" lon="-6.0922511201">
        <ele>749.97</ele>
        <time>2020-08-11T06:11:08Z</time>
      </trkpt>
      <trkpt lat="41.9818085153" lon="-6.0925455764">
        <ele>750.45</ele>
        <time>2020-08-11T06:11:17Z</time>
      </trkpt>
      <trkpt lat="41.9818958547" lon="-6.0928220116">
        <ele>750.45</ele>
        <time>2020-08-11T06:11:26Z</time>
      </trkpt>
      <trkpt lat="41.9819931686" lon="-6.0930971056">
        <ele>750.93</ele>
        <time>2020-08-11T06:11:35Z</time>
      </trkpt>
      <trkpt lat="41.9820996188" lon="-6.0934002791">
        <ele>750.93</ele>
        <time>2020-08-11T06:11:44Z</time>
      </trkpt>
      <trkpt lat="41.9822038058" lon="-6.0937040392">
        <ele>751.89</ele>
        <time>2020-08-11T06:11:53Z</time>
      </trkpt>
      <trkpt lat="41.9822955877" lon="-6.0939564183">
        <ele>751.89</ele>
        <time>2020-08-11T06:12:01Z</time>
      </trkpt>
      <trkpt lat="41.9823986012" lon="-6.0942649562">
        <ele>751.41</ele>
        <time>2020-08-11T06:12:12Z</time>
      </trkpt>
      <trkpt lat="41.9825032074" lon="-6.0945701413">
        <ele>751.41</ele>
        <time>2020-08-11T06:12:22Z</time>
      </trkpt>
      <trkpt lat="41.9826104958" lon="-6.0948919225">
        <ele>751.41</ele>
        <time>2020-08-11T06:12:33Z</time>
      </trkpt>
      <trkpt lat="41.9826362282" lon="-6.0949552897">
        <ele>751.41</ele>
        <time>2020-08-11T06:12:38Z</time>
      </trkpt>
      <trkpt lat="41.9826373179" lon="-6.0949562956">
        <ele>752.37</ele>
        <time>2020-08-11T06:12:48Z</time>
      </trkpt>
      <trkpt lat="41.9826381560" lon="-6.0949649289">
        <ele>751.89</ele>
        <time>2020-08-11T06:13:02Z</time>
      </trkpt>
      <trkpt lat="41.9826385751" lon="-6.0949788429">
        <ele>751.89</ele>
        <time>2020-08-11T06:13:08Z</time>
      </trkpt>
      <trkpt lat="41.9826394971" lon="-6.0949852969">
        <ele>751.41</ele>
        <time>2020-08-11T06:13:18Z</time>
      </trkpt>
      <trkpt lat="41.9826462027" lon="-6.0949975345">
        <ele>752.37</ele>
        <time>2020-08-11T06:13:27Z</time>
      </trkpt>
      <trkpt lat="41.9826456159" lon="-6.0950058326">
        <ele>752.85</ele>
        <time>2020-08-11T06:13:36Z</time>
      </trkpt>
      <trkpt lat="41.9826667383" lon="-6.0950522684">
        <ele>753.33</ele>
        <time>2020-08-11T06:13:46Z</time>
      </trkpt>
      <trkpt lat="41.9827362243" lon="-6.0952054057">
        <ele>752.85</ele>
        <time>2020-08-11T06:13:53Z</time>
      </trkpt>
      <trkpt lat="41.9828812312" lon="-6.0954485647">
        <ele>751.89</ele>
        <time>2020-08-11T06:14:02Z</time>
      </trkpt>
      <trkpt lat="41.9830836542" lon="-6.0957520735">
        <ele>751.41</ele>
        <time>2020-08-11T06:14:13Z</time>
      </trkpt>
      <trkpt lat="41.9832812157" lon="-6.0960557498">
        <ele>750.45</ele>
        <time>2020-08-11T06:14:23Z</time>
      </trkpt>
      <trkpt lat="41.9834721554" lon="-6.0963488650">
        <ele>749.97</ele>
        <time>2020-08-11T06:14:33Z</time>
      </trkpt>
      <trkpt lat="41.9836323336" lon="-6.0966010764">
        <ele>749.49</ele>
        <time>2020-08-11T06:14:42Z</time>
      </trkpt>
      <trkpt lat="41.9838132150" lon="-6.0968864802">
        <ele>749.49</ele>
        <time>2020-08-11T06:14:53Z</time>
      </trkpt>
      <trkpt lat="41.9839227665" lon="-6.0970603209">
        <ele>749.49</ele>
        <time>2020-08-11T06:15:00Z</time>
      </trkpt>
      <trkpt lat="41.9841046538" lon="-6.0973416176">
        <ele>749.49</ele>
        <time>2020-08-11T06:15:11Z</time>
      </trkpt>
      <trkpt lat="41.9842422847" lon="-6.0976214893">
        <ele>749.49</ele>
        <time>2020-08-11T06:15:21Z</time>
      </trkpt>
      <trkpt lat="41.9842951745" lon="-6.0979177896">
        <ele>749.49</ele>
        <time>2020-08-11T06:15:30Z</time>
      </trkpt>
      <trkpt lat="41.9842894748" lon="-6.0982336197">
        <ele>749.49</ele>
        <time>2020-08-11T06:15:39Z</time>
      </trkpt>
      <trkpt lat="41.9842871279" lon="-6.0985872522">
        <ele>749.97</ele>
        <time>2020-08-11T06:15:49Z</time>
      </trkpt>
      <trkpt lat="41.9843894709" lon="-6.0990230273">
        <ele>749.97</ele>
        <time>2020-08-11T06:16:01Z</time>
      </trkpt>
      <trkpt lat="41.9844711106" lon="-6.0992617439">
        <ele>750.45</ele>
        <time>2020-08-11T06:16:09Z</time>
      </trkpt>
      <trkpt lat="41.9845302869" lon="-6.0994299687">
        <ele>750.45</ele>
        <time>2020-08-11T06:16:16Z</time>
      </trkpt>
      <trkpt lat="41.9845340587" lon="-6.0994375125">
        <ele>750.45</ele>
        <time>2020-08-11T06:16:21Z</time>
      </trkpt>
      <trkpt lat="41.9845360704" lon="-6.0994298849">
        <ele>751.89</ele>
        <time>2020-08-11T06:16:36Z</time>
      </trkpt>
      <trkpt lat="41.9845312089" lon="-6.0994422901">
        <ele>751.41</ele>
        <time>2020-08-11T06:16:50Z</time>
      </trkpt>
      <trkpt lat="41.9845386688" lon="-6.0994694475">
        <ele>750.93</ele>
        <time>2020-08-11T06:17:02Z</time>
      </trkpt>
      <trkpt lat="41.9845175464" lon="-6.0996173043">
        <ele>751.41</ele>
        <time>2020-08-11T06:17:09Z</time>
      </trkpt>
      <trkpt lat="41.9844416901" lon="-6.0998043884">
        <ele>751.89</ele>
        <time>2020-08-11T06:17:16Z</time>
      </trkpt>
      <trkpt lat="41.9843359943" lon="-6.1000244133">
        <ele>752.37</ele>
        <time>2020-08-11T06:17:23Z</time>
      </trkpt>
      <trkpt lat="41.9842157979" lon="-6.1002922989">
        <ele>753.33</ele>
        <time>2020-08-11T06:17:31Z</time>
      </trkpt>
      <trkpt lat="41.9840527698" lon="-6.1004988290">
        <ele>753.81</ele>
        <time>2020-08-11T06:17:39Z</time>
      </trkpt>
      <trkpt lat="41.9839958567" lon="-6.1006269883">
        <ele>753.81</ele>
        <time>2020-08-11T06:17:43Z</time>
      </trkpt>
      <trkpt lat="41.9840676058" lon="-6.1006797105">
        <ele>751.89</ele>
        <time>2020-08-11T06:17:48Z</time>
      </trkpt>
      <trkpt lat="41.9840862975" lon="-6.1006871704">
        <ele>751.41</ele>
        <time>2020-08-11T06:17:49Z</time>
      </trkpt>
      <trkpt lat="41.9842550252" lon="-6.1007437482">
        <ele>753.33</ele>
        <time>2020-08-11T06:17:57Z</time>
      </trkpt>
      <trkpt lat="41.9844271056" lon="-6.1007317621">
        <ele>758.14</ele>
        <time>2020-08-11T06:18:03Z</time>
      </trkpt>
      <trkpt lat="41.9846369885" lon="-6.1006761901">
        <ele>757.66</ele>
        <time>2020-08-11T06:18:11Z</time>
      </trkpt>
      <trkpt lat="41.9846902974" lon="-6.1006598454">
        <ele>757.66</ele>
        <time>2020-08-11T06:18:13Z</time>
      </trkpt>
      <trkpt lat="41.9847020321" lon="-6.1006820574">
        <ele>757.66</ele>
        <time>2020-08-11T06:18:17Z</time>
      </trkpt>
      <trkpt lat="41.9845273532" lon="-6.1006932054">
        <ele>759.10</ele>
        <time>2020-08-11T06:18:23Z</time>
      </trkpt>
      <trkpt lat="41.9842302147" lon="-6.1007176805">
        <ele>760.06</ele>
        <time>2020-08-11T06:18:31Z</time>
      </trkpt>
      <trkpt lat="41.9840865489" lon="-6.1006559059">
        <ele>758.62</ele>
        <time>2020-08-11T06:18:36Z</time>
      </trkpt>
      <trkpt lat="41.9839689508" lon="-6.1007271521">
        <ele>756.69</ele>
        <time>2020-08-11T06:18:42Z</time>
      </trkpt>
      <trkpt lat="41.9839957729" lon="-6.1008646153">
        <ele>756.69</ele>
        <time>2020-08-11T06:18:47Z</time>
      </trkpt>
      <trkpt lat="41.9841518439" lon="-6.1011392064">
        <ele>755.73</ele>
        <time>2020-08-11T06:18:55Z</time>
      </trkpt>
      <trkpt lat="41.9843644090" lon="-6.1013402045">
        <ele>755.25</ele>
        <time>2020-08-11T06:19:03Z</time>
      </trkpt>
      <trkpt lat="41.9845178816" lon="-6.1015844531">
        <ele>754.77</ele>
        <time>2020-08-11T06:19:11Z</time>
      </trkpt>
      <trkpt lat="41.9845766388" lon="-6.1019182205">
        <ele>754.77</ele>
        <time>2020-08-11T06:19:19Z</time>
      </trkpt>
      <trkpt lat="41.9846925605" lon="-6.1022831686">
        <ele>756.21</ele>
        <time>2020-08-11T06:19:28Z</time>
      </trkpt>
      <trkpt lat="41.9847988430" lon="-6.1027202848">
        <ele>758.62</ele>
        <time>2020-08-11T06:19:39Z</time>
      </trkpt>
      <trkpt lat="41.9849088974" lon="-6.1030970514">
        <ele>759.10</ele>
        <time>2020-08-11T06:19:48Z</time>
      </trkpt>
      <trkpt lat="41.9850337040" lon="-6.1034588143">
        <ele>759.10</ele>
        <time>2020-08-11T06:19:56Z</time>
      </trkpt>
      <trkpt lat="41.9851185288" lon="-6.1038433760">
        <ele>758.62</ele>
        <time>2020-08-11T06:20:04Z</time>
      </trkpt>
      <trkpt lat="41.9852076285" lon="-6.1041842680">
        <ele>759.10</ele>
        <time>2020-08-11T06:20:11Z</time>
      </trkpt>
      <trkpt lat="41.9853040203" lon="-6.1046018545">
        <ele>760.54</ele>
        <time>2020-08-11T06:20:19Z</time>
      </trkpt>
      <trkpt lat="41.9853854086" lon="-6.1050517950">
        <ele>759.10</ele>
        <time>2020-08-11T06:20:27Z</time>
      </trkpt>
      <trkpt lat="41.9855108019" lon="-6.1055491772">
        <ele>758.14</ele>
        <time>2020-08-11T06:20:38Z</time>
      </trkpt>
      <trkpt lat="41.9856409729" lon="-6.1058056634">
        <ele>757.18</ele>
        <time>2020-08-11T06:20:45Z</time>
      </trkpt>
      <trkpt lat="41.9857962057" lon="-6.1060008779">
        <ele>757.18</ele>
        <time>2020-08-11T06:20:52Z</time>
      </trkpt>
      <trkpt lat="41.9857991394" lon="-6.1060044821">
        <ele>757.18</ele>
        <time>2020-08-11T06:20:58Z</time>
      </trkpt>
      <trkpt lat="41.9858012348" lon="-6.1060122773">
        <ele>756.69</ele>
        <time>2020-08-11T06:21:06Z</time>
      </trkpt>
      <trkpt lat="41.9858471677" lon="-6.1060033087">
        <ele>756.21</ele>
        <time>2020-08-11T06:21:17Z</time>
      </trkpt>
      <trkpt lat="41.9858553819" lon="-6.1060033925">
        <ele>756.21</ele>
        <time>2020-08-11T06:21:24Z</time>
      </trkpt>
      <trkpt lat="41.9858672004" lon="-6.1060082540">
        <ele>757.66</ele>
        <time>2020-08-11T06:21:37Z</time>
      </trkpt>
      <trkpt lat="41.9858672842" lon="-6.1060209945">
        <ele>757.18</ele>
        <time>2020-08-11T06:21:52Z</time>
      </trkpt>
      <trkpt lat="41.9858621713" lon="-6.1060154624">
        <ele>757.18</ele>
        <time>2020-08-11T06:22:06Z</time>
      </trkpt>
      <trkpt lat="41.9858583994" lon="-6.1060190666">
        <ele>756.21</ele>
        <time>2020-08-11T06:22:19Z</time>
      </trkpt>
      <trkpt lat="41.9858489279" lon="-6.1060064100">
        <ele>755.73</ele>
        <time>2020-08-11T06:22:25Z</time>
      </trkpt>
      <trkpt lat="41.9858390372" lon="-6.1060142890">
        <ele>755.25</ele>
        <time>2020-08-11T06:22:32Z</time>
      </trkpt>
      <trkpt lat="41.9858335890" lon="-6.1060272809">
        <ele>755.73</ele>
        <time>2020-08-11T06:22:33Z</time>
      </trkpt>
      <trkpt lat="41.9858300686" lon="-6.1060416140">
        <ele>755.73</ele>
        <time>2020-08-11T06:22:34Z</time>
      </trkpt>
      <trkpt lat="41.9858274702" lon="-6.1060574558">
        <ele>755.73</ele>
        <time>2020-08-11T06:22:35Z</time>
      </trkpt>
      <trkpt lat="41.9858234469" lon="-6.1060789973">
        <ele>756.21</ele>
        <time>2020-08-11T06:22:36Z</time>
      </trkpt>
      <trkpt lat="41.9858177472" lon="-6.1060997006">
        <ele>756.21</ele>
        <time>2020-08-11T06:22:37Z</time>
      </trkpt>
      <trkpt lat="41.9857700542" lon="-6.1063286941">
        <ele>756.69</ele>
        <time>2020-08-11T06:22:47Z</time>
      </trkpt>
      <trkpt lat="41.9857319165" lon="-6.1066163611">
        <ele>757.66</ele>
        <time>2020-08-11T06:22:56Z</time>
      </trkpt>
      <trkpt lat="41.9856871571" lon="-6.1069289222">
        <ele>757.18</ele>
        <time>2020-08-11T06:23:04Z</time>
      </trkpt>
      <trkpt lat="41.9856369495" lon="-6.1073152442">
        <ele>756.69</ele>
        <time>2020-08-11T06:23:13Z</time>
      </trkpt>
      <trkpt lat="41.9855777733" lon="-6.1078004725">
        <ele>756.69</ele>
        <time>2020-08-11T06:23:23Z</time>
      </trkpt>
      <trkpt lat="41.9854906015" lon="-6.1084567755">
        <ele>756.69</ele>
        <time>2020-08-11T06:23:36Z</time>
      </trkpt>
      <trkpt lat="41.9854198582" lon="-6.1089753639">
        <ele>756.21</ele>
        <time>2020-08-11T06:23:46Z</time>
      </trkpt>
      <trkpt lat="41.9853434153" lon="-6.1095323414">
        <ele>756.21</ele>
        <time>2020-08-11T06:23:57Z</time>
      </trkpt>
      <trkpt lat="41.9852966443" lon="-6.1100039911">
        <ele>756.21</ele>
        <time>2020-08-11T06:24:06Z</time>
      </trkpt>
      <trkpt lat="41.9853407331" lon="-6.1104177218">
        <ele>756.21</ele>
        <time>2020-08-11T06:24:14Z</time>
      </trkpt>
      <trkpt lat="41.9854523800" lon="-6.1109268386">
        <ele>756.69</ele>
        <time>2020-08-11T06:24:24Z</time>
      </trkpt>
      <trkpt lat="41.9856949523" lon="-6.1114271544">
        <ele>757.18</ele>
        <time>2020-08-11T06:24:35Z</time>
      </trkpt>
      <trkpt lat="41.9859470800" lon="-6.1119436473">
        <ele>757.66</ele>
        <time>2020-08-11T06:24:46Z</time>
      </trkpt>
      <trkpt lat="41.9861372653" lon="-6.1124731321">
        <ele>757.66</ele>
        <time>2020-08-11T06:24:56Z</time>
      </trkpt>
      <trkpt lat="41.9862303045" lon="-6.1129773036">
        <ele>756.69</ele>
        <time>2020-08-11T06:25:05Z</time>
      </trkpt>
      <trkpt lat="41.9863521773" lon="-6.1136078741">
        <ele>756.69</ele>
        <time>2020-08-11T06:25:16Z</time>
      </trkpt>
      <trkpt lat="41.9864636566" lon="-6.1141770054">
        <ele>756.69</ele>
        <time>2020-08-11T06:25:26Z</time>
      </trkpt>
      <trkpt lat="41.9865375850" lon="-6.1147317197">
        <ele>756.69</ele>
        <time>2020-08-11T06:25:36Z</time>
      </trkpt>
      <trkpt lat="41.9866122678" lon="-6.1152679939">
        <ele>757.66</ele>
        <time>2020-08-11T06:25:46Z</time>
      </trkpt>
      <trkpt lat="41.9866525009" lon="-6.1158854887">
        <ele>757.66</ele>
        <time>2020-08-11T06:25:57Z</time>
      </trkpt>
      <trkpt lat="41.9866607152" lon="-6.1165652610">
        <ele>758.14</ele>
        <time>2020-08-11T06:26:09Z</time>
      </trkpt>
      <trkpt lat="41.9866718631" lon="-6.1171804927">
        <ele>757.66</ele>
        <time>2020-08-11T06:26:20Z</time>
      </trkpt>
      <trkpt lat="41.9866843522" lon="-6.1179190222">
        <ele>758.14</ele>
        <time>2020-08-11T06:26:33Z</time>
      </trkpt>
      <trkpt lat="41.9866918959" lon="-6.1184302345">
        <ele>758.14</ele>
        <time>2020-08-11T06:26:42Z</time>
      </trkpt>
      <trkpt lat="41.9866977632" lon="-6.1190636549">
        <ele>758.14</ele>
        <time>2020-08-11T06:26:53Z</time>
      </trkpt>
      <trkpt lat="41.9867029600" lon="-6.1197560839">
        <ele>758.14</ele>
        <time>2020-08-11T06:27:05Z</time>
      </trkpt>
      <trkpt lat="41.9867510721" lon="-6.1204204336">
        <ele>759.10</ele>
        <time>2020-08-11T06:27:17Z</time>
      </trkpt>
      <trkpt lat="41.9868317060" lon="-6.1210291274">
        <ele>758.62</ele>
        <time>2020-08-11T06:27:28Z</time>
      </trkpt>
      <trkpt lat="41.9869214762" lon="-6.1216327082">
        <ele>759.10</ele>
        <time>2020-08-11T06:27:39Z</time>
      </trkpt>
      <trkpt lat="41.9869791437" lon="-6.1220546532">
        <ele>758.62</ele>
        <time>2020-08-11T06:27:47Z</time>
      </trkpt>
      <trkpt lat="41.9870377332" lon="-6.1224356946">
        <ele>759.58</ele>
        <time>2020-08-11T06:27:55Z</time>
      </trkpt>
      <trkpt lat="41.9870765414" lon="-6.1229376867">
        <ele>760.06</ele>
        <time>2020-08-11T06:28:06Z</time>
      </trkpt>
      <trkpt lat="41.9870088156" lon="-6.1231149640">
        <ele>760.54</ele>
        <time>2020-08-11T06:28:12Z</time>
      </trkpt>
      <trkpt lat="41.9870145153" lon="-6.1231097672">
        <ele>759.58</ele>
        <time>2020-08-11T06:28:20Z</time>
      </trkpt>
      <trkpt lat="41.9870069716" lon="-6.1231183168">
        <ele>760.06</ele>
        <time>2020-08-11T06:28:24Z</time>
      </trkpt>
      <trkpt lat="41.9869935606" lon="-6.1231268663">
        <ele>760.06</ele>
        <time>2020-08-11T06:28:25Z</time>
      </trkpt>
      <trkpt lat="41.9869793952" lon="-6.1231380142">
        <ele>760.54</ele>
        <time>2020-08-11T06:28:31Z</time>
      </trkpt>
      <trkpt lat="41.9869520701" lon="-6.1231738050">
        <ele>761.50</ele>
        <time>2020-08-11T06:28:38Z</time>
      </trkpt>
      <trkpt lat="41.9869278464" lon="-6.1233033892">
        <ele>761.50</ele>
        <time>2020-08-11T06:28:46Z</time>
      </trkpt>
      <trkpt lat="41.9869362283" lon="-6.1233103462">
        <ele>761.50</ele>
        <time>2020-08-11T06:28:56Z</time>
      </trkpt>
      <trkpt lat="41.9869345520" lon="-6.1232984439">
        <ele>761.02</ele>
        <time>2020-08-11T06:29:14Z</time>
      </trkpt>
      <trkpt lat="41.9869265053" lon="-6.1233059037">
        <ele>761.02</ele>
        <time>2020-08-11T06:29:30Z</time>
      </trkpt>
      <trkpt lat="41.9869095739" lon="-6.1233842745">
        <ele>761.02</ele>
        <time>2020-08-11T06:29:36Z</time>
      </trkpt>
      <trkpt lat="41.9868717715" lon="-6.1236120109">
        <ele>761.02</ele>
        <time>2020-08-11T06:29:42Z</time>
      </trkpt>
      <trkpt lat="41.9867404271" lon="-6.1239861790">
        <ele>760.54</ele>
        <time>2020-08-11T06:29:52Z</time>
      </trkpt>
      <trkpt lat="41.9865003694" lon="-6.1242164299">
        <ele>759.58</ele>
        <time>2020-08-11T06:30:00Z</time>
      </trkpt>
      <trkpt lat="41.9864048157" lon="-6.1243227124">
        <ele>759.58</ele>
        <time>2020-08-11T06:30:03Z</time>
      </trkpt>
      <trkpt lat="41.9862519298" lon="-6.1245272309">
        <ele>759.58</ele>
        <time>2020-08-11T06:30:08Z</time>
      </trkpt>
      <trkpt lat="41.9860830344" lon="-6.1248175800">
        <ele>760.06</ele>
        <time>2020-08-11T06:30:15Z</time>
      </trkpt>
      <trkpt lat="41.9858635962" lon="-6.1251992919">
        <ele>761.98</ele>
        <time>2020-08-11T06:30:25Z</time>
      </trkpt>
      <trkpt lat="41.9856337644" lon="-6.1255709454">
        <ele>763.42</ele>
        <time>2020-08-11T06:30:36Z</time>
      </trkpt>
      <trkpt lat="41.9855001569" lon="-6.1257591192">
        <ele>764.39</ele>
        <time>2020-08-11T06:30:42Z</time>
      </trkpt>
      <trkpt lat="41.9853253942" lon="-6.1261066329">
        <ele>765.35</ele>
        <time>2020-08-11T06:30:52Z</time>
      </trkpt>
      <trkpt lat="41.9851171877" lon="-6.1264981516">
        <ele>766.31</ele>
        <time>2020-08-11T06:31:02Z</time>
      </trkpt>
      <trkpt lat="41.9849411678" lon="-6.1269250419">
        <ele>766.79</ele>
        <time>2020-08-11T06:31:12Z</time>
      </trkpt>
      <trkpt lat="41.9848041236" lon="-6.1272339150">
        <ele>766.31</ele>
        <time>2020-08-11T06:31:20Z</time>
      </trkpt>
      <trkpt lat="41.9845974259" lon="-6.1275857035">
        <ele>765.83</ele>
        <time>2020-08-11T06:31:29Z</time>
      </trkpt>
      <trkpt lat="41.9844276924" lon="-6.1278705206">
        <ele>765.83</ele>
        <time>2020-08-11T06:31:35Z</time>
      </trkpt>
      <trkpt lat="41.9841554482" lon="-6.1282361392">
        <ele>764.87</ele>
        <time>2020-08-11T06:31:44Z</time>
      </trkpt>
      <trkpt lat="41.9839328248" lon="-6.1285642069">
        <ele>764.87</ele>
        <time>2020-08-11T06:31:52Z</time>
      </trkpt>
      <trkpt lat="41.9837078545" lon="-6.1289157439">
        <ele>766.31</ele>
        <time>2020-08-11T06:32:01Z</time>
      </trkpt>
      <trkpt lat="41.9835386239" lon="-6.1290862318">
        <ele>766.31</ele>
        <time>2020-08-11T06:32:08Z</time>
      </trkpt>
      <trkpt lat="41.9834568165" lon="-6.1291073542">
        <ele>765.83</ele>
        <time>2020-08-11T06:32:12Z</time>
      </trkpt>
      <trkpt lat="41.9834392983" lon="-6.1291274708">
        <ele>765.83</ele>
        <time>2020-08-11T06:32:13Z</time>
      </trkpt>
      <trkpt lat="41.9832686428" lon="-6.1292853020">
        <ele>764.87</ele>
        <time>2020-08-11T06:32:19Z</time>
      </trkpt>
      <trkpt lat="41.9830487855" lon="-6.1294930056">
        <ele>765.83</ele>
        <time>2020-08-11T06:32:27Z</time>
      </trkpt>
      <trkpt lat="41.9828732684" lon="-6.1296860408">
        <ele>768.71</ele>
        <time>2020-08-11T06:32:37Z</time>
      </trkpt>
      <trkpt lat="41.9827057980" lon="-6.1298678443">
        <ele>769.67</ele>
        <time>2020-08-11T06:32:45Z</time>
      </trkpt>
      <trkpt lat="41.9825169537" lon="-6.1300722789">
        <ele>771.60</ele>
        <time>2020-08-11T06:32:54Z</time>
      </trkpt>
      <trkpt lat="41.9823136926" lon="-6.1302428506">
        <ele>772.56</ele>
        <time>2020-08-11T06:33:03Z</time>
      </trkpt>
      <trkpt lat="41.9821884669" lon="-6.1301930621">
        <ele>773.04</ele>
        <time>2020-08-11T06:33:09Z</time>
      </trkpt>
      <trkpt lat="41.9820629898" lon="-6.1299862806">
        <ele>774.00</ele>
        <time>2020-08-11T06:33:17Z</time>
      </trkpt>
      <trkpt lat="41.9819277897" lon="-6.1297689378">
        <ele>774.48</ele>
        <time>2020-08-11T06:33:26Z</time>
      </trkpt>
      <trkpt lat="41.9817624148" lon="-6.1295236833">
        <ele>775.92</ele>
        <time>2020-08-11T06:33:36Z</time>
      </trkpt>
      <trkpt lat="41.9815788511" lon="-6.1292677000">
        <ele>776.88</ele>
        <time>2020-08-11T06:33:47Z</time>
      </trkpt>
      <trkpt lat="41.9813874085" lon="-6.1290135607">
        <ele>777.84</ele>
        <time>2020-08-11T06:33:58Z</time>
      </trkpt>
      <trkpt lat="41.9812288228" lon="-6.1287965532">
        <ele>778.32</ele>
        <time>2020-08-11T06:34:07Z</time>
      </trkpt>
      <trkpt lat="41.9810561556" lon="-6.1285735108">
        <ele>778.81</ele>
        <time>2020-08-11T06:34:16Z</time>
      </trkpt>
      <trkpt lat="41.9808849134" lon="-6.1283684056">
        <ele>779.29</ele>
        <time>2020-08-11T06:34:25Z</time>
      </trkpt>
      <trkpt lat="41.9806904532" lon="-6.1282135919">
        <ele>779.77</ele>
        <time>2020-08-11T06:34:34Z</time>
      </trkpt>
      <trkpt lat="41.9805332087" lon="-6.1281682458">
        <ele>779.77</ele>
        <time>2020-08-11T06:34:42Z</time>
      </trkpt>
      <trkpt lat="41.9804099109" lon="-6.1281805672">
        <ele>779.29</ele>
        <time>2020-08-11T06:34:51Z</time>
      </trkpt>
      <trkpt lat="41.9802296162" lon="-6.1281986721">
        <ele>779.29</ele>
        <time>2020-08-11T06:34:59Z</time>
      </trkpt>
      <trkpt lat="41.9799184799" lon="-6.1282370612">
        <ele>779.77</ele>
        <time>2020-08-11T06:35:10Z</time>
      </trkpt>
      <trkpt lat="41.9796908274" lon="-6.1282612849">
        <ele>780.25</ele>
        <time>2020-08-11T06:35:18Z</time>
      </trkpt>
      <trkpt lat="41.9793792721" lon="-6.1283060443">
        <ele>781.69</ele>
        <time>2020-08-11T06:35:29Z</time>
      </trkpt>
      <trkpt lat="41.9790466782" lon="-6.1283459421">
        <ele>782.65</ele>
        <time>2020-08-11T06:35:41Z</time>
      </trkpt>
      <trkpt lat="41.9789572433" lon="-6.1283726804">
        <ele>783.61</ele>
        <time>2020-08-11T06:35:47Z</time>
      </trkpt>
      <trkpt lat="41.9787759427" lon="-6.1283907853">
        <ele>784.57</ele>
        <time>2020-08-11T06:35:55Z</time>
      </trkpt>
      <trkpt lat="41.9785567559" lon="-6.1284206249">
        <ele>786.02</ele>
        <time>2020-08-11T06:36:04Z</time>
      </trkpt>
      <trkpt lat="41.9783225656" lon="-6.1284444295">
        <ele>787.46</ele>
        <time>2020-08-11T06:36:13Z</time>
      </trkpt>
      <trkpt lat="41.9781708531" lon="-6.1283564195">
        <ele>788.42</ele>
        <time>2020-08-11T06:36:20Z</time>
      </trkpt>
      <trkpt lat="41.9780329708" lon="-6.1281591933">
        <ele>788.90</ele>
        <time>2020-08-11T06:36:28Z</time>
      </trkpt>
      <trkpt lat="41.9779790752" lon="-6.1279584467">
        <ele>788.90</ele>
        <time>2020-08-11T06:36:35Z</time>
      </trkpt>
      <trkpt lat="41.9779588748" lon="-6.1277971789">
        <ele>788.42</ele>
        <time>2020-08-11T06:36:40Z</time>
      </trkpt>
      <trkpt lat="41.9779435359" lon="-6.1277778167">
        <ele>788.42</ele>
        <time>2020-08-11T06:36:41Z</time>
      </trkpt>
      <trkpt lat="41.9779268559" lon="-6.1277650762">
        <ele>788.42</ele>
        <time>2020-08-11T06:36:42Z</time>
      </trkpt>
      <trkpt lat="41.9778769836" lon="-6.1277592927">
        <ele>788.90</ele>
        <time>2020-08-11T06:36:46Z</time>
      </trkpt>
      <trkpt lat="41.9778655004" lon="-6.1277676746">
        <ele>788.90</ele>
        <time>2020-08-11T06:36:47Z</time>
      </trkpt>
      <trkpt lat="41.9778539333" lon="-6.1277792417">
        <ele>788.90</ele>
        <time>2020-08-11T06:36:48Z</time>
      </trkpt>
      <trkpt lat="41.9778421149" lon="-6.1277933232">
        <ele>789.38</ele>
        <time>2020-08-11T06:36:49Z</time>
      </trkpt>
      <trkpt lat="41.9778294582" lon="-6.1278087460">
        <ele>789.38</ele>
        <time>2020-08-11T06:36:50Z</time>
      </trkpt>
      <trkpt lat="41.9778157119" lon="-6.1278259289">
        <ele>789.86</ele>
        <time>2020-08-11T06:36:51Z</time>
      </trkpt>
      <trkpt lat="41.9776984490" lon="-6.1280380748">
        <ele>790.82</ele>
        <time>2020-08-11T06:36:59Z</time>
      </trkpt>
      <trkpt lat="41.9774849620" lon="-6.1283369735">
        <ele>791.78</ele>
        <time>2020-08-11T06:37:11Z</time>
      </trkpt>
      <trkpt lat="41.9772739895" lon="-6.1285356246">
        <ele>792.74</ele>
        <time>2020-08-11T06:37:21Z</time>
      </trkpt>
      <trkpt lat="41.9771009870" lon="-6.1287085433">
        <ele>791.78</ele>
        <time>2020-08-11T06:37:28Z</time>
      </trkpt>
      <trkpt lat="41.9770040922" lon="-6.1290574819">
        <ele>791.78</ele>
        <time>2020-08-11T06:37:37Z</time>
      </trkpt>
      <trkpt lat="41.9769632723" lon="-6.1294338293">
        <ele>790.34</ele>
        <time>2020-08-11T06:37:47Z</time>
      </trkpt>
      <trkpt lat="41.9768559840" lon="-6.1296922434">
        <ele>790.82</ele>
        <time>2020-08-11T06:37:54Z</time>
      </trkpt>
      <trkpt lat="41.9766825624" lon="-6.1299002822">
        <ele>791.78</ele>
        <time>2020-08-11T06:38:03Z</time>
      </trkpt>
      <trkpt lat="41.9765176903" lon="-6.1300435290">
        <ele>793.71</ele>
        <time>2020-08-11T06:38:12Z</time>
      </trkpt>
      <trkpt lat="41.9763781317" lon="-6.1301517393">
        <ele>795.15</ele>
        <time>2020-08-11T06:38:20Z</time>
      </trkpt>
      <trkpt lat="41.9762136787" lon="-6.1302818265">
        <ele>796.11</ele>
        <time>2020-08-11T06:38:30Z</time>
      </trkpt>
      <trkpt lat="41.9760329649" lon="-6.1304361373">
        <ele>797.07</ele>
        <time>2020-08-11T06:38:40Z</time>
      </trkpt>
      <trkpt lat="41.9758788217" lon="-6.1306039430">
        <ele>798.99</ele>
        <time>2020-08-11T06:38:49Z</time>
      </trkpt>
      <trkpt lat="41.9757927395" lon="-6.1307167634">
        <ele>799.47</ele>
        <time>2020-08-11T06:38:56Z</time>
      </trkpt>
      <trkpt lat="41.9756715372" lon="-6.1308901012">
        <ele>800.44</ele>
        <time>2020-08-11T06:39:06Z</time>
      </trkpt>
      <trkpt lat="41.9755324814" lon="-6.1310820468">
        <ele>801.40</ele>
        <time>2020-08-11T06:39:17Z</time>
      </trkpt>
      <trkpt lat="41.9754056633" lon="-6.1312714778">
        <ele>802.84</ele>
        <time>2020-08-11T06:39:27Z</time>
      </trkpt>
      <trkpt lat="41.9753000513" lon="-6.1314304825">
        <ele>804.28</ele>
        <time>2020-08-11T06:39:36Z</time>
      </trkpt>
      <trkpt lat="41.9751816988" lon="-6.1316096876">
        <ele>805.24</ele>
        <time>2020-08-11T06:39:46Z</time>
      </trkpt>
      <trkpt lat="41.9750941079" lon="-6.1317328177">
        <ele>805.72</ele>
        <time>2020-08-11T06:39:54Z</time>
      </trkpt>
      <trkpt lat="41.9749374501" lon="-6.1319745518">
        <ele>806.20</ele>
        <time>2020-08-11T06:40:06Z</time>
      </trkpt>
      <trkpt lat="41.9748294912" lon="-6.1321533378">
        <ele>807.16</ele>
        <time>2020-08-11T06:40:15Z</time>
      </trkpt>
      <trkpt lat="41.9747164194" lon="-6.1323287711">
        <ele>808.13</ele>
        <time>2020-08-11T06:40:24Z</time>
      </trkpt>
      <trkpt lat="41.9745701551" lon="-6.1325469520">
        <ele>809.57</ele>
        <time>2020-08-11T06:40:35Z</time>
      </trkpt>
      <trkpt lat="41.9744373020" lon="-6.1327675637">
        <ele>810.53</ele>
        <time>2020-08-11T06:40:45Z</time>
      </trkpt>
      <trkpt lat="41.9743469451" lon="-6.1330030113">
        <ele>811.49</ele>
        <time>2020-08-11T06:40:55Z</time>
      </trkpt>
      <trkpt lat="41.9743020181" lon="-6.1332309153">
        <ele>811.49</ele>
        <time>2020-08-11T06:41:04Z</time>
      </trkpt>
      <trkpt lat="41.9742529001" lon="-6.1335122120">
        <ele>811.01</ele>
        <time>2020-08-11T06:41:15Z</time>
      </trkpt>
      <trkpt lat="41.9742091466" lon="-6.1338189896">
        <ele>810.53</ele>
        <time>2020-08-11T06:41:24Z</time>
      </trkpt>
      <trkpt lat="41.9741613697" lon="-6.1341284495">
        <ele>810.53</ele>
        <time>2020-08-11T06:41:33Z</time>
      </trkpt>
      <trkpt lat="41.9741365593" lon="-6.1342844367">
        <ele>810.53</ele>
        <time>2020-08-11T06:41:40Z</time>
      </trkpt>
      <trkpt lat="41.9741328713" lon="-6.1342935730">
        <ele>810.53</ele>
        <time>2020-08-11T06:41:51Z</time>
      </trkpt>
      <trkpt lat="41.9741204660" lon="-6.1342947464">
        <ele>811.01</ele>
        <time>2020-08-11T06:42:08Z</time>
      </trkpt>
      <trkpt lat="41.9741242379" lon="-6.1343317106">
        <ele>811.01</ele>
        <time>2020-08-11T06:42:20Z</time>
      </trkpt>
      <trkpt lat="41.9741063844" lon="-6.1345136818">
        <ele>811.01</ele>
        <time>2020-08-11T06:42:27Z</time>
      </trkpt>
      <trkpt lat="41.9740592781" lon="-6.1348662246">
        <ele>811.49</ele>
        <time>2020-08-11T06:42:38Z</time>
      </trkpt>
      <trkpt lat="41.9740144350" lon="-6.1352272332">
        <ele>811.49</ele>
        <time>2020-08-11T06:42:48Z</time>
      </trkpt>
      <trkpt lat="41.9739640597" lon="-6.1356394552">
        <ele>811.49</ele>
        <time>2020-08-11T06:42:59Z</time>
      </trkpt>
      <trkpt lat="41.9739338849" lon="-6.1359362584">
        <ele>811.97</ele>
        <time>2020-08-11T06:43:07Z</time>
      </trkpt>
      <trkpt lat="41.9738706853" lon="-6.1364229117">
        <ele>812.45</ele>
        <time>2020-08-11T06:43:20Z</time>
      </trkpt>
      <trkpt lat="41.9738201424" lon="-6.1368076410">
        <ele>812.45</ele>
        <time>2020-08-11T06:43:30Z</time>
      </trkpt>
      <trkpt lat="41.9737492315" lon="-6.1372517142">
        <ele>812.93</ele>
        <time>2020-08-11T06:43:41Z</time>
      </trkpt>
      <trkpt lat="41.9736446254" lon="-6.1375951208">
        <ele>813.41</ele>
        <time>2020-08-11T06:43:50Z</time>
      </trkpt>
      <trkpt lat="41.9735197350" lon="-6.1379594821">
        <ele>813.41</ele>
        <time>2020-08-11T06:44:00Z</time>
      </trkpt>
      <trkpt lat="41.9734478183" lon="-6.1382567883">
        <ele>813.41</ele>
        <time>2020-08-11T06:44:08Z</time>
      </trkpt>
      <trkpt lat="41.9734098483" lon="-6.1386809964">
        <ele>812.93</ele>
        <time>2020-08-11T06:44:19Z</time>
      </trkpt>
      <trkpt lat="41.9733795896" lon="-6.1390809808">
        <ele>813.41</ele>
        <time>2020-08-11T06:44:29Z</time>
      </trkpt>
      <trkpt lat="41.9733458944" lon="-6.1394476891">
        <ele>812.93</ele>
        <time>2020-08-11T06:44:38Z</time>
      </trkpt>
      <trkpt lat="41.9733148813" lon="-6.1397221126">
        <ele>813.41</ele>
        <time>2020-08-11T06:44:45Z</time>
      </trkpt>
      <trkpt lat="41.9732696190" lon="-6.1400941014">
        <ele>813.41</ele>
        <time>2020-08-11T06:44:54Z</time>
      </trkpt>
      <trkpt lat="41.9732161425" lon="-6.1404413637">
        <ele>813.89</ele>
        <time>2020-08-11T06:45:02Z</time>
      </trkpt>
      <trkpt lat="41.9731260370" lon="-6.1409577727">
        <ele>813.89</ele>
        <time>2020-08-11T06:45:13Z</time>
      </trkpt>
      <trkpt lat="41.9730626699" lon="-6.1414036900">
        <ele>813.41</ele>
        <time>2020-08-11T06:45:22Z</time>
      </trkpt>
      <trkpt lat="41.9730106182" lon="-6.1418750882">
        <ele>812.93</ele>
        <time>2020-08-11T06:45:31Z</time>
      </trkpt>
      <trkpt lat="41.9729521126" lon="-6.1424922477">
        <ele>811.49</ele>
        <time>2020-08-11T06:45:43Z</time>
      </trkpt>
      <trkpt lat="41.9729524478" lon="-6.1429053079">
        <ele>811.49</ele>
        <time>2020-08-11T06:45:52Z</time>
      </trkpt>
      <trkpt lat="41.9729634281" lon="-6.1433058791">
        <ele>810.05</ele>
        <time>2020-08-11T06:46:02Z</time>
      </trkpt>
      <trkpt lat="41.9729891606" lon="-6.1435571685">
        <ele>808.13</ele>
        <time>2020-08-11T06:46:11Z</time>
      </trkpt>
      <trkpt lat="41.9730906654" lon="-6.1435918696">
        <ele>807.16</ele>
        <time>2020-08-11T06:46:16Z</time>
      </trkpt>
      <trkpt lat="41.9731171522" lon="-6.1435761116">
        <ele>807.16</ele>
        <time>2020-08-11T06:46:17Z</time>
      </trkpt>
      <trkpt lat="41.9731429685" lon="-6.1435473617">
        <ele>807.16</ele>
        <time>2020-08-11T06:46:18Z</time>
      </trkpt>
      <trkpt lat="41.9731665216" lon="-6.1435130797">
        <ele>807.16</ele>
        <time>2020-08-11T06:46:19Z</time>
      </trkpt>
      <trkpt lat="41.9734104350" lon="-6.1432068050">
        <ele>808.13</ele>
        <time>2020-08-11T06:46:27Z</time>
      </trkpt>
      <trkpt lat="41.9737534225" lon="-6.1428130232">
        <ele>807.64</ele>
        <time>2020-08-11T06:46:37Z</time>
      </trkpt>
      <trkpt lat="41.9740723539" lon="-6.1424084287">
        <ele>807.16</ele>
        <time>2020-08-11T06:46:47Z</time>
      </trkpt>
      <trkpt lat="41.9743510522" lon="-6.1418343522">
        <ele>806.20</ele>
        <time>2020-08-11T06:46:57Z</time>
      </trkpt>
      <trkpt lat="41.9746910222" lon="-6.1410821602">
        <ele>804.28</ele>
        <time>2020-08-11T06:47:08Z</time>
      </trkpt>
      <trkpt lat="41.9747333508" lon="-6.1410135124">
        <ele>803.80</ele>
        <time>2020-08-11T06:47:09Z</time>
      </trkpt>
      <trkpt lat="41.9747802895" lon="-6.1409485526">
        <ele>803.32</ele>
        <time>2020-08-11T06:47:10Z</time>
      </trkpt>
      <trkpt lat="41.9748298265" lon="-6.1408927292">
        <ele>802.84</ele>
        <time>2020-08-11T06:47:11Z</time>
      </trkpt>
      <trkpt lat="41.9748848118" lon="-6.1408483051">
        <ele>802.36</ele>
        <time>2020-08-11T06:47:12Z</time>
      </trkpt>
      <trkpt lat="41.9749469217" lon="-6.1408126820">
        <ele>801.88</ele>
        <time>2020-08-11T06:47:13Z</time>
      </trkpt>
      <trkpt lat="41.9750152342" lon="-6.1407803278">
        <ele>801.40</ele>
        <time>2020-08-11T06:47:14Z</time>
      </trkpt>
      <trkpt lat="41.9755012169" lon="-6.1406033020">
        <ele>797.07</ele>
        <time>2020-08-11T06:47:20Z</time>
      </trkpt>
      <trkpt lat="41.9760519918" lon="-6.1404022202">
        <ele>794.67</ele>
        <time>2020-08-11T06:47:27Z</time>
      </trkpt>
      <trkpt lat="41.9761263393" lon="-6.1403876357">
        <ele>794.67</ele>
        <time>2020-08-11T06:47:28Z</time>
      </trkpt>
      <trkpt lat="41.9761995133" lon="-6.1403867137">
        <ele>794.19</ele>
        <time>2020-08-11T06:47:29Z</time>
      </trkpt>
      <trkpt lat="41.9762747828" lon="-6.1404039804">
        <ele>794.19</ele>
        <time>2020-08-11T06:47:30Z</time>
      </trkpt>
      <trkpt lat="41.9763458613" lon="-6.1404354125">
        <ele>794.19</ele>
        <time>2020-08-11T06:47:31Z</time>
      </trkpt>
      <trkpt lat="41.9764055405" lon="-6.1404675990">
        <ele>794.19</ele>
        <time>2020-08-11T06:47:32Z</time>
      </trkpt>
      <trkpt lat="41.9767118990" lon="-6.1406289507">
        <ele>794.19</ele>
        <time>2020-08-11T06:47:38Z</time>
      </trkpt>
      <trkpt lat="41.9769490231" lon="-6.1407589540">
        <ele>794.67</ele>
        <time>2020-08-11T06:47:46Z</time>
      </trkpt>
      <trkpt lat="41.9771340117" lon="-6.1408828385">
        <ele>794.19</ele>
        <time>2020-08-11T06:47:55Z</time>
      </trkpt>
      <trkpt lat="41.9771909248" lon="-6.1409382429">
        <ele>793.71</ele>
        <time>2020-08-11T06:48:02Z</time>
      </trkpt>
      <trkpt lat="41.9771988038" lon="-6.1409317050">
        <ele>793.71</ele>
        <time>2020-08-11T06:48:10Z</time>
      </trkpt>
      <trkpt lat="41.9772029109" lon="-6.1409355607">
        <ele>794.67</ele>
        <time>2020-08-11T06:48:22Z</time>
      </trkpt>
      <trkpt lat="41.9772029109" lon="-6.1409362312">
        <ele>795.63</ele>
        <time>2020-08-11T06:48:45Z</time>
      </trkpt>
      <trkpt lat="41.9772039168" lon="-6.1409405898">
        <ele>795.15</ele>
        <time>2020-08-11T06:49:03Z</time>
      </trkpt>
      <trkpt lat="41.9772045873" lon="-6.1409334652">
        <ele>794.67</ele>
        <time>2020-08-11T06:49:22Z</time>
      </trkpt>
      <trkpt lat="41.9772029947" lon="-6.1409358121">
        <ele>794.67</ele>
        <time>2020-08-11T06:49:36Z</time>
      </trkpt>
      <trkpt lat="41.9772034977" lon="-6.1409338005">
        <ele>794.67</ele>
        <time>2020-08-11T06:49:54Z</time>
      </trkpt>
      <trkpt lat="41.9772028271" lon="-6.1409402546">
        <ele>794.67</ele>
        <time>2020-08-11T06:50:04Z</time>
      </trkpt>
      <trkpt lat="41.9771973789" lon="-6.1409459542">
        <ele>794.19</ele>
        <time>2020-08-11T06:50:23Z</time>
      </trkpt>
      <trkpt lat="41.9771941938" lon="-6.1409535818">
        <ele>793.71</ele>
        <time>2020-08-11T06:50:35Z</time>
      </trkpt>
      <trkpt lat="41.9771952834" lon="-6.1409523245">
        <ele>793.71</ele>
        <time>2020-08-11T06:50:45Z</time>
      </trkpt>
      <trkpt lat="41.9771950319" lon="-6.1409544200">
        <ele>793.71</ele>
        <time>2020-08-11T06:51:03Z</time>
      </trkpt>
      <trkpt lat="41.9771961216" lon="-6.1409441102">
        <ele>793.71</ele>
        <time>2020-08-11T06:51:19Z</time>
      </trkpt>
      <trkpt lat="41.9771922659" lon="-6.1409379914">
        <ele>794.19</ele>
        <time>2020-08-11T06:51:34Z</time>
      </trkpt>
      <trkpt lat="41.9771948643" lon="-6.1409362312">
        <ele>794.67</ele>
        <time>2020-08-11T06:51:50Z</time>
      </trkpt>
      <trkpt lat="41.9772065990" lon="-6.1409352254">
        <ele>795.15</ele>
        <time>2020-08-11T06:51:58Z</time>
      </trkpt>
      <trkpt lat="41.9772814494" lon="-6.1409653164">
        <ele>795.15</ele>
        <time>2020-08-11T06:52:04Z</time>
      </trkpt>
      <trkpt lat="41.9775126223" lon="-6.1410593614">
        <ele>795.15</ele>
        <time>2020-08-11T06:52:12Z</time>
      </trkpt>
      <trkpt lat="41.9778131135" lon="-6.1412013508">
        <ele>794.67</ele>
        <time>2020-08-11T06:52:21Z</time>
      </trkpt>
      <trkpt lat="41.9781555980" lon="-6.1413901113">
        <ele>795.15</ele>
        <time>2020-08-11T06:52:31Z</time>
      </trkpt>
      <trkpt lat="41.9785517268" lon="-6.1415938754">
        <ele>796.11</ele>
        <time>2020-08-11T06:52:42Z</time>
      </trkpt>
      <trkpt lat="41.9789926987" lon="-6.1418196838">
        <ele>795.63</ele>
        <time>2020-08-11T06:52:54Z</time>
      </trkpt>
      <trkpt lat="41.9794525299" lon="-6.1420596577">
        <ele>795.15</ele>
        <time>2020-08-11T06:53:06Z</time>
      </trkpt>
      <trkpt lat="41.9798405282" lon="-6.1422607396">
        <ele>794.67</ele>
        <time>2020-08-11T06:53:16Z</time>
      </trkpt>
      <trkpt lat="41.9801931549" lon="-6.1424448062">
        <ele>794.67</ele>
        <time>2020-08-11T06:53:26Z</time>
      </trkpt>
      <trkpt lat="41.9802763034" lon="-6.1424842849">
        <ele>794.67</ele>
        <time>2020-08-11T06:53:31Z</time>
      </trkpt>
      <trkpt lat="41.9802820031" lon="-6.1424906552">
        <ele>794.19</ele>
        <time>2020-08-11T06:53:39Z</time>
      </trkpt>
      <trkpt lat="41.9802739564" lon="-6.1424928345">
        <ele>794.19</ele>
        <time>2020-08-11T06:53:48Z</time>
      </trkpt>
      <trkpt lat="41.9802778121" lon="-6.1425033119">
        <ele>796.11</ele>
        <time>2020-08-11T06:54:02Z</time>
      </trkpt>
      <trkpt lat="41.9802776445" lon="-6.1425156333">
        <ele>797.55</ele>
        <time>2020-08-11T06:54:19Z</time>
      </trkpt>
      <trkpt lat="41.9802747946" lon="-6.1425130349">
        <ele>796.59</ele>
        <time>2020-08-11T06:54:28Z</time>
      </trkpt>
      <trkpt lat="41.9802721962" lon="-6.1424968578">
        <ele>798.51</ele>
        <time>2020-08-11T06:54:46Z</time>
      </trkpt>
      <trkpt lat="41.9802801590" lon="-6.1424932536">
        <ele>798.03</ele>
        <time>2020-08-11T06:55:02Z</time>
      </trkpt>
      <trkpt lat="41.9802685082" lon="-6.1424919125">
        <ele>798.03</ele>
        <time>2020-08-11T06:55:20Z</time>
      </trkpt>
      <trkpt lat="41.9802619703" lon="-6.1424795911">
        <ele>797.07</ele>
        <time>2020-08-11T06:55:33Z</time>
      </trkpt>
      <trkpt lat="41.9802705199" lon="-6.1424999591">
        <ele>797.07</ele>
        <time>2020-08-11T06:55:48Z</time>
      </trkpt>
      <trkpt lat="41.9802779797" lon="-6.1424968578">
        <ele>796.59</ele>
        <time>2020-08-11T06:55:58Z</time>
      </trkpt>
      <trkpt lat="41.9802963361" lon="-6.1425059941">
        <ele>796.59</ele>
        <time>2020-08-11T06:56:12Z</time>
      </trkpt>
      <trkpt lat="41.9804099947" lon="-6.1425889749">
        <ele>797.07</ele>
        <time>2020-08-11T06:56:18Z</time>
      </trkpt>
      <trkpt lat="41.9806003477" lon="-6.1428114306">
        <ele>796.11</ele>
        <time>2020-08-11T06:56:26Z</time>
      </trkpt>
      <trkpt lat="41.9806812331" lon="-6.1431429349">
        <ele>795.63</ele>
        <time>2020-08-11T06:56:33Z</time>
      </trkpt>
      <trkpt lat="41.9806973264" lon="-6.1435456853">
        <ele>796.11</ele>
        <time>2020-08-11T06:56:42Z</time>
      </trkpt>
      <trkpt lat="41.9806369767" lon="-6.1437113956">
        <ele>796.59</ele>
        <time>2020-08-11T06:56:48Z</time>
      </trkpt>
      <trkpt lat="41.9806275051" lon="-6.1438879184">
        <ele>796.11</ele>
        <time>2020-08-11T06:56:52Z</time>
      </trkpt>
      <trkpt lat="41.9806308579" lon="-6.1441607494">
        <ele>796.11</ele>
        <time>2020-08-11T06:56:58Z</time>
      </trkpt>
      <trkpt lat="41.9805998448" lon="-6.1442712229">
        <ele>795.63</ele>
        <time>2020-08-11T06:57:00Z</time>
      </trkpt>
      <trkpt lat="41.9805901218" lon="-6.1443397030">
        <ele>795.15</ele>
        <time>2020-08-11T06:57:01Z</time>
      </trkpt>
      <trkpt lat="41.9805888645" lon="-6.1444067582">
        <ele>794.67</ele>
        <time>2020-08-11T06:57:02Z</time>
      </trkpt>
      <trkpt lat="41.9805943966" lon="-6.1444779206">
        <ele>794.19</ele>
        <time>2020-08-11T06:57:03Z</time>
      </trkpt>
      <trkpt lat="41.9806040358" lon="-6.1445498373">
        <ele>794.19</ele>
        <time>2020-08-11T06:57:04Z</time>
      </trkpt>
      <trkpt lat="41.9806157704" lon="-6.1446135398">
        <ele>794.19</ele>
        <time>2020-08-11T06:57:05Z</time>
      </trkpt>
      <trkpt lat="41.9806737732" lon="-6.1449912284">
        <ele>794.67</ele>
        <time>2020-08-11T06:57:12Z</time>
      </trkpt>
      <trkpt lat="41.9807089772" lon="-6.1453925539">
        <ele>794.67</ele>
        <time>2020-08-11T06:57:20Z</time>
      </trkpt>
      <trkpt lat="41.9808527268" lon="-6.1458258145">
        <ele>793.71</ele>
        <time>2020-08-11T06:57:29Z</time>
      </trkpt>
      <trkpt lat="41.9809736777" lon="-6.1460685544">
        <ele>792.26</ele>
        <time>2020-08-11T06:57:33Z</time>
      </trkpt>
      <trkpt lat="41.9810123183" lon="-6.1461263057">
        <ele>791.78</ele>
        <time>2020-08-11T06:57:34Z</time>
      </trkpt>
      <trkpt lat="41.9811294973" lon="-6.1462882441">
        <ele>791.78</ele>
        <time>2020-08-11T06:57:37Z</time>
      </trkpt>
      <trkpt lat="41.9811558165" lon="-6.1463433970">
        <ele>791.78</ele>
        <time>2020-08-11T06:57:38Z</time>
      </trkpt>
      <trkpt lat="41.9811737537" lon="-6.1464045849">
        <ele>792.26</ele>
        <time>2020-08-11T06:57:39Z</time>
      </trkpt>
      <trkpt lat="41.9811792020" lon="-6.1464645993">
        <ele>792.26</ele>
        <time>2020-08-11T06:57:40Z</time>
      </trkpt>
      <trkpt lat="41.9811704010" lon="-6.1465195846">
        <ele>792.74</ele>
        <time>2020-08-11T06:57:41Z</time>
      </trkpt>
      <trkpt lat="41.9811572414" lon="-6.1465585604">
        <ele>792.74</ele>
        <time>2020-08-11T06:57:42Z</time>
      </trkpt>
      <trkpt lat="41.9811361190" lon="-6.1465941835">
        <ele>792.74</ele>
        <time>2020-08-11T06:57:43Z</time>
      </trkpt>
      <trkpt lat="41.9811142422" lon="-6.1466152221">
        <ele>792.74</ele>
        <time>2020-08-11T06:57:44Z</time>
      </trkpt>
      <trkpt lat="41.9810791221" lon="-6.1466328241">
        <ele>792.74</ele>
        <time>2020-08-11T06:57:45Z</time>
      </trkpt>
      <trkpt lat="41.9810424931" lon="-6.1466422118">
        <ele>792.74</ele>
        <time>2020-08-11T06:57:46Z</time>
      </trkpt>
      <trkpt lat="41.9810020924" lon="-6.1466490850">
        <ele>792.74</ele>
        <time>2020-08-11T06:57:47Z</time>
      </trkpt>
      <trkpt lat="41.9809631165" lon="-6.1466515996">
        <ele>792.74</ele>
        <time>2020-08-11T06:57:48Z</time>
      </trkpt>
      <trkpt lat="41.9809240568" lon="-6.1466515996">
        <ele>792.74</ele>
        <time>2020-08-11T06:57:49Z</time>
      </trkpt>
      <trkpt lat="41.9807186164" lon="-6.1466696206">
        <ele>792.26</ele>
        <time>2020-08-11T06:57:56Z</time>
      </trkpt>
      <trkpt lat="41.9806327857" lon="-6.1465977039">
        <ele>791.78</ele>
        <time>2020-08-11T06:58:03Z</time>
      </trkpt>
      <trkpt lat="41.9805700891" lon="-6.1465723906">
        <ele>791.30</ele>
        <time>2020-08-11T06:58:09Z</time>
      </trkpt>
      <trkpt lat="41.9805716816" lon="-6.1465756595">
        <ele>790.34</ele>
        <time>2020-08-11T06:58:22Z</time>
      </trkpt>
      <trkpt lat="41.9805737771" lon="-6.1465709656">
        <ele>790.34</ele>
        <time>2020-08-11T06:58:43Z</time>
      </trkpt>
      <trkpt lat="41.9805761240" lon="-6.1465770006">
        <ele>789.86</ele>
        <time>2020-08-11T06:58:54Z</time>
      </trkpt>
      <trkpt lat="41.9805726036" lon="-6.1465741508">
        <ele>790.34</ele>
        <time>2020-08-11T06:59:05Z</time>
      </trkpt>
      <trkpt lat="41.9805658981" lon="-6.1465653498">
        <ele>789.38</ele>
        <time>2020-08-11T06:59:26Z</time>
      </trkpt>
      <trkpt lat="41.9805628806" lon="-6.1465605721">
        <ele>788.90</ele>
        <time>2020-08-11T06:59:42Z</time>
      </trkpt>
      <trkpt lat="41.9805650599" lon="-6.1465635896">
        <ele>789.86</ele>
        <time>2020-08-11T07:00:01Z</time>
      </trkpt>
      <trkpt lat="41.9805684965" lon="-6.1465674452">
        <ele>790.34</ele>
        <time>2020-08-11T07:00:18Z</time>
      </trkpt>
      <trkpt lat="41.9805722684" lon="-6.1465726420">
        <ele>790.34</ele>
        <time>2020-08-11T07:00:29Z</time>
      </trkpt>
      <trkpt lat="41.9805997610" lon="-6.1465956084">
        <ele>790.34</ele>
        <time>2020-08-11T07:00:34Z</time>
      </trkpt>
      <trkpt lat="41.9806084782" lon="-6.1466049962">
        <ele>790.82</ele>
        <time>2020-08-11T07:00:35Z</time>
      </trkpt>
      <trkpt lat="41.9806156028" lon="-6.1466149706">
        <ele>790.82</ele>
        <time>2020-08-11T07:00:36Z</time>
      </trkpt>
      <trkpt lat="41.9806928001" lon="-6.1467215046">
        <ele>792.74</ele>
        <time>2020-08-11T07:00:47Z</time>
      </trkpt>
      <trkpt lat="41.9806923810" lon="-6.1467254441">
        <ele>792.74</ele>
        <time>2020-08-11T07:00:52Z</time>
      </trkpt>
      <trkpt lat="41.9806755334" lon="-6.1468134541">
        <ele>793.22</ele>
        <time>2020-08-11T07:00:56Z</time>
      </trkpt>
      <trkpt lat="41.9806689955" lon="-6.1468510889">
        <ele>793.22</ele>
        <time>2020-08-11T07:00:57Z</time>
      </trkpt>
      <trkpt lat="41.9805625454" lon="-6.1471286975">
        <ele>793.71</ele>
        <time>2020-08-11T07:01:05Z</time>
      </trkpt>
      <trkpt lat="41.9804094918" lon="-6.1471488979">
        <ele>794.19</ele>
        <time>2020-08-11T07:01:10Z</time>
      </trkpt>
      <trkpt lat="41.9801908918" lon="-6.1470126081">
        <ele>794.19</ele>
        <time>2020-08-11T07:01:17Z</time>
      </trkpt>
      <trkpt lat="41.9798885565" lon="-6.1469976045">
        <ele>795.63</ele>
        <time>2020-08-11T07:01:26Z</time>
      </trkpt>
      <trkpt lat="41.9796514325" lon="-6.1470774002">
        <ele>797.07</ele>
        <time>2020-08-11T07:01:34Z</time>
      </trkpt>
      <trkpt lat="41.9794118777" lon="-6.1470660847">
        <ele>798.51</ele>
        <time>2020-08-11T07:01:42Z</time>
      </trkpt>
      <trkpt lat="41.9792375341" lon="-6.1470159609">
        <ele>798.03</ele>
        <time>2020-08-11T07:01:49Z</time>
      </trkpt>
      <trkpt lat="41.9789597578" lon="-6.1469669268">
        <ele>797.07</ele>
        <time>2020-08-11T07:01:57Z</time>
      </trkpt>
      <trkpt lat="41.9786851667" lon="-6.1469235923">
        <ele>795.63</ele>
        <time>2020-08-11T07:02:04Z</time>
      </trkpt>
      <trkpt lat="41.9783663191" lon="-6.1469701119">
        <ele>794.19</ele>
        <time>2020-08-11T07:02:12Z</time>
      </trkpt>
      <trkpt lat="41.9780731201" lon="-6.1470452137">
        <ele>792.26</ele>
        <time>2020-08-11T07:02:19Z</time>
      </trkpt>
      <trkpt lat="41.9779793266" lon="-6.1471192259">
        <ele>791.78</ele>
        <time>2020-08-11T07:02:22Z</time>
      </trkpt>
      <trkpt lat="41.9779682625" lon="-6.1471718643">
        <ele>791.78</ele>
        <time>2020-08-11T07:02:23Z</time>
      </trkpt>
      <trkpt lat="41.9779455476" lon="-6.1476435140">
        <ele>791.30</ele>
        <time>2020-08-11T07:02:31Z</time>
      </trkpt>
      <trkpt lat="41.9779440388" lon="-6.1476977449">
        <ele>790.82</ele>
        <time>2020-08-11T07:02:32Z</time>
      </trkpt>
      <trkpt lat="41.9779064041" lon="-6.1480362900">
        <ele>792.74</ele>
        <time>2020-08-11T07:02:39Z</time>
      </trkpt>
      <trkpt lat="41.9778458029" lon="-6.1484173313">
        <ele>795.63</ele>
        <time>2020-08-11T07:02:48Z</time>
      </trkpt>
      <trkpt lat="41.9777611457" lon="-6.1487078480">
        <ele>798.03</ele>
        <time>2020-08-11T07:02:56Z</time>
      </trkpt>
      <trkpt lat="41.9776377641" lon="-6.1489798408">
        <ele>798.99</ele>
        <time>2020-08-11T07:03:04Z</time>
      </trkpt>
      <trkpt lat="41.9776071701" lon="-6.1493079923">
        <ele>799.47</ele>
        <time>2020-08-11T07:03:11Z</time>
      </trkpt>
      <trkpt lat="41.9776182342" lon="-6.1495270114">
        <ele>799.47</ele>
        <time>2020-08-11T07:03:15Z</time>
      </trkpt>
      <trkpt lat="41.9776101876" lon="-6.1499846634">
        <ele>800.44</ele>
        <time>2020-08-11T07:03:24Z</time>
      </trkpt>
      <trkpt lat="41.9776226766" lon="-6.1503687222">
        <ele>799.95</ele>
        <time>2020-08-11T07:03:32Z</time>
      </trkpt>
      <trkpt lat="41.9776509237" lon="-6.1510089319">
        <ele>798.03</ele>
        <time>2020-08-11T07:03:42Z</time>
      </trkpt>
      <trkpt lat="41.9776963536" lon="-6.1513245106">
        <ele>797.55</ele>
        <time>2020-08-11T07:03:48Z</time>
      </trkpt>
      <trkpt lat="41.9776997901" lon="-6.1513525061">
        <ele>797.55</ele>
        <time>2020-08-11T07:03:53Z</time>
      </trkpt>
      <trkpt lat="41.9777064957" lon="-6.1514396779">
        <ele>797.55</ele>
        <time>2020-08-11T07:03:58Z</time>
      </trkpt>
      <trkpt lat="41.9777525961" lon="-6.1517451983">
        <ele>795.63</ele>
        <time>2020-08-11T07:04:03Z</time>
      </trkpt>
      <trkpt lat="41.9778038934" lon="-6.1519988347">
        <ele>794.19</ele>
        <time>2020-08-11T07:04:08Z</time>
      </trkpt>
      <trkpt lat="41.9778086711" lon="-6.1520088930">
        <ele>794.67</ele>
        <time>2020-08-11T07:04:14Z</time>
      </trkpt>
      <trkpt lat="41.9778154604" lon="-6.1520248186">
        <ele>795.63</ele>
        <time>2020-08-11T07:04:30Z</time>
      </trkpt>
      <trkpt lat="41.9778617285" lon="-6.1522447597">
        <ele>795.63</ele>
        <time>2020-08-11T07:04:36Z</time>
      </trkpt>
      <trkpt lat="41.9779867865" lon="-6.1526874080">
        <ele>795.15</ele>
        <time>2020-08-11T07:04:45Z</time>
      </trkpt>
      <trkpt lat="41.9780607149" lon="-6.1531052459">
        <ele>794.19</ele>
        <time>2020-08-11T07:04:52Z</time>
      </trkpt>
      <trkpt lat="41.9780757185" lon="-6.1532347463">
        <ele>794.19</ele>
        <time>2020-08-11T07:04:54Z</time>
      </trkpt>
      <trkpt lat="41.9780923147" lon="-6.1532919109">
        <ele>793.71</ele>
        <time>2020-08-11T07:04:55Z</time>
      </trkpt>
      <trkpt lat="41.9781210646" lon="-6.1533434596">
        <ele>793.71</ele>
        <time>2020-08-11T07:04:56Z</time>
      </trkpt>
      <trkpt lat="41.9781576935" lon="-6.1533773225">
        <ele>794.19</ele>
        <time>2020-08-11T07:04:57Z</time>
      </trkpt>
      <trkpt lat="41.9781982619" lon="-6.1533971876">
        <ele>794.19</ele>
        <time>2020-08-11T07:04:58Z</time>
      </trkpt>
      <trkpt lat="41.9782393333" lon="-6.1534143705">
        <ele>794.19</ele>
        <time>2020-08-11T07:04:59Z</time>
      </trkpt>
      <trkpt lat="41.9784040377" lon="-6.1536013708">
        <ele>793.71</ele>
        <time>2020-08-11T07:05:05Z</time>
      </trkpt>
      <trkpt lat="41.9785792194" lon="-6.1539284326">
        <ele>792.74</ele>
        <time>2020-08-11T07:05:13Z</time>
      </trkpt>
      <trkpt lat="41.9787618611" lon="-6.1541191209">
        <ele>792.26</ele>
        <time>2020-08-11T07:05:20Z</time>
      </trkpt>
      <trkpt lat="41.9790355302" lon="-6.1543894373">
        <ele>792.26</ele>
        <time>2020-08-11T07:05:29Z</time>
      </trkpt>
      <trkpt lat="41.9792046770" lon="-6.1544352863">
        <ele>793.22</ele>
        <time>2020-08-11T07:05:34Z</time>
      </trkpt>
      <trkpt lat="41.9795280509" lon="-6.1545325164">
        <ele>791.78</ele>
        <time>2020-08-11T07:05:43Z</time>
      </trkpt>
      <trkpt lat="41.9795728941" lon="-6.1545570754">
        <ele>791.78</ele>
        <time>2020-08-11T07:05:44Z</time>
      </trkpt>
      <trkpt lat="41.9798893947" lon="-6.1547881644">
        <ele>791.30</ele>
        <time>2020-08-11T07:05:52Z</time>
      </trkpt>
      <trkpt lat="41.9800590444" lon="-6.1549196765">
        <ele>791.30</ele>
        <time>2020-08-11T07:05:57Z</time>
      </trkpt>
      <trkpt lat="41.9801012892" lon="-6.1549401283">
        <ele>791.30</ele>
        <time>2020-08-11T07:05:58Z</time>
      </trkpt>
      <trkpt lat="41.9801426958" lon="-6.1549547967">
        <ele>791.30</ele>
        <time>2020-08-11T07:05:59Z</time>
      </trkpt>
      <trkpt lat="41.9801866170" lon="-6.1549692135">
        <ele>791.30</ele>
        <time>2020-08-11T07:06:00Z</time>
      </trkpt>
      <trkpt lat="41.9802315440" lon="-6.1549846362">
        <ele>791.30</ele>
        <time>2020-08-11T07:06:01Z</time>
      </trkpt>
      <trkpt lat="41.9806037005" lon="-6.1551097780">
        <ele>791.30</ele>
        <time>2020-08-11T07:06:10Z</time>
      </trkpt>
      <trkpt lat="41.9809104782" lon="-6.1552370153">
        <ele>792.26</ele>
        <time>2020-08-11T07:06:18Z</time>
      </trkpt>
      <trkpt lat="41.9811147451" lon="-6.1553562898">
        <ele>792.26</ele>
        <time>2020-08-11T07:06:23Z</time>
      </trkpt>
      <trkpt lat="41.9811460935" lon="-6.1553893145">
        <ele>792.26</ele>
        <time>2020-08-11T07:06:24Z</time>
      </trkpt>
      <trkpt lat="41.9811723288" lon="-6.1554292962">
        <ele>792.26</ele>
        <time>2020-08-11T07:06:25Z</time>
      </trkpt>
      <trkpt lat="41.9811942894" lon="-6.1554767378">
        <ele>792.26</ele>
        <time>2020-08-11T07:06:26Z</time>
      </trkpt>
      <trkpt lat="41.9812067784" lon="-6.1555283703">
        <ele>792.74</ele>
        <time>2020-08-11T07:06:27Z</time>
      </trkpt>
      <trkpt lat="41.9812110532" lon="-6.1555860378">
        <ele>792.74</ele>
        <time>2020-08-11T07:06:28Z</time>
      </trkpt>
      <trkpt lat="41.9812099636" lon="-6.1556439567">
        <ele>793.22</ele>
        <time>2020-08-11T07:06:29Z</time>
      </trkpt>
      <trkpt lat="41.9812045991" lon="-6.1556997802">
        <ele>793.22</ele>
        <time>2020-08-11T07:06:30Z</time>
      </trkpt>
      <trkpt lat="41.9811947923" lon="-6.1557532568">
        <ele>793.71</ele>
        <time>2020-08-11T07:06:31Z</time>
      </trkpt>
      <trkpt lat="41.9811788667" lon="-6.1558029614">
        <ele>793.71</ele>
        <time>2020-08-11T07:06:32Z</time>
      </trkpt>
      <trkpt lat="41.9811549783" lon="-6.1558444519">
        <ele>794.19</ele>
        <time>2020-08-11T07:06:33Z</time>
      </trkpt>
      <trkpt lat="41.9811243005" lon="-6.1558799911">
        <ele>794.19</ele>
        <time>2020-08-11T07:06:34Z</time>
      </trkpt>
      <trkpt lat="41.9810857438" lon="-6.1559040472">
        <ele>794.19</ele>
        <time>2020-08-11T07:06:35Z</time>
      </trkpt>
      <trkpt lat="41.9810383860" lon="-6.1559169553">
        <ele>794.19</ele>
        <time>2020-08-11T07:06:36Z</time>
      </trkpt>
      <trkpt lat="41.9809943810" lon="-6.1559214815">
        <ele>793.71</ele>
        <time>2020-08-11T07:06:37Z</time>
      </trkpt>
      <trkpt lat="41.9809452631" lon="-6.1559257563">
        <ele>793.71</ele>
        <time>2020-08-11T07:06:38Z</time>
      </trkpt>
      <trkpt lat="41.9807131682" lon="-6.1559787299">
        <ele>793.22</ele>
        <time>2020-08-11T07:06:43Z</time>
      </trkpt>
      <trkpt lat="41.9806740247" lon="-6.1560014449">
        <ele>793.22</ele>
        <time>2020-08-11T07:06:44Z</time>
      </trkpt>
      <trkpt lat="41.9806353003" lon="-6.1560276803">
        <ele>793.22</ele>
        <time>2020-08-11T07:06:45Z</time>
      </trkpt>
      <trkpt lat="41.9802685920" lon="-6.1563167721">
        <ele>793.22</ele>
        <time>2020-08-11T07:06:55Z</time>
      </trkpt>
      <trkpt lat="41.9801610522" lon="-6.1563628726">
        <ele>792.74</ele>
        <time>2020-08-11T07:06:58Z</time>
      </trkpt>
      <trkpt lat="41.9801196456" lon="-6.1563601065">
        <ele>792.74</ele>
        <time>2020-08-11T07:06:59Z</time>
      </trkpt>
      <trkpt lat="41.9800743833" lon="-6.1563495453">
        <ele>792.26</ele>
        <time>2020-08-11T07:07:00Z</time>
      </trkpt>
      <trkpt lat="41.9798303861" lon="-6.1562757008">
        <ele>792.26</ele>
        <time>2020-08-11T07:07:05Z</time>
      </trkpt>
      <trkpt lat="41.9796971139" lon="-6.1562658940">
        <ele>792.74</ele>
        <time>2020-08-11T07:07:08Z</time>
      </trkpt>
      <trkpt lat="41.9796556234" lon="-6.1562788859">
        <ele>792.74</ele>
        <time>2020-08-11T07:07:09Z</time>
      </trkpt>
      <trkpt lat="41.9796143007" lon="-6.1563046183">
        <ele>792.74</ele>
        <time>2020-08-11T07:07:10Z</time>
      </trkpt>
      <trkpt lat="41.9795733131" lon="-6.1563385651">
        <ele>792.74</ele>
        <time>2020-08-11T07:07:11Z</time>
      </trkpt>
      <trkpt lat="41.9795366842" lon="-6.1563734338">
        <ele>793.22</ele>
        <time>2020-08-11T07:07:12Z</time>
      </trkpt>
      <trkpt lat="41.9793015718" lon="-6.1566154193">
        <ele>794.19</ele>
        <time>2020-08-11T07:07:19Z</time>
      </trkpt>
      <trkpt lat="41.9792763423" lon="-6.1566579994">
        <ele>794.19</ele>
        <time>2020-08-11T07:07:20Z</time>
      </trkpt>
      <trkpt lat="41.9792553037" lon="-6.1567051895">
        <ele>794.19</ele>
        <time>2020-08-11T07:07:21Z</time>
      </trkpt>
      <trkpt lat="41.9792357739" lon="-6.1567568220">
        <ele>794.67</ele>
        <time>2020-08-11T07:07:22Z</time>
      </trkpt>
      <trkpt lat="41.9792183395" lon="-6.1568057723">
        <ele>795.15</ele>
        <time>2020-08-11T07:07:23Z</time>
      </trkpt>
      <trkpt lat="41.9791999832" lon="-6.1568532139">
        <ele>795.15</ele>
        <time>2020-08-11T07:07:24Z</time>
      </trkpt>
      <trkpt lat="41.9791138172" lon="-6.1572183296">
        <ele>796.59</ele>
        <time>2020-08-11T07:07:32Z</time>
      </trkpt>
      <trkpt lat="41.9790543057" lon="-6.1575549468">
        <ele>798.51</ele>
        <time>2020-08-11T07:07:40Z</time>
      </trkpt>
      <trkpt lat="41.9789353665" lon="-6.1579135247">
        <ele>798.99</ele>
        <time>2020-08-11T07:07:48Z</time>
      </trkpt>
      <trkpt lat="41.9788798783" lon="-6.1582109984">
        <ele>798.03</ele>
        <time>2020-08-11T07:07:55Z</time>
      </trkpt>
      <trkpt lat="41.9789493643" lon="-6.1585753597">
        <ele>797.07</ele>
        <time>2020-08-11T07:08:03Z</time>
      </trkpt>
      <trkpt lat="41.9790366199" lon="-6.1588502862">
        <ele>796.11</ele>
        <time>2020-08-11T07:08:09Z</time>
      </trkpt>
      <trkpt lat="41.9790444151" lon="-6.1589083727">
        <ele>795.63</ele>
        <time>2020-08-11T07:08:10Z</time>
      </trkpt>
      <trkpt lat="41.9790480193" lon="-6.1589773558">
        <ele>795.15</ele>
        <time>2020-08-11T07:08:11Z</time>
      </trkpt>
      <trkpt lat="41.9790461753" lon="-6.1590494402">
        <ele>794.67</ele>
        <time>2020-08-11T07:08:12Z</time>
      </trkpt>
      <trkpt lat="41.9790440798" lon="-6.1591323372">
        <ele>794.67</ele>
        <time>2020-08-11T07:08:13Z</time>
      </trkpt>
      <trkpt lat="41.9790864084" lon="-6.1598240118">
        <ele>793.22</ele>
        <time>2020-08-11T07:08:21Z</time>
      </trkpt>
      <trkpt lat="41.9791263063" lon="-6.1601948272">
        <ele>793.22</ele>
        <time>2020-08-11T07:08:26Z</time>
      </trkpt>
      <trkpt lat="41.9790776074" lon="-6.1607013457">
        <ele>794.19</ele>
        <time>2020-08-11T07:08:34Z</time>
      </trkpt>
      <trkpt lat="41.9790610112" lon="-6.1612106301">
        <ele>793.71</ele>
        <time>2020-08-11T07:08:42Z</time>
      </trkpt>
      <trkpt lat="41.9790309202" lon="-6.1614494305">
        <ele>793.71</ele>
        <time>2020-08-11T07:08:46Z</time>
      </trkpt>
      <trkpt lat="41.9790204428" lon="-6.1615040805">
        <ele>794.19</ele>
        <time>2020-08-11T07:08:47Z</time>
      </trkpt>
      <trkpt lat="41.9790084567" lon="-6.1615622509">
        <ele>794.67</ele>
        <time>2020-08-11T07:08:48Z</time>
      </trkpt>
      <trkpt lat="41.9789550640" lon="-6.1619251873">
        <ele>795.63</ele>
        <time>2020-08-11T07:08:55Z</time>
      </trkpt>
      <trkpt lat="41.9789568242" lon="-6.1620936636">
        <ele>795.63</ele>
        <time>2020-08-11T07:09:01Z</time>
      </trkpt>
      <trkpt lat="41.9789501186" lon="-6.1621059850">
        <ele>795.63</ele>
        <time>2020-08-11T07:09:02Z</time>
      </trkpt>
      <trkpt lat="41.9789405633" lon="-6.1621162109">
        <ele>795.63</ele>
        <time>2020-08-11T07:09:03Z</time>
      </trkpt>
      <trkpt lat="41.9788765255" lon="-6.1621487327">
        <ele>795.15</ele>
        <time>2020-08-11T07:09:08Z</time>
      </trkpt>
      <trkpt lat="41.9788651261" lon="-6.1621395964">
        <ele>794.67</ele>
        <time>2020-08-11T07:09:09Z</time>
      </trkpt>
      <trkpt lat="41.9788440038" lon="-6.1621208210">
        <ele>793.71</ele>
        <time>2020-08-11T07:09:15Z</time>
      </trkpt>
      <trkpt lat="41.9788465183" lon="-6.1621160433">
        <ele>793.22</ele>
        <time>2020-08-11T07:09:27Z</time>
      </trkpt>
      <trkpt lat="41.9788506255" lon="-6.1621234193">
        <ele>793.71</ele>
        <time>2020-08-11T07:09:48Z</time>
      </trkpt>
      <trkpt lat="41.9788469374" lon="-6.1621203180">
        <ele>794.19</ele>
        <time>2020-08-11T07:10:02Z</time>
      </trkpt>
      <trkpt lat="41.9788434170" lon="-6.1621048953">
        <ele>792.74</ele>
        <time>2020-08-11T07:10:23Z</time>
      </trkpt>
      <trkpt lat="41.9788534753" lon="-6.1620883830">
        <ele>791.78</ele>
        <time>2020-08-11T07:10:43Z</time>
      </trkpt>
      <trkpt lat="41.9788559899" lon="-6.1620921548">
        <ele>792.26</ele>
        <time>2020-08-11T07:10:59Z</time>
      </trkpt>
      <trkpt lat="41.9788622763" lon="-6.1620939989">
        <ele>792.26</ele>
        <time>2020-08-11T07:11:23Z</time>
      </trkpt>
      <trkpt lat="41.9788597617" lon="-6.1621080805">
        <ele>791.78</ele>
        <time>2020-08-11T07:11:41Z</time>
      </trkpt>
      <trkpt lat="41.9788574148" lon="-6.1621157918">
        <ele>791.30</ele>
        <time>2020-08-11T07:11:55Z</time>
      </trkpt>
      <trkpt lat="41.9788512960" lon="-6.1620994471">
        <ele>791.78</ele>
        <time>2020-08-11T07:12:21Z</time>
      </trkpt>
      <trkpt lat="41.9788486976" lon="-6.1621020455">
        <ele>792.26</ele>
        <time>2020-08-11T07:12:44Z</time>
      </trkpt>
      <trkpt lat="41.9788488653" lon="-6.1621086672">
        <ele>792.26</ele>
        <time>2020-08-11T07:13:01Z</time>
      </trkpt>
      <trkpt lat="41.9788459316" lon="-6.1620925739">
        <ele>792.26</ele>
        <time>2020-08-11T07:13:21Z</time>
      </trkpt>
      <trkpt lat="41.9788424112" lon="-6.1620878801">
        <ele>791.78</ele>
        <time>2020-08-11T07:13:38Z</time>
      </trkpt>
      <trkpt lat="41.9788502064" lon="-6.1620950047">
        <ele>792.74</ele>
        <time>2020-08-11T07:13:52Z</time>
      </trkpt>
      <trkpt lat="41.9788516313" lon="-6.1620958429">
        <ele>793.71</ele>
        <time>2020-08-11T07:14:11Z</time>
      </trkpt>
      <trkpt lat="41.9788531400" lon="-6.1620983575">
        <ele>794.67</ele>
        <time>2020-08-11T07:14:30Z</time>
      </trkpt>
      <trkpt lat="41.9788554031" lon="-6.1621059850">
        <ele>794.67</ele>
        <time>2020-08-11T07:14:52Z</time>
      </trkpt>
      <trkpt lat="41.9788522180" lon="-6.1621016264">
        <ele>793.22</ele>
        <time>2020-08-11T07:15:13Z</time>
      </trkpt>
      <trkpt lat="41.9788597617" lon="-6.1621107627">
        <ele>793.22</ele>
        <time>2020-08-11T07:15:30Z</time>
      </trkpt>
      <trkpt lat="41.9788624439" lon="-6.1621121876">
        <ele>793.71</ele>
        <time>2020-08-11T07:15:48Z</time>
      </trkpt>
      <trkpt lat="41.9788641203" lon="-6.1621192284">
        <ele>792.74</ele>
        <time>2020-08-11T07:16:09Z</time>
      </trkpt>
      <trkpt lat="41.9788645394" lon="-6.1621079128">
        <ele>792.26</ele>
        <time>2020-08-11T07:16:30Z</time>
      </trkpt>
      <trkpt lat="41.9788617734" lon="-6.1621183064">
        <ele>792.26</ele>
        <time>2020-08-11T07:16:52Z</time>
      </trkpt>
      <trkpt lat="41.9788572472" lon="-6.1621197313">
        <ele>791.78</ele>
        <time>2020-08-11T07:17:11Z</time>
      </trkpt>
      <trkpt lat="41.9788607676" lon="-6.1621235032">
        <ele>791.30</ele>
        <time>2020-08-11T07:17:25Z</time>
      </trkpt>
      <trkpt lat="41.9788548164" lon="-6.1621193960">
        <ele>791.30</ele>
        <time>2020-08-11T07:17:41Z</time>
      </trkpt>
      <trkpt lat="41.9788542297" lon="-6.1621157080">
        <ele>790.82</ele>
        <time>2020-08-11T07:17:57Z</time>
      </trkpt>
      <trkpt lat="41.9788557384" lon="-6.1621027160">
        <ele>790.82</ele>
        <time>2020-08-11T07:18:15Z</time>
      </trkpt>
      <trkpt lat="41.9788535591" lon="-6.1620982736">
        <ele>791.30</ele>
        <time>2020-08-11T07:18:33Z</time>
      </trkpt>
      <trkpt lat="41.9788552355" lon="-6.1620926578">
        <ele>791.78</ele>
        <time>2020-08-11T07:18:47Z</time>
      </trkpt>
      <trkpt lat="41.9788562413" lon="-6.1620971840">
        <ele>791.30</ele>
        <time>2020-08-11T07:19:03Z</time>
      </trkpt>
      <trkpt lat="41.9788518827" lon="-6.1621120200">
        <ele>790.34</ele>
        <time>2020-08-11T07:19:20Z</time>
      </trkpt>
      <trkpt lat="41.9788502902" lon="-6.1621149536">
        <ele>790.34</ele>
        <time>2020-08-11T07:19:37Z</time>
      </trkpt>
      <trkpt lat="41.9788524695" lon="-6.1620970163">
        <ele>790.34</ele>
        <time>2020-08-11T07:19:58Z</time>
      </trkpt>
      <trkpt lat="41.9788551517" lon="-6.1621038895">
        <ele>790.82</ele>
        <time>2020-08-11T07:20:16Z</time>
      </trkpt>
      <trkpt lat="41.9788489491" lon="-6.1621045601">
        <ele>791.30</ele>
        <time>2020-08-11T07:20:30Z</time>
      </trkpt>
      <trkpt lat="41.9788454287" lon="-6.1621096730">
        <ele>791.78</ele>
        <time>2020-08-11T07:20:48Z</time>
      </trkpt>
      <trkpt lat="41.9788501225" lon="-6.1621152051">
        <ele>791.30</ele>
        <time>2020-08-11T07:21:02Z</time>
      </trkpt>
      <trkpt lat="41.9788492005" lon="-6.1621179711">
        <ele>791.78</ele>
        <time>2020-08-11T07:21:13Z</time>
      </trkpt>
      <trkpt lat="41.9788513798" lon="-6.1621193122">
        <ele>792.26</ele>
        <time>2020-08-11T07:21:28Z</time>
      </trkpt>
      <trkpt lat="41.9788511284" lon="-6.1621149536">
        <ele>793.22</ele>
        <time>2020-08-11T07:21:47Z</time>
      </trkpt>
      <trkpt lat="41.9788634498" lon="-6.1620960943">
        <ele>793.71</ele>
        <time>2020-08-11T07:21:52Z</time>
      </trkpt>
      <trkpt lat="41.9788682275" lon="-6.1620923225">
        <ele>793.71</ele>
        <time>2020-08-11T07:22:00Z</time>
      </trkpt>
      <trkpt lat="41.9788848236" lon="-6.1620906461">
        <ele>793.71</ele>
        <time>2020-08-11T07:22:02Z</time>
      </trkpt>
      <trkpt lat="41.9789553154" lon="-6.1621140316">
        <ele>794.67</ele>
        <time>2020-08-11T07:22:08Z</time>
      </trkpt>
      <trkpt lat="41.9789755996" lon="-6.1621837690">
        <ele>794.67</ele>
        <time>2020-08-11T07:22:12Z</time>
      </trkpt>
      <trkpt lat="41.9790672138" lon="-6.1624139361">
        <ele>794.67</ele>
        <time>2020-08-11T07:22:21Z</time>
      </trkpt>
      <trkpt lat="41.9791106321" lon="-6.1626849230">
        <ele>793.71</ele>
        <time>2020-08-11T07:22:27Z</time>
      </trkpt>
      <trkpt lat="41.9791230373" lon="-6.1628758628">
        <ele>793.71</ele>
        <time>2020-08-11T07:22:30Z</time>
      </trkpt>
      <trkpt lat="41.9791923556" lon="-6.1633133981">
        <ele>792.26</ele>
        <time>2020-08-11T07:22:38Z</time>
      </trkpt>
      <trkpt lat="41.9793165755" lon="-6.1636405438">
        <ele>792.74</ele>
        <time>2020-08-11T07:22:45Z</time>
      </trkpt>
      <trkpt lat="41.9793701358" lon="-6.1638365127">
        <ele>793.71</ele>
        <time>2020-08-11T07:22:50Z</time>
      </trkpt>
      <trkpt lat="41.9793629274" lon="-6.1638723873">
        <ele>793.71</ele>
        <time>2020-08-11T07:22:51Z</time>
      </trkpt>
      <trkpt lat="41.9793511089" lon="-6.1638997123">
        <ele>794.19</ele>
        <time>2020-08-11T07:22:52Z</time>
      </trkpt>
      <trkpt lat="41.9793350995" lon="-6.1639286298">
        <ele>794.67</ele>
        <time>2020-08-11T07:22:53Z</time>
      </trkpt>
      <trkpt lat="41.9793208502" lon="-6.1639647558">
        <ele>794.67</ele>
        <time>2020-08-11T07:22:54Z</time>
      </trkpt>
      <trkpt lat="41.9793193415" lon="-6.1640163884">
        <ele>794.67</ele>
        <time>2020-08-11T07:22:55Z</time>
      </trkpt>
      <trkpt lat="41.9793299865" lon="-6.1640596390">
        <ele>794.19</ele>
        <time>2020-08-11T07:22:56Z</time>
      </trkpt>
      <trkpt lat="41.9793470856" lon="-6.1641049013">
        <ele>794.67</ele>
        <time>2020-08-11T07:22:57Z</time>
      </trkpt>
      <trkpt lat="41.9793692138" lon="-6.1641515885">
        <ele>794.67</ele>
        <time>2020-08-11T07:22:58Z</time>
      </trkpt>
      <trkpt lat="41.9795573037" lon="-6.1645628884">
        <ele>794.67</ele>
        <time>2020-08-11T07:23:07Z</time>
      </trkpt>
      <trkpt lat="41.9797182363" lon="-6.1649222206">
        <ele>794.67</ele>
        <time>2020-08-11T07:23:15Z</time>
      </trkpt>
      <trkpt lat="41.9798972737" lon="-6.1653713230">
        <ele>794.67</ele>
        <time>2020-08-11T07:23:25Z</time>
      </trkpt>
      <trkpt lat="41.9800499082" lon="-6.1657800246">
        <ele>795.15</ele>
        <time>2020-08-11T07:23:34Z</time>
      </trkpt>
      <trkpt lat="41.9802017882" lon="-6.1660535261">
        <ele>795.63</ele>
        <time>2020-08-11T07:23:42Z</time>
      </trkpt>
      <trkpt lat="41.9802773092" lon="-6.1662986968">
        <ele>796.59</ele>
        <time>2020-08-11T07:23:48Z</time>
      </trkpt>
      <trkpt lat="41.9803127646" lon="-6.1667828355">
        <ele>798.03</ele>
        <time>2020-08-11T07:23:58Z</time>
      </trkpt>
      <trkpt lat="41.9803455379" lon="-6.1671990808">
        <ele>799.47</ele>
        <time>2020-08-11T07:24:08Z</time>
      </trkpt>
      <trkpt lat="41.9803120103" lon="-6.1675390508">
        <ele>799.95</ele>
        <time>2020-08-11T07:24:17Z</time>
      </trkpt>
      <trkpt lat="41.9802012853" lon="-6.1678050086">
        <ele>801.88</ele>
        <time>2020-08-11T07:24:26Z</time>
      </trkpt>
      <trkpt lat="41.9800717011" lon="-6.1680452339">
        <ele>804.28</ele>
        <time>2020-08-11T07:24:35Z</time>
      </trkpt>
      <trkpt lat="41.9799087569" lon="-6.1683342420">
        <ele>806.20</ele>
        <time>2020-08-11T07:24:47Z</time>
      </trkpt>
      <trkpt lat="41.9798018876" lon="-6.1685111001">
        <ele>808.13</ele>
        <time>2020-08-11T07:24:55Z</time>
      </trkpt>
      <trkpt lat="41.9796613231" lon="-6.1687354837">
        <ele>808.61</ele>
        <time>2020-08-11T07:25:06Z</time>
      </trkpt>
      <trkpt lat="41.9795310684" lon="-6.1689270940">
        <ele>810.05</ele>
        <time>2020-08-11T07:25:16Z</time>
      </trkpt>
      <trkpt lat="41.9793957006" lon="-6.1691324506">
        <ele>811.97</ele>
        <time>2020-08-11T07:25:27Z</time>
      </trkpt>
      <trkpt lat="41.9793105405" lon="-6.1693321913">
        <ele>813.41</ele>
        <time>2020-08-11T07:25:36Z</time>
      </trkpt>
      <trkpt lat="41.9792233687" lon="-6.1695290823">
        <ele>813.89</ele>
        <time>2020-08-11T07:25:46Z</time>
      </trkpt>
      <trkpt lat="41.9792127237" lon="-6.1695538927">
        <ele>814.37</ele>
        <time>2020-08-11T07:25:48Z</time>
      </trkpt>
      <trkpt lat="41.9792123884" lon="-6.1695687287">
        <ele>814.37</ele>
        <time>2020-08-11T07:25:49Z</time>
      </trkpt>
      <trkpt lat="41.9792172499" lon="-6.1695852410">
        <ele>814.37</ele>
        <time>2020-08-11T07:25:50Z</time>
      </trkpt>
      <trkpt lat="41.9792773481" lon="-6.1696458422">
        <ele>813.41</ele>
        <time>2020-08-11T07:25:54Z</time>
      </trkpt>
      <trkpt lat="41.9794349279" lon="-6.1698401347">
        <ele>811.01</ele>
        <time>2020-08-11T07:26:02Z</time>
      </trkpt>
      <trkpt lat="41.9794781785" lon="-6.1702164821">
        <ele>810.53</ele>
        <time>2020-08-11T07:26:10Z</time>
      </trkpt>
      <trkpt lat="41.9795202557" lon="-6.1705680192">
        <ele>808.61</ele>
        <time>2020-08-11T07:26:17Z</time>
      </trkpt>
      <trkpt lat="41.9795569684" lon="-6.1710410099">
        <ele>807.16</ele>
        <time>2020-08-11T07:26:25Z</time>
      </trkpt>
      <trkpt lat="41.9795716368" lon="-6.1710915528">
        <ele>807.16</ele>
        <time>2020-08-11T07:26:26Z</time>
      </trkpt>
      <trkpt lat="41.9795978721" lon="-6.1711361445">
        <ele>807.16</ele>
        <time>2020-08-11T07:26:27Z</time>
      </trkpt>
      <trkpt lat="41.9796585571" lon="-6.1712081451">
        <ele>806.68</ele>
        <time>2020-08-11T07:26:29Z</time>
      </trkpt>
      <trkpt lat="41.9796843734" lon="-6.1712526530">
        <ele>806.68</ele>
        <time>2020-08-11T07:26:30Z</time>
      </trkpt>
      <trkpt lat="41.9798122812" lon="-6.1715892702">
        <ele>806.20</ele>
        <time>2020-08-11T07:26:38Z</time>
      </trkpt>
      <trkpt lat="41.9799986947" lon="-6.1717803776">
        <ele>808.13</ele>
        <time>2020-08-11T07:26:45Z</time>
      </trkpt>
      <trkpt lat="41.9801143650" lon="-6.1719734967">
        <ele>809.09</ele>
        <time>2020-08-11T07:26:53Z</time>
      </trkpt>
      <trkpt lat="41.9801334757" lon="-6.1719817109">
        <ele>809.09</ele>
        <time>2020-08-11T07:27:00Z</time>
      </trkpt>
      <trkpt lat="41.9801466353" lon="-6.1719804537">
        <ele>811.01</ele>
        <time>2020-08-11T07:27:22Z</time>
      </trkpt>
      <trkpt lat="41.9801368285" lon="-6.1719776038">
        <ele>808.13</ele>
        <time>2020-08-11T07:27:39Z</time>
      </trkpt>
      <trkpt lat="41.9801516645" lon="-6.1719949543">
        <ele>807.64</ele>
        <time>2020-08-11T07:27:41Z</time>
      </trkpt>
      <trkpt lat="41.9802512415" lon="-6.1721791048">
        <ele>808.13</ele>
        <time>2020-08-11T07:27:49Z</time>
      </trkpt>
      <trkpt lat="41.9803532492" lon="-6.1723591480">
        <ele>808.61</ele>
        <time>2020-08-11T07:27:56Z</time>
      </trkpt>
      <trkpt lat="41.9804446120" lon="-6.1725196615">
        <ele>809.09</ele>
        <time>2020-08-11T07:28:03Z</time>
      </trkpt>
      <trkpt lat="41.9805592764" lon="-6.1727271974">
        <ele>810.05</ele>
        <time>2020-08-11T07:28:11Z</time>
      </trkpt>
      <trkpt lat="41.9806945603" lon="-6.1729902215">
        <ele>810.53</ele>
        <time>2020-08-11T07:28:21Z</time>
      </trkpt>
      <trkpt lat="41.9808231387" lon="-6.1733237375">
        <ele>811.49</ele>
        <time>2020-08-11T07:28:32Z</time>
      </trkpt>
      <trkpt lat="41.9809186924" lon="-6.1735504679">
        <ele>811.49</ele>
        <time>2020-08-11T07:28:40Z</time>
      </trkpt>
      <trkpt lat="41.9810322672" lon="-6.1738129891">
        <ele>811.49</ele>
        <time>2020-08-11T07:28:49Z</time>
      </trkpt>
      <trkpt lat="41.9811776094" lon="-6.1740927771">
        <ele>811.01</ele>
        <time>2020-08-11T07:28:59Z</time>
      </trkpt>
      <trkpt lat="41.9812879153" lon="-6.1742692161">
        <ele>811.01</ele>
        <time>2020-08-11T07:29:06Z</time>
      </trkpt>
      <trkpt lat="41.9813813735" lon="-6.1744379438">
        <ele>811.01</ele>
        <time>2020-08-11T07:29:12Z</time>
      </trkpt>
      <trkpt lat="41.9814941939" lon="-6.1746912450">
        <ele>810.05</ele>
        <time>2020-08-11T07:29:20Z</time>
      </trkpt>
      <trkpt lat="41.9816408772" lon="-6.1749852821">
        <ele>810.05</ele>
        <time>2020-08-11T07:29:30Z</time>
      </trkpt>
      <trkpt lat="41.9817573018" lon="-6.1751609668">
        <ele>809.57</ele>
        <time>2020-08-11T07:29:37Z</time>
      </trkpt>
      <trkpt lat="41.9818907417" lon="-6.1753150262">
        <ele>809.09</ele>
        <time>2020-08-11T07:29:45Z</time>
      </trkpt>
      <trkpt lat="41.9819323160" lon="-6.1753704306">
        <ele>809.09</ele>
        <time>2020-08-11T07:29:51Z</time>
      </trkpt>
      <trkpt lat="41.9820606429" lon="-6.1755503062">
        <ele>808.61</ele>
        <time>2020-08-11T07:29:59Z</time>
      </trkpt>
      <trkpt lat="41.9822212402" lon="-6.1757632904">
        <ele>808.13</ele>
        <time>2020-08-11T07:30:08Z</time>
      </trkpt>
      <trkpt lat="41.9823643193" lon="-6.1758781224">
        <ele>808.61</ele>
        <time>2020-08-11T07:30:14Z</time>
      </trkpt>
      <trkpt lat="41.9825315382" lon="-6.1760315113">
        <ele>809.09</ele>
        <time>2020-08-11T07:30:22Z</time>
      </trkpt>
      <trkpt lat="41.9826845080" lon="-6.1762083694">
        <ele>810.05</ele>
        <time>2020-08-11T07:30:30Z</time>
      </trkpt>
      <trkpt lat="41.9828400761" lon="-6.1764083616">
        <ele>810.53</ele>
        <time>2020-08-11T07:30:39Z</time>
      </trkpt>
      <trkpt lat="41.9829536509" lon="-6.1765913386">
        <ele>810.05</ele>
        <time>2020-08-11T07:30:46Z</time>
      </trkpt>
      <trkpt lat="41.9831132423" lon="-6.1768391076">
        <ele>810.05</ele>
        <time>2020-08-11T07:30:55Z</time>
      </trkpt>
      <trkpt lat="41.9831755199" lon="-6.1769396905">
        <ele>810.05</ele>
        <time>2020-08-11T07:31:00Z</time>
      </trkpt>
      <trkpt lat="41.9833034277" lon="-6.1771279480">
        <ele>810.05</ele>
        <time>2020-08-11T07:31:08Z</time>
      </trkpt>
      <trkpt lat="41.9834405556" lon="-6.1773145292">
        <ele>811.01</ele>
        <time>2020-08-11T07:31:16Z</time>
      </trkpt>
      <trkpt lat="41.9836047571" lon="-6.1775545869">
        <ele>811.01</ele>
        <time>2020-08-11T07:31:25Z</time>
      </trkpt>
      <trkpt lat="41.9837946910" lon="-6.1778109893">
        <ele>811.01</ele>
        <time>2020-08-11T07:31:34Z</time>
      </trkpt>
      <trkpt lat="41.9839222636" lon="-6.1780241411">
        <ele>811.01</ele>
        <time>2020-08-11T07:31:41Z</time>
      </trkpt>
      <trkpt lat="41.9840608165" lon="-6.1782258097">
        <ele>810.53</ele>
        <time>2020-08-11T07:31:50Z</time>
      </trkpt>
      <trkpt lat="41.9841618184" lon="-6.1783767678">
        <ele>810.05</ele>
        <time>2020-08-11T07:31:58Z</time>
      </trkpt>
      <trkpt lat="41.9843157101" lon="-6.1785886623">
        <ele>810.53</ele>
        <time>2020-08-11T07:32:07Z</time>
      </trkpt>
      <trkpt lat="41.9843426999" lon="-6.1786194239">
        <ele>810.53</ele>
        <time>2020-08-11T07:32:09Z</time>
      </trkpt>
      <trkpt lat="41.9844109286" lon="-6.1786957830">
        <ele>810.53</ele>
        <time>2020-08-11T07:32:16Z</time>
      </trkpt>
      <trkpt lat="41.9844982680" lon="-6.1788208410">
        <ele>810.53</ele>
        <time>2020-08-11T07:32:23Z</time>
      </trkpt>
      <trkpt lat="41.9846510701" lon="-6.1790485773">
        <ele>811.49</ele>
        <time>2020-08-11T07:32:33Z</time>
      </trkpt>
      <trkpt lat="41.9847633038" lon="-6.1792500783">
        <ele>811.97</ele>
        <time>2020-08-11T07:32:42Z</time>
      </trkpt>
      <trkpt lat="41.9849061314" lon="-6.1794845201">
        <ele>811.97</ele>
        <time>2020-08-11T07:32:51Z</time>
      </trkpt>
      <trkpt lat="41.9850042835" lon="-6.1797013599">
        <ele>811.97</ele>
        <time>2020-08-11T07:32:59Z</time>
      </trkpt>
      <trkpt lat="41.9850979932" lon="-6.1798829958">
        <ele>812.45</ele>
        <time>2020-08-11T07:33:07Z</time>
      </trkpt>
      <trkpt lat="41.9851901941" lon="-6.1801202036">
        <ele>812.45</ele>
        <time>2020-08-11T07:33:17Z</time>
      </trkpt>
      <trkpt lat="41.9852584228" lon="-6.1803860776">
        <ele>812.45</ele>
        <time>2020-08-11T07:33:26Z</time>
      </trkpt>
      <trkpt lat="41.9853420742" lon="-6.1806554720">
        <ele>812.93</ele>
        <time>2020-08-11T07:33:35Z</time>
      </trkpt>
      <trkpt lat="41.9854025915" lon="-6.1808634270">
        <ele>813.41</ele>
        <time>2020-08-11T07:33:43Z</time>
      </trkpt>
      <trkpt lat="41.9854786154" lon="-6.1810041592">
        <ele>812.93</ele>
        <time>2020-08-11T07:33:50Z</time>
      </trkpt>
      <trkpt lat="41.9856044278" lon="-6.1812429596">
        <ele>813.89</ele>
        <time>2020-08-11T07:34:00Z</time>
      </trkpt>
      <trkpt lat="41.9857206848" lon="-6.1814804189">
        <ele>814.37</ele>
        <time>2020-08-11T07:34:08Z</time>
      </trkpt>
      <trkpt lat="41.9858413842" lon="-6.1817272659">
        <ele>814.37</ele>
        <time>2020-08-11T07:34:16Z</time>
      </trkpt>
      <trkpt lat="41.9859692920" lon="-6.1820532382">
        <ele>814.85</ele>
        <time>2020-08-11T07:34:27Z</time>
      </trkpt>
      <trkpt lat="41.9860855490" lon="-6.1822701618">
        <ele>814.85</ele>
        <time>2020-08-11T07:34:35Z</time>
      </trkpt>
      <trkpt lat="41.9862084277" lon="-6.1825262289">
        <ele>815.82</ele>
        <time>2020-08-11T07:34:45Z</time>
      </trkpt>
      <trkpt lat="41.9862991199" lon="-6.1827464215">
        <ele>815.82</ele>
        <time>2020-08-11T07:34:54Z</time>
      </trkpt>
      <trkpt lat="41.9864033908" lon="-6.1830353457">
        <ele>816.30</ele>
        <time>2020-08-11T07:35:04Z</time>
      </trkpt>
      <trkpt lat="41.9864988606" lon="-6.1832850426">
        <ele>817.26</ele>
        <time>2020-08-11T07:35:12Z</time>
      </trkpt>
      <trkpt lat="41.9865682628" lon="-6.1835302133">
        <ele>816.78</ele>
        <time>2020-08-11T07:35:20Z</time>
      </trkpt>
      <trkpt lat="41.9866343122" lon="-6.1837786529">
        <ele>816.78</ele>
        <time>2020-08-11T07:35:28Z</time>
      </trkpt>
      <trkpt lat="41.9867151976" lon="-6.1839995161">
        <ele>816.78</ele>
        <time>2020-08-11T07:35:36Z</time>
      </trkpt>
      <trkpt lat="41.9867717754" lon="-6.1841752008">
        <ele>816.78</ele>
        <time>2020-08-11T07:35:43Z</time>
      </trkpt>
      <trkpt lat="41.9868446980" lon="-6.1844215449">
        <ele>817.26</ele>
        <time>2020-08-11T07:35:53Z</time>
      </trkpt>
      <trkpt lat="41.9869093224" lon="-6.1846577469">
        <ele>817.74</ele>
        <time>2020-08-11T07:36:02Z</time>
      </trkpt>
      <trkpt lat="41.9869678281" lon="-6.1849214416">
        <ele>818.22</ele>
        <time>2020-08-11T07:36:13Z</time>
      </trkpt>
      <trkpt lat="41.9870146830" lon="-6.1851392034">
        <ele>818.22</ele>
        <time>2020-08-11T07:36:20Z</time>
      </trkpt>
      <trkpt lat="41.9870677404" lon="-6.1853598151">
        <ele>818.22</ele>
        <time>2020-08-11T07:36:27Z</time>
      </trkpt>
      <trkpt lat="41.9870939758" lon="-6.1854813527">
        <ele>818.70</ele>
        <time>2020-08-11T07:36:33Z</time>
      </trkpt>
      <trkpt lat="41.9871031959" lon="-6.1854996253">
        <ele>818.70</ele>
        <time>2020-08-11T07:36:34Z</time>
      </trkpt>
      <trkpt lat="41.9871130027" lon="-6.1855163891">
        <ele>818.70</ele>
        <time>2020-08-11T07:36:35Z</time>
      </trkpt>
      <trkpt lat="41.9871197920" lon="-6.1855360027">
        <ele>818.70</ele>
        <time>2020-08-11T07:36:36Z</time>
      </trkpt>
      <trkpt lat="41.9871265814" lon="-6.1855630763">
        <ele>818.70</ele>
        <time>2020-08-11T07:36:37Z</time>
      </trkpt>
      <trkpt lat="41.9871330354" lon="-6.1855923291">
        <ele>818.70</ele>
        <time>2020-08-11T07:36:38Z</time>
      </trkpt>
      <trkpt lat="41.9872093108" lon="-6.1859166250">
        <ele>819.18</ele>
        <time>2020-08-11T07:36:48Z</time>
      </trkpt>
      <trkpt lat="41.9873119891" lon="-6.1862210557">
        <ele>820.62</ele>
        <time>2020-08-11T07:36:58Z</time>
      </trkpt>
      <trkpt lat="41.9873838220" lon="-6.1864852533">
        <ele>822.06</ele>
        <time>2020-08-11T07:37:07Z</time>
      </trkpt>
      <trkpt lat="41.9874227140" lon="-6.1866585072">
        <ele>823.03</ele>
        <time>2020-08-11T07:37:15Z</time>
      </trkpt>
      <trkpt lat="41.9874304254" lon="-6.1866753548">
        <ele>822.55</ele>
        <time>2020-08-11T07:37:20Z</time>
      </trkpt>
      <trkpt lat="41.9874396455" lon="-6.1867294181">
        <ele>822.06</ele>
        <time>2020-08-11T07:37:30Z</time>
      </trkpt>
      <trkpt lat="41.9874932058" lon="-6.1868818849">
        <ele>823.51</ele>
        <time>2020-08-11T07:37:39Z</time>
      </trkpt>
      <trkpt lat="41.9875193574" lon="-6.1869557295">
        <ele>823.51</ele>
        <time>2020-08-11T07:37:47Z</time>
      </trkpt>
      <trkpt lat="41.9875353668" lon="-6.1869900953">
        <ele>824.47</ele>
        <time>2020-08-11T07:37:50Z</time>
      </trkpt>
      <trkpt lat="41.9875402283" lon="-6.1870050151">
        <ele>824.47</ele>
        <time>2020-08-11T07:37:51Z</time>
      </trkpt>
      <trkpt lat="41.9875476044" lon="-6.1870226171">
        <ele>824.47</ele>
        <time>2020-08-11T07:37:52Z</time>
      </trkpt>
      <trkpt lat="41.9876494445" lon="-6.1871694680">
        <ele>824.95</ele>
        <time>2020-08-11T07:37:59Z</time>
      </trkpt>
      <trkpt lat="41.9878625125" lon="-6.1874479987">
        <ele>825.43</ele>
        <time>2020-08-11T07:38:09Z</time>
      </trkpt>
      <trkpt lat="41.9880462438" lon="-6.1877007131">
        <ele>825.43</ele>
        <time>2020-08-11T07:38:18Z</time>
      </trkpt>
      <trkpt lat="41.9882219285" lon="-6.1879850272">
        <ele>825.91</ele>
        <time>2020-08-11T07:38:28Z</time>
      </trkpt>
      <trkpt lat="41.9882839546" lon="-6.1881502345">
        <ele>825.43</ele>
        <time>2020-08-11T07:38:35Z</time>
      </trkpt>
      <trkpt lat="41.9883925840" lon="-6.1883567646">
        <ele>824.95</ele>
        <time>2020-08-11T07:38:44Z</time>
      </trkpt>
      <trkpt lat="41.9885047339" lon="-6.1885438487">
        <ele>824.95</ele>
        <time>2020-08-11T07:38:51Z</time>
      </trkpt>
      <trkpt lat="41.9886179734" lon="-6.1887044460">
        <ele>825.43</ele>
        <time>2020-08-11T07:38:59Z</time>
      </trkpt>
      <trkpt lat="41.9887365773" lon="-6.1889246386">
        <ele>826.39</ele>
        <time>2020-08-11T07:39:08Z</time>
      </trkpt>
      <trkpt lat="41.9888775609" lon="-6.1891734973">
        <ele>827.35</ele>
        <time>2020-08-11T07:39:19Z</time>
      </trkpt>
      <trkpt lat="41.9889628049" lon="-6.1893290654">
        <ele>827.35</ele>
        <time>2020-08-11T07:39:26Z</time>
      </trkpt>
      <trkpt lat="41.9890484679" lon="-6.1894973740">
        <ele>828.79</ele>
        <time>2020-08-11T07:39:34Z</time>
      </trkpt>
      <trkpt lat="41.9891482126" lon="-6.1896690354">
        <ele>829.76</ele>
        <time>2020-08-11T07:39:42Z</time>
      </trkpt>
      <trkpt lat="41.9893145096" lon="-6.1899482366">
        <ele>830.24</ele>
        <time>2020-08-11T07:39:52Z</time>
      </trkpt>
      <trkpt lat="41.9894015975" lon="-6.1900954228">
        <ele>830.24</ele>
        <time>2020-08-11T07:40:01Z</time>
      </trkpt>
      <trkpt lat="41.9894105662" lon="-6.1901359912">
        <ele>830.24</ele>
        <time>2020-08-11T07:40:08Z</time>
      </trkpt>
      <trkpt lat="41.9894119911" lon="-6.1901505757">
        <ele>830.72</ele>
        <time>2020-08-11T07:40:09Z</time>
      </trkpt>
      <trkpt lat="41.9894188643" lon="-6.1901632324">
        <ele>830.72</ele>
        <time>2020-08-11T07:40:10Z</time>
      </trkpt>
      <trkpt lat="41.9895118196" lon="-6.1902908050">
        <ele>831.20</ele>
        <time>2020-08-11T07:40:17Z</time>
      </trkpt>
      <trkpt lat="41.9895792101" lon="-6.1904376559">
        <ele>832.16</ele>
        <time>2020-08-11T07:40:25Z</time>
      </trkpt>
      <trkpt lat="41.9896467682" lon="-6.1905821599">
        <ele>833.12</ele>
        <time>2020-08-11T07:40:33Z</time>
      </trkpt>
      <trkpt lat="41.9897491951" lon="-6.1907802243">
        <ele>833.12</ele>
        <time>2020-08-11T07:40:42Z</time>
      </trkpt>
      <trkpt lat="41.9898368698" lon="-6.1910125706">
        <ele>835.04</ele>
        <time>2020-08-11T07:40:52Z</time>
      </trkpt>
      <trkpt lat="41.9899661187" lon="-6.1912914366">
        <ele>835.04</ele>
        <time>2020-08-11T07:41:03Z</time>
      </trkpt>
      <trkpt lat="41.9900874887" lon="-6.1915490963">
        <ele>836.48</ele>
        <time>2020-08-11T07:41:13Z</time>
      </trkpt>
      <trkpt lat="41.9901931006" lon="-6.1917793471">
        <ele>836.48</ele>
        <time>2020-08-11T07:41:21Z</time>
      </trkpt>
      <trkpt lat="41.9903284684" lon="-6.1920976918">
        <ele>837.45</ele>
        <time>2020-08-11T07:41:31Z</time>
      </trkpt>
      <trkpt lat="41.9904467370" lon="-6.1923091672">
        <ele>836.48</ele>
        <time>2020-08-11T07:41:39Z</time>
      </trkpt>
      <trkpt lat="41.9905600604" lon="-6.1925473809">
        <ele>835.04</ele>
        <time>2020-08-11T07:41:48Z</time>
      </trkpt>
      <trkpt lat="41.9906911533" lon="-6.1928306054">
        <ele>834.08</ele>
        <time>2020-08-11T07:41:58Z</time>
      </trkpt>
      <trkpt lat="41.9908279460" lon="-6.1931840703">
        <ele>833.12</ele>
        <time>2020-08-11T07:42:08Z</time>
      </trkpt>
      <trkpt lat="41.9909494836" lon="-6.1935242917">
        <ele>833.12</ele>
        <time>2020-08-11T07:42:17Z</time>
      </trkpt>
      <trkpt lat="41.9910388347" lon="-6.1937409639">
        <ele>833.12</ele>
        <time>2020-08-11T07:42:24Z</time>
      </trkpt>
      <trkpt lat="41.9911248330" lon="-6.1939249467">
        <ele>833.60</ele>
        <time>2020-08-11T07:42:31Z</time>
      </trkpt>
      <trkpt lat="41.9912385754" lon="-6.1941781640">
        <ele>833.60</ele>
        <time>2020-08-11T07:42:39Z</time>
      </trkpt>
      <trkpt lat="41.9913964905" lon="-6.1946150288">
        <ele>833.60</ele>
        <time>2020-08-11T07:42:51Z</time>
      </trkpt>
      <trkpt lat="41.9915272482" lon="-6.1949974112">
        <ele>834.56</ele>
        <time>2020-08-11T07:43:03Z</time>
      </trkpt>
      <trkpt lat="41.9916208740" lon="-6.1953052785">
        <ele>835.52</ele>
        <time>2020-08-11T07:43:13Z</time>
      </trkpt>
      <trkpt lat="41.9916901086" lon="-6.1955426540">
        <ele>835.52</ele>
        <time>2020-08-11T07:43:22Z</time>
      </trkpt>
      <trkpt lat="41.9917427469" lon="-6.1957563087">
        <ele>835.52</ele>
        <time>2020-08-11T07:43:29Z</time>
      </trkpt>
      <trkpt lat="41.9918408152" lon="-6.1961113662">
        <ele>835.04</ele>
        <time>2020-08-11T07:43:39Z</time>
      </trkpt>
      <trkpt lat="41.9919281546" lon="-6.1964073312">
        <ele>835.04</ele>
        <time>2020-08-11T07:43:49Z</time>
      </trkpt>
      <trkpt lat="41.9919596706" lon="-6.1966448743">
        <ele>835.52</ele>
        <time>2020-08-11T07:43:56Z</time>
      </trkpt>
      <trkpt lat="41.9920250494" lon="-6.1969562620">
        <ele>836.96</ele>
        <time>2020-08-11T07:44:06Z</time>
      </trkpt>
      <trkpt lat="41.9920764305" lon="-6.1971543264">
        <ele>837.45</ele>
        <time>2020-08-11T07:44:14Z</time>
      </trkpt>
      <trkpt lat="41.9921217766" lon="-6.1973207071">
        <ele>837.93</ele>
        <time>2020-08-11T07:44:22Z</time>
      </trkpt>
      <trkpt lat="41.9921620097" lon="-6.1974564940">
        <ele>838.89</ele>
        <time>2020-08-11T07:44:29Z</time>
      </trkpt>
      <trkpt lat="41.9922327530" lon="-6.1976367887">
        <ele>839.85</ele>
        <time>2020-08-11T07:44:37Z</time>
      </trkpt>
      <trkpt lat="41.9922802784" lon="-6.1977562308">
        <ele>839.85</ele>
        <time>2020-08-11T07:44:43Z</time>
      </trkpt>
      <trkpt lat="41.9922910072" lon="-6.1977708153">
        <ele>840.33</ele>
        <time>2020-08-11T07:44:44Z</time>
      </trkpt>
      <trkpt lat="41.9922985509" lon="-6.1977888364">
        <ele>840.81</ele>
        <time>2020-08-11T07:44:45Z</time>
      </trkpt>
      <trkpt lat="41.9923081063" lon="-6.1978083663">
        <ele>840.81</ele>
        <time>2020-08-11T07:44:46Z</time>
      </trkpt>
      <trkpt lat="41.9923164882" lon="-6.1978292372">
        <ele>841.29</ele>
        <time>2020-08-11T07:44:47Z</time>
      </trkpt>
      <trkpt lat="41.9923253730" lon="-6.1978503596">
        <ele>841.29</ele>
        <time>2020-08-11T07:44:48Z</time>
      </trkpt>
      <trkpt lat="41.9923352636" lon="-6.1978661176">
        <ele>841.29</ele>
        <time>2020-08-11T07:44:49Z</time>
      </trkpt>
      <trkpt lat="41.9923359342" lon="-6.1978724040">
        <ele>841.29</ele>
        <time>2020-08-11T07:44:55Z</time>
      </trkpt>
      <trkpt lat="41.9923307374" lon="-6.1978687998">
        <ele>842.25</ele>
        <time>2020-08-11T07:45:16Z</time>
      </trkpt>
      <trkpt lat="41.9923336711" lon="-6.1978831328">
        <ele>842.73</ele>
        <time>2020-08-11T07:45:17Z</time>
      </trkpt>
      <trkpt lat="41.9923412986" lon="-6.1978963763">
        <ele>842.73</ele>
        <time>2020-08-11T07:45:18Z</time>
      </trkpt>
      <trkpt lat="41.9924268778" lon="-6.1980561353">
        <ele>843.21</ele>
        <time>2020-08-11T07:45:28Z</time>
      </trkpt>
      <trkpt lat="41.9924680330" lon="-6.1982429679">
        <ele>844.18</ele>
        <time>2020-08-11T07:45:37Z</time>
      </trkpt>
      <trkpt lat="41.9924880657" lon="-6.1983206682">
        <ele>845.14</ele>
        <time>2020-08-11T07:45:42Z</time>
      </trkpt>
      <trkpt lat="41.9924984593" lon="-6.1983362585">
        <ele>845.14</ele>
        <time>2020-08-11T07:45:49Z</time>
      </trkpt>
      <trkpt lat="41.9924940169" lon="-6.1983482447">
        <ele>845.14</ele>
        <time>2020-08-11T07:46:06Z</time>
      </trkpt>
      <trkpt lat="41.9925032370" lon="-6.1983759888">
        <ele>845.14</ele>
        <time>2020-08-11T07:46:08Z</time>
      </trkpt>
      <trkpt lat="41.9925764948" lon="-6.1985288747">
        <ele>845.62</ele>
        <time>2020-08-11T07:46:16Z</time>
      </trkpt>
      <trkpt lat="41.9926462322" lon="-6.1986813415">
        <ele>846.10</ele>
        <time>2020-08-11T07:46:25Z</time>
      </trkpt>
      <trkpt lat="41.9927038997" lon="-6.1989358999">
        <ele>846.58</ele>
        <time>2020-08-11T07:46:35Z</time>
      </trkpt>
      <trkpt lat="41.9927611481" lon="-6.1991768796">
        <ele>846.58</ele>
        <time>2020-08-11T07:46:44Z</time>
      </trkpt>
      <trkpt lat="41.9928076677" lon="-6.1993768718">
        <ele>847.54</ele>
        <time>2020-08-11T07:46:52Z</time>
      </trkpt>
      <trkpt lat="41.9928323105" lon="-6.1996512115">
        <ele>848.50</ele>
        <time>2020-08-11T07:47:02Z</time>
      </trkpt>
      <trkpt lat="41.9928567857" lon="-6.1998719908">
        <ele>849.46</ele>
        <time>2020-08-11T07:47:11Z</time>
      </trkpt>
      <trkpt lat="41.9928828534" lon="-6.2000613380">
        <ele>850.42</ele>
        <time>2020-08-11T07:47:19Z</time>
      </trkpt>
      <trkpt lat="41.9929376710" lon="-6.2002983782">
        <ele>851.38</ele>
        <time>2020-08-11T07:47:30Z</time>
      </trkpt>
      <trkpt lat="41.9929372519" lon="-6.2002969533">
        <ele>850.90</ele>
        <time>2020-08-11T07:47:36Z</time>
      </trkpt>
      <trkpt lat="41.9929535128" lon="-6.2003783416">
        <ele>852.35</ele>
        <time>2020-08-11T07:47:44Z</time>
      </trkpt>
      <trkpt lat="41.9929724559" lon="-6.2004780024">
        <ele>852.83</ele>
        <time>2020-08-11T07:47:53Z</time>
      </trkpt>
      <trkpt lat="41.9930204004" lon="-6.2006325647">
        <ele>853.79</ele>
        <time>2020-08-11T07:48:04Z</time>
      </trkpt>
      <trkpt lat="41.9930659141" lon="-6.2008050643">
        <ele>854.27</ele>
        <time>2020-08-11T07:48:16Z</time>
      </trkpt>
      <trkpt lat="41.9931058958" lon="-6.2009931542">
        <ele>855.71</ele>
        <time>2020-08-11T07:48:29Z</time>
      </trkpt>
      <trkpt lat="41.9931338076" lon="-6.2010987662">
        <ele>856.19</ele>
        <time>2020-08-11T07:48:39Z</time>
      </trkpt>
      <trkpt lat="41.9931181334" lon="-6.2011144403">
        <ele>856.19</ele>
        <time>2020-08-11T07:48:51Z</time>
      </trkpt>
      <trkpt lat="41.9931246713" lon="-6.2011265941">
        <ele>853.79</ele>
        <time>2020-08-11T07:49:14Z</time>
      </trkpt>
      <trkpt lat="41.9931268506" lon="-6.2011065613">
        <ele>854.27</ele>
        <time>2020-08-11T07:49:33Z</time>
      </trkpt>
      <trkpt lat="41.9931264315" lon="-6.2011182122">
        <ele>854.27</ele>
        <time>2020-08-11T07:49:48Z</time>
      </trkpt>
      <trkpt lat="41.9931250904" lon="-6.2010977603">
        <ele>853.31</ele>
        <time>2020-08-11T07:50:00Z</time>
      </trkpt>
      <trkpt lat="41.9931374118" lon="-6.2010829244">
        <ele>853.31</ele>
        <time>2020-08-11T07:50:13Z</time>
      </trkpt>
      <trkpt lat="41.9931651559" lon="-6.2011553440">
        <ele>852.83</ele>
        <time>2020-08-11T07:50:18Z</time>
      </trkpt>
      <trkpt lat="41.9932399224" lon="-6.2013322860">
        <ele>851.87</ele>
        <time>2020-08-11T07:50:23Z</time>
      </trkpt>
      <trkpt lat="41.9932578597" lon="-6.2014928833">
        <ele>851.38</ele>
        <time>2020-08-11T07:50:29Z</time>
      </trkpt>
      <trkpt lat="41.9932951592" lon="-6.2016255688">
        <ele>850.90</ele>
        <time>2020-08-11T07:50:36Z</time>
      </trkpt>
      <trkpt lat="41.9933276810" lon="-6.2018138263">
        <ele>850.42</ele>
        <time>2020-08-11T07:50:44Z</time>
      </trkpt>
      <trkpt lat="41.9933752064" lon="-6.2019773573">
        <ele>849.46</ele>
        <time>2020-08-11T07:50:52Z</time>
      </trkpt>
      <trkpt lat="41.9934405014" lon="-6.2020953745">
        <ele>848.50</ele>
        <time>2020-08-11T07:50:59Z</time>
      </trkpt>
      <trkpt lat="41.9934384897" lon="-6.2021062709">
        <ele>848.02</ele>
        <time>2020-08-11T07:51:05Z</time>
      </trkpt>
      <trkpt lat="41.9934769627" lon="-6.2021826301">
        <ele>847.06</ele>
        <time>2020-08-11T07:51:14Z</time>
      </trkpt>
      <trkpt lat="41.9935146812" lon="-6.2022433151">
        <ele>846.58</ele>
        <time>2020-08-11T07:51:22Z</time>
      </trkpt>
      <trkpt lat="41.9935301039" lon="-6.2022666167">
        <ele>846.58</ele>
        <time>2020-08-11T07:51:29Z</time>
      </trkpt>
      <trkpt lat="41.9935505558" lon="-6.2022932712">
        <ele>846.10</ele>
        <time>2020-08-11T07:51:37Z</time>
      </trkpt>
      <trkpt lat="41.9935720135" lon="-6.2023226917">
        <ele>846.10</ele>
        <time>2020-08-11T07:51:46Z</time>
      </trkpt>
      <trkpt lat="41.9935823232" lon="-6.2023341749">
        <ele>846.10</ele>
        <time>2020-08-11T07:51:47Z</time>
      </trkpt>
      <trkpt lat="41.9935938064" lon="-6.2023444846">
        <ele>846.10</ele>
        <time>2020-08-11T07:51:48Z</time>
      </trkpt>
      <trkpt lat="41.9936056249" lon="-6.2023548782">
        <ele>845.62</ele>
        <time>2020-08-11T07:51:49Z</time>
      </trkpt>
      <trkpt lat="41.9936173595" lon="-6.2023661938">
        <ele>845.62</ele>
        <time>2020-08-11T07:51:50Z</time>
      </trkpt>
      <trkpt lat="41.9936303515" lon="-6.2023801915">
        <ele>845.62</ele>
        <time>2020-08-11T07:51:51Z</time>
      </trkpt>
      <trkpt lat="41.9937453512" lon="-6.2024904974">
        <ele>843.69</ele>
        <time>2020-08-11T07:52:00Z</time>
      </trkpt>
      <trkpt lat="41.9937571697" lon="-6.2025011424">
        <ele>843.69</ele>
        <time>2020-08-11T07:52:01Z</time>
      </trkpt>
      <trkpt lat="41.9937666412" lon="-6.2025116198">
        <ele>843.69</ele>
        <time>2020-08-11T07:52:02Z</time>
      </trkpt>
      <trkpt lat="41.9937772024" lon="-6.2025223486">
        <ele>843.69</ele>
        <time>2020-08-11T07:52:03Z</time>
      </trkpt>
      <trkpt lat="41.9937934633" lon="-6.2025467400">
        <ele>843.21</ele>
        <time>2020-08-11T07:52:05Z</time>
      </trkpt>
      <trkpt lat="41.9938015100" lon="-6.2025661021">
        <ele>843.21</ele>
        <time>2020-08-11T07:52:06Z</time>
      </trkpt>
      <trkpt lat="41.9938110653" lon="-6.2025842909">
        <ele>842.73</ele>
        <time>2020-08-11T07:52:07Z</time>
      </trkpt>
      <trkpt lat="41.9938213751" lon="-6.2026012223">
        <ele>842.73</ele>
        <time>2020-08-11T07:52:08Z</time>
      </trkpt>
      <trkpt lat="41.9938333612" lon="-6.2026162259">
        <ele>842.25</ele>
        <time>2020-08-11T07:52:09Z</time>
      </trkpt>
      <trkpt lat="41.9939160068" lon="-6.2027214188">
        <ele>840.81</ele>
        <time>2020-08-11T07:52:16Z</time>
      </trkpt>
      <trkpt lat="41.9940132368" lon="-6.2029048149">
        <ele>839.85</ele>
        <time>2020-08-11T07:52:24Z</time>
      </trkpt>
      <trkpt lat="41.9941037614" lon="-6.2030603830">
        <ele>837.93</ele>
        <time>2020-08-11T07:52:32Z</time>
      </trkpt>
      <trkpt lat="41.9941812102" lon="-6.2031867821">
        <ele>836.96</ele>
        <time>2020-08-11T07:52:39Z</time>
      </trkpt>
      <trkpt lat="41.9942234550" lon="-6.2032347266">
        <ele>836.48</ele>
        <time>2020-08-11T07:52:42Z</time>
      </trkpt>
      <trkpt lat="41.9943700545" lon="-6.2033188809">
        <ele>835.52</ele>
        <time>2020-08-11T07:52:51Z</time>
      </trkpt>
      <trkpt lat="41.9944182504" lon="-6.2034498900">
        <ele>834.56</ele>
        <time>2020-08-11T07:52:59Z</time>
      </trkpt>
      <trkpt lat="41.9944234472" lon="-6.2034624629">
        <ele>834.56</ele>
        <time>2020-08-11T07:53:00Z</time>
      </trkpt>
      <trkpt lat="41.9944310747" lon="-6.2034750357">
        <ele>834.56</ele>
        <time>2020-08-11T07:53:01Z</time>
      </trkpt>
      <trkpt lat="41.9944396242" lon="-6.2034892850">
        <ele>834.08</ele>
        <time>2020-08-11T07:53:02Z</time>
      </trkpt>
      <trkpt lat="41.9944503531" lon="-6.2035171967">
        <ele>833.12</ele>
        <time>2020-08-11T07:53:07Z</time>
      </trkpt>
      <trkpt lat="41.9945307355" lon="-6.2036523968">
        <ele>832.16</ele>
        <time>2020-08-11T07:53:15Z</time>
      </trkpt>
      <trkpt lat="41.9946317375" lon="-6.2037611101">
        <ele>831.20</ele>
        <time>2020-08-11T07:53:23Z</time>
      </trkpt>
      <trkpt lat="41.9946528599" lon="-6.2037870102">
        <ele>830.72</ele>
        <time>2020-08-11T07:53:26Z</time>
      </trkpt>
      <trkpt lat="41.9946604036" lon="-6.2038015109">
        <ele>830.72</ele>
        <time>2020-08-11T07:53:27Z</time>
      </trkpt>
      <trkpt lat="41.9946698751" lon="-6.2038160954">
        <ele>830.24</ele>
        <time>2020-08-11T07:53:28Z</time>
      </trkpt>
      <trkpt lat="41.9946786761" lon="-6.2038305961">
        <ele>830.24</ele>
        <time>2020-08-11T07:53:29Z</time>
      </trkpt>
      <trkpt lat="41.9946873095" lon="-6.2038461026">
        <ele>830.24</ele>
        <time>2020-08-11T07:53:30Z</time>
      </trkpt>
      <trkpt lat="41.9946952723" lon="-6.2038621120">
        <ele>829.76</ele>
        <time>2020-08-11T07:53:31Z</time>
      </trkpt>
      <trkpt lat="41.9947033189" lon="-6.2038782053">
        <ele>829.27</ele>
        <time>2020-08-11T07:53:32Z</time>
      </trkpt>
      <trkpt lat="41.9947126228" lon="-6.2038981542">
        <ele>828.79</ele>
        <time>2020-08-11T07:53:33Z</time>
      </trkpt>
      <trkpt lat="41.9947743975" lon="-6.2040303368">
        <ele>827.83</ele>
        <time>2020-08-11T07:53:39Z</time>
      </trkpt>
      <trkpt lat="41.9948424585" lon="-6.2041538022">
        <ele>826.87</ele>
        <time>2020-08-11T07:53:47Z</time>
      </trkpt>
      <trkpt lat="41.9949237630" lon="-6.2043002341">
        <ele>825.43</ele>
        <time>2020-08-11T07:53:55Z</time>
      </trkpt>
      <trkpt lat="41.9950012956" lon="-6.2044049241">
        <ele>824.95</ele>
        <time>2020-08-11T07:54:02Z</time>
      </trkpt>
      <trkpt lat="41.9950666744" lon="-6.2045038305">
        <ele>823.99</ele>
        <time>2020-08-11T07:54:09Z</time>
      </trkpt>
      <trkpt lat="41.9950860366" lon="-6.2045237795">
        <ele>823.51</ele>
        <time>2020-08-11T07:54:11Z</time>
      </trkpt>
      <trkpt lat="41.9950929098" lon="-6.2045388669">
        <ele>823.51</ele>
        <time>2020-08-11T07:54:12Z</time>
      </trkpt>
      <trkpt lat="41.9950999506" lon="-6.2045568042">
        <ele>823.03</ele>
        <time>2020-08-11T07:54:13Z</time>
      </trkpt>
      <trkpt lat="41.9951080810" lon="-6.2045744900">
        <ele>823.03</ele>
        <time>2020-08-11T07:54:14Z</time>
      </trkpt>
      <trkpt lat="41.9951178040" lon="-6.2045909185">
        <ele>823.03</ele>
        <time>2020-08-11T07:54:15Z</time>
      </trkpt>
      <trkpt lat="41.9951263536" lon="-6.2046064250">
        <ele>822.55</ele>
        <time>2020-08-11T07:54:16Z</time>
      </trkpt>
      <trkpt lat="41.9951418601" lon="-6.2046475802">
        <ele>822.06</ele>
        <time>2020-08-11T07:54:19Z</time>
      </trkpt>
      <trkpt lat="41.9951781537" lon="-6.2047697883">
        <ele>821.10</ele>
        <time>2020-08-11T07:54:25Z</time>
      </trkpt>
      <trkpt lat="41.9952456281" lon="-6.2049414497">
        <ele>820.14</ele>
        <time>2020-08-11T07:54:31Z</time>
      </trkpt>
      <trkpt lat="41.9953129347" lon="-6.2050964311">
        <ele>818.70</ele>
        <time>2020-08-11T07:54:38Z</time>
      </trkpt>
      <trkpt lat="41.9953946583" lon="-6.2052752171">
        <ele>817.74</ele>
        <time>2020-08-11T07:54:45Z</time>
      </trkpt>
      <trkpt lat="41.9954747893" lon="-6.2054498959">
        <ele>816.78</ele>
        <time>2020-08-11T07:54:52Z</time>
      </trkpt>
      <trkpt lat="41.9955141004" lon="-6.2055812404">
        <ele>816.30</ele>
        <time>2020-08-11T07:54:58Z</time>
      </trkpt>
      <trkpt lat="41.9955794793" lon="-6.2058380619">
        <ele>815.82</ele>
        <time>2020-08-11T07:55:06Z</time>
      </trkpt>
      <trkpt lat="41.9956355542" lon="-6.2060865853">
        <ele>813.89</ele>
        <time>2020-08-11T07:55:14Z</time>
      </trkpt>
      <trkpt lat="41.9956978317" lon="-6.2062480208">
        <ele>812.93</ele>
        <time>2020-08-11T07:55:20Z</time>
      </trkpt>
      <trkpt lat="41.9957680721" lon="-6.2064444926">
        <ele>812.45</ele>
        <time>2020-08-11T07:55:28Z</time>
      </trkpt>
      <trkpt lat="41.9958306849" lon="-6.2066077720">
        <ele>811.49</ele>
        <time>2020-08-11T07:55:35Z</time>
      </trkpt>
      <trkpt lat="41.9959267415" lon="-6.2068625819">
        <ele>810.53</ele>
        <time>2020-08-11T07:55:44Z</time>
      </trkpt>
      <trkpt lat="41.9960674737" lon="-6.2071424536">
        <ele>810.53</ele>
        <time>2020-08-11T07:55:53Z</time>
      </trkpt>
      <trkpt lat="41.9962280709" lon="-6.2073556054">
        <ele>810.53</ele>
        <time>2020-08-11T07:56:02Z</time>
      </trkpt>
      <trkpt lat="41.9963808730" lon="-6.2075422704">
        <ele>810.53</ele>
        <time>2020-08-11T07:56:09Z</time>
      </trkpt>
      <trkpt lat="41.9965946116" lon="-6.2078644708">
        <ele>810.05</ele>
        <time>2020-08-11T07:56:19Z</time>
      </trkpt>
      <trkpt lat="41.9967177417" lon="-6.2080977391">
        <ele>809.09</ele>
        <time>2020-08-11T07:56:27Z</time>
      </trkpt>
      <trkpt lat="41.9967953581" lon="-6.2083422393">
        <ele>807.16</ele>
        <time>2020-08-11T07:56:35Z</time>
      </trkpt>
      <trkpt lat="41.9968868047" lon="-6.2085361127">
        <ele>806.20</ele>
        <time>2020-08-11T07:56:42Z</time>
      </trkpt>
      <trkpt lat="41.9969253615" lon="-6.2086474244">
        <ele>806.20</ele>
        <time>2020-08-11T07:56:49Z</time>
      </trkpt>
      <trkpt lat="41.9969746470" lon="-6.2088166550">
        <ele>806.20</ele>
        <time>2020-08-11T07:56:56Z</time>
      </trkpt>
      <trkpt lat="41.9970729668" lon="-6.2090790085">
        <ele>806.68</ele>
        <time>2020-08-11T07:57:05Z</time>
      </trkpt>
      <trkpt lat="41.9971712865" lon="-6.2093090080">
        <ele>807.16</ele>
        <time>2020-08-11T07:57:13Z</time>
      </trkpt>
      <trkpt lat="41.9972825982" lon="-6.2096012849">
        <ele>808.13</ele>
        <time>2020-08-11T07:57:22Z</time>
      </trkpt>
      <trkpt lat="41.9974056445" lon="-6.2098306976">
        <ele>808.13</ele>
        <time>2020-08-11T07:57:29Z</time>
      </trkpt>
      <trkpt lat="41.9975831732" lon="-6.2100979127">
        <ele>807.16</ele>
        <time>2020-08-11T07:57:38Z</time>
      </trkpt>
      <trkpt lat="41.9978192914" lon="-6.2104204483">
        <ele>808.13</ele>
        <time>2020-08-11T07:57:49Z</time>
      </trkpt>
      <trkpt lat="41.9980145060" lon="-6.2106077839">
        <ele>810.05</ele>
        <time>2020-08-11T07:57:58Z</time>
      </trkpt>
      <trkpt lat="41.9981538970" lon="-6.2107030861">
        <ele>811.49</ele>
        <time>2020-08-11T07:58:06Z</time>
      </trkpt>
      <trkpt lat="41.9982974790" lon="-6.2107636034">
        <ele>812.45</ele>
        <time>2020-08-11T07:58:14Z</time>
      </trkpt>
      <trkpt lat="41.9984605070" lon="-6.2108273059">
        <ele>814.37</ele>
        <time>2020-08-11T07:58:22Z</time>
      </trkpt>
      <trkpt lat="41.9985867385" lon="-6.2109132204">
        <ele>814.37</ele>
        <time>2020-08-11T07:58:29Z</time>
      </trkpt>
      <trkpt lat="41.9986816216" lon="-6.2110413797">
        <ele>814.85</ele>
        <time>2020-08-11T07:58:36Z</time>
      </trkpt>
      <trkpt lat="41.9988153968" lon="-6.2112532742">
        <ele>814.37</ele>
        <time>2020-08-11T07:58:45Z</time>
      </trkpt>
      <trkpt lat="41.9989961945" lon="-6.2115325592">
        <ele>814.37</ele>
        <time>2020-08-11T07:58:55Z</time>
      </trkpt>
      <trkpt lat="41.9991578814" lon="-6.2117211521">
        <ele>813.89</ele>
        <time>2020-08-11T07:59:03Z</time>
      </trkpt>
      <trkpt lat="41.9993475638" lon="-6.2118920591">
        <ele>813.41</ele>
        <time>2020-08-11T07:59:11Z</time>
      </trkpt>
      <trkpt lat="41.9995738752" lon="-6.2120158598">
        <ele>813.41</ele>
        <time>2020-08-11T07:59:19Z</time>
      </trkpt>
      <trkpt lat="41.9997128472" lon="-6.2119923905">
        <ele>812.93</ele>
        <time>2020-08-11T07:59:25Z</time>
      </trkpt>
      <trkpt lat="41.9999371469" lon="-6.2119095773">
        <ele>812.45</ele>
        <time>2020-08-11T07:59:35Z</time>
      </trkpt>
      <trkpt lat="42.0001014322" lon="-6.2118390854">
        <ele>811.49</ele>
        <time>2020-08-11T07:59:42Z</time>
      </trkpt>
      <trkpt lat="42.0003291685" lon="-6.2117737904">
        <ele>810.05</ele>
        <time>2020-08-11T07:59:52Z</time>
      </trkpt>
      <trkpt lat="42.0004248060" lon="-6.2117871176">
        <ele>809.57</ele>
        <time>2020-08-11T07:59:57Z</time>
      </trkpt>
      <trkpt lat="42.0004471019" lon="-6.2117810827">
        <ele>809.57</ele>
        <time>2020-08-11T07:59:58Z</time>
      </trkpt>
      <trkpt lat="42.0005584974" lon="-6.2118071504">
        <ele>809.57</ele>
        <time>2020-08-11T08:00:04Z</time>
      </trkpt>
      <trkpt lat="42.0006648637" lon="-6.2118843477">
        <ele>809.09</ele>
        <time>2020-08-11T08:00:11Z</time>
      </trkpt>
      <trkpt lat="42.0007987227" lon="-6.2120394129">
        <ele>809.09</ele>
        <time>2020-08-11T08:00:18Z</time>
      </trkpt>
      <trkpt lat="42.0009215176" lon="-6.2121722661">
        <ele>809.09</ele>
        <time>2020-08-11T08:00:24Z</time>
      </trkpt>
      <trkpt lat="42.0010586455" lon="-6.2123271637">
        <ele>807.64</ele>
        <time>2020-08-11T08:00:33Z</time>
      </trkpt>
      <trkpt lat="42.0011904929" lon="-6.2124287523">
        <ele>807.64</ele>
        <time>2020-08-11T08:00:42Z</time>
      </trkpt>
      <trkpt lat="42.0013329014" lon="-6.2125465181">
        <ele>806.68</ele>
        <time>2020-08-11T08:00:50Z</time>
      </trkpt>
      <trkpt lat="42.0014519244" lon="-6.2126232125">
        <ele>805.72</ele>
        <time>2020-08-11T08:00:58Z</time>
      </trkpt>
      <trkpt lat="42.0015961770" lon="-6.2127206102">
        <ele>804.28</ele>
        <time>2020-08-11T08:01:05Z</time>
      </trkpt>
      <trkpt lat="42.0018139388" lon="-6.2128701434">
        <ele>803.80</ele>
        <time>2020-08-11T08:01:13Z</time>
      </trkpt>
      <trkpt lat="42.0019922219" lon="-6.2130111270">
        <ele>802.84</ele>
        <time>2020-08-11T08:01:21Z</time>
      </trkpt>
      <trkpt lat="42.0021169446" lon="-6.2131371908">
        <ele>802.36</ele>
        <time>2020-08-11T08:01:28Z</time>
      </trkpt>
      <trkpt lat="42.0022612810" lon="-6.2133158091">
        <ele>800.92</ele>
        <time>2020-08-11T08:01:36Z</time>
      </trkpt>
      <trkpt lat="42.0024332777" lon="-6.2135013845">
        <ele>801.40</ele>
        <time>2020-08-11T08:01:45Z</time>
      </trkpt>
      <trkpt lat="42.0025942102" lon="-6.2135953456">
        <ele>800.44</ele>
        <time>2020-08-11T08:01:52Z</time>
      </trkpt>
      <trkpt lat="42.0027341042" lon="-6.2136299629">
        <ele>799.47</ele>
        <time>2020-08-11T08:01:59Z</time>
      </trkpt>
      <trkpt lat="42.0029848907" lon="-6.2136378419">
        <ele>798.51</ele>
        <time>2020-08-11T08:02:10Z</time>
      </trkpt>
      <trkpt lat="42.0031982940" lon="-6.2136779912">
        <ele>798.51</ele>
        <time>2020-08-11T08:02:19Z</time>
      </trkpt>
      <trkpt lat="42.0034065004" lon="-6.2137531769">
        <ele>798.03</ele>
        <time>2020-08-11T08:02:27Z</time>
      </trkpt>
      <trkpt lat="42.0036432892" lon="-6.2139248382">
        <ele>797.07</ele>
        <time>2020-08-11T08:02:36Z</time>
      </trkpt>
      <trkpt lat="42.0036587957" lon="-6.2139533367">
        <ele>797.07</ele>
        <time>2020-08-11T08:02:37Z</time>
      </trkpt>
      <trkpt lat="42.0036702789" lon="-6.2139812484">
        <ele>796.59</ele>
        <time>2020-08-11T08:02:38Z</time>
      </trkpt>
      <trkpt lat="42.0037818421" lon="-6.2141547538">
        <ele>797.07</ele>
        <time>2020-08-11T08:02:45Z</time>
      </trkpt>
      <trkpt lat="42.0039191376" lon="-6.2143887766">
        <ele>797.55</ele>
        <time>2020-08-11T08:02:53Z</time>
      </trkpt>
      <trkpt lat="42.0040021185" lon="-6.2146340311">
        <ele>797.55</ele>
        <time>2020-08-11T08:03:01Z</time>
      </trkpt>
      <trkpt lat="42.0040648151" lon="-6.2148947082">
        <ele>798.03</ele>
        <time>2020-08-11T08:03:09Z</time>
      </trkpt>
      <trkpt lat="42.0041419286" lon="-6.2152310740">
        <ele>798.51</ele>
        <time>2020-08-11T08:03:19Z</time>
      </trkpt>
      <trkpt lat="42.0042000152" lon="-6.2155341636">
        <ele>798.51</ele>
        <time>2020-08-11T08:03:27Z</time>
      </trkpt>
      <trkpt lat="42.0042973291" lon="-6.2160431128">
        <ele>798.99</ele>
        <time>2020-08-11T08:03:40Z</time>
      </trkpt>
      <trkpt lat="42.0043793041" lon="-6.2163886148">
        <ele>798.99</ele>
        <time>2020-08-11T08:03:49Z</time>
      </trkpt>
      <trkpt lat="42.0044434257" lon="-6.2166615296">
        <ele>798.99</ele>
        <time>2020-08-11T08:03:57Z</time>
      </trkpt>
      <trkpt lat="42.0045543183" lon="-6.2170665432">
        <ele>798.99</ele>
        <time>2020-08-11T08:04:07Z</time>
      </trkpt>
      <trkpt lat="42.0046612713" lon="-6.2174418010">
        <ele>798.51</ele>
        <time>2020-08-11T08:04:16Z</time>
      </trkpt>
      <trkpt lat="42.0047753491" lon="-6.2178343255">
        <ele>798.99</ele>
        <time>2020-08-11T08:04:25Z</time>
      </trkpt>
      <trkpt lat="42.0048794523" lon="-6.2182626408">
        <ele>798.51</ele>
        <time>2020-08-11T08:04:35Z</time>
      </trkpt>
      <trkpt lat="42.0050100423" lon="-6.2185356393">
        <ele>798.51</ele>
        <time>2020-08-11T08:04:44Z</time>
      </trkpt>
      <trkpt lat="42.0051574800" lon="-6.2185537443">
        <ele>799.95</ele>
        <time>2020-08-11T08:04:51Z</time>
      </trkpt>
      <trkpt lat="42.0053024869" lon="-6.2185199652">
        <ele>800.92</ele>
        <time>2020-08-11T08:04:58Z</time>
      </trkpt>
      <trkpt lat="42.0054273773" lon="-6.2185009383">
        <ele>801.88</ele>
        <time>2020-08-11T08:05:04Z</time>
      </trkpt>
      <trkpt lat="42.0054460689" lon="-6.2185176183">
        <ele>802.36</ele>
        <time>2020-08-11T08:05:05Z</time>
      </trkpt>
      <trkpt lat="42.0054619107" lon="-6.2185379863">
        <ele>802.36</ele>
        <time>2020-08-11T08:05:06Z</time>
      </trkpt>
      <trkpt lat="42.0055381022" lon="-6.2187615316">
        <ele>801.88</ele>
        <time>2020-08-11T08:05:12Z</time>
      </trkpt>
      <trkpt lat="42.0055657625" lon="-6.2191539723">
        <ele>801.40</ele>
        <time>2020-08-11T08:05:20Z</time>
      </trkpt>
      <trkpt lat="42.0055746473" lon="-6.2193623465">
        <ele>801.40</ele>
        <time>2020-08-11T08:05:24Z</time>
      </trkpt>
      <trkpt lat="42.0055839512" lon="-6.2195222732">
        <ele>800.92</ele>
        <time>2020-08-11T08:05:27Z</time>
      </trkpt>
      <trkpt lat="42.0055869687" lon="-6.2195773423">
        <ele>800.92</ele>
        <time>2020-08-11T08:05:28Z</time>
      </trkpt>
      <trkpt lat="42.0056209154" lon="-6.2202269398">
        <ele>799.95</ele>
        <time>2020-08-11T08:05:39Z</time>
      </trkpt>
      <trkpt lat="42.0056570414" lon="-6.2208990846">
        <ele>799.95</ele>
        <time>2020-08-11T08:05:48Z</time>
      </trkpt>
      <trkpt lat="42.0056961849" lon="-6.2217211816">
        <ele>799.47</ele>
        <time>2020-08-11T08:05:59Z</time>
      </trkpt>
      <trkpt lat="42.0057225041" lon="-6.2222753931">
        <ele>799.47</ele>
        <time>2020-08-11T08:06:08Z</time>
      </trkpt>
      <trkpt lat="42.0057554450" lon="-6.2229370605">
        <ele>799.47</ele>
        <time>2020-08-11T08:06:19Z</time>
      </trkpt>
      <trkpt lat="42.0057806745" lon="-6.2235712353">
        <ele>799.47</ele>
        <time>2020-08-11T08:06:29Z</time>
      </trkpt>
      <trkpt lat="42.0058241766" lon="-6.2242676038">
        <ele>799.47</ele>
        <time>2020-08-11T08:06:40Z</time>
      </trkpt>
      <trkpt lat="42.0058600511" lon="-6.2249225657">
        <ele>799.95</ele>
        <time>2020-08-11T08:06:51Z</time>
      </trkpt>
      <trkpt lat="42.0058946684" lon="-6.2255311757">
        <ele>800.44</ele>
        <time>2020-08-11T08:07:01Z</time>
      </trkpt>
      <trkpt lat="42.0059021283" lon="-6.2256491091">
        <ele>800.92</ele>
        <time>2020-08-11T08:07:03Z</time>
      </trkpt>
      <trkpt lat="42.0059108455" lon="-6.2257047649">
        <ele>800.92</ele>
        <time>2020-08-11T08:07:04Z</time>
      </trkpt>
      <trkpt lat="42.0059799124" lon="-6.2261006422">
        <ele>802.36</ele>
        <time>2020-08-11T08:07:12Z</time>
      </trkpt>
      <trkpt lat="42.0060884580" lon="-6.2266033888">
        <ele>803.80</ele>
        <time>2020-08-11T08:07:24Z</time>
      </trkpt>
      <trkpt lat="42.0061702654" lon="-6.2269953266">
        <ele>804.76</ele>
        <time>2020-08-11T08:07:34Z</time>
      </trkpt>
      <trkpt lat="42.0062788110" lon="-6.2271962408">
        <ele>805.24</ele>
        <time>2020-08-11T08:07:42Z</time>
      </trkpt>
      <trkpt lat="42.0062903780" lon="-6.2271841709">
        <ele>806.20</ele>
        <time>2020-08-11T08:07:47Z</time>
      </trkpt>
      <trkpt lat="42.0062909648" lon="-6.2271631323">
        <ele>806.68</ele>
        <time>2020-08-11T08:07:55Z</time>
      </trkpt>
      <trkpt lat="42.0062907133" lon="-6.2271722686">
        <ele>807.64</ele>
        <time>2020-08-11T08:08:06Z</time>
      </trkpt>
      <trkpt lat="42.0062938984" lon="-6.2271811534">
        <ele>811.97</ele>
        <time>2020-08-11T08:08:28Z</time>
      </trkpt>
      <trkpt lat="42.0063082315" lon="-6.2271707598">
        <ele>812.93</ele>
        <time>2020-08-11T08:08:46Z</time>
      </trkpt>
      <trkpt lat="42.0062949881" lon="-6.2271574326">
        <ele>810.53</ele>
        <time>2020-08-11T08:09:02Z</time>
      </trkpt>
      <trkpt lat="42.0062856842" lon="-6.2271727715">
        <ele>811.97</ele>
        <time>2020-08-11T08:09:19Z</time>
      </trkpt>
      <trkpt lat="42.0062841754" lon="-6.2271924689">
        <ele>813.41</ele>
        <time>2020-08-11T08:09:37Z</time>
      </trkpt>
      <trkpt lat="42.0062797330" lon="-6.2271941453">
        <ele>811.97</ele>
        <time>2020-08-11T08:09:52Z</time>
      </trkpt>
      <trkpt lat="42.0062790625" lon="-6.2271845900">
        <ele>811.97</ele>
        <time>2020-08-11T08:10:05Z</time>
      </trkpt>
      <trkpt lat="42.0062918030" lon="-6.2271797284">
        <ele>811.01</ele>
        <time>2020-08-11T08:10:24Z</time>
      </trkpt>
      <trkpt lat="42.0062734466" lon="-6.2272078078">
        <ele>811.49</ele>
        <time>2020-08-11T08:10:44Z</time>
      </trkpt>
      <trkpt lat="42.0062887855" lon="-6.2271907087">
        <ele>811.01</ele>
        <time>2020-08-11T08:11:00Z</time>
      </trkpt>
      <trkpt lat="42.0063069742" lon="-6.2271639705">
        <ele>811.97</ele>
        <time>2020-08-11T08:11:13Z</time>
      </trkpt>
      <trkpt lat="42.0063000172" lon="-6.2271487154">
        <ele>811.49</ele>
        <time>2020-08-11T08:11:27Z</time>
      </trkpt>
      <trkpt lat="42.0062876958" lon="-6.2271606177">
        <ele>810.53</ele>
        <time>2020-08-11T08:11:47Z</time>
      </trkpt>
      <trkpt lat="42.0062876958" lon="-6.2271838356">
        <ele>812.93</ele>
        <time>2020-08-11T08:12:05Z</time>
      </trkpt>
      <trkpt lat="42.0062973350" lon="-6.2272125017">
        <ele>819.18</ele>
        <time>2020-08-11T08:12:26Z</time>
      </trkpt>
      <trkpt lat="42.0063190442" lon="-6.2272072211">
        <ele>820.62</ele>
        <time>2020-08-11T08:12:42Z</time>
      </trkpt>
      <trkpt lat="42.0063237380" lon="-6.2271928042">
        <ele>823.51</ele>
        <time>2020-08-11T08:12:57Z</time>
      </trkpt>
      <trkpt lat="42.0063206367" lon="-6.2271863502">
        <ele>823.03</ele>
        <time>2020-08-11T08:13:17Z</time>
      </trkpt>
      <trkpt lat="42.0063116681" lon="-6.2272038683">
        <ele>820.14</ele>
        <time>2020-08-11T08:13:36Z</time>
      </trkpt>
      <trkpt lat="42.0063058846" lon="-6.2272084784">
        <ele>817.26</ele>
        <time>2020-08-11T08:13:52Z</time>
      </trkpt>
      <trkpt lat="42.0063207205" lon="-6.2271912955">
        <ele>816.30</ele>
        <time>2020-08-11T08:14:08Z</time>
      </trkpt>
      <trkpt lat="42.0063280966" lon="-6.2271789741">
        <ele>815.82</ele>
        <time>2020-08-11T08:14:22Z</time>
      </trkpt>
      <trkpt lat="42.0063189603" lon="-6.2271714304">
        <ele>813.41</ele>
        <time>2020-08-11T08:14:43Z</time>
      </trkpt>
      <trkpt lat="42.0063200500" lon="-6.2271860149">
        <ele>811.97</ele>
        <time>2020-08-11T08:14:59Z</time>
      </trkpt>
      <trkpt lat="42.0063039567" lon="-6.2271822430">
        <ele>810.05</ele>
        <time>2020-08-11T08:15:13Z</time>
      </trkpt>
      <trkpt lat="42.0062834211" lon="-6.2271917984">
        <ele>810.53</ele>
        <time>2020-08-11T08:15:29Z</time>
      </trkpt>
      <trkpt lat="42.0062984247" lon="-6.2271901220">
        <ele>811.01</ele>
        <time>2020-08-11T08:15:47Z</time>
      </trkpt>
      <trkpt lat="42.0062927250" lon="-6.2271742802">
        <ele>808.61</ele>
        <time>2020-08-11T08:16:02Z</time>
      </trkpt>
      <trkpt lat="42.0062860195" lon="-6.2271589413">
        <ele>806.20</ele>
        <time>2020-08-11T08:16:16Z</time>
      </trkpt>
      <trkpt lat="42.0063467044" lon="-6.2271554209">
        <ele>808.13</ele>
        <time>2020-08-11T08:16:31Z</time>
      </trkpt>
      <trkpt lat="42.0063462853" lon="-6.2271576840">
        <ele>808.61</ele>
        <time>2020-08-11T08:16:54Z</time>
      </trkpt>
      <trkpt lat="42.0063336287" lon="-6.2271500565">
        <ele>808.61</ele>
        <time>2020-08-11T08:17:07Z</time>
      </trkpt>
      <trkpt lat="42.0063415915" lon="-6.2271605339">
        <ele>808.61</ele>
        <time>2020-08-11T08:17:21Z</time>
      </trkpt>
      <trkpt lat="42.0063247439" lon="-6.2271544989">
        <ele>807.64</ele>
        <time>2020-08-11T08:17:41Z</time>
      </trkpt>
      <trkpt lat="42.0062986761" lon="-6.2271773815">
        <ele>809.57</ele>
        <time>2020-08-11T08:17:56Z</time>
      </trkpt>
      <trkpt lat="42.0062629692" lon="-6.2271700054">
        <ele>808.13</ele>
        <time>2020-08-11T08:18:15Z</time>
      </trkpt>
      <trkpt lat="42.0062734466" lon="-6.2271773815">
        <ele>809.09</ele>
        <time>2020-08-11T08:18:29Z</time>
      </trkpt>
      <trkpt lat="42.0062839240" lon="-6.2271628808">
        <ele>807.16</ele>
        <time>2020-08-11T08:18:43Z</time>
      </trkpt>
      <trkpt lat="42.0062767994" lon="-6.2271504756">
        <ele>805.24</ele>
        <time>2020-08-11T08:19:03Z</time>
      </trkpt>
      <trkpt lat="42.0062563475" lon="-6.2271752860">
        <ele>806.20</ele>
        <time>2020-08-11T08:19:19Z</time>
      </trkpt>
      <trkpt lat="42.0062760450" lon="-6.2271720171">
        <ele>805.72</ele>
        <time>2020-08-11T08:19:36Z</time>
      </trkpt>
      <trkpt lat="42.0062972512" lon="-6.2271713465">
        <ele>806.20</ele>
        <time>2020-08-11T08:19:49Z</time>
      </trkpt>
      <trkpt lat="42.0063006040" lon="-6.2271796446">
        <ele>804.76</ele>
        <time>2020-08-11T08:20:08Z</time>
      </trkpt>
      <trkpt lat="42.0062737819" lon="-6.2272005994">
        <ele>804.28</ele>
        <time>2020-08-11T08:20:29Z</time>
      </trkpt>
      <trkpt lat="42.0062733628" lon="-6.2271958217">
        <ele>804.76</ele>
        <time>2020-08-11T08:20:54Z</time>
      </trkpt>
      <trkpt lat="42.0062864386" lon="-6.2271741964">
        <ele>806.20</ele>
        <time>2020-08-11T08:21:12Z</time>
      </trkpt>
      <trkpt lat="42.0062887855" lon="-6.2271709275">
        <ele>808.13</ele>
        <time>2020-08-11T08:21:26Z</time>
      </trkpt>
      <trkpt lat="42.0062446129" lon="-6.2271980848">
        <ele>809.09</ele>
        <time>2020-08-11T08:21:45Z</time>
      </trkpt>
      <trkpt lat="42.0062838402" lon="-6.2272017729">
        <ele>808.61</ele>
        <time>2020-08-11T08:22:10Z</time>
      </trkpt>
      <trkpt lat="42.0062879473" lon="-6.2271902896">
        <ele>808.13</ele>
        <time>2020-08-11T08:22:32Z</time>
      </trkpt>
      <trkpt lat="42.0062784757" lon="-6.2271810696">
        <ele>805.72</ele>
        <time>2020-08-11T08:22:47Z</time>
      </trkpt>
      <trkpt lat="42.0062840916" lon="-6.2271510623">
        <ele>803.80</ele>
        <time>2020-08-11T08:23:03Z</time>
      </trkpt>
      <trkpt lat="42.0062678307" lon="-6.2271824107">
        <ele>803.32</ele>
        <time>2020-08-11T08:23:24Z</time>
      </trkpt>
      <trkpt lat="42.0062731951" lon="-6.2271731906">
        <ele>803.32</ele>
        <time>2020-08-11T08:23:41Z</time>
      </trkpt>
      <trkpt lat="42.0062679984" lon="-6.2271627132">
        <ele>805.24</ele>
        <time>2020-08-11T08:23:59Z</time>
      </trkpt>
      <trkpt lat="42.0062912162" lon="-6.2271674909">
        <ele>810.05</ele>
        <time>2020-08-11T08:24:20Z</time>
      </trkpt>
      <trkpt lat="42.0062723570" lon="-6.2272096518">
        <ele>811.01</ele>
        <time>2020-08-11T08:24:41Z</time>
      </trkpt>
      <trkpt lat="42.0062613767" lon="-6.2272225600">
        <ele>808.61</ele>
        <time>2020-08-11T08:25:08Z</time>
      </trkpt>
      <trkpt lat="42.0062818285" lon="-6.2272414193">
        <ele>809.09</ele>
        <time>2020-08-11T08:25:24Z</time>
      </trkpt>
      <trkpt lat="42.0062823314" lon="-6.2272539083">
        <ele>810.05</ele>
        <time>2020-08-11T08:25:43Z</time>
      </trkpt>
      <trkpt lat="42.0062608737" lon="-6.2272267509">
        <ele>809.09</ele>
        <time>2020-08-11T08:26:04Z</time>
      </trkpt>
      <trkpt lat="42.0062672440" lon="-6.2272266671">
        <ele>810.05</ele>
        <time>2020-08-11T08:26:27Z</time>
      </trkpt>
      <trkpt lat="42.0062488876" lon="-6.2272352166">
        <ele>811.49</ele>
        <time>2020-08-11T08:26:57Z</time>
      </trkpt>
      <trkpt lat="42.0062492229" lon="-6.2272210512">
        <ele>810.05</ele>
        <time>2020-08-11T08:27:14Z</time>
      </trkpt>
      <trkpt lat="42.0062655676" lon="-6.2272304390">
        <ele>810.53</ele>
        <time>2020-08-11T08:27:35Z</time>
      </trkpt>
      <trkpt lat="42.0062685013" lon="-6.2272146810">
        <ele>809.57</ele>
        <time>2020-08-11T08:27:51Z</time>
      </trkpt>
      <trkpt lat="42.0062503126" lon="-6.2271986715">
        <ele>810.53</ele>
        <time>2020-08-11T08:28:13Z</time>
      </trkpt>
      <trkpt lat="42.0062557608" lon="-6.2272122502">
        <ele>810.05</ele>
        <time>2020-08-11T08:28:40Z</time>
      </trkpt>
      <trkpt lat="42.0062522404" lon="-6.2272202969">
        <ele>810.53</ele>
        <time>2020-08-11T08:29:01Z</time>
      </trkpt>
      <trkpt lat="42.0062425174" lon="-6.2272073049">
        <ele>810.05</ele>
        <time>2020-08-11T08:29:17Z</time>
      </trkpt>
      <trkpt lat="42.0062656514" lon="-6.2271959893">
        <ele>811.01</ele>
        <time>2020-08-11T08:29:41Z</time>
      </trkpt>
      <trkpt lat="42.0062812418" lon="-6.2271931395">
        <ele>809.57</ele>
        <time>2020-08-11T08:29:57Z</time>
      </trkpt>
      <trkpt lat="42.0062791463" lon="-6.2271792255">
        <ele>807.16</ele>
        <time>2020-08-11T08:30:20Z</time>
      </trkpt>
      <trkpt lat="42.0062995981" lon="-6.2271719333">
        <ele>807.16</ele>
        <time>2020-08-11T08:30:43Z</time>
      </trkpt>
      <trkpt lat="42.0062952396" lon="-6.2271734420">
        <ele>806.68</ele>
        <time>2020-08-11T08:30:59Z</time>
      </trkpt>
      <trkpt lat="42.0062804874" lon="-6.2271769624">
        <ele>804.28</ele>
        <time>2020-08-11T08:31:15Z</time>
      </trkpt>
      <trkpt lat="42.0062690880" lon="-6.2271848414">
        <ele>803.80</ele>
        <time>2020-08-11T08:31:32Z</time>
      </trkpt>
      <trkpt lat="42.0062661543" lon="-6.2272230629">
        <ele>806.68</ele>
        <time>2020-08-11T08:31:44Z</time>
      </trkpt>
      <trkpt lat="42.0062633045" lon="-6.2272128370">
        <ele>808.61</ele>
        <time>2020-08-11T08:31:57Z</time>
      </trkpt>
      <trkpt lat="42.0062689204" lon="-6.2271966599">
        <ele>809.09</ele>
        <time>2020-08-11T08:32:10Z</time>
      </trkpt>
      <trkpt lat="42.0062773023" lon="-6.2271942291">
        <ele>809.57</ele>
        <time>2020-08-11T08:32:26Z</time>
      </trkpt>
      <trkpt lat="42.0062872767" lon="-6.2272121664">
        <ele>810.53</ele>
        <time>2020-08-11T08:32:38Z</time>
      </trkpt>
      <trkpt lat="42.0062921382" lon="-6.2272226438">
        <ele>810.53</ele>
        <time>2020-08-11T08:32:50Z</time>
      </trkpt>
      <trkpt lat="42.0062930603" lon="-6.2272180337">
        <ele>811.49</ele>
        <time>2020-08-11T08:33:01Z</time>
      </trkpt>
      <trkpt lat="42.0062964130" lon="-6.2271913793">
        <ele>810.53</ele>
        <time>2020-08-11T08:33:07Z</time>
      </trkpt>
      <trkpt lat="42.0062946528" lon="-6.2272006832">
        <ele>810.53</ele>
        <time>2020-08-11T08:33:08Z</time>
      </trkpt>
      <trkpt lat="42.0062837563" lon="-6.2272784673">
        <ele>810.53</ele>
        <time>2020-08-11T08:33:14Z</time>
      </trkpt>
      <trkpt lat="42.0062777214" lon="-6.2272906210">
        <ele>810.53</ele>
        <time>2020-08-11T08:33:15Z</time>
      </trkpt>
      <trkpt lat="42.0062801521" lon="-6.2273525633">
        <ele>810.05</ele>
        <time>2020-08-11T08:33:22Z</time>
      </trkpt>
      <trkpt lat="42.0062714349" lon="-6.2273605261">
        <ele>810.05</ele>
        <time>2020-08-11T08:33:23Z</time>
      </trkpt>
      <trkpt lat="42.0062546711" lon="-6.2273795530">
        <ele>810.05</ele>
        <time>2020-08-11T08:33:25Z</time>
      </trkpt>
      <trkpt lat="42.0062530786" lon="-6.2274008431">
        <ele>810.05</ele>
        <time>2020-08-11T08:33:26Z</time>
      </trkpt>
      <trkpt lat="42.0062567666" lon="-6.2274255697">
        <ele>810.05</ele>
        <time>2020-08-11T08:33:27Z</time>
      </trkpt>
      <trkpt lat="42.0062610414" lon="-6.2274502963">
        <ele>810.05</ele>
        <time>2020-08-11T08:33:28Z</time>
      </trkpt>
      <trkpt lat="42.0062666573" lon="-6.2274796329">
        <ele>810.05</ele>
        <time>2020-08-11T08:33:29Z</time>
      </trkpt>
      <trkpt lat="42.0062734466" lon="-6.2275084667">
        <ele>810.05</ele>
        <time>2020-08-11T08:33:30Z</time>
      </trkpt>
      <trkpt lat="42.0062803198" lon="-6.2275407370">
        <ele>810.05</ele>
        <time>2020-08-11T08:33:31Z</time>
      </trkpt>
      <trkpt lat="42.0063678268" lon="-6.2279075291">
        <ele>811.01</ele>
        <time>2020-08-11T08:33:42Z</time>
      </trkpt>
      <trkpt lat="42.0064630453" lon="-6.2283140514">
        <ele>811.49</ele>
        <time>2020-08-11T08:33:53Z</time>
      </trkpt>
      <trkpt lat="42.0065570902" lon="-6.2287397683">
        <ele>811.49</ele>
        <time>2020-08-11T08:34:04Z</time>
      </trkpt>
      <trkpt lat="42.0066230558" lon="-6.2290371582">
        <ele>811.49</ele>
        <time>2020-08-11T08:34:12Z</time>
      </trkpt>
      <trkpt lat="42.0067082997" lon="-6.2294085603">
        <ele>811.97</ele>
        <time>2020-08-11T08:34:22Z</time>
      </trkpt>
      <trkpt lat="42.0067699067" lon="-6.2296940479">
        <ele>812.93</ele>
        <time>2020-08-11T08:34:30Z</time>
      </trkpt>
      <trkpt lat="42.0068517141" lon="-6.2300195172">
        <ele>814.37</ele>
        <time>2020-08-11T08:34:39Z</time>
      </trkpt>
      <trkpt lat="42.0069070347" lon="-6.2303495966">
        <ele>814.85</ele>
        <time>2020-08-11T08:34:48Z</time>
      </trkpt>
      <trkpt lat="42.0069522131" lon="-6.2306857947">
        <ele>816.30</ele>
        <time>2020-08-11T08:34:57Z</time>
      </trkpt>
      <trkpt lat="42.0070042647" lon="-6.2310724519">
        <ele>816.78</ele>
        <time>2020-08-11T08:35:08Z</time>
      </trkpt>
      <trkpt lat="42.0070455875" lon="-6.2313802354">
        <ele>818.70</ele>
        <time>2020-08-11T08:35:17Z</time>
      </trkpt>
      <trkpt lat="42.0070907660" lon="-6.2317517214">
        <ele>819.66</ele>
        <time>2020-08-11T08:35:28Z</time>
      </trkpt>
      <trkpt lat="42.0071282331" lon="-6.2320573255">
        <ele>821.58</ele>
        <time>2020-08-11T08:35:37Z</time>
      </trkpt>
      <trkpt lat="42.0071760099" lon="-6.2324392889">
        <ele>822.06</ele>
        <time>2020-08-11T08:35:48Z</time>
      </trkpt>
      <trkpt lat="42.0072256308" lon="-6.2328238506">
        <ele>823.03</ele>
        <time>2020-08-11T08:35:59Z</time>
      </trkpt>
      <trkpt lat="42.0072680432" lon="-6.2331863679">
        <ele>823.03</ele>
        <time>2020-08-11T08:36:09Z</time>
      </trkpt>
      <trkpt lat="42.0073222741" lon="-6.2336018588">
        <ele>823.51</ele>
        <time>2020-08-11T08:36:20Z</time>
      </trkpt>
      <trkpt lat="42.0073699672" lon="-6.2340186071">
        <ele>823.51</ele>
        <time>2020-08-11T08:36:31Z</time>
      </trkpt>
      <trkpt lat="42.0074065961" lon="-6.2343278155">
        <ele>823.51</ele>
        <time>2020-08-11T08:36:39Z</time>
      </trkpt>
      <trkpt lat="42.0074523613" lon="-6.2346589006">
        <ele>823.03</ele>
        <time>2020-08-11T08:36:47Z</time>
      </trkpt>
      <trkpt lat="42.0075134654" lon="-6.2351748906">
        <ele>823.03</ele>
        <time>2020-08-11T08:36:57Z</time>
      </trkpt>
      <trkpt lat="42.0076093543" lon="-6.2359447684">
        <ele>823.51</ele>
        <time>2020-08-11T08:37:10Z</time>
      </trkpt>
      <trkpt lat="42.0076888986" lon="-6.2365802843">
        <ele>823.51</ele>
        <time>2020-08-11T08:37:21Z</time>
      </trkpt>
      <trkpt lat="42.0077675208" lon="-6.2372123636">
        <ele>823.51</ele>
        <time>2020-08-11T08:37:32Z</time>
      </trkpt>
      <trkpt lat="42.0078251883" lon="-6.2376631424">
        <ele>824.47</ele>
        <time>2020-08-11T08:37:41Z</time>
      </trkpt>
      <trkpt lat="42.0078691933" lon="-6.2380161043">
        <ele>825.43</ele>
        <time>2020-08-11T08:37:49Z</time>
      </trkpt>
      <trkpt lat="42.0079204906" lon="-6.2384429108">
        <ele>826.87</ele>
        <time>2020-08-11T08:38:00Z</time>
      </trkpt>
      <trkpt lat="42.0079560298" lon="-6.2387173343">
        <ele>827.83</ele>
        <time>2020-08-11T08:38:08Z</time>
      </trkpt>
      <trkpt lat="42.0080000348" lon="-6.2390633393">
        <ele>828.31</ele>
        <time>2020-08-11T08:38:18Z</time>
      </trkpt>
      <trkpt lat="42.0080310479" lon="-6.2393315602">
        <ele>829.76</ele>
        <time>2020-08-11T08:38:26Z</time>
      </trkpt>
      <trkpt lat="42.0080779865" lon="-6.2397282757">
        <ele>831.20</ele>
        <time>2020-08-11T08:38:38Z</time>
      </trkpt>
      <trkpt lat="42.0081167948" lon="-6.2400337961">
        <ele>833.60</ele>
        <time>2020-08-11T08:38:48Z</time>
      </trkpt>
      <trkpt lat="42.0081516635" lon="-6.2403142545">
        <ele>834.08</ele>
        <time>2020-08-11T08:38:57Z</time>
      </trkpt>
      <trkpt lat="42.0081918966" lon="-6.2406358682">
        <ele>835.04</ele>
        <time>2020-08-11T08:39:07Z</time>
      </trkpt>
      <trkpt lat="42.0082441159" lon="-6.2410377804">
        <ele>836.48</ele>
        <time>2020-08-11T08:39:20Z</time>
      </trkpt>
      <trkpt lat="42.0082931500" lon="-6.2414357532">
        <ele>838.41</ele>
        <time>2020-08-11T08:39:33Z</time>
      </trkpt>
      <trkpt lat="42.0083353948" lon="-6.2417619769">
        <ele>839.37</ele>
        <time>2020-08-11T08:39:44Z</time>
      </trkpt>
      <trkpt lat="42.0083655696" lon="-6.2420376576">
        <ele>840.33</ele>
        <time>2020-08-11T08:39:53Z</time>
      </trkpt>
      <trkpt lat="42.0084062219" lon="-6.2423460279">
        <ele>841.29</ele>
        <time>2020-08-11T08:40:03Z</time>
      </trkpt>
      <trkpt lat="42.0084464550" lon="-6.2426621933">
        <ele>842.25</ele>
        <time>2020-08-11T08:40:13Z</time>
      </trkpt>
      <trkpt lat="42.0084820781" lon="-6.2429352757">
        <ele>843.69</ele>
        <time>2020-08-11T08:40:23Z</time>
      </trkpt>
      <trkpt lat="42.0085176174" lon="-6.2431944441">
        <ele>844.66</ele>
        <time>2020-08-11T08:40:32Z</time>
      </trkpt>
      <trkpt lat="42.0085519832" lon="-6.2434712145">
        <ele>846.10</ele>
        <time>2020-08-11T08:40:41Z</time>
      </trkpt>
      <trkpt lat="42.0085915457" lon="-6.2437823508">
        <ele>847.54</ele>
        <time>2020-08-11T08:40:51Z</time>
      </trkpt>
      <trkpt lat="42.0086237323" lon="-6.2440280244">
        <ele>848.02</ele>
        <time>2020-08-11T08:40:59Z</time>
      </trkpt>
      <trkpt lat="42.0086573437" lon="-6.2443135120">
        <ele>848.50</ele>
        <time>2020-08-11T08:41:08Z</time>
      </trkpt>
      <trkpt lat="42.0087043662" lon="-6.2447217945">
        <ele>849.94</ele>
        <time>2020-08-11T08:41:20Z</time>
      </trkpt>
      <trkpt lat="42.0087485388" lon="-6.2450657040">
        <ele>850.90</ele>
        <time>2020-08-11T08:41:30Z</time>
      </trkpt>
      <trkpt lat="42.0087808091" lon="-6.2453244533">
        <ele>852.35</ele>
        <time>2020-08-11T08:41:38Z</time>
      </trkpt>
      <trkpt lat="42.0088208746" lon="-6.2456617411">
        <ele>853.31</ele>
        <time>2020-08-11T08:41:49Z</time>
      </trkpt>
      <trkpt lat="42.0088644605" lon="-6.2460305449">
        <ele>855.23</ele>
        <time>2020-08-11T08:42:00Z</time>
      </trkpt>
      <trkpt lat="42.0089101419" lon="-6.2463762984">
        <ele>856.67</ele>
        <time>2020-08-11T08:42:11Z</time>
      </trkpt>
      <trkpt lat="42.0089583378" lon="-6.2467135862">
        <ele>857.63</ele>
        <time>2020-08-11T08:42:21Z</time>
      </trkpt>
      <trkpt lat="42.0089994092" lon="-6.2470129877">
        <ele>858.59</ele>
        <time>2020-08-11T08:42:30Z</time>
      </trkpt>
      <trkpt lat="42.0090391394" lon="-6.2472805381">
        <ele>858.59</ele>
        <time>2020-08-11T08:42:38Z</time>
      </trkpt>
      <trkpt lat="42.0090657938" lon="-6.2475648522">
        <ele>859.56</ele>
        <time>2020-08-11T08:42:46Z</time>
      </trkpt>
      <trkpt lat="42.0091022551" lon="-6.2479235139">
        <ele>860.52</ele>
        <time>2020-08-11T08:42:56Z</time>
      </trkpt>
      <trkpt lat="42.0091651194" lon="-6.2484064791">
        <ele>861.00</ele>
        <time>2020-08-11T08:43:09Z</time>
      </trkpt>
      <trkpt lat="42.0092039276" lon="-6.2487520650">
        <ele>861.48</ele>
        <time>2020-08-11T08:43:18Z</time>
      </trkpt>
      <trkpt lat="42.0092497766" lon="-6.2491020095">
        <ele>861.96</ele>
        <time>2020-08-11T08:43:27Z</time>
      </trkpt>
      <trkpt lat="42.0093008224" lon="-6.2495037541">
        <ele>862.44</ele>
        <time>2020-08-11T08:43:37Z</time>
      </trkpt>
      <trkpt lat="42.0093664527" lon="-6.2499800138">
        <ele>863.40</ele>
        <time>2020-08-11T08:43:49Z</time>
      </trkpt>
      <trkpt lat="42.0094087813" lon="-6.2503346521">
        <ele>863.88</ele>
        <time>2020-08-11T08:43:58Z</time>
      </trkpt>
      <trkpt lat="42.0094532054" lon="-6.2506835908">
        <ele>863.88</ele>
        <time>2020-08-11T08:44:07Z</time>
      </trkpt>
      <trkpt lat="42.0095166564" lon="-6.2512044422">
        <ele>864.84</ele>
        <time>2020-08-11T08:44:20Z</time>
      </trkpt>
      <trkpt lat="42.0095692948" lon="-6.2516231183">
        <ele>864.84</ele>
        <time>2020-08-11T08:44:31Z</time>
      </trkpt>
      <trkpt lat="42.0096268784" lon="-6.2520888168">
        <ele>865.32</ele>
        <time>2020-08-11T08:44:40Z</time>
      </trkpt>
      <trkpt lat="42.0096943527" lon="-6.2526372448">
        <ele>865.32</ele>
        <time>2020-08-11T08:44:50Z</time>
      </trkpt>
      <trkpt lat="42.0097700413" lon="-6.2532288395">
        <ele>865.32</ele>
        <time>2020-08-11T08:45:01Z</time>
      </trkpt>
      <trkpt lat="42.0098438021" lon="-6.2538494356">
        <ele>864.84</ele>
        <time>2020-08-11T08:45:12Z</time>
      </trkpt>
      <trkpt lat="42.0099455584" lon="-6.2546666712">
        <ele>864.84</ele>
        <time>2020-08-11T08:45:26Z</time>
      </trkpt>
      <trkpt lat="42.0100266114" lon="-6.2552998401">
        <ele>864.84</ele>
        <time>2020-08-11T08:45:37Z</time>
      </trkpt>
      <trkpt lat="42.0101178903" lon="-6.2560494337">
        <ele>865.32</ele>
        <time>2020-08-11T08:45:50Z</time>
      </trkpt>
      <trkpt lat="42.0101937465" lon="-6.2566668447">
        <ele>866.29</ele>
        <time>2020-08-11T08:46:01Z</time>
      </trkpt>
      <trkpt lat="42.0102659147" lon="-6.2572793942">
        <ele>867.25</ele>
        <time>2020-08-11T08:46:12Z</time>
      </trkpt>
      <trkpt lat="42.0103317127" lon="-6.2578246370">
        <ele>867.73</ele>
        <time>2020-08-11T08:46:22Z</time>
      </trkpt>
      <trkpt lat="42.0104260929" lon="-6.2585822772">
        <ele>868.69</ele>
        <time>2020-08-11T08:46:36Z</time>
      </trkpt>
      <trkpt lat="42.0104954112" lon="-6.2591028772">
        <ele>868.69</ele>
        <time>2020-08-11T08:46:46Z</time>
      </trkpt>
      <trkpt lat="42.0105582755" lon="-6.2596291769">
        <ele>869.65</ele>
        <time>2020-08-11T08:46:56Z</time>
      </trkpt>
      <trkpt lat="42.0106221456" lon="-6.2601268105">
        <ele>870.13</ele>
        <time>2020-08-11T08:47:05Z</time>
      </trkpt>
      <trkpt lat="42.0106875245" lon="-6.2606741488">
        <ele>869.65</ele>
        <time>2020-08-11T08:47:15Z</time>
      </trkpt>
      <trkpt lat="42.0107575133" lon="-6.2612495665">
        <ele>869.65</ele>
        <time>2020-08-11T08:47:25Z</time>
      </trkpt>
      <trkpt lat="42.0108364709" lon="-6.2618721742">
        <ele>869.65</ele>
        <time>2020-08-11T08:47:36Z</time>
      </trkpt>
      <trkpt lat="42.0109199546" lon="-6.2625228614">
        <ele>869.17</ele>
        <time>2020-08-11T08:47:47Z</time>
      </trkpt>
      <trkpt lat="42.0109951403" lon="-6.2631706148">
        <ele>868.21</ele>
        <time>2020-08-11T08:47:58Z</time>
      </trkpt>
      <trkpt lat="42.0110737626" lon="-6.2638118304">
        <ele>869.17</ele>
        <time>2020-08-11T08:48:09Z</time>
      </trkpt>
      <trkpt lat="42.0111575816" lon="-6.2644313369">
        <ele>868.21</ele>
        <time>2020-08-11T08:48:20Z</time>
      </trkpt>
      <trkpt lat="42.0112399757" lon="-6.2650703732">
        <ele>868.69</ele>
        <time>2020-08-11T08:48:31Z</time>
      </trkpt>
      <trkpt lat="42.0113185141" lon="-6.2657426018">
        <ele>868.69</ele>
        <time>2020-08-11T08:48:42Z</time>
      </trkpt>
      <trkpt lat="42.0113909338" lon="-6.2663219590">
        <ele>868.69</ele>
        <time>2020-08-11T08:48:52Z</time>
      </trkpt>
      <trkpt lat="42.0113970526" lon="-6.2663741782">
        <ele>868.69</ele>
        <time>2020-08-11T08:48:53Z</time>
      </trkpt>
      <trkpt lat="42.0114784408" lon="-6.2670082692">
        <ele>868.69</ele>
        <time>2020-08-11T08:49:04Z</time>
      </trkpt>
      <trkpt lat="42.0115643553" lon="-6.2677281909">
        <ele>868.69</ele>
        <time>2020-08-11T08:49:16Z</time>
      </trkpt>
      <trkpt lat="42.0116431452" lon="-6.2683807220">
        <ele>868.21</ele>
        <time>2020-08-11T08:49:27Z</time>
      </trkpt>
      <trkpt lat="42.0117329992" lon="-6.2690804433">
        <ele>869.17</ele>
        <time>2020-08-11T08:49:39Z</time>
      </trkpt>
      <trkpt lat="42.0118324086" lon="-6.2698877882">
        <ele>869.17</ele>
        <time>2020-08-11T08:49:53Z</time>
      </trkpt>
      <trkpt lat="42.0119154733" lon="-6.2705273274">
        <ele>869.17</ele>
        <time>2020-08-11T08:50:04Z</time>
      </trkpt>
      <trkpt lat="42.0119871385" lon="-6.2710991409">
        <ele>869.17</ele>
        <time>2020-08-11T08:50:14Z</time>
      </trkpt>
      <trkpt lat="42.0120644197" lon="-6.2717230059">
        <ele>869.17</ele>
        <time>2020-08-11T08:50:25Z</time>
      </trkpt>
      <trkpt lat="42.0121458918" lon="-6.2723909598">
        <ele>869.65</ele>
        <time>2020-08-11T08:50:37Z</time>
      </trkpt>
      <trkpt lat="42.0122444630" lon="-6.2731770147">
        <ele>870.61</ele>
        <time>2020-08-11T08:50:51Z</time>
      </trkpt>
      <trkpt lat="42.0123132784" lon="-6.2737245206">
        <ele>871.09</ele>
        <time>2020-08-11T08:51:01Z</time>
      </trkpt>
      <trkpt lat="42.0123913977" lon="-6.2743732799">
        <ele>871.57</ele>
        <time>2020-08-11T08:51:13Z</time>
      </trkpt>
      <trkpt lat="42.0124540105" lon="-6.2748792116">
        <ele>872.05</ele>
        <time>2020-08-11T08:51:23Z</time>
      </trkpt>
      <trkpt lat="42.0125266816" lon="-6.2754494324">
        <ele>873.01</ele>
        <time>2020-08-11T08:51:35Z</time>
      </trkpt>
      <trkpt lat="42.0125890430" lon="-6.2759725470">
        <ele>873.50</ele>
        <time>2020-08-11T08:51:46Z</time>
      </trkpt>
      <trkpt lat="42.0126591157" lon="-6.2765493896">
        <ele>873.98</ele>
        <time>2020-08-11T08:51:58Z</time>
      </trkpt>
      <trkpt lat="42.0127349719" lon="-6.2771350332">
        <ele>873.50</ele>
        <time>2020-08-11T08:52:10Z</time>
      </trkpt>
      <trkpt lat="42.0127841737" lon="-6.2775249593">
        <ele>874.46</ele>
        <time>2020-08-11T08:52:20Z</time>
      </trkpt>
      <trkpt lat="42.0127798989" lon="-6.2775151525">
        <ele>875.42</ele>
        <time>2020-08-11T08:52:32Z</time>
      </trkpt>
      <trkpt lat="42.0127825812" lon="-6.2775153201">
        <ele>876.38</ele>
        <time>2020-08-11T08:52:49Z</time>
      </trkpt>
      <trkpt lat="42.0127857663" lon="-6.2775138952">
        <ele>874.94</ele>
        <time>2020-08-11T08:53:01Z</time>
      </trkpt>
      <trkpt lat="42.0127805695" lon="-6.2775124703">
        <ele>874.94</ele>
        <time>2020-08-11T08:53:14Z</time>
      </trkpt>
      <trkpt lat="42.0127782226" lon="-6.2775097042">
        <ele>875.42</ele>
        <time>2020-08-11T08:53:25Z</time>
      </trkpt>
      <trkpt lat="42.0127816591" lon="-6.2775098719">
        <ele>873.98</ele>
        <time>2020-08-11T08:53:44Z</time>
      </trkpt>
      <trkpt lat="42.0127881970" lon="-6.2775684614">
        <ele>874.94</ele>
        <time>2020-08-11T08:53:58Z</time>
      </trkpt>
      <trkpt lat="42.0128101576" lon="-6.2777650170">
        <ele>876.38</ele>
        <time>2020-08-11T08:54:06Z</time>
      </trkpt>
      <trkpt lat="42.0128526539" lon="-6.2781030592">
        <ele>876.86</ele>
        <time>2020-08-11T08:54:15Z</time>
      </trkpt>
      <trkpt lat="42.0129257441" lon="-6.2786812428">
        <ele>876.86</ele>
        <time>2020-08-11T08:54:28Z</time>
      </trkpt>
      <trkpt lat="42.0130047016" lon="-6.2793261465">
        <ele>877.82</ele>
        <time>2020-08-11T08:54:41Z</time>
      </trkpt>
      <trkpt lat="42.0130819827" lon="-6.2799519394">
        <ele>878.30</ele>
        <time>2020-08-11T08:54:53Z</time>
      </trkpt>
      <trkpt lat="42.0131626166" lon="-6.2806013692">
        <ele>879.26</ele>
        <time>2020-08-11T08:55:06Z</time>
      </trkpt>
      <trkpt lat="42.0132344496" lon="-6.2811821513">
        <ele>880.22</ele>
        <time>2020-08-11T08:55:18Z</time>
      </trkpt>
      <trkpt lat="42.0132898539" lon="-6.2816499453">
        <ele>881.19</ele>
        <time>2020-08-11T08:55:28Z</time>
      </trkpt>
      <trkpt lat="42.0133773610" lon="-6.2823406979">
        <ele>882.15</ele>
        <time>2020-08-11T08:55:43Z</time>
      </trkpt>
      <trkpt lat="42.0134377945" lon="-6.2828175444">
        <ele>882.63</ele>
        <time>2020-08-11T08:55:54Z</time>
      </trkpt>
      <trkpt lat="42.0134939533" lon="-6.2832935527">
        <ele>883.59</ele>
        <time>2020-08-11T08:56:05Z</time>
      </trkpt>
      <trkpt lat="42.0135560632" lon="-6.2837701477">
        <ele>884.07</ele>
        <time>2020-08-11T08:56:17Z</time>
      </trkpt>
      <trkpt lat="42.0136012416" lon="-6.2841806933">
        <ele>885.03</ele>
        <time>2020-08-11T08:56:28Z</time>
      </trkpt>
      <trkpt lat="42.0136614237" lon="-6.2846449669">
        <ele>885.99</ele>
        <time>2020-08-11T08:56:40Z</time>
      </trkpt>
      <trkpt lat="42.0137257129" lon="-6.2851570174">
        <ele>886.95</ele>
        <time>2020-08-11T08:56:53Z</time>
      </trkpt>
      <trkpt lat="42.0137775969" lon="-6.2856177706">
        <ele>888.40</ele>
        <time>2020-08-11T08:57:05Z</time>
      </trkpt>
      <trkpt lat="42.0138363540" lon="-6.2860698067">
        <ele>888.88</ele>
        <time>2020-08-11T08:57:17Z</time>
      </trkpt>
      <trkpt lat="42.0138975419" lon="-6.2865562923">
        <ele>889.84</ele>
        <time>2020-08-11T08:57:30Z</time>
      </trkpt>
      <trkpt lat="42.0139509346" lon="-6.2869711127">
        <ele>890.32</ele>
        <time>2020-08-11T08:57:41Z</time>
      </trkpt>
      <trkpt lat="42.0140019804" lon="-6.2873881124">
        <ele>891.28</ele>
        <time>2020-08-11T08:57:52Z</time>
      </trkpt>
      <trkpt lat="42.0140455663" lon="-6.2877439242">
        <ele>891.76</ele>
        <time>2020-08-11T08:58:02Z</time>
      </trkpt>
      <trkpt lat="42.0140952710" lon="-6.2881605886">
        <ele>892.72</ele>
        <time>2020-08-11T08:58:13Z</time>
      </trkpt>
      <trkpt lat="42.0141442213" lon="-6.2885385286">
        <ele>893.68</ele>
        <time>2020-08-11T08:58:23Z</time>
      </trkpt>
      <trkpt lat="42.0142028946" lon="-6.2890212424">
        <ele>894.64</ele>
        <time>2020-08-11T08:58:36Z</time>
      </trkpt>
      <trkpt lat="42.0142593887" lon="-6.2894607894">
        <ele>895.61</ele>
        <time>2020-08-11T08:58:48Z</time>
      </trkpt>
      <trkpt lat="42.0143153798" lon="-6.2899040245">
        <ele>896.57</ele>
        <time>2020-08-11T08:59:00Z</time>
      </trkpt>
      <trkpt lat="42.0143636595" lon="-6.2903169170">
        <ele>897.53</ele>
        <time>2020-08-11T08:59:11Z</time>
      </trkpt>
      <trkpt lat="42.0144140348" lon="-6.2907272950">
        <ele>898.97</ele>
        <time>2020-08-11T08:59:22Z</time>
      </trkpt>
      <trkpt lat="42.0144762285" lon="-6.2912198994">
        <ele>899.93</ele>
        <time>2020-08-11T08:59:35Z</time>
      </trkpt>
      <trkpt lat="42.0145491511" lon="-6.2917917129">
        <ele>899.93</ele>
        <time>2020-08-11T08:59:49Z</time>
      </trkpt>
      <trkpt lat="42.0146015380" lon="-6.2922163401">
        <ele>899.93</ele>
        <time>2020-08-11T08:59:57Z</time>
      </trkpt>
      <trkpt lat="42.0146705210" lon="-6.2927654386">
        <ele>900.41</ele>
        <time>2020-08-11T09:00:07Z</time>
      </trkpt>
      <trkpt lat="42.0147669129" lon="-6.2935079914">
        <ele>899.93</ele>
        <time>2020-08-11T09:00:21Z</time>
      </trkpt>
      <trkpt lat="42.0148264244" lon="-6.2939435989">
        <ele>898.97</ele>
        <time>2020-08-11T09:00:29Z</time>
      </trkpt>
      <trkpt lat="42.0149178710" lon="-6.2945771031">
        <ele>898.49</ele>
        <time>2020-08-11T09:00:40Z</time>
      </trkpt>
      <trkpt lat="42.0150023606" lon="-6.2950245291">
        <ele>898.01</ele>
        <time>2020-08-11T09:00:48Z</time>
      </trkpt>
      <trkpt lat="42.0151300170" lon="-6.2956003658">
        <ele>897.05</ele>
        <time>2020-08-11T09:00:58Z</time>
      </trkpt>
      <trkpt lat="42.0152844116" lon="-6.2962252367">
        <ele>896.57</ele>
        <time>2020-08-11T09:01:09Z</time>
      </trkpt>
      <trkpt lat="42.0154331904" lon="-6.2968255486">
        <ele>896.09</ele>
        <time>2020-08-11T09:01:19Z</time>
      </trkpt>
      <trkpt lat="42.0156360324" lon="-6.2976314686">
        <ele>895.61</ele>
        <time>2020-08-11T09:01:32Z</time>
      </trkpt>
      <trkpt lat="42.0157936122" lon="-6.2982654758">
        <ele>895.12</ele>
        <time>2020-08-11T09:01:43Z</time>
      </trkpt>
      <trkpt lat="42.0159313269" lon="-6.2988201901">
        <ele>895.12</ele>
        <time>2020-08-11T09:01:52Z</time>
      </trkpt>
      <trkpt lat="42.0161110349" lon="-6.2995470688">
        <ele>894.64</ele>
        <time>2020-08-11T09:02:04Z</time>
      </trkpt>
      <trkpt lat="42.0162757393" lon="-6.3002268411">
        <ele>895.12</ele>
        <time>2020-08-11T09:02:16Z</time>
      </trkpt>
      <trkpt lat="42.0164678525" lon="-6.3009582460">
        <ele>895.61</ele>
        <time>2020-08-11T09:02:30Z</time>
      </trkpt>
      <trkpt lat="42.0166242588" lon="-6.3015820272">
        <ele>896.57</ele>
        <time>2020-08-11T09:02:42Z</time>
      </trkpt>
      <trkpt lat="42.0167930704" lon="-6.3022610452">
        <ele>897.53</ele>
        <time>2020-08-11T09:02:55Z</time>
      </trkpt>
      <trkpt lat="42.0169093274" lon="-6.3027130812">
        <ele>898.01</ele>
        <time>2020-08-11T09:03:04Z</time>
      </trkpt>
      <trkpt lat="42.0170417614" lon="-6.3032460026">
        <ele>898.49</ele>
        <time>2020-08-11T09:03:15Z</time>
      </trkpt>
      <trkpt lat="42.0171830803" lon="-6.3038185704">
        <ele>898.97</ele>
        <time>2020-08-11T09:03:27Z</time>
      </trkpt>
      <trkpt lat="42.0173067972" lon="-6.3043024577">
        <ele>899.93</ele>
        <time>2020-08-11T09:03:37Z</time>
      </trkpt>
      <trkpt lat="42.0174312685" lon="-6.3048207946">
        <ele>901.37</ele>
        <time>2020-08-11T09:03:48Z</time>
      </trkpt>
      <trkpt lat="42.0175792929" lon="-6.3053877465">
        <ele>901.85</ele>
        <time>2020-08-11T09:04:00Z</time>
      </trkpt>
      <trkpt lat="42.0176910236" lon="-6.3058596477">
        <ele>902.82</ele>
        <time>2020-08-11T09:04:10Z</time>
      </trkpt>
      <trkpt lat="42.0178330969" lon="-6.3064398430">
        <ele>903.30</ele>
        <time>2020-08-11T09:04:22Z</time>
      </trkpt>
      <trkpt lat="42.0179849770" lon="-6.3070534822">
        <ele>903.78</ele>
        <time>2020-08-11T09:04:34Z</time>
      </trkpt>
      <trkpt lat="42.0181880705" lon="-6.3078526128">
        <ele>904.26</ele>
        <time>2020-08-11T09:04:49Z</time>
      </trkpt>
      <trkpt lat="42.0183280483" lon="-6.3084128592">
        <ele>904.74</ele>
        <time>2020-08-11T09:04:59Z</time>
      </trkpt>
      <trkpt lat="42.0184615720" lon="-6.3089627121">
        <ele>905.22</ele>
        <time>2020-08-11T09:05:09Z</time>
      </trkpt>
      <trkpt lat="42.0186010469" lon="-6.3095158339">
        <ele>905.22</ele>
        <time>2020-08-11T09:05:19Z</time>
      </trkpt>
      <trkpt lat="42.0187432878" lon="-6.3100737333">
        <ele>905.70</ele>
        <time>2020-08-11T09:05:29Z</time>
      </trkpt>
      <trkpt lat="42.0188984368" lon="-6.3106913120">
        <ele>906.18</ele>
        <time>2020-08-11T09:05:40Z</time>
      </trkpt>
      <trkpt lat="42.0190620515" lon="-6.3113508001">
        <ele>906.66</ele>
        <time>2020-08-11T09:05:52Z</time>
      </trkpt>
      <trkpt lat="42.0191672444" lon="-6.3117795344">
        <ele>906.66</ele>
        <time>2020-08-11T09:06:01Z</time>
      </trkpt>
      <trkpt lat="42.0193330385" lon="-6.3124308921">
        <ele>907.14</ele>
        <time>2020-08-11T09:06:14Z</time>
      </trkpt>
      <trkpt lat="42.0194686577" lon="-6.3129753806">
        <ele>907.62</ele>
        <time>2020-08-11T09:06:25Z</time>
      </trkpt>
      <trkpt lat="42.0196131617" lon="-6.3135432545">
        <ele>907.62</ele>
        <time>2020-08-11T09:06:36Z</time>
      </trkpt>
      <trkpt lat="42.0197342802" lon="-6.3140283152">
        <ele>907.62</ele>
        <time>2020-08-11T09:06:45Z</time>
      </trkpt>
      <trkpt lat="42.0198647864" lon="-6.3145535253">
        <ele>908.10</ele>
        <time>2020-08-11T09:06:55Z</time>
      </trkpt>
      <trkpt lat="42.0200289879" lon="-6.3152173720">
        <ele>908.10</ele>
        <time>2020-08-11T09:07:07Z</time>
      </trkpt>
      <trkpt lat="42.0201887470" lon="-6.3158773631">
        <ele>908.10</ele>
        <time>2020-08-11T09:07:19Z</time>
      </trkpt>
      <trkpt lat="42.0203713886" lon="-6.3165844604">
        <ele>909.06</ele>
        <time>2020-08-11T09:07:32Z</time>
      </trkpt>
      <trkpt lat="42.0205180719" lon="-6.3171657454">
        <ele>910.03</ele>
        <time>2020-08-11T09:07:43Z</time>
      </trkpt>
      <trkpt lat="42.0206449740" lon="-6.3176617865">
        <ele>910.99</ele>
        <time>2020-08-11T09:07:53Z</time>
      </trkpt>
      <trkpt lat="42.0207954291" lon="-6.3182679657">
        <ele>912.43</ele>
        <time>2020-08-11T09:08:05Z</time>
      </trkpt>
      <trkpt lat="42.0209837705" lon="-6.3190328982">
        <ele>913.39</ele>
        <time>2020-08-11T09:08:20Z</time>
      </trkpt>
      <trkpt lat="42.0211483072" lon="-6.3196893688">
        <ele>914.83</ele>
        <time>2020-08-11T09:08:32Z</time>
      </trkpt>
      <trkpt lat="42.0212519076" lon="-6.3201160915">
        <ele>914.35</ele>
        <time>2020-08-11T09:08:41Z</time>
      </trkpt>
      <trkpt lat="42.0213801507" lon="-6.3206056785">
        <ele>914.83</ele>
        <time>2020-08-11T09:08:51Z</time>
      </trkpt>
      <trkpt lat="42.0214985032" lon="-6.3210606482">
        <ele>915.31</ele>
        <time>2020-08-11T09:09:01Z</time>
      </trkpt>
      <trkpt lat="42.0215974934" lon="-6.3214747980">
        <ele>914.83</ele>
        <time>2020-08-11T09:09:09Z</time>
      </trkpt>
      <trkpt lat="42.0217028540" lon="-6.3219127525">
        <ele>914.35</ele>
        <time>2020-08-11T09:09:17Z</time>
      </trkpt>
      <trkpt lat="42.0218439214" lon="-6.3224655390">
        <ele>913.87</ele>
        <time>2020-08-11T09:09:27Z</time>
      </trkpt>
      <trkpt lat="42.0219895989" lon="-6.3230332453">
        <ele>913.39</ele>
        <time>2020-08-11T09:09:37Z</time>
      </trkpt>
      <trkpt lat="42.0221321750" lon="-6.3235991914">
        <ele>912.91</ele>
        <time>2020-08-11T09:09:47Z</time>
      </trkpt>
      <trkpt lat="42.0223123021" lon="-6.3243255671">
        <ele>912.43</ele>
        <time>2020-08-11T09:10:00Z</time>
      </trkpt>
      <trkpt lat="42.0224490110" lon="-6.3248695526">
        <ele>911.95</ele>
        <time>2020-08-11T09:10:10Z</time>
      </trkpt>
      <trkpt lat="42.0226392802" lon="-6.3256127760">
        <ele>910.51</ele>
        <time>2020-08-11T09:10:24Z</time>
      </trkpt>
      <trkpt lat="42.0227680262" lon="-6.3261312805">
        <ele>909.06</ele>
        <time>2020-08-11T09:10:33Z</time>
      </trkpt>
      <trkpt lat="42.0229157154" lon="-6.3267849013">
        <ele>908.58</ele>
        <time>2020-08-11T09:10:44Z</time>
      </trkpt>
      <trkpt lat="42.0230320562" lon="-6.3274202496">
        <ele>907.62</ele>
        <time>2020-08-11T09:10:54Z</time>
      </trkpt>
      <trkpt lat="42.0230447128" lon="-6.3280696794">
        <ele>905.70</ele>
        <time>2020-08-11T09:11:03Z</time>
      </trkpt>
      <trkpt lat="42.0230545197" lon="-6.3288129866">
        <ele>903.78</ele>
        <time>2020-08-11T09:11:13Z</time>
      </trkpt>
      <trkpt lat="42.0231459662" lon="-6.3294041622">
        <ele>901.85</ele>
        <time>2020-08-11T09:11:19Z</time>
      </trkpt>
      <trkpt lat="42.0233840961" lon="-6.3302745391">
        <ele>900.41</ele>
        <time>2020-08-11T09:11:27Z</time>
      </trkpt>
      <trkpt lat="42.0234671608" lon="-6.3309987355">
        <ele>899.93</ele>
        <time>2020-08-11T09:11:34Z</time>
      </trkpt>
      <trkpt lat="42.0234685857" lon="-6.3312531263">
        <ele>899.93</ele>
        <time>2020-08-11T09:11:38Z</time>
      </trkpt>
      <trkpt lat="42.0234566834" lon="-6.3312860671">
        <ele>899.93</ele>
        <time>2020-08-11T09:11:39Z</time>
      </trkpt>
      <trkpt lat="42.0234338008" lon="-6.3313119672">
        <ele>899.93</ele>
        <time>2020-08-11T09:11:40Z</time>
      </trkpt>
      <trkpt lat="42.0234089904" lon="-6.3313218579">
        <ele>899.93</ele>
        <time>2020-08-11T09:11:41Z</time>
      </trkpt>
      <trkpt lat="42.0233872812" lon="-6.3313252106">
        <ele>899.93</ele>
        <time>2020-08-11T09:11:42Z</time>
      </trkpt>
      <trkpt lat="42.0233624708" lon="-6.3313289825">
        <ele>899.93</ele>
        <time>2020-08-11T09:11:43Z</time>
      </trkpt>
      <trkpt lat="42.0233350620" lon="-6.3313362747">
        <ele>899.93</ele>
        <time>2020-08-11T09:11:44Z</time>
      </trkpt>
      <trkpt lat="42.0233092457" lon="-6.3313449081">
        <ele>899.93</ele>
        <time>2020-08-11T09:11:45Z</time>
      </trkpt>
      <trkpt lat="42.0231048949" lon="-6.3314356841">
        <ele>898.49</ele>
        <time>2020-08-11T09:11:53Z</time>
      </trkpt>
      <trkpt lat="42.0229866263" lon="-6.3316150568">
        <ele>897.53</ele>
        <time>2020-08-11T09:11:59Z</time>
      </trkpt>
      <trkpt lat="42.0228415355" lon="-6.3317330740">
        <ele>898.49</ele>
        <time>2020-08-11T09:12:07Z</time>
      </trkpt>
      <trkpt lat="42.0226712152" lon="-6.3317878079">
        <ele>899.45</ele>
        <time>2020-08-11T09:12:18Z</time>
      </trkpt>
      <trkpt lat="42.0225601550" lon="-6.3317948487">
        <ele>899.45</ele>
        <time>2020-08-11T09:12:27Z</time>
      </trkpt>
      <trkpt lat="42.0225533657" lon="-6.3317893166">
        <ele>899.93</ele>
        <time>2020-08-11T09:12:38Z</time>
      </trkpt>
      <trkpt lat="42.0224975422" lon="-6.3317625783">
        <ele>898.97</ele>
        <time>2020-08-11T09:12:44Z</time>
      </trkpt>
      <trkpt lat="42.0224753302" lon="-6.3317539450">
        <ele>898.97</ele>
        <time>2020-08-11T09:12:45Z</time>
      </trkpt>
      <trkpt lat="42.0224464964" lon="-6.3317523524">
        <ele>898.49</ele>
        <time>2020-08-11T09:12:50Z</time>
      </trkpt>
      <trkpt lat="42.0224449877" lon="-6.3317458145">
        <ele>897.53</ele>
        <time>2020-08-11T09:13:02Z</time>
      </trkpt>
      <trkpt lat="42.0224369410" lon="-6.3317434676">
        <ele>897.05</ele>
        <time>2020-08-11T09:13:17Z</time>
      </trkpt>
      <trkpt lat="42.0224333368" lon="-6.3317332417">
        <ele>896.09</ele>
        <time>2020-08-11T09:13:32Z</time>
      </trkpt>
      <trkpt lat="42.0224274695" lon="-6.3317293022">
        <ele>896.09</ele>
        <time>2020-08-11T09:13:45Z</time>
      </trkpt>
      <trkpt lat="42.0224339236" lon="-6.3317378517">
        <ele>895.61</ele>
        <time>2020-08-11T09:14:01Z</time>
      </trkpt>
      <trkpt lat="42.0224464964" lon="-6.3317402825">
        <ele>896.57</ele>
        <time>2020-08-11T09:14:15Z</time>
      </trkpt>
      <trkpt lat="42.0224541239" lon="-6.3317505922">
        <ele>896.09</ele>
        <time>2020-08-11T09:14:31Z</time>
      </trkpt>
      <trkpt lat="42.0224532858" lon="-6.3317567110">
        <ele>895.61</ele>
        <time>2020-08-11T09:14:47Z</time>
      </trkpt>
      <trkpt lat="42.0224516932" lon="-6.3317432161">
        <ele>896.09</ele>
        <time>2020-08-11T09:15:02Z</time>
      </trkpt>
      <trkpt lat="42.0224477537" lon="-6.3317414559">
        <ele>896.09</ele>
        <time>2020-08-11T09:15:14Z</time>
      </trkpt>
      <trkpt lat="42.0224478375" lon="-6.3317442220">
        <ele>895.61</ele>
        <time>2020-08-11T09:15:27Z</time>
      </trkpt>
      <trkpt lat="42.0224464126" lon="-6.3317469880">
        <ele>894.64</ele>
        <time>2020-08-11T09:15:39Z</time>
      </trkpt>
      <trkpt lat="42.0224457420" lon="-6.3317362592">
        <ele>896.09</ele>
        <time>2020-08-11T09:15:55Z</time>
      </trkpt>
      <trkpt lat="42.0224444009" lon="-6.3317284640">
        <ele>896.57</ele>
        <time>2020-08-11T09:16:07Z</time>
      </trkpt>
      <trkpt lat="42.0224384498" lon="-6.3317255303">
        <ele>896.09</ele>
        <time>2020-08-11T09:16:21Z</time>
      </trkpt>
      <trkpt lat="42.0224361029" lon="-6.3317368459">
        <ele>896.09</ele>
        <time>2020-08-11T09:16:38Z</time>
      </trkpt>
      <trkpt lat="42.0224469155" lon="-6.3317499217">
        <ele>896.09</ele>
        <time>2020-08-11T09:16:45Z</time>
      </trkpt>
      <trkpt lat="42.0224475861" lon="-6.3317494188">
        <ele>896.09</ele>
        <time>2020-08-11T09:16:46Z</time>
      </trkpt>
      <trkpt lat="42.0224886574" lon="-6.3317459822">
        <ele>896.57</ele>
        <time>2020-08-11T09:16:50Z</time>
      </trkpt>
      <trkpt lat="42.0225466602" lon="-6.3317320682">
        <ele>897.05</ele>
        <time>2020-08-11T09:16:54Z</time>
      </trkpt>
      <trkpt lat="42.0226687845" lon="-6.3317918312">
        <ele>898.01</ele>
        <time>2020-08-11T09:17:03Z</time>
      </trkpt>
      <trkpt lat="42.0228062477" lon="-6.3317703735">
        <ele>899.45</ele>
        <time>2020-08-11T09:17:10Z</time>
      </trkpt>
      <trkpt lat="42.0229416993" lon="-6.3316614088">
        <ele>900.41</ele>
        <time>2020-08-11T09:17:17Z</time>
      </trkpt>
      <trkpt lat="42.0230712835" lon="-6.3314820360">
        <ele>901.85</ele>
        <time>2020-08-11T09:17:25Z</time>
      </trkpt>
      <trkpt lat="42.0232358202" lon="-6.3313995581">
        <ele>902.33</ele>
        <time>2020-08-11T09:17:31Z</time>
      </trkpt>
      <trkpt lat="42.0233871974" lon="-6.3313522842">
        <ele>904.26</ele>
        <time>2020-08-11T09:17:37Z</time>
      </trkpt>
      <trkpt lat="42.0234526601" lon="-6.3313858956">
        <ele>904.26</ele>
        <time>2020-08-11T09:17:44Z</time>
      </trkpt>
      <trkpt lat="42.0234941505" lon="-6.3314323314">
        <ele>904.26</ele>
        <time>2020-08-11T09:17:46Z</time>
      </trkpt>
      <trkpt lat="42.0235037059" lon="-6.3314588182">
        <ele>904.26</ele>
        <time>2020-08-11T09:17:47Z</time>
      </trkpt>
      <trkpt lat="42.0235596970" lon="-6.3317770790">
        <ele>904.26</ele>
        <time>2020-08-11T09:17:55Z</time>
      </trkpt>
      <trkpt lat="42.0236385707" lon="-6.3323410135">
        <ele>903.78</ele>
        <time>2020-08-11T09:18:07Z</time>
      </trkpt>
      <trkpt lat="42.0236498024" lon="-6.3327353820">
        <ele>903.78</ele>
        <time>2020-08-11T09:18:16Z</time>
      </trkpt>
      <trkpt lat="42.0236669015" lon="-6.3331644516">
        <ele>904.74</ele>
        <time>2020-08-11T09:18:25Z</time>
      </trkpt>
      <trkpt lat="42.0236726012" lon="-6.3336700480">
        <ele>905.70</ele>
        <time>2020-08-11T09:18:35Z</time>
      </trkpt>
      <trkpt lat="42.0236798935" lon="-6.3342970144">
        <ele>907.14</ele>
        <time>2020-08-11T09:18:47Z</time>
      </trkpt>
      <trkpt lat="42.0236933883" lon="-6.3348572608">
        <ele>906.66</ele>
        <time>2020-08-11T09:18:58Z</time>
      </trkpt>
      <trkpt lat="42.0237029437" lon="-6.3353004958">
        <ele>904.74</ele>
        <time>2020-08-11T09:19:06Z</time>
      </trkpt>
      <trkpt lat="42.0237089787" lon="-6.3360077608">
        <ele>903.30</ele>
        <time>2020-08-11T09:19:16Z</time>
      </trkpt>
      <trkpt lat="42.0237151813" lon="-6.3367372379">
        <ele>902.33</ele>
        <time>2020-08-11T09:19:26Z</time>
      </trkpt>
      <trkpt lat="42.0237206295" lon="-6.3374837302">
        <ele>901.85</ele>
        <time>2020-08-11T09:19:38Z</time>
      </trkpt>
      <trkpt lat="42.0237215515" lon="-6.3375409786">
        <ele>901.85</ele>
        <time>2020-08-11T09:19:39Z</time>
      </trkpt>
      <trkpt lat="42.0237222221" lon="-6.3376001548">
        <ele>901.85</ele>
        <time>2020-08-11T09:19:40Z</time>
      </trkpt>
      <trkpt lat="42.0237218868" lon="-6.3381981198">
        <ele>902.82</ele>
        <time>2020-08-11T09:19:51Z</time>
      </trkpt>
      <trkpt lat="42.0237238146" lon="-6.3386890478">
        <ele>904.26</ele>
        <time>2020-08-11T09:20:01Z</time>
      </trkpt>
      <trkpt lat="42.0237285923" lon="-6.3392000925">
        <ele>905.22</ele>
        <time>2020-08-11T09:20:12Z</time>
      </trkpt>
      <trkpt lat="42.0237331185" lon="-6.3395977300">
        <ele>906.18</ele>
        <time>2020-08-11T09:20:22Z</time>
      </trkpt>
      <trkpt lat="42.0237380639" lon="-6.3399586547">
        <ele>907.14</ele>
        <time>2020-08-11T09:20:31Z</time>
      </trkpt>
      <trkpt lat="42.0237412490" lon="-6.3402821124">
        <ele>908.58</ele>
        <time>2020-08-11T09:20:40Z</time>
      </trkpt>
      <trkpt lat="42.0237464458" lon="-6.3406646624">
        <ele>910.03</ele>
        <time>2020-08-11T09:20:51Z</time>
      </trkpt>
      <trkpt lat="42.0237461943" lon="-6.3410000224">
        <ele>911.47</ele>
        <time>2020-08-11T09:21:01Z</time>
      </trkpt>
      <trkpt lat="42.0237515587" lon="-6.3413218874">
        <ele>912.43</ele>
        <time>2020-08-11T09:21:11Z</time>
      </trkpt>
      <trkpt lat="42.0237574261" lon="-6.3416916970">
        <ele>913.39</ele>
        <time>2020-08-11T09:21:22Z</time>
      </trkpt>
      <trkpt lat="42.0237597730" lon="-6.3420452457">
        <ele>914.83</ele>
        <time>2020-08-11T09:21:32Z</time>
      </trkpt>
      <trkpt lat="42.0237658080" lon="-6.3424264546">
        <ele>916.27</ele>
        <time>2020-08-11T09:21:43Z</time>
      </trkpt>
      <trkpt lat="42.0237694960" lon="-6.3428008743">
        <ele>917.72</ele>
        <time>2020-08-11T09:21:54Z</time>
      </trkpt>
      <trkpt lat="42.0237735193" lon="-6.3431983441">
        <ele>919.16</ele>
        <time>2020-08-11T09:22:06Z</time>
      </trkpt>
      <trkpt lat="42.0237782970" lon="-6.3435616158">
        <ele>920.60</ele>
        <time>2020-08-11T09:22:16Z</time>
      </trkpt>
      <trkpt lat="42.0237844158" lon="-6.3439895120">
        <ele>921.56</ele>
        <time>2020-08-11T09:22:28Z</time>
      </trkpt>
      <trkpt lat="42.0237919595" lon="-6.3443684578">
        <ele>922.52</ele>
        <time>2020-08-11T09:22:39Z</time>
      </trkpt>
      <trkpt lat="42.0237969887" lon="-6.3447753154">
        <ele>923.48</ele>
        <time>2020-08-11T09:22:51Z</time>
      </trkpt>
      <trkpt lat="42.0238010120" lon="-6.3452592865">
        <ele>924.45</ele>
        <time>2020-08-11T09:23:05Z</time>
      </trkpt>
      <trkpt lat="42.0238000061" lon="-6.3457006775">
        <ele>924.93</ele>
        <time>2020-08-11T09:23:17Z</time>
      </trkpt>
      <trkpt lat="42.0238101482" lon="-6.3461308368">
        <ele>926.37</ele>
        <time>2020-08-11T09:23:29Z</time>
      </trkpt>
      <trkpt lat="42.0238071308" lon="-6.3466047496">
        <ele>926.85</ele>
        <time>2020-08-11T09:23:42Z</time>
      </trkpt>
      <trkpt lat="42.0238220505" lon="-6.3468905725">
        <ele>927.33</ele>
        <time>2020-08-11T09:23:52Z</time>
      </trkpt>
      <trkpt lat="42.0238266606" lon="-6.3469359186">
        <ele>926.85</ele>
        <time>2020-08-11T09:23:58Z</time>
      </trkpt>
      <trkpt lat="42.0238224696" lon="-6.3469396066">
        <ele>926.37</ele>
        <time>2020-08-11T09:24:15Z</time>
      </trkpt>
      <trkpt lat="42.0238320250" lon="-6.3469364215">
        <ele>925.89</ele>
        <time>2020-08-11T09:24:29Z</time>
      </trkpt>
      <trkpt lat="42.0238266606" lon="-6.3469457254">
        <ele>925.41</ele>
        <time>2020-08-11T09:24:43Z</time>
      </trkpt>
      <trkpt lat="42.0238238946" lon="-6.3469531015">
        <ele>925.41</ele>
        <time>2020-08-11T09:24:46Z</time>
      </trkpt>
      <trkpt lat="42.0238050353" lon="-6.3469794206">
        <ele>925.89</ele>
        <time>2020-08-11T09:24:53Z</time>
      </trkpt>
      <trkpt lat="42.0237983298" lon="-6.3470037282">
        <ele>925.89</ele>
        <time>2020-08-11T09:24:55Z</time>
      </trkpt>
      <trkpt lat="42.0237963181" lon="-6.3470245153">
        <ele>925.89</ele>
        <time>2020-08-11T09:24:56Z</time>
      </trkpt>
      <trkpt lat="42.0237988327" lon="-6.3470508344">
        <ele>926.37</ele>
        <time>2020-08-11T09:24:57Z</time>
      </trkpt>
      <trkpt lat="42.0238026883" lon="-6.3470815122">
        <ele>926.37</ele>
        <time>2020-08-11T09:24:58Z</time>
      </trkpt>
      <trkpt lat="42.0238042809" lon="-6.3471142016">
        <ele>926.37</ele>
        <time>2020-08-11T09:24:59Z</time>
      </trkpt>
      <trkpt lat="42.0238130819" lon="-6.3474510703">
        <ele>926.37</ele>
        <time>2020-08-11T09:25:07Z</time>
      </trkpt>
      <trkpt lat="42.0238186978" lon="-6.3478784636">
        <ele>926.37</ele>
        <time>2020-08-11T09:25:16Z</time>
      </trkpt>
      <trkpt lat="42.0238236431" lon="-6.3483934477">
        <ele>925.89</ele>
        <time>2020-08-11T09:25:26Z</time>
      </trkpt>
      <trkpt lat="42.0238313545" lon="-6.3490609825">
        <ele>925.41</ele>
        <time>2020-08-11T09:25:37Z</time>
      </trkpt>
      <trkpt lat="42.0238388143" lon="-6.3498873543">
        <ele>924.93</ele>
        <time>2020-08-11T09:25:50Z</time>
      </trkpt>
      <trkpt lat="42.0238487888" lon="-6.3507680409">
        <ele>924.45</ele>
        <time>2020-08-11T09:26:04Z</time>
      </trkpt>
      <trkpt lat="42.0238534827" lon="-6.3512969390">
        <ele>924.45</ele>
        <time>2020-08-11T09:26:13Z</time>
      </trkpt>
      <trkpt lat="42.0238591824" lon="-6.3519858476">
        <ele>924.45</ele>
        <time>2020-08-11T09:26:25Z</time>
      </trkpt>
      <trkpt lat="42.0238642115" lon="-6.3527386263">
        <ele>925.41</ele>
        <time>2020-08-11T09:26:38Z</time>
      </trkpt>
      <trkpt lat="42.0238699950" lon="-6.3532887306">
        <ele>925.41</ele>
        <time>2020-08-11T09:26:48Z</time>
      </trkpt>
      <trkpt lat="42.0238743536" lon="-6.3538119290">
        <ele>926.37</ele>
        <time>2020-08-11T09:26:58Z</time>
      </trkpt>
      <trkpt lat="42.0238849148" lon="-6.3542885240">
        <ele>927.33</ele>
        <time>2020-08-11T09:27:08Z</time>
      </trkpt>
      <trkpt lat="42.0238876808" lon="-6.3546121493">
        <ele>927.81</ele>
        <time>2020-08-11T09:27:16Z</time>
      </trkpt>
      <trkpt lat="42.0238865912" lon="-6.3549825456">
        <ele>929.73</ele>
        <time>2020-08-11T09:27:26Z</time>
      </trkpt>
      <trkpt lat="42.0238908660" lon="-6.3553014770">
        <ele>931.17</ele>
        <time>2020-08-11T09:27:36Z</time>
      </trkpt>
      <trkpt lat="42.0238953084" lon="-6.3556494098">
        <ele>932.14</ele>
        <time>2020-08-11T09:27:47Z</time>
      </trkpt>
      <trkpt lat="42.0238985773" lon="-6.3559759688">
        <ele>932.62</ele>
        <time>2020-08-11T09:27:57Z</time>
      </trkpt>
      <trkpt lat="42.0239006728" lon="-6.3561301120">
        <ele>933.58</ele>
        <time>2020-08-11T09:28:04Z</time>
      </trkpt>
      <trkpt lat="42.0238994155" lon="-6.3564377278">
        <ele>934.54</ele>
        <time>2020-08-11T09:28:13Z</time>
      </trkpt>
      <trkpt lat="42.0238997508" lon="-6.3566892687">
        <ele>935.98</ele>
        <time>2020-08-11T09:28:21Z</time>
      </trkpt>
      <trkpt lat="42.0239025168" lon="-6.3569266442">
        <ele>935.98</ele>
        <time>2020-08-11T09:28:28Z</time>
      </trkpt>
      <trkpt lat="42.0239023492" lon="-6.3572417200">
        <ele>936.94</ele>
        <time>2020-08-11T09:28:36Z</time>
      </trkpt>
      <trkpt lat="42.0239079650" lon="-6.3575149700">
        <ele>937.42</ele>
        <time>2020-08-11T09:28:44Z</time>
      </trkpt>
      <trkpt lat="42.0239108149" lon="-6.3578364160">
        <ele>937.90</ele>
        <time>2020-08-11T09:28:52Z</time>
      </trkpt>
      <trkpt lat="42.0239184424" lon="-6.3583327085">
        <ele>938.38</ele>
        <time>2020-08-11T09:29:04Z</time>
      </trkpt>
      <trkpt lat="42.0239280816" lon="-6.3588019274">
        <ele>939.35</ele>
        <time>2020-08-11T09:29:16Z</time>
      </trkpt>
      <trkpt lat="42.0239321887" lon="-6.3590999041">
        <ele>939.83</ele>
        <time>2020-08-11T09:29:24Z</time>
      </trkpt>
      <trkpt lat="42.0239378884" lon="-6.3595030736">
        <ele>940.79</ele>
        <time>2020-08-11T09:29:35Z</time>
      </trkpt>
      <trkpt lat="42.0239396486" lon="-6.3598399423">
        <ele>941.27</ele>
        <time>2020-08-11T09:29:44Z</time>
      </trkpt>
      <trkpt lat="42.0239502098" lon="-6.3603316247">
        <ele>941.27</ele>
        <time>2020-08-11T09:29:57Z</time>
      </trkpt>
      <trkpt lat="42.0239711646" lon="-6.3607310224">
        <ele>941.27</ele>
        <time>2020-08-11T09:30:07Z</time>
      </trkpt>
      <trkpt lat="42.0240015071" lon="-6.3610948808">
        <ele>941.27</ele>
        <time>2020-08-11T09:30:16Z</time>
      </trkpt>
      <trkpt lat="42.0240431651" lon="-6.3614789397">
        <ele>941.75</ele>
        <time>2020-08-11T09:30:26Z</time>
      </trkpt>
      <trkpt lat="42.0240874216" lon="-6.3618100248">
        <ele>942.71</ele>
        <time>2020-08-11T09:30:35Z</time>
      </trkpt>
      <trkpt lat="42.0241417363" lon="-6.3621831033">
        <ele>942.71</ele>
        <time>2020-08-11T09:30:46Z</time>
      </trkpt>
      <trkpt lat="42.0242115576" lon="-6.3625744544">
        <ele>944.15</ele>
        <time>2020-08-11T09:30:58Z</time>
      </trkpt>
      <trkpt lat="42.0242651179" lon="-6.3628638815">
        <ele>944.63</ele>
        <time>2020-08-11T09:31:07Z</time>
      </trkpt>
      <trkpt lat="42.0243341010" lon="-6.3632379659">
        <ele>945.11</ele>
        <time>2020-08-11T09:31:18Z</time>
      </trkpt>
      <trkpt lat="42.0244001504" lon="-6.3635877427">
        <ele>946.07</ele>
        <time>2020-08-11T09:31:28Z</time>
      </trkpt>
      <trkpt lat="42.0244618412" lon="-6.3639278803">
        <ele>946.56</ele>
        <time>2020-08-11T09:31:38Z</time>
      </trkpt>
      <trkpt lat="42.0245378651" lon="-6.3643370848">
        <ele>947.52</ele>
        <time>2020-08-11T09:31:50Z</time>
      </trkpt>
      <trkpt lat="42.0245886594" lon="-6.3646137714">
        <ele>948.00</ele>
        <time>2020-08-11T09:31:58Z</time>
      </trkpt>
      <trkpt lat="42.0246505179" lon="-6.3649484608">
        <ele>948.96</ele>
        <time>2020-08-11T09:32:08Z</time>
      </trkpt>
      <trkpt lat="42.0247197524" lon="-6.3653264008">
        <ele>950.40</ele>
        <time>2020-08-11T09:32:19Z</time>
      </trkpt>
      <trkpt lat="42.0248024818" lon="-6.3657847233">
        <ele>951.36</ele>
        <time>2020-08-11T09:32:32Z</time>
      </trkpt>
      <trkpt lat="42.0248822775" lon="-6.3661987055">
        <ele>952.32</ele>
        <time>2020-08-11T09:32:43Z</time>
      </trkpt>
      <trkpt lat="42.0249518473" lon="-6.3665799145">
        <ele>952.32</ele>
        <time>2020-08-11T09:32:53Z</time>
      </trkpt>
      <trkpt lat="42.0250477362" lon="-6.3670904562">
        <ele>952.32</ele>
        <time>2020-08-11T09:33:05Z</time>
      </trkpt>
      <trkpt lat="42.0251396019" lon="-6.3675849885">
        <ele>952.32</ele>
        <time>2020-08-11T09:33:16Z</time>
      </trkpt>
      <trkpt lat="42.0252461359" lon="-6.3681422174">
        <ele>952.32</ele>
        <time>2020-08-11T09:33:28Z</time>
      </trkpt>
      <trkpt lat="42.0253475569" lon="-6.3686701935">
        <ele>953.28</ele>
        <time>2020-08-11T09:33:39Z</time>
      </trkpt>
      <trkpt lat="42.0254702680" lon="-6.3693571743">
        <ele>953.77</ele>
        <time>2020-08-11T09:33:53Z</time>
      </trkpt>
      <trkpt lat="42.0255601220" lon="-6.3698312547">
        <ele>954.25</ele>
        <time>2020-08-11T09:34:02Z</time>
      </trkpt>
      <trkpt lat="42.0256681647" lon="-6.3704158925">
        <ele>952.80</ele>
        <time>2020-08-11T09:34:12Z</time>
      </trkpt>
      <trkpt lat="42.0257840026" lon="-6.3710364886">
        <ele>951.36</ele>
        <time>2020-08-11T09:34:21Z</time>
      </trkpt>
      <trkpt lat="42.0259547420" lon="-6.3719220366">
        <ele>948.96</ele>
        <time>2020-08-11T09:34:32Z</time>
      </trkpt>
      <trkpt lat="42.0261623617" lon="-6.3730477262">
        <ele>948.00</ele>
        <time>2020-08-11T09:34:45Z</time>
      </trkpt>
      <trkpt lat="42.0263501164" lon="-6.3740507048">
        <ele>947.52</ele>
        <time>2020-08-11T09:34:58Z</time>
      </trkpt>
      <trkpt lat="42.0265449118" lon="-6.3750582933">
        <ele>946.56</ele>
        <time>2020-08-11T09:35:11Z</time>
      </trkpt>
      <trkpt lat="42.0267036650" lon="-6.3759311847">
        <ele>946.56</ele>
        <time>2020-08-11T09:35:23Z</time>
      </trkpt>
      <trkpt lat="42.0268437266" lon="-6.3766714744">
        <ele>945.59</ele>
        <time>2020-08-11T09:35:33Z</time>
      </trkpt>
      <trkpt lat="42.0270153880" lon="-6.3776053861">
        <ele>944.15</ele>
        <time>2020-08-11T09:35:44Z</time>
      </trkpt>
      <trkpt lat="42.0272056572" lon="-6.3786089513">
        <ele>944.15</ele>
        <time>2020-08-11T09:35:56Z</time>
      </trkpt>
      <trkpt lat="42.0273526758" lon="-6.3793783262">
        <ele>944.63</ele>
        <time>2020-08-11T09:36:06Z</time>
      </trkpt>
      <trkpt lat="42.0275117643" lon="-6.3802286703">
        <ele>944.63</ele>
        <time>2020-08-11T09:36:17Z</time>
      </trkpt>
      <trkpt lat="42.0276157837" lon="-6.3808102068">
        <ele>944.63</ele>
        <time>2020-08-11T09:36:25Z</time>
      </trkpt>
      <trkpt lat="42.0277505647" lon="-6.3815136999">
        <ele>943.19</ele>
        <time>2020-08-11T09:36:34Z</time>
      </trkpt>
      <trkpt lat="42.0279182866" lon="-6.3823884353">
        <ele>942.71</ele>
        <time>2020-08-11T09:36:45Z</time>
      </trkpt>
      <trkpt lat="42.0281086396" lon="-6.3833918329">
        <ele>942.23</ele>
        <time>2020-08-11T09:36:58Z</time>
      </trkpt>
      <trkpt lat="42.0282445941" lon="-6.3841089886">
        <ele>943.19</ele>
        <time>2020-08-11T09:37:08Z</time>
      </trkpt>
      <trkpt lat="42.0284098014" lon="-6.3850013260">
        <ele>943.19</ele>
        <time>2020-08-11T09:37:21Z</time>
      </trkpt>
      <trkpt lat="42.0285391342" lon="-6.3856797572">
        <ele>943.19</ele>
        <time>2020-08-11T09:37:32Z</time>
      </trkpt>
      <trkpt lat="42.0287088677" lon="-6.3865724299">
        <ele>943.19</ele>
        <time>2020-08-11T09:37:46Z</time>
      </trkpt>
      <trkpt lat="42.0288263820" lon="-6.3872261345">
        <ele>942.71</ele>
        <time>2020-08-11T09:37:56Z</time>
      </trkpt>
      <trkpt lat="42.0289561339" lon="-6.3879324775">
        <ele>942.23</ele>
        <time>2020-08-11T09:38:06Z</time>
      </trkpt>
      <trkpt lat="42.0291241910" lon="-6.3888274133">
        <ele>941.27</ele>
        <time>2020-08-11T09:38:19Z</time>
      </trkpt>
      <trkpt lat="42.0292382687" lon="-6.3894281443">
        <ele>941.27</ele>
        <time>2020-08-11T09:38:28Z</time>
      </trkpt>
      <trkpt lat="42.0294116065" lon="-6.3903566916">
        <ele>941.27</ele>
        <time>2020-08-11T09:38:42Z</time>
      </trkpt>
      <trkpt lat="42.0295358263" lon="-6.3910132460">
        <ele>941.75</ele>
        <time>2020-08-11T09:38:53Z</time>
      </trkpt>
      <trkpt lat="42.0296708588" lon="-6.3917342573">
        <ele>942.23</ele>
        <time>2020-08-11T09:39:05Z</time>
      </trkpt>
      <trkpt lat="42.0298017003" lon="-6.3924351521">
        <ele>942.71</ele>
        <time>2020-08-11T09:39:17Z</time>
      </trkpt>
      <trkpt lat="42.0299270935" lon="-6.3930939697">
        <ele>943.19</ele>
        <time>2020-08-11T09:39:28Z</time>
      </trkpt>
      <trkpt lat="42.0300488826" lon="-6.3937439024">
        <ele>942.71</ele>
        <time>2020-08-11T09:39:39Z</time>
      </trkpt>
      <trkpt lat="42.0301757846" lon="-6.3944085035">
        <ele>942.23</ele>
        <time>2020-08-11T09:39:50Z</time>
      </trkpt>
      <trkpt lat="42.0303224679" lon="-6.3951984141">
        <ele>941.27</ele>
        <time>2020-08-11T09:40:02Z</time>
      </trkpt>
      <trkpt lat="42.0304667205" lon="-6.3959456608">
        <ele>941.27</ele>
        <time>2020-08-11T09:40:13Z</time>
      </trkpt>
      <trkpt lat="42.0306051895" lon="-6.3966878783">
        <ele>940.79</ele>
        <time>2020-08-11T09:40:24Z</time>
      </trkpt>
      <trkpt lat="42.0307529625" lon="-6.3974671438">
        <ele>941.27</ele>
        <time>2020-08-11T09:40:36Z</time>
      </trkpt>
      <trkpt lat="42.0308703091" lon="-6.3981011510">
        <ele>941.27</ele>
        <time>2020-08-11T09:40:46Z</time>
      </trkpt>
      <trkpt lat="42.0309986360" lon="-6.3987963460">
        <ele>941.75</ele>
        <time>2020-08-11T09:40:57Z</time>
      </trkpt>
      <trkpt lat="42.0311495103" lon="-6.3996031880">
        <ele>941.27</ele>
        <time>2020-08-11T09:41:09Z</time>
      </trkpt>
      <trkpt lat="42.0312892366" lon="-6.4003427234">
        <ele>941.27</ele>
        <time>2020-08-11T09:41:20Z</time>
      </trkpt>
      <trkpt lat="42.0314343274" lon="-6.4010835160">
        <ele>940.79</ele>
        <time>2020-08-11T09:41:31Z</time>
      </trkpt>
      <trkpt lat="42.0315890573" lon="-6.4019057807">
        <ele>940.31</ele>
        <time>2020-08-11T09:41:43Z</time>
      </trkpt>
      <trkpt lat="42.0317286160" lon="-6.4026573859">
        <ele>940.31</ele>
        <time>2020-08-11T09:41:54Z</time>
      </trkpt>
      <trkpt lat="42.0318764728" lon="-6.4034520742">
        <ele>940.31</ele>
        <time>2020-08-11T09:42:06Z</time>
      </trkpt>
      <trkpt lat="42.0320144389" lon="-6.4041965548">
        <ele>939.35</ele>
        <time>2020-08-11T09:42:17Z</time>
      </trkpt>
      <trkpt lat="42.0321762096" lon="-6.4050734695">
        <ele>940.31</ele>
        <time>2020-08-11T09:42:30Z</time>
      </trkpt>
      <trkpt lat="42.0323411655" lon="-6.4059493784">
        <ele>939.83</ele>
        <time>2020-08-11T09:42:44Z</time>
      </trkpt>
      <trkpt lat="42.0324766170" lon="-6.4066496026">
        <ele>939.35</ele>
        <time>2020-08-11T09:42:55Z</time>
      </trkpt>
      <trkpt lat="42.0326049440" lon="-6.4073214959">
        <ele>938.38</ele>
        <time>2020-08-11T09:43:04Z</time>
      </trkpt>
      <trkpt lat="42.0327543933" lon="-6.4081343729">
        <ele>938.38</ele>
        <time>2020-08-11T09:43:15Z</time>
      </trkpt>
      <trkpt lat="42.0329197682" lon="-6.4089964516">
        <ele>938.38</ele>
        <time>2020-08-11T09:43:27Z</time>
      </trkpt>
      <trkpt lat="42.0330741629" lon="-6.4098109212">
        <ele>938.38</ele>
        <time>2020-08-11T09:43:38Z</time>
      </trkpt>
      <trkpt lat="42.0331934374" lon="-6.4104645420">
        <ele>938.86</ele>
        <time>2020-08-11T09:43:48Z</time>
      </trkpt>
      <trkpt lat="42.0333113708" lon="-6.4110651053">
        <ele>938.38</ele>
        <time>2020-08-11T09:43:57Z</time>
      </trkpt>
      <trkpt lat="42.0334375184" lon="-6.4117434528">
        <ele>937.90</ele>
        <time>2020-08-11T09:44:07Z</time>
      </trkpt>
      <trkpt lat="42.0335794240" lon="-6.4124915376">
        <ele>937.90</ele>
        <time>2020-08-11T09:44:18Z</time>
      </trkpt>
      <trkpt lat="42.0337373391" lon="-6.4133072644">
        <ele>938.38</ele>
        <time>2020-08-11T09:44:30Z</time>
      </trkpt>
      <trkpt lat="42.0338831004" lon="-6.4141035452">
        <ele>938.38</ele>
        <time>2020-08-11T09:44:42Z</time>
      </trkpt>
      <trkpt lat="42.0340322144" lon="-6.4148823079">
        <ele>937.90</ele>
        <time>2020-08-11T09:44:54Z</time>
      </trkpt>
      <trkpt lat="42.0341547579" lon="-6.4155431371">
        <ele>938.38</ele>
        <time>2020-08-11T09:45:05Z</time>
      </trkpt>
      <trkpt lat="42.0342622977" lon="-6.4160998631">
        <ele>939.35</ele>
        <time>2020-08-11T09:45:15Z</time>
      </trkpt>
      <trkpt lat="42.0343365613" lon="-6.4164991770">
        <ele>939.83</ele>
        <time>2020-08-11T09:45:23Z</time>
      </trkpt>
      <trkpt lat="42.0344656426" lon="-6.4171708189">
        <ele>940.31</ele>
        <time>2020-08-11T09:45:35Z</time>
      </trkpt>
      <trkpt lat="42.0346061233" lon="-6.4179205801">
        <ele>940.31</ele>
        <time>2020-08-11T09:45:47Z</time>
      </trkpt>
      <trkpt lat="42.0347065385" lon="-6.4184515737">
        <ele>940.31</ele>
        <time>2020-08-11T09:45:57Z</time>
      </trkpt>
      <trkpt lat="42.0347846579" lon="-6.4186507277">
        <ele>940.31</ele>
        <time>2020-08-11T09:46:03Z</time>
      </trkpt>
      <trkpt lat="42.0347984880" lon="-6.4186514821">
        <ele>940.31</ele>
        <time>2020-08-11T09:46:04Z</time>
      </trkpt>
      <trkpt lat="42.0348193590" lon="-6.4186519850">
        <ele>940.31</ele>
        <time>2020-08-11T09:46:05Z</time>
      </trkpt>
      <trkpt lat="42.0348354522" lon="-6.4186487161">
        <ele>940.31</ele>
        <time>2020-08-11T09:46:06Z</time>
      </trkpt>
      <trkpt lat="42.0348494500" lon="-6.4186470397">
        <ele>940.31</ele>
        <time>2020-08-11T09:46:11Z</time>
      </trkpt>
      <trkpt lat="42.0348409005" lon="-6.4186490513">
        <ele>941.27</ele>
        <time>2020-08-11T09:46:21Z</time>
      </trkpt>
      <trkpt lat="42.0348450076" lon="-6.4186529908">
        <ele>939.83</ele>
        <time>2020-08-11T09:46:41Z</time>
      </trkpt>
      <trkpt lat="42.0348441694" lon="-6.4186436031">
        <ele>938.86</ele>
        <time>2020-08-11T09:46:56Z</time>
      </trkpt>
      <trkpt lat="42.0348470192" lon="-6.4186353050">
        <ele>938.86</ele>
        <time>2020-08-11T09:47:10Z</time>
      </trkpt>
      <trkpt lat="42.0348510426" lon="-6.4186378196">
        <ele>938.38</ele>
        <time>2020-08-11T09:47:21Z</time>
      </trkpt>
      <trkpt lat="42.0348474383" lon="-6.4186414238">
        <ele>938.86</ele>
        <time>2020-08-11T09:47:33Z</time>
      </trkpt>
      <trkpt lat="42.0348398108" lon="-6.4186401665">
        <ele>938.38</ele>
        <time>2020-08-11T09:47:47Z</time>
      </trkpt>
      <trkpt lat="42.0348475222" lon="-6.4186355565">
        <ele>938.38</ele>
        <time>2020-08-11T09:47:59Z</time>
      </trkpt>
      <trkpt lat="42.0348422416" lon="-6.4186338801">
        <ele>940.31</ele>
        <time>2020-08-11T09:48:14Z</time>
      </trkpt>
      <trkpt lat="42.0348358713" lon="-6.4186539967">
        <ele>941.27</ele>
        <time>2020-08-11T09:48:27Z</time>
      </trkpt>
      <trkpt lat="42.0348429121" lon="-6.4186495543">
        <ele>941.27</ele>
        <time>2020-08-11T09:48:38Z</time>
      </trkpt>
      <trkpt lat="42.0348368771" lon="-6.4186652284">
        <ele>939.83</ele>
        <time>2020-08-11T09:48:53Z</time>
      </trkpt>
      <trkpt lat="42.0348403975" lon="-6.4186597802">
        <ele>940.31</ele>
        <time>2020-08-11T09:49:06Z</time>
      </trkpt>
      <trkpt lat="42.0348353684" lon="-6.4186406694">
        <ele>939.35</ele>
        <time>2020-08-11T09:49:22Z</time>
      </trkpt>
      <trkpt lat="42.0348305069" lon="-6.4186508954">
        <ele>938.86</ele>
        <time>2020-08-11T09:49:37Z</time>
      </trkpt>
      <trkpt lat="42.0348348655" lon="-6.4186462015">
        <ele>938.86</ele>
        <time>2020-08-11T09:49:55Z</time>
      </trkpt>
      <trkpt lat="42.0348294172" lon="-6.4186596125">
        <ele>937.90</ele>
        <time>2020-08-11T09:50:10Z</time>
      </trkpt>
      <trkpt lat="42.0348275732" lon="-6.4186648093">
        <ele>938.86</ele>
        <time>2020-08-11T09:50:23Z</time>
      </trkpt>
      <trkpt lat="42.0348314289" lon="-6.4186555054">
        <ele>938.38</ele>
        <time>2020-08-11T09:50:40Z</time>
      </trkpt>
      <trkpt lat="42.0348362904" lon="-6.4186634682">
        <ele>939.83</ele>
        <time>2020-08-11T09:50:56Z</time>
      </trkpt>
      <trkpt lat="42.0348425768" lon="-6.4186597802">
        <ele>938.86</ele>
        <time>2020-08-11T09:51:10Z</time>
      </trkpt>
      <trkpt lat="42.0348407328" lon="-6.4186633006">
        <ele>939.35</ele>
        <time>2020-08-11T09:51:25Z</time>
      </trkpt>
      <trkpt lat="42.0348423254" lon="-6.4186682459">
        <ele>940.31</ele>
        <time>2020-08-11T09:51:41Z</time>
      </trkpt>
      <trkpt lat="42.0348460972" lon="-6.4186613727">
        <ele>940.31</ele>
        <time>2020-08-11T09:51:56Z</time>
      </trkpt>
      <trkpt lat="42.0348406490" lon="-6.4186613727">
        <ele>940.79</ele>
        <time>2020-08-11T09:52:12Z</time>
      </trkpt>
      <trkpt lat="42.0348522998" lon="-6.4186633006">
        <ele>938.86</ele>
        <time>2020-08-11T09:52:30Z</time>
      </trkpt>
      <trkpt lat="42.0348509587" lon="-6.4186537452">
        <ele>939.35</ele>
        <time>2020-08-11T09:52:49Z</time>
      </trkpt>
      <trkpt lat="42.0348489471" lon="-6.4186444413">
        <ele>939.35</ele>
        <time>2020-08-11T09:53:04Z</time>
      </trkpt>
      <trkpt lat="42.0348446723" lon="-6.4186450280">
        <ele>939.35</ele>
        <time>2020-08-11T09:53:19Z</time>
      </trkpt>
      <trkpt lat="42.0348468516" lon="-6.4186606184">
        <ele>939.83</ele>
        <time>2020-08-11T09:53:42Z</time>
      </trkpt>
      <trkpt lat="42.0348430797" lon="-6.4186649770">
        <ele>939.83</ele>
        <time>2020-08-11T09:53:58Z</time>
      </trkpt>
      <trkpt lat="42.0348420739" lon="-6.4186610375">
        <ele>938.38</ele>
        <time>2020-08-11T09:54:13Z</time>
      </trkpt>
      <trkpt lat="42.0348383021" lon="-6.4186690841">
        <ele>937.90</ele>
        <time>2020-08-11T09:54:29Z</time>
      </trkpt>
      <trkpt lat="42.0348465163" lon="-6.4186456148">
        <ele>938.38</ele>
        <time>2020-08-11T09:54:47Z</time>
      </trkpt>
      <trkpt lat="42.0348481089" lon="-6.4186436869">
        <ele>937.90</ele>
        <time>2020-08-11T09:55:05Z</time>
      </trkpt>
      <trkpt lat="42.0348548144" lon="-6.4186533261">
        <ele>938.86</ele>
        <time>2020-08-11T09:55:25Z</time>
      </trkpt>
      <trkpt lat="42.0348484442" lon="-6.4186503924">
        <ele>939.83</ele>
        <time>2020-08-11T09:55:45Z</time>
      </trkpt>
      <trkpt lat="42.0348448399" lon="-6.4186698385">
        <ele>940.79</ele>
        <time>2020-08-11T09:56:00Z</time>
      </trkpt>
      <trkpt lat="42.0348365419" lon="-6.4186582714">
        <ele>941.75</ele>
        <time>2020-08-11T09:56:19Z</time>
      </trkpt>
      <trkpt lat="42.0348346140" lon="-6.4186596964">
        <ele>941.75</ele>
        <time>2020-08-11T09:56:41Z</time>
      </trkpt>
      <trkpt lat="42.0348317642" lon="-6.4186653122">
        <ele>941.27</ele>
        <time>2020-08-11T09:57:00Z</time>
      </trkpt>
      <trkpt lat="42.0348292496" lon="-6.4186872728">
        <ele>941.27</ele>
        <time>2020-08-11T09:57:17Z</time>
      </trkpt>
      <trkpt lat="42.0348236337" lon="-6.4186733589">
        <ele>941.75</ele>
        <time>2020-08-11T09:57:43Z</time>
      </trkpt>
      <trkpt lat="42.0348219573" lon="-6.4186797291">
        <ele>941.75</ele>
        <time>2020-08-11T09:58:00Z</time>
      </trkpt>
      <trkpt lat="42.0348336082" lon="-6.4186666533">
        <ele>940.31</ele>
        <time>2020-08-11T09:58:18Z</time>
      </trkpt>
      <trkpt lat="42.0348380506" lon="-6.4186587743">
        <ele>940.31</ele>
        <time>2020-08-11T09:58:31Z</time>
      </trkpt>
      <trkpt lat="42.0348471869" lon="-6.4186504763">
        <ele>941.27</ele>
        <time>2020-08-11T09:58:48Z</time>
      </trkpt>
      <trkpt lat="42.0348477736" lon="-6.4186647255">
        <ele>940.31</ele>
        <time>2020-08-11T09:59:09Z</time>
      </trkpt>
      <trkpt lat="42.0348422416" lon="-6.4186695032">
        <ele>940.79</ele>
        <time>2020-08-11T09:59:19Z</time>
      </trkpt>
      <trkpt lat="42.0347911119" lon="-6.4186708443">
        <ele>941.27</ele>
        <time>2020-08-11T09:59:28Z</time>
      </trkpt>
      <trkpt lat="42.0347942133" lon="-6.4186590258">
        <ele>940.79</ele>
        <time>2020-08-11T09:59:37Z</time>
      </trkpt>
      <trkpt lat="42.0347901061" lon="-6.4186599478">
        <ele>940.31</ele>
        <time>2020-08-11T09:59:40Z</time>
      </trkpt>
      <trkpt lat="42.0347747672" lon="-6.4186643902">
        <ele>940.79</ele>
        <time>2020-08-11T09:59:41Z</time>
      </trkpt>
      <trkpt lat="42.0347620267" lon="-6.4186780527">
        <ele>940.79</ele>
        <time>2020-08-11T09:59:42Z</time>
      </trkpt>
      <trkpt lat="42.0347545668" lon="-6.4186983369">
        <ele>940.79</ele>
        <time>2020-08-11T09:59:43Z</time>
      </trkpt>
      <trkpt lat="42.0347527228" lon="-6.4187161904">
        <ele>940.79</ele>
        <time>2020-08-11T09:59:44Z</time>
      </trkpt>
      <trkpt lat="42.0347554889" lon="-6.4187405817">
        <ele>940.79</ele>
        <time>2020-08-11T09:59:45Z</time>
      </trkpt>
      <trkpt lat="42.0347993262" lon="-6.4189684857">
        <ele>940.31</ele>
        <time>2020-08-11T09:59:52Z</time>
      </trkpt>
      <trkpt lat="42.0348989870" lon="-6.4195175003">
        <ele>940.79</ele>
        <time>2020-08-11T10:00:04Z</time>
      </trkpt>
      <trkpt lat="42.0350095443" lon="-6.4200918283">
        <ele>941.27</ele>
        <time>2020-08-11T10:00:15Z</time>
      </trkpt>
      <trkpt lat="42.0351443253" lon="-6.4207989257">
        <ele>942.23</ele>
        <time>2020-08-11T10:00:28Z</time>
      </trkpt>
      <trkpt lat="42.0352622587" lon="-6.4214141574">
        <ele>942.71</ele>
        <time>2020-08-11T10:00:39Z</time>
      </trkpt>
      <trkpt lat="42.0353835449" lon="-6.4220747352">
        <ele>942.71</ele>
        <time>2020-08-11T10:00:50Z</time>
      </trkpt>
      <trkpt lat="42.0355287194" lon="-6.4228343032">
        <ele>943.19</ele>
        <time>2020-08-11T10:01:03Z</time>
      </trkpt>
      <trkpt lat="42.0356515143" lon="-6.4234745968">
        <ele>943.19</ele>
        <time>2020-08-11T10:01:14Z</time>
      </trkpt>
      <trkpt lat="42.0357904024" lon="-6.4242305607">
        <ele>943.67</ele>
        <time>2020-08-11T10:01:27Z</time>
      </trkpt>
      <trkpt lat="42.0359351579" lon="-6.4250079822">
        <ele>944.63</ele>
        <time>2020-08-11T10:01:40Z</time>
      </trkpt>
      <trkpt lat="42.0360592101" lon="-6.4256796241">
        <ele>945.59</ele>
        <time>2020-08-11T10:01:52Z</time>
      </trkpt>
      <trkpt lat="42.0361816697" lon="-6.4263253659">
        <ele>946.56</ele>
        <time>2020-08-11T10:02:04Z</time>
      </trkpt>
      <trkpt lat="42.0363439433" lon="-6.4271767158">
        <ele>947.52</ele>
        <time>2020-08-11T10:02:19Z</time>
      </trkpt>
      <trkpt lat="42.0364688337" lon="-6.4278782811">
        <ele>947.52</ele>
        <time>2020-08-11T10:02:31Z</time>
      </trkpt>
      <trkpt lat="42.0365759544" lon="-6.4284429699">
        <ele>947.52</ele>
        <time>2020-08-11T10:02:41Z</time>
      </trkpt>
      <trkpt lat="42.0366943907" lon="-6.4290658291">
        <ele>946.56</ele>
        <time>2020-08-11T10:02:52Z</time>
      </trkpt>
      <trkpt lat="42.0368507970" lon="-6.4299165923">
        <ele>945.59</ele>
        <time>2020-08-11T10:03:05Z</time>
      </trkpt>
      <trkpt lat="42.0370139927" lon="-6.4307730552">
        <ele>943.67</ele>
        <time>2020-08-11T10:03:16Z</time>
      </trkpt>
      <trkpt lat="42.0371898450" lon="-6.4317207970">
        <ele>940.79</ele>
        <time>2020-08-11T10:03:26Z</time>
      </trkpt>
      <trkpt lat="42.0374274720" lon="-6.4329721313">
        <ele>938.86</ele>
        <time>2020-08-11T10:03:39Z</time>
      </trkpt>
      <trkpt lat="42.0375374425" lon="-6.4335753769">
        <ele>939.35</ele>
        <time>2020-08-11T10:03:47Z</time>
      </trkpt>
      <trkpt lat="42.0377012249" lon="-6.4344683010">
        <ele>939.35</ele>
        <time>2020-08-11T10:04:00Z</time>
      </trkpt>
      <trkpt lat="42.0378505066" lon="-6.4352684375">
        <ele>938.86</ele>
        <time>2020-08-11T10:04:12Z</time>
      </trkpt>
      <trkpt lat="42.0380160492" lon="-6.4361535665">
        <ele>938.38</ele>
        <time>2020-08-11T10:04:25Z</time>
      </trkpt>
      <trkpt lat="42.0382022951" lon="-6.4371459838">
        <ele>937.42</ele>
        <time>2020-08-11T10:04:39Z</time>
      </trkpt>
      <trkpt lat="42.0383591205" lon="-6.4379752893">
        <ele>936.46</ele>
        <time>2020-08-11T10:04:51Z</time>
      </trkpt>
      <trkpt lat="42.0385021996" lon="-6.4387455024">
        <ele>936.46</ele>
        <time>2020-08-11T10:05:02Z</time>
      </trkpt>
      <trkpt lat="42.0386365615" lon="-6.4394956827">
        <ele>935.98</ele>
        <time>2020-08-11T10:05:13Z</time>
      </trkpt>
      <trkpt lat="42.0387674030" lon="-6.4402006008">
        <ele>936.46</ele>
        <time>2020-08-11T10:05:24Z</time>
      </trkpt>
      <trkpt lat="42.0389033575" lon="-6.4409156609">
        <ele>936.94</ele>
        <time>2020-08-11T10:05:36Z</time>
      </trkpt>
      <trkpt lat="42.0390177704" lon="-6.4415626600">
        <ele>937.90</ele>
        <time>2020-08-11T10:05:48Z</time>
      </trkpt>
      <trkpt lat="42.0391107257" lon="-6.4420700166">
        <ele>939.35</ele>
        <time>2020-08-11T10:05:59Z</time>
      </trkpt>
      <trkpt lat="42.0391986519" lon="-6.4425264951">
        <ele>940.79</ele>
        <time>2020-08-11T10:06:10Z</time>
      </trkpt>
      <trkpt lat="42.0392833091" lon="-6.4429885056">
        <ele>941.27</ele>
        <time>2020-08-11T10:06:21Z</time>
      </trkpt>
      <trkpt lat="42.0393572375" lon="-6.4433972072">
        <ele>942.23</ele>
        <time>2020-08-11T10:06:31Z</time>
      </trkpt>
      <trkpt lat="42.0394208562" lon="-6.4437169768">
        <ele>943.19</ele>
        <time>2020-08-11T10:06:39Z</time>
      </trkpt>
      <trkpt lat="42.0395000651" lon="-6.4441657439">
        <ele>944.15</ele>
        <time>2020-08-11T10:06:50Z</time>
      </trkpt>
      <trkpt lat="42.0395661145" lon="-6.4445235673">
        <ele>945.11</ele>
        <time>2020-08-11T10:06:59Z</time>
      </trkpt>
      <trkpt lat="42.0396454073" lon="-6.4449290838">
        <ele>946.56</ele>
        <time>2020-08-11T10:07:09Z</time>
      </trkpt>
      <trkpt lat="42.0397212636" lon="-6.4453480951">
        <ele>947.52</ele>
        <time>2020-08-11T10:07:19Z</time>
      </trkpt>
      <trkpt lat="42.0397933479" lon="-6.4457374346">
        <ele>947.52</ele>
        <time>2020-08-11T10:07:28Z</time>
      </trkpt>
      <trkpt lat="42.0398875605" lon="-6.4462271053">
        <ele>948.00</ele>
        <time>2020-08-11T10:07:38Z</time>
      </trkpt>
      <trkpt lat="42.0399894007" lon="-6.4467647206">
        <ele>947.52</ele>
        <time>2020-08-11T10:07:48Z</time>
      </trkpt>
      <trkpt lat="42.0400862955" lon="-6.4473018330">
        <ele>947.04</ele>
        <time>2020-08-11T10:07:58Z</time>
      </trkpt>
      <trkpt lat="42.0402178913" lon="-6.4480008837">
        <ele>947.52</ele>
        <time>2020-08-11T10:08:10Z</time>
      </trkpt>
      <trkpt lat="42.0403147861" lon="-6.4485066477">
        <ele>947.52</ele>
        <time>2020-08-11T10:08:18Z</time>
      </trkpt>
      <trkpt lat="42.0404234994" lon="-6.4490930457">
        <ele>947.52</ele>
        <time>2020-08-11T10:08:28Z</time>
      </trkpt>
      <trkpt lat="42.0405375771" lon="-6.4496896695">
        <ele>947.52</ele>
        <time>2020-08-11T10:08:38Z</time>
      </trkpt>
      <trkpt lat="42.0406596176" lon="-6.4503194857">
        <ele>946.56</ele>
        <time>2020-08-11T10:08:48Z</time>
      </trkpt>
      <trkpt lat="42.0407727733" lon="-6.4509446919">
        <ele>945.59</ele>
        <time>2020-08-11T10:08:57Z</time>
      </trkpt>
      <trkpt lat="42.0408990886" lon="-6.4516203571">
        <ele>945.11</ele>
        <time>2020-08-11T10:09:07Z</time>
      </trkpt>
      <trkpt lat="42.0410268288" lon="-6.4523118641">
        <ele>945.59</ele>
        <time>2020-08-11T10:09:18Z</time>
      </trkpt>
      <trkpt lat="42.0411447622" lon="-6.4529438596">
        <ele>947.04</ele>
        <time>2020-08-11T10:09:29Z</time>
      </trkpt>
      <trkpt lat="42.0412507933" lon="-6.4535149187">
        <ele>948.48</ele>
        <time>2020-08-11T10:09:39Z</time>
      </trkpt>
      <trkpt lat="42.0413455926" lon="-6.4540377818">
        <ele>949.44</ele>
        <time>2020-08-11T10:09:49Z</time>
      </trkpt>
      <trkpt lat="42.0414195210" lon="-6.4544379339">
        <ele>949.92</ele>
        <time>2020-08-11T10:09:58Z</time>
      </trkpt>
      <trkpt lat="42.0415242109" lon="-6.4549759682">
        <ele>950.88</ele>
        <time>2020-08-11T10:10:10Z</time>
      </trkpt>
      <trkpt lat="42.0415956248" lon="-6.4553694986">
        <ele>952.32</ele>
        <time>2020-08-11T10:10:19Z</time>
      </trkpt>
      <trkpt lat="42.0416771807" lon="-6.4557898510">
        <ele>952.80</ele>
        <time>2020-08-11T10:10:29Z</time>
      </trkpt>
      <trkpt lat="42.0417563058" lon="-6.4562435634">
        <ele>953.28</ele>
        <time>2020-08-11T10:10:40Z</time>
      </trkpt>
      <trkpt lat="42.0418370236" lon="-6.4566615690">
        <ele>953.28</ele>
        <time>2020-08-11T10:10:51Z</time>
      </trkpt>
      <trkpt lat="42.0419210102" lon="-6.4570956677">
        <ele>953.28</ele>
        <time>2020-08-11T10:11:02Z</time>
      </trkpt>
      <trkpt lat="42.0420030691" lon="-6.4575233962">
        <ele>953.28</ele>
        <time>2020-08-11T10:11:13Z</time>
      </trkpt>
      <trkpt lat="42.0420650952" lon="-6.4578812197">
        <ele>954.25</ele>
        <time>2020-08-11T10:11:22Z</time>
      </trkpt>
      <trkpt lat="42.0421443880" lon="-6.4582935255">
        <ele>954.73</ele>
        <time>2020-08-11T10:11:32Z</time>
      </trkpt>
      <trkpt lat="42.0422461443" lon="-6.4588396065">
        <ele>955.69</ele>
        <time>2020-08-11T10:11:45Z</time>
      </trkpt>
      <trkpt lat="42.0423323102" lon="-6.4592771418">
        <ele>956.65</ele>
        <time>2020-08-11T10:11:56Z</time>
      </trkpt>
      <trkpt lat="42.0423852000" lon="-6.4595959894">
        <ele>957.61</ele>
        <time>2020-08-11T10:12:04Z</time>
      </trkpt>
      <trkpt lat="42.0424551051" lon="-6.4599846583">
        <ele>958.57</ele>
        <time>2020-08-11T10:12:14Z</time>
      </trkpt>
      <trkpt lat="42.0425355714" lon="-6.4603925217">
        <ele>959.05</ele>
        <time>2020-08-11T10:12:24Z</time>
      </trkpt>
      <trkpt lat="42.0426429436" lon="-6.4609493315">
        <ele>958.57</ele>
        <time>2020-08-11T10:12:36Z</time>
      </trkpt>
      <trkpt lat="42.0427575242" lon="-6.4615723584">
        <ele>958.57</ele>
        <time>2020-08-11T10:12:48Z</time>
      </trkpt>
      <trkpt lat="42.0429139305" lon="-6.4624172542">
        <ele>957.61</ele>
        <time>2020-08-11T10:13:02Z</time>
      </trkpt>
      <trkpt lat="42.0430428442" lon="-6.4631047379">
        <ele>957.61</ele>
        <time>2020-08-11T10:13:14Z</time>
      </trkpt>
      <trkpt lat="42.0431575924" lon="-6.4637282677">
        <ele>958.09</ele>
        <time>2020-08-11T10:13:25Z</time>
      </trkpt>
      <trkpt lat="42.0432829019" lon="-6.4643706568">
        <ele>958.09</ele>
        <time>2020-08-11T10:13:37Z</time>
      </trkpt>
      <trkpt lat="42.0433772821" lon="-6.4648948610">
        <ele>959.05</ele>
        <time>2020-08-11T10:13:47Z</time>
      </trkpt>
      <trkpt lat="42.0434822235" lon="-6.4654171374">
        <ele>959.05</ele>
        <time>2020-08-11T10:13:57Z</time>
      </trkpt>
      <trkpt lat="42.0435988996" lon="-6.4659901243">
        <ele>959.53</ele>
        <time>2020-08-11T10:14:08Z</time>
      </trkpt>
      <trkpt lat="42.0437654480" lon="-6.4666495286">
        <ele>959.53</ele>
        <time>2020-08-11T10:14:21Z</time>
      </trkpt>
      <trkpt lat="42.0439518616" lon="-6.4672544505">
        <ele>960.01</ele>
        <time>2020-08-11T10:14:34Z</time>
      </trkpt>
      <trkpt lat="42.0440848824" lon="-6.4676334802">
        <ele>960.49</ele>
        <time>2020-08-11T10:14:43Z</time>
      </trkpt>
      <trkpt lat="42.0442829467" lon="-6.4681756217">
        <ele>959.53</ele>
        <time>2020-08-11T10:14:54Z</time>
      </trkpt>
      <trkpt lat="42.0445047319" lon="-6.4687867463">
        <ele>959.53</ele>
        <time>2020-08-11T10:15:07Z</time>
      </trkpt>
      <trkpt lat="42.0447136927" lon="-6.4693597332">
        <ele>960.01</ele>
        <time>2020-08-11T10:15:19Z</time>
      </trkpt>
      <trkpt lat="42.0449098293" lon="-6.4698843565">
        <ele>960.98</ele>
        <time>2020-08-11T10:15:30Z</time>
      </trkpt>
      <trkpt lat="42.0451081451" lon="-6.4704586007">
        <ele>960.98</ele>
        <time>2020-08-11T10:15:42Z</time>
      </trkpt>
      <trkpt lat="42.0453288406" lon="-6.4710641932">
        <ele>961.94</ele>
        <time>2020-08-11T10:15:55Z</time>
      </trkpt>
      <trkpt lat="42.0455300901" lon="-6.4716252778">
        <ele>962.42</ele>
        <time>2020-08-11T10:16:07Z</time>
      </trkpt>
      <trkpt lat="42.0456385519" lon="-6.4719349053">
        <ele>963.86</ele>
        <time>2020-08-11T10:16:15Z</time>
      </trkpt>
      <trkpt lat="42.0457607601" lon="-6.4722645655">
        <ele>964.82</ele>
        <time>2020-08-11T10:16:24Z</time>
      </trkpt>
      <trkpt lat="42.0458537154" lon="-6.4725026116">
        <ele>965.30</ele>
        <time>2020-08-11T10:16:32Z</time>
      </trkpt>
      <trkpt lat="42.0458521228" lon="-6.4724981692">
        <ele>964.82</ele>
        <time>2020-08-11T10:16:43Z</time>
      </trkpt>
      <trkpt lat="42.0458442438" lon="-6.4725042880">
        <ele>964.34</ele>
        <time>2020-08-11T10:17:04Z</time>
      </trkpt>
      <trkpt lat="42.0458789449" lon="-6.4725932200">
        <ele>964.34</ele>
        <time>2020-08-11T10:17:11Z</time>
      </trkpt>
      <trkpt lat="42.0459710620" lon="-6.4728518017">
        <ele>964.34</ele>
        <time>2020-08-11T10:17:18Z</time>
      </trkpt>
      <trkpt lat="42.0461374428" lon="-6.4732979704">
        <ele>963.86</ele>
        <time>2020-08-11T10:17:28Z</time>
      </trkpt>
      <trkpt lat="42.0463603176" lon="-6.4739124477">
        <ele>963.38</ele>
        <time>2020-08-11T10:17:40Z</time>
      </trkpt>
      <trkpt lat="42.0465937536" lon="-6.4745448623">
        <ele>962.90</ele>
        <time>2020-08-11T10:17:52Z</time>
      </trkpt>
      <trkpt lat="42.0468291175" lon="-6.4751933701">
        <ele>962.90</ele>
        <time>2020-08-11T10:18:04Z</time>
      </trkpt>
      <trkpt lat="42.0470630564" lon="-6.4758452307">
        <ele>962.90</ele>
        <time>2020-08-11T10:18:16Z</time>
      </trkpt>
      <trkpt lat="42.0472310297" lon="-6.4763090014">
        <ele>963.38</ele>
        <time>2020-08-11T10:18:25Z</time>
      </trkpt>
      <trkpt lat="42.0474155992" lon="-6.4768312778">
        <ele>963.86</ele>
        <time>2020-08-11T10:18:35Z</time>
      </trkpt>
      <trkpt lat="42.0476292539" lon="-6.4774272311">
        <ele>963.86</ele>
        <time>2020-08-11T10:18:46Z</time>
      </trkpt>
      <trkpt lat="42.0479188487" lon="-6.4782113582">
        <ele>963.86</ele>
        <time>2020-08-11T10:19:00Z</time>
      </trkpt>
      <trkpt lat="42.0481364429" lon="-6.4787988458">
        <ele>964.34</ele>
        <time>2020-08-11T10:19:11Z</time>
      </trkpt>
      <trkpt lat="42.0483613294" lon="-6.4794164244">
        <ele>965.30</ele>
        <time>2020-08-11T10:19:23Z</time>
      </trkpt>
      <trkpt lat="42.0485484134" lon="-6.4799562190">
        <ele>966.74</ele>
        <time>2020-08-11T10:19:34Z</time>
      </trkpt>
      <trkpt lat="42.0487169735" lon="-6.4804313052">
        <ele>967.70</ele>
        <time>2020-08-11T10:19:44Z</time>
      </trkpt>
      <trkpt lat="42.0489533432" lon="-6.4810772985">
        <ele>968.18</ele>
        <time>2020-08-11T10:19:57Z</time>
      </trkpt>
      <trkpt lat="42.0491305366" lon="-6.4815558214">
        <ele>968.18</ele>
        <time>2020-08-11T10:20:07Z</time>
      </trkpt>
      <trkpt lat="42.0493477117" lon="-6.4821555465">
        <ele>967.70</ele>
        <time>2020-08-11T10:20:18Z</time>
      </trkpt>
      <trkpt lat="42.0495965704" lon="-6.4828358218">
        <ele>967.22</ele>
        <time>2020-08-11T10:20:30Z</time>
      </trkpt>
      <trkpt lat="42.0497910306" lon="-6.4834004268">
        <ele>967.70</ele>
        <time>2020-08-11T10:20:40Z</time>
      </trkpt>
      <trkpt lat="42.0499358699" lon="-6.4838838112">
        <ele>968.67</ele>
        <time>2020-08-11T10:20:49Z</time>
      </trkpt>
      <trkpt lat="42.0499948785" lon="-6.4840951189">
        <ele>968.67</ele>
        <time>2020-08-11T10:20:55Z</time>
      </trkpt>
      <trkpt lat="42.0500222035" lon="-6.4841435663">
        <ele>968.18</ele>
        <time>2020-08-11T10:20:58Z</time>
      </trkpt>
      <trkpt lat="42.0500255562" lon="-6.4841649402">
        <ele>968.18</ele>
        <time>2020-08-11T10:20:59Z</time>
      </trkpt>
      <trkpt lat="42.0500226226" lon="-6.4841800276">
        <ele>968.67</ele>
        <time>2020-08-11T10:21:00Z</time>
      </trkpt>
      <trkpt lat="42.0500145759" lon="-6.4841941092">
        <ele>968.67</ele>
        <time>2020-08-11T10:21:01Z</time>
      </trkpt>
      <trkpt lat="42.0500001591" lon="-6.4842065983">
        <ele>968.67</ele>
        <time>2020-08-11T10:21:02Z</time>
      </trkpt>
      <trkpt lat="42.0499820542" lon="-6.4842117112">
        <ele>969.15</ele>
        <time>2020-08-11T10:21:03Z</time>
      </trkpt>
      <trkpt lat="42.0499624405" lon="-6.4842056762">
        <ele>969.15</ele>
        <time>2020-08-11T10:21:04Z</time>
      </trkpt>
      <trkpt lat="42.0499430783" lon="-6.4841823746">
        <ele>969.15</ele>
        <time>2020-08-11T10:21:05Z</time>
      </trkpt>
      <trkpt lat="42.0499287453" lon="-6.4841440693">
        <ele>969.15</ele>
        <time>2020-08-11T10:21:06Z</time>
      </trkpt>
      <trkpt lat="42.0499208663" lon="-6.4841092844">
        <ele>969.15</ele>
        <time>2020-08-11T10:21:07Z</time>
      </trkpt>
      <trkpt lat="42.0499100536" lon="-6.4840645250">
        <ele>969.15</ele>
        <time>2020-08-11T10:21:08Z</time>
      </trkpt>
      <trkpt lat="42.0498278271" lon="-6.4837235492">
        <ele>969.15</ele>
        <time>2020-08-11T10:21:17Z</time>
      </trkpt>
      <trkpt lat="42.0498164278" lon="-6.4837029297">
        <ele>969.15</ele>
        <time>2020-08-11T10:21:18Z</time>
      </trkpt>
      <trkpt lat="42.0497881807" lon="-6.4836916979">
        <ele>968.18</ele>
        <time>2020-08-11T10:21:23Z</time>
      </trkpt>
      <trkpt lat="42.0497879293" lon="-6.4837007504">
        <ele>968.18</ele>
        <time>2020-08-11T10:21:31Z</time>
      </trkpt>
      <trkpt lat="42.0497995801" lon="-6.4836988226">
        <ele>969.15</ele>
        <time>2020-08-11T10:21:39Z</time>
      </trkpt>
      <trkpt lat="42.0498009212" lon="-6.4837002475">
        <ele>968.67</ele>
        <time>2020-08-11T10:21:45Z</time>
      </trkpt>
      <trkpt lat="42.0498325210" lon="-6.4837132394">
        <ele>969.15</ele>
        <time>2020-08-11T10:21:49Z</time>
      </trkpt>
      <trkpt lat="42.0498924516" lon="-6.4837746788">
        <ele>969.63</ele>
        <time>2020-08-11T10:21:54Z</time>
      </trkpt>
      <trkpt lat="42.0499033481" lon="-6.4838051051">
        <ele>969.63</ele>
        <time>2020-08-11T10:21:55Z</time>
      </trkpt>
      <trkpt lat="42.0499123167" lon="-6.4838323463">
        <ele>969.63</ele>
        <time>2020-08-11T10:21:56Z</time>
      </trkpt>
      <trkpt lat="42.0499251410" lon="-6.4838656224">
        <ele>969.63</ele>
        <time>2020-08-11T10:21:57Z</time>
      </trkpt>
      <trkpt lat="42.0499373786" lon="-6.4838988148">
        <ele>969.63</ele>
        <time>2020-08-11T10:21:58Z</time>
      </trkpt>
      <trkpt lat="42.0499494486" lon="-6.4839410596">
        <ele>969.63</ele>
        <time>2020-08-11T10:21:59Z</time>
      </trkpt>
      <trkpt lat="42.0499610156" lon="-6.4839861542">
        <ele>969.63</ele>
        <time>2020-08-11T10:22:00Z</time>
      </trkpt>
      <trkpt lat="42.0500548091" lon="-6.4844785910">
        <ele>969.15</ele>
        <time>2020-08-11T10:22:10Z</time>
      </trkpt>
      <trkpt lat="42.0501898415" lon="-6.4851955790">
        <ele>970.59</ele>
        <time>2020-08-11T10:22:24Z</time>
      </trkpt>
      <trkpt lat="42.0503874868" lon="-6.4858070388">
        <ele>971.07</ele>
        <time>2020-08-11T10:22:36Z</time>
      </trkpt>
      <trkpt lat="42.0505971182" lon="-6.4863855578">
        <ele>971.55</ele>
        <time>2020-08-11T10:22:47Z</time>
      </trkpt>
      <trkpt lat="42.0507622417" lon="-6.4868582971">
        <ele>971.55</ele>
        <time>2020-08-11T10:22:56Z</time>
      </trkpt>
      <trkpt lat="42.0509691909" lon="-6.4873514883">
        <ele>972.51</ele>
        <time>2020-08-11T10:23:06Z</time>
      </trkpt>
      <trkpt lat="42.0511736255" lon="-6.4878145885">
        <ele>972.99</ele>
        <time>2020-08-11T10:23:16Z</time>
      </trkpt>
      <trkpt lat="42.0513255894" lon="-6.4883748349">
        <ele>973.95</ele>
        <time>2020-08-11T10:23:27Z</time>
      </trkpt>
      <trkpt lat="42.0513669960" lon="-6.4885946084">
        <ele>973.47</ele>
        <time>2020-08-11T10:23:31Z</time>
      </trkpt>
      <trkpt lat="42.0513808262" lon="-6.4892782364">
        <ele>974.43</ele>
        <time>2020-08-11T10:23:43Z</time>
      </trkpt>
      <trkpt lat="42.0513795689" lon="-6.4898860082">
        <ele>974.43</ele>
        <time>2020-08-11T10:23:53Z</time>
      </trkpt>
      <trkpt lat="42.0514096599" lon="-6.4903376251">
        <ele>974.43</ele>
        <time>2020-08-11T10:24:01Z</time>
      </trkpt>
      <trkpt lat="42.0514419302" lon="-6.4906026609">
        <ele>974.91</ele>
        <time>2020-08-11T10:24:08Z</time>
      </trkpt>
      <trkpt lat="42.0515444409" lon="-6.4910332393">
        <ele>974.91</ele>
        <time>2020-08-11T10:24:18Z</time>
      </trkpt>
      <trkpt lat="42.0516429283" lon="-6.4914944954">
        <ele>976.36</ele>
        <time>2020-08-11T10:24:28Z</time>
      </trkpt>
      <trkpt lat="42.0516796410" lon="-6.4915511571">
        <ele>976.84</ele>
        <time>2020-08-11T10:24:32Z</time>
      </trkpt>
      <trkpt lat="42.0516856760" lon="-6.4915531687">
        <ele>975.88</ele>
        <time>2020-08-11T10:24:39Z</time>
      </trkpt>
      <trkpt lat="42.0516781323" lon="-6.4915528335">
        <ele>975.39</ele>
        <time>2020-08-11T10:24:53Z</time>
      </trkpt>
      <trkpt lat="42.0516898669" lon="-6.4915542584">
        <ele>975.39</ele>
        <time>2020-08-11T10:25:02Z</time>
      </trkpt>
      <trkpt lat="42.0516961534" lon="-6.4915492292">
        <ele>974.91</ele>
        <time>2020-08-11T10:25:11Z</time>
      </trkpt>
      <trkpt lat="42.0516847540" lon="-6.4915599581">
        <ele>975.39</ele>
        <time>2020-08-11T10:25:28Z</time>
      </trkpt>
      <trkpt lat="42.0516928844" lon="-6.4915580302">
        <ele>975.88</ele>
        <time>2020-08-11T10:25:46Z</time>
      </trkpt>
      <trkpt lat="42.0517015178" lon="-6.4915491454">
        <ele>975.88</ele>
        <time>2020-08-11T10:26:06Z</time>
      </trkpt>
      <trkpt lat="42.0516875200" lon="-6.4915576112">
        <ele>976.36</ele>
        <time>2020-08-11T10:26:21Z</time>
      </trkpt>
      <trkpt lat="42.0516909566" lon="-6.4915743750">
        <ele>975.88</ele>
        <time>2020-08-11T10:26:35Z</time>
      </trkpt>
      <trkpt lat="42.0516912919" lon="-6.4915600419">
        <ele>975.88</ele>
        <time>2020-08-11T10:26:53Z</time>
      </trkpt>
      <trkpt lat="42.0516923815" lon="-6.4915660769">
        <ele>975.88</ele>
        <time>2020-08-11T10:27:10Z</time>
      </trkpt>
      <trkpt lat="42.0516905375" lon="-6.4915915579">
        <ele>976.36</ele>
        <time>2020-08-11T10:27:16Z</time>
      </trkpt>
      <trkpt lat="42.0516856760" lon="-6.4916647319">
        <ele>977.32</ele>
        <time>2020-08-11T10:27:25Z</time>
      </trkpt>
      <trkpt lat="42.0516787190" lon="-6.4916964993">
        <ele>976.84</ele>
        <time>2020-08-11T10:27:33Z</time>
      </trkpt>
      <trkpt lat="42.0517140906" lon="-6.4918514807">
        <ele>977.32</ele>
        <time>2020-08-11T10:27:39Z</time>
      </trkpt>
      <trkpt lat="42.0517744403" lon="-6.4920411631">
        <ele>977.80</ele>
        <time>2020-08-11T10:27:47Z</time>
      </trkpt>
      <trkpt lat="42.0518231392" lon="-6.4922501240">
        <ele>977.80</ele>
        <time>2020-08-11T10:27:56Z</time>
      </trkpt>
      <trkpt lat="42.0518264920" lon="-6.4923450071">
        <ele>977.80</ele>
        <time>2020-08-11T10:28:01Z</time>
      </trkpt>
      <trkpt lat="42.0518326946" lon="-6.4923683926">
        <ele>978.28</ele>
        <time>2020-08-11T10:28:02Z</time>
      </trkpt>
      <trkpt lat="42.0518387295" lon="-6.4923961367">
        <ele>978.28</ele>
        <time>2020-08-11T10:28:03Z</time>
      </trkpt>
      <trkpt lat="42.0518447645" lon="-6.4924260601">
        <ele>978.28</ele>
        <time>2020-08-11T10:28:04Z</time>
      </trkpt>
      <trkpt lat="42.0518508833" lon="-6.4924608450">
        <ele>978.28</ele>
        <time>2020-08-11T10:28:05Z</time>
      </trkpt>
      <trkpt lat="42.0519212913" lon="-6.4927898347">
        <ele>979.24</ele>
        <time>2020-08-11T10:28:14Z</time>
      </trkpt>
      <trkpt lat="42.0520151686" lon="-6.4931895677">
        <ele>979.72</ele>
        <time>2020-08-11T10:28:24Z</time>
      </trkpt>
      <trkpt lat="42.0521009155" lon="-6.4935753867">
        <ele>979.72</ele>
        <time>2020-08-11T10:28:33Z</time>
      </trkpt>
      <trkpt lat="42.0521987323" lon="-6.4940389898">
        <ele>980.20</ele>
        <time>2020-08-11T10:28:44Z</time>
      </trkpt>
      <trkpt lat="42.0522781089" lon="-6.4944217075">
        <ele>981.16</ele>
        <time>2020-08-11T10:28:54Z</time>
      </trkpt>
      <trkpt lat="42.0523781050" lon="-6.4948824607">
        <ele>982.12</ele>
        <time>2020-08-11T10:29:05Z</time>
      </trkpt>
      <trkpt lat="42.0524716470" lon="-6.4953064173">
        <ele>982.12</ele>
        <time>2020-08-11T10:29:15Z</time>
      </trkpt>
      <trkpt lat="42.0525846351" lon="-6.4958379138">
        <ele>983.09</ele>
        <time>2020-08-11T10:29:27Z</time>
      </trkpt>
      <trkpt lat="42.0526889060" lon="-6.4962819032">
        <ele>983.09</ele>
        <time>2020-08-11T10:29:37Z</time>
      </trkpt>
      <trkpt lat="42.0528023131" lon="-6.4968182612">
        <ele>983.09</ele>
        <time>2020-08-11T10:29:48Z</time>
      </trkpt>
      <trkpt lat="42.0529133733" lon="-6.4973200858">
        <ele>983.09</ele>
        <time>2020-08-11T10:29:58Z</time>
      </trkpt>
      <trkpt lat="42.0530424546" lon="-6.4979031309">
        <ele>983.09</ele>
        <time>2020-08-11T10:30:08Z</time>
      </trkpt>
      <trkpt lat="42.0531899761" lon="-6.4984326158">
        <ele>981.64</ele>
        <time>2020-08-11T10:30:16Z</time>
      </trkpt>
      <trkpt lat="42.0533909742" lon="-6.4991120528">
        <ele>979.72</ele>
        <time>2020-08-11T10:30:25Z</time>
      </trkpt>
      <trkpt lat="42.0536629669" lon="-6.5000052284">
        <ele>977.32</ele>
        <time>2020-08-11T10:30:36Z</time>
      </trkpt>
      <trkpt lat="42.0538897812" lon="-6.5007546544">
        <ele>975.39</ele>
        <time>2020-08-11T10:30:45Z</time>
      </trkpt>
      <trkpt lat="42.0541890152" lon="-6.5016975347">
        <ele>972.51</ele>
        <time>2020-08-11T10:30:56Z</time>
      </trkpt>
      <trkpt lat="42.0545309968" lon="-6.5025101602">
        <ele>970.59</ele>
        <time>2020-08-11T10:31:05Z</time>
      </trkpt>
      <trkpt lat="42.0550684445" lon="-6.5034787729">
        <ele>968.18</ele>
        <time>2020-08-11T10:31:16Z</time>
      </trkpt>
      <trkpt lat="42.0555954147" lon="-6.5044037998">
        <ele>964.34</ele>
        <time>2020-08-11T10:31:26Z</time>
      </trkpt>
      <trkpt lat="42.0563107263" lon="-6.5056725685">
        <ele>961.46</ele>
        <time>2020-08-11T10:31:40Z</time>
      </trkpt>
      <trkpt lat="42.0564951282" lon="-6.5059932601">
        <ele>960.49</ele>
        <time>2020-08-11T10:31:45Z</time>
      </trkpt>
      <trkpt lat="42.0567751676" lon="-6.5065300371">
        <ele>959.53</ele>
        <time>2020-08-11T10:31:56Z</time>
      </trkpt>
      <trkpt lat="42.0568429772" lon="-6.5066714399">
        <ele>959.53</ele>
        <time>2020-08-11T10:32:01Z</time>
      </trkpt>
      <trkpt lat="42.0568376128" lon="-6.5066730324">
        <ele>962.90</ele>
        <time>2020-08-11T10:32:20Z</time>
      </trkpt>
      <trkpt lat="42.0568559691" lon="-6.5067248326">
        <ele>962.42</ele>
        <time>2020-08-11T10:32:36Z</time>
      </trkpt>
      <trkpt lat="42.0569660235" lon="-6.5070049558">
        <ele>962.42</ele>
        <time>2020-08-11T10:32:44Z</time>
      </trkpt>
      <trkpt lat="42.0571256988" lon="-6.5075437445">
        <ele>962.42</ele>
        <time>2020-08-11T10:32:54Z</time>
      </trkpt>
      <trkpt lat="42.0572594739" lon="-6.5082938410">
        <ele>963.38</ele>
        <time>2020-08-11T10:33:06Z</time>
      </trkpt>
      <trkpt lat="42.0573173929" lon="-6.5089161135">
        <ele>963.86</ele>
        <time>2020-08-11T10:33:16Z</time>
      </trkpt>
      <trkpt lat="42.0573674329" lon="-6.5096919425">
        <ele>963.86</ele>
        <time>2020-08-11T10:33:28Z</time>
      </trkpt>
      <trkpt lat="42.0574047323" lon="-6.5103474911">
        <ele>963.38</ele>
        <time>2020-08-11T10:33:38Z</time>
      </trkpt>
      <trkpt lat="42.0574527606" lon="-6.5110560972">
        <ele>961.46</ele>
        <time>2020-08-11T10:33:47Z</time>
      </trkpt>
      <trkpt lat="42.0575051475" lon="-6.5119261388">
        <ele>960.49</ele>
        <time>2020-08-11T10:33:57Z</time>
      </trkpt>
      <trkpt lat="42.0575512480" lon="-6.5126491617">
        <ele>960.98</ele>
        <time>2020-08-11T10:34:06Z</time>
      </trkpt>
      <trkpt lat="42.0575832669" lon="-6.5131053887">
        <ele>961.46</ele>
        <time>2020-08-11T10:34:14Z</time>
      </trkpt>
      <trkpt lat="42.0576270204" lon="-6.5136337001">
        <ele>962.42</ele>
        <time>2020-08-11T10:34:25Z</time>
      </trkpt>
      <trkpt lat="42.0576575305" lon="-6.5139761008">
        <ele>963.86</ele>
        <time>2020-08-11T10:34:33Z</time>
      </trkpt>
      <trkpt lat="42.0577095821" lon="-6.5145329107">
        <ele>966.26</ele>
        <time>2020-08-11T10:34:47Z</time>
      </trkpt>
      <trkpt lat="42.0577567723" lon="-6.5148167219">
        <ele>967.22</ele>
        <time>2020-08-11T10:34:56Z</time>
      </trkpt>
      <trkpt lat="42.0578021184" lon="-6.5151922312">
        <ele>968.18</ele>
        <time>2020-08-11T10:35:07Z</time>
      </trkpt>
      <trkpt lat="42.0578515716" lon="-6.5155267529">
        <ele>969.15</ele>
        <time>2020-08-11T10:35:18Z</time>
      </trkpt>
      <trkpt lat="42.0578961633" lon="-6.5158129949">
        <ele>970.11</ele>
        <time>2020-08-11T10:35:27Z</time>
      </trkpt>
      <trkpt lat="42.0579508971" lon="-6.5161486901">
        <ele>972.03</ele>
        <time>2020-08-11T10:35:38Z</time>
      </trkpt>
      <trkpt lat="42.0579991769" lon="-6.5164190903">
        <ele>973.47</ele>
        <time>2020-08-11T10:35:47Z</time>
      </trkpt>
      <trkpt lat="42.0580517314" lon="-6.5166972019">
        <ele>973.95</ele>
        <time>2020-08-11T10:35:56Z</time>
      </trkpt>
      <trkpt lat="42.0580952335" lon="-6.5169397742">
        <ele>974.91</ele>
        <time>2020-08-11T10:36:04Z</time>
      </trkpt>
      <trkpt lat="42.0581493806" lon="-6.5172181372">
        <ele>975.39</ele>
        <time>2020-08-11T10:36:14Z</time>
      </trkpt>
      <trkpt lat="42.0581986662" lon="-6.5174638107">
        <ele>976.84</ele>
        <time>2020-08-11T10:36:23Z</time>
      </trkpt>
      <trkpt lat="42.0582515560" lon="-6.5177129209">
        <ele>977.80</ele>
        <time>2020-08-11T10:36:32Z</time>
      </trkpt>
      <trkpt lat="42.0583134983" lon="-6.5180202015">
        <ele>977.80</ele>
        <time>2020-08-11T10:36:43Z</time>
      </trkpt>
      <trkpt lat="42.0583702438" lon="-6.5183219500">
        <ele>978.28</ele>
        <time>2020-08-11T10:36:53Z</time>
      </trkpt>
      <trkpt lat="42.0584413223" lon="-6.5186624229">
        <ele>979.24</ele>
        <time>2020-08-11T10:37:04Z</time>
      </trkpt>
      <trkpt lat="42.0585377980" lon="-6.5191365033">
        <ele>980.68</ele>
        <time>2020-08-11T10:37:19Z</time>
      </trkpt>
      <trkpt lat="42.0586289931" lon="-6.5195937362">
        <ele>982.12</ele>
        <time>2020-08-11T10:37:33Z</time>
      </trkpt>
      <trkpt lat="42.0587089565" lon="-6.5199631266">
        <ele>982.60</ele>
        <time>2020-08-11T10:37:43Z</time>
      </trkpt>
      <trkpt lat="42.0587947033" lon="-6.5204107203">
        <ele>983.57</ele>
        <time>2020-08-11T10:37:54Z</time>
      </trkpt>
      <trkpt lat="42.0588672906" lon="-6.5208876505">
        <ele>982.60</ele>
        <time>2020-08-11T10:38:04Z</time>
      </trkpt>
      <trkpt lat="42.0589103736" lon="-6.5213650838">
        <ele>981.64</ele>
        <time>2020-08-11T10:38:13Z</time>
      </trkpt>
      <trkpt lat="42.0588816237" lon="-6.5218735300">
        <ele>980.68</ele>
        <time>2020-08-11T10:38:22Z</time>
      </trkpt>
      <trkpt lat="42.0587926917" lon="-6.5225103870">
        <ele>979.72</ele>
        <time>2020-08-11T10:38:33Z</time>
      </trkpt>
      <trkpt lat="42.0586713217" lon="-6.5232504252">
        <ele>977.80</ele>
        <time>2020-08-11T10:38:46Z</time>
      </trkpt>
      <trkpt lat="42.0585579984" lon="-6.5239083208">
        <ele>976.36</ele>
        <time>2020-08-11T10:38:56Z</time>
      </trkpt>
      <trkpt lat="42.0584326889" lon="-6.5246287454">
        <ele>975.39</ele>
        <time>2020-08-11T10:39:07Z</time>
      </trkpt>
      <trkpt lat="42.0583207905" lon="-6.5252589807">
        <ele>975.88</ele>
        <time>2020-08-11T10:39:17Z</time>
      </trkpt>
      <trkpt lat="42.0582124963" lon="-6.5259046387">
        <ele>976.84</ele>
        <time>2020-08-11T10:39:29Z</time>
      </trkpt>
      <trkpt lat="42.0581378136" lon="-6.5263807308">
        <ele>978.28</ele>
        <time>2020-08-11T10:39:39Z</time>
      </trkpt>
      <trkpt lat="42.0580094866" lon="-6.5271708928">
        <ele>979.72</ele>
        <time>2020-08-11T10:39:54Z</time>
      </trkpt>
      <trkpt lat="42.0579206385" lon="-6.5277874656">
        <ele>980.20</ele>
        <time>2020-08-11T10:40:06Z</time>
      </trkpt>
      <trkpt lat="42.0578308683" lon="-6.5284876898">
        <ele>981.16</ele>
        <time>2020-08-11T10:40:19Z</time>
      </trkpt>
      <trkpt lat="42.0577809121" lon="-6.5289667156">
        <ele>981.64</ele>
        <time>2020-08-11T10:40:28Z</time>
      </trkpt>
      <trkpt lat="42.0577358175" lon="-6.5296198335">
        <ele>982.12</ele>
        <time>2020-08-11T10:40:39Z</time>
      </trkpt>
      <trkpt lat="42.0577032957" lon="-6.5303312056">
        <ele>982.60</ele>
        <time>2020-08-11T10:40:50Z</time>
      </trkpt>
      <trkpt lat="42.0576896332" lon="-6.5309885982">
        <ele>982.12</ele>
        <time>2020-08-11T10:41:00Z</time>
      </trkpt>
      <trkpt lat="42.0576986857" lon="-6.5317707136">
        <ele>980.20</ele>
        <time>2020-08-11T10:41:12Z</time>
      </trkpt>
      <trkpt lat="42.0577362366" lon="-6.5326166153">
        <ele>976.84</ele>
        <time>2020-08-11T10:41:25Z</time>
      </trkpt>
      <trkpt lat="42.0577576105" lon="-6.5333149116">
        <ele>976.84</ele>
        <time>2020-08-11T10:41:35Z</time>
      </trkpt>
      <trkpt lat="42.0577916410" lon="-6.5341418702">
        <ele>975.88</ele>
        <time>2020-08-11T10:41:47Z</time>
      </trkpt>
      <trkpt lat="42.0577788167" lon="-6.5347284358">
        <ele>975.88</ele>
        <time>2020-08-11T10:41:57Z</time>
      </trkpt>
      <trkpt lat="42.0577242505" lon="-6.5352171846">
        <ele>977.32</ele>
        <time>2020-08-11T10:42:05Z</time>
      </trkpt>
      <trkpt lat="42.0576408505" lon="-6.5357112978">
        <ele>977.80</ele>
        <time>2020-08-11T10:42:15Z</time>
      </trkpt>
      <trkpt lat="42.0575661678" lon="-6.5360107832">
        <ele>978.76</ele>
        <time>2020-08-11T10:42:23Z</time>
      </trkpt>
      <trkpt lat="42.0574530121" lon="-6.5363946743">
        <ele>978.76</ele>
        <time>2020-08-11T10:42:34Z</time>
      </trkpt>
      <trkpt lat="42.0573499147" lon="-6.5366980154">
        <ele>980.68</ele>
        <time>2020-08-11T10:42:43Z</time>
      </trkpt>
      <trkpt lat="42.0572097693" lon="-6.5370162763">
        <ele>982.12</ele>
        <time>2020-08-11T10:42:53Z</time>
      </trkpt>
      <trkpt lat="42.0570760779" lon="-6.5372940525">
        <ele>983.09</ele>
        <time>2020-08-11T10:43:02Z</time>
      </trkpt>
      <trkpt lat="42.0569352619" lon="-6.5375636145">
        <ele>984.53</ele>
        <time>2020-08-11T10:43:11Z</time>
      </trkpt>
      <trkpt lat="42.0567983855" lon="-6.5378185082">
        <ele>985.01</ele>
        <time>2020-08-11T10:43:20Z</time>
      </trkpt>
      <trkpt lat="42.0566719025" lon="-6.5380537882">
        <ele>985.01</ele>
        <time>2020-08-11T10:43:29Z</time>
      </trkpt>
      <trkpt lat="42.0565548074" lon="-6.5382645093">
        <ele>985.01</ele>
        <time>2020-08-11T10:43:37Z</time>
      </trkpt>
      <trkpt lat="42.0564463455" lon="-6.5384323988">
        <ele>985.49</ele>
        <time>2020-08-11T10:43:44Z</time>
      </trkpt>
      <trkpt lat="42.0563092176" lon="-6.5386649966">
        <ele>985.97</ele>
        <time>2020-08-11T10:43:53Z</time>
      </trkpt>
      <trkpt lat="42.0561798010" lon="-6.5389517415">
        <ele>987.41</ele>
        <time>2020-08-11T10:44:03Z</time>
      </trkpt>
      <trkpt lat="42.0560436789" lon="-6.5392714273">
        <ele>989.33</ele>
        <time>2020-08-11T10:44:13Z</time>
      </trkpt>
      <trkpt lat="42.0559108257" lon="-6.5395932924">
        <ele>990.78</ele>
        <time>2020-08-11T10:44:23Z</time>
      </trkpt>
      <trkpt lat="42.0558005199" lon="-6.5398598369">
        <ele>992.22</ele>
        <time>2020-08-11T10:44:31Z</time>
      </trkpt>
      <trkpt lat="42.0556794852" lon="-6.5401685424">
        <ele>993.18</ele>
        <time>2020-08-11T10:44:40Z</time>
      </trkpt>
      <trkpt lat="42.0555527508" lon="-6.5404980350">
        <ele>993.18</ele>
        <time>2020-08-11T10:44:49Z</time>
      </trkpt>
      <trkpt lat="42.0553979371" lon="-6.5408892184">
        <ele>994.14</ele>
        <time>2020-08-11T10:44:59Z</time>
      </trkpt>
      <trkpt lat="42.0552370884" lon="-6.5413282625">
        <ele>994.14</ele>
        <time>2020-08-11T10:45:09Z</time>
      </trkpt>
      <trkpt lat="42.0550395269" lon="-6.5418463480">
        <ele>993.66</ele>
        <time>2020-08-11T10:45:20Z</time>
      </trkpt>
      <trkpt lat="42.0548340026" lon="-6.5423675347">
        <ele>994.14</ele>
        <time>2020-08-11T10:45:30Z</time>
      </trkpt>
      <trkpt lat="42.0546066854" lon="-6.5429634880">
        <ele>993.66</ele>
        <time>2020-08-11T10:45:42Z</time>
      </trkpt>
      <trkpt lat="42.0544464234" lon="-6.5433991794">
        <ele>993.66</ele>
        <time>2020-08-11T10:45:51Z</time>
      </trkpt>
      <trkpt lat="42.0542627759" lon="-6.5439971443">
        <ele>993.66</ele>
        <time>2020-08-11T10:46:02Z</time>
      </trkpt>
      <trkpt lat="42.0541531406" lon="-6.5445910860">
        <ele>993.66</ele>
        <time>2020-08-11T10:46:12Z</time>
      </trkpt>
      <trkpt lat="42.0541139133" lon="-6.5451317187">
        <ele>993.66</ele>
        <time>2020-08-11T10:46:21Z</time>
      </trkpt>
      <trkpt lat="42.0541085489" lon="-6.5457797237">
        <ele>993.66</ele>
        <time>2020-08-11T10:46:32Z</time>
      </trkpt>
      <trkpt lat="42.0541185234" lon="-6.5464377869">
        <ele>993.18</ele>
        <time>2020-08-11T10:46:43Z</time>
      </trkpt>
      <trkpt lat="42.0541356225" lon="-6.5472866222">
        <ele>992.22</ele>
        <time>2020-08-11T10:46:56Z</time>
      </trkpt>
      <trkpt lat="42.0541708264" lon="-6.5480488725">
        <ele>991.26</ele>
        <time>2020-08-11T10:47:08Z</time>
      </trkpt>
      <trkpt lat="42.0541968942" lon="-6.5486520343">
        <ele>989.33</ele>
        <time>2020-08-11T10:47:17Z</time>
      </trkpt>
      <trkpt lat="42.0542145800" lon="-6.5493224189">
        <ele>987.41</ele>
        <time>2020-08-11T10:47:25Z</time>
      </trkpt>
      <trkpt lat="42.0542321820" lon="-6.5503880102">
        <ele>984.53</ele>
        <time>2020-08-11T10:47:36Z</time>
      </trkpt>
      <trkpt lat="42.0542617701" lon="-6.5515581239">
        <ele>980.68</ele>
        <time>2020-08-11T10:47:47Z</time>
      </trkpt>
      <trkpt lat="42.0542491972" lon="-6.5525751002">
        <ele>979.24</ele>
        <time>2020-08-11T10:47:57Z</time>
      </trkpt>
      <trkpt lat="42.0541361254" lon="-6.5533407871">
        <ele>979.24</ele>
        <time>2020-08-11T10:48:06Z</time>
      </trkpt>
      <trkpt lat="42.0540356264" lon="-6.5538731217">
        <ele>979.24</ele>
        <time>2020-08-11T10:48:13Z</time>
      </trkpt>
      <trkpt lat="42.0540159289" lon="-6.5539512411">
        <ele>978.76</ele>
        <time>2020-08-11T10:48:14Z</time>
      </trkpt>
      <trkpt lat="42.0538967382" lon="-6.5544971544">
        <ele>979.24</ele>
        <time>2020-08-11T10:48:23Z</time>
      </trkpt>
      <trkpt lat="42.0537746977" lon="-6.5550538804">
        <ele>979.72</ele>
        <time>2020-08-11T10:48:33Z</time>
      </trkpt>
      <trkpt lat="42.0536458679" lon="-6.5556248557">
        <ele>981.16</ele>
        <time>2020-08-11T10:48:44Z</time>
      </trkpt>
      <trkpt lat="42.0535618812" lon="-6.5560595412">
        <ele>981.64</ele>
        <time>2020-08-11T10:48:53Z</time>
      </trkpt>
      <trkpt lat="42.0535092428" lon="-6.5563753713">
        <ele>981.64</ele>
        <time>2020-08-11T10:48:59Z</time>
      </trkpt>
      <trkpt lat="42.0534133539" lon="-6.5567545686">
        <ele>981.16</ele>
        <time>2020-08-11T10:49:06Z</time>
      </trkpt>
      <trkpt lat="42.0532329753" lon="-6.5575317387">
        <ele>980.68</ele>
        <time>2020-08-11T10:49:18Z</time>
      </trkpt>
      <trkpt lat="42.0530251041" lon="-6.5583545063">
        <ele>979.72</ele>
        <time>2020-08-11T10:49:30Z</time>
      </trkpt>
      <trkpt lat="42.0527663548" lon="-6.5591522958">
        <ele>978.76</ele>
        <time>2020-08-11T10:49:41Z</time>
      </trkpt>
      <trkpt lat="42.0524838008" lon="-6.5598411206">
        <ele>978.76</ele>
        <time>2020-08-11T10:49:51Z</time>
      </trkpt>
      <trkpt lat="42.0521988999" lon="-6.5604319610">
        <ele>978.28</ele>
        <time>2020-08-11T10:50:02Z</time>
      </trkpt>
      <trkpt lat="42.0518833213" lon="-6.5610126592">
        <ele>979.24</ele>
        <time>2020-08-11T10:50:14Z</time>
      </trkpt>
      <trkpt lat="42.0518564992" lon="-6.5610583406">
        <ele>979.24</ele>
        <time>2020-08-11T10:50:15Z</time>
      </trkpt>
      <trkpt lat="42.0518088061" lon="-6.5611569118">
        <ele>979.24</ele>
        <time>2020-08-11T10:50:17Z</time>
      </trkpt>
      <trkpt lat="42.0517240651" lon="-6.5613727458">
        <ele>979.72</ele>
        <time>2020-08-11T10:50:21Z</time>
      </trkpt>
      <trkpt lat="42.0516964886" lon="-6.5614213608">
        <ele>979.72</ele>
        <time>2020-08-11T10:50:22Z</time>
      </trkpt>
      <trkpt lat="42.0514303632" lon="-6.5618233569">
        <ele>979.72</ele>
        <time>2020-08-11T10:50:31Z</time>
      </trkpt>
      <trkpt lat="42.0511662494" lon="-6.5622779075">
        <ele>979.72</ele>
        <time>2020-08-11T10:50:41Z</time>
      </trkpt>
      <trkpt lat="42.0508988667" lon="-6.5627649799">
        <ele>979.24</ele>
        <time>2020-08-11T10:50:50Z</time>
      </trkpt>
      <trkpt lat="42.0505968668" lon="-6.5633974783">
        <ele>977.32</ele>
        <time>2020-08-11T10:51:01Z</time>
      </trkpt>
      <trkpt lat="42.0503778476" lon="-6.5640315693">
        <ele>976.36</ele>
        <time>2020-08-11T10:51:10Z</time>
      </trkpt>
      <trkpt lat="42.0501747541" lon="-6.5648494754">
        <ele>974.91</ele>
        <time>2020-08-11T10:51:20Z</time>
      </trkpt>
      <trkpt lat="42.0499476884" lon="-6.5658473410">
        <ele>972.03</ele>
        <time>2020-08-11T10:51:31Z</time>
      </trkpt>
      <trkpt lat="42.0497212932" lon="-6.5669099148">
        <ele>969.15</ele>
        <time>2020-08-11T10:51:42Z</time>
      </trkpt>
      <trkpt lat="42.0495937206" lon="-6.5675027668">
        <ele>967.22</ele>
        <time>2020-08-11T10:51:49Z</time>
      </trkpt>
      <trkpt lat="42.0494835824" lon="-6.5681030788">
        <ele>965.30</ele>
        <time>2020-08-11T10:51:57Z</time>
      </trkpt>
      <trkpt lat="42.0493921358" lon="-6.5689390060">
        <ele>963.38</ele>
        <time>2020-08-11T10:52:06Z</time>
      </trkpt>
      <trkpt lat="42.0493585244" lon="-6.5698439162">
        <ele>961.94</ele>
        <time>2020-08-11T10:52:15Z</time>
      </trkpt>
      <trkpt lat="42.0493315347" lon="-6.5709962603">
        <ele>960.01</ele>
        <time>2020-08-11T10:52:26Z</time>
      </trkpt>
      <trkpt lat="42.0493128430" lon="-6.5719005000">
        <ele>960.49</ele>
        <time>2020-08-11T10:52:36Z</time>
      </trkpt>
      <trkpt lat="42.0493015274" lon="-6.5724486765">
        <ele>960.49</ele>
        <time>2020-08-11T10:52:44Z</time>
      </trkpt>
      <trkpt lat="42.0492898766" lon="-6.5730811749">
        <ele>959.53</ele>
        <time>2020-08-11T10:52:54Z</time>
      </trkpt>
      <trkpt lat="42.0493265055" lon="-6.5732164588">
        <ele>959.53</ele>
        <time>2020-08-11T10:52:58Z</time>
      </trkpt>
      <trkpt lat="42.0493393298" lon="-6.5732222423">
        <ele>960.01</ele>
        <time>2020-08-11T10:52:59Z</time>
      </trkpt>
      <trkpt lat="42.0493530761" lon="-6.5732332226">
        <ele>960.98</ele>
        <time>2020-08-11T10:53:03Z</time>
      </trkpt>
      <trkpt lat="42.0493990090" lon="-6.5733557660">
        <ele>961.94</ele>
        <time>2020-08-11T10:53:10Z</time>
      </trkpt>
      <trkpt lat="42.0494145155" lon="-6.5734501462">
        <ele>963.38</ele>
        <time>2020-08-11T10:53:16Z</time>
      </trkpt>
      <trkpt lat="42.0494197123" lon="-6.5734624676">
        <ele>964.34</ele>
        <time>2020-08-11T10:53:24Z</time>
      </trkpt>
      <trkpt lat="42.0494405832" lon="-6.5735211410">
        <ele>964.34</ele>
        <time>2020-08-11T10:53:31Z</time>
      </trkpt>
      <trkpt lat="42.0494524855" lon="-6.5735216439">
        <ele>963.86</ele>
        <time>2020-08-11T10:53:32Z</time>
      </trkpt>
      <trkpt lat="42.0495496318" lon="-6.5735486336">
        <ele>963.86</ele>
        <time>2020-08-11T10:53:41Z</time>
      </trkpt>
      <trkpt lat="42.0496395696" lon="-6.5736771282">
        <ele>963.38</ele>
        <time>2020-08-11T10:53:49Z</time>
      </trkpt>
      <trkpt lat="42.0496541541" lon="-6.5736945625">
        <ele>962.90</ele>
        <time>2020-08-11T10:53:55Z</time>
      </trkpt>
      <trkpt lat="42.0496570878" lon="-6.5736890305">
        <ele>962.90</ele>
        <time>2020-08-11T10:54:00Z</time>
      </trkpt>
      <trkpt lat="42.0496396534" lon="-6.5736348834">
        <ele>963.38</ele>
        <time>2020-08-11T10:54:04Z</time>
      </trkpt>
      <trkpt lat="42.0495527331" lon="-6.5735466219">
        <ele>963.38</ele>
        <time>2020-08-11T10:54:11Z</time>
      </trkpt>
      <trkpt lat="42.0494509768" lon="-6.5734749567">
        <ele>962.42</ele>
        <time>2020-08-11T10:54:16Z</time>
      </trkpt>
      <trkpt lat="42.0494241547" lon="-6.5734525770">
        <ele>962.42</ele>
        <time>2020-08-11T10:54:18Z</time>
      </trkpt>
      <trkpt lat="42.0493352227" lon="-6.5732654091">
        <ele>962.90</ele>
        <time>2020-08-11T10:54:26Z</time>
      </trkpt>
      <trkpt lat="42.0492899604" lon="-6.5732302051">
        <ele>962.42</ele>
        <time>2020-08-11T10:54:29Z</time>
      </trkpt>
      <trkpt lat="42.0492705144" lon="-6.5732431132">
        <ele>961.94</ele>
        <time>2020-08-11T10:54:30Z</time>
      </trkpt>
      <trkpt lat="42.0492594503" lon="-6.5732730366">
        <ele>961.94</ele>
        <time>2020-08-11T10:54:31Z</time>
      </trkpt>
      <trkpt lat="42.0492582768" lon="-6.5733014513">
        <ele>961.46</ele>
        <time>2020-08-11T10:54:32Z</time>
      </trkpt>
      <trkpt lat="42.0492607076" lon="-6.5733393375">
        <ele>961.46</ele>
        <time>2020-08-11T10:54:33Z</time>
      </trkpt>
      <trkpt lat="42.0492645632" lon="-6.5733819176">
        <ele>961.46</ele>
        <time>2020-08-11T10:54:34Z</time>
      </trkpt>
      <trkpt lat="42.0492648985" lon="-6.5734305326">
        <ele>960.98</ele>
        <time>2020-08-11T10:54:35Z</time>
      </trkpt>
      <trkpt lat="42.0492637251" lon="-6.5734776389">
        <ele>960.98</ele>
        <time>2020-08-11T10:54:36Z</time>
      </trkpt>
      <trkpt lat="42.0492630545" lon="-6.5739289206">
        <ele>960.01</ele>
        <time>2020-08-11T10:54:45Z</time>
      </trkpt>
      <trkpt lat="42.0492972527" lon="-6.5744425636">
        <ele>958.09</ele>
        <time>2020-08-11T10:54:53Z</time>
      </trkpt>
      <trkpt lat="42.0494182874" lon="-6.5751867928">
        <ele>956.17</ele>
        <time>2020-08-11T10:55:02Z</time>
      </trkpt>
      <trkpt lat="42.0495357178" lon="-6.5761657152">
        <ele>954.25</ele>
        <time>2020-08-11T10:55:12Z</time>
      </trkpt>
      <trkpt lat="42.0495091472" lon="-6.5769419633">
        <ele>952.80</ele>
        <time>2020-08-11T10:55:20Z</time>
      </trkpt>
      <trkpt lat="42.0494165272" lon="-6.5776004456">
        <ele>950.88</ele>
        <time>2020-08-11T10:55:28Z</time>
      </trkpt>
      <trkpt lat="42.0494079776" lon="-6.5776737873">
        <ele>950.88</ele>
        <time>2020-08-11T10:55:29Z</time>
      </trkpt>
      <trkpt lat="42.0493757073" lon="-6.5779290162">
        <ele>948.48</ele>
        <time>2020-08-11T10:55:34Z</time>
      </trkpt>
      <trkpt lat="42.0493301935" lon="-6.5782063734">
        <ele>948.48</ele>
        <time>2020-08-11T10:55:42Z</time>
      </trkpt>
      <trkpt lat="42.0492757112" lon="-6.5785510372">
        <ele>948.00</ele>
        <time>2020-08-11T10:55:50Z</time>
      </trkpt>
      <trkpt lat="42.0492255874" lon="-6.5788823739">
        <ele>947.04</ele>
        <time>2020-08-11T10:55:57Z</time>
      </trkpt>
      <trkpt lat="42.0492102485" lon="-6.5789491776">
        <ele>947.52</ele>
        <time>2020-08-11T10:56:02Z</time>
      </trkpt>
      <trkpt lat="42.0492039621" lon="-6.5789614152">
        <ele>948.00</ele>
        <time>2020-08-11T10:56:18Z</time>
      </trkpt>
      <trkpt lat="42.0491934847" lon="-6.5789734852">
        <ele>948.00</ele>
        <time>2020-08-11T10:56:19Z</time>
      </trkpt>
      <trkpt lat="42.0491525810" lon="-6.5789682046">
        <ele>948.48</ele>
        <time>2020-08-11T10:56:21Z</time>
      </trkpt>
      <trkpt lat="42.0491436124" lon="-6.5789368562">
        <ele>948.48</ele>
        <time>2020-08-11T10:56:22Z</time>
      </trkpt>
      <trkpt lat="42.0491431095" lon="-6.5789019037">
        <ele>948.96</ele>
        <time>2020-08-11T10:56:23Z</time>
      </trkpt>
      <trkpt lat="42.0491486415" lon="-6.5788572282">
        <ele>948.96</ele>
        <time>2020-08-11T10:56:24Z</time>
      </trkpt>
      <trkpt lat="42.0491540898" lon="-6.5788185038">
        <ele>948.96</ele>
        <time>2020-08-11T10:56:25Z</time>
      </trkpt>
      <trkpt lat="42.0492235757" lon="-6.5783968102">
        <ele>951.36</ele>
        <time>2020-08-11T10:56:33Z</time>
      </trkpt>
      <trkpt lat="42.0492707659" lon="-6.5780415852">
        <ele>952.80</ele>
        <time>2020-08-11T10:56:41Z</time>
      </trkpt>
      <trkpt lat="42.0492575224" lon="-6.5780124161">
        <ele>952.80</ele>
        <time>2020-08-11T10:56:42Z</time>
      </trkpt>
      <trkpt lat="42.0492369030" lon="-6.5779938921">
        <ele>952.80</ele>
        <time>2020-08-11T10:56:43Z</time>
      </trkpt>
      <trkpt lat="42.0492092427" lon="-6.5779828280">
        <ele>952.32</ele>
        <time>2020-08-11T10:56:44Z</time>
      </trkpt>
      <trkpt lat="42.0491814148" lon="-6.5779854264">
        <ele>952.32</ele>
        <time>2020-08-11T10:56:45Z</time>
      </trkpt>
      <trkpt lat="42.0491627231" lon="-6.5779909585">
        <ele>952.32</ele>
        <time>2020-08-11T10:56:46Z</time>
      </trkpt>
      <trkpt lat="42.0491390023" lon="-6.5780045372">
        <ele>952.32</ele>
        <time>2020-08-11T10:56:47Z</time>
      </trkpt>
      <trkpt lat="42.0491249207" lon="-6.5780190378">
        <ele>951.84</ele>
        <time>2020-08-11T10:56:48Z</time>
      </trkpt>
      <trkpt lat="42.0491146948" lon="-6.5780570917">
        <ele>950.88</ele>
        <time>2020-08-11T10:56:54Z</time>
      </trkpt>
      <trkpt lat="42.0491073187" lon="-6.5780746937">
        <ele>950.40</ele>
        <time>2020-08-11T10:56:57Z</time>
      </trkpt>
      <trkpt lat="42.0490982663" lon="-6.5780919604">
        <ele>950.40</ele>
        <time>2020-08-11T10:56:58Z</time>
      </trkpt>
      <trkpt lat="42.0490829274" lon="-6.5781129152">
        <ele>949.92</ele>
        <time>2020-08-11T10:56:59Z</time>
      </trkpt>
      <trkpt lat="42.0490620565" lon="-6.5781340376">
        <ele>949.44</ele>
        <time>2020-08-11T10:57:00Z</time>
      </trkpt>
      <trkpt lat="42.0490388386" lon="-6.5781577583">
        <ele>948.96</ele>
        <time>2020-08-11T10:57:01Z</time>
      </trkpt>
      <trkpt lat="42.0488425344" lon="-6.5783511288">
        <ele>946.07</ele>
        <time>2020-08-11T10:57:09Z</time>
      </trkpt>
      <trkpt lat="42.0486686938" lon="-6.5785093792">
        <ele>944.63</ele>
        <time>2020-08-11T10:57:18Z</time>
      </trkpt>
      <trkpt lat="42.0486152172" lon="-6.5785672143">
        <ele>943.67</ele>
        <time>2020-08-11T10:57:24Z</time>
      </trkpt>
      <trkpt lat="42.0486027282" lon="-6.5785763506">
        <ele>944.63</ele>
        <time>2020-08-11T10:57:31Z</time>
      </trkpt>
      <trkpt lat="42.0486187376" lon="-6.5786439925">
        <ele>944.15</ele>
        <time>2020-08-11T10:57:34Z</time>
      </trkpt>
      <trkpt lat="42.0486354176" lon="-6.5786591638">
        <ele>944.15</ele>
        <time>2020-08-11T10:57:35Z</time>
      </trkpt>
      <trkpt lat="42.0487523451" lon="-6.5787983872">
        <ele>944.63</ele>
        <time>2020-08-11T10:57:43Z</time>
      </trkpt>
      <trkpt lat="42.0487771556" lon="-6.5788212698">
        <ele>944.63</ele>
        <time>2020-08-11T10:57:45Z</time>
      </trkpt>
      <trkpt lat="42.0487831905" lon="-6.5788362734">
        <ele>944.63</ele>
        <time>2020-08-11T10:57:46Z</time>
      </trkpt>
      <trkpt lat="42.0487814303" lon="-6.5788428951">
        <ele>944.63</ele>
        <time>2020-08-11T10:57:51Z</time>
      </trkpt>
      <trkpt lat="42.0487929136" lon="-6.5788568929">
        <ele>946.07</ele>
        <time>2020-08-11T10:58:08Z</time>
      </trkpt>
      <trkpt lat="42.0487932488" lon="-6.5788327530">
        <ele>946.56</ele>
        <time>2020-08-11T10:58:29Z</time>
      </trkpt>
      <trkpt lat="42.0487832744" lon="-6.5788394585">
        <ele>947.52</ele>
        <time>2020-08-11T10:58:45Z</time>
      </trkpt>
      <trkpt lat="42.0487599727" lon="-6.5788380336">
        <ele>947.04</ele>
        <time>2020-08-11T10:59:00Z</time>
      </trkpt>
      <trkpt lat="42.0487674326" lon="-6.5788374469">
        <ele>948.96</ele>
        <time>2020-08-11T10:59:17Z</time>
      </trkpt>
      <trkpt lat="42.0487807598" lon="-6.5788212698">
        <ele>949.92</ele>
        <time>2020-08-11T10:59:31Z</time>
      </trkpt>
      <trkpt lat="42.0487756468" lon="-6.5787977166">
        <ele>949.92</ele>
        <time>2020-08-11T10:59:33Z</time>
      </trkpt>
      <trkpt lat="42.0487718750" lon="-6.5787861496">
        <ele>949.92</ele>
        <time>2020-08-11T10:59:34Z</time>
      </trkpt>
      <trkpt lat="42.0487370063" lon="-6.5786232054">
        <ele>949.92</ele>
        <time>2020-08-11T10:59:44Z</time>
      </trkpt>
      <trkpt lat="42.0486870501" lon="-6.5784098860">
        <ele>949.92</ele>
        <time>2020-08-11T10:59:56Z</time>
      </trkpt>
      <trkpt lat="42.0485972799" lon="-6.5782604367">
        <ele>949.92</ele>
        <time>2020-08-11T11:00:07Z</time>
      </trkpt>
      <trkpt lat="42.0484612416" lon="-6.5781109035">
        <ele>947.04</ele>
        <time>2020-08-11T11:00:21Z</time>
      </trkpt>
      <trkpt lat="42.0484020654" lon="-6.5781102329">
        <ele>945.11</ele>
        <time>2020-08-11T11:00:30Z</time>
      </trkpt>
      <trkpt lat="42.0483929291" lon="-6.5781021863">
        <ele>945.59</ele>
        <time>2020-08-11T11:00:39Z</time>
      </trkpt>
      <trkpt lat="42.0483980421" lon="-6.5780917089">
        <ele>945.11</ele>
        <time>2020-08-11T11:00:56Z</time>
      </trkpt>
      <trkpt lat="42.0484097768" lon="-6.5780899487">
        <ele>948.96</ele>
        <time>2020-08-11T11:01:14Z</time>
      </trkpt>
      <trkpt lat="42.0484071784" lon="-6.5780901164">
        <ele>950.88</ele>
        <time>2020-08-11T11:01:26Z</time>
      </trkpt>
      <trkpt lat="42.0483881515" lon="-6.5780416690">
        <ele>951.36</ele>
        <time>2020-08-11T11:01:47Z</time>
      </trkpt>
      <trkpt lat="42.0483529475" lon="-6.5780361369">
        <ele>948.00</ele>
        <time>2020-08-11T11:02:11Z</time>
      </trkpt>
      <trkpt lat="42.0483438112" lon="-6.5780211333">
        <ele>947.04</ele>
        <time>2020-08-11T11:02:29Z</time>
      </trkpt>
      <trkpt lat="42.0483631734" lon="-6.5780238155">
        <ele>946.56</ele>
        <time>2020-08-11T11:02:43Z</time>
      </trkpt>
      <trkpt lat="42.0483917557" lon="-6.5780503023">
        <ele>948.96</ele>
        <time>2020-08-11T11:02:57Z</time>
      </trkpt>
      <trkpt lat="42.0483822841" lon="-6.5780305211">
        <ele>951.84</ele>
        <time>2020-08-11T11:03:11Z</time>
      </trkpt>
      <trkpt lat="42.0483559649" lon="-6.5779956523">
        <ele>948.96</ele>
        <time>2020-08-11T11:03:29Z</time>
      </trkpt>
      <trkpt lat="42.0483464934" lon="-6.5779958200">
        <ele>949.44</ele>
        <time>2020-08-11T11:03:50Z</time>
      </trkpt>
      <trkpt lat="42.0483601559" lon="-6.5780391544">
        <ele>948.00</ele>
        <time>2020-08-11T11:04:00Z</time>
      </trkpt>
      <trkpt lat="42.0483741537" lon="-6.5780591033">
        <ele>946.07</ele>
        <time>2020-08-11T11:04:18Z</time>
      </trkpt>
      <trkpt lat="42.0483678672" lon="-6.5780571755">
        <ele>947.04</ele>
        <time>2020-08-11T11:04:39Z</time>
      </trkpt>
      <trkpt lat="42.0483528636" lon="-6.5780815668">
        <ele>948.96</ele>
        <time>2020-08-11T11:04:54Z</time>
      </trkpt>
      <trkpt lat="42.0483495109" lon="-6.5780922119">
        <ele>950.40</ele>
        <time>2020-08-11T11:05:13Z</time>
      </trkpt>
      <trkpt lat="42.0483673643" lon="-6.5780873504">
        <ele>949.44</ele>
        <time>2020-08-11T11:05:24Z</time>
      </trkpt>
      <trkpt lat="42.0483687054" lon="-6.5781006776">
        <ele>949.44</ele>
        <time>2020-08-11T11:05:34Z</time>
      </trkpt>
      <trkpt lat="42.0483702142" lon="-6.5780731011">
        <ele>949.44</ele>
        <time>2020-08-11T11:05:48Z</time>
      </trkpt>
      <trkpt lat="42.0483661909" lon="-6.5780953132">
        <ele>949.44</ele>
        <time>2020-08-11T11:06:04Z</time>
      </trkpt>
      <trkpt lat="42.0483874809" lon="-6.5781105682">
        <ele>946.07</ele>
        <time>2020-08-11T11:06:31Z</time>
      </trkpt>
      <trkpt lat="42.0484002214" lon="-6.5781263262">
        <ele>948.48</ele>
        <time>2020-08-11T11:07:00Z</time>
      </trkpt>
      <trkpt lat="42.0484008919" lon="-6.5781269129">
        <ele>951.36</ele>
        <time>2020-08-11T11:07:21Z</time>
      </trkpt>
      <trkpt lat="42.0484111179" lon="-6.5781344566">
        <ele>953.77</ele>
        <time>2020-08-11T11:07:45Z</time>
      </trkpt>
      <trkpt lat="42.0483837929" lon="-6.5781550761">
        <ele>952.32</ele>
        <time>2020-08-11T11:08:11Z</time>
      </trkpt>
      <trkpt lat="42.0483695436" lon="-6.5781328641">
        <ele>950.40</ele>
        <time>2020-08-11T11:08:40Z</time>
      </trkpt>
      <trkpt lat="42.0483827870" lon="-6.5780977439">
        <ele>949.92</ele>
        <time>2020-08-11T11:09:00Z</time>
      </trkpt>
      <trkpt lat="42.0483823679" lon="-6.5780925471">
        <ele>949.92</ele>
        <time>2020-08-11T11:09:24Z</time>
      </trkpt>
      <trkpt lat="42.0483718906" lon="-6.5781443473">
        <ele>948.00</ele>
        <time>2020-08-11T11:09:48Z</time>
      </trkpt>
      <trkpt lat="42.0483941026" lon="-6.5781181119">
        <ele>944.63</ele>
        <time>2020-08-11T11:10:13Z</time>
      </trkpt>
      <trkpt lat="42.0483876485" lon="-6.5781295113">
        <ele>946.56</ele>
        <time>2020-08-11T11:10:33Z</time>
      </trkpt>
      <trkpt lat="42.0483749919" lon="-6.5781141724">
        <ele>945.59</ele>
        <time>2020-08-11T11:10:54Z</time>
      </trkpt>
      <trkpt lat="42.0483796019" lon="-6.5780887753">
        <ele>945.11</ele>
        <time>2020-08-11T11:11:16Z</time>
      </trkpt>
      <trkpt lat="42.0483626705" lon="-6.5780362207">
        <ele>942.71</ele>
        <time>2020-08-11T11:11:39Z</time>
      </trkpt>
      <trkpt lat="42.0483709686" lon="-6.5780701675">
        <ele>944.15</ele>
        <time>2020-08-11T11:12:02Z</time>
      </trkpt>
      <trkpt lat="42.0483820327" lon="-6.5780905355">
        <ele>946.07</ele>
        <time>2020-08-11T11:12:20Z</time>
      </trkpt>
      <trkpt lat="42.0483854692" lon="-6.5781005099">
        <ele>948.00</ele>
        <time>2020-08-11T11:12:35Z</time>
      </trkpt>
      <trkpt lat="42.0483841281" lon="-6.5780980792">
        <ele>946.56</ele>
        <time>2020-08-11T11:13:00Z</time>
      </trkpt>
      <trkpt lat="42.0483961981" lon="-6.5781265777">
        <ele>948.48</ele>
        <time>2020-08-11T11:13:24Z</time>
      </trkpt>
      <trkpt lat="42.0484058373" lon="-6.5781082213">
        <ele>947.04</ele>
        <time>2020-08-11T11:13:50Z</time>
      </trkpt>
      <trkpt lat="42.0483921748" lon="-6.5780918766">
        <ele>945.11</ele>
        <time>2020-08-11T11:14:07Z</time>
      </trkpt>
      <trkpt lat="42.0483718067" lon="-6.5781076346">
        <ele>947.52</ele>
        <time>2020-08-11T11:14:30Z</time>
      </trkpt>
      <trkpt lat="42.0483798534" lon="-6.5780905355">
        <ele>948.96</ele>
        <time>2020-08-11T11:14:52Z</time>
      </trkpt>
      <trkpt lat="42.0483720582" lon="-6.5781135019">
        <ele>947.04</ele>
        <time>2020-08-11T11:15:13Z</time>
      </trkpt>
      <trkpt lat="42.0483710524" lon="-6.5781187825">
        <ele>949.92</ele>
        <time>2020-08-11T11:15:38Z</time>
      </trkpt>
      <trkpt lat="42.0483771712" lon="-6.5781440120">
        <ele>952.80</ele>
        <time>2020-08-11T11:16:01Z</time>
      </trkpt>
      <trkpt lat="42.0483773388" lon="-6.5781767853">
        <ele>954.25</ele>
        <time>2020-08-11T11:16:23Z</time>
      </trkpt>
      <trkpt lat="42.0484030712" lon="-6.5781639609">
        <ele>949.44</ele>
        <time>2020-08-11T11:16:48Z</time>
      </trkpt>
      <trkpt lat="42.0484037418" lon="-6.5781222191">
        <ele>947.04</ele>
        <time>2020-08-11T11:17:03Z</time>
      </trkpt>
      <trkpt lat="42.0484016463" lon="-6.5781145915">
        <ele>945.59</ele>
        <time>2020-08-11T11:17:29Z</time>
      </trkpt>
      <trkpt lat="42.0483982936" lon="-6.5781392343">
        <ele>943.19</ele>
        <time>2020-08-11T11:18:02Z</time>
      </trkpt>
      <trkpt lat="42.0483888220" lon="-6.5781218000">
        <ele>943.67</ele>
        <time>2020-08-11T11:18:24Z</time>
      </trkpt>
      <trkpt lat="42.0483986288" lon="-6.5781206265">
        <ele>943.67</ele>
        <time>2020-08-11T11:18:46Z</time>
      </trkpt>
      <trkpt lat="42.0483762491" lon="-6.5781259909">
        <ele>945.11</ele>
        <time>2020-08-11T11:19:18Z</time>
      </trkpt>
      <trkpt lat="42.0483682025" lon="-6.5781208780">
        <ele>945.11</ele>
        <time>2020-08-11T11:19:44Z</time>
      </trkpt>
      <trkpt lat="42.0483881515" lon="-6.5781211294">
        <ele>948.48</ele>
        <time>2020-08-11T11:20:09Z</time>
      </trkpt>
      <trkpt lat="42.0483975392" lon="-6.5781166032">
        <ele>948.96</ele>
        <time>2020-08-11T11:20:29Z</time>
      </trkpt>
      <trkpt lat="42.0483963657" lon="-6.5781584289">
        <ele>948.00</ele>
        <time>2020-08-11T11:20:54Z</time>
      </trkpt>
      <trkpt lat="42.0484102797" lon="-6.5781502146">
        <ele>948.00</ele>
        <time>2020-08-11T11:21:19Z</time>
      </trkpt>
      <trkpt lat="42.0483952761" lon="-6.5781849157">
        <ele>949.92</ele>
        <time>2020-08-11T11:21:43Z</time>
      </trkpt>
      <trkpt lat="42.0483985450" lon="-6.5781403240">
        <ele>948.48</ele>
        <time>2020-08-11T11:22:06Z</time>
      </trkpt>
      <trkpt lat="42.0483743213" lon="-6.5781395696">
        <ele>948.48</ele>
        <time>2020-08-11T11:22:23Z</time>
      </trkpt>
      <trkpt lat="42.0483798534" lon="-6.5781286731">
        <ele>947.04</ele>
        <time>2020-08-11T11:22:42Z</time>
      </trkpt>
      <trkpt lat="42.0483686216" lon="-6.5781129152">
        <ele>945.59</ele>
        <time>2020-08-11T11:22:56Z</time>
      </trkpt>
      <trkpt lat="42.0483718067" lon="-6.5781041142">
        <ele>943.19</ele>
        <time>2020-08-11T11:23:12Z</time>
      </trkpt>
      <trkpt lat="42.0483660232" lon="-6.5781030245">
        <ele>941.27</ele>
        <time>2020-08-11T11:23:34Z</time>
      </trkpt>
      <trkpt lat="42.0483848825" lon="-6.5781449340">
        <ele>940.79</ele>
        <time>2020-08-11T11:23:55Z</time>
      </trkpt>
      <trkpt lat="42.0483645983" lon="-6.5781329479">
        <ele>942.71</ele>
        <time>2020-08-11T11:24:17Z</time>
      </trkpt>
      <trkpt lat="42.0483671129" lon="-6.5781067964">
        <ele>945.59</ele>
        <time>2020-08-11T11:24:39Z</time>
      </trkpt>
      <trkpt lat="42.0483758301" lon="-6.5781220514">
        <ele>947.52</ele>
        <time>2020-08-11T11:24:59Z</time>
      </trkpt>
      <trkpt lat="42.0483768359" lon="-6.5781212971">
        <ele>949.44</ele>
        <time>2020-08-11T11:25:13Z</time>
      </trkpt>
      <trkpt lat="42.0483915880" lon="-6.5781176090">
        <ele>949.44</ele>
        <time>2020-08-11T11:25:46Z</time>
      </trkpt>
      <trkpt lat="42.0483808592" lon="-6.5781342052">
        <ele>948.96</ele>
        <time>2020-08-11T11:26:09Z</time>
      </trkpt>
      <trkpt lat="42.0483682863" lon="-6.5781082213">
        <ele>948.00</ele>
        <time>2020-08-11T11:26:30Z</time>
      </trkpt>
      <trkpt lat="42.0483622514" lon="-6.5780744422">
        <ele>949.92</ele>
        <time>2020-08-11T11:26:52Z</time>
      </trkpt>
      <trkpt lat="42.0483775903" lon="-6.5780662280">
        <ele>950.40</ele>
        <time>2020-08-11T11:27:11Z</time>
      </trkpt>
      <trkpt lat="42.0483770035" lon="-6.5780699998">
        <ele>949.44</ele>
        <time>2020-08-11T11:27:38Z</time>
      </trkpt>
      <trkpt lat="42.0483730640" lon="-6.5780987497">
        <ele>944.63</ele>
        <time>2020-08-11T11:27:58Z</time>
      </trkpt>
      <trkpt lat="42.0483525284" lon="-6.5781112388">
        <ele>945.59</ele>
        <time>2020-08-11T11:28:30Z</time>
      </trkpt>
      <trkpt lat="42.0483448170" lon="-6.5781095624">
        <ele>947.04</ele>
        <time>2020-08-11T11:28:50Z</time>
      </trkpt>
      <trkpt lat="42.0483534504" lon="-6.5781033598">
        <ele>946.07</ele>
        <time>2020-08-11T11:29:22Z</time>
      </trkpt>
      <trkpt lat="42.0483606588" lon="-6.5780948102">
        <ele>945.59</ele>
        <time>2020-08-11T11:29:39Z</time>
      </trkpt>
      <trkpt lat="42.0483591501" lon="-6.5780843329">
        <ele>944.15</ele>
        <time>2020-08-11T11:30:05Z</time>
      </trkpt>
      <trkpt lat="42.0483408775" lon="-6.5781363007">
        <ele>943.19</ele>
        <time>2020-08-11T11:30:31Z</time>
      </trkpt>
      <trkpt lat="42.0483625866" lon="-6.5781167708">
        <ele>944.63</ele>
        <time>2020-08-11T11:30:47Z</time>
      </trkpt>
      <trkpt lat="42.0483639278" lon="-6.5780887753">
        <ele>944.63</ele>
        <time>2020-08-11T11:31:16Z</time>
      </trkpt>
      <trkpt lat="42.0483645983" lon="-6.5780595224">
        <ele>945.11</ele>
        <time>2020-08-11T11:31:48Z</time>
      </trkpt>
      <trkpt lat="42.0483754110" lon="-6.5780953970">
        <ele>947.52</ele>
        <time>2020-08-11T11:32:19Z</time>
      </trkpt>
      <trkpt lat="42.0483678672" lon="-6.5781357978">
        <ele>946.56</ele>
        <time>2020-08-11T11:32:43Z</time>
      </trkpt>
      <trkpt lat="42.0483673643" lon="-6.5781270806">
        <ele>946.56</ele>
        <time>2020-08-11T11:33:11Z</time>
      </trkpt>
      <trkpt lat="42.0483657718" lon="-6.5781498794">
        <ele>949.44</ele>
        <time>2020-08-11T11:33:28Z</time>
      </trkpt>
      <trkpt lat="42.0483722258" lon="-6.5781278349">
        <ele>946.56</ele>
        <time>2020-08-11T11:33:46Z</time>
      </trkpt>
      <trkpt lat="42.0483878162" lon="-6.5781249851">
        <ele>948.48</ele>
        <time>2020-08-11T11:34:12Z</time>
      </trkpt>
      <trkpt lat="42.0483751595" lon="-6.5781277511">
        <ele>947.04</ele>
        <time>2020-08-11T11:34:34Z</time>
      </trkpt>
      <trkpt lat="42.0483573060" lon="-6.5781250689">
        <ele>948.96</ele>
        <time>2020-08-11T11:34:52Z</time>
      </trkpt>
      <trkpt lat="42.0483651850" lon="-6.5781299304">
        <ele>948.00</ele>
        <time>2020-08-11T11:35:07Z</time>
      </trkpt>
      <trkpt lat="42.0484015625" lon="-6.5781170223">
        <ele>945.11</ele>
        <time>2020-08-11T11:35:33Z</time>
      </trkpt>
      <trkpt lat="42.0483989641" lon="-6.5781002585">
        <ele>941.27</ele>
        <time>2020-08-11T11:35:56Z</time>
      </trkpt>
      <trkpt lat="42.0483919233" lon="-6.5780933015">
        <ele>943.19</ele>
        <time>2020-08-11T11:36:15Z</time>
      </trkpt>
      <trkpt lat="42.0483830385" lon="-6.5781047009">
        <ele>940.31</ele>
        <time>2020-08-11T11:36:37Z</time>
      </trkpt>
      <trkpt lat="42.0483513549" lon="-6.5781233087">
        <ele>939.35</ele>
        <time>2020-08-11T11:36:58Z</time>
      </trkpt>
      <trkpt lat="42.0483619999" lon="-6.5781302657">
        <ele>938.86</ele>
        <time>2020-08-11T11:37:23Z</time>
      </trkpt>
      <trkpt lat="42.0483615808" lon="-6.5781286731">
        <ele>944.63</ele>
        <time>2020-08-11T11:37:48Z</time>
      </trkpt>
      <trkpt lat="42.0483730640" lon="-6.5780926310">
        <ele>945.59</ele>
        <time>2020-08-11T11:38:14Z</time>
      </trkpt>
      <trkpt lat="42.0483734831" lon="-6.5781084727">
        <ele>945.59</ele>
        <time>2020-08-11T11:38:43Z</time>
      </trkpt>
      <trkpt lat="42.0483766682" lon="-6.5781158488">
        <ele>944.63</ele>
        <time>2020-08-11T11:39:01Z</time>
      </trkpt>
      <trkpt lat="42.0483624190" lon="-6.5781250689">
        <ele>946.56</ele>
        <time>2020-08-11T11:39:27Z</time>
      </trkpt>
      <trkpt lat="42.0483759139" lon="-6.5781154297">
        <ele>950.40</ele>
        <time>2020-08-11T11:39:53Z</time>
      </trkpt>
      <trkpt lat="42.0483629219" lon="-6.5781004261">
        <ele>950.40</ele>
        <time>2020-08-11T11:40:15Z</time>
      </trkpt>
      <trkpt lat="42.0483728964" lon="-6.5781155974">
        <ele>947.04</ele>
        <time>2020-08-11T11:40:46Z</time>
      </trkpt>
      <trkpt lat="42.0483381953" lon="-6.5781292599">
        <ele>945.11</ele>
        <time>2020-08-11T11:41:02Z</time>
      </trkpt>
      <trkpt lat="42.0483599883" lon="-6.5781149268">
        <ele>946.07</ele>
        <time>2020-08-11T11:41:21Z</time>
      </trkpt>
      <trkpt lat="42.0483469963" lon="-6.5781115741">
        <ele>945.11</ele>
        <time>2020-08-11T11:41:48Z</time>
      </trkpt>
      <trkpt lat="42.0483637601" lon="-6.5781142563">
        <ele>948.48</ele>
        <time>2020-08-11T11:42:10Z</time>
      </trkpt>
      <trkpt lat="42.0483544562" lon="-6.5781002585">
        <ele>946.56</ele>
        <time>2020-08-11T11:42:31Z</time>
      </trkpt>
      <trkpt lat="42.0483610779" lon="-6.5780911222">
        <ele>946.56</ele>
        <time>2020-08-11T11:42:54Z</time>
      </trkpt>
      <trkpt lat="42.0483425539" lon="-6.5781077184">
        <ele>942.23</ele>
        <time>2020-08-11T11:43:16Z</time>
      </trkpt>
      <trkpt lat="42.0483842120" lon="-6.5780979954">
        <ele>945.59</ele>
        <time>2020-08-11T11:43:42Z</time>
      </trkpt>
      <trkpt lat="42.0483632572" lon="-6.5780989174">
        <ele>947.04</ele>
        <time>2020-08-11T11:43:57Z</time>
      </trkpt>
      <trkpt lat="42.0483557973" lon="-6.5781129990">
        <ele>946.56</ele>
        <time>2020-08-11T11:44:22Z</time>
      </trkpt>
      <trkpt lat="42.0483653527" lon="-6.5781283379">
        <ele>948.48</ele>
        <time>2020-08-11T11:44:48Z</time>
      </trkpt>
      <trkpt lat="42.0483689569" lon="-6.5780963190">
        <ele>947.52</ele>
        <time>2020-08-11T11:45:09Z</time>
      </trkpt>
      <trkpt lat="42.0483664423" lon="-6.5780889429">
        <ele>945.59</ele>
        <time>2020-08-11T11:45:34Z</time>
      </trkpt>
      <trkpt lat="42.0483672805" lon="-6.5781164356">
        <ele>944.15</ele>
        <time>2020-08-11T11:46:07Z</time>
      </trkpt>
      <trkpt lat="42.0483752433" lon="-6.5780870151">
        <ele>942.71</ele>
        <time>2020-08-11T11:46:33Z</time>
      </trkpt>
      <trkpt lat="42.0483708009" lon="-6.5780765377">
        <ele>942.23</ele>
        <time>2020-08-11T11:46:55Z</time>
      </trkpt>
      <trkpt lat="42.0483577251" lon="-6.5781039465">
        <ele>945.59</ele>
        <time>2020-08-11T11:47:21Z</time>
      </trkpt>
      <trkpt lat="42.0483872294" lon="-6.5780840814">
        <ele>943.67</ele>
        <time>2020-08-11T11:47:42Z</time>
      </trkpt>
      <trkpt lat="42.0483668614" lon="-6.5780893620">
        <ele>942.71</ele>
        <time>2020-08-11T11:48:02Z</time>
      </trkpt>
      <trkpt lat="42.0483779255" lon="-6.5781046171">
        <ele>942.71</ele>
        <time>2020-08-11T11:48:22Z</time>
      </trkpt>
      <trkpt lat="42.0483676158" lon="-6.5780987497">
        <ele>946.56</ele>
        <time>2020-08-11T11:48:45Z</time>
      </trkpt>
      <trkpt lat="42.0483582281" lon="-6.5781192016">
        <ele>945.59</ele>
        <time>2020-08-11T11:49:10Z</time>
      </trkpt>
      <trkpt lat="42.0483511873" lon="-6.5781164356">
        <ele>947.04</ele>
        <time>2020-08-11T11:49:36Z</time>
      </trkpt>
      <trkpt lat="42.0483737346" lon="-6.5781069640">
        <ele>949.44</ele>
        <time>2020-08-11T11:50:02Z</time>
      </trkpt>
      <trkpt lat="42.0483699627" lon="-6.5781007614">
        <ele>948.96</ele>
        <time>2020-08-11T11:50:23Z</time>
      </trkpt>
      <trkpt lat="42.0483729802" lon="-6.5781162679">
        <ele>946.07</ele>
        <time>2020-08-11T11:50:37Z</time>
      </trkpt>
      <trkpt lat="42.0483820327" lon="-6.5781199560">
        <ele>938.86</ele>
        <time>2020-08-11T11:50:57Z</time>
      </trkpt>
      <trkpt lat="42.0483504329" lon="-6.5780990012">
        <ele>940.79</ele>
        <time>2020-08-11T11:51:17Z</time>
      </trkpt>
      <trkpt lat="42.0483519416" lon="-6.5781040303">
        <ele>938.38</ele>
        <time>2020-08-11T11:51:38Z</time>
      </trkpt>
      <trkpt lat="42.0483564679" lon="-6.5780922957">
        <ele>939.83</ele>
        <time>2020-08-11T11:52:03Z</time>
      </trkpt>
      <trkpt lat="42.0483677834" lon="-6.5781073831">
        <ele>939.35</ele>
        <time>2020-08-11T11:52:20Z</time>
      </trkpt>
      <trkpt lat="42.0483581442" lon="-6.5781043656">
        <ele>943.67</ele>
        <time>2020-08-11T11:52:43Z</time>
      </trkpt>
      <trkpt lat="42.0483698789" lon="-6.5780762862">
        <ele>945.11</ele>
        <time>2020-08-11T11:53:08Z</time>
      </trkpt>
      <trkpt lat="42.0483800210" lon="-6.5780680720">
        <ele>947.52</ele>
        <time>2020-08-11T11:53:36Z</time>
      </trkpt>
      <trkpt lat="42.0483787637" lon="-6.5780989174">
        <ele>945.59</ele>
        <time>2020-08-11T11:54:02Z</time>
      </trkpt>
      <trkpt lat="42.0483605750" lon="-6.5780924633">
        <ele>947.04</ele>
        <time>2020-08-11T11:54:30Z</time>
      </trkpt>
      <trkpt lat="42.0483495109" lon="-6.5780891944">
        <ele>948.96</ele>
        <time>2020-08-11T11:54:50Z</time>
      </trkpt>
      <trkpt lat="42.0483609941" lon="-6.5780803934">
        <ele>948.48</ele>
        <time>2020-08-11T11:55:06Z</time>
      </trkpt>
      <trkpt lat="42.0483736508" lon="-6.5780949779">
        <ele>946.56</ele>
        <time>2020-08-11T11:55:29Z</time>
      </trkpt>
      <trkpt lat="42.0483873133" lon="-6.5781043656">
        <ele>947.52</ele>
        <time>2020-08-11T11:55:53Z</time>
      </trkpt>
      <trkpt lat="42.0483589824" lon="-6.5781379770">
        <ele>945.59</ele>
        <time>2020-08-11T11:56:12Z</time>
      </trkpt>
      <trkpt lat="42.0483583119" lon="-6.5781094786">
        <ele>946.07</ele>
        <time>2020-08-11T11:56:35Z</time>
      </trkpt>
      <trkpt lat="42.0483557135" lon="-6.5780980792">
        <ele>945.11</ele>
        <time>2020-08-11T11:56:53Z</time>
      </trkpt>
      <trkpt lat="42.0483580604" lon="-6.5780748613">
        <ele>942.23</ele>
        <time>2020-08-11T11:57:08Z</time>
      </trkpt>
      <trkpt lat="42.0483582281" lon="-6.5780886915">
        <ele>941.75</ele>
        <time>2020-08-11T11:57:26Z</time>
      </trkpt>
      <trkpt lat="42.0483903307" lon="-6.5781038627">
        <ele>942.23</ele>
        <time>2020-08-11T11:57:44Z</time>
      </trkpt>
      <trkpt lat="42.0483684540" lon="-6.5780781303">
        <ele>941.27</ele>
        <time>2020-08-11T11:58:05Z</time>
      </trkpt>
      <trkpt lat="42.0483729802" lon="-6.5780817345">
        <ele>937.42</ele>
        <time>2020-08-11T11:58:26Z</time>
      </trkpt>
      <trkpt lat="42.0484007243" lon="-6.5780912060">
        <ele>940.79</ele>
        <time>2020-08-11T11:58:48Z</time>
      </trkpt>
      <trkpt lat="42.0483796857" lon="-6.5781063773">
        <ele>943.19</ele>
        <time>2020-08-11T11:59:15Z</time>
      </trkpt>
      <trkpt lat="42.0483753271" lon="-6.5781135019">
        <ele>944.63</ele>
        <time>2020-08-11T11:59:36Z</time>
      </trkpt>
      <trkpt lat="42.0483884029" lon="-6.5781218000">
        <ele>943.67</ele>
        <time>2020-08-11T11:59:55Z</time>
      </trkpt>
      <trkpt lat="42.0483970363" lon="-6.5781066287">
        <ele>945.59</ele>
        <time>2020-08-11T12:00:16Z</time>
      </trkpt>
      <trkpt lat="42.0483945217" lon="-6.5781138372">
        <ele>948.00</ele>
        <time>2020-08-11T12:00:32Z</time>
      </trkpt>
      <trkpt lat="42.0483859722" lon="-6.5780891106">
        <ele>944.63</ele>
        <time>2020-08-11T12:00:58Z</time>
      </trkpt>
      <trkpt lat="42.0483946893" lon="-6.5780946426">
        <ele>941.75</ele>
        <time>2020-08-11T12:01:20Z</time>
      </trkpt>
      <trkpt lat="42.0483803563" lon="-6.5780935530">
        <ele>944.15</ele>
        <time>2020-08-11T12:01:46Z</time>
      </trkpt>
      <trkpt lat="42.0483660232" lon="-6.5780972410">
        <ele>943.19</ele>
        <time>2020-08-11T12:02:07Z</time>
      </trkpt>
      <trkpt lat="42.0483627543" lon="-6.5781026054">
        <ele>945.11</ele>
        <time>2020-08-11T12:02:27Z</time>
      </trkpt>
      <trkpt lat="42.0483630057" lon="-6.5781018510">
        <ele>947.52</ele>
        <time>2020-08-11T12:02:47Z</time>
      </trkpt>
      <trkpt lat="42.0483703818" lon="-6.5781039465">
        <ele>948.96</ele>
        <time>2020-08-11T12:03:09Z</time>
      </trkpt>
      <trkpt lat="42.0483865589" lon="-6.5781312715">
        <ele>944.63</ele>
        <time>2020-08-11T12:03:36Z</time>
      </trkpt>
      <trkpt lat="42.0484044962" lon="-6.5781268291">
        <ele>946.56</ele>
        <time>2020-08-11T12:04:04Z</time>
      </trkpt>
      <trkpt lat="42.0483652689" lon="-6.5780725144">
        <ele>948.00</ele>
        <time>2020-08-11T12:04:29Z</time>
      </trkpt>
      <trkpt lat="42.0483799372" lon="-6.5780993365">
        <ele>944.63</ele>
        <time>2020-08-11T12:04:49Z</time>
      </trkpt>
      <trkpt lat="42.0483802725" lon="-6.5780656412">
        <ele>943.19</ele>
        <time>2020-08-11T12:05:15Z</time>
      </trkpt>
      <trkpt lat="42.0483898278" lon="-6.5780744422">
        <ele>944.15</ele>
        <time>2020-08-11T12:05:32Z</time>
      </trkpt>
      <trkpt lat="42.0483687893" lon="-6.5780838300">
        <ele>944.63</ele>
        <time>2020-08-11T12:05:53Z</time>
      </trkpt>
      <trkpt lat="42.0483671967" lon="-6.5781053714">
        <ele>947.52</ele>
        <time>2020-08-11T12:06:16Z</time>
      </trkpt>
      <trkpt lat="42.0483766682" lon="-6.5781147592">
        <ele>949.44</ele>
        <time>2020-08-11T12:06:43Z</time>
      </trkpt>
      <trkpt lat="42.0483724773" lon="-6.5781143401">
        <ele>944.63</ele>
        <time>2020-08-11T12:07:05Z</time>
      </trkpt>
      <trkpt lat="42.0483623352" lon="-6.5780967381">
        <ele>941.75</ele>
        <time>2020-08-11T12:07:39Z</time>
      </trkpt>
      <trkpt lat="42.0483571384" lon="-6.5780931339">
        <ele>944.15</ele>
        <time>2020-08-11T12:08:07Z</time>
      </trkpt>
      <trkpt lat="42.0483694598" lon="-6.5780715086">
        <ele>941.75</ele>
        <time>2020-08-11T12:08:33Z</time>
      </trkpt>
      <trkpt lat="42.0483545400" lon="-6.5780786332">
        <ele>942.71</ele>
        <time>2020-08-11T12:08:48Z</time>
      </trkpt>
      <trkpt lat="42.0483673643" lon="-6.5781137533">
        <ele>943.67</ele>
        <time>2020-08-11T12:09:03Z</time>
      </trkpt>
      <trkpt lat="42.0483775903" lon="-6.5780829079">
        <ele>948.00</ele>
        <time>2020-08-11T12:09:26Z</time>
      </trkpt>
      <trkpt lat="42.0483918395" lon="-6.5780956484">
        <ele>949.92</ele>
        <time>2020-08-11T12:09:45Z</time>
      </trkpt>
      <trkpt lat="42.0484034903" lon="-6.5780788008">
        <ele>948.96</ele>
        <time>2020-08-11T12:10:03Z</time>
      </trkpt>
      <trkpt lat="42.0484008081" lon="-6.5781163517">
        <ele>948.00</ele>
        <time>2020-08-11T12:10:21Z</time>
      </trkpt>
      <trkpt lat="42.0483992994" lon="-6.5781165194">
        <ele>946.07</ele>
        <time>2020-08-11T12:10:43Z</time>
      </trkpt>
      <trkpt lat="42.0483699627" lon="-6.5780735202">
        <ele>948.48</ele>
        <time>2020-08-11T12:11:01Z</time>
      </trkpt>
      <trkpt lat="42.0483637601" lon="-6.5780889429">
        <ele>948.96</ele>
        <time>2020-08-11T12:11:19Z</time>
      </trkpt>
      <trkpt lat="42.0483490918" lon="-6.5781068802">
        <ele>946.56</ele>
        <time>2020-08-11T12:11:35Z</time>
      </trkpt>
      <trkpt lat="42.0483771712" lon="-6.5781102329">
        <ele>947.04</ele>
        <time>2020-08-11T12:11:44Z</time>
      </trkpt>
      <trkpt lat="42.0484351739" lon="-6.5781273320">
        <ele>947.52</ele>
        <time>2020-08-11T12:11:52Z</time>
      </trkpt>
      <trkpt lat="42.0484464057" lon="-6.5781279188">
        <ele>948.00</ele>
        <time>2020-08-11T12:11:53Z</time>
      </trkpt>
      <trkpt lat="42.0484608226" lon="-6.5781274997">
        <ele>948.00</ele>
        <time>2020-08-11T12:11:54Z</time>
      </trkpt>
      <trkpt lat="42.0484909974" lon="-6.5781326126">
        <ele>948.48</ele>
        <time>2020-08-11T12:11:57Z</time>
      </trkpt>
      <trkpt lat="42.0485093538" lon="-6.5781261586">
        <ele>948.00</ele>
        <time>2020-08-11T12:12:03Z</time>
      </trkpt>
      <trkpt lat="42.0485464856" lon="-6.5781396534">
        <ele>947.52</ele>
        <time>2020-08-11T12:12:11Z</time>
      </trkpt>
      <trkpt lat="42.0486870501" lon="-6.5781409945">
        <ele>947.52</ele>
        <time>2020-08-11T12:12:18Z</time>
      </trkpt>
      <trkpt lat="42.0489183068" lon="-6.5781886037">
        <ele>948.00</ele>
        <time>2020-08-11T12:12:27Z</time>
      </trkpt>
      <trkpt lat="42.0490381680" lon="-6.5781148430">
        <ele>949.44</ele>
        <time>2020-08-11T12:12:33Z</time>
      </trkpt>
      <trkpt lat="42.0491914731" lon="-6.5780141763">
        <ele>952.32</ele>
        <time>2020-08-11T12:12:40Z</time>
      </trkpt>
      <trkpt lat="42.0492576063" lon="-6.5780163556">
        <ele>953.28</ele>
        <time>2020-08-11T12:12:43Z</time>
      </trkpt>
      <trkpt lat="42.0493313670" lon="-6.5780511405">
        <ele>954.25</ele>
        <time>2020-08-11T12:12:50Z</time>
      </trkpt>
      <trkpt lat="42.0493340492" lon="-6.5780742746">
        <ele>954.25</ele>
        <time>2020-08-11T12:12:51Z</time>
      </trkpt>
      <trkpt lat="42.0493387431" lon="-6.5781042818">
        <ele>954.73</ele>
        <time>2020-08-11T12:12:52Z</time>
      </trkpt>
      <trkpt lat="42.0493926387" lon="-6.5782677289">
        <ele>956.65</ele>
        <time>2020-08-11T12:12:58Z</time>
      </trkpt>
      <trkpt lat="42.0494012721" lon="-6.5782962274">
        <ele>956.17</ele>
        <time>2020-08-11T12:13:04Z</time>
      </trkpt>
      <trkpt lat="42.0493943151" lon="-6.5783000831">
        <ele>956.17</ele>
        <time>2020-08-11T12:13:15Z</time>
      </trkpt>
      <trkpt lat="42.0493924711" lon="-6.5783035196">
        <ele>956.17</ele>
        <time>2020-08-11T12:13:18Z</time>
      </trkpt>
      <trkpt lat="42.0493840054" lon="-6.5783086326">
        <ele>956.17</ele>
        <time>2020-08-11T12:13:19Z</time>
      </trkpt>
      <trkpt lat="42.0493729413" lon="-6.5782926232">
        <ele>955.69</ele>
        <time>2020-08-11T12:13:22Z</time>
      </trkpt>
      <trkpt lat="42.0493235718" lon="-6.5782373026">
        <ele>954.73</ele>
        <time>2020-08-11T12:13:27Z</time>
      </trkpt>
      <trkpt lat="42.0493016113" lon="-6.5782580897">
        <ele>954.73</ele>
        <time>2020-08-11T12:13:28Z</time>
      </trkpt>
      <trkpt lat="42.0492865238" lon="-6.5783010051">
        <ele>954.73</ele>
        <time>2020-08-11T12:13:29Z</time>
      </trkpt>
      <trkpt lat="42.0492812432" lon="-6.5783424955">
        <ele>954.73</ele>
        <time>2020-08-11T12:13:30Z</time>
      </trkpt>
      <trkpt lat="42.0492755435" lon="-6.5783790406">
        <ele>954.25</ele>
        <time>2020-08-11T12:13:31Z</time>
      </trkpt>
      <trkpt lat="42.0492677484" lon="-6.5784269013">
        <ele>954.25</ele>
        <time>2020-08-11T12:13:32Z</time>
      </trkpt>
      <trkpt lat="42.0491991006" lon="-6.5789075196">
        <ele>951.84</ele>
        <time>2020-08-11T12:13:40Z</time>
      </trkpt>
      <trkpt lat="42.0490983501" lon="-6.5795844421">
        <ele>948.96</ele>
        <time>2020-08-11T12:13:48Z</time>
      </trkpt>
      <trkpt lat="42.0489411894" lon="-6.5806439146">
        <ele>946.07</ele>
        <time>2020-08-11T12:13:59Z</time>
      </trkpt>
      <trkpt lat="42.0488264412" lon="-6.5814084280">
        <ele>945.11</ele>
        <time>2020-08-11T12:14:08Z</time>
      </trkpt>
      <trkpt lat="42.0487212483" lon="-6.5820899606">
        <ele>944.63</ele>
        <time>2020-08-11T12:14:17Z</time>
      </trkpt>
      <trkpt lat="42.0486297179" lon="-6.5827128198">
        <ele>944.15</ele>
        <time>2020-08-11T12:14:26Z</time>
      </trkpt>
      <trkpt lat="42.0485186577" lon="-6.5834138822">
        <ele>945.11</ele>
        <time>2020-08-11T12:14:37Z</time>
      </trkpt>
      <trkpt lat="42.0484162308" lon="-6.5840969235">
        <ele>944.63</ele>
        <time>2020-08-11T12:14:48Z</time>
      </trkpt>
      <trkpt lat="42.0483373571" lon="-6.5846661385">
        <ele>943.19</ele>
        <time>2020-08-11T12:14:56Z</time>
      </trkpt>
      <trkpt lat="42.0482552145" lon="-6.5854352619">
        <ele>941.75</ele>
        <time>2020-08-11T12:15:05Z</time>
      </trkpt>
      <trkpt lat="42.0482553821" lon="-6.5862948261">
        <ele>938.86</ele>
        <time>2020-08-11T12:15:13Z</time>
      </trkpt>
      <trkpt lat="42.0483814459" lon="-6.5873188432">
        <ele>934.54</ele>
        <time>2020-08-11T12:15:22Z</time>
      </trkpt>
      <trkpt lat="42.0486500021" lon="-6.5882805828">
        <ele>930.69</ele>
        <time>2020-08-11T12:15:30Z</time>
      </trkpt>
      <trkpt lat="42.0490921475" lon="-6.5895389579">
        <ele>925.89</ele>
        <time>2020-08-11T12:15:40Z</time>
      </trkpt>
      <trkpt lat="42.0495902002" lon="-6.5909349639">
        <ele>921.56</ele>
        <time>2020-08-11T12:15:51Z</time>
      </trkpt>
      <trkpt lat="42.0499421563" lon="-6.5919156466">
        <ele>920.60</ele>
        <time>2020-08-11T12:16:00Z</time>
      </trkpt>
      <trkpt lat="42.0501799509" lon="-6.5925105941">
        <ele>920.60</ele>
        <time>2020-08-11T12:16:07Z</time>
      </trkpt>
      <trkpt lat="42.0503567252" lon="-6.5929150209">
        <ele>922.04</ele>
        <time>2020-08-11T12:16:14Z</time>
      </trkpt>
      <trkpt lat="42.0505794324" lon="-6.5933918674">
        <ele>923.48</ele>
        <time>2020-08-11T12:16:24Z</time>
      </trkpt>
      <trkpt lat="42.0507524349" lon="-6.5937457513">
        <ele>925.41</ele>
        <time>2020-08-11T12:16:33Z</time>
      </trkpt>
      <trkpt lat="42.0509123616" lon="-6.5940452367">
        <ele>926.85</ele>
        <time>2020-08-11T12:16:42Z</time>
      </trkpt>
      <trkpt lat="42.0511106774" lon="-6.5944061615">
        <ele>928.29</ele>
        <time>2020-08-11T12:16:53Z</time>
      </trkpt>
      <trkpt lat="42.0513067301" lon="-6.5947504900">
        <ele>929.73</ele>
        <time>2020-08-11T12:17:04Z</time>
      </trkpt>
      <trkpt lat="42.0514826663" lon="-6.5950560942">
        <ele>930.21</ele>
        <time>2020-08-11T12:17:14Z</time>
      </trkpt>
      <trkpt lat="42.0516596083" lon="-6.5953378938">
        <ele>931.65</ele>
        <time>2020-08-11T12:17:24Z</time>
      </trkpt>
      <trkpt lat="42.0517975744" lon="-6.5955495369">
        <ele>932.14</ele>
        <time>2020-08-11T12:17:32Z</time>
      </trkpt>
      <trkpt lat="42.0519647095" lon="-6.5958087053">
        <ele>932.62</ele>
        <time>2020-08-11T12:17:42Z</time>
      </trkpt>
      <trkpt lat="42.0521540567" lon="-6.5960853081">
        <ele>934.54</ele>
        <time>2020-08-11T12:17:53Z</time>
      </trkpt>
      <trkpt lat="42.0523219462" lon="-6.5963399503">
        <ele>936.46</ele>
        <time>2020-08-11T12:18:03Z</time>
      </trkpt>
      <trkpt lat="42.0525060128" lon="-6.5966250189">
        <ele>936.94</ele>
        <time>2020-08-11T12:18:14Z</time>
      </trkpt>
      <trkpt lat="42.0526451524" lon="-6.5968347341">
        <ele>937.90</ele>
        <time>2020-08-11T12:18:23Z</time>
      </trkpt>
      <trkpt lat="42.0528197475" lon="-6.5971072298">
        <ele>938.38</ele>
        <time>2020-08-11T12:18:34Z</time>
      </trkpt>
      <trkpt lat="42.0529377647" lon="-6.5973041207">
        <ele>939.35</ele>
        <time>2020-08-11T12:18:42Z</time>
      </trkpt>
      <trkpt lat="42.0531006251" lon="-6.5975981578">
        <ele>941.27</ele>
        <time>2020-08-11T12:18:53Z</time>
      </trkpt>
      <trkpt lat="42.0532400161" lon="-6.5978951287">
        <ele>941.75</ele>
        <time>2020-08-11T12:19:03Z</time>
      </trkpt>
      <trkpt lat="42.0533667505" lon="-6.5982093662">
        <ele>943.19</ele>
        <time>2020-08-11T12:19:14Z</time>
      </trkpt>
      <trkpt lat="42.0534805767" lon="-6.5985132940">
        <ele>944.15</ele>
        <time>2020-08-11T12:19:24Z</time>
      </trkpt>
      <trkpt lat="42.0535913017" lon="-6.5989045613">
        <ele>945.59</ele>
        <time>2020-08-11T12:19:36Z</time>
      </trkpt>
      <trkpt lat="42.0536798984" lon="-6.5992744546">
        <ele>946.56</ele>
        <time>2020-08-11T12:19:47Z</time>
      </trkpt>
      <trkpt lat="42.0537569281" lon="-6.5996325295">
        <ele>948.00</ele>
        <time>2020-08-11T12:19:58Z</time>
      </trkpt>
      <trkpt lat="42.0538375620" lon="-6.6000018362">
        <ele>948.48</ele>
        <time>2020-08-11T12:20:09Z</time>
      </trkpt>
      <trkpt lat="42.0539169386" lon="-6.6003722325">
        <ele>949.44</ele>
        <time>2020-08-11T12:20:20Z</time>
      </trkpt>
      <trkpt lat="42.0539756119" lon="-6.6006876435">
        <ele>950.40</ele>
        <time>2020-08-11T12:20:30Z</time>
      </trkpt>
      <trkpt lat="42.0540303458" lon="-6.6010124423">
        <ele>950.40</ele>
        <time>2020-08-11T12:20:40Z</time>
      </trkpt>
      <trkpt lat="42.0540764462" lon="-6.6013407614">
        <ele>949.44</ele>
        <time>2020-08-11T12:20:50Z</time>
      </trkpt>
      <trkpt lat="42.0541309286" lon="-6.6017509717">
        <ele>948.96</ele>
        <time>2020-08-11T12:21:03Z</time>
      </trkpt>
      <trkpt lat="42.0541800465" lon="-6.6021053586">
        <ele>950.40</ele>
        <time>2020-08-11T12:21:14Z</time>
      </trkpt>
      <trkpt lat="42.0542271528" lon="-6.6025093663">
        <ele>951.84</ele>
        <time>2020-08-11T12:21:26Z</time>
      </trkpt>
      <trkpt lat="42.0542760193" lon="-6.6028472409">
        <ele>951.84</ele>
        <time>2020-08-11T12:21:36Z</time>
      </trkpt>
      <trkpt lat="42.0543205272" lon="-6.6032055672">
        <ele>951.84</ele>
        <time>2020-08-11T12:21:46Z</time>
      </trkpt>
      <trkpt lat="42.0543556474" lon="-6.6035187151">
        <ele>952.80</ele>
        <time>2020-08-11T12:21:55Z</time>
      </trkpt>
      <trkpt lat="42.0544014964" lon="-6.6038977448">
        <ele>954.73</ele>
        <time>2020-08-11T12:22:06Z</time>
      </trkpt>
      <trkpt lat="42.0544461720" lon="-6.6042319313">
        <ele>956.17</ele>
        <time>2020-08-11T12:22:16Z</time>
      </trkpt>
      <trkpt lat="42.0545050967" lon="-6.6046673711">
        <ele>957.61</ele>
        <time>2020-08-11T12:22:29Z</time>
      </trkpt>
      <trkpt lat="42.0545573160" lon="-6.6050530225">
        <ele>958.09</ele>
        <time>2020-08-11T12:22:40Z</time>
      </trkpt>
      <trkpt lat="42.0546016563" lon="-6.6053680982">
        <ele>958.57</ele>
        <time>2020-08-11T12:22:49Z</time>
      </trkpt>
      <trkpt lat="42.0546541270" lon="-6.6057646461">
        <ele>959.05</ele>
        <time>2020-08-11T12:23:00Z</time>
      </trkpt>
      <trkpt lat="42.0547022391" lon="-6.6060880199">
        <ele>959.05</ele>
        <time>2020-08-11T12:23:09Z</time>
      </trkpt>
      <trkpt lat="42.0547588170" lon="-6.6064766049">
        <ele>959.05</ele>
        <time>2020-08-11T12:23:19Z</time>
      </trkpt>
      <trkpt lat="42.0548404567" lon="-6.6070003901">
        <ele>960.49</ele>
        <time>2020-08-11T12:23:31Z</time>
      </trkpt>
      <trkpt lat="42.0549405366" lon="-6.6074380092">
        <ele>960.98</ele>
        <time>2020-08-11T12:23:40Z</time>
      </trkpt>
      <trkpt lat="42.0550689474" lon="-6.6079324577">
        <ele>960.01</ele>
        <time>2020-08-11T12:23:49Z</time>
      </trkpt>
      <trkpt lat="42.0552671794" lon="-6.6085888445">
        <ele>958.57</ele>
        <time>2020-08-11T12:23:59Z</time>
      </trkpt>
      <trkpt lat="42.0555193070" lon="-6.6092873085">
        <ele>956.17</ele>
        <time>2020-08-11T12:24:08Z</time>
      </trkpt>
      <trkpt lat="42.0558601990" lon="-6.6101101600">
        <ele>953.77</ele>
        <time>2020-08-11T12:24:18Z</time>
      </trkpt>
      <trkpt lat="42.0561746042" lon="-6.6108507849">
        <ele>951.36</ele>
        <time>2020-08-11T12:24:28Z</time>
      </trkpt>
      <trkpt lat="42.0564095490" lon="-6.6113660205">
        <ele>949.44</ele>
        <time>2020-08-11T12:24:36Z</time>
      </trkpt>
      <trkpt lat="42.0566605031" lon="-6.6120395064">
        <ele>947.04</ele>
        <time>2020-08-11T12:24:46Z</time>
      </trkpt>
      <trkpt lat="42.0568804443" lon="-6.6127429157">
        <ele>944.15</ele>
        <time>2020-08-11T12:24:55Z</time>
      </trkpt>
      <trkpt lat="42.0570930094" lon="-6.6136310622">
        <ele>940.31</ele>
        <time>2020-08-11T12:25:05Z</time>
      </trkpt>
      <trkpt lat="42.0572276227" lon="-6.6145960707">
        <ele>937.42</ele>
        <time>2020-08-11T12:25:16Z</time>
      </trkpt>
      <trkpt lat="42.0573279541" lon="-6.6155601572">
        <ele>934.54</ele>
        <time>2020-08-11T12:25:26Z</time>
      </trkpt>
      <trkpt lat="42.0574254356" lon="-6.6165527422">
        <ele>931.65</ele>
        <time>2020-08-11T12:25:36Z</time>
      </trkpt>
      <trkpt lat="42.0575291198" lon="-6.6176640149">
        <ele>928.29</ele>
        <time>2020-08-11T12:25:46Z</time>
      </trkpt>
      <trkpt lat="42.0577076543" lon="-6.6189538222">
        <ele>924.93</ele>
        <time>2020-08-11T12:25:57Z</time>
      </trkpt>
      <trkpt lat="42.0578548405" lon="-6.6195084527">
        <ele>923.48</ele>
        <time>2020-08-11T12:26:02Z</time>
      </trkpt>
      <trkpt lat="42.0578978397" lon="-6.6195863206">
        <ele>923.48</ele>
        <time>2020-08-11T12:26:03Z</time>
      </trkpt>
      <trkpt lat="42.0579527412" lon="-6.6196575668">
        <ele>923.48</ele>
        <time>2020-08-11T12:26:04Z</time>
      </trkpt>
      <trkpt lat="42.0582058746" lon="-6.6199198365">
        <ele>923.00</ele>
        <time>2020-08-11T12:26:08Z</time>
      </trkpt>
      <trkpt lat="42.0582608599" lon="-6.6200079303">
        <ele>923.00</ele>
        <time>2020-08-11T12:26:09Z</time>
      </trkpt>
      <trkpt lat="42.0582976565" lon="-6.6200920008">
        <ele>923.00</ele>
        <time>2020-08-11T12:26:10Z</time>
      </trkpt>
      <trkpt lat="42.0583217964" lon="-6.6201707069">
        <ele>923.00</ele>
        <time>2020-08-11T12:26:11Z</time>
      </trkpt>
      <trkpt lat="42.0583383087" lon="-6.6202642489">
        <ele>923.00</ele>
        <time>2020-08-11T12:26:12Z</time>
      </trkpt>
      <trkpt lat="42.0583390631" lon="-6.6203623172">
        <ele>923.00</ele>
        <time>2020-08-11T12:26:13Z</time>
      </trkpt>
      <trkpt lat="42.0583270770" lon="-6.6204565298">
        <ele>922.52</ele>
        <time>2020-08-11T12:26:14Z</time>
      </trkpt>
      <trkpt lat="42.0583057869" lon="-6.6205408517">
        <ele>922.52</ele>
        <time>2020-08-11T12:26:15Z</time>
      </trkpt>
      <trkpt lat="42.0582741033" lon="-6.6206187196">
        <ele>922.04</ele>
        <time>2020-08-11T12:26:16Z</time>
      </trkpt>
      <trkpt lat="42.0582319424" lon="-6.6206920613">
        <ele>922.04</ele>
        <time>2020-08-11T12:26:17Z</time>
      </trkpt>
      <trkpt lat="42.0581831597" lon="-6.6207559314">
        <ele>921.56</ele>
        <time>2020-08-11T12:26:18Z</time>
      </trkpt>
      <trkpt lat="42.0581290126" lon="-6.6208086535">
        <ele>921.56</ele>
        <time>2020-08-11T12:26:19Z</time>
      </trkpt>
      <trkpt lat="42.0580638852" lon="-6.6208492219">
        <ele>921.08</ele>
        <time>2020-08-11T12:26:20Z</time>
      </trkpt>
      <trkpt lat="42.0580024458" lon="-6.6208731942">
        <ele>921.08</ele>
        <time>2020-08-11T12:26:21Z</time>
      </trkpt>
      <trkpt lat="42.0579343848" lon="-6.6208873596">
        <ele>921.08</ele>
        <time>2020-08-11T12:26:22Z</time>
      </trkpt>
      <trkpt lat="42.0578650665" lon="-6.6208897904">
        <ele>921.08</ele>
        <time>2020-08-11T12:26:23Z</time>
      </trkpt>
      <trkpt lat="42.0578115899" lon="-6.6208771337">
        <ele>921.08</ele>
        <time>2020-08-11T12:26:24Z</time>
      </trkpt>
      <trkpt lat="42.0577529166" lon="-6.6208519042">
        <ele>921.08</ele>
        <time>2020-08-11T12:26:25Z</time>
      </trkpt>
      <trkpt lat="42.0576957520" lon="-6.6208169516">
        <ele>921.08</ele>
        <time>2020-08-11T12:26:26Z</time>
      </trkpt>
      <trkpt lat="42.0576532558" lon="-6.6207798198">
        <ele>921.08</ele>
        <time>2020-08-11T12:26:27Z</time>
      </trkpt>
      <trkpt lat="42.0576198120" lon="-6.6207432747">
        <ele>921.08</ele>
        <time>2020-08-11T12:26:28Z</time>
      </trkpt>
      <trkpt lat="42.0575840212" lon="-6.6207025386">
        <ele>921.56</ele>
        <time>2020-08-11T12:26:29Z</time>
      </trkpt>
      <trkpt lat="42.0575425308" lon="-6.6206633113">
        <ele>921.56</ele>
        <time>2020-08-11T12:26:30Z</time>
      </trkpt>
      <trkpt lat="42.0575039741" lon="-6.6206337232">
        <ele>921.56</ele>
        <time>2020-08-11T12:26:31Z</time>
      </trkpt>
      <trkpt lat="42.0574565325" lon="-6.6206099186">
        <ele>921.56</ele>
        <time>2020-08-11T12:26:32Z</time>
      </trkpt>
      <trkpt lat="42.0574113540" lon="-6.6205971781">
        <ele>921.56</ele>
        <time>2020-08-11T12:26:33Z</time>
      </trkpt>
      <trkpt lat="42.0573630743" lon="-6.6205907241">
        <ele>921.56</ele>
        <time>2020-08-11T12:26:34Z</time>
      </trkpt>
      <trkpt lat="42.0573121123" lon="-6.6205940768">
        <ele>921.56</ele>
        <time>2020-08-11T12:26:35Z</time>
      </trkpt>
      <trkpt lat="42.0572608989" lon="-6.6206098348">
        <ele>921.08</ele>
        <time>2020-08-11T12:26:36Z</time>
      </trkpt>
      <trkpt lat="42.0572070871" lon="-6.6206382494">
        <ele>920.60</ele>
        <time>2020-08-11T12:26:37Z</time>
      </trkpt>
      <trkpt lat="42.0571640879" lon="-6.6206711903">
        <ele>920.60</ele>
        <time>2020-08-11T12:26:38Z</time>
      </trkpt>
      <trkpt lat="42.0571158919" lon="-6.6207159497">
        <ele>920.12</ele>
        <time>2020-08-11T12:26:39Z</time>
      </trkpt>
      <trkpt lat="42.0570702944" lon="-6.6207633074">
        <ele>920.12</ele>
        <time>2020-08-11T12:26:40Z</time>
      </trkpt>
      <trkpt lat="42.0570277143" lon="-6.6208153591">
        <ele>919.64</ele>
        <time>2020-08-11T12:26:41Z</time>
      </trkpt>
      <trkpt lat="42.0569858886" lon="-6.6208760440">
        <ele>919.64</ele>
        <time>2020-08-11T12:26:42Z</time>
      </trkpt>
      <trkpt lat="42.0566124748" lon="-6.6214328539">
        <ele>917.24</ele>
        <time>2020-08-11T12:26:50Z</time>
      </trkpt>
      <trkpt lat="42.0561315212" lon="-6.6221513506">
        <ele>913.39</ele>
        <time>2020-08-11T12:27:00Z</time>
      </trkpt>
      <trkpt lat="42.0556456223" lon="-6.6228757985">
        <ele>910.99</ele>
        <time>2020-08-11T12:27:11Z</time>
      </trkpt>
      <trkpt lat="42.0553533453" lon="-6.6234082170">
        <ele>910.99</ele>
        <time>2020-08-11T12:27:20Z</time>
      </trkpt>
      <trkpt lat="42.0551215857" lon="-6.6238983907">
        <ele>913.39</ele>
        <time>2020-08-11T12:27:30Z</time>
      </trkpt>
      <trkpt lat="42.0549115352" lon="-6.6243468225">
        <ele>915.79</ele>
        <time>2020-08-11T12:27:41Z</time>
      </trkpt>
      <trkpt lat="42.0547305699" lon="-6.6247979365">
        <ele>917.72</ele>
        <time>2020-08-11T12:27:53Z</time>
      </trkpt>
      <trkpt lat="42.0546387881" lon="-6.6250361502">
        <ele>919.16</ele>
        <time>2020-08-11T12:28:01Z</time>
      </trkpt>
      <trkpt lat="42.0546242874" lon="-6.6250779759">
        <ele>919.64</ele>
        <time>2020-08-11T12:28:08Z</time>
      </trkpt>
      <trkpt lat="42.0546069369" lon="-6.6251030378">
        <ele>920.12</ele>
        <time>2020-08-11T12:28:20Z</time>
      </trkpt>
      <trkpt lat="42.0545998123" lon="-6.6251312010">
        <ele>919.16</ele>
        <time>2020-08-11T12:28:29Z</time>
      </trkpt>
      <trkpt lat="42.0545993093" lon="-6.6251358949">
        <ele>918.68</ele>
        <time>2020-08-11T12:28:46Z</time>
      </trkpt>
      <trkpt lat="42.0545854792" lon="-6.6251845099">
        <ele>919.64</ele>
        <time>2020-08-11T12:28:56Z</time>
      </trkpt>
      <trkpt lat="42.0545705594" lon="-6.6252477095">
        <ele>921.08</ele>
        <time>2020-08-11T12:29:05Z</time>
      </trkpt>
      <trkpt lat="42.0545698889" lon="-6.6252524871">
        <ele>921.08</ele>
        <time>2020-08-11T12:29:17Z</time>
      </trkpt>
      <trkpt lat="42.0545528736" lon="-6.6252992582">
        <ele>921.08</ele>
        <time>2020-08-11T12:29:27Z</time>
      </trkpt>
      <trkpt lat="42.0545490179" lon="-6.6253223084">
        <ele>921.08</ele>
        <time>2020-08-11T12:29:28Z</time>
      </trkpt>
      <trkpt lat="42.0545702241" lon="-6.6255000047">
        <ele>923.00</ele>
        <time>2020-08-11T12:29:36Z</time>
      </trkpt>
      <trkpt lat="42.0545649435" lon="-6.6255117394">
        <ele>922.52</ele>
        <time>2020-08-11T12:29:37Z</time>
      </trkpt>
      <trkpt lat="42.0545498561" lon="-6.6255243123">
        <ele>922.52</ele>
        <time>2020-08-11T12:29:38Z</time>
      </trkpt>
      <trkpt lat="42.0545313321" lon="-6.6255318560">
        <ele>922.52</ele>
        <time>2020-08-11T12:29:39Z</time>
      </trkpt>
      <trkpt lat="42.0545042586" lon="-6.6255459376">
        <ele>922.04</ele>
        <time>2020-08-11T12:29:40Z</time>
      </trkpt>
      <trkpt lat="42.0544760115" lon="-6.6255731788">
        <ele>922.04</ele>
        <time>2020-08-11T12:29:41Z</time>
      </trkpt>
      <trkpt lat="42.0544600021" lon="-6.6256047785">
        <ele>922.52</ele>
        <time>2020-08-11T12:29:42Z</time>
      </trkpt>
      <trkpt lat="42.0544544701" lon="-6.6256396472">
        <ele>922.52</ele>
        <time>2020-08-11T12:29:43Z</time>
      </trkpt>
      <trkpt lat="42.0544534642" lon="-6.6256709117">
        <ele>923.00</ele>
        <time>2020-08-11T12:29:44Z</time>
      </trkpt>
      <trkpt lat="42.0544499438" lon="-6.6256996617">
        <ele>923.00</ele>
        <time>2020-08-11T12:29:45Z</time>
      </trkpt>
      <trkpt lat="42.0544454176" lon="-6.6257292498">
        <ele>923.48</ele>
        <time>2020-08-11T12:29:46Z</time>
      </trkpt>
      <trkpt lat="42.0543894265" lon="-6.6259869095">
        <ele>924.93</ele>
        <time>2020-08-11T12:29:54Z</time>
      </trkpt>
      <trkpt lat="42.0543489419" lon="-6.6262086947">
        <ele>924.93</ele>
        <time>2020-08-11T12:30:01Z</time>
      </trkpt>
      <trkpt lat="42.0543682203" lon="-6.6265282128">
        <ele>925.41</ele>
        <time>2020-08-11T12:30:10Z</time>
      </trkpt>
      <trkpt lat="42.0544076152" lon="-6.6268887185">
        <ele>923.00</ele>
        <time>2020-08-11T12:30:19Z</time>
      </trkpt>
      <trkpt lat="42.0544390474" lon="-6.6272242460">
        <ele>923.48</ele>
        <time>2020-08-11T12:30:28Z</time>
      </trkpt>
      <trkpt lat="42.0544856507" lon="-6.6274566762">
        <ele>924.45</ele>
        <time>2020-08-11T12:30:35Z</time>
      </trkpt>
      <trkpt lat="42.0545122214" lon="-6.6276295111">
        <ele>924.93</ele>
        <time>2020-08-11T12:30:42Z</time>
      </trkpt>
      <trkpt lat="42.0544646960" lon="-6.6276961472">
        <ele>924.93</ele>
        <time>2020-08-11T12:30:47Z</time>
      </trkpt>
      <trkpt lat="42.0542383846" lon="-6.6275736038">
        <ele>924.93</ele>
        <time>2020-08-11T12:30:57Z</time>
      </trkpt>
      <trkpt lat="42.0540678967" lon="-6.6275952291">
        <ele>924.93</ele>
        <time>2020-08-11T12:31:04Z</time>
      </trkpt>
      <trkpt lat="42.0540561620" lon="-6.6276127473">
        <ele>924.93</ele>
        <time>2020-08-11T12:31:05Z</time>
      </trkpt>
      <trkpt lat="42.0540699083" lon="-6.6277589276">
        <ele>923.96</ele>
        <time>2020-08-11T12:31:11Z</time>
      </trkpt>
      <trkpt lat="42.0540742669" lon="-6.6278377175">
        <ele>923.96</ele>
        <time>2020-08-11T12:31:18Z</time>
      </trkpt>
      <trkpt lat="42.0540704112" lon="-6.6278523859">
        <ele>924.45</ele>
        <time>2020-08-11T12:31:34Z</time>
      </trkpt>
      <trkpt lat="42.0540809724" lon="-6.6278260667">
        <ele>926.37</ele>
        <time>2020-08-11T12:31:50Z</time>
      </trkpt>
      <trkpt lat="42.0540792961" lon="-6.6278345324">
        <ele>928.77</ele>
        <time>2020-08-11T12:32:04Z</time>
      </trkpt>
      <trkpt lat="42.0540773682" lon="-6.6278325208">
        <ele>928.29</ele>
        <time>2020-08-11T12:32:24Z</time>
      </trkpt>
      <trkpt lat="42.0540736802" lon="-6.6278488655">
        <ele>927.81</ele>
        <time>2020-08-11T12:32:41Z</time>
      </trkpt>
      <trkpt lat="42.0540730096" lon="-6.6278361250">
        <ele>928.77</ele>
        <time>2020-08-11T12:32:55Z</time>
      </trkpt>
      <trkpt lat="42.0540633705" lon="-6.6278555710">
        <ele>928.77</ele>
        <time>2020-08-11T12:33:07Z</time>
      </trkpt>
      <trkpt lat="42.0540693216" lon="-6.6278584208">
        <ele>929.25</ele>
        <time>2020-08-11T12:33:22Z</time>
      </trkpt>
      <trkpt lat="42.0540813077" lon="-6.6278552357">
        <ele>928.29</ele>
        <time>2020-08-11T12:33:39Z</time>
      </trkpt>
      <trkpt lat="42.0540738478" lon="-6.6278630309">
        <ele>927.81</ele>
        <time>2020-08-11T12:33:55Z</time>
      </trkpt>
      <trkpt lat="42.0541110635" lon="-6.6279144119">
        <ele>927.33</ele>
        <time>2020-08-11T12:34:03Z</time>
      </trkpt>
      <trkpt lat="42.0541391429" lon="-6.6279551480">
        <ele>928.77</ele>
        <time>2020-08-11T12:34:05Z</time>
      </trkpt>
      <trkpt lat="42.0542299189" lon="-6.6281414777">
        <ele>930.69</ele>
        <time>2020-08-11T12:34:13Z</time>
      </trkpt>
      <trkpt lat="42.0543277357" lon="-6.6284048371">
        <ele>929.25</ele>
        <time>2020-08-11T12:34:22Z</time>
      </trkpt>
      <trkpt lat="42.0544521231" lon="-6.6285909154">
        <ele>927.81</ele>
        <time>2020-08-11T12:34:28Z</time>
      </trkpt>
      <trkpt lat="42.0545599144" lon="-6.6287927516">
        <ele>926.85</ele>
        <time>2020-08-11T12:34:37Z</time>
      </trkpt>
      <trkpt lat="42.0546297356" lon="-6.6288503353">
        <ele>926.85</ele>
        <time>2020-08-11T12:34:41Z</time>
      </trkpt>
      <trkpt lat="42.0547054242" lon="-6.6287460644">
        <ele>926.85</ele>
        <time>2020-08-11T12:34:47Z</time>
      </trkpt>
      <trkpt lat="42.0547709707" lon="-6.6286542825">
        <ele>927.33</ele>
        <time>2020-08-11T12:34:52Z</time>
      </trkpt>
      <trkpt lat="42.0548017323" lon="-6.6286003031">
        <ele>927.81</ele>
        <time>2020-08-11T12:34:55Z</time>
      </trkpt>
      <trkpt lat="42.0548511017" lon="-6.6285853833">
        <ele>925.89</ele>
        <time>2020-08-11T12:35:03Z</time>
      </trkpt>
      <trkpt lat="42.0549944323" lon="-6.6285480000">
        <ele>924.93</ele>
        <time>2020-08-11T12:35:10Z</time>
      </trkpt>
      <trkpt lat="42.0551132038" lon="-6.6285003070">
        <ele>926.37</ele>
        <time>2020-08-11T12:35:16Z</time>
      </trkpt>
      <trkpt lat="42.0552599709" lon="-6.6284554638">
        <ele>928.29</ele>
        <time>2020-08-11T12:35:23Z</time>
      </trkpt>
      <trkpt lat="42.0554545987" lon="-6.6284614988">
        <ele>929.73</ele>
        <time>2020-08-11T12:35:30Z</time>
      </trkpt>
      <trkpt lat="42.0556462090" lon="-6.6283642687">
        <ele>929.25</ele>
        <time>2020-08-11T12:35:37Z</time>
      </trkpt>
      <trkpt lat="42.0558194630" lon="-6.6281890869">
        <ele>928.77</ele>
        <time>2020-08-11T12:35:45Z</time>
      </trkpt>
      <trkpt lat="42.0558857638" lon="-6.6280273162">
        <ele>929.73</ele>
        <time>2020-08-11T12:35:52Z</time>
      </trkpt>
      <trkpt lat="42.0557830017" lon="-6.6277998313">
        <ele>931.17</ele>
        <time>2020-08-11T12:36:00Z</time>
      </trkpt>
      <trkpt lat="42.0556452032" lon="-6.6275491286">
        <ele>933.10</ele>
        <time>2020-08-11T12:36:10Z</time>
      </trkpt>
      <trkpt lat="42.0556364860" lon="-6.6275277548">
        <ele>933.58</ele>
        <time>2020-08-11T12:36:16Z</time>
      </trkpt>
      <trkpt lat="42.0556269307" lon="-6.6274707578">
        <ele>933.58</ele>
        <time>2020-08-11T12:36:23Z</time>
      </trkpt>
      <trkpt lat="42.0556001086" lon="-6.6274504736">
        <ele>933.10</ele>
        <time>2020-08-11T12:36:29Z</time>
      </trkpt>
      <trkpt lat="42.0556094125" lon="-6.6274419241">
        <ele>931.65</ele>
        <time>2020-08-11T12:36:48Z</time>
      </trkpt>
      <trkpt lat="42.0556043833" lon="-6.6274569277">
        <ele>933.10</ele>
        <time>2020-08-11T12:37:03Z</time>
      </trkpt>
      <trkpt lat="42.0556167047" lon="-6.6274374817">
        <ele>933.10</ele>
        <time>2020-08-11T12:37:23Z</time>
      </trkpt>
      <trkpt lat="42.0556198899" lon="-6.6274367273">
        <ele>933.58</ele>
        <time>2020-08-11T12:37:38Z</time>
      </trkpt>
      <trkpt lat="42.0556146931" lon="-6.6274381522">
        <ele>933.10</ele>
        <time>2020-08-11T12:37:49Z</time>
      </trkpt>
      <trkpt lat="42.0556061435" lon="-6.6274300218">
        <ele>932.14</ele>
        <time>2020-08-11T12:38:08Z</time>
      </trkpt>
      <trkpt lat="42.0556113403" lon="-6.6274156887">
        <ele>931.65</ele>
        <time>2020-08-11T12:38:26Z</time>
      </trkpt>
      <trkpt lat="42.0555982646" lon="-6.6274290159">
        <ele>930.69</ele>
        <time>2020-08-11T12:38:39Z</time>
      </trkpt>
      <trkpt lat="42.0555899665" lon="-6.6274165269">
        <ele>930.69</ele>
        <time>2020-08-11T12:38:52Z</time>
      </trkpt>
      <trkpt lat="42.0555932354" lon="-6.6274258308">
        <ele>930.69</ele>
        <time>2020-08-11T12:39:05Z</time>
      </trkpt>
      <trkpt lat="42.0555632282" lon="-6.6274448577">
        <ele>930.21</ele>
        <time>2020-08-11T12:39:19Z</time>
      </trkpt>
      <trkpt lat="42.0555510744" lon="-6.6274498869">
        <ele>928.77</ele>
        <time>2020-08-11T12:39:30Z</time>
      </trkpt>
      <trkpt lat="42.0555616356" lon="-6.6274306085">
        <ele>926.85</ele>
        <time>2020-08-11T12:39:48Z</time>
      </trkpt>
      <trkpt lat="42.0555560198" lon="-6.6274397448">
        <ele>926.37</ele>
        <time>2020-08-11T12:39:59Z</time>
      </trkpt>
      <trkpt lat="42.0555451233" lon="-6.6274555027">
        <ele>927.33</ele>
        <time>2020-08-11T12:40:13Z</time>
      </trkpt>
      <trkpt lat="42.0555319637" lon="-6.6274570115">
        <ele>927.81</ele>
        <time>2020-08-11T12:40:30Z</time>
      </trkpt>
      <trkpt lat="42.0555414353" lon="-6.6274467856">
        <ele>928.29</ele>
        <time>2020-08-11T12:40:47Z</time>
      </trkpt>
      <trkpt lat="42.0555590373" lon="-6.6274302732">
        <ele>928.77</ele>
        <time>2020-08-11T12:41:04Z</time>
      </trkpt>
      <trkpt lat="42.0555652399" lon="-6.6274290998">
        <ele>929.25</ele>
        <time>2020-08-11T12:41:20Z</time>
      </trkpt>
      <trkpt lat="42.0555861946" lon="-6.6273982543">
        <ele>937.90</ele>
        <time>2020-08-12T05:23:17Z</time>
      </trkpt>
      <trkpt lat="42.0555855241" lon="-6.6273783892">
        <ele>936.46</ele>
        <time>2020-08-12T05:23:30Z</time>
      </trkpt>
      <trkpt lat="42.0556053054" lon="-6.6273757070">
        <ele>937.42</ele>
        <time>2020-08-12T05:23:37Z</time>
      </trkpt>
      <trkpt lat="42.0556079037" lon="-6.6273647267">
        <ele>936.94</ele>
        <time>2020-08-12T05:23:47Z</time>
      </trkpt>
      <trkpt lat="42.0556028746" lon="-6.6273653135">
        <ele>935.98</ele>
        <time>2020-08-12T05:23:56Z</time>
      </trkpt>
      <trkpt lat="42.0556079876" lon="-6.6273571830">
        <ele>935.98</ele>
        <time>2020-08-12T05:24:02Z</time>
      </trkpt>
      <trkpt lat="42.0556388330" lon="-6.6274172813">
        <ele>935.98</ele>
        <time>2020-08-12T05:24:06Z</time>
      </trkpt>
      <trkpt lat="42.0557423495" lon="-6.6276595183">
        <ele>935.02</ele>
        <time>2020-08-12T05:24:13Z</time>
      </trkpt>
      <trkpt lat="42.0558876079" lon="-6.6280060261">
        <ele>933.58</ele>
        <time>2020-08-12T05:24:20Z</time>
      </trkpt>
      <trkpt lat="42.0558587741" lon="-6.6281521227">
        <ele>932.14</ele>
        <time>2020-08-12T05:24:23Z</time>
      </trkpt>
      <trkpt lat="42.0558245759" lon="-6.6281979717">
        <ele>931.65</ele>
        <time>2020-08-12T05:24:24Z</time>
      </trkpt>
      <trkpt lat="42.0556616317" lon="-6.6283527855">
        <ele>928.29</ele>
        <time>2020-08-12T05:24:29Z</time>
      </trkpt>
      <trkpt lat="42.0556261763" lon="-6.6283783503">
        <ele>927.33</ele>
        <time>2020-08-12T05:24:30Z</time>
      </trkpt>
      <trkpt lat="42.0555131044" lon="-6.6285093594">
        <ele>925.89</ele>
        <time>2020-08-12T05:24:34Z</time>
      </trkpt>
      <trkpt lat="42.0555554330" lon="-6.6286876425">
        <ele>925.89</ele>
        <time>2020-08-12T05:24:39Z</time>
      </trkpt>
      <trkpt lat="42.0557420980" lon="-6.6289351601">
        <ele>924.93</ele>
        <time>2020-08-12T05:24:47Z</time>
      </trkpt>
      <trkpt lat="42.0559313614" lon="-6.6292317957">
        <ele>922.04</ele>
        <time>2020-08-12T05:24:57Z</time>
      </trkpt>
      <trkpt lat="42.0559395757" lon="-6.6293752939">
        <ele>920.12</ele>
        <time>2020-08-12T05:25:02Z</time>
      </trkpt>
      <trkpt lat="42.0557733625" lon="-6.6295926366">
        <ele>918.20</ele>
        <time>2020-08-12T05:25:07Z</time>
      </trkpt>
      <trkpt lat="42.0555514935" lon="-6.6298756935">
        <ele>914.83</ele>
        <time>2020-08-12T05:25:12Z</time>
      </trkpt>
      <trkpt lat="42.0553722046" lon="-6.6303247120">
        <ele>911.95</ele>
        <time>2020-08-12T05:25:18Z</time>
      </trkpt>
      <trkpt lat="42.0553691033" lon="-6.6304029152">
        <ele>911.95</ele>
        <time>2020-08-12T05:25:19Z</time>
      </trkpt>
      <trkpt lat="42.0554269385" lon="-6.6309156362">
        <ele>909.54</ele>
        <time>2020-08-12T05:25:26Z</time>
      </trkpt>
      <trkpt lat="42.0553271938" lon="-6.6311994474">
        <ele>909.06</ele>
        <time>2020-08-12T05:25:31Z</time>
      </trkpt>
      <trkpt lat="42.0552494098" lon="-6.6315119248">
        <ele>909.06</ele>
        <time>2020-08-12T05:25:37Z</time>
      </trkpt>
      <trkpt lat="42.0552670956" lon="-6.6317228135">
        <ele>909.06</ele>
        <time>2020-08-12T05:25:43Z</time>
      </trkpt>
      <trkpt lat="42.0553079154" lon="-6.6321250610">
        <ele>908.10</ele>
        <time>2020-08-12T05:25:52Z</time>
      </trkpt>
      <trkpt lat="42.0553458016" lon="-6.6326268017">
        <ele>907.62</ele>
        <time>2020-08-12T05:26:02Z</time>
      </trkpt>
      <trkpt lat="42.0554338954" lon="-6.6329140496">
        <ele>907.14</ele>
        <time>2020-08-12T05:26:09Z</time>
      </trkpt>
      <trkpt lat="42.0556497294" lon="-6.6330246907">
        <ele>908.10</ele>
        <time>2020-08-12T05:26:15Z</time>
      </trkpt>
      <trkpt lat="42.0559368934" lon="-6.6330970265">
        <ele>910.99</ele>
        <time>2020-08-12T05:26:23Z</time>
      </trkpt>
      <trkpt lat="42.0563129056" lon="-6.6330824420">
        <ele>912.43</ele>
        <time>2020-08-12T05:26:33Z</time>
      </trkpt>
      <trkpt lat="42.0565939508" lon="-6.6331292130">
        <ele>911.47</ele>
        <time>2020-08-12T05:26:41Z</time>
      </trkpt>
      <trkpt lat="42.0569568872" lon="-6.6333522554">
        <ele>909.06</ele>
        <time>2020-08-12T05:26:52Z</time>
      </trkpt>
      <trkpt lat="42.0572049916" lon="-6.6336183809">
        <ele>908.58</ele>
        <time>2020-08-12T05:27:01Z</time>
      </trkpt>
      <trkpt lat="42.0574252680" lon="-6.6340350453">
        <ele>909.06</ele>
        <time>2020-08-12T05:27:11Z</time>
      </trkpt>
      <trkpt lat="42.0574538503" lon="-6.6344429087">
        <ele>907.62</ele>
        <time>2020-08-12T05:27:19Z</time>
      </trkpt>
      <trkpt lat="42.0573303010" lon="-6.6347578168">
        <ele>908.10</ele>
        <time>2020-08-12T05:27:26Z</time>
      </trkpt>
      <trkpt lat="42.0570779219" lon="-6.6351164784">
        <ele>909.06</ele>
        <time>2020-08-12T05:27:36Z</time>
      </trkpt>
      <trkpt lat="42.0568478387" lon="-6.6354413610">
        <ele>909.06</ele>
        <time>2020-08-12T05:27:45Z</time>
      </trkpt>
      <trkpt lat="42.0565735828" lon="-6.6358219832">
        <ele>910.51</ele>
        <time>2020-08-12T05:27:56Z</time>
      </trkpt>
      <trkpt lat="42.0563495345" lon="-6.6361420043">
        <ele>910.51</ele>
        <time>2020-08-12T05:28:04Z</time>
      </trkpt>
      <trkpt lat="42.0561151765" lon="-6.6364794597">
        <ele>910.51</ele>
        <time>2020-08-12T05:28:13Z</time>
      </trkpt>
      <trkpt lat="42.0559513941" lon="-6.6368259676">
        <ele>911.47</ele>
        <time>2020-08-12T05:28:21Z</time>
      </trkpt>
      <trkpt lat="42.0559253264" lon="-6.6372081824">
        <ele>910.99</ele>
        <time>2020-08-12T05:28:29Z</time>
      </trkpt>
      <trkpt lat="42.0559845027" lon="-6.6377180535">
        <ele>908.58</ele>
        <time>2020-08-12T05:28:39Z</time>
      </trkpt>
      <trkpt lat="42.0560482051" lon="-6.6383942217">
        <ele>907.62</ele>
        <time>2020-08-12T05:28:52Z</time>
      </trkpt>
      <trkpt lat="42.0561154280" lon="-6.6390169971">
        <ele>907.62</ele>
        <time>2020-08-12T05:29:04Z</time>
      </trkpt>
      <trkpt lat="42.0561635401" lon="-6.6395235155">
        <ele>907.14</ele>
        <time>2020-08-12T05:29:14Z</time>
      </trkpt>
      <trkpt lat="42.0562011749" lon="-6.6398938280">
        <ele>907.14</ele>
        <time>2020-08-12T05:29:22Z</time>
      </trkpt>
      <trkpt lat="42.0562387258" lon="-6.6403315309">
        <ele>908.58</ele>
        <time>2020-08-12T05:29:31Z</time>
      </trkpt>
      <trkpt lat="42.0562862512" lon="-6.6408526339">
        <ele>909.06</ele>
        <time>2020-08-12T05:29:42Z</time>
      </trkpt>
      <trkpt lat="42.0563181024" lon="-6.6412700526">
        <ele>910.51</ele>
        <time>2020-08-12T05:29:51Z</time>
      </trkpt>
      <trkpt lat="42.0563572459" lon="-6.6417717095">
        <ele>911.47</ele>
        <time>2020-08-12T05:30:02Z</time>
      </trkpt>
      <trkpt lat="42.0564055257" lon="-6.6422716063">
        <ele>911.95</ele>
        <time>2020-08-12T05:30:13Z</time>
      </trkpt>
      <trkpt lat="42.0565043483" lon="-6.6426548269">
        <ele>913.39</ele>
        <time>2020-08-12T05:30:22Z</time>
      </trkpt>
      <trkpt lat="42.0566972159" lon="-6.6429410689">
        <ele>914.83</ele>
        <time>2020-08-12T05:30:31Z</time>
      </trkpt>
      <trkpt lat="42.0569930132" lon="-6.6431275662">
        <ele>915.31</ele>
        <time>2020-08-12T05:30:41Z</time>
      </trkpt>
      <trkpt lat="42.0573299658" lon="-6.6432121396">
        <ele>914.35</ele>
        <time>2020-08-12T05:30:51Z</time>
      </trkpt>
      <trkpt lat="42.0576566085" lon="-6.6432990599">
        <ele>914.83</ele>
        <time>2020-08-12T05:31:00Z</time>
      </trkpt>
      <trkpt lat="42.0577858575" lon="-6.6434152331">
        <ele>914.35</ele>
        <time>2020-08-12T05:31:06Z</time>
      </trkpt>
      <trkpt lat="42.0579255838" lon="-6.6436185781">
        <ele>914.83</ele>
        <time>2020-08-12T05:31:15Z</time>
      </trkpt>
      <trkpt lat="42.0579374023" lon="-6.6436355095">
        <ele>914.83</ele>
        <time>2020-08-12T05:31:19Z</time>
      </trkpt>
      <trkpt lat="42.0579570159" lon="-6.6436850466">
        <ele>915.31</ele>
        <time>2020-08-12T05:31:26Z</time>
      </trkpt>
      <trkpt lat="42.0579659007" lon="-6.6436955240">
        <ele>915.31</ele>
        <time>2020-08-12T05:31:27Z</time>
      </trkpt>
      <trkpt lat="42.0580498036" lon="-6.6438536905">
        <ele>915.79</ele>
        <time>2020-08-12T05:31:37Z</time>
      </trkpt>
      <trkpt lat="42.0581566729" lon="-6.6440103482">
        <ele>915.79</ele>
        <time>2020-08-12T05:31:47Z</time>
      </trkpt>
      <trkpt lat="42.0582948904" lon="-6.6441235039">
        <ele>915.31</ele>
        <time>2020-08-12T05:31:57Z</time>
      </trkpt>
      <trkpt lat="42.0584724192" lon="-6.6441495717">
        <ele>913.87</ele>
        <time>2020-08-12T05:32:05Z</time>
      </trkpt>
      <trkpt lat="42.0585982315" lon="-6.6441380884">
        <ele>913.39</ele>
        <time>2020-08-12T05:32:12Z</time>
      </trkpt>
      <trkpt lat="42.0586081222" lon="-6.6441457160">
        <ele>914.35</ele>
        <time>2020-08-12T05:32:18Z</time>
      </trkpt>
      <trkpt lat="42.0586112235" lon="-6.6441474762">
        <ele>914.35</ele>
        <time>2020-08-12T05:32:28Z</time>
      </trkpt>
      <trkpt lat="42.0585979801" lon="-6.6441338137">
        <ele>910.99</ele>
        <time>2020-08-12T05:32:48Z</time>
      </trkpt>
      <trkpt lat="42.0585980639" lon="-6.6441433690">
        <ele>912.43</ele>
        <time>2020-08-12T05:33:10Z</time>
      </trkpt>
      <trkpt lat="42.0585864130" lon="-6.6441483982">
        <ele>915.31</ele>
        <time>2020-08-12T05:33:41Z</time>
      </trkpt>
      <trkpt lat="42.0585844014" lon="-6.6441387590">
        <ele>914.83</ele>
        <time>2020-08-12T05:34:01Z</time>
      </trkpt>
      <trkpt lat="42.0585946273" lon="-6.6441502422">
        <ele>915.79</ele>
        <time>2020-08-12T05:34:25Z</time>
      </trkpt>
      <trkpt lat="42.0585958846" lon="-6.6441498231">
        <ele>914.83</ele>
        <time>2020-08-12T05:34:54Z</time>
      </trkpt>
      <trkpt lat="42.0585881732" lon="-6.6441408545">
        <ele>914.83</ele>
        <time>2020-08-12T05:35:07Z</time>
      </trkpt>
      <trkpt lat="42.0586110558" lon="-6.6441447940">
        <ele>915.31</ele>
        <time>2020-08-12T05:35:16Z</time>
      </trkpt>
      <trkpt lat="42.0586667117" lon="-6.6441378370">
        <ele>913.87</ele>
        <time>2020-08-12T05:35:23Z</time>
      </trkpt>
      <trkpt lat="42.0588958729" lon="-6.6441202350">
        <ele>914.35</ele>
        <time>2020-08-12T05:35:30Z</time>
      </trkpt>
      <trkpt lat="42.0591016486" lon="-6.6442655772">
        <ele>915.31</ele>
        <time>2020-08-12T05:35:37Z</time>
      </trkpt>
      <trkpt lat="42.0592757408" lon="-6.6445890348">
        <ele>915.31</ele>
        <time>2020-08-12T05:35:46Z</time>
      </trkpt>
      <trkpt lat="42.0594422054" lon="-6.6449689865">
        <ele>915.79</ele>
        <time>2020-08-12T05:35:54Z</time>
      </trkpt>
      <trkpt lat="42.0597261004" lon="-6.6456013173">
        <ele>916.27</ele>
        <time>2020-08-12T05:36:07Z</time>
      </trkpt>
      <trkpt lat="42.0599321276" lon="-6.6460524313">
        <ele>916.75</ele>
        <time>2020-08-12T05:36:16Z</time>
      </trkpt>
      <trkpt lat="42.0601449441" lon="-6.6465354804">
        <ele>916.27</ele>
        <time>2020-08-12T05:36:25Z</time>
      </trkpt>
      <trkpt lat="42.0604243129" lon="-6.6471629497">
        <ele>916.75</ele>
        <time>2020-08-12T05:36:36Z</time>
      </trkpt>
      <trkpt lat="42.0605502091" lon="-6.6476467531">
        <ele>917.72</ele>
        <time>2020-08-12T05:36:45Z</time>
      </trkpt>
      <trkpt lat="42.0606470201" lon="-6.6479857173">
        <ele>917.24</ele>
        <time>2020-08-12T05:36:52Z</time>
      </trkpt>
      <trkpt lat="42.0608264767" lon="-6.6481432132">
        <ele>916.75</ele>
        <time>2020-08-12T05:36:58Z</time>
      </trkpt>
      <trkpt lat="42.0610295702" lon="-6.6482080054">
        <ele>916.75</ele>
        <time>2020-08-12T05:37:05Z</time>
      </trkpt>
      <trkpt lat="42.0611661952" lon="-6.6483112704">
        <ele>917.72</ele>
        <time>2020-08-12T05:37:11Z</time>
      </trkpt>
      <trkpt lat="42.0612278022" lon="-6.6485880408">
        <ele>916.75</ele>
        <time>2020-08-12T05:37:16Z</time>
      </trkpt>
      <trkpt lat="42.0612719748" lon="-6.6490255762">
        <ele>915.31</ele>
        <time>2020-08-12T05:37:22Z</time>
      </trkpt>
      <trkpt lat="42.0612801891" lon="-6.6491043661">
        <ele>914.83</ele>
        <time>2020-08-12T05:37:23Z</time>
      </trkpt>
      <trkpt lat="42.0612851344" lon="-6.6497356910">
        <ele>913.87</ele>
        <time>2020-08-12T05:37:31Z</time>
      </trkpt>
      <trkpt lat="42.0612100326" lon="-6.6505773179">
        <ele>912.91</ele>
        <time>2020-08-12T05:37:42Z</time>
      </trkpt>
      <trkpt lat="42.0610931050" lon="-6.6512155160">
        <ele>912.91</ele>
        <time>2020-08-12T05:37:51Z</time>
      </trkpt>
      <trkpt lat="42.0609821286" lon="-6.6517002415">
        <ele>912.43</ele>
        <time>2020-08-12T05:37:58Z</time>
      </trkpt>
      <trkpt lat="42.0608166698" lon="-6.6523948498">
        <ele>913.39</ele>
        <time>2020-08-12T05:38:08Z</time>
      </trkpt>
      <trkpt lat="42.0606254786" lon="-6.6530996002">
        <ele>915.31</ele>
        <time>2020-08-12T05:38:18Z</time>
      </trkpt>
      <trkpt lat="42.0604559965" lon="-6.6537139937">
        <ele>916.75</ele>
        <time>2020-08-12T05:38:27Z</time>
      </trkpt>
      <trkpt lat="42.0603336208" lon="-6.6542517766">
        <ele>917.24</ele>
        <time>2020-08-12T05:38:35Z</time>
      </trkpt>
      <trkpt lat="42.0601184573" lon="-6.6551123466">
        <ele>916.75</ele>
        <time>2020-08-12T05:38:48Z</time>
      </trkpt>
      <trkpt lat="42.0599607937" lon="-6.6557548195">
        <ele>914.83</ele>
        <time>2020-08-12T05:38:58Z</time>
      </trkpt>
      <trkpt lat="42.0597180538" lon="-6.6567457281">
        <ele>912.91</ele>
        <time>2020-08-12T05:39:13Z</time>
      </trkpt>
      <trkpt lat="42.0595636591" lon="-6.6573643126">
        <ele>912.91</ele>
        <time>2020-08-12T05:39:23Z</time>
      </trkpt>
      <trkpt lat="42.0593979489" lon="-6.6580248903">
        <ele>913.39</ele>
        <time>2020-08-12T05:39:35Z</time>
      </trkpt>
      <trkpt lat="42.0592360944" lon="-6.6586632561">
        <ele>913.87</ele>
        <time>2020-08-12T05:39:47Z</time>
      </trkpt>
      <trkpt lat="42.0590832084" lon="-6.6592660826">
        <ele>914.83</ele>
        <time>2020-08-12T05:39:59Z</time>
      </trkpt>
      <trkpt lat="42.0589024946" lon="-6.6599786282">
        <ele>917.24</ele>
        <time>2020-08-12T05:40:13Z</time>
      </trkpt>
      <trkpt lat="42.0587679651" lon="-6.6604727414">
        <ele>918.20</ele>
        <time>2020-08-12T05:40:23Z</time>
      </trkpt>
      <trkpt lat="42.0585833117" lon="-6.6609888151">
        <ele>918.68</ele>
        <time>2020-08-12T05:40:34Z</time>
      </trkpt>
      <trkpt lat="42.0583412424" lon="-6.6615400091">
        <ele>919.64</ele>
        <time>2020-08-12T05:40:46Z</time>
      </trkpt>
      <trkpt lat="42.0580738597" lon="-6.6620478686">
        <ele>919.16</ele>
        <time>2020-08-12T05:40:58Z</time>
      </trkpt>
      <trkpt lat="42.0577815827" lon="-6.6625879146">
        <ele>919.64</ele>
        <time>2020-08-12T05:41:11Z</time>
      </trkpt>
      <trkpt lat="42.0574607234" lon="-6.6631790902">
        <ele>920.60</ele>
        <time>2020-08-12T05:41:25Z</time>
      </trkpt>
      <trkpt lat="42.0571545325" lon="-6.6637343075">
        <ele>921.56</ele>
        <time>2020-08-12T05:41:38Z</time>
      </trkpt>
      <trkpt lat="42.0568685420" lon="-6.6642569192">
        <ele>922.52</ele>
        <time>2020-08-12T05:41:50Z</time>
      </trkpt>
      <trkpt lat="42.0567259658" lon="-6.6645139921">
        <ele>923.00</ele>
        <time>2020-08-12T05:41:56Z</time>
      </trkpt>
      <trkpt lat="42.0564490277" lon="-6.6650067642">
        <ele>923.48</ele>
        <time>2020-08-12T05:42:07Z</time>
      </trkpt>
      <trkpt lat="42.0562156755" lon="-6.6654415336">
        <ele>922.04</ele>
        <time>2020-08-12T05:42:17Z</time>
      </trkpt>
      <trkpt lat="42.0558291860" lon="-6.6661391594">
        <ele>923.00</ele>
        <time>2020-08-12T05:42:32Z</time>
      </trkpt>
      <trkpt lat="42.0554806665" lon="-6.6667524632">
        <ele>923.48</ele>
        <time>2020-08-12T05:42:45Z</time>
      </trkpt>
      <trkpt lat="42.0552074164" lon="-6.6672446486">
        <ele>923.96</ele>
        <time>2020-08-12T05:42:55Z</time>
      </trkpt>
      <trkpt lat="42.0549094398" lon="-6.6677998658">
        <ele>924.45</ele>
        <time>2020-08-12T05:43:06Z</time>
      </trkpt>
      <trkpt lat="42.0546382014" lon="-6.6682997625">
        <ele>924.45</ele>
        <time>2020-08-12T05:43:16Z</time>
      </trkpt>
      <trkpt lat="42.0544054359" lon="-6.6687164269">
        <ele>923.96</ele>
        <time>2020-08-12T05:43:25Z</time>
      </trkpt>
      <trkpt lat="42.0542636141" lon="-6.6689829715">
        <ele>924.45</ele>
        <time>2020-08-12T05:43:31Z</time>
      </trkpt>
      <trkpt lat="42.0541133266" lon="-6.6692438163">
        <ele>924.93</ele>
        <time>2020-08-12T05:43:37Z</time>
      </trkpt>
      <trkpt lat="42.0538091473" lon="-6.6697991174">
        <ele>924.93</ele>
        <time>2020-08-12T05:43:49Z</time>
      </trkpt>
      <trkpt lat="42.0534771401" lon="-6.6704024468">
        <ele>926.37</ele>
        <time>2020-08-12T05:44:02Z</time>
      </trkpt>
      <trkpt lat="42.0531307999" lon="-6.6710341070">
        <ele>927.33</ele>
        <time>2020-08-12T05:44:16Z</time>
      </trkpt>
      <trkpt lat="42.0528205857" lon="-6.6715974547">
        <ele>927.33</ele>
        <time>2020-08-12T05:44:29Z</time>
      </trkpt>
      <trkpt lat="42.0525651891" lon="-6.6720649134">
        <ele>928.29</ele>
        <time>2020-08-12T05:44:40Z</time>
      </trkpt>
      <trkpt lat="42.0523309987" lon="-6.6724912170">
        <ele>928.77</ele>
        <time>2020-08-12T05:44:50Z</time>
      </trkpt>
      <trkpt lat="42.0520721655" lon="-6.6729693208">
        <ele>929.73</ele>
        <time>2020-08-12T05:45:01Z</time>
      </trkpt>
      <trkpt lat="42.0518527273" lon="-6.6733636055">
        <ele>930.21</ele>
        <time>2020-08-12T05:45:10Z</time>
      </trkpt>
      <trkpt lat="42.0515695028" lon="-6.6738868877">
        <ele>931.17</ele>
        <time>2020-08-12T05:45:22Z</time>
      </trkpt>
      <trkpt lat="42.0512979291" lon="-6.6744382493">
        <ele>930.69</ele>
        <time>2020-08-12T05:45:34Z</time>
      </trkpt>
      <trkpt lat="42.0510765631" lon="-6.6750399861">
        <ele>930.21</ele>
        <time>2020-08-12T05:45:46Z</time>
      </trkpt>
      <trkpt lat="42.0509307180" lon="-6.6755884979">
        <ele>929.73</ele>
        <time>2020-08-12T05:45:56Z</time>
      </trkpt>
      <trkpt lat="42.0508088451" lon="-6.6762179788">
        <ele>930.21</ele>
        <time>2020-08-12T05:46:07Z</time>
      </trkpt>
      <trkpt lat="42.0506830327" lon="-6.6769395769">
        <ele>929.73</ele>
        <time>2020-08-12T05:46:20Z</time>
      </trkpt>
      <trkpt lat="42.0506551210" lon="-6.6771083046">
        <ele>929.25</ele>
        <time>2020-08-12T05:46:23Z</time>
      </trkpt>
      <trkpt lat="42.0506481640" lon="-6.6771626193">
        <ele>929.25</ele>
        <time>2020-08-12T05:46:24Z</time>
      </trkpt>
      <trkpt lat="42.0506384410" lon="-6.6772187781">
        <ele>928.77</ele>
        <time>2020-08-12T05:46:25Z</time>
      </trkpt>
      <trkpt lat="42.0505588129" lon="-6.6776556429">
        <ele>928.29</ele>
        <time>2020-08-12T05:46:34Z</time>
      </trkpt>
      <trkpt lat="42.0505380258" lon="-6.6777827125">
        <ele>928.29</ele>
        <time>2020-08-12T05:46:40Z</time>
      </trkpt>
      <trkpt lat="42.0505315717" lon="-6.6777781863">
        <ele>929.25</ele>
        <time>2020-08-12T05:46:50Z</time>
      </trkpt>
      <trkpt lat="42.0505340863" lon="-6.6778053436">
        <ele>930.21</ele>
        <time>2020-08-12T05:47:06Z</time>
      </trkpt>
      <trkpt lat="42.0505352598" lon="-6.6778046731">
        <ele>928.77</ele>
        <time>2020-08-12T05:47:14Z</time>
      </trkpt>
      <trkpt lat="42.0505134668" lon="-6.6778625082">
        <ele>928.77</ele>
        <time>2020-08-12T05:47:25Z</time>
      </trkpt>
      <trkpt lat="42.0504555479" lon="-6.6781637538">
        <ele>928.77</ele>
        <time>2020-08-12T05:47:33Z</time>
      </trkpt>
      <trkpt lat="42.0503613353" lon="-6.6786702722">
        <ele>928.29</ele>
        <time>2020-08-12T05:47:43Z</time>
      </trkpt>
      <trkpt lat="42.0502278116" lon="-6.6793849133">
        <ele>929.25</ele>
        <time>2020-08-12T05:47:56Z</time>
      </trkpt>
      <trkpt lat="42.0500911027" lon="-6.6801324952">
        <ele>929.73</ele>
        <time>2020-08-12T05:48:09Z</time>
      </trkpt>
      <trkpt lat="42.0499287453" lon="-6.6810379084">
        <ele>930.21</ele>
        <time>2020-08-12T05:48:25Z</time>
      </trkpt>
      <trkpt lat="42.0498044416" lon="-6.6817006655">
        <ele>931.65</ele>
        <time>2020-08-12T05:48:37Z</time>
      </trkpt>
      <trkpt lat="42.0496881846" lon="-6.6823119577">
        <ele>932.62</ele>
        <time>2020-08-12T05:48:48Z</time>
      </trkpt>
      <trkpt lat="42.0495912060" lon="-6.6828644089">
        <ele>932.14</ele>
        <time>2020-08-12T05:48:58Z</time>
      </trkpt>
      <trkpt lat="42.0494881924" lon="-6.6834385693">
        <ele>931.17</ele>
        <time>2020-08-12T05:49:09Z</time>
      </trkpt>
      <trkpt lat="42.0494000986" lon="-6.6839360353">
        <ele>929.73</ele>
        <time>2020-08-12T05:49:18Z</time>
      </trkpt>
      <trkpt lat="42.0492768846" lon="-6.6846133769">
        <ele>928.77</ele>
        <time>2020-08-12T05:49:30Z</time>
      </trkpt>
      <trkpt lat="42.0491374098" lon="-6.6853938159">
        <ele>928.29</ele>
        <time>2020-08-12T05:49:44Z</time>
      </trkpt>
      <trkpt lat="42.0490334742" lon="-6.6859474406">
        <ele>927.81</ele>
        <time>2020-08-12T05:49:54Z</time>
      </trkpt>
      <trkpt lat="42.0489311311" lon="-6.6864951141">
        <ele>927.81</ele>
        <time>2020-08-12T05:50:04Z</time>
      </trkpt>
      <trkpt lat="42.0488040615" lon="-6.6871811729">
        <ele>927.81</ele>
        <time>2020-08-12T05:50:16Z</time>
      </trkpt>
      <trkpt lat="42.0486491639" lon="-6.6878521442">
        <ele>927.81</ele>
        <time>2020-08-12T05:50:28Z</time>
      </trkpt>
      <trkpt lat="42.0484746527" lon="-6.6884610895">
        <ele>928.29</ele>
        <time>2020-08-12T05:50:39Z</time>
      </trkpt>
      <trkpt lat="42.0482491795" lon="-6.6891202424">
        <ele>927.33</ele>
        <time>2020-08-12T05:50:51Z</time>
      </trkpt>
      <trkpt lat="42.0479814615" lon="-6.6897561774">
        <ele>927.33</ele>
        <time>2020-08-12T05:51:03Z</time>
      </trkpt>
      <trkpt lat="42.0476865862" lon="-6.6903719958">
        <ele>927.33</ele>
        <time>2020-08-12T05:51:15Z</time>
      </trkpt>
      <trkpt lat="42.0474425890" lon="-6.6908722278">
        <ele>926.85</ele>
        <time>2020-08-12T05:51:25Z</time>
      </trkpt>
      <trkpt lat="42.0471975859" lon="-6.6913901456">
        <ele>927.81</ele>
        <time>2020-08-12T05:51:36Z</time>
      </trkpt>
      <trkpt lat="42.0469654072" lon="-6.6918689199">
        <ele>928.29</ele>
        <time>2020-08-12T05:51:46Z</time>
      </trkpt>
      <trkpt lat="42.0466855355" lon="-6.6924431641">
        <ele>928.29</ele>
        <time>2020-08-12T05:51:58Z</time>
      </trkpt>
      <trkpt lat="42.0464345813" lon="-6.6929658595">
        <ele>929.25</ele>
        <time>2020-08-12T05:52:09Z</time>
      </trkpt>
      <trkpt lat="42.0461620856" lon="-6.6935308836">
        <ele>929.25</ele>
        <time>2020-08-12T05:52:21Z</time>
      </trkpt>
      <trkpt lat="42.0459078625" lon="-6.6940525733">
        <ele>929.73</ele>
        <time>2020-08-12T05:52:32Z</time>
      </trkpt>
      <trkpt lat="42.0456677210" lon="-6.6945574991">
        <ele>930.69</ele>
        <time>2020-08-12T05:52:43Z</time>
      </trkpt>
      <trkpt lat="42.0454719197" lon="-6.6949641053">
        <ele>931.65</ele>
        <time>2020-08-12T05:52:52Z</time>
      </trkpt>
      <trkpt lat="42.0452090632" lon="-6.6955115274">
        <ele>932.14</ele>
        <time>2020-08-12T05:53:04Z</time>
      </trkpt>
      <trkpt lat="42.0448985975" lon="-6.6961610410">
        <ele>932.14</ele>
        <time>2020-08-12T05:53:19Z</time>
      </trkpt>
      <trkpt lat="42.0446307119" lon="-6.6967074573">
        <ele>932.62</ele>
        <time>2020-08-12T05:53:32Z</time>
      </trkpt>
      <trkpt lat="42.0444059931" lon="-6.6971721500">
        <ele>933.10</ele>
        <time>2020-08-12T05:53:43Z</time>
      </trkpt>
      <trkpt lat="42.0441576373" lon="-6.6976940911">
        <ele>933.58</ele>
        <time>2020-08-12T05:53:55Z</time>
      </trkpt>
      <trkpt lat="42.0439466648" lon="-6.6981345601">
        <ele>933.58</ele>
        <time>2020-08-12T05:54:05Z</time>
      </trkpt>
      <trkpt lat="42.0437056012" lon="-6.6986361332">
        <ele>933.58</ele>
        <time>2020-08-12T05:54:16Z</time>
      </trkpt>
      <trkpt lat="42.0434793737" lon="-6.6990912706">
        <ele>934.06</ele>
        <time>2020-08-12T05:54:26Z</time>
      </trkpt>
      <trkpt lat="42.0432781242" lon="-6.6995092761">
        <ele>934.06</ele>
        <time>2020-08-12T05:54:35Z</time>
      </trkpt>
      <trkpt lat="42.0430120826" lon="-6.7000596318">
        <ele>934.06</ele>
        <time>2020-08-12T05:54:47Z</time>
      </trkpt>
      <trkpt lat="42.0427849330" lon="-6.7005331255">
        <ele>935.50</ele>
        <time>2020-08-12T05:54:57Z</time>
      </trkpt>
      <trkpt lat="42.0426168758" lon="-6.7008742690">
        <ele>936.46</ele>
        <time>2020-08-12T05:55:05Z</time>
      </trkpt>
      <trkpt lat="42.0424334798" lon="-6.7012564000">
        <ele>937.42</ele>
        <time>2020-08-12T05:55:14Z</time>
      </trkpt>
      <trkpt lat="42.0422292966" lon="-6.7016850505">
        <ele>937.90</ele>
        <time>2020-08-12T05:55:24Z</time>
      </trkpt>
      <trkpt lat="42.0420111995" lon="-6.7021390144">
        <ele>937.90</ele>
        <time>2020-08-12T05:55:35Z</time>
      </trkpt>
      <trkpt lat="42.0417884924" lon="-6.7026073113">
        <ele>938.86</ele>
        <time>2020-08-12T05:55:46Z</time>
      </trkpt>
      <trkpt lat="42.0415145718" lon="-6.7031642050">
        <ele>939.83</ele>
        <time>2020-08-12T05:55:59Z</time>
      </trkpt>
      <trkpt lat="42.0412750170" lon="-6.7036499362">
        <ele>940.31</ele>
        <time>2020-08-12T05:56:10Z</time>
      </trkpt>
      <trkpt lat="42.0410135854" lon="-6.7042012140">
        <ele>940.79</ele>
        <time>2020-08-12T05:56:22Z</time>
      </trkpt>
      <trkpt lat="42.0407842565" lon="-6.7046859395">
        <ele>940.79</ele>
        <time>2020-08-12T05:56:33Z</time>
      </trkpt>
      <trkpt lat="42.0405237470" lon="-6.7052212078">
        <ele>941.75</ele>
        <time>2020-08-12T05:56:46Z</time>
      </trkpt>
      <trkpt lat="42.0402672607" lon="-6.7056933604">
        <ele>942.71</ele>
        <time>2020-08-12T05:56:58Z</time>
      </trkpt>
      <trkpt lat="42.0399929211" lon="-6.7061735597">
        <ele>943.67</ele>
        <time>2020-08-12T05:57:11Z</time>
      </trkpt>
      <trkpt lat="42.0397876482" lon="-6.7065024655">
        <ele>943.67</ele>
        <time>2020-08-12T05:57:20Z</time>
      </trkpt>
      <trkpt lat="42.0395588223" lon="-6.7068540026">
        <ele>943.19</ele>
        <time>2020-08-12T05:57:30Z</time>
      </trkpt>
      <trkpt lat="42.0393014979" lon="-6.7072346248">
        <ele>942.71</ele>
        <time>2020-08-12T05:57:41Z</time>
      </trkpt>
      <trkpt lat="42.0390859153" lon="-6.7075390555">
        <ele>942.23</ele>
        <time>2020-08-12T05:57:50Z</time>
      </trkpt>
      <trkpt lat="42.0388331171" lon="-6.7078779358">
        <ele>942.23</ele>
        <time>2020-08-12T05:58:00Z</time>
      </trkpt>
      <trkpt lat="42.0385820791" lon="-6.7082167324">
        <ele>941.75</ele>
        <time>2020-08-12T05:58:10Z</time>
      </trkpt>
      <trkpt lat="42.0383488107" lon="-6.7085278686">
        <ele>943.67</ele>
        <time>2020-08-12T05:58:20Z</time>
      </trkpt>
      <trkpt lat="42.0381281991" lon="-6.7088214029">
        <ele>947.52</ele>
        <time>2020-08-12T05:58:30Z</time>
      </trkpt>
      <trkpt lat="42.0379319787" lon="-6.7090727761">
        <ele>949.92</ele>
        <time>2020-08-12T05:58:39Z</time>
      </trkpt>
      <trkpt lat="42.0377558749" lon="-6.7093130853">
        <ele>952.80</ele>
        <time>2020-08-12T05:58:48Z</time>
      </trkpt>
      <trkpt lat="42.0375456568" lon="-6.7096028477">
        <ele>955.21</ele>
        <time>2020-08-12T05:58:59Z</time>
      </trkpt>
      <trkpt lat="42.0373450778" lon="-6.7098822165">
        <ele>956.65</ele>
        <time>2020-08-12T05:59:10Z</time>
      </trkpt>
      <trkpt lat="42.0372216962" lon="-6.7100534588">
        <ele>957.61</ele>
        <time>2020-08-12T05:59:19Z</time>
      </trkpt>
      <trkpt lat="42.0371160842" lon="-6.7101997230">
        <ele>957.61</ele>
        <time>2020-08-12T05:59:26Z</time>
      </trkpt>
      <trkpt lat="42.0368849952" lon="-6.7105148826">
        <ele>958.09</ele>
        <time>2020-08-12T05:59:38Z</time>
      </trkpt>
      <trkpt lat="42.0367120765" lon="-6.7107428703">
        <ele>960.01</ele>
        <time>2020-08-12T05:59:47Z</time>
      </trkpt>
      <trkpt lat="42.0364899561" lon="-6.7110362370">
        <ele>962.90</ele>
        <time>2020-08-12T05:59:59Z</time>
      </trkpt>
      <trkpt lat="42.0363038778" lon="-6.7112808209">
        <ele>964.34</ele>
        <time>2020-08-12T06:00:09Z</time>
      </trkpt>
      <trkpt lat="42.0361089986" lon="-6.7115421686">
        <ele>964.34</ele>
        <time>2020-08-12T06:00:19Z</time>
      </trkpt>
      <trkpt lat="42.0358869620" lon="-6.7118509579">
        <ele>964.82</ele>
        <time>2020-08-12T06:00:30Z</time>
      </trkpt>
      <trkpt lat="42.0357298851" lon="-6.7120738328">
        <ele>963.86</ele>
        <time>2020-08-12T06:00:38Z</time>
      </trkpt>
      <trkpt lat="42.0355655998" lon="-6.7123001441">
        <ele>963.38</ele>
        <time>2020-08-12T06:00:46Z</time>
      </trkpt>
      <trkpt lat="42.0354169048" lon="-6.7125087697">
        <ele>963.38</ele>
        <time>2020-08-12T06:00:54Z</time>
      </trkpt>
      <trkpt lat="42.0353350975" lon="-6.7126303073">
        <ele>962.90</ele>
        <time>2020-08-12T06:01:02Z</time>
      </trkpt>
      <trkpt lat="42.0353408810" lon="-6.7126280442">
        <ele>962.90</ele>
        <time>2020-08-12T06:01:11Z</time>
      </trkpt>
      <trkpt lat="42.0353330858" lon="-6.7126292177">
        <ele>964.34</ele>
        <time>2020-08-12T06:01:23Z</time>
      </trkpt>
      <trkpt lat="42.0353262126" lon="-6.7126370966">
        <ele>964.82</ele>
        <time>2020-08-12T06:01:35Z</time>
      </trkpt>
      <trkpt lat="42.0353370253" lon="-6.7126417067">
        <ele>964.34</ele>
        <time>2020-08-12T06:01:50Z</time>
      </trkpt>
      <trkpt lat="42.0353438985" lon="-6.7126554530">
        <ele>965.78</ele>
        <time>2020-08-12T06:02:01Z</time>
      </trkpt>
      <trkpt lat="42.0353252906" lon="-6.7126514297">
        <ele>967.22</ele>
        <time>2020-08-12T06:02:13Z</time>
      </trkpt>
      <trkpt lat="42.0353314094" lon="-6.7126308102">
        <ele>967.22</ele>
        <time>2020-08-12T06:02:23Z</time>
      </trkpt>
      <trkpt lat="42.0353320800" lon="-6.7126366775">
        <ele>965.78</ele>
        <time>2020-08-12T06:02:28Z</time>
      </trkpt>
      <trkpt lat="42.0353213511" lon="-6.7126489151">
        <ele>965.30</ele>
        <time>2020-08-12T06:02:29Z</time>
      </trkpt>
      <trkpt lat="42.0353088621" lon="-6.7126649246">
        <ele>965.30</ele>
        <time>2020-08-12T06:02:30Z</time>
      </trkpt>
      <trkpt lat="42.0351660345" lon="-6.7128629889">
        <ele>963.86</ele>
        <time>2020-08-12T06:02:39Z</time>
      </trkpt>
      <trkpt lat="42.0350601710" lon="-6.7130077444">
        <ele>964.34</ele>
        <time>2020-08-12T06:02:47Z</time>
      </trkpt>
      <trkpt lat="42.0350433234" lon="-6.7130457144">
        <ele>964.82</ele>
        <time>2020-08-12T06:02:54Z</time>
      </trkpt>
      <trkpt lat="42.0350459218" lon="-6.7130597960">
        <ele>965.30</ele>
        <time>2020-08-12T06:03:05Z</time>
      </trkpt>
      <trkpt lat="42.0350610930" lon="-6.7130670045">
        <ele>963.86</ele>
        <time>2020-08-12T06:03:21Z</time>
      </trkpt>
      <trkpt lat="42.0350575726" lon="-6.7130661663">
        <ele>964.34</ele>
        <time>2020-08-12T06:03:32Z</time>
      </trkpt>
      <trkpt lat="42.0350403059" lon="-6.7130696867">
        <ele>962.90</ele>
        <time>2020-08-12T06:03:44Z</time>
      </trkpt>
      <trkpt lat="42.0349588338" lon="-6.7131650727">
        <ele>963.38</ele>
        <time>2020-08-12T06:03:49Z</time>
      </trkpt>
      <trkpt lat="42.0347885974" lon="-6.7133907136">
        <ele>963.38</ele>
        <time>2020-08-12T06:03:57Z</time>
      </trkpt>
      <trkpt lat="42.0347694866" lon="-6.7134063039">
        <ele>962.90</ele>
        <time>2020-08-12T06:04:02Z</time>
      </trkpt>
      <trkpt lat="42.0347627811" lon="-6.7134078965">
        <ele>964.82</ele>
        <time>2020-08-12T06:04:20Z</time>
      </trkpt>
      <trkpt lat="42.0347595960" lon="-6.7134086508">
        <ele>965.78</ele>
        <time>2020-08-12T06:04:30Z</time>
      </trkpt>
      <trkpt lat="42.0346915349" lon="-6.7135030311">
        <ele>965.78</ele>
        <time>2020-08-12T06:04:36Z</time>
      </trkpt>
      <trkpt lat="42.0345556643" lon="-6.7136903666">
        <ele>966.26</ele>
        <time>2020-08-12T06:04:44Z</time>
      </trkpt>
      <trkpt lat="42.0343823265" lon="-6.7139119003">
        <ele>967.22</ele>
        <time>2020-08-12T06:04:52Z</time>
      </trkpt>
      <trkpt lat="42.0341911353" lon="-6.7141736671">
        <ele>966.74</ele>
        <time>2020-08-12T06:05:01Z</time>
      </trkpt>
      <trkpt lat="42.0340277720" lon="-6.7144120485">
        <ele>967.22</ele>
        <time>2020-08-12T06:05:09Z</time>
      </trkpt>
      <trkpt lat="42.0338543504" lon="-6.7147010565">
        <ele>967.22</ele>
        <time>2020-08-12T06:05:18Z</time>
      </trkpt>
      <trkpt lat="42.0336727146" lon="-6.7150323931">
        <ele>968.18</ele>
        <time>2020-08-12T06:05:28Z</time>
      </trkpt>
      <trkpt lat="42.0335193258" lon="-6.7154076509">
        <ele>967.22</ele>
        <time>2020-08-12T06:05:38Z</time>
      </trkpt>
      <trkpt lat="42.0333925914" lon="-6.7158199567">
        <ele>967.70</ele>
        <time>2020-08-12T06:05:49Z</time>
      </trkpt>
      <trkpt lat="42.0333198365" lon="-6.7161694821">
        <ele>968.18</ele>
        <time>2020-08-12T06:05:58Z</time>
      </trkpt>
      <trkpt lat="42.0332692936" lon="-6.7165345140">
        <ele>968.18</ele>
        <time>2020-08-12T06:06:07Z</time>
      </trkpt>
      <trkpt lat="42.0332292281" lon="-6.7168614920">
        <ele>968.67</ele>
        <time>2020-08-12T06:06:15Z</time>
      </trkpt>
      <trkpt lat="42.0331878215" lon="-6.7172264401">
        <ele>969.15</ele>
        <time>2020-08-12T06:06:24Z</time>
      </trkpt>
      <trkpt lat="42.0331546292" lon="-6.7175758816">
        <ele>967.70</ele>
        <time>2020-08-12T06:06:33Z</time>
      </trkpt>
      <trkpt lat="42.0331141446" lon="-6.7179062963">
        <ele>967.22</ele>
        <time>2020-08-12T06:06:41Z</time>
      </trkpt>
      <trkpt lat="42.0330686308" lon="-6.7183465138">
        <ele>965.30</ele>
        <time>2020-08-12T06:06:49Z</time>
      </trkpt>
      <trkpt lat="42.0330032520" lon="-6.7189534474">
        <ele>963.38</ele>
        <time>2020-08-12T06:06:58Z</time>
      </trkpt>
      <trkpt lat="42.0329059381" lon="-6.7198875267">
        <ele>960.01</ele>
        <time>2020-08-12T06:07:10Z</time>
      </trkpt>
      <trkpt lat="42.0328222867" lon="-6.7206112202">
        <ele>959.05</ele>
        <time>2020-08-12T06:07:20Z</time>
      </trkpt>
      <trkpt lat="42.0328105520" lon="-6.7207475938">
        <ele>958.57</ele>
        <time>2020-08-12T06:07:22Z</time>
      </trkpt>
      <trkpt lat="42.0328036789" lon="-6.7208325025">
        <ele>958.57</ele>
        <time>2020-08-12T06:07:23Z</time>
      </trkpt>
      <trkpt lat="42.0327625237" lon="-6.7212227639">
        <ele>959.05</ele>
        <time>2020-08-12T06:07:30Z</time>
      </trkpt>
      <trkpt lat="42.0327584166" lon="-6.7212797608">
        <ele>959.05</ele>
        <time>2020-08-12T06:07:31Z</time>
      </trkpt>
      <trkpt lat="42.0326827280" lon="-6.7219395842">
        <ele>959.05</ele>
        <time>2020-08-12T06:07:41Z</time>
      </trkpt>
      <trkpt lat="42.0326107275" lon="-6.7225839011">
        <ele>958.57</ele>
        <time>2020-08-12T06:07:51Z</time>
      </trkpt>
      <trkpt lat="42.0325563289" lon="-6.7230221909">
        <ele>958.57</ele>
        <time>2020-08-12T06:07:59Z</time>
      </trkpt>
      <trkpt lat="42.0324982423" lon="-6.7236074153">
        <ele>960.01</ele>
        <time>2020-08-12T06:08:11Z</time>
      </trkpt>
      <trkpt lat="42.0324535668" lon="-6.7240396701">
        <ele>960.98</ele>
        <time>2020-08-12T06:08:20Z</time>
      </trkpt>
      <trkpt lat="42.0323936362" lon="-6.7245825659">
        <ele>963.38</ele>
        <time>2020-08-12T06:08:31Z</time>
      </trkpt>
      <trkpt lat="42.0323386509" lon="-6.7250607535">
        <ele>964.82</ele>
        <time>2020-08-12T06:08:41Z</time>
      </trkpt>
      <trkpt lat="42.0322963223" lon="-6.7254678626">
        <ele>964.82</ele>
        <time>2020-08-12T06:08:50Z</time>
      </trkpt>
      <trkpt lat="42.0322330389" lon="-6.7259806674">
        <ele>963.86</ele>
        <time>2020-08-12T06:09:03Z</time>
      </trkpt>
      <trkpt lat="42.0321914647" lon="-6.7263488006">
        <ele>963.86</ele>
        <time>2020-08-12T06:09:12Z</time>
      </trkpt>
      <trkpt lat="42.0321530756" lon="-6.7266962305">
        <ele>965.78</ele>
        <time>2020-08-12T06:09:22Z</time>
      </trkpt>
      <trkpt lat="42.0321096573" lon="-6.7270774394">
        <ele>968.18</ele>
        <time>2020-08-12T06:09:32Z</time>
      </trkpt>
      <trkpt lat="42.0320834219" lon="-6.7273008171">
        <ele>970.11</ele>
        <time>2020-08-12T06:09:38Z</time>
      </trkpt>
      <trkpt lat="42.0320398360" lon="-6.7276558746">
        <ele>973.47</ele>
        <time>2020-08-12T06:09:48Z</time>
      </trkpt>
      <trkpt lat="42.0320002735" lon="-6.7279920727">
        <ele>976.36</ele>
        <time>2020-08-12T06:09:57Z</time>
      </trkpt>
      <trkpt lat="42.0319593698" lon="-6.7283608764">
        <ele>978.76</ele>
        <time>2020-08-12T06:10:07Z</time>
      </trkpt>
      <trkpt lat="42.0319173764" lon="-6.7287580948">
        <ele>981.64</ele>
        <time>2020-08-12T06:10:18Z</time>
      </trkpt>
      <trkpt lat="42.0318833459" lon="-6.7290713266">
        <ele>983.09</ele>
        <time>2020-08-12T06:10:27Z</time>
      </trkpt>
      <trkpt lat="42.0318391733" lon="-6.7293977179">
        <ele>983.09</ele>
        <time>2020-08-12T06:10:36Z</time>
      </trkpt>
      <trkpt lat="42.0317918994" lon="-6.7297425494">
        <ele>982.12</ele>
        <time>2020-08-12T06:10:45Z</time>
      </trkpt>
      <trkpt lat="42.0317657478" lon="-6.7301282007">
        <ele>982.12</ele>
        <time>2020-08-12T06:10:55Z</time>
      </trkpt>
      <trkpt lat="42.0317360759" lon="-6.7304447014">
        <ele>982.60</ele>
        <time>2020-08-12T06:11:03Z</time>
      </trkpt>
      <trkpt lat="42.0316922385" lon="-6.7308172770">
        <ele>982.60</ele>
        <time>2020-08-12T06:11:12Z</time>
      </trkpt>
      <trkpt lat="42.0316497423" lon="-6.7312155850">
        <ele>982.60</ele>
        <time>2020-08-12T06:11:20Z</time>
      </trkpt>
      <trkpt lat="42.0315994509" lon="-6.7316687945">
        <ele>983.57</ele>
        <time>2020-08-12T06:11:29Z</time>
      </trkpt>
      <trkpt lat="42.0315376762" lon="-6.7322225031">
        <ele>984.53</ele>
        <time>2020-08-12T06:11:40Z</time>
      </trkpt>
      <trkpt lat="42.0314857084" lon="-6.7326531652">
        <ele>984.53</ele>
        <time>2020-08-12T06:11:49Z</time>
      </trkpt>
      <trkpt lat="42.0314463135" lon="-6.7330748588">
        <ele>985.49</ele>
        <time>2020-08-12T06:11:58Z</time>
      </trkpt>
      <trkpt lat="42.0313731395" lon="-6.7336454149">
        <ele>985.49</ele>
        <time>2020-08-12T06:12:11Z</time>
      </trkpt>
      <trkpt lat="42.0313289668" lon="-6.7340269592">
        <ele>984.53</ele>
        <time>2020-08-12T06:12:20Z</time>
      </trkpt>
      <trkpt lat="42.0312748197" lon="-6.7344453838">
        <ele>984.53</ele>
        <time>2020-08-12T06:12:30Z</time>
      </trkpt>
      <trkpt lat="42.0312371012" lon="-6.7348182108">
        <ele>985.49</ele>
        <time>2020-08-12T06:12:39Z</time>
      </trkpt>
      <trkpt lat="42.0311942697" lon="-6.7351870984">
        <ele>984.05</ele>
        <time>2020-08-12T06:12:48Z</time>
      </trkpt>
      <trkpt lat="42.0311288070" lon="-6.7356983107">
        <ele>983.57</ele>
        <time>2020-08-12T06:13:01Z</time>
      </trkpt>
      <trkpt lat="42.0310680382" lon="-6.7361581419">
        <ele>984.05</ele>
        <time>2020-08-12T06:13:12Z</time>
      </trkpt>
      <trkpt lat="42.0310109574" lon="-6.7366587091">
        <ele>985.01</ele>
        <time>2020-08-12T06:13:24Z</time>
      </trkpt>
      <trkpt lat="42.0309822913" lon="-6.7369919736">
        <ele>985.01</ele>
        <time>2020-08-12T06:13:32Z</time>
      </trkpt>
      <trkpt lat="42.0309460815" lon="-6.7373262439">
        <ele>985.01</ele>
        <time>2020-08-12T06:13:40Z</time>
      </trkpt>
      <trkpt lat="42.0309032500" lon="-6.7377679702">
        <ele>986.45</ele>
        <time>2020-08-12T06:13:50Z</time>
      </trkpt>
      <trkpt lat="42.0308617596" lon="-6.7381681222">
        <ele>987.41</ele>
        <time>2020-08-12T06:14:00Z</time>
      </trkpt>
      <trkpt lat="42.0308596641" lon="-6.7385051586">
        <ele>986.93</ele>
        <time>2020-08-12T06:14:09Z</time>
      </trkpt>
      <trkpt lat="42.0308625977" lon="-6.7386920750">
        <ele>986.45</ele>
        <time>2020-08-12T06:14:17Z</time>
      </trkpt>
      <trkpt lat="42.0308545511" lon="-6.7386714555">
        <ele>986.45</ele>
        <time>2020-08-12T06:14:30Z</time>
      </trkpt>
      <trkpt lat="42.0308482647" lon="-6.7386696953">
        <ele>986.93</ele>
        <time>2020-08-12T06:14:35Z</time>
      </trkpt>
      <trkpt lat="42.0308328420" lon="-6.7386562843">
        <ele>986.93</ele>
        <time>2020-08-12T06:14:37Z</time>
      </trkpt>
      <trkpt lat="42.0308211073" lon="-6.7386497464">
        <ele>987.41</ele>
        <time>2020-08-12T06:14:38Z</time>
      </trkpt>
      <trkpt lat="42.0308097079" lon="-6.7386561166">
        <ele>987.41</ele>
        <time>2020-08-12T06:14:39Z</time>
      </trkpt>
      <trkpt lat="42.0308029186" lon="-6.7386647500">
        <ele>987.41</ele>
        <time>2020-08-12T06:14:40Z</time>
      </trkpt>
      <trkpt lat="42.0307973027" lon="-6.7386829387">
        <ele>987.89</ele>
        <time>2020-08-12T06:14:41Z</time>
      </trkpt>
      <trkpt lat="42.0307947043" lon="-6.7387048993">
        <ele>987.89</ele>
        <time>2020-08-12T06:14:42Z</time>
      </trkpt>
      <trkpt lat="42.0307905134" lon="-6.7387238424">
        <ele>988.37</ele>
        <time>2020-08-12T06:14:43Z</time>
      </trkpt>
      <trkpt lat="42.0307859033" lon="-6.7387523409">
        <ele>988.37</ele>
        <time>2020-08-12T06:14:44Z</time>
      </trkpt>
      <trkpt lat="42.0307841431" lon="-6.7387802526">
        <ele>988.85</ele>
        <time>2020-08-12T06:14:45Z</time>
      </trkpt>
      <trkpt lat="42.0307825506" lon="-6.7388090864">
        <ele>988.85</ele>
        <time>2020-08-12T06:14:46Z</time>
      </trkpt>
      <trkpt lat="42.0307600033" lon="-6.7390405945">
        <ele>990.30</ele>
        <time>2020-08-12T06:14:54Z</time>
      </trkpt>
      <trkpt lat="42.0307165012" lon="-6.7394141760">
        <ele>991.26</ele>
        <time>2020-08-12T06:15:05Z</time>
      </trkpt>
      <trkpt lat="42.0306548104" lon="-6.7399336863">
        <ele>991.26</ele>
        <time>2020-08-12T06:15:19Z</time>
      </trkpt>
      <trkpt lat="42.0306160022" lon="-6.7403296474">
        <ele>992.22</ele>
        <time>2020-08-12T06:15:30Z</time>
      </trkpt>
      <trkpt lat="42.0305715781" lon="-6.7406842858">
        <ele>994.14</ele>
        <time>2020-08-12T06:15:40Z</time>
      </trkpt>
      <trkpt lat="42.0305370446" lon="-6.7411151994">
        <ele>994.62</ele>
        <time>2020-08-12T06:15:52Z</time>
      </trkpt>
      <trkpt lat="42.0305414870" lon="-6.7414019443">
        <ele>995.10</ele>
        <time>2020-08-12T06:16:01Z</time>
      </trkpt>
      <trkpt lat="42.0305804629" lon="-6.7416661419">
        <ele>996.06</ele>
        <time>2020-08-12T06:16:10Z</time>
      </trkpt>
      <trkpt lat="42.0306340232" lon="-6.7419206165">
        <ele>997.02</ele>
        <time>2020-08-12T06:16:21Z</time>
      </trkpt>
      <trkpt lat="42.0307133161" lon="-6.7422018293">
        <ele>998.47</ele>
        <time>2020-08-12T06:16:32Z</time>
      </trkpt>
      <trkpt lat="42.0308116358" lon="-6.7424753308">
        <ele>1000.39</ele>
        <time>2020-08-12T06:16:43Z</time>
      </trkpt>
      <trkpt lat="42.0308350213" lon="-6.7425860558">
        <ele>1000.87</ele>
        <time>2020-08-12T06:16:51Z</time>
      </trkpt>
      <trkpt lat="42.0308258012" lon="-6.7425934318">
        <ele>999.43</ele>
        <time>2020-08-12T06:17:05Z</time>
      </trkpt>
      <trkpt lat="42.0308267232" lon="-6.7426015623">
        <ele>998.95</ele>
        <time>2020-08-12T06:17:19Z</time>
      </trkpt>
      <trkpt lat="42.0308334287" lon="-6.7425959464">
        <ele>999.43</ele>
        <time>2020-08-12T06:17:31Z</time>
      </trkpt>
      <trkpt lat="42.0308315847" lon="-6.7425930966">
        <ele>998.47</ele>
        <time>2020-08-12T06:17:47Z</time>
      </trkpt>
      <trkpt lat="42.0308242925" lon="-6.7425972875">
        <ele>998.47</ele>
        <time>2020-08-12T06:18:00Z</time>
      </trkpt>
      <trkpt lat="42.0308275614" lon="-6.7426402867">
        <ele>997.99</ele>
        <time>2020-08-12T06:18:13Z</time>
      </trkpt>
      <trkpt lat="42.0308807865" lon="-6.7427908257">
        <ele>998.47</ele>
        <time>2020-08-12T06:18:20Z</time>
      </trkpt>
      <trkpt lat="42.0309538767" lon="-6.7430294584">
        <ele>999.91</ele>
        <time>2020-08-12T06:18:29Z</time>
      </trkpt>
      <trkpt lat="42.0310549624" lon="-6.7432284448">
        <ele>1001.83</ele>
        <time>2020-08-12T06:18:37Z</time>
      </trkpt>
      <trkpt lat="42.0311823674" lon="-6.7433384154">
        <ele>1002.79</ele>
        <time>2020-08-12T06:18:44Z</time>
      </trkpt>
      <trkpt lat="42.0312522724" lon="-6.7435109150">
        <ele>1003.75</ele>
        <time>2020-08-12T06:18:50Z</time>
      </trkpt>
      <trkpt lat="42.0311835408" lon="-6.7437782139">
        <ele>1003.75</ele>
        <time>2020-08-12T06:18:57Z</time>
      </trkpt>
      <trkpt lat="42.0311155636" lon="-6.7441285774">
        <ele>1004.23</ele>
        <time>2020-08-12T06:19:06Z</time>
      </trkpt>
      <trkpt lat="42.0310822036" lon="-6.7445415538">
        <ele>1005.68</ele>
        <time>2020-08-12T06:19:16Z</time>
      </trkpt>
      <trkpt lat="42.0310267992" lon="-6.7449332401">
        <ele>1007.12</ele>
        <time>2020-08-12T06:19:27Z</time>
      </trkpt>
      <trkpt lat="42.0309198461" lon="-6.7453600466">
        <ele>1007.60</ele>
        <time>2020-08-12T06:19:39Z</time>
      </trkpt>
      <trkpt lat="42.0308008231" lon="-6.7457072251">
        <ele>1008.56</ele>
        <time>2020-08-12T06:19:49Z</time>
      </trkpt>
      <trkpt lat="42.0306873322" lon="-6.7460267432">
        <ele>1009.04</ele>
        <time>2020-08-12T06:19:58Z</time>
      </trkpt>
      <trkpt lat="42.0305933710" lon="-6.7463238817">
        <ele>1010.00</ele>
        <time>2020-08-12T06:20:06Z</time>
      </trkpt>
      <trkpt lat="42.0305136591" lon="-6.7466825433">
        <ele>1010.00</ele>
        <time>2020-08-12T06:20:15Z</time>
      </trkpt>
      <trkpt lat="42.0304787904" lon="-6.7469586432">
        <ele>1010.48</ele>
        <time>2020-08-12T06:20:22Z</time>
      </trkpt>
      <trkpt lat="42.0304572489" lon="-6.7474532593">
        <ele>1010.48</ele>
        <time>2020-08-12T06:20:32Z</time>
      </trkpt>
      <trkpt lat="42.0304699056" lon="-6.7480461951">
        <ele>1009.52</ele>
        <time>2020-08-12T06:20:43Z</time>
      </trkpt>
      <trkpt lat="42.0304900222" lon="-6.7486148234">
        <ele>1008.08</ele>
        <time>2020-08-12T06:20:53Z</time>
      </trkpt>
      <trkpt lat="42.0305065345" lon="-6.7492299713">
        <ele>1008.08</ele>
        <time>2020-08-12T06:21:04Z</time>
      </trkpt>
      <trkpt lat="42.0305276569" lon="-6.7499982566">
        <ele>1008.08</ele>
        <time>2020-08-12T06:21:18Z</time>
      </trkpt>
      <trkpt lat="42.0305480249" lon="-6.7505588382">
        <ele>1007.12</ele>
        <time>2020-08-12T06:21:28Z</time>
      </trkpt>
      <trkpt lat="42.0305567421" lon="-6.7511000577">
        <ele>1007.12</ele>
        <time>2020-08-12T06:21:38Z</time>
      </trkpt>
      <trkpt lat="42.0305728354" lon="-6.7516487371">
        <ele>1008.56</ele>
        <time>2020-08-12T06:21:49Z</time>
      </trkpt>
      <trkpt lat="42.0305924490" lon="-6.7520847637">
        <ele>1010.96</ele>
        <time>2020-08-12T06:21:59Z</time>
      </trkpt>
      <trkpt lat="42.0305965561" lon="-6.7524357140">
        <ele>1012.41</ele>
        <time>2020-08-12T06:22:08Z</time>
      </trkpt>
      <trkpt lat="42.0306063630" lon="-6.7528216168">
        <ele>1013.37</ele>
        <time>2020-08-12T06:22:18Z</time>
      </trkpt>
      <trkpt lat="42.0306326821" lon="-6.7532140575">
        <ele>1013.37</ele>
        <time>2020-08-12T06:22:28Z</time>
      </trkpt>
      <trkpt lat="42.0306753460" lon="-6.7536970228">
        <ele>1013.85</ele>
        <time>2020-08-12T06:22:40Z</time>
      </trkpt>
      <trkpt lat="42.0307418145" lon="-6.7541573569">
        <ele>1013.85</ele>
        <time>2020-08-12T06:22:51Z</time>
      </trkpt>
      <trkpt lat="42.0308326744" lon="-6.7546371371">
        <ele>1013.85</ele>
        <time>2020-08-12T06:23:01Z</time>
      </trkpt>
      <trkpt lat="42.0309723169" lon="-6.7551698070">
        <ele>1015.29</ele>
        <time>2020-08-12T06:23:12Z</time>
      </trkpt>
      <trkpt lat="42.0311317407" lon="-6.7556369305">
        <ele>1016.73</ele>
        <time>2020-08-12T06:23:22Z</time>
      </trkpt>
      <trkpt lat="42.0312826149" lon="-6.7560613900">
        <ele>1016.73</ele>
        <time>2020-08-12T06:23:31Z</time>
      </trkpt>
      <trkpt lat="42.0315131173" lon="-6.7565871030">
        <ele>1016.73</ele>
        <time>2020-08-12T06:23:42Z</time>
      </trkpt>
      <trkpt lat="42.0317156240" lon="-6.7570569087">
        <ele>1017.21</ele>
        <time>2020-08-12T06:23:52Z</time>
      </trkpt>
      <trkpt lat="42.0319518261" lon="-6.7575980444">
        <ele>1016.73</ele>
        <time>2020-08-12T06:24:03Z</time>
      </trkpt>
      <trkpt lat="42.0321959909" lon="-6.7581259366">
        <ele>1017.21</ele>
        <time>2020-08-12T06:24:14Z</time>
      </trkpt>
      <trkpt lat="42.0323135052" lon="-6.7583998572">
        <ele>1018.17</ele>
        <time>2020-08-12T06:24:22Z</time>
      </trkpt>
      <trkpt lat="42.0325181074" lon="-6.7588772904">
        <ele>1019.13</ele>
        <time>2020-08-12T06:24:36Z</time>
      </trkpt>
      <trkpt lat="42.0326496195" lon="-6.7592039332">
        <ele>1020.58</ele>
        <time>2020-08-12T06:24:46Z</time>
      </trkpt>
      <trkpt lat="42.0327580813" lon="-6.7595156562">
        <ele>1022.98</ele>
        <time>2020-08-12T06:24:56Z</time>
      </trkpt>
      <trkpt lat="42.0328553952" lon="-6.7598227691">
        <ele>1024.90</ele>
        <time>2020-08-12T06:25:06Z</time>
      </trkpt>
      <trkpt lat="42.0329282340" lon="-6.7601289600">
        <ele>1026.34</ele>
        <time>2020-08-12T06:25:16Z</time>
      </trkpt>
      <trkpt lat="42.0329832193" lon="-6.7604311276">
        <ele>1027.79</ele>
        <time>2020-08-12T06:25:26Z</time>
      </trkpt>
      <trkpt lat="42.0330211893" lon="-6.7607726902">
        <ele>1027.79</ele>
        <time>2020-08-12T06:25:37Z</time>
      </trkpt>
      <trkpt lat="42.0330503583" lon="-6.7610794678">
        <ele>1028.75</ele>
        <time>2020-08-12T06:25:47Z</time>
      </trkpt>
      <trkpt lat="42.0330629312" lon="-6.7614283226">
        <ele>1029.71</ele>
        <time>2020-08-12T06:25:58Z</time>
      </trkpt>
      <trkpt lat="42.0330679603" lon="-6.7616744153">
        <ele>1030.67</ele>
        <time>2020-08-12T06:26:06Z</time>
      </trkpt>
      <trkpt lat="42.0330714807" lon="-6.7619313207">
        <ele>1032.59</ele>
        <time>2020-08-12T06:26:15Z</time>
      </trkpt>
      <trkpt lat="42.0330754202" lon="-6.7622298840">
        <ele>1034.04</ele>
        <time>2020-08-12T06:26:26Z</time>
      </trkpt>
      <trkpt lat="42.0330777671" lon="-6.7625297885">
        <ele>1035.00</ele>
        <time>2020-08-12T06:26:37Z</time>
      </trkpt>
      <trkpt lat="42.0330765937" lon="-6.7627909686">
        <ele>1035.48</ele>
        <time>2020-08-12T06:26:47Z</time>
      </trkpt>
      <trkpt lat="42.0330785215" lon="-6.7630802281">
        <ele>1036.44</ele>
        <time>2020-08-12T06:26:58Z</time>
      </trkpt>
      <trkpt lat="42.0330793597" lon="-6.7633751873">
        <ele>1037.88</ele>
        <time>2020-08-12T06:27:09Z</time>
      </trkpt>
      <trkpt lat="42.0330798626" lon="-6.7636100482">
        <ele>1038.84</ele>
        <time>2020-08-12T06:27:18Z</time>
      </trkpt>
      <trkpt lat="42.0330867358" lon="-6.7638560571">
        <ele>1039.32</ele>
        <time>2020-08-12T06:27:28Z</time>
      </trkpt>
      <trkpt lat="42.0330949500" lon="-6.7641241103">
        <ele>1039.80</ele>
        <time>2020-08-12T06:27:38Z</time>
      </trkpt>
      <trkpt lat="42.0331025776" lon="-6.7643893976">
        <ele>1040.28</ele>
        <time>2020-08-12T06:27:48Z</time>
      </trkpt>
      <trkpt lat="42.0331056789" lon="-6.7646385916">
        <ele>1041.73</ele>
        <time>2020-08-12T06:27:58Z</time>
      </trkpt>
      <trkpt lat="42.0331139769" lon="-6.7648807447">
        <ele>1042.69</ele>
        <time>2020-08-12T06:28:07Z</time>
      </trkpt>
      <trkpt lat="42.0331262145" lon="-6.7651359737">
        <ele>1043.65</ele>
        <time>2020-08-12T06:28:17Z</time>
      </trkpt>
      <trkpt lat="42.0331651904" lon="-6.7653755285">
        <ele>1045.57</ele>
        <time>2020-08-12T06:28:26Z</time>
      </trkpt>
      <trkpt lat="42.0331975445" lon="-6.7655771971">
        <ele>1047.49</ele>
        <time>2020-08-12T06:28:34Z</time>
      </trkpt>
      <trkpt lat="42.0332330838" lon="-6.7657458410">
        <ele>1048.94</ele>
        <time>2020-08-12T06:28:41Z</time>
      </trkpt>
      <trkpt lat="42.0332850516" lon="-6.7659367807">
        <ele>1050.38</ele>
        <time>2020-08-12T06:28:49Z</time>
      </trkpt>
      <trkpt lat="42.0333584771" lon="-6.7661808617">
        <ele>1051.34</ele>
        <time>2020-08-12T06:28:59Z</time>
      </trkpt>
      <trkpt lat="42.0334443916" lon="-6.7663851287">
        <ele>1052.30</ele>
        <time>2020-08-12T06:29:08Z</time>
      </trkpt>
      <trkpt lat="42.0335530210" lon="-6.7666487396">
        <ele>1053.26</ele>
        <time>2020-08-12T06:29:20Z</time>
      </trkpt>
      <trkpt lat="42.0336726308" lon="-6.7668804154">
        <ele>1054.70</ele>
        <time>2020-08-12T06:29:31Z</time>
      </trkpt>
      <trkpt lat="42.0337935816" lon="-6.7671016976">
        <ele>1055.18</ele>
        <time>2020-08-12T06:29:42Z</time>
      </trkpt>
      <trkpt lat="42.0339213219" lon="-6.7673213873">
        <ele>1056.63</ele>
        <time>2020-08-12T06:29:54Z</time>
      </trkpt>
      <trkpt lat="42.0340059791" lon="-6.7674654722">
        <ele>1057.59</ele>
        <time>2020-08-12T06:30:02Z</time>
      </trkpt>
      <trkpt lat="42.0340436976" lon="-6.7675341200">
        <ele>1059.03</ele>
        <time>2020-08-12T06:30:06Z</time>
      </trkpt>
      <trkpt lat="42.0340566896" lon="-6.7675637919">
        <ele>1059.51</ele>
        <time>2020-08-12T06:30:09Z</time>
      </trkpt>
      <trkpt lat="42.0340628922" lon="-6.7675761972">
        <ele>1059.03</ele>
        <time>2020-08-12T06:30:10Z</time>
      </trkpt>
      <trkpt lat="42.0340717770" lon="-6.7675879318">
        <ele>1059.03</ele>
        <time>2020-08-12T06:30:11Z</time>
      </trkpt>
      <trkpt lat="42.0340956654" lon="-6.7676098086">
        <ele>1058.55</ele>
        <time>2020-08-12T06:30:18Z</time>
      </trkpt>
      <trkpt lat="42.0341055561" lon="-6.7676349543">
        <ele>1057.11</ele>
        <time>2020-08-12T06:30:31Z</time>
      </trkpt>
      <trkpt lat="42.0341042150" lon="-6.7676178552">
        <ele>1057.11</ele>
        <time>2020-08-12T06:30:47Z</time>
      </trkpt>
      <trkpt lat="42.0341070648" lon="-6.7676227167">
        <ele>1057.11</ele>
        <time>2020-08-12T06:30:54Z</time>
      </trkpt>
      <trkpt lat="42.0341056399" lon="-6.7676244769">
        <ele>1056.63</ele>
        <time>2020-08-12T06:31:11Z</time>
      </trkpt>
      <trkpt lat="42.0341154467" lon="-6.7676462699">
        <ele>1056.63</ele>
        <time>2020-08-12T06:31:20Z</time>
      </trkpt>
      <trkpt lat="42.0341988467" lon="-6.7677769437">
        <ele>1059.03</ele>
        <time>2020-08-12T06:31:28Z</time>
      </trkpt>
      <trkpt lat="42.0343097392" lon="-6.7679534666">
        <ele>1060.95</ele>
        <time>2020-08-12T06:31:37Z</time>
      </trkpt>
      <trkpt lat="42.0344306063" lon="-6.7681587394">
        <ele>1061.91</ele>
        <time>2020-08-12T06:31:47Z</time>
      </trkpt>
      <trkpt lat="42.0345373079" lon="-6.7683380283">
        <ele>1062.39</ele>
        <time>2020-08-12T06:31:56Z</time>
      </trkpt>
      <trkpt lat="42.0346368011" lon="-6.7685157247">
        <ele>1063.84</ele>
        <time>2020-08-12T06:32:05Z</time>
      </trkpt>
      <trkpt lat="42.0347766951" lon="-6.7687462270">
        <ele>1065.76</ele>
        <time>2020-08-12T06:32:16Z</time>
      </trkpt>
      <trkpt lat="42.0348780323" lon="-6.7689278629">
        <ele>1067.68</ele>
        <time>2020-08-12T06:32:25Z</time>
      </trkpt>
      <trkpt lat="42.0349818002" lon="-6.7691301182">
        <ele>1070.08</ele>
        <time>2020-08-12T06:32:35Z</time>
      </trkpt>
      <trkpt lat="42.0350465924" lon="-6.7692802381">
        <ele>1071.53</ele>
        <time>2020-08-12T06:32:42Z</time>
      </trkpt>
      <trkpt lat="42.0351258852" lon="-6.7694444396">
        <ele>1072.49</ele>
        <time>2020-08-12T06:32:50Z</time>
      </trkpt>
      <trkpt lat="42.0351918507" lon="-6.7696359660">
        <ele>1073.45</ele>
        <time>2020-08-12T06:32:59Z</time>
      </trkpt>
      <trkpt lat="42.0352458302" lon="-6.7698093038">
        <ele>1074.89</ele>
        <time>2020-08-12T06:33:07Z</time>
      </trkpt>
      <trkpt lat="42.0353216026" lon="-6.7700819671">
        <ele>1076.33</ele>
        <time>2020-08-12T06:33:19Z</time>
      </trkpt>
      <trkpt lat="42.0353810303" lon="-6.7703676224">
        <ele>1078.26</ele>
        <time>2020-08-12T06:33:30Z</time>
      </trkpt>
      <trkpt lat="42.0354243647" lon="-6.7706148885">
        <ele>1080.66</ele>
        <time>2020-08-12T06:33:40Z</time>
      </trkpt>
      <trkpt lat="42.0354630053" lon="-6.7708105221">
        <ele>1082.10</ele>
        <time>2020-08-12T06:33:49Z</time>
      </trkpt>
      <trkpt lat="42.0354941860" lon="-6.7710166331">
        <ele>1083.06</ele>
        <time>2020-08-12T06:33:58Z</time>
      </trkpt>
      <trkpt lat="42.0355320722" lon="-6.7712529190">
        <ele>1084.02</ele>
        <time>2020-08-12T06:34:08Z</time>
      </trkpt>
      <trkpt lat="42.0355708804" lon="-6.7714705132">
        <ele>1084.50</ele>
        <time>2020-08-12T06:34:17Z</time>
      </trkpt>
      <trkpt lat="42.0356236864" lon="-6.7717565876">
        <ele>1085.95</ele>
        <time>2020-08-12T06:34:29Z</time>
      </trkpt>
      <trkpt lat="42.0356909093" lon="-6.7720573302">
        <ele>1086.91</ele>
        <time>2020-08-12T06:34:41Z</time>
      </trkpt>
      <trkpt lat="42.0357563719" lon="-6.7722957954">
        <ele>1087.87</ele>
        <time>2020-08-12T06:34:51Z</time>
      </trkpt>
      <trkpt lat="42.0358484052" lon="-6.7725687101">
        <ele>1087.39</ele>
        <time>2020-08-12T06:35:03Z</time>
      </trkpt>
      <trkpt lat="42.0359696914" lon="-6.7728571314">
        <ele>1088.83</ele>
        <time>2020-08-12T06:35:16Z</time>
      </trkpt>
      <trkpt lat="42.0360571984" lon="-6.7730237637">
        <ele>1090.27</ele>
        <time>2020-08-12T06:35:25Z</time>
      </trkpt>
      <trkpt lat="42.0361798257" lon="-6.7732287012">
        <ele>1090.75</ele>
        <time>2020-08-12T06:35:36Z</time>
      </trkpt>
      <trkpt lat="42.0362539217" lon="-6.7733409349">
        <ele>1092.20</ele>
        <time>2020-08-12T06:35:44Z</time>
      </trkpt>
      <trkpt lat="42.0363833383" lon="-6.7735063937">
        <ele>1094.12</ele>
        <time>2020-08-12T06:35:54Z</time>
      </trkpt>
      <trkpt lat="42.0365130063" lon="-6.7736826651">
        <ele>1095.56</ele>
        <time>2020-08-12T06:36:04Z</time>
      </trkpt>
      <trkpt lat="42.0366767049" lon="-6.7738694139">
        <ele>1098.44</ele>
        <time>2020-08-12T06:36:16Z</time>
      </trkpt>
      <trkpt lat="42.0368079655" lon="-6.7740271613">
        <ele>1099.40</ele>
        <time>2020-08-12T06:36:26Z</time>
      </trkpt>
      <trkpt lat="42.0369587559" lon="-6.7742117308">
        <ele>1100.85</ele>
        <time>2020-08-12T06:36:37Z</time>
      </trkpt>
      <trkpt lat="42.0371085405" lon="-6.7743851524">
        <ele>1101.81</ele>
        <time>2020-08-12T06:36:48Z</time>
      </trkpt>
      <trkpt lat="42.0372444950" lon="-6.7745349370">
        <ele>1103.73</ele>
        <time>2020-08-12T06:36:58Z</time>
      </trkpt>
      <trkpt lat="42.0373547170" lon="-6.7746655270">
        <ele>1104.69</ele>
        <time>2020-08-12T06:37:06Z</time>
      </trkpt>
      <trkpt lat="42.0374781825" lon="-6.7748278007">
        <ele>1106.13</ele>
        <time>2020-08-12T06:37:16Z</time>
      </trkpt>
      <trkpt lat="42.0376030728" lon="-6.7749609053">
        <ele>1107.58</ele>
        <time>2020-08-12T06:37:25Z</time>
      </trkpt>
      <trkpt lat="42.0377596468" lon="-6.7751371767">
        <ele>1109.02</ele>
        <time>2020-08-12T06:37:36Z</time>
      </trkpt>
      <trkpt lat="42.0379031450" lon="-6.7753037252">
        <ele>1109.98</ele>
        <time>2020-08-12T06:37:46Z</time>
      </trkpt>
      <trkpt lat="42.0380318072" lon="-6.7754468881">
        <ele>1110.94</ele>
        <time>2020-08-12T06:37:55Z</time>
      </trkpt>
      <trkpt lat="42.0381737128" lon="-6.7756030429">
        <ele>1111.42</ele>
        <time>2020-08-12T06:38:05Z</time>
      </trkpt>
      <trkpt lat="42.0383534208" lon="-6.7757913005">
        <ele>1112.38</ele>
        <time>2020-08-12T06:38:17Z</time>
      </trkpt>
      <trkpt lat="42.0385098271" lon="-6.7759762052">
        <ele>1113.34</ele>
        <time>2020-08-12T06:38:28Z</time>
      </trkpt>
      <trkpt lat="42.0386476256" lon="-6.7761322763">
        <ele>1114.31</ele>
        <time>2020-08-12T06:38:39Z</time>
      </trkpt>
      <trkpt lat="42.0387370605" lon="-6.7762562446">
        <ele>1114.79</ele>
        <time>2020-08-12T06:38:47Z</time>
      </trkpt>
      <trkpt lat="42.0388803072" lon="-6.7764079571">
        <ele>1115.75</ele>
        <time>2020-08-12T06:38:57Z</time>
      </trkpt>
      <trkpt lat="42.0389989950" lon="-6.7765569035">
        <ele>1116.71</ele>
        <time>2020-08-12T06:39:06Z</time>
      </trkpt>
      <trkpt lat="42.0391419902" lon="-6.7767307442">
        <ele>1118.15</ele>
        <time>2020-08-12T06:39:17Z</time>
      </trkpt>
      <trkpt lat="42.0392633602" lon="-6.7769065965">
        <ele>1118.63</ele>
        <time>2020-08-12T06:39:27Z</time>
      </trkpt>
      <trkpt lat="42.0393136516" lon="-6.7769728135">
        <ele>1118.63</ele>
        <time>2020-08-12T06:39:31Z</time>
      </trkpt>
      <trkpt lat="42.0393232070" lon="-6.7769925110">
        <ele>1119.11</ele>
        <time>2020-08-12T06:39:32Z</time>
      </trkpt>
      <trkpt lat="42.0393936988" lon="-6.7770967819">
        <ele>1119.11</ele>
        <time>2020-08-12T06:39:38Z</time>
      </trkpt>
      <trkpt lat="42.0394052658" lon="-6.7771146353">
        <ele>1119.11</ele>
        <time>2020-08-12T06:39:39Z</time>
      </trkpt>
      <trkpt lat="42.0394179225" lon="-6.7771312315">
        <ele>1119.11</ele>
        <time>2020-08-12T06:39:40Z</time>
      </trkpt>
      <trkpt lat="42.0394281484" lon="-6.7771481629">
        <ele>1119.11</ele>
        <time>2020-08-12T06:39:41Z</time>
      </trkpt>
      <trkpt lat="42.0394386258" lon="-6.7771675251">
        <ele>1119.11</ele>
        <time>2020-08-12T06:39:42Z</time>
      </trkpt>
      <trkpt lat="42.0394499414" lon="-6.7771863006">
        <ele>1119.11</ele>
        <time>2020-08-12T06:39:43Z</time>
      </trkpt>
      <trkpt lat="42.0395458303" lon="-6.7773294635">
        <ele>1120.07</ele>
        <time>2020-08-12T06:39:51Z</time>
      </trkpt>
      <trkpt lat="42.0396527834" lon="-6.7775270250">
        <ele>1120.07</ele>
        <time>2020-08-12T06:40:01Z</time>
      </trkpt>
      <trkpt lat="42.0397492591" lon="-6.7777265981">
        <ele>1121.03</ele>
        <time>2020-08-12T06:40:10Z</time>
      </trkpt>
      <trkpt lat="42.0398581401" lon="-6.7779739480">
        <ele>1122.96</ele>
        <time>2020-08-12T06:40:21Z</time>
      </trkpt>
      <trkpt lat="42.0399660990" lon="-6.7782210466">
        <ele>1123.44</ele>
        <time>2020-08-12T06:40:32Z</time>
      </trkpt>
      <trkpt lat="42.0400677714" lon="-6.7785119824">
        <ele>1124.88</ele>
        <time>2020-08-12T06:40:44Z</time>
      </trkpt>
      <trkpt lat="42.0401562005" lon="-6.7788174190">
        <ele>1126.32</ele>
        <time>2020-08-12T06:40:56Z</time>
      </trkpt>
      <trkpt lat="42.0402112696" lon="-6.7790749110">
        <ele>1128.24</ele>
        <time>2020-08-12T06:41:06Z</time>
      </trkpt>
      <trkpt lat="42.0402814262" lon="-6.7794034816">
        <ele>1129.69</ele>
        <time>2020-08-12T06:41:18Z</time>
      </trkpt>
      <trkpt lat="42.0403188933" lon="-6.7796837725">
        <ele>1129.69</ele>
        <time>2020-08-12T06:41:28Z</time>
      </trkpt>
      <trkpt lat="42.0403444581" lon="-6.7798918113">
        <ele>1130.17</ele>
        <time>2020-08-12T06:41:36Z</time>
      </trkpt>
      <trkpt lat="42.0403689332" lon="-6.7800742015">
        <ele>1130.17</ele>
        <time>2020-08-12T06:41:43Z</time>
      </trkpt>
      <trkpt lat="42.0403838530" lon="-6.7802808154">
        <ele>1129.69</ele>
        <time>2020-08-12T06:41:51Z</time>
      </trkpt>
      <trkpt lat="42.0404029638" lon="-6.7804279178">
        <ele>1128.73</ele>
        <time>2020-08-12T06:41:58Z</time>
      </trkpt>
      <trkpt lat="42.0404062327" lon="-6.7807103042">
        <ele>1128.73</ele>
        <time>2020-08-12T06:42:07Z</time>
      </trkpt>
      <trkpt lat="42.0404204819" lon="-6.7810331751">
        <ele>1128.24</ele>
        <time>2020-08-12T06:42:18Z</time>
      </trkpt>
      <trkpt lat="42.0404223260" lon="-6.7812927626">
        <ele>1127.76</ele>
        <time>2020-08-12T06:42:27Z</time>
      </trkpt>
      <trkpt lat="42.0404271875" lon="-6.7815866321">
        <ele>1127.28</ele>
        <time>2020-08-12T06:42:37Z</time>
      </trkpt>
      <trkpt lat="42.0404342283" lon="-6.7818721198">
        <ele>1126.80</ele>
        <time>2020-08-12T06:42:47Z</time>
      </trkpt>
      <trkpt lat="42.0404383354" lon="-6.7821020354">
        <ele>1126.80</ele>
        <time>2020-08-12T06:42:55Z</time>
      </trkpt>
      <trkpt lat="42.0404328033" lon="-6.7824406642">
        <ele>1128.24</ele>
        <time>2020-08-12T06:43:07Z</time>
      </trkpt>
      <trkpt lat="42.0404299535" lon="-6.7826875951">
        <ele>1129.21</ele>
        <time>2020-08-12T06:43:16Z</time>
      </trkpt>
      <trkpt lat="42.0404286962" lon="-6.7829102185">
        <ele>1130.17</ele>
        <time>2020-08-12T06:43:24Z</time>
      </trkpt>
      <trkpt lat="42.0404278580" lon="-6.7831033375">
        <ele>1130.65</ele>
        <time>2020-08-12T06:43:32Z</time>
      </trkpt>
      <trkpt lat="42.0404393412" lon="-6.7833362706">
        <ele>1131.61</ele>
        <time>2020-08-12T06:43:41Z</time>
      </trkpt>
      <trkpt lat="42.0404436160" lon="-6.7833911721">
        <ele>1131.61</ele>
        <time>2020-08-12T06:43:46Z</time>
      </trkpt>
      <trkpt lat="42.0404479746" lon="-6.7833974585">
        <ele>1132.57</ele>
        <time>2020-08-12T06:43:59Z</time>
      </trkpt>
      <trkpt lat="42.0404407661" lon="-6.7833884899">
        <ele>1132.09</ele>
        <time>2020-08-12T06:44:15Z</time>
      </trkpt>
      <trkpt lat="42.0404448733" lon="-6.7833932675">
        <ele>1132.09</ele>
        <time>2020-08-12T06:44:28Z</time>
      </trkpt>
      <trkpt lat="42.0404419396" lon="-6.7833961174">
        <ele>1132.57</ele>
        <time>2020-08-12T06:44:46Z</time>
      </trkpt>
      <trkpt lat="42.0404364914" lon="-6.7833995540">
        <ele>1133.53</ele>
        <time>2020-08-12T06:44:53Z</time>
      </trkpt>
      <trkpt lat="42.0404300373" lon="-6.7833827902">
        <ele>1134.49</ele>
        <time>2020-08-12T06:45:04Z</time>
      </trkpt>
      <trkpt lat="42.0404280256" lon="-6.7833854724">
        <ele>1135.94</ele>
        <time>2020-08-12T06:45:19Z</time>
      </trkpt>
      <trkpt lat="42.0404240023" lon="-6.7834034935">
        <ele>1137.86</ele>
        <time>2020-08-12T06:45:39Z</time>
      </trkpt>
      <trkpt lat="42.0404240023" lon="-6.7834142223">
        <ele>1135.94</ele>
        <time>2020-08-12T06:45:47Z</time>
      </trkpt>
      <trkpt lat="42.0404276066" lon="-6.7834451515">
        <ele>1135.94</ele>
        <time>2020-08-12T06:45:49Z</time>
      </trkpt>
      <trkpt lat="42.0404255949" lon="-6.7834645137">
        <ele>1135.94</ele>
        <time>2020-08-12T06:45:50Z</time>
      </trkpt>
      <trkpt lat="42.0404262654" lon="-6.7834868096">
        <ele>1135.94</ele>
        <time>2020-08-12T06:45:51Z</time>
      </trkpt>
      <trkpt lat="42.0404292829" lon="-6.7835114524">
        <ele>1135.94</ele>
        <time>2020-08-12T06:45:52Z</time>
      </trkpt>
      <trkpt lat="42.0404333062" lon="-6.7835369334">
        <ele>1135.94</ele>
        <time>2020-08-12T06:45:53Z</time>
      </trkpt>
      <trkpt lat="42.0404334739" lon="-6.7835604027">
        <ele>1135.94</ele>
        <time>2020-08-12T06:45:54Z</time>
      </trkpt>
      <trkpt lat="42.0404315460" lon="-6.7835868895">
        <ele>1135.94</ele>
        <time>2020-08-12T06:45:55Z</time>
      </trkpt>
      <trkpt lat="42.0404353179" lon="-6.7838068306">
        <ele>1136.42</ele>
        <time>2020-08-12T06:46:03Z</time>
      </trkpt>
      <trkpt lat="42.0404440351" lon="-6.7840949167">
        <ele>1136.90</ele>
        <time>2020-08-12T06:46:13Z</time>
      </trkpt>
      <trkpt lat="42.0404415205" lon="-6.7843650654">
        <ele>1137.38</ele>
        <time>2020-08-12T06:46:22Z</time>
      </trkpt>
      <trkpt lat="42.0404436160" lon="-6.7846534029">
        <ele>1138.82</ele>
        <time>2020-08-12T06:46:32Z</time>
      </trkpt>
      <trkpt lat="42.0404442027" lon="-6.7849550676">
        <ele>1140.26</ele>
        <time>2020-08-12T06:46:44Z</time>
      </trkpt>
      <trkpt lat="42.0404488128" lon="-6.7852112185">
        <ele>1140.74</ele>
        <time>2020-08-12T06:46:54Z</time>
      </trkpt>
      <trkpt lat="42.0404441189" lon="-6.7854905874">
        <ele>1142.18</ele>
        <time>2020-08-12T06:47:05Z</time>
      </trkpt>
      <trkpt lat="42.0404250920" lon="-6.7857217602">
        <ele>1143.63</ele>
        <time>2020-08-12T06:47:14Z</time>
      </trkpt>
      <trkpt lat="42.0404073223" lon="-6.7859715410">
        <ele>1144.59</ele>
        <time>2020-08-12T06:47:24Z</time>
      </trkpt>
      <trkpt lat="42.0403926540" lon="-6.7861378379">
        <ele>1145.07</ele>
        <time>2020-08-12T06:47:31Z</time>
      </trkpt>
      <trkpt lat="42.0403745491" lon="-6.7863256764">
        <ele>1144.59</ele>
        <time>2020-08-12T06:47:39Z</time>
      </trkpt>
      <trkpt lat="42.0403292868" lon="-6.7865032889">
        <ele>1145.07</ele>
        <time>2020-08-12T06:47:47Z</time>
      </trkpt>
      <trkpt lat="42.0403005369" lon="-6.7866618745">
        <ele>1145.07</ele>
        <time>2020-08-12T06:47:54Z</time>
      </trkpt>
      <trkpt lat="42.0402524248" lon="-6.7868425883">
        <ele>1146.03</ele>
        <time>2020-08-12T06:48:02Z</time>
      </trkpt>
      <trkpt lat="42.0401981100" lon="-6.7870254815">
        <ele>1146.03</ele>
        <time>2020-08-12T06:48:10Z</time>
      </trkpt>
      <trkpt lat="42.0401097648" lon="-6.7872504517">
        <ele>1146.99</ele>
        <time>2020-08-12T06:48:20Z</time>
      </trkpt>
      <trkpt lat="42.0400247723" lon="-6.7874418944">
        <ele>1147.47</ele>
        <time>2020-08-12T06:48:29Z</time>
      </trkpt>
      <trkpt lat="42.0399553701" lon="-6.7875765078">
        <ele>1146.99</ele>
        <time>2020-08-12T06:48:36Z</time>
      </trkpt>
      <trkpt lat="42.0399438869" lon="-6.7875967082">
        <ele>1146.99</ele>
        <time>2020-08-12T06:48:37Z</time>
      </trkpt>
      <trkpt lat="42.0398222655" lon="-6.7877918389">
        <ele>1147.95</ele>
        <time>2020-08-12T06:48:47Z</time>
      </trkpt>
      <trkpt lat="42.0397287235" lon="-6.7879352532">
        <ele>1148.43</ele>
        <time>2020-08-12T06:48:54Z</time>
      </trkpt>
      <trkpt lat="42.0397130493" lon="-6.7879495863">
        <ele>1148.43</ele>
        <time>2020-08-12T06:48:55Z</time>
      </trkpt>
      <trkpt lat="42.0395986363" lon="-6.7881116923">
        <ele>1151.32</ele>
        <time>2020-08-12T06:49:03Z</time>
      </trkpt>
      <trkpt lat="42.0394665375" lon="-6.7882784083">
        <ele>1153.24</ele>
        <time>2020-08-12T06:49:12Z</time>
      </trkpt>
      <trkpt lat="42.0393315051" lon="-6.7884364910">
        <ele>1154.68</ele>
        <time>2020-08-12T06:49:21Z</time>
      </trkpt>
      <trkpt lat="42.0391907729" lon="-6.7886110023">
        <ele>1156.12</ele>
        <time>2020-08-12T06:49:31Z</time>
      </trkpt>
      <trkpt lat="42.0390819758" lon="-6.7887497228">
        <ele>1157.56</ele>
        <time>2020-08-12T06:49:39Z</time>
      </trkpt>
      <trkpt lat="42.0389235578" lon="-6.7889226414">
        <ele>1159.49</ele>
        <time>2020-08-12T06:49:50Z</time>
      </trkpt>
      <trkpt lat="42.0389025193" lon="-6.7889285088">
        <ele>1159.49</ele>
        <time>2020-08-12T06:49:51Z</time>
      </trkpt>
      <trkpt lat="42.0388777088" lon="-6.7889312748">
        <ele>1159.97</ele>
        <time>2020-08-12T06:49:52Z</time>
      </trkpt>
      <trkpt lat="42.0387287624" lon="-6.7890130822">
        <ele>1160.93</ele>
        <time>2020-08-12T06:50:01Z</time>
      </trkpt>
      <trkpt lat="42.0387151837" lon="-6.7890183628">
        <ele>1159.97</ele>
        <time>2020-08-12T06:50:07Z</time>
      </trkpt>
      <trkpt lat="42.0387254097" lon="-6.7890126631">
        <ele>1159.49</ele>
        <time>2020-08-12T06:50:23Z</time>
      </trkpt>
      <trkpt lat="42.0387166925" lon="-6.7890180275">
        <ele>1159.01</ele>
        <time>2020-08-12T06:50:26Z</time>
      </trkpt>
      <trkpt lat="42.0387091488" lon="-6.7890308518">
        <ele>1159.01</ele>
        <time>2020-08-12T06:50:27Z</time>
      </trkpt>
      <trkpt lat="42.0387096517" lon="-6.7890515551">
        <ele>1159.01</ele>
        <time>2020-08-12T06:50:28Z</time>
      </trkpt>
      <trkpt lat="42.0387125853" lon="-6.7890737671">
        <ele>1159.01</ele>
        <time>2020-08-12T06:50:29Z</time>
      </trkpt>
      <trkpt lat="42.0387143455" lon="-6.7890925426">
        <ele>1159.49</ele>
        <time>2020-08-12T06:50:30Z</time>
      </trkpt>
      <trkpt lat="42.0387136750" lon="-6.7891137488">
        <ele>1159.49</ele>
        <time>2020-08-12T06:50:31Z</time>
      </trkpt>
      <trkpt lat="42.0387125853" lon="-6.7891353741">
        <ele>1159.49</ele>
        <time>2020-08-12T06:50:32Z</time>
      </trkpt>
      <trkpt lat="42.0387120824" lon="-6.7891585920">
        <ele>1159.49</ele>
        <time>2020-08-12T06:50:33Z</time>
      </trkpt>
      <trkpt lat="42.0387065504" lon="-6.7891790438">
        <ele>1159.49</ele>
        <time>2020-08-12T06:50:34Z</time>
      </trkpt>
      <trkpt lat="42.0386961568" lon="-6.7891963944">
        <ele>1159.97</ele>
        <time>2020-08-12T06:50:35Z</time>
      </trkpt>
      <trkpt lat="42.0386851765" lon="-6.7892122362">
        <ele>1159.97</ele>
        <time>2020-08-12T06:50:36Z</time>
      </trkpt>
      <trkpt lat="42.0385810733" lon="-6.7893392220">
        <ele>1161.41</ele>
        <time>2020-08-12T06:50:45Z</time>
      </trkpt>
      <trkpt lat="42.0384718571" lon="-6.7894752603">
        <ele>1163.33</ele>
        <time>2020-08-12T06:50:54Z</time>
      </trkpt>
      <trkpt lat="42.0383386686" lon="-6.7896334268">
        <ele>1164.77</ele>
        <time>2020-08-12T06:51:04Z</time>
      </trkpt>
      <trkpt lat="42.0382147841" lon="-6.7897911742">
        <ele>1164.77</ele>
        <time>2020-08-12T06:51:13Z</time>
      </trkpt>
      <trkpt lat="42.0380731300" lon="-6.7899573036">
        <ele>1165.26</ele>
        <time>2020-08-12T06:51:23Z</time>
      </trkpt>
      <trkpt lat="42.0379492454" lon="-6.7900997959">
        <ele>1166.70</ele>
        <time>2020-08-12T06:51:32Z</time>
      </trkpt>
      <trkpt lat="42.0378409512" lon="-6.7902277038">
        <ele>1168.62</ele>
        <time>2020-08-12T06:51:41Z</time>
      </trkpt>
      <trkpt lat="42.0377165638" lon="-6.7903727107">
        <ele>1169.58</ele>
        <time>2020-08-12T06:51:50Z</time>
      </trkpt>
      <trkpt lat="42.0375417173" lon="-6.7905939091">
        <ele>1170.54</ele>
        <time>2020-08-12T06:52:03Z</time>
      </trkpt>
      <trkpt lat="42.0374350157" lon="-6.7907326296">
        <ele>1171.50</ele>
        <time>2020-08-12T06:52:11Z</time>
      </trkpt>
      <trkpt lat="42.0373377856" lon="-6.7908566818">
        <ele>1172.47</ele>
        <time>2020-08-12T06:52:19Z</time>
      </trkpt>
      <trkpt lat="42.0372335985" lon="-6.7910188716">
        <ele>1173.43</ele>
        <time>2020-08-12T06:52:28Z</time>
      </trkpt>
      <trkpt lat="42.0371332671" lon="-6.7911859229">
        <ele>1174.87</ele>
        <time>2020-08-12T06:52:37Z</time>
      </trkpt>
      <trkpt lat="42.0370517951" lon="-6.7913585901">
        <ele>1176.79</ele>
        <time>2020-08-12T06:52:46Z</time>
      </trkpt>
      <trkpt lat="42.0369596779" lon="-6.7915792018">
        <ele>1178.23</ele>
        <time>2020-08-12T06:52:57Z</time>
      </trkpt>
      <trkpt lat="42.0368869230" lon="-6.7918015737">
        <ele>1178.71</ele>
        <time>2020-08-12T06:53:07Z</time>
      </trkpt>
      <trkpt lat="42.0368393138" lon="-6.7919806112">
        <ele>1179.67</ele>
        <time>2020-08-12T06:53:16Z</time>
      </trkpt>
      <trkpt lat="42.0367865916" lon="-6.7922356725">
        <ele>1180.64</ele>
        <time>2020-08-12T06:53:27Z</time>
      </trkpt>
      <trkpt lat="42.0367611106" lon="-6.7924673483">
        <ele>1181.60</ele>
        <time>2020-08-12T06:53:37Z</time>
      </trkpt>
      <trkpt lat="42.0367529802" lon="-6.7926299572">
        <ele>1181.60</ele>
        <time>2020-08-12T06:53:44Z</time>
      </trkpt>
      <trkpt lat="42.0367448498" lon="-6.7927612178">
        <ele>1182.56</ele>
        <time>2020-08-12T06:53:51Z</time>
      </trkpt>
      <trkpt lat="42.0367409941" lon="-6.7929560971">
        <ele>1183.52</ele>
        <time>2020-08-12T06:53:59Z</time>
      </trkpt>
      <trkpt lat="42.0367492922" lon="-6.7932280898">
        <ele>1185.44</ele>
        <time>2020-08-12T06:54:10Z</time>
      </trkpt>
      <trkpt lat="42.0367777068" lon="-6.7934476119">
        <ele>1186.88</ele>
        <time>2020-08-12T06:54:20Z</time>
      </trkpt>
      <trkpt lat="42.0368028525" lon="-6.7935820576">
        <ele>1187.85</ele>
        <time>2020-08-12T06:54:27Z</time>
      </trkpt>
      <trkpt lat="42.0368265733" lon="-6.7937408946">
        <ele>1189.29</ele>
        <time>2020-08-12T06:54:35Z</time>
      </trkpt>
      <trkpt lat="42.0367964823" lon="-6.7938733287">
        <ele>1189.29</ele>
        <time>2020-08-12T06:54:42Z</time>
      </trkpt>
      <trkpt lat="42.0367769524" lon="-6.7940071877">
        <ele>1189.77</ele>
        <time>2020-08-12T06:54:50Z</time>
      </trkpt>
      <trkpt lat="42.0367863402" lon="-6.7940139771">
        <ele>1190.25</ele>
        <time>2020-08-12T06:55:02Z</time>
      </trkpt>
      <trkpt lat="42.0367768686" lon="-6.7940343451">
        <ele>1190.25</ele>
        <time>2020-08-12T06:55:16Z</time>
      </trkpt>
      <trkpt lat="42.0367637929" lon="-6.7940299027">
        <ele>1190.25</ele>
        <time>2020-08-12T06:55:29Z</time>
      </trkpt>
      <trkpt lat="42.0367677324" lon="-6.7940260470">
        <ele>1190.73</ele>
        <time>2020-08-12T06:55:49Z</time>
      </trkpt>
      <trkpt lat="42.0367729291" lon="-6.7940314114">
        <ele>1189.77</ele>
        <time>2020-08-12T06:56:03Z</time>
      </trkpt>
      <trkpt lat="42.0367862564" lon="-6.7940457445">
        <ele>1190.25</ele>
        <time>2020-08-12T06:56:20Z</time>
      </trkpt>
      <trkpt lat="42.0367757790" lon="-6.7940441519">
        <ele>1190.25</ele>
        <time>2020-08-12T06:56:35Z</time>
      </trkpt>
      <trkpt lat="42.0367829874" lon="-6.7940479238">
        <ele>1190.73</ele>
        <time>2020-08-12T06:56:48Z</time>
      </trkpt>
      <trkpt lat="42.0367907826" lon="-6.7940433975">
        <ele>1190.25</ele>
        <time>2020-08-12T06:57:00Z</time>
      </trkpt>
      <trkpt lat="42.0368032716" lon="-6.7940473370">
        <ele>1190.73</ele>
        <time>2020-08-12T06:57:02Z</time>
      </trkpt>
      <trkpt lat="42.0368687343" lon="-6.7940386198">
        <ele>1190.73</ele>
        <time>2020-08-12T06:57:06Z</time>
      </trkpt>
      <trkpt lat="42.0368926227" lon="-6.7940461636">
        <ele>1190.73</ele>
        <time>2020-08-12T06:57:07Z</time>
      </trkpt>
      <trkpt lat="42.0369102247" lon="-6.7940580659">
        <ele>1190.73</ele>
        <time>2020-08-12T06:57:08Z</time>
      </trkpt>
      <trkpt lat="42.0369245578" lon="-6.7940710578">
        <ele>1190.73</ele>
        <time>2020-08-12T06:57:09Z</time>
      </trkpt>
      <trkpt lat="42.0369351190" lon="-6.7940961197">
        <ele>1191.21</ele>
        <time>2020-08-12T06:57:11Z</time>
      </trkpt>
      <trkpt lat="42.0369388070" lon="-6.7941106204">
        <ele>1191.21</ele>
        <time>2020-08-12T06:57:12Z</time>
      </trkpt>
      <trkpt lat="42.0369450096" lon="-6.7941264622">
        <ele>1191.69</ele>
        <time>2020-08-12T06:57:13Z</time>
      </trkpt>
      <trkpt lat="42.0369497035" lon="-6.7941428907">
        <ele>1191.21</ele>
        <time>2020-08-12T06:57:14Z</time>
      </trkpt>
      <trkpt lat="42.0369553193" lon="-6.7941583134">
        <ele>1191.69</ele>
        <time>2020-08-12T06:57:15Z</time>
      </trkpt>
      <trkpt lat="42.0370021742" lon="-6.7943279631">
        <ele>1192.17</ele>
        <time>2020-08-12T06:57:25Z</time>
      </trkpt>
      <trkpt lat="42.0370102208" lon="-6.7943475768">
        <ele>1192.17</ele>
        <time>2020-08-12T06:57:26Z</time>
      </trkpt>
      <trkpt lat="42.0370192733" lon="-6.7943701241">
        <ele>1192.17</ele>
        <time>2020-08-12T06:57:27Z</time>
      </trkpt>
      <trkpt lat="42.0371058583" lon="-6.7946163844">
        <ele>1193.61</ele>
        <time>2020-08-12T06:57:38Z</time>
      </trkpt>
      <trkpt lat="42.0371942036" lon="-6.7948706914">
        <ele>1195.06</ele>
        <time>2020-08-12T06:57:49Z</time>
      </trkpt>
      <trkpt lat="42.0372744184" lon="-6.7951031215">
        <ele>1196.50</ele>
        <time>2020-08-12T06:57:59Z</time>
      </trkpt>
      <trkpt lat="42.0373409707" lon="-6.7952784710">
        <ele>1197.46</ele>
        <time>2020-08-12T06:58:07Z</time>
      </trkpt>
      <trkpt lat="42.0374050923" lon="-6.7954862583">
        <ele>1199.38</ele>
        <time>2020-08-12T06:58:16Z</time>
      </trkpt>
      <trkpt lat="42.0374842174" lon="-6.7957175151">
        <ele>1200.82</ele>
        <time>2020-08-12T06:58:26Z</time>
      </trkpt>
      <trkpt lat="42.0375464950" lon="-6.7958910204">
        <ele>1202.27</ele>
        <time>2020-08-12T06:58:35Z</time>
      </trkpt>
      <trkpt lat="42.0376320742" lon="-6.7961436510">
        <ele>1204.67</ele>
        <time>2020-08-12T06:58:46Z</time>
      </trkpt>
      <trkpt lat="42.0377002191" lon="-6.7963604070">
        <ele>1205.63</ele>
        <time>2020-08-12T06:58:55Z</time>
      </trkpt>
      <trkpt lat="42.0377595630" lon="-6.7965782527">
        <ele>1207.07</ele>
        <time>2020-08-12T06:59:05Z</time>
      </trkpt>
      <trkpt lat="42.0378163084" lon="-6.7968233395">
        <ele>1208.51</ele>
        <time>2020-08-12T06:59:16Z</time>
      </trkpt>
      <trkpt lat="42.0378496684" lon="-6.7970441189">
        <ele>1209.96</ele>
        <time>2020-08-12T06:59:25Z</time>
      </trkpt>
      <trkpt lat="42.0378784183" lon="-6.7972540017">
        <ele>1211.40</ele>
        <time>2020-08-12T06:59:34Z</time>
      </trkpt>
      <trkpt lat="42.0379059948" lon="-6.7974908743">
        <ele>1213.32</ele>
        <time>2020-08-12T06:59:44Z</time>
      </trkpt>
      <trkpt lat="42.0379144605" lon="-6.7977122404">
        <ele>1214.28</ele>
        <time>2020-08-12T06:59:54Z</time>
      </trkpt>
      <trkpt lat="42.0379103534" lon="-6.7979703192">
        <ele>1215.72</ele>
        <time>2020-08-12T07:00:05Z</time>
      </trkpt>
      <trkpt lat="42.0378944278" lon="-6.7982066888">
        <ele>1216.21</ele>
        <time>2020-08-12T07:00:15Z</time>
      </trkpt>
      <trkpt lat="42.0378572121" lon="-6.7984709702">
        <ele>1216.21</ele>
        <time>2020-08-12T07:00:26Z</time>
      </trkpt>
      <trkpt lat="42.0378059987" lon="-6.7987344973">
        <ele>1216.69</ele>
        <time>2020-08-12T07:00:37Z</time>
      </trkpt>
      <trkpt lat="42.0377719682" lon="-6.7989142891">
        <ele>1217.65</ele>
        <time>2020-08-12T07:00:45Z</time>
      </trkpt>
      <trkpt lat="42.0377437212" lon="-6.7990508303">
        <ele>1217.65</ele>
        <time>2020-08-12T07:00:52Z</time>
      </trkpt>
      <trkpt lat="42.0377374347" lon="-6.7990743835">
        <ele>1218.13</ele>
        <time>2020-08-12T07:00:53Z</time>
      </trkpt>
      <trkpt lat="42.0377285499" lon="-6.7990974337">
        <ele>1218.13</ele>
        <time>2020-08-12T07:00:54Z</time>
      </trkpt>
      <trkpt lat="42.0377234370" lon="-6.7991226632">
        <ele>1218.13</ele>
        <time>2020-08-12T07:00:55Z</time>
      </trkpt>
      <trkpt lat="42.0376539510" lon="-6.7993882019">
        <ele>1219.09</ele>
        <time>2020-08-12T07:01:06Z</time>
      </trkpt>
      <trkpt lat="42.0375718921" lon="-6.7996523995">
        <ele>1220.53</ele>
        <time>2020-08-12T07:01:17Z</time>
      </trkpt>
      <trkpt lat="42.0374910068" lon="-6.7999015935">
        <ele>1222.45</ele>
        <time>2020-08-12T07:01:28Z</time>
      </trkpt>
      <trkpt lat="42.0374242868" lon="-6.8001515418">
        <ele>1224.38</ele>
        <time>2020-08-12T07:01:39Z</time>
      </trkpt>
      <trkpt lat="42.0373516157" lon="-6.8003839720">
        <ele>1225.82</ele>
        <time>2020-08-12T07:01:49Z</time>
      </trkpt>
      <trkpt lat="42.0373069402" lon="-6.8005604111">
        <ele>1226.78</ele>
        <time>2020-08-12T07:01:57Z</time>
      </trkpt>
      <trkpt lat="42.0372382924" lon="-6.8007907458">
        <ele>1227.74</ele>
        <time>2020-08-12T07:02:07Z</time>
      </trkpt>
      <trkpt lat="42.0371674653" lon="-6.8010413647">
        <ele>1229.18</ele>
        <time>2020-08-12T07:02:18Z</time>
      </trkpt>
      <trkpt lat="42.0371051878" lon="-6.8012736272">
        <ele>1230.62</ele>
        <time>2020-08-12T07:02:28Z</time>
      </trkpt>
      <trkpt lat="42.0370428264" lon="-6.8014960829">
        <ele>1231.59</ele>
        <time>2020-08-12T07:02:38Z</time>
      </trkpt>
      <trkpt lat="42.0370160881" lon="-6.8016539142">
        <ele>1232.55</ele>
        <time>2020-08-12T07:02:45Z</time>
      </trkpt>
      <trkpt lat="42.0369657967" lon="-6.8018739391">
        <ele>1233.03</ele>
        <time>2020-08-12T07:02:55Z</time>
      </trkpt>
      <trkpt lat="42.0369652100" lon="-6.8018911220">
        <ele>1233.03</ele>
        <time>2020-08-12T07:02:56Z</time>
      </trkpt>
      <trkpt lat="42.0369379688" lon="-6.8020768650">
        <ele>1233.51</ele>
        <time>2020-08-12T07:03:04Z</time>
      </trkpt>
      <trkpt lat="42.0369113982" lon="-6.8022949621">
        <ele>1234.47</ele>
        <time>2020-08-12T07:03:13Z</time>
      </trkpt>
      <trkpt lat="42.0368948858" lon="-6.8025393784">
        <ele>1236.39</ele>
        <time>2020-08-12T07:03:23Z</time>
      </trkpt>
      <trkpt lat="42.0368870068" lon="-6.8027284741">
        <ele>1237.35</ele>
        <time>2020-08-12T07:03:31Z</time>
      </trkpt>
      <trkpt lat="42.0368942153" lon="-6.8029620778">
        <ele>1238.80</ele>
        <time>2020-08-12T07:03:41Z</time>
      </trkpt>
      <trkpt lat="42.0369054470" lon="-6.8031493295">
        <ele>1239.28</ele>
        <time>2020-08-12T07:03:49Z</time>
      </trkpt>
      <trkpt lat="42.0369460154" lon="-6.8034323025">
        <ele>1241.20</ele>
        <time>2020-08-12T07:04:01Z</time>
      </trkpt>
      <trkpt lat="42.0369793754" lon="-6.8035953306">
        <ele>1242.64</ele>
        <time>2020-08-12T07:04:08Z</time>
      </trkpt>
      <trkpt lat="42.0370186027" lon="-6.8037445284">
        <ele>1243.12</ele>
        <time>2020-08-12T07:04:15Z</time>
      </trkpt>
      <trkpt lat="42.0370272361" lon="-6.8037718534">
        <ele>1243.12</ele>
        <time>2020-08-12T07:04:17Z</time>
      </trkpt>
      <trkpt lat="42.0370317623" lon="-6.8037923053">
        <ele>1243.12</ele>
        <time>2020-08-12T07:04:18Z</time>
      </trkpt>
      <trkpt lat="42.0370375458" lon="-6.8038143497">
        <ele>1243.12</ele>
        <time>2020-08-12T07:04:19Z</time>
      </trkpt>
      <trkpt lat="42.0370420720" lon="-6.8038348015">
        <ele>1243.12</ele>
        <time>2020-08-12T07:04:20Z</time>
      </trkpt>
      <trkpt lat="42.0370491128" lon="-6.8038551696">
        <ele>1243.12</ele>
        <time>2020-08-12T07:04:21Z</time>
      </trkpt>
      <trkpt lat="42.0371252205" lon="-6.8040833250">
        <ele>1244.56</ele>
        <time>2020-08-12T07:04:31Z</time>
      </trkpt>
      <trkpt lat="42.0372168347" lon="-6.8043181859">
        <ele>1246.01</ele>
        <time>2020-08-12T07:04:42Z</time>
      </trkpt>
      <trkpt lat="42.0372657012" lon="-6.8044238817">
        <ele>1246.49</ele>
        <time>2020-08-12T07:04:49Z</time>
      </trkpt>
      <trkpt lat="42.0373580698" lon="-6.8046221975">
        <ele>1247.45</ele>
        <time>2020-08-12T07:04:58Z</time>
      </trkpt>
      <trkpt lat="42.0374669507" lon="-6.8048378639">
        <ele>1249.37</ele>
        <time>2020-08-12T07:05:08Z</time>
      </trkpt>
      <trkpt lat="42.0375897456" lon="-6.8050543685">
        <ele>1250.81</ele>
        <time>2020-08-12T07:05:19Z</time>
      </trkpt>
      <trkpt lat="42.0377017278" lon="-6.8052754831">
        <ele>1253.22</ele>
        <time>2020-08-12T07:05:30Z</time>
      </trkpt>
      <trkpt lat="42.0378288813" lon="-6.8055046443">
        <ele>1254.66</ele>
        <time>2020-08-12T07:05:42Z</time>
      </trkpt>
      <trkpt lat="42.0379030611" lon="-6.8056364078">
        <ele>1256.10</ele>
        <time>2020-08-12T07:05:51Z</time>
      </trkpt>
      <trkpt lat="42.0379121136" lon="-6.8056368269">
        <ele>1256.58</ele>
        <time>2020-08-12T07:05:59Z</time>
      </trkpt>
      <trkpt lat="42.0379160531" lon="-6.8056439515">
        <ele>1258.98</ele>
        <time>2020-08-12T07:06:19Z</time>
      </trkpt>
      <trkpt lat="42.0379048213" lon="-6.8056542613">
        <ele>1258.98</ele>
        <time>2020-08-12T07:06:33Z</time>
      </trkpt>
      <trkpt lat="42.0379025582" lon="-6.8056424428">
        <ele>1257.54</ele>
        <time>2020-08-12T07:06:52Z</time>
      </trkpt>
      <trkpt lat="42.0379006304" lon="-6.8056493159">
        <ele>1256.58</ele>
        <time>2020-08-12T07:07:04Z</time>
      </trkpt>
      <trkpt lat="42.0379080065" lon="-6.8056434486">
        <ele>1255.62</ele>
        <time>2020-08-12T07:07:16Z</time>
      </trkpt>
      <trkpt lat="42.0379228424" lon="-6.8056673370">
        <ele>1255.62</ele>
        <time>2020-08-12T07:07:32Z</time>
      </trkpt>
      <trkpt lat="42.0379750617" lon="-6.8057694286">
        <ele>1256.58</ele>
        <time>2020-08-12T07:07:39Z</time>
      </trkpt>
      <trkpt lat="42.0380767342" lon="-6.8059450295">
        <ele>1258.02</ele>
        <time>2020-08-12T07:07:48Z</time>
      </trkpt>
      <trkpt lat="42.0381969307" lon="-6.8061541580">
        <ele>1259.94</ele>
        <time>2020-08-12T07:07:58Z</time>
      </trkpt>
      <trkpt lat="42.0383283589" lon="-6.8063642923">
        <ele>1260.91</ele>
        <time>2020-08-12T07:08:09Z</time>
      </trkpt>
      <trkpt lat="42.0384205598" lon="-6.8065387197">
        <ele>1262.35</ele>
        <time>2020-08-12T07:08:18Z</time>
      </trkpt>
      <trkpt lat="42.0385499764" lon="-6.8067560624">
        <ele>1264.27</ele>
        <time>2020-08-12T07:08:29Z</time>
      </trkpt>
      <trkpt lat="42.0386526547" lon="-6.8069738243">
        <ele>1266.19</ele>
        <time>2020-08-12T07:08:40Z</time>
      </trkpt>
      <trkpt lat="42.0387306064" lon="-6.8071270455">
        <ele>1267.16</ele>
        <time>2020-08-12T07:08:48Z</time>
      </trkpt>
      <trkpt lat="42.0388159342" lon="-6.8073281273">
        <ele>1267.64</ele>
        <time>2020-08-12T07:08:58Z</time>
      </trkpt>
      <trkpt lat="42.0388970710" lon="-6.8075724598">
        <ele>1268.60</ele>
        <time>2020-08-12T07:09:09Z</time>
      </trkpt>
      <trkpt lat="42.0389617793" lon="-6.8077659979">
        <ele>1270.04</ele>
        <time>2020-08-12T07:09:18Z</time>
      </trkpt>
      <trkpt lat="42.0390092209" lon="-6.8079875316">
        <ele>1271.00</ele>
        <time>2020-08-12T07:09:28Z</time>
      </trkpt>
      <trkpt lat="42.0390514657" lon="-6.8082246557">
        <ele>1272.44</ele>
        <time>2020-08-12T07:09:38Z</time>
      </trkpt>
      <trkpt lat="42.0390756056" lon="-6.8084773701">
        <ele>1272.92</ele>
        <time>2020-08-12T07:09:48Z</time>
      </trkpt>
      <trkpt lat="42.0390834846" lon="-6.8086563237">
        <ele>1273.40</ele>
        <time>2020-08-12T07:09:55Z</time>
      </trkpt>
      <trkpt lat="42.0390885975" lon="-6.8088737503">
        <ele>1273.88</ele>
        <time>2020-08-12T07:10:04Z</time>
      </trkpt>
      <trkpt lat="42.0390774496" lon="-6.8091036659">
        <ele>1274.36</ele>
        <time>2020-08-12T07:10:13Z</time>
      </trkpt>
      <trkpt lat="42.0390609372" lon="-6.8093130458">
        <ele>1274.85</ele>
        <time>2020-08-12T07:10:21Z</time>
      </trkpt>
      <trkpt lat="42.0390188601" lon="-6.8095338251">
        <ele>1276.29</ele>
        <time>2020-08-12T07:10:30Z</time>
      </trkpt>
      <trkpt lat="42.0389658026" lon="-6.8097572867">
        <ele>1277.25</ele>
        <time>2020-08-12T07:10:39Z</time>
      </trkpt>
      <trkpt lat="42.0389030222" lon="-6.8099810835">
        <ele>1278.69</ele>
        <time>2020-08-12T07:10:48Z</time>
      </trkpt>
      <trkpt lat="42.0388404094" lon="-6.8101551756">
        <ele>1280.13</ele>
        <time>2020-08-12T07:10:55Z</time>
      </trkpt>
      <trkpt lat="42.0387700852" lon="-6.8103372306">
        <ele>1280.61</ele>
        <time>2020-08-12T07:11:03Z</time>
      </trkpt>
      <trkpt lat="42.0386565104" lon="-6.8105645478">
        <ele>1281.09</ele>
        <time>2020-08-12T07:11:13Z</time>
      </trkpt>
      <trkpt lat="42.0385565981" lon="-6.8107368797">
        <ele>1281.57</ele>
        <time>2020-08-12T07:11:21Z</time>
      </trkpt>
      <trkpt lat="42.0384036284" lon="-6.8109484389">
        <ele>1283.02</ele>
        <time>2020-08-12T07:11:32Z</time>
      </trkpt>
      <trkpt lat="42.0382328890" lon="-6.8111486826">
        <ele>1282.54</ele>
        <time>2020-08-12T07:11:44Z</time>
      </trkpt>
      <trkpt lat="42.0381106809" lon="-6.8112723157">
        <ele>1282.54</ele>
        <time>2020-08-12T07:11:52Z</time>
      </trkpt>
      <trkpt lat="42.0379308052" lon="-6.8114393670">
        <ele>1283.98</ele>
        <time>2020-08-12T07:12:03Z</time>
      </trkpt>
      <trkpt lat="42.0377871394" lon="-6.8115256168">
        <ele>1284.46</ele>
        <time>2020-08-12T07:12:11Z</time>
      </trkpt>
      <trkpt lat="42.0376298949" lon="-6.8116095196">
        <ele>1285.90</ele>
        <time>2020-08-12T07:12:20Z</time>
      </trkpt>
      <trkpt lat="42.0374756679" lon="-6.8116887286">
        <ele>1286.86</ele>
        <time>2020-08-12T07:12:29Z</time>
      </trkpt>
      <trkpt lat="42.0372274797" lon="-6.8117707875">
        <ele>1287.34</ele>
        <time>2020-08-12T07:12:42Z</time>
      </trkpt>
      <trkpt lat="42.0370518789" lon="-6.8118062429">
        <ele>1287.34</ele>
        <time>2020-08-12T07:12:51Z</time>
      </trkpt>
      <trkpt lat="42.0368391462" lon="-6.8118187319">
        <ele>1288.78</ele>
        <time>2020-08-12T07:13:02Z</time>
      </trkpt>
      <trkpt lat="42.0366633777" lon="-6.8118207436">
        <ele>1289.75</ele>
        <time>2020-08-12T07:13:11Z</time>
      </trkpt>
      <trkpt lat="42.0364295226" lon="-6.8118089251">
        <ele>1291.19</ele>
        <time>2020-08-12T07:13:23Z</time>
      </trkpt>
      <trkpt lat="42.0362403430" lon="-6.8117994536">
        <ele>1292.15</ele>
        <time>2020-08-12T07:13:33Z</time>
      </trkpt>
      <trkpt lat="42.0360702742" lon="-6.8117914908">
        <ele>1292.63</ele>
        <time>2020-08-12T07:13:42Z</time>
      </trkpt>
      <trkpt lat="42.0359225012" lon="-6.8117873836">
        <ele>1293.11</ele>
        <time>2020-08-12T07:13:50Z</time>
      </trkpt>
      <trkpt lat="42.0357142109" lon="-6.8118033092">
        <ele>1294.07</ele>
        <time>2020-08-12T07:14:01Z</time>
      </trkpt>
      <trkpt lat="42.0355187450" lon="-6.8118335679">
        <ele>1295.51</ele>
        <time>2020-08-12T07:14:12Z</time>
      </trkpt>
      <trkpt lat="42.0353809465" lon="-6.8118766509">
        <ele>1296.48</ele>
        <time>2020-08-12T07:14:20Z</time>
      </trkpt>
      <trkpt lat="42.0351526234" lon="-6.8119650800">
        <ele>1298.40</ele>
        <time>2020-08-12T07:14:33Z</time>
      </trkpt>
      <trkpt lat="42.0349900145" lon="-6.8120580353">
        <ele>1299.84</ele>
        <time>2020-08-12T07:14:43Z</time>
      </trkpt>
      <trkpt lat="42.0348051097" lon="-6.8121750467">
        <ele>1301.76</ele>
        <time>2020-08-12T07:14:54Z</time>
      </trkpt>
      <trkpt lat="42.0346161816" lon="-6.8123250827">
        <ele>1303.20</ele>
        <time>2020-08-12T07:15:06Z</time>
      </trkpt>
      <trkpt lat="42.0344387367" lon="-6.8125034496">
        <ele>1305.13</ele>
        <time>2020-08-12T07:15:18Z</time>
      </trkpt>
      <trkpt lat="42.0343094878" lon="-6.8126561679">
        <ele>1306.09</ele>
        <time>2020-08-12T07:15:28Z</time>
      </trkpt>
      <trkpt lat="42.0341801550" lon="-6.8128376361">
        <ele>1307.53</ele>
        <time>2020-08-12T07:15:38Z</time>
      </trkpt>
      <trkpt lat="42.0340661611" lon="-6.8130299170">
        <ele>1308.01</ele>
        <time>2020-08-12T07:15:48Z</time>
      </trkpt>
      <trkpt lat="42.0339976810" lon="-6.8131496944">
        <ele>1309.45</ele>
        <time>2020-08-12T07:15:55Z</time>
      </trkpt>
      <trkpt lat="42.0339986868" lon="-6.8131620996">
        <ele>1309.45</ele>
        <time>2020-08-12T07:16:01Z</time>
      </trkpt>
      <trkpt lat="42.0339990221" lon="-6.8131527118">
        <ele>1308.97</ele>
        <time>2020-08-12T07:16:11Z</time>
      </trkpt>
      <trkpt lat="42.0339911431" lon="-6.8131441623">
        <ele>1308.49</ele>
        <time>2020-08-12T07:16:33Z</time>
      </trkpt>
      <trkpt lat="42.0340059791" lon="-6.8131816294">
        <ele>1308.49</ele>
        <time>2020-08-12T07:16:56Z</time>
      </trkpt>
      <trkpt lat="42.0340193901" lon="-6.8131826352">
        <ele>1307.05</ele>
        <time>2020-08-12T07:17:11Z</time>
      </trkpt>
      <trkpt lat="42.0340030454" lon="-6.8131708167">
        <ele>1306.57</ele>
        <time>2020-08-12T07:17:23Z</time>
      </trkpt>
      <trkpt lat="42.0340172946" lon="-6.8131870776">
        <ele>1306.09</ele>
        <time>2020-08-12T07:17:43Z</time>
      </trkpt>
      <trkpt lat="42.0339992736" lon="-6.8131633569">
        <ele>1308.49</ele>
        <time>2020-08-12T07:18:08Z</time>
      </trkpt>
      <trkpt lat="42.0339991897" lon="-6.8131548073">
        <ele>1309.93</ele>
        <time>2020-08-12T07:18:28Z</time>
      </trkpt>
      <trkpt lat="42.0339847729" lon="-6.8132004049">
        <ele>1309.45</ele>
        <time>2020-08-12T07:18:34Z</time>
      </trkpt>
      <trkpt lat="42.0338814240" lon="-6.8134283088">
        <ele>1311.38</ele>
        <time>2020-08-12T07:18:43Z</time>
      </trkpt>
      <trkpt lat="42.0338004548" lon="-6.8136311509">
        <ele>1312.34</ele>
        <time>2020-08-12T07:18:51Z</time>
      </trkpt>
      <trkpt lat="42.0337326452" lon="-6.8138575461">
        <ele>1313.30</ele>
        <time>2020-08-12T07:19:00Z</time>
      </trkpt>
      <trkpt lat="42.0336709544" lon="-6.8141061533">
        <ele>1315.22</ele>
        <time>2020-08-12T07:19:10Z</time>
      </trkpt>
      <trkpt lat="42.0336321462" lon="-6.8143207300">
        <ele>1317.14</ele>
        <time>2020-08-12T07:19:18Z</time>
      </trkpt>
      <trkpt lat="42.0336090960" lon="-6.8145788088">
        <ele>1317.62</ele>
        <time>2020-08-12T07:19:28Z</time>
      </trkpt>
      <trkpt lat="42.0335944276" lon="-6.8148657214">
        <ele>1317.62</ele>
        <time>2020-08-12T07:19:39Z</time>
      </trkpt>
      <trkpt lat="42.0336023066" lon="-6.8151607644">
        <ele>1318.10</ele>
        <time>2020-08-12T07:19:50Z</time>
      </trkpt>
      <trkpt lat="42.0336163044" lon="-6.8154413067">
        <ele>1319.07</ele>
        <time>2020-08-12T07:20:00Z</time>
      </trkpt>
      <trkpt lat="42.0336278714" lon="-6.8157227710">
        <ele>1320.51</ele>
        <time>2020-08-12T07:20:10Z</time>
      </trkpt>
      <trkpt lat="42.0336258598" lon="-6.8159365095">
        <ele>1320.99</ele>
        <time>2020-08-12T07:20:19Z</time>
      </trkpt>
      <trkpt lat="42.0336409472" lon="-6.8161646649">
        <ele>1321.47</ele>
        <time>2020-08-12T07:20:26Z</time>
      </trkpt>
      <trkpt lat="42.0336567052" lon="-6.8164782319">
        <ele>1321.95</ele>
        <time>2020-08-12T07:20:35Z</time>
      </trkpt>
      <trkpt lat="42.0336687751" lon="-6.8167682458">
        <ele>1323.39</ele>
        <time>2020-08-12T07:20:45Z</time>
      </trkpt>
      <trkpt lat="42.0339876227" lon="-6.8219357729">
        <ele>1331.56</ele>
        <time>2020-08-12T07:23:04Z</time>
      </trkpt>
      <trkpt lat="42.0339918137" lon="-6.8223571312">
        <ele>1335.41</ele>
        <time>2020-08-12T07:23:15Z</time>
      </trkpt>
      <trkpt lat="42.0340050571" lon="-6.8227587081">
        <ele>1335.41</ele>
        <time>2020-08-12T07:23:25Z</time>
      </trkpt>
      <trkpt lat="42.0339910593" lon="-6.8231661525">
        <ele>1335.41</ele>
        <time>2020-08-12T07:23:36Z</time>
      </trkpt>
      <trkpt lat="42.0339485630" lon="-6.8235147558">
        <ele>1334.93</ele>
        <time>2020-08-12T07:23:46Z</time>
      </trkpt>
      <trkpt lat="42.0339116827" lon="-6.8237959687">
        <ele>1333.49</ele>
        <time>2020-08-12T07:23:54Z</time>
      </trkpt>
      <trkpt lat="42.0338120218" lon="-6.8241408002">
        <ele>1334.93</ele>
        <time>2020-08-12T07:24:04Z</time>
      </trkpt>
      <trkpt lat="42.0336917415" lon="-6.8244505953">
        <ele>1334.93</ele>
        <time>2020-08-12T07:24:12Z</time>
      </trkpt>
      <trkpt lat="42.0334947668" lon="-6.8248368334">
        <ele>1334.45</ele>
        <time>2020-08-12T07:24:21Z</time>
      </trkpt>
      <trkpt lat="42.0332521107" lon="-6.8252369855">
        <ele>1333.01</ele>
        <time>2020-08-12T07:24:30Z</time>
      </trkpt>
      <trkpt lat="42.0328981429" lon="-6.8258004170">
        <ele>1331.08</ele>
        <time>2020-08-12T07:24:41Z</time>
      </trkpt>
      <trkpt lat="42.0328351110" lon="-6.8259208649">
        <ele>1330.60</ele>
        <time>2020-08-12T07:24:43Z</time>
      </trkpt>
      <trkpt lat="42.0326644555" lon="-6.8264392018">
        <ele>1329.64</ele>
        <time>2020-08-12T07:24:51Z</time>
      </trkpt>
      <trkpt lat="42.0325626992" lon="-6.8270196486">
        <ele>1330.60</ele>
        <time>2020-08-12T07:25:01Z</time>
      </trkpt>
      <trkpt lat="42.0325786248" lon="-6.8275140971">
        <ele>1331.08</ele>
        <time>2020-08-12T07:25:10Z</time>
      </trkpt>
      <trkpt lat="42.0326457638" lon="-6.8280246388">
        <ele>1331.56</ele>
        <time>2020-08-12T07:25:20Z</time>
      </trkpt>
      <trkpt lat="42.0327221230" lon="-6.8285464961">
        <ele>1332.52</ele>
        <time>2020-08-12T07:25:30Z</time>
      </trkpt>
      <trkpt lat="42.0327577461" lon="-6.8290895596">
        <ele>1333.97</ele>
        <time>2020-08-12T07:25:41Z</time>
      </trkpt>
      <trkpt lat="42.0327850711" lon="-6.8294610456">
        <ele>1333.97</ele>
        <time>2020-08-12T07:25:49Z</time>
      </trkpt>
      <trkpt lat="42.0327859931" lon="-6.8297906220">
        <ele>1334.45</ele>
        <time>2020-08-12T07:25:56Z</time>
      </trkpt>
      <trkpt lat="42.0328268968" lon="-6.8300196994">
        <ele>1333.49</ele>
        <time>2020-08-12T07:26:03Z</time>
      </trkpt>
      <trkpt lat="42.0328255557" lon="-6.8300398160">
        <ele>1333.97</ele>
        <time>2020-08-12T07:26:09Z</time>
      </trkpt>
      <trkpt lat="42.0328232925" lon="-6.8300457671">
        <ele>1334.93</ele>
        <time>2020-08-12T07:26:25Z</time>
      </trkpt>
      <trkpt lat="42.0328067802" lon="-6.8300207052">
        <ele>1333.01</ele>
        <time>2020-08-12T07:26:47Z</time>
      </trkpt>
      <trkpt lat="42.0328202751" lon="-6.8300372176">
        <ele>1331.56</ele>
        <time>2020-08-12T07:27:10Z</time>
      </trkpt>
      <trkpt lat="42.0328115579" lon="-6.8300371338">
        <ele>1332.04</ele>
        <time>2020-08-12T07:27:26Z</time>
      </trkpt>
      <trkpt lat="42.0328171737" lon="-6.8300426658">
        <ele>1333.97</ele>
        <time>2020-08-12T07:27:46Z</time>
      </trkpt>
      <trkpt lat="42.0328159165" lon="-6.8300367147">
        <ele>1334.93</ele>
        <time>2020-08-12T07:28:10Z</time>
      </trkpt>
      <trkpt lat="42.0328158326" lon="-6.8300151732">
        <ele>1334.93</ele>
        <time>2020-08-12T07:28:31Z</time>
      </trkpt>
      <trkpt lat="42.0328211132" lon="-6.8300299253">
        <ele>1334.93</ele>
        <time>2020-08-12T07:28:53Z</time>
      </trkpt>
      <trkpt lat="42.0328203589" lon="-6.8300311826">
        <ele>1335.41</ele>
        <time>2020-08-12T07:29:15Z</time>
      </trkpt>
      <trkpt lat="42.0328242145" lon="-6.8300234713">
        <ele>1334.93</ele>
        <time>2020-08-12T07:29:29Z</time>
      </trkpt>
      <trkpt lat="42.0328108873" lon="-6.8300332781">
        <ele>1334.93</ele>
        <time>2020-08-12T07:29:53Z</time>
      </trkpt>
      <trkpt lat="42.0328213647" lon="-6.8300124910">
        <ele>1334.45</ele>
        <time>2020-08-12T07:30:15Z</time>
      </trkpt>
      <trkpt lat="42.0328212809" lon="-6.8300362956">
        <ele>1334.93</ele>
        <time>2020-08-12T07:30:35Z</time>
      </trkpt>
      <trkpt lat="42.0328237955" lon="-6.8300319370">
        <ele>1333.97</ele>
        <time>2020-08-12T07:30:54Z</time>
      </trkpt>
      <trkpt lat="42.0328248851" lon="-6.8300237227">
        <ele>1333.49</ele>
        <time>2020-08-12T07:31:08Z</time>
      </trkpt>
      <trkpt lat="42.0328139048" lon="-6.8300281651">
        <ele>1335.89</ele>
        <time>2020-08-12T07:31:24Z</time>
      </trkpt>
      <trkpt lat="42.0328328479" lon="-6.8300095573">
        <ele>1334.93</ele>
        <time>2020-08-12T07:31:47Z</time>
      </trkpt>
      <trkpt lat="42.0328244660" lon="-6.8300310988">
        <ele>1334.45</ele>
        <time>2020-08-12T07:32:07Z</time>
      </trkpt>
      <trkpt lat="42.0328256395" lon="-6.8300358765">
        <ele>1335.89</ele>
        <time>2020-08-12T07:32:29Z</time>
      </trkpt>
      <trkpt lat="42.0328268968" lon="-6.8300305121">
        <ele>1334.93</ele>
        <time>2020-08-12T07:32:53Z</time>
      </trkpt>
      <trkpt lat="42.0328206941" lon="-6.8300266564">
        <ele>1334.45</ele>
        <time>2020-08-12T07:33:12Z</time>
      </trkpt>
      <trkpt lat="42.0328263938" lon="-6.8300228007">
        <ele>1334.45</ele>
        <time>2020-08-12T07:33:32Z</time>
      </trkpt>
      <trkpt lat="42.0328158326" lon="-6.8300372176">
        <ele>1335.89</ele>
        <time>2020-08-12T07:33:49Z</time>
      </trkpt>
      <trkpt lat="42.0328168385" lon="-6.8300219625">
        <ele>1337.33</ele>
        <time>2020-08-12T07:34:10Z</time>
      </trkpt>
      <trkpt lat="42.0328293275" lon="-6.8300352059">
        <ele>1337.81</ele>
        <time>2020-08-12T07:34:25Z</time>
      </trkpt>
      <trkpt lat="42.0328341890" lon="-6.8300569151">
        <ele>1336.85</ele>
        <time>2020-08-12T07:34:31Z</time>
      </trkpt>
      <trkpt lat="42.0328272320" lon="-6.8301015906">
        <ele>1336.37</ele>
        <time>2020-08-12T07:34:33Z</time>
      </trkpt>
      <trkpt lat="42.0328254718" lon="-6.8301244732">
        <ele>1336.37</ele>
        <time>2020-08-12T07:34:34Z</time>
      </trkpt>
      <trkpt lat="42.0327682234" lon="-6.8303374574">
        <ele>1335.89</ele>
        <time>2020-08-12T07:34:42Z</time>
      </trkpt>
      <trkpt lat="42.0327625237" lon="-6.8307739031">
        <ele>1335.89</ele>
        <time>2020-08-12T07:34:52Z</time>
      </trkpt>
      <trkpt lat="42.0327564888" lon="-6.8313944992">
        <ele>1335.41</ele>
        <time>2020-08-12T07:35:03Z</time>
      </trkpt>
      <trkpt lat="42.0327544771" lon="-6.8320480362">
        <ele>1333.97</ele>
        <time>2020-08-12T07:35:14Z</time>
      </trkpt>
      <trkpt lat="42.0327582490" lon="-6.8327515293">
        <ele>1332.04</ele>
        <time>2020-08-12T07:35:24Z</time>
      </trkpt>
      <trkpt lat="42.0327996556" lon="-6.8333587144">
        <ele>1330.60</ele>
        <time>2020-08-12T07:35:32Z</time>
      </trkpt>
      <trkpt lat="42.0329295751" lon="-6.8339525722">
        <ele>1329.16</ele>
        <time>2020-08-12T07:35:40Z</time>
      </trkpt>
      <trkpt lat="42.0331930183" lon="-6.8346995674">
        <ele>1326.76</ele>
        <time>2020-08-12T07:35:50Z</time>
      </trkpt>
      <trkpt lat="42.0334545337" lon="-6.8354292121">
        <ele>1323.39</ele>
        <time>2020-08-12T07:36:00Z</time>
      </trkpt>
      <trkpt lat="42.0335370954" lon="-6.8356509972">
        <ele>1321.47</ele>
        <time>2020-08-12T07:36:06Z</time>
      </trkpt>
      <trkpt lat="42.0335649233" lon="-6.8356649112">
        <ele>1320.99</ele>
        <time>2020-08-12T07:36:12Z</time>
      </trkpt>
      <trkpt lat="42.0335654262" lon="-6.8356598821">
        <ele>1320.03</ele>
        <time>2020-08-12T07:36:28Z</time>
      </trkpt>
      <trkpt lat="42.0335644204" lon="-6.8356749695">
        <ele>1321.47</ele>
        <time>2020-08-12T07:36:50Z</time>
      </trkpt>
      <trkpt lat="42.0335685275" lon="-6.8356820103">
        <ele>1321.47</ele>
        <time>2020-08-12T07:37:03Z</time>
      </trkpt>
      <trkpt lat="42.0335676055" lon="-6.8356801663">
        <ele>1320.51</ele>
        <time>2020-08-12T07:37:19Z</time>
      </trkpt>
      <trkpt lat="42.0335641690" lon="-6.8356766459">
        <ele>1320.51</ele>
        <time>2020-08-12T07:37:34Z</time>
      </trkpt>
      <trkpt lat="42.0335686114" lon="-6.8356820103">
        <ele>1320.51</ele>
        <time>2020-08-12T07:37:49Z</time>
      </trkpt>
      <trkpt lat="42.0335800108" lon="-6.8356843572">
        <ele>1320.51</ele>
        <time>2020-08-12T07:38:08Z</time>
      </trkpt>
      <trkpt lat="42.0335801784" lon="-6.8356929068">
        <ele>1319.55</ele>
        <time>2020-08-12T07:38:11Z</time>
      </trkpt>
      <trkpt lat="42.0335805137" lon="-6.8357155379">
        <ele>1319.55</ele>
        <time>2020-08-12T07:38:12Z</time>
      </trkpt>
      <trkpt lat="42.0335769095" lon="-6.8357434496">
        <ele>1319.55</ele>
        <time>2020-08-12T07:38:13Z</time>
      </trkpt>
      <trkpt lat="42.0335683599" lon="-6.8359949905">
        <ele>1320.03</ele>
        <time>2020-08-12T07:38:20Z</time>
      </trkpt>
      <trkpt lat="42.0335743111" lon="-6.8363327812">
        <ele>1319.55</ele>
        <time>2020-08-12T07:38:29Z</time>
      </trkpt>
      <trkpt lat="42.0335548650" lon="-6.8365918659">
        <ele>1319.07</ele>
        <time>2020-08-12T07:38:36Z</time>
      </trkpt>
      <trkpt lat="42.0335059147" lon="-6.8370076921">
        <ele>1318.59</ele>
        <time>2020-08-12T07:38:44Z</time>
      </trkpt>
      <trkpt lat="42.0334516838" lon="-6.8375089299">
        <ele>1318.10</ele>
        <time>2020-08-12T07:38:53Z</time>
      </trkpt>
      <trkpt lat="42.0334346686" lon="-6.8381483015">
        <ele>1318.10</ele>
        <time>2020-08-12T07:39:04Z</time>
      </trkpt>
      <trkpt lat="42.0335193258" lon="-6.8387411535">
        <ele>1317.62</ele>
        <time>2020-08-12T07:39:13Z</time>
      </trkpt>
      <trkpt lat="42.0337169711" lon="-6.8393653538">
        <ele>1316.18</ele>
        <time>2020-08-12T07:39:22Z</time>
      </trkpt>
      <trkpt lat="42.0340695139" lon="-6.8401190545">
        <ele>1313.30</ele>
        <time>2020-08-12T07:39:33Z</time>
      </trkpt>
      <trkpt lat="42.0344399102" lon="-6.8409119826">
        <ele>1310.41</ele>
        <time>2020-08-12T07:39:44Z</time>
      </trkpt>
      <trkpt lat="42.0347425807" lon="-6.8415828701">
        <ele>1308.01</ele>
        <time>2020-08-12T07:39:53Z</time>
      </trkpt>
      <trkpt lat="42.0349451713" lon="-6.8421276938">
        <ele>1306.09</ele>
        <time>2020-08-12T07:40:00Z</time>
      </trkpt>
      <trkpt lat="42.0351386257" lon="-6.8427870981">
        <ele>1303.69</ele>
        <time>2020-08-12T07:40:07Z</time>
      </trkpt>
      <trkpt lat="42.0353099518" lon="-6.8436681200">
        <ele>1299.36</ele>
        <time>2020-08-12T07:40:15Z</time>
      </trkpt>
      <trkpt lat="42.0354964491" lon="-6.8450307660">
        <ele>1293.11</ele>
        <time>2020-08-12T07:40:26Z</time>
      </trkpt>
      <trkpt lat="42.0356675237" lon="-6.8463006243">
        <ele>1287.34</ele>
        <time>2020-08-12T07:40:36Z</time>
      </trkpt>
      <trkpt lat="42.0358291268" lon="-6.8476805370">
        <ele>1282.06</ele>
        <time>2020-08-12T07:40:47Z</time>
      </trkpt>
      <trkpt lat="42.0358007960" lon="-6.8484017160">
        <ele>1279.17</ele>
        <time>2020-08-12T07:40:53Z</time>
      </trkpt>
      <trkpt lat="42.0356223453" lon="-6.8492256571">
        <ele>1275.33</ele>
        <time>2020-08-12T07:41:00Z</time>
      </trkpt>
      <trkpt lat="42.0352532901" lon="-6.8502091896">
        <ele>1271.00</ele>
        <time>2020-08-12T07:41:09Z</time>
      </trkpt>
      <trkpt lat="42.0351429004" lon="-6.8509949930">
        <ele>1266.19</ele>
        <time>2020-08-12T07:41:16Z</time>
      </trkpt>
      <trkpt lat="42.0351533778" lon="-6.8517793715">
        <ele>1262.35</ele>
        <time>2020-08-12T07:41:23Z</time>
      </trkpt>
      <trkpt lat="42.0352137275" lon="-6.8529396784">
        <ele>1257.06</ele>
        <time>2020-08-12T07:41:33Z</time>
      </trkpt>
      <trkpt lat="42.0353532862" lon="-6.8540424015">
        <ele>1252.25</ele>
        <time>2020-08-12T07:41:42Z</time>
      </trkpt>
      <trkpt lat="42.0356364269" lon="-6.8550209887">
        <ele>1248.89</ele>
        <time>2020-08-12T07:41:51Z</time>
      </trkpt>
      <trkpt lat="42.0359448809" lon="-6.8560507894">
        <ele>1246.01</ele>
        <time>2020-08-12T07:42:01Z</time>
      </trkpt>
      <trkpt lat="42.0362601243" lon="-6.8569692783">
        <ele>1241.68</ele>
        <time>2020-08-12T07:42:10Z</time>
      </trkpt>
      <trkpt lat="42.0366481226" lon="-6.8581238016">
        <ele>1235.43</ele>
        <time>2020-08-12T07:42:21Z</time>
      </trkpt>
      <trkpt lat="42.0367797185" lon="-6.8588320725">
        <ele>1232.07</ele>
        <time>2020-08-12T07:42:28Z</time>
      </trkpt>
      <trkpt lat="42.0368209574" lon="-6.8590811826">
        <ele>1231.11</ele>
        <time>2020-08-12T07:42:31Z</time>
      </trkpt>
      <trkpt lat="42.0368445944" lon="-6.8591520097">
        <ele>1230.62</ele>
        <time>2020-08-12T07:42:32Z</time>
      </trkpt>
      <trkpt lat="42.0368738472" lon="-6.8592135329">
        <ele>1230.14</ele>
        <time>2020-08-12T07:42:33Z</time>
      </trkpt>
      <trkpt lat="42.0369086321" lon="-6.8592666741">
        <ele>1230.14</ele>
        <time>2020-08-12T07:42:34Z</time>
      </trkpt>
      <trkpt lat="42.0369342808" lon="-6.8592935801">
        <ele>1229.66</ele>
        <time>2020-08-12T07:42:35Z</time>
      </trkpt>
      <trkpt lat="42.0369644556" lon="-6.8593209051">
        <ele>1228.70</ele>
        <time>2020-08-12T07:42:36Z</time>
      </trkpt>
      <trkpt lat="42.0371900126" lon="-6.8595500663">
        <ele>1225.82</ele>
        <time>2020-08-12T07:42:43Z</time>
      </trkpt>
      <trkpt lat="42.0375511050" lon="-6.8598456960">
        <ele>1222.93</ele>
        <time>2020-08-12T07:42:52Z</time>
      </trkpt>
      <trkpt lat="42.0377831161" lon="-6.8602352869">
        <ele>1220.53</ele>
        <time>2020-08-12T07:43:00Z</time>
      </trkpt>
      <trkpt lat="42.0378904045" lon="-6.8605007418">
        <ele>1219.57</ele>
        <time>2020-08-12T07:43:05Z</time>
      </trkpt>
      <trkpt lat="42.0379151311" lon="-6.8605455011">
        <ele>1219.57</ele>
        <time>2020-08-12T07:43:06Z</time>
      </trkpt>
      <trkpt lat="42.0379448030" lon="-6.8605906796">
        <ele>1219.57</ele>
        <time>2020-08-12T07:43:07Z</time>
      </trkpt>
      <trkpt lat="42.0379764028" lon="-6.8606314156">
        <ele>1219.57</ele>
        <time>2020-08-12T07:43:08Z</time>
      </trkpt>
      <trkpt lat="42.0380116068" lon="-6.8606711458">
        <ele>1219.57</ele>
        <time>2020-08-12T07:43:09Z</time>
      </trkpt>
      <trkpt lat="42.0380498283" lon="-6.8607101217">
        <ele>1219.09</ele>
        <time>2020-08-12T07:43:10Z</time>
      </trkpt>
      <trkpt lat="42.0384327136" lon="-6.8610322382">
        <ele>1217.65</ele>
        <time>2020-08-12T07:43:18Z</time>
      </trkpt>
      <trkpt lat="42.0385272615" lon="-6.8611264508">
        <ele>1217.17</ele>
        <time>2020-08-12T07:43:20Z</time>
      </trkpt>
      <trkpt lat="42.0385693386" lon="-6.8611808494">
        <ele>1216.69</ele>
        <time>2020-08-12T07:43:21Z</time>
      </trkpt>
      <trkpt lat="42.0386073925" lon="-6.8612401932">
        <ele>1216.69</ele>
        <time>2020-08-12T07:43:22Z</time>
      </trkpt>
      <trkpt lat="42.0389107335" lon="-6.8618550897">
        <ele>1213.32</ele>
        <time>2020-08-12T07:43:31Z</time>
      </trkpt>
      <trkpt lat="42.0389757771" lon="-6.8620735221">
        <ele>1212.84</ele>
        <time>2020-08-12T07:43:34Z</time>
      </trkpt>
      <trkpt lat="42.0389875956" lon="-6.8621534016">
        <ele>1212.36</ele>
        <time>2020-08-12T07:43:35Z</time>
      </trkpt>
      <trkpt lat="42.0389951393" lon="-6.8622364663">
        <ele>1212.36</ele>
        <time>2020-08-12T07:43:36Z</time>
      </trkpt>
      <trkpt lat="42.0389964804" lon="-6.8623210397">
        <ele>1212.36</ele>
        <time>2020-08-12T07:43:37Z</time>
      </trkpt>
      <trkpt lat="42.0389927924" lon="-6.8623982370">
        <ele>1211.88</ele>
        <time>2020-08-12T07:43:38Z</time>
      </trkpt>
      <trkpt lat="42.0389854163" lon="-6.8624733388">
        <ele>1211.40</ele>
        <time>2020-08-12T07:43:39Z</time>
      </trkpt>
      <trkpt lat="42.0389742684" lon="-6.8625505362">
        <ele>1211.40</ele>
        <time>2020-08-12T07:43:40Z</time>
      </trkpt>
      <trkpt lat="42.0389606897" lon="-6.8626311701">
        <ele>1210.92</ele>
        <time>2020-08-12T07:43:41Z</time>
      </trkpt>
      <trkpt lat="42.0388507191" lon="-6.8632748164">
        <ele>1208.51</ele>
        <time>2020-08-12T07:43:48Z</time>
      </trkpt>
      <trkpt lat="42.0387253258" lon="-6.8639315385">
        <ele>1205.63</ele>
        <time>2020-08-12T07:43:55Z</time>
      </trkpt>
      <trkpt lat="42.0385463722" lon="-6.8643831555">
        <ele>1203.71</ele>
        <time>2020-08-12T07:44:01Z</time>
      </trkpt>
      <trkpt lat="42.0385002717" lon="-6.8644472770">
        <ele>1203.71</ele>
        <time>2020-08-12T07:44:02Z</time>
      </trkpt>
      <trkpt lat="42.0383747108" lon="-6.8646435812">
        <ele>1202.75</ele>
        <time>2020-08-12T07:44:05Z</time>
      </trkpt>
      <trkpt lat="42.0383479726" lon="-6.8647151627">
        <ele>1202.27</ele>
        <time>2020-08-12T07:44:06Z</time>
      </trkpt>
      <trkpt lat="42.0383294486" lon="-6.8647918571">
        <ele>1202.27</ele>
        <time>2020-08-12T07:44:07Z</time>
      </trkpt>
      <trkpt lat="42.0383168757" lon="-6.8648727424">
        <ele>1201.79</ele>
        <time>2020-08-12T07:44:08Z</time>
      </trkpt>
      <trkpt lat="42.0383108407" lon="-6.8649533764">
        <ele>1201.79</ele>
        <time>2020-08-12T07:44:09Z</time>
      </trkpt>
      <trkpt lat="42.0383104216" lon="-6.8650321662">
        <ele>1201.30</ele>
        <time>2020-08-12T07:44:10Z</time>
      </trkpt>
      <trkpt lat="42.0383172110" lon="-6.8651072681">
        <ele>1201.30</ele>
        <time>2020-08-12T07:44:11Z</time>
      </trkpt>
      <trkpt lat="42.0383281913" lon="-6.8651822023">
        <ele>1200.82</ele>
        <time>2020-08-12T07:44:12Z</time>
      </trkpt>
      <trkpt lat="42.0383562706" lon="-6.8653279636">
        <ele>1200.34</ele>
        <time>2020-08-12T07:44:14Z</time>
      </trkpt>
      <trkpt lat="42.0383757167" lon="-6.8653988745">
        <ele>1200.34</ele>
        <time>2020-08-12T07:44:15Z</time>
      </trkpt>
      <trkpt lat="42.0383994374" lon="-6.8654697016">
        <ele>1199.86</ele>
        <time>2020-08-12T07:44:16Z</time>
      </trkpt>
      <trkpt lat="42.0384274330" lon="-6.8655380141">
        <ele>1199.86</ele>
        <time>2020-08-12T07:44:17Z</time>
      </trkpt>
      <trkpt lat="42.0384577755" lon="-6.8656028062">
        <ele>1199.38</ele>
        <time>2020-08-12T07:44:18Z</time>
      </trkpt>
      <trkpt lat="42.0387035329" lon="-6.8659801595">
        <ele>1197.46</ele>
        <time>2020-08-12T07:44:25Z</time>
      </trkpt>
      <trkpt lat="42.0390869211" lon="-6.8664859235">
        <ele>1195.06</ele>
        <time>2020-08-12T07:44:34Z</time>
      </trkpt>
      <trkpt lat="42.0394867379" lon="-6.8670147378">
        <ele>1192.65</ele>
        <time>2020-08-12T07:44:43Z</time>
      </trkpt>
      <trkpt lat="42.0397221856" lon="-6.8673146423">
        <ele>1191.21</ele>
        <time>2020-08-12T07:44:49Z</time>
      </trkpt>
      <trkpt lat="42.0400608145" lon="-6.8676181510">
        <ele>1189.77</ele>
        <time>2020-08-12T07:44:57Z</time>
      </trkpt>
      <trkpt lat="42.0401013829" lon="-6.8676655088">
        <ele>1189.77</ele>
        <time>2020-08-12T07:44:58Z</time>
      </trkpt>
      <trkpt lat="42.0401369222" lon="-6.8677228410">
        <ele>1189.29</ele>
        <time>2020-08-12T07:44:59Z</time>
      </trkpt>
      <trkpt lat="42.0401610620" lon="-6.8677860405">
        <ele>1189.29</ele>
        <time>2020-08-12T07:45:00Z</time>
      </trkpt>
      <trkpt lat="42.0401757304" lon="-6.8678543530">
        <ele>1189.29</ele>
        <time>2020-08-12T07:45:01Z</time>
      </trkpt>
      <trkpt lat="42.0401819330" lon="-6.8679250963">
        <ele>1189.29</ele>
        <time>2020-08-12T07:45:02Z</time>
      </trkpt>
      <trkpt lat="42.0401821844" lon="-6.8679976836">
        <ele>1189.29</ele>
        <time>2020-08-12T07:45:03Z</time>
      </trkpt>
      <trkpt lat="42.0401799213" lon="-6.8680725340">
        <ele>1188.81</ele>
        <time>2020-08-12T07:45:04Z</time>
      </trkpt>
      <trkpt lat="42.0401177276" lon="-6.8687687349">
        <ele>1186.88</ele>
        <time>2020-08-12T07:45:12Z</time>
      </trkpt>
      <trkpt lat="42.0401591342" lon="-6.8693672866">
        <ele>1184.96</ele>
        <time>2020-08-12T07:45:18Z</time>
      </trkpt>
      <trkpt lat="42.0402787440" lon="-6.8702074047">
        <ele>1181.12</ele>
        <time>2020-08-12T07:45:26Z</time>
      </trkpt>
      <trkpt lat="42.0403054822" lon="-6.8702980131">
        <ele>1181.12</ele>
        <time>2020-08-12T07:45:27Z</time>
      </trkpt>
      <trkpt lat="42.0403362438" lon="-6.8703804910">
        <ele>1180.64</ele>
        <time>2020-08-12T07:45:28Z</time>
      </trkpt>
      <trkpt lat="42.0403722860" lon="-6.8704612087">
        <ele>1180.16</ele>
        <time>2020-08-12T07:45:29Z</time>
      </trkpt>
      <trkpt lat="42.0404161233" lon="-6.8705436867">
        <ele>1179.67</ele>
        <time>2020-08-12T07:45:30Z</time>
      </trkpt>
      <trkpt lat="42.0404627267" lon="-6.8706154358">
        <ele>1179.67</ele>
        <time>2020-08-12T07:45:31Z</time>
      </trkpt>
      <trkpt lat="42.0405149460" lon="-6.8706808984">
        <ele>1179.19</ele>
        <time>2020-08-12T07:45:32Z</time>
      </trkpt>
      <trkpt lat="42.0405661594" lon="-6.8707371410">
        <ele>1179.19</ele>
        <time>2020-08-12T07:45:33Z</time>
      </trkpt>
      <trkpt lat="42.0406188816" lon="-6.8707912043">
        <ele>1178.71</ele>
        <time>2020-08-12T07:45:34Z</time>
      </trkpt>
      <trkpt lat="42.0410347078" lon="-6.8712413963">
        <ele>1176.31</ele>
        <time>2020-08-12T07:45:42Z</time>
      </trkpt>
      <trkpt lat="42.0410747733" lon="-6.8713107985">
        <ele>1176.31</ele>
        <time>2020-08-12T07:45:43Z</time>
      </trkpt>
      <trkpt lat="42.0411052834" lon="-6.8713915162">
        <ele>1175.83</ele>
        <time>2020-08-12T07:45:44Z</time>
      </trkpt>
      <trkpt lat="42.0411186945" lon="-6.8714742456">
        <ele>1175.83</ele>
        <time>2020-08-12T07:45:45Z</time>
      </trkpt>
      <trkpt lat="42.0411146712" lon="-6.8715588190">
        <ele>1175.35</ele>
        <time>2020-08-12T07:45:46Z</time>
      </trkpt>
      <trkpt lat="42.0410961471" lon="-6.8716397043">
        <ele>1175.35</ele>
        <time>2020-08-12T07:45:47Z</time>
      </trkpt>
      <trkpt lat="42.0410711691" lon="-6.8717206735">
        <ele>1175.35</ele>
        <time>2020-08-12T07:45:48Z</time>
      </trkpt>
      <trkpt lat="42.0408923831" lon="-6.8723494001">
        <ele>1173.43</ele>
        <time>2020-08-12T07:45:55Z</time>
      </trkpt>
      <trkpt lat="42.0407741982" lon="-6.8729411624">
        <ele>1171.02</ele>
        <time>2020-08-12T07:46:02Z</time>
      </trkpt>
      <trkpt lat="42.0406870265" lon="-6.8734765146">
        <ele>1169.10</ele>
        <time>2020-08-12T07:46:09Z</time>
      </trkpt>
      <trkpt lat="42.0406810753" lon="-6.8735591602">
        <ele>1168.62</ele>
        <time>2020-08-12T07:46:10Z</time>
      </trkpt>
      <trkpt lat="42.0406831708" lon="-6.8736415543">
        <ele>1168.62</ele>
        <time>2020-08-12T07:46:11Z</time>
      </trkpt>
      <trkpt lat="42.0406946540" lon="-6.8737262115">
        <ele>1168.14</ele>
        <time>2020-08-12T07:46:12Z</time>
      </trkpt>
      <trkpt lat="42.0407131780" lon="-6.8738101982">
        <ele>1168.14</ele>
        <time>2020-08-12T07:46:13Z</time>
      </trkpt>
      <trkpt lat="42.0407350548" lon="-6.8738837913">
        <ele>1167.66</ele>
        <time>2020-08-12T07:46:14Z</time>
      </trkpt>
      <trkpt lat="42.0407664031" lon="-6.8739600666">
        <ele>1167.18</ele>
        <time>2020-08-12T07:46:15Z</time>
      </trkpt>
      <trkpt lat="42.0407993440" lon="-6.8740298878">
        <ele>1167.18</ele>
        <time>2020-08-12T07:46:16Z</time>
      </trkpt>
      <trkpt lat="42.0410845801" lon="-6.8747390807">
        <ele>1164.29</ele>
        <time>2020-08-12T07:46:25Z</time>
      </trkpt>
      <trkpt lat="42.0413272362" lon="-6.8753860798">
        <ele>1161.41</ele>
        <time>2020-08-12T07:46:32Z</time>
      </trkpt>
      <trkpt lat="42.0416092873" lon="-6.8761297222">
        <ele>1158.05</ele>
        <time>2020-08-12T07:46:40Z</time>
      </trkpt>
      <trkpt lat="42.0416539628" lon="-6.8762086798">
        <ele>1157.08</ele>
        <time>2020-08-12T07:46:41Z</time>
      </trkpt>
      <trkpt lat="42.0417002309" lon="-6.8762780819">
        <ele>1156.60</ele>
        <time>2020-08-12T07:46:42Z</time>
      </trkpt>
      <trkpt lat="42.0417546295" lon="-6.8763449695">
        <ele>1156.12</ele>
        <time>2020-08-12T07:46:43Z</time>
      </trkpt>
      <trkpt lat="42.0418126322" lon="-6.8764064927">
        <ele>1155.64</ele>
        <time>2020-08-12T07:46:44Z</time>
      </trkpt>
      <trkpt lat="42.0418732334" lon="-6.8764633220">
        <ele>1155.64</ele>
        <time>2020-08-12T07:46:45Z</time>
      </trkpt>
      <trkpt lat="42.0423884690" lon="-6.8769827485">
        <ele>1152.28</ele>
        <time>2020-08-12T07:46:54Z</time>
      </trkpt>
      <trkpt lat="42.0429772139" lon="-6.8775550649">
        <ele>1148.91</ele>
        <time>2020-08-12T07:47:04Z</time>
      </trkpt>
      <trkpt lat="42.0432240609" lon="-6.8777212780">
        <ele>1147.47</ele>
        <time>2020-08-12T07:47:08Z</time>
      </trkpt>
      <trkpt lat="42.0432931278" lon="-6.8777440768">
        <ele>1146.99</ele>
        <time>2020-08-12T07:47:09Z</time>
      </trkpt>
      <trkpt lat="42.0433646254" lon="-6.8777538836">
        <ele>1146.51</ele>
        <time>2020-08-12T07:47:10Z</time>
      </trkpt>
      <trkpt lat="42.0434382185" lon="-6.8777509499">
        <ele>1146.51</ele>
        <time>2020-08-12T07:47:11Z</time>
      </trkpt>
      <trkpt lat="42.0435165893" lon="-6.8777341861">
        <ele>1146.03</ele>
        <time>2020-08-12T07:47:12Z</time>
      </trkpt>
      <trkpt lat="42.0435797051" lon="-6.8777142372">
        <ele>1145.55</ele>
        <time>2020-08-12T07:47:13Z</time>
      </trkpt>
      <trkpt lat="42.0436476823" lon="-6.8776890915">
        <ele>1145.07</ele>
        <time>2020-08-12T07:47:14Z</time>
      </trkpt>
      <trkpt lat="42.0438527875" lon="-6.8776421528">
        <ele>1144.11</ele>
        <time>2020-08-12T07:47:17Z</time>
      </trkpt>
      <trkpt lat="42.0439187530" lon="-6.8776574917">
        <ele>1144.11</ele>
        <time>2020-08-12T07:47:18Z</time>
      </trkpt>
      <trkpt lat="42.0439773425" lon="-6.8776946235">
        <ele>1143.63</ele>
        <time>2020-08-12T07:47:19Z</time>
      </trkpt>
      <trkpt lat="42.0440246165" lon="-6.8777523749">
        <ele>1143.63</ele>
        <time>2020-08-12T07:47:20Z</time>
      </trkpt>
      <trkpt lat="42.0440568030" lon="-6.8778258003">
        <ele>1143.14</ele>
        <time>2020-08-12T07:47:21Z</time>
      </trkpt>
      <trkpt lat="42.0440755785" lon="-6.8779080268">
        <ele>1143.14</ele>
        <time>2020-08-12T07:47:22Z</time>
      </trkpt>
      <trkpt lat="42.0440837089" lon="-6.8779958691">
        <ele>1142.66</ele>
        <time>2020-08-12T07:47:23Z</time>
      </trkpt>
      <trkpt lat="42.0440856367" lon="-6.8780877348">
        <ele>1142.18</ele>
        <time>2020-08-12T07:47:24Z</time>
      </trkpt>
      <trkpt lat="42.0440850500" lon="-6.8787175510">
        <ele>1139.78</ele>
        <time>2020-08-12T07:47:30Z</time>
      </trkpt>
      <trkpt lat="42.0440990478" lon="-6.8788222410">
        <ele>1139.30</ele>
        <time>2020-08-12T07:47:31Z</time>
      </trkpt>
      <trkpt lat="42.0441246964" lon="-6.8789150286">
        <ele>1138.82</ele>
        <time>2020-08-12T07:47:32Z</time>
      </trkpt>
      <trkpt lat="42.0441625826" lon="-6.8789928965">
        <ele>1138.34</ele>
        <time>2020-08-12T07:47:33Z</time>
      </trkpt>
      <trkpt lat="42.0442115329" lon="-6.8790540844">
        <ele>1138.34</ele>
        <time>2020-08-12T07:47:34Z</time>
      </trkpt>
      <trkpt lat="42.0442704577" lon="-6.8791003525">
        <ele>1137.86</ele>
        <time>2020-08-12T07:47:35Z</time>
      </trkpt>
      <trkpt lat="42.0443344954" lon="-6.8791296892">
        <ele>1137.86</ele>
        <time>2020-08-12T07:47:36Z</time>
      </trkpt>
      <trkpt lat="42.0444032270" lon="-6.8791487161">
        <ele>1137.38</ele>
        <time>2020-08-12T07:47:37Z</time>
      </trkpt>
      <trkpt lat="42.0444740541" lon="-6.8791629653">
        <ele>1136.90</ele>
        <time>2020-08-12T07:47:38Z</time>
      </trkpt>
      <trkpt lat="42.0451449417" lon="-6.8792316969">
        <ele>1134.49</ele>
        <time>2020-08-12T07:47:47Z</time>
      </trkpt>
      <trkpt lat="42.0456073713" lon="-6.8792876881">
        <ele>1132.57</ele>
        <time>2020-08-12T07:47:53Z</time>
      </trkpt>
      <trkpt lat="42.0462500956" lon="-6.8793361355">
        <ele>1129.69</ele>
        <time>2020-08-12T07:48:01Z</time>
      </trkpt>
      <trkpt lat="42.0469003636" lon="-6.8793991674">
        <ele>1125.84</ele>
        <time>2020-08-12T07:48:09Z</time>
      </trkpt>
      <trkpt lat="42.0473379828" lon="-6.8794407416">
        <ele>1122.96</ele>
        <time>2020-08-12T07:48:15Z</time>
      </trkpt>
      <trkpt lat="42.0474707521" lon="-6.8794394005">
        <ele>1121.52</ele>
        <time>2020-08-12T07:48:19Z</time>
      </trkpt>
      <trkpt lat="42.0474751107" lon="-6.8794442620">
        <ele>1120.07</ele>
        <time>2020-08-12T07:48:25Z</time>
      </trkpt>
      <trkpt lat="42.0474762004" lon="-6.8794450164">
        <ele>1119.59</ele>
        <time>2020-08-12T07:48:43Z</time>
      </trkpt>
      <trkpt lat="42.0474843308" lon="-6.8794460222">
        <ele>1119.59</ele>
        <time>2020-08-12T07:48:54Z</time>
      </trkpt>
      <trkpt lat="42.0474969037" lon="-6.8794522248">
        <ele>1119.59</ele>
        <time>2020-08-12T07:48:55Z</time>
      </trkpt>
      <trkpt lat="42.0475114044" lon="-6.8794562481">
        <ele>1119.59</ele>
        <time>2020-08-12T07:48:56Z</time>
      </trkpt>
      <trkpt lat="42.0475290902" lon="-6.8794568349">
        <ele>1119.59</ele>
        <time>2020-08-12T07:48:57Z</time>
      </trkpt>
      <trkpt lat="42.0475496259" lon="-6.8794561643">
        <ele>1119.59</ele>
        <time>2020-08-12T07:48:58Z</time>
      </trkpt>
      <trkpt lat="42.0477642026" lon="-6.8794476148">
        <ele>1119.11</ele>
        <time>2020-08-12T07:49:06Z</time>
      </trkpt>
      <trkpt lat="42.0479422342" lon="-6.8794539850">
        <ele>1119.11</ele>
        <time>2020-08-12T07:49:13Z</time>
      </trkpt>
      <trkpt lat="42.0479306672" lon="-6.8794396520">
        <ele>1120.55</ele>
        <time>2020-08-12T07:49:27Z</time>
      </trkpt>
      <trkpt lat="42.0479244646" lon="-6.8794466089">
        <ele>1121.52</ele>
        <time>2020-08-12T07:49:43Z</time>
      </trkpt>
      <trkpt lat="42.0479282364" lon="-6.8794469442">
        <ele>1121.52</ele>
        <time>2020-08-12T07:50:00Z</time>
      </trkpt>
      <trkpt lat="42.0479608420" lon="-6.8794520572">
        <ele>1121.03</ele>
        <time>2020-08-12T07:50:11Z</time>
      </trkpt>
      <trkpt lat="42.0481680427" lon="-6.8794712517">
        <ele>1120.55</ele>
        <time>2020-08-12T07:50:17Z</time>
      </trkpt>
      <trkpt lat="42.0485462341" lon="-6.8794847466">
        <ele>1118.15</ele>
        <time>2020-08-12T07:50:24Z</time>
      </trkpt>
      <trkpt lat="42.0490918960" lon="-6.8794049509">
        <ele>1114.79</ele>
        <time>2020-08-12T07:50:32Z</time>
      </trkpt>
      <trkpt lat="42.0498406515" lon="-6.8791637197">
        <ele>1110.46</ele>
        <time>2020-08-12T07:50:43Z</time>
      </trkpt>
      <trkpt lat="42.0503863972" lon="-6.8788747955">
        <ele>1107.10</ele>
        <time>2020-08-12T07:50:52Z</time>
      </trkpt>
      <trkpt lat="42.0510223322" lon="-6.8785927445">
        <ele>1104.21</ele>
        <time>2020-08-12T07:51:03Z</time>
      </trkpt>
      <trkpt lat="42.0510854479" lon="-6.8785744719">
        <ele>1104.21</ele>
        <time>2020-08-12T07:51:04Z</time>
      </trkpt>
      <trkpt lat="42.0511462167" lon="-6.8785556126">
        <ele>1104.21</ele>
        <time>2020-08-12T07:51:05Z</time>
      </trkpt>
      <trkpt lat="42.0512003638" lon="-6.8785294611">
        <ele>1103.73</ele>
        <time>2020-08-12T07:51:06Z</time>
      </trkpt>
      <trkpt lat="42.0516959857" lon="-6.8782226834">
        <ele>1100.85</ele>
        <time>2020-08-12T07:51:16Z</time>
      </trkpt>
      <trkpt lat="42.0521495305" lon="-6.8779392913">
        <ele>1099.89</ele>
        <time>2020-08-12T07:51:27Z</time>
      </trkpt>
      <trkpt lat="42.0525520295" lon="-6.8777891714">
        <ele>1099.40</ele>
        <time>2020-08-12T07:51:36Z</time>
      </trkpt>
      <trkpt lat="42.0529428776" lon="-6.8776804581">
        <ele>1097.96</ele>
        <time>2020-08-12T07:51:44Z</time>
      </trkpt>
      <trkpt lat="42.0534587838" lon="-6.8775217049">
        <ele>1095.56</ele>
        <time>2020-08-12T07:51:52Z</time>
      </trkpt>
      <trkpt lat="42.0535819139" lon="-6.8774963915">
        <ele>1095.08</ele>
        <time>2020-08-12T07:51:54Z</time>
      </trkpt>
      <trkpt lat="42.0536398329" lon="-6.8774990737">
        <ele>1094.60</ele>
        <time>2020-08-12T07:51:55Z</time>
      </trkpt>
      <trkpt lat="42.0536988415" lon="-6.8775136583">
        <ele>1094.12</ele>
        <time>2020-08-12T07:51:56Z</time>
      </trkpt>
      <trkpt lat="42.0537554193" lon="-6.8775400613">
        <ele>1094.12</ele>
        <time>2020-08-12T07:51:57Z</time>
      </trkpt>
      <trkpt lat="42.0538114104" lon="-6.8775850721">
        <ele>1093.64</ele>
        <time>2020-08-12T07:51:58Z</time>
      </trkpt>
      <trkpt lat="42.0538554154" lon="-6.8776413146">
        <ele>1093.16</ele>
        <time>2020-08-12T07:51:59Z</time>
      </trkpt>
      <trkpt lat="42.0538886916" lon="-6.8777051009">
        <ele>1093.16</ele>
        <time>2020-08-12T07:52:00Z</time>
      </trkpt>
      <trkpt lat="42.0539119095" lon="-6.8777684681">
        <ele>1092.68</ele>
        <time>2020-08-12T07:52:01Z</time>
      </trkpt>
      <trkpt lat="42.0539261587" lon="-6.8778273929">
        <ele>1092.68</ele>
        <time>2020-08-12T07:52:02Z</time>
      </trkpt>
      <trkpt lat="42.0539328642" lon="-6.8778876588">
        <ele>1092.20</ele>
        <time>2020-08-12T07:52:03Z</time>
      </trkpt>
      <trkpt lat="42.0539289247" lon="-6.8779508583">
        <ele>1092.68</ele>
        <time>2020-08-12T07:52:04Z</time>
      </trkpt>
      <trkpt lat="42.0539171901" lon="-6.8780086096">
        <ele>1092.68</ele>
        <time>2020-08-12T07:52:05Z</time>
      </trkpt>
      <trkpt lat="42.0539041143" lon="-6.8780673668">
        <ele>1092.68</ele>
        <time>2020-08-12T07:52:06Z</time>
      </trkpt>
      <trkpt lat="42.0537934732" lon="-6.8784747273">
        <ele>1092.68</ele>
        <time>2020-08-12T07:52:13Z</time>
      </trkpt>
      <trkpt lat="42.0537636336" lon="-6.8785224203">
        <ele>1093.16</ele>
        <time>2020-08-12T07:52:14Z</time>
      </trkpt>
      <trkpt lat="42.0537278429" lon="-6.8785701972">
        <ele>1093.16</ele>
        <time>2020-08-12T07:52:15Z</time>
      </trkpt>
      <trkpt lat="42.0536901243" lon="-6.8786104303">
        <ele>1092.68</ele>
        <time>2020-08-12T07:52:16Z</time>
      </trkpt>
      <trkpt lat="42.0536524896" lon="-6.8786438741">
        <ele>1093.16</ele>
        <time>2020-08-12T07:52:17Z</time>
      </trkpt>
      <trkpt lat="42.0533406828" lon="-6.8789025396">
        <ele>1095.08</ele>
        <time>2020-08-12T07:52:26Z</time>
      </trkpt>
      <trkpt lat="42.0530550275" lon="-6.8791888654">
        <ele>1097.48</ele>
        <time>2020-08-12T07:52:36Z</time>
      </trkpt>
      <trkpt lat="42.0529104397" lon="-6.8794748560">
        <ele>1099.40</ele>
        <time>2020-08-12T07:52:43Z</time>
      </trkpt>
      <trkpt lat="42.0527677797" lon="-6.8799332622">
        <ele>1100.37</ele>
        <time>2020-08-12T07:52:53Z</time>
      </trkpt>
      <trkpt lat="42.0525715593" lon="-6.8803364318">
        <ele>1100.85</ele>
        <time>2020-08-12T07:53:03Z</time>
      </trkpt>
      <trkpt lat="42.0523251314" lon="-6.8807197362">
        <ele>1100.85</ele>
        <time>2020-08-12T07:53:14Z</time>
      </trkpt>
      <trkpt lat="42.0521607623" lon="-6.8809579499">
        <ele>1101.81</ele>
        <time>2020-08-12T07:53:22Z</time>
      </trkpt>
      <trkpt lat="42.0519404020" lon="-6.8812830001">
        <ele>1103.25</ele>
        <time>2020-08-12T07:53:33Z</time>
      </trkpt>
      <trkpt lat="42.0517553296" lon="-6.8814876024">
        <ele>1104.21</ele>
        <time>2020-08-12T07:53:41Z</time>
      </trkpt>
      <trkpt lat="42.0516269188" lon="-6.8815998361">
        <ele>1105.17</ele>
        <time>2020-08-12T07:53:49Z</time>
      </trkpt>
      <trkpt lat="42.0516509749" lon="-6.8816232216">
        <ele>1104.69</ele>
        <time>2020-08-12T07:54:04Z</time>
      </trkpt>
      <trkpt lat="42.0516388211" lon="-6.8815798871">
        <ele>1104.69</ele>
        <time>2020-08-12T07:54:16Z</time>
      </trkpt>
      <trkpt lat="42.0516615361" lon="-6.8815352116">
        <ele>1105.17</ele>
        <time>2020-08-12T07:54:25Z</time>
      </trkpt>
      <trkpt lat="42.0516684931" lon="-6.8815311883">
        <ele>1105.17</ele>
        <time>2020-08-12T07:54:26Z</time>
      </trkpt>
      <trkpt lat="42.0517382305" lon="-6.8814857583">
        <ele>1104.69</ele>
        <time>2020-08-12T07:54:32Z</time>
      </trkpt>
      <trkpt lat="42.0517491270" lon="-6.8814920448">
        <ele>1104.69</ele>
        <time>2020-08-12T07:54:33Z</time>
      </trkpt>
      <trkpt lat="42.0517553296" lon="-6.8815148436">
        <ele>1104.69</ele>
        <time>2020-08-12T07:54:38Z</time>
      </trkpt>
      <trkpt lat="42.0517497975" lon="-6.8815078866">
        <ele>1105.17</ele>
        <time>2020-08-12T07:54:51Z</time>
      </trkpt>
      <trkpt lat="42.0517449360" lon="-6.8815018516">
        <ele>1103.25</ele>
        <time>2020-08-12T07:55:08Z</time>
      </trkpt>
      <trkpt lat="42.0517462771" lon="-6.8815028574">
        <ele>1102.77</ele>
        <time>2020-08-12T07:55:16Z</time>
      </trkpt>
      <trkpt lat="42.0517304353" lon="-6.8815071322">
        <ele>1102.29</ele>
        <time>2020-08-12T07:55:19Z</time>
      </trkpt>
      <trkpt lat="42.0517172758" lon="-6.8815173581">
        <ele>1102.77</ele>
        <time>2020-08-12T07:55:20Z</time>
      </trkpt>
      <trkpt lat="42.0516945608" lon="-6.8815372232">
        <ele>1102.77</ele>
        <time>2020-08-12T07:55:21Z</time>
      </trkpt>
      <trkpt lat="42.0514600351" lon="-6.8817037717">
        <ele>1104.69</ele>
        <time>2020-08-12T07:55:30Z</time>
      </trkpt>
      <trkpt lat="42.0511968434" lon="-6.8818547297">
        <ele>1106.61</ele>
        <time>2020-08-12T07:55:39Z</time>
      </trkpt>
      <trkpt lat="42.0511835162" lon="-6.8818468507">
        <ele>1107.10</ele>
        <time>2020-08-12T07:55:40Z</time>
      </trkpt>
      <trkpt lat="42.0512566064" lon="-6.8817823101">
        <ele>1106.61</ele>
        <time>2020-08-12T07:55:44Z</time>
      </trkpt>
      <trkpt lat="42.0515763760" lon="-6.8815858383">
        <ele>1104.69</ele>
        <time>2020-08-12T07:55:51Z</time>
      </trkpt>
      <trkpt lat="42.0516463649" lon="-6.8815266620">
        <ele>1104.21</ele>
        <time>2020-08-12T07:55:54Z</time>
      </trkpt>
      <trkpt lat="42.0516544115" lon="-6.8815270811">
        <ele>1104.69</ele>
        <time>2020-08-12T07:56:00Z</time>
      </trkpt>
      <trkpt lat="42.0516621228" lon="-6.8815342896">
        <ele>1104.69</ele>
        <time>2020-08-12T07:56:16Z</time>
      </trkpt>
      <trkpt lat="42.0516646374" lon="-6.8815257400">
        <ele>1104.21</ele>
        <time>2020-08-12T07:56:27Z</time>
      </trkpt>
      <trkpt lat="42.0516728517" lon="-6.8815420847">
        <ele>1102.29</ele>
        <time>2020-08-12T07:56:43Z</time>
      </trkpt>
      <trkpt lat="42.0516618714" lon="-6.8815322779">
        <ele>1098.44</ele>
        <time>2020-08-12T07:57:00Z</time>
      </trkpt>
      <trkpt lat="42.0516712591" lon="-6.8815461919">
        <ele>1097.48</ele>
        <time>2020-08-12T07:57:15Z</time>
      </trkpt>
      <trkpt lat="42.0516791381" lon="-6.8815723434">
        <ele>1098.44</ele>
        <time>2020-08-12T07:57:17Z</time>
      </trkpt>
      <trkpt lat="42.0516802277" lon="-6.8815910351">
        <ele>1099.89</ele>
        <time>2020-08-12T07:57:23Z</time>
      </trkpt>
      <trkpt lat="42.0516672358" lon="-6.8816042785">
        <ele>1100.37</ele>
        <time>2020-08-12T07:57:25Z</time>
      </trkpt>
      <trkpt lat="42.0516520645" lon="-6.8816185277">
        <ele>1100.37</ele>
        <time>2020-08-12T07:57:26Z</time>
      </trkpt>
      <trkpt lat="42.0516383182" lon="-6.8816302624">
        <ele>1100.37</ele>
        <time>2020-08-12T07:57:27Z</time>
      </trkpt>
      <trkpt lat="42.0516171958" lon="-6.8816455174">
        <ele>1100.37</ele>
        <time>2020-08-12T07:57:28Z</time>
      </trkpt>
      <trkpt lat="42.0515918825" lon="-6.8816611078">
        <ele>1100.85</ele>
        <time>2020-08-12T07:57:29Z</time>
      </trkpt>
      <trkpt lat="42.0512904692" lon="-6.8818334397">
        <ele>1103.25</ele>
        <time>2020-08-12T07:57:39Z</time>
      </trkpt>
      <trkpt lat="42.0509839430" lon="-6.8820277322">
        <ele>1105.65</ele>
        <time>2020-08-12T07:57:49Z</time>
      </trkpt>
      <trkpt lat="42.0508045703" lon="-6.8821882457">
        <ele>1107.58</ele>
        <time>2020-08-12T07:57:57Z</time>
      </trkpt>
      <trkpt lat="42.0506301429" lon="-6.8823390361">
        <ele>1109.02</ele>
        <time>2020-08-12T07:58:05Z</time>
      </trkpt>
      <trkpt lat="42.0505131315" lon="-6.8824380264">
        <ele>1111.90</ele>
        <time>2020-08-12T07:58:13Z</time>
      </trkpt>
      <trkpt lat="42.0503780153" lon="-6.8825515173">
        <ele>1113.34</ele>
        <time>2020-08-12T07:58:22Z</time>
      </trkpt>
      <trkpt lat="42.0502101257" lon="-6.8826657627">
        <ele>1115.75</ele>
        <time>2020-08-12T07:58:32Z</time>
      </trkpt>
      <trkpt lat="42.0501680486" lon="-6.8827014696">
        <ele>1115.27</ele>
        <time>2020-08-12T07:58:39Z</time>
      </trkpt>
      <trkpt lat="42.0501683000" lon="-6.8826881424">
        <ele>1113.82</ele>
        <time>2020-08-12T07:58:56Z</time>
      </trkpt>
      <trkpt lat="42.0500382967" lon="-6.8827653397">
        <ele>1114.79</ele>
        <time>2020-08-12T07:59:02Z</time>
      </trkpt>
      <trkpt lat="42.0497941319" lon="-6.8828987796">
        <ele>1115.75</ele>
        <time>2020-08-12T07:59:11Z</time>
      </trkpt>
      <trkpt lat="42.0494443551" lon="-6.8830725364">
        <ele>1116.71</ele>
        <time>2020-08-12T07:59:23Z</time>
      </trkpt>
      <trkpt lat="42.0491512399" lon="-6.8832256738">
        <ele>1118.15</ele>
        <time>2020-08-12T07:59:33Z</time>
      </trkpt>
      <trkpt lat="42.0489195641" lon="-6.8833689205">
        <ele>1119.59</ele>
        <time>2020-08-12T07:59:41Z</time>
      </trkpt>
      <trkpt lat="42.0486302208" lon="-6.8835663144">
        <ele>1121.03</ele>
        <time>2020-08-12T07:59:51Z</time>
      </trkpt>
      <trkpt lat="42.0483160671" lon="-6.8837729283">
        <ele>1122.48</ele>
        <time>2020-08-12T08:00:01Z</time>
      </trkpt>
      <trkpt lat="42.0479411446" lon="-6.8840338569">
        <ele>1123.92</ele>
        <time>2020-08-12T08:00:14Z</time>
      </trkpt>
      <trkpt lat="42.0476389769" lon="-6.8842488527">
        <ele>1124.88</ele>
        <time>2020-08-12T08:00:25Z</time>
      </trkpt>
      <trkpt lat="42.0473881066" lon="-6.8844970409">
        <ele>1127.28</ele>
        <time>2020-08-12T08:00:35Z</time>
      </trkpt>
      <trkpt lat="42.0472038724" lon="-6.8848309759">
        <ele>1128.24</ele>
        <time>2020-08-12T08:00:45Z</time>
      </trkpt>
      <trkpt lat="42.0471350569" lon="-6.8852235004">
        <ele>1128.24</ele>
        <time>2020-08-12T08:00:55Z</time>
      </trkpt>
      <trkpt lat="42.0471415110" lon="-6.8855343852">
        <ele>1128.73</ele>
        <time>2020-08-12T08:01:03Z</time>
      </trkpt>
      <trkpt lat="42.0470917225" lon="-6.8858113233">
        <ele>1129.21</ele>
        <time>2020-08-12T08:01:11Z</time>
      </trkpt>
      <trkpt lat="42.0469121821" lon="-6.8861259799">
        <ele>1129.69</ele>
        <time>2020-08-12T08:01:21Z</time>
      </trkpt>
      <trkpt lat="42.0468432829" lon="-6.8863077834">
        <ele>1128.24</ele>
        <time>2020-08-12T08:01:28Z</time>
      </trkpt>
      <trkpt lat="42.0468323026" lon="-6.8863406405">
        <ele>1128.24</ele>
        <time>2020-08-12T08:01:30Z</time>
      </trkpt>
      <trkpt lat="42.0468266867" lon="-6.8863549735">
        <ele>1128.73</ele>
        <time>2020-08-12T08:01:36Z</time>
      </trkpt>
      <trkpt lat="42.0468333922" lon="-6.8863586616">
        <ele>1129.69</ele>
        <time>2020-08-12T08:01:44Z</time>
      </trkpt>
      <trkpt lat="42.0468568616" lon="-6.8863444123">
        <ele>1131.61</ele>
        <time>2020-08-12T08:02:01Z</time>
      </trkpt>
      <trkpt lat="42.0468587894" lon="-6.8863406405">
        <ele>1133.05</ele>
        <time>2020-08-12T08:02:20Z</time>
      </trkpt>
      <trkpt lat="42.0468572807" lon="-6.8863389641">
        <ele>1132.09</ele>
        <time>2020-08-12T08:02:37Z</time>
      </trkpt>
      <trkpt lat="42.0468539279" lon="-6.8863370363">
        <ele>1131.61</ele>
        <time>2020-08-12T08:02:49Z</time>
      </trkpt>
      <trkpt lat="42.0468478091" lon="-6.8863278162">
        <ele>1134.97</ele>
        <time>2020-08-12T08:03:11Z</time>
      </trkpt>
      <trkpt lat="42.0468428638" lon="-6.8863372039">
        <ele>1135.45</ele>
        <time>2020-08-12T08:03:30Z</time>
      </trkpt>
      <trkpt lat="42.0468476415" lon="-6.8863144889">
        <ele>1134.49</ele>
        <time>2020-08-12T08:03:51Z</time>
      </trkpt>
      <trkpt lat="42.0468624774" lon="-6.8863345217">
        <ele>1132.57</ele>
        <time>2020-08-12T08:04:15Z</time>
      </trkpt>
      <trkpt lat="42.0468555205" lon="-6.8863122258">
        <ele>1132.57</ele>
        <time>2020-08-12T08:04:32Z</time>
      </trkpt>
      <trkpt lat="42.0468546823" lon="-6.8863133155">
        <ele>1134.01</ele>
        <time>2020-08-12T08:04:54Z</time>
      </trkpt>
      <trkpt lat="42.0468566939" lon="-6.8863254692">
        <ele>1131.61</ele>
        <time>2020-08-12T08:05:14Z</time>
      </trkpt>
      <trkpt lat="42.0468633156" lon="-6.8863353599">
        <ele>1132.09</ele>
        <time>2020-08-12T08:05:27Z</time>
      </trkpt>
      <trkpt lat="42.0468602981" lon="-6.8863168359">
        <ele>1134.01</ele>
        <time>2020-08-12T08:05:42Z</time>
      </trkpt>
      <trkpt lat="42.0468540955" lon="-6.8862874992">
        <ele>1135.45</ele>
        <time>2020-08-12T08:06:02Z</time>
      </trkpt>
      <trkpt lat="42.0468502399" lon="-6.8863082863">
        <ele>1135.45</ele>
        <time>2020-08-12T08:06:15Z</time>
      </trkpt>
      <trkpt lat="42.0468371641" lon="-6.8862952106">
        <ele>1133.05</ele>
        <time>2020-08-12T08:06:35Z</time>
      </trkpt>
      <trkpt lat="42.0468311291" lon="-6.8863071129">
        <ele>1133.05</ele>
        <time>2020-08-12T08:06:54Z</time>
      </trkpt>
      <trkpt lat="42.0468312968" lon="-6.8863136508">
        <ele>1131.61</ele>
        <time>2020-08-12T08:07:10Z</time>
      </trkpt>
      <trkpt lat="42.0468378346" lon="-6.8862650357">
        <ele>1131.13</ele>
        <time>2020-08-12T08:07:27Z</time>
      </trkpt>
      <trkpt lat="42.0468145330" lon="-6.8862600904">
        <ele>1133.05</ele>
        <time>2020-08-12T08:07:51Z</time>
      </trkpt>
      <trkpt lat="42.0468255132" lon="-6.8862872478">
        <ele>1134.97</ele>
        <time>2020-08-12T08:08:08Z</time>
      </trkpt>
      <trkpt lat="42.0468339790" lon="-6.8863140699">
        <ele>1133.53</ele>
        <time>2020-08-12T08:08:26Z</time>
      </trkpt>
      <trkpt lat="42.0468314644" lon="-6.8863304984">
        <ele>1133.05</ele>
        <time>2020-08-12T08:08:44Z</time>
      </trkpt>
      <trkpt lat="42.0468264353" lon="-6.8863626849">
        <ele>1134.01</ele>
        <time>2020-08-12T08:08:57Z</time>
      </trkpt>
      <trkpt lat="42.0468274411" lon="-6.8863698095">
        <ele>1136.90</ele>
        <time>2020-08-12T08:09:14Z</time>
      </trkpt>
      <trkpt lat="42.0468161255" lon="-6.8863698933">
        <ele>1136.90</ele>
        <time>2020-08-12T08:09:29Z</time>
      </trkpt>
      <trkpt lat="42.0468282793" lon="-6.8863308337">
        <ele>1136.42</ele>
        <time>2020-08-12T08:09:48Z</time>
      </trkpt>
      <trkpt lat="42.0468252618" lon="-6.8863185123">
        <ele>1134.49</ele>
        <time>2020-08-12T08:10:07Z</time>
      </trkpt>
      <trkpt lat="42.0468237530" lon="-6.8863108009">
        <ele>1133.53</ele>
        <time>2020-08-12T08:10:26Z</time>
      </trkpt>
      <trkpt lat="42.0468148682" lon="-6.8863250501">
        <ele>1132.09</ele>
        <time>2020-08-12T08:10:46Z</time>
      </trkpt>
      <trkpt lat="42.0468351524" lon="-6.8863242958">
        <ele>1130.65</ele>
        <time>2020-08-12T08:11:03Z</time>
      </trkpt>
      <trkpt lat="42.0468460489" lon="-6.8863311689">
        <ele>1130.65</ele>
        <time>2020-08-12T08:11:21Z</time>
      </trkpt>
      <trkpt lat="42.0468451269" lon="-6.8863398023">
        <ele>1130.65</ele>
        <time>2020-08-12T08:11:37Z</time>
      </trkpt>
      <trkpt lat="42.0468391757" lon="-6.8863444962">
        <ele>1130.65</ele>
        <time>2020-08-12T08:11:55Z</time>
      </trkpt>
      <trkpt lat="42.0468287822" lon="-6.8862874992">
        <ele>1130.65</ele>
        <time>2020-08-12T08:12:16Z</time>
      </trkpt>
      <trkpt lat="42.0468483958" lon="-6.8863078672">
        <ele>1131.61</ele>
        <time>2020-08-12T08:12:38Z</time>
      </trkpt>
      <trkpt lat="42.0468502399" lon="-6.8863164168">
        <ele>1130.65</ele>
        <time>2020-08-12T08:12:56Z</time>
      </trkpt>
      <trkpt lat="42.0468421094" lon="-6.8863146566">
        <ele>1131.13</ele>
        <time>2020-08-12T08:13:12Z</time>
      </trkpt>
      <trkpt lat="42.0468470547" lon="-6.8862988148">
        <ele>1132.57</ele>
        <time>2020-08-12T08:13:28Z</time>
      </trkpt>
      <trkpt lat="42.0468524192" lon="-6.8863084540">
        <ele>1134.01</ele>
        <time>2020-08-12T08:13:52Z</time>
      </trkpt>
      <trkpt lat="42.0468336437" lon="-6.8863099627">
        <ele>1135.94</ele>
        <time>2020-08-12T08:14:16Z</time>
      </trkpt>
      <trkpt lat="42.0468514971" lon="-6.8863148242">
        <ele>1134.49</ele>
        <time>2020-08-12T08:14:40Z</time>
      </trkpt>
      <trkpt lat="42.0468503237" lon="-6.8863108847">
        <ele>1133.05</ele>
        <time>2020-08-12T08:15:01Z</time>
      </trkpt>
      <trkpt lat="42.0468290336" lon="-6.8862786144">
        <ele>1132.09</ele>
        <time>2020-08-12T08:15:18Z</time>
      </trkpt>
      <trkpt lat="42.0468299557" lon="-6.8862748425">
        <ele>1134.01</ele>
        <time>2020-08-12T08:15:37Z</time>
      </trkpt>
      <trkpt lat="42.0468213223" lon="-6.8863000721">
        <ele>1132.09</ele>
        <time>2020-08-12T08:15:53Z</time>
      </trkpt>
      <trkpt lat="42.0468173828" lon="-6.8863135669">
        <ele>1131.13</ele>
        <time>2020-08-12T08:16:10Z</time>
      </trkpt>
      <trkpt lat="42.0468247589" lon="-6.8863172550">
        <ele>1130.65</ele>
        <time>2020-08-12T08:16:32Z</time>
      </trkpt>
      <trkpt lat="42.0468277764" lon="-6.8863346055">
        <ele>1130.65</ele>
        <time>2020-08-12T08:16:52Z</time>
      </trkpt>
      <trkpt lat="42.0468286984" lon="-6.8863365334">
        <ele>1131.61</ele>
        <time>2020-08-12T08:17:13Z</time>
      </trkpt>
      <trkpt lat="42.0468156226" lon="-6.8863160815">
        <ele>1133.05</ele>
        <time>2020-08-12T08:17:35Z</time>
      </trkpt>
      <trkpt lat="42.0468261838" lon="-6.8862689752">
        <ele>1135.45</ele>
        <time>2020-08-12T08:17:59Z</time>
      </trkpt>
      <trkpt lat="42.0468359906" lon="-6.8862743396">
        <ele>1134.49</ele>
        <time>2020-08-12T08:18:22Z</time>
      </trkpt>
      <trkpt lat="42.0468363259" lon="-6.8863045983">
        <ele>1132.09</ele>
        <time>2020-08-12T08:18:40Z</time>
      </trkpt>
      <trkpt lat="42.0468333084" lon="-6.8863080349">
        <ele>1129.21</ele>
        <time>2020-08-12T08:19:00Z</time>
      </trkpt>
      <trkpt lat="42.0468385890" lon="-6.8863209430">
        <ele>1129.21</ele>
        <time>2020-08-12T08:19:24Z</time>
      </trkpt>
      <trkpt lat="42.0468394272" lon="-6.8863031734">
        <ele>1128.73</ele>
        <time>2020-08-12T08:19:43Z</time>
      </trkpt>
      <trkpt lat="42.0468304586" lon="-6.8862994015">
        <ele>1128.73</ele>
        <time>2020-08-12T08:20:08Z</time>
      </trkpt>
      <trkpt lat="42.0468388405" lon="-6.8862903491">
        <ele>1127.76</ele>
        <time>2020-08-12T08:20:28Z</time>
      </trkpt>
      <trkpt lat="42.0468257647" lon="-6.8863147404">
        <ele>1128.73</ele>
        <time>2020-08-12T08:20:41Z</time>
      </trkpt>
      <trkpt lat="42.0468209870" lon="-6.8863095436">
        <ele>1130.65</ele>
        <time>2020-08-12T08:21:05Z</time>
      </trkpt>
      <trkpt lat="42.0468133595" lon="-6.8863090407">
        <ele>1130.65</ele>
        <time>2020-08-12T08:21:24Z</time>
      </trkpt>
      <trkpt lat="42.0468080789" lon="-6.8863159139">
        <ele>1130.17</ele>
        <time>2020-08-12T08:21:42Z</time>
      </trkpt>
      <trkpt lat="42.0468205679" lon="-6.8863342702">
        <ele>1132.09</ele>
        <time>2020-08-12T08:21:58Z</time>
      </trkpt>
      <trkpt lat="42.0468320511" lon="-6.8863368686">
        <ele>1131.61</ele>
        <time>2020-08-12T08:22:17Z</time>
      </trkpt>
      <trkpt lat="42.0468478929" lon="-6.8863540515">
        <ele>1129.69</ele>
        <time>2020-08-12T08:22:37Z</time>
      </trkpt>
      <trkpt lat="42.0468360744" lon="-6.8863594159">
        <ele>1131.13</ele>
        <time>2020-08-12T08:22:54Z</time>
      </trkpt>
      <trkpt lat="42.0468393434" lon="-6.8863569014">
        <ele>1134.01</ele>
        <time>2020-08-12T08:23:12Z</time>
      </trkpt>
      <trkpt lat="42.0468321349" lon="-6.8863311689">
        <ele>1133.05</ele>
        <time>2020-08-12T08:23:31Z</time>
      </trkpt>
      <trkpt lat="42.0468223281" lon="-6.8862980604">
        <ele>1132.57</ele>
        <time>2020-08-12T08:23:46Z</time>
      </trkpt>
      <trkpt lat="42.0468312968" lon="-6.8863061909">
        <ele>1130.65</ele>
        <time>2020-08-12T08:24:03Z</time>
      </trkpt>
      <trkpt lat="42.0468239207" lon="-6.8863219488">
        <ele>1131.13</ele>
        <time>2020-08-12T08:24:22Z</time>
      </trkpt>
      <trkpt lat="42.0468164608" lon="-6.8863392156">
        <ele>1129.69</ele>
        <time>2020-08-12T08:24:35Z</time>
      </trkpt>
      <trkpt lat="42.0468393434" lon="-6.8863532972">
        <ele>1132.57</ele>
        <time>2020-08-12T08:24:50Z</time>
      </trkpt>
      <trkpt lat="42.0468515810" lon="-6.8863658700">
        <ele>1132.57</ele>
        <time>2020-08-12T08:25:06Z</time>
      </trkpt>
      <trkpt lat="42.0468525868" lon="-6.8863681331">
        <ele>1129.21</ele>
        <time>2020-08-12T08:25:20Z</time>
      </trkpt>
      <trkpt lat="42.0468494017" lon="-6.8863601703">
        <ele>1128.73</ele>
        <time>2020-08-12T08:25:27Z</time>
      </trkpt>
      <trkpt lat="42.0468408521" lon="-6.8863626011">
        <ele>1128.73</ele>
        <time>2020-08-12T08:25:39Z</time>
      </trkpt>
      <trkpt lat="42.0468245074" lon="-6.8863658700">
        <ele>1128.24</ele>
        <time>2020-08-12T08:25:44Z</time>
      </trkpt>
      <trkpt lat="42.0468054805" lon="-6.8863688037">
        <ele>1128.24</ele>
        <time>2020-08-12T08:25:46Z</time>
      </trkpt>
      <trkpt lat="42.0467952546" lon="-6.8863522075">
        <ele>1128.24</ele>
        <time>2020-08-12T08:25:48Z</time>
      </trkpt>
      <trkpt lat="42.0467979368" lon="-6.8863285705">
        <ele>1128.24</ele>
        <time>2020-08-12T08:25:50Z</time>
      </trkpt>
      <trkpt lat="42.0468012895" lon="-6.8863164168">
        <ele>1128.73</ele>
        <time>2020-08-12T08:25:51Z</time>
      </trkpt>
      <trkpt lat="42.0467634872" lon="-6.8862806261">
        <ele>1128.24</ele>
        <time>2020-08-12T08:25:54Z</time>
      </trkpt>
      <trkpt lat="42.0467338152" lon="-6.8862839788">
        <ele>1128.24</ele>
        <time>2020-08-12T08:25:55Z</time>
      </trkpt>
      <trkpt lat="42.0467116870" lon="-6.8862919416">
        <ele>1127.76</ele>
        <time>2020-08-12T08:25:56Z</time>
      </trkpt>
      <trkpt lat="42.0466826856" lon="-6.8863052689">
        <ele>1127.76</ele>
        <time>2020-08-12T08:25:57Z</time>
      </trkpt>
      <trkpt lat="42.0466532651" lon="-6.8863236252">
        <ele>1127.76</ele>
        <time>2020-08-12T08:25:58Z</time>
      </trkpt>
      <trkpt lat="42.0463831164" lon="-6.8864804506">
        <ele>1124.88</ele>
        <time>2020-08-12T08:26:07Z</time>
      </trkpt>
      <trkpt lat="42.0462068450" lon="-6.8865878228">
        <ele>1123.44</ele>
        <time>2020-08-12T08:26:14Z</time>
      </trkpt>
      <trkpt lat="42.0462007262" lon="-6.8865894992">
        <ele>1123.44</ele>
        <time>2020-08-12T08:26:20Z</time>
      </trkpt>
      <trkpt lat="42.0461887401" lon="-6.8865821231">
        <ele>1122.96</ele>
        <time>2020-08-12T08:26:25Z</time>
      </trkpt>
      <trkpt lat="42.0460452419" lon="-6.8866526987">
        <ele>1122.48</ele>
        <time>2020-08-12T08:26:31Z</time>
      </trkpt>
      <trkpt lat="42.0457980596" lon="-6.8867899105">
        <ele>1122.00</ele>
        <time>2020-08-12T08:26:38Z</time>
      </trkpt>
      <trkpt lat="42.0453974046" lon="-6.8870036490">
        <ele>1121.52</ele>
        <time>2020-08-12T08:26:49Z</time>
      </trkpt>
      <trkpt lat="42.0450344682" lon="-6.8871819321">
        <ele>1121.03</ele>
        <time>2020-08-12T08:26:59Z</time>
      </trkpt>
      <trkpt lat="42.0446347352" lon="-6.8872816768">
        <ele>1119.59</ele>
        <time>2020-08-12T08:27:08Z</time>
      </trkpt>
      <trkpt lat="42.0444753114" lon="-6.8872473110">
        <ele>1119.11</ele>
        <time>2020-08-12T08:27:11Z</time>
      </trkpt>
      <trkpt lat="42.0443696994" lon="-6.8871921580">
        <ele>1118.63</ele>
        <time>2020-08-12T08:27:13Z</time>
      </trkpt>
      <trkpt lat="42.0439128857" lon="-6.8868548702">
        <ele>1116.23</ele>
        <time>2020-08-12T08:27:22Z</time>
      </trkpt>
      <trkpt lat="42.0434656274" lon="-6.8867039960">
        <ele>1114.31</ele>
        <time>2020-08-12T08:27:30Z</time>
      </trkpt>
      <trkpt lat="42.0430428442" lon="-6.8867801875">
        <ele>1112.86</ele>
        <time>2020-08-12T08:27:37Z</time>
      </trkpt>
      <trkpt lat="42.0426576119" lon="-6.8869287986">
        <ele>1109.98</ele>
        <time>2020-08-12T08:27:44Z</time>
      </trkpt>
      <trkpt lat="42.0426084101" lon="-6.8869639188">
        <ele>1109.98</ele>
        <time>2020-08-12T08:27:45Z</time>
      </trkpt>
      <trkpt lat="42.0425672550" lon="-6.8870018888">
        <ele>1109.50</ele>
        <time>2020-08-12T08:27:46Z</time>
      </trkpt>
      <trkpt lat="42.0425280277" lon="-6.8870465644">
        <ele>1109.50</ele>
        <time>2020-08-12T08:27:47Z</time>
      </trkpt>
      <trkpt lat="42.0424930751" lon="-6.8870956823">
        <ele>1109.02</ele>
        <time>2020-08-12T08:27:48Z</time>
      </trkpt>
      <trkpt lat="42.0424607210" lon="-6.8871468119">
        <ele>1109.02</ele>
        <time>2020-08-12T08:27:49Z</time>
      </trkpt>
      <trkpt lat="42.0422005467" lon="-6.8875576090">
        <ele>1107.10</ele>
        <time>2020-08-12T08:27:57Z</time>
      </trkpt>
      <trkpt lat="42.0421571285" lon="-6.8875997700">
        <ele>1107.10</ele>
        <time>2020-08-12T08:27:58Z</time>
      </trkpt>
      <trkpt lat="42.0421184879" lon="-6.8876293581">
        <ele>1107.10</ele>
        <time>2020-08-12T08:27:59Z</time>
      </trkpt>
      <trkpt lat="42.0420728903" lon="-6.8876571022">
        <ele>1107.10</ele>
        <time>2020-08-12T08:28:00Z</time>
      </trkpt>
      <trkpt lat="42.0420259517" lon="-6.8876750395">
        <ele>1106.61</ele>
        <time>2020-08-12T08:28:01Z</time>
      </trkpt>
      <trkpt lat="42.0419753250" lon="-6.8876844272">
        <ele>1106.61</ele>
        <time>2020-08-12T08:28:02Z</time>
      </trkpt>
      <trkpt lat="42.0419222675" lon="-6.8876887858">
        <ele>1106.61</ele>
        <time>2020-08-12T08:28:03Z</time>
      </trkpt>
      <trkpt lat="42.0418677013" lon="-6.8876885343">
        <ele>1106.61</ele>
        <time>2020-08-12T08:28:04Z</time>
      </trkpt>
      <trkpt lat="42.0411944669" lon="-6.8876223173">
        <ele>1104.21</ele>
        <time>2020-08-12T08:28:15Z</time>
      </trkpt>
      <trkpt lat="42.0407733601" lon="-6.8876545876">
        <ele>1102.29</ele>
        <time>2020-08-12T08:28:22Z</time>
      </trkpt>
      <trkpt lat="42.0403468888" lon="-6.8878342956">
        <ele>1099.40</ele>
        <time>2020-08-12T08:28:31Z</time>
      </trkpt>
      <trkpt lat="42.0399376843" lon="-6.8880799692">
        <ele>1097.00</ele>
        <time>2020-08-12T08:28:41Z</time>
      </trkpt>
      <trkpt lat="42.0396534540" lon="-6.8883875851">
        <ele>1096.04</ele>
        <time>2020-08-12T08:28:49Z</time>
      </trkpt>
      <trkpt lat="42.0392522961" lon="-6.8888366874">
        <ele>1094.60</ele>
        <time>2020-08-12T08:29:00Z</time>
      </trkpt>
      <trkpt lat="42.0389400702" lon="-6.8892228417">
        <ele>1093.64</ele>
        <time>2020-08-12T08:29:08Z</time>
      </trkpt>
      <trkpt lat="42.0388357993" lon="-6.8894059025">
        <ele>1092.68</ele>
        <time>2020-08-12T08:29:11Z</time>
      </trkpt>
      <trkpt lat="42.0386795606" lon="-6.8899230659">
        <ele>1089.79</ele>
        <time>2020-08-12T08:29:18Z</time>
      </trkpt>
      <trkpt lat="42.0385607891" lon="-6.8907572329">
        <ele>1086.91</ele>
        <time>2020-08-12T08:29:27Z</time>
      </trkpt>
      <trkpt lat="42.0385977533" lon="-6.8914196547">
        <ele>1084.99</ele>
        <time>2020-08-12T08:29:34Z</time>
      </trkpt>
      <trkpt lat="42.0386534091" lon="-6.8918586988">
        <ele>1084.99</ele>
        <time>2020-08-12T08:29:39Z</time>
      </trkpt>
      <trkpt lat="42.0386500563" lon="-6.8919393327">
        <ele>1084.99</ele>
        <time>2020-08-12T08:29:40Z</time>
      </trkpt>
      <trkpt lat="42.0386413392" lon="-6.8920167815">
        <ele>1084.99</ele>
        <time>2020-08-12T08:29:41Z</time>
      </trkpt>
      <trkpt lat="42.0385188796" lon="-6.8924763612">
        <ele>1084.99</ele>
        <time>2020-08-12T08:29:48Z</time>
      </trkpt>
      <trkpt lat="42.0383696817" lon="-6.8928537145">
        <ele>1086.91</ele>
        <time>2020-08-12T08:29:56Z</time>
      </trkpt>
      <trkpt lat="42.0382967591" lon="-6.8931076862">
        <ele>1087.87</ele>
        <time>2020-08-12T08:30:03Z</time>
      </trkpt>
      <trkpt lat="42.0383240003" lon="-6.8933538627">
        <ele>1088.35</ele>
        <time>2020-08-12T08:30:10Z</time>
      </trkpt>
      <trkpt lat="42.0384856872" lon="-6.8935762346">
        <ele>1087.87</ele>
        <time>2020-08-12T08:30:18Z</time>
      </trkpt>
      <trkpt lat="42.0386788901" lon="-6.8937723711">
        <ele>1088.35</ele>
        <time>2020-08-12T08:30:26Z</time>
      </trkpt>
      <trkpt lat="42.0388690755" lon="-6.8939693458">
        <ele>1088.35</ele>
        <time>2020-08-12T08:30:34Z</time>
      </trkpt>
      <trkpt lat="42.0390977338" lon="-6.8942232337">
        <ele>1087.87</ele>
        <time>2020-08-12T08:30:44Z</time>
      </trkpt>
      <trkpt lat="42.0392506197" lon="-6.8944062106">
        <ele>1087.87</ele>
        <time>2020-08-12T08:30:51Z</time>
      </trkpt>
      <trkpt lat="42.0394945331" lon="-6.8946859986">
        <ele>1088.35</ele>
        <time>2020-08-12T08:31:02Z</time>
      </trkpt>
      <trkpt lat="42.0396689605" lon="-6.8949039280">
        <ele>1089.31</ele>
        <time>2020-08-12T08:31:12Z</time>
      </trkpt>
      <trkpt lat="42.0398102794" lon="-6.8950686324">
        <ele>1091.23</ele>
        <time>2020-08-12T08:31:21Z</time>
      </trkpt>
      <trkpt lat="42.0398702100" lon="-6.8951549660">
        <ele>1091.71</ele>
        <time>2020-08-12T08:31:27Z</time>
      </trkpt>
      <trkpt lat="42.0399555378" lon="-6.8952610809">
        <ele>1093.16</ele>
        <time>2020-08-12T08:31:34Z</time>
      </trkpt>
      <trkpt lat="42.0400575455" lon="-6.8954013940">
        <ele>1095.08</ele>
        <time>2020-08-12T08:31:43Z</time>
      </trkpt>
      <trkpt lat="42.0401084237" lon="-6.8954502605">
        <ele>1097.00</ele>
        <time>2020-08-12T08:31:49Z</time>
      </trkpt>
      <trkpt lat="42.0401190687" lon="-6.8954551220">
        <ele>1097.00</ele>
        <time>2020-08-12T08:31:50Z</time>
      </trkpt>
      <trkpt lat="42.0401309710" lon="-6.8954681139">
        <ele>1097.00</ele>
        <time>2020-08-12T08:31:51Z</time>
      </trkpt>
      <trkpt lat="42.0401420351" lon="-6.8954815250">
        <ele>1097.48</ele>
        <time>2020-08-12T08:31:52Z</time>
      </trkpt>
      <trkpt lat="42.0401541889" lon="-6.8954996299">
        <ele>1097.96</ele>
        <time>2020-08-12T08:31:53Z</time>
      </trkpt>
      <trkpt lat="42.0401674323" lon="-6.8955176510">
        <ele>1098.44</ele>
        <time>2020-08-12T08:31:54Z</time>
      </trkpt>
      <trkpt lat="42.0401821844" lon="-6.8955350854">
        <ele>1098.44</ele>
        <time>2020-08-12T08:31:55Z</time>
      </trkpt>
      <trkpt lat="42.0403021295" lon="-6.8956866302">
        <ele>1099.40</ele>
        <time>2020-08-12T08:32:04Z</time>
      </trkpt>
      <trkpt lat="42.0404310431" lon="-6.8958398513">
        <ele>1101.33</ele>
        <time>2020-08-12T08:32:15Z</time>
      </trkpt>
      <trkpt lat="42.0405073185" lon="-6.8959259335">
        <ele>1102.77</ele>
        <time>2020-08-12T08:32:22Z</time>
      </trkpt>
      <trkpt lat="42.0406270120" lon="-6.8960677553">
        <ele>1103.25</ele>
        <time>2020-08-12T08:32:30Z</time>
      </trkpt>
      <trkpt lat="42.0406923071" lon="-6.8961400911">
        <ele>1104.21</ele>
        <time>2020-08-12T08:32:35Z</time>
      </trkpt>
      <trkpt lat="42.0407016948" lon="-6.8961503170">
        <ele>1104.69</ele>
        <time>2020-08-12T08:32:36Z</time>
      </trkpt>
      <trkpt lat="42.0407216437" lon="-6.8961658236">
        <ele>1104.69</ele>
        <time>2020-08-12T08:32:42Z</time>
      </trkpt>
      <trkpt lat="42.0407198835" lon="-6.8961643148">
        <ele>1104.21</ele>
        <time>2020-08-12T08:32:53Z</time>
      </trkpt>
      <trkpt lat="42.0407228172" lon="-6.8961672485">
        <ele>1103.73</ele>
        <time>2020-08-12T08:33:08Z</time>
      </trkpt>
      <trkpt lat="42.0407353062" lon="-6.8961883709">
        <ele>1105.17</ele>
        <time>2020-08-12T08:33:17Z</time>
      </trkpt>
      <trkpt lat="42.0407545008" lon="-6.8962352257">
        <ele>1106.13</ele>
        <time>2020-08-12T08:33:24Z</time>
      </trkpt>
      <trkpt lat="42.0407525729" lon="-6.8962289393">
        <ele>1107.58</ele>
        <time>2020-08-12T08:33:31Z</time>
      </trkpt>
      <trkpt lat="42.0407456160" lon="-6.8962430209">
        <ele>1107.10</ele>
        <time>2020-08-12T08:33:45Z</time>
      </trkpt>
      <trkpt lat="42.0407453645" lon="-6.8962429371">
        <ele>1106.61</ele>
        <time>2020-08-12T08:33:57Z</time>
      </trkpt>
      <trkpt lat="42.0407757070" lon="-6.8962550070">
        <ele>1106.61</ele>
        <time>2020-08-12T08:34:05Z</time>
      </trkpt>
      <trkpt lat="42.0408808999" lon="-6.8963695038">
        <ele>1108.06</ele>
        <time>2020-08-12T08:34:15Z</time>
      </trkpt>
      <trkpt lat="42.0409909543" lon="-6.8964933883">
        <ele>1108.54</ele>
        <time>2020-08-12T08:34:25Z</time>
      </trkpt>
      <trkpt lat="42.0410979912" lon="-6.8966002576">
        <ele>1109.98</ele>
        <time>2020-08-12T08:34:37Z</time>
      </trkpt>
      <trkpt lat="42.0411052834" lon="-6.8965947255">
        <ele>1110.46</ele>
        <time>2020-08-12T08:34:50Z</time>
      </trkpt>
      <trkpt lat="42.0411073789" lon="-6.8965803087">
        <ele>1110.46</ele>
        <time>2020-08-12T08:35:14Z</time>
      </trkpt>
      <trkpt lat="42.0410998352" lon="-6.8965926301">
        <ele>1111.42</ele>
        <time>2020-08-12T08:35:29Z</time>
      </trkpt>
      <trkpt lat="42.0411204547" lon="-6.8966100644">
        <ele>1111.42</ele>
        <time>2020-08-12T08:35:36Z</time>
      </trkpt>
      <trkpt lat="42.0411220472" lon="-6.8966058735">
        <ele>1110.94</ele>
        <time>2020-08-12T08:35:47Z</time>
      </trkpt>
      <trkpt lat="42.0411852468" lon="-6.8966700789">
        <ele>1111.42</ele>
        <time>2020-08-12T08:35:52Z</time>
      </trkpt>
      <trkpt lat="42.0413042698" lon="-6.8967907783">
        <ele>1110.94</ele>
        <time>2020-08-12T08:35:59Z</time>
      </trkpt>
      <trkpt lat="42.0414322615" lon="-6.8969047721">
        <ele>1110.94</ele>
        <time>2020-08-12T08:36:08Z</time>
      </trkpt>
      <trkpt lat="42.0416063536" lon="-6.8970445823">
        <ele>1110.46</ele>
        <time>2020-08-12T08:36:17Z</time>
      </trkpt>
      <trkpt lat="42.0418003108" lon="-6.8971878290">
        <ele>1109.50</ele>
        <time>2020-08-12T08:36:24Z</time>
      </trkpt>
      <trkpt lat="42.0421084296" lon="-6.8973825406">
        <ele>1106.61</ele>
        <time>2020-08-12T08:36:32Z</time>
      </trkpt>
      <trkpt lat="42.0424038079" lon="-6.8975615781">
        <ele>1103.25</ele>
        <time>2020-08-12T08:36:37Z</time>
      </trkpt>
      <trkpt lat="42.0428492222" lon="-6.8978300504">
        <ele>1098.92</ele>
        <time>2020-08-12T08:36:42Z</time>
      </trkpt>
      <trkpt lat="42.0434923656" lon="-6.8982253410">
        <ele>1091.23</ele>
        <time>2020-08-12T08:36:48Z</time>
      </trkpt>
      <trkpt lat="42.0440508518" lon="-6.8985973299">
        <ele>1084.50</ele>
        <time>2020-08-12T08:36:54Z</time>
      </trkpt>
      <trkpt lat="42.0442587230" lon="-6.8987784628">
        <ele>1082.58</ele>
        <time>2020-08-12T08:36:57Z</time>
      </trkpt>
      <trkpt lat="42.0443105232" lon="-6.8988544866">
        <ele>1082.10</ele>
        <time>2020-08-12T08:36:58Z</time>
      </trkpt>
      <trkpt lat="42.0443567075" lon="-6.8989437539">
        <ele>1081.62</ele>
        <time>2020-08-12T08:36:59Z</time>
      </trkpt>
      <trkpt lat="42.0443930011" lon="-6.8990345299">
        <ele>1081.14</ele>
        <time>2020-08-12T08:37:00Z</time>
      </trkpt>
      <trkpt lat="42.0444186497" lon="-6.8991305027">
        <ele>1081.14</ele>
        <time>2020-08-12T08:37:01Z</time>
      </trkpt>
      <trkpt lat="42.0444313064" lon="-6.8992460053">
        <ele>1081.14</ele>
        <time>2020-08-12T08:37:02Z</time>
      </trkpt>
      <trkpt lat="42.0444303844" lon="-6.8993287347">
        <ele>1081.14</ele>
        <time>2020-08-12T08:37:03Z</time>
      </trkpt>
      <trkpt lat="42.0444220863" lon="-6.8994116317">
        <ele>1080.66</ele>
        <time>2020-08-12T08:37:04Z</time>
      </trkpt>
      <trkpt lat="42.0444027241" lon="-6.8995012343">
        <ele>1080.66</ele>
        <time>2020-08-12T08:37:05Z</time>
      </trkpt>
      <trkpt lat="42.0443797577" lon="-6.8995673675">
        <ele>1081.14</ele>
        <time>2020-08-12T08:37:06Z</time>
      </trkpt>
      <trkpt lat="42.0443510078" lon="-6.8996329140">
        <ele>1081.14</ele>
        <time>2020-08-12T08:37:07Z</time>
      </trkpt>
      <trkpt lat="42.0443194918" lon="-6.8996936828">
        <ele>1081.62</ele>
        <time>2020-08-12T08:37:08Z</time>
      </trkpt>
      <trkpt lat="42.0441982895" lon="-6.8998983689">
        <ele>1082.58</ele>
        <time>2020-08-12T08:37:13Z</time>
      </trkpt>
      <trkpt lat="42.0440472476" lon="-6.9001788273">
        <ele>1084.50</ele>
        <time>2020-08-12T08:37:23Z</time>
      </trkpt>
      <trkpt lat="42.0438903384" lon="-6.9004235789">
        <ele>1087.87</ele>
        <time>2020-08-12T08:37:34Z</time>
      </trkpt>
      <trkpt lat="42.0437660348" lon="-6.9006239064">
        <ele>1089.79</ele>
        <time>2020-08-12T08:37:43Z</time>
      </trkpt>
      <trkpt lat="42.0436175074" lon="-6.9008991681">
        <ele>1091.71</ele>
        <time>2020-08-12T08:37:55Z</time>
      </trkpt>
      <trkpt lat="42.0435724128" lon="-6.9009754434">
        <ele>1092.20</ele>
        <time>2020-08-12T08:37:59Z</time>
      </trkpt>
      <trkpt lat="42.0434409846" lon="-6.9011501223">
        <ele>1093.64</ele>
        <time>2020-08-12T08:38:09Z</time>
      </trkpt>
      <trkpt lat="42.0433088858" lon="-6.9013416488">
        <ele>1095.56</ele>
        <time>2020-08-12T08:38:19Z</time>
      </trkpt>
      <trkpt lat="42.0431886893" lon="-6.9014678802">
        <ele>1097.00</ele>
        <time>2020-08-12T08:38:28Z</time>
      </trkpt>
      <trkpt lat="42.0430593565" lon="-6.9015507773">
        <ele>1097.96</ele>
        <time>2020-08-12T08:38:36Z</time>
      </trkpt>
      <trkpt lat="42.0429189596" lon="-6.9016112946">
        <ele>1098.92</ele>
        <time>2020-08-12T08:38:44Z</time>
      </trkpt>
      <trkpt lat="42.0427507348" lon="-6.9016481750">
        <ele>1099.40</ele>
        <time>2020-08-12T08:38:53Z</time>
      </trkpt>
      <trkpt lat="42.0425077435" lon="-6.9016350154">
        <ele>1100.37</ele>
        <time>2020-08-12T08:39:03Z</time>
      </trkpt>
      <trkpt lat="42.0422976930" lon="-6.9015862327">
        <ele>1100.85</ele>
        <time>2020-08-12T08:39:11Z</time>
      </trkpt>
      <trkpt lat="42.0420665201" lon="-6.9015216082">
        <ele>1101.33</ele>
        <time>2020-08-12T08:39:21Z</time>
      </trkpt>
      <trkpt lat="42.0418371912" lon="-6.9014636893">
        <ele>1100.85</ele>
        <time>2020-08-12T08:39:30Z</time>
      </trkpt>
      <trkpt lat="42.0415357780" lon="-6.9013937842">
        <ele>1099.40</ele>
        <time>2020-08-12T08:39:38Z</time>
      </trkpt>
      <trkpt lat="42.0411739312" lon="-6.9013733324">
        <ele>1097.96</ele>
        <time>2020-08-12T08:39:44Z</time>
      </trkpt>
      <trkpt lat="42.0406644791" lon="-6.9014258869">
        <ele>1094.12</ele>
        <time>2020-08-12T08:39:50Z</time>
      </trkpt>
      <trkpt lat="42.0399358403" lon="-6.9015980512">
        <ele>1086.91</ele>
        <time>2020-08-12T08:39:57Z</time>
      </trkpt>
      <trkpt lat="42.0397412963" lon="-6.9016230293">
        <ele>1084.50</ele>
        <time>2020-08-12T08:39:59Z</time>
      </trkpt>
      <trkpt lat="42.0392517094" lon="-6.9014960434">
        <ele>1078.26</ele>
        <time>2020-08-12T08:40:04Z</time>
      </trkpt>
      <trkpt lat="42.0390615240" lon="-6.9013609271">
        <ele>1075.37</ele>
        <time>2020-08-12T08:40:06Z</time>
      </trkpt>
      <trkpt lat="42.0384104177" lon="-6.9007525686">
        <ele>1065.76</ele>
        <time>2020-08-12T08:40:13Z</time>
      </trkpt>
      <trkpt lat="42.0379241835" lon="-6.9004069827">
        <ele>1058.07</ele>
        <time>2020-08-12T08:40:19Z</time>
      </trkpt>
      <trkpt lat="42.0377260353" lon="-6.9003501534">
        <ele>1055.67</ele>
        <time>2020-08-12T08:40:21Z</time>
      </trkpt>
      <trkpt lat="42.0376158133" lon="-6.9003347307">
        <ele>1054.70</ele>
        <time>2020-08-12T08:40:22Z</time>
      </trkpt>
      <trkpt lat="42.0369927026" lon="-6.9003312103">
        <ele>1048.94</ele>
        <time>2020-08-12T08:40:28Z</time>
      </trkpt>
      <trkpt lat="42.0366298500" lon="-6.9004363194">
        <ele>1045.57</ele>
        <time>2020-08-12T08:40:33Z</time>
      </trkpt>
      <trkpt lat="42.0363621321" lon="-6.9005950727">
        <ele>1043.65</ele>
        <time>2020-08-12T08:40:39Z</time>
      </trkpt>
      <trkpt lat="42.0361877885" lon="-6.9008597732">
        <ele>1044.61</ele>
        <time>2020-08-12T08:40:47Z</time>
      </trkpt>
      <trkpt lat="42.0360426139" lon="-6.9012127351">
        <ele>1047.49</ele>
        <time>2020-08-12T08:40:56Z</time>
      </trkpt>
      <trkpt lat="42.0358827710" lon="-6.9016069360">
        <ele>1048.45</ele>
        <time>2020-08-12T08:41:05Z</time>
      </trkpt>
      <trkpt lat="42.0358244330" lon="-6.9019680284">
        <ele>1048.94</ele>
        <time>2020-08-12T08:41:12Z</time>
      </trkpt>
      <trkpt lat="42.0358274505" lon="-6.9020227622">
        <ele>1048.94</ele>
        <time>2020-08-12T08:41:13Z</time>
      </trkpt>
      <trkpt lat="42.0358341560" lon="-6.9020769093">
        <ele>1048.94</ele>
        <time>2020-08-12T08:41:14Z</time>
      </trkpt>
      <trkpt lat="42.0359417796" lon="-6.9024083298">
        <ele>1048.94</ele>
        <time>2020-08-12T08:41:21Z</time>
      </trkpt>
      <trkpt lat="42.0361298695" lon="-6.9026866928">
        <ele>1048.45</ele>
        <time>2020-08-12T08:41:29Z</time>
      </trkpt>
      <trkpt lat="42.0362869464" lon="-6.9028676581">
        <ele>1047.97</ele>
        <time>2020-08-12T08:41:37Z</time>
      </trkpt>
      <trkpt lat="42.0363540016" lon="-6.9029449392">
        <ele>1047.97</ele>
        <time>2020-08-12T08:41:42Z</time>
      </trkpt>
      <trkpt lat="42.0364954881" lon="-6.9030810613">
        <ele>1049.90</ele>
        <time>2020-08-12T08:41:50Z</time>
      </trkpt>
      <trkpt lat="42.0365000982" lon="-6.9030793011">
        <ele>1050.86</ele>
        <time>2020-08-12T08:41:58Z</time>
      </trkpt>
      <trkpt lat="42.0365130901" lon="-6.9030658901">
        <ele>1050.86</ele>
        <time>2020-08-12T08:42:12Z</time>
      </trkpt>
      <trkpt lat="42.0365013555" lon="-6.9030773733">
        <ele>1050.38</ele>
        <time>2020-08-12T08:42:30Z</time>
      </trkpt>
      <trkpt lat="42.0364677440" lon="-6.9030850846">
        <ele>1050.38</ele>
        <time>2020-08-12T08:42:45Z</time>
      </trkpt>
      <trkpt lat="42.0364581048" lon="-6.9031228870">
        <ele>1050.86</ele>
        <time>2020-08-12T08:43:04Z</time>
      </trkpt>
      <trkpt lat="42.0364648104" lon="-6.9031088054">
        <ele>1049.42</ele>
        <time>2020-08-12T08:43:24Z</time>
      </trkpt>
      <trkpt lat="42.0364729408" lon="-6.9030927960">
        <ele>1048.94</ele>
        <time>2020-08-12T08:43:39Z</time>
      </trkpt>
      <trkpt lat="42.0364740305" lon="-6.9030907843">
        <ele>1049.42</ele>
        <time>2020-08-12T08:43:51Z</time>
      </trkpt>
      <trkpt lat="42.0364855137" lon="-6.9031025190">
        <ele>1048.94</ele>
        <time>2020-08-12T08:44:07Z</time>
      </trkpt>
      <trkpt lat="42.0364719350" lon="-6.9031021837">
        <ele>1050.38</ele>
        <time>2020-08-12T08:44:22Z</time>
      </trkpt>
      <trkpt lat="42.0364683308" lon="-6.9031130802">
        <ele>1051.82</ele>
        <time>2020-08-12T08:44:39Z</time>
      </trkpt>
      <trkpt lat="42.0364560932" lon="-6.9031142537">
        <ele>1053.74</ele>
        <time>2020-08-12T08:44:51Z</time>
      </trkpt>
      <trkpt lat="42.0364637207" lon="-6.9031299278">
        <ele>1055.18</ele>
        <time>2020-08-12T08:45:02Z</time>
      </trkpt>
      <trkpt lat="42.0364782214" lon="-6.9031119905">
        <ele>1051.34</ele>
        <time>2020-08-12T08:45:17Z</time>
      </trkpt>
      <trkpt lat="42.0364818256" lon="-6.9031163491">
        <ele>1052.30</ele>
        <time>2020-08-12T08:45:24Z</time>
      </trkpt>
      <trkpt lat="42.0364920516" lon="-6.9031266589">
        <ele>1052.30</ele>
        <time>2020-08-12T08:45:25Z</time>
      </trkpt>
      <trkpt lat="42.0365033671" lon="-6.9031398185">
        <ele>1052.30</ele>
        <time>2020-08-12T08:45:26Z</time>
      </trkpt>
      <trkpt lat="42.0365200471" lon="-6.9031595998">
        <ele>1052.30</ele>
        <time>2020-08-12T08:45:27Z</time>
      </trkpt>
      <trkpt lat="42.0365421753" lon="-6.9031813927">
        <ele>1052.30</ele>
        <time>2020-08-12T08:45:28Z</time>
      </trkpt>
      <trkpt lat="42.0365624595" lon="-6.9032029342">
        <ele>1052.30</ele>
        <time>2020-08-12T08:45:29Z</time>
      </trkpt>
      <trkpt lat="42.0365864318" lon="-6.9032273255">
        <ele>1052.30</ele>
        <time>2020-08-12T08:45:30Z</time>
      </trkpt>
      <trkpt lat="42.0366124995" lon="-6.9032531418">
        <ele>1052.30</ele>
        <time>2020-08-12T08:45:31Z</time>
      </trkpt>
      <trkpt lat="42.0366365556" lon="-6.9032862503">
        <ele>1051.82</ele>
        <time>2020-08-12T08:45:32Z</time>
      </trkpt>
      <trkpt lat="42.0366581809" lon="-6.9033180177">
        <ele>1051.82</ele>
        <time>2020-08-12T08:45:33Z</time>
      </trkpt>
      <trkpt lat="42.0368283335" lon="-6.9036553893">
        <ele>1050.38</ele>
        <time>2020-08-12T08:45:41Z</time>
      </trkpt>
      <trkpt lat="42.0368249808" lon="-6.9039494265">
        <ele>1049.90</ele>
        <time>2020-08-12T08:45:48Z</time>
      </trkpt>
      <trkpt lat="42.0366820693" lon="-6.9042940903">
        <ele>1050.38</ele>
        <time>2020-08-12T08:45:57Z</time>
      </trkpt>
      <trkpt lat="42.0364823285" lon="-6.9045893848">
        <ele>1049.90</ele>
        <time>2020-08-12T08:46:07Z</time>
      </trkpt>
      <trkpt lat="42.0362534188" lon="-6.9047352299">
        <ele>1049.42</ele>
        <time>2020-08-12T08:46:15Z</time>
      </trkpt>
      <trkpt lat="42.0361562725" lon="-6.9050208014">
        <ele>1048.94</ele>
        <time>2020-08-12T08:46:22Z</time>
      </trkpt>
      <trkpt lat="42.0361481421" lon="-6.9053382240">
        <ele>1048.94</ele>
        <time>2020-08-12T08:46:29Z</time>
      </trkpt>
      <trkpt lat="42.0360779855" lon="-6.9055006653">
        <ele>1047.97</ele>
        <time>2020-08-12T08:46:35Z</time>
      </trkpt>
      <trkpt lat="42.0360829309" lon="-6.9054929540">
        <ele>1047.97</ele>
        <time>2020-08-12T08:46:47Z</time>
      </trkpt>
      <trkpt lat="42.0360794105" lon="-6.9055041019">
        <ele>1047.97</ele>
        <time>2020-08-12T08:46:53Z</time>
      </trkpt>
      <trkpt lat="42.0360845234" lon="-6.9056876656">
        <ele>1047.49</ele>
        <time>2020-08-12T08:47:00Z</time>
      </trkpt>
      <trkpt lat="42.0360176358" lon="-6.9059847202">
        <ele>1047.01</ele>
        <time>2020-08-12T08:47:07Z</time>
      </trkpt>
      <trkpt lat="42.0358774066" lon="-6.9063282944">
        <ele>1046.53</ele>
        <time>2020-08-12T08:47:14Z</time>
      </trkpt>
      <trkpt lat="42.0355826151" lon="-6.9067436177">
        <ele>1044.61</ele>
        <time>2020-08-12T08:47:24Z</time>
      </trkpt>
      <trkpt lat="42.0353276376" lon="-6.9070130121">
        <ele>1044.13</ele>
        <time>2020-08-12T08:47:32Z</time>
      </trkpt>
      <trkpt lat="42.0351724885" lon="-6.9072005991">
        <ele>1044.13</ele>
        <time>2020-08-12T08:47:40Z</time>
      </trkpt>
      <trkpt lat="42.0350472629" lon="-6.9074456021">
        <ele>1044.61</ele>
        <time>2020-08-12T08:47:47Z</time>
      </trkpt>
      <trkpt lat="42.0349171758" lon="-6.9077091292">
        <ele>1044.13</ele>
        <time>2020-08-12T08:47:54Z</time>
      </trkpt>
      <trkpt lat="42.0347875077" lon="-6.9079952873">
        <ele>1043.17</ele>
        <time>2020-08-12T08:48:02Z</time>
      </trkpt>
      <trkpt lat="42.0347726718" lon="-6.9080526195">
        <ele>1042.21</ele>
        <time>2020-08-12T08:48:05Z</time>
      </trkpt>
      <trkpt lat="42.0347722527" lon="-6.9080704730">
        <ele>1041.73</ele>
        <time>2020-08-12T08:48:11Z</time>
      </trkpt>
      <trkpt lat="42.0347675588" lon="-6.9080793578">
        <ele>1041.73</ele>
        <time>2020-08-12T08:48:23Z</time>
      </trkpt>
      <trkpt lat="42.0347689837" lon="-6.9080716465">
        <ele>1040.76</ele>
        <time>2020-08-12T08:48:36Z</time>
      </trkpt>
      <trkpt lat="42.0347525552" lon="-6.9080789387">
        <ele>1041.73</ele>
        <time>2020-08-12T08:48:54Z</time>
      </trkpt>
      <trkpt lat="42.0347609371" lon="-6.9080784358">
        <ele>1043.17</ele>
        <time>2020-08-12T08:49:06Z</time>
      </trkpt>
      <trkpt lat="42.0347566623" lon="-6.9080651086">
        <ele>1044.61</ele>
        <time>2020-08-12T08:49:16Z</time>
      </trkpt>
      <trkpt lat="42.0347591769" lon="-6.9080717303">
        <ele>1043.65</ele>
        <time>2020-08-12T08:49:40Z</time>
      </trkpt>
      <trkpt lat="42.0347523876" lon="-6.9080790225">
        <ele>1044.61</ele>
        <time>2020-08-12T08:50:00Z</time>
      </trkpt>
      <trkpt lat="42.0347550698" lon="-6.9080620073">
        <ele>1043.65</ele>
        <time>2020-08-12T08:50:18Z</time>
      </trkpt>
      <trkpt lat="42.0347610209" lon="-6.9080481771">
        <ele>1042.69</ele>
        <time>2020-08-12T08:50:37Z</time>
      </trkpt>
      <trkpt lat="42.0347663015" lon="-6.9080568943">
        <ele>1042.21</ele>
        <time>2020-08-12T08:50:54Z</time>
      </trkpt>
      <trkpt lat="42.0347775333" lon="-6.9080584031">
        <ele>1042.21</ele>
        <time>2020-08-12T08:51:08Z</time>
      </trkpt>
      <trkpt lat="42.0347626973" lon="-6.9080628455">
        <ele>1042.21</ele>
        <time>2020-08-12T08:51:23Z</time>
      </trkpt>
      <trkpt lat="42.0347485319" lon="-6.9080678746">
        <ele>1041.73</ele>
        <time>2020-08-12T08:51:40Z</time>
      </trkpt>
      <trkpt lat="42.0347497053" lon="-6.9080667011">
        <ele>1040.76</ele>
        <time>2020-08-12T08:51:55Z</time>
      </trkpt>
      <trkpt lat="42.0347611047" lon="-6.9080569781">
        <ele>1042.21</ele>
        <time>2020-08-12T08:52:13Z</time>
      </trkpt>
      <trkpt lat="42.0347580034" lon="-6.9080670364">
        <ele>1042.69</ele>
        <time>2020-08-12T08:52:28Z</time>
      </trkpt>
      <trkpt lat="42.0347637869" lon="-6.9080570620">
        <ele>1043.65</ele>
        <time>2020-08-12T08:52:42Z</time>
      </trkpt>
      <trkpt lat="42.0347697381" lon="-6.9080614205">
        <ele>1043.17</ele>
        <time>2020-08-12T08:52:57Z</time>
      </trkpt>
      <trkpt lat="42.0347619429" lon="-6.9080687128">
        <ele>1043.65</ele>
        <time>2020-08-12T08:53:18Z</time>
      </trkpt>
      <trkpt lat="42.0347392280" lon="-6.9080769271">
        <ele>1045.09</ele>
        <time>2020-08-12T08:53:32Z</time>
      </trkpt>
      <trkpt lat="42.0347483642" lon="-6.9080631807">
        <ele>1044.61</ele>
        <time>2020-08-12T08:53:50Z</time>
      </trkpt>
      <trkpt lat="42.0347435027" lon="-6.9080787711">
        <ele>1043.17</ele>
        <time>2020-08-12T08:54:06Z</time>
      </trkpt>
      <trkpt lat="42.0347541478" lon="-6.9080603309">
        <ele>1042.69</ele>
        <time>2020-08-12T08:54:20Z</time>
      </trkpt>
      <trkpt lat="42.0347571652" lon="-6.9080627616">
        <ele>1042.21</ele>
        <time>2020-08-12T08:54:37Z</time>
      </trkpt>
      <trkpt lat="42.0347551536" lon="-6.9080760889">
        <ele>1038.84</ele>
        <time>2020-08-12T08:54:59Z</time>
      </trkpt>
      <trkpt lat="42.0347451791" lon="-6.9081003126">
        <ele>1037.40</ele>
        <time>2020-08-12T08:55:18Z</time>
      </trkpt>
      <trkpt lat="42.0347435027" lon="-6.9081042521">
        <ele>1038.84</ele>
        <time>2020-08-12T08:55:38Z</time>
      </trkpt>
      <trkpt lat="42.0347520523" lon="-6.9080706406">
        <ele>1040.28</ele>
        <time>2020-08-12T08:55:53Z</time>
      </trkpt>
      <trkpt lat="42.0347631164" lon="-6.9080563076">
        <ele>1040.76</ele>
        <time>2020-08-12T08:56:10Z</time>
      </trkpt>
      <trkpt lat="42.0347699896" lon="-6.9080529548">
        <ele>1041.25</ele>
        <time>2020-08-12T08:56:26Z</time>
      </trkpt>
      <trkpt lat="42.0347658824" lon="-6.9080633484">
        <ele>1040.28</ele>
        <time>2020-08-12T08:56:44Z</time>
      </trkpt>
      <trkpt lat="42.0347610209" lon="-6.9080769271">
        <ele>1040.28</ele>
        <time>2020-08-12T08:56:58Z</time>
      </trkpt>
      <trkpt lat="42.0347632840" lon="-6.9080846384">
        <ele>1040.76</ele>
        <time>2020-08-12T08:57:11Z</time>
      </trkpt>
      <trkpt lat="42.0347578358" lon="-6.9080940261">
        <ele>1040.28</ele>
        <time>2020-08-12T08:57:23Z</time>
      </trkpt>
      <trkpt lat="42.0347572491" lon="-6.9080888294">
        <ele>1040.28</ele>
        <time>2020-08-12T08:57:30Z</time>
      </trkpt>
      <trkpt lat="42.0347524714" lon="-6.9080948643">
        <ele>1040.28</ele>
        <time>2020-08-12T08:57:31Z</time>
      </trkpt>
      <trkpt lat="42.0347439218" lon="-6.9081040006">
        <ele>1040.28</ele>
        <time>2020-08-12T08:57:32Z</time>
      </trkpt>
      <trkpt lat="42.0347065385" lon="-6.9081326667">
        <ele>1039.80</ele>
        <time>2020-08-12T08:57:35Z</time>
      </trkpt>
      <trkpt lat="42.0346979890" lon="-6.9081492629">
        <ele>1039.80</ele>
        <time>2020-08-12T08:57:36Z</time>
      </trkpt>
      <trkpt lat="42.0346908644" lon="-6.9081702176">
        <ele>1039.80</ele>
        <time>2020-08-12T08:57:37Z</time>
      </trkpt>
      <trkpt lat="42.0346483681" lon="-6.9082892407">
        <ele>1039.32</ele>
        <time>2020-08-12T08:57:45Z</time>
      </trkpt>
      <trkpt lat="42.0345357154" lon="-6.9084860478">
        <ele>1037.88</ele>
        <time>2020-08-12T08:57:52Z</time>
      </trkpt>
      <trkpt lat="42.0343523193" lon="-6.9088570308">
        <ele>1036.92</ele>
        <time>2020-08-12T08:58:00Z</time>
      </trkpt>
      <trkpt lat="42.0340744592" lon="-6.9094204623">
        <ele>1035.48</ele>
        <time>2020-08-12T08:58:11Z</time>
      </trkpt>
      <trkpt lat="42.0339255128" lon="-6.9096532278">
        <ele>1035.96</ele>
        <time>2020-08-12T08:58:18Z</time>
      </trkpt>
      <trkpt lat="42.0338017959" lon="-6.9098358694">
        <ele>1035.96</ele>
        <time>2020-08-12T08:58:24Z</time>
      </trkpt>
      <trkpt lat="42.0335849561" lon="-6.9102080259">
        <ele>1034.04</ele>
        <time>2020-08-12T08:58:34Z</time>
      </trkpt>
      <trkpt lat="42.0335653424" lon="-6.9102584850">
        <ele>1033.55</ele>
        <time>2020-08-12T08:58:35Z</time>
      </trkpt>
      <trkpt lat="42.0335507579" lon="-6.9103117101">
        <ele>1033.55</ele>
        <time>2020-08-12T08:58:36Z</time>
      </trkpt>
      <trkpt lat="42.0335393585" lon="-6.9103686232">
        <ele>1033.55</ele>
        <time>2020-08-12T08:58:37Z</time>
      </trkpt>
      <trkpt lat="42.0335308090" lon="-6.9104324095">
        <ele>1033.55</ele>
        <time>2020-08-12T08:58:38Z</time>
      </trkpt>
      <trkpt lat="42.0335267019" lon="-6.9104936812">
        <ele>1033.07</ele>
        <time>2020-08-12T08:58:39Z</time>
      </trkpt>
      <trkpt lat="42.0335261151" lon="-6.9105572160">
        <ele>1033.07</ele>
        <time>2020-08-12T08:58:40Z</time>
      </trkpt>
      <trkpt lat="42.0335295517" lon="-6.9106169790">
        <ele>1033.07</ele>
        <time>2020-08-12T08:58:41Z</time>
      </trkpt>
      <trkpt lat="42.0335349999" lon="-6.9106822740">
        <ele>1033.07</ele>
        <time>2020-08-12T08:58:42Z</time>
      </trkpt>
      <trkpt lat="42.0335533563" lon="-6.9107944239">
        <ele>1033.55</ele>
        <time>2020-08-12T08:58:44Z</time>
      </trkpt>
      <trkpt lat="42.0337241795" lon="-6.9113020319">
        <ele>1033.07</ele>
        <time>2020-08-12T08:58:53Z</time>
      </trkpt>
      <trkpt lat="42.0338919014" lon="-6.9117621984">
        <ele>1031.63</ele>
        <time>2020-08-12T08:59:01Z</time>
      </trkpt>
      <trkpt lat="42.0340285264" lon="-6.9121652842">
        <ele>1030.19</ele>
        <time>2020-08-12T08:59:08Z</time>
      </trkpt>
      <trkpt lat="42.0340446196" lon="-6.9122210238">
        <ele>1029.71</ele>
        <time>2020-08-12T08:59:09Z</time>
      </trkpt>
      <trkpt lat="42.0340581983" lon="-6.9122705609">
        <ele>1029.71</ele>
        <time>2020-08-12T08:59:10Z</time>
      </trkpt>
      <trkpt lat="42.0340706035" lon="-6.9123328384">
        <ele>1029.71</ele>
        <time>2020-08-12T08:59:11Z</time>
      </trkpt>
      <trkpt lat="42.0340828411" lon="-6.9124014862">
        <ele>1029.23</ele>
        <time>2020-08-12T08:59:12Z</time>
      </trkpt>
      <trkpt lat="42.0341887046" lon="-6.9129798375">
        <ele>1027.79</ele>
        <time>2020-08-12T08:59:22Z</time>
      </trkpt>
      <trkpt lat="42.0342087373" lon="-6.9131000340">
        <ele>1027.31</ele>
        <time>2020-08-12T08:59:24Z</time>
      </trkpt>
      <trkpt lat="42.0342203882" lon="-6.9132245053">
        <ele>1027.31</ele>
        <time>2020-08-12T08:59:26Z</time>
      </trkpt>
      <trkpt lat="42.0342223998" lon="-6.9132878724">
        <ele>1027.31</ele>
        <time>2020-08-12T08:59:27Z</time>
      </trkpt>
      <trkpt lat="42.0342192985" lon="-6.9133551791">
        <ele>1027.31</ele>
        <time>2020-08-12T08:59:28Z</time>
      </trkpt>
      <trkpt lat="42.0342131797" lon="-6.9134195521">
        <ele>1027.31</ele>
        <time>2020-08-12T08:59:29Z</time>
      </trkpt>
      <trkpt lat="42.0342040434" lon="-6.9134835899">
        <ele>1026.83</ele>
        <time>2020-08-12T08:59:30Z</time>
      </trkpt>
      <trkpt lat="42.0341922250" lon="-6.9135425147">
        <ele>1026.83</ele>
        <time>2020-08-12T08:59:31Z</time>
      </trkpt>
      <trkpt lat="42.0341760479" lon="-6.9136030320">
        <ele>1026.83</ele>
        <time>2020-08-12T08:59:32Z</time>
      </trkpt>
      <trkpt lat="42.0340052247" lon="-6.9142302498">
        <ele>1024.90</ele>
        <time>2020-08-12T08:59:42Z</time>
      </trkpt>
      <trkpt lat="42.0339548495" lon="-6.9148051646">
        <ele>1024.42</ele>
        <time>2020-08-12T08:59:51Z</time>
      </trkpt>
      <trkpt lat="42.0339514967" lon="-6.9148706272">
        <ele>1024.42</ele>
        <time>2020-08-12T08:59:52Z</time>
      </trkpt>
      <trkpt lat="42.0339545980" lon="-6.9150551129">
        <ele>1024.42</ele>
        <time>2020-08-12T08:59:55Z</time>
      </trkpt>
      <trkpt lat="42.0339970104" lon="-6.9155488908">
        <ele>1022.98</ele>
        <time>2020-08-12T09:00:03Z</time>
      </trkpt>
      <trkpt lat="42.0341187995" lon="-6.9160262402">
        <ele>1021.54</ele>
        <time>2020-08-12T09:00:11Z</time>
      </trkpt>
      <trkpt lat="42.0342396665" lon="-6.9166133087">
        <ele>1019.13</ele>
        <time>2020-08-12T09:00:20Z</time>
      </trkpt>
      <trkpt lat="42.0342341345" lon="-6.9166739937">
        <ele>1019.13</ele>
        <time>2020-08-12T09:00:21Z</time>
      </trkpt>
      <trkpt lat="42.0342208911" lon="-6.9167347625">
        <ele>1018.65</ele>
        <time>2020-08-12T09:00:22Z</time>
      </trkpt>
      <trkpt lat="42.0342024509" lon="-6.9167860597">
        <ele>1018.65</ele>
        <time>2020-08-12T09:00:23Z</time>
      </trkpt>
      <trkpt lat="42.0341753773" lon="-6.9168368541">
        <ele>1018.17</ele>
        <time>2020-08-12T09:00:24Z</time>
      </trkpt>
      <trkpt lat="42.0341436099" lon="-6.9168824516">
        <ele>1018.17</ele>
        <time>2020-08-12T09:00:25Z</time>
      </trkpt>
      <trkpt lat="42.0341094956" lon="-6.9169231039">
        <ele>1017.69</ele>
        <time>2020-08-12T09:00:26Z</time>
      </trkpt>
      <trkpt lat="42.0340743754" lon="-6.9169569667">
        <ele>1017.69</ele>
        <time>2020-08-12T09:00:27Z</time>
      </trkpt>
      <trkpt lat="42.0340302866" lon="-6.9169871416">
        <ele>1017.69</ele>
        <time>2020-08-12T09:00:28Z</time>
      </trkpt>
      <trkpt lat="42.0339830127" lon="-6.9170122035">
        <ele>1017.69</ele>
        <time>2020-08-12T09:00:29Z</time>
      </trkpt>
      <trkpt lat="42.0338624809" lon="-6.9170878083">
        <ele>1016.73</ele>
        <time>2020-08-12T09:00:32Z</time>
      </trkpt>
      <trkpt lat="42.0338281151" lon="-6.9171220902">
        <ele>1016.25</ele>
        <time>2020-08-12T09:00:33Z</time>
      </trkpt>
      <trkpt lat="42.0337956771" lon="-6.9171635807">
        <ele>1015.77</ele>
        <time>2020-08-12T09:00:34Z</time>
      </trkpt>
      <trkpt lat="42.0337680168" lon="-6.9172075018">
        <ele>1015.77</ele>
        <time>2020-08-12T09:00:35Z</time>
      </trkpt>
      <trkpt lat="42.0337440446" lon="-6.9172575418">
        <ele>1015.29</ele>
        <time>2020-08-12T09:00:36Z</time>
      </trkpt>
      <trkpt lat="42.0337270293" lon="-6.9173108507">
        <ele>1015.29</ele>
        <time>2020-08-12T09:00:37Z</time>
      </trkpt>
      <trkpt lat="42.0337146241" lon="-6.9173665904">
        <ele>1015.29</ele>
        <time>2020-08-12T09:00:38Z</time>
      </trkpt>
      <trkpt lat="42.0337069128" lon="-6.9174231682">
        <ele>1014.81</ele>
        <time>2020-08-12T09:00:39Z</time>
      </trkpt>
      <trkpt lat="42.0337029733" lon="-6.9174874574">
        <ele>1014.81</ele>
        <time>2020-08-12T09:00:40Z</time>
      </trkpt>
      <trkpt lat="42.0337040629" lon="-6.9175462145">
        <ele>1014.81</ele>
        <time>2020-08-12T09:00:41Z</time>
      </trkpt>
      <trkpt lat="42.0337100979" lon="-6.9176130183">
        <ele>1014.33</ele>
        <time>2020-08-12T09:00:42Z</time>
      </trkpt>
      <trkpt lat="42.0337191503" lon="-6.9176728651">
        <ele>1014.33</ele>
        <time>2020-08-12T09:00:43Z</time>
      </trkpt>
      <trkpt lat="42.0337315556" lon="-6.9177411776">
        <ele>1013.85</ele>
        <time>2020-08-12T09:00:44Z</time>
      </trkpt>
      <trkpt lat="42.0337613113" lon="-6.9179436006">
        <ele>1013.37</ele>
        <time>2020-08-12T09:00:47Z</time>
      </trkpt>
      <trkpt lat="42.0337569527" lon="-6.9184842333">
        <ele>1011.93</ele>
        <time>2020-08-12T09:00:54Z</time>
      </trkpt>
      <trkpt lat="42.0337054040" lon="-6.9190132152">
        <ele>1009.52</ele>
        <time>2020-08-12T09:01:00Z</time>
      </trkpt>
      <trkpt lat="42.0337114390" lon="-6.9191044103">
        <ele>1009.04</ele>
        <time>2020-08-12T09:01:01Z</time>
      </trkpt>
      <trkpt lat="42.0337229222" lon="-6.9191799313">
        <ele>1008.56</ele>
        <time>2020-08-12T09:01:02Z</time>
      </trkpt>
      <trkpt lat="42.0337444637" lon="-6.9192586374">
        <ele>1008.56</ele>
        <time>2020-08-12T09:01:03Z</time>
      </trkpt>
      <trkpt lat="42.0337695256" lon="-6.9193211664">
        <ele>1008.08</ele>
        <time>2020-08-12T09:01:04Z</time>
      </trkpt>
      <trkpt lat="42.0338081662" lon="-6.9193841144">
        <ele>1008.08</ele>
        <time>2020-08-12T09:01:05Z</time>
      </trkpt>
      <trkpt lat="42.0338478126" lon="-6.9194301311">
        <ele>1008.08</ele>
        <time>2020-08-12T09:01:06Z</time>
      </trkpt>
      <trkpt lat="42.0339032169" lon="-6.9194749743">
        <ele>1007.60</ele>
        <time>2020-08-12T09:01:07Z</time>
      </trkpt>
      <trkpt lat="42.0339509938" lon="-6.9194991980">
        <ele>1007.60</ele>
        <time>2020-08-12T09:01:08Z</time>
      </trkpt>
      <trkpt lat="42.0340106729" lon="-6.9195126928">
        <ele>1007.12</ele>
        <time>2020-08-12T09:01:09Z</time>
      </trkpt>
      <trkpt lat="42.0340633951" lon="-6.9195157103">
        <ele>1007.12</ele>
        <time>2020-08-12T09:01:10Z</time>
      </trkpt>
      <trkpt lat="42.0341231581" lon="-6.9195129443">
        <ele>1007.12</ele>
        <time>2020-08-12T09:01:11Z</time>
      </trkpt>
      <trkpt lat="42.0346613601" lon="-6.9194932468">
        <ele>1005.20</ele>
        <time>2020-08-12T09:01:20Z</time>
      </trkpt>
      <trkpt lat="42.0347160939" lon="-6.9195067417">
        <ele>1004.72</ele>
        <time>2020-08-12T09:01:21Z</time>
      </trkpt>
      <trkpt lat="42.0347823948" lon="-6.9195322227">
        <ele>1004.72</ele>
        <time>2020-08-12T09:01:22Z</time>
      </trkpt>
      <trkpt lat="42.0351390447" lon="-6.9197399262">
        <ele>1002.79</ele>
        <time>2020-08-12T09:01:28Z</time>
      </trkpt>
      <trkpt lat="42.0352439862" lon="-6.9197791535">
        <ele>1001.83</ele>
        <time>2020-08-12T09:01:30Z</time>
      </trkpt>
      <trkpt lat="42.0353015698" lon="-6.9197889604">
        <ele>1001.35</ele>
        <time>2020-08-12T09:01:31Z</time>
      </trkpt>
      <trkpt lat="42.0353475027" lon="-6.9197892956">
        <ele>1001.35</ele>
        <time>2020-08-12T09:01:32Z</time>
      </trkpt>
      <trkpt lat="42.0353920944" lon="-6.9197849371">
        <ele>1001.35</ele>
        <time>2020-08-12T09:01:33Z</time>
      </trkpt>
      <trkpt lat="42.0354321599" lon="-6.9197732862">
        <ele>1001.35</ele>
        <time>2020-08-12T09:01:34Z</time>
      </trkpt>
      <trkpt lat="42.0354734827" lon="-6.9197495654">
        <ele>1000.87</ele>
        <time>2020-08-12T09:01:35Z</time>
      </trkpt>
      <trkpt lat="42.0355132129" lon="-6.9197227433">
        <ele>1000.87</ele>
        <time>2020-08-12T09:01:36Z</time>
      </trkpt>
      <trkpt lat="42.0355555415" lon="-6.9196898025">
        <ele>1000.87</ele>
        <time>2020-08-12T09:01:37Z</time>
      </trkpt>
      <trkpt lat="42.0355897397" lon="-6.9196528383">
        <ele>1000.87</ele>
        <time>2020-08-12T09:01:38Z</time>
      </trkpt>
      <trkpt lat="42.0359163824" lon="-6.9193355832">
        <ele>1000.87</ele>
        <time>2020-08-12T09:01:47Z</time>
      </trkpt>
      <trkpt lat="42.0363509003" lon="-6.9190620817">
        <ele>999.43</ele>
        <time>2020-08-12T09:01:56Z</time>
      </trkpt>
      <trkpt lat="42.0366258267" lon="-6.9189448189">
        <ele>998.47</ele>
        <time>2020-08-12T09:02:01Z</time>
      </trkpt>
      <trkpt lat="42.0366864279" lon="-6.9189385325">
        <ele>997.99</ele>
        <time>2020-08-12T09:02:02Z</time>
      </trkpt>
      <trkpt lat="42.0367480349" lon="-6.9189387001">
        <ele>997.51</ele>
        <time>2020-08-12T09:02:03Z</time>
      </trkpt>
      <trkpt lat="42.0368193649" lon="-6.9189462438">
        <ele>997.51</ele>
        <time>2020-08-12T09:02:04Z</time>
      </trkpt>
      <trkpt lat="42.0368792117" lon="-6.9189587329">
        <ele>997.02</ele>
        <time>2020-08-12T09:02:05Z</time>
      </trkpt>
      <trkpt lat="42.0369486976" lon="-6.9189784303">
        <ele>997.02</ele>
        <time>2020-08-12T09:02:06Z</time>
      </trkpt>
      <trkpt lat="42.0370236319" lon="-6.9190059230">
        <ele>996.54</ele>
        <time>2020-08-12T09:02:07Z</time>
      </trkpt>
      <trkpt lat="42.0375490934" lon="-6.9192568772">
        <ele>994.14</ele>
        <time>2020-08-12T09:02:15Z</time>
      </trkpt>
      <trkpt lat="42.0380686037" lon="-6.9195997808">
        <ele>991.74</ele>
        <time>2020-08-12T09:02:24Z</time>
      </trkpt>
      <trkpt lat="42.0385959931" lon="-6.9200477935">
        <ele>988.37</ele>
        <time>2020-08-12T09:02:33Z</time>
      </trkpt>
      <trkpt lat="42.0388016850" lon="-6.9201829936">
        <ele>987.41</ele>
        <time>2020-08-12T09:02:37Z</time>
      </trkpt>
      <trkpt lat="42.0388448518" lon="-6.9202236459">
        <ele>987.41</ele>
        <time>2020-08-12T09:02:38Z</time>
      </trkpt>
      <trkpt lat="42.0388845820" lon="-6.9202738535">
        <ele>986.93</ele>
        <time>2020-08-12T09:02:39Z</time>
      </trkpt>
      <trkpt lat="42.0389092248" lon="-6.9203184452">
        <ele>986.93</ele>
        <time>2020-08-12T09:02:40Z</time>
      </trkpt>
      <trkpt lat="42.0389275812" lon="-6.9203741848">
        <ele>986.45</ele>
        <time>2020-08-12T09:02:41Z</time>
      </trkpt>
      <trkpt lat="42.0389393158" lon="-6.9204237219">
        <ele>986.45</ele>
        <time>2020-08-12T09:02:42Z</time>
      </trkpt>
      <trkpt lat="42.0389471948" lon="-6.9204741810">
        <ele>986.45</ele>
        <time>2020-08-12T09:02:43Z</time>
      </trkpt>
      <trkpt lat="42.0389459375" lon="-6.9205207005">
        <ele>986.93</ele>
        <time>2020-08-12T09:02:44Z</time>
      </trkpt>
      <trkpt lat="42.0389334485" lon="-6.9205608498">
        <ele>986.93</ele>
        <time>2020-08-12T09:02:45Z</time>
      </trkpt>
      <trkpt lat="42.0389148407" lon="-6.9205959700">
        <ele>986.93</ele>
        <time>2020-08-12T09:02:46Z</time>
      </trkpt>
      <trkpt lat="42.0389005076" lon="-6.9206168409">
        <ele>986.93</ele>
        <time>2020-08-12T09:02:47Z</time>
      </trkpt>
      <trkpt lat="42.0388833247" lon="-6.9206373766">
        <ele>986.93</ele>
        <time>2020-08-12T09:02:48Z</time>
      </trkpt>
      <trkpt lat="42.0387353003" lon="-6.9207304996">
        <ele>988.37</ele>
        <time>2020-08-12T09:02:54Z</time>
      </trkpt>
      <trkpt lat="42.0385125093" lon="-6.9207268115">
        <ele>990.30</ele>
        <time>2020-08-12T09:03:02Z</time>
      </trkpt>
      <trkpt lat="42.0382460486" lon="-6.9206305873">
        <ele>992.22</ele>
        <time>2020-08-12T09:03:11Z</time>
      </trkpt>
      <trkpt lat="42.0380002074" lon="-6.9205192756">
        <ele>993.66</ele>
        <time>2020-08-12T09:03:20Z</time>
      </trkpt>
      <trkpt lat="42.0376454014" lon="-6.9203926250">
        <ele>994.62</ele>
        <time>2020-08-12T09:03:33Z</time>
      </trkpt>
      <trkpt lat="42.0374023262" lon="-6.9203488715">
        <ele>995.58</ele>
        <time>2020-08-12T09:03:42Z</time>
      </trkpt>
      <trkpt lat="42.0371735003" lon="-6.9203338679">
        <ele>996.54</ele>
        <time>2020-08-12T09:03:51Z</time>
      </trkpt>
      <trkpt lat="42.0370661281" lon="-6.9203318562">
        <ele>996.54</ele>
        <time>2020-08-12T09:03:59Z</time>
      </trkpt>
      <trkpt lat="42.0368392300" lon="-6.9203526434">
        <ele>997.02</ele>
        <time>2020-08-12T09:04:08Z</time>
      </trkpt>
      <trkpt lat="42.0366395731" lon="-6.9205124024">
        <ele>997.99</ele>
        <time>2020-08-12T09:04:17Z</time>
      </trkpt>
      <trkpt lat="42.0365593582" lon="-6.9207155798">
        <ele>998.95</ele>
        <time>2020-08-12T09:04:24Z</time>
      </trkpt>
      <trkpt lat="42.0365153532" lon="-6.9209164102">
        <ele>999.91</ele>
        <time>2020-08-12T09:04:32Z</time>
      </trkpt>
      <trkpt lat="42.0364857651" lon="-6.9211961981">
        <ele>1000.87</ele>
        <time>2020-08-12T09:04:42Z</time>
      </trkpt>
      <trkpt lat="42.0364341326" lon="-6.9214520976">
        <ele>1002.31</ele>
        <time>2020-08-12T09:04:51Z</time>
      </trkpt>
      <trkpt lat="42.0363524090" lon="-6.9216561969">
        <ele>1002.31</ele>
        <time>2020-08-12T09:04:59Z</time>
      </trkpt>
      <trkpt lat="42.0362519938" lon="-6.9218404312">
        <ele>1002.31</ele>
        <time>2020-08-12T09:05:07Z</time>
      </trkpt>
      <trkpt lat="42.0361211523" lon="-6.9221119210">
        <ele>1004.23</ele>
        <time>2020-08-12T09:05:18Z</time>
      </trkpt>
      <trkpt lat="42.0360423625" lon="-6.9223034475">
        <ele>1007.12</ele>
        <time>2020-08-12T09:05:26Z</time>
      </trkpt>
      <trkpt lat="42.0359857846" lon="-6.9225347042">
        <ele>1008.56</ele>
        <time>2020-08-12T09:05:35Z</time>
      </trkpt>
      <trkpt lat="42.0359245129" lon="-6.9227299187">
        <ele>1010.96</ele>
        <time>2020-08-12T09:05:43Z</time>
      </trkpt>
      <trkpt lat="42.0358559489" lon="-6.9228678010">
        <ele>1011.93</ele>
        <time>2020-08-12T09:05:50Z</time>
      </trkpt>
      <trkpt lat="42.0357515104" lon="-6.9229323417">
        <ele>1012.89</ele>
        <time>2020-08-12T09:05:57Z</time>
      </trkpt>
      <trkpt lat="42.0356049947" lon="-6.9229054358">
        <ele>1013.85</ele>
        <time>2020-08-12T09:06:06Z</time>
      </trkpt>
      <trkpt lat="42.0354384463" lon="-6.9228564017">
        <ele>1016.25</ele>
        <time>2020-08-12T09:06:15Z</time>
      </trkpt>
      <trkpt lat="42.0352481771" lon="-6.9228206109">
        <ele>1017.69</ele>
        <time>2020-08-12T09:06:25Z</time>
      </trkpt>
      <trkpt lat="42.0350104664" lon="-6.9228311721">
        <ele>1018.65</ele>
        <time>2020-08-12T09:06:37Z</time>
      </trkpt>
      <trkpt lat="42.0348345302" lon="-6.9228602573">
        <ele>1018.65</ele>
        <time>2020-08-12T09:06:46Z</time>
      </trkpt>
      <trkpt lat="42.0346974023" lon="-6.9228853192">
        <ele>1020.10</ele>
        <time>2020-08-12T09:06:54Z</time>
      </trkpt>
      <trkpt lat="42.0345197059" lon="-6.9229132310">
        <ele>1021.06</ele>
        <time>2020-08-12T09:07:03Z</time>
      </trkpt>
      <trkpt lat="42.0343669038" lon="-6.9229278993">
        <ele>1022.02</ele>
        <time>2020-08-12T09:07:11Z</time>
      </trkpt>
      <trkpt lat="42.0341602061" lon="-6.9229631033">
        <ele>1022.50</ele>
        <time>2020-08-12T09:07:21Z</time>
      </trkpt>
      <trkpt lat="42.0339575317" lon="-6.9230076112">
        <ele>1022.50</ele>
        <time>2020-08-12T09:07:31Z</time>
      </trkpt>
      <trkpt lat="42.0337920729" lon="-6.9231288135">
        <ele>1022.02</ele>
        <time>2020-08-12T09:07:40Z</time>
      </trkpt>
      <trkpt lat="42.0336740557" lon="-6.9233993813">
        <ele>1020.58</ele>
        <time>2020-08-12T09:07:51Z</time>
      </trkpt>
      <trkpt lat="42.0336342417" lon="-6.9236412831">
        <ele>1020.58</ele>
        <time>2020-08-12T09:08:00Z</time>
      </trkpt>
      <trkpt lat="42.0336078387" lon="-6.9239241723">
        <ele>1021.54</ele>
        <time>2020-08-12T09:08:10Z</time>
      </trkpt>
      <trkpt lat="42.0335822739" lon="-6.9241975062">
        <ele>1022.50</ele>
        <time>2020-08-12T09:08:20Z</time>
      </trkpt>
      <trkpt lat="42.0335468184" lon="-6.9244087301">
        <ele>1022.98</ele>
        <time>2020-08-12T09:08:28Z</time>
      </trkpt>
      <trkpt lat="42.0334955212" lon="-6.9246634562">
        <ele>1023.94</ele>
        <time>2020-08-12T09:08:38Z</time>
      </trkpt>
      <trkpt lat="42.0334480796" lon="-6.9248919468">
        <ele>1024.42</ele>
        <time>2020-08-12T09:08:47Z</time>
      </trkpt>
      <trkpt lat="42.0334112830" lon="-6.9251950365">
        <ele>1025.38</ele>
        <time>2020-08-12T09:08:58Z</time>
      </trkpt>
      <trkpt lat="42.0334449783" lon="-6.9254415482">
        <ele>1025.86</ele>
        <time>2020-08-12T09:09:07Z</time>
      </trkpt>
      <trkpt lat="42.0335272886" lon="-6.9256779179">
        <ele>1026.83</ele>
        <time>2020-08-12T09:09:17Z</time>
      </trkpt>
      <trkpt lat="42.0336039830" lon="-6.9258930814">
        <ele>1027.31</ele>
        <time>2020-08-12T09:09:26Z</time>
      </trkpt>
      <trkpt lat="42.0336894784" lon="-6.9261297025">
        <ele>1028.75</ele>
        <time>2020-08-12T09:09:36Z</time>
      </trkpt>
      <trkpt lat="42.0338082500" lon="-6.9264101610">
        <ele>1030.67</ele>
        <time>2020-08-12T09:09:48Z</time>
      </trkpt>
      <trkpt lat="42.0339398459" lon="-6.9266035315">
        <ele>1031.15</ele>
        <time>2020-08-12T09:09:58Z</time>
      </trkpt>
      <trkpt lat="42.0340466313" lon="-6.9267049525">
        <ele>1031.63</ele>
        <time>2020-08-12T09:10:05Z</time>
      </trkpt>
      <trkpt lat="42.0341856871" lon="-6.9268397335">
        <ele>1033.07</ele>
        <time>2020-08-12T09:10:14Z</time>
      </trkpt>
      <trkpt lat="42.0343117509" lon="-6.9270034321">
        <ele>1033.55</ele>
        <time>2020-08-12T09:10:23Z</time>
      </trkpt>
      <trkpt lat="42.0344865974" lon="-6.9271327648">
        <ele>1034.04</ele>
        <time>2020-08-12T09:10:33Z</time>
      </trkpt>
      <trkpt lat="42.0346912835" lon="-6.9272299949">
        <ele>1035.48</ele>
        <time>2020-08-12T09:10:44Z</time>
      </trkpt>
      <trkpt lat="42.0348656271" lon="-6.9273108803">
        <ele>1035.48</ele>
        <time>2020-08-12T09:10:53Z</time>
      </trkpt>
      <trkpt lat="42.0350347739" lon="-6.9273822103">
        <ele>1036.44</ele>
        <time>2020-08-12T09:11:02Z</time>
      </trkpt>
      <trkpt lat="42.0352186728" lon="-6.9274610840">
        <ele>1038.36</ele>
        <time>2020-08-12T09:11:12Z</time>
      </trkpt>
      <trkpt lat="42.0353374444" lon="-6.9275259599">
        <ele>1039.80</ele>
        <time>2020-08-12T09:11:19Z</time>
      </trkpt>
      <trkpt lat="42.0354920905" lon="-6.9276283868">
        <ele>1041.73</ele>
        <time>2020-08-12T09:11:29Z</time>
      </trkpt>
      <trkpt lat="42.0355982054" lon="-6.9277805183">
        <ele>1041.73</ele>
        <time>2020-08-12T09:11:38Z</time>
      </trkpt>
      <trkpt lat="42.0356350020" lon="-6.9279251061">
        <ele>1042.69</ele>
        <time>2020-08-12T09:11:45Z</time>
      </trkpt>
      <trkpt lat="42.0356131252" lon="-6.9281175546">
        <ele>1043.17</ele>
        <time>2020-08-12T09:11:53Z</time>
      </trkpt>
      <trkpt lat="42.0355360955" lon="-6.9282920659">
        <ele>1044.61</ele>
        <time>2020-08-12T09:12:01Z</time>
      </trkpt>
      <trkpt lat="42.0353937708" lon="-6.9284926448">
        <ele>1047.01</ele>
        <time>2020-08-12T09:12:12Z</time>
      </trkpt>
      <trkpt lat="42.0353217702" lon="-6.9286871888">
        <ele>1047.97</ele>
        <time>2020-08-12T09:12:20Z</time>
      </trkpt>
      <trkpt lat="42.0353027433" lon="-6.9288912043">
        <ele>1048.45</ele>
        <time>2020-08-12T09:12:28Z</time>
      </trkpt>
      <trkpt lat="42.0352801122" lon="-6.9290590100">
        <ele>1048.45</ele>
        <time>2020-08-12T09:12:35Z</time>
      </trkpt>
      <trkpt lat="42.0352531224" lon="-6.9292200264">
        <ele>1047.49</ele>
        <time>2020-08-12T09:12:40Z</time>
      </trkpt>
      <trkpt lat="42.0352634322" lon="-6.9292797893">
        <ele>1047.01</ele>
        <time>2020-08-12T09:12:41Z</time>
      </trkpt>
      <trkpt lat="42.0353612490" lon="-6.9297392853">
        <ele>1044.13</ele>
        <time>2020-08-12T09:12:47Z</time>
      </trkpt>
      <trkpt lat="42.0353714749" lon="-6.9299246091">
        <ele>1043.17</ele>
        <time>2020-08-12T09:12:49Z</time>
      </trkpt>
      <trkpt lat="42.0353653561" lon="-6.9300182350">
        <ele>1042.69</ele>
        <time>2020-08-12T09:12:50Z</time>
      </trkpt>
      <trkpt lat="42.0353334211" lon="-6.9304654095">
        <ele>1041.25</ele>
        <time>2020-08-12T09:12:55Z</time>
      </trkpt>
      <trkpt lat="42.0353257097" lon="-6.9311489537">
        <ele>1039.80</ele>
        <time>2020-08-12T09:13:03Z</time>
      </trkpt>
      <trkpt lat="42.0353840478" lon="-6.9317068532">
        <ele>1036.44</ele>
        <time>2020-08-12T09:13:09Z</time>
      </trkpt>
      <trkpt lat="42.0354596525" lon="-6.9325230829">
        <ele>1032.11</ele>
        <time>2020-08-12T09:13:18Z</time>
      </trkpt>
      <trkpt lat="42.0355542842" lon="-6.9330984168">
        <ele>1028.75</ele>
        <time>2020-08-12T09:13:24Z</time>
      </trkpt>
      <trkpt lat="42.0357096847" lon="-6.9336914364">
        <ele>1026.83</ele>
        <time>2020-08-12T09:13:31Z</time>
      </trkpt>
      <trkpt lat="42.0358025562" lon="-6.9338668697">
        <ele>1028.27</ele>
        <time>2020-08-12T09:13:36Z</time>
      </trkpt>
      <trkpt lat="42.0359542686" lon="-6.9340733159">
        <ele>1029.23</ele>
        <time>2020-08-12T09:13:46Z</time>
      </trkpt>
      <trkpt lat="42.0361139439" lon="-6.9342717994">
        <ele>1030.67</ele>
        <time>2020-08-12T09:13:55Z</time>
      </trkpt>
      <trkpt lat="42.0363124274" lon="-6.9345021341">
        <ele>1032.59</ele>
        <time>2020-08-12T09:14:05Z</time>
      </trkpt>
      <trkpt lat="42.0364156924" lon="-6.9346266054">
        <ele>1033.07</ele>
        <time>2020-08-12T09:14:12Z</time>
      </trkpt>
      <trkpt lat="42.0366088115" lon="-6.9348094985">
        <ele>1035.00</ele>
        <time>2020-08-12T09:14:23Z</time>
      </trkpt>
      <trkpt lat="42.0367848314" lon="-6.9349928107">
        <ele>1035.96</ele>
        <time>2020-08-12T09:14:34Z</time>
      </trkpt>
      <trkpt lat="42.0369555708" lon="-6.9351696689">
        <ele>1037.40</ele>
        <time>2020-08-12T09:14:44Z</time>
      </trkpt>
      <trkpt lat="42.0370876696" lon="-6.9353071321">
        <ele>1038.36</ele>
        <time>2020-08-12T09:14:52Z</time>
      </trkpt>
      <trkpt lat="42.0371880848" lon="-6.9354078826">
        <ele>1040.28</ele>
        <time>2020-08-12T09:15:00Z</time>
      </trkpt>
      <trkpt lat="42.0373304095" lon="-6.9355462678">
        <ele>1041.73</ele>
        <time>2020-08-12T09:15:09Z</time>
      </trkpt>
      <trkpt lat="42.0374665316" lon="-6.9356979802">
        <ele>1042.69</ele>
        <time>2020-08-12T09:15:18Z</time>
      </trkpt>
      <trkpt lat="42.0376183279" lon="-6.9358711503">
        <ele>1044.13</ele>
        <time>2020-08-12T09:15:29Z</time>
      </trkpt>
      <trkpt lat="42.0377465710" lon="-6.9360363577">
        <ele>1045.09</ele>
        <time>2020-08-12T09:15:39Z</time>
      </trkpt>
      <trkpt lat="42.0378412865" lon="-6.9361827895">
        <ele>1046.05</ele>
        <time>2020-08-12T09:15:47Z</time>
      </trkpt>
      <trkpt lat="42.0379500836" lon="-6.9363472424">
        <ele>1047.01</ele>
        <time>2020-08-12T09:15:56Z</time>
      </trkpt>
      <trkpt lat="42.0380541030" lon="-6.9365494978">
        <ele>1048.94</ele>
        <time>2020-08-12T09:16:06Z</time>
      </trkpt>
      <trkpt lat="42.0381556917" lon="-6.9367776532">
        <ele>1050.38</ele>
        <time>2020-08-12T09:16:17Z</time>
      </trkpt>
      <trkpt lat="42.0382255130" lon="-6.9369786512">
        <ele>1052.30</ele>
        <time>2020-08-12T09:16:26Z</time>
      </trkpt>
      <trkpt lat="42.0382947475" lon="-6.9372207206">
        <ele>1053.26</ele>
        <time>2020-08-12T09:16:37Z</time>
      </trkpt>
      <trkpt lat="42.0383491460" lon="-6.9374381471">
        <ele>1054.22</ele>
        <time>2020-08-12T09:16:46Z</time>
      </trkpt>
      <trkpt lat="42.0383841824" lon="-6.9376207888">
        <ele>1054.22</ele>
        <time>2020-08-12T09:16:54Z</time>
      </trkpt>
      <trkpt lat="42.0384157822" lon="-6.9378366228">
        <ele>1055.18</ele>
        <time>2020-08-12T09:17:03Z</time>
      </trkpt>
      <trkpt lat="42.0384400897" lon="-6.9381437358">
        <ele>1056.15</ele>
        <time>2020-08-12T09:17:15Z</time>
      </trkpt>
      <trkpt lat="42.0384551771" lon="-6.9383735675">
        <ele>1056.63</ele>
        <time>2020-08-12T09:17:25Z</time>
      </trkpt>
      <trkpt lat="42.0384575240" lon="-6.9383941870">
        <ele>1057.11</ele>
        <time>2020-08-12T09:17:31Z</time>
      </trkpt>
      <trkpt lat="42.0384632237" lon="-6.9384118728">
        <ele>1057.59</ele>
        <time>2020-08-12T09:17:39Z</time>
      </trkpt>
      <trkpt lat="42.0384582784" lon="-6.9384068437">
        <ele>1058.55</ele>
        <time>2020-08-12T09:17:51Z</time>
      </trkpt>
      <trkpt lat="42.0384519082" lon="-6.9384129625">
        <ele>1059.51</ele>
        <time>2020-08-12T09:18:15Z</time>
      </trkpt>
      <trkpt lat="42.0384374075" lon="-6.9383958634">
        <ele>1059.99</ele>
        <time>2020-08-12T09:18:31Z</time>
      </trkpt>
      <trkpt lat="42.0384283550" lon="-6.9383973721">
        <ele>1060.47</ele>
        <time>2020-08-12T09:18:53Z</time>
      </trkpt>
      <trkpt lat="42.0384244993" lon="-6.9384024851">
        <ele>1058.55</ele>
        <time>2020-08-12T09:19:07Z</time>
      </trkpt>
      <trkpt lat="42.0384424366" lon="-6.9384149741">
        <ele>1059.99</ele>
        <time>2020-08-12T09:19:22Z</time>
      </trkpt>
      <trkpt lat="42.0384455379" lon="-6.9384053349">
        <ele>1059.03</ele>
        <time>2020-08-12T09:19:44Z</time>
      </trkpt>
      <trkpt lat="42.0384375751" lon="-6.9383913372">
        <ele>1059.03</ele>
        <time>2020-08-12T09:20:07Z</time>
      </trkpt>
      <trkpt lat="42.0384447835" lon="-6.9383907504">
        <ele>1059.03</ele>
        <time>2020-08-12T09:20:26Z</time>
      </trkpt>
      <trkpt lat="42.0384507347" lon="-6.9383900799">
        <ele>1059.99</ele>
        <time>2020-08-12T09:20:47Z</time>
      </trkpt>
      <trkpt lat="42.0384472981" lon="-6.9384049159">
        <ele>1060.47</ele>
        <time>2020-08-12T09:21:10Z</time>
      </trkpt>
      <trkpt lat="42.0384599548" lon="-6.9383967854">
        <ele>1059.99</ele>
        <time>2020-08-12T09:21:25Z</time>
      </trkpt>
      <trkpt lat="42.0384369884" lon="-6.9383933488">
        <ele>1058.07</ele>
        <time>2020-08-12T09:21:42Z</time>
      </trkpt>
      <trkpt lat="42.0384544227" lon="-6.9383915886">
        <ele>1060.47</ele>
        <time>2020-08-12T09:21:55Z</time>
      </trkpt>
      <trkpt lat="42.0384525787" lon="-6.9383909181">
        <ele>1060.47</ele>
        <time>2020-08-12T09:22:13Z</time>
      </trkpt>
      <trkpt lat="42.0384549256" lon="-6.9383994676">
        <ele>1060.47</ele>
        <time>2020-08-12T09:22:28Z</time>
      </trkpt>
      <trkpt lat="42.0384692587" lon="-6.9383976236">
        <ele>1061.91</ele>
        <time>2020-08-12T09:22:42Z</time>
      </trkpt>
      <trkpt lat="42.0384674985" lon="-6.9384067599">
        <ele>1060.47</ele>
        <time>2020-08-12T09:22:56Z</time>
      </trkpt>
      <trkpt lat="42.0384670794" lon="-6.9384140521">
        <ele>1059.03</ele>
        <time>2020-08-12T09:23:05Z</time>
      </trkpt>
      <trkpt lat="42.0384601224" lon="-6.9385410380">
        <ele>1059.51</ele>
        <time>2020-08-12T09:23:11Z</time>
      </trkpt>
      <trkpt lat="42.0384666603" lon="-6.9387810118">
        <ele>1060.47</ele>
        <time>2020-08-12T09:23:19Z</time>
      </trkpt>
      <trkpt lat="42.0384730306" lon="-6.9390987698">
        <ele>1062.39</ele>
        <time>2020-08-12T09:23:30Z</time>
      </trkpt>
      <trkpt lat="42.0384734496" lon="-6.9392933138">
        <ele>1062.87</ele>
        <time>2020-08-12T09:23:37Z</time>
      </trkpt>
      <trkpt lat="42.0384705160" lon="-6.9395865966">
        <ele>1063.36</ele>
        <time>2020-08-12T09:23:48Z</time>
      </trkpt>
      <trkpt lat="42.0384735335" lon="-6.9398704916">
        <ele>1064.80</ele>
        <time>2020-08-12T09:23:59Z</time>
      </trkpt>
      <trkpt lat="42.0384818316" lon="-6.9401279837">
        <ele>1066.24</ele>
        <time>2020-08-12T09:24:09Z</time>
      </trkpt>
      <trkpt lat="42.0384897105" lon="-6.9403313287">
        <ele>1067.20</ele>
        <time>2020-08-12T09:24:17Z</time>
      </trkpt>
      <trkpt lat="42.0385135151" lon="-6.9406169839">
        <ele>1068.64</ele>
        <time>2020-08-12T09:24:28Z</time>
      </trkpt>
      <trkpt lat="42.0385420136" lon="-6.9408691954">
        <ele>1069.60</ele>
        <time>2020-08-12T09:24:38Z</time>
      </trkpt>
      <trkpt lat="42.0385815762" lon="-6.9411469717">
        <ele>1071.53</ele>
        <time>2020-08-12T09:24:49Z</time>
      </trkpt>
      <trkpt lat="42.0386041235" lon="-6.9414453674">
        <ele>1072.49</ele>
        <time>2020-08-12T09:25:01Z</time>
      </trkpt>
      <trkpt lat="42.0386307780" lon="-6.9417394046">
        <ele>1073.93</ele>
        <time>2020-08-12T09:25:13Z</time>
      </trkpt>
      <trkpt lat="42.0386467036" lon="-6.9419313502">
        <ele>1074.41</ele>
        <time>2020-08-12T09:25:21Z</time>
      </trkpt>
      <trkpt lat="42.0386569295" lon="-6.9421423227">
        <ele>1075.37</ele>
        <time>2020-08-12T09:25:30Z</time>
      </trkpt>
      <trkpt lat="42.0386623777" lon="-6.9423690531">
        <ele>1076.81</ele>
        <time>2020-08-12T09:25:39Z</time>
      </trkpt>
      <trkpt lat="42.0386746991" lon="-6.9426276349">
        <ele>1078.26</ele>
        <time>2020-08-12T09:25:50Z</time>
      </trkpt>
      <trkpt lat="42.0386752859" lon="-6.9428727217">
        <ele>1078.74</ele>
        <time>2020-08-12T09:26:00Z</time>
      </trkpt>
      <trkpt lat="42.0386867691" lon="-6.9430884719">
        <ele>1079.22</ele>
        <time>2020-08-12T09:26:09Z</time>
      </trkpt>
      <trkpt lat="42.0387000963" lon="-6.9433271047">
        <ele>1080.18</ele>
        <time>2020-08-12T09:26:19Z</time>
      </trkpt>
      <trkpt lat="42.0387075562" lon="-6.9435426034">
        <ele>1080.66</ele>
        <time>2020-08-12T09:26:28Z</time>
      </trkpt>
      <trkpt lat="42.0387138426" lon="-6.9438036159">
        <ele>1082.10</ele>
        <time>2020-08-12T09:26:39Z</time>
      </trkpt>
      <trkpt lat="42.0387166087" lon="-6.9440395664">
        <ele>1083.54</ele>
        <time>2020-08-12T09:26:49Z</time>
      </trkpt>
      <trkpt lat="42.0387223922" lon="-6.9443191029">
        <ele>1084.99</ele>
        <time>2020-08-12T09:27:00Z</time>
      </trkpt>
      <trkpt lat="42.0387258288" lon="-6.9445165806">
        <ele>1085.95</ele>
        <time>2020-08-12T09:27:08Z</time>
      </trkpt>
      <trkpt lat="42.0387349650" lon="-6.9447260443">
        <ele>1087.39</ele>
        <time>2020-08-12T09:27:17Z</time>
      </trkpt>
      <trkpt lat="42.0387490466" lon="-6.9449890684">
        <ele>1089.31</ele>
        <time>2020-08-12T09:27:29Z</time>
      </trkpt>
      <trkpt lat="42.0387560874" lon="-6.9451553654">
        <ele>1090.27</ele>
        <time>2020-08-12T09:27:36Z</time>
      </trkpt>
      <trkpt lat="42.0387617033" lon="-6.9453420304">
        <ele>1090.75</ele>
        <time>2020-08-12T09:27:44Z</time>
      </trkpt>
      <trkpt lat="42.0387700852" lon="-6.9455419388">
        <ele>1092.20</ele>
        <time>2020-08-12T09:27:53Z</time>
      </trkpt>
      <trkpt lat="42.0387789700" lon="-6.9456585310">
        <ele>1092.68</ele>
        <time>2020-08-12T09:28:00Z</time>
      </trkpt>
      <trkpt lat="42.0387725160" lon="-6.9457087386">
        <ele>1094.60</ele>
        <time>2020-08-12T09:28:08Z</time>
      </trkpt>
      <trkpt lat="42.0387712587" lon="-6.9457078166">
        <ele>1091.71</ele>
        <time>2020-08-12T09:28:22Z</time>
      </trkpt>
      <trkpt lat="42.0387703367" lon="-6.9457193837">
        <ele>1092.20</ele>
        <time>2020-08-12T09:28:36Z</time>
      </trkpt>
      <trkpt lat="42.0387705881" lon="-6.9457229041">
        <ele>1092.20</ele>
        <time>2020-08-12T09:28:52Z</time>
      </trkpt>
      <trkpt lat="42.0387723483" lon="-6.9457063917">
        <ele>1092.68</ele>
        <time>2020-08-12T09:29:08Z</time>
      </trkpt>
      <trkpt lat="42.0387757011" lon="-6.9456961658">
        <ele>1093.64</ele>
        <time>2020-08-12T09:29:19Z</time>
      </trkpt>
      <trkpt lat="42.0387772936" lon="-6.9457058050">
        <ele>1092.20</ele>
        <time>2020-08-12T09:29:32Z</time>
      </trkpt>
      <trkpt lat="42.0387788862" lon="-6.9457091577">
        <ele>1091.71</ele>
        <time>2020-08-12T09:29:43Z</time>
      </trkpt>
      <trkpt lat="42.0387770422" lon="-6.9457244966">
        <ele>1092.68</ele>
        <time>2020-08-12T09:29:53Z</time>
      </trkpt>
      <trkpt lat="42.0387791377" lon="-6.9458469562">
        <ele>1093.16</ele>
        <time>2020-08-12T09:29:59Z</time>
      </trkpt>
      <trkpt lat="42.0387876872" lon="-6.9460652210">
        <ele>1094.12</ele>
        <time>2020-08-12T09:30:08Z</time>
      </trkpt>
      <trkpt lat="42.0387950633" lon="-6.9463035185">
        <ele>1095.56</ele>
        <time>2020-08-12T09:30:17Z</time>
      </trkpt>
      <trkpt lat="42.0387979131" lon="-6.9465200230">
        <ele>1097.00</ele>
        <time>2020-08-12T09:30:25Z</time>
      </trkpt>
      <trkpt lat="42.0388083067" lon="-6.9467356894">
        <ele>1097.96</ele>
        <time>2020-08-12T09:30:34Z</time>
      </trkpt>
      <trkpt lat="42.0388160180" lon="-6.9469380286">
        <ele>1098.92</ele>
        <time>2020-08-12T09:30:43Z</time>
      </trkpt>
      <trkpt lat="42.0388268307" lon="-6.9471797626">
        <ele>1100.85</ele>
        <time>2020-08-12T09:30:53Z</time>
      </trkpt>
      <trkpt lat="42.0388414152" lon="-6.9473889749">
        <ele>1102.29</ele>
        <time>2020-08-12T09:31:02Z</time>
      </trkpt>
      <trkpt lat="42.0388661418" lon="-6.9475921523">
        <ele>1102.77</ele>
        <time>2020-08-12T09:31:11Z</time>
      </trkpt>
      <trkpt lat="42.0388788823" lon="-6.9477435295">
        <ele>1103.73</ele>
        <time>2020-08-12T09:31:18Z</time>
      </trkpt>
      <trkpt lat="42.0388949756" lon="-6.9479425158">
        <ele>1105.17</ele>
        <time>2020-08-12T09:31:27Z</time>
      </trkpt>
      <trkpt lat="42.0389262401" lon="-6.9481698330">
        <ele>1105.65</ele>
        <time>2020-08-12T09:31:38Z</time>
      </trkpt>
      <trkpt lat="42.0389306825" lon="-6.9481902849">
        <ele>1105.65</ele>
        <time>2020-08-12T09:31:39Z</time>
      </trkpt>
      <trkpt lat="42.0389575884" lon="-6.9483528938">
        <ele>1106.13</ele>
        <time>2020-08-12T09:31:47Z</time>
      </trkpt>
      <trkpt lat="42.0389886852" lon="-6.9485502038">
        <ele>1107.10</ele>
        <time>2020-08-12T09:31:56Z</time>
      </trkpt>
      <trkpt lat="42.0390036888" lon="-6.9487118907">
        <ele>1108.54</ele>
        <time>2020-08-12T09:32:03Z</time>
      </trkpt>
      <trkpt lat="42.0390362106" lon="-6.9489071891">
        <ele>1109.98</ele>
        <time>2020-08-12T09:32:12Z</time>
      </trkpt>
      <trkpt lat="42.0390732586" lon="-6.9491107017">
        <ele>1111.42</ele>
        <time>2020-08-12T09:32:21Z</time>
      </trkpt>
      <trkpt lat="42.0391179342" lon="-6.9493063353">
        <ele>1111.90</ele>
        <time>2020-08-12T09:32:30Z</time>
      </trkpt>
      <trkpt lat="42.0391465165" lon="-6.9494500849">
        <ele>1112.38</ele>
        <time>2020-08-12T09:32:36Z</time>
      </trkpt>
      <trkpt lat="42.0391922817" lon="-6.9496415276">
        <ele>1112.86</ele>
        <time>2020-08-12T09:32:44Z</time>
      </trkpt>
      <trkpt lat="42.0392391365" lon="-6.9498706888">
        <ele>1113.34</ele>
        <time>2020-08-12T09:32:53Z</time>
      </trkpt>
      <trkpt lat="42.0392988157" lon="-6.9501305278">
        <ele>1114.31</ele>
        <time>2020-08-12T09:33:03Z</time>
      </trkpt>
      <trkpt lat="42.0393428206" lon="-6.9503332861">
        <ele>1114.31</ele>
        <time>2020-08-12T09:33:10Z</time>
      </trkpt>
      <trkpt lat="42.0393912680" lon="-6.9505375531">
        <ele>1114.31</ele>
        <time>2020-08-12T09:33:17Z</time>
      </trkpt>
      <trkpt lat="42.0394575689" lon="-6.9508510362">
        <ele>1114.31</ele>
        <time>2020-08-12T09:33:28Z</time>
      </trkpt>
      <trkpt lat="42.0395300724" lon="-6.9510825444">
        <ele>1115.27</ele>
        <time>2020-08-12T09:33:37Z</time>
      </trkpt>
      <trkpt lat="42.0396315772" lon="-6.9513369352">
        <ele>1117.67</ele>
        <time>2020-08-12T09:33:47Z</time>
      </trkpt>
      <trkpt lat="42.0396542083" lon="-6.9514111150">
        <ele>1118.15</ele>
        <time>2020-08-12T09:33:50Z</time>
      </trkpt>
      <trkpt lat="42.0396625903" lon="-6.9514371827">
        <ele>1118.63</ele>
        <time>2020-08-12T09:33:51Z</time>
      </trkpt>
      <trkpt lat="42.0397260413" lon="-6.9516027253">
        <ele>1120.07</ele>
        <time>2020-08-12T09:33:59Z</time>
      </trkpt>
      <trkpt lat="42.0398000535" lon="-6.9518624805">
        <ele>1121.03</ele>
        <time>2020-08-12T09:34:10Z</time>
      </trkpt>
      <trkpt lat="42.0398433041" lon="-6.9520778116">
        <ele>1122.00</ele>
        <time>2020-08-12T09:34:19Z</time>
      </trkpt>
      <trkpt lat="42.0398718864" lon="-6.9522991776">
        <ele>1122.00</ele>
        <time>2020-08-12T09:34:28Z</time>
      </trkpt>
      <trkpt lat="42.0398911647" lon="-6.9524955656">
        <ele>1122.48</ele>
        <time>2020-08-12T09:34:36Z</time>
      </trkpt>
      <trkpt lat="42.0399005525" lon="-6.9527651276">
        <ele>1124.40</ele>
        <time>2020-08-12T09:34:47Z</time>
      </trkpt>
      <trkpt lat="42.0398806874" lon="-6.9530977216">
        <ele>1125.84</ele>
        <time>2020-08-12T09:35:00Z</time>
      </trkpt>
      <trkpt lat="42.0398689527" lon="-6.9532623421">
        <ele>1127.28</ele>
        <time>2020-08-12T09:35:07Z</time>
      </trkpt>
      <trkpt lat="42.0398172364" lon="-6.9535590615">
        <ele>1129.21</ele>
        <time>2020-08-12T09:35:20Z</time>
      </trkpt>
      <trkpt lat="42.0397757459" lon="-6.9537755661">
        <ele>1129.69</ele>
        <time>2020-08-12T09:35:30Z</time>
      </trkpt>
      <trkpt lat="42.0397426374" lon="-6.9539427012">
        <ele>1131.13</ele>
        <time>2020-08-12T09:35:38Z</time>
      </trkpt>
      <trkpt lat="42.0397350099" lon="-6.9539646618">
        <ele>1131.61</ele>
        <time>2020-08-12T09:35:39Z</time>
      </trkpt>
      <trkpt lat="42.0397216827" lon="-6.9539816771">
        <ele>1132.09</ele>
        <time>2020-08-12T09:35:40Z</time>
      </trkpt>
      <trkpt lat="42.0397021528" lon="-6.9539898913">
        <ele>1131.61</ele>
        <time>2020-08-12T09:35:41Z</time>
      </trkpt>
      <trkpt lat="42.0396854728" lon="-6.9539981894">
        <ele>1131.61</ele>
        <time>2020-08-12T09:35:42Z</time>
      </trkpt>
      <trkpt lat="42.0396676194" lon="-6.9540135283">
        <ele>1132.09</ele>
        <time>2020-08-12T09:35:43Z</time>
      </trkpt>
      <trkpt lat="42.0396532025" lon="-6.9540333096">
        <ele>1132.09</ele>
        <time>2020-08-12T09:35:44Z</time>
      </trkpt>
      <trkpt lat="42.0396427251" lon="-6.9540572818">
        <ele>1132.09</ele>
        <time>2020-08-12T09:35:45Z</time>
      </trkpt>
      <trkpt lat="42.0396346785" lon="-6.9540775660">
        <ele>1131.61</ele>
        <time>2020-08-12T09:35:46Z</time>
      </trkpt>
      <trkpt lat="42.0396281406" lon="-6.9540969282">
        <ele>1132.09</ele>
        <time>2020-08-12T09:35:47Z</time>
      </trkpt>
      <trkpt lat="42.0396187529" lon="-6.9541433640">
        <ele>1131.61</ele>
        <time>2020-08-12T09:35:50Z</time>
      </trkpt>
      <trkpt lat="42.0396114606" lon="-6.9541525841">
        <ele>1131.61</ele>
        <time>2020-08-12T09:35:51Z</time>
      </trkpt>
      <trkpt lat="42.0395997260" lon="-6.9541560207">
        <ele>1131.61</ele>
        <time>2020-08-12T09:35:52Z</time>
      </trkpt>
      <trkpt lat="42.0395910088" lon="-6.9541529194">
        <ele>1131.61</ele>
        <time>2020-08-12T09:35:53Z</time>
      </trkpt>
      <trkpt lat="42.0395806152" lon="-6.9541504048">
        <ele>1131.61</ele>
        <time>2020-08-12T09:35:54Z</time>
      </trkpt>
      <trkpt lat="42.0395636838" lon="-6.9541447889">
        <ele>1132.57</ele>
        <time>2020-08-12T09:36:00Z</time>
      </trkpt>
      <trkpt lat="42.0395623427" lon="-6.9541212358">
        <ele>1132.57</ele>
        <time>2020-08-12T09:36:07Z</time>
      </trkpt>
      <trkpt lat="42.0395629294" lon="-6.9541252591">
        <ele>1134.01</ele>
        <time>2020-08-12T09:36:17Z</time>
      </trkpt>
      <trkpt lat="42.0395775978" lon="-6.9541318808">
        <ele>1133.05</ele>
        <time>2020-08-12T09:36:35Z</time>
      </trkpt>
      <trkpt lat="42.0395767596" lon="-6.9541408494">
        <ele>1134.49</ele>
        <time>2020-08-12T09:36:51Z</time>
      </trkpt>
      <trkpt lat="42.0395997260" lon="-6.9541341439">
        <ele>1133.05</ele>
        <time>2020-08-12T09:37:07Z</time>
      </trkpt>
      <trkpt lat="42.0395961218" lon="-6.9541228283">
        <ele>1133.05</ele>
        <time>2020-08-12T09:37:20Z</time>
      </trkpt>
      <trkpt lat="42.0396075211" lon="-6.9541320484">
        <ele>1133.53</ele>
        <time>2020-08-12T09:37:32Z</time>
      </trkpt>
      <trkpt lat="42.0395920984" lon="-6.9541444536">
        <ele>1133.05</ele>
        <time>2020-08-12T09:37:45Z</time>
      </trkpt>
      <trkpt lat="42.0395846386" lon="-6.9541328866">
        <ele>1132.57</ele>
        <time>2020-08-12T09:37:56Z</time>
      </trkpt>
      <trkpt lat="42.0395677071" lon="-6.9541291986">
        <ele>1132.57</ele>
        <time>2020-08-12T09:38:14Z</time>
      </trkpt>
      <trkpt lat="42.0395604987" lon="-6.9541234989">
        <ele>1133.05</ele>
        <time>2020-08-12T09:38:27Z</time>
      </trkpt>
      <trkpt lat="42.0396103710" lon="-6.9541347306">
        <ele>1133.05</ele>
        <time>2020-08-12T09:38:40Z</time>
      </trkpt>
      <trkpt lat="42.0396101195" lon="-6.9541209005">
        <ele>1134.49</ele>
        <time>2020-08-12T09:38:57Z</time>
      </trkpt>
      <trkpt lat="42.0395866502" lon="-6.9541167095">
        <ele>1134.97</ele>
        <time>2020-08-12T09:39:12Z</time>
      </trkpt>
      <trkpt lat="42.0395771787" lon="-6.9541416876">
        <ele>1133.05</ele>
        <time>2020-08-12T09:39:35Z</time>
      </trkpt>
      <trkpt lat="42.0395993069" lon="-6.9541364070">
        <ele>1132.57</ele>
        <time>2020-08-12T09:39:55Z</time>
      </trkpt>
      <trkpt lat="42.0396149810" lon="-6.9541384187">
        <ele>1132.57</ele>
        <time>2020-08-12T09:40:08Z</time>
      </trkpt>
      <trkpt lat="42.0395763405" lon="-6.9541415200">
        <ele>1131.61</ele>
        <time>2020-08-12T09:40:26Z</time>
      </trkpt>
      <trkpt lat="42.0396038331" lon="-6.9541395083">
        <ele>1128.73</ele>
        <time>2020-08-12T09:40:40Z</time>
      </trkpt>
      <trkpt lat="42.0395862311" lon="-6.9541245047">
        <ele>1127.76</ele>
        <time>2020-08-12T09:41:02Z</time>
      </trkpt>
      <trkpt lat="42.0395972952" lon="-6.9541398436">
        <ele>1130.17</ele>
        <time>2020-08-12T09:41:14Z</time>
      </trkpt>
      <trkpt lat="42.0396316610" lon="-6.9541260134">
        <ele>1130.17</ele>
        <time>2020-08-12T09:41:42Z</time>
      </trkpt>
      <trkpt lat="42.0396319963" lon="-6.9541559368">
        <ele>1132.09</ele>
        <time>2020-08-12T09:42:06Z</time>
      </trkpt>
      <trkpt lat="42.0396065991" lon="-6.9541661628">
        <ele>1134.97</ele>
        <time>2020-08-12T09:42:24Z</time>
      </trkpt>
      <trkpt lat="42.0396548789" lon="-6.9541720301">
        <ele>1128.73</ele>
        <time>2020-08-12T09:42:46Z</time>
      </trkpt>
      <trkpt lat="42.0396369416" lon="-6.9541616365">
        <ele>1131.61</ele>
        <time>2020-08-12T09:43:03Z</time>
      </trkpt>
      <trkpt lat="42.0396122150" lon="-6.9541749638">
        <ele>1134.01</ele>
        <time>2020-08-12T09:43:16Z</time>
      </trkpt>
      <trkpt lat="42.0396201778" lon="-6.9541392568">
        <ele>1134.49</ele>
        <time>2020-08-12T09:43:38Z</time>
      </trkpt>
      <trkpt lat="42.0396200102" lon="-6.9541473873">
        <ele>1134.49</ele>
        <time>2020-08-12T09:43:55Z</time>
      </trkpt>
      <trkpt lat="42.0396094490" lon="-6.9541420229">
        <ele>1132.57</ele>
        <time>2020-08-12T09:44:16Z</time>
      </trkpt>
      <trkpt lat="42.0396257937" lon="-6.9541779812">
        <ele>1133.05</ele>
        <time>2020-08-12T09:44:38Z</time>
      </trkpt>
      <trkpt lat="42.0396298170" lon="-6.9541548472">
        <ele>1134.01</ele>
        <time>2020-08-12T09:45:01Z</time>
      </trkpt>
      <trkpt lat="42.0395967085" lon="-6.9541307073">
        <ele>1134.01</ele>
        <time>2020-08-12T09:45:20Z</time>
      </trkpt>
      <trkpt lat="42.0395801123" lon="-6.9541375805">
        <ele>1134.97</ele>
        <time>2020-08-12T09:45:34Z</time>
      </trkpt>
      <trkpt lat="42.0395993069" lon="-6.9541478902">
        <ele>1133.05</ele>
        <time>2020-08-12T09:45:54Z</time>
      </trkpt>
      <trkpt lat="42.0396137238" lon="-6.9541635644">
        <ele>1133.05</ele>
        <time>2020-08-12T09:46:14Z</time>
      </trkpt>
      <trkpt lat="42.0395971276" lon="-6.9541483093">
        <ele>1134.01</ele>
        <time>2020-08-12T09:46:26Z</time>
      </trkpt>
      <trkpt lat="42.0395940263" lon="-6.9541582000">
        <ele>1133.53</ele>
        <time>2020-08-12T09:46:45Z</time>
      </trkpt>
      <trkpt lat="42.0396200940" lon="-6.9541440345">
        <ele>1131.13</ele>
        <time>2020-08-12T09:47:04Z</time>
      </trkpt>
      <trkpt lat="42.0395963732" lon="-6.9541540090">
        <ele>1132.09</ele>
        <time>2020-08-12T09:47:22Z</time>
      </trkpt>
      <trkpt lat="42.0396138914" lon="-6.9541595411">
        <ele>1133.53</ele>
        <time>2020-08-12T09:47:37Z</time>
      </trkpt>
      <trkpt lat="42.0396118797" lon="-6.9541301206">
        <ele>1131.13</ele>
        <time>2020-08-12T09:47:57Z</time>
      </trkpt>
      <trkpt lat="42.0396309067" lon="-6.9541460462">
        <ele>1130.17</ele>
        <time>2020-08-12T09:48:14Z</time>
      </trkpt>
      <trkpt lat="42.0396060124" lon="-6.9541595411">
        <ele>1132.09</ele>
        <time>2020-08-12T09:48:29Z</time>
      </trkpt>
      <trkpt lat="42.0395911764" lon="-6.9541324675">
        <ele>1131.61</ele>
        <time>2020-08-12T09:48:49Z</time>
      </trkpt>
      <trkpt lat="42.0396087784" lon="-6.9541245885">
        <ele>1130.65</ele>
        <time>2020-08-12T09:49:01Z</time>
      </trkpt>
      <trkpt lat="42.0396090299" lon="-6.9541448727">
        <ele>1130.65</ele>
        <time>2020-08-12T09:49:17Z</time>
      </trkpt>
      <trkpt lat="42.0396033302" lon="-6.9541298691">
        <ele>1132.57</ele>
        <time>2020-08-12T09:49:38Z</time>
      </trkpt>
      <trkpt lat="42.0395856444" lon="-6.9541282766">
        <ele>1131.13</ele>
        <time>2020-08-12T09:49:54Z</time>
      </trkpt>
      <trkpt lat="42.0395689644" lon="-6.9541260134">
        <ele>1133.05</ele>
        <time>2020-08-12T09:50:08Z</time>
      </trkpt>
      <trkpt lat="42.0395961218" lon="-6.9541240856">
        <ele>1131.13</ele>
        <time>2020-08-12T09:50:31Z</time>
      </trkpt>
      <trkpt lat="42.0395818725" lon="-6.9541235827">
        <ele>1132.09</ele>
        <time>2020-08-12T09:50:45Z</time>
      </trkpt>
      <trkpt lat="42.0395741612" lon="-6.9541297853">
        <ele>1133.53</ele>
        <time>2020-08-12T09:51:10Z</time>
      </trkpt>
      <trkpt lat="42.0396091137" lon="-6.9541201461">
        <ele>1129.69</ele>
        <time>2020-08-12T09:51:28Z</time>
      </trkpt>
      <trkpt lat="42.0396196749" lon="-6.9541384187">
        <ele>1130.17</ele>
        <time>2020-08-12T09:51:48Z</time>
      </trkpt>
      <trkpt lat="42.0396125503" lon="-6.9541468844">
        <ele>1130.65</ele>
        <time>2020-08-12T09:52:09Z</time>
      </trkpt>
      <trkpt lat="42.0396496821" lon="-6.9541458786">
        <ele>1128.73</ele>
        <time>2020-08-12T09:52:24Z</time>
      </trkpt>
      <trkpt lat="42.0396242850" lon="-6.9541305397">
        <ele>1126.80</ele>
        <time>2020-08-12T09:52:50Z</time>
      </trkpt>
      <trkpt lat="42.0396457426" lon="-6.9541719463">
        <ele>1128.73</ele>
        <time>2020-08-12T09:53:08Z</time>
      </trkpt>
      <trkpt lat="42.0396787673" lon="-6.9541694317">
        <ele>1130.65</ele>
        <time>2020-08-12T09:53:25Z</time>
      </trkpt>
      <trkpt lat="42.0396583155" lon="-6.9541491475">
        <ele>1132.09</ele>
        <time>2020-08-12T09:53:40Z</time>
      </trkpt>
      <trkpt lat="42.0396414679" lon="-6.9541587029">
        <ele>1130.65</ele>
        <time>2020-08-12T09:54:03Z</time>
      </trkpt>
      <trkpt lat="42.0396386180" lon="-6.9541585352">
        <ele>1131.61</ele>
        <time>2020-08-12T09:54:18Z</time>
      </trkpt>
      <trkpt lat="42.0395877399" lon="-6.9541289471">
        <ele>1134.01</ele>
        <time>2020-08-12T09:54:39Z</time>
      </trkpt>
      <trkpt lat="42.0395741612" lon="-6.9541092496">
        <ele>1134.01</ele>
        <time>2020-08-12T09:55:01Z</time>
      </trkpt>
      <trkpt lat="42.0395962056" lon="-6.9541100040">
        <ele>1131.13</ele>
        <time>2020-08-12T09:55:22Z</time>
      </trkpt>
      <trkpt lat="42.0395766757" lon="-6.9541126862">
        <ele>1131.61</ele>
        <time>2020-08-12T09:55:43Z</time>
      </trkpt>
      <trkpt lat="42.0395851415" lon="-6.9541162066">
        <ele>1131.61</ele>
        <time>2020-08-12T09:55:57Z</time>
      </trkpt>
      <trkpt lat="42.0396033302" lon="-6.9541322999">
        <ele>1130.65</ele>
        <time>2020-08-12T09:56:11Z</time>
      </trkpt>
      <trkpt lat="42.0396034140" lon="-6.9541276060">
        <ele>1131.61</ele>
        <time>2020-08-12T09:56:15Z</time>
      </trkpt>
      <trkpt lat="42.0396798570" lon="-6.9541755505">
        <ele>1131.61</ele>
        <time>2020-08-12T09:56:24Z</time>
      </trkpt>
      <trkpt lat="42.0396867301" lon="-6.9541912246">
        <ele>1131.61</ele>
        <time>2020-08-12T09:56:25Z</time>
      </trkpt>
      <trkpt lat="42.0396873169" lon="-6.9542129338">
        <ele>1132.09</ele>
        <time>2020-08-12T09:56:30Z</time>
      </trkpt>
      <trkpt lat="42.0396776777" lon="-6.9542303681">
        <ele>1132.57</ele>
        <time>2020-08-12T09:56:33Z</time>
      </trkpt>
      <trkpt lat="42.0396739058" lon="-6.9542526640">
        <ele>1132.57</ele>
        <time>2020-08-12T09:56:34Z</time>
      </trkpt>
      <trkpt lat="42.0396692120" lon="-6.9542737026">
        <ele>1132.57</ele>
        <time>2020-08-12T09:56:35Z</time>
      </trkpt>
      <trkpt lat="42.0396646019" lon="-6.9542973395">
        <ele>1132.57</ele>
        <time>2020-08-12T09:56:36Z</time>
      </trkpt>
      <trkpt lat="42.0396598242" lon="-6.9543217309">
        <ele>1133.05</ele>
        <time>2020-08-12T09:56:37Z</time>
      </trkpt>
      <trkpt lat="42.0396244526" lon="-6.9545706734">
        <ele>1134.01</ele>
        <time>2020-08-12T09:56:46Z</time>
      </trkpt>
      <trkpt lat="42.0396131370" lon="-6.9548566639">
        <ele>1134.49</ele>
        <time>2020-08-12T09:56:57Z</time>
      </trkpt>
      <trkpt lat="42.0396092813" lon="-6.9551006611">
        <ele>1136.42</ele>
        <time>2020-08-12T09:57:07Z</time>
      </trkpt>
      <trkpt lat="42.0396179985" lon="-6.9553393777">
        <ele>1138.34</ele>
        <time>2020-08-12T09:57:17Z</time>
      </trkpt>
      <trkpt lat="42.0396247040" lon="-6.9555713050">
        <ele>1140.26</ele>
        <time>2020-08-12T09:57:27Z</time>
      </trkpt>
      <trkpt lat="42.0396266319" lon="-6.9557592273">
        <ele>1142.18</ele>
        <time>2020-08-12T09:57:36Z</time>
      </trkpt>
      <trkpt lat="42.0396351814" lon="-6.9560075831">
        <ele>1143.14</ele>
        <time>2020-08-12T09:57:46Z</time>
      </trkpt>
      <trkpt lat="42.0396476705" lon="-6.9562245905">
        <ele>1144.11</ele>
        <time>2020-08-12T09:57:56Z</time>
      </trkpt>
      <trkpt lat="42.0396532025" lon="-6.9564443640">
        <ele>1146.03</ele>
        <time>2020-08-12T09:58:06Z</time>
      </trkpt>
      <trkpt lat="42.0396635123" lon="-6.9566752017">
        <ele>1147.95</ele>
        <time>2020-08-12T09:58:16Z</time>
      </trkpt>
      <trkpt lat="42.0396731514" lon="-6.9569088891">
        <ele>1149.39</ele>
        <time>2020-08-12T09:58:26Z</time>
      </trkpt>
      <trkpt lat="42.0396766718" lon="-6.9571439177">
        <ele>1149.87</ele>
        <time>2020-08-12T09:58:36Z</time>
      </trkpt>
      <trkpt lat="42.0396911725" lon="-6.9574367814">
        <ele>1150.84</ele>
        <time>2020-08-12T09:58:48Z</time>
      </trkpt>
      <trkpt lat="42.0397069305" lon="-6.9577456545">
        <ele>1151.32</ele>
        <time>2020-08-12T09:59:00Z</time>
      </trkpt>
      <trkpt lat="42.0397204254" lon="-6.9579366781">
        <ele>1151.80</ele>
        <time>2020-08-12T09:59:07Z</time>
      </trkpt>
      <trkpt lat="42.0397419669" lon="-6.9582351577">
        <ele>1152.76</ele>
        <time>2020-08-12T09:59:18Z</time>
      </trkpt>
      <trkpt lat="42.0397521090" lon="-6.9585089944">
        <ele>1153.24</ele>
        <time>2020-08-12T09:59:28Z</time>
      </trkpt>
      <trkpt lat="42.0397537854" lon="-6.9588560052">
        <ele>1154.20</ele>
        <time>2020-08-12T09:59:40Z</time>
      </trkpt>
      <trkpt lat="42.0397519413" lon="-6.9590979908">
        <ele>1154.20</ele>
        <time>2020-08-12T09:59:48Z</time>
      </trkpt>
      <trkpt lat="42.0397366863" lon="-6.9594206102">
        <ele>1153.72</ele>
        <time>2020-08-12T09:59:58Z</time>
      </trkpt>
      <trkpt lat="42.0396673679" lon="-6.9598532841">
        <ele>1155.16</ele>
        <time>2020-08-12T10:00:10Z</time>
      </trkpt>
      <trkpt lat="42.0395059325" lon="-6.9601696171">
        <ele>1155.64</ele>
        <time>2020-08-12T10:00:20Z</time>
      </trkpt>
      <trkpt lat="42.0393040124" lon="-6.9603894744">
        <ele>1155.64</ele>
        <time>2020-08-12T10:00:29Z</time>
      </trkpt>
      <trkpt lat="42.0391405653" lon="-6.9605568610">
        <ele>1154.68</ele>
        <time>2020-08-12T10:00:36Z</time>
      </trkpt>
      <trkpt lat="42.0389521401" lon="-6.9607458729">
        <ele>1156.12</ele>
        <time>2020-08-12T10:00:44Z</time>
      </trkpt>
      <trkpt lat="42.0388366375" lon="-6.9609234855">
        <ele>1157.56</ele>
        <time>2020-08-12T10:00:52Z</time>
      </trkpt>
      <trkpt lat="42.0387598593" lon="-6.9611352962">
        <ele>1159.97</ele>
        <time>2020-08-12T10:01:01Z</time>
      </trkpt>
      <trkpt lat="42.0387363899" lon="-6.9613494538">
        <ele>1160.93</ele>
        <time>2020-08-12T10:01:10Z</time>
      </trkpt>
      <trkpt lat="42.0387320314" lon="-6.9614668004">
        <ele>1161.89</ele>
        <time>2020-08-12T10:01:16Z</time>
      </trkpt>
      <trkpt lat="42.0387402456" lon="-6.9616573211">
        <ele>1162.85</ele>
        <time>2020-08-12T10:01:25Z</time>
      </trkpt>
      <trkpt lat="42.0387416705" lon="-6.9617040921">
        <ele>1163.33</ele>
        <time>2020-08-12T10:01:32Z</time>
      </trkpt>
      <trkpt lat="42.0387322828" lon="-6.9617283158">
        <ele>1163.81</ele>
        <time>2020-08-12T10:01:47Z</time>
      </trkpt>
      <trkpt lat="42.0387378149" lon="-6.9618542958">
        <ele>1164.29</ele>
        <time>2020-08-12T10:01:54Z</time>
      </trkpt>
      <trkpt lat="42.0387457777" lon="-6.9620988797">
        <ele>1166.22</ele>
        <time>2020-08-12T10:02:05Z</time>
      </trkpt>
      <trkpt lat="42.0387508068" lon="-6.9623043202">
        <ele>1168.14</ele>
        <time>2020-08-12T10:02:14Z</time>
      </trkpt>
      <trkpt lat="42.0387440175" lon="-6.9624336530">
        <ele>1169.10</ele>
        <time>2020-08-12T10:02:22Z</time>
      </trkpt>
      <trkpt lat="42.0387277566" lon="-6.9626028836">
        <ele>1170.54</ele>
        <time>2020-08-12T10:02:31Z</time>
      </trkpt>
      <trkpt lat="42.0387128368" lon="-6.9627867825">
        <ele>1171.50</ele>
        <time>2020-08-12T10:02:41Z</time>
      </trkpt>
      <trkpt lat="42.0386862662" lon="-6.9629740342">
        <ele>1173.43</ele>
        <time>2020-08-12T10:02:51Z</time>
      </trkpt>
      <trkpt lat="42.0386717655" lon="-6.9631031156">
        <ele>1173.91</ele>
        <time>2020-08-12T10:02:58Z</time>
      </trkpt>
      <trkpt lat="42.0386479609" lon="-6.9632182829">
        <ele>1174.39</ele>
        <time>2020-08-12T10:03:05Z</time>
      </trkpt>
      <trkpt lat="42.0386461169" lon="-6.9632409140">
        <ele>1174.87</ele>
        <time>2020-08-12T10:03:06Z</time>
      </trkpt>
      <trkpt lat="42.0386161096" lon="-6.9634507131">
        <ele>1175.83</ele>
        <time>2020-08-12T10:03:18Z</time>
      </trkpt>
      <trkpt lat="42.0386114996" lon="-6.9635047764">
        <ele>1175.83</ele>
        <time>2020-08-12T10:03:21Z</time>
      </trkpt>
      <trkpt lat="42.0386095718" lon="-6.9635230489">
        <ele>1176.31</ele>
        <time>2020-08-12T10:03:22Z</time>
      </trkpt>
      <trkpt lat="42.0386073086" lon="-6.9635395613">
        <ele>1176.31</ele>
        <time>2020-08-12T10:03:23Z</time>
      </trkpt>
      <trkpt lat="42.0386078116" lon="-6.9635557383">
        <ele>1176.79</ele>
        <time>2020-08-12T10:03:24Z</time>
      </trkpt>
      <trkpt lat="42.0386077277" lon="-6.9635725860">
        <ele>1176.79</ele>
        <time>2020-08-12T10:03:25Z</time>
      </trkpt>
      <trkpt lat="42.0386047103" lon="-6.9635906909">
        <ele>1176.79</ele>
        <time>2020-08-12T10:03:26Z</time>
      </trkpt>
      <trkpt lat="42.0386017766" lon="-6.9636089634">
        <ele>1176.79</ele>
        <time>2020-08-12T10:03:27Z</time>
      </trkpt>
      <trkpt lat="42.0386012737" lon="-6.9636274874">
        <ele>1177.27</ele>
        <time>2020-08-12T10:03:28Z</time>
      </trkpt>
      <trkpt lat="42.0385989267" lon="-6.9636477716">
        <ele>1177.27</ele>
        <time>2020-08-12T10:03:29Z</time>
      </trkpt>
      <trkpt lat="42.0385957416" lon="-6.9636688940">
        <ele>1177.27</ele>
        <time>2020-08-12T10:03:30Z</time>
      </trkpt>
      <trkpt lat="42.0385927241" lon="-6.9636888430">
        <ele>1177.27</ele>
        <time>2020-08-12T10:03:31Z</time>
      </trkpt>
      <trkpt lat="42.0385902934" lon="-6.9637071155">
        <ele>1177.27</ele>
        <time>2020-08-12T10:03:32Z</time>
      </trkpt>
      <trkpt lat="42.0385868568" lon="-6.9637281541">
        <ele>1177.75</ele>
        <time>2020-08-12T10:03:33Z</time>
      </trkpt>
      <trkpt lat="42.0385830011" lon="-6.9637465943">
        <ele>1177.75</ele>
        <time>2020-08-12T10:03:34Z</time>
      </trkpt>
      <trkpt lat="42.0385487191" lon="-6.9639648590">
        <ele>1178.71</ele>
        <time>2020-08-12T10:03:45Z</time>
      </trkpt>
      <trkpt lat="42.0385229867" lon="-6.9641984627">
        <ele>1179.67</ele>
        <time>2020-08-12T10:03:56Z</time>
      </trkpt>
      <trkpt lat="42.0384902135" lon="-6.9644073397">
        <ele>1181.60</ele>
        <time>2020-08-12T10:04:06Z</time>
      </trkpt>
      <trkpt lat="42.0384678338" lon="-6.9645907357">
        <ele>1183.04</ele>
        <time>2020-08-12T10:04:14Z</time>
      </trkpt>
      <trkpt lat="42.0384293608" lon="-6.9648207352">
        <ele>1184.48</ele>
        <time>2020-08-12T10:04:24Z</time>
      </trkpt>
      <trkpt lat="42.0383973420" lon="-6.9650322106">
        <ele>1185.44</ele>
        <time>2020-08-12T10:04:33Z</time>
      </trkpt>
      <trkpt lat="42.0383688435" lon="-6.9652436860">
        <ele>1186.40</ele>
        <time>2020-08-12T10:04:42Z</time>
      </trkpt>
      <trkpt lat="42.0383240003" lon="-6.9655215461">
        <ele>1187.85</ele>
        <time>2020-08-12T10:04:53Z</time>
      </trkpt>
      <trkpt lat="42.0382830128" lon="-6.9658004120">
        <ele>1189.29</ele>
        <time>2020-08-12T10:05:04Z</time>
      </trkpt>
      <trkpt lat="42.0382452942" lon="-6.9660796132">
        <ele>1190.73</ele>
        <time>2020-08-12T10:05:15Z</time>
      </trkpt>
      <trkpt lat="42.0382106770" lon="-6.9663046673">
        <ele>1191.21</ele>
        <time>2020-08-12T10:05:24Z</time>
      </trkpt>
      <trkpt lat="42.0381688513" lon="-6.9665927533">
        <ele>1192.65</ele>
        <time>2020-08-12T10:05:35Z</time>
      </trkpt>
      <trkpt lat="42.0381192304" lon="-6.9668660033">
        <ele>1193.61</ele>
        <time>2020-08-12T10:05:46Z</time>
      </trkpt>
      <trkpt lat="42.0380816795" lon="-6.9671431091">
        <ele>1194.58</ele>
        <time>2020-08-12T10:05:57Z</time>
      </trkpt>
      <trkpt lat="42.0380277000" lon="-6.9674291834">
        <ele>1195.06</ele>
        <time>2020-08-12T10:06:08Z</time>
      </trkpt>
      <trkpt lat="42.0379865449" lon="-6.9676944707">
        <ele>1195.54</ele>
        <time>2020-08-12T10:06:18Z</time>
      </trkpt>
      <trkpt lat="42.0379720442" lon="-6.9677683152">
        <ele>1195.06</ele>
        <time>2020-08-12T10:06:25Z</time>
      </trkpt>
      <trkpt lat="42.0379739720" lon="-6.9678091351">
        <ele>1196.02</ele>
        <time>2020-08-12T10:06:41Z</time>
      </trkpt>
      <trkpt lat="42.0379593875" lon="-6.9678503741">
        <ele>1196.50</ele>
        <time>2020-08-12T10:06:47Z</time>
      </trkpt>
      <trkpt lat="42.0379425399" lon="-6.9678604323">
        <ele>1194.58</ele>
        <time>2020-08-12T10:07:05Z</time>
      </trkpt>
      <trkpt lat="42.0379146282" lon="-6.9680558145">
        <ele>1196.02</ele>
        <time>2020-08-12T10:07:12Z</time>
      </trkpt>
      <trkpt lat="42.0378605649" lon="-6.9682779349">
        <ele>1196.50</ele>
        <time>2020-08-12T10:07:20Z</time>
      </trkpt>
      <trkpt lat="42.0377201680" lon="-6.9686174858">
        <ele>1198.42</ele>
        <time>2020-08-12T10:07:30Z</time>
      </trkpt>
      <trkpt lat="42.0375687070" lon="-6.9688648358">
        <ele>1199.38</ele>
        <time>2020-08-12T10:07:39Z</time>
      </trkpt>
      <trkpt lat="42.0374267176" lon="-6.9690352399">
        <ele>1200.34</ele>
        <time>2020-08-12T10:07:49Z</time>
      </trkpt>
      <trkpt lat="42.0373742469" lon="-6.9690877944">
        <ele>1201.30</ele>
        <time>2020-08-12T10:07:56Z</time>
      </trkpt>
      <trkpt lat="42.0373682119" lon="-6.9690726232">
        <ele>1201.79</ele>
        <time>2020-08-12T10:08:03Z</time>
      </trkpt>
      <trkpt lat="42.0373970456" lon="-6.9691007864">
        <ele>1203.23</ele>
        <time>2020-08-12T10:08:18Z</time>
      </trkpt>
      <trkpt lat="42.0374055114" lon="-6.9690802507">
        <ele>1204.19</ele>
        <time>2020-08-12T10:08:31Z</time>
      </trkpt>
      <trkpt lat="42.0373764262" lon="-6.9690532610">
        <ele>1203.71</ele>
        <time>2020-08-12T10:08:41Z</time>
      </trkpt>
      <trkpt lat="42.0373800304" lon="-6.9689873792">
        <ele>1203.71</ele>
        <time>2020-08-12T10:08:44Z</time>
      </trkpt>
      <trkpt lat="42.0349482726" lon="-6.9731645007">
        <ele>1216.21</ele>
        <time>2020-08-12T10:11:03Z</time>
      </trkpt>
      <trkpt lat="42.0349712390" lon="-6.9734236691">
        <ele>1213.32</ele>
        <time>2020-08-12T10:11:11Z</time>
      </trkpt>
      <trkpt lat="42.0350007433" lon="-6.9737976696">
        <ele>1212.84</ele>
        <time>2020-08-12T10:11:21Z</time>
      </trkpt>
      <trkpt lat="42.0350477658" lon="-6.9741255697">
        <ele>1213.32</ele>
        <time>2020-08-12T10:11:30Z</time>
      </trkpt>
      <trkpt lat="42.0351741649" lon="-6.9745765161">
        <ele>1213.80</ele>
        <time>2020-08-12T10:11:42Z</time>
      </trkpt>
      <trkpt lat="42.0353350136" lon="-6.9749790151">
        <ele>1214.28</ele>
        <time>2020-08-12T10:11:53Z</time>
      </trkpt>
      <trkpt lat="42.0355368499" lon="-6.9753357489">
        <ele>1214.76</ele>
        <time>2020-08-12T10:12:04Z</time>
      </trkpt>
      <trkpt lat="42.0357662626" lon="-6.9755639043">
        <ele>1216.21</ele>
        <time>2020-08-12T10:12:14Z</time>
      </trkpt>
      <trkpt lat="42.0359924063" lon="-6.9757376611">
        <ele>1218.13</ele>
        <time>2020-08-12T10:12:24Z</time>
      </trkpt>
      <trkpt lat="42.0361688454" lon="-6.9758598693">
        <ele>1219.09</ele>
        <time>2020-08-12T10:12:32Z</time>
      </trkpt>
      <trkpt lat="42.0363383275" lon="-6.9759861846">
        <ele>1219.57</ele>
        <time>2020-08-12T10:12:40Z</time>
      </trkpt>
      <trkpt lat="42.0365581848" lon="-6.9762268290">
        <ele>1220.05</ele>
        <time>2020-08-12T10:12:50Z</time>
      </trkpt>
      <trkpt lat="42.0367204584" lon="-6.9765144121">
        <ele>1220.05</ele>
        <time>2020-08-12T10:13:00Z</time>
      </trkpt>
      <trkpt lat="42.0368191972" lon="-6.9768071920">
        <ele>1220.53</ele>
        <time>2020-08-12T10:13:08Z</time>
      </trkpt>
      <trkpt lat="42.0368615258" lon="-6.9770864770">
        <ele>1219.09</ele>
        <time>2020-08-12T10:13:16Z</time>
      </trkpt>
      <trkpt lat="42.0368734282" lon="-6.9774640817">
        <ele>1218.61</ele>
        <time>2020-08-12T10:13:25Z</time>
      </trkpt>
      <trkpt lat="42.0368502103" lon="-6.9778887928">
        <ele>1217.65</ele>
        <time>2020-08-12T10:13:34Z</time>
      </trkpt>
      <trkpt lat="42.0368869230" lon="-6.9784456026">
        <ele>1216.69</ele>
        <time>2020-08-12T10:13:44Z</time>
      </trkpt>
      <trkpt lat="42.0370431617" lon="-6.9788975548">
        <ele>1217.65</ele>
        <time>2020-08-12T10:13:53Z</time>
      </trkpt>
      <trkpt lat="42.0371803734" lon="-6.9793779217">
        <ele>1218.13</ele>
        <time>2020-08-12T10:14:03Z</time>
      </trkpt>
      <trkpt lat="42.0372341853" lon="-6.9798470568">
        <ele>1217.17</ele>
        <time>2020-08-12T10:14:13Z</time>
      </trkpt>
      <trkpt lat="42.0372029208" lon="-6.9803040382">
        <ele>1216.21</ele>
        <time>2020-08-12T10:14:22Z</time>
      </trkpt>
      <trkpt lat="42.0371187665" lon="-6.9807225466">
        <ele>1216.21</ele>
        <time>2020-08-12T10:14:31Z</time>
      </trkpt>
      <trkpt lat="42.0370216202" lon="-6.9812656101">
        <ele>1215.24</ele>
        <time>2020-08-12T10:14:42Z</time>
      </trkpt>
      <trkpt lat="42.0370050240" lon="-6.9814330805">
        <ele>1214.76</ele>
        <time>2020-08-12T10:14:45Z</time>
      </trkpt>
      <trkpt lat="42.0370355342" lon="-6.9820394274">
        <ele>1214.28</ele>
        <time>2020-08-12T10:14:55Z</time>
      </trkpt>
      <trkpt lat="42.0371118933" lon="-6.9827106502">
        <ele>1213.32</ele>
        <time>2020-08-12T10:15:06Z</time>
      </trkpt>
      <trkpt lat="42.0372018311" lon="-6.9832883310">
        <ele>1212.84</ele>
        <time>2020-08-12T10:15:16Z</time>
      </trkpt>
      <trkpt lat="42.0372822136" lon="-6.9838154688">
        <ele>1212.84</ele>
        <time>2020-08-12T10:15:26Z</time>
      </trkpt>
      <trkpt lat="42.0373118855" lon="-6.9842635654">
        <ele>1212.36</ele>
        <time>2020-08-12T10:15:35Z</time>
      </trkpt>
      <trkpt lat="42.0372802857" lon="-6.9847576786">
        <ele>1210.92</ele>
        <time>2020-08-12T10:15:43Z</time>
      </trkpt>
      <trkpt lat="42.0371816307" lon="-6.9854188431">
        <ele>1208.03</ele>
        <time>2020-08-12T10:15:51Z</time>
      </trkpt>
      <trkpt lat="42.0371194370" lon="-6.9861084223">
        <ele>1204.67</ele>
        <time>2020-08-12T10:15:58Z</time>
      </trkpt>
      <trkpt lat="42.0372153260" lon="-6.9867620431">
        <ele>1202.75</ele>
        <time>2020-08-12T10:16:04Z</time>
      </trkpt>
      <trkpt lat="42.0374482591" lon="-6.9876542129">
        <ele>1200.82</ele>
        <time>2020-08-12T10:16:13Z</time>
      </trkpt>
      <trkpt lat="42.0376858860" lon="-6.9885306247">
        <ele>1198.90</ele>
        <time>2020-08-12T10:16:23Z</time>
      </trkpt>
      <trkpt lat="42.0379121974" lon="-6.9893552363">
        <ele>1196.98</ele>
        <time>2020-08-12T10:16:33Z</time>
      </trkpt>
      <trkpt lat="42.0381990261" lon="-6.9901763275">
        <ele>1194.58</ele>
        <time>2020-08-12T10:16:43Z</time>
      </trkpt>
      <trkpt lat="42.0385403372" lon="-6.9905854482">
        <ele>1192.17</ele>
        <time>2020-08-12T10:16:49Z</time>
      </trkpt>
      <trkpt lat="42.0391164254" lon="-6.9911138434">
        <ele>1188.33</ele>
        <time>2020-08-12T10:16:58Z</time>
      </trkpt>
      <trkpt lat="42.0393276494" lon="-6.9914455991">
        <ele>1186.88</ele>
        <time>2020-08-12T10:17:02Z</time>
      </trkpt>
      <trkpt lat="42.0394980535" lon="-6.9920573942">
        <ele>1184.00</ele>
        <time>2020-08-12T10:17:08Z</time>
      </trkpt>
      <trkpt lat="42.0396411326" lon="-6.9929940719">
        <ele>1179.19</ele>
        <time>2020-08-12T10:17:16Z</time>
      </trkpt>
      <trkpt lat="42.0396776777" lon="-6.9931081496">
        <ele>1178.23</ele>
        <time>2020-08-12T10:17:17Z</time>
      </trkpt>
      <trkpt lat="42.0400172286" lon="-6.9938367885">
        <ele>1174.87</ele>
        <time>2020-08-12T10:17:24Z</time>
      </trkpt>
      <trkpt lat="42.0405405108" lon="-6.9947007112">
        <ele>1169.58</ele>
        <time>2020-08-12T10:17:33Z</time>
      </trkpt>
      <trkpt lat="42.0406076498" lon="-6.9947707839">
        <ele>1169.10</ele>
        <time>2020-08-12T10:17:34Z</time>
      </trkpt>
      <trkpt lat="42.0410883520" lon="-6.9951332174">
        <ele>1166.70</ele>
        <time>2020-08-12T10:17:40Z</time>
      </trkpt>
      <trkpt lat="42.0419526100" lon="-6.9956401549">
        <ele>1161.89</ele>
        <time>2020-08-12T10:17:50Z</time>
      </trkpt>
      <trkpt lat="42.0427620504" lon="-6.9961576536">
        <ele>1156.60</ele>
        <time>2020-08-12T10:17:59Z</time>
      </trkpt>
      <trkpt lat="42.0428421814" lon="-6.9962420594">
        <ele>1156.12</ele>
        <time>2020-08-12T10:18:00Z</time>
      </trkpt>
      <trkpt lat="42.0429046266" lon="-6.9963218551">
        <ele>1155.64</ele>
        <time>2020-08-12T10:18:01Z</time>
      </trkpt>
      <trkpt lat="42.0429648925" lon="-6.9964125473">
        <ele>1154.68</ele>
        <time>2020-08-12T10:18:02Z</time>
      </trkpt>
      <trkpt lat="42.0430206321" lon="-6.9965095259">
        <ele>1154.20</ele>
        <time>2020-08-12T10:18:03Z</time>
      </trkpt>
      <trkpt lat="42.0430722646" lon="-6.9966062531">
        <ele>1153.72</ele>
        <time>2020-08-12T10:18:04Z</time>
      </trkpt>
      <trkpt lat="42.0434691478" lon="-6.9974277634">
        <ele>1149.39</ele>
        <time>2020-08-12T10:18:12Z</time>
      </trkpt>
      <trkpt lat="42.0439174958" lon="-6.9983632676">
        <ele>1144.59</ele>
        <time>2020-08-12T10:18:21Z</time>
      </trkpt>
      <trkpt lat="42.0441390295" lon="-6.9990251865">
        <ele>1140.74</ele>
        <time>2020-08-12T10:18:27Z</time>
      </trkpt>
      <trkpt lat="42.0441589784" lon="-6.9991457183">
        <ele>1139.78</ele>
        <time>2020-08-12T10:18:28Z</time>
      </trkpt>
      <trkpt lat="42.0441686176" lon="-6.9992622267">
        <ele>1139.30</ele>
        <time>2020-08-12T10:18:29Z</time>
      </trkpt>
      <trkpt lat="42.0441706292" lon="-6.9993890449">
        <ele>1138.34</ele>
        <time>2020-08-12T10:18:30Z</time>
      </trkpt>
      <trkpt lat="42.0441660192" lon="-6.9995130971">
        <ele>1137.38</ele>
        <time>2020-08-12T10:18:31Z</time>
      </trkpt>
      <trkpt lat="42.0441526081" lon="-6.9996440224">
        <ele>1136.90</ele>
        <time>2020-08-12T10:18:32Z</time>
      </trkpt>
      <trkpt lat="42.0441300608" lon="-6.9997686613">
        <ele>1135.94</ele>
        <time>2020-08-12T10:18:33Z</time>
      </trkpt>
      <trkpt lat="42.0440969523" lon="-6.9998913724">
        <ele>1135.45</ele>
        <time>2020-08-12T10:18:34Z</time>
      </trkpt>
      <trkpt lat="42.0440496784" lon="-7.0000165142">
        <ele>1134.97</ele>
        <time>2020-08-12T10:18:35Z</time>
      </trkpt>
      <trkpt lat="42.0439971238" lon="-7.0001285803">
        <ele>1134.49</ele>
        <time>2020-08-12T10:18:36Z</time>
      </trkpt>
      <trkpt lat="42.0439330861" lon="-7.0002403948">
        <ele>1133.53</ele>
        <time>2020-08-12T10:18:37Z</time>
      </trkpt>
      <trkpt lat="42.0438594092" lon="-7.0003523771">
        <ele>1133.05</ele>
        <time>2020-08-12T10:18:38Z</time>
      </trkpt>
      <trkpt lat="42.0437921863" lon="-7.0004483499">
        <ele>1132.57</ele>
        <time>2020-08-12T10:18:39Z</time>
      </trkpt>
      <trkpt lat="42.0431882702" lon="-7.0012305491">
        <ele>1126.32</ele>
        <time>2020-08-12T10:18:47Z</time>
      </trkpt>
      <trkpt lat="42.0430948120" lon="-7.0013131946">
        <ele>1125.36</ele>
        <time>2020-08-12T10:18:48Z</time>
      </trkpt>
      <trkpt lat="42.0430073049" lon="-7.0013732929">
        <ele>1124.40</ele>
        <time>2020-08-12T10:18:49Z</time>
      </trkpt>
      <trkpt lat="42.0428827498" lon="-7.0014447905">
        <ele>1123.44</ele>
        <time>2020-08-12T10:18:50Z</time>
      </trkpt>
      <trkpt lat="42.0428019483" lon="-7.0014824253">
        <ele>1122.96</ele>
        <time>2020-08-12T10:18:51Z</time>
      </trkpt>
      <trkpt lat="42.0427356474" lon="-7.0015067328">
        <ele>1122.48</ele>
        <time>2020-08-12T10:18:52Z</time>
      </trkpt>
      <trkpt lat="42.0425991062" lon="-7.0015405118">
        <ele>1122.00</ele>
        <time>2020-08-12T10:18:54Z</time>
      </trkpt>
      <trkpt lat="42.0418269653" lon="-7.0016549248">
        <ele>1117.67</ele>
        <time>2020-08-12T10:19:02Z</time>
      </trkpt>
      <trkpt lat="42.0414962154" lon="-7.0017948188">
        <ele>1115.27</ele>
        <time>2020-08-12T10:19:06Z</time>
      </trkpt>
      <trkpt lat="42.0414211135" lon="-7.0018502232">
        <ele>1114.79</ele>
        <time>2020-08-12T10:19:07Z</time>
      </trkpt>
      <trkpt lat="42.0413577463" lon="-7.0019064657">
        <ele>1114.31</ele>
        <time>2020-08-12T10:19:08Z</time>
      </trkpt>
      <trkpt lat="42.0412979834" lon="-7.0019672345">
        <ele>1113.82</ele>
        <time>2020-08-12T10:19:09Z</time>
      </trkpt>
      <trkpt lat="42.0412445068" lon="-7.0020300988">
        <ele>1113.34</ele>
        <time>2020-08-12T10:19:10Z</time>
      </trkpt>
      <trkpt lat="42.0411948860" lon="-7.0020950586">
        <ele>1113.34</ele>
        <time>2020-08-12T10:19:11Z</time>
      </trkpt>
      <trkpt lat="42.0411410742" lon="-7.0021728426">
        <ele>1112.86</ele>
        <time>2020-08-12T10:19:12Z</time>
      </trkpt>
      <trkpt lat="42.0408748649" lon="-7.0027055964">
        <ele>1109.02</ele>
        <time>2020-08-12T10:19:18Z</time>
      </trkpt>
      <trkpt lat="42.0407172013" lon="-7.0031435508">
        <ele>1106.13</ele>
        <time>2020-08-12T10:19:22Z</time>
      </trkpt>
      <trkpt lat="42.0406909660" lon="-7.0032655075">
        <ele>1105.65</ele>
        <time>2020-08-12T10:19:23Z</time>
      </trkpt>
      <trkpt lat="42.0406719390" lon="-7.0033966843">
        <ele>1105.17</ele>
        <time>2020-08-12T10:19:24Z</time>
      </trkpt>
      <trkpt lat="42.0406611264" lon="-7.0035276935">
        <ele>1104.21</ele>
        <time>2020-08-12T10:19:25Z</time>
      </trkpt>
      <trkpt lat="42.0406609587" lon="-7.0036535058">
        <ele>1103.73</ele>
        <time>2020-08-12T10:19:26Z</time>
      </trkpt>
      <trkpt lat="42.0406696759" lon="-7.0037843473">
        <ele>1103.25</ele>
        <time>2020-08-12T10:19:27Z</time>
      </trkpt>
      <trkpt lat="42.0407954883" lon="-7.0045374613">
        <ele>1099.40</ele>
        <time>2020-08-12T10:19:33Z</time>
      </trkpt>
      <trkpt lat="42.0410137530" lon="-7.0055561978">
        <ele>1093.64</ele>
        <time>2020-08-12T10:19:41Z</time>
      </trkpt>
      <trkpt lat="42.0411585923" lon="-7.0064972341">
        <ele>1088.35</ele>
        <time>2020-08-12T10:19:48Z</time>
      </trkpt>
      <trkpt lat="42.0411557425" lon="-7.0066220406">
        <ele>1087.39</ele>
        <time>2020-08-12T10:19:49Z</time>
      </trkpt>
      <trkpt lat="42.0411424991" lon="-7.0067726634">
        <ele>1086.91</ele>
        <time>2020-08-12T10:19:50Z</time>
      </trkpt>
      <trkpt lat="42.0411232207" lon="-7.0068973023">
        <ele>1085.95</ele>
        <time>2020-08-12T10:19:51Z</time>
      </trkpt>
      <trkpt lat="42.0410904475" lon="-7.0070507750">
        <ele>1084.99</ele>
        <time>2020-08-12T10:19:52Z</time>
      </trkpt>
      <trkpt lat="42.0410579257" lon="-7.0071622543">
        <ele>1084.50</ele>
        <time>2020-08-12T10:19:53Z</time>
      </trkpt>
      <trkpt lat="42.0410114899" lon="-7.0072881505">
        <ele>1084.02</ele>
        <time>2020-08-12T10:19:54Z</time>
      </trkpt>
      <trkpt lat="42.0409565046" lon="-7.0074056648">
        <ele>1083.54</ele>
        <time>2020-08-12T10:19:55Z</time>
      </trkpt>
      <trkpt lat="42.0408965740" lon="-7.0075140428">
        <ele>1083.54</ele>
        <time>2020-08-12T10:19:56Z</time>
      </trkpt>
      <trkpt lat="42.0408301055" lon="-7.0076114405">
        <ele>1083.06</ele>
        <time>2020-08-12T10:19:57Z</time>
      </trkpt>
      <trkpt lat="42.0407583565" lon="-7.0077001210">
        <ele>1083.06</ele>
        <time>2020-08-12T10:19:58Z</time>
      </trkpt>
      <trkpt lat="42.0406835061" lon="-7.0077809226">
        <ele>1082.58</ele>
        <time>2020-08-12T10:19:59Z</time>
      </trkpt>
      <trkpt lat="42.0406061411" lon="-7.0078548510">
        <ele>1082.58</ele>
        <time>2020-08-12T10:20:00Z</time>
      </trkpt>
      <trkpt lat="42.0401068311" lon="-7.0082600322">
        <ele>1081.62</ele>
        <time>2020-08-12T10:20:07Z</time>
      </trkpt>
      <trkpt lat="42.0397229400" lon="-7.0085824840">
        <ele>1080.66</ele>
        <time>2020-08-12T10:20:14Z</time>
      </trkpt>
      <trkpt lat="42.0393239614" lon="-7.0089621842">
        <ele>1079.70</ele>
        <time>2020-08-12T10:20:23Z</time>
      </trkpt>
      <trkpt lat="42.0389335323" lon="-7.0093502663">
        <ele>1078.74</ele>
        <time>2020-08-12T10:20:32Z</time>
      </trkpt>
      <trkpt lat="42.0387731865" lon="-7.0095225982">
        <ele>1077.78</ele>
        <time>2020-08-12T10:20:36Z</time>
      </trkpt>
      <trkpt lat="42.0384959131" lon="-7.0099401847">
        <ele>1076.33</ele>
        <time>2020-08-12T10:20:43Z</time>
      </trkpt>
      <trkpt lat="42.0383592881" lon="-7.0102340542">
        <ele>1074.41</ele>
        <time>2020-08-12T10:20:47Z</time>
      </trkpt>
      <trkpt lat="42.0383343939" lon="-7.0103161130">
        <ele>1073.93</ele>
        <time>2020-08-12T10:20:48Z</time>
      </trkpt>
      <trkpt lat="42.0382665005" lon="-7.0108805504">
        <ele>1071.05</ele>
        <time>2020-08-12T10:20:54Z</time>
      </trkpt>
      <trkpt lat="42.0383488107" lon="-7.0115045831">
        <ele>1068.16</ele>
        <time>2020-08-12T10:21:00Z</time>
      </trkpt>
      <trkpt lat="42.0385932270" lon="-7.0121545158">
        <ele>1065.76</ele>
        <time>2020-08-12T10:21:07Z</time>
      </trkpt>
      <trkpt lat="42.0389134996" lon="-7.0129314344">
        <ele>1064.32</ele>
        <time>2020-08-12T10:21:17Z</time>
      </trkpt>
      <trkpt lat="42.0391843189" lon="-7.0135175809">
        <ele>1063.84</ele>
        <time>2020-08-12T10:21:26Z</time>
      </trkpt>
      <trkpt lat="42.0394910965" lon="-7.0139956847">
        <ele>1061.43</ele>
        <time>2020-08-12T10:21:34Z</time>
      </trkpt>
      <trkpt lat="42.0399770793" lon="-7.0146759599">
        <ele>1060.47</ele>
        <time>2020-08-12T10:21:45Z</time>
      </trkpt>
      <trkpt lat="42.0402515866" lon="-7.0150712505">
        <ele>1058.55</ele>
        <time>2020-08-12T10:21:51Z</time>
      </trkpt>
      <trkpt lat="42.0410249848" lon="-7.0161364228">
        <ele>1055.18</ele>
        <time>2020-08-12T10:22:07Z</time>
      </trkpt>
      <trkpt lat="42.0414660405" lon="-7.0168721862">
        <ele>1052.78</ele>
        <time>2020-08-12T10:22:17Z</time>
      </trkpt>
      <trkpt lat="42.0414897613" lon="-7.0169414207">
        <ele>1052.78</ele>
        <time>2020-08-12T10:22:18Z</time>
      </trkpt>
      <trkpt lat="42.0415259711" lon="-7.0170695800">
        <ele>1052.78</ele>
        <time>2020-08-12T10:22:20Z</time>
      </trkpt>
      <trkpt lat="42.0415460877" lon="-7.0171623677">
        <ele>1052.30</ele>
        <time>2020-08-12T10:22:21Z</time>
      </trkpt>
      <trkpt lat="42.0415680483" lon="-7.0173056144">
        <ele>1051.82</ele>
        <time>2020-08-12T10:22:22Z</time>
      </trkpt>
      <trkpt lat="42.0415771846" lon="-7.0173890982">
        <ele>1051.82</ele>
        <time>2020-08-12T10:22:23Z</time>
      </trkpt>
      <trkpt lat="42.0415811241" lon="-7.0174981467">
        <ele>1051.34</ele>
        <time>2020-08-12T10:22:24Z</time>
      </trkpt>
      <trkpt lat="42.0415788610" lon="-7.0175756793">
        <ele>1051.34</ele>
        <time>2020-08-12T10:22:25Z</time>
      </trkpt>
      <trkpt lat="42.0414836425" lon="-7.0181222633">
        <ele>1049.42</ele>
        <time>2020-08-12T10:22:31Z</time>
      </trkpt>
      <trkpt lat="42.0414545573" lon="-7.0182023942">
        <ele>1048.94</ele>
        <time>2020-08-12T10:22:32Z</time>
      </trkpt>
      <trkpt lat="42.0412113983" lon="-7.0186410192">
        <ele>1047.97</ele>
        <time>2020-08-12T10:22:38Z</time>
      </trkpt>
      <trkpt lat="42.0408063009" lon="-7.0189685002">
        <ele>1046.53</ele>
        <time>2020-08-12T10:22:45Z</time>
      </trkpt>
      <trkpt lat="42.0402577892" lon="-7.0192222204">
        <ele>1045.57</ele>
        <time>2020-08-12T10:22:54Z</time>
      </trkpt>
      <trkpt lat="42.0398548711" lon="-7.0194002520">
        <ele>1047.49</ele>
        <time>2020-08-12T10:23:03Z</time>
      </trkpt>
      <trkpt lat="42.0396111254" lon="-7.0195103064">
        <ele>1048.94</ele>
        <time>2020-08-12T10:23:11Z</time>
      </trkpt>
      <trkpt lat="42.0392931998" lon="-7.0196508709">
        <ele>1050.38</ele>
        <time>2020-08-12T10:23:20Z</time>
      </trkpt>
      <trkpt lat="42.0389846619" lon="-7.0197845623">
        <ele>1051.82</ele>
        <time>2020-08-12T10:23:30Z</time>
      </trkpt>
      <trkpt lat="42.0387264155" lon="-7.0199480932">
        <ele>1051.82</ele>
        <time>2020-08-12T10:23:39Z</time>
      </trkpt>
      <trkpt lat="42.0385359786" lon="-7.0202058367">
        <ele>1052.30</ele>
        <time>2020-08-12T10:23:48Z</time>
      </trkpt>
      <trkpt lat="42.0384312887" lon="-7.0204987843">
        <ele>1054.22</ele>
        <time>2020-08-12T10:23:57Z</time>
      </trkpt>
      <trkpt lat="42.0383640658" lon="-7.0208329707">
        <ele>1054.70</ele>
        <time>2020-08-12T10:24:07Z</time>
      </trkpt>
      <trkpt lat="42.0383605454" lon="-7.0209876169">
        <ele>1054.70</ele>
        <time>2020-08-12T10:24:15Z</time>
      </trkpt>
      <trkpt lat="42.0383615512" lon="-7.0209892932">
        <ele>1053.74</ele>
        <time>2020-08-12T10:24:23Z</time>
      </trkpt>
      <trkpt lat="42.0383536723" lon="-7.0209912211">
        <ele>1054.22</ele>
        <time>2020-08-12T10:24:41Z</time>
      </trkpt>
      <trkpt lat="42.0383524150" lon="-7.0209877007">
        <ele>1055.18</ele>
        <time>2020-08-12T10:24:55Z</time>
      </trkpt>
      <trkpt lat="42.0383540075" lon="-7.0209808275">
        <ele>1054.70</ele>
        <time>2020-08-12T10:25:12Z</time>
      </trkpt>
      <trkpt lat="42.0383504033" lon="-7.0209747087">
        <ele>1054.22</ele>
        <time>2020-08-12T10:25:27Z</time>
      </trkpt>
      <trkpt lat="42.0383547619" lon="-7.0209721942">
        <ele>1051.82</ele>
        <time>2020-08-12T10:25:44Z</time>
      </trkpt>
      <trkpt lat="42.0383665804" lon="-7.0209843479">
        <ele>1050.38</ele>
        <time>2020-08-12T10:26:07Z</time>
      </trkpt>
      <trkpt lat="42.0383671671" lon="-7.0209924784">
        <ele>1048.94</ele>
        <time>2020-08-12T10:26:25Z</time>
      </trkpt>
      <trkpt lat="42.0383719448" lon="-7.0209870301">
        <ele>1050.86</ele>
        <time>2020-08-12T10:26:48Z</time>
      </trkpt>
      <trkpt lat="42.0383648202" lon="-7.0209875330">
        <ele>1051.34</ele>
        <time>2020-08-12T10:27:08Z</time>
      </trkpt>
      <trkpt lat="42.0383590367" lon="-7.0209954120">
        <ele>1051.34</ele>
        <time>2020-08-12T10:27:24Z</time>
      </trkpt>
      <trkpt lat="42.0383523311" lon="-7.0209843479">
        <ele>1053.26</ele>
        <time>2020-08-12T10:27:45Z</time>
      </trkpt>
      <trkpt lat="42.0383594558" lon="-7.0209920593">
        <ele>1054.70</ele>
        <time>2020-08-12T10:28:02Z</time>
      </trkpt>
      <trkpt lat="42.0383550134" lon="-7.0209913887">
        <ele>1054.22</ele>
        <time>2020-08-12T10:28:12Z</time>
      </trkpt>
      <trkpt lat="42.0383561030" lon="-7.0209979266">
        <ele>1054.22</ele>
        <time>2020-08-12T10:28:21Z</time>
      </trkpt>
      <trkpt lat="42.0383337233" lon="-7.0209929813">
        <ele>1054.22</ele>
        <time>2020-08-12T10:28:28Z</time>
      </trkpt>
      <trkpt lat="42.0383249223" lon="-7.0210019499">
        <ele>1054.22</ele>
        <time>2020-08-12T10:28:29Z</time>
      </trkpt>
      <trkpt lat="42.0383175462" lon="-7.0210194681">
        <ele>1054.22</ele>
        <time>2020-08-12T10:28:30Z</time>
      </trkpt>
      <trkpt lat="42.0383126847" lon="-7.0210419316">
        <ele>1054.22</ele>
        <time>2020-08-12T10:28:31Z</time>
      </trkpt>
      <trkpt lat="42.0383094996" lon="-7.0210617967">
        <ele>1054.22</ele>
        <time>2020-08-12T10:28:32Z</time>
      </trkpt>
      <trkpt lat="42.0382780675" lon="-7.0211946499">
        <ele>1054.70</ele>
        <time>2020-08-12T10:28:38Z</time>
      </trkpt>
      <trkpt lat="42.0382098388" lon="-7.0215751883">
        <ele>1054.70</ele>
        <time>2020-08-12T10:28:47Z</time>
      </trkpt>
      <trkpt lat="42.0381458849" lon="-7.0220640209">
        <ele>1054.22</ele>
        <time>2020-08-12T10:28:57Z</time>
      </trkpt>
      <trkpt lat="42.0381107647" lon="-7.0226045698">
        <ele>1051.82</ele>
        <time>2020-08-12T10:29:06Z</time>
      </trkpt>
      <trkpt lat="42.0381436218" lon="-7.0231921412">
        <ele>1050.86</ele>
        <time>2020-08-12T10:29:14Z</time>
      </trkpt>
      <trkpt lat="42.0382069889" lon="-7.0235493779">
        <ele>1051.34</ele>
        <time>2020-08-12T10:29:21Z</time>
      </trkpt>
      <trkpt lat="42.0382399298" lon="-7.0238501206">
        <ele>1052.30</ele>
        <time>2020-08-12T10:29:29Z</time>
      </trkpt>
      <trkpt lat="42.0382398460" lon="-7.0241591614">
        <ele>1053.74</ele>
        <time>2020-08-12T10:29:38Z</time>
      </trkpt>
      <trkpt lat="42.0382013731" lon="-7.0244688727">
        <ele>1055.18</ele>
        <time>2020-08-12T10:29:48Z</time>
      </trkpt>
      <trkpt lat="42.0381022152" lon="-7.0247489121">
        <ele>1057.11</ele>
        <time>2020-08-12T10:29:59Z</time>
      </trkpt>
      <trkpt lat="42.0380083378" lon="-7.0249090903">
        <ele>1058.55</ele>
        <time>2020-08-12T10:30:06Z</time>
      </trkpt>
      <trkpt lat="42.0378678571" lon="-7.0251103397">
        <ele>1059.51</ele>
        <time>2020-08-12T10:30:16Z</time>
      </trkpt>
      <trkpt lat="42.0377204195" lon="-7.0252540056">
        <ele>1059.03</ele>
        <time>2020-08-12T10:30:25Z</time>
      </trkpt>
      <trkpt lat="42.0375469979" lon="-7.0254032873">
        <ele>1059.51</ele>
        <time>2020-08-12T10:30:34Z</time>
      </trkpt>
      <trkpt lat="42.0373286493" lon="-7.0256018545">
        <ele>1059.51</ele>
        <time>2020-08-12T10:30:45Z</time>
      </trkpt>
      <trkpt lat="42.0371076185" lon="-7.0258618612">
        <ele>1060.95</ele>
        <time>2020-08-12T10:30:56Z</time>
      </trkpt>
      <trkpt lat="42.0369611867" lon="-7.0262248814">
        <ele>1060.95</ele>
        <time>2020-08-12T10:31:06Z</time>
      </trkpt>
      <trkpt lat="42.0369169302" lon="-7.0267053321">
        <ele>1060.95</ele>
        <time>2020-08-12T10:31:16Z</time>
      </trkpt>
      <trkpt lat="42.0370098855" lon="-7.0271488186">
        <ele>1059.03</ele>
        <time>2020-08-12T10:31:23Z</time>
      </trkpt>
      <trkpt lat="42.0372667909" lon="-7.0276332926">
        <ele>1055.67</ele>
        <time>2020-08-12T10:31:30Z</time>
      </trkpt>
      <trkpt lat="42.0376178250" lon="-7.0283107180">
        <ele>1051.82</ele>
        <time>2020-08-12T10:31:38Z</time>
      </trkpt>
      <trkpt lat="42.0378634147" lon="-7.0290583838">
        <ele>1047.49</ele>
        <time>2020-08-12T10:31:46Z</time>
      </trkpt>
      <trkpt lat="42.0380237605" lon="-7.0297175366">
        <ele>1044.61</ele>
        <time>2020-08-12T10:31:54Z</time>
      </trkpt>
      <trkpt lat="42.0381399337" lon="-7.0302283298">
        <ele>1043.65</ele>
        <time>2020-08-12T10:32:02Z</time>
      </trkpt>
      <trkpt lat="42.0383263472" lon="-7.0310241915">
        <ele>1041.73</ele>
        <time>2020-08-12T10:32:14Z</time>
      </trkpt>
      <trkpt lat="42.0385000203" lon="-7.0317512378">
        <ele>1040.28</ele>
        <time>2020-08-12T10:32:25Z</time>
      </trkpt>
      <trkpt lat="42.0386846736" lon="-7.0325408131">
        <ele>1038.36</ele>
        <time>2020-08-12T10:32:37Z</time>
      </trkpt>
      <trkpt lat="42.0388457738" lon="-7.0332201663">
        <ele>1037.40</ele>
        <time>2020-08-12T10:32:48Z</time>
      </trkpt>
      <trkpt lat="42.0389813092" lon="-7.0338029601">
        <ele>1037.40</ele>
        <time>2020-08-12T10:32:58Z</time>
      </trkpt>
      <trkpt lat="42.0391353685" lon="-7.0344429184">
        <ele>1038.84</ele>
        <time>2020-08-12T10:33:10Z</time>
      </trkpt>
      <trkpt lat="42.0392815489" lon="-7.0351187512">
        <ele>1039.80</ele>
        <time>2020-08-12T10:33:22Z</time>
      </trkpt>
      <trkpt lat="42.0393146574" lon="-7.0357467234">
        <ele>1039.32</ele>
        <time>2020-08-12T10:33:32Z</time>
      </trkpt>
      <trkpt lat="42.0392667130" lon="-7.0360750426">
        <ele>1038.84</ele>
        <time>2020-08-12T10:33:37Z</time>
      </trkpt>
      <trkpt lat="42.0390548185" lon="-7.0367141627">
        <ele>1037.40</ele>
        <time>2020-08-12T10:33:47Z</time>
      </trkpt>
      <trkpt lat="42.0387982484" lon="-7.0373808593">
        <ele>1035.00</ele>
        <time>2020-08-12T10:33:57Z</time>
      </trkpt>
      <trkpt lat="42.0387186203" lon="-7.0379658323">
        <ele>1033.07</ele>
        <time>2020-08-12T10:34:05Z</time>
      </trkpt>
      <trkpt lat="42.0387415867" lon="-7.0386713371">
        <ele>1030.67</ele>
        <time>2020-08-12T10:34:14Z</time>
      </trkpt>
      <trkpt lat="42.0387083106" lon="-7.0394365210">
        <ele>1027.79</ele>
        <time>2020-08-12T10:34:23Z</time>
      </trkpt>
      <trkpt lat="42.0386680774" lon="-7.0396239404">
        <ele>1027.31</ele>
        <time>2020-08-12T10:34:25Z</time>
      </trkpt>
      <trkpt lat="42.0384103339" lon="-7.0401964244">
        <ele>1023.94</ele>
        <time>2020-08-12T10:34:31Z</time>
      </trkpt>
      <trkpt lat="42.0379238483" lon="-7.0410156716">
        <ele>1021.54</ele>
        <time>2020-08-12T10:34:41Z</time>
      </trkpt>
      <trkpt lat="42.0377783384" lon="-7.0414397120">
        <ele>1021.54</ele>
        <time>2020-08-12T10:34:46Z</time>
      </trkpt>
      <trkpt lat="42.0377414580" lon="-7.0418666024">
        <ele>1021.06</ele>
        <time>2020-08-12T10:34:52Z</time>
      </trkpt>
      <trkpt lat="42.0377363451" lon="-7.0425720233">
        <ele>1019.13</ele>
        <time>2020-08-12T10:35:02Z</time>
      </trkpt>
      <trkpt lat="42.0377354231" lon="-7.0433919411">
        <ele>1017.69</ele>
        <time>2020-08-12T10:35:13Z</time>
      </trkpt>
      <trkpt lat="42.0377367642" lon="-7.0440563746">
        <ele>1017.21</ele>
        <time>2020-08-12T10:35:23Z</time>
      </trkpt>
      <trkpt lat="42.0378521830" lon="-7.0446172915">
        <ele>1015.77</ele>
        <time>2020-08-12T10:35:32Z</time>
      </trkpt>
      <trkpt lat="42.0380991139" lon="-7.0451368019">
        <ele>1013.37</ele>
        <time>2020-08-12T10:35:40Z</time>
      </trkpt>
      <trkpt lat="42.0383205637" lon="-7.0457470044">
        <ele>1010.48</ele>
        <time>2020-08-12T10:35:48Z</time>
      </trkpt>
      <trkpt lat="42.0383703522" lon="-7.0462920796">
        <ele>1008.08</ele>
        <time>2020-08-12T10:35:54Z</time>
      </trkpt>
      <trkpt lat="42.0382957533" lon="-7.0467559341">
        <ele>1007.12</ele>
        <time>2020-08-12T10:35:59Z</time>
      </trkpt>
      <trkpt lat="42.0380986948" lon="-7.0472286735">
        <ele>1007.60</ele>
        <time>2020-08-12T10:36:06Z</time>
      </trkpt>
      <trkpt lat="42.0378898177" lon="-7.0476203598">
        <ele>1008.08</ele>
        <time>2020-08-12T10:36:15Z</time>
      </trkpt>
      <trkpt lat="42.0377536118" lon="-7.0479971264">
        <ele>1008.56</ele>
        <time>2020-08-12T10:36:25Z</time>
      </trkpt>
      <trkpt lat="42.0376656856" lon="-7.0483772457">
        <ele>1008.56</ele>
        <time>2020-08-12T10:36:35Z</time>
      </trkpt>
      <trkpt lat="42.0375735685" lon="-7.0487953350">
        <ele>1009.52</ele>
        <time>2020-08-12T10:36:47Z</time>
      </trkpt>
      <trkpt lat="42.0374954492" lon="-7.0491752028">
        <ele>1010.00</ele>
        <time>2020-08-12T10:36:57Z</time>
      </trkpt>
      <trkpt lat="42.0374185871" lon="-7.0495493710">
        <ele>1010.96</ele>
        <time>2020-08-12T10:37:08Z</time>
      </trkpt>
      <trkpt lat="42.0373312477" lon="-7.0499594975">
        <ele>1012.89</ele>
        <time>2020-08-12T10:37:20Z</time>
      </trkpt>
      <trkpt lat="42.0372538827" lon="-7.0502891578">
        <ele>1014.33</ele>
        <time>2020-08-12T10:37:31Z</time>
      </trkpt>
      <trkpt lat="42.0372148231" lon="-7.0505010523">
        <ele>1014.81</ele>
        <time>2020-08-12T10:37:39Z</time>
      </trkpt>
      <trkpt lat="42.0371548086" lon="-7.0507885516">
        <ele>1015.77</ele>
        <time>2020-08-12T10:37:50Z</time>
      </trkpt>
      <trkpt lat="42.0371114742" lon="-7.0509844366">
        <ele>1016.73</ele>
        <time>2020-08-12T10:37:58Z</time>
      </trkpt>
      <trkpt lat="42.0370642003" lon="-7.0511933975">
        <ele>1016.73</ele>
        <time>2020-08-12T10:38:06Z</time>
      </trkpt>
      <trkpt lat="42.0370051917" lon="-7.0514689945">
        <ele>1017.69</ele>
        <time>2020-08-12T10:38:17Z</time>
      </trkpt>
      <trkpt lat="42.0369666349" lon="-7.0516776200">
        <ele>1019.13</ele>
        <time>2020-08-12T10:38:25Z</time>
      </trkpt>
      <trkpt lat="42.0369062852" lon="-7.0519770216">
        <ele>1019.62</ele>
        <time>2020-08-12T10:38:37Z</time>
      </trkpt>
      <trkpt lat="42.0368456002" lon="-7.0522635989">
        <ele>1020.58</ele>
        <time>2020-08-12T10:38:48Z</time>
      </trkpt>
      <trkpt lat="42.0367843285" lon="-7.0525940973">
        <ele>1021.54</ele>
        <time>2020-08-12T10:39:00Z</time>
      </trkpt>
      <trkpt lat="42.0367615297" lon="-7.0528811775">
        <ele>1022.98</ele>
        <time>2020-08-12T10:39:11Z</time>
      </trkpt>
      <trkpt lat="42.0367801376" lon="-7.0531338919">
        <ele>1023.94</ele>
        <time>2020-08-12T10:39:20Z</time>
      </trkpt>
      <trkpt lat="42.0368450135" lon="-7.0534614567">
        <ele>1025.38</ele>
        <time>2020-08-12T10:39:32Z</time>
      </trkpt>
      <trkpt lat="42.0369422436" lon="-7.0536903664">
        <ele>1025.86</ele>
        <time>2020-08-12T10:39:41Z</time>
      </trkpt>
      <trkpt lat="42.0370908547" lon="-7.0539538097">
        <ele>1026.34</ele>
        <time>2020-08-12T10:39:52Z</time>
      </trkpt>
      <trkpt lat="42.0372545533" lon="-7.0542216953">
        <ele>1026.83</ele>
        <time>2020-08-12T10:40:01Z</time>
      </trkpt>
      <trkpt lat="42.0374696329" lon="-7.0545529481">
        <ele>1027.79</ele>
        <time>2020-08-12T10:40:13Z</time>
      </trkpt>
      <trkpt lat="42.0375696290" lon="-7.0546240266">
        <ele>1027.79</ele>
        <time>2020-08-12T10:40:18Z</time>
      </trkpt>
      <trkpt lat="42.0375666115" lon="-7.0546483342">
        <ele>1027.31</ele>
        <time>2020-08-12T10:40:23Z</time>
      </trkpt>
      <trkpt lat="42.0375617500" lon="-7.0546490047">
        <ele>1028.27</ele>
        <time>2020-08-12T10:40:35Z</time>
      </trkpt>
      <trkpt lat="42.0375788491" lon="-7.0546565484">
        <ele>1027.79</ele>
        <time>2020-08-12T10:40:50Z</time>
      </trkpt>
      <trkpt lat="42.0375708025" lon="-7.0546485856">
        <ele>1027.31</ele>
        <time>2020-08-12T10:41:06Z</time>
      </trkpt>
      <trkpt lat="42.0375597384" lon="-7.0546397008">
        <ele>1027.31</ele>
        <time>2020-08-12T10:41:26Z</time>
      </trkpt>
      <trkpt lat="42.0375559665" lon="-7.0546860527">
        <ele>1027.79</ele>
        <time>2020-08-12T10:41:35Z</time>
      </trkpt>
      <trkpt lat="42.0375578944" lon="-7.0547073428">
        <ele>1027.79</ele>
        <time>2020-08-12T10:41:36Z</time>
      </trkpt>
      <trkpt lat="42.0375661924" lon="-7.0547325723">
        <ele>1028.27</ele>
        <time>2020-08-12T10:41:37Z</time>
      </trkpt>
      <trkpt lat="42.0375796873" lon="-7.0547576342">
        <ele>1028.27</ele>
        <time>2020-08-12T10:41:38Z</time>
      </trkpt>
      <trkpt lat="42.0375955291" lon="-7.0547850430">
        <ele>1028.27</ele>
        <time>2020-08-12T10:41:39Z</time>
      </trkpt>
      <trkpt lat="42.0377454814" lon="-7.0550200716">
        <ele>1028.27</ele>
        <time>2020-08-12T10:41:48Z</time>
      </trkpt>
      <trkpt lat="42.0379582979" lon="-7.0553221554">
        <ele>1028.75</ele>
        <time>2020-08-12T10:41:59Z</time>
      </trkpt>
      <trkpt lat="42.0381869562" lon="-7.0556102414">
        <ele>1028.75</ele>
        <time>2020-08-12T10:42:10Z</time>
      </trkpt>
      <trkpt lat="42.0384607930" lon="-7.0559314359">
        <ele>1027.79</ele>
        <time>2020-08-12T10:42:22Z</time>
      </trkpt>
      <trkpt lat="42.0386951510" lon="-7.0562095474">
        <ele>1027.79</ele>
        <time>2020-08-12T10:42:32Z</time>
      </trkpt>
      <trkpt lat="42.0389287546" lon="-7.0564692188">
        <ele>1028.27</ele>
        <time>2020-08-12T10:42:42Z</time>
      </trkpt>
      <trkpt lat="42.0392740890" lon="-7.0568391122">
        <ele>1028.27</ele>
        <time>2020-08-12T10:42:56Z</time>
      </trkpt>
      <trkpt lat="42.0395767596" lon="-7.0571436267">
        <ele>1027.31</ele>
        <time>2020-08-12T10:43:06Z</time>
      </trkpt>
      <trkpt lat="42.0399293862" lon="-7.0574706048">
        <ele>1027.79</ele>
        <time>2020-08-12T10:43:17Z</time>
      </trkpt>
      <trkpt lat="42.0401924942" lon="-7.0577265043">
        <ele>1028.27</ele>
        <time>2020-08-12T10:43:27Z</time>
      </trkpt>
      <trkpt lat="42.0404037181" lon="-7.0579511393">
        <ele>1028.75</ele>
        <time>2020-08-12T10:43:36Z</time>
      </trkpt>
      <trkpt lat="42.0406604558" lon="-7.0582538098">
        <ele>1029.23</ele>
        <time>2020-08-12T10:43:48Z</time>
      </trkpt>
      <trkpt lat="42.0408403315" lon="-7.0585054345">
        <ele>1029.71</ele>
        <time>2020-08-12T10:43:57Z</time>
      </trkpt>
      <trkpt lat="42.0410339534" lon="-7.0588079374">
        <ele>1029.71</ele>
        <time>2020-08-12T10:44:07Z</time>
      </trkpt>
      <trkpt lat="42.0412694011" lon="-7.0592297148">
        <ele>1030.19</ele>
        <time>2020-08-12T10:44:20Z</time>
      </trkpt>
      <trkpt lat="42.0414594188" lon="-7.0596228261">
        <ele>1031.15</ele>
        <time>2020-08-12T10:44:32Z</time>
      </trkpt>
      <trkpt lat="42.0415674616" lon="-7.0599072240">
        <ele>1032.11</ele>
        <time>2020-08-12T10:44:43Z</time>
      </trkpt>
      <trkpt lat="42.0416801982" lon="-7.0602468587">
        <ele>1033.55</ele>
        <time>2020-08-12T10:44:56Z</time>
      </trkpt>
      <trkpt lat="42.0417553838" lon="-7.0604942925">
        <ele>1034.52</ele>
        <time>2020-08-12T10:45:06Z</time>
      </trkpt>
      <trkpt lat="42.0418345928" lon="-7.0607350208">
        <ele>1035.48</ele>
        <time>2020-08-12T10:45:16Z</time>
      </trkpt>
      <trkpt lat="42.0419183280" lon="-7.0609847177">
        <ele>1035.96</ele>
        <time>2020-08-12T10:45:26Z</time>
      </trkpt>
      <trkpt lat="42.0419932622" lon="-7.0612170640">
        <ele>1036.92</ele>
        <time>2020-08-12T10:45:36Z</time>
      </trkpt>
      <trkpt lat="42.0420738123" lon="-7.0614499133">
        <ele>1038.36</ele>
        <time>2020-08-12T10:45:46Z</time>
      </trkpt>
      <trkpt lat="42.0421416219" lon="-7.0616929047">
        <ele>1039.80</ele>
        <time>2020-08-12T10:45:56Z</time>
      </trkpt>
      <trkpt lat="42.0422204118" lon="-7.0619310346">
        <ele>1040.28</ele>
        <time>2020-08-12T10:46:07Z</time>
      </trkpt>
      <trkpt lat="42.0422915742" lon="-7.0621659793">
        <ele>1041.25</ele>
        <time>2020-08-12T10:46:17Z</time>
      </trkpt>
      <trkpt lat="42.0423554443" lon="-7.0623574220">
        <ele>1041.73</ele>
        <time>2020-08-12T10:46:25Z</time>
      </trkpt>
      <trkpt lat="42.0424230862" lon="-7.0625480264">
        <ele>1043.17</ele>
        <time>2020-08-12T10:46:33Z</time>
      </trkpt>
      <trkpt lat="42.0424985234" lon="-7.0628053509">
        <ele>1044.13</ele>
        <time>2020-08-12T10:46:43Z</time>
      </trkpt>
      <trkpt lat="42.0425654110" lon="-7.0630578138">
        <ele>1045.09</ele>
        <time>2020-08-12T10:46:53Z</time>
      </trkpt>
      <trkpt lat="42.0426148642" lon="-7.0633070078">
        <ele>1045.57</ele>
        <time>2020-08-12T10:47:03Z</time>
      </trkpt>
      <trkpt lat="42.0426464640" lon="-7.0635349955">
        <ele>1046.53</ele>
        <time>2020-08-12T10:47:12Z</time>
      </trkpt>
      <trkpt lat="42.0426854398" lon="-7.0638615545">
        <ele>1047.97</ele>
        <time>2020-08-12T10:47:24Z</time>
      </trkpt>
      <trkpt lat="42.0427125134" lon="-7.0641985070">
        <ele>1049.42</ele>
        <time>2020-08-12T10:47:36Z</time>
      </trkpt>
      <trkpt lat="42.0427419338" lon="-7.0645298436">
        <ele>1050.38</ele>
        <time>2020-08-12T10:47:49Z</time>
      </trkpt>
      <trkpt lat="42.0427626371" lon="-7.0647866651">
        <ele>1050.86</ele>
        <time>2020-08-12T10:47:59Z</time>
      </trkpt>
      <trkpt lat="42.0427879505" lon="-7.0650781877">
        <ele>1051.34</ele>
        <time>2020-08-12T10:48:10Z</time>
      </trkpt>
      <trkpt lat="42.0428329613" lon="-7.0653948560">
        <ele>1052.30</ele>
        <time>2020-08-12T10:48:22Z</time>
      </trkpt>
      <trkpt lat="42.0428918023" lon="-7.0656924136">
        <ele>1053.26</ele>
        <time>2020-08-12T10:48:34Z</time>
      </trkpt>
      <trkpt lat="42.0429737773" lon="-7.0659618080">
        <ele>1053.74</ele>
        <time>2020-08-12T10:48:44Z</time>
      </trkpt>
      <trkpt lat="42.0429840032" lon="-7.0659964252">
        <ele>1054.22</ele>
        <time>2020-08-12T10:48:46Z</time>
      </trkpt>
      <trkpt lat="42.0429938100" lon="-7.0660074893">
        <ele>1054.22</ele>
        <time>2020-08-12T10:48:47Z</time>
      </trkpt>
      <trkpt lat="42.0430063829" lon="-7.0660104230">
        <ele>1054.22</ele>
        <time>2020-08-12T10:48:52Z</time>
      </trkpt>
      <trkpt lat="42.0430162735" lon="-7.0660118479">
        <ele>1052.30</ele>
        <time>2020-08-12T10:49:03Z</time>
      </trkpt>
      <trkpt lat="42.0430260804" lon="-7.0660131052">
        <ele>1052.30</ele>
        <time>2020-08-12T10:49:26Z</time>
      </trkpt>
      <trkpt lat="42.0430264995" lon="-7.0660100877">
        <ele>1051.82</ele>
        <time>2020-08-12T10:49:47Z</time>
      </trkpt>
      <trkpt lat="42.0430247393" lon="-7.0660117641">
        <ele>1051.34</ele>
        <time>2020-08-12T10:50:06Z</time>
      </trkpt>
      <trkpt lat="42.0430023596" lon="-7.0660058130">
        <ele>1051.82</ele>
        <time>2020-08-12T10:50:19Z</time>
      </trkpt>
      <trkpt lat="42.0429980848" lon="-7.0660237502">
        <ele>1052.78</ele>
        <time>2020-08-12T10:50:26Z</time>
      </trkpt>
      <trkpt lat="42.0430067182" lon="-7.0660637319">
        <ele>1052.78</ele>
        <time>2020-08-12T10:50:31Z</time>
      </trkpt>
      <trkpt lat="42.0430151001" lon="-7.0660882071">
        <ele>1052.78</ele>
        <time>2020-08-12T10:50:32Z</time>
      </trkpt>
      <trkpt lat="42.0431080554" lon="-7.0662997663">
        <ele>1053.26</ele>
        <time>2020-08-12T10:50:39Z</time>
      </trkpt>
      <trkpt lat="42.0433179382" lon="-7.0666756947">
        <ele>1052.78</ele>
        <time>2020-08-12T10:50:49Z</time>
      </trkpt>
      <trkpt lat="42.0434534736" lon="-7.0668708254">
        <ele>1052.78</ele>
        <time>2020-08-12T10:50:54Z</time>
      </trkpt>
      <trkpt lat="42.0437943656" lon="-7.0672356896">
        <ele>1051.82</ele>
        <time>2020-08-12T10:51:04Z</time>
      </trkpt>
      <trkpt lat="42.0441797655" lon="-7.0675389469">
        <ele>1050.86</ele>
        <time>2020-08-12T10:51:13Z</time>
      </trkpt>
      <trkpt lat="42.0446224138" lon="-7.0678562019">
        <ele>1050.38</ele>
        <time>2020-08-12T10:51:23Z</time>
      </trkpt>
      <trkpt lat="42.0448886231" lon="-7.0680516679">
        <ele>1050.38</ele>
        <time>2020-08-12T10:51:31Z</time>
      </trkpt>
      <trkpt lat="42.0452616177" lon="-7.0683160331">
        <ele>1050.38</ele>
        <time>2020-08-12T10:51:42Z</time>
      </trkpt>
      <trkpt lat="42.0456385519" lon="-7.0685833320">
        <ele>1050.86</ele>
        <time>2020-08-12T10:51:53Z</time>
      </trkpt>
      <trkpt lat="42.0459729899" lon="-7.0688136667">
        <ele>1050.38</ele>
        <time>2020-08-12T10:52:03Z</time>
      </trkpt>
      <trkpt lat="42.0463811886" lon="-7.0690828096">
        <ele>1049.90</ele>
        <time>2020-08-12T10:52:15Z</time>
      </trkpt>
      <trkpt lat="42.0466923248" lon="-7.0692284871">
        <ele>1050.38</ele>
        <time>2020-08-12T10:52:24Z</time>
      </trkpt>
      <trkpt lat="42.0471108332" lon="-7.0693584904">
        <ele>1049.90</ele>
        <time>2020-08-12T10:52:35Z</time>
      </trkpt>
      <trkpt lat="42.0474005118" lon="-7.0694174990">
        <ele>1049.90</ele>
        <time>2020-08-12T10:52:43Z</time>
      </trkpt>
      <trkpt lat="42.0475965645" lon="-7.0694491826">
        <ele>1051.82</ele>
        <time>2020-08-12T10:52:50Z</time>
      </trkpt>
      <trkpt lat="42.0479076169" lon="-7.0695490111">
        <ele>1053.74</ele>
        <time>2020-08-12T10:53:01Z</time>
      </trkpt>
      <trkpt lat="42.0481842197" lon="-7.0697236899">
        <ele>1055.67</ele>
        <time>2020-08-12T10:53:13Z</time>
      </trkpt>
      <trkpt lat="42.0483722258" lon="-7.0699191559">
        <ele>1056.15</ele>
        <time>2020-08-12T10:53:23Z</time>
      </trkpt>
      <trkpt lat="42.0484778378" lon="-7.0700941700">
        <ele>1056.63</ele>
        <time>2020-08-12T10:53:30Z</time>
      </trkpt>
      <trkpt lat="42.0485794265" lon="-7.0703142788">
        <ele>1057.59</ele>
        <time>2020-08-12T10:53:38Z</time>
      </trkpt>
      <trkpt lat="42.0486682747" lon="-7.0705716871">
        <ele>1058.55</ele>
        <time>2020-08-12T10:53:47Z</time>
      </trkpt>
      <trkpt lat="42.0487167221" lon="-7.0709133334">
        <ele>1059.03</ele>
        <time>2020-08-12T10:53:58Z</time>
      </trkpt>
      <trkpt lat="42.0486916602" lon="-7.0712066162">
        <ele>1060.47</ele>
        <time>2020-08-12T10:54:08Z</time>
      </trkpt>
      <trkpt lat="42.0486380998" lon="-7.0714860689">
        <ele>1061.91</ele>
        <time>2020-08-12T10:54:19Z</time>
      </trkpt>
      <trkpt lat="42.0485423785" lon="-7.0717464946">
        <ele>1063.36</ele>
        <time>2020-08-12T10:54:30Z</time>
      </trkpt>
      <trkpt lat="42.0484469086" lon="-7.0719362609">
        <ele>1064.32</ele>
        <time>2020-08-12T10:54:39Z</time>
      </trkpt>
      <trkpt lat="42.0483127981" lon="-7.0721341576">
        <ele>1064.80</ele>
        <time>2020-08-12T10:54:49Z</time>
      </trkpt>
      <trkpt lat="42.0481353533" lon="-7.0723520033">
        <ele>1065.76</ele>
        <time>2020-08-12T10:55:00Z</time>
      </trkpt>
      <trkpt lat="42.0479286555" lon="-7.0725863613">
        <ele>1066.72</ele>
        <time>2020-08-12T10:55:12Z</time>
      </trkpt>
      <trkpt lat="42.0477140788" lon="-7.0728498045">
        <ele>1065.76</ele>
        <time>2020-08-12T10:55:23Z</time>
      </trkpt>
      <trkpt lat="42.0474641304" lon="-7.0731570013">
        <ele>1064.80</ele>
        <time>2020-08-12T10:55:34Z</time>
      </trkpt>
      <trkpt lat="42.0472902060" lon="-7.0734061114">
        <ele>1065.28</ele>
        <time>2020-08-12T10:55:42Z</time>
      </trkpt>
      <trkpt lat="42.0471022837" lon="-7.0737416390">
        <ele>1064.80</ele>
        <time>2020-08-12T10:55:52Z</time>
      </trkpt>
      <trkpt lat="42.0469734538" lon="-7.0740537811">
        <ele>1065.28</ele>
        <time>2020-08-12T10:56:00Z</time>
      </trkpt>
      <trkpt lat="42.0468431152" lon="-7.0744940825">
        <ele>1065.76</ele>
        <time>2020-08-12T10:56:10Z</time>
      </trkpt>
      <trkpt lat="42.0467717014" lon="-7.0749425143">
        <ele>1065.76</ele>
        <time>2020-08-12T10:56:19Z</time>
      </trkpt>
      <trkpt lat="42.0467418619" lon="-7.0754907746">
        <ele>1064.80</ele>
        <time>2020-08-12T10:56:29Z</time>
      </trkpt>
      <trkpt lat="42.0467954222" lon="-7.0759703033">
        <ele>1063.36</ele>
        <time>2020-08-12T10:56:37Z</time>
      </trkpt>
      <trkpt lat="42.0469203964" lon="-7.0765544381">
        <ele>1060.47</ele>
        <time>2020-08-12T10:56:45Z</time>
      </trkpt>
      <trkpt lat="42.0471037924" lon="-7.0773425885">
        <ele>1058.55</ele>
        <time>2020-08-12T10:56:54Z</time>
      </trkpt>
      <trkpt lat="42.0472669881" lon="-7.0780679584">
        <ele>1058.07</ele>
        <time>2020-08-12T10:57:03Z</time>
      </trkpt>
      <trkpt lat="42.0473429281" lon="-7.0784393605">
        <ele>1059.51</ele>
        <time>2020-08-12T10:57:10Z</time>
      </trkpt>
      <trkpt lat="42.0474223886" lon="-7.0789704379">
        <ele>1060.95</ele>
        <time>2020-08-12T10:57:21Z</time>
      </trkpt>
      <trkpt lat="42.0474662259" lon="-7.0794059616">
        <ele>1062.87</ele>
        <time>2020-08-12T10:57:31Z</time>
      </trkpt>
      <trkpt lat="42.0475125778" lon="-7.0799891744">
        <ele>1063.84</ele>
        <time>2020-08-12T10:57:44Z</time>
      </trkpt>
      <trkpt lat="42.0475172717" lon="-7.0804609079">
        <ele>1063.84</ele>
        <time>2020-08-12T10:57:54Z</time>
      </trkpt>
      <trkpt lat="42.0474331174" lon="-7.0809901413">
        <ele>1065.28</ele>
        <time>2020-08-12T10:58:05Z</time>
      </trkpt>
      <trkpt lat="42.0472829975" lon="-7.0814126730">
        <ele>1065.76</ele>
        <time>2020-08-12T10:58:15Z</time>
      </trkpt>
      <trkpt lat="42.0471767150" lon="-7.0816749427">
        <ele>1066.72</ele>
        <time>2020-08-12T10:58:23Z</time>
      </trkpt>
      <trkpt lat="42.0470565185" lon="-7.0820110571">
        <ele>1067.68</ele>
        <time>2020-08-12T10:58:33Z</time>
      </trkpt>
      <trkpt lat="42.0470003597" lon="-7.0823470876">
        <ele>1068.16</ele>
        <time>2020-08-12T10:58:43Z</time>
      </trkpt>
      <trkpt lat="42.0469716098" lon="-7.0827623270">
        <ele>1070.08</ele>
        <time>2020-08-12T10:58:55Z</time>
      </trkpt>
      <trkpt lat="42.0469659101" lon="-7.0831162110">
        <ele>1071.53</ele>
        <time>2020-08-12T10:59:05Z</time>
      </trkpt>
      <trkpt lat="42.0469565224" lon="-7.0834598690">
        <ele>1072.49</ele>
        <time>2020-08-12T10:59:15Z</time>
      </trkpt>
      <trkpt lat="42.0469530020" lon="-7.0837602764">
        <ele>1073.93</ele>
        <time>2020-08-12T10:59:24Z</time>
      </trkpt>
      <trkpt lat="42.0469519123" lon="-7.0839564968">
        <ele>1074.89</ele>
        <time>2020-08-12T10:59:32Z</time>
      </trkpt>
      <trkpt lat="42.0469456259" lon="-7.0841664635">
        <ele>1075.37</ele>
        <time>2020-08-12T10:59:38Z</time>
      </trkpt>
      <trkpt lat="42.0469520800" lon="-7.0847471617">
        <ele>1075.37</ele>
        <time>2020-08-12T10:59:51Z</time>
      </trkpt>
      <trkpt lat="42.0469543431" lon="-7.0850101020">
        <ele>1075.85</ele>
        <time>2020-08-12T10:59:58Z</time>
      </trkpt>
      <trkpt lat="42.0469509065" lon="-7.0855348930">
        <ele>1075.85</ele>
        <time>2020-08-12T11:00:09Z</time>
      </trkpt>
      <trkpt lat="42.0469591208" lon="-7.0860364661">
        <ele>1075.85</ele>
        <time>2020-08-12T11:00:20Z</time>
      </trkpt>
      <trkpt lat="42.0469669160" lon="-7.0861192793">
        <ele>1075.37</ele>
        <time>2020-08-12T11:00:25Z</time>
      </trkpt>
      <trkpt lat="42.0469656587" lon="-7.0861059520">
        <ele>1075.37</ele>
        <time>2020-08-12T11:00:32Z</time>
      </trkpt>
      <trkpt lat="42.0469566062" lon="-7.0861049462">
        <ele>1073.45</ele>
        <time>2020-08-12T11:00:51Z</time>
      </trkpt>
      <trkpt lat="42.0469658263" lon="-7.0861094724">
        <ele>1073.93</ele>
        <time>2020-08-12T11:01:12Z</time>
      </trkpt>
      <trkpt lat="42.0469598752" lon="-7.0861165132">
        <ele>1075.37</ele>
        <time>2020-08-12T11:01:35Z</time>
      </trkpt>
      <trkpt lat="42.0469565224" lon="-7.0861209556">
        <ele>1074.89</ele>
        <time>2020-08-12T11:01:41Z</time>
      </trkpt>
      <trkpt lat="42.0469510742" lon="-7.0861365460">
        <ele>1075.37</ele>
        <time>2020-08-12T11:01:42Z</time>
      </trkpt>
      <trkpt lat="42.0469466317" lon="-7.0861540642">
        <ele>1075.37</ele>
        <time>2020-08-12T11:01:43Z</time>
      </trkpt>
      <trkpt lat="42.0469416864" lon="-7.0861803833">
        <ele>1075.37</ele>
        <time>2020-08-12T11:01:44Z</time>
      </trkpt>
      <trkpt lat="42.0469406806" lon="-7.0862126537">
        <ele>1075.37</ele>
        <time>2020-08-12T11:01:45Z</time>
      </trkpt>
      <trkpt lat="42.0469442848" lon="-7.0862503722">
        <ele>1075.37</ele>
        <time>2020-08-12T11:01:46Z</time>
      </trkpt>
      <trkpt lat="42.0469482243" lon="-7.0862854924">
        <ele>1075.37</ele>
        <time>2020-08-12T11:01:47Z</time>
      </trkpt>
      <trkpt lat="42.0469605457" lon="-7.0866812859">
        <ele>1075.85</ele>
        <time>2020-08-12T11:01:56Z</time>
      </trkpt>
      <trkpt lat="42.0470564347" lon="-7.0871854573">
        <ele>1076.33</ele>
        <time>2020-08-12T11:02:07Z</time>
      </trkpt>
      <trkpt lat="42.0472146850" lon="-7.0876814984">
        <ele>1077.29</ele>
        <time>2020-08-12T11:02:18Z</time>
      </trkpt>
      <trkpt lat="42.0474351291" lon="-7.0882192813">
        <ele>1077.29</ele>
        <time>2020-08-12T11:02:29Z</time>
      </trkpt>
      <trkpt lat="42.0477425773" lon="-7.0888375305">
        <ele>1076.33</ele>
        <time>2020-08-12T11:02:40Z</time>
      </trkpt>
      <trkpt lat="42.0480141509" lon="-7.0892355870">
        <ele>1076.33</ele>
        <time>2020-08-12T11:02:49Z</time>
      </trkpt>
      <trkpt lat="42.0483637601" lon="-7.0896328893">
        <ele>1075.37</ele>
        <time>2020-08-12T11:02:58Z</time>
      </trkpt>
      <trkpt lat="42.0488689374" lon="-7.0901450235">
        <ele>1074.41</ele>
        <time>2020-08-12T11:03:09Z</time>
      </trkpt>
      <trkpt lat="42.0494168624" lon="-7.0907291584">
        <ele>1072.01</ele>
        <time>2020-08-12T11:03:21Z</time>
      </trkpt>
      <trkpt lat="42.0498063695" lon="-7.0912726410">
        <ele>1070.08</ele>
        <time>2020-08-12T11:03:31Z</time>
      </trkpt>
      <trkpt lat="42.0501774363" lon="-7.0919427741">
        <ele>1067.68</ele>
        <time>2020-08-12T11:03:41Z</time>
      </trkpt>
      <trkpt lat="42.0504890755" lon="-7.0926906914">
        <ele>1065.76</ele>
        <time>2020-08-12T11:03:51Z</time>
      </trkpt>
      <trkpt lat="42.0506176539" lon="-7.0930899214">
        <ele>1066.24</ele>
        <time>2020-08-12T11:03:58Z</time>
      </trkpt>
      <trkpt lat="42.0507745631" lon="-7.0937234256">
        <ele>1067.68</ele>
        <time>2020-08-12T11:04:10Z</time>
      </trkpt>
      <trkpt lat="42.0508961845" lon="-7.0942873601">
        <ele>1068.64</ele>
        <time>2020-08-12T11:04:21Z</time>
      </trkpt>
      <trkpt lat="42.0509900618" lon="-7.0947468560">
        <ele>1070.08</ele>
        <time>2020-08-12T11:04:30Z</time>
      </trkpt>
      <trkpt lat="42.0510974340" lon="-7.0952673722">
        <ele>1071.53</ele>
        <time>2020-08-12T11:04:41Z</time>
      </trkpt>
      <trkpt lat="42.0511970110" lon="-7.0957031474">
        <ele>1072.01</ele>
        <time>2020-08-12T11:04:51Z</time>
      </trkpt>
      <trkpt lat="42.0512998570" lon="-7.0961440355">
        <ele>1072.97</ele>
        <time>2020-08-12T11:05:00Z</time>
      </trkpt>
      <trkpt lat="42.0514657348" lon="-7.0967426710">
        <ele>1073.93</ele>
        <time>2020-08-12T11:05:12Z</time>
      </trkpt>
      <trkpt lat="42.0516606141" lon="-7.0973958727">
        <ele>1073.45</ele>
        <time>2020-08-12T11:05:24Z</time>
      </trkpt>
      <trkpt lat="42.0518445130" lon="-7.0979675185">
        <ele>1072.01</ele>
        <time>2020-08-12T11:05:33Z</time>
      </trkpt>
      <trkpt lat="42.0520548988" lon="-7.0986200497">
        <ele>1072.01</ele>
        <time>2020-08-12T11:05:44Z</time>
      </trkpt>
      <trkpt lat="42.0522418991" lon="-7.0992050227">
        <ele>1073.45</ele>
        <time>2020-08-12T11:05:55Z</time>
      </trkpt>
      <trkpt lat="42.0523884986" lon="-7.0996852219">
        <ele>1074.89</ele>
        <time>2020-08-12T11:06:05Z</time>
      </trkpt>
      <trkpt lat="42.0524897519" lon="-7.0999759901">
        <ele>1074.89</ele>
        <time>2020-08-12T11:06:13Z</time>
      </trkpt>
      <trkpt lat="42.0526062604" lon="-7.1002520900">
        <ele>1074.89</ele>
        <time>2020-08-12T11:06:20Z</time>
      </trkpt>
      <trkpt lat="42.0528531075" lon="-7.1007580217">
        <ele>1073.45</ele>
        <time>2020-08-12T11:06:30Z</time>
      </trkpt>
      <trkpt lat="42.0530334022" lon="-7.1012899373">
        <ele>1072.49</ele>
        <time>2020-08-12T11:06:39Z</time>
      </trkpt>
      <trkpt lat="42.0531918202" lon="-7.1019330807">
        <ele>1073.45</ele>
        <time>2020-08-12T11:06:51Z</time>
      </trkpt>
      <trkpt lat="42.0532894693" lon="-7.1023539361">
        <ele>1074.89</ele>
        <time>2020-08-12T11:07:01Z</time>
      </trkpt>
      <trkpt lat="42.0533746295" lon="-7.1027189679">
        <ele>1076.33</ele>
        <time>2020-08-12T11:07:11Z</time>
      </trkpt>
      <trkpt lat="42.0534578618" lon="-7.1030615363">
        <ele>1076.81</ele>
        <time>2020-08-12T11:07:21Z</time>
      </trkpt>
      <trkpt lat="42.0535543375" lon="-7.1034409013">
        <ele>1076.81</ele>
        <time>2020-08-12T11:07:31Z</time>
      </trkpt>
      <trkpt lat="42.0536504779" lon="-7.1038273908">
        <ele>1076.81</ele>
        <time>2020-08-12T11:07:41Z</time>
      </trkpt>
      <trkpt lat="42.0537515637" lon="-7.1042523533">
        <ele>1077.29</ele>
        <time>2020-08-12T11:07:52Z</time>
      </trkpt>
      <trkpt lat="42.0538509730" lon="-7.1046537627">
        <ele>1077.29</ele>
        <time>2020-08-12T11:08:02Z</time>
      </trkpt>
      <trkpt lat="42.0539440122" lon="-7.1050502267">
        <ele>1077.78</ele>
        <time>2020-08-12T11:08:12Z</time>
      </trkpt>
      <trkpt lat="42.0540415775" lon="-7.1054656338">
        <ele>1078.26</ele>
        <time>2020-08-12T11:08:23Z</time>
      </trkpt>
      <trkpt lat="42.0541615225" lon="-7.1059408039">
        <ele>1079.22</ele>
        <time>2020-08-12T11:08:36Z</time>
      </trkpt>
      <trkpt lat="42.0542456768" lon="-7.1062862221">
        <ele>1080.18</ele>
        <time>2020-08-12T11:08:46Z</time>
      </trkpt>
      <trkpt lat="42.0543478522" lon="-7.1067047305">
        <ele>1081.62</ele>
        <time>2020-08-12T11:08:58Z</time>
      </trkpt>
      <trkpt lat="42.0544415619" lon="-7.1071035415">
        <ele>1082.10</ele>
        <time>2020-08-12T11:09:10Z</time>
      </trkpt>
      <trkpt lat="42.0545425639" lon="-7.1075012628">
        <ele>1082.58</ele>
        <time>2020-08-12T11:09:22Z</time>
      </trkpt>
      <trkpt lat="42.0546258800" lon="-7.1078511234">
        <ele>1083.54</ele>
        <time>2020-08-12T11:09:33Z</time>
      </trkpt>
      <trkpt lat="42.0547044184" lon="-7.1081476752">
        <ele>1084.50</ele>
        <time>2020-08-12T11:09:43Z</time>
      </trkpt>
      <trkpt lat="42.0547914226" lon="-7.1084838733">
        <ele>1085.47</ele>
        <time>2020-08-12T11:09:54Z</time>
      </trkpt>
      <trkpt lat="42.0548785944" lon="-7.1087774076">
        <ele>1086.43</ele>
        <time>2020-08-12T11:10:04Z</time>
      </trkpt>
      <trkpt lat="42.0548902452" lon="-7.1088274475">
        <ele>1086.43</ele>
        <time>2020-08-12T11:10:06Z</time>
      </trkpt>
      <trkpt lat="42.0548909158" lon="-7.1088453010">
        <ele>1086.43</ele>
        <time>2020-08-12T11:10:07Z</time>
      </trkpt>
      <trkpt lat="42.0548968669" lon="-7.1088725422">
        <ele>1086.43</ele>
        <time>2020-08-12T11:10:13Z</time>
      </trkpt>
      <trkpt lat="42.0549125411" lon="-7.1088863723">
        <ele>1086.91</ele>
        <time>2020-08-12T11:10:21Z</time>
      </trkpt>
      <trkpt lat="42.0549110323" lon="-7.1088779066">
        <ele>1087.39</ele>
        <time>2020-08-12T11:10:41Z</time>
      </trkpt>
      <trkpt lat="42.0549131278" lon="-7.1088891383">
        <ele>1088.35</ele>
        <time>2020-08-12T11:11:00Z</time>
      </trkpt>
      <trkpt lat="42.0549168158" lon="-7.1089004539">
        <ele>1086.91</ele>
        <time>2020-08-12T11:11:09Z</time>
      </trkpt>
      <trkpt lat="42.0549189951" lon="-7.1088971850">
        <ele>1086.43</ele>
        <time>2020-08-12T11:11:27Z</time>
      </trkpt>
      <trkpt lat="42.0549386088" lon="-7.1089960076">
        <ele>1086.43</ele>
        <time>2020-08-12T11:11:34Z</time>
      </trkpt>
      <trkpt lat="42.0550266188" lon="-7.1093558427">
        <ele>1085.47</ele>
        <time>2020-08-12T11:11:42Z</time>
      </trkpt>
      <trkpt lat="42.0551726315" lon="-7.1099146642">
        <ele>1084.02</ele>
        <time>2020-08-12T11:11:51Z</time>
      </trkpt>
      <trkpt lat="42.0553841908" lon="-7.1106946841">
        <ele>1081.62</ele>
        <time>2020-08-12T11:12:02Z</time>
      </trkpt>
      <trkpt lat="42.0555276051" lon="-7.1112083271">
        <ele>1080.66</ele>
        <time>2020-08-12T11:12:10Z</time>
      </trkpt>
      <trkpt lat="42.0556754619" lon="-7.1117549948">
        <ele>1080.66</ele>
        <time>2020-08-12T11:12:20Z</time>
      </trkpt>
      <trkpt lat="42.0558338799" lon="-7.1124164108">
        <ele>1080.66</ele>
        <time>2020-08-12T11:12:31Z</time>
      </trkpt>
      <trkpt lat="42.0558509789" lon="-7.1125516109">
        <ele>1080.18</ele>
        <time>2020-08-12T11:12:33Z</time>
      </trkpt>
      <trkpt lat="42.0558545832" lon="-7.1126216836">
        <ele>1080.18</ele>
        <time>2020-08-12T11:12:34Z</time>
      </trkpt>
      <trkpt lat="42.0558340475" lon="-7.1132742148">
        <ele>1077.78</ele>
        <time>2020-08-12T11:12:42Z</time>
      </trkpt>
      <trkpt lat="42.0558413398" lon="-7.1140522230">
        <ele>1074.89</ele>
        <time>2020-08-12T11:12:50Z</time>
      </trkpt>
      <trkpt lat="42.0558893681" lon="-7.1142681409">
        <ele>1074.41</ele>
        <time>2020-08-12T11:12:52Z</time>
      </trkpt>
      <trkpt lat="42.0559229795" lon="-7.1143682208">
        <ele>1073.93</ele>
        <time>2020-08-12T11:12:53Z</time>
      </trkpt>
      <trkpt lat="42.0559602790" lon="-7.1144562308">
        <ele>1073.93</ele>
        <time>2020-08-12T11:12:54Z</time>
      </trkpt>
      <trkpt lat="42.0562771149" lon="-7.1149866376">
        <ele>1072.97</ele>
        <time>2020-08-12T11:13:01Z</time>
      </trkpt>
      <trkpt lat="42.0568033308" lon="-7.1157796495">
        <ele>1067.68</ele>
        <time>2020-08-12T11:13:11Z</time>
      </trkpt>
      <trkpt lat="42.0570066758" lon="-7.1160889417">
        <ele>1066.24</ele>
        <time>2020-08-12T11:13:16Z</time>
      </trkpt>
      <trkpt lat="42.0571017265" lon="-7.1162274107">
        <ele>1065.28</ele>
        <time>2020-08-12T11:13:21Z</time>
      </trkpt>
      <trkpt lat="42.0570881478" lon="-7.1162127424">
        <ele>1065.76</ele>
        <time>2020-08-12T11:13:40Z</time>
      </trkpt>
      <trkpt lat="42.0570894051" lon="-7.1162159275">
        <ele>1064.32</ele>
        <time>2020-08-12T11:14:05Z</time>
      </trkpt>
      <trkpt lat="42.0570890699" lon="-7.1162120719">
        <ele>1064.80</ele>
        <time>2020-08-12T11:14:33Z</time>
      </trkpt>
      <trkpt lat="42.0570911653" lon="-7.1162352059">
        <ele>1064.80</ele>
        <time>2020-08-12T11:14:53Z</time>
      </trkpt>
      <trkpt lat="42.0572114456" lon="-7.1164108906">
        <ele>1064.32</ele>
        <time>2020-08-12T11:14:59Z</time>
      </trkpt>
      <trkpt lat="42.0574473124" lon="-7.1167651936">
        <ele>1062.39</ele>
        <time>2020-08-12T11:15:07Z</time>
      </trkpt>
      <trkpt lat="42.0577442832" lon="-7.1171620768">
        <ele>1060.47</ele>
        <time>2020-08-12T11:15:14Z</time>
      </trkpt>
      <trkpt lat="42.0577998552" lon="-7.1172122844">
        <ele>1059.99</ele>
        <time>2020-08-12T11:15:15Z</time>
      </trkpt>
      <trkpt lat="42.0578603726" lon="-7.1172549482">
        <ele>1059.99</ele>
        <time>2020-08-12T11:15:16Z</time>
      </trkpt>
      <trkpt lat="42.0583999995" lon="-7.1176268533">
        <ele>1056.63</ele>
        <time>2020-08-12T11:15:24Z</time>
      </trkpt>
      <trkpt lat="42.0590118784" lon="-7.1181425080">
        <ele>1053.26</ele>
        <time>2020-08-12T11:15:33Z</time>
      </trkpt>
      <trkpt lat="42.0594862942" lon="-7.1188055165">
        <ele>1048.94</ele>
        <time>2020-08-12T11:15:42Z</time>
      </trkpt>
      <trkpt lat="42.0598330535" lon="-7.1193597279">
        <ele>1045.57</ele>
        <time>2020-08-12T11:15:50Z</time>
      </trkpt>
      <trkpt lat="42.0600381587" lon="-7.1198872011">
        <ele>1043.17</ele>
        <time>2020-08-12T11:15:56Z</time>
      </trkpt>
      <trkpt lat="42.0600714348" lon="-7.1200860199">
        <ele>1042.21</ele>
        <time>2020-08-12T11:15:58Z</time>
      </trkpt>
      <trkpt lat="42.0600799844" lon="-7.1201935597">
        <ele>1041.73</ele>
        <time>2020-08-12T11:15:59Z</time>
      </trkpt>
      <trkpt lat="42.0600828342" lon="-7.1202944778">
        <ele>1041.25</ele>
        <time>2020-08-12T11:16:00Z</time>
      </trkpt>
      <trkpt lat="42.0600363147" lon="-7.1208574064">
        <ele>1038.84</ele>
        <time>2020-08-12T11:16:06Z</time>
      </trkpt>
      <trkpt lat="42.0599405933" lon="-7.1215018909">
        <ele>1035.96</ele>
        <time>2020-08-12T11:16:14Z</time>
      </trkpt>
      <trkpt lat="42.0598126855" lon="-7.1223800629">
        <ele>1031.63</ele>
        <time>2020-08-12T11:16:23Z</time>
      </trkpt>
      <trkpt lat="42.0596273616" lon="-7.1233708877">
        <ele>1026.83</ele>
        <time>2020-08-12T11:16:32Z</time>
      </trkpt>
      <trkpt lat="42.0594073366" lon="-7.1242705174">
        <ele>1022.50</ele>
        <time>2020-08-12T11:16:41Z</time>
      </trkpt>
      <trkpt lat="42.0591696259" lon="-7.1251859888">
        <ele>1017.69</ele>
        <time>2020-08-12T11:16:51Z</time>
      </trkpt>
      <trkpt lat="42.0588969626" lon="-7.1258251928">
        <ele>1013.85</ele>
        <time>2020-08-12T11:16:58Z</time>
      </trkpt>
      <trkpt lat="42.0584809687" lon="-7.1264933981">
        <ele>1010.00</ele>
        <time>2020-08-12T11:17:06Z</time>
      </trkpt>
      <trkpt lat="42.0581102371" lon="-7.1271978132">
        <ele>1006.16</ele>
        <time>2020-08-12T11:17:14Z</time>
      </trkpt>
      <trkpt lat="42.0580844209" lon="-7.1272915229">
        <ele>1005.68</ele>
        <time>2020-08-12T11:17:15Z</time>
      </trkpt>
      <trkpt lat="42.0580635499" lon="-7.1273949556">
        <ele>1005.20</ele>
        <time>2020-08-12T11:17:16Z</time>
      </trkpt>
      <trkpt lat="42.0580485463" lon="-7.1275078598">
        <ele>1004.72</ele>
        <time>2020-08-12T11:17:17Z</time>
      </trkpt>
      <trkpt lat="42.0580399130" lon="-7.1276174951">
        <ele>1003.75</ele>
        <time>2020-08-12T11:17:18Z</time>
      </trkpt>
      <trkpt lat="42.0580373984" lon="-7.1277218498">
        <ele>1003.27</ele>
        <time>2020-08-12T11:17:19Z</time>
      </trkpt>
      <trkpt lat="42.0580410026" lon="-7.1278218459">
        <ele>1002.79</ele>
        <time>2020-08-12T11:17:20Z</time>
      </trkpt>
      <trkpt lat="42.0580506418" lon="-7.1279282961">
        <ele>1002.31</ele>
        <time>2020-08-12T11:17:21Z</time>
      </trkpt>
      <trkpt lat="42.0580666512" lon="-7.1280345786">
        <ele>1001.83</ele>
        <time>2020-08-12T11:17:22Z</time>
      </trkpt>
      <trkpt lat="42.0580915455" lon="-7.1281457227">
        <ele>1000.87</ele>
        <time>2020-08-12T11:17:23Z</time>
      </trkpt>
      <trkpt lat="42.0581205469" lon="-7.1282431204">
        <ele>1000.39</ele>
        <time>2020-08-12T11:17:24Z</time>
      </trkpt>
      <trkpt lat="42.0581581816" lon="-7.1283470560">
        <ele>999.91</ele>
        <time>2020-08-12T11:17:25Z</time>
      </trkpt>
      <trkpt lat="42.0581970736" lon="-7.1284375805">
        <ele>998.95</ele>
        <time>2020-08-12T11:17:26Z</time>
      </trkpt>
      <trkpt lat="42.0582456887" lon="-7.1285313740">
        <ele>998.47</ele>
        <time>2020-08-12T11:17:27Z</time>
      </trkpt>
      <trkpt lat="42.0582963992" lon="-7.1286122594">
        <ele>997.51</ele>
        <time>2020-08-12T11:17:28Z</time>
      </trkpt>
      <trkpt lat="42.0583543181" lon="-7.1286950726">
        <ele>997.02</ele>
        <time>2020-08-12T11:17:29Z</time>
      </trkpt>
      <trkpt lat="42.0588737447" lon="-7.1293104719">
        <ele>991.74</ele>
        <time>2020-08-12T11:17:37Z</time>
      </trkpt>
      <trkpt lat="42.0593870524" lon="-7.1299014799">
        <ele>985.97</ele>
        <time>2020-08-12T11:17:45Z</time>
      </trkpt>
      <trkpt lat="42.0597563591" lon="-7.1304649953">
        <ele>981.64</ele>
        <time>2020-08-12T11:17:52Z</time>
      </trkpt>
      <trkpt lat="42.0599250868" lon="-7.1310535725">
        <ele>978.76</ele>
        <time>2020-08-12T11:17:58Z</time>
      </trkpt>
      <trkpt lat="42.0601517335" lon="-7.1321409568">
        <ele>976.36</ele>
        <time>2020-08-12T11:18:08Z</time>
      </trkpt>
      <trkpt lat="42.0602851734" lon="-7.1327567752">
        <ele>976.84</ele>
        <time>2020-08-12T11:18:15Z</time>
      </trkpt>
      <trkpt lat="42.0603409130" lon="-7.1330161951">
        <ele>977.80</ele>
        <time>2020-08-12T11:18:20Z</time>
      </trkpt>
      <trkpt lat="42.0603973232" lon="-7.1332772914">
        <ele>980.20</ele>
        <time>2020-08-12T11:18:29Z</time>
      </trkpt>
      <trkpt lat="42.0604632050" lon="-7.1336006653">
        <ele>982.60</ele>
        <time>2020-08-12T11:18:40Z</time>
      </trkpt>
      <trkpt lat="42.0605298411" lon="-7.1338765975">
        <ele>984.53</ele>
        <time>2020-08-12T11:18:49Z</time>
      </trkpt>
      <trkpt lat="42.0605720021" lon="-7.1340917610">
        <ele>985.97</ele>
        <time>2020-08-12T11:18:57Z</time>
      </trkpt>
      <trkpt lat="42.0606326871" lon="-7.1343702078">
        <ele>987.89</ele>
        <time>2020-08-12T11:19:06Z</time>
      </trkpt>
      <trkpt lat="42.0606877562" lon="-7.1346541028">
        <ele>988.85</ele>
        <time>2020-08-12T11:19:15Z</time>
      </trkpt>
      <trkpt lat="42.0607398916" lon="-7.1348779835">
        <ele>989.81</ele>
        <time>2020-08-12T11:19:23Z</time>
      </trkpt>
      <trkpt lat="42.0607852377" lon="-7.1351026185">
        <ele>989.81</ele>
        <time>2020-08-12T11:19:30Z</time>
      </trkpt>
      <trkpt lat="42.0608289074" lon="-7.1355471946">
        <ele>988.37</ele>
        <time>2020-08-12T11:19:39Z</time>
      </trkpt>
      <trkpt lat="42.0608907659" lon="-7.1361164097">
        <ele>986.93</ele>
        <time>2020-08-12T11:19:48Z</time>
      </trkpt>
      <trkpt lat="42.0609747525" lon="-7.1367582120">
        <ele>985.49</ele>
        <time>2020-08-12T11:19:57Z</time>
      </trkpt>
      <trkpt lat="42.0610104594" lon="-7.1371267643">
        <ele>985.01</ele>
        <time>2020-08-12T11:20:04Z</time>
      </trkpt>
      <trkpt lat="42.0610131416" lon="-7.1374560054">
        <ele>985.01</ele>
        <time>2020-08-12T11:20:13Z</time>
      </trkpt>
      <trkpt lat="42.0610199310" lon="-7.1375136729">
        <ele>985.49</ele>
        <time>2020-08-12T11:20:19Z</time>
      </trkpt>
      <trkpt lat="42.0610151533" lon="-7.1375104878">
        <ele>986.45</ele>
        <time>2020-08-12T11:20:32Z</time>
      </trkpt>
      <trkpt lat="42.0610243734" lon="-7.1374960709">
        <ele>985.49</ele>
        <time>2020-08-12T11:20:48Z</time>
      </trkpt>
      <trkpt lat="42.0610304084" lon="-7.1374940593">
        <ele>985.49</ele>
        <time>2020-08-12T11:21:02Z</time>
      </trkpt>
      <trkpt lat="42.0610227808" lon="-7.1374840848">
        <ele>987.41</ele>
        <time>2020-08-12T11:21:18Z</time>
      </trkpt>
      <trkpt lat="42.0610182546" lon="-7.1374792233">
        <ele>987.89</ele>
        <time>2020-08-12T11:21:40Z</time>
      </trkpt>
      <trkpt lat="42.0610168297" lon="-7.1374727692">
        <ele>987.89</ele>
        <time>2020-08-12T11:22:01Z</time>
      </trkpt>
      <trkpt lat="42.0610175002" lon="-7.1374643035">
        <ele>988.37</ele>
        <time>2020-08-12T11:22:14Z</time>
      </trkpt>
      <trkpt lat="42.0610162430" lon="-7.1374599449">
        <ele>989.81</ele>
        <time>2020-08-12T11:22:31Z</time>
      </trkpt>
      <trkpt lat="42.0610164106" lon="-7.1374631301">
        <ele>990.30</ele>
        <time>2020-08-12T11:22:48Z</time>
      </trkpt>
      <trkpt lat="42.0610205177" lon="-7.1374698356">
        <ele>990.78</ele>
        <time>2020-08-12T11:22:58Z</time>
      </trkpt>
      <trkpt lat="42.0610218588" lon="-7.1374705900">
        <ele>990.78</ele>
        <time>2020-08-12T11:23:12Z</time>
      </trkpt>
      <trkpt lat="42.0610247925" lon="-7.1374740265">
        <ele>989.81</ele>
        <time>2020-08-12T11:23:24Z</time>
      </trkpt>
      <trkpt lat="42.0610216074" lon="-7.1374714281">
        <ele>989.33</ele>
        <time>2020-08-12T11:23:40Z</time>
      </trkpt>
      <trkpt lat="42.0610263851" lon="-7.1374763735">
        <ele>989.33</ele>
        <time>2020-08-12T11:24:01Z</time>
      </trkpt>
      <trkpt lat="42.0610337611" lon="-7.1374831628">
        <ele>987.89</ele>
        <time>2020-08-12T11:24:16Z</time>
      </trkpt>
      <trkpt lat="42.0610423945" lon="-7.1374938078">
        <ele>985.97</ele>
        <time>2020-08-12T11:24:33Z</time>
      </trkpt>
      <trkpt lat="42.0610369463" lon="-7.1374912933">
        <ele>986.45</ele>
        <time>2020-08-12T11:24:53Z</time>
      </trkpt>
      <trkpt lat="42.0610328391" lon="-7.1374860127">
        <ele>985.97</ele>
        <time>2020-08-12T11:25:10Z</time>
      </trkpt>
      <trkpt lat="42.0610366948" lon="-7.1374864317">
        <ele>985.01</ele>
        <time>2020-08-12T11:25:25Z</time>
      </trkpt>
      <trkpt lat="42.0610431489" lon="-7.1374874376">
        <ele>985.01</ele>
        <time>2020-08-12T11:25:38Z</time>
      </trkpt>
      <trkpt lat="42.0610386226" lon="-7.1374975797">
        <ele>984.53</ele>
        <time>2020-08-12T11:25:49Z</time>
      </trkpt>
      <trkpt lat="42.0610336773" lon="-7.1374983341">
        <ele>985.01</ele>
        <time>2020-08-12T11:26:06Z</time>
      </trkpt>
      <trkpt lat="42.0610307436" lon="-7.1374934725">
        <ele>985.49</ele>
        <time>2020-08-12T11:26:26Z</time>
      </trkpt>
      <trkpt lat="42.0610351861" lon="-7.1374958195">
        <ele>983.57</ele>
        <time>2020-08-12T11:26:36Z</time>
      </trkpt>
      <trkpt lat="42.0610311627" lon="-7.1375059616">
        <ele>983.57</ele>
        <time>2020-08-12T11:26:46Z</time>
      </trkpt>
      <trkpt lat="42.0610220265" lon="-7.1375227254">
        <ele>983.57</ele>
        <time>2020-08-12T11:26:55Z</time>
      </trkpt>
      <trkpt lat="42.0610158239" lon="-7.1375372261">
        <ele>983.57</ele>
        <time>2020-08-12T11:26:56Z</time>
      </trkpt>
      <trkpt lat="42.0610084478" lon="-7.1375584323">
        <ele>983.57</ele>
        <time>2020-08-12T11:26:57Z</time>
      </trkpt>
      <trkpt lat="42.0610040892" lon="-7.1375880204">
        <ele>983.57</ele>
        <time>2020-08-12T11:26:58Z</time>
      </trkpt>
      <trkpt lat="42.0610025804" lon="-7.1376188658">
        <ele>984.05</ele>
        <time>2020-08-12T11:26:59Z</time>
      </trkpt>
      <trkpt lat="42.0610014908" lon="-7.1376560815">
        <ele>984.05</ele>
        <time>2020-08-12T11:27:00Z</time>
      </trkpt>
      <trkpt lat="42.0609759260" lon="-7.1381128952">
        <ele>985.49</ele>
        <time>2020-08-12T11:27:12Z</time>
      </trkpt>
      <trkpt lat="42.0609272271" lon="-7.1384271327">
        <ele>987.41</ele>
        <time>2020-08-12T11:27:21Z</time>
      </trkpt>
      <trkpt lat="42.0608408097" lon="-7.1387691144">
        <ele>988.85</ele>
        <time>2020-08-12T11:27:31Z</time>
      </trkpt>
      <trkpt lat="42.0607822202" lon="-7.1390236728">
        <ele>989.33</ele>
        <time>2020-08-12T11:27:38Z</time>
      </trkpt>
      <trkpt lat="42.0607295819" lon="-7.1394374035">
        <ele>988.85</ele>
        <time>2020-08-12T11:27:47Z</time>
      </trkpt>
      <trkpt lat="42.0607284922" lon="-7.1400056966">
        <ele>987.41</ele>
        <time>2020-08-12T11:27:57Z</time>
      </trkpt>
      <trkpt lat="42.0606637001" lon="-7.1406502649">
        <ele>985.01</ele>
        <time>2020-08-12T11:28:07Z</time>
      </trkpt>
      <trkpt lat="42.0606523845" lon="-7.1407790110">
        <ele>984.53</ele>
        <time>2020-08-12T11:28:09Z</time>
      </trkpt>
      <trkpt lat="42.0606495347" lon="-7.1408467367">
        <ele>984.53</ele>
        <time>2020-08-12T11:28:10Z</time>
      </trkpt>
      <trkpt lat="42.0606519654" lon="-7.1409105230">
        <ele>984.05</ele>
        <time>2020-08-12T11:28:11Z</time>
      </trkpt>
      <trkpt lat="42.0606792904" lon="-7.1412131097">
        <ele>983.09</ele>
        <time>2020-08-12T11:28:16Z</time>
      </trkpt>
      <trkpt lat="42.0606774464" lon="-7.1412763093">
        <ele>983.09</ele>
        <time>2020-08-12T11:28:17Z</time>
      </trkpt>
      <trkpt lat="42.0606750157" lon="-7.1413374133">
        <ele>982.60</ele>
        <time>2020-08-12T11:28:18Z</time>
      </trkpt>
      <trkpt lat="42.0606763568" lon="-7.1415596176">
        <ele>981.64</ele>
        <time>2020-08-12T11:28:23Z</time>
      </trkpt>
      <trkpt lat="42.0606821403" lon="-7.1415534988">
        <ele>981.64</ele>
        <time>2020-08-12T11:28:31Z</time>
      </trkpt>
      <trkpt lat="42.0606817212" lon="-7.1415524930">
        <ele>980.20</ele>
        <time>2020-08-12T11:28:46Z</time>
      </trkpt>
      <trkpt lat="42.0606824756" lon="-7.1415535826">
        <ele>980.68</ele>
        <time>2020-08-12T11:29:05Z</time>
      </trkpt>
      <trkpt lat="42.0606706571" lon="-7.1415686700">
        <ele>981.16</ele>
        <time>2020-08-12T11:29:15Z</time>
      </trkpt>
      <trkpt lat="42.0606792066" lon="-7.1415796503">
        <ele>981.64</ele>
        <time>2020-08-12T11:29:32Z</time>
      </trkpt>
      <trkpt lat="42.0606744289" lon="-7.1416048799">
        <ele>982.12</ele>
        <time>2020-08-12T11:29:49Z</time>
      </trkpt>
      <trkpt lat="42.0606288314" lon="-7.1418060455">
        <ele>982.12</ele>
        <time>2020-08-12T11:29:54Z</time>
      </trkpt>
      <trkpt lat="42.0604766160" lon="-7.1422997396">
        <ele>980.20</ele>
        <time>2020-08-12T11:30:02Z</time>
      </trkpt>
      <trkpt lat="42.0602006838" lon="-7.1428915858">
        <ele>977.32</ele>
        <time>2020-08-12T11:30:10Z</time>
      </trkpt>
      <trkpt lat="42.0597855281" lon="-7.1434637345">
        <ele>973.47</ele>
        <time>2020-08-12T11:30:18Z</time>
      </trkpt>
      <trkpt lat="42.0594231784" lon="-7.1440345421">
        <ele>970.11</ele>
        <time>2020-08-12T11:30:25Z</time>
      </trkpt>
      <trkpt lat="42.0593809336" lon="-7.1441333648">
        <ele>969.63</ele>
        <time>2020-08-12T11:30:26Z</time>
      </trkpt>
      <trkpt lat="42.0590580627" lon="-7.1450648457">
        <ele>965.30</ele>
        <time>2020-08-12T11:30:35Z</time>
      </trkpt>
      <trkpt lat="42.0587319229" lon="-7.1457474679">
        <ele>960.49</ele>
        <time>2020-08-12T11:30:43Z</time>
      </trkpt>
      <trkpt lat="42.0583233051" lon="-7.1464534756">
        <ele>956.17</ele>
        <time>2020-08-12T11:30:52Z</time>
      </trkpt>
      <trkpt lat="42.0578915533" lon="-7.1471540350">
        <ele>952.32</ele>
        <time>2020-08-12T11:31:02Z</time>
      </trkpt>
      <trkpt lat="42.0577662438" lon="-7.1473875549">
        <ele>950.88</ele>
        <time>2020-08-12T11:31:07Z</time>
      </trkpt>
      <trkpt lat="42.0576879568" lon="-7.1476962604">
        <ele>950.40</ele>
        <time>2020-08-12T11:31:14Z</time>
      </trkpt>
      <trkpt lat="42.0576616377" lon="-7.1479038801">
        <ele>950.88</ele>
        <time>2020-08-12T11:31:22Z</time>
      </trkpt>
      <trkpt lat="42.0576556865" lon="-7.1479550097">
        <ele>950.40</ele>
        <time>2020-08-12T11:31:24Z</time>
      </trkpt>
      <trkpt lat="42.0576641522" lon="-7.1479803231">
        <ele>950.40</ele>
        <time>2020-08-12T11:31:25Z</time>
      </trkpt>
      <trkpt lat="42.0576726180" lon="-7.1480012778">
        <ele>950.40</ele>
        <time>2020-08-12T11:31:26Z</time>
      </trkpt>
      <trkpt lat="42.0577029604" lon="-7.1480581909">
        <ele>950.40</ele>
        <time>2020-08-12T11:31:32Z</time>
      </trkpt>
      <trkpt lat="42.0576905552" lon="-7.1480597835">
        <ele>950.88</ele>
        <time>2020-08-12T11:31:42Z</time>
      </trkpt>
      <trkpt lat="42.0576813351" lon="-7.1480630524">
        <ele>952.32</ele>
        <time>2020-08-12T11:31:59Z</time>
      </trkpt>
      <trkpt lat="42.0576719474" lon="-7.1480695065">
        <ele>954.25</ele>
        <time>2020-08-12T11:32:19Z</time>
      </trkpt>
      <trkpt lat="42.0576639846" lon="-7.1480692551">
        <ele>955.21</ele>
        <time>2020-08-12T11:32:34Z</time>
      </trkpt>
      <trkpt lat="42.0576563571" lon="-7.1480591130">
        <ele>955.69</ele>
        <time>2020-08-12T11:32:59Z</time>
      </trkpt>
      <trkpt lat="42.0574243460" lon="-7.1475350764">
        <ele>985.01</ele>
        <time>2020-08-13T05:19:48Z</time>
      </trkpt>
      <trkpt lat="42.0574276149" lon="-7.1475628205">
        <ele>983.57</ele>
        <time>2020-08-13T05:19:56Z</time>
      </trkpt>
      <trkpt lat="42.0574358292" lon="-7.1475562826">
        <ele>983.09</ele>
        <time>2020-08-13T05:20:03Z</time>
      </trkpt>
      <trkpt lat="42.0574640762" lon="-7.1475637425">
        <ele>981.64</ele>
        <time>2020-08-13T05:20:15Z</time>
      </trkpt>
      <trkpt lat="42.0577190537" lon="-7.1476653311">
        <ele>972.51</ele>
        <time>2020-08-13T05:20:53Z</time>
      </trkpt>
      <trkpt lat="42.0577374101" lon="-7.1476965118">
        <ele>971.55</ele>
        <time>2020-08-13T05:21:06Z</time>
      </trkpt>
      <trkpt lat="42.0577801578" lon="-7.1478012018">
        <ele>961.94</ele>
        <time>2020-08-13T05:21:22Z</time>
      </trkpt>
      <trkpt lat="42.0578011125" lon="-7.1478284430">
        <ele>957.13</ele>
        <time>2020-08-13T05:21:50Z</time>
      </trkpt>
      <trkpt lat="42.0578016993" lon="-7.1478417702">
        <ele>954.25</ele>
        <time>2020-08-13T05:22:07Z</time>
      </trkpt>
      <trkpt lat="42.0577942394" lon="-7.1478510741">
        <ele>954.25</ele>
        <time>2020-08-13T05:22:23Z</time>
      </trkpt>
      <trkpt lat="42.0577901322" lon="-7.1478761360">
        <ele>954.25</ele>
        <time>2020-08-13T05:22:32Z</time>
      </trkpt>
      <trkpt lat="42.0577637292" lon="-7.1478706878">
        <ele>953.77</ele>
        <time>2020-08-13T05:22:38Z</time>
      </trkpt>
      <trkpt lat="42.0576909743" lon="-7.1477642376">
        <ele>958.09</ele>
        <time>2020-08-13T05:22:45Z</time>
      </trkpt>
      <trkpt lat="42.0576707739" lon="-7.1477245912">
        <ele>958.09</ele>
        <time>2020-08-13T05:22:47Z</time>
      </trkpt>
      <trkpt lat="42.0576216560" lon="-7.1476458013">
        <ele>957.61</ele>
        <time>2020-08-13T05:22:55Z</time>
      </trkpt>
      <trkpt lat="42.0576254278" lon="-7.1475681849">
        <ele>957.13</ele>
        <time>2020-08-13T05:23:00Z</time>
      </trkpt>
      <trkpt lat="42.0576403476" lon="-7.1473779995">
        <ele>957.61</ele>
        <time>2020-08-13T05:23:05Z</time>
      </trkpt>
      <trkpt lat="42.0577673335" lon="-7.1471801028">
        <ele>957.61</ele>
        <time>2020-08-13T05:23:12Z</time>
      </trkpt>
      <trkpt lat="42.0579012763" lon="-7.1469798591">
        <ele>957.61</ele>
        <time>2020-08-13T05:23:20Z</time>
      </trkpt>
      <trkpt lat="42.0580265019" lon="-7.1467638575">
        <ele>958.57</ele>
        <time>2020-08-13T05:23:28Z</time>
      </trkpt>
      <trkpt lat="42.0581857581" lon="-7.1465057787">
        <ele>960.01</ele>
        <time>2020-08-13T05:23:38Z</time>
      </trkpt>
      <trkpt lat="42.0583744347" lon="-7.1461758669">
        <ele>960.49</ele>
        <time>2020-08-13T05:23:50Z</time>
      </trkpt>
      <trkpt lat="42.0585269015" lon="-7.1459300257">
        <ele>960.49</ele>
        <time>2020-08-13T05:24:00Z</time>
      </trkpt>
      <trkpt lat="42.0586519595" lon="-7.1457229089">
        <ele>960.98</ele>
        <time>2020-08-13T05:24:09Z</time>
      </trkpt>
      <trkpt lat="42.0587906800" lon="-7.1454764809">
        <ele>961.94</ele>
        <time>2020-08-13T05:24:19Z</time>
      </trkpt>
      <trkpt lat="42.0589102898" lon="-7.1452389378">
        <ele>963.86</ele>
        <time>2020-08-13T05:24:29Z</time>
      </trkpt>
      <trkpt lat="42.0590391196" lon="-7.1449283045">
        <ele>966.74</ele>
        <time>2020-08-13T05:24:41Z</time>
      </trkpt>
      <trkpt lat="42.0591180772" lon="-7.1446810383">
        <ele>967.70</ele>
        <time>2020-08-13T05:24:51Z</time>
      </trkpt>
      <trkpt lat="42.0591892395" lon="-7.1444620192">
        <ele>967.22</ele>
        <time>2020-08-13T05:24:59Z</time>
      </trkpt>
      <trkpt lat="42.0592777524" lon="-7.1442217100">
        <ele>967.70</ele>
        <time>2020-08-13T05:25:08Z</time>
      </trkpt>
      <trkpt lat="42.0594092645" lon="-7.1439108253">
        <ele>967.70</ele>
        <time>2020-08-13T05:25:20Z</time>
      </trkpt>
      <trkpt lat="42.0595488232" lon="-7.1436802391">
        <ele>969.15</ele>
        <time>2020-08-13T05:25:30Z</time>
      </trkpt>
      <trkpt lat="42.0596318040" lon="-7.1435545944">
        <ele>970.11</ele>
        <time>2020-08-13T05:25:36Z</time>
      </trkpt>
      <trkpt lat="42.0598104224" lon="-7.1433147043">
        <ele>972.51</ele>
        <time>2020-08-13T05:25:47Z</time>
      </trkpt>
      <trkpt lat="42.0600084867" lon="-7.1430785861">
        <ele>973.95</ele>
        <time>2020-08-13T05:25:58Z</time>
      </trkpt>
      <trkpt lat="42.0601863507" lon="-7.1428225189">
        <ele>974.91</ele>
        <time>2020-08-13T05:26:09Z</time>
      </trkpt>
      <trkpt lat="42.0603184495" lon="-7.1425559744">
        <ele>976.36</ele>
        <time>2020-08-13T05:26:19Z</time>
      </trkpt>
      <trkpt lat="42.0604513865" lon="-7.1422337741">
        <ele>978.76</ele>
        <time>2020-08-13T05:26:31Z</time>
      </trkpt>
      <trkpt lat="42.0605422463" lon="-7.1419436764">
        <ele>980.68</ele>
        <time>2020-08-13T05:26:41Z</time>
      </trkpt>
      <trkpt lat="42.0606325194" lon="-7.1416050475">
        <ele>984.05</ele>
        <time>2020-08-13T05:26:53Z</time>
      </trkpt>
      <trkpt lat="42.0606495347" lon="-7.1413916443">
        <ele>985.49</ele>
        <time>2020-08-13T05:27:02Z</time>
      </trkpt>
      <trkpt lat="42.0606574137" lon="-7.1413065679">
        <ele>985.97</ele>
        <time>2020-08-13T05:27:06Z</time>
      </trkpt>
      <trkpt lat="42.0606621914" lon="-7.1412891336">
        <ele>985.97</ele>
        <time>2020-08-13T05:27:07Z</time>
      </trkpt>
      <trkpt lat="42.0606718305" lon="-7.1412733756">
        <ele>985.97</ele>
        <time>2020-08-13T05:27:08Z</time>
      </trkpt>
      <trkpt lat="42.0607928652" lon="-7.1411800012">
        <ele>985.49</ele>
        <time>2020-08-13T05:27:16Z</time>
      </trkpt>
      <trkpt lat="42.0609060209" lon="-7.1410815977">
        <ele>987.41</ele>
        <time>2020-08-13T05:27:25Z</time>
      </trkpt>
      <trkpt lat="42.0609189291" lon="-7.1410702821">
        <ele>987.89</ele>
        <time>2020-08-13T05:27:26Z</time>
      </trkpt>
      <trkpt lat="42.0609900076" lon="-7.1410747245">
        <ele>989.33</ele>
        <time>2020-08-13T05:27:32Z</time>
      </trkpt>
      <trkpt lat="42.0610345155" lon="-7.1411392651">
        <ele>989.81</ele>
        <time>2020-08-13T05:27:36Z</time>
      </trkpt>
      <trkpt lat="42.0611256268" lon="-7.1413762216">
        <ele>991.74</ele>
        <time>2020-08-13T05:27:47Z</time>
      </trkpt>
      <trkpt lat="42.0612767525" lon="-7.1416074783">
        <ele>993.18</ele>
        <time>2020-08-13T05:27:58Z</time>
      </trkpt>
      <trkpt lat="42.0613874774" lon="-7.1417911258">
        <ele>993.18</ele>
        <time>2020-08-13T05:28:07Z</time>
      </trkpt>
      <trkpt lat="42.0614870545" lon="-7.1420321055">
        <ele>994.62</ele>
        <time>2020-08-13T05:28:17Z</time>
      </trkpt>
      <trkpt lat="42.0615391061" lon="-7.1422269847">
        <ele>994.62</ele>
        <time>2020-08-13T05:28:26Z</time>
      </trkpt>
      <trkpt lat="42.0616349112" lon="-7.1424273960">
        <ele>996.54</ele>
        <time>2020-08-13T05:28:36Z</time>
      </trkpt>
      <trkpt lat="42.0617333986" lon="-7.1426151507">
        <ele>997.51</ele>
        <time>2020-08-13T05:28:46Z</time>
      </trkpt>
      <trkpt lat="42.0618322212" lon="-7.1428163163">
        <ele>997.99</ele>
        <time>2020-08-13T05:28:56Z</time>
      </trkpt>
      <trkpt lat="42.0619707741" lon="-7.1430432983">
        <ele>999.43</ele>
        <time>2020-08-13T05:29:07Z</time>
      </trkpt>
      <trkpt lat="42.0620685071" lon="-7.1431468986">
        <ele>999.91</ele>
        <time>2020-08-13T05:29:13Z</time>
      </trkpt>
      <trkpt lat="42.0622910466" lon="-7.1433843579">
        <ele>999.91</ele>
        <time>2020-08-13T05:29:23Z</time>
      </trkpt>
      <trkpt lat="42.0624566730" lon="-7.1436131839">
        <ele>998.47</ele>
        <time>2020-08-13T05:29:32Z</time>
      </trkpt>
      <trkpt lat="42.0625795517" lon="-7.1438531578">
        <ele>997.99</ele>
        <time>2020-08-13T05:29:40Z</time>
      </trkpt>
      <trkpt lat="42.0627476089" lon="-7.1440979932">
        <ele>998.47</ele>
        <time>2020-08-13T05:29:49Z</time>
      </trkpt>
      <trkpt lat="42.0628933702" lon="-7.1443731710">
        <ele>999.43</ele>
        <time>2020-08-13T05:29:59Z</time>
      </trkpt>
      <trkpt lat="42.0629905164" lon="-7.1445532981">
        <ele>1000.87</ele>
        <time>2020-08-13T05:30:08Z</time>
      </trkpt>
      <trkpt lat="42.0630806219" lon="-7.1447217744">
        <ele>1002.79</ele>
        <time>2020-08-13T05:30:17Z</time>
      </trkpt>
      <trkpt lat="42.0631897543" lon="-7.1449881513">
        <ele>1003.75</ele>
        <time>2020-08-13T05:30:29Z</time>
      </trkpt>
      <trkpt lat="42.0632219408" lon="-7.1452236827">
        <ele>1004.23</ele>
        <time>2020-08-13T05:30:39Z</time>
      </trkpt>
      <trkpt lat="42.0632055961" lon="-7.1454955079">
        <ele>1004.72</ele>
        <time>2020-08-13T05:30:50Z</time>
      </trkpt>
      <trkpt lat="42.0631971303" lon="-7.1457225736">
        <ele>1005.20</ele>
        <time>2020-08-13T05:30:59Z</time>
      </trkpt>
      <trkpt lat="42.0631659497" lon="-7.1459887829">
        <ele>1006.16</ele>
        <time>2020-08-13T05:31:09Z</time>
      </trkpt>
      <trkpt lat="42.0631466713" lon="-7.1462922916">
        <ele>1007.60</ele>
        <time>2020-08-13T05:31:21Z</time>
      </trkpt>
      <trkpt lat="42.0631270576" lon="-7.1464827284">
        <ele>1009.04</ele>
        <time>2020-08-13T05:31:29Z</time>
      </trkpt>
      <trkpt lat="42.0631367806" lon="-7.1467115544">
        <ele>1010.48</ele>
        <time>2020-08-13T05:31:39Z</time>
      </trkpt>
      <trkpt lat="42.0631922688" lon="-7.1469361056">
        <ele>1012.89</ele>
        <time>2020-08-13T05:31:50Z</time>
      </trkpt>
      <trkpt lat="42.0631847251" lon="-7.1469408832">
        <ele>1012.41</ele>
        <time>2020-08-13T05:31:56Z</time>
      </trkpt>
      <trkpt lat="42.0631787740" lon="-7.1469417214">
        <ele>1012.41</ele>
        <time>2020-08-13T05:32:13Z</time>
      </trkpt>
      <trkpt lat="42.0631807018" lon="-7.1469444875">
        <ele>1012.41</ele>
        <time>2020-08-13T05:32:30Z</time>
      </trkpt>
      <trkpt lat="42.0631720684" lon="-7.1469434816">
        <ele>1012.41</ele>
        <time>2020-08-13T05:32:50Z</time>
      </trkpt>
      <trkpt lat="42.0631783549" lon="-7.1469439846">
        <ele>1012.41</ele>
        <time>2020-08-13T05:33:07Z</time>
      </trkpt>
      <trkpt lat="42.0631818753" lon="-7.1469551325">
        <ele>1011.93</ele>
        <time>2020-08-13T05:33:21Z</time>
      </trkpt>
      <trkpt lat="42.0631896704" lon="-7.1469753329">
        <ele>1011.93</ele>
        <time>2020-08-13T05:33:23Z</time>
      </trkpt>
      <trkpt lat="42.0631980523" lon="-7.1469906718">
        <ele>1011.93</ele>
        <time>2020-08-13T05:33:24Z</time>
      </trkpt>
      <trkpt lat="42.0632900018" lon="-7.1471473295">
        <ele>1012.41</ele>
        <time>2020-08-13T05:33:33Z</time>
      </trkpt>
      <trkpt lat="42.0634122100" lon="-7.1473272890">
        <ele>1013.37</ele>
        <time>2020-08-13T05:33:43Z</time>
      </trkpt>
      <trkpt lat="42.0635666046" lon="-7.1475266106">
        <ele>1013.37</ele>
        <time>2020-08-13T05:33:54Z</time>
      </trkpt>
      <trkpt lat="42.0636946801" lon="-7.1476906445">
        <ele>1013.37</ele>
        <time>2020-08-13T05:34:02Z</time>
      </trkpt>
      <trkpt lat="42.0638793334" lon="-7.1478630602">
        <ele>1013.85</ele>
        <time>2020-08-13T05:34:11Z</time>
      </trkpt>
      <trkpt lat="42.0640484802" lon="-7.1480152756">
        <ele>1014.81</ele>
        <time>2020-08-13T05:34:19Z</time>
      </trkpt>
      <trkpt lat="42.0642349776" lon="-7.1481829137">
        <ele>1015.77</ele>
        <time>2020-08-13T05:34:28Z</time>
      </trkpt>
      <trkpt lat="42.0644395798" lon="-7.1483792178">
        <ele>1016.25</ele>
        <time>2020-08-13T05:34:38Z</time>
      </trkpt>
      <trkpt lat="42.0645915437" lon="-7.1485098917">
        <ele>1017.21</ele>
        <time>2020-08-13T05:34:46Z</time>
      </trkpt>
      <trkpt lat="42.0648165140" lon="-7.1486941259">
        <ele>1017.69</ele>
        <time>2020-08-13T05:34:56Z</time>
      </trkpt>
      <trkpt lat="42.0651407260" lon="-7.1489353571">
        <ele>1017.69</ele>
        <time>2020-08-13T05:35:09Z</time>
      </trkpt>
      <trkpt lat="42.0654315781" lon="-7.1490853094">
        <ele>1016.25</ele>
        <time>2020-08-13T05:35:18Z</time>
      </trkpt>
      <trkpt lat="42.0656829514" lon="-7.1491806116">
        <ele>1015.77</ele>
        <time>2020-08-13T05:35:26Z</time>
      </trkpt>
      <trkpt lat="42.0659361687" lon="-7.1492035780">
        <ele>1015.77</ele>
        <time>2020-08-13T05:35:34Z</time>
      </trkpt>
      <trkpt lat="42.0662128553" lon="-7.1492139716">
        <ele>1015.29</ele>
        <time>2020-08-13T05:35:43Z</time>
      </trkpt>
      <trkpt lat="42.0665626321" lon="-7.1492848825">
        <ele>1015.77</ele>
        <time>2020-08-13T05:35:54Z</time>
      </trkpt>
      <trkpt lat="42.0668219682" lon="-7.1494736429">
        <ele>1015.77</ele>
        <time>2020-08-13T05:36:03Z</time>
      </trkpt>
      <trkpt lat="42.0670131594" lon="-7.1496851183">
        <ele>1016.73</ele>
        <time>2020-08-13T05:36:11Z</time>
      </trkpt>
      <trkpt lat="42.0672145765" lon="-7.1500410140">
        <ele>1017.21</ele>
        <time>2020-08-13T05:36:22Z</time>
      </trkpt>
      <trkpt lat="42.0673610084" lon="-7.1504705027">
        <ele>1017.69</ele>
        <time>2020-08-13T05:36:34Z</time>
      </trkpt>
      <trkpt lat="42.0674596634" lon="-7.1508138254">
        <ele>1018.65</ele>
        <time>2020-08-13T05:36:44Z</time>
      </trkpt>
      <trkpt lat="42.0675707236" lon="-7.1512060985">
        <ele>1020.58</ele>
        <time>2020-08-13T05:36:56Z</time>
      </trkpt>
      <trkpt lat="42.0676351804" lon="-7.1514402889">
        <ele>1022.50</ele>
        <time>2020-08-13T05:37:05Z</time>
      </trkpt>
      <trkpt lat="42.0677231904" lon="-7.1516966913">
        <ele>1023.94</ele>
        <time>2020-08-13T05:37:15Z</time>
      </trkpt>
      <trkpt lat="42.0678171515" lon="-7.1519078314">
        <ele>1024.90</ele>
        <time>2020-08-13T05:37:24Z</time>
      </trkpt>
      <trkpt lat="42.0679541957" lon="-7.1521898825">
        <ele>1024.90</ele>
        <time>2020-08-13T05:37:36Z</time>
      </trkpt>
      <trkpt lat="42.0680354163" lon="-7.1524146851">
        <ele>1025.38</ele>
        <time>2020-08-13T05:37:45Z</time>
      </trkpt>
      <trkpt lat="42.0680680219" lon="-7.1525997575">
        <ele>1026.34</ele>
        <time>2020-08-13T05:37:52Z</time>
      </trkpt>
      <trkpt lat="42.0680736378" lon="-7.1528197825">
        <ele>1028.27</ele>
        <time>2020-08-13T05:38:01Z</time>
      </trkpt>
      <trkpt lat="42.0680672675" lon="-7.1530505363">
        <ele>1029.23</ele>
        <time>2020-08-13T05:38:10Z</time>
      </trkpt>
      <trkpt lat="42.0680525154" lon="-7.1533162426">
        <ele>1030.67</ele>
        <time>2020-08-13T05:38:20Z</time>
      </trkpt>
      <trkpt lat="42.0680257771" lon="-7.1535426378">
        <ele>1031.63</ele>
        <time>2020-08-13T05:38:29Z</time>
      </trkpt>
      <trkpt lat="42.0680099353" lon="-7.1538006328">
        <ele>1033.55</ele>
        <time>2020-08-13T05:38:39Z</time>
      </trkpt>
      <trkpt lat="42.0679968596" lon="-7.1540639922">
        <ele>1034.04</ele>
        <time>2020-08-13T05:38:49Z</time>
      </trkpt>
      <trkpt lat="42.0679857116" lon="-7.1543423552">
        <ele>1034.04</ele>
        <time>2020-08-13T05:38:59Z</time>
      </trkpt>
      <trkpt lat="42.0679761562" lon="-7.1546296030">
        <ele>1034.52</ele>
        <time>2020-08-13T05:39:09Z</time>
      </trkpt>
      <trkpt lat="42.0679592248" lon="-7.1549120732">
        <ele>1035.00</ele>
        <time>2020-08-13T05:39:18Z</time>
      </trkpt>
      <trkpt lat="42.0679472387" lon="-7.1552171744">
        <ele>1035.96</ele>
        <time>2020-08-13T05:39:28Z</time>
      </trkpt>
      <trkpt lat="42.0679375157" lon="-7.1554843895">
        <ele>1036.92</ele>
        <time>2020-08-13T05:39:37Z</time>
      </trkpt>
      <trkpt lat="42.0679235179" lon="-7.1557686199">
        <ele>1037.88</ele>
        <time>2020-08-13T05:39:47Z</time>
      </trkpt>
      <trkpt lat="42.0679096878" lon="-7.1559815202">
        <ele>1038.84</ele>
        <time>2020-08-13T05:39:54Z</time>
      </trkpt>
      <trkpt lat="42.0679008029" lon="-7.1562576201">
        <ele>1040.28</ele>
        <time>2020-08-13T05:40:03Z</time>
      </trkpt>
      <trkpt lat="42.0679004677" lon="-7.1565353964">
        <ele>1041.73</ele>
        <time>2020-08-13T05:40:12Z</time>
      </trkpt>
      <trkpt lat="42.0678997133" lon="-7.1567533258">
        <ele>1042.69</ele>
        <time>2020-08-13T05:40:20Z</time>
      </trkpt>
      <trkpt lat="42.0679084305" lon="-7.1570075490">
        <ele>1043.65</ele>
        <time>2020-08-13T05:40:28Z</time>
      </trkpt>
      <trkpt lat="42.0679571293" lon="-7.1573673002">
        <ele>1045.57</ele>
        <time>2020-08-13T05:40:39Z</time>
      </trkpt>
      <trkpt lat="42.0680139586" lon="-7.1576352697">
        <ele>1046.53</ele>
        <time>2020-08-13T05:40:48Z</time>
      </trkpt>
      <trkpt lat="42.0680614002" lon="-7.1578546241">
        <ele>1047.01</ele>
        <time>2020-08-13T05:40:57Z</time>
      </trkpt>
      <trkpt lat="42.0681020524" lon="-7.1580243576">
        <ele>1047.01</ele>
        <time>2020-08-13T05:41:04Z</time>
      </trkpt>
      <trkpt lat="42.0681358315" lon="-7.1582377609">
        <ele>1047.49</ele>
        <time>2020-08-13T05:41:12Z</time>
      </trkpt>
      <trkpt lat="42.0681586303" lon="-7.1585403476">
        <ele>1047.97</ele>
        <time>2020-08-13T05:41:21Z</time>
      </trkpt>
      <trkpt lat="42.0681352448" lon="-7.1589945629">
        <ele>1048.45</ele>
        <time>2020-08-13T05:41:33Z</time>
      </trkpt>
      <trkpt lat="42.0680266153" lon="-7.1594006661">
        <ele>1049.42</ele>
        <time>2020-08-13T05:41:43Z</time>
      </trkpt>
      <trkpt lat="42.0678973664" lon="-7.1598123852">
        <ele>1051.82</ele>
        <time>2020-08-13T05:41:54Z</time>
      </trkpt>
      <trkpt lat="42.0678365137" lon="-7.1600890718">
        <ele>1053.74</ele>
        <time>2020-08-13T05:42:02Z</time>
      </trkpt>
      <trkpt lat="42.0678355917" lon="-7.1604300477">
        <ele>1055.67</ele>
        <time>2020-08-13T05:42:12Z</time>
      </trkpt>
      <trkpt lat="42.0679230988" lon="-7.1607421897">
        <ele>1058.07</ele>
        <time>2020-08-13T05:42:22Z</time>
      </trkpt>
      <trkpt lat="42.0679854602" lon="-7.1608842630">
        <ele>1059.03</ele>
        <time>2020-08-13T05:42:29Z</time>
      </trkpt>
      <trkpt lat="42.0681118593" lon="-7.1611542441">
        <ele>1060.95</ele>
        <time>2020-08-13T05:42:41Z</time>
      </trkpt>
      <trkpt lat="42.0682077482" lon="-7.1613790467">
        <ele>1061.91</ele>
        <time>2020-08-13T05:42:51Z</time>
      </trkpt>
      <trkpt lat="42.0682912320" lon="-7.1616087947">
        <ele>1063.84</ele>
        <time>2020-08-13T05:43:01Z</time>
      </trkpt>
      <trkpt lat="42.0683230832" lon="-7.1617466770">
        <ele>1064.32</ele>
        <time>2020-08-13T05:43:09Z</time>
      </trkpt>
      <trkpt lat="42.0683160424" lon="-7.1617309190">
        <ele>1063.36</ele>
        <time>2020-08-13T05:43:20Z</time>
      </trkpt>
      <trkpt lat="42.0683202334" lon="-7.1617354453">
        <ele>1063.36</ele>
        <time>2020-08-13T05:43:43Z</time>
      </trkpt>
      <trkpt lat="42.0683201496" lon="-7.1617343556">
        <ele>1062.87</ele>
        <time>2020-08-13T05:43:57Z</time>
      </trkpt>
      <trkpt lat="42.0683230832" lon="-7.1617337689">
        <ele>1064.32</ele>
        <time>2020-08-13T05:44:22Z</time>
      </trkpt>
      <trkpt lat="42.0683290344" lon="-7.1617413964">
        <ele>1065.76</ele>
        <time>2020-08-13T05:44:43Z</time>
      </trkpt>
      <trkpt lat="42.0683275256" lon="-7.1617337689">
        <ele>1066.24</ele>
        <time>2020-08-13T05:45:07Z</time>
      </trkpt>
      <trkpt lat="42.0683281962" lon="-7.1617404744">
        <ele>1066.72</ele>
        <time>2020-08-13T05:45:25Z</time>
      </trkpt>
      <trkpt lat="42.0683290344" lon="-7.1617436595">
        <ele>1066.24</ele>
        <time>2020-08-13T05:45:38Z</time>
      </trkpt>
      <trkpt lat="42.0683266036" lon="-7.1617560647">
        <ele>1066.24</ele>
        <time>2020-08-13T05:45:39Z</time>
      </trkpt>
      <trkpt lat="42.0683254302" lon="-7.1617730800">
        <ele>1066.72</ele>
        <time>2020-08-13T05:45:40Z</time>
      </trkpt>
      <trkpt lat="42.0683302078" lon="-7.1617940348">
        <ele>1066.72</ele>
        <time>2020-08-13T05:45:41Z</time>
      </trkpt>
      <trkpt lat="42.0683548506" lon="-7.1620458271">
        <ele>1067.68</ele>
        <time>2020-08-13T05:45:50Z</time>
      </trkpt>
      <trkpt lat="42.0683706924" lon="-7.1623054985">
        <ele>1068.64</ele>
        <time>2020-08-13T05:45:59Z</time>
      </trkpt>
      <trkpt lat="42.0683925692" lon="-7.1625440475">
        <ele>1070.08</ele>
        <time>2020-08-13T05:46:07Z</time>
      </trkpt>
      <trkpt lat="42.0684602112" lon="-7.1629706025">
        <ele>1071.53</ele>
        <time>2020-08-13T05:46:21Z</time>
      </trkpt>
      <trkpt lat="42.0685709361" lon="-7.1633420046">
        <ele>1072.97</ele>
        <time>2020-08-13T05:46:34Z</time>
      </trkpt>
      <trkpt lat="42.0686579403" lon="-7.1635792125">
        <ele>1072.97</ele>
        <time>2020-08-13T05:46:43Z</time>
      </trkpt>
      <trkpt lat="42.0687729400" lon="-7.1639247146">
        <ele>1074.41</ele>
        <time>2020-08-13T05:46:55Z</time>
      </trkpt>
      <trkpt lat="42.0688669849" lon="-7.1642435621">
        <ele>1075.37</ele>
        <time>2020-08-13T05:47:06Z</time>
      </trkpt>
      <trkpt lat="42.0689203776" lon="-7.1646227594">
        <ele>1077.29</ele>
        <time>2020-08-13T05:47:19Z</time>
      </trkpt>
      <trkpt lat="42.0689127501" lon="-7.1649062354">
        <ele>1078.74</ele>
        <time>2020-08-13T05:47:29Z</time>
      </trkpt>
      <trkpt lat="42.0688358042" lon="-7.1651740372">
        <ele>1080.18</ele>
        <time>2020-08-13T05:47:39Z</time>
      </trkpt>
      <trkpt lat="42.0687216427" lon="-7.1654145140">
        <ele>1082.10</ele>
        <time>2020-08-13T05:47:49Z</time>
      </trkpt>
      <trkpt lat="42.0686133485" lon="-7.1657099761">
        <ele>1083.06</ele>
        <time>2020-08-13T05:48:00Z</time>
      </trkpt>
      <trkpt lat="42.0685602073" lon="-7.1659861598">
        <ele>1084.99</ele>
        <time>2020-08-13T05:48:10Z</time>
      </trkpt>
      <trkpt lat="42.0685213991" lon="-7.1662081126">
        <ele>1085.95</ele>
        <time>2020-08-13T05:48:18Z</time>
      </trkpt>
      <trkpt lat="42.0684618037" lon="-7.1664919239">
        <ele>1087.39</ele>
        <time>2020-08-13T05:48:28Z</time>
      </trkpt>
      <trkpt lat="42.0683942456" lon="-7.1668334864">
        <ele>1087.87</ele>
        <time>2020-08-13T05:48:40Z</time>
      </trkpt>
      <trkpt lat="42.0683942456" lon="-7.1670709457">
        <ele>1088.35</ele>
        <time>2020-08-13T05:48:49Z</time>
      </trkpt>
      <trkpt lat="42.0684463810" lon="-7.1672837622">
        <ele>1088.83</ele>
        <time>2020-08-13T05:48:57Z</time>
      </trkpt>
      <trkpt lat="42.0685517415" lon="-7.1675417572">
        <ele>1089.31</ele>
        <time>2020-08-13T05:49:07Z</time>
      </trkpt>
      <trkpt lat="42.0686830021" lon="-7.1678017639">
        <ele>1089.79</ele>
        <time>2020-08-13T05:49:18Z</time>
      </trkpt>
      <trkpt lat="42.0688192081" lon="-7.1680796240">
        <ele>1090.27</ele>
        <time>2020-08-13T05:49:29Z</time>
      </trkpt>
      <trkpt lat="42.0689249877" lon="-7.1682935301">
        <ele>1090.27</ele>
        <time>2020-08-13T05:49:37Z</time>
      </trkpt>
      <trkpt lat="42.0691052824" lon="-7.1686782595">
        <ele>1089.79</ele>
        <time>2020-08-13T05:49:48Z</time>
      </trkpt>
      <trkpt lat="42.0693286601" lon="-7.1691157110">
        <ele>1088.35</ele>
        <time>2020-08-13T05:49:57Z</time>
      </trkpt>
      <trkpt lat="42.0693900157" lon="-7.1692338120">
        <ele>1087.87</ele>
        <time>2020-08-13T05:49:59Z</time>
      </trkpt>
      <trkpt lat="42.0696604159" lon="-7.1697332896">
        <ele>1086.43</ele>
        <time>2020-08-13T05:50:07Z</time>
      </trkpt>
      <trkpt lat="42.0699189976" lon="-7.1702378802">
        <ele>1086.43</ele>
        <time>2020-08-13T05:50:16Z</time>
      </trkpt>
      <trkpt lat="42.0700560417" lon="-7.1705186740">
        <ele>1086.43</ele>
        <time>2020-08-13T05:50:23Z</time>
      </trkpt>
      <trkpt lat="42.0700890664" lon="-7.1705948655">
        <ele>1086.43</ele>
        <time>2020-08-13T05:50:26Z</time>
      </trkpt>
      <trkpt lat="42.0700857136" lon="-7.1705944464">
        <ele>1086.43</ele>
        <time>2020-08-13T05:50:32Z</time>
      </trkpt>
      <trkpt lat="42.0701021422" lon="-7.1706571430">
        <ele>1086.91</ele>
        <time>2020-08-13T05:50:39Z</time>
      </trkpt>
      <trkpt lat="42.0702039823" lon="-7.1708333306">
        <ele>1087.87</ele>
        <time>2020-08-13T05:50:47Z</time>
      </trkpt>
      <trkpt lat="42.0703309681" lon="-7.1710810997">
        <ele>1087.87</ele>
        <time>2020-08-13T05:50:57Z</time>
      </trkpt>
      <trkpt lat="42.0704344846" lon="-7.1712717041">
        <ele>1087.87</ele>
        <time>2020-08-13T05:51:06Z</time>
      </trkpt>
      <trkpt lat="42.0705909748" lon="-7.1715310402">
        <ele>1088.83</ele>
        <time>2020-08-13T05:51:17Z</time>
      </trkpt>
      <trkpt lat="42.0707727782" lon="-7.1718021948">
        <ele>1089.79</ele>
        <time>2020-08-13T05:51:28Z</time>
      </trkpt>
      <trkpt lat="42.0708563458" lon="-7.1719112433">
        <ele>1089.79</ele>
        <time>2020-08-13T05:51:36Z</time>
      </trkpt>
      <trkpt lat="42.0708985906" lon="-7.1719754487">
        <ele>1090.27</ele>
        <time>2020-08-13T05:51:42Z</time>
      </trkpt>
      <trkpt lat="42.0710340422" lon="-7.1721745189">
        <ele>1090.27</ele>
        <time>2020-08-13T05:51:51Z</time>
      </trkpt>
      <trkpt lat="42.0711828209" lon="-7.1723895986">
        <ele>1090.75</ele>
        <time>2020-08-13T05:52:00Z</time>
      </trkpt>
      <trkpt lat="42.0714302547" lon="-7.1727293171">
        <ele>1090.75</ele>
        <time>2020-08-13T05:52:10Z</time>
      </trkpt>
      <trkpt lat="42.0717255492" lon="-7.1731000487">
        <ele>1090.75</ele>
        <time>2020-08-13T05:52:21Z</time>
      </trkpt>
      <trkpt lat="42.0719760004" lon="-7.1734005399">
        <ele>1090.75</ele>
        <time>2020-08-13T05:52:30Z</time>
      </trkpt>
      <trkpt lat="42.0722766593" lon="-7.1737686731">
        <ele>1090.75</ele>
        <time>2020-08-13T05:52:41Z</time>
      </trkpt>
      <trkpt lat="42.0724999532" lon="-7.1741736028">
        <ele>1091.71</ele>
        <time>2020-08-13T05:52:52Z</time>
      </trkpt>
      <trkpt lat="42.0726540126" lon="-7.1746110544">
        <ele>1092.68</ele>
        <time>2020-08-13T05:53:02Z</time>
      </trkpt>
      <trkpt lat="42.0728122629" lon="-7.1750620846">
        <ele>1092.68</ele>
        <time>2020-08-13T05:53:12Z</time>
      </trkpt>
      <trkpt lat="42.0730004366" lon="-7.1755563654">
        <ele>1093.16</ele>
        <time>2020-08-13T05:53:23Z</time>
      </trkpt>
      <trkpt lat="42.0731915440" lon="-7.1759663243">
        <ele>1092.20</ele>
        <time>2020-08-13T05:53:32Z</time>
      </trkpt>
      <trkpt lat="42.0733786281" lon="-7.1764914505">
        <ele>1092.20</ele>
        <time>2020-08-13T05:53:43Z</time>
      </trkpt>
      <trkpt lat="42.0734068751" lon="-7.1770356037">
        <ele>1092.20</ele>
        <time>2020-08-13T05:53:53Z</time>
      </trkpt>
      <trkpt lat="42.0734079648" lon="-7.1776041482">
        <ele>1093.16</ele>
        <time>2020-08-13T05:54:04Z</time>
      </trkpt>
      <trkpt lat="42.0734054502" lon="-7.1781172883">
        <ele>1094.60</ele>
        <time>2020-08-13T05:54:14Z</time>
      </trkpt>
      <trkpt lat="42.0734009240" lon="-7.1786255669">
        <ele>1094.12</ele>
        <time>2020-08-13T05:54:23Z</time>
      </trkpt>
      <trkpt lat="42.0733855013" lon="-7.1791477595">
        <ele>1092.20</ele>
        <time>2020-08-13T05:54:29Z</time>
      </trkpt>
      <trkpt lat="42.0732865110" lon="-7.1797230095">
        <ele>1088.83</ele>
        <time>2020-08-13T05:54:34Z</time>
      </trkpt>
      <trkpt lat="42.0731685776" lon="-7.1806140058">
        <ele>1084.99</ele>
        <time>2020-08-13T05:54:41Z</time>
      </trkpt>
      <trkpt lat="42.0731259976" lon="-7.1814008988">
        <ele>1084.50</ele>
        <time>2020-08-13T05:54:48Z</time>
      </trkpt>
      <trkpt lat="42.0730887819" lon="-7.1819964331">
        <ele>1084.50</ele>
        <time>2020-08-13T05:54:55Z</time>
      </trkpt>
      <trkpt lat="42.0730804838" lon="-7.1824450325">
        <ele>1086.43</ele>
        <time>2020-08-13T05:55:03Z</time>
      </trkpt>
      <trkpt lat="42.0731430966" lon="-7.1829956397">
        <ele>1088.83</ele>
        <time>2020-08-13T05:55:15Z</time>
      </trkpt>
      <trkpt lat="42.0732042007" lon="-7.1833706461">
        <ele>1090.27</ele>
        <time>2020-08-13T05:55:23Z</time>
      </trkpt>
      <trkpt lat="42.0732266642" lon="-7.1837459039">
        <ele>1091.23</ele>
        <time>2020-08-13T05:55:31Z</time>
      </trkpt>
      <trkpt lat="42.0732368901" lon="-7.1840717923">
        <ele>1091.23</ele>
        <time>2020-08-13T05:55:38Z</time>
      </trkpt>
      <trkpt lat="42.0732233953" lon="-7.1844699327">
        <ele>1090.27</ele>
        <time>2020-08-13T05:55:46Z</time>
      </trkpt>
      <trkpt lat="42.0732077211" lon="-7.1846125927">
        <ele>1089.79</ele>
        <time>2020-08-13T05:55:48Z</time>
      </trkpt>
      <trkpt lat="42.0730719343" lon="-7.1851367969">
        <ele>1086.91</ele>
        <time>2020-08-13T05:55:54Z</time>
      </trkpt>
      <trkpt lat="42.0730399154" lon="-7.1852174308">
        <ele>1086.43</ele>
        <time>2020-08-13T05:55:55Z</time>
      </trkpt>
      <trkpt lat="42.0730007719" lon="-7.1852973942">
        <ele>1086.43</ele>
        <time>2020-08-13T05:55:56Z</time>
      </trkpt>
      <trkpt lat="42.0729560964" lon="-7.1853717417">
        <ele>1086.43</ele>
        <time>2020-08-13T05:55:57Z</time>
      </trkpt>
      <trkpt lat="42.0729045477" lon="-7.1854440775">
        <ele>1086.43</ele>
        <time>2020-08-13T05:55:58Z</time>
      </trkpt>
      <trkpt lat="42.0728482213" lon="-7.1855131444">
        <ele>1086.43</ele>
        <time>2020-08-13T05:55:59Z</time>
      </trkpt>
      <trkpt lat="42.0727932360" lon="-7.1855740808">
        <ele>1085.95</ele>
        <time>2020-08-13T05:56:00Z</time>
      </trkpt>
      <trkpt lat="42.0723976102" lon="-7.1858908329">
        <ele>1085.47</ele>
        <time>2020-08-13T05:56:07Z</time>
      </trkpt>
      <trkpt lat="42.0717978012" lon="-7.1862477344">
        <ele>1083.06</ele>
        <time>2020-08-13T05:56:16Z</time>
      </trkpt>
      <trkpt lat="42.0712063741" lon="-7.1865965892">
        <ele>1082.10</ele>
        <time>2020-08-13T05:56:25Z</time>
      </trkpt>
      <trkpt lat="42.0710533205" lon="-7.1867338847">
        <ele>1081.62</ele>
        <time>2020-08-13T05:56:28Z</time>
      </trkpt>
      <trkpt lat="42.0710084774" lon="-7.1867913846">
        <ele>1081.62</ele>
        <time>2020-08-13T05:56:29Z</time>
      </trkpt>
      <trkpt lat="42.0709638018" lon="-7.1868592780">
        <ele>1081.14</ele>
        <time>2020-08-13T05:56:30Z</time>
      </trkpt>
      <trkpt lat="42.0709244069" lon="-7.1869297698">
        <ele>1081.14</ele>
        <time>2020-08-13T05:56:31Z</time>
      </trkpt>
      <trkpt lat="42.0708875265" lon="-7.1870047040">
        <ele>1080.66</ele>
        <time>2020-08-13T05:56:32Z</time>
      </trkpt>
      <trkpt lat="42.0706291962" lon="-7.1874505375">
        <ele>1078.74</ele>
        <time>2020-08-13T05:56:38Z</time>
      </trkpt>
      <trkpt lat="42.0705631468" lon="-7.1875101328">
        <ele>1078.74</ele>
        <time>2020-08-13T05:56:39Z</time>
      </trkpt>
      <trkpt lat="42.0705042221" lon="-7.1875489410">
        <ele>1078.74</ele>
        <time>2020-08-13T05:56:40Z</time>
      </trkpt>
      <trkpt lat="42.0704413578" lon="-7.1875796188">
        <ele>1078.74</ele>
        <time>2020-08-13T05:56:41Z</time>
      </trkpt>
      <trkpt lat="42.0703831036" lon="-7.1875945386">
        <ele>1078.74</ele>
        <time>2020-08-13T05:56:42Z</time>
      </trkpt>
      <trkpt lat="42.0703405235" lon="-7.1876029205">
        <ele>1078.74</ele>
        <time>2020-08-13T05:56:43Z</time>
      </trkpt>
      <trkpt lat="42.0702849515" lon="-7.1876083687">
        <ele>1078.74</ele>
        <time>2020-08-13T05:56:44Z</time>
      </trkpt>
      <trkpt lat="42.0702264458" lon="-7.1876139008">
        <ele>1078.74</ele>
        <time>2020-08-13T05:56:45Z</time>
      </trkpt>
      <trkpt lat="42.0697804447" lon="-7.1877360251">
        <ele>1078.74</ele>
        <time>2020-08-13T05:56:53Z</time>
      </trkpt>
      <trkpt lat="42.0697250403" lon="-7.1877723187">
        <ele>1078.74</ele>
        <time>2020-08-13T05:56:54Z</time>
      </trkpt>
      <trkpt lat="42.0693455078" lon="-7.1881205030">
        <ele>1076.81</ele>
        <time>2020-08-13T05:57:02Z</time>
      </trkpt>
      <trkpt lat="42.0693117287" lon="-7.1881641727">
        <ele>1076.81</ele>
        <time>2020-08-13T05:57:03Z</time>
      </trkpt>
      <trkpt lat="42.0692823082" lon="-7.1882106923">
        <ele>1076.33</ele>
        <time>2020-08-13T05:57:04Z</time>
      </trkpt>
      <trkpt lat="42.0692555699" lon="-7.1882619057">
        <ele>1075.85</ele>
        <time>2020-08-13T05:57:05Z</time>
      </trkpt>
      <trkpt lat="42.0692264847" lon="-7.1883370914">
        <ele>1075.37</ele>
        <time>2020-08-13T05:57:06Z</time>
      </trkpt>
      <trkpt lat="42.0692030992" lon="-7.1884204075">
        <ele>1074.89</ele>
        <time>2020-08-13T05:57:07Z</time>
      </trkpt>
      <trkpt lat="42.0691895206" lon="-7.1884843614">
        <ele>1074.89</ele>
        <time>2020-08-13T05:57:08Z</time>
      </trkpt>
      <trkpt lat="42.0691792946" lon="-7.1885636542">
        <ele>1074.41</ele>
        <time>2020-08-13T05:57:09Z</time>
      </trkpt>
      <trkpt lat="42.0691729244" lon="-7.1886540111">
        <ele>1074.41</ele>
        <time>2020-08-13T05:57:10Z</time>
      </trkpt>
      <trkpt lat="42.0691657159" lon="-7.1893831529">
        <ele>1072.97</ele>
        <time>2020-08-13T05:57:18Z</time>
      </trkpt>
      <trkpt lat="42.0691673085" lon="-7.1900148131">
        <ele>1072.49</ele>
        <time>2020-08-13T05:57:27Z</time>
      </trkpt>
      <trkpt lat="42.0691718347" lon="-7.1900631767">
        <ele>1072.01</ele>
        <time>2020-08-13T05:57:28Z</time>
      </trkpt>
      <trkpt lat="42.0691896882" lon="-7.1901809424">
        <ele>1072.01</ele>
        <time>2020-08-13T05:57:30Z</time>
      </trkpt>
      <trkpt lat="42.0692193601" lon="-7.1902917512">
        <ele>1072.01</ele>
        <time>2020-08-13T05:57:32Z</time>
      </trkpt>
      <trkpt lat="42.0692426618" lon="-7.1903500892">
        <ele>1072.49</ele>
        <time>2020-08-13T05:57:33Z</time>
      </trkpt>
      <trkpt lat="42.0692691486" lon="-7.1903972793">
        <ele>1072.49</ele>
        <time>2020-08-13T05:57:34Z</time>
      </trkpt>
      <trkpt lat="42.0693149138" lon="-7.1904637478">
        <ele>1072.49</ele>
        <time>2020-08-13T05:57:36Z</time>
      </trkpt>
      <trkpt lat="42.0694822166" lon="-7.1906638239">
        <ele>1072.97</ele>
        <time>2020-08-13T05:57:42Z</time>
      </trkpt>
      <trkpt lat="42.0696189255" lon="-7.1908312105">
        <ele>1073.93</ele>
        <time>2020-08-13T05:57:49Z</time>
      </trkpt>
      <trkpt lat="42.0698241983" lon="-7.1910939831">
        <ele>1074.89</ele>
        <time>2020-08-13T05:57:58Z</time>
      </trkpt>
      <trkpt lat="42.0700527728" lon="-7.1913742740">
        <ele>1075.37</ele>
        <time>2020-08-13T05:58:08Z</time>
      </trkpt>
      <trkpt lat="42.0702246856" lon="-7.1915719192">
        <ele>1075.85</ele>
        <time>2020-08-13T05:58:17Z</time>
      </trkpt>
      <trkpt lat="42.0703759789" lon="-7.1917897649">
        <ele>1077.78</ele>
        <time>2020-08-13T05:58:27Z</time>
      </trkpt>
      <trkpt lat="42.0704731252" lon="-7.1920319181">
        <ele>1078.74</ele>
        <time>2020-08-13T05:58:36Z</time>
      </trkpt>
      <trkpt lat="42.0705438685" lon="-7.1923347563">
        <ele>1079.70</ele>
        <time>2020-08-13T05:58:45Z</time>
      </trkpt>
      <trkpt lat="42.0706281904" lon="-7.1927577909">
        <ele>1079.70</ele>
        <time>2020-08-13T05:58:55Z</time>
      </trkpt>
      <trkpt lat="42.0707229059" lon="-7.1931933984">
        <ele>1079.22</ele>
        <time>2020-08-13T05:59:04Z</time>
      </trkpt>
      <trkpt lat="42.0707509015" lon="-7.1936148405">
        <ele>1078.74</ele>
        <time>2020-08-13T05:59:12Z</time>
      </trkpt>
      <trkpt lat="42.0707247499" lon="-7.1941773500">
        <ele>1078.26</ele>
        <time>2020-08-13T05:59:23Z</time>
      </trkpt>
      <trkpt lat="42.0706627239" lon="-7.1946307272">
        <ele>1078.26</ele>
        <time>2020-08-13T05:59:31Z</time>
      </trkpt>
      <trkpt lat="42.0705307089" lon="-7.1949952561">
        <ele>1079.22</ele>
        <time>2020-08-13T05:59:40Z</time>
      </trkpt>
      <trkpt lat="42.0703856181" lon="-7.1953806560">
        <ele>1080.66</ele>
        <time>2020-08-13T05:59:50Z</time>
      </trkpt>
      <trkpt lat="42.0703164674" lon="-7.1958129946">
        <ele>1081.62</ele>
        <time>2020-08-13T06:00:00Z</time>
      </trkpt>
      <trkpt lat="42.0702774078" lon="-7.1963120531">
        <ele>1083.06</ele>
        <time>2020-08-13T06:00:12Z</time>
      </trkpt>
      <trkpt lat="42.0702960994" lon="-7.1966652665">
        <ele>1084.02</ele>
        <time>2020-08-13T06:00:20Z</time>
      </trkpt>
      <trkpt lat="42.0704426151" lon="-7.1969805099">
        <ele>1083.54</ele>
        <time>2020-08-13T06:00:29Z</time>
      </trkpt>
      <trkpt lat="42.0706958324" lon="-7.1971879620">
        <ele>1082.10</ele>
        <time>2020-08-13T06:00:39Z</time>
      </trkpt>
      <trkpt lat="42.0710306894" lon="-7.1973695140">
        <ele>1080.18</ele>
        <time>2020-08-13T06:00:49Z</time>
      </trkpt>
      <trkpt lat="42.0713145845" lon="-7.1975738648">
        <ele>1079.22</ele>
        <time>2020-08-13T06:00:58Z</time>
      </trkpt>
      <trkpt lat="42.0715617668" lon="-7.1978005953">
        <ele>1078.26</ele>
        <time>2020-08-13T06:01:06Z</time>
      </trkpt>
      <trkpt lat="42.0717365295" lon="-7.1981002484">
        <ele>1077.78</ele>
        <time>2020-08-13T06:01:14Z</time>
      </trkpt>
      <trkpt lat="42.0717614237" lon="-7.1981579158">
        <ele>1077.29</ele>
        <time>2020-08-13T06:01:17Z</time>
      </trkpt>
      <trkpt lat="42.0717672911" lon="-7.1981639508">
        <ele>1076.81</ele>
        <time>2020-08-13T06:01:23Z</time>
      </trkpt>
      <trkpt lat="42.0717615914" lon="-7.1981609333">
        <ele>1077.29</ele>
        <time>2020-08-13T06:01:39Z</time>
      </trkpt>
      <trkpt lat="42.0717656985" lon="-7.1981662139">
        <ele>1076.81</ele>
        <time>2020-08-13T06:01:52Z</time>
      </trkpt>
      <trkpt lat="42.0717611723" lon="-7.1981627773">
        <ele>1076.81</ele>
        <time>2020-08-13T06:02:09Z</time>
      </trkpt>
      <trkpt lat="42.0717599988" lon="-7.1981627773">
        <ele>1078.26</ele>
        <time>2020-08-13T06:02:25Z</time>
      </trkpt>
      <trkpt lat="42.0717642736" lon="-7.1981598437">
        <ele>1078.74</ele>
        <time>2020-08-13T06:02:43Z</time>
      </trkpt>
      <trkpt lat="42.0717631839" lon="-7.1981627773">
        <ele>1079.22</ele>
        <time>2020-08-13T06:03:02Z</time>
      </trkpt>
      <trkpt lat="42.0717668720" lon="-7.1981636155">
        <ele>1079.22</ele>
        <time>2020-08-13T06:03:20Z</time>
      </trkpt>
      <trkpt lat="42.0717584062" lon="-7.1981740091">
        <ele>1078.26</ele>
        <time>2020-08-13T06:03:39Z</time>
      </trkpt>
      <trkpt lat="42.0717521198" lon="-7.1981627773">
        <ele>1078.26</ele>
        <time>2020-08-13T06:03:51Z</time>
      </trkpt>
      <trkpt lat="42.0717594121" lon="-7.1981717460">
        <ele>1077.78</ele>
        <time>2020-08-13T06:04:01Z</time>
      </trkpt>
      <trkpt lat="42.0717592444" lon="-7.1981861629">
        <ele>1077.78</ele>
        <time>2020-08-13T06:04:02Z</time>
      </trkpt>
      <trkpt lat="42.0717806183" lon="-7.1984215267">
        <ele>1076.81</ele>
        <time>2020-08-13T06:04:08Z</time>
      </trkpt>
      <trkpt lat="42.0718281437" lon="-7.1988648456">
        <ele>1075.85</ele>
        <time>2020-08-13T06:04:15Z</time>
      </trkpt>
      <trkpt lat="42.0719541237" lon="-7.1996071469">
        <ele>1073.45</ele>
        <time>2020-08-13T06:04:24Z</time>
      </trkpt>
      <trkpt lat="42.0722026471" lon="-7.2004692256">
        <ele>1069.60</ele>
        <time>2020-08-13T06:04:33Z</time>
      </trkpt>
      <trkpt lat="42.0726079121" lon="-7.2013478167">
        <ele>1065.28</ele>
        <time>2020-08-13T06:04:42Z</time>
      </trkpt>
      <trkpt lat="42.0730973314" lon="-7.2022068780">
        <ele>1060.95</ele>
        <time>2020-08-13T06:04:52Z</time>
      </trkpt>
      <trkpt lat="42.0735923667" lon="-7.2027387936">
        <ele>1058.07</ele>
        <time>2020-08-13T06:05:00Z</time>
      </trkpt>
      <trkpt lat="42.0736662112" lon="-7.2027856484">
        <ele>1057.59</ele>
        <time>2020-08-13T06:05:01Z</time>
      </trkpt>
      <trkpt lat="42.0741531160" lon="-7.2029710561">
        <ele>1054.22</ele>
        <time>2020-08-13T06:05:08Z</time>
      </trkpt>
      <trkpt lat="42.0757470187" lon="-7.2038214840">
        <ele>1047.49</ele>
        <time>2020-08-13T06:05:36Z</time>
      </trkpt>
      <trkpt lat="42.0759833883" lon="-7.2044160962">
        <ele>1046.53</ele>
        <time>2020-08-13T06:05:47Z</time>
      </trkpt>
      <trkpt lat="42.0761895832" lon="-7.2056557797">
        <ele>1047.49</ele>
        <time>2020-08-13T06:06:08Z</time>
      </trkpt>
      <trkpt lat="42.0761943609" lon="-7.2056935821">
        <ele>1047.49</ele>
        <time>2020-08-13T06:06:09Z</time>
      </trkpt>
      <trkpt lat="42.0762229431" lon="-7.2058519162">
        <ele>1047.49</ele>
        <time>2020-08-13T06:06:12Z</time>
      </trkpt>
      <trkpt lat="42.0762893278" lon="-7.2060084064">
        <ele>1047.49</ele>
        <time>2020-08-13T06:06:15Z</time>
      </trkpt>
      <trkpt lat="42.0763433073" lon="-7.2060858551">
        <ele>1047.49</ele>
        <time>2020-08-13T06:06:17Z</time>
      </trkpt>
      <trkpt lat="42.0767260250" lon="-7.2066619433">
        <ele>1046.05</ele>
        <time>2020-08-13T06:06:30Z</time>
      </trkpt>
      <trkpt lat="42.0768311340" lon="-7.2069399711">
        <ele>1046.05</ele>
        <time>2020-08-13T06:06:36Z</time>
      </trkpt>
      <trkpt lat="42.0768463053" lon="-7.2069879156">
        <ele>1046.05</ele>
        <time>2020-08-13T06:06:37Z</time>
      </trkpt>
      <trkpt lat="42.0769724529" lon="-7.2074627504">
        <ele>1047.49</ele>
        <time>2020-08-13T06:06:47Z</time>
      </trkpt>
      <trkpt lat="42.0771061443" lon="-7.2078251000">
        <ele>1047.49</ele>
        <time>2020-08-13T06:06:57Z</time>
      </trkpt>
      <trkpt lat="42.0772840921" lon="-7.2081015352">
        <ele>1048.45</ele>
        <time>2020-08-13T06:07:06Z</time>
      </trkpt>
      <trkpt lat="42.0773751196" lon="-7.2082358971">
        <ele>1049.42</ele>
        <time>2020-08-13T06:07:12Z</time>
      </trkpt>
      <trkpt lat="42.0773897879" lon="-7.2082603723">
        <ele>1049.90</ele>
        <time>2020-08-13T06:07:13Z</time>
      </trkpt>
      <trkpt lat="42.0774086472" lon="-7.2082839254">
        <ele>1049.90</ele>
        <time>2020-08-13T06:07:14Z</time>
      </trkpt>
      <trkpt lat="42.0774243213" lon="-7.2083060537">
        <ele>1050.38</ele>
        <time>2020-08-13T06:07:15Z</time>
      </trkpt>
      <trkpt lat="42.0774404146" lon="-7.2083269246">
        <ele>1050.38</ele>
        <time>2020-08-13T06:07:16Z</time>
      </trkpt>
      <trkpt lat="42.0775815658" lon="-7.2085220553">
        <ele>1051.82</ele>
        <time>2020-08-13T06:07:25Z</time>
      </trkpt>
      <trkpt lat="42.0776782092" lon="-7.2087207064">
        <ele>1052.78</ele>
        <time>2020-08-13T06:07:33Z</time>
      </trkpt>
      <trkpt lat="42.0777585078" lon="-7.2089679725">
        <ele>1054.22</ele>
        <time>2020-08-13T06:07:42Z</time>
      </trkpt>
      <trkpt lat="42.0777967293" lon="-7.2092145681">
        <ele>1056.63</ele>
        <time>2020-08-13T06:07:51Z</time>
      </trkpt>
      <trkpt lat="42.0777537301" lon="-7.2094767541">
        <ele>1058.07</ele>
        <time>2020-08-13T06:08:01Z</time>
      </trkpt>
      <trkpt lat="42.0776647981" lon="-7.2097440530">
        <ele>1059.03</ele>
        <time>2020-08-13T06:08:12Z</time>
      </trkpt>
      <trkpt lat="42.0776155125" lon="-7.2099131998">
        <ele>1059.99</ele>
        <time>2020-08-13T06:08:19Z</time>
      </trkpt>
      <trkpt lat="42.0775693282" lon="-7.2101267707">
        <ele>1061.43</ele>
        <time>2020-08-13T06:08:28Z</time>
      </trkpt>
      <trkpt lat="42.0775756985" lon="-7.2104040440">
        <ele>1062.87</ele>
        <time>2020-08-13T06:08:38Z</time>
      </trkpt>
      <trkpt lat="42.0775797218" lon="-7.2106707562">
        <ele>1063.84</ele>
        <time>2020-08-13T06:08:47Z</time>
      </trkpt>
      <trkpt lat="42.0774876047" lon="-7.2109916154">
        <ele>1063.84</ele>
        <time>2020-08-13T06:08:56Z</time>
      </trkpt>
      <trkpt lat="42.0774126705" lon="-7.2112118918">
        <ele>1064.32</ele>
        <time>2020-08-13T06:09:03Z</time>
      </trkpt>
      <trkpt lat="42.0772844274" lon="-7.2115698829">
        <ele>1065.28</ele>
        <time>2020-08-13T06:09:14Z</time>
      </trkpt>
      <trkpt lat="42.0771330502" lon="-7.2118780017">
        <ele>1066.24</ele>
        <time>2020-08-13T06:09:24Z</time>
      </trkpt>
      <trkpt lat="42.0770394243" lon="-7.2122373339">
        <ele>1066.24</ele>
        <time>2020-08-13T06:09:34Z</time>
      </trkpt>
      <trkpt lat="42.0770162903" lon="-7.2125638928">
        <ele>1066.72</ele>
        <time>2020-08-13T06:09:42Z</time>
      </trkpt>
      <trkpt lat="42.0770984329" lon="-7.2128693294">
        <ele>1067.20</ele>
        <time>2020-08-13T06:09:51Z</time>
      </trkpt>
      <trkpt lat="42.0772209764" lon="-7.2131416574">
        <ele>1068.16</ele>
        <time>2020-08-13T06:10:00Z</time>
      </trkpt>
      <trkpt lat="42.0773113333" lon="-7.2135595791">
        <ele>1068.64</ele>
        <time>2020-08-13T06:10:11Z</time>
      </trkpt>
      <trkpt lat="42.0773876924" lon="-7.2138832882">
        <ele>1069.12</ele>
        <time>2020-08-13T06:10:19Z</time>
      </trkpt>
      <trkpt lat="42.0774244890" lon="-7.2142427880">
        <ele>1070.08</ele>
        <time>2020-08-13T06:10:28Z</time>
      </trkpt>
      <trkpt lat="42.0774604473" lon="-7.2144974303">
        <ele>1069.60</ele>
        <time>2020-08-13T06:10:37Z</time>
      </trkpt>
      <trkpt lat="42.0774865989" lon="-7.2145876195">
        <ele>1070.08</ele>
        <time>2020-08-13T06:10:44Z</time>
      </trkpt>
      <trkpt lat="42.0774645545" lon="-7.2145758010">
        <ele>1070.08</ele>
        <time>2020-08-13T06:10:47Z</time>
      </trkpt>
      <trkpt lat="42.0774606150" lon="-7.2145581990">
        <ele>1070.08</ele>
        <time>2020-08-13T06:10:48Z</time>
      </trkpt>
      <trkpt lat="42.0774540771" lon="-7.2145411838">
        <ele>1070.08</ele>
        <time>2020-08-13T06:10:49Z</time>
      </trkpt>
      <trkpt lat="42.0774469525" lon="-7.2145168763">
        <ele>1070.08</ele>
        <time>2020-08-13T06:10:50Z</time>
      </trkpt>
      <trkpt lat="42.0774406660" lon="-7.2144950833">
        <ele>1070.08</ele>
        <time>2020-08-13T06:10:51Z</time>
      </trkpt>
      <trkpt lat="42.0774353854" lon="-7.2144662496">
        <ele>1069.60</ele>
        <time>2020-08-13T06:10:52Z</time>
      </trkpt>
      <trkpt lat="42.0774319489" lon="-7.2144356556">
        <ele>1069.60</ele>
        <time>2020-08-13T06:10:53Z</time>
      </trkpt>
      <trkpt lat="42.0774285961" lon="-7.2143978532">
        <ele>1069.60</ele>
        <time>2020-08-13T06:10:55Z</time>
      </trkpt>
      <trkpt lat="42.0774125867" lon="-7.2142784949">
        <ele>1068.64</ele>
        <time>2020-08-13T06:11:00Z</time>
      </trkpt>
      <trkpt lat="42.0773980860" lon="-7.2142753936">
        <ele>1068.16</ele>
        <time>2020-08-13T06:11:01Z</time>
      </trkpt>
      <trkpt lat="42.0773822442" lon="-7.2142932471">
        <ele>1068.16</ele>
        <time>2020-08-13T06:11:02Z</time>
      </trkpt>
      <trkpt lat="42.0773767959" lon="-7.2143282834">
        <ele>1067.68</ele>
        <time>2020-08-13T06:11:03Z</time>
      </trkpt>
      <trkpt lat="42.0773776341" lon="-7.2143505793">
        <ele>1067.68</ele>
        <time>2020-08-13T06:11:04Z</time>
      </trkpt>
      <trkpt lat="42.0773785561" lon="-7.2143857833">
        <ele>1067.68</ele>
        <time>2020-08-13T06:11:05Z</time>
      </trkpt>
      <trkpt lat="42.0773786400" lon="-7.2144256812">
        <ele>1067.20</ele>
        <time>2020-08-13T06:11:06Z</time>
      </trkpt>
      <trkpt lat="42.0773923025" lon="-7.2147267591">
        <ele>1065.28</ele>
        <time>2020-08-13T06:11:13Z</time>
      </trkpt>
      <trkpt lat="42.0774441864" lon="-7.2149499692">
        <ele>1064.32</ele>
        <time>2020-08-13T06:11:21Z</time>
      </trkpt>
      <trkpt lat="42.0775662269" lon="-7.2151497100">
        <ele>1063.84</ele>
        <time>2020-08-13T06:11:29Z</time>
      </trkpt>
      <trkpt lat="42.0777083840" lon="-7.2153500374">
        <ele>1064.80</ele>
        <time>2020-08-13T06:11:37Z</time>
      </trkpt>
      <trkpt lat="42.0779123157" lon="-7.2156530432">
        <ele>1065.28</ele>
        <time>2020-08-13T06:11:49Z</time>
      </trkpt>
      <trkpt lat="42.0780865755" lon="-7.2159166541">
        <ele>1065.28</ele>
        <time>2020-08-13T06:12:00Z</time>
      </trkpt>
      <trkpt lat="42.0782454126" lon="-7.2161342483">
        <ele>1065.28</ele>
        <time>2020-08-13T06:12:10Z</time>
      </trkpt>
      <trkpt lat="42.0783889946" lon="-7.2163065802">
        <ele>1065.76</ele>
        <time>2020-08-13T06:12:19Z</time>
      </trkpt>
      <trkpt lat="42.0785708819" lon="-7.2165172175">
        <ele>1066.24</ele>
        <time>2020-08-13T06:12:29Z</time>
      </trkpt>
      <trkpt lat="42.0787422918" lon="-7.2167478874">
        <ele>1066.72</ele>
        <time>2020-08-13T06:12:39Z</time>
      </trkpt>
      <trkpt lat="42.0788417850" lon="-7.2169107478">
        <ele>1066.72</ele>
        <time>2020-08-13T06:12:46Z</time>
      </trkpt>
      <trkpt lat="42.0789318066" lon="-7.2171649709">
        <ele>1067.20</ele>
        <time>2020-08-13T06:12:54Z</time>
      </trkpt>
      <trkpt lat="42.0789805055" lon="-7.2173867561">
        <ele>1068.16</ele>
        <time>2020-08-13T06:13:02Z</time>
      </trkpt>
      <trkpt lat="42.0790425315" lon="-7.2176183481">
        <ele>1068.64</ele>
        <time>2020-08-13T06:13:11Z</time>
      </trkpt>
      <trkpt lat="42.0790631510" lon="-7.2177047655">
        <ele>1069.12</ele>
        <time>2020-08-13T06:13:15Z</time>
      </trkpt>
      <trkpt lat="42.0790642407" lon="-7.2177247144">
        <ele>1069.12</ele>
        <time>2020-08-13T06:13:16Z</time>
      </trkpt>
      <trkpt lat="42.0791160408" lon="-7.2178989742">
        <ele>1070.08</ele>
        <time>2020-08-13T06:13:23Z</time>
      </trkpt>
      <trkpt lat="42.0791582018" lon="-7.2181757446">
        <ele>1070.57</ele>
        <time>2020-08-13T06:13:31Z</time>
      </trkpt>
      <trkpt lat="42.0791747142" lon="-7.2182851285">
        <ele>1070.57</ele>
        <time>2020-08-13T06:13:37Z</time>
      </trkpt>
      <trkpt lat="42.0791735407" lon="-7.2182974499">
        <ele>1070.57</ele>
        <time>2020-08-13T06:13:45Z</time>
      </trkpt>
      <trkpt lat="42.0791669190" lon="-7.2183003835">
        <ele>1070.08</ele>
        <time>2020-08-13T06:14:16Z</time>
      </trkpt>
      <trkpt lat="42.0791665837" lon="-7.2182954382">
        <ele>1070.08</ele>
        <time>2020-08-13T06:14:36Z</time>
      </trkpt>
      <trkpt lat="42.0791639853" lon="-7.2182971146">
        <ele>1069.12</ele>
        <time>2020-08-13T06:14:56Z</time>
      </trkpt>
      <trkpt lat="42.0791817550" lon="-7.2183794249">
        <ele>1068.64</ele>
        <time>2020-08-13T06:15:03Z</time>
      </trkpt>
      <trkpt lat="42.0791892149" lon="-7.2184514254">
        <ele>1069.12</ele>
        <time>2020-08-13T06:15:12Z</time>
      </trkpt>
      <trkpt lat="42.0791839343" lon="-7.2184410319">
        <ele>1070.57</ele>
        <time>2020-08-13T06:15:28Z</time>
      </trkpt>
      <trkpt lat="42.0791810844" lon="-7.2184479889">
        <ele>1071.53</ele>
        <time>2020-08-13T06:15:53Z</time>
      </trkpt>
      <trkpt lat="42.0791840181" lon="-7.2184424568">
        <ele>1072.01</ele>
        <time>2020-08-13T06:16:11Z</time>
      </trkpt>
      <trkpt lat="42.0791841019" lon="-7.2184398584">
        <ele>1072.01</ele>
        <time>2020-08-13T06:16:26Z</time>
      </trkpt>
      <trkpt lat="42.0791886281" lon="-7.2184544429">
        <ele>1071.53</ele>
        <time>2020-08-13T06:16:43Z</time>
      </trkpt>
      <trkpt lat="42.0791857783" lon="-7.2184649203">
        <ele>1070.57</ele>
        <time>2020-08-13T06:17:00Z</time>
      </trkpt>
      <trkpt lat="42.0791906398" lon="-7.2184682731">
        <ele>1071.05</ele>
        <time>2020-08-13T06:17:09Z</time>
      </trkpt>
      <trkpt lat="42.0792092476" lon="-7.2186520044">
        <ele>1071.53</ele>
        <time>2020-08-13T06:17:15Z</time>
      </trkpt>
      <trkpt lat="42.0792494807" lon="-7.2189803235">
        <ele>1071.53</ele>
        <time>2020-08-13T06:17:23Z</time>
      </trkpt>
      <trkpt lat="42.0792850200" lon="-7.2192784678">
        <ele>1070.57</ele>
        <time>2020-08-13T06:17:31Z</time>
      </trkpt>
      <trkpt lat="42.0793434419" lon="-7.2195754386">
        <ele>1071.05</ele>
        <time>2020-08-13T06:17:39Z</time>
      </trkpt>
      <trkpt lat="42.0794099942" lon="-7.2198798694">
        <ele>1072.01</ele>
        <time>2020-08-13T06:17:48Z</time>
      </trkpt>
      <trkpt lat="42.0794731099" lon="-7.2202099487">
        <ele>1072.49</ele>
        <time>2020-08-13T06:17:58Z</time>
      </trkpt>
      <trkpt lat="42.0795407519" lon="-7.2204935085">
        <ele>1072.97</ele>
        <time>2020-08-13T06:18:06Z</time>
      </trkpt>
      <trkpt lat="42.0795345493" lon="-7.2208183073">
        <ele>1073.45</ele>
        <time>2020-08-13T06:18:15Z</time>
      </trkpt>
      <trkpt lat="42.0795358066" lon="-7.2210834268">
        <ele>1073.93</ele>
        <time>2020-08-13T06:18:23Z</time>
      </trkpt>
      <trkpt lat="42.0795354713" lon="-7.2212072276">
        <ele>1073.93</ele>
        <time>2020-08-13T06:18:31Z</time>
      </trkpt>
      <trkpt lat="42.0795322023" lon="-7.2211987618">
        <ele>1073.93</ele>
        <time>2020-08-13T06:18:48Z</time>
      </trkpt>
      <trkpt lat="42.0795234852" lon="-7.2212078981">
        <ele>1073.93</ele>
        <time>2020-08-13T06:18:58Z</time>
      </trkpt>
      <trkpt lat="42.0795172825" lon="-7.2212223150">
        <ele>1073.93</ele>
        <time>2020-08-13T06:18:59Z</time>
      </trkpt>
      <trkpt lat="42.0795113314" lon="-7.2212390788">
        <ele>1073.93</ele>
        <time>2020-08-13T06:19:00Z</time>
      </trkpt>
      <trkpt lat="42.0795065537" lon="-7.2212574352">
        <ele>1074.41</ele>
        <time>2020-08-13T06:19:01Z</time>
      </trkpt>
      <trkpt lat="42.0795029495" lon="-7.2212739475">
        <ele>1074.41</ele>
        <time>2020-08-13T06:19:02Z</time>
      </trkpt>
      <trkpt lat="42.0795026142" lon="-7.2212912980">
        <ele>1074.41</ele>
        <time>2020-08-13T06:19:03Z</time>
      </trkpt>
      <trkpt lat="42.0795049611" lon="-7.2213089000">
        <ele>1074.41</ele>
        <time>2020-08-13T06:19:04Z</time>
      </trkpt>
      <trkpt lat="42.0794919692" lon="-7.2214802261">
        <ele>1074.41</ele>
        <time>2020-08-13T06:19:14Z</time>
      </trkpt>
      <trkpt lat="42.0794762950" lon="-7.2215689905">
        <ele>1074.89</ele>
        <time>2020-08-13T06:19:22Z</time>
      </trkpt>
      <trkpt lat="42.0794743672" lon="-7.2215627041">
        <ele>1074.41</ele>
        <time>2020-08-13T06:19:37Z</time>
      </trkpt>
      <trkpt lat="42.0794845093" lon="-7.2215689067">
        <ele>1073.93</ele>
        <time>2020-08-13T06:19:49Z</time>
      </trkpt>
      <trkpt lat="42.0794786420" lon="-7.2215670627">
        <ele>1074.41</ele>
        <time>2020-08-13T06:20:07Z</time>
      </trkpt>
      <trkpt lat="42.0794756245" lon="-7.2215686552">
        <ele>1074.89</ele>
        <time>2020-08-13T06:20:22Z</time>
      </trkpt>
      <trkpt lat="42.0794768818" lon="-7.2215728462">
        <ele>1074.41</ele>
        <time>2020-08-13T06:20:36Z</time>
      </trkpt>
      <trkpt lat="42.0794726070" lon="-7.2215819824">
        <ele>1074.89</ele>
        <time>2020-08-13T06:20:45Z</time>
      </trkpt>
      <trkpt lat="42.0794811565" lon="-7.2215896100">
        <ele>1074.89</ele>
        <time>2020-08-13T06:20:57Z</time>
      </trkpt>
      <trkpt lat="42.0794833358" lon="-7.2215923760">
        <ele>1073.93</ele>
        <time>2020-08-13T06:21:20Z</time>
      </trkpt>
      <trkpt lat="42.0794628840" lon="-7.2215825692">
        <ele>1074.89</ele>
        <time>2020-08-13T06:21:37Z</time>
      </trkpt>
      <trkpt lat="42.0794576872" lon="-7.2215430904">
        <ele>1075.37</ele>
        <time>2020-08-13T06:21:45Z</time>
      </trkpt>
      <trkpt lat="42.0794731099" lon="-7.2215487901">
        <ele>1076.33</ele>
        <time>2020-08-13T06:22:10Z</time>
      </trkpt>
      <trkpt lat="42.0794682484" lon="-7.2215406597">
        <ele>1076.33</ele>
        <time>2020-08-13T06:22:28Z</time>
      </trkpt>
      <trkpt lat="42.0794674102" lon="-7.2215181962">
        <ele>1076.81</ele>
        <time>2020-08-13T06:22:31Z</time>
      </trkpt>
      <trkpt lat="42.0794793963" lon="-7.2214072198">
        <ele>1076.33</ele>
        <time>2020-08-13T06:22:39Z</time>
      </trkpt>
      <trkpt lat="42.0794989262" lon="-7.2214156855">
        <ele>1076.33</ele>
        <time>2020-08-13T06:22:44Z</time>
      </trkpt>
      <trkpt lat="42.0794940647" lon="-7.2214458603">
        <ele>1076.33</ele>
        <time>2020-08-13T06:22:49Z</time>
      </trkpt>
      <trkpt lat="42.0794867724" lon="-7.2214706708">
        <ele>1076.33</ele>
        <time>2020-08-13T06:22:50Z</time>
      </trkpt>
      <trkpt lat="42.0794807374" lon="-7.2214985825">
        <ele>1076.33</ele>
        <time>2020-08-13T06:22:51Z</time>
      </trkpt>
      <trkpt lat="42.0794747863" lon="-7.2215293441">
        <ele>1076.33</ele>
        <time>2020-08-13T06:22:52Z</time>
      </trkpt>
      <trkpt lat="42.0794684999" lon="-7.2215594351">
        <ele>1076.33</ele>
        <time>2020-08-13T06:22:53Z</time>
      </trkpt>
      <trkpt lat="42.0794633031" lon="-7.2215905320">
        <ele>1076.33</ele>
        <time>2020-08-13T06:22:54Z</time>
      </trkpt>
      <trkpt lat="42.0794579387" lon="-7.2216228023">
        <ele>1076.33</ele>
        <time>2020-08-13T06:22:55Z</time>
      </trkpt>
      <trkpt lat="42.0794502273" lon="-7.2216593474">
        <ele>1076.33</ele>
        <time>2020-08-13T06:22:56Z</time>
      </trkpt>
      <trkpt lat="42.0794455335" lon="-7.2216770332">
        <ele>1076.33</ele>
        <time>2020-08-13T06:22:57Z</time>
      </trkpt>
      <trkpt lat="42.0793790650" lon="-7.2218569089">
        <ele>1076.81</ele>
        <time>2020-08-13T06:23:06Z</time>
      </trkpt>
      <trkpt lat="42.0793745387" lon="-7.2218399774">
        <ele>1076.81</ele>
        <time>2020-08-13T06:23:08Z</time>
      </trkpt>
      <trkpt lat="42.0793805737" lon="-7.2218203638">
        <ele>1076.81</ele>
        <time>2020-08-13T06:23:09Z</time>
      </trkpt>
      <trkpt lat="42.0793884527" lon="-7.2217984032">
        <ele>1076.81</ele>
        <time>2020-08-13T06:23:10Z</time>
      </trkpt>
      <trkpt lat="42.0794449467" lon="-7.2215753607">
        <ele>1077.29</ele>
        <time>2020-08-13T06:23:21Z</time>
      </trkpt>
      <trkpt lat="42.0794471260" lon="-7.2215571720">
        <ele>1077.29</ele>
        <time>2020-08-13T06:23:22Z</time>
      </trkpt>
      <trkpt lat="42.0794449467" lon="-7.2215435095">
        <ele>1077.29</ele>
        <time>2020-08-13T06:23:23Z</time>
      </trkpt>
      <trkpt lat="42.0794443600" lon="-7.2215405758">
        <ele>1077.78</ele>
        <time>2020-08-13T06:23:28Z</time>
      </trkpt>
      <trkpt lat="42.0794475451" lon="-7.2215477843">
        <ele>1075.85</ele>
        <time>2020-08-13T06:23:38Z</time>
      </trkpt>
      <trkpt lat="42.0794545021" lon="-7.2215456050">
        <ele>1075.37</ele>
        <time>2020-08-13T06:23:58Z</time>
      </trkpt>
      <trkpt lat="42.0794690028" lon="-7.2215572558">
        <ele>1075.37</ele>
        <time>2020-08-13T06:24:09Z</time>
      </trkpt>
      <trkpt lat="42.0794731099" lon="-7.2215751093">
        <ele>1075.37</ele>
        <time>2020-08-13T06:24:15Z</time>
      </trkpt>
      <trkpt lat="42.0794419292" lon="-7.2217266541">
        <ele>1075.37</ele>
        <time>2020-08-13T06:24:22Z</time>
      </trkpt>
      <trkpt lat="42.0793686714" lon="-7.2219212819">
        <ele>1075.85</ele>
        <time>2020-08-13T06:24:30Z</time>
      </trkpt>
      <trkpt lat="42.0792498160" lon="-7.2221772652">
        <ele>1076.33</ele>
        <time>2020-08-13T06:24:39Z</time>
      </trkpt>
      <trkpt lat="42.0790545177" lon="-7.2224105336">
        <ele>1076.33</ele>
        <time>2020-08-13T06:24:48Z</time>
      </trkpt>
      <trkpt lat="42.0788769890" lon="-7.2225329094">
        <ele>1075.37</ele>
        <time>2020-08-13T06:24:56Z</time>
      </trkpt>
      <trkpt lat="42.0787422918" lon="-7.2225921694">
        <ele>1074.89</ele>
        <time>2020-08-13T06:25:03Z</time>
      </trkpt>
      <trkpt lat="42.0785547886" lon="-7.2226447240">
        <ele>1072.97</ele>
        <time>2020-08-13T06:25:11Z</time>
      </trkpt>
      <trkpt lat="42.0783452410" lon="-7.2227139585">
        <ele>1072.49</ele>
        <time>2020-08-13T06:25:19Z</time>
      </trkpt>
      <trkpt lat="42.0781633537" lon="-7.2227446362">
        <ele>1071.05</ele>
        <time>2020-08-13T06:25:27Z</time>
      </trkpt>
      <trkpt lat="42.0781475119" lon="-7.2227565385">
        <ele>1070.57</ele>
        <time>2020-08-13T06:25:28Z</time>
      </trkpt>
      <trkpt lat="42.0781327598" lon="-7.2227686923">
        <ele>1070.57</ele>
        <time>2020-08-13T06:25:29Z</time>
      </trkpt>
      <trkpt lat="42.0781160798" lon="-7.2227796726">
        <ele>1070.57</ele>
        <time>2020-08-13T06:25:30Z</time>
      </trkpt>
      <trkpt lat="42.0780971367" lon="-7.2227864619">
        <ele>1070.08</ele>
        <time>2020-08-13T06:25:31Z</time>
      </trkpt>
      <trkpt lat="42.0780753437" lon="-7.2227915749">
        <ele>1070.08</ele>
        <time>2020-08-13T06:25:32Z</time>
      </trkpt>
      <trkpt lat="42.0780525450" lon="-7.2227985319">
        <ele>1070.08</ele>
        <time>2020-08-13T06:25:33Z</time>
      </trkpt>
      <trkpt lat="42.0778554864" lon="-7.2228510864">
        <ele>1069.60</ele>
        <time>2020-08-13T06:25:41Z</time>
      </trkpt>
      <trkpt lat="42.0776573382" lon="-7.2229085024">
        <ele>1067.68</ele>
        <time>2020-08-13T06:25:48Z</time>
      </trkpt>
      <trkpt lat="42.0774157718" lon="-7.2228984442">
        <ele>1065.76</ele>
        <time>2020-08-13T06:25:55Z</time>
      </trkpt>
      <trkpt lat="42.0772845950" lon="-7.2228648327">
        <ele>1064.32</ele>
        <time>2020-08-13T06:26:00Z</time>
      </trkpt>
      <trkpt lat="42.0770970080" lon="-7.2228281200">
        <ele>1062.87</ele>
        <time>2020-08-13T06:26:05Z</time>
      </trkpt>
      <trkpt lat="42.0770099200" lon="-7.2228285391">
        <ele>1062.39</ele>
        <time>2020-08-13T06:26:07Z</time>
      </trkpt>
      <trkpt lat="42.0769709442" lon="-7.2228417825">
        <ele>1062.39</ele>
        <time>2020-08-13T06:26:08Z</time>
      </trkpt>
      <trkpt lat="42.0769392606" lon="-7.2228645813">
        <ele>1062.39</ele>
        <time>2020-08-13T06:26:09Z</time>
      </trkpt>
      <trkpt lat="42.0769139472" lon="-7.2228951752">
        <ele>1062.39</ele>
        <time>2020-08-13T06:26:10Z</time>
      </trkpt>
      <trkpt lat="42.0768964291" lon="-7.2229248472">
        <ele>1062.39</ele>
        <time>2020-08-13T06:26:11Z</time>
      </trkpt>
      <trkpt lat="42.0768826827" lon="-7.2229618952">
        <ele>1062.39</ele>
        <time>2020-08-13T06:26:12Z</time>
      </trkpt>
      <trkpt lat="42.0768767316" lon="-7.2229854483">
        <ele>1062.87</ele>
        <time>2020-08-13T06:26:13Z</time>
      </trkpt>
      <trkpt lat="42.0768701937" lon="-7.2230115160">
        <ele>1062.87</ele>
        <time>2020-08-13T06:26:14Z</time>
      </trkpt>
      <trkpt lat="42.0768662542" lon="-7.2230334766">
        <ele>1062.87</ele>
        <time>2020-08-13T06:26:15Z</time>
      </trkpt>
      <trkpt lat="42.0768455509" lon="-7.2231869493">
        <ele>1062.39</ele>
        <time>2020-08-13T06:26:21Z</time>
      </trkpt>
      <trkpt lat="42.0768048149" lon="-7.2234372329">
        <ele>1061.43</ele>
        <time>2020-08-13T06:26:28Z</time>
      </trkpt>
      <trkpt lat="42.0767727960" lon="-7.2236425895">
        <ele>1060.47</ele>
        <time>2020-08-13T06:26:35Z</time>
      </trkpt>
      <trkpt lat="42.0767484885" lon="-7.2238414083">
        <ele>1058.55</ele>
        <time>2020-08-13T06:26:43Z</time>
      </trkpt>
      <trkpt lat="42.0767546073" lon="-7.2238654643">
        <ele>1058.07</ele>
        <time>2020-08-13T06:26:44Z</time>
      </trkpt>
      <trkpt lat="42.0767587982" lon="-7.2238932084">
        <ele>1057.59</ele>
        <time>2020-08-13T06:26:45Z</time>
      </trkpt>
      <trkpt lat="42.0767614804" lon="-7.2239228804">
        <ele>1057.11</ele>
        <time>2020-08-13T06:26:46Z</time>
      </trkpt>
      <trkpt lat="42.0767619833" lon="-7.2239440866">
        <ele>1057.11</ele>
        <time>2020-08-13T06:26:47Z</time>
      </trkpt>
      <trkpt lat="42.0767826028" lon="-7.2240548115">
        <ele>1055.18</ele>
        <time>2020-08-13T06:26:52Z</time>
      </trkpt>
      <trkpt lat="42.0767893922" lon="-7.2240648698">
        <ele>1054.70</ele>
        <time>2020-08-13T06:27:00Z</time>
      </trkpt>
      <trkpt lat="42.0767940860" lon="-7.2240693122">
        <ele>1055.18</ele>
        <time>2020-08-13T06:27:21Z</time>
      </trkpt>
      <trkpt lat="42.0767855365" lon="-7.2240679711">
        <ele>1054.70</ele>
        <time>2020-08-13T06:27:41Z</time>
      </trkpt>
      <trkpt lat="42.0767874643" lon="-7.2240826394">
        <ele>1055.67</ele>
        <time>2020-08-13T06:27:52Z</time>
      </trkpt>
      <trkpt lat="42.0767969359" lon="-7.2240832262">
        <ele>1055.67</ele>
        <time>2020-08-13T06:28:04Z</time>
      </trkpt>
      <trkpt lat="42.0768112689" lon="-7.2240940388">
        <ele>1055.67</ele>
        <time>2020-08-13T06:28:10Z</time>
      </trkpt>
      <trkpt lat="42.0768193994" lon="-7.2241064440">
        <ele>1055.67</ele>
        <time>2020-08-13T06:28:11Z</time>
      </trkpt>
      <trkpt lat="42.0768259373" lon="-7.2241255548">
        <ele>1055.67</ele>
        <time>2020-08-13T06:28:12Z</time>
      </trkpt>
      <trkpt lat="42.0768255182" lon="-7.2241455037">
        <ele>1055.67</ele>
        <time>2020-08-13T06:28:13Z</time>
      </trkpt>
      <trkpt lat="42.0768235065" lon="-7.2241682187">
        <ele>1055.67</ele>
        <time>2020-08-13T06:28:14Z</time>
      </trkpt>
      <trkpt lat="42.0768209919" lon="-7.2241936158">
        <ele>1055.18</ele>
        <time>2020-08-13T06:28:15Z</time>
      </trkpt>
      <trkpt lat="42.0767943375" lon="-7.2243731562">
        <ele>1053.74</ele>
        <time>2020-08-13T06:28:19Z</time>
      </trkpt>
      <trkpt lat="42.0767294616" lon="-7.2247731406">
        <ele>1051.82</ele>
        <time>2020-08-13T06:28:25Z</time>
      </trkpt>
      <trkpt lat="42.0766150486" lon="-7.2254467942">
        <ele>1049.42</ele>
        <time>2020-08-13T06:28:33Z</time>
      </trkpt>
      <trkpt lat="42.0764297247" lon="-7.2264625132">
        <ele>1045.09</ele>
        <time>2020-08-13T06:28:43Z</time>
      </trkpt>
      <trkpt lat="42.0763540361" lon="-7.2267961968">
        <ele>1044.61</ele>
        <time>2020-08-13T06:28:47Z</time>
      </trkpt>
      <trkpt lat="42.0763304830" lon="-7.2268655989">
        <ele>1044.13</ele>
        <time>2020-08-13T06:28:48Z</time>
      </trkpt>
      <trkpt lat="42.0762956981" lon="-7.2269544471">
        <ele>1044.13</ele>
        <time>2020-08-13T06:28:49Z</time>
      </trkpt>
      <trkpt lat="42.0762715582" lon="-7.2270045709">
        <ele>1044.13</ele>
        <time>2020-08-13T06:28:50Z</time>
      </trkpt>
      <trkpt lat="42.0762375277" lon="-7.2270678543">
        <ele>1044.61</ele>
        <time>2020-08-13T06:28:51Z</time>
      </trkpt>
      <trkpt lat="42.0761622582" lon="-7.2271817643">
        <ele>1044.61</ele>
        <time>2020-08-13T06:28:53Z</time>
      </trkpt>
      <trkpt lat="42.0757724158" lon="-7.2275729477">
        <ele>1045.09</ele>
        <time>2020-08-13T06:29:03Z</time>
      </trkpt>
      <trkpt lat="42.0754191186" lon="-7.2278900351">
        <ele>1044.13</ele>
        <time>2020-08-13T06:29:11Z</time>
      </trkpt>
      <trkpt lat="42.0749855228" lon="-7.2282871697">
        <ele>1043.17</ele>
        <time>2020-08-13T06:29:20Z</time>
      </trkpt>
      <trkpt lat="42.0745430421" lon="-7.2286921833">
        <ele>1040.76</ele>
        <time>2020-08-13T06:29:27Z</time>
      </trkpt>
      <trkpt lat="42.0740635134" lon="-7.2291168105">
        <ele>1036.44</ele>
        <time>2020-08-13T06:29:33Z</time>
      </trkpt>
      <trkpt lat="42.0732647181" lon="-7.2298268415">
        <ele>1028.75</ele>
        <time>2020-08-13T06:29:43Z</time>
      </trkpt>
      <trkpt lat="42.0731990039" lon="-7.2298664879">
        <ele>1028.27</ele>
        <time>2020-08-13T06:29:44Z</time>
      </trkpt>
      <trkpt lat="42.0730929729" lon="-7.2299065534">
        <ele>1027.31</ele>
        <time>2020-08-13T06:29:45Z</time>
      </trkpt>
      <trkpt lat="42.0729931444" lon="-7.2299187910">
        <ele>1026.83</ele>
        <time>2020-08-13T06:29:47Z</time>
      </trkpt>
      <trkpt lat="42.0728478860" lon="-7.2298930585">
        <ele>1025.38</ele>
        <time>2020-08-13T06:29:48Z</time>
      </trkpt>
      <trkpt lat="42.0727671683" lon="-7.2298587766">
        <ele>1024.90</ele>
        <time>2020-08-13T06:29:49Z</time>
      </trkpt>
      <trkpt lat="42.0726987720" lon="-7.2298171185">
        <ele>1023.94</ele>
        <time>2020-08-13T06:29:50Z</time>
      </trkpt>
      <trkpt lat="42.0726350695" lon="-7.2297716048">
        <ele>1023.46</ele>
        <time>2020-08-13T06:29:51Z</time>
      </trkpt>
      <trkpt lat="42.0725642424" lon="-7.2297170386">
        <ele>1022.98</ele>
        <time>2020-08-13T06:29:52Z</time>
      </trkpt>
      <trkpt lat="42.0715709869" lon="-7.2295844369">
        <ele>1017.21</ele>
        <time>2020-08-13T06:30:09Z</time>
      </trkpt>
      <trkpt lat="42.0715336874" lon="-7.2296747938">
        <ele>1016.73</ele>
        <time>2020-08-13T06:30:10Z</time>
      </trkpt>
      <trkpt lat="42.0714978967" lon="-7.2297705151">
        <ele>1016.73</ele>
        <time>2020-08-13T06:30:11Z</time>
      </trkpt>
      <trkpt lat="42.0714714099" lon="-7.2298638895">
        <ele>1016.73</ele>
        <time>2020-08-13T06:30:13Z</time>
      </trkpt>
      <trkpt lat="42.0714473538" lon="-7.2299731057">
        <ele>1016.25</ele>
        <time>2020-08-13T06:30:14Z</time>
      </trkpt>
      <trkpt lat="42.0712613594" lon="-7.2307457495">
        <ele>1014.33</ele>
        <time>2020-08-13T06:30:24Z</time>
      </trkpt>
      <trkpt lat="42.0712234732" lon="-7.2308697179">
        <ele>1013.85</ele>
        <time>2020-08-13T06:30:26Z</time>
      </trkpt>
      <trkpt lat="42.0711830724" lon="-7.2309589852">
        <ele>1013.85</ele>
        <time>2020-08-13T06:30:28Z</time>
      </trkpt>
      <trkpt lat="42.0711326133" lon="-7.2310113721">
        <ele>1013.85</ele>
        <time>2020-08-13T06:30:29Z</time>
      </trkpt>
      <trkpt lat="42.0710702520" lon="-7.2310563829">
        <ele>1014.33</ele>
        <time>2020-08-13T06:30:31Z</time>
      </trkpt>
      <trkpt lat="42.0707433578" lon="-7.2311365977">
        <ele>1016.73</ele>
        <time>2020-08-13T06:30:43Z</time>
      </trkpt>
      <trkpt lat="42.0703565329" lon="-7.2312693670">
        <ele>1021.06</ele>
        <time>2020-08-13T06:31:02Z</time>
      </trkpt>
      <trkpt lat="42.0702367555" lon="-7.2313856240">
        <ele>1023.46</ele>
        <time>2020-08-13T06:31:10Z</time>
      </trkpt>
      <trkpt lat="42.0701142959" lon="-7.2315634042">
        <ele>1025.38</ele>
        <time>2020-08-13T06:31:19Z</time>
      </trkpt>
      <trkpt lat="42.0699704625" lon="-7.2317750473">
        <ele>1027.79</ele>
        <time>2020-08-13T06:31:30Z</time>
      </trkpt>
      <trkpt lat="42.0698944386" lon="-7.2319008596">
        <ele>1029.23</ele>
        <time>2020-08-13T06:31:37Z</time>
      </trkpt>
      <trkpt lat="42.0697790198" lon="-7.2321042046">
        <ele>1030.67</ele>
        <time>2020-08-13T06:31:48Z</time>
      </trkpt>
      <trkpt lat="42.0696956199" lon="-7.2322389856">
        <ele>1031.63</ele>
        <time>2020-08-13T06:31:55Z</time>
      </trkpt>
      <trkpt lat="42.0696071070" lon="-7.2324052826">
        <ele>1032.59</ele>
        <time>2020-08-13T06:32:03Z</time>
      </trkpt>
      <trkpt lat="42.0695202705" lon="-7.2325849906">
        <ele>1032.59</ele>
        <time>2020-08-13T06:32:12Z</time>
      </trkpt>
      <trkpt lat="42.0694325119" lon="-7.2327912692">
        <ele>1032.11</ele>
        <time>2020-08-13T06:32:18Z</time>
      </trkpt>
      <trkpt lat="42.0694069471" lon="-7.2328872420">
        <ele>1031.63</ele>
        <time>2020-08-13T06:32:20Z</time>
      </trkpt>
      <trkpt lat="42.0693589188" lon="-7.2333650943">
        <ele>1029.23</ele>
        <time>2020-08-13T06:32:27Z</time>
      </trkpt>
      <trkpt lat="42.0693703182" lon="-7.2339168750">
        <ele>1028.27</ele>
        <time>2020-08-13T06:32:34Z</time>
      </trkpt>
      <trkpt lat="42.0693363715" lon="-7.2342803981">
        <ele>1027.31</ele>
        <time>2020-08-13T06:32:40Z</time>
      </trkpt>
      <trkpt lat="42.0692709088" lon="-7.2346528899">
        <ele>1026.83</ele>
        <time>2020-08-13T06:32:49Z</time>
      </trkpt>
      <trkpt lat="42.0692150015" lon="-7.2350237053">
        <ele>1026.34</ele>
        <time>2020-08-13T06:32:59Z</time>
      </trkpt>
      <trkpt lat="42.0689474512" lon="-7.2360001132">
        <ele>1027.31</ele>
        <time>2020-08-13T06:33:24Z</time>
      </trkpt>
      <trkpt lat="42.0687597804" lon="-7.2363153566">
        <ele>1030.19</ele>
        <time>2020-08-13T06:33:35Z</time>
      </trkpt>
      <trkpt lat="42.0686203055" lon="-7.2364911251">
        <ele>1031.63</ele>
        <time>2020-08-13T06:33:42Z</time>
      </trkpt>
      <trkpt lat="42.0683478937" lon="-7.2367318533">
        <ele>1033.55</ele>
        <time>2020-08-13T06:33:54Z</time>
      </trkpt>
      <trkpt lat="42.0681630727" lon="-7.2368880082">
        <ele>1034.52</ele>
        <time>2020-08-13T06:34:02Z</time>
      </trkpt>
      <trkpt lat="42.0679272898" lon="-7.2370568197">
        <ele>1035.48</ele>
        <time>2020-08-13T06:34:12Z</time>
      </trkpt>
      <trkpt lat="42.0677620824" lon="-7.2372196801">
        <ele>1035.96</ele>
        <time>2020-08-13T06:34:20Z</time>
      </trkpt>
      <trkpt lat="42.0676643495" lon="-7.2374486737">
        <ele>1035.48</ele>
        <time>2020-08-13T06:34:28Z</time>
      </trkpt>
      <trkpt lat="42.0675937738" lon="-7.2377018910">
        <ele>1035.48</ele>
        <time>2020-08-13T06:34:36Z</time>
      </trkpt>
      <trkpt lat="42.0675045066" lon="-7.2379523423">
        <ele>1035.96</ele>
        <time>2020-08-13T06:34:44Z</time>
      </trkpt>
      <trkpt lat="42.0674021635" lon="-7.2382245027">
        <ele>1036.44</ele>
        <time>2020-08-13T06:34:52Z</time>
      </trkpt>
      <trkpt lat="42.0672300830" lon="-7.2386167757">
        <ele>1036.92</ele>
        <time>2020-08-13T06:35:03Z</time>
      </trkpt>
      <trkpt lat="42.0670929551" lon="-7.2389326058">
        <ele>1037.88</ele>
        <time>2020-08-13T06:35:12Z</time>
      </trkpt>
      <trkpt lat="42.0670098066" lon="-7.2392258048">
        <ele>1037.40</ele>
        <time>2020-08-13T06:35:20Z</time>
      </trkpt>
      <trkpt lat="42.0669933781" lon="-7.2395997215">
        <ele>1037.40</ele>
        <time>2020-08-13T06:35:29Z</time>
      </trkpt>
      <trkpt lat="42.0670229662" lon="-7.2399702854">
        <ele>1037.40</ele>
        <time>2020-08-13T06:35:38Z</time>
      </trkpt>
      <trkpt lat="42.0671336912" lon="-7.2402620595">
        <ele>1038.36</ele>
        <time>2020-08-13T06:35:47Z</time>
      </trkpt>
      <trkpt lat="42.0672517084" lon="-7.2404749598">
        <ele>1039.32</ele>
        <time>2020-08-13T06:35:55Z</time>
      </trkpt>
      <trkpt lat="42.0673651155" lon="-7.2406575177">
        <ele>1040.28</ele>
        <time>2020-08-13T06:36:03Z</time>
      </trkpt>
      <trkpt lat="42.0675268862" lon="-7.2408720944">
        <ele>1042.21</ele>
        <time>2020-08-13T06:36:13Z</time>
      </trkpt>
      <trkpt lat="42.0676949434" lon="-7.2409767006">
        <ele>1043.65</ele>
        <time>2020-08-13T06:36:22Z</time>
      </trkpt>
      <trkpt lat="42.0678376034" lon="-7.2410556581">
        <ele>1045.09</ele>
        <time>2020-08-13T06:36:30Z</time>
      </trkpt>
      <trkpt lat="42.0679320674" lon="-7.2411497030">
        <ele>1045.57</ele>
        <time>2020-08-13T06:36:36Z</time>
      </trkpt>
      <trkpt lat="42.0679437183" lon="-7.2411698196">
        <ele>1046.05</ele>
        <time>2020-08-13T06:36:37Z</time>
      </trkpt>
      <trkpt lat="42.0679574646" lon="-7.2411863320">
        <ele>1046.05</ele>
        <time>2020-08-13T06:36:38Z</time>
      </trkpt>
      <trkpt lat="42.0679703727" lon="-7.2412035149">
        <ele>1046.05</ele>
        <time>2020-08-13T06:36:39Z</time>
      </trkpt>
      <trkpt lat="42.0679795090" lon="-7.2412220389">
        <ele>1046.53</ele>
        <time>2020-08-13T06:36:40Z</time>
      </trkpt>
      <trkpt lat="42.0680538565" lon="-7.2413709853">
        <ele>1047.49</ele>
        <time>2020-08-13T06:36:47Z</time>
      </trkpt>
      <trkpt lat="42.0681212470" lon="-7.2416294832">
        <ele>1047.97</ele>
        <time>2020-08-13T06:36:58Z</time>
      </trkpt>
      <trkpt lat="42.0681582112" lon="-7.2418796830">
        <ele>1048.45</ele>
        <time>2020-08-13T06:37:08Z</time>
      </trkpt>
      <trkpt lat="42.0681997016" lon="-7.2421060782">
        <ele>1048.45</ele>
        <time>2020-08-13T06:37:17Z</time>
      </trkpt>
      <trkpt lat="42.0682323072" lon="-7.2423085850">
        <ele>1048.94</ele>
        <time>2020-08-13T06:37:25Z</time>
      </trkpt>
      <trkpt lat="42.0682820957" lon="-7.2425579466">
        <ele>1049.90</ele>
        <time>2020-08-13T06:37:35Z</time>
      </trkpt>
      <trkpt lat="42.0683266874" lon="-7.2427653987">
        <ele>1050.86</ele>
        <time>2020-08-13T06:37:43Z</time>
      </trkpt>
      <trkpt lat="42.0683971792" lon="-7.2430337872">
        <ele>1051.82</ele>
        <time>2020-08-13T06:37:54Z</time>
      </trkpt>
      <trkpt lat="42.0684538409" lon="-7.2432449274">
        <ele>1053.26</ele>
        <time>2020-08-13T06:38:03Z</time>
      </trkpt>
      <trkpt lat="42.0685079880" lon="-7.2433926165">
        <ele>1053.74</ele>
        <time>2020-08-13T06:38:10Z</time>
      </trkpt>
      <trkpt lat="42.0685927290" lon="-7.2435984761">
        <ele>1055.18</ele>
        <time>2020-08-13T06:38:20Z</time>
      </trkpt>
      <trkpt lat="42.0686559286" lon="-7.2437984683">
        <ele>1056.63</ele>
        <time>2020-08-13T06:38:29Z</time>
      </trkpt>
      <trkpt lat="42.0687040407" lon="-7.2441080958">
        <ele>1058.07</ele>
        <time>2020-08-13T06:38:41Z</time>
      </trkpt>
      <trkpt lat="42.0686849300" lon="-7.2443538532">
        <ele>1059.51</ele>
        <time>2020-08-13T06:38:51Z</time>
      </trkpt>
      <trkpt lat="42.0685961656" lon="-7.2445470560">
        <ele>1060.95</ele>
        <time>2020-08-13T06:39:00Z</time>
      </trkpt>
      <trkpt lat="42.0684361551" lon="-7.2447311226">
        <ele>1062.39</ele>
        <time>2020-08-13T06:39:11Z</time>
      </trkpt>
      <trkpt lat="42.0682769828" lon="-7.2448809072">
        <ele>1063.36</ele>
        <time>2020-08-13T06:39:21Z</time>
      </trkpt>
      <trkpt lat="42.0681232587" lon="-7.2450156044">
        <ele>1065.28</ele>
        <time>2020-08-13T06:39:31Z</time>
      </trkpt>
      <trkpt lat="42.0679716300" lon="-7.2451497987">
        <ele>1066.72</ele>
        <time>2020-08-13T06:39:41Z</time>
      </trkpt>
      <trkpt lat="42.0678313170" lon="-7.2452524770">
        <ele>1067.20</ele>
        <time>2020-08-13T06:39:50Z</time>
      </trkpt>
      <trkpt lat="42.0676842146" lon="-7.2453938797">
        <ele>1068.64</ele>
        <time>2020-08-13T06:40:00Z</time>
      </trkpt>
      <trkpt lat="42.0675238688" lon="-7.2455681395">
        <ele>1070.08</ele>
        <time>2020-08-13T06:40:11Z</time>
      </trkpt>
      <trkpt lat="42.0673892554" lon="-7.2457704786">
        <ele>1071.05</ele>
        <time>2020-08-13T06:40:22Z</time>
      </trkpt>
      <trkpt lat="42.0672977250" lon="-7.2459506895">
        <ele>1072.49</ele>
        <time>2020-08-13T06:40:31Z</time>
      </trkpt>
      <trkpt lat="42.0672035962" lon="-7.2461688705">
        <ele>1073.93</ele>
        <time>2020-08-13T06:40:41Z</time>
      </trkpt>
      <trkpt lat="42.0671034325" lon="-7.2463814355">
        <ele>1075.37</ele>
        <time>2020-08-13T06:40:51Z</time>
      </trkpt>
      <trkpt lat="42.0669886004" lon="-7.2465872951">
        <ele>1076.33</ele>
        <time>2020-08-13T06:41:01Z</time>
      </trkpt>
      <trkpt lat="42.0668497961" lon="-7.2467973456">
        <ele>1076.81</ele>
        <time>2020-08-13T06:41:12Z</time>
      </trkpt>
      <trkpt lat="42.0667289291" lon="-7.2469638940">
        <ele>1077.78</ele>
        <time>2020-08-13T06:41:21Z</time>
      </trkpt>
      <trkpt lat="42.0665802341" lon="-7.2471884452">
        <ele>1078.26</ele>
        <time>2020-08-13T06:41:32Z</time>
      </trkpt>
      <trkpt lat="42.0665166155" lon="-7.2473025229">
        <ele>1078.74</ele>
        <time>2020-08-13T06:41:39Z</time>
      </trkpt>
      <trkpt lat="42.0665180404" lon="-7.2472865973">
        <ele>1078.74</ele>
        <time>2020-08-13T06:41:48Z</time>
      </trkpt>
      <trkpt lat="42.0665179566" lon="-7.2472943924">
        <ele>1078.74</ele>
        <time>2020-08-13T06:42:09Z</time>
      </trkpt>
      <trkpt lat="42.0665200520" lon="-7.2472970746">
        <ele>1077.78</ele>
        <time>2020-08-13T06:42:26Z</time>
      </trkpt>
      <trkpt lat="42.0665167831" lon="-7.2472892795">
        <ele>1077.29</ele>
        <time>2020-08-13T06:42:45Z</time>
      </trkpt>
      <trkpt lat="42.0665182918" lon="-7.2472876869">
        <ele>1077.29</ele>
        <time>2020-08-13T06:42:58Z</time>
      </trkpt>
      <trkpt lat="42.0665129274" lon="-7.2472962365">
        <ele>1077.29</ele>
        <time>2020-08-13T06:43:06Z</time>
      </trkpt>
      <trkpt lat="42.0665019471" lon="-7.2473129164">
        <ele>1077.29</ele>
        <time>2020-08-13T06:43:07Z</time>
      </trkpt>
      <trkpt lat="42.0664306171" lon="-7.2475129925">
        <ele>1078.26</ele>
        <time>2020-08-13T06:43:15Z</time>
      </trkpt>
      <trkpt lat="42.0663645677" lon="-7.2477951273">
        <ele>1079.22</ele>
        <time>2020-08-13T06:43:23Z</time>
      </trkpt>
      <trkpt lat="42.0663379133" lon="-7.2482171562">
        <ele>1080.18</ele>
        <time>2020-08-13T06:43:33Z</time>
      </trkpt>
      <trkpt lat="42.0663979277" lon="-7.2486800887">
        <ele>1080.66</ele>
        <time>2020-08-13T06:43:44Z</time>
      </trkpt>
      <trkpt lat="42.0664602891" lon="-7.2490684222">
        <ele>1081.62</ele>
        <time>2020-08-13T06:43:54Z</time>
      </trkpt>
      <trkpt lat="42.0665410906" lon="-7.2495296784">
        <ele>1082.58</ele>
        <time>2020-08-13T06:44:06Z</time>
      </trkpt>
      <trkpt lat="42.0665908791" lon="-7.2499569040">
        <ele>1083.06</ele>
        <time>2020-08-13T06:44:17Z</time>
      </trkpt>
      <trkpt lat="42.0666113310" lon="-7.2503720596">
        <ele>1082.10</ele>
        <time>2020-08-13T06:44:27Z</time>
      </trkpt>
      <trkpt lat="42.0666379854" lon="-7.2508408595">
        <ele>1081.14</ele>
        <time>2020-08-13T06:44:36Z</time>
      </trkpt>
      <trkpt lat="42.0666817389" lon="-7.2512371559">
        <ele>1081.14</ele>
        <time>2020-08-13T06:44:45Z</time>
      </trkpt>
      <trkpt lat="42.0667318627" lon="-7.2516002599">
        <ele>1081.62</ele>
        <time>2020-08-13T06:44:54Z</time>
      </trkpt>
      <trkpt lat="42.0667932183" lon="-7.2519974783">
        <ele>1082.58</ele>
        <time>2020-08-13T06:45:05Z</time>
      </trkpt>
      <trkpt lat="42.0668432582" lon="-7.2523438185">
        <ele>1084.02</ele>
        <time>2020-08-13T06:45:15Z</time>
      </trkpt>
      <trkpt lat="42.0668828208" lon="-7.2526184935">
        <ele>1085.95</ele>
        <time>2020-08-13T06:45:23Z</time>
      </trkpt>
      <trkpt lat="42.0669248980" lon="-7.2529062442">
        <ele>1087.39</ele>
        <time>2020-08-13T06:45:32Z</time>
      </trkpt>
      <trkpt lat="42.0669611078" lon="-7.2532400116">
        <ele>1088.35</ele>
        <time>2020-08-13T06:45:44Z</time>
      </trkpt>
      <trkpt lat="42.0669906959" lon="-7.2534921393">
        <ele>1089.79</ele>
        <time>2020-08-13T06:45:53Z</time>
      </trkpt>
      <trkpt lat="42.0670282468" lon="-7.2537818179">
        <ele>1090.75</ele>
        <time>2020-08-13T06:46:03Z</time>
      </trkpt>
      <trkpt lat="42.0670606848" lon="-7.2541481070">
        <ele>1091.71</ele>
        <time>2020-08-13T06:46:15Z</time>
      </trkpt>
      <trkpt lat="42.0670991577" lon="-7.2545075230">
        <ele>1093.64</ele>
        <time>2020-08-13T06:46:27Z</time>
      </trkpt>
      <trkpt lat="42.0671279915" lon="-7.2548212577">
        <ele>1094.60</ele>
        <time>2020-08-13T06:46:38Z</time>
      </trkpt>
      <trkpt lat="42.0671470184" lon="-7.2550358344">
        <ele>1095.56</ele>
        <time>2020-08-13T06:46:46Z</time>
      </trkpt>
      <trkpt lat="42.0671642013" lon="-7.2552822623">
        <ele>1096.52</ele>
        <time>2020-08-13T06:46:56Z</time>
      </trkpt>
      <trkpt lat="42.0671693143" lon="-7.2554773930">
        <ele>1097.48</ele>
        <time>2020-08-13T06:47:04Z</time>
      </trkpt>
      <trkpt lat="42.0671577472" lon="-7.2557372320">
        <ele>1098.92</ele>
        <time>2020-08-13T06:47:14Z</time>
      </trkpt>
      <trkpt lat="42.0671404805" lon="-7.2559747752">
        <ele>1100.37</ele>
        <time>2020-08-13T06:47:23Z</time>
      </trkpt>
      <trkpt lat="42.0671064500" lon="-7.2562517133">
        <ele>1101.81</ele>
        <time>2020-08-13T06:47:32Z</time>
      </trkpt>
      <trkpt lat="42.0670853276" lon="-7.2564978059">
        <ele>1103.25</ele>
        <time>2020-08-13T06:47:41Z</time>
      </trkpt>
      <trkpt lat="42.0670592599" lon="-7.2567796893">
        <ele>1104.21</ele>
        <time>2020-08-13T06:47:52Z</time>
      </trkpt>
      <trkpt lat="42.0670367964" lon="-7.2570014745">
        <ele>1104.69</ele>
        <time>2020-08-13T06:48:01Z</time>
      </trkpt>
      <trkpt lat="42.0669694059" lon="-7.2573481500">
        <ele>1106.61</ele>
        <time>2020-08-13T06:48:14Z</time>
      </trkpt>
      <trkpt lat="42.0668882690" lon="-7.2576125991">
        <ele>1107.58</ele>
        <time>2020-08-13T06:48:24Z</time>
      </trkpt>
      <trkpt lat="42.0667819865" lon="-7.2578543331">
        <ele>1107.58</ele>
        <time>2020-08-13T06:48:34Z</time>
      </trkpt>
      <trkpt lat="42.0666648075" lon="-7.2580414172">
        <ele>1107.58</ele>
        <time>2020-08-13T06:48:41Z</time>
      </trkpt>
      <trkpt lat="42.0665150229" lon="-7.2582375538">
        <ele>1106.61</ele>
        <time>2020-08-13T06:48:47Z</time>
      </trkpt>
      <trkpt lat="42.0664289407" lon="-7.2584003303">
        <ele>1105.65</ele>
        <time>2020-08-13T06:48:50Z</time>
      </trkpt>
      <trkpt lat="42.0664100815" lon="-7.2584714089">
        <ele>1105.17</ele>
        <time>2020-08-13T06:48:51Z</time>
      </trkpt>
      <trkpt lat="42.0664029568" lon="-7.2585387155">
        <ele>1104.69</ele>
        <time>2020-08-13T06:48:52Z</time>
      </trkpt>
      <trkpt lat="42.0664053038" lon="-7.2586227022">
        <ele>1104.69</ele>
        <time>2020-08-13T06:48:53Z</time>
      </trkpt>
      <trkpt lat="42.0664103329" lon="-7.2586782742">
        <ele>1104.21</ele>
        <time>2020-08-13T06:48:54Z</time>
      </trkpt>
      <trkpt lat="42.0664220676" lon="-7.2587739956">
        <ele>1103.73</ele>
        <time>2020-08-13T06:48:55Z</time>
      </trkpt>
      <trkpt lat="42.0665260870" lon="-7.2593936697">
        <ele>1100.37</ele>
        <time>2020-08-13T06:49:02Z</time>
      </trkpt>
      <trkpt lat="42.0666905399" lon="-7.2602575086">
        <ele>1096.52</ele>
        <time>2020-08-13T06:49:11Z</time>
      </trkpt>
      <trkpt lat="42.0669099782" lon="-7.2611857206">
        <ele>1091.71</ele>
        <time>2020-08-13T06:49:20Z</time>
      </trkpt>
      <trkpt lat="42.0669756085" lon="-7.2618789878">
        <ele>1088.83</ele>
        <time>2020-08-13T06:49:26Z</time>
      </trkpt>
      <trkpt lat="42.0668943878" lon="-7.2627474368">
        <ele>1086.43</ele>
        <time>2020-08-13T06:49:33Z</time>
      </trkpt>
      <trkpt lat="42.0666967425" lon="-7.2637464758">
        <ele>1084.50</ele>
        <time>2020-08-13T06:49:42Z</time>
      </trkpt>
      <trkpt lat="42.0665461197" lon="-7.2646532301">
        <ele>1083.54</ele>
        <time>2020-08-13T06:49:51Z</time>
      </trkpt>
      <trkpt lat="42.0665074792" lon="-7.2650665417">
        <ele>1083.54</ele>
        <time>2020-08-13T06:49:57Z</time>
      </trkpt>
      <trkpt lat="42.0664762147" lon="-7.2653881554">
        <ele>1083.54</ele>
        <time>2020-08-13T06:50:04Z</time>
      </trkpt>
      <trkpt lat="42.0664747898" lon="-7.2656359244">
        <ele>1083.54</ele>
        <time>2020-08-13T06:50:10Z</time>
      </trkpt>
      <trkpt lat="42.0663786493" lon="-7.2659157962">
        <ele>1084.50</ele>
        <time>2020-08-13T06:50:18Z</time>
      </trkpt>
      <trkpt lat="42.0662592910" lon="-7.2662557662">
        <ele>1085.95</ele>
        <time>2020-08-13T06:50:27Z</time>
      </trkpt>
      <trkpt lat="42.0661571156" lon="-7.2665493842">
        <ele>1085.95</ele>
        <time>2020-08-13T06:50:36Z</time>
      </trkpt>
      <trkpt lat="42.0659737196" lon="-7.2667461075">
        <ele>1087.87</ele>
        <time>2020-08-13T06:50:43Z</time>
      </trkpt>
      <trkpt lat="42.0657630824" lon="-7.2669723351">
        <ele>1088.83</ele>
        <time>2020-08-13T06:50:52Z</time>
      </trkpt>
      <trkpt lat="42.0655262098" lon="-7.2673550528">
        <ele>1088.83</ele>
        <time>2020-08-13T06:51:03Z</time>
      </trkpt>
      <trkpt lat="42.0653477591" lon="-7.2676511854">
        <ele>1088.35</ele>
        <time>2020-08-13T06:51:12Z</time>
      </trkpt>
      <trkpt lat="42.0652599167" lon="-7.2679546941">
        <ele>1087.87</ele>
        <time>2020-08-13T06:51:20Z</time>
      </trkpt>
      <trkpt lat="42.0653449930" lon="-7.2682444565">
        <ele>1087.39</ele>
        <time>2020-08-13T06:51:29Z</time>
      </trkpt>
      <trkpt lat="42.0655251201" lon="-7.2684779763">
        <ele>1088.35</ele>
        <time>2020-08-13T06:51:39Z</time>
      </trkpt>
      <trkpt lat="42.0655350946" lon="-7.2684966680">
        <ele>1088.35</ele>
        <time>2020-08-13T06:51:44Z</time>
      </trkpt>
      <trkpt lat="42.0655277185" lon="-7.2684768029">
        <ele>1087.87</ele>
        <time>2020-08-13T06:51:55Z</time>
      </trkpt>
      <trkpt lat="42.0655345917" lon="-7.2684756294">
        <ele>1089.31</ele>
        <time>2020-08-13T06:52:14Z</time>
      </trkpt>
      <trkpt lat="42.0655325800" lon="-7.2684707679">
        <ele>1090.27</ele>
        <time>2020-08-13T06:52:33Z</time>
      </trkpt>
      <trkpt lat="42.0655279700" lon="-7.2684659902">
        <ele>1090.75</ele>
        <time>2020-08-13T06:52:48Z</time>
      </trkpt>
      <trkpt lat="42.0655301493" lon="-7.2684814129">
        <ele>1090.75</ele>
        <time>2020-08-13T06:53:09Z</time>
      </trkpt>
      <trkpt lat="42.0655407105" lon="-7.2684937343">
        <ele>1089.31</ele>
        <time>2020-08-13T06:53:30Z</time>
      </trkpt>
      <trkpt lat="42.0655494276" lon="-7.2685055528">
        <ele>1089.31</ele>
        <time>2020-08-13T06:53:31Z</time>
      </trkpt>
      <trkpt lat="42.0657108631" lon="-7.2686593607">
        <ele>1090.27</ele>
        <time>2020-08-13T06:53:40Z</time>
      </trkpt>
      <trkpt lat="42.0658777468" lon="-7.2688364703">
        <ele>1090.75</ele>
        <time>2020-08-13T06:53:48Z</time>
      </trkpt>
      <trkpt lat="42.0660659205" lon="-7.2690886818">
        <ele>1091.23</ele>
        <time>2020-08-13T06:53:58Z</time>
      </trkpt>
      <trkpt lat="42.0661758911" lon="-7.2692647018">
        <ele>1092.68</ele>
        <time>2020-08-13T06:54:05Z</time>
      </trkpt>
      <trkpt lat="42.0662737917" lon="-7.2695462499">
        <ele>1093.64</ele>
        <time>2020-08-13T06:54:15Z</time>
      </trkpt>
      <trkpt lat="42.0662807487" lon="-7.2697601561">
        <ele>1094.12</ele>
        <time>2020-08-13T06:54:22Z</time>
      </trkpt>
      <trkpt lat="42.0663114265" lon="-7.2700763214">
        <ele>1095.56</ele>
        <time>2020-08-13T06:54:33Z</time>
      </trkpt>
      <trkpt lat="42.0663791522" lon="-7.2703377530">
        <ele>1096.04</ele>
        <time>2020-08-13T06:54:43Z</time>
      </trkpt>
      <trkpt lat="42.0664713532" lon="-7.2705467138">
        <ele>1097.00</ele>
        <time>2020-08-13T06:54:53Z</time>
      </trkpt>
      <trkpt lat="42.0665509813" lon="-7.2706694249">
        <ele>1098.44</ele>
        <time>2020-08-13T06:55:00Z</time>
      </trkpt>
      <trkpt lat="42.0666598622" lon="-7.2708301060">
        <ele>1099.40</ele>
        <time>2020-08-13T06:55:08Z</time>
      </trkpt>
      <trkpt lat="42.0667901170" lon="-7.2709985822">
        <ele>1100.37</ele>
        <time>2020-08-13T06:55:17Z</time>
      </trkpt>
      <trkpt lat="42.0669589285" lon="-7.2712155059">
        <ele>1100.85</ele>
        <time>2020-08-13T06:55:28Z</time>
      </trkpt>
      <trkpt lat="42.0671163406" lon="-7.2713890113">
        <ele>1101.33</ele>
        <time>2020-08-13T06:55:38Z</time>
      </trkpt>
      <trkpt lat="42.0672870800" lon="-7.2715410590">
        <ele>1101.81</ele>
        <time>2020-08-13T06:55:48Z</time>
      </trkpt>
      <trkpt lat="42.0674532093" lon="-7.2716669552">
        <ele>1102.29</ele>
        <time>2020-08-13T06:55:57Z</time>
      </trkpt>
      <trkpt lat="42.0676155668" lon="-7.2717744950">
        <ele>1103.25</ele>
        <time>2020-08-13T06:56:06Z</time>
      </trkpt>
      <trkpt lat="42.0677716378" lon="-7.2718768381">
        <ele>1103.73</ele>
        <time>2020-08-13T06:56:15Z</time>
      </trkpt>
      <trkpt lat="42.0679275412" lon="-7.2719928436">
        <ele>1104.69</ele>
        <time>2020-08-13T06:56:24Z</time>
      </trkpt>
      <trkpt lat="42.0680491626" lon="-7.2721500881">
        <ele>1105.65</ele>
        <time>2020-08-13T06:56:33Z</time>
      </trkpt>
      <trkpt lat="42.0680919103" lon="-7.2724069934">
        <ele>1106.13</ele>
        <time>2020-08-13T06:56:43Z</time>
      </trkpt>
      <trkpt lat="42.0681007951" lon="-7.2726664972">
        <ele>1107.58</ele>
        <time>2020-08-13T06:56:53Z</time>
      </trkpt>
      <trkpt lat="42.0680542756" lon="-7.2729592770">
        <ele>1109.02</ele>
        <time>2020-08-13T06:57:04Z</time>
      </trkpt>
      <trkpt lat="42.0679752342" lon="-7.2731259931">
        <ele>1109.50</ele>
        <time>2020-08-13T06:57:11Z</time>
      </trkpt>
      <trkpt lat="42.0678522717" lon="-7.2733364627">
        <ele>1110.94</ele>
        <time>2020-08-13T06:57:21Z</time>
      </trkpt>
      <trkpt lat="42.0677960292" lon="-7.2735448368">
        <ele>1111.42</ele>
        <time>2020-08-13T06:57:29Z</time>
      </trkpt>
      <trkpt lat="42.0677925088" lon="-7.2738642711">
        <ele>1111.90</ele>
        <time>2020-08-13T06:57:41Z</time>
      </trkpt>
      <trkpt lat="42.0678215940" lon="-7.2741087712">
        <ele>1112.38</ele>
        <time>2020-08-13T06:57:50Z</time>
      </trkpt>
      <trkpt lat="42.0678674430" lon="-7.2743562050">
        <ele>1112.86</ele>
        <time>2020-08-13T06:57:59Z</time>
      </trkpt>
      <trkpt lat="42.0679274574" lon="-7.2745590471">
        <ele>1113.34</ele>
        <time>2020-08-13T06:58:07Z</time>
      </trkpt>
      <trkpt lat="42.0680076722" lon="-7.2747839335">
        <ele>1114.79</ele>
        <time>2020-08-13T06:58:16Z</time>
      </trkpt>
      <trkpt lat="42.0680845343" lon="-7.2750122566">
        <ele>1114.79</ele>
        <time>2020-08-13T06:58:25Z</time>
      </trkpt>
      <trkpt lat="42.0681696106" lon="-7.2752701677">
        <ele>1115.75</ele>
        <time>2020-08-13T06:58:34Z</time>
      </trkpt>
      <trkpt lat="42.0682594646" lon="-7.2755991574">
        <ele>1115.27</ele>
        <time>2020-08-13T06:58:44Z</time>
      </trkpt>
      <trkpt lat="42.0682827663" lon="-7.2759245429">
        <ele>1115.27</ele>
        <time>2020-08-13T06:58:53Z</time>
      </trkpt>
      <trkpt lat="42.0681846980" lon="-7.2761462443">
        <ele>1115.75</ele>
        <time>2020-08-13T06:58:59Z</time>
      </trkpt>
      <trkpt lat="42.0680909045" lon="-7.2763552051">
        <ele>1116.23</ele>
        <time>2020-08-13T06:59:05Z</time>
      </trkpt>
      <trkpt lat="42.0680176467" lon="-7.2766691074">
        <ele>1116.23</ele>
        <time>2020-08-13T06:59:13Z</time>
      </trkpt>
      <trkpt lat="42.0679939259" lon="-7.2769808304">
        <ele>1116.71</ele>
        <time>2020-08-13T06:59:21Z</time>
      </trkpt>
      <trkpt lat="42.0680061635" lon="-7.2774408292">
        <ele>1116.71</ele>
        <time>2020-08-13T06:59:32Z</time>
      </trkpt>
      <trkpt lat="42.0680626575" lon="-7.2777888458">
        <ele>1115.75</ele>
        <time>2020-08-13T06:59:39Z</time>
      </trkpt>
      <trkpt lat="42.0681755617" lon="-7.2782690451">
        <ele>1113.82</ele>
        <time>2020-08-13T06:59:47Z</time>
      </trkpt>
      <trkpt lat="42.0682579558" lon="-7.2785895690">
        <ele>1113.34</ele>
        <time>2020-08-13T06:59:52Z</time>
      </trkpt>
      <trkpt lat="42.0682670083" lon="-7.2786556184">
        <ele>1113.34</ele>
        <time>2020-08-13T06:59:53Z</time>
      </trkpt>
      <trkpt lat="42.0682692714" lon="-7.2787240986">
        <ele>1113.34</ele>
        <time>2020-08-13T06:59:54Z</time>
      </trkpt>
      <trkpt lat="42.0682621468" lon="-7.2787935846">
        <ele>1113.34</ele>
        <time>2020-08-13T06:59:55Z</time>
      </trkpt>
      <trkpt lat="42.0682463888" lon="-7.2788578738">
        <ele>1113.34</ele>
        <time>2020-08-13T06:59:56Z</time>
      </trkpt>
      <trkpt lat="42.0682211593" lon="-7.2789178044">
        <ele>1112.86</ele>
        <time>2020-08-13T06:59:57Z</time>
      </trkpt>
      <trkpt lat="42.0681722928" lon="-7.2789853625">
        <ele>1112.38</ele>
        <time>2020-08-13T06:59:58Z</time>
      </trkpt>
      <trkpt lat="42.0681428723" lon="-7.2790167946">
        <ele>1111.90</ele>
        <time>2020-08-13T06:59:59Z</time>
      </trkpt>
      <trkpt lat="42.0681017172" lon="-7.2790618055">
        <ele>1111.90</ele>
        <time>2020-08-13T07:00:00Z</time>
      </trkpt>
      <trkpt lat="42.0680608135" lon="-7.2791106720">
        <ele>1111.42</ele>
        <time>2020-08-13T07:00:01Z</time>
      </trkpt>
      <trkpt lat="42.0679820236" lon="-7.2792187147">
        <ele>1110.94</ele>
        <time>2020-08-13T07:00:03Z</time>
      </trkpt>
      <trkpt lat="42.0679370966" lon="-7.2793032043">
        <ele>1110.94</ele>
        <time>2020-08-13T07:00:04Z</time>
      </trkpt>
      <trkpt lat="42.0679135434" lon="-7.2793615423">
        <ele>1110.46</ele>
        <time>2020-08-13T07:00:05Z</time>
      </trkpt>
      <trkpt lat="42.0678903256" lon="-7.2794350516">
        <ele>1110.46</ele>
        <time>2020-08-13T07:00:06Z</time>
      </trkpt>
      <trkpt lat="42.0678697061" lon="-7.2795153502">
        <ele>1110.46</ele>
        <time>2020-08-13T07:00:07Z</time>
      </trkpt>
      <trkpt lat="42.0677924249" lon="-7.2797540668">
        <ele>1109.98</ele>
        <time>2020-08-13T07:00:10Z</time>
      </trkpt>
      <trkpt lat="42.0677213464" lon="-7.2798719164">
        <ele>1109.98</ele>
        <time>2020-08-13T07:00:12Z</time>
      </trkpt>
      <trkpt lat="42.0676639304" lon="-7.2799273208">
        <ele>1109.98</ele>
        <time>2020-08-13T07:00:13Z</time>
      </trkpt>
      <trkpt lat="42.0676153991" lon="-7.2799658775">
        <ele>1109.98</ele>
        <time>2020-08-13T07:00:14Z</time>
      </trkpt>
      <trkpt lat="42.0675649401" lon="-7.2799957171">
        <ele>1109.98</ele>
        <time>2020-08-13T07:00:15Z</time>
      </trkpt>
      <trkpt lat="42.0675060991" lon="-7.2800237127">
        <ele>1109.98</ele>
        <time>2020-08-13T07:00:16Z</time>
      </trkpt>
      <trkpt lat="42.0674648602" lon="-7.2800365370">
        <ele>1109.98</ele>
        <time>2020-08-13T07:00:17Z</time>
      </trkpt>
      <trkpt lat="42.0674165804" lon="-7.2800489422">
        <ele>1109.98</ele>
        <time>2020-08-13T07:00:18Z</time>
      </trkpt>
      <trkpt lat="42.0671921130" lon="-7.2800779436">
        <ele>1109.02</ele>
        <time>2020-08-13T07:00:23Z</time>
      </trkpt>
      <trkpt lat="42.0671461802" lon="-7.2800973058">
        <ele>1109.02</ele>
        <time>2020-08-13T07:00:24Z</time>
      </trkpt>
      <trkpt lat="42.0671035163" lon="-7.2801276483">
        <ele>1109.02</ele>
        <time>2020-08-13T07:00:25Z</time>
      </trkpt>
      <trkpt lat="42.0670531411" lon="-7.2801751737">
        <ele>1108.54</ele>
        <time>2020-08-13T07:00:26Z</time>
      </trkpt>
      <trkpt lat="42.0670177694" lon="-7.2802194301">
        <ele>1108.54</ele>
        <time>2020-08-13T07:00:27Z</time>
      </trkpt>
      <trkpt lat="42.0669787936" lon="-7.2802725714">
        <ele>1108.54</ele>
        <time>2020-08-13T07:00:28Z</time>
      </trkpt>
      <trkpt lat="42.0667511411" lon="-7.2807199974">
        <ele>1107.58</ele>
        <time>2020-08-13T07:00:35Z</time>
      </trkpt>
      <trkpt lat="42.0666786376" lon="-7.2808246035">
        <ele>1107.58</ele>
        <time>2020-08-13T07:00:37Z</time>
      </trkpt>
      <trkpt lat="42.0666293520" lon="-7.2808704525">
        <ele>1107.58</ele>
        <time>2020-08-13T07:00:38Z</time>
      </trkpt>
      <trkpt lat="42.0664393343" lon="-7.2810245119">
        <ele>1108.06</ele>
        <time>2020-08-13T07:00:42Z</time>
      </trkpt>
      <trkpt lat="42.0663999394" lon="-7.2810692713">
        <ele>1108.06</ele>
        <time>2020-08-13T07:00:43Z</time>
      </trkpt>
      <trkpt lat="42.0663642325" lon="-7.2811183054">
        <ele>1108.06</ele>
        <time>2020-08-13T07:00:44Z</time>
      </trkpt>
      <trkpt lat="42.0663283579" lon="-7.2811790742">
        <ele>1108.06</ele>
        <time>2020-08-13T07:00:45Z</time>
      </trkpt>
      <trkpt lat="42.0662946627" lon="-7.2812509071">
        <ele>1108.06</ele>
        <time>2020-08-13T07:00:46Z</time>
      </trkpt>
      <trkpt lat="42.0662761386" lon="-7.2812986840">
        <ele>1108.06</ele>
        <time>2020-08-13T07:00:47Z</time>
      </trkpt>
      <trkpt lat="42.0662615541" lon="-7.2813358996">
        <ele>1108.54</ele>
        <time>2020-08-13T07:00:48Z</time>
      </trkpt>
      <trkpt lat="42.0660079177" lon="-7.2818758618">
        <ele>1108.54</ele>
        <time>2020-08-13T07:00:59Z</time>
      </trkpt>
      <trkpt lat="42.0658681076" lon="-7.2821452562">
        <ele>1107.58</ele>
        <time>2020-08-13T07:01:04Z</time>
      </trkpt>
      <trkpt lat="42.0658363402" lon="-7.2821885906">
        <ele>1107.10</ele>
        <time>2020-08-13T07:01:05Z</time>
      </trkpt>
      <trkpt lat="42.0657996275" lon="-7.2822325118">
        <ele>1106.61</ele>
        <time>2020-08-13T07:01:06Z</time>
      </trkpt>
      <trkpt lat="42.0655736513" lon="-7.2824346833">
        <ele>1104.21</ele>
        <time>2020-08-13T07:01:11Z</time>
      </trkpt>
      <trkpt lat="42.0654770080" lon="-7.2824803647">
        <ele>1103.73</ele>
        <time>2020-08-13T07:01:13Z</time>
      </trkpt>
      <trkpt lat="42.0654233638" lon="-7.2824937757">
        <ele>1103.25</ele>
        <time>2020-08-13T07:01:14Z</time>
      </trkpt>
      <trkpt lat="42.0653580688" lon="-7.2824977152">
        <ele>1102.77</ele>
        <time>2020-08-13T07:01:15Z</time>
      </trkpt>
      <trkpt lat="42.0652071107" lon="-7.2824780177">
        <ele>1101.33</ele>
        <time>2020-08-13T07:01:18Z</time>
      </trkpt>
      <trkpt lat="42.0647349581" lon="-7.2823296580">
        <ele>1097.00</ele>
        <time>2020-08-13T07:01:23Z</time>
      </trkpt>
      <trkpt lat="42.0643253345" lon="-7.2821836453">
        <ele>1094.60</ele>
        <time>2020-08-13T07:01:29Z</time>
      </trkpt>
      <trkpt lat="42.0642436948" lon="-7.2822015826">
        <ele>1093.64</ele>
        <time>2020-08-13T07:01:30Z</time>
      </trkpt>
      <trkpt lat="42.0641680900" lon="-7.2822629381">
        <ele>1093.64</ele>
        <time>2020-08-13T07:01:32Z</time>
      </trkpt>
      <trkpt lat="42.0641290303" lon="-7.2823327594">
        <ele>1093.64</ele>
        <time>2020-08-13T07:01:33Z</time>
      </trkpt>
      <trkpt lat="42.0638900623" lon="-7.2828021459">
        <ele>1091.71</ele>
        <time>2020-08-13T07:01:41Z</time>
      </trkpt>
      <trkpt lat="42.0636427123" lon="-7.2832563613">
        <ele>1088.83</ele>
        <time>2020-08-13T07:01:48Z</time>
      </trkpt>
      <trkpt lat="42.0632920135" lon="-7.2836747020">
        <ele>1086.91</ele>
        <time>2020-08-13T07:01:55Z</time>
      </trkpt>
      <trkpt lat="42.0630728267" lon="-7.2838830762">
        <ele>1086.91</ele>
        <time>2020-08-13T07:02:00Z</time>
      </trkpt>
      <trkpt lat="42.0627984870" lon="-7.2841233015">
        <ele>1084.99</ele>
        <time>2020-08-13T07:02:06Z</time>
      </trkpt>
      <trkpt lat="42.0627565775" lon="-7.2841768619">
        <ele>1084.50</ele>
        <time>2020-08-13T07:02:07Z</time>
      </trkpt>
      <trkpt lat="42.0627103094" lon="-7.2842491977">
        <ele>1084.02</ele>
        <time>2020-08-13T07:02:08Z</time>
      </trkpt>
      <trkpt lat="42.0626603533" lon="-7.2843663767">
        <ele>1083.06</ele>
        <time>2020-08-13T07:02:09Z</time>
      </trkpt>
      <trkpt lat="42.0626406558" lon="-7.2844506148">
        <ele>1083.06</ele>
        <time>2020-08-13T07:02:10Z</time>
      </trkpt>
      <trkpt lat="42.0626277477" lon="-7.2845122218">
        <ele>1082.58</ele>
        <time>2020-08-13T07:02:11Z</time>
      </trkpt>
      <trkpt lat="42.0625521429" lon="-7.2847798560">
        <ele>1081.14</ele>
        <time>2020-08-13T07:02:14Z</time>
      </trkpt>
      <trkpt lat="42.0625109039" lon="-7.2848711349">
        <ele>1080.66</ele>
        <time>2020-08-13T07:02:15Z</time>
      </trkpt>
      <trkpt lat="42.0622265060" lon="-7.2853017133">
        <ele>1078.26</ele>
        <time>2020-08-13T07:02:22Z</time>
      </trkpt>
      <trkpt lat="42.0621871110" lon="-7.2853490710">
        <ele>1077.78</ele>
        <time>2020-08-13T07:02:23Z</time>
      </trkpt>
      <trkpt lat="42.0621428546" lon="-7.2854010388">
        <ele>1077.29</ele>
        <time>2020-08-13T07:02:24Z</time>
      </trkpt>
      <trkpt lat="42.0620261785" lon="-7.2855711076">
        <ele>1075.37</ele>
        <time>2020-08-13T07:02:27Z</time>
      </trkpt>
      <trkpt lat="42.0619863644" lon="-7.2856737860">
        <ele>1074.41</ele>
        <time>2020-08-13T07:02:28Z</time>
      </trkpt>
      <trkpt lat="42.0619685948" lon="-7.2857759614">
        <ele>1073.45</ele>
        <time>2020-08-13T07:02:29Z</time>
      </trkpt>
      <trkpt lat="42.0619712770" lon="-7.2859138437">
        <ele>1072.49</ele>
        <time>2020-08-13T07:02:31Z</time>
      </trkpt>
      <trkpt lat="42.0619918965" lon="-7.2860668972">
        <ele>1071.05</ele>
        <time>2020-08-13T07:02:32Z</time>
      </trkpt>
      <trkpt lat="42.0621437766" lon="-7.2869980428">
        <ele>1066.72</ele>
        <time>2020-08-13T07:02:40Z</time>
      </trkpt>
      <trkpt lat="42.0621889550" lon="-7.2875969298">
        <ele>1066.24</ele>
        <time>2020-08-13T07:02:46Z</time>
      </trkpt>
      <trkpt lat="42.0622071438" lon="-7.2878952418">
        <ele>1066.72</ele>
        <time>2020-08-13T07:02:51Z</time>
      </trkpt>
      <trkpt lat="42.0622275956" lon="-7.2882663086">
        <ele>1068.16</ele>
        <time>2020-08-13T07:02:59Z</time>
      </trkpt>
      <trkpt lat="42.0622441079" lon="-7.2885681409">
        <ele>1069.60</ele>
        <time>2020-08-13T07:03:06Z</time>
      </trkpt>
      <trkpt lat="42.0622770488" lon="-7.2889378667">
        <ele>1070.08</ele>
        <time>2020-08-13T07:03:14Z</time>
      </trkpt>
      <trkpt lat="42.0623195451" lon="-7.2893514298">
        <ele>1070.08</ele>
        <time>2020-08-13T07:03:23Z</time>
      </trkpt>
      <trkpt lat="42.0623481274" lon="-7.2897630651">
        <ele>1070.08</ele>
        <time>2020-08-13T07:03:32Z</time>
      </trkpt>
      <trkpt lat="42.0623710938" lon="-7.2902207170">
        <ele>1070.57</ele>
        <time>2020-08-13T07:03:41Z</time>
      </trkpt>
      <trkpt lat="42.0623252448" lon="-7.2906557377">
        <ele>1072.01</ele>
        <time>2020-08-13T07:03:50Z</time>
      </trkpt>
      <trkpt lat="42.0622124244" lon="-7.2912789322">
        <ele>1073.93</ele>
        <time>2020-08-13T07:04:04Z</time>
      </trkpt>
      <trkpt lat="42.0621472970" lon="-7.2917133663">
        <ele>1073.93</ele>
        <time>2020-08-13T07:04:13Z</time>
      </trkpt>
      <trkpt lat="42.0620680880" lon="-7.2921980079">
        <ele>1074.89</ele>
        <time>2020-08-13T07:04:23Z</time>
      </trkpt>
      <trkpt lat="42.0620249212" lon="-7.2925052885">
        <ele>1075.37</ele>
        <time>2020-08-13T07:04:32Z</time>
      </trkpt>
      <trkpt lat="42.0619967580" lon="-7.2929483559">
        <ele>1075.85</ele>
        <time>2020-08-13T07:04:42Z</time>
      </trkpt>
      <trkpt lat="42.0619761385" lon="-7.2934568021">
        <ele>1075.85</ele>
        <time>2020-08-13T07:04:52Z</time>
      </trkpt>
      <trkpt lat="42.0619437005" lon="-7.2939620633">
        <ele>1075.85</ele>
        <time>2020-08-13T07:05:03Z</time>
      </trkpt>
      <trkpt lat="42.0619640686" lon="-7.2944320366">
        <ele>1075.85</ele>
        <time>2020-08-13T07:05:13Z</time>
      </trkpt>
      <trkpt lat="42.0620502345" lon="-7.2948975675">
        <ele>1075.85</ele>
        <time>2020-08-13T07:05:23Z</time>
      </trkpt>
      <trkpt lat="42.0622231532" lon="-7.2950557340">
        <ele>1076.33</ele>
        <time>2020-08-13T07:05:29Z</time>
      </trkpt>
      <trkpt lat="42.0624282584" lon="-7.2951181792">
        <ele>1076.81</ele>
        <time>2020-08-13T07:05:35Z</time>
      </trkpt>
      <trkpt lat="42.0627976488" lon="-7.2951519582">
        <ele>1076.81</ele>
        <time>2020-08-13T07:05:46Z</time>
      </trkpt>
      <trkpt lat="42.0631537959" lon="-7.2950977273">
        <ele>1077.29</ele>
        <time>2020-08-13T07:05:56Z</time>
      </trkpt>
      <trkpt lat="42.0633495972" lon="-7.2952280659">
        <ele>1077.78</ele>
        <time>2020-08-13T07:06:03Z</time>
      </trkpt>
      <trkpt lat="42.0634824503" lon="-7.2955210134">
        <ele>1076.33</ele>
        <time>2020-08-13T07:06:11Z</time>
      </trkpt>
      <trkpt lat="42.0634826180" lon="-7.2958307248">
        <ele>1075.85</ele>
        <time>2020-08-13T07:06:18Z</time>
      </trkpt>
      <trkpt lat="42.0634156466" lon="-7.2962059826">
        <ele>1075.85</ele>
        <time>2020-08-13T07:06:27Z</time>
      </trkpt>
      <trkpt lat="42.0632971264" lon="-7.2965524904">
        <ele>1075.37</ele>
        <time>2020-08-13T07:06:35Z</time>
      </trkpt>
      <trkpt lat="42.0631232858" lon="-7.2968836594">
        <ele>1075.37</ele>
        <time>2020-08-13T07:06:43Z</time>
      </trkpt>
      <trkpt lat="42.0629460085" lon="-7.2972583305">
        <ele>1075.37</ele>
        <time>2020-08-13T07:06:52Z</time>
      </trkpt>
      <trkpt lat="42.0628084615" lon="-7.2976600751">
        <ele>1075.37</ele>
        <time>2020-08-13T07:07:01Z</time>
      </trkpt>
      <trkpt lat="42.0628333557" lon="-7.2980365064">
        <ele>1074.89</ele>
        <time>2020-08-13T07:07:09Z</time>
      </trkpt>
      <trkpt lat="42.0627925359" lon="-7.2984773945">
        <ele>1074.89</ele>
        <time>2020-08-13T07:07:18Z</time>
      </trkpt>
      <trkpt lat="42.0627038553" lon="-7.2987618763">
        <ele>1075.37</ele>
        <time>2020-08-13T07:07:25Z</time>
      </trkpt>
      <trkpt lat="42.0626062900" lon="-7.2990810592">
        <ele>1075.85</ele>
        <time>2020-08-13T07:07:33Z</time>
      </trkpt>
      <trkpt lat="42.0626875106" lon="-7.2993118968">
        <ele>1075.37</ele>
        <time>2020-08-13T07:07:39Z</time>
      </trkpt>
      <trkpt lat="42.0627668034" lon="-7.2995482665">
        <ele>1075.37</ele>
        <time>2020-08-13T07:07:48Z</time>
      </trkpt>
      <trkpt lat="42.0627709106" lon="-7.2995546367">
        <ele>1075.37</ele>
        <time>2020-08-13T07:07:54Z</time>
      </trkpt>
      <trkpt lat="42.0627788734" lon="-7.2995703947">
        <ele>1073.93</ele>
        <time>2020-08-13T07:08:10Z</time>
      </trkpt>
      <trkpt lat="42.0627819747" lon="-7.2995824646">
        <ele>1073.45</ele>
        <time>2020-08-13T07:08:25Z</time>
      </trkpt>
      <trkpt lat="42.0627709944" lon="-7.2996038385">
        <ele>1074.89</ele>
        <time>2020-08-13T07:08:31Z</time>
      </trkpt>
      <trkpt lat="42.0627749339" lon="-7.2996190935">
        <ele>1074.89</ele>
        <time>2020-08-13T07:08:32Z</time>
      </trkpt>
      <trkpt lat="42.0628087968" lon="-7.2998094466">
        <ele>1074.41</ele>
        <time>2020-08-13T07:08:38Z</time>
      </trkpt>
      <trkpt lat="42.0628945436" lon="-7.2999933455">
        <ele>1074.41</ele>
        <time>2020-08-13T07:08:43Z</time>
      </trkpt>
      <trkpt lat="42.0630825497" lon="-7.3000805173">
        <ele>1075.37</ele>
        <time>2020-08-13T07:08:50Z</time>
      </trkpt>
      <trkpt lat="42.0632962883" lon="-7.3002666794">
        <ele>1075.85</ele>
        <time>2020-08-13T07:08:59Z</time>
      </trkpt>
      <trkpt lat="42.0633599069" lon="-7.3003610596">
        <ele>1075.85</ele>
        <time>2020-08-13T07:09:05Z</time>
      </trkpt>
      <trkpt lat="42.0633564703" lon="-7.3003668431">
        <ele>1076.81</ele>
        <time>2020-08-13T07:09:15Z</time>
      </trkpt>
      <trkpt lat="42.0633540396" lon="-7.3003566172">
        <ele>1076.33</ele>
        <time>2020-08-13T07:09:32Z</time>
      </trkpt>
      <trkpt lat="42.0633532852" lon="-7.3003598023">
        <ele>1075.37</ele>
        <time>2020-08-13T07:09:46Z</time>
      </trkpt>
      <trkpt lat="42.0633524470" lon="-7.3003674299">
        <ele>1075.37</ele>
        <time>2020-08-13T07:10:02Z</time>
      </trkpt>
      <trkpt lat="42.0633545425" lon="-7.3003681004">
        <ele>1075.37</ele>
        <time>2020-08-13T07:10:16Z</time>
      </trkpt>
      <trkpt lat="42.0633511897" lon="-7.3003587965">
        <ele>1075.37</ele>
        <time>2020-08-13T07:10:37Z</time>
      </trkpt>
      <trkpt lat="42.0633547101" lon="-7.3003567010">
        <ele>1075.37</ele>
        <time>2020-08-13T07:10:51Z</time>
      </trkpt>
      <trkpt lat="42.0633666124" lon="-7.3003837746">
        <ele>1074.89</ele>
        <time>2020-08-13T07:11:03Z</time>
      </trkpt>
      <trkpt lat="42.0634109527" lon="-7.3005562741">
        <ele>1075.37</ele>
        <time>2020-08-13T07:11:09Z</time>
      </trkpt>
      <trkpt lat="42.0634653512" lon="-7.3009484634">
        <ele>1075.85</ele>
        <time>2020-08-13T07:11:18Z</time>
      </trkpt>
      <trkpt lat="42.0634956937" lon="-7.3013982363">
        <ele>1075.37</ele>
        <time>2020-08-13T07:11:28Z</time>
      </trkpt>
      <trkpt lat="42.0635947678" lon="-7.3017364461">
        <ele>1074.89</ele>
        <time>2020-08-13T07:11:36Z</time>
      </trkpt>
      <trkpt lat="42.0636330731" lon="-7.3017559759">
        <ele>1074.89</ele>
        <time>2020-08-13T07:11:37Z</time>
      </trkpt>
      <trkpt lat="42.0636673551" lon="-7.3017629329">
        <ele>1074.89</ele>
        <time>2020-08-13T07:11:38Z</time>
      </trkpt>
      <trkpt lat="42.0637021400" lon="-7.3017646093">
        <ele>1075.37</ele>
        <time>2020-08-13T07:11:39Z</time>
      </trkpt>
      <trkpt lat="42.0637386013" lon="-7.3017641902">
        <ele>1075.37</ele>
        <time>2020-08-13T07:11:40Z</time>
      </trkpt>
      <trkpt lat="42.0639351569" lon="-7.3018732388">
        <ele>1075.85</ele>
        <time>2020-08-13T07:11:46Z</time>
      </trkpt>
      <trkpt lat="42.0639984403" lon="-7.3020101152">
        <ele>1076.33</ele>
        <time>2020-08-13T07:11:49Z</time>
      </trkpt>
      <trkpt lat="42.0640126895" lon="-7.3020634241">
        <ele>1076.33</ele>
        <time>2020-08-13T07:11:50Z</time>
      </trkpt>
      <trkpt lat="42.0640235860" lon="-7.3021166492">
        <ele>1076.81</ele>
        <time>2020-08-13T07:11:51Z</time>
      </trkpt>
      <trkpt lat="42.0641139429" lon="-7.3026332259">
        <ele>1075.37</ele>
        <time>2020-08-13T07:12:01Z</time>
      </trkpt>
      <trkpt lat="42.0641811658" lon="-7.3031030316">
        <ele>1073.93</ele>
        <time>2020-08-13T07:12:10Z</time>
      </trkpt>
      <trkpt lat="42.0641853567" lon="-7.3031560890">
        <ele>1073.93</ele>
        <time>2020-08-13T07:12:11Z</time>
      </trkpt>
      <trkpt lat="42.0642284397" lon="-7.3034436721">
        <ele>1072.97</ele>
        <time>2020-08-13T07:12:16Z</time>
      </trkpt>
      <trkpt lat="42.0642467123" lon="-7.3035043571">
        <ele>1072.49</ele>
        <time>2020-08-13T07:12:17Z</time>
      </trkpt>
      <trkpt lat="42.0642739534" lon="-7.3035600968">
        <ele>1072.01</ele>
        <time>2020-08-13T07:12:18Z</time>
      </trkpt>
      <trkpt lat="42.0643100794" lon="-7.3036119808">
        <ele>1071.53</ele>
        <time>2020-08-13T07:12:19Z</time>
      </trkpt>
      <trkpt lat="42.0643578563" lon="-7.3036560696">
        <ele>1071.53</ele>
        <time>2020-08-13T07:12:20Z</time>
      </trkpt>
      <trkpt lat="42.0644078963" lon="-7.3036918603">
        <ele>1070.57</ele>
        <time>2020-08-13T07:12:21Z</time>
      </trkpt>
      <trkpt lat="42.0644599479" lon="-7.3037249688">
        <ele>1070.08</ele>
        <time>2020-08-13T07:12:22Z</time>
      </trkpt>
      <trkpt lat="42.0646803081" lon="-7.3038814589">
        <ele>1068.16</ele>
        <time>2020-08-13T07:12:26Z</time>
      </trkpt>
      <trkpt lat="42.0647254866" lon="-7.3039308283">
        <ele>1068.16</ele>
        <time>2020-08-13T07:12:27Z</time>
      </trkpt>
      <trkpt lat="42.0647644624" lon="-7.3039846402">
        <ele>1067.68</ele>
        <time>2020-08-13T07:12:28Z</time>
      </trkpt>
      <trkpt lat="42.0647997502" lon="-7.3040495999">
        <ele>1067.20</ele>
        <time>2020-08-13T07:12:29Z</time>
      </trkpt>
      <trkpt lat="42.0648274105" lon="-7.3041184992">
        <ele>1067.20</ele>
        <time>2020-08-13T07:12:30Z</time>
      </trkpt>
      <trkpt lat="42.0648502093" lon="-7.3041961156">
        <ele>1066.72</ele>
        <time>2020-08-13T07:12:31Z</time>
      </trkpt>
      <trkpt lat="42.0648668893" lon="-7.3042722233">
        <ele>1066.24</ele>
        <time>2020-08-13T07:12:32Z</time>
      </trkpt>
      <trkpt lat="42.0648794621" lon="-7.3043497559">
        <ele>1065.76</ele>
        <time>2020-08-13T07:12:33Z</time>
      </trkpt>
      <trkpt lat="42.0649095532" lon="-7.3049046379">
        <ele>1062.87</ele>
        <time>2020-08-13T07:12:39Z</time>
      </trkpt>
      <trkpt lat="42.0648531429" lon="-7.3055089731">
        <ele>1060.47</ele>
        <time>2020-08-13T07:12:45Z</time>
      </trkpt>
      <trkpt lat="42.0648069587" lon="-7.3056808859">
        <ele>1059.99</ele>
        <time>2020-08-13T07:12:47Z</time>
      </trkpt>
      <trkpt lat="42.0647712518" lon="-7.3057450075">
        <ele>1059.51</ele>
        <time>2020-08-13T07:12:48Z</time>
      </trkpt>
      <trkpt lat="42.0647193678" lon="-7.3058058601">
        <ele>1059.03</ele>
        <time>2020-08-13T07:12:49Z</time>
      </trkpt>
      <trkpt lat="42.0646649692" lon="-7.3058509547">
        <ele>1058.55</ele>
        <time>2020-08-13T07:12:50Z</time>
      </trkpt>
      <trkpt lat="42.0646131691" lon="-7.3058864940">
        <ele>1058.55</ele>
        <time>2020-08-13T07:12:51Z</time>
      </trkpt>
      <trkpt lat="42.0645223092" lon="-7.3059664574">
        <ele>1057.59</ele>
        <time>2020-08-13T07:12:53Z</time>
      </trkpt>
      <trkpt lat="42.0644983370" lon="-7.3060196824">
        <ele>1057.59</ele>
        <time>2020-08-13T07:12:54Z</time>
      </trkpt>
      <trkpt lat="42.0644966606" lon="-7.3060775176">
        <ele>1057.11</ele>
        <time>2020-08-13T07:12:55Z</time>
      </trkpt>
      <trkpt lat="42.0645164419" lon="-7.3061382025">
        <ele>1056.63</ele>
        <time>2020-08-13T07:12:56Z</time>
      </trkpt>
      <trkpt lat="42.0645445213" lon="-7.3061860632">
        <ele>1056.63</ele>
        <time>2020-08-13T07:12:57Z</time>
      </trkpt>
      <trkpt lat="42.0645734388" lon="-7.3062306549">
        <ele>1056.15</ele>
        <time>2020-08-13T07:12:58Z</time>
      </trkpt>
      <trkpt lat="42.0646014344" lon="-7.3062823713">
        <ele>1056.15</ele>
        <time>2020-08-13T07:12:59Z</time>
      </trkpt>
      <trkpt lat="42.0646264963" lon="-7.3063398711">
        <ele>1056.15</ele>
        <time>2020-08-13T07:13:00Z</time>
      </trkpt>
      <trkpt lat="42.0646467805" lon="-7.3063954432">
        <ele>1055.67</ele>
        <time>2020-08-13T07:13:01Z</time>
      </trkpt>
      <trkpt lat="42.0646648016" lon="-7.3064500093">
        <ele>1055.67</ele>
        <time>2020-08-13T07:13:02Z</time>
      </trkpt>
      <trkpt lat="42.0647138357" lon="-7.3066286277">
        <ele>1055.18</ele>
        <time>2020-08-13T07:13:05Z</time>
      </trkpt>
      <trkpt lat="42.0647250675" lon="-7.3066971079">
        <ele>1054.70</ele>
        <time>2020-08-13T07:13:06Z</time>
      </trkpt>
      <trkpt lat="42.0647300966" lon="-7.3067626543">
        <ele>1054.70</ele>
        <time>2020-08-13T07:13:07Z</time>
      </trkpt>
      <trkpt lat="42.0647305995" lon="-7.3068292066">
        <ele>1054.22</ele>
        <time>2020-08-13T07:13:08Z</time>
      </trkpt>
      <trkpt lat="42.0647300966" lon="-7.3069083318">
        <ele>1053.74</ele>
        <time>2020-08-13T07:13:09Z</time>
      </trkpt>
      <trkpt lat="42.0647300966" lon="-7.3069864511">
        <ele>1053.26</ele>
        <time>2020-08-13T07:13:10Z</time>
      </trkpt>
      <trkpt lat="42.0647385623" lon="-7.3072594497">
        <ele>1051.34</ele>
        <time>2020-08-13T07:13:13Z</time>
      </trkpt>
      <trkpt lat="42.0647583436" lon="-7.3073628824">
        <ele>1050.38</ele>
        <time>2020-08-13T07:13:14Z</time>
      </trkpt>
      <trkpt lat="42.0647933800" lon="-7.3074718472">
        <ele>1049.42</ele>
        <time>2020-08-13T07:13:15Z</time>
      </trkpt>
      <trkpt lat="42.0648341998" lon="-7.3075658921">
        <ele>1048.94</ele>
        <time>2020-08-13T07:13:16Z</time>
      </trkpt>
      <trkpt lat="42.0648823120" lon="-7.3076673131">
        <ele>1047.97</ele>
        <time>2020-08-13T07:13:17Z</time>
      </trkpt>
      <trkpt lat="42.0650170092" lon="-7.3079879209">
        <ele>1046.53</ele>
        <time>2020-08-13T07:13:20Z</time>
      </trkpt>
      <trkpt lat="42.0650465135" lon="-7.3081116378">
        <ele>1046.05</ele>
        <time>2020-08-13T07:13:21Z</time>
      </trkpt>
      <trkpt lat="42.0650627743" lon="-7.3082235362">
        <ele>1045.57</ele>
        <time>2020-08-13T07:13:22Z</time>
      </trkpt>
      <trkpt lat="42.0650684740" lon="-7.3083387036">
        <ele>1045.57</ele>
        <time>2020-08-13T07:13:23Z</time>
      </trkpt>
      <trkpt lat="42.0650618523" lon="-7.3084576428">
        <ele>1045.09</ele>
        <time>2020-08-13T07:13:24Z</time>
      </trkpt>
      <trkpt lat="42.0650491957" lon="-7.3085580580">
        <ele>1044.61</ele>
        <time>2020-08-13T07:13:25Z</time>
      </trkpt>
      <trkpt lat="42.0650364552" lon="-7.3086536955">
        <ele>1044.61</ele>
        <time>2020-08-13T07:13:26Z</time>
      </trkpt>
      <trkpt lat="42.0650351141" lon="-7.3087489139">
        <ele>1044.61</ele>
        <time>2020-08-13T07:13:27Z</time>
      </trkpt>
      <trkpt lat="42.0650528837" lon="-7.3088069167">
        <ele>1044.13</ele>
        <time>2020-08-13T07:13:28Z</time>
      </trkpt>
      <trkpt lat="42.0650952961" lon="-7.3088502511">
        <ele>1044.13</ele>
        <time>2020-08-13T07:13:29Z</time>
      </trkpt>
      <trkpt lat="42.0651542209" lon="-7.3088697810">
        <ele>1044.13</ele>
        <time>2020-08-13T07:13:30Z</time>
      </trkpt>
      <trkpt lat="42.0651921071" lon="-7.3088696133">
        <ele>1043.65</ele>
        <time>2020-08-13T07:13:31Z</time>
      </trkpt>
      <trkpt lat="42.0652429853" lon="-7.3088594712">
        <ele>1043.65</ele>
        <time>2020-08-13T07:13:32Z</time>
      </trkpt>
      <trkpt lat="42.0652924385" lon="-7.3088441323">
        <ele>1043.65</ele>
        <time>2020-08-13T07:13:33Z</time>
      </trkpt>
      <trkpt lat="42.0657053310" lon="-7.3086437210">
        <ele>1041.25</ele>
        <time>2020-08-13T07:13:41Z</time>
      </trkpt>
      <trkpt lat="42.0661098417" lon="-7.3084206786">
        <ele>1038.36</ele>
        <time>2020-08-13T07:13:49Z</time>
      </trkpt>
      <trkpt lat="42.0665680803" lon="-7.3083239514">
        <ele>1035.00</ele>
        <time>2020-08-13T07:13:57Z</time>
      </trkpt>
      <trkpt lat="42.0668761153" lon="-7.3082760908">
        <ele>1033.55</ele>
        <time>2020-08-13T07:14:02Z</time>
      </trkpt>
      <trkpt lat="42.0669339504" lon="-7.3082847241">
        <ele>1033.07</ele>
        <time>2020-08-13T07:14:03Z</time>
      </trkpt>
      <trkpt lat="42.0669964794" lon="-7.3083081935">
        <ele>1032.59</ele>
        <time>2020-08-13T07:14:04Z</time>
      </trkpt>
      <trkpt lat="42.0670492016" lon="-7.3083374463">
        <ele>1032.59</ele>
        <time>2020-08-13T07:14:05Z</time>
      </trkpt>
      <trkpt lat="42.0671076234" lon="-7.3083820380">
        <ele>1032.11</ele>
        <time>2020-08-13T07:14:06Z</time>
      </trkpt>
      <trkpt lat="42.0671506226" lon="-7.3084216006">
        <ele>1031.63</ele>
        <time>2020-08-13T07:14:07Z</time>
      </trkpt>
      <trkpt lat="42.0671956334" lon="-7.3084765859">
        <ele>1031.63</ele>
        <time>2020-08-13T07:14:08Z</time>
      </trkpt>
      <trkpt lat="42.0672359504" lon="-7.3085343372">
        <ele>1031.15</ele>
        <time>2020-08-13T07:14:09Z</time>
      </trkpt>
      <trkpt lat="42.0672788657" lon="-7.3086044099">
        <ele>1031.15</ele>
        <time>2020-08-13T07:14:10Z</time>
      </trkpt>
      <trkpt lat="42.0673975535" lon="-7.3088345770">
        <ele>1029.71</ele>
        <time>2020-08-13T07:14:13Z</time>
      </trkpt>
      <trkpt lat="42.0676611643" lon="-7.3094794806">
        <ele>1026.83</ele>
        <time>2020-08-13T07:14:20Z</time>
      </trkpt>
      <trkpt lat="42.0679486636" lon="-7.3101882543">
        <ele>1022.98</ele>
        <time>2020-08-13T07:14:28Z</time>
      </trkpt>
      <trkpt lat="42.0680957660" lon="-7.3106017336">
        <ele>1021.54</ele>
        <time>2020-08-13T07:14:33Z</time>
      </trkpt>
      <trkpt lat="42.0681005437" lon="-7.3106750753">
        <ele>1021.06</ele>
        <time>2020-08-13T07:14:34Z</time>
      </trkpt>
      <trkpt lat="42.0680918265" lon="-7.3107420467">
        <ele>1020.58</ele>
        <time>2020-08-13T07:14:35Z</time>
      </trkpt>
      <trkpt lat="42.0680657588" lon="-7.3108013067">
        <ele>1020.10</ele>
        <time>2020-08-13T07:14:36Z</time>
      </trkpt>
      <trkpt lat="42.0680286270" lon="-7.3108380195">
        <ele>1020.10</ele>
        <time>2020-08-13T07:14:37Z</time>
      </trkpt>
      <trkpt lat="42.0679847058" lon="-7.3108639196">
        <ele>1019.62</ele>
        <time>2020-08-13T07:14:38Z</time>
      </trkpt>
      <trkpt lat="42.0679427125" lon="-7.3108823597">
        <ele>1019.13</ele>
        <time>2020-08-13T07:14:39Z</time>
      </trkpt>
      <trkpt lat="42.0676362701" lon="-7.3110111896">
        <ele>1017.21</ele>
        <time>2020-08-13T07:14:45Z</time>
      </trkpt>
      <trkpt lat="42.0670799632" lon="-7.3113014549">
        <ele>1015.29</ele>
        <time>2020-08-13T07:14:54Z</time>
      </trkpt>
      <trkpt lat="42.0666977484" lon="-7.3114601243">
        <ele>1012.89</ele>
        <time>2020-08-13T07:15:00Z</time>
      </trkpt>
      <trkpt lat="42.0666381530" lon="-7.3114924785">
        <ele>1012.41</ele>
        <time>2020-08-13T07:15:01Z</time>
      </trkpt>
      <trkpt lat="42.0662924834" lon="-7.3117458634">
        <ele>1010.48</ele>
        <time>2020-08-13T07:15:07Z</time>
      </trkpt>
      <trkpt lat="42.0662543457" lon="-7.3118030280">
        <ele>1010.00</ele>
        <time>2020-08-13T07:15:08Z</time>
      </trkpt>
      <trkpt lat="42.0662344806" lon="-7.3118626233">
        <ele>1010.00</ele>
        <time>2020-08-13T07:15:09Z</time>
      </trkpt>
      <trkpt lat="42.0662276912" lon="-7.3119280022">
        <ele>1010.00</ele>
        <time>2020-08-13T07:15:10Z</time>
      </trkpt>
      <trkpt lat="42.0662361570" lon="-7.3119942192">
        <ele>1009.52</ele>
        <time>2020-08-13T07:15:11Z</time>
      </trkpt>
      <trkpt lat="42.0662625600" lon="-7.3120630346">
        <ele>1009.52</ele>
        <time>2020-08-13T07:15:12Z</time>
      </trkpt>
      <trkpt lat="42.0662938245" lon="-7.3121191934">
        <ele>1009.04</ele>
        <time>2020-08-13T07:15:13Z</time>
      </trkpt>
      <trkpt lat="42.0663326327" lon="-7.3121811356">
        <ele>1009.04</ele>
        <time>2020-08-13T07:15:14Z</time>
      </trkpt>
      <trkpt lat="42.0663747936" lon="-7.3122428264">
        <ele>1008.56</ele>
        <time>2020-08-13T07:15:15Z</time>
      </trkpt>
      <trkpt lat="42.0667598583" lon="-7.3127501830">
        <ele>1004.23</ele>
        <time>2020-08-13T07:15:24Z</time>
      </trkpt>
      <trkpt lat="42.0670556556" lon="-7.3131845333">
        <ele>1000.39</ele>
        <time>2020-08-13T07:15:32Z</time>
      </trkpt>
      <trkpt lat="42.0673597511" lon="-7.3137037084">
        <ele>997.51</ele>
        <time>2020-08-13T07:15:41Z</time>
      </trkpt>
      <trkpt lat="42.0673812926" lon="-7.3137711827">
        <ele>997.02</ele>
        <time>2020-08-13T07:15:42Z</time>
      </trkpt>
      <trkpt lat="42.0674450789" lon="-7.3139819037">
        <ele>996.06</ele>
        <time>2020-08-13T07:15:45Z</time>
      </trkpt>
      <trkpt lat="42.0674822945" lon="-7.3140503839">
        <ele>995.58</ele>
        <time>2020-08-13T07:15:46Z</time>
      </trkpt>
      <trkpt lat="42.0675222762" lon="-7.3141070455">
        <ele>995.10</ele>
        <time>2020-08-13T07:15:47Z</time>
      </trkpt>
      <trkpt lat="42.0678592287" lon="-7.3145927768">
        <ele>992.70</ele>
        <time>2020-08-13T07:15:55Z</time>
      </trkpt>
      <trkpt lat="42.0681614801" lon="-7.3151074257">
        <ele>990.30</ele>
        <time>2020-08-13T07:16:02Z</time>
      </trkpt>
      <trkpt lat="42.0681905653" lon="-7.3151855450">
        <ele>989.81</ele>
        <time>2020-08-13T07:16:03Z</time>
      </trkpt>
      <trkpt lat="42.0682146214" lon="-7.3152629938">
        <ele>989.81</ele>
        <time>2020-08-13T07:16:04Z</time>
      </trkpt>
      <trkpt lat="42.0682904776" lon="-7.3154815938">
        <ele>988.37</ele>
        <time>2020-08-13T07:16:07Z</time>
      </trkpt>
      <trkpt lat="42.0683318842" lon="-7.3155535944">
        <ele>987.89</ele>
        <time>2020-08-13T07:16:08Z</time>
      </trkpt>
      <trkpt lat="42.0683743805" lon="-7.3156108428">
        <ele>987.89</ele>
        <time>2020-08-13T07:16:09Z</time>
      </trkpt>
      <trkpt lat="42.0684307907" lon="-7.3156668339">
        <ele>987.41</ele>
        <time>2020-08-13T07:16:10Z</time>
      </trkpt>
      <trkpt lat="42.0684882067" lon="-7.3157088272">
        <ele>987.41</ele>
        <time>2020-08-13T07:16:11Z</time>
      </trkpt>
      <trkpt lat="42.0685506519" lon="-7.3157496471">
        <ele>986.93</ele>
        <time>2020-08-13T07:16:12Z</time>
      </trkpt>
      <trkpt lat="42.0687593613" lon="-7.3159206379">
        <ele>985.49</ele>
        <time>2020-08-13T07:16:17Z</time>
      </trkpt>
      <trkpt lat="42.0690354612" lon="-7.3162114061">
        <ele>983.57</ele>
        <time>2020-08-13T07:16:25Z</time>
      </trkpt>
      <trkpt lat="42.0693693962" lon="-7.3164961394">
        <ele>981.16</ele>
        <time>2020-08-13T07:16:31Z</time>
      </trkpt>
      <trkpt lat="42.0694307517" lon="-7.3165231291">
        <ele>980.68</ele>
        <time>2020-08-13T07:16:32Z</time>
      </trkpt>
      <trkpt lat="42.0695047639" lon="-7.3165414855">
        <ele>980.20</ele>
        <time>2020-08-13T07:16:33Z</time>
      </trkpt>
      <trkpt lat="42.0695692208" lon="-7.3165477719">
        <ele>979.72</ele>
        <time>2020-08-13T07:16:34Z</time>
      </trkpt>
      <trkpt lat="42.0697744936" lon="-7.3165374622">
        <ele>978.28</ele>
        <time>2020-08-13T07:16:38Z</time>
      </trkpt>
      <trkpt lat="42.0698345918" lon="-7.3165287450">
        <ele>978.28</ele>
        <time>2020-08-13T07:16:42Z</time>
      </trkpt>
      <trkpt lat="42.0698107034" lon="-7.3165207822">
        <ele>979.24</ele>
        <time>2020-08-13T07:16:59Z</time>
      </trkpt>
      <trkpt lat="42.0698111225" lon="-7.3165196087">
        <ele>979.72</ele>
        <time>2020-08-13T07:17:11Z</time>
      </trkpt>
      <trkpt lat="42.0698132180" lon="-7.3165289126">
        <ele>980.20</ele>
        <time>2020-08-13T07:17:24Z</time>
      </trkpt>
      <trkpt lat="42.0698064286" lon="-7.3165364563">
        <ele>981.16</ele>
        <time>2020-08-13T07:17:38Z</time>
      </trkpt>
      <trkpt lat="42.0698082726" lon="-7.3165486939">
        <ele>982.60</ele>
        <time>2020-08-13T07:17:54Z</time>
      </trkpt>
      <trkpt lat="42.0698100328" lon="-7.3165383842">
        <ele>983.57</ele>
        <time>2020-08-13T07:18:08Z</time>
      </trkpt>
      <trkpt lat="42.0698078535" lon="-7.3165096343">
        <ele>984.05</ele>
        <time>2020-08-13T07:18:23Z</time>
      </trkpt>
      <trkpt lat="42.0698098652" lon="-7.3165178485">
        <ele>983.57</ele>
        <time>2020-08-13T07:18:37Z</time>
      </trkpt>
      <trkpt lat="42.0698056743" lon="-7.3165156692">
        <ele>984.53</ele>
        <time>2020-08-13T07:18:53Z</time>
      </trkpt>
      <trkpt lat="42.0698072668" lon="-7.3165179323">
        <ele>984.05</ele>
        <time>2020-08-13T07:19:06Z</time>
      </trkpt>
      <trkpt lat="42.0698012318" lon="-7.3165194411">
        <ele>984.05</ele>
        <time>2020-08-13T07:19:18Z</time>
      </trkpt>
      <trkpt lat="42.0697971247" lon="-7.3165206145">
        <ele>984.05</ele>
        <time>2020-08-13T07:19:31Z</time>
      </trkpt>
      <trkpt lat="42.0697915088" lon="-7.3165232129">
        <ele>984.53</ele>
        <time>2020-08-13T07:19:47Z</time>
      </trkpt>
      <trkpt lat="42.0697874855" lon="-7.3165227938">
        <ele>985.01</ele>
        <time>2020-08-13T07:20:01Z</time>
      </trkpt>
      <trkpt lat="42.0697911736" lon="-7.3165207822">
        <ele>983.57</ele>
        <time>2020-08-13T07:20:13Z</time>
      </trkpt>
      <trkpt lat="42.0698430575" lon="-7.3165269010">
        <ele>983.09</ele>
        <time>2020-08-13T07:20:20Z</time>
      </trkpt>
      <trkpt lat="42.0700156409" lon="-7.3165700678">
        <ele>982.60</ele>
        <time>2020-08-13T07:20:26Z</time>
      </trkpt>
      <trkpt lat="42.0702543575" lon="-7.3167688027">
        <ele>981.16</ele>
        <time>2020-08-13T07:20:33Z</time>
      </trkpt>
      <trkpt lat="42.0704087522" lon="-7.3170311563">
        <ele>979.72</ele>
        <time>2020-08-13T07:20:38Z</time>
      </trkpt>
      <trkpt lat="42.0704343170" lon="-7.3170933500">
        <ele>979.72</ele>
        <time>2020-08-13T07:20:39Z</time>
      </trkpt>
      <trkpt lat="42.0704747178" lon="-7.3172189109">
        <ele>978.76</ele>
        <time>2020-08-13T07:20:41Z</time>
      </trkpt>
      <trkpt lat="42.0705180522" lon="-7.3174265306">
        <ele>977.80</ele>
        <time>2020-08-13T07:20:44Z</time>
      </trkpt>
      <trkpt lat="42.0705552679" lon="-7.3178165406">
        <ele>975.39</ele>
        <time>2020-08-13T07:20:49Z</time>
      </trkpt>
      <trkpt lat="42.0704903919" lon="-7.3183757812">
        <ele>971.55</ele>
        <time>2020-08-13T07:20:56Z</time>
      </trkpt>
      <trkpt lat="42.0702920761" lon="-7.3188127298">
        <ele>969.15</ele>
        <time>2020-08-13T07:21:02Z</time>
      </trkpt>
      <trkpt lat="42.0700588915" lon="-7.3191272188">
        <ele>967.22</ele>
        <time>2020-08-13T07:21:08Z</time>
      </trkpt>
      <trkpt lat="42.0696907584" lon="-7.3194606509">
        <ele>963.86</ele>
        <time>2020-08-13T07:21:16Z</time>
      </trkpt>
      <trkpt lat="42.0694248006" lon="-7.3198442906">
        <ele>961.46</ele>
        <time>2020-08-13T07:21:23Z</time>
      </trkpt>
      <trkpt lat="42.0690776221" lon="-7.3203362245">
        <ele>958.57</ele>
        <time>2020-08-13T07:21:32Z</time>
      </trkpt>
      <trkpt lat="42.0688311942" lon="-7.3205456883">
        <ele>956.65</ele>
        <time>2020-08-13T07:21:37Z</time>
      </trkpt>
      <trkpt lat="42.0684213191" lon="-7.3207386397">
        <ele>953.77</ele>
        <time>2020-08-13T07:21:44Z</time>
      </trkpt>
      <trkpt lat="42.0683662500" lon="-7.3207452614">
        <ele>953.28</ele>
        <time>2020-08-13T07:21:45Z</time>
      </trkpt>
      <trkpt lat="42.0683076605" lon="-7.3207430821">
        <ele>952.80</ele>
        <time>2020-08-13T07:21:46Z</time>
      </trkpt>
      <trkpt lat="42.0682516694" lon="-7.3207313474">
        <ele>952.32</ele>
        <time>2020-08-13T07:21:47Z</time>
      </trkpt>
      <trkpt lat="42.0681981929" lon="-7.3207113985">
        <ele>951.84</ele>
        <time>2020-08-13T07:21:48Z</time>
      </trkpt>
      <trkpt lat="42.0681479853" lon="-7.3206834868">
        <ele>951.36</ele>
        <time>2020-08-13T07:21:49Z</time>
      </trkpt>
      <trkpt lat="42.0680980291" lon="-7.3206445109">
        <ele>951.36</ele>
        <time>2020-08-13T07:21:50Z</time>
      </trkpt>
      <trkpt lat="42.0680440497" lon="-7.3205945548">
        <ele>950.88</ele>
        <time>2020-08-13T07:21:51Z</time>
      </trkpt>
      <trkpt lat="42.0679781679" lon="-7.3205181956">
        <ele>949.92</ele>
        <time>2020-08-13T07:21:53Z</time>
      </trkpt>
      <trkpt lat="42.0677558798" lon="-7.3201198876">
        <ele>947.04</ele>
        <time>2020-08-13T07:22:00Z</time>
      </trkpt>
      <trkpt lat="42.0676604100" lon="-7.3199488129">
        <ele>946.56</ele>
        <time>2020-08-13T07:22:03Z</time>
      </trkpt>
      <trkpt lat="42.0676193386" lon="-7.3199101724">
        <ele>946.07</ele>
        <time>2020-08-13T07:22:04Z</time>
      </trkpt>
      <trkpt lat="42.0675724838" lon="-7.3198901396">
        <ele>946.07</ele>
        <time>2020-08-13T07:22:05Z</time>
      </trkpt>
      <trkpt lat="42.0675257966" lon="-7.3198880441">
        <ele>946.07</ele>
        <time>2020-08-13T07:22:06Z</time>
      </trkpt>
      <trkpt lat="42.0674773492" lon="-7.3198887985">
        <ele>946.07</ele>
        <time>2020-08-13T07:22:07Z</time>
      </trkpt>
      <trkpt lat="42.0674284827" lon="-7.3198831826">
        <ele>946.07</ele>
        <time>2020-08-13T07:22:08Z</time>
      </trkpt>
      <trkpt lat="42.0673776884" lon="-7.3198726214">
        <ele>945.59</ele>
        <time>2020-08-13T07:22:09Z</time>
      </trkpt>
      <trkpt lat="42.0673294086" lon="-7.3198556900">
        <ele>945.59</ele>
        <time>2020-08-13T07:22:10Z</time>
      </trkpt>
      <trkpt lat="42.0672788657" lon="-7.3198337294">
        <ele>945.11</ele>
        <time>2020-08-13T07:22:11Z</time>
      </trkpt>
      <trkpt lat="42.0670532249" lon="-7.3197640758">
        <ele>943.67</ele>
        <time>2020-08-13T07:22:15Z</time>
      </trkpt>
      <trkpt lat="42.0670134109" lon="-7.3197733797">
        <ele>943.19</ele>
        <time>2020-08-13T07:22:16Z</time>
      </trkpt>
      <trkpt lat="42.0669858344" lon="-7.3198025487">
        <ele>943.19</ele>
        <time>2020-08-13T07:22:17Z</time>
      </trkpt>
      <trkpt lat="42.0669706631" lon="-7.3198518343">
        <ele>943.19</ele>
        <time>2020-08-13T07:22:18Z</time>
      </trkpt>
      <trkpt lat="42.0669722557" lon="-7.3199043050">
        <ele>943.19</ele>
        <time>2020-08-13T07:22:19Z</time>
      </trkpt>
      <trkpt lat="42.0669868402" lon="-7.3199499026">
        <ele>943.19</ele>
        <time>2020-08-13T07:22:20Z</time>
      </trkpt>
      <trkpt lat="42.0670093037" lon="-7.3199893814">
        <ele>943.19</ele>
        <time>2020-08-13T07:22:21Z</time>
      </trkpt>
      <trkpt lat="42.0670368802" lon="-7.3200306203">
        <ele>943.19</ele>
        <time>2020-08-13T07:22:22Z</time>
      </trkpt>
      <trkpt lat="42.0671288297" lon="-7.3202052154">
        <ele>943.19</ele>
        <time>2020-08-13T07:22:26Z</time>
      </trkpt>
      <trkpt lat="42.0671452582" lon="-7.3202541657">
        <ele>943.19</ele>
        <time>2020-08-13T07:22:27Z</time>
      </trkpt>
      <trkpt lat="42.0671595912" lon="-7.3203028645">
        <ele>942.71</ele>
        <time>2020-08-13T07:22:28Z</time>
      </trkpt>
      <trkpt lat="42.0672027580" lon="-7.3205308523">
        <ele>942.71</ele>
        <time>2020-08-13T07:22:32Z</time>
      </trkpt>
      <trkpt lat="42.0672060270" lon="-7.3205909505">
        <ele>942.71</ele>
        <time>2020-08-13T07:22:33Z</time>
      </trkpt>
      <trkpt lat="42.0672051050" lon="-7.3206506297">
        <ele>942.71</ele>
        <time>2020-08-13T07:22:34Z</time>
      </trkpt>
      <trkpt lat="42.0672005787" lon="-7.3212162405">
        <ele>942.23</ele>
        <time>2020-08-13T07:22:42Z</time>
      </trkpt>
      <trkpt lat="42.0671428274" lon="-7.3219639901">
        <ele>940.31</ele>
        <time>2020-08-13T07:22:52Z</time>
      </trkpt>
      <trkpt lat="42.0671514608" lon="-7.3224539962">
        <ele>937.42</ele>
        <time>2020-08-13T07:22:58Z</time>
      </trkpt>
      <trkpt lat="42.0672046021" lon="-7.3229572456">
        <ele>933.10</ele>
        <time>2020-08-13T07:23:04Z</time>
      </trkpt>
      <trkpt lat="42.0672185998" lon="-7.3230400588">
        <ele>932.62</ele>
        <time>2020-08-13T07:23:05Z</time>
      </trkpt>
      <trkpt lat="42.0672370400" lon="-7.3231222015">
        <ele>931.65</ele>
        <time>2020-08-13T07:23:06Z</time>
      </trkpt>
      <trkpt lat="42.0672610123" lon="-7.3232062720">
        <ele>931.17</ele>
        <time>2020-08-13T07:23:07Z</time>
      </trkpt>
      <trkpt lat="42.0672919415" lon="-7.3232909292">
        <ele>930.21</ele>
        <time>2020-08-13T07:23:08Z</time>
      </trkpt>
      <trkpt lat="42.0673253015" lon="-7.3233632650">
        <ele>929.25</ele>
        <time>2020-08-13T07:23:09Z</time>
      </trkpt>
      <trkpt lat="42.0674908441" lon="-7.3237253632">
        <ele>926.85</ele>
        <time>2020-08-13T07:23:14Z</time>
      </trkpt>
      <trkpt lat="42.0675128046" lon="-7.3238133732">
        <ele>926.37</ele>
        <time>2020-08-13T07:23:15Z</time>
      </trkpt>
      <trkpt lat="42.0675265510" lon="-7.3238975275">
        <ele>925.89</ele>
        <time>2020-08-13T07:23:16Z</time>
      </trkpt>
      <trkpt lat="42.0675359387" lon="-7.3239792511">
        <ele>925.41</ele>
        <time>2020-08-13T07:23:17Z</time>
      </trkpt>
      <trkpt lat="42.0675443206" lon="-7.3240710329">
        <ele>924.93</ele>
        <time>2020-08-13T07:23:18Z</time>
      </trkpt>
      <trkpt lat="42.0675488468" lon="-7.3245665710">
        <ele>923.00</ele>
        <time>2020-08-13T07:23:25Z</time>
      </trkpt>
      <trkpt lat="42.0674396306" lon="-7.3250534758">
        <ele>921.56</ele>
        <time>2020-08-13T07:23:33Z</time>
      </trkpt>
      <trkpt lat="42.0672224555" lon="-7.3255562223">
        <ele>920.60</ele>
        <time>2020-08-13T07:23:40Z</time>
      </trkpt>
      <trkpt lat="42.0668859221" lon="-7.3259650078">
        <ele>918.68</ele>
        <time>2020-08-13T07:23:46Z</time>
      </trkpt>
      <trkpt lat="42.0665231533" lon="-7.3262147885">
        <ele>915.31</ele>
        <time>2020-08-13T07:23:52Z</time>
      </trkpt>
      <trkpt lat="42.0663842652" lon="-7.3263271060">
        <ele>914.35</ele>
        <time>2020-08-13T07:23:55Z</time>
      </trkpt>
      <trkpt lat="42.0663555153" lon="-7.3263799958">
        <ele>913.87</ele>
        <time>2020-08-13T07:23:56Z</time>
      </trkpt>
      <trkpt lat="42.0663418528" lon="-7.3264559358">
        <ele>913.39</ele>
        <time>2020-08-13T07:23:57Z</time>
      </trkpt>
      <trkpt lat="42.0663433615" lon="-7.3265050538">
        <ele>913.39</ele>
        <time>2020-08-13T07:23:58Z</time>
      </trkpt>
      <trkpt lat="42.0663504023" lon="-7.3265662417">
        <ele>913.39</ele>
        <time>2020-08-13T07:23:59Z</time>
      </trkpt>
      <trkpt lat="42.0663695130" lon="-7.3266375717">
        <ele>913.39</ele>
        <time>2020-08-13T07:24:00Z</time>
      </trkpt>
      <trkpt lat="42.0664103329" lon="-7.3267073929">
        <ele>912.91</ele>
        <time>2020-08-13T07:24:01Z</time>
      </trkpt>
      <trkpt lat="42.0664390828" lon="-7.3267319519">
        <ele>912.91</ele>
        <time>2020-08-13T07:24:02Z</time>
      </trkpt>
      <trkpt lat="42.0664880332" lon="-7.3267648928">
        <ele>912.91</ele>
        <time>2020-08-13T07:24:03Z</time>
      </trkpt>
      <trkpt lat="42.0665422641" lon="-7.3267863505">
        <ele>912.91</ele>
        <time>2020-08-13T07:24:04Z</time>
      </trkpt>
      <trkpt lat="42.0665742829" lon="-7.3267964087">
        <ele>912.91</ele>
        <time>2020-08-13T07:24:05Z</time>
      </trkpt>
      <trkpt lat="42.0668936335" lon="-7.3268825747">
        <ele>912.43</ele>
        <time>2020-08-13T07:24:12Z</time>
      </trkpt>
      <trkpt lat="42.0669354592" lon="-7.3269026913">
        <ele>912.43</ele>
        <time>2020-08-13T07:24:13Z</time>
      </trkpt>
      <trkpt lat="42.0669675618" lon="-7.3269233946">
        <ele>912.43</ele>
        <time>2020-08-13T07:24:14Z</time>
      </trkpt>
      <trkpt lat="42.0671668835" lon="-7.3270979896">
        <ele>913.39</ele>
        <time>2020-08-13T07:24:22Z</time>
      </trkpt>
      <trkpt lat="42.0672227908" lon="-7.3273092136">
        <ele>913.39</ele>
        <time>2020-08-13T07:24:29Z</time>
      </trkpt>
      <trkpt lat="42.0671246387" lon="-7.3275411408">
        <ele>913.39</ele>
        <time>2020-08-13T07:24:36Z</time>
      </trkpt>
      <trkpt lat="42.0669398177" lon="-7.3276878241">
        <ele>912.43</ele>
        <time>2020-08-13T07:24:44Z</time>
      </trkpt>
      <trkpt lat="42.0667313598" lon="-7.3278666940">
        <ele>910.99</ele>
        <time>2020-08-13T07:24:51Z</time>
      </trkpt>
      <trkpt lat="42.0665630512" lon="-7.3280153889">
        <ele>910.03</ele>
        <time>2020-08-13T07:24:55Z</time>
      </trkpt>
      <trkpt lat="42.0664406754" lon="-7.3281843681">
        <ele>909.54</ele>
        <time>2020-08-13T07:24:58Z</time>
      </trkpt>
      <trkpt lat="42.0663768891" lon="-7.3283095099">
        <ele>909.06</ele>
        <time>2020-08-13T07:25:00Z</time>
      </trkpt>
      <trkpt lat="42.0663136058" lon="-7.3285062332">
        <ele>908.58</ele>
        <time>2020-08-13T07:25:03Z</time>
      </trkpt>
      <trkpt lat="42.0662973449" lon="-7.3286023736">
        <ele>908.10</ele>
        <time>2020-08-13T07:25:04Z</time>
      </trkpt>
      <trkpt lat="42.0662961714" lon="-7.3286944907">
        <ele>908.10</ele>
        <time>2020-08-13T07:25:06Z</time>
      </trkpt>
      <trkpt lat="42.0663030446" lon="-7.3287674133">
        <ele>908.10</ele>
        <time>2020-08-13T07:25:07Z</time>
      </trkpt>
      <trkpt lat="42.0663077384" lon="-7.3289498035">
        <ele>907.62</ele>
        <time>2020-08-13T07:25:09Z</time>
      </trkpt>
      <trkpt lat="42.0662730373" lon="-7.3291864246">
        <ele>907.14</ele>
        <time>2020-08-13T07:25:12Z</time>
      </trkpt>
      <trkpt lat="42.0662463829" lon="-7.3292657174">
        <ele>906.66</ele>
        <time>2020-08-13T07:25:13Z</time>
      </trkpt>
      <trkpt lat="42.0662123524" lon="-7.3293403164">
        <ele>906.66</ele>
        <time>2020-08-13T07:25:14Z</time>
      </trkpt>
      <trkpt lat="42.0661686826" lon="-7.3294103891">
        <ele>906.66</ele>
        <time>2020-08-13T07:25:15Z</time>
      </trkpt>
      <trkpt lat="42.0661399327" lon="-7.3294458445">
        <ele>906.66</ele>
        <time>2020-08-13T07:25:16Z</time>
      </trkpt>
      <trkpt lat="42.0661010407" lon="-7.3294935375">
        <ele>906.66</ele>
        <time>2020-08-13T07:25:17Z</time>
      </trkpt>
      <trkpt lat="42.0659992006" lon="-7.3296555597">
        <ele>906.66</ele>
        <time>2020-08-13T07:25:22Z</time>
      </trkpt>
      <trkpt lat="42.0659344923" lon="-7.3296957090">
        <ele>906.66</ele>
        <time>2020-08-13T07:25:28Z</time>
      </trkpt>
      <trkpt lat="42.0659330674" lon="-7.3296776041">
        <ele>907.62</ele>
        <time>2020-08-13T07:25:44Z</time>
      </trkpt>
      <trkpt lat="42.0659460593" lon="-7.3296754248">
        <ele>908.58</ele>
        <time>2020-08-13T07:26:02Z</time>
      </trkpt>
      <trkpt lat="42.0659564529" lon="-7.3296771012">
        <ele>908.58</ele>
        <time>2020-08-13T07:26:17Z</time>
      </trkpt>
      <trkpt lat="42.0659536868" lon="-7.3296818789">
        <ele>908.58</ele>
        <time>2020-08-13T07:26:30Z</time>
      </trkpt>
      <trkpt lat="42.0659764856" lon="-7.3296675459">
        <ele>908.58</ele>
        <time>2020-08-13T07:26:50Z</time>
      </trkpt>
      <trkpt lat="42.0659609791" lon="-7.3296498600">
        <ele>908.58</ele>
        <time>2020-08-13T07:27:17Z</time>
      </trkpt>
      <trkpt lat="42.0659724623" lon="-7.3296609242">
        <ele>909.54</ele>
        <time>2020-08-13T07:27:29Z</time>
      </trkpt>
      <trkpt lat="42.0659822691" lon="-7.3296708148">
        <ele>908.58</ele>
        <time>2020-08-13T07:27:35Z</time>
      </trkpt>
      <trkpt lat="42.0659816824" lon="-7.3296899255">
        <ele>908.10</ele>
        <time>2020-08-13T07:27:42Z</time>
      </trkpt>
      <trkpt lat="42.0660024695" lon="-7.3297030013">
        <ele>907.14</ele>
        <time>2020-08-13T07:27:44Z</time>
      </trkpt>
      <trkpt lat="42.0661222469" lon="-7.3297619261">
        <ele>906.66</ele>
        <time>2020-08-13T07:27:51Z</time>
      </trkpt>
      <trkpt lat="42.0662960876" lon="-7.3298977129">
        <ele>906.66</ele>
        <time>2020-08-13T07:28:00Z</time>
      </trkpt>
      <trkpt lat="42.0664580259" lon="-7.3300806899">
        <ele>905.70</ele>
        <time>2020-08-13T07:28:07Z</time>
      </trkpt>
      <trkpt lat="42.0666449424" lon="-7.3303327337">
        <ele>903.78</ele>
        <time>2020-08-13T07:28:20Z</time>
      </trkpt>
      <trkpt lat="42.0666708425" lon="-7.3303556163">
        <ele>902.82</ele>
        <time>2020-08-13T07:28:26Z</time>
      </trkpt>
      <trkpt lat="42.0666558389" lon="-7.3303743917">
        <ele>902.82</ele>
        <time>2020-08-13T07:28:38Z</time>
      </trkpt>
      <trkpt lat="42.0666716807" lon="-7.3303764034">
        <ele>902.82</ele>
        <time>2020-08-13T07:28:45Z</time>
      </trkpt>
      <trkpt lat="42.0666834153" lon="-7.3303768225">
        <ele>902.82</ele>
        <time>2020-08-13T07:28:54Z</time>
      </trkpt>
      <trkpt lat="42.0666855946" lon="-7.3303650040">
        <ele>903.30</ele>
        <time>2020-08-13T07:29:07Z</time>
      </trkpt>
      <trkpt lat="42.0666890312" lon="-7.3303689435">
        <ele>905.22</ele>
        <time>2020-08-13T07:29:21Z</time>
      </trkpt>
      <trkpt lat="42.0666876063" lon="-7.3303661775">
        <ele>903.78</ele>
        <time>2020-08-13T07:29:35Z</time>
      </trkpt>
      <trkpt lat="42.0666877739" lon="-7.3303639982">
        <ele>902.33</ele>
        <time>2020-08-13T07:29:49Z</time>
      </trkpt>
      <trkpt lat="42.0666817389" lon="-7.3303633276">
        <ele>901.85</ele>
        <time>2020-08-13T07:30:00Z</time>
      </trkpt>
      <trkpt lat="42.0666737761" lon="-7.3303688597">
        <ele>901.85</ele>
        <time>2020-08-13T07:30:15Z</time>
      </trkpt>
      <trkpt lat="42.0666776318" lon="-7.3303759843">
        <ele>901.37</ele>
        <time>2020-08-13T07:30:27Z</time>
      </trkpt>
      <trkpt lat="42.0666976646" lon="-7.3303867970">
        <ele>901.37</ele>
        <time>2020-08-13T07:30:37Z</time>
      </trkpt>
      <trkpt lat="42.0667207986" lon="-7.3303920776">
        <ele>901.85</ele>
        <time>2020-08-13T07:30:47Z</time>
      </trkpt>
      <trkpt lat="42.0668649673" lon="-7.3304656707">
        <ele>901.37</ele>
        <time>2020-08-13T07:30:52Z</time>
      </trkpt>
      <trkpt lat="42.0670009218" lon="-7.3305121064">
        <ele>900.89</ele>
        <time>2020-08-13T07:30:58Z</time>
      </trkpt>
      <trkpt lat="42.0671376307" lon="-7.3305525072">
        <ele>901.85</ele>
        <time>2020-08-13T07:31:05Z</time>
      </trkpt>
      <trkpt lat="42.0672651194" lon="-7.3306520842">
        <ele>901.85</ele>
        <time>2020-08-13T07:31:12Z</time>
      </trkpt>
      <trkpt lat="42.0673598349" lon="-7.3308724444">
        <ele>901.85</ele>
        <time>2020-08-13T07:31:21Z</time>
      </trkpt>
      <trkpt lat="42.0674235374" lon="-7.3310993426">
        <ele>902.33</ele>
        <time>2020-08-13T07:31:31Z</time>
      </trkpt>
      <trkpt lat="42.0674717333" lon="-7.3313321918">
        <ele>904.26</ele>
        <time>2020-08-13T07:31:41Z</time>
      </trkpt>
      <trkpt lat="42.0674977172" lon="-7.3314684816">
        <ele>905.70</ele>
        <time>2020-08-13T07:31:48Z</time>
      </trkpt>
      <trkpt lat="42.0675305743" lon="-7.3316444177">
        <ele>906.66</ele>
        <time>2020-08-13T07:31:55Z</time>
      </trkpt>
      <trkpt lat="42.0675345138" lon="-7.3316635285">
        <ele>907.14</ele>
        <time>2020-08-13T07:31:56Z</time>
      </trkpt>
      <trkpt lat="42.0675371122" lon="-7.3316793703">
        <ele>907.14</ele>
        <time>2020-08-13T07:31:57Z</time>
      </trkpt>
      <trkpt lat="42.0675340947" lon="-7.3318588268">
        <ele>909.06</ele>
        <time>2020-08-13T07:32:06Z</time>
      </trkpt>
      <trkpt lat="42.0675389562" lon="-7.3320399597">
        <ele>910.51</ele>
        <time>2020-08-13T07:32:14Z</time>
      </trkpt>
      <trkpt lat="42.0675381180" lon="-7.3322602361">
        <ele>911.47</ele>
        <time>2020-08-13T07:32:25Z</time>
      </trkpt>
      <trkpt lat="42.0675368607" lon="-7.3322801013">
        <ele>911.47</ele>
        <time>2020-08-13T07:32:26Z</time>
      </trkpt>
      <trkpt lat="42.0675358549" lon="-7.3323008884">
        <ele>911.47</ele>
        <time>2020-08-13T07:32:27Z</time>
      </trkpt>
      <trkpt lat="42.0675356034" lon="-7.3323211726">
        <ele>911.95</ele>
        <time>2020-08-13T07:32:28Z</time>
      </trkpt>
      <trkpt lat="42.0675391238" lon="-7.3323422950">
        <ele>911.95</ele>
        <time>2020-08-13T07:32:29Z</time>
      </trkpt>
      <trkpt lat="42.0675413869" lon="-7.3323610704">
        <ele>912.43</ele>
        <time>2020-08-13T07:32:30Z</time>
      </trkpt>
      <trkpt lat="42.0675422251" lon="-7.3323814385">
        <ele>912.43</ele>
        <time>2020-08-13T07:32:31Z</time>
      </trkpt>
      <trkpt lat="42.0675304066" lon="-7.3325765692">
        <ele>913.87</ele>
        <time>2020-08-13T07:32:41Z</time>
      </trkpt>
      <trkpt lat="42.0675313286" lon="-7.3327590432">
        <ele>915.31</ele>
        <time>2020-08-13T07:32:50Z</time>
      </trkpt>
      <trkpt lat="42.0675628446" lon="-7.3329857737">
        <ele>917.72</ele>
        <time>2020-08-13T07:33:01Z</time>
      </trkpt>
      <trkpt lat="42.0675750822" lon="-7.3330281861">
        <ele>918.20</ele>
        <time>2020-08-13T07:33:04Z</time>
      </trkpt>
      <trkpt lat="42.0675748307" lon="-7.3330471292">
        <ele>918.20</ele>
        <time>2020-08-13T07:33:05Z</time>
      </trkpt>
      <trkpt lat="42.0675636828" lon="-7.3332092352">
        <ele>919.64</ele>
        <time>2020-08-13T07:33:13Z</time>
      </trkpt>
      <trkpt lat="42.0675470866" lon="-7.3334430903">
        <ele>921.08</ele>
        <time>2020-08-13T07:33:24Z</time>
      </trkpt>
      <trkpt lat="42.0675324183" lon="-7.3336253967">
        <ele>922.04</ele>
        <time>2020-08-13T07:33:33Z</time>
      </trkpt>
      <trkpt lat="42.0675407164" lon="-7.3337435815">
        <ele>922.52</ele>
        <time>2020-08-13T07:33:39Z</time>
      </trkpt>
      <trkpt lat="42.0675480925" lon="-7.3337516282">
        <ele>922.52</ele>
        <time>2020-08-13T07:33:46Z</time>
      </trkpt>
      <trkpt lat="42.0675398782" lon="-7.3337820545">
        <ele>923.00</ele>
        <time>2020-08-13T07:33:59Z</time>
      </trkpt>
      <trkpt lat="42.0675460808" lon="-7.3337940406">
        <ele>921.56</ele>
        <time>2020-08-13T07:34:13Z</time>
      </trkpt>
      <trkpt lat="42.0675434824" lon="-7.3337882571">
        <ele>923.00</ele>
        <time>2020-08-13T07:34:25Z</time>
      </trkpt>
      <trkpt lat="42.0675467514" lon="-7.3337676376">
        <ele>923.48</ele>
        <time>2020-08-13T07:34:40Z</time>
      </trkpt>
      <trkpt lat="42.0675511938" lon="-7.3337551486">
        <ele>924.45</ele>
        <time>2020-08-13T07:34:54Z</time>
      </trkpt>
      <trkpt lat="42.0675425604" lon="-7.3337631114">
        <ele>924.93</ele>
        <time>2020-08-13T07:35:07Z</time>
      </trkpt>
      <trkpt lat="42.0675359387" lon="-7.3337744270">
        <ele>924.93</ele>
        <time>2020-08-13T07:35:20Z</time>
      </trkpt>
      <trkpt lat="42.0675301552" lon="-7.3337735888">
        <ele>923.96</ele>
        <time>2020-08-13T07:35:32Z</time>
      </trkpt>
      <trkpt lat="42.0675237011" lon="-7.3337665480">
        <ele>923.96</ele>
        <time>2020-08-13T07:35:44Z</time>
      </trkpt>
      <trkpt lat="42.0675330050" lon="-7.3337798752">
        <ele>924.45</ele>
        <time>2020-08-13T07:35:55Z</time>
      </trkpt>
      <trkpt lat="42.0675396267" lon="-7.3337854911">
        <ele>923.00</ele>
        <time>2020-08-13T07:36:04Z</time>
      </trkpt>
      <trkpt lat="42.0675428119" lon="-7.3337651230">
        <ele>922.04</ele>
        <time>2020-08-13T07:36:18Z</time>
      </trkpt>
      <trkpt lat="42.0675442368" lon="-7.3337590881">
        <ele>921.56</ele>
        <time>2020-08-13T07:36:29Z</time>
      </trkpt>
      <trkpt lat="42.0675454102" lon="-7.3337522987">
        <ele>923.96</ele>
        <time>2020-08-13T07:36:41Z</time>
      </trkpt>
      <trkpt lat="42.0675406326" lon="-7.3337518796">
        <ele>925.41</ele>
        <time>2020-08-13T07:36:55Z</time>
      </trkpt>
      <trkpt lat="42.0675411355" lon="-7.3337568250">
        <ele>924.93</ele>
        <time>2020-08-13T07:37:09Z</time>
      </trkpt>
      <trkpt lat="42.0675396267" lon="-7.3337460123">
        <ele>924.45</ele>
        <time>2020-08-13T07:37:21Z</time>
      </trkpt>
      <trkpt lat="42.0675356034" lon="-7.3337525502">
        <ele>924.45</ele>
        <time>2020-08-13T07:37:33Z</time>
      </trkpt>
      <trkpt lat="42.0675310772" lon="-7.3337583337">
        <ele>923.96</ele>
        <time>2020-08-13T07:37:44Z</time>
      </trkpt>
      <trkpt lat="42.0675247908" lon="-7.3337566573">
        <ele>923.48</ele>
        <time>2020-08-13T07:37:56Z</time>
      </trkpt>
      <trkpt lat="42.0675200131" lon="-7.3337383009">
        <ele>924.93</ele>
        <time>2020-08-13T07:38:09Z</time>
      </trkpt>
      <trkpt lat="42.0675263833" lon="-7.3337320145">
        <ele>925.41</ele>
        <time>2020-08-13T07:38:23Z</time>
      </trkpt>
      <trkpt lat="42.0675334241" lon="-7.3337338585">
        <ele>924.93</ele>
        <time>2020-08-13T07:38:37Z</time>
      </trkpt>
      <trkpt lat="42.0675356034" lon="-7.3337415699">
        <ele>923.48</ele>
        <time>2020-08-13T07:38:50Z</time>
      </trkpt>
      <trkpt lat="42.0675368607" lon="-7.3337442521">
        <ele>922.52</ele>
        <time>2020-08-13T07:39:03Z</time>
      </trkpt>
      <trkpt lat="42.0675299875" lon="-7.3337468505">
        <ele>923.00</ele>
        <time>2020-08-13T07:39:17Z</time>
      </trkpt>
      <trkpt lat="42.0675341785" lon="-7.3337574955">
        <ele>922.52</ele>
        <time>2020-08-13T07:39:31Z</time>
      </trkpt>
      <trkpt lat="42.0675448235" lon="-7.3337619379">
        <ele>922.52</ele>
        <time>2020-08-13T07:39:42Z</time>
      </trkpt>
      <trkpt lat="42.0675443206" lon="-7.3337668832">
        <ele>923.00</ele>
        <time>2020-08-13T07:39:54Z</time>
      </trkpt>
      <trkpt lat="42.0675322507" lon="-7.3337648716">
        <ele>923.00</ele>
        <time>2020-08-13T07:40:05Z</time>
      </trkpt>
      <trkpt lat="42.0675368607" lon="-7.3337730020">
        <ele>923.00</ele>
        <time>2020-08-13T07:40:17Z</time>
      </trkpt>
      <trkpt lat="42.0675383694" lon="-7.3337728344">
        <ele>922.52</ele>
        <time>2020-08-13T07:40:29Z</time>
      </trkpt>
      <trkpt lat="42.0675337594" lon="-7.3337548971">
        <ele>922.52</ele>
        <time>2020-08-13T07:40:42Z</time>
      </trkpt>
      <trkpt lat="42.0675272215" lon="-7.3337541427">
        <ele>922.52</ele>
        <time>2020-08-13T07:40:56Z</time>
      </trkpt>
      <trkpt lat="42.0675448235" lon="-7.3337612674">
        <ele>924.45</ele>
        <time>2020-08-13T07:41:11Z</time>
      </trkpt>
      <trkpt lat="42.0675421413" lon="-7.3337450903">
        <ele>924.45</ele>
        <time>2020-08-13T07:41:23Z</time>
      </trkpt>
      <trkpt lat="42.0675381180" lon="-7.3337443359">
        <ele>923.96</ele>
        <time>2020-08-13T07:41:33Z</time>
      </trkpt>
      <trkpt lat="42.0675363578" lon="-7.3337590043">
        <ele>923.48</ele>
        <time>2020-08-13T07:41:47Z</time>
      </trkpt>
      <trkpt lat="42.0675448235" lon="-7.3337728344">
        <ele>923.96</ele>
        <time>2020-08-13T07:42:03Z</time>
      </trkpt>
      <trkpt lat="42.0675521996" lon="-7.3337585852">
        <ele>923.00</ele>
        <time>2020-08-13T07:42:17Z</time>
      </trkpt>
      <trkpt lat="42.0675552171" lon="-7.3337581661">
        <ele>923.00</ele>
        <time>2020-08-13T07:42:29Z</time>
      </trkpt>
      <trkpt lat="42.0675544627" lon="-7.3337566573">
        <ele>921.56</ele>
        <time>2020-08-13T07:42:44Z</time>
      </trkpt>
      <trkpt lat="42.0675310772" lon="-7.3337439168">
        <ele>919.64</ele>
        <time>2020-08-13T07:43:02Z</time>
      </trkpt>
      <trkpt lat="42.0675343461" lon="-7.3337474372">
        <ele>919.64</ele>
        <time>2020-08-13T07:43:19Z</time>
      </trkpt>
      <trkpt lat="42.0675410517" lon="-7.3337500356">
        <ele>921.56</ele>
        <time>2020-08-13T07:43:33Z</time>
      </trkpt>
      <trkpt lat="42.0675361063" lon="-7.3337554000">
        <ele>923.00</ele>
        <time>2020-08-13T07:43:52Z</time>
      </trkpt>
      <trkpt lat="42.0675275568" lon="-7.3337600939">
        <ele>922.52</ele>
        <time>2020-08-13T07:44:08Z</time>
      </trkpt>
      <trkpt lat="42.0675359387" lon="-7.3337657098">
        <ele>921.08</ele>
        <time>2020-08-13T07:44:24Z</time>
      </trkpt>
      <trkpt lat="42.0675299037" lon="-7.3337636981">
        <ele>921.08</ele>
        <time>2020-08-13T07:44:42Z</time>
      </trkpt>
      <trkpt lat="42.0675284788" lon="-7.3337581661">
        <ele>922.04</ele>
        <time>2020-08-13T07:44:57Z</time>
      </trkpt>
      <trkpt lat="42.0675356034" lon="-7.3337549809">
        <ele>922.04</ele>
        <time>2020-08-13T07:45:08Z</time>
      </trkpt>
      <trkpt lat="42.0675410517" lon="-7.3337347806">
        <ele>922.52</ele>
        <time>2020-08-13T07:45:20Z</time>
      </trkpt>
      <trkpt lat="42.0675387885" lon="-7.3337452579">
        <ele>923.48</ele>
        <time>2020-08-13T07:45:33Z</time>
      </trkpt>
      <trkpt lat="42.0675292332" lon="-7.3337391391">
        <ele>923.48</ele>
        <time>2020-08-13T07:45:49Z</time>
      </trkpt>
      <trkpt lat="42.0675220247" lon="-7.3337394744">
        <ele>923.00</ele>
        <time>2020-08-13T07:46:02Z</time>
      </trkpt>
      <trkpt lat="42.0675461646" lon="-7.3337525502">
        <ele>923.48</ele>
        <time>2020-08-13T07:46:17Z</time>
      </trkpt>
      <trkpt lat="42.0675540436" lon="-7.3337648716">
        <ele>923.00</ele>
        <time>2020-08-13T07:46:33Z</time>
      </trkpt>
      <trkpt lat="42.0675433148" lon="-7.3337670509">
        <ele>922.04</ele>
        <time>2020-08-13T07:46:50Z</time>
      </trkpt>
      <trkpt lat="42.0675367769" lon="-7.3337687273">
        <ele>922.52</ele>
        <time>2020-08-13T07:47:05Z</time>
      </trkpt>
      <trkpt lat="42.0675376151" lon="-7.3337686434">
        <ele>923.00</ele>
        <time>2020-08-13T07:47:22Z</time>
      </trkpt>
      <trkpt lat="42.0675379504" lon="-7.3337590881">
        <ele>923.48</ele>
        <time>2020-08-13T07:47:38Z</time>
      </trkpt>
      <trkpt lat="42.0675304905" lon="-7.3337408993">
        <ele>924.45</ele>
        <time>2020-08-13T07:47:51Z</time>
      </trkpt>
      <trkpt lat="42.0675385371" lon="-7.3337450903">
        <ele>923.96</ele>
        <time>2020-08-13T07:48:04Z</time>
      </trkpt>
      <trkpt lat="42.0675403811" lon="-7.3337463476">
        <ele>923.48</ele>
        <time>2020-08-13T07:48:21Z</time>
      </trkpt>
      <trkpt lat="42.0675397106" lon="-7.3337476049">
        <ele>923.48</ele>
        <time>2020-08-13T07:48:39Z</time>
      </trkpt>
      <trkpt lat="42.0675485954" lon="-7.3337600101">
        <ele>923.96</ele>
        <time>2020-08-13T07:48:52Z</time>
      </trkpt>
      <trkpt lat="42.0675551333" lon="-7.3337573279">
        <ele>923.00</ele>
        <time>2020-08-13T07:49:06Z</time>
      </trkpt>
      <trkpt lat="42.0675527025" lon="-7.3337444197">
        <ele>923.00</ele>
        <time>2020-08-13T07:49:15Z</time>
      </trkpt>
      <trkpt lat="42.0675547980" lon="-7.3337360378">
        <ele>923.48</ele>
        <time>2020-08-13T07:49:25Z</time>
      </trkpt>
      <trkpt lat="42.0675499365" lon="-7.3337427434">
        <ele>922.04</ele>
        <time>2020-08-13T07:49:38Z</time>
      </trkpt>
      <trkpt lat="42.0675475895" lon="-7.3337393068">
        <ele>921.56</ele>
        <time>2020-08-13T07:49:47Z</time>
      </trkpt>
      <trkpt lat="42.0675413031" lon="-7.3337549809">
        <ele>919.16</ele>
        <time>2020-08-13T07:50:02Z</time>
      </trkpt>
      <trkpt lat="42.0675223600" lon="-7.3337755166">
        <ele>919.16</ele>
        <time>2020-08-13T07:50:14Z</time>
      </trkpt>
      <trkpt lat="42.0675203484" lon="-7.3338021711">
        <ele>919.64</ele>
        <time>2020-08-13T07:50:16Z</time>
      </trkpt>
      <trkpt lat="42.0675216056" lon="-7.3338175099">
        <ele>919.64</ele>
        <time>2020-08-13T07:50:17Z</time>
      </trkpt>
      <trkpt lat="42.0675212704" lon="-7.3338323459">
        <ele>920.12</ele>
        <time>2020-08-13T07:50:18Z</time>
      </trkpt>
      <trkpt lat="42.0675216056" lon="-7.3338499479">
        <ele>920.12</ele>
        <time>2020-08-13T07:50:19Z</time>
      </trkpt>
      <trkpt lat="42.0675188396" lon="-7.3338659573">
        <ele>920.12</ele>
        <time>2020-08-13T07:50:20Z</time>
      </trkpt>
      <trkpt lat="42.0675158221" lon="-7.3338826373">
        <ele>920.60</ele>
        <time>2020-08-13T07:50:21Z</time>
      </trkpt>
      <trkpt lat="42.0675164927" lon="-7.3339004908">
        <ele>920.60</ele>
        <time>2020-08-13T07:50:22Z</time>
      </trkpt>
      <trkpt lat="42.0675154869" lon="-7.3339173384">
        <ele>920.60</ele>
        <time>2020-08-13T07:50:23Z</time>
      </trkpt>
      <trkpt lat="42.0675123017" lon="-7.3339351080">
        <ele>921.08</ele>
        <time>2020-08-13T07:50:24Z</time>
      </trkpt>
      <trkpt lat="42.0675102063" lon="-7.3339484353">
        <ele>921.08</ele>
        <time>2020-08-13T07:50:25Z</time>
      </trkpt>
      <trkpt lat="42.0675079431" lon="-7.3340258840">
        <ele>922.04</ele>
        <time>2020-08-13T07:50:33Z</time>
      </trkpt>
      <trkpt lat="42.0675054286" lon="-7.3340394627">
        <ele>922.04</ele>
        <time>2020-08-13T07:50:34Z</time>
      </trkpt>
      <trkpt lat="42.0675011538" lon="-7.3340573162">
        <ele>922.04</ele>
        <time>2020-08-13T07:50:35Z</time>
      </trkpt>
      <trkpt lat="42.0674941968" lon="-7.3342439812">
        <ele>923.00</ele>
        <time>2020-08-13T07:50:44Z</time>
      </trkpt>
      <trkpt lat="42.0674858987" lon="-7.3344810214">
        <ele>923.96</ele>
        <time>2020-08-13T07:50:54Z</time>
      </trkpt>
      <trkpt lat="42.0674629323" lon="-7.3348076642">
        <ele>924.93</ele>
        <time>2020-08-13T07:51:07Z</time>
      </trkpt>
      <trkpt lat="42.0674439054" lon="-7.3351348098">
        <ele>926.85</ele>
        <time>2020-08-13T07:51:21Z</time>
      </trkpt>
      <trkpt lat="42.0674409717" lon="-7.3353657313">
        <ele>928.29</ele>
        <time>2020-08-13T07:51:31Z</time>
      </trkpt>
      <trkpt lat="42.0674590766" lon="-7.3355668131">
        <ele>929.25</ele>
        <time>2020-08-13T07:51:40Z</time>
      </trkpt>
      <trkpt lat="42.0674977172" lon="-7.3357958905">
        <ele>932.14</ele>
        <time>2020-08-13T07:51:51Z</time>
      </trkpt>
      <trkpt lat="42.0675382018" lon="-7.3359898478">
        <ele>934.06</ele>
        <time>2020-08-13T07:52:01Z</time>
      </trkpt>
      <trkpt lat="42.0675780158" lon="-7.3362190928">
        <ele>935.50</ele>
        <time>2020-08-13T07:52:11Z</time>
      </trkpt>
      <trkpt lat="42.0676106215" lon="-7.3364376929">
        <ele>936.94</ele>
        <time>2020-08-13T07:52:21Z</time>
      </trkpt>
      <trkpt lat="42.0676499326" lon="-7.3366392776">
        <ele>937.90</ele>
        <time>2020-08-13T07:52:30Z</time>
      </trkpt>
      <trkpt lat="42.0676824544" lon="-7.3368413653">
        <ele>938.86</ele>
        <time>2020-08-13T07:52:39Z</time>
      </trkpt>
      <trkpt lat="42.0677093603" lon="-7.3369790800">
        <ele>939.83</ele>
        <time>2020-08-13T07:52:47Z</time>
      </trkpt>
      <trkpt lat="42.0677541196" lon="-7.3371817544">
        <ele>941.75</ele>
        <time>2020-08-13T07:52:57Z</time>
      </trkpt>
      <trkpt lat="42.0677987952" lon="-7.3373496439">
        <ele>943.19</ele>
        <time>2020-08-13T07:53:06Z</time>
      </trkpt>
      <trkpt lat="42.0678479970" lon="-7.3375372309">
        <ele>945.59</ele>
        <time>2020-08-13T07:53:16Z</time>
      </trkpt>
      <trkpt lat="42.0678912476" lon="-7.3376788851">
        <ele>947.04</ele>
        <time>2020-08-13T07:53:24Z</time>
      </trkpt>
      <trkpt lat="42.0679008029" lon="-7.3376937211">
        <ele>947.04</ele>
        <time>2020-08-13T07:53:25Z</time>
      </trkpt>
      <trkpt lat="42.0679111965" lon="-7.3377083056">
        <ele>947.52</ele>
        <time>2020-08-13T07:53:26Z</time>
      </trkpt>
      <trkpt lat="42.0679754019" lon="-7.3378597666">
        <ele>949.44</ele>
        <time>2020-08-13T07:53:35Z</time>
      </trkpt>
      <trkpt lat="42.0680147968" lon="-7.3379446752">
        <ele>949.92</ele>
        <time>2020-08-13T07:53:41Z</time>
      </trkpt>
      <trkpt lat="42.0680224244" lon="-7.3379605170">
        <ele>950.40</ele>
        <time>2020-08-13T07:53:42Z</time>
      </trkpt>
      <trkpt lat="42.0680729672" lon="-7.3380383849">
        <ele>950.88</ele>
        <time>2020-08-13T07:53:50Z</time>
      </trkpt>
      <trkpt lat="42.0681591332" lon="-7.3381541390">
        <ele>951.84</ele>
        <time>2020-08-13T07:53:59Z</time>
      </trkpt>
      <trkpt lat="42.0682459697" lon="-7.3383174185">
        <ele>952.32</ele>
        <time>2020-08-13T07:54:10Z</time>
      </trkpt>
      <trkpt lat="42.0683022123" lon="-7.3384419736">
        <ele>952.80</ele>
        <time>2020-08-13T07:54:19Z</time>
      </trkpt>
      <trkpt lat="42.0683469716" lon="-7.3385310732">
        <ele>953.28</ele>
        <time>2020-08-13T07:54:28Z</time>
      </trkpt>
      <trkpt lat="42.0683908090" lon="-7.3386065103">
        <ele>953.77</ele>
        <time>2020-08-13T07:54:35Z</time>
      </trkpt>
      <trkpt lat="42.0684521645" lon="-7.3387268744">
        <ele>954.25</ele>
        <time>2020-08-13T07:54:44Z</time>
      </trkpt>
      <trkpt lat="42.0685090777" lon="-7.3388680257">
        <ele>954.73</ele>
        <time>2020-08-13T07:54:53Z</time>
      </trkpt>
      <trkpt lat="42.0685692597" lon="-7.3390197381">
        <ele>955.69</ele>
        <time>2020-08-13T07:55:03Z</time>
      </trkpt>
      <trkpt lat="42.0686052181" lon="-7.3391354922">
        <ele>956.17</ele>
        <time>2020-08-13T07:55:10Z</time>
      </trkpt>
      <trkpt lat="42.0686529949" lon="-7.3392858636">
        <ele>957.61</ele>
        <time>2020-08-13T07:55:19Z</time>
      </trkpt>
      <trkpt lat="42.0686802361" lon="-7.3393918946">
        <ele>958.57</ele>
        <time>2020-08-13T07:55:25Z</time>
      </trkpt>
      <trkpt lat="42.0686876960" lon="-7.3394106701">
        <ele>958.57</ele>
        <time>2020-08-13T07:55:26Z</time>
      </trkpt>
      <trkpt lat="42.0686933957" lon="-7.3394315410">
        <ele>958.57</ele>
        <time>2020-08-13T07:55:27Z</time>
      </trkpt>
      <trkpt lat="42.0686994307" lon="-7.3394521605">
        <ele>958.57</ele>
        <time>2020-08-13T07:55:28Z</time>
      </trkpt>
      <trkpt lat="42.0687042084" lon="-7.3394613806">
        <ele>958.57</ele>
        <time>2020-08-13T07:55:29Z</time>
      </trkpt>
      <trkpt lat="42.0687073935" lon="-7.3394721095">
        <ele>959.05</ele>
        <time>2020-08-13T07:55:30Z</time>
      </trkpt>
      <trkpt lat="42.0687323716" lon="-7.3396042921">
        <ele>960.01</ele>
        <time>2020-08-13T07:55:38Z</time>
      </trkpt>
      <trkpt lat="42.0687706769" lon="-7.3397448566">
        <ele>960.98</ele>
        <time>2020-08-13T07:55:46Z</time>
      </trkpt>
      <trkpt lat="42.0687988400" lon="-7.3398802243">
        <ele>961.94</ele>
        <time>2020-08-13T07:55:54Z</time>
      </trkpt>
      <trkpt lat="42.0688316971" lon="-7.3400141671">
        <ele>962.90</ele>
        <time>2020-08-13T07:56:02Z</time>
      </trkpt>
      <trkpt lat="42.0688369777" lon="-7.3400308471">
        <ele>962.90</ele>
        <time>2020-08-13T07:56:03Z</time>
      </trkpt>
      <trkpt lat="42.0688424259" lon="-7.3400464375">
        <ele>962.90</ele>
        <time>2020-08-13T07:56:04Z</time>
      </trkpt>
      <trkpt lat="42.0688447729" lon="-7.3400631174">
        <ele>963.38</ele>
        <time>2020-08-13T07:56:05Z</time>
      </trkpt>
      <trkpt lat="42.0688487962" lon="-7.3400785401">
        <ele>963.38</ele>
        <time>2020-08-13T07:56:06Z</time>
      </trkpt>
      <trkpt lat="42.0688534901" lon="-7.3400966451">
        <ele>963.38</ele>
        <time>2020-08-13T07:56:07Z</time>
      </trkpt>
      <trkpt lat="42.0688572619" lon="-7.3401150852">
        <ele>963.38</ele>
        <time>2020-08-13T07:56:08Z</time>
      </trkpt>
      <trkpt lat="42.0688887779" lon="-7.3402697314">
        <ele>964.34</ele>
        <time>2020-08-13T07:56:17Z</time>
      </trkpt>
      <trkpt lat="42.0689190365" lon="-7.3404048476">
        <ele>965.30</ele>
        <time>2020-08-13T07:56:25Z</time>
      </trkpt>
      <trkpt lat="42.0689598564" lon="-7.3405579850">
        <ele>966.74</ele>
        <time>2020-08-13T07:56:34Z</time>
      </trkpt>
      <trkpt lat="42.0689855888" lon="-7.3406397924">
        <ele>967.22</ele>
        <time>2020-08-13T07:56:39Z</time>
      </trkpt>
      <trkpt lat="42.0689899474" lon="-7.3406578135">
        <ele>967.22</ele>
        <time>2020-08-13T07:56:40Z</time>
      </trkpt>
      <trkpt lat="42.0689945575" lon="-7.3406754993">
        <ele>967.70</ele>
        <time>2020-08-13T07:56:41Z</time>
      </trkpt>
      <trkpt lat="42.0689989999" lon="-7.3406922631">
        <ele>967.70</ele>
        <time>2020-08-13T07:56:42Z</time>
      </trkpt>
      <trkpt lat="42.0690049510" lon="-7.3407091945">
        <ele>967.70</ele>
        <time>2020-08-13T07:56:43Z</time>
      </trkpt>
      <trkpt lat="42.0690666419" lon="-7.3408817779">
        <ele>968.67</ele>
        <time>2020-08-13T07:56:53Z</time>
      </trkpt>
      <trkpt lat="42.0691533946" lon="-7.3410695326">
        <ele>969.63</ele>
        <time>2020-08-13T07:57:05Z</time>
      </trkpt>
      <trkpt lat="42.0692305919" lon="-7.3412227537">
        <ele>970.11</ele>
        <time>2020-08-13T07:57:15Z</time>
      </trkpt>
      <trkpt lat="42.0693141595" lon="-7.3413760588">
        <ele>971.55</ele>
        <time>2020-08-13T07:57:25Z</time>
      </trkpt>
      <trkpt lat="42.0694276504" lon="-7.3415257595">
        <ele>972.99</ele>
        <time>2020-08-13T07:57:34Z</time>
      </trkpt>
      <trkpt lat="42.0695944503" lon="-7.3416384123">
        <ele>975.39</ele>
        <time>2020-08-13T07:57:44Z</time>
      </trkpt>
      <trkpt lat="42.0697589871" lon="-7.3417250812">
        <ele>977.80</ele>
        <time>2020-08-13T07:57:53Z</time>
      </trkpt>
      <trkpt lat="42.0699484181" lon="-7.3418322019">
        <ele>981.16</ele>
        <time>2020-08-13T07:58:04Z</time>
      </trkpt>
      <trkpt lat="42.0701105241" lon="-7.3419614509">
        <ele>982.60</ele>
        <time>2020-08-13T07:58:14Z</time>
      </trkpt>
      <trkpt lat="42.0702691935" lon="-7.3421439249">
        <ele>984.53</ele>
        <time>2020-08-13T07:58:25Z</time>
      </trkpt>
      <trkpt lat="42.0703788288" lon="-7.3423041031">
        <ele>985.49</ele>
        <time>2020-08-13T07:58:34Z</time>
      </trkpt>
      <trkpt lat="42.0704119373" lon="-7.3423764389">
        <ele>986.45</ele>
        <time>2020-08-13T07:58:41Z</time>
      </trkpt>
      <trkpt lat="42.0704471413" lon="-7.3424681369">
        <ele>986.93</ele>
        <time>2020-08-13T07:58:46Z</time>
      </trkpt>
      <trkpt lat="42.0704544336" lon="-7.3424859066">
        <ele>986.93</ele>
        <time>2020-08-13T07:58:47Z</time>
      </trkpt>
      <trkpt lat="42.0704602171" lon="-7.3425055202">
        <ele>986.93</ele>
        <time>2020-08-13T07:58:48Z</time>
      </trkpt>
      <trkpt lat="42.0704645757" lon="-7.3425341025">
        <ele>987.41</ele>
        <time>2020-08-13T07:58:50Z</time>
      </trkpt>
      <trkpt lat="42.0705155376" lon="-7.3427765910">
        <ele>988.85</ele>
        <time>2020-08-13T07:59:00Z</time>
      </trkpt>
      <trkpt lat="42.0705705229" lon="-7.3430933431">
        <ele>990.30</ele>
        <time>2020-08-13T07:59:13Z</time>
      </trkpt>
      <trkpt lat="42.0706237480" lon="-7.3433098476">
        <ele>992.70</ele>
        <time>2020-08-13T07:59:23Z</time>
      </trkpt>
      <trkpt lat="42.0707208104" lon="-7.3434941657">
        <ele>995.10</ele>
        <time>2020-08-13T07:59:32Z</time>
      </trkpt>
      <trkpt lat="42.0708208065" lon="-7.3436297849">
        <ele>996.06</ele>
        <time>2020-08-13T07:59:39Z</time>
      </trkpt>
      <trkpt lat="42.0709950663" lon="-7.3438783083">
        <ele>996.54</ele>
        <time>2020-08-13T07:59:51Z</time>
      </trkpt>
      <trkpt lat="42.0711579267" lon="-7.3441078048">
        <ele>997.51</ele>
        <time>2020-08-13T08:00:03Z</time>
      </trkpt>
      <trkpt lat="42.0712922048" lon="-7.3443429172">
        <ele>998.95</ele>
        <time>2020-08-13T08:00:14Z</time>
      </trkpt>
      <trkpt lat="42.0713937096" lon="-7.3445184343">
        <ele>999.91</ele>
        <time>2020-08-13T08:00:23Z</time>
      </trkpt>
      <trkpt lat="42.0717432350" lon="-7.3445472680">
        <ele>1001.83</ele>
        <time>2020-08-13T08:00:41Z</time>
      </trkpt>
      <trkpt lat="42.0719581470" lon="-7.3445477709">
        <ele>1003.27</ele>
        <time>2020-08-13T08:00:51Z</time>
      </trkpt>
      <trkpt lat="42.0721415430" lon="-7.3446425702">
        <ele>1004.72</ele>
        <time>2020-08-13T08:01:01Z</time>
      </trkpt>
      <trkpt lat="42.0722982846" lon="-7.3448260501">
        <ele>1005.20</ele>
        <time>2020-08-13T08:01:10Z</time>
      </trkpt>
      <trkpt lat="42.0723563712" lon="-7.3449188378">
        <ele>1005.20</ele>
        <time>2020-08-13T08:01:17Z</time>
      </trkpt>
      <trkpt lat="42.0723686926" lon="-7.3449722305">
        <ele>1005.68</ele>
        <time>2020-08-13T08:01:25Z</time>
      </trkpt>
      <trkpt lat="42.0723608136" lon="-7.3449762538">
        <ele>1004.23</ele>
        <time>2020-08-13T08:01:37Z</time>
      </trkpt>
      <trkpt lat="42.0723694470" lon="-7.3449598253">
        <ele>1003.75</ele>
        <time>2020-08-13T08:01:55Z</time>
      </trkpt>
      <trkpt lat="42.0723665971" lon="-7.3449686263">
        <ele>1003.75</ele>
        <time>2020-08-13T08:02:15Z</time>
      </trkpt>
      <trkpt lat="42.0723549463" lon="-7.3449606635">
        <ele>1004.23</ele>
        <time>2020-08-13T08:02:31Z</time>
      </trkpt>
      <trkpt lat="42.0723676868" lon="-7.3449697997">
        <ele>1005.20</ele>
        <time>2020-08-13T08:02:50Z</time>
      </trkpt>
      <trkpt lat="42.0723656751" lon="-7.3449745774">
        <ele>1005.20</ele>
        <time>2020-08-13T08:03:05Z</time>
      </trkpt>
      <trkpt lat="42.0723646693" lon="-7.3449694645">
        <ele>1005.68</ele>
        <time>2020-08-13T08:03:26Z</time>
      </trkpt>
      <trkpt lat="42.0723742247" lon="-7.3450221866">
        <ele>1006.16</ele>
        <time>2020-08-13T08:03:37Z</time>
      </trkpt>
      <trkpt lat="42.0723988675" lon="-7.3451853823">
        <ele>1005.20</ele>
        <time>2020-08-13T08:03:41Z</time>
      </trkpt>
      <trkpt lat="42.0723689441" lon="-7.3456332274">
        <ele>1003.27</ele>
        <time>2020-08-13T08:03:47Z</time>
      </trkpt>
      <trkpt lat="42.0723064151" lon="-7.3460614588">
        <ele>1002.79</ele>
        <time>2020-08-13T08:03:53Z</time>
      </trkpt>
      <trkpt lat="42.0722630806" lon="-7.3462809809">
        <ele>1002.31</ele>
        <time>2020-08-13T08:03:56Z</time>
      </trkpt>
      <trkpt lat="42.0722534414" lon="-7.3463931307">
        <ele>1002.79</ele>
        <time>2020-08-13T08:03:58Z</time>
      </trkpt>
      <trkpt lat="42.0722603146" lon="-7.3464791290">
        <ele>1002.79</ele>
        <time>2020-08-13T08:03:59Z</time>
      </trkpt>
      <trkpt lat="42.0722760726" lon="-7.3465747666">
        <ele>1002.79</ele>
        <time>2020-08-13T08:04:01Z</time>
      </trkpt>
      <trkpt lat="42.0722937584" lon="-7.3466423247">
        <ele>1002.79</ele>
        <time>2020-08-13T08:04:02Z</time>
      </trkpt>
      <trkpt lat="42.0723414514" lon="-7.3467593361">
        <ele>1002.31</ele>
        <time>2020-08-13T08:04:07Z</time>
      </trkpt>
      <trkpt lat="42.0723484922" lon="-7.3467561509">
        <ele>1002.31</ele>
        <time>2020-08-13T08:04:15Z</time>
      </trkpt>
      <trkpt lat="42.0723742247" lon="-7.3468127288">
        <ele>1001.83</ele>
        <time>2020-08-13T08:04:27Z</time>
      </trkpt>
      <trkpt lat="42.0725247636" lon="-7.3470546305">
        <ele>1001.35</ele>
        <time>2020-08-13T08:04:33Z</time>
      </trkpt>
      <trkpt lat="42.0726501569" lon="-7.3473135475">
        <ele>999.43</ele>
        <time>2020-08-13T08:04:37Z</time>
      </trkpt>
      <trkpt lat="42.0726627298" lon="-7.3473639227">
        <ele>998.95</ele>
        <time>2020-08-13T08:04:38Z</time>
      </trkpt>
      <trkpt lat="42.0726816729" lon="-7.3474607337">
        <ele>997.99</ele>
        <time>2020-08-13T08:04:39Z</time>
      </trkpt>
      <trkpt lat="42.0726955868" lon="-7.3475645855">
        <ele>997.51</ele>
        <time>2020-08-13T08:04:40Z</time>
      </trkpt>
      <trkpt lat="42.0727067348" lon="-7.3476908170">
        <ele>996.54</ele>
        <time>2020-08-13T08:04:41Z</time>
      </trkpt>
      <trkpt lat="42.0727408491" lon="-7.3485689051">
        <ele>989.81</ele>
        <time>2020-08-13T08:04:48Z</time>
      </trkpt>
      <trkpt lat="42.0727552660" lon="-7.3488976434">
        <ele>987.41</ele>
        <time>2020-08-13T08:04:53Z</time>
      </trkpt>
      <trkpt lat="42.0727513265" lon="-7.3489639442">
        <ele>986.93</ele>
        <time>2020-08-13T08:04:56Z</time>
      </trkpt>
      <trkpt lat="42.0727425255" lon="-7.3490065243">
        <ele>986.45</ele>
        <time>2020-08-13T08:05:01Z</time>
      </trkpt>
      <trkpt lat="42.0727405138" lon="-7.3490244616">
        <ele>986.45</ele>
        <time>2020-08-13T08:05:02Z</time>
      </trkpt>
      <trkpt lat="42.0727377478" lon="-7.3490485176">
        <ele>985.97</ele>
        <time>2020-08-13T08:05:03Z</time>
      </trkpt>
      <trkpt lat="42.0727348141" lon="-7.3490759265">
        <ele>985.97</ele>
        <time>2020-08-13T08:05:04Z</time>
      </trkpt>
      <trkpt lat="42.0727346465" lon="-7.3491049279">
        <ele>985.97</ele>
        <time>2020-08-13T08:05:05Z</time>
      </trkpt>
      <trkpt lat="42.0727369934" lon="-7.3491350189">
        <ele>985.49</ele>
        <time>2020-08-13T08:05:06Z</time>
      </trkpt>
      <trkpt lat="42.0727373287" lon="-7.3491646908">
        <ele>985.49</ele>
        <time>2020-08-13T08:05:07Z</time>
      </trkpt>
      <trkpt lat="42.0727462973" lon="-7.3494292237">
        <ele>985.01</ele>
        <time>2020-08-13T08:05:14Z</time>
      </trkpt>
      <trkpt lat="42.0727619715" lon="-7.3497680202">
        <ele>983.57</ele>
        <time>2020-08-13T08:05:19Z</time>
      </trkpt>
      <trkpt lat="42.0727695152" lon="-7.3503505625">
        <ele>980.20</ele>
        <time>2020-08-13T08:05:25Z</time>
      </trkpt>
      <trkpt lat="42.0726621430" lon="-7.3512006551">
        <ele>976.36</ele>
        <time>2020-08-13T08:05:32Z</time>
      </trkpt>
      <trkpt lat="42.0725930762" lon="-7.3519223370">
        <ele>973.95</ele>
        <time>2020-08-13T08:05:38Z</time>
      </trkpt>
      <trkpt lat="42.0725465566" lon="-7.3529095575">
        <ele>971.07</ele>
        <time>2020-08-13T08:05:47Z</time>
      </trkpt>
      <trkpt lat="42.0724741369" lon="-7.3534494359">
        <ele>970.11</ele>
        <time>2020-08-13T08:05:53Z</time>
      </trkpt>
      <trkpt lat="42.0724296290" lon="-7.3536300659">
        <ele>969.63</ele>
        <time>2020-08-13T08:05:57Z</time>
      </trkpt>
      <trkpt lat="42.0723131206" lon="-7.3539585527">
        <ele>968.18</ele>
        <time>2020-08-13T08:06:05Z</time>
      </trkpt>
      <trkpt lat="42.0721038245" lon="-7.3544800747">
        <ele>966.74</ele>
        <time>2020-08-13T08:06:14Z</time>
      </trkpt>
      <trkpt lat="42.0720329974" lon="-7.3546050489">
        <ele>966.26</ele>
        <time>2020-08-13T08:06:16Z</time>
      </trkpt>
      <trkpt lat="42.0716694742" lon="-7.3551178537">
        <ele>964.34</ele>
        <time>2020-08-13T08:06:27Z</time>
      </trkpt>
      <trkpt lat="42.0716369525" lon="-7.3551804665">
        <ele>964.34</ele>
        <time>2020-08-13T08:06:28Z</time>
      </trkpt>
      <trkpt lat="42.0713813882" lon="-7.3557891604">
        <ele>962.42</ele>
        <time>2020-08-13T08:06:36Z</time>
      </trkpt>
      <trkpt lat="42.0710424241" lon="-7.3563171364">
        <ele>960.01</ele>
        <time>2020-08-13T08:06:44Z</time>
      </trkpt>
      <trkpt lat="42.0709426794" lon="-7.3565158714">
        <ele>959.53</ele>
        <time>2020-08-13T08:06:47Z</time>
      </trkpt>
      <trkpt lat="42.0706452895" lon="-7.3573364597">
        <ele>957.13</ele>
        <time>2020-08-13T08:06:58Z</time>
      </trkpt>
      <trkpt lat="42.0704779867" lon="-7.3577145673">
        <ele>955.69</ele>
        <time>2020-08-13T08:07:03Z</time>
      </trkpt>
      <trkpt lat="42.0704588760" lon="-7.3578159884">
        <ele>955.21</ele>
        <time>2020-08-13T08:07:04Z</time>
      </trkpt>
      <trkpt lat="42.0704483148" lon="-7.3579094466">
        <ele>954.73</ele>
        <time>2020-08-13T08:07:05Z</time>
      </trkpt>
      <trkpt lat="42.0703373384" lon="-7.3586825095">
        <ele>950.88</ele>
        <time>2020-08-13T08:07:12Z</time>
      </trkpt>
      <trkpt lat="42.0701127034" lon="-7.3596499488">
        <ele>946.56</ele>
        <time>2020-08-13T08:07:20Z</time>
      </trkpt>
      <trkpt lat="42.0700615738" lon="-7.3597633559">
        <ele>946.07</ele>
        <time>2020-08-13T08:07:21Z</time>
      </trkpt>
      <trkpt lat="42.0700023137" lon="-7.3598568980">
        <ele>946.07</ele>
        <time>2020-08-13T08:07:22Z</time>
      </trkpt>
      <trkpt lat="42.0699349232" lon="-7.3599313293">
        <ele>946.07</ele>
        <time>2020-08-13T08:07:23Z</time>
      </trkpt>
      <trkpt lat="42.0698668621" lon="-7.3599938583">
        <ele>946.07</ele>
        <time>2020-08-13T08:07:24Z</time>
      </trkpt>
      <trkpt lat="42.0695998147" lon="-7.3602310661">
        <ele>947.52</ele>
        <time>2020-08-13T08:07:29Z</time>
      </trkpt>
      <trkpt lat="42.0695805363" lon="-7.3602871411">
        <ele>948.00</ele>
        <time>2020-08-13T08:07:30Z</time>
      </trkpt>
      <trkpt lat="42.0695813745" lon="-7.3603384383">
        <ele>948.00</ele>
        <time>2020-08-13T08:07:31Z</time>
      </trkpt>
      <trkpt lat="42.0695957914" lon="-7.3603935074">
        <ele>947.52</ele>
        <time>2020-08-13T08:07:32Z</time>
      </trkpt>
      <trkpt lat="42.0696104597" lon="-7.3604434635">
        <ele>947.52</ele>
        <time>2020-08-13T08:07:33Z</time>
      </trkpt>
      <trkpt lat="42.0696698874" lon="-7.3607369140">
        <ele>946.07</ele>
        <time>2020-08-13T08:07:39Z</time>
      </trkpt>
      <trkpt lat="42.0697552152" lon="-7.3611849267">
        <ele>942.23</ele>
        <time>2020-08-13T08:07:44Z</time>
      </trkpt>
      <trkpt lat="42.0698474161" lon="-7.3616263177">
        <ele>938.38</ele>
        <time>2020-08-13T08:07:50Z</time>
      </trkpt>
      <trkpt lat="42.0698602404" lon="-7.3616866674">
        <ele>937.90</ele>
        <time>2020-08-13T08:07:55Z</time>
      </trkpt>
      <trkpt lat="42.0698595699" lon="-7.3617014196">
        <ele>936.94</ele>
        <time>2020-08-13T08:08:04Z</time>
      </trkpt>
      <trkpt lat="42.0698590670" lon="-7.3617111426">
        <ele>936.94</ele>
        <time>2020-08-13T08:08:22Z</time>
      </trkpt>
      <trkpt lat="42.0698505174" lon="-7.3617298342">
        <ele>936.94</ele>
        <time>2020-08-13T08:08:34Z</time>
      </trkpt>
      <trkpt lat="42.0698158164" lon="-7.3618838936">
        <ele>935.98</ele>
        <time>2020-08-13T08:08:41Z</time>
      </trkpt>
      <trkpt lat="42.0697711408" lon="-7.3620744143">
        <ele>935.02</ele>
        <time>2020-08-13T08:08:45Z</time>
      </trkpt>
      <trkpt lat="42.0697516110" lon="-7.3621295672">
        <ele>934.54</ele>
        <time>2020-08-13T08:08:46Z</time>
      </trkpt>
      <trkpt lat="42.0697355177" lon="-7.3621771764">
        <ele>934.54</ele>
        <time>2020-08-13T08:08:47Z</time>
      </trkpt>
      <trkpt lat="42.0697150659" lon="-7.3622303177">
        <ele>934.54</ele>
        <time>2020-08-13T08:08:48Z</time>
      </trkpt>
      <trkpt lat="42.0696964581" lon="-7.3622759990">
        <ele>934.54</ele>
        <time>2020-08-13T08:08:49Z</time>
      </trkpt>
      <trkpt lat="42.0696900878" lon="-7.3625093512">
        <ele>934.06</ele>
        <time>2020-08-13T08:08:54Z</time>
      </trkpt>
      <trkpt lat="42.0698083565" lon="-7.3626984470">
        <ele>935.02</ele>
        <time>2020-08-13T08:09:01Z</time>
      </trkpt>
      <trkpt lat="42.0699133817" lon="-7.3628238402">
        <ele>936.46</ele>
        <time>2020-08-13T08:09:07Z</time>
      </trkpt>
      <trkpt lat="42.0699193329" lon="-7.3628510814">
        <ele>936.46</ele>
        <time>2020-08-13T08:09:08Z</time>
      </trkpt>
      <trkpt lat="42.0699176565" lon="-7.3628846090">
        <ele>936.94</ele>
        <time>2020-08-13T08:09:09Z</time>
      </trkpt>
      <trkpt lat="42.0699084364" lon="-7.3629172985">
        <ele>936.94</ele>
        <time>2020-08-13T08:09:10Z</time>
      </trkpt>
      <trkpt lat="42.0698968694" lon="-7.3629421927">
        <ele>936.94</ele>
        <time>2020-08-13T08:09:11Z</time>
      </trkpt>
      <trkpt lat="42.0698841289" lon="-7.3629716970">
        <ele>937.42</ele>
        <time>2020-08-13T08:09:12Z</time>
      </trkpt>
      <trkpt lat="42.0698782615" lon="-7.3629871197">
        <ele>937.42</ele>
        <time>2020-08-13T08:09:13Z</time>
      </trkpt>
      <trkpt lat="42.0697680395" lon="-7.3632191308">
        <ele>939.83</ele>
        <time>2020-08-13T08:09:23Z</time>
      </trkpt>
      <trkpt lat="42.0696959551" lon="-7.3633986712">
        <ele>939.83</ele>
        <time>2020-08-13T08:09:32Z</time>
      </trkpt>
      <trkpt lat="42.0696136449" lon="-7.3636197019">
        <ele>940.79</ele>
        <time>2020-08-13T08:09:41Z</time>
      </trkpt>
      <trkpt lat="42.0695139002" lon="-7.3638340272">
        <ele>941.75</ele>
        <time>2020-08-13T08:09:50Z</time>
      </trkpt>
      <trkpt lat="42.0694371220" lon="-7.3640719056">
        <ele>942.71</ele>
        <time>2020-08-13T08:10:00Z</time>
      </trkpt>
      <trkpt lat="42.0693641156" lon="-7.3642863147">
        <ele>943.19</ele>
        <time>2020-08-13T08:10:09Z</time>
      </trkpt>
      <trkpt lat="42.0692784525" lon="-7.3645235226">
        <ele>944.63</ele>
        <time>2020-08-13T08:10:18Z</time>
      </trkpt>
      <trkpt lat="42.0692056138" lon="-7.3647019733">
        <ele>946.07</ele>
        <time>2020-08-13T08:10:26Z</time>
      </trkpt>
      <trkpt lat="42.0690969843" lon="-7.3649315536">
        <ele>946.56</ele>
        <time>2020-08-13T08:10:34Z</time>
      </trkpt>
      <trkpt lat="42.0689277537" lon="-7.3652788159">
        <ele>948.00</ele>
        <time>2020-08-13T08:10:45Z</time>
      </trkpt>
      <trkpt lat="42.0688422583" lon="-7.3655538261">
        <ele>949.44</ele>
        <time>2020-08-13T08:10:53Z</time>
      </trkpt>
      <trkpt lat="42.0687013585" lon="-7.3658334464">
        <ele>951.84</ele>
        <time>2020-08-13T08:11:04Z</time>
      </trkpt>
      <trkpt lat="42.0686014462" lon="-7.3660483584">
        <ele>952.80</ele>
        <time>2020-08-13T08:11:12Z</time>
      </trkpt>
      <trkpt lat="42.0684816688" lon="-7.3663542978">
        <ele>954.25</ele>
        <time>2020-08-13T08:11:23Z</time>
      </trkpt>
      <trkpt lat="42.0684050582" lon="-7.3665630072">
        <ele>954.73</ele>
        <time>2020-08-13T08:11:31Z</time>
      </trkpt>
      <trkpt lat="42.0683995262" lon="-7.3665857222">
        <ele>955.21</ele>
        <time>2020-08-13T08:11:32Z</time>
      </trkpt>
      <trkpt lat="42.0683910605" lon="-7.3666075990">
        <ele>955.21</ele>
        <time>2020-08-13T08:11:33Z</time>
      </trkpt>
      <trkpt lat="42.0683205687" lon="-7.3668198287">
        <ele>955.69</ele>
        <time>2020-08-13T08:11:41Z</time>
      </trkpt>
      <trkpt lat="42.0682340674" lon="-7.3671059869">
        <ele>956.65</ele>
        <time>2020-08-13T08:11:52Z</time>
      </trkpt>
      <trkpt lat="42.0681170560" lon="-7.3673610482">
        <ele>956.65</ele>
        <time>2020-08-13T08:12:01Z</time>
      </trkpt>
      <trkpt lat="42.0679016411" lon="-7.3675219808">
        <ele>957.13</ele>
        <time>2020-08-13T08:12:12Z</time>
      </trkpt>
      <trkpt lat="42.0677273814" lon="-7.3675846774">
        <ele>957.13</ele>
        <time>2020-08-13T08:12:20Z</time>
      </trkpt>
      <trkpt lat="42.0675755013" lon="-7.3676125053">
        <ele>957.13</ele>
        <time>2020-08-13T08:12:28Z</time>
      </trkpt>
      <trkpt lat="42.0674619265" lon="-7.3676762916">
        <ele>958.57</ele>
        <time>2020-08-13T08:12:36Z</time>
      </trkpt>
      <trkpt lat="42.0673286542" lon="-7.3678506352">
        <ele>960.01</ele>
        <time>2020-08-13T08:12:46Z</time>
      </trkpt>
      <trkpt lat="42.0672500320" lon="-7.3679730948">
        <ele>962.42</ele>
        <time>2020-08-13T08:12:55Z</time>
      </trkpt>
      <trkpt lat="42.0671857428" lon="-7.3681155033">
        <ele>962.90</ele>
        <time>2020-08-13T08:13:02Z</time>
      </trkpt>
      <trkpt lat="42.0671401452" lon="-7.3682306707">
        <ele>964.34</ele>
        <time>2020-08-13T08:13:08Z</time>
      </trkpt>
      <trkpt lat="42.0670963917" lon="-7.3683120590">
        <ele>964.34</ele>
        <time>2020-08-13T08:13:15Z</time>
      </trkpt>
      <trkpt lat="42.0670937933" lon="-7.3683285713">
        <ele>964.82</ele>
        <time>2020-08-13T08:13:16Z</time>
      </trkpt>
      <trkpt lat="42.0670897700" lon="-7.3683458380">
        <ele>964.82</ele>
        <time>2020-08-13T08:13:17Z</time>
      </trkpt>
      <trkpt lat="42.0670851599" lon="-7.3683636077">
        <ele>964.82</ele>
        <time>2020-08-13T08:13:18Z</time>
      </trkpt>
      <trkpt lat="42.0670791250" lon="-7.3683809582">
        <ele>964.82</ele>
        <time>2020-08-13T08:13:19Z</time>
      </trkpt>
      <trkpt lat="42.0670713298" lon="-7.3683993146">
        <ele>964.82</ele>
        <time>2020-08-13T08:13:20Z</time>
      </trkpt>
      <trkpt lat="42.0670427475" lon="-7.3685316648">
        <ele>965.78</ele>
        <time>2020-08-13T08:13:27Z</time>
      </trkpt>
      <trkpt lat="42.0670005027" lon="-7.3686805274">
        <ele>966.74</ele>
        <time>2020-08-13T08:13:35Z</time>
      </trkpt>
      <trkpt lat="42.0669829007" lon="-7.3688655160">
        <ele>968.67</ele>
        <time>2020-08-13T08:13:44Z</time>
      </trkpt>
      <trkpt lat="42.0669794641" lon="-7.3690812662">
        <ele>971.55</ele>
        <time>2020-08-13T08:13:55Z</time>
      </trkpt>
      <trkpt lat="42.0670006704" lon="-7.3692516703">
        <ele>972.51</ele>
        <time>2020-08-13T08:14:03Z</time>
      </trkpt>
      <trkpt lat="42.0670139976" lon="-7.3693364114">
        <ele>972.99</ele>
        <time>2020-08-13T08:14:09Z</time>
      </trkpt>
      <trkpt lat="42.0670455135" lon="-7.3694942426">
        <ele>974.43</ele>
        <time>2020-08-13T08:14:17Z</time>
      </trkpt>
      <trkpt lat="42.0671006665" lon="-7.3697018623">
        <ele>975.39</ele>
        <time>2020-08-13T08:14:28Z</time>
      </trkpt>
      <trkpt lat="42.0671304222" lon="-7.3699256591">
        <ele>976.84</ele>
        <time>2020-08-13T08:14:38Z</time>
      </trkpt>
      <trkpt lat="42.0671279076" lon="-7.3701536469">
        <ele>978.28</ele>
        <time>2020-08-13T08:14:48Z</time>
      </trkpt>
      <trkpt lat="42.0671195257" lon="-7.3702611867">
        <ele>978.76</ele>
        <time>2020-08-13T08:14:55Z</time>
      </trkpt>
      <trkpt lat="42.0671176817" lon="-7.3702903558">
        <ele>979.24</ele>
        <time>2020-08-13T08:14:56Z</time>
      </trkpt>
      <trkpt lat="42.0671136584" lon="-7.3703096341">
        <ele>979.24</ele>
        <time>2020-08-13T08:14:57Z</time>
      </trkpt>
      <trkpt lat="42.0671120659" lon="-7.3703289963">
        <ele>979.24</ele>
        <time>2020-08-13T08:14:58Z</time>
      </trkpt>
      <trkpt lat="42.0671112277" lon="-7.3703472689">
        <ele>979.72</ele>
        <time>2020-08-13T08:14:59Z</time>
      </trkpt>
      <trkpt lat="42.0671129879" lon="-7.3703635298">
        <ele>979.72</ele>
        <time>2020-08-13T08:15:00Z</time>
      </trkpt>
      <trkpt lat="42.0671151672" lon="-7.3703807127">
        <ele>979.72</ele>
        <time>2020-08-13T08:15:01Z</time>
      </trkpt>
      <trkpt lat="42.0671173465" lon="-7.3704028409">
        <ele>979.72</ele>
        <time>2020-08-13T08:15:02Z</time>
      </trkpt>
      <trkpt lat="42.0671199448" lon="-7.3704230413">
        <ele>980.20</ele>
        <time>2020-08-13T08:15:03Z</time>
      </trkpt>
      <trkpt lat="42.0671227109" lon="-7.3704442475">
        <ele>980.20</ele>
        <time>2020-08-13T08:15:04Z</time>
      </trkpt>
      <trkpt lat="42.0671244711" lon="-7.3704678006">
        <ele>980.68</ele>
        <time>2020-08-13T08:15:05Z</time>
      </trkpt>
      <trkpt lat="42.0671248063" lon="-7.3704902641">
        <ele>980.68</ele>
        <time>2020-08-13T08:15:06Z</time>
      </trkpt>
      <trkpt lat="42.0671262313" lon="-7.3705392145">
        <ele>981.16</ele>
        <time>2020-08-13T08:15:08Z</time>
      </trkpt>
      <trkpt lat="42.0671600103" lon="-7.3707348481">
        <ele>982.12</ele>
        <time>2020-08-13T08:15:17Z</time>
      </trkpt>
      <trkpt lat="42.0672155824" lon="-7.3709121253">
        <ele>983.09</ele>
        <time>2020-08-13T08:15:26Z</time>
      </trkpt>
      <trkpt lat="42.0672879182" lon="-7.3710318189">
        <ele>983.57</ele>
        <time>2020-08-13T08:15:33Z</time>
      </trkpt>
      <trkpt lat="42.0674471743" lon="-7.3712107725">
        <ele>984.05</ele>
        <time>2020-08-13T08:15:45Z</time>
      </trkpt>
      <trkpt lat="42.0675749145" lon="-7.3713364173">
        <ele>984.53</ele>
        <time>2020-08-13T08:15:54Z</time>
      </trkpt>
      <trkpt lat="42.0677314047" lon="-7.3714826815">
        <ele>985.49</ele>
        <time>2020-08-13T08:16:04Z</time>
      </trkpt>
      <trkpt lat="42.0679248590" lon="-7.3716719449">
        <ele>985.97</ele>
        <time>2020-08-13T08:16:16Z</time>
      </trkpt>
      <trkpt lat="42.0680809300" lon="-7.3718266748">
        <ele>986.93</ele>
        <time>2020-08-13T08:16:26Z</time>
      </trkpt>
      <trkpt lat="42.0682054851" lon="-7.3719651438">
        <ele>988.37</ele>
        <time>2020-08-13T08:16:35Z</time>
      </trkpt>
      <trkpt lat="42.0683275256" lon="-7.3720904533">
        <ele>989.33</ele>
        <time>2020-08-13T08:16:43Z</time>
      </trkpt>
      <trkpt lat="42.0685001928" lon="-7.3722803034">
        <ele>990.30</ele>
        <time>2020-08-13T08:16:54Z</time>
      </trkpt>
      <trkpt lat="42.0686028711" lon="-7.3724940419">
        <ele>991.74</ele>
        <time>2020-08-13T08:17:04Z</time>
      </trkpt>
      <trkpt lat="42.0685974229" lon="-7.3727004044">
        <ele>994.14</ele>
        <time>2020-08-13T08:17:12Z</time>
      </trkpt>
      <trkpt lat="42.0684988517" lon="-7.3729274701">
        <ele>996.06</ele>
        <time>2020-08-13T08:17:22Z</time>
      </trkpt>
      <trkpt lat="42.0684287790" lon="-7.3730802722">
        <ele>996.06</ele>
        <time>2020-08-13T08:17:30Z</time>
      </trkpt>
      <trkpt lat="42.0682978537" lon="-7.3731573857">
        <ele>994.62</ele>
        <time>2020-08-13T08:17:35Z</time>
      </trkpt>
      <trkpt lat="42.0682339836" lon="-7.3731619958">
        <ele>994.14</ele>
        <time>2020-08-13T08:17:37Z</time>
      </trkpt>
      <trkpt lat="42.0680924132" lon="-7.3731696233">
        <ele>993.18</ele>
        <time>2020-08-13T08:17:40Z</time>
      </trkpt>
      <trkpt lat="42.0676105376" lon="-7.3732134607">
        <ele>990.78</ele>
        <time>2020-08-13T08:17:51Z</time>
      </trkpt>
      <trkpt lat="42.0673449151" lon="-7.3733101040">
        <ele>990.30</ele>
        <time>2020-08-13T08:17:59Z</time>
      </trkpt>
      <trkpt lat="42.0671989862" lon="-7.3735393491">
        <ele>990.30</ele>
        <time>2020-08-13T08:18:06Z</time>
      </trkpt>
      <trkpt lat="42.0671825577" lon="-7.3737642355">
        <ele>990.30</ele>
        <time>2020-08-13T08:18:12Z</time>
      </trkpt>
      <trkpt lat="42.0672182646" lon="-7.3741318658">
        <ele>991.26</ele>
        <time>2020-08-13T08:18:20Z</time>
      </trkpt>
      <trkpt lat="42.0672735851" lon="-7.3746557347">
        <ele>992.70</ele>
        <time>2020-08-13T08:18:30Z</time>
      </trkpt>
      <trkpt lat="42.0673061069" lon="-7.3752593156">
        <ele>994.14</ele>
        <time>2020-08-13T08:18:41Z</time>
      </trkpt>
      <trkpt lat="42.0673297439" lon="-7.3758566100">
        <ele>993.66</ele>
        <time>2020-08-13T08:18:52Z</time>
      </trkpt>
      <trkpt lat="42.0673737489" lon="-7.3762423452">
        <ele>994.62</ele>
        <time>2020-08-13T08:19:02Z</time>
      </trkpt>
      <trkpt lat="42.0673876628" lon="-7.3764967360">
        <ele>995.58</ele>
        <time>2020-08-13T08:19:11Z</time>
      </trkpt>
      <trkpt lat="42.0673993137" lon="-7.3767927010">
        <ele>997.02</ele>
        <time>2020-08-13T08:19:22Z</time>
      </trkpt>
      <trkpt lat="42.0673970506" lon="-7.3770284839">
        <ele>998.95</ele>
        <time>2020-08-13T08:19:31Z</time>
      </trkpt>
      <trkpt lat="42.0673923567" lon="-7.3772827070">
        <ele>999.91</ele>
        <time>2020-08-13T08:19:41Z</time>
      </trkpt>
      <trkpt lat="42.0673874114" lon="-7.3775764927">
        <ele>1001.83</ele>
        <time>2020-08-13T08:19:53Z</time>
      </trkpt>
      <trkpt lat="42.0673893392" lon="-7.3777844477">
        <ele>1002.79</ele>
        <time>2020-08-13T08:20:02Z</time>
      </trkpt>
      <trkpt lat="42.0673942845" lon="-7.3780127708">
        <ele>1004.23</ele>
        <time>2020-08-13T08:20:13Z</time>
      </trkpt>
      <trkpt lat="42.0673961286" lon="-7.3782666586">
        <ele>1005.68</ele>
        <time>2020-08-13T08:20:26Z</time>
      </trkpt>
      <trkpt lat="42.0673966315" lon="-7.3784656450">
        <ele>1006.64</ele>
        <time>2020-08-13T08:20:35Z</time>
      </trkpt>
      <trkpt lat="42.0673963800" lon="-7.3787769489">
        <ele>1007.12</ele>
        <time>2020-08-13T08:20:48Z</time>
      </trkpt>
      <trkpt lat="42.0673826337" lon="-7.3789481074">
        <ele>1008.08</ele>
        <time>2020-08-13T08:20:56Z</time>
      </trkpt>
      <trkpt lat="42.0673696417" lon="-7.3792029172">
        <ele>1009.04</ele>
        <time>2020-08-13T08:21:07Z</time>
      </trkpt>
      <trkpt lat="42.0673537999" lon="-7.3794999719">
        <ele>1010.48</ele>
        <time>2020-08-13T08:21:19Z</time>
      </trkpt>
      <trkpt lat="42.0673445798" lon="-7.3798080068">
        <ele>1011.93</ele>
        <time>2020-08-13T08:21:32Z</time>
      </trkpt>
      <trkpt lat="42.0673512854" lon="-7.3800396826">
        <ele>1012.89</ele>
        <time>2020-08-13T08:21:42Z</time>
      </trkpt>
      <trkpt lat="42.0673776884" lon="-7.3803155310">
        <ele>1013.85</ele>
        <time>2020-08-13T08:21:53Z</time>
      </trkpt>
      <trkpt lat="42.0674291532" lon="-7.3805502243">
        <ele>1015.29</ele>
        <time>2020-08-13T08:22:02Z</time>
      </trkpt>
      <trkpt lat="42.0674815401" lon="-7.3807672318">
        <ele>1014.81</ele>
        <time>2020-08-13T08:22:10Z</time>
      </trkpt>
      <trkpt lat="42.0675894152" lon="-7.3811035976">
        <ele>1013.85</ele>
        <time>2020-08-13T08:22:21Z</time>
      </trkpt>
      <trkpt lat="42.0676192548" lon="-7.3812118918">
        <ele>1012.89</ele>
        <time>2020-08-13T08:22:27Z</time>
      </trkpt>
      <trkpt lat="42.0676232781" lon="-7.3812077008">
        <ele>1012.89</ele>
        <time>2020-08-13T08:22:42Z</time>
      </trkpt>
      <trkpt lat="42.0676229428" lon="-7.3812342715">
        <ele>1012.41</ele>
        <time>2020-08-13T08:22:56Z</time>
      </trkpt>
      <trkpt lat="42.0676583983" lon="-7.3814086989">
        <ele>1010.96</ele>
        <time>2020-08-13T08:23:03Z</time>
      </trkpt>
      <trkpt lat="42.0676926803" lon="-7.3815760855">
        <ele>1010.00</ele>
        <time>2020-08-13T08:23:11Z</time>
      </trkpt>
      <trkpt lat="42.0676946919" lon="-7.3815922625">
        <ele>1010.00</ele>
        <time>2020-08-13T08:23:12Z</time>
      </trkpt>
      <trkpt lat="42.0676956978" lon="-7.3816292267">
        <ele>1009.52</ele>
        <time>2020-08-13T08:23:14Z</time>
      </trkpt>
      <trkpt lat="42.0677038282" lon="-7.3818013072">
        <ele>1009.04</ele>
        <time>2020-08-13T08:23:20Z</time>
      </trkpt>
      <trkpt lat="42.0676689595" lon="-7.3820309713">
        <ele>1007.12</ele>
        <time>2020-08-13T08:23:27Z</time>
      </trkpt>
      <trkpt lat="42.0676406287" lon="-7.3821004573">
        <ele>1006.16</ele>
        <time>2020-08-13T08:23:28Z</time>
      </trkpt>
      <trkpt lat="42.0675903372" lon="-7.3822026327">
        <ele>1004.72</ele>
        <time>2020-08-13T08:23:30Z</time>
      </trkpt>
      <trkpt lat="42.0675598271" lon="-7.3822523374">
        <ele>1004.23</ele>
        <time>2020-08-13T08:23:31Z</time>
      </trkpt>
      <trkpt lat="42.0675350167" lon="-7.3822966777">
        <ele>1003.75</ele>
        <time>2020-08-13T08:23:32Z</time>
      </trkpt>
      <trkpt lat="42.0675149839" lon="-7.3823407665">
        <ele>1003.75</ele>
        <time>2020-08-13T08:23:33Z</time>
      </trkpt>
      <trkpt lat="42.0675000641" lon="-7.3823761381">
        <ele>1003.27</ele>
        <time>2020-08-13T08:23:34Z</time>
      </trkpt>
      <trkpt lat="42.0674360264" lon="-7.3825467937">
        <ele>1001.83</ele>
        <time>2020-08-13T08:23:40Z</time>
      </trkpt>
      <trkpt lat="42.0674315002" lon="-7.3825796507">
        <ele>1001.35</ele>
        <time>2020-08-13T08:23:41Z</time>
      </trkpt>
      <trkpt lat="42.0674279798" lon="-7.3825995158">
        <ele>1001.35</ele>
        <time>2020-08-13T08:23:42Z</time>
      </trkpt>
      <trkpt lat="42.0674229506" lon="-7.3826310318">
        <ele>1000.87</ele>
        <time>2020-08-13T08:23:43Z</time>
      </trkpt>
      <trkpt lat="42.0674194302" lon="-7.3826570995">
        <ele>1000.39</ele>
        <time>2020-08-13T08:23:44Z</time>
      </trkpt>
      <trkpt lat="42.0673879981" lon="-7.3828417528">
        <ele>998.95</ele>
        <time>2020-08-13T08:23:52Z</time>
      </trkpt>
      <trkpt lat="42.0673751738" lon="-7.3830806371">
        <ele>997.99</ele>
        <time>2020-08-13T08:23:57Z</time>
      </trkpt>
      <trkpt lat="42.0673921052" lon="-7.3833036795">
        <ele>997.51</ele>
        <time>2020-08-13T08:24:01Z</time>
      </trkpt>
      <trkpt lat="42.0674221963" lon="-7.3836126365">
        <ele>996.06</ele>
        <time>2020-08-13T08:24:06Z</time>
      </trkpt>
      <trkpt lat="42.0674535446" lon="-7.3839573842">
        <ele>994.62</ele>
        <time>2020-08-13T08:24:12Z</time>
      </trkpt>
      <trkpt lat="42.0675277244" lon="-7.3842909001">
        <ele>992.70</ele>
        <time>2020-08-13T08:24:19Z</time>
      </trkpt>
      <trkpt lat="42.0676072687" lon="-7.3845082428">
        <ele>991.26</ele>
        <time>2020-08-13T08:24:26Z</time>
      </trkpt>
      <trkpt lat="42.0676848851" lon="-7.3847029544">
        <ele>989.81</ele>
        <time>2020-08-13T08:24:32Z</time>
      </trkpt>
      <trkpt lat="42.0677981246" lon="-7.3849396594">
        <ele>988.37</ele>
        <time>2020-08-13T08:24:39Z</time>
      </trkpt>
      <trkpt lat="42.0678856317" lon="-7.3850979097">
        <ele>987.41</ele>
        <time>2020-08-13T08:24:46Z</time>
      </trkpt>
      <trkpt lat="42.0680171438" lon="-7.3853017576">
        <ele>985.97</ele>
        <time>2020-08-13T08:24:53Z</time>
      </trkpt>
      <trkpt lat="42.0681256056" lon="-7.3854132369">
        <ele>984.53</ele>
        <time>2020-08-13T08:24:58Z</time>
      </trkpt>
      <trkpt lat="42.0683229994" lon="-7.3856310826">
        <ele>982.12</ele>
        <time>2020-08-13T08:25:05Z</time>
      </trkpt>
      <trkpt lat="42.0685276017" lon="-7.3858073540">
        <ele>980.20</ele>
        <time>2020-08-13T08:25:12Z</time>
      </trkpt>
      <trkpt lat="42.0687358920" lon="-7.3859366030">
        <ele>978.76</ele>
        <time>2020-08-13T08:25:19Z</time>
      </trkpt>
      <trkpt lat="42.0689353812" lon="-7.3860216793">
        <ele>976.36</ele>
        <time>2020-08-13T08:25:26Z</time>
      </trkpt>
      <trkpt lat="42.0691077970" lon="-7.3861273751">
        <ele>974.91</ele>
        <time>2020-08-13T08:25:31Z</time>
      </trkpt>
      <trkpt lat="42.0691440906" lon="-7.3861531075">
        <ele>974.91</ele>
        <time>2020-08-13T08:25:32Z</time>
      </trkpt>
      <trkpt lat="42.0692516305" lon="-7.3862652574">
        <ele>974.43</ele>
        <time>2020-08-13T08:25:35Z</time>
      </trkpt>
      <trkpt lat="42.0693110581" lon="-7.3863532674">
        <ele>973.95</ele>
        <time>2020-08-13T08:25:37Z</time>
      </trkpt>
      <trkpt lat="42.0693466812" lon="-7.3864245974">
        <ele>973.95</ele>
        <time>2020-08-13T08:25:38Z</time>
      </trkpt>
      <trkpt lat="42.0693676360" lon="-7.3864800017">
        <ele>973.47</ele>
        <time>2020-08-13T08:25:39Z</time>
      </trkpt>
      <trkpt lat="42.0693850704" lon="-7.3865367472">
        <ele>973.47</ele>
        <time>2020-08-13T08:25:40Z</time>
      </trkpt>
      <trkpt lat="42.0694085397" lon="-7.3866281100">
        <ele>972.99</ele>
        <time>2020-08-13T08:25:42Z</time>
      </trkpt>
      <trkpt lat="42.0694113895" lon="-7.3866957519">
        <ele>972.99</ele>
        <time>2020-08-13T08:25:43Z</time>
      </trkpt>
      <trkpt lat="42.0694092102" lon="-7.3867500667">
        <ele>972.99</ele>
        <time>2020-08-13T08:25:44Z</time>
      </trkpt>
      <trkpt lat="42.0694012474" lon="-7.3867959157">
        <ele>972.99</ele>
        <time>2020-08-13T08:25:45Z</time>
      </trkpt>
      <trkpt lat="42.0693880878" lon="-7.3868428543">
        <ele>972.99</ele>
        <time>2020-08-13T08:25:46Z</time>
      </trkpt>
      <trkpt lat="42.0693720784" lon="-7.3868799862">
        <ele>972.99</ele>
        <time>2020-08-13T08:25:47Z</time>
      </trkpt>
      <trkpt lat="42.0693535544" lon="-7.3869142681">
        <ele>972.51</ele>
        <time>2020-08-13T08:25:48Z</time>
      </trkpt>
      <trkpt lat="42.0693311747" lon="-7.3869441077">
        <ele>972.03</ele>
        <time>2020-08-13T08:25:49Z</time>
      </trkpt>
      <trkpt lat="42.0693069510" lon="-7.3869721871">
        <ele>971.55</ele>
        <time>2020-08-13T08:25:50Z</time>
      </trkpt>
      <trkpt lat="42.0692818891" lon="-7.3869951535">
        <ele>971.55</ele>
        <time>2020-08-13T08:25:51Z</time>
      </trkpt>
      <trkpt lat="42.0692544803" lon="-7.3870153539">
        <ele>971.07</ele>
        <time>2020-08-13T08:25:52Z</time>
      </trkpt>
      <trkpt lat="42.0692273229" lon="-7.3870313633">
        <ele>970.59</ele>
        <time>2020-08-13T08:25:53Z</time>
      </trkpt>
      <trkpt lat="42.0692014229" lon="-7.3870444391">
        <ele>970.59</ele>
        <time>2020-08-13T08:25:54Z</time>
      </trkpt>
      <trkpt lat="42.0690584276" lon="-7.3870794754">
        <ele>968.67</ele>
        <time>2020-08-13T08:26:02Z</time>
      </trkpt>
      <trkpt lat="42.0689550787" lon="-7.3870848399">
        <ele>967.22</ele>
        <time>2020-08-13T08:26:09Z</time>
      </trkpt>
      <trkpt lat="42.0687711798" lon="-7.3870529048">
        <ele>966.26</ele>
        <time>2020-08-13T08:26:15Z</time>
      </trkpt>
      <trkpt lat="42.0685255062" lon="-7.3870164435">
        <ele>965.30</ele>
        <time>2020-08-13T08:26:23Z</time>
      </trkpt>
      <trkpt lat="42.0682974346" lon="-7.3870275076">
        <ele>964.34</ele>
        <time>2020-08-13T08:26:31Z</time>
      </trkpt>
      <trkpt lat="42.0681562833" lon="-7.3871660605">
        <ele>962.90</ele>
        <time>2020-08-13T08:26:37Z</time>
      </trkpt>
      <trkpt lat="42.0680246036" lon="-7.3873428348">
        <ele>961.94</ele>
        <time>2020-08-13T08:26:43Z</time>
      </trkpt>
      <trkpt lat="42.0678955223" lon="-7.3875634465">
        <ele>960.49</ele>
        <time>2020-08-13T08:26:50Z</time>
      </trkpt>
      <trkpt lat="42.0677836239" lon="-7.3877664562">
        <ele>959.05</ele>
        <time>2020-08-13T08:26:58Z</time>
      </trkpt>
      <trkpt lat="42.0676112082" lon="-7.3880102020">
        <ele>957.13</ele>
        <time>2020-08-13T08:27:07Z</time>
      </trkpt>
      <trkpt lat="42.0674858149" lon="-7.3880988825">
        <ele>955.69</ele>
        <time>2020-08-13T08:27:12Z</time>
      </trkpt>
      <trkpt lat="42.0673432387" lon="-7.3882074282">
        <ele>953.77</ele>
        <time>2020-08-13T08:27:19Z</time>
      </trkpt>
      <trkpt lat="42.0671898499" lon="-7.3882741481">
        <ele>951.36</ele>
        <time>2020-08-13T08:27:27Z</time>
      </trkpt>
      <trkpt lat="42.0670288336" lon="-7.3883386049">
        <ele>950.40</ele>
        <time>2020-08-13T08:27:34Z</time>
      </trkpt>
      <trkpt lat="42.0669379737" lon="-7.3884588014">
        <ele>950.88</ele>
        <time>2020-08-13T08:27:38Z</time>
      </trkpt>
      <trkpt lat="42.0669368003" lon="-7.3884821869">
        <ele>950.88</ele>
        <time>2020-08-13T08:27:39Z</time>
      </trkpt>
      <trkpt lat="42.0669363812" lon="-7.3885133676">
        <ele>950.88</ele>
        <time>2020-08-13T08:27:40Z</time>
      </trkpt>
      <trkpt lat="42.0669240598" lon="-7.3887549341">
        <ele>949.92</ele>
        <time>2020-08-13T08:27:48Z</time>
      </trkpt>
      <trkpt lat="42.0668221358" lon="-7.3889866099">
        <ele>948.96</ele>
        <time>2020-08-13T08:27:54Z</time>
      </trkpt>
      <trkpt lat="42.0666725188" lon="-7.3892568424">
        <ele>948.00</ele>
        <time>2020-08-13T08:28:01Z</time>
      </trkpt>
      <trkpt lat="42.0666239038" lon="-7.3896047752">
        <ele>947.04</ele>
        <time>2020-08-13T08:28:09Z</time>
      </trkpt>
      <trkpt lat="42.0666990895" lon="-7.3898222018">
        <ele>946.56</ele>
        <time>2020-08-13T08:28:15Z</time>
      </trkpt>
      <trkpt lat="42.0667395741" lon="-7.3901182506">
        <ele>945.59</ele>
        <time>2020-08-13T08:28:22Z</time>
      </trkpt>
      <trkpt lat="42.0667757839" lon="-7.3904946819">
        <ele>943.67</ele>
        <time>2020-08-13T08:28:30Z</time>
      </trkpt>
      <trkpt lat="42.0667710062" lon="-7.3907007091">
        <ele>942.71</ele>
        <time>2020-08-13T08:28:34Z</time>
      </trkpt>
      <trkpt lat="42.0668045338" lon="-7.3909311276">
        <ele>942.23</ele>
        <time>2020-08-13T08:28:39Z</time>
      </trkpt>
      <trkpt lat="42.0669720042" lon="-7.3911816627">
        <ele>942.23</ele>
        <time>2020-08-13T08:28:46Z</time>
      </trkpt>
      <trkpt lat="42.0671133231" lon="-7.3914484587">
        <ele>941.75</ele>
        <time>2020-08-13T08:28:53Z</time>
      </trkpt>
      <trkpt lat="42.0671836473" lon="-7.3917968944">
        <ele>938.86</ele>
        <time>2020-08-13T08:29:00Z</time>
      </trkpt>
      <trkpt lat="42.0672324300" lon="-7.3921403009">
        <ele>936.94</ele>
        <time>2020-08-13T08:29:05Z</time>
      </trkpt>
      <trkpt lat="42.0672888402" lon="-7.3927541077">
        <ele>933.10</ele>
        <time>2020-08-13T08:29:13Z</time>
      </trkpt>
      <trkpt lat="42.0674330927" lon="-7.3932115082">
        <ele>930.21</ele>
        <time>2020-08-13T08:29:20Z</time>
      </trkpt>
      <trkpt lat="42.0675003994" lon="-7.3935052101">
        <ele>928.77</ele>
        <time>2020-08-13T08:29:25Z</time>
      </trkpt>
      <trkpt lat="42.0675004832" lon="-7.3935595248">
        <ele>928.29</ele>
        <time>2020-08-13T08:29:26Z</time>
      </trkpt>
      <trkpt lat="42.0675006509" lon="-7.3936281726">
        <ele>928.29</ele>
        <time>2020-08-13T08:29:27Z</time>
      </trkpt>
      <trkpt lat="42.0674998127" lon="-7.3936560843">
        <ele>927.81</ele>
        <time>2020-08-13T08:29:28Z</time>
      </trkpt>
      <trkpt lat="42.0674965438" lon="-7.3937104829">
        <ele>927.81</ele>
        <time>2020-08-13T08:29:29Z</time>
      </trkpt>
      <trkpt lat="42.0674885809" lon="-7.3937663063">
        <ele>927.33</ele>
        <time>2020-08-13T08:29:30Z</time>
      </trkpt>
      <trkpt lat="42.0674760919" lon="-7.3938331939">
        <ele>927.33</ele>
        <time>2020-08-13T08:29:31Z</time>
      </trkpt>
      <trkpt lat="42.0674567297" lon="-7.3939145822">
        <ele>926.85</ele>
        <time>2020-08-13T08:29:32Z</time>
      </trkpt>
      <trkpt lat="42.0673239604" lon="-7.3943528719">
        <ele>925.41</ele>
        <time>2020-08-13T08:29:39Z</time>
      </trkpt>
      <trkpt lat="42.0673194341" lon="-7.3944154009">
        <ele>925.41</ele>
        <time>2020-08-13T08:29:40Z</time>
      </trkpt>
      <trkpt lat="42.0673218649" lon="-7.3944730684">
        <ele>924.93</ele>
        <time>2020-08-13T08:29:41Z</time>
      </trkpt>
      <trkpt lat="42.0673315879" lon="-7.3945278022">
        <ele>924.45</ele>
        <time>2020-08-13T08:29:42Z</time>
      </trkpt>
      <trkpt lat="42.0673468430" lon="-7.3945770878">
        <ele>924.45</ele>
        <time>2020-08-13T08:29:43Z</time>
      </trkpt>
      <trkpt lat="42.0673648641" lon="-7.3946272116">
        <ele>923.96</ele>
        <time>2020-08-13T08:29:44Z</time>
      </trkpt>
      <trkpt lat="42.0674589090" lon="-7.3948780820">
        <ele>922.04</ele>
        <time>2020-08-13T08:29:49Z</time>
      </trkpt>
      <trkpt lat="42.0674697217" lon="-7.3949292954">
        <ele>921.56</ele>
        <time>2020-08-13T08:29:50Z</time>
      </trkpt>
      <trkpt lat="42.0674750023" lon="-7.3952770606">
        <ele>918.68</ele>
        <time>2020-08-13T08:29:57Z</time>
      </trkpt>
      <trkpt lat="42.0674970467" lon="-7.3957729340">
        <ele>915.79</ele>
        <time>2020-08-13T08:30:03Z</time>
      </trkpt>
      <trkpt lat="42.0675763395" lon="-7.3959400691">
        <ele>915.31</ele>
        <time>2020-08-13T08:30:08Z</time>
      </trkpt>
      <trkpt lat="42.0676807780" lon="-7.3960034363">
        <ele>915.31</ele>
        <time>2020-08-13T08:30:15Z</time>
      </trkpt>
      <trkpt lat="42.0676780120" lon="-7.3959930427">
        <ele>916.27</ele>
        <time>2020-08-13T08:30:37Z</time>
      </trkpt>
      <trkpt lat="42.0676859748" lon="-7.3959977366">
        <ele>915.79</ele>
        <time>2020-08-13T08:30:57Z</time>
      </trkpt>
      <trkpt lat="42.0676957816" lon="-7.3960147519">
        <ele>915.79</ele>
        <time>2020-08-13T08:31:00Z</time>
      </trkpt>
      <trkpt lat="42.0678198338" lon="-7.3961936217">
        <ele>915.31</ele>
        <time>2020-08-13T08:31:09Z</time>
      </trkpt>
      <trkpt lat="42.0679495018" lon="-7.3964562267">
        <ele>912.91</ele>
        <time>2020-08-13T08:31:18Z</time>
      </trkpt>
      <trkpt lat="42.0681158826" lon="-7.3966265470">
        <ele>911.47</ele>
        <time>2020-08-13T08:31:26Z</time>
      </trkpt>
      <trkpt lat="42.0683064871" lon="-7.3968759086">
        <ele>909.06</ele>
        <time>2020-08-13T08:31:32Z</time>
      </trkpt>
      <trkpt lat="42.0684177987" lon="-7.3970359191">
        <ele>907.62</ele>
        <time>2020-08-13T08:31:38Z</time>
      </trkpt>
      <trkpt lat="42.0685172919" lon="-7.3972634878">
        <ele>906.66</ele>
        <time>2020-08-13T08:31:45Z</time>
      </trkpt>
      <trkpt lat="42.0685638953" lon="-7.3975304514">
        <ele>904.74</ele>
        <time>2020-08-13T08:31:52Z</time>
      </trkpt>
      <trkpt lat="42.0685255062" lon="-7.3978730198">
        <ele>902.82</ele>
        <time>2020-08-13T08:31:59Z</time>
      </trkpt>
      <trkpt lat="42.0684792381" lon="-7.3981463537">
        <ele>900.41</ele>
        <time>2020-08-13T08:32:04Z</time>
      </trkpt>
      <trkpt lat="42.0683798287" lon="-7.3985201865">
        <ele>898.49</ele>
        <time>2020-08-13T08:32:10Z</time>
      </trkpt>
      <trkpt lat="42.0683710277" lon="-7.3985854816">
        <ele>898.49</ele>
        <time>2020-08-13T08:32:11Z</time>
      </trkpt>
      <trkpt lat="42.0683644060" lon="-7.3986542132">
        <ele>898.49</ele>
        <time>2020-08-13T08:32:12Z</time>
      </trkpt>
      <trkpt lat="42.0683488995" lon="-7.3989883158">
        <ele>897.05</ele>
        <time>2020-08-13T08:32:17Z</time>
      </trkpt>
      <trkpt lat="42.0683614723" lon="-7.3992132861">
        <ele>895.61</ele>
        <time>2020-08-13T08:32:20Z</time>
      </trkpt>
      <trkpt lat="42.0683631487" lon="-7.3992668465">
        <ele>895.12</ele>
        <time>2020-08-13T08:32:21Z</time>
      </trkpt>
      <trkpt lat="42.0683661662" lon="-7.3993292917">
        <ele>894.64</ele>
        <time>2020-08-13T08:32:22Z</time>
      </trkpt>
      <trkpt lat="42.0683698542" lon="-7.3994364962">
        <ele>894.16</ele>
        <time>2020-08-13T08:32:24Z</time>
      </trkpt>
      <trkpt lat="42.0683732070" lon="-7.3994985223">
        <ele>893.68</ele>
        <time>2020-08-13T08:32:25Z</time>
      </trkpt>
      <trkpt lat="42.0683794096" lon="-7.3997520749">
        <ele>892.72</ele>
        <time>2020-08-13T08:32:29Z</time>
      </trkpt>
      <trkpt lat="42.0683737099" lon="-7.3998049647">
        <ele>892.24</ele>
        <time>2020-08-13T08:32:30Z</time>
      </trkpt>
      <trkpt lat="42.0683609694" lon="-7.3998637218">
        <ele>891.76</ele>
        <time>2020-08-13T08:32:31Z</time>
      </trkpt>
      <trkpt lat="42.0683461335" lon="-7.3999172822">
        <ele>891.76</ele>
        <time>2020-08-13T08:32:32Z</time>
      </trkpt>
      <trkpt lat="42.0683284476" lon="-7.3999612872">
        <ele>891.28</ele>
        <time>2020-08-13T08:32:33Z</time>
      </trkpt>
      <trkpt lat="42.0683079120" lon="-7.4000011850">
        <ele>891.28</ele>
        <time>2020-08-13T08:32:34Z</time>
      </trkpt>
      <trkpt lat="42.0682929922" lon="-7.4000295158">
        <ele>890.80</ele>
        <time>2020-08-13T08:32:35Z</time>
      </trkpt>
      <trkpt lat="42.0682820957" lon="-7.4000498001">
        <ele>890.32</ele>
        <time>2020-08-13T08:32:36Z</time>
      </trkpt>
      <trkpt lat="42.0682730433" lon="-7.4000679888">
        <ele>890.32</ele>
        <time>2020-08-13T08:32:37Z</time>
      </trkpt>
      <trkpt lat="42.0682641584" lon="-7.4000760354">
        <ele>890.32</ele>
        <time>2020-08-13T08:32:42Z</time>
      </trkpt>
      <trkpt lat="42.0682676788" lon="-7.4000613671">
        <ele>890.32</ele>
        <time>2020-08-13T08:32:59Z</time>
      </trkpt>
      <trkpt lat="42.0682680979" lon="-7.4000544101">
        <ele>891.28</ele>
        <time>2020-08-13T08:33:13Z</time>
      </trkpt>
      <trkpt lat="42.0682658348" lon="-7.4000430107">
        <ele>893.20</ele>
        <time>2020-08-13T08:33:34Z</time>
      </trkpt>
      <trkpt lat="42.0682706963" lon="-7.4000410829">
        <ele>893.68</ele>
        <time>2020-08-13T08:33:49Z</time>
      </trkpt>
      <trkpt lat="42.0682750549" lon="-7.4000353832">
        <ele>894.16</ele>
        <time>2020-08-13T08:34:01Z</time>
      </trkpt>
      <trkpt lat="42.0682733785" lon="-7.4000314437">
        <ele>895.61</ele>
        <time>2020-08-13T08:34:14Z</time>
      </trkpt>
      <trkpt lat="42.0682755578" lon="-7.4000273366">
        <ele>895.61</ele>
        <time>2020-08-13T08:34:27Z</time>
      </trkpt>
      <trkpt lat="42.0682784915" lon="-7.4000327010">
        <ele>895.12</ele>
        <time>2020-08-13T08:34:41Z</time>
      </trkpt>
      <trkpt lat="42.0682719536" lon="-7.4000401609">
        <ele>895.12</ele>
        <time>2020-08-13T08:34:53Z</time>
      </trkpt>
      <trkpt lat="42.0682686847" lon="-7.4000489619">
        <ele>894.64</ele>
        <time>2020-08-13T08:35:06Z</time>
      </trkpt>
      <trkpt lat="42.0682759769" lon="-7.4000580981">
        <ele>893.68</ele>
        <time>2020-08-13T08:35:19Z</time>
      </trkpt>
      <trkpt lat="42.0682775695" lon="-7.4000626244">
        <ele>892.72</ele>
        <time>2020-08-13T08:35:30Z</time>
      </trkpt>
      <trkpt lat="42.0682684332" lon="-7.4000663962">
        <ele>892.24</ele>
        <time>2020-08-13T08:35:47Z</time>
      </trkpt>
      <trkpt lat="42.0682720374" lon="-7.4000714254">
        <ele>891.76</ele>
        <time>2020-08-13T08:36:01Z</time>
      </trkpt>
      <trkpt lat="42.0682740491" lon="-7.4000763707">
        <ele>891.28</ele>
        <time>2020-08-13T08:36:11Z</time>
      </trkpt>
      <trkpt lat="42.0682713669" lon="-7.4000718445">
        <ele>891.76</ele>
        <time>2020-08-13T08:36:25Z</time>
      </trkpt>
      <trkpt lat="42.0682699420" lon="-7.4000770412">
        <ele>891.28</ele>
        <time>2020-08-13T08:36:39Z</time>
      </trkpt>
      <trkpt lat="42.0682665892" lon="-7.4000773765">
        <ele>891.28</ele>
        <time>2020-08-13T08:36:47Z</time>
      </trkpt>
      <trkpt lat="42.0682606380" lon="-7.4000824895">
        <ele>890.80</ele>
        <time>2020-08-13T08:36:54Z</time>
      </trkpt>
      <trkpt lat="42.0682506636" lon="-7.4000873510">
        <ele>890.80</ele>
        <time>2020-08-13T08:36:55Z</time>
      </trkpt>
      <trkpt lat="42.0682333130" lon="-7.4000948109">
        <ele>890.32</ele>
        <time>2020-08-13T08:36:56Z</time>
      </trkpt>
      <trkpt lat="42.0680906530" lon="-7.4001372233">
        <ele>888.88</ele>
        <time>2020-08-13T08:37:05Z</time>
      </trkpt>
      <trkpt lat="42.0679562073" lon="-7.4001298472">
        <ele>887.43</ele>
        <time>2020-08-13T08:37:12Z</time>
      </trkpt>
      <trkpt lat="42.0677812770" lon="-7.4000358861">
        <ele>885.99</ele>
        <time>2020-08-13T08:37:19Z</time>
      </trkpt>
      <trkpt lat="42.0675732382" lon="-7.3999403324">
        <ele>884.07</ele>
        <time>2020-08-13T08:37:26Z</time>
      </trkpt>
      <trkpt lat="42.0673378743" lon="-7.3998480476">
        <ele>882.15</ele>
        <time>2020-08-13T08:37:33Z</time>
      </trkpt>
      <trkpt lat="42.0671887603" lon="-7.3998301104">
        <ele>880.22</ele>
        <time>2020-08-13T08:37:37Z</time>
      </trkpt>
      <trkpt lat="42.0671636146" lon="-7.3998361453">
        <ele>880.22</ele>
        <time>2020-08-13T08:37:38Z</time>
      </trkpt>
      <trkpt lat="42.0671343617" lon="-7.3998354748">
        <ele>879.74</ele>
        <time>2020-08-13T08:37:39Z</time>
      </trkpt>
      <trkpt lat="42.0671080425" lon="-7.3998358939">
        <ele>879.74</ele>
        <time>2020-08-13T08:37:40Z</time>
      </trkpt>
      <trkpt lat="42.0670743473" lon="-7.3998355586">
        <ele>879.26</ele>
        <time>2020-08-13T08:37:41Z</time>
      </trkpt>
      <trkpt lat="42.0670463517" lon="-7.3998377379">
        <ele>878.78</ele>
        <time>2020-08-13T08:37:42Z</time>
      </trkpt>
      <trkpt lat="42.0668062102" lon="-7.3998133466">
        <ele>876.38</ele>
        <time>2020-08-13T08:37:49Z</time>
      </trkpt>
      <trkpt lat="42.0667528175" lon="-7.3998209741">
        <ele>875.90</ele>
        <time>2020-08-13T08:37:50Z</time>
      </trkpt>
      <trkpt lat="42.0665400010" lon="-7.3998761270">
        <ele>874.94</ele>
        <time>2020-08-13T08:37:56Z</time>
      </trkpt>
      <trkpt lat="42.0663209818" lon="-7.3998959921">
        <ele>873.01</ele>
        <time>2020-08-13T08:38:03Z</time>
      </trkpt>
      <trkpt lat="42.0660785772" lon="-7.3998481315">
        <ele>869.65</ele>
        <time>2020-08-13T08:38:10Z</time>
      </trkpt>
      <trkpt lat="42.0658708736" lon="-7.3998363130">
        <ele>867.25</ele>
        <time>2020-08-13T08:38:17Z</time>
      </trkpt>
      <trkpt lat="42.0658403635" lon="-7.3998762947">
        <ele>867.25</ele>
        <time>2020-08-13T08:38:18Z</time>
      </trkpt>
      <trkpt lat="42.0658244379" lon="-7.3998988420">
        <ele>867.25</ele>
        <time>2020-08-13T08:38:19Z</time>
      </trkpt>
      <trkpt lat="42.0658069197" lon="-7.3999306094">
        <ele>867.73</ele>
        <time>2020-08-13T08:38:20Z</time>
      </trkpt>
      <trkpt lat="42.0657907426" lon="-7.3999668192">
        <ele>867.73</ele>
        <time>2020-08-13T08:38:21Z</time>
      </trkpt>
      <trkpt lat="42.0656672772" lon="-7.4001124129">
        <ele>867.73</ele>
        <time>2020-08-13T08:38:27Z</time>
      </trkpt>
      <trkpt lat="42.0655280538" lon="-7.4002880137">
        <ele>867.25</ele>
        <time>2020-08-13T08:38:32Z</time>
      </trkpt>
      <trkpt lat="42.0653569791" lon="-7.4012391083">
        <ele>863.40</ele>
        <time>2020-08-13T08:38:57Z</time>
      </trkpt>
      <trkpt lat="42.0651305839" lon="-7.4013776612">
        <ele>859.08</ele>
        <time>2020-08-13T08:39:04Z</time>
      </trkpt>
      <trkpt lat="42.0650705695" lon="-7.4014301319">
        <ele>856.67</ele>
        <time>2020-08-13T08:39:10Z</time>
      </trkpt>
      <trkpt lat="42.0650673844" lon="-7.4014008790">
        <ele>856.67</ele>
        <time>2020-08-13T08:39:27Z</time>
      </trkpt>
      <trkpt lat="42.0650407299" lon="-7.4013697822">
        <ele>855.71</ele>
        <time>2020-08-13T08:39:34Z</time>
      </trkpt>
      <trkpt lat="42.0650336891" lon="-7.4013557844">
        <ele>855.71</ele>
        <time>2020-08-13T08:39:35Z</time>
      </trkpt>
      <trkpt lat="42.0650666300" lon="-7.4013461452">
        <ele>856.19</ele>
        <time>2020-08-13T08:39:40Z</time>
      </trkpt>
      <trkpt lat="42.0650925301" lon="-7.4013530184">
        <ele>856.67</ele>
        <time>2020-08-13T08:39:41Z</time>
      </trkpt>
      <trkpt lat="42.0651019178" lon="-7.4013536051">
        <ele>856.67</ele>
        <time>2020-08-13T08:39:42Z</time>
      </trkpt>
      <trkpt lat="42.0651130658" lon="-7.4013495818">
        <ele>856.67</ele>
        <time>2020-08-13T08:39:43Z</time>
      </trkpt>
      <trkpt lat="42.0651239622" lon="-7.4013375957">
        <ele>856.67</ele>
        <time>2020-08-13T08:39:44Z</time>
      </trkpt>
      <trkpt lat="42.0651320089" lon="-7.4013194069">
        <ele>856.67</ele>
        <time>2020-08-13T08:39:45Z</time>
      </trkpt>
      <trkpt lat="42.0651388820" lon="-7.4013100192">
        <ele>856.67</ele>
        <time>2020-08-13T08:39:46Z</time>
      </trkpt>
      <trkpt lat="42.0651535504" lon="-7.4012999609">
        <ele>857.15</ele>
        <time>2020-08-13T08:39:47Z</time>
      </trkpt>
      <trkpt lat="42.0651807915" lon="-7.4013226759">
        <ele>858.59</ele>
        <time>2020-08-13T08:39:52Z</time>
      </trkpt>
      <trkpt lat="42.0651653688" lon="-7.4013418704">
        <ele>858.11</ele>
        <time>2020-08-13T08:39:54Z</time>
      </trkpt>
      <trkpt lat="42.0651487727" lon="-7.4013400264">
        <ele>858.11</ele>
        <time>2020-08-13T08:39:56Z</time>
      </trkpt>
      <trkpt lat="42.0651294105" lon="-7.4013397750">
        <ele>858.11</ele>
        <time>2020-08-13T08:39:57Z</time>
      </trkpt>
      <trkpt lat="42.0651080366" lon="-7.4013476539">
        <ele>858.11</ele>
        <time>2020-08-13T08:39:58Z</time>
      </trkpt>
      <trkpt lat="42.0650686417" lon="-7.4013656750">
        <ele>858.11</ele>
        <time>2020-08-13T08:40:00Z</time>
      </trkpt>
      <trkpt lat="42.0649093855" lon="-7.4014090095">
        <ele>856.19</ele>
        <time>2020-08-13T08:40:06Z</time>
      </trkpt>
      <trkpt lat="42.0647114888" lon="-7.4014878832">
        <ele>853.79</ele>
        <time>2020-08-13T08:40:14Z</time>
      </trkpt>
      <trkpt lat="42.0645878557" lon="-7.4015636556">
        <ele>852.83</ele>
        <time>2020-08-13T08:40:20Z</time>
      </trkpt>
      <trkpt lat="42.0645867661" lon="-7.4015691876">
        <ele>853.79</ele>
        <time>2020-08-13T08:40:26Z</time>
      </trkpt>
      <trkpt lat="42.0646081399" lon="-7.4015611410">
        <ele>851.87</ele>
        <time>2020-08-13T08:40:45Z</time>
      </trkpt>
      <trkpt lat="42.0645823237" lon="-7.4015419465">
        <ele>848.02</ele>
        <time>2020-08-13T08:41:13Z</time>
      </trkpt>
      <trkpt lat="42.0645747799" lon="-7.4015221652">
        <ele>848.02</ele>
        <time>2020-08-13T08:41:36Z</time>
      </trkpt>
      <trkpt lat="42.0645514783" lon="-7.4015228357">
        <ele>847.54</ele>
        <time>2020-08-13T08:41:50Z</time>
      </trkpt>
      <trkpt lat="42.0645409171" lon="-7.4015157111">
        <ele>846.58</ele>
        <time>2020-08-13T08:42:04Z</time>
      </trkpt>
      <trkpt lat="42.0645461138" lon="-7.4015359115">
        <ele>847.54</ele>
        <time>2020-08-13T08:42:12Z</time>
      </trkpt>
      <trkpt lat="42.0644533262" lon="-7.4016480613">
        <ele>847.06</ele>
        <time>2020-08-13T08:42:19Z</time>
      </trkpt>
      <trkpt lat="42.0643207245" lon="-7.4017847702">
        <ele>846.58</ele>
        <time>2020-08-13T08:42:25Z</time>
      </trkpt>
      <trkpt lat="42.0641307067" lon="-7.4020505603">
        <ele>844.66</ele>
        <time>2020-08-13T08:42:31Z</time>
      </trkpt>
      <trkpt lat="42.0639710315" lon="-7.4022227246">
        <ele>843.69</ele>
        <time>2020-08-13T08:42:35Z</time>
      </trkpt>
      <trkpt lat="42.0639245119" lon="-7.4022559170">
        <ele>843.69</ele>
        <time>2020-08-13T08:42:36Z</time>
      </trkpt>
      <trkpt lat="42.0638789982" lon="-7.4022794701">
        <ele>843.21</ele>
        <time>2020-08-13T08:42:37Z</time>
      </trkpt>
      <trkpt lat="42.0638362505" lon="-7.4022958986">
        <ele>843.21</ele>
        <time>2020-08-13T08:42:38Z</time>
      </trkpt>
      <trkpt lat="42.0637952629" lon="-7.4023093935">
        <ele>843.21</ele>
        <time>2020-08-13T08:42:39Z</time>
      </trkpt>
      <trkpt lat="42.0637014695" lon="-7.4023313541">
        <ele>843.21</ele>
        <time>2020-08-13T08:42:41Z</time>
      </trkpt>
      <trkpt lat="42.0636563748" lon="-7.4023333658">
        <ele>843.21</ele>
        <time>2020-08-13T08:42:42Z</time>
      </trkpt>
      <trkpt lat="42.0636121184" lon="-7.4023294263">
        <ele>842.73</ele>
        <time>2020-08-13T08:42:43Z</time>
      </trkpt>
      <trkpt lat="42.0635681134" lon="-7.4023155123">
        <ele>842.25</ele>
        <time>2020-08-13T08:42:44Z</time>
      </trkpt>
      <trkpt lat="42.0635255333" lon="-7.4022978265">
        <ele>841.77</ele>
        <time>2020-08-13T08:42:45Z</time>
      </trkpt>
      <trkpt lat="42.0634825341" lon="-7.4022754468">
        <ele>841.29</ele>
        <time>2020-08-13T08:42:46Z</time>
      </trkpt>
      <trkpt lat="42.0634367689" lon="-7.4022494629">
        <ele>840.81</ele>
        <time>2020-08-13T08:42:47Z</time>
      </trkpt>
      <trkpt lat="42.0633118786" lon="-7.4021684937">
        <ele>840.33</ele>
        <time>2020-08-13T08:42:50Z</time>
      </trkpt>
      <trkpt lat="42.0632725675" lon="-7.4021392409">
        <ele>840.33</ele>
        <time>2020-08-13T08:42:51Z</time>
      </trkpt>
      <trkpt lat="42.0630895067" lon="-7.4020140991">
        <ele>839.37</ele>
        <time>2020-08-13T08:42:56Z</time>
      </trkpt>
      <trkpt lat="42.0628247224" lon="-7.4018600397">
        <ele>837.93</ele>
        <time>2020-08-13T08:43:04Z</time>
      </trkpt>
      <trkpt lat="42.0626285858" lon="-7.4018579442">
        <ele>837.45</ele>
        <time>2020-08-13T08:43:09Z</time>
      </trkpt>
      <trkpt lat="42.0625909511" lon="-7.4018726964">
        <ele>837.45</ele>
        <time>2020-08-13T08:43:10Z</time>
      </trkpt>
      <trkpt lat="42.0623733569" lon="-7.4019555096">
        <ele>835.52</ele>
        <time>2020-08-13T08:43:17Z</time>
      </trkpt>
      <trkpt lat="42.0622269250" lon="-7.4019309506">
        <ele>835.04</ele>
        <time>2020-08-13T08:43:22Z</time>
      </trkpt>
      <trkpt lat="42.0619819220" lon="-7.4018114246">
        <ele>830.72</ele>
        <time>2020-08-13T08:43:31Z</time>
      </trkpt>
      <trkpt lat="42.0618568640" lon="-7.4018576927">
        <ele>829.27</ele>
        <time>2020-08-13T08:43:37Z</time>
      </trkpt>
      <trkpt lat="42.0617591310" lon="-7.4020247441">
        <ele>827.83</ele>
        <time>2020-08-13T08:43:43Z</time>
      </trkpt>
      <trkpt lat="42.0617256034" lon="-7.4022205453">
        <ele>825.91</ele>
        <time>2020-08-13T08:43:49Z</time>
      </trkpt>
      <trkpt lat="42.0617566165" lon="-7.4023695756">
        <ele>824.95</ele>
        <time>2020-08-13T08:43:54Z</time>
      </trkpt>
      <trkpt lat="42.0618586242" lon="-7.4025860801">
        <ele>823.99</ele>
        <time>2020-08-13T08:44:02Z</time>
      </trkpt>
      <trkpt lat="42.0620188862" lon="-7.4027569033">
        <ele>822.55</ele>
        <time>2020-08-13T08:44:09Z</time>
      </trkpt>
      <trkpt lat="42.0622519031" lon="-7.4029217754">
        <ele>821.10</ele>
        <time>2020-08-13T08:44:17Z</time>
      </trkpt>
      <trkpt lat="42.0623917971" lon="-7.4029834662">
        <ele>820.62</ele>
        <time>2020-08-13T08:44:23Z</time>
      </trkpt>
      <trkpt lat="42.0625523105" lon="-7.4029097892">
        <ele>818.70</ele>
        <time>2020-08-13T08:44:28Z</time>
      </trkpt>
      <trkpt lat="42.0627101418" lon="-7.4028156605">
        <ele>817.74</ele>
        <time>2020-08-13T08:44:32Z</time>
      </trkpt>
      <trkpt lat="42.0627453458" lon="-7.4027985614">
        <ele>817.74</ele>
        <time>2020-08-13T08:44:33Z</time>
      </trkpt>
      <trkpt lat="42.0627649594" lon="-7.4027875811">
        <ele>817.74</ele>
        <time>2020-08-13T08:44:34Z</time>
      </trkpt>
      <trkpt lat="42.0627746824" lon="-7.4027916044">
        <ele>816.78</ele>
        <time>2020-08-13T08:44:40Z</time>
      </trkpt>
      <trkpt lat="42.0627929550" lon="-7.4027988967">
        <ele>815.82</ele>
        <time>2020-08-13T08:45:00Z</time>
      </trkpt>
      <trkpt lat="42.0629072841" lon="-7.4028396327">
        <ele>815.82</ele>
        <time>2020-08-13T08:45:06Z</time>
      </trkpt>
      <trkpt lat="42.0630466752" lon="-7.4030855577">
        <ele>814.85</ele>
        <time>2020-08-13T08:45:13Z</time>
      </trkpt>
      <trkpt lat="42.0632418059" lon="-7.4034002144">
        <ele>812.93</ele>
        <time>2020-08-13T08:45:21Z</time>
      </trkpt>
      <trkpt lat="42.0633983798" lon="-7.4035884719">
        <ele>810.05</ele>
        <time>2020-08-13T08:45:27Z</time>
      </trkpt>
      <trkpt lat="42.0636284631" lon="-7.4037946668">
        <ele>806.68</ele>
        <time>2020-08-13T08:45:33Z</time>
      </trkpt>
      <trkpt lat="42.0639085863" lon="-7.4039461277">
        <ele>804.28</ele>
        <time>2020-08-13T08:45:40Z</time>
      </trkpt>
      <trkpt lat="42.0640444569" lon="-7.4040584452">
        <ele>803.80</ele>
        <time>2020-08-13T08:45:45Z</time>
      </trkpt>
      <trkpt lat="42.0640587062" lon="-7.4040997680">
        <ele>804.28</ele>
        <time>2020-08-13T08:45:46Z</time>
      </trkpt>
      <trkpt lat="42.0640622266" lon="-7.4041419290">
        <ele>804.28</ele>
        <time>2020-08-13T08:45:47Z</time>
      </trkpt>
      <trkpt lat="42.0640570298" lon="-7.4041863531">
        <ele>804.28</ele>
        <time>2020-08-13T08:45:48Z</time>
      </trkpt>
      <trkpt lat="42.0640483964" lon="-7.4042254966">
        <ele>804.28</ele>
        <time>2020-08-13T08:45:49Z</time>
      </trkpt>
      <trkpt lat="42.0640401822" lon="-7.4042608682">
        <ele>804.28</ele>
        <time>2020-08-13T08:45:50Z</time>
      </trkpt>
      <trkpt lat="42.0639804192" lon="-7.4044582620">
        <ele>803.32</ele>
        <time>2020-08-13T08:45:57Z</time>
      </trkpt>
      <trkpt lat="42.0639394317" lon="-7.4046984874">
        <ele>801.40</ele>
        <time>2020-08-13T08:46:04Z</time>
      </trkpt>
      <trkpt lat="42.0639313012" lon="-7.4048020039">
        <ele>800.44</ele>
        <time>2020-08-13T08:46:08Z</time>
      </trkpt>
      <trkpt lat="42.0639546867" lon="-7.4050320033">
        <ele>798.99</ele>
        <time>2020-08-13T08:46:17Z</time>
      </trkpt>
      <trkpt lat="42.0640147012" lon="-7.4051827099">
        <ele>798.51</ele>
        <time>2020-08-13T08:46:23Z</time>
      </trkpt>
      <trkpt lat="42.0640970953" lon="-7.4053279683">
        <ele>797.07</ele>
        <time>2020-08-13T08:46:32Z</time>
      </trkpt>
      <trkpt lat="42.0641432796" lon="-7.4053982086">
        <ele>795.63</ele>
        <time>2020-08-13T08:46:37Z</time>
      </trkpt>
      <trkpt lat="42.0641474705" lon="-7.4054275453">
        <ele>795.15</ele>
        <time>2020-08-13T08:46:38Z</time>
      </trkpt>
      <trkpt lat="42.0641495660" lon="-7.4054671079">
        <ele>794.67</ele>
        <time>2020-08-13T08:46:39Z</time>
      </trkpt>
      <trkpt lat="42.0641486440" lon="-7.4055105262">
        <ele>794.67</ele>
        <time>2020-08-13T08:46:40Z</time>
      </trkpt>
      <trkpt lat="42.0641416032" lon="-7.4055521004">
        <ele>794.19</ele>
        <time>2020-08-13T08:46:41Z</time>
      </trkpt>
      <trkpt lat="42.0641348977" lon="-7.4055854604">
        <ele>794.19</ele>
        <time>2020-08-13T08:46:42Z</time>
      </trkpt>
      <trkpt lat="42.0641291142" lon="-7.4056119472">
        <ele>794.19</ele>
        <time>2020-08-13T08:46:43Z</time>
      </trkpt>
      <trkpt lat="42.0640694350" lon="-7.4058272783">
        <ele>793.22</ele>
        <time>2020-08-13T08:46:50Z</time>
      </trkpt>
      <trkpt lat="42.0640171319" lon="-7.4060318805">
        <ele>792.26</ele>
        <time>2020-08-13T08:46:56Z</time>
      </trkpt>
      <trkpt lat="42.0638984442" lon="-7.4062461220">
        <ele>791.78</ele>
        <time>2020-08-13T08:47:03Z</time>
      </trkpt>
      <trkpt lat="42.0637269504" lon="-7.4062611256">
        <ele>789.86</ele>
        <time>2020-08-13T08:47:10Z</time>
      </trkpt>
      <trkpt lat="42.0635808539" lon="-7.4062861875">
        <ele>790.34</ele>
        <time>2020-08-13T08:47:19Z</time>
      </trkpt>
      <trkpt lat="42.0634217653" lon="-7.4063274264">
        <ele>790.34</ele>
        <time>2020-08-13T08:47:26Z</time>
      </trkpt>
      <trkpt lat="42.0631755050" lon="-7.4063663185">
        <ele>789.38</ele>
        <time>2020-08-13T08:47:36Z</time>
      </trkpt>
      <trkpt lat="42.0630342700" lon="-7.4063781369">
        <ele>787.94</ele>
        <time>2020-08-13T08:47:44Z</time>
      </trkpt>
      <trkpt lat="42.0628911071" lon="-7.4063962419">
        <ele>786.98</ele>
        <time>2020-08-13T08:47:51Z</time>
      </trkpt>
      <trkpt lat="42.0627214573" lon="-7.4063682463">
        <ele>785.53</ele>
        <time>2020-08-13T08:47:58Z</time>
      </trkpt>
      <trkpt lat="42.0625383966" lon="-7.4063868541">
        <ele>785.05</ele>
        <time>2020-08-13T08:48:06Z</time>
      </trkpt>
      <trkpt lat="42.0624930505" lon="-7.4063995946">
        <ele>784.57</ele>
        <time>2020-08-13T08:48:11Z</time>
      </trkpt>
      <trkpt lat="42.0623866003" lon="-7.4064540770">
        <ele>784.09</ele>
        <time>2020-08-13T08:48:18Z</time>
      </trkpt>
      <trkpt lat="42.0622996800" lon="-7.4065587670">
        <ele>784.57</ele>
        <time>2020-08-13T08:48:24Z</time>
      </trkpt>
      <trkpt lat="42.0622431021" lon="-7.4067581724">
        <ele>782.17</ele>
        <time>2020-08-13T08:48:31Z</time>
      </trkpt>
      <trkpt lat="42.0621984266" lon="-7.4069569912">
        <ele>778.81</ele>
        <time>2020-08-13T08:48:38Z</time>
      </trkpt>
      <trkpt lat="42.0621338859" lon="-7.4071770161">
        <ele>776.40</ele>
        <time>2020-08-13T08:48:46Z</time>
      </trkpt>
      <trkpt lat="42.0620362367" lon="-7.4074169900">
        <ele>775.44</ele>
        <time>2020-08-13T08:48:53Z</time>
      </trkpt>
      <trkpt lat="42.0619348157" lon="-7.4076362606">
        <ele>775.92</ele>
        <time>2020-08-13T08:49:01Z</time>
      </trkpt>
      <trkpt lat="42.0619370788" lon="-7.4076471571">
        <ele>775.44</ele>
        <time>2020-08-13T08:49:13Z</time>
      </trkpt>
      <trkpt lat="42.0619318821" lon="-7.4076576345">
        <ele>776.88</ele>
        <time>2020-08-13T08:49:25Z</time>
      </trkpt>
      <trkpt lat="42.0619250927" lon="-7.4077023938">
        <ele>775.44</ele>
        <time>2020-08-13T08:49:36Z</time>
      </trkpt>
      <trkpt lat="42.0619282778" lon="-7.4077425431">
        <ele>775.44</ele>
        <time>2020-08-13T08:49:44Z</time>
      </trkpt>
      <trkpt lat="42.0619348995" lon="-7.4077497516">
        <ele>776.40</ele>
        <time>2020-08-13T08:49:51Z</time>
      </trkpt>
      <trkpt lat="42.0619436167" lon="-7.4077441357">
        <ele>776.88</ele>
        <time>2020-08-13T08:50:03Z</time>
      </trkpt>
      <trkpt lat="42.0619498193" lon="-7.4077489134">
        <ele>776.88</ele>
        <time>2020-08-13T08:50:04Z</time>
      </trkpt>
      <trkpt lat="42.0619735401" lon="-7.4077831116">
        <ele>777.36</ele>
        <time>2020-08-13T08:50:08Z</time>
      </trkpt>
      <trkpt lat="42.0619763061" lon="-7.4077981990">
        <ele>777.36</ele>
        <time>2020-08-13T08:50:09Z</time>
      </trkpt>
      <trkpt lat="42.0619751327" lon="-7.4078528490">
        <ele>777.36</ele>
        <time>2020-08-13T08:50:13Z</time>
      </trkpt>
      <trkpt lat="42.0619730372" lon="-7.4078689422">
        <ele>777.36</ele>
        <time>2020-08-13T08:50:14Z</time>
      </trkpt>
      <trkpt lat="42.0619748812" lon="-7.4078855384">
        <ele>777.36</ele>
        <time>2020-08-13T08:50:15Z</time>
      </trkpt>
      <trkpt lat="42.0619846880" lon="-7.4080069084">
        <ele>776.88</ele>
        <time>2020-08-13T08:50:24Z</time>
      </trkpt>
      <trkpt lat="42.0619730372" lon="-7.4080427829">
        <ele>776.40</ele>
        <time>2020-08-13T08:50:32Z</time>
      </trkpt>
      <trkpt lat="42.0619613864" lon="-7.4080840219">
        <ele>776.88</ele>
        <time>2020-08-13T08:50:44Z</time>
      </trkpt>
      <trkpt lat="42.0619483944" lon="-7.4082586169">
        <ele>776.88</ele>
        <time>2020-08-13T08:50:52Z</time>
      </trkpt>
      <trkpt lat="42.0619443711" lon="-7.4083949067">
        <ele>778.32</ele>
        <time>2020-08-13T08:50:58Z</time>
      </trkpt>
      <trkpt lat="42.0618483983" lon="-7.4085695855">
        <ele>780.25</ele>
        <time>2020-08-13T08:51:06Z</time>
      </trkpt>
      <trkpt lat="42.0617647469" lon="-7.4087452702">
        <ele>782.65</ele>
        <time>2020-08-13T08:51:13Z</time>
      </trkpt>
      <trkpt lat="42.0617605560" lon="-7.4087613635">
        <ele>782.65</ele>
        <time>2020-08-13T08:51:14Z</time>
      </trkpt>
      <trkpt lat="42.0617590472" lon="-7.4087803066">
        <ele>783.13</ele>
        <time>2020-08-13T08:51:15Z</time>
      </trkpt>
      <trkpt lat="42.0617561974" lon="-7.4087957293">
        <ele>782.65</ele>
        <time>2020-08-13T08:51:16Z</time>
      </trkpt>
      <trkpt lat="42.0617465582" lon="-7.4088254850">
        <ele>782.65</ele>
        <time>2020-08-13T08:51:23Z</time>
      </trkpt>
      <trkpt lat="42.0617438760" lon="-7.4088202883">
        <ele>783.13</ele>
        <time>2020-08-13T08:51:29Z</time>
      </trkpt>
      <trkpt lat="42.0617414452" lon="-7.4088104814">
        <ele>782.17</ele>
        <time>2020-08-13T08:51:43Z</time>
      </trkpt>
      <trkpt lat="42.0617609750" lon="-7.4088085536">
        <ele>782.17</ele>
        <time>2020-08-13T08:51:59Z</time>
      </trkpt>
      <trkpt lat="42.0617528446" lon="-7.4088031054">
        <ele>780.73</ele>
        <time>2020-08-13T08:52:15Z</time>
      </trkpt>
      <trkpt lat="42.0617464744" lon="-7.4087990820">
        <ele>780.25</ele>
        <time>2020-08-13T08:52:33Z</time>
      </trkpt>
      <trkpt lat="42.0617456362" lon="-7.4088238087">
        <ele>781.21</ele>
        <time>2020-08-13T08:52:41Z</time>
      </trkpt>
      <trkpt lat="42.0617544372" lon="-7.4088580906">
        <ele>781.69</ele>
        <time>2020-08-13T08:52:46Z</time>
      </trkpt>
      <trkpt lat="42.0617536828" lon="-7.4088860862">
        <ele>781.69</ele>
        <time>2020-08-13T08:52:48Z</time>
      </trkpt>
      <trkpt lat="42.0617478993" lon="-7.4089067895">
        <ele>781.69</ele>
        <time>2020-08-13T08:52:49Z</time>
      </trkpt>
      <trkpt lat="42.0617388468" lon="-7.4089280795">
        <ele>781.69</ele>
        <time>2020-08-13T08:52:50Z</time>
      </trkpt>
      <trkpt lat="42.0617289562" lon="-7.4089506269">
        <ele>781.69</ele>
        <time>2020-08-13T08:52:51Z</time>
      </trkpt>
      <trkpt lat="42.0617199037" lon="-7.4089724198">
        <ele>781.69</ele>
        <time>2020-08-13T08:52:52Z</time>
      </trkpt>
      <trkpt lat="42.0617114380" lon="-7.4089932907">
        <ele>781.69</ele>
        <time>2020-08-13T08:52:53Z</time>
      </trkpt>
      <trkpt lat="42.0617036428" lon="-7.4090145808">
        <ele>781.69</ele>
        <time>2020-08-13T08:52:54Z</time>
      </trkpt>
      <trkpt lat="42.0616399404" lon="-7.4092315044">
        <ele>781.69</ele>
        <time>2020-08-13T08:53:02Z</time>
      </trkpt>
      <trkpt lat="42.0615935884" lon="-7.4094463326">
        <ele>782.65</ele>
        <time>2020-08-13T08:53:09Z</time>
      </trkpt>
      <trkpt lat="42.0615161397" lon="-7.4097738136">
        <ele>783.13</ele>
        <time>2020-08-13T08:53:18Z</time>
      </trkpt>
      <trkpt lat="42.0614567120" lon="-7.4100507516">
        <ele>784.09</ele>
        <time>2020-08-13T08:53:25Z</time>
      </trkpt>
      <trkpt lat="42.0614431333" lon="-7.4102556892">
        <ele>784.57</ele>
        <time>2020-08-13T08:53:31Z</time>
      </trkpt>
      <trkpt lat="42.0614370983" lon="-7.4102846067">
        <ele>784.57</ele>
        <time>2020-08-13T08:53:32Z</time>
      </trkpt>
      <trkpt lat="42.0614282135" lon="-7.4102954194">
        <ele>784.57</ele>
        <time>2020-08-13T08:53:33Z</time>
      </trkpt>
      <trkpt lat="42.0614179038" lon="-7.4102963414">
        <ele>784.57</ele>
        <time>2020-08-13T08:53:34Z</time>
      </trkpt>
      <trkpt lat="42.0614051633" lon="-7.4102912284">
        <ele>784.57</ele>
        <time>2020-08-13T08:53:35Z</time>
      </trkpt>
      <trkpt lat="42.0614101086" lon="-7.4102893844">
        <ele>784.57</ele>
        <time>2020-08-13T08:53:41Z</time>
      </trkpt>
      <trkpt lat="42.0614335779" lon="-7.4103309587">
        <ele>784.09</ele>
        <time>2020-08-13T08:53:53Z</time>
      </trkpt>
      <trkpt lat="42.0614360925" lon="-7.4103594571">
        <ele>783.61</ele>
        <time>2020-08-13T08:53:56Z</time>
      </trkpt>
      <trkpt lat="42.0614479948" lon="-7.4103860278">
        <ele>783.13</ele>
        <time>2020-08-13T08:53:57Z</time>
      </trkpt>
      <trkpt lat="42.0614614058" lon="-7.4104113411">
        <ele>783.13</ele>
        <time>2020-08-13T08:53:58Z</time>
      </trkpt>
      <trkpt lat="42.0614783373" lon="-7.4104405101">
        <ele>783.13</ele>
        <time>2020-08-13T08:53:59Z</time>
      </trkpt>
      <trkpt lat="42.0614925027" lon="-7.4104716070">
        <ele>782.65</ele>
        <time>2020-08-13T08:54:00Z</time>
      </trkpt>
      <trkpt lat="42.0615059137" lon="-7.4105094094">
        <ele>782.65</ele>
        <time>2020-08-13T08:54:01Z</time>
      </trkpt>
      <trkpt lat="42.0615207497" lon="-7.4105527438">
        <ele>782.65</ele>
        <time>2020-08-13T08:54:02Z</time>
      </trkpt>
      <trkpt lat="42.0616565365" lon="-7.4109366350">
        <ele>780.73</ele>
        <time>2020-08-13T08:54:09Z</time>
      </trkpt>
      <trkpt lat="42.0617711172" lon="-7.4112096336">
        <ele>778.32</ele>
        <time>2020-08-13T08:54:13Z</time>
      </trkpt>
      <trkpt lat="42.0617994480" lon="-7.4112719949">
        <ele>777.84</ele>
        <time>2020-08-13T08:54:14Z</time>
      </trkpt>
      <trkpt lat="42.0618281979" lon="-7.4113334343">
        <ele>777.36</ele>
        <time>2020-08-13T08:54:15Z</time>
      </trkpt>
      <trkpt lat="42.0619265176" lon="-7.4115611706">
        <ele>775.92</ele>
        <time>2020-08-13T08:54:20Z</time>
      </trkpt>
      <trkpt lat="42.0619661640" lon="-7.4116661958">
        <ele>774.96</ele>
        <time>2020-08-13T08:54:22Z</time>
      </trkpt>
      <trkpt lat="42.0620465465" lon="-7.4118320737">
        <ele>773.52</ele>
        <time>2020-08-13T08:54:25Z</time>
      </trkpt>
      <trkpt lat="42.0620813314" lon="-7.4118799344">
        <ele>773.52</ele>
        <time>2020-08-13T08:54:26Z</time>
      </trkpt>
      <trkpt lat="42.0621232409" lon="-7.4119197484">
        <ele>773.04</ele>
        <time>2020-08-13T08:54:27Z</time>
      </trkpt>
      <trkpt lat="42.0621632226" lon="-7.4119478278">
        <ele>773.04</ele>
        <time>2020-08-13T08:54:28Z</time>
      </trkpt>
      <trkpt lat="42.0622023661" lon="-7.4119677767">
        <ele>773.04</ele>
        <time>2020-08-13T08:54:29Z</time>
      </trkpt>
      <trkpt lat="42.0622435212" lon="-7.4119801819">
        <ele>773.04</ele>
        <time>2020-08-13T08:54:30Z</time>
      </trkpt>
      <trkpt lat="42.0622794796" lon="-7.4119899049">
        <ele>773.04</ele>
        <time>2020-08-13T08:54:31Z</time>
      </trkpt>
      <trkpt lat="42.0623220596" lon="-7.4120058306">
        <ele>773.04</ele>
        <time>2020-08-13T08:54:32Z</time>
      </trkpt>
      <trkpt lat="42.0623644721" lon="-7.4120261148">
        <ele>773.04</ele>
        <time>2020-08-13T08:54:33Z</time>
      </trkpt>
      <trkpt lat="42.0624066330" lon="-7.4120511767">
        <ele>772.56</ele>
        <time>2020-08-13T08:54:34Z</time>
      </trkpt>
      <trkpt lat="42.0624539908" lon="-7.4120904040">
        <ele>772.08</ele>
        <time>2020-08-13T08:54:35Z</time>
      </trkpt>
      <trkpt lat="42.0625001751" lon="-7.4121391028">
        <ele>771.60</ele>
        <time>2020-08-13T08:54:36Z</time>
      </trkpt>
      <trkpt lat="42.0625452697" lon="-7.4122024700">
        <ele>771.11</ele>
        <time>2020-08-13T08:54:37Z</time>
      </trkpt>
      <trkpt lat="42.0625903644" lon="-7.4122958444">
        <ele>770.15</ele>
        <time>2020-08-13T08:54:38Z</time>
      </trkpt>
      <trkpt lat="42.0626199525" lon="-7.4123939965">
        <ele>769.19</ele>
        <time>2020-08-13T08:54:40Z</time>
      </trkpt>
      <trkpt lat="42.0626243111" lon="-7.4125198089">
        <ele>768.23</ele>
        <time>2020-08-13T08:54:41Z</time>
      </trkpt>
      <trkpt lat="42.0626157615" lon="-7.4126204755">
        <ele>767.27</ele>
        <time>2020-08-13T08:54:42Z</time>
      </trkpt>
      <trkpt lat="42.0626070444" lon="-7.4126796518">
        <ele>767.27</ele>
        <time>2020-08-13T08:54:43Z</time>
      </trkpt>
      <trkpt lat="42.0625933819" lon="-7.4127765466">
        <ele>766.31</ele>
        <time>2020-08-13T08:54:44Z</time>
      </trkpt>
      <trkpt lat="42.0625882689" lon="-7.4128340464">
        <ele>765.83</ele>
        <time>2020-08-13T08:54:45Z</time>
      </trkpt>
      <trkpt lat="42.0625896100" lon="-7.4129113276">
        <ele>765.35</ele>
        <time>2020-08-13T08:54:46Z</time>
      </trkpt>
      <trkpt lat="42.0626036916" lon="-7.4129948113">
        <ele>764.87</ele>
        <time>2020-08-13T08:54:47Z</time>
      </trkpt>
      <trkpt lat="42.0626249816" lon="-7.4130702484">
        <ele>764.39</ele>
        <time>2020-08-13T08:54:48Z</time>
      </trkpt>
      <trkpt lat="42.0626549888" lon="-7.4131542351">
        <ele>763.90</ele>
        <time>2020-08-13T08:54:49Z</time>
      </trkpt>
      <trkpt lat="42.0626994967" lon="-7.4132491183">
        <ele>763.42</ele>
        <time>2020-08-13T08:54:50Z</time>
      </trkpt>
      <trkpt lat="42.0627252292" lon="-7.4132848252">
        <ele>763.42</ele>
        <time>2020-08-13T08:54:51Z</time>
      </trkpt>
      <trkpt lat="42.0627737604" lon="-7.4133306742">
        <ele>763.42</ele>
        <time>2020-08-13T08:54:52Z</time>
      </trkpt>
      <trkpt lat="42.0628317632" lon="-7.4133509584">
        <ele>762.94</ele>
        <time>2020-08-13T08:54:53Z</time>
      </trkpt>
      <trkpt lat="42.0628642850" lon="-7.4133458454">
        <ele>762.94</ele>
        <time>2020-08-13T08:54:54Z</time>
      </trkpt>
      <trkpt lat="42.0629197732" lon="-7.4133243877">
        <ele>762.46</ele>
        <time>2020-08-13T08:54:55Z</time>
      </trkpt>
      <trkpt lat="42.0629634429" lon="-7.4132959731">
        <ele>762.46</ele>
        <time>2020-08-13T08:54:56Z</time>
      </trkpt>
      <trkpt lat="42.0630109683" lon="-7.4132622778">
        <ele>762.46</ele>
        <time>2020-08-13T08:54:57Z</time>
      </trkpt>
      <trkpt lat="42.0633525308" lon="-7.4130168557">
        <ele>761.50</ele>
        <time>2020-08-13T08:55:04Z</time>
      </trkpt>
      <trkpt lat="42.0636539441" lon="-7.4129301030">
        <ele>759.58</ele>
        <time>2020-08-13T08:55:10Z</time>
      </trkpt>
      <trkpt lat="42.0637106895" lon="-7.4129326176">
        <ele>759.10</ele>
        <time>2020-08-13T08:55:11Z</time>
      </trkpt>
      <trkpt lat="42.0637589693" lon="-7.4129400775">
        <ele>758.14</ele>
        <time>2020-08-13T08:55:12Z</time>
      </trkpt>
      <trkpt lat="42.0638095960" lon="-7.4129537400">
        <ele>757.66</ele>
        <time>2020-08-13T08:55:13Z</time>
      </trkpt>
      <trkpt lat="42.0638843626" lon="-7.4129878543">
        <ele>756.69</ele>
        <time>2020-08-13T08:55:14Z</time>
      </trkpt>
      <trkpt lat="42.0639174711" lon="-7.4130090605">
        <ele>756.21</ele>
        <time>2020-08-13T08:55:15Z</time>
      </trkpt>
      <trkpt lat="42.0640063193" lon="-7.4130733497">
        <ele>755.25</ele>
        <time>2020-08-13T08:55:17Z</time>
      </trkpt>
      <trkpt lat="42.0642860234" lon="-7.4133372121">
        <ele>751.89</ele>
        <time>2020-08-13T08:55:21Z</time>
      </trkpt>
      <trkpt lat="42.0643361472" lon="-7.4134024233">
        <ele>750.93</ele>
        <time>2020-08-13T08:55:22Z</time>
      </trkpt>
      <trkpt lat="42.0644205529" lon="-7.4135337677">
        <ele>749.49</ele>
        <time>2020-08-13T08:55:24Z</time>
      </trkpt>
      <trkpt lat="42.0644729398" lon="-7.4136487674">
        <ele>748.04</ele>
        <time>2020-08-13T08:55:25Z</time>
      </trkpt>
      <trkpt lat="42.0646389853" lon="-7.4141347501">
        <ele>742.76</ele>
        <time>2020-08-13T08:55:31Z</time>
      </trkpt>
      <trkpt lat="42.0647492912" lon="-7.4142918270">
        <ele>739.87</ele>
        <time>2020-08-13T08:55:35Z</time>
      </trkpt>
      <trkpt lat="42.0648337808" lon="-7.4143299647">
        <ele>738.91</ele>
        <time>2020-08-13T08:55:37Z</time>
      </trkpt>
      <trkpt lat="42.0650423225" lon="-7.4144273624">
        <ele>737.47</ele>
        <time>2020-08-13T08:55:41Z</time>
      </trkpt>
      <trkpt lat="42.0650871657" lon="-7.4144667573">
        <ele>736.99</ele>
        <time>2020-08-13T08:55:42Z</time>
      </trkpt>
      <trkpt lat="42.0651340205" lon="-7.4145229161">
        <ele>736.51</ele>
        <time>2020-08-13T08:55:43Z</time>
      </trkpt>
      <trkpt lat="42.0651810430" lon="-7.4146030471">
        <ele>735.07</ele>
        <time>2020-08-13T08:55:44Z</time>
      </trkpt>
      <trkpt lat="42.0652322564" lon="-7.4147292785">
        <ele>734.10</ele>
        <time>2020-08-13T08:55:46Z</time>
      </trkpt>
      <trkpt lat="42.0652582403" lon="-7.4148121756">
        <ele>733.14</ele>
        <time>2020-08-13T08:55:47Z</time>
      </trkpt>
      <trkpt lat="42.0653861482" lon="-7.4155246373">
        <ele>728.34</ele>
        <time>2020-08-13T08:55:54Z</time>
      </trkpt>
      <trkpt lat="42.0654132217" lon="-7.4157149065">
        <ele>727.37</ele>
        <time>2020-08-13T08:55:56Z</time>
      </trkpt>
      <trkpt lat="42.0654198434" lon="-7.4158154055">
        <ele>726.89</ele>
        <time>2020-08-13T08:55:57Z</time>
      </trkpt>
      <trkpt lat="42.0654172450" lon="-7.4163782503">
        <ele>725.93</ele>
        <time>2020-08-13T08:56:03Z</time>
      </trkpt>
      <trkpt lat="42.0653724018" lon="-7.4169744551">
        <ele>724.97</ele>
        <time>2020-08-13T08:56:09Z</time>
      </trkpt>
      <trkpt lat="42.0653537940" lon="-7.4170476291">
        <ele>724.49</ele>
        <time>2020-08-13T08:56:10Z</time>
      </trkpt>
      <trkpt lat="42.0651341043" lon="-7.4175503757">
        <ele>722.09</ele>
        <time>2020-08-13T08:56:15Z</time>
      </trkpt>
      <trkpt lat="42.0650939550" lon="-7.4176072050">
        <ele>721.61</ele>
        <time>2020-08-13T08:56:16Z</time>
      </trkpt>
      <trkpt lat="42.0649647899" lon="-7.4178021681">
        <ele>719.68</ele>
        <time>2020-08-13T08:56:19Z</time>
      </trkpt>
      <trkpt lat="42.0649478585" lon="-7.4178606737">
        <ele>719.68</ele>
        <time>2020-08-13T08:56:20Z</time>
      </trkpt>
      <trkpt lat="42.0649500377" lon="-7.4179313332">
        <ele>719.20</ele>
        <time>2020-08-13T08:56:21Z</time>
      </trkpt>
      <trkpt lat="42.0650161710" lon="-7.4180547986">
        <ele>718.72</ele>
        <time>2020-08-13T08:56:23Z</time>
      </trkpt>
      <trkpt lat="42.0650489442" lon="-7.4180824589">
        <ele>718.72</ele>
        <time>2020-08-13T08:56:24Z</time>
      </trkpt>
      <trkpt lat="42.0650921948" lon="-7.4181109574">
        <ele>718.24</ele>
        <time>2020-08-13T08:56:25Z</time>
      </trkpt>
      <trkpt lat="42.0651384629" lon="-7.4181346782">
        <ele>718.24</ele>
        <time>2020-08-13T08:56:26Z</time>
      </trkpt>
      <trkpt lat="42.0652006567" lon="-7.4181574769">
        <ele>718.24</ele>
        <time>2020-08-13T08:56:27Z</time>
      </trkpt>
      <trkpt lat="42.0652601682" lon="-7.4181773420">
        <ele>718.72</ele>
        <time>2020-08-13T08:56:29Z</time>
      </trkpt>
      <trkpt lat="42.0655977912" lon="-7.4182357639">
        <ele>719.20</ele>
        <time>2020-08-13T08:56:36Z</time>
      </trkpt>
      <trkpt lat="42.0659463946" lon="-7.4183079321">
        <ele>718.72</ele>
        <time>2020-08-13T08:56:43Z</time>
      </trkpt>
      <trkpt lat="42.0663520787" lon="-7.4183588102">
        <ele>716.32</ele>
        <time>2020-08-13T08:56:50Z</time>
      </trkpt>
      <trkpt lat="42.0665890351" lon="-7.4183715507">
        <ele>714.88</ele>
        <time>2020-08-13T08:56:54Z</time>
      </trkpt>
      <trkpt lat="42.0666455291" lon="-7.4183910806">
        <ele>714.40</ele>
        <time>2020-08-13T08:56:55Z</time>
      </trkpt>
      <trkpt lat="42.0667092316" lon="-7.4184291344">
        <ele>713.92</ele>
        <time>2020-08-13T08:56:56Z</time>
      </trkpt>
      <trkpt lat="42.0667852554" lon="-7.4185005482">
        <ele>712.95</ele>
        <time>2020-08-13T08:56:58Z</time>
      </trkpt>
      <trkpt lat="42.0668415818" lon="-7.4186323117">
        <ele>711.99</ele>
        <time>2020-08-13T08:56:59Z</time>
      </trkpt>
      <trkpt lat="42.0668568369" lon="-7.4186897278">
        <ele>711.51</ele>
        <time>2020-08-13T08:57:00Z</time>
      </trkpt>
      <trkpt lat="42.0668790489" lon="-7.4187776539">
        <ele>711.03</ele>
        <time>2020-08-13T08:57:01Z</time>
      </trkpt>
      <trkpt lat="42.0668970700" lon="-7.4188633170">
        <ele>711.03</ele>
        <time>2020-08-13T08:57:02Z</time>
      </trkpt>
      <trkpt lat="42.0669369679" lon="-7.4195445981">
        <ele>709.59</ele>
        <time>2020-08-13T08:57:10Z</time>
      </trkpt>
      <trkpt lat="42.0668623690" lon="-7.4201279785">
        <ele>709.11</ele>
        <time>2020-08-13T08:57:18Z</time>
      </trkpt>
      <trkpt lat="42.0668359660" lon="-7.4202621728">
        <ele>709.11</ele>
        <time>2020-08-13T08:57:20Z</time>
      </trkpt>
      <trkpt lat="42.0667052083" lon="-7.4206295516">
        <ele>710.55</ele>
        <time>2020-08-13T08:57:26Z</time>
      </trkpt>
      <trkpt lat="42.0664565172" lon="-7.4210696016">
        <ele>711.03</ele>
        <time>2020-08-13T08:57:33Z</time>
      </trkpt>
      <trkpt lat="42.0661780704" lon="-7.4215544108">
        <ele>710.55</ele>
        <time>2020-08-13T08:57:40Z</time>
      </trkpt>
      <trkpt lat="42.0661201514" lon="-7.4216886051">
        <ele>710.55</ele>
        <time>2020-08-13T08:57:42Z</time>
      </trkpt>
      <trkpt lat="42.0660863724" lon="-7.4217429198">
        <ele>710.55</ele>
        <time>2020-08-13T08:57:43Z</time>
      </trkpt>
      <trkpt lat="42.0660476480" lon="-7.4217865895">
        <ele>710.55</ele>
        <time>2020-08-13T08:57:44Z</time>
      </trkpt>
      <trkpt lat="42.0660114381" lon="-7.4218135793">
        <ele>710.55</ele>
        <time>2020-08-13T08:57:45Z</time>
      </trkpt>
      <trkpt lat="42.0659759827" lon="-7.4218302593">
        <ele>710.55</ele>
        <time>2020-08-13T08:57:46Z</time>
      </trkpt>
      <trkpt lat="42.0658894815" lon="-7.4218569975">
        <ele>710.07</ele>
        <time>2020-08-13T08:57:48Z</time>
      </trkpt>
      <trkpt lat="42.0656816103" lon="-7.4220012501">
        <ele>710.55</ele>
        <time>2020-08-13T08:57:55Z</time>
      </trkpt>
      <trkpt lat="42.0655723102" lon="-7.4221509509">
        <ele>711.51</ele>
        <time>2020-08-13T08:57:59Z</time>
      </trkpt>
      <trkpt lat="42.0655427221" lon="-7.4222018290">
        <ele>711.99</ele>
        <time>2020-08-13T08:58:00Z</time>
      </trkpt>
      <trkpt lat="42.0655144751" lon="-7.4222577363">
        <ele>711.99</ele>
        <time>2020-08-13T08:58:01Z</time>
      </trkpt>
      <trkpt lat="42.0654878207" lon="-7.4223191757">
        <ele>711.99</ele>
        <time>2020-08-13T08:58:02Z</time>
      </trkpt>
      <trkpt lat="42.0654653572" lon="-7.4223756697">
        <ele>711.51</ele>
        <time>2020-08-13T08:58:03Z</time>
      </trkpt>
      <trkpt lat="42.0653343480" lon="-7.4226523563">
        <ele>711.99</ele>
        <time>2020-08-13T08:58:08Z</time>
      </trkpt>
      <trkpt lat="42.0650927816" lon="-7.4229284562">
        <ele>711.03</ele>
        <time>2020-08-13T08:58:14Z</time>
      </trkpt>
      <trkpt lat="42.0650322642" lon="-7.4229572061">
        <ele>710.55</ele>
        <time>2020-08-13T08:58:15Z</time>
      </trkpt>
      <trkpt lat="42.0647281688" lon="-7.4230830185">
        <ele>706.71</ele>
        <time>2020-08-13T08:58:20Z</time>
      </trkpt>
      <trkpt lat="42.0646829065" lon="-7.4231191445">
        <ele>706.23</ele>
        <time>2020-08-13T08:58:21Z</time>
      </trkpt>
      <trkpt lat="42.0646244846" lon="-7.4232323840">
        <ele>704.78</ele>
        <time>2020-08-13T08:58:23Z</time>
      </trkpt>
      <trkpt lat="42.0646192878" lon="-7.4232860282">
        <ele>704.78</ele>
        <time>2020-08-13T08:58:24Z</time>
      </trkpt>
      <trkpt lat="42.0646254066" lon="-7.4233859405">
        <ele>704.30</ele>
        <time>2020-08-13T08:58:25Z</time>
      </trkpt>
      <trkpt lat="42.0646471996" lon="-7.4234936479">
        <ele>703.82</ele>
        <time>2020-08-13T08:58:27Z</time>
      </trkpt>
      <trkpt lat="42.0646613650" lon="-7.4235360604">
        <ele>703.34</ele>
        <time>2020-08-13T08:58:28Z</time>
      </trkpt>
      <trkpt lat="42.0646595210" lon="-7.4235576019">
        <ele>703.34</ele>
        <time>2020-08-13T08:58:33Z</time>
      </trkpt>
      <trkpt lat="42.0646482054" lon="-7.4235721864">
        <ele>702.38</ele>
        <time>2020-08-13T08:58:42Z</time>
      </trkpt>
      <trkpt lat="42.0646240655" lon="-7.4235976674">
        <ele>699.02</ele>
        <time>2020-08-13T08:58:55Z</time>
      </trkpt>
      <trkpt lat="42.0646041166" lon="-7.4236164428">
        <ele>699.50</ele>
        <time>2020-08-13T08:59:23Z</time>
      </trkpt>
      <trkpt lat="42.0646026079" lon="-7.4236222263">
        <ele>698.53</ele>
        <time>2020-08-13T08:59:40Z</time>
      </trkpt>
      <trkpt lat="42.0646053739" lon="-7.4236414209">
        <ele>698.05</ele>
        <time>2020-08-13T08:59:41Z</time>
      </trkpt>
      <trkpt lat="42.0646105707" lon="-7.4236680754">
        <ele>697.57</ele>
        <time>2020-08-13T08:59:42Z</time>
      </trkpt>
      <trkpt lat="42.0646162704" lon="-7.4237010162">
        <ele>697.09</ele>
        <time>2020-08-13T08:59:43Z</time>
      </trkpt>
      <trkpt lat="42.0646227244" lon="-7.4237394053">
        <ele>696.13</ele>
        <time>2020-08-13T08:59:44Z</time>
      </trkpt>
      <trkpt lat="42.0647138357" lon="-7.4240399804">
        <ele>693.25</ele>
        <time>2020-08-13T08:59:49Z</time>
      </trkpt>
      <trkpt lat="42.0648715831" lon="-7.4245748296">
        <ele>688.44</ele>
        <time>2020-08-13T08:59:56Z</time>
      </trkpt>
      <trkpt lat="42.0649745129" lon="-7.4248172343">
        <ele>686.04</ele>
        <time>2020-08-13T09:00:00Z</time>
      </trkpt>
      <trkpt lat="42.0650279056" lon="-7.4248920009">
        <ele>685.08</ele>
        <time>2020-08-13T09:00:02Z</time>
      </trkpt>
      <trkpt lat="42.0651018340" lon="-7.4249585532">
        <ele>684.60</ele>
        <time>2020-08-13T09:00:03Z</time>
      </trkpt>
      <trkpt lat="42.0651503652" lon="-7.4249961041">
        <ele>683.63</ele>
        <time>2020-08-13T09:00:04Z</time>
      </trkpt>
      <trkpt lat="42.0651983935" lon="-7.4250348285">
        <ele>683.15</ele>
        <time>2020-08-13T09:00:05Z</time>
      </trkpt>
      <trkpt lat="42.0656234398" lon="-7.4253060669">
        <ele>679.79</ele>
        <time>2020-08-13T09:00:13Z</time>
      </trkpt>
      <trkpt lat="42.0658080932" lon="-7.4254491460">
        <ele>679.31</ele>
        <time>2020-08-13T09:00:18Z</time>
      </trkpt>
      <trkpt lat="42.0658643357" lon="-7.4255197216">
        <ele>678.83</ele>
        <time>2020-08-13T09:00:20Z</time>
      </trkpt>
      <trkpt lat="42.0658909902" lon="-7.4255641457">
        <ele>678.35</ele>
        <time>2020-08-13T09:00:21Z</time>
      </trkpt>
      <trkpt lat="42.0659150463" lon="-7.4256148562">
        <ele>678.35</ele>
        <time>2020-08-13T09:00:22Z</time>
      </trkpt>
      <trkpt lat="42.0659570396" lon="-7.4257316161">
        <ele>676.91</ele>
        <time>2020-08-13T09:00:24Z</time>
      </trkpt>
      <trkpt lat="42.0659785811" lon="-7.4258814845">
        <ele>675.94</ele>
        <time>2020-08-13T09:00:26Z</time>
      </trkpt>
      <trkpt lat="42.0659790002" lon="-7.4259343743">
        <ele>675.94</ele>
        <time>2020-08-13T09:00:27Z</time>
      </trkpt>
      <trkpt lat="42.0659866277" lon="-7.4260497093">
        <ele>675.46</ele>
        <time>2020-08-13T09:00:29Z</time>
      </trkpt>
      <trkpt lat="42.0659901481" lon="-7.4261295050">
        <ele>675.46</ele>
        <time>2020-08-13T09:00:30Z</time>
      </trkpt>
      <trkpt lat="42.0659911539" lon="-7.4261973985">
        <ele>675.46</ele>
        <time>2020-08-13T09:00:31Z</time>
      </trkpt>
      <trkpt lat="42.0659932494" lon="-7.4262585863">
        <ele>675.46</ele>
        <time>2020-08-13T09:00:32Z</time>
      </trkpt>
      <trkpt lat="42.0659963507" lon="-7.4263248872">
        <ele>675.46</ele>
        <time>2020-08-13T09:00:33Z</time>
      </trkpt>
      <trkpt lat="42.0660000388" lon="-7.4263978936">
        <ele>675.46</ele>
        <time>2020-08-13T09:00:34Z</time>
      </trkpt>
      <trkpt lat="42.0660347398" lon="-7.4268661067">
        <ele>674.02</ele>
        <time>2020-08-13T09:00:42Z</time>
      </trkpt>
      <trkpt lat="42.0660413615" lon="-7.4270354211">
        <ele>673.54</ele>
        <time>2020-08-13T09:00:47Z</time>
      </trkpt>
      <trkpt lat="42.0660385117" lon="-7.4270612374">
        <ele>672.58</ele>
        <time>2020-08-13T09:00:54Z</time>
      </trkpt>
      <trkpt lat="42.0660416968" lon="-7.4270671885">
        <ele>672.10</ele>
        <time>2020-08-13T09:01:03Z</time>
      </trkpt>
      <trkpt lat="42.0660388470" lon="-7.4270759057">
        <ele>673.06</ele>
        <time>2020-08-13T09:01:22Z</time>
      </trkpt>
      <trkpt lat="42.0660419483" lon="-7.4270703737">
        <ele>672.10</ele>
        <time>2020-08-13T09:01:39Z</time>
      </trkpt>
      <trkpt lat="42.0660362486" lon="-7.4270678591">
        <ele>670.66</ele>
        <time>2020-08-13T09:01:51Z</time>
      </trkpt>
      <trkpt lat="42.0660446305" lon="-7.4270941783">
        <ele>669.70</ele>
        <time>2020-08-13T09:02:03Z</time>
      </trkpt>
      <trkpt lat="42.0660527609" lon="-7.4270938430">
        <ele>669.70</ele>
        <time>2020-08-13T09:02:16Z</time>
      </trkpt>
      <trkpt lat="42.0660442114" lon="-7.4270842876">
        <ele>671.62</ele>
        <time>2020-08-13T09:02:27Z</time>
      </trkpt>
      <trkpt lat="42.0660447981" lon="-7.4270751514">
        <ele>672.10</ele>
        <time>2020-08-13T09:02:39Z</time>
      </trkpt>
      <trkpt lat="42.0660478994" lon="-7.4270836171">
        <ele>671.62</ele>
        <time>2020-08-13T09:02:51Z</time>
      </trkpt>
      <trkpt lat="42.0660638250" lon="-7.4270805158">
        <ele>672.10</ele>
        <time>2020-08-13T09:03:03Z</time>
      </trkpt>
      <trkpt lat="42.0660712849" lon="-7.4270772468">
        <ele>673.54</ele>
        <time>2020-08-13T09:03:16Z</time>
      </trkpt>
      <trkpt lat="42.0660744701" lon="-7.4270638358">
        <ele>674.98</ele>
        <time>2020-08-13T09:03:28Z</time>
      </trkpt>
      <trkpt lat="42.0660718717" lon="-7.4270567950">
        <ele>675.46</ele>
        <time>2020-08-13T09:03:40Z</time>
      </trkpt>
      <trkpt lat="42.0660667587" lon="-7.4270602316">
        <ele>674.50</ele>
        <time>2020-08-13T09:03:51Z</time>
      </trkpt>
      <trkpt lat="42.0660682674" lon="-7.4270608183">
        <ele>673.54</ele>
        <time>2020-08-13T09:04:02Z</time>
      </trkpt>
      <trkpt lat="42.0660676807" lon="-7.4270751514">
        <ele>674.50</ele>
        <time>2020-08-13T09:04:13Z</time>
      </trkpt>
      <trkpt lat="42.0660615619" lon="-7.4270811863">
        <ele>675.94</ele>
        <time>2020-08-13T09:04:24Z</time>
      </trkpt>
      <trkpt lat="42.0660625678" lon="-7.4270745646">
        <ele>675.94</ele>
        <time>2020-08-13T09:04:34Z</time>
      </trkpt>
      <trkpt lat="42.0660587959" lon="-7.4270734750">
        <ele>674.02</ele>
        <time>2020-08-13T09:04:47Z</time>
      </trkpt>
      <trkpt lat="42.0660580415" lon="-7.4270780012">
        <ele>672.58</ele>
        <time>2020-08-13T09:04:59Z</time>
      </trkpt>
      <trkpt lat="42.0660518389" lon="-7.4270780012">
        <ele>671.62</ele>
        <time>2020-08-13T09:05:09Z</time>
      </trkpt>
      <trkpt lat="42.0660567004" lon="-7.4270763248">
        <ele>670.66</ele>
        <time>2020-08-13T09:05:19Z</time>
      </trkpt>
      <trkpt lat="42.0660561975" lon="-7.4270764086">
        <ele>670.66</ele>
        <time>2020-08-13T09:05:31Z</time>
      </trkpt>
      <trkpt lat="42.0660567842" lon="-7.4270773306">
        <ele>671.14</ele>
        <time>2020-08-13T09:05:41Z</time>
      </trkpt>
      <trkpt lat="42.0660569519" lon="-7.4270751514">
        <ele>671.62</ele>
        <time>2020-08-13T09:05:52Z</time>
      </trkpt>
      <trkpt lat="42.0660576224" lon="-7.4270589743">
        <ele>672.58</ele>
        <time>2020-08-13T09:06:03Z</time>
      </trkpt>
      <trkpt lat="42.0660618972" lon="-7.4270456471">
        <ele>673.06</ele>
        <time>2020-08-13T09:06:15Z</time>
      </trkpt>
      <trkpt lat="42.0660635736" lon="-7.4270486645">
        <ele>672.58</ele>
        <time>2020-08-13T09:06:27Z</time>
      </trkpt>
      <trkpt lat="42.0660575386" lon="-7.4270672724">
        <ele>671.62</ele>
        <time>2020-08-13T09:06:38Z</time>
      </trkpt>
      <trkpt lat="42.0660624839" lon="-7.4270775821">
        <ele>671.14</ele>
        <time>2020-08-13T09:06:51Z</time>
      </trkpt>
      <trkpt lat="42.0660612267" lon="-7.4270839524">
        <ele>669.70</ele>
        <time>2020-08-13T09:07:02Z</time>
      </trkpt>
      <trkpt lat="42.0660566166" lon="-7.4270853773">
        <ele>670.66</ele>
        <time>2020-08-13T09:07:12Z</time>
      </trkpt>
      <trkpt lat="42.0660578739" lon="-7.4270877242">
        <ele>671.14</ele>
        <time>2020-08-13T09:07:21Z</time>
      </trkpt>
      <trkpt lat="42.0660885517" lon="-7.4271023925">
        <ele>670.66</ele>
        <time>2020-08-13T09:07:24Z</time>
      </trkpt>
      <trkpt lat="42.0662079938" lon="-7.4271476548">
        <ele>670.18</ele>
        <time>2020-08-13T09:07:27Z</time>
      </trkpt>
      <trkpt lat="42.0662430301" lon="-7.4271472357">
        <ele>669.70</ele>
        <time>2020-08-13T09:07:28Z</time>
      </trkpt>
      <trkpt lat="42.0665571000" lon="-7.4271487445">
        <ele>667.77</ele>
        <time>2020-08-13T09:07:33Z</time>
      </trkpt>
      <trkpt lat="42.0666310284" lon="-7.4271688610">
        <ele>667.29</ele>
        <time>2020-08-13T09:07:34Z</time>
      </trkpt>
      <trkpt lat="42.0666857623" lon="-7.4271925818">
        <ele>666.81</ele>
        <time>2020-08-13T09:07:35Z</time>
      </trkpt>
      <trkpt lat="42.0667477045" lon="-7.4272297975">
        <ele>666.33</ele>
        <time>2020-08-13T09:07:36Z</time>
      </trkpt>
      <trkpt lat="42.0668048691" lon="-7.4272766523">
        <ele>665.85</ele>
        <time>2020-08-13T09:07:37Z</time>
      </trkpt>
      <trkpt lat="42.0668591000" lon="-7.4273332302">
        <ele>665.37</ele>
        <time>2020-08-13T09:07:38Z</time>
      </trkpt>
      <trkpt lat="42.0669132471" lon="-7.4273960944">
        <ele>664.41</ele>
        <time>2020-08-13T09:07:39Z</time>
      </trkpt>
      <trkpt lat="42.0670150872" lon="-7.4275047239">
        <ele>662.97</ele>
        <time>2020-08-13T09:07:41Z</time>
      </trkpt>
      <trkpt lat="42.0670822263" lon="-7.4275503214">
        <ele>662.49</ele>
        <time>2020-08-13T09:07:42Z</time>
      </trkpt>
      <trkpt lat="42.0671392232" lon="-7.4275742099">
        <ele>662.01</ele>
        <time>2020-08-13T09:07:43Z</time>
      </trkpt>
      <trkpt lat="42.0677394513" lon="-7.4277291074">
        <ele>657.68</ele>
        <time>2020-08-13T09:07:52Z</time>
      </trkpt>
      <trkpt lat="42.0679381024" lon="-7.4277876131">
        <ele>656.72</ele>
        <time>2020-08-13T09:07:56Z</time>
      </trkpt>
      <trkpt lat="42.0679923333" lon="-7.4278179556">
        <ele>656.24</ele>
        <time>2020-08-13T09:07:57Z</time>
      </trkpt>
      <trkpt lat="42.0680396073" lon="-7.4278612901">
        <ele>655.76</ele>
        <time>2020-08-13T09:07:58Z</time>
      </trkpt>
      <trkpt lat="42.0680822711" lon="-7.4279186223">
        <ele>654.80</ele>
        <time>2020-08-13T09:07:59Z</time>
      </trkpt>
      <trkpt lat="42.0681224205" lon="-7.4279906228">
        <ele>654.31</ele>
        <time>2020-08-13T09:08:00Z</time>
      </trkpt>
      <trkpt lat="42.0681645814" lon="-7.4280864280">
        <ele>653.83</ele>
        <time>2020-08-13T09:08:01Z</time>
      </trkpt>
      <trkpt lat="42.0681838598" lon="-7.4281410780">
        <ele>653.35</ele>
        <time>2020-08-13T09:08:02Z</time>
      </trkpt>
      <trkpt lat="42.0682192314" lon="-7.4282436725">
        <ele>652.87</ele>
        <time>2020-08-13T09:08:03Z</time>
      </trkpt>
      <trkpt lat="42.0683112647" lon="-7.4285154976">
        <ele>651.43</ele>
        <time>2020-08-13T09:08:07Z</time>
      </trkpt>
      <trkpt lat="42.0683796611" lon="-7.4287733249">
        <ele>649.99</ele>
        <time>2020-08-13T09:08:11Z</time>
      </trkpt>
      <trkpt lat="42.0683903899" lon="-7.4288399611">
        <ele>649.99</ele>
        <time>2020-08-13T09:08:12Z</time>
      </trkpt>
      <trkpt lat="42.0683991909" lon="-7.4289410468">
        <ele>649.51</ele>
        <time>2020-08-13T09:08:13Z</time>
      </trkpt>
      <trkpt lat="42.0683959220" lon="-7.4289788492">
        <ele>649.03</ele>
        <time>2020-08-13T09:08:14Z</time>
      </trkpt>
      <trkpt lat="42.0683877077" lon="-7.4290436413">
        <ele>648.55</ele>
        <time>2020-08-13T09:08:15Z</time>
      </trkpt>
      <trkpt lat="42.0683745481" lon="-7.4291036557">
        <ele>648.07</ele>
        <time>2020-08-13T09:08:16Z</time>
      </trkpt>
      <trkpt lat="42.0683519170" lon="-7.4291702919">
        <ele>647.10</ele>
        <time>2020-08-13T09:08:17Z</time>
      </trkpt>
      <trkpt lat="42.0683189761" lon="-7.4292407837">
        <ele>646.62</ele>
        <time>2020-08-13T09:08:18Z</time>
      </trkpt>
      <trkpt lat="42.0682819281" lon="-7.4293113593">
        <ele>646.14</ele>
        <time>2020-08-13T09:08:19Z</time>
      </trkpt>
      <trkpt lat="42.0679892320" lon="-7.4297842663">
        <ele>642.30</ele>
        <time>2020-08-13T09:08:26Z</time>
      </trkpt>
      <trkpt lat="42.0677211788" lon="-7.4302655552">
        <ele>639.89</ele>
        <time>2020-08-13T09:08:32Z</time>
      </trkpt>
      <trkpt lat="42.0673875790" lon="-7.4308462534">
        <ele>637.01</ele>
        <time>2020-08-13T09:08:40Z</time>
      </trkpt>
      <trkpt lat="42.0671968069" lon="-7.4311860558">
        <ele>634.61</ele>
        <time>2020-08-13T09:08:45Z</time>
      </trkpt>
      <trkpt lat="42.0671652909" lon="-7.4312504288">
        <ele>634.13</ele>
        <time>2020-08-13T09:08:46Z</time>
      </trkpt>
      <trkpt lat="42.0671481080" lon="-7.4313125387">
        <ele>634.13</ele>
        <time>2020-08-13T09:08:47Z</time>
      </trkpt>
      <trkpt lat="42.0671407320" lon="-7.4313811865">
        <ele>633.65</ele>
        <time>2020-08-13T09:08:48Z</time>
      </trkpt>
      <trkpt lat="42.0671411511" lon="-7.4314317293">
        <ele>633.65</ele>
        <time>2020-08-13T09:08:49Z</time>
      </trkpt>
      <trkpt lat="42.0671466831" lon="-7.4315044004">
        <ele>633.17</ele>
        <time>2020-08-13T09:08:50Z</time>
      </trkpt>
      <trkpt lat="42.0671667159" lon="-7.4316494074">
        <ele>632.68</ele>
        <time>2020-08-13T09:08:52Z</time>
      </trkpt>
      <trkpt lat="42.0671885088" lon="-7.4317198154">
        <ele>632.20</ele>
        <time>2020-08-13T09:08:53Z</time>
      </trkpt>
      <trkpt lat="42.0672195219" lon="-7.4317880441">
        <ele>632.20</ele>
        <time>2020-08-13T09:08:54Z</time>
      </trkpt>
      <trkpt lat="42.0672543067" lon="-7.4318471365">
        <ele>631.72</ele>
        <time>2020-08-13T09:08:55Z</time>
      </trkpt>
      <trkpt lat="42.0672911871" lon="-7.4319035467">
        <ele>631.72</ele>
        <time>2020-08-13T09:08:56Z</time>
      </trkpt>
      <trkpt lat="42.0673862379" lon="-7.4320287723">
        <ele>631.72</ele>
        <time>2020-08-13T09:08:58Z</time>
      </trkpt>
      <trkpt lat="42.0674199332" lon="-7.4320622999">
        <ele>631.24</ele>
        <time>2020-08-13T09:08:59Z</time>
      </trkpt>
      <trkpt lat="42.0674962923" lon="-7.4321254995">
        <ele>631.72</ele>
        <time>2020-08-13T09:09:01Z</time>
      </trkpt>
      <trkpt lat="42.0677236095" lon="-7.4322557542">
        <ele>631.24</ele>
        <time>2020-08-13T09:09:07Z</time>
      </trkpt>
      <trkpt lat="42.0679626614" lon="-7.4324875977">
        <ele>629.80</ele>
        <time>2020-08-13T09:09:14Z</time>
      </trkpt>
      <trkpt lat="42.0679964405" lon="-7.4325756077">
        <ele>629.80</ele>
        <time>2020-08-13T09:09:16Z</time>
      </trkpt>
      <trkpt lat="42.0679919980" lon="-7.4326709937">
        <ele>629.32</ele>
        <time>2020-08-13T09:09:18Z</time>
      </trkpt>
      <trkpt lat="42.0679572970" lon="-7.4327571597">
        <ele>628.36</ele>
        <time>2020-08-13T09:09:19Z</time>
      </trkpt>
      <trkpt lat="42.0679303072" lon="-7.4328053556">
        <ele>627.88</ele>
        <time>2020-08-13T09:09:20Z</time>
      </trkpt>
      <trkpt lat="42.0678968634" lon="-7.4328615982">
        <ele>627.40</ele>
        <time>2020-08-13T09:09:21Z</time>
      </trkpt>
      <trkpt lat="42.0678578876" lon="-7.4329180084">
        <ele>627.40</ele>
        <time>2020-08-13T09:09:22Z</time>
      </trkpt>
      <trkpt lat="42.0676056761" lon="-7.4332314916">
        <ele>624.99</ele>
        <time>2020-08-13T09:09:28Z</time>
      </trkpt>
      <trkpt lat="42.0674620941" lon="-7.4333759118">
        <ele>624.03</ele>
        <time>2020-08-13T09:09:31Z</time>
      </trkpt>
      <trkpt lat="42.0674180053" lon="-7.4334049132">
        <ele>624.03</ele>
        <time>2020-08-13T09:09:32Z</time>
      </trkpt>
      <trkpt lat="42.0673641097" lon="-7.4334350880">
        <ele>624.03</ele>
        <time>2020-08-13T09:09:33Z</time>
      </trkpt>
      <trkpt lat="42.0670383889" lon="-7.4335709587">
        <ele>623.07</ele>
        <time>2020-08-13T09:09:40Z</time>
      </trkpt>
      <trkpt lat="42.0666021109" lon="-7.4337975215">
        <ele>622.59</ele>
        <time>2020-08-13T09:09:50Z</time>
      </trkpt>
      <trkpt lat="42.0665169507" lon="-7.4338585418">
        <ele>622.11</ele>
        <time>2020-08-13T09:09:52Z</time>
      </trkpt>
      <trkpt lat="42.0664780587" lon="-7.4339063186">
        <ele>621.63</ele>
        <time>2020-08-13T09:09:53Z</time>
      </trkpt>
      <trkpt lat="42.0664641447" lon="-7.4339321349">
        <ele>621.63</ele>
        <time>2020-08-13T09:09:54Z</time>
      </trkpt>
      <trkpt lat="42.0664478838" lon="-7.4339758046">
        <ele>621.15</ele>
        <time>2020-08-13T09:09:55Z</time>
      </trkpt>
      <trkpt lat="42.0664400887" lon="-7.4340225756">
        <ele>620.67</ele>
        <time>2020-08-13T09:09:56Z</time>
      </trkpt>
      <trkpt lat="42.0664400887" lon="-7.4340626411">
        <ele>620.67</ele>
        <time>2020-08-13T09:09:57Z</time>
      </trkpt>
      <trkpt lat="42.0664493088" lon="-7.4341206439">
        <ele>620.19</ele>
        <time>2020-08-13T09:09:58Z</time>
      </trkpt>
      <trkpt lat="42.0664635580" lon="-7.4341638945">
        <ele>619.71</ele>
        <time>2020-08-13T09:09:59Z</time>
      </trkpt>
      <trkpt lat="42.0664832555" lon="-7.4342070613">
        <ele>619.23</ele>
        <time>2020-08-13T09:10:00Z</time>
      </trkpt>
      <trkpt lat="42.0666425116" lon="-7.4345762003">
        <ele>616.82</ele>
        <time>2020-08-13T09:10:06Z</time>
      </trkpt>
      <trkpt lat="42.0667414181" lon="-7.4350263085">
        <ele>612.98</ele>
        <time>2020-08-13T09:10:12Z</time>
      </trkpt>
      <trkpt lat="42.0667529851" lon="-7.4355945177">
        <ele>608.65</ele>
        <time>2020-08-13T09:10:18Z</time>
      </trkpt>
      <trkpt lat="42.0667768735" lon="-7.4360657483">
        <ele>605.29</ele>
        <time>2020-08-13T09:10:23Z</time>
      </trkpt>
      <trkpt lat="42.0668079704" lon="-7.4362073187">
        <ele>604.81</ele>
        <time>2020-08-13T09:10:25Z</time>
      </trkpt>
      <trkpt lat="42.0669182763" lon="-7.4367751088">
        <ele>600.96</ele>
        <time>2020-08-13T09:10:33Z</time>
      </trkpt>
      <trkpt lat="42.0669148397" lon="-7.4368641246">
        <ele>600.00</ele>
        <time>2020-08-13T09:10:34Z</time>
      </trkpt>
      <trkpt lat="42.0669024345" lon="-7.4369461834">
        <ele>599.52</ele>
        <time>2020-08-13T09:10:35Z</time>
      </trkpt>
      <trkpt lat="42.0668819826" lon="-7.4370343611">
        <ele>598.56</ele>
        <time>2020-08-13T09:10:36Z</time>
      </trkpt>
      <trkpt lat="42.0668598544" lon="-7.4371073674">
        <ele>598.08</ele>
        <time>2020-08-13T09:10:37Z</time>
      </trkpt>
      <trkpt lat="42.0668238122" lon="-7.4371955451">
        <ele>597.60</ele>
        <time>2020-08-13T09:10:38Z</time>
      </trkpt>
      <trkpt lat="42.0667777117" lon="-7.4372856505">
        <ele>596.64</ele>
        <time>2020-08-13T09:10:39Z</time>
      </trkpt>
      <trkpt lat="42.0667168591" lon="-7.4373921007">
        <ele>596.15</ele>
        <time>2020-08-13T09:10:40Z</time>
      </trkpt>
      <trkpt lat="42.0666640531" lon="-7.4374751654">
        <ele>595.19</ele>
        <time>2020-08-13T09:10:41Z</time>
      </trkpt>
      <trkpt lat="42.0665995125" lon="-7.4375689588">
        <ele>594.23</ele>
        <time>2020-08-13T09:10:42Z</time>
      </trkpt>
      <trkpt lat="42.0662159566" lon="-7.4380646646">
        <ele>589.43</ele>
        <time>2020-08-13T09:10:48Z</time>
      </trkpt>
      <trkpt lat="42.0659292955" lon="-7.4384540878">
        <ele>586.06</ele>
        <time>2020-08-13T09:10:53Z</time>
      </trkpt>
      <trkpt lat="42.0655581448" lon="-7.4389579240">
        <ele>582.22</ele>
        <time>2020-08-13T09:11:01Z</time>
      </trkpt>
      <trkpt lat="42.0652506966" lon="-7.4393890053">
        <ele>579.33</ele>
        <time>2020-08-13T09:11:07Z</time>
      </trkpt>
      <trkpt lat="42.0648981538" lon="-7.4399173167">
        <ele>575.49</ele>
        <time>2020-08-13T09:11:13Z</time>
      </trkpt>
      <trkpt lat="42.0647472795" lon="-7.4401265290">
        <ele>573.56</ele>
        <time>2020-08-13T09:11:16Z</time>
      </trkpt>
      <trkpt lat="42.0646993350" lon="-7.4401864596">
        <ele>573.08</ele>
        <time>2020-08-13T09:11:17Z</time>
      </trkpt>
      <trkpt lat="42.0646551624" lon="-7.4402493238">
        <ele>572.60</ele>
        <time>2020-08-13T09:11:18Z</time>
      </trkpt>
      <trkpt lat="42.0645857602" lon="-7.4403593782">
        <ele>572.12</ele>
        <time>2020-08-13T09:11:20Z</time>
      </trkpt>
      <trkpt lat="42.0645118318" lon="-7.4405260943">
        <ele>571.16</ele>
        <time>2020-08-13T09:11:22Z</time>
      </trkpt>
      <trkpt lat="42.0643668249" lon="-7.4410288408">
        <ele>569.24</ele>
        <time>2020-08-13T09:11:28Z</time>
      </trkpt>
      <trkpt lat="42.0642561838" lon="-7.4417020753">
        <ele>565.39</ele>
        <time>2020-08-13T09:11:35Z</time>
      </trkpt>
      <trkpt lat="42.0642467123" lon="-7.4418123811">
        <ele>564.91</ele>
        <time>2020-08-13T09:11:36Z</time>
      </trkpt>
      <trkpt lat="42.0642086584" lon="-7.4422133714">
        <ele>562.51</ele>
        <time>2020-08-13T09:11:42Z</time>
      </trkpt>
      <trkpt lat="42.0641675033" lon="-7.4427322112">
        <ele>559.62</ele>
        <time>2020-08-13T09:11:48Z</time>
      </trkpt>
      <trkpt lat="42.0641390048" lon="-7.4429143500">
        <ele>558.18</ele>
        <time>2020-08-13T09:11:50Z</time>
      </trkpt>
      <trkpt lat="42.0641125180" lon="-7.4430094846">
        <ele>557.70</ele>
        <time>2020-08-13T09:11:51Z</time>
      </trkpt>
      <trkpt lat="42.0640861988" lon="-7.4430819042">
        <ele>557.22</ele>
        <time>2020-08-13T09:11:52Z</time>
      </trkpt>
      <trkpt lat="42.0640522521" lon="-7.4431585148">
        <ele>556.74</ele>
        <time>2020-08-13T09:11:53Z</time>
      </trkpt>
      <trkpt lat="42.0640183054" lon="-7.4432370532">
        <ele>556.26</ele>
        <time>2020-08-13T09:11:54Z</time>
      </trkpt>
      <trkpt lat="42.0639912318" lon="-7.4433139991">
        <ele>555.78</ele>
        <time>2020-08-13T09:11:55Z</time>
      </trkpt>
      <trkpt lat="42.0639722887" lon="-7.4433973990">
        <ele>555.30</ele>
        <time>2020-08-13T09:11:56Z</time>
      </trkpt>
      <trkpt lat="42.0639671758" lon="-7.4434849899">
        <ele>554.82</ele>
        <time>2020-08-13T09:11:57Z</time>
      </trkpt>
      <trkpt lat="42.0639817603" lon="-7.4435961340">
        <ele>554.34</ele>
        <time>2020-08-13T09:11:58Z</time>
      </trkpt>
      <trkpt lat="42.0640162937" lon="-7.4437237065">
        <ele>553.86</ele>
        <time>2020-08-13T09:12:00Z</time>
      </trkpt>
      <trkpt lat="42.0641911402" lon="-7.4442429654">
        <ele>549.53</ele>
        <time>2020-08-13T09:12:06Z</time>
      </trkpt>
      <trkpt lat="42.0642229915" lon="-7.4443990365">
        <ele>547.61</ele>
        <time>2020-08-13T09:12:09Z</time>
      </trkpt>
      <trkpt lat="42.0642170403" lon="-7.4444963504">
        <ele>546.17</ele>
        <time>2020-08-13T09:12:10Z</time>
      </trkpt>
      <trkpt lat="42.0642073173" lon="-7.4445427861">
        <ele>545.69</ele>
        <time>2020-08-13T09:12:11Z</time>
      </trkpt>
      <trkpt lat="42.0641897991" lon="-7.4445895571">
        <ele>544.72</ele>
        <time>2020-08-13T09:12:12Z</time>
      </trkpt>
      <trkpt lat="42.0641678385" lon="-7.4446405191">
        <ele>544.24</ele>
        <time>2020-08-13T09:12:13Z</time>
      </trkpt>
      <trkpt lat="42.0641479734" lon="-7.4446762260">
        <ele>543.76</ele>
        <time>2020-08-13T09:12:14Z</time>
      </trkpt>
      <trkpt lat="42.0641141944" lon="-7.4447212368">
        <ele>542.80</ele>
        <time>2020-08-13T09:12:15Z</time>
      </trkpt>
      <trkpt lat="42.0638718735" lon="-7.4450019468">
        <ele>539.44</ele>
        <time>2020-08-13T09:12:20Z</time>
      </trkpt>
      <trkpt lat="42.0634527784" lon="-7.4455373827">
        <ele>534.15</ele>
        <time>2020-08-13T09:12:27Z</time>
      </trkpt>
      <trkpt lat="42.0631490182" lon="-7.4459906761">
        <ele>529.82</ele>
        <time>2020-08-13T09:12:32Z</time>
      </trkpt>
      <trkpt lat="42.0627554879" lon="-7.4465309735">
        <ele>524.54</ele>
        <time>2020-08-13T09:12:39Z</time>
      </trkpt>
      <trkpt lat="42.0622674935" lon="-7.4470374919">
        <ele>518.77</ele>
        <time>2020-08-13T09:12:45Z</time>
      </trkpt>
      <trkpt lat="42.0619126037" lon="-7.4474964850">
        <ele>514.44</ele>
        <time>2020-08-13T09:12:50Z</time>
      </trkpt>
      <trkpt lat="42.0618040580" lon="-7.4476366304">
        <ele>512.04</ele>
        <time>2020-08-13T09:12:53Z</time>
      </trkpt>
      <trkpt lat="42.0617893897" lon="-7.4476520531">
        <ele>510.60</ele>
        <time>2020-08-13T09:12:58Z</time>
      </trkpt>
      <trkpt lat="42.0617937483" lon="-7.4476562440">
        <ele>510.60</ele>
        <time>2020-08-13T09:13:14Z</time>
      </trkpt>
      <trkpt lat="42.0617856178" lon="-7.4476614408">
        <ele>512.04</ele>
        <time>2020-08-13T09:13:27Z</time>
      </trkpt>
      <trkpt lat="42.0617745537" lon="-7.4476690684">
        <ele>512.04</ele>
        <time>2020-08-13T09:13:37Z</time>
      </trkpt>
      <trkpt lat="42.0617372543" lon="-7.4476936273">
        <ele>511.56</ele>
        <time>2020-08-13T09:13:48Z</time>
      </trkpt>
      <trkpt lat="42.0616891421" lon="-7.4477062840">
        <ele>511.08</ele>
        <time>2020-08-13T09:13:56Z</time>
      </trkpt>
      <trkpt lat="42.0616663434" lon="-7.4477074575">
        <ele>511.56</ele>
        <time>2020-08-13T09:14:03Z</time>
      </trkpt>
      <trkpt lat="42.0616644155" lon="-7.4477203656">
        <ele>511.56</ele>
        <time>2020-08-13T09:14:04Z</time>
      </trkpt>
      <trkpt lat="42.0616807602" lon="-7.4477434997">
        <ele>511.08</ele>
        <time>2020-08-13T09:14:09Z</time>
      </trkpt>
      <trkpt lat="42.0616879687" lon="-7.4477492832">
        <ele>511.08</ele>
        <time>2020-08-13T09:14:10Z</time>
      </trkpt>
      <trkpt lat="42.0617897250" lon="-7.4478100520">
        <ele>509.16</ele>
        <time>2020-08-13T09:14:15Z</time>
      </trkpt>
      <trkpt lat="42.0618914813" lon="-7.4477346148">
        <ele>508.19</ele>
        <time>2020-08-13T09:14:19Z</time>
      </trkpt>
      <trkpt lat="42.0620301180" lon="-7.4476222135">
        <ele>506.27</ele>
        <time>2020-08-13T09:14:25Z</time>
      </trkpt>
      <trkpt lat="42.0621780585" lon="-7.4475600198">
        <ele>505.79</ele>
        <time>2020-08-13T09:14:34Z</time>
      </trkpt>
      <trkpt lat="42.0622881129" lon="-7.4475088064">
        <ele>504.83</ele>
        <time>2020-08-13T09:14:40Z</time>
      </trkpt>
      <trkpt lat="42.0623826608" lon="-7.4474777095">
        <ele>504.83</ele>
        <time>2020-08-13T09:14:46Z</time>
      </trkpt>
      <trkpt lat="42.0623959880" lon="-7.4474864267">
        <ele>503.87</ele>
        <time>2020-08-13T09:14:55Z</time>
      </trkpt>
      <trkpt lat="42.0623962395" lon="-7.4474827386">
        <ele>504.83</ele>
        <time>2020-08-13T09:15:05Z</time>
      </trkpt>
      <trkpt lat="42.0624570921" lon="-7.4474808108">
        <ele>504.83</ele>
        <time>2020-08-13T09:15:16Z</time>
      </trkpt>
      <trkpt lat="42.0624850877" lon="-7.4474811461">
        <ele>504.83</ele>
        <time>2020-08-13T09:15:17Z</time>
      </trkpt>
      <trkpt lat="42.0626459364" lon="-7.4474593531">
        <ele>503.39</ele>
        <time>2020-08-13T09:15:22Z</time>
      </trkpt>
      <trkpt lat="42.0626763627" lon="-7.4474555813">
        <ele>503.39</ele>
        <time>2020-08-13T09:15:24Z</time>
      </trkpt>
      <trkpt lat="42.0627743471" lon="-7.4474659748">
        <ele>503.39</ele>
        <time>2020-08-13T09:15:28Z</time>
      </trkpt>
      <trkpt lat="42.0630460046" lon="-7.4473669007">
        <ele>500.50</ele>
        <time>2020-08-13T09:15:35Z</time>
      </trkpt>
      <trkpt lat="42.0631252974" lon="-7.4472765438">
        <ele>499.54</ele>
        <time>2020-08-13T09:15:40Z</time>
      </trkpt>
      <trkpt lat="42.0631509461" lon="-7.4472563434">
        <ele>499.54</ele>
        <time>2020-08-13T09:15:49Z</time>
      </trkpt>
      <trkpt lat="42.0631870721" lon="-7.4472187925">
        <ele>499.06</ele>
        <time>2020-08-13T09:15:56Z</time>
      </trkpt>
      <trkpt lat="42.0632325858" lon="-7.4471897073">
        <ele>497.62</ele>
        <time>2020-08-13T09:16:05Z</time>
      </trkpt>
      <trkpt lat="42.0632706396" lon="-7.4471633043">
        <ele>497.14</ele>
        <time>2020-08-13T09:16:11Z</time>
      </trkpt>
      <trkpt lat="42.0633194223" lon="-7.4471985921">
        <ele>496.18</ele>
        <time>2020-08-13T09:16:17Z</time>
      </trkpt>
      <trkpt lat="42.0633100346" lon="-7.4472399987">
        <ele>495.70</ele>
        <time>2020-08-13T09:16:25Z</time>
      </trkpt>
      <trkpt lat="42.0633102022" lon="-7.4472156074">
        <ele>496.18</ele>
        <time>2020-08-13T09:16:40Z</time>
      </trkpt>
      <trkpt lat="42.0632653590" lon="-7.4472358916">
        <ele>495.70</ele>
        <time>2020-08-13T09:16:57Z</time>
      </trkpt>
      <trkpt lat="42.0633069333" lon="-7.4472125061">
        <ele>496.66</ele>
        <time>2020-08-13T09:17:21Z</time>
      </trkpt>
      <trkpt lat="42.0633085258" lon="-7.4472167809">
        <ele>494.74</ele>
        <time>2020-08-13T09:17:32Z</time>
      </trkpt>
      <trkpt lat="42.0633041672" lon="-7.4472208042">
        <ele>494.26</ele>
        <time>2020-08-13T09:17:34Z</time>
      </trkpt>
      <trkpt lat="42.0632267185" lon="-7.4473002646">
        <ele>494.26</ele>
        <time>2020-08-13T09:17:40Z</time>
      </trkpt>
      <trkpt lat="42.0632159058" lon="-7.4473280087">
        <ele>493.77</ele>
        <time>2020-08-13T09:17:41Z</time>
      </trkpt>
      <trkpt lat="42.0631457493" lon="-7.4475103151">
        <ele>491.37</ele>
        <time>2020-08-13T09:17:47Z</time>
      </trkpt>
      <trkpt lat="42.0630582422" lon="-7.4476653803">
        <ele>487.53</ele>
        <time>2020-08-13T09:17:53Z</time>
      </trkpt>
      <trkpt lat="42.0629342739" lon="-7.4478150811">
        <ele>485.12</ele>
        <time>2020-08-13T09:17:59Z</time>
      </trkpt>
      <trkpt lat="42.0628850721" lon="-7.4479612615">
        <ele>483.20</ele>
        <time>2020-08-13T09:18:04Z</time>
      </trkpt>
      <trkpt lat="42.0629535522" lon="-7.4481428973">
        <ele>480.80</ele>
        <time>2020-08-13T09:18:11Z</time>
      </trkpt>
      <trkpt lat="42.0631040074" lon="-7.4485304765">
        <ele>477.43</ele>
        <time>2020-08-13T09:18:20Z</time>
      </trkpt>
      <trkpt lat="42.0632368606" lon="-7.4489125237">
        <ele>475.99</ele>
        <time>2020-08-13T09:18:28Z</time>
      </trkpt>
      <trkpt lat="42.0632258803" lon="-7.4491161201">
        <ele>475.51</ele>
        <time>2020-08-13T09:18:34Z</time>
      </trkpt>
      <trkpt lat="42.0632212702" lon="-7.4491276871">
        <ele>475.03</ele>
        <time>2020-08-13T09:18:40Z</time>
      </trkpt>
      <trkpt lat="42.0632363576" lon="-7.4491385836">
        <ele>475.51</ele>
        <time>2020-08-13T09:18:47Z</time>
      </trkpt>
      <trkpt lat="42.0632303227" lon="-7.4491572753">
        <ele>475.51</ele>
        <time>2020-08-13T09:19:00Z</time>
      </trkpt>
      <trkpt lat="42.0632262155" lon="-7.4491578620">
        <ele>476.47</ele>
        <time>2020-08-13T09:19:07Z</time>
      </trkpt>
      <trkpt lat="42.0632351842" lon="-7.4491175450">
        <ele>477.91</ele>
        <time>2020-08-13T09:19:21Z</time>
      </trkpt>
      <trkpt lat="42.0632415544" lon="-7.4491225742">
        <ele>476.95</ele>
        <time>2020-08-13T09:19:35Z</time>
      </trkpt>
      <trkpt lat="42.0632073563" lon="-7.4491622206">
        <ele>476.47</ele>
        <time>2020-08-13T09:19:50Z</time>
      </trkpt>
      <trkpt lat="42.0631895028" lon="-7.4491934851">
        <ele>477.43</ele>
        <time>2020-08-13T09:20:08Z</time>
      </trkpt>
      <trkpt lat="42.0632035006" lon="-7.4491913896">
        <ele>476.47</ele>
        <time>2020-08-13T09:20:26Z</time>
      </trkpt>
      <trkpt lat="42.0632224437" lon="-7.4491317105">
        <ele>472.63</ele>
        <time>2020-08-13T09:20:44Z</time>
      </trkpt>
      <trkpt lat="42.0632303227" lon="-7.4491532519">
        <ele>473.59</ele>
        <time>2020-08-13T09:20:53Z</time>
      </trkpt>
      <trkpt lat="42.0632257126" lon="-7.4493389949">
        <ele>474.55</ele>
        <time>2020-08-13T09:21:00Z</time>
      </trkpt>
      <trkpt lat="42.0632669516" lon="-7.4496621173">
        <ele>474.07</ele>
        <time>2020-08-13T09:21:08Z</time>
      </trkpt>
      <trkpt lat="42.0634402893" lon="-7.4499103893">
        <ele>473.59</ele>
        <time>2020-08-13T09:21:16Z</time>
      </trkpt>
      <trkpt lat="42.0636001322" lon="-7.4501130637">
        <ele>474.07</ele>
        <time>2020-08-13T09:21:24Z</time>
      </trkpt>
      <trkpt lat="42.0636390243" lon="-7.4501747545">
        <ele>474.07</ele>
        <time>2020-08-13T09:21:27Z</time>
      </trkpt>
      <trkpt lat="42.0636431314" lon="-7.4502132274">
        <ele>474.07</ele>
        <time>2020-08-13T09:21:28Z</time>
      </trkpt>
      <trkpt lat="42.0636415388" lon="-7.4502532929">
        <ele>474.07</ele>
        <time>2020-08-13T09:21:29Z</time>
      </trkpt>
      <trkpt lat="42.0636370964" lon="-7.4502857309">
        <ele>474.07</ele>
        <time>2020-08-13T09:21:30Z</time>
      </trkpt>
      <trkpt lat="42.0636274572" lon="-7.4503264669">
        <ele>474.07</ele>
        <time>2020-08-13T09:21:31Z</time>
      </trkpt>
      <trkpt lat="42.0636135433" lon="-7.4503671192">
        <ele>474.07</ele>
        <time>2020-08-13T09:21:32Z</time>
      </trkpt>
      <trkpt lat="42.0635966118" lon="-7.4504123814">
        <ele>474.07</ele>
        <time>2020-08-13T09:21:33Z</time>
      </trkpt>
      <trkpt lat="42.0634345897" lon="-7.4508866295">
        <ele>474.07</ele>
        <time>2020-08-13T09:21:43Z</time>
      </trkpt>
      <trkpt lat="42.0632846374" lon="-7.4513083231">
        <ele>474.07</ele>
        <time>2020-08-13T09:21:52Z</time>
      </trkpt>
      <trkpt lat="42.0631184243" lon="-7.4517320283">
        <ele>474.55</ele>
        <time>2020-08-13T09:22:01Z</time>
      </trkpt>
      <trkpt lat="42.0629406441" lon="-7.4522332661">
        <ele>474.07</ele>
        <time>2020-08-13T09:22:11Z</time>
      </trkpt>
      <trkpt lat="42.0627666358" lon="-7.4527241942">
        <ele>473.11</ele>
        <time>2020-08-13T09:22:21Z</time>
      </trkpt>
      <trkpt lat="42.0626213774" lon="-7.4531170540">
        <ele>473.59</ele>
        <time>2020-08-13T09:22:30Z</time>
      </trkpt>
      <trkpt lat="42.0624738559" lon="-7.4535085727">
        <ele>473.11</ele>
        <time>2020-08-13T09:22:38Z</time>
      </trkpt>
      <trkpt lat="42.0623089839" lon="-7.4539373070">
        <ele>473.11</ele>
        <time>2020-08-13T09:22:46Z</time>
      </trkpt>
      <trkpt lat="42.0621176250" lon="-7.4544703122">
        <ele>473.11</ele>
        <time>2020-08-13T09:22:56Z</time>
      </trkpt>
      <trkpt lat="42.0618817583" lon="-7.4551004637">
        <ele>472.63</ele>
        <time>2020-08-13T09:23:08Z</time>
      </trkpt>
      <trkpt lat="42.0616718754" lon="-7.4556443654">
        <ele>472.14</ele>
        <time>2020-08-13T09:23:19Z</time>
      </trkpt>
      <trkpt lat="42.0613336656" lon="-7.4565836415">
        <ele>471.18</ele>
        <time>2020-08-13T09:23:39Z</time>
      </trkpt>
      <trkpt lat="42.0611578971" lon="-7.4569333345">
        <ele>470.70</ele>
        <time>2020-08-13T09:23:48Z</time>
      </trkpt>
      <trkpt lat="42.0611190889" lon="-7.4570133816">
        <ele>470.70</ele>
        <time>2020-08-13T09:23:53Z</time>
      </trkpt>
      <trkpt lat="42.0611109585" lon="-7.4570138007">
        <ele>470.70</ele>
        <time>2020-08-13T09:24:03Z</time>
      </trkpt>
      <trkpt lat="42.0611187536" lon="-7.4570213445">
        <ele>471.18</ele>
        <time>2020-08-13T09:24:13Z</time>
      </trkpt>
      <trkpt lat="42.0610956196" lon="-7.4570234399">
        <ele>472.63</ele>
        <time>2020-08-13T09:24:29Z</time>
      </trkpt>
      <trkpt lat="42.0611217711" lon="-7.4570252001">
        <ele>473.11</ele>
        <time>2020-08-13T09:24:40Z</time>
      </trkpt>
      <trkpt lat="42.0611184184" lon="-7.4570127111">
        <ele>475.03</ele>
        <time>2020-08-13T09:24:52Z</time>
      </trkpt>
      <trkpt lat="42.0611240342" lon="-7.4570149742">
        <ele>475.03</ele>
        <time>2020-08-13T09:25:03Z</time>
      </trkpt>
      <trkpt lat="42.0611433964" lon="-7.4570025690">
        <ele>476.47</ele>
        <time>2020-08-13T09:25:18Z</time>
      </trkpt>
      <trkpt lat="42.0611362718" lon="-7.4569984619">
        <ele>475.99</ele>
        <time>2020-08-13T09:25:32Z</time>
      </trkpt>
      <trkpt lat="42.0611110423" lon="-7.4570118729">
        <ele>474.55</ele>
        <time>2020-08-13T09:25:42Z</time>
      </trkpt>
      <trkpt lat="42.0610938594" lon="-7.4570205901">
        <ele>474.55</ele>
        <time>2020-08-13T09:25:43Z</time>
      </trkpt>
      <trkpt lat="42.0610709768" lon="-7.4570314866">
        <ele>474.55</ele>
        <time>2020-08-13T09:25:44Z</time>
      </trkpt>
      <trkpt lat="42.0610516146" lon="-7.4570446461">
        <ele>474.55</ele>
        <time>2020-08-13T09:25:45Z</time>
      </trkpt>
      <trkpt lat="42.0610294025" lon="-7.4570644274">
        <ele>474.55</ele>
        <time>2020-08-13T09:25:46Z</time>
      </trkpt>
      <trkpt lat="42.0610046759" lon="-7.4570879806">
        <ele>474.55</ele>
        <time>2020-08-13T09:25:47Z</time>
      </trkpt>
      <trkpt lat="42.0607655402" lon="-7.4573147949">
        <ele>473.59</ele>
        <time>2020-08-13T09:25:56Z</time>
      </trkpt>
      <trkpt lat="42.0605019294" lon="-7.4575541820">
        <ele>473.11</ele>
        <time>2020-08-13T09:26:05Z</time>
      </trkpt>
      <trkpt lat="42.0602197107" lon="-7.4578259233">
        <ele>473.11</ele>
        <time>2020-08-13T09:26:14Z</time>
      </trkpt>
      <trkpt lat="42.0599922258" lon="-7.4580434337">
        <ele>471.66</ele>
        <time>2020-08-13T09:26:21Z</time>
      </trkpt>
      <trkpt lat="42.0597273577" lon="-7.4582909513">
        <ele>471.18</ele>
        <time>2020-08-13T09:26:29Z</time>
      </trkpt>
      <trkpt lat="42.0594608970" lon="-7.4585275725">
        <ele>471.18</ele>
        <time>2020-08-13T09:26:37Z</time>
      </trkpt>
      <trkpt lat="42.0591573045" lon="-7.4588195141">
        <ele>469.26</ele>
        <time>2020-08-13T09:26:46Z</time>
      </trkpt>
      <trkpt lat="42.0588682126" lon="-7.4590988830">
        <ele>468.30</ele>
        <time>2020-08-13T09:26:54Z</time>
      </trkpt>
      <trkpt lat="42.0585722476" lon="-7.4593730550">
        <ele>467.34</ele>
        <time>2020-08-13T09:27:02Z</time>
      </trkpt>
      <trkpt lat="42.0585012529" lon="-7.4594360869">
        <ele>467.34</ele>
        <time>2020-08-13T09:27:04Z</time>
      </trkpt>
      <trkpt lat="42.0584658813" lon="-7.4594649207">
        <ele>467.34</ele>
        <time>2020-08-13T09:27:05Z</time>
      </trkpt>
      <trkpt lat="42.0584318507" lon="-7.4594993703">
        <ele>467.34</ele>
        <time>2020-08-13T09:27:06Z</time>
      </trkpt>
      <trkpt lat="42.0582360495" lon="-7.4597459659">
        <ele>467.34</ele>
        <time>2020-08-13T09:27:13Z</time>
      </trkpt>
      <trkpt lat="42.0582217164" lon="-7.4598183017">
        <ele>466.86</ele>
        <time>2020-08-13T09:27:15Z</time>
      </trkpt>
      <trkpt lat="42.0582269970" lon="-7.4598507397">
        <ele>466.86</ele>
        <time>2020-08-13T09:27:16Z</time>
      </trkpt>
      <trkpt lat="42.0582352951" lon="-7.4598811660">
        <ele>466.86</ele>
        <time>2020-08-13T09:27:17Z</time>
      </trkpt>
      <trkpt lat="42.0582465269" lon="-7.4599057250">
        <ele>466.86</ele>
        <time>2020-08-13T09:27:18Z</time>
      </trkpt>
      <trkpt lat="42.0582614467" lon="-7.4599208124">
        <ele>466.86</ele>
        <time>2020-08-13T09:27:19Z</time>
      </trkpt>
      <trkpt lat="42.0582768694" lon="-7.4599275179">
        <ele>466.86</ele>
        <time>2020-08-13T09:27:20Z</time>
      </trkpt>
      <trkpt lat="42.0582956448" lon="-7.4599281885">
        <ele>466.86</ele>
        <time>2020-08-13T09:27:21Z</time>
      </trkpt>
      <trkpt lat="42.0583157614" lon="-7.4599274341">
        <ele>466.86</ele>
        <time>2020-08-13T09:27:22Z</time>
      </trkpt>
      <trkpt lat="42.0583346207" lon="-7.4599269312">
        <ele>466.86</ele>
        <time>2020-08-13T09:27:23Z</time>
      </trkpt>
      <trkpt lat="42.0583527256" lon="-7.4599258415">
        <ele>466.38</ele>
        <time>2020-08-13T09:27:24Z</time>
      </trkpt>
      <trkpt lat="42.0584943797" lon="-7.4599448685">
        <ele>466.38</ele>
        <time>2020-08-13T09:27:31Z</time>
      </trkpt>
      <trkpt lat="42.0585945435" lon="-7.4599474669">
        <ele>467.34</ele>
        <time>2020-08-13T09:27:39Z</time>
      </trkpt>
      <trkpt lat="42.0585968066" lon="-7.4599777255">
        <ele>470.22</ele>
        <time>2020-08-13T09:27:58Z</time>
      </trkpt>
      <trkpt lat="42.0585931186" lon="-7.4599856883">
        <ele>470.70</ele>
        <time>2020-08-13T09:28:07Z</time>
      </trkpt>
      <trkpt lat="42.0586688071" lon="-7.4599751271">
        <ele>472.14</ele>
        <time>2020-08-13T09:28:15Z</time>
      </trkpt>
      <trkpt lat="42.0587747544" lon="-7.4600015301">
        <ele>475.99</ele>
        <time>2020-08-13T09:28:20Z</time>
      </trkpt>
      <trkpt lat="42.0590022393" lon="-7.4600313697">
        <ele>478.39</ele>
        <time>2020-08-13T09:28:29Z</time>
      </trkpt>
      <trkpt lat="42.0592656825" lon="-7.4600614607">
        <ele>481.28</ele>
        <time>2020-08-13T09:28:38Z</time>
      </trkpt>
      <trkpt lat="42.0594972745" lon="-7.4601498898">
        <ele>481.28</ele>
        <time>2020-08-13T09:28:46Z</time>
      </trkpt>
      <trkpt lat="42.0596725401" lon="-7.4602689967">
        <ele>482.24</ele>
        <time>2020-08-13T09:28:53Z</time>
      </trkpt>
      <trkpt lat="42.0598428603" lon="-7.4604491238">
        <ele>482.24</ele>
        <time>2020-08-13T09:29:03Z</time>
      </trkpt>
      <trkpt lat="42.0599860232" lon="-7.4606026802">
        <ele>484.16</ele>
        <time>2020-08-13T09:29:11Z</time>
      </trkpt>
      <trkpt lat="42.0601116680" lon="-7.4607351981">
        <ele>483.68</ele>
        <time>2020-08-13T09:29:19Z</time>
      </trkpt>
      <trkpt lat="42.0601785555" lon="-7.4608169217">
        <ele>482.24</ele>
        <time>2020-08-13T09:29:26Z</time>
      </trkpt>
      <trkpt lat="42.0601715986" lon="-7.4608393013">
        <ele>481.76</ele>
        <time>2020-08-13T09:29:33Z</time>
      </trkpt>
      <trkpt lat="42.0601954032" lon="-7.4608176760">
        <ele>481.28</ele>
        <time>2020-08-13T09:29:46Z</time>
      </trkpt>
      <trkpt lat="42.0602037013" lon="-7.4607972242">
        <ele>481.28</ele>
        <time>2020-08-13T09:30:00Z</time>
      </trkpt>
      <trkpt lat="42.0602076408" lon="-7.4607918598">
        <ele>481.28</ele>
        <time>2020-08-13T09:30:08Z</time>
      </trkpt>
      <trkpt lat="42.0602170285" lon="-7.4607874174">
        <ele>480.32</ele>
        <time>2020-08-13T09:30:19Z</time>
      </trkpt>
      <trkpt lat="42.0602142625" lon="-7.4607888423">
        <ele>481.28</ele>
        <time>2020-08-13T09:30:28Z</time>
      </trkpt>
      <trkpt lat="42.0602173638" lon="-7.4607915245">
        <ele>480.80</ele>
        <time>2020-08-13T09:30:41Z</time>
      </trkpt>
      <trkpt lat="42.0602261648" lon="-7.4607917760">
        <ele>480.32</ele>
        <time>2020-08-13T09:30:49Z</time>
      </trkpt>
      <trkpt lat="42.0602243207" lon="-7.4607944582">
        <ele>480.32</ele>
        <time>2020-08-13T09:30:57Z</time>
      </trkpt>
      <trkpt lat="42.0602272544" lon="-7.4607952964">
        <ele>480.32</ele>
        <time>2020-08-13T09:31:08Z</time>
      </trkpt>
      <trkpt lat="42.0602150168" lon="-7.4608039297">
        <ele>480.80</ele>
        <time>2020-08-13T09:31:16Z</time>
      </trkpt>
      <trkpt lat="42.0602086466" lon="-7.4608040135">
        <ele>481.76</ele>
        <time>2020-08-13T09:31:22Z</time>
      </trkpt>
      <trkpt lat="42.0602148492" lon="-7.4607909378">
        <ele>481.76</ele>
        <time>2020-08-13T09:31:28Z</time>
      </trkpt>
      <trkpt lat="42.0602013543" lon="-7.4607988168">
        <ele>482.24</ele>
        <time>2020-08-13T09:31:41Z</time>
      </trkpt>
      <trkpt lat="42.0601912960" lon="-7.4608092941">
        <ele>482.24</ele>
        <time>2020-08-13T09:31:54Z</time>
      </trkpt>
      <trkpt lat="42.0601813216" lon="-7.4608075339">
        <ele>482.72</ele>
        <time>2020-08-13T09:32:07Z</time>
      </trkpt>
      <trkpt lat="42.0601935592" lon="-7.4607893452">
        <ele>483.20</ele>
        <time>2020-08-13T09:32:15Z</time>
      </trkpt>
      <trkpt lat="42.0602171123" lon="-7.4607712403">
        <ele>484.16</ele>
        <time>2020-08-13T09:32:30Z</time>
      </trkpt>
      <trkpt lat="42.0602161903" lon="-7.4607598409">
        <ele>484.16</ele>
        <time>2020-08-13T09:32:40Z</time>
      </trkpt>
      <trkpt lat="42.0602239016" lon="-7.4607515428">
        <ele>483.20</ele>
        <time>2020-08-13T09:32:45Z</time>
      </trkpt>
      <trkpt lat="42.0602260809" lon="-7.4607403949">
        <ele>481.76</ele>
        <time>2020-08-13T09:32:55Z</time>
      </trkpt>
      <trkpt lat="42.0602197945" lon="-7.4607411493">
        <ele>482.24</ele>
        <time>2020-08-13T09:33:02Z</time>
      </trkpt>
      <trkpt lat="42.0602434315" lon="-7.4607423227">
        <ele>481.76</ele>
        <time>2020-08-13T09:33:17Z</time>
      </trkpt>
      <trkpt lat="42.0602298528" lon="-7.4607600085">
        <ele>483.68</ele>
        <time>2020-08-13T09:33:30Z</time>
      </trkpt>
      <trkpt lat="42.0602149330" lon="-7.4607714079">
        <ele>486.08</ele>
        <time>2020-08-13T09:33:39Z</time>
      </trkpt>
      <trkpt lat="42.0602159388" lon="-7.4607771076">
        <ele>486.08</ele>
        <time>2020-08-13T09:33:46Z</time>
      </trkpt>
      <trkpt lat="42.0602010190" lon="-7.4607906863">
        <ele>486.56</ele>
        <time>2020-08-13T09:33:53Z</time>
      </trkpt>
      <trkpt lat="42.0602030307" lon="-7.4607893452">
        <ele>486.08</ele>
        <time>2020-08-13T09:34:01Z</time>
      </trkpt>
      <trkpt lat="42.0602053776" lon="-7.4607899319">
        <ele>484.64</ele>
        <time>2020-08-13T09:34:07Z</time>
      </trkpt>
      <trkpt lat="42.0602140948" lon="-7.4607943743">
        <ele>483.20</ele>
        <time>2020-08-13T09:34:13Z</time>
      </trkpt>
      <trkpt lat="42.0602094848" lon="-7.4608056061">
        <ele>482.24</ele>
        <time>2020-08-13T09:34:23Z</time>
      </trkpt>
      <trkpt lat="42.0601882786" lon="-7.4608104676">
        <ele>483.68</ele>
        <time>2020-08-13T09:34:30Z</time>
      </trkpt>
      <trkpt lat="42.0601653960" lon="-7.4608180951">
        <ele>485.60</ele>
        <time>2020-08-13T09:34:36Z</time>
      </trkpt>
      <trkpt lat="42.0601529069" lon="-7.4608141556">
        <ele>487.53</ele>
        <time>2020-08-13T09:34:43Z</time>
      </trkpt>
      <trkpt lat="42.0601586066" lon="-7.4608045164">
        <ele>488.49</ele>
        <time>2020-08-13T09:34:49Z</time>
      </trkpt>
      <trkpt lat="42.0601517335" lon="-7.4607963860">
        <ele>488.97</ele>
        <time>2020-08-13T09:34:59Z</time>
      </trkpt>
      <trkpt lat="42.0601577684" lon="-7.4607833102">
        <ele>489.93</ele>
        <time>2020-08-13T09:35:06Z</time>
      </trkpt>
      <trkpt lat="42.0601533260" lon="-7.4607868306">
        <ele>490.41</ele>
        <time>2020-08-13T09:35:13Z</time>
      </trkpt>
      <trkpt lat="42.0601624623" lon="-7.4607775267">
        <ele>490.41</ele>
        <time>2020-08-13T09:35:18Z</time>
      </trkpt>
      <trkpt lat="42.0601617917" lon="-7.4607850704">
        <ele>489.45</ele>
        <time>2020-08-13T09:35:30Z</time>
      </trkpt>
      <trkpt lat="42.0601664856" lon="-7.4607884232">
        <ele>489.45</ele>
        <time>2020-08-13T09:35:43Z</time>
      </trkpt>
      <trkpt lat="42.0601602830" lon="-7.4607963022">
        <ele>488.49</ele>
        <time>2020-08-13T09:35:52Z</time>
      </trkpt>
      <trkpt lat="42.0601690840" lon="-7.4607929494">
        <ele>488.01</ele>
        <time>2020-08-13T09:36:08Z</time>
      </trkpt>
      <trkpt lat="42.0601695031" lon="-7.4607988168">
        <ele>487.05</ele>
        <time>2020-08-13T09:36:21Z</time>
      </trkpt>
      <trkpt lat="42.0601746161" lon="-7.4607881717">
        <ele>485.60</ele>
        <time>2020-08-13T09:36:33Z</time>
      </trkpt>
      <trkpt lat="42.0601841714" lon="-7.4607894290">
        <ele>484.16</ele>
        <time>2020-08-13T09:36:44Z</time>
      </trkpt>
      <trkpt lat="42.0601948164" lon="-7.4607795384">
        <ele>482.24</ele>
        <time>2020-08-13T09:37:01Z</time>
      </trkpt>
      <trkpt lat="42.0601917151" lon="-7.4607806280">
        <ele>482.24</ele>
        <time>2020-08-13T09:37:13Z</time>
      </trkpt>
      <trkpt lat="42.0601845067" lon="-7.4607957993">
        <ele>482.72</ele>
        <time>2020-08-13T09:37:23Z</time>
      </trkpt>
      <trkpt lat="42.0601730235" lon="-7.4608091265">
        <ele>482.24</ele>
        <time>2020-08-13T09:37:40Z</time>
      </trkpt>
      <trkpt lat="42.0601731073" lon="-7.4608122278">
        <ele>481.76</ele>
        <time>2020-08-13T09:37:50Z</time>
      </trkpt>
      <trkpt lat="42.0601883624" lon="-7.4608082883">
        <ele>480.80</ele>
        <time>2020-08-13T09:37:56Z</time>
      </trkpt>
      <trkpt lat="42.0601818245" lon="-7.4608146586">
        <ele>480.80</ele>
        <time>2020-08-13T09:38:06Z</time>
      </trkpt>
      <trkpt lat="42.0601852611" lon="-7.4608115572">
        <ele>480.32</ele>
        <time>2020-08-13T09:38:16Z</time>
      </trkpt>
      <trkpt lat="42.0601769630" lon="-7.4608097970">
        <ele>480.32</ele>
        <time>2020-08-13T09:38:29Z</time>
      </trkpt>
      <trkpt lat="42.0601690840" lon="-7.4608183466">
        <ele>480.80</ele>
        <time>2020-08-13T09:38:37Z</time>
      </trkpt>
      <trkpt lat="42.0601646416" lon="-7.4608218670">
        <ele>482.24</ele>
        <time>2020-08-13T09:38:49Z</time>
      </trkpt>
      <trkpt lat="42.0601531584" lon="-7.4608157482">
        <ele>483.68</ele>
        <time>2020-08-13T09:39:00Z</time>
      </trkpt>
      <trkpt lat="42.0601481292" lon="-7.4608061928">
        <ele>486.56</ele>
        <time>2020-08-13T09:39:18Z</time>
      </trkpt>
      <trkpt lat="42.0601510629" lon="-7.4607890937">
        <ele>488.49</ele>
        <time>2020-08-13T09:39:39Z</time>
      </trkpt>
      <trkpt lat="42.0601507276" lon="-7.4607802089">
        <ele>488.97</ele>
        <time>2020-08-13T09:39:57Z</time>
      </trkpt>
      <trkpt lat="42.0601561759" lon="-7.4607735872">
        <ele>488.49</ele>
        <time>2020-08-13T09:40:11Z</time>
      </trkpt>
      <trkpt lat="42.0601638034" lon="-7.4607615173">
        <ele>488.49</ele>
        <time>2020-08-13T09:40:24Z</time>
      </trkpt>
      <trkpt lat="42.0601683296" lon="-7.4607664626">
        <ele>488.01</ele>
        <time>2020-08-13T09:40:36Z</time>
      </trkpt>
      <trkpt lat="42.0601783879" lon="-7.4607605953">
        <ele>487.05</ele>
        <time>2020-08-13T09:40:49Z</time>
      </trkpt>
      <trkpt lat="42.0601929724" lon="-7.4607584998">
        <ele>486.08</ele>
        <time>2020-08-13T09:41:06Z</time>
      </trkpt>
      <trkpt lat="42.0602056291" lon="-7.4607713241">
        <ele>485.60</ele>
        <time>2020-08-13T09:41:20Z</time>
      </trkpt>
      <trkpt lat="42.0602198783" lon="-7.4607816339">
        <ele>485.12</ele>
        <time>2020-08-13T09:41:35Z</time>
      </trkpt>
      <trkpt lat="42.0602317806" lon="-7.4607722461">
        <ele>484.64</ele>
        <time>2020-08-13T09:41:50Z</time>
      </trkpt>
      <trkpt lat="42.0602408331" lon="-7.4607409816">
        <ele>486.08</ele>
        <time>2020-08-13T09:42:18Z</time>
      </trkpt>
      <trkpt lat="42.0602340437" lon="-7.4607337732">
        <ele>485.60</ele>
        <time>2020-08-13T09:42:41Z</time>
      </trkpt>
      <trkpt lat="42.0602454431" lon="-7.4607314263">
        <ele>484.16</ele>
        <time>2020-08-13T09:43:04Z</time>
      </trkpt>
      <trkpt lat="42.0602496341" lon="-7.4607303366">
        <ele>484.16</ele>
        <time>2020-08-13T09:43:26Z</time>
      </trkpt>
      <trkpt lat="42.0602374803" lon="-7.4607400596">
        <ele>484.64</ele>
        <time>2020-08-13T09:43:43Z</time>
      </trkpt>
      <trkpt lat="42.0602348819" lon="-7.4607595894">
        <ele>484.16</ele>
        <time>2020-08-13T09:44:05Z</time>
      </trkpt>
      <trkpt lat="42.0602323674" lon="-7.4607615173">
        <ele>482.72</ele>
        <time>2020-08-13T09:44:24Z</time>
      </trkpt>
      <trkpt lat="42.0602250751" lon="-7.4607588351">
        <ele>482.72</ele>
        <time>2020-08-13T09:44:35Z</time>
      </trkpt>
      <trkpt lat="42.0602301043" lon="-7.4607582483">
        <ele>481.28</ele>
        <time>2020-08-13T09:44:50Z</time>
      </trkpt>
      <trkpt lat="42.0602153521" lon="-7.4607648700">
        <ele>480.80</ele>
        <time>2020-08-13T09:45:07Z</time>
      </trkpt>
      <trkpt lat="42.0601900388" lon="-7.4607581645">
        <ele>482.24</ele>
        <time>2020-08-13T09:45:24Z</time>
      </trkpt>
      <trkpt lat="42.0601917990" lon="-7.4607652053">
        <ele>481.76</ele>
        <time>2020-08-13T09:45:44Z</time>
      </trkpt>
      <trkpt lat="42.0602000970" lon="-7.4607847352">
        <ele>480.80</ele>
        <time>2020-08-13T09:45:55Z</time>
      </trkpt>
      <trkpt lat="42.0601767953" lon="-7.4608027562">
        <ele>479.84</ele>
        <time>2020-08-13T09:46:02Z</time>
      </trkpt>
      <trkpt lat="42.0602172799" lon="-7.4608360324">
        <ele>479.84</ele>
        <time>2020-08-13T09:46:12Z</time>
      </trkpt>
      <trkpt lat="42.0603256579" lon="-7.4610069394">
        <ele>480.80</ele>
        <time>2020-08-13T09:46:21Z</time>
      </trkpt>
      <trkpt lat="42.0604151767" lon="-7.4611913413">
        <ele>481.76</ele>
        <time>2020-08-13T09:46:30Z</time>
      </trkpt>
      <trkpt lat="42.0604445972" lon="-7.4612698797">
        <ele>481.76</ele>
        <time>2020-08-13T09:46:35Z</time>
      </trkpt>
      <trkpt lat="42.0604339521" lon="-7.4614420440">
        <ele>477.91</ele>
        <time>2020-08-13T09:46:43Z</time>
      </trkpt>
      <trkpt lat="42.0604937151" lon="-7.4616267812">
        <ele>476.95</ele>
        <time>2020-08-13T09:46:51Z</time>
      </trkpt>
      <trkpt lat="42.0605590940" lon="-7.4618603848">
        <ele>475.99</ele>
        <time>2020-08-13T09:46:57Z</time>
      </trkpt>
      <trkpt lat="42.0606937911" lon="-7.4622891191">
        <ele>477.43</ele>
        <time>2020-08-13T09:47:07Z</time>
      </trkpt>
      <trkpt lat="42.0608164184" lon="-7.4626772013">
        <ele>479.35</ele>
        <time>2020-08-13T09:47:16Z</time>
      </trkpt>
      <trkpt lat="42.0609039254" lon="-7.4628766906">
        <ele>478.39</ele>
        <time>2020-08-13T09:47:22Z</time>
      </trkpt>
      <trkpt lat="42.0609665383" lon="-7.4630572367">
        <ele>478.39</ele>
        <time>2020-08-13T09:47:28Z</time>
      </trkpt>
      <trkpt lat="42.0609662868" lon="-7.4634036608">
        <ele>475.99</ele>
        <time>2020-08-13T09:47:36Z</time>
      </trkpt>
      <trkpt lat="42.0609616768" lon="-7.4637868814">
        <ele>474.55</ele>
        <time>2020-08-13T09:47:45Z</time>
      </trkpt>
      <trkpt lat="42.0610045921" lon="-7.4640592095">
        <ele>475.03</ele>
        <time>2020-08-13T09:47:52Z</time>
      </trkpt>
      <trkpt lat="42.0610065199" lon="-7.4640893005">
        <ele>475.99</ele>
        <time>2020-08-13T09:47:57Z</time>
      </trkpt>
      <trkpt lat="42.0610031672" lon="-7.4641340598">
        <ele>476.47</ele>
        <time>2020-08-13T09:48:11Z</time>
      </trkpt>
      <trkpt lat="42.0610209368" lon="-7.4643600360">
        <ele>474.55</ele>
        <time>2020-08-13T09:48:18Z</time>
      </trkpt>
      <trkpt lat="42.0611122157" lon="-7.4646824040">
        <ele>471.66</ele>
        <time>2020-08-13T09:48:26Z</time>
      </trkpt>
      <trkpt lat="42.0612144750" lon="-7.4650444183">
        <ele>470.22</ele>
        <time>2020-08-13T09:48:35Z</time>
      </trkpt>
      <trkpt lat="42.0612683706" lon="-7.4654020742">
        <ele>470.22</ele>
        <time>2020-08-13T09:48:44Z</time>
      </trkpt>
      <trkpt lat="42.0613745693" lon="-7.4656992126">
        <ele>469.26</ele>
        <time>2020-08-13T09:48:52Z</time>
      </trkpt>
      <trkpt lat="42.0615247730" lon="-7.4661684316">
        <ele>469.26</ele>
        <time>2020-08-13T09:49:01Z</time>
      </trkpt>
      <trkpt lat="42.0616404433" lon="-7.4665973336">
        <ele>472.14</ele>
        <time>2020-08-13T09:49:10Z</time>
      </trkpt>
      <trkpt lat="42.0617603883" lon="-7.4670053646">
        <ele>473.59</ele>
        <time>2020-08-13T09:49:20Z</time>
      </trkpt>
      <trkpt lat="42.0619073231" lon="-7.4674408045">
        <ele>473.59</ele>
        <time>2020-08-13T09:49:31Z</time>
      </trkpt>
      <trkpt lat="42.0620273519" lon="-7.4677552935">
        <ele>474.55</ele>
        <time>2020-08-13T09:49:38Z</time>
      </trkpt>
      <trkpt lat="42.0621654019" lon="-7.4681544397">
        <ele>475.51</ele>
        <time>2020-08-13T09:49:47Z</time>
      </trkpt>
      <trkpt lat="42.0622616261" lon="-7.4683970958">
        <ele>475.03</ele>
        <time>2020-08-13T09:49:53Z</time>
      </trkpt>
      <trkpt lat="42.0623902045" lon="-7.4687166978">
        <ele>474.55</ele>
        <time>2020-08-13T09:50:01Z</time>
      </trkpt>
      <trkpt lat="42.0625446830" lon="-7.4691199511">
        <ele>473.59</ele>
        <time>2020-08-13T09:50:09Z</time>
      </trkpt>
      <trkpt lat="42.0627179369" lon="-7.4694935326">
        <ele>474.55</ele>
        <time>2020-08-13T09:50:18Z</time>
      </trkpt>
      <trkpt lat="42.0628786180" lon="-7.4697759189">
        <ele>474.55</ele>
        <time>2020-08-13T09:50:28Z</time>
      </trkpt>
      <trkpt lat="42.0629426558" lon="-7.4699081853">
        <ele>474.07</ele>
        <time>2020-08-13T09:50:35Z</time>
      </trkpt>
      <trkpt lat="42.0629414823" lon="-7.4699145555">
        <ele>474.55</ele>
        <time>2020-08-13T09:50:42Z</time>
      </trkpt>
      <trkpt lat="42.0629274845" lon="-7.4698902480">
        <ele>475.03</ele>
        <time>2020-08-13T09:51:01Z</time>
      </trkpt>
      <trkpt lat="42.0629323460" lon="-7.4699119572">
        <ele>475.99</ele>
        <time>2020-08-13T09:51:17Z</time>
      </trkpt>
      <trkpt lat="42.0629267301" lon="-7.4699195847">
        <ele>474.55</ele>
        <time>2020-08-13T09:51:34Z</time>
      </trkpt>
      <trkpt lat="42.0629268978" lon="-7.4699111190">
        <ele>473.59</ele>
        <time>2020-08-13T09:51:49Z</time>
      </trkpt>
      <trkpt lat="42.0629121456" lon="-7.4698820338">
        <ele>474.07</ele>
        <time>2020-08-13T09:52:04Z</time>
      </trkpt>
      <trkpt lat="42.0629349444" lon="-7.4698906671">
        <ele>475.51</ele>
        <time>2020-08-13T09:52:19Z</time>
      </trkpt>
      <trkpt lat="42.0629462600" lon="-7.4698982108">
        <ele>475.99</ele>
        <time>2020-08-13T09:52:34Z</time>
      </trkpt>
      <trkpt lat="42.0629519597" lon="-7.4698961154">
        <ele>472.63</ele>
        <time>2020-08-13T09:52:49Z</time>
      </trkpt>
      <trkpt lat="42.0629169233" lon="-7.4699363485">
        <ele>474.07</ele>
        <time>2020-08-13T09:53:04Z</time>
      </trkpt>
      <trkpt lat="42.0629258920" lon="-7.4699203391">
        <ele>472.63</ele>
        <time>2020-08-13T09:53:14Z</time>
      </trkpt>
      <trkpt lat="42.0629308373" lon="-7.4698938522">
        <ele>470.70</ele>
        <time>2020-08-13T09:53:30Z</time>
      </trkpt>
      <trkpt lat="42.0629373752" lon="-7.4699135497">
        <ele>473.11</ele>
        <time>2020-08-13T09:53:44Z</time>
      </trkpt>
      <trkpt lat="42.0629402250" lon="-7.4699008930">
        <ele>471.66</ele>
        <time>2020-08-13T09:53:56Z</time>
      </trkpt>
      <trkpt lat="42.0629419014" lon="-7.4698852189">
        <ele>471.18</ele>
        <time>2020-08-13T09:54:09Z</time>
      </trkpt>
      <trkpt lat="42.0629439969" lon="-7.4698982947">
        <ele>471.66</ele>
        <time>2020-08-13T09:54:21Z</time>
      </trkpt>
      <trkpt lat="42.0629451703" lon="-7.4699117895">
        <ele>470.70</ele>
        <time>2020-08-13T09:54:37Z</time>
      </trkpt>
      <trkpt lat="42.0629383810" lon="-7.4699066766">
        <ele>470.22</ele>
        <time>2020-08-13T09:54:51Z</time>
      </trkpt>
      <trkpt lat="42.0629509538" lon="-7.4699066766">
        <ele>471.18</ele>
        <time>2020-08-13T09:55:05Z</time>
      </trkpt>
      <trkpt lat="42.0629496966" lon="-7.4699093588">
        <ele>473.11</ele>
        <time>2020-08-13T09:55:18Z</time>
      </trkpt>
      <trkpt lat="42.0629269816" lon="-7.4699029047">
        <ele>473.59</ele>
        <time>2020-08-13T09:55:32Z</time>
      </trkpt>
      <trkpt lat="42.0629367046" lon="-7.4699276313">
        <ele>472.14</ele>
        <time>2020-08-13T09:55:47Z</time>
      </trkpt>
      <trkpt lat="42.0629340224" lon="-7.4699034076">
        <ele>470.22</ele>
        <time>2020-08-13T09:56:00Z</time>
      </trkpt>
      <trkpt lat="42.0629318431" lon="-7.4699053355">
        <ele>469.26</ele>
        <time>2020-08-13T09:56:14Z</time>
      </trkpt>
      <trkpt lat="42.0629249699" lon="-7.4699237756">
        <ele>470.70</ele>
        <time>2020-08-13T09:56:29Z</time>
      </trkpt>
      <trkpt lat="42.0629096311" lon="-7.4699079338">
        <ele>471.18</ele>
        <time>2020-08-13T09:56:46Z</time>
      </trkpt>
      <trkpt lat="42.0629342739" lon="-7.4698939361">
        <ele>472.63</ele>
        <time>2020-08-13T09:57:02Z</time>
      </trkpt>
      <trkpt lat="42.0629240479" lon="-7.4699072633">
        <ele>470.70</ele>
        <time>2020-08-13T09:57:19Z</time>
      </trkpt>
      <trkpt lat="42.0629197732" lon="-7.4699024856">
        <ele>472.14</ele>
        <time>2020-08-13T09:57:33Z</time>
      </trkpt>
      <trkpt lat="42.0629186835" lon="-7.4699082691">
        <ele>471.66</ele>
        <time>2020-08-13T09:57:49Z</time>
      </trkpt>
      <trkpt lat="42.0629340224" lon="-7.4698785972">
        <ele>469.26</ele>
        <time>2020-08-13T09:58:02Z</time>
      </trkpt>
      <trkpt lat="42.0629435778" lon="-7.4698874820">
        <ele>469.74</ele>
        <time>2020-08-13T09:58:18Z</time>
      </trkpt>
      <trkpt lat="42.0629293285" lon="-7.4698909186">
        <ele>470.70</ele>
        <time>2020-08-13T09:58:36Z</time>
      </trkpt>
      <trkpt lat="42.0629356988" lon="-7.4699069280">
        <ele>470.22</ele>
        <time>2020-08-13T09:58:54Z</time>
      </trkpt>
      <trkpt lat="42.0629291609" lon="-7.4699171539">
        <ele>470.70</ele>
        <time>2020-08-13T09:59:10Z</time>
      </trkpt>
      <trkpt lat="42.0629276522" lon="-7.4699079338">
        <ele>473.11</ele>
        <time>2020-08-13T09:59:27Z</time>
      </trkpt>
      <trkpt lat="42.0629280712" lon="-7.4699153099">
        <ele>473.11</ele>
        <time>2020-08-13T09:59:43Z</time>
      </trkpt>
      <trkpt lat="42.0629248861" lon="-7.4699113704">
        <ele>472.14</ele>
        <time>2020-08-13T10:00:02Z</time>
      </trkpt>
      <trkpt lat="42.0629321784" lon="-7.4698821176">
        <ele>473.59</ele>
        <time>2020-08-13T10:00:25Z</time>
      </trkpt>
      <trkpt lat="42.0629391354" lon="-7.4698597379">
        <ele>473.59</ele>
        <time>2020-08-13T10:00:46Z</time>
      </trkpt>
      <trkpt lat="42.0629408117" lon="-7.4698805250">
        <ele>474.55</ele>
        <time>2020-08-13T10:01:11Z</time>
      </trkpt>
      <trkpt lat="42.0629330166" lon="-7.4698922597">
        <ele>474.07</ele>
        <time>2020-08-13T10:01:32Z</time>
      </trkpt>
      <trkpt lat="42.0629261434" lon="-7.4698993843">
        <ele>473.11</ele>
        <time>2020-08-13T10:02:03Z</time>
      </trkpt>
      <trkpt lat="42.0629439130" lon="-7.4699043296">
        <ele>472.14</ele>
        <time>2020-08-13T10:02:21Z</time>
      </trkpt>
      <trkpt lat="42.0629331004" lon="-7.4698915053">
        <ele>473.59</ele>
        <time>2020-08-13T10:02:42Z</time>
      </trkpt>
      <trkpt lat="42.0629436616" lon="-7.4698901642">
        <ele>472.63</ele>
        <time>2020-08-13T10:03:04Z</time>
      </trkpt>
      <trkpt lat="42.0629366208" lon="-7.4699117895">
        <ele>473.11</ele>
        <time>2020-08-13T10:03:23Z</time>
      </trkpt>
      <trkpt lat="42.0629240479" lon="-7.4699247815">
        <ele>472.14</ele>
        <time>2020-08-13T10:03:44Z</time>
      </trkpt>
      <trkpt lat="42.0629241318" lon="-7.4698969536">
        <ele>474.07</ele>
        <time>2020-08-13T10:04:07Z</time>
      </trkpt>
      <trkpt lat="42.0629399735" lon="-7.4699039105">
        <ele>474.07</ele>
        <time>2020-08-13T10:04:36Z</time>
      </trkpt>
      <trkpt lat="42.0629455056" lon="-7.4699181598">
        <ele>470.70</ele>
        <time>2020-08-13T10:04:58Z</time>
      </trkpt>
      <trkpt lat="42.0629455056" lon="-7.4699294753">
        <ele>469.26</ele>
        <time>2020-08-13T10:05:29Z</time>
      </trkpt>
      <trkpt lat="42.0629469305" lon="-7.4699110352">
        <ele>470.70</ele>
        <time>2020-08-13T10:05:54Z</time>
      </trkpt>
      <trkpt lat="42.0629540551" lon="-7.4699076824">
        <ele>470.22</ele>
        <time>2020-08-13T10:06:10Z</time>
      </trkpt>
      <trkpt lat="42.0629208628" lon="-7.4699143041">
        <ele>469.74</ele>
        <time>2020-08-13T10:06:26Z</time>
      </trkpt>
      <trkpt lat="42.0629030932" lon="-7.4699073471">
        <ele>472.63</ele>
        <time>2020-08-13T10:06:43Z</time>
      </trkpt>
      <trkpt lat="42.0629123971" lon="-7.4699102808">
        <ele>474.55</ele>
        <time>2020-08-13T10:06:55Z</time>
      </trkpt>
      <trkpt lat="42.0629190188" lon="-7.4699118733">
        <ele>475.03</ele>
        <time>2020-08-13T10:07:08Z</time>
      </trkpt>
      <trkpt lat="42.0629288256" lon="-7.4699153937">
        <ele>474.55</ele>
        <time>2020-08-13T10:07:25Z</time>
      </trkpt>
      <trkpt lat="42.0629248861" lon="-7.4699092750">
        <ele>475.03</ele>
        <time>2020-08-13T10:07:34Z</time>
      </trkpt>
      <trkpt lat="42.0629278198" lon="-7.4699047487">
        <ele>474.07</ele>
        <time>2020-08-13T10:07:44Z</time>
      </trkpt>
      <trkpt lat="42.0629326813" lon="-7.4699192494">
        <ele>474.07</ele>
        <time>2020-08-13T10:07:49Z</time>
      </trkpt>
      <trkpt lat="42.0629315078" lon="-7.4699334148">
        <ele>474.07</ele>
        <time>2020-08-13T10:07:50Z</time>
      </trkpt>
      <trkpt lat="42.0629312564" lon="-7.4699553754">
        <ele>474.07</ele>
        <time>2020-08-13T10:07:51Z</time>
      </trkpt>
      <trkpt lat="42.0629515406" lon="-7.4701328203">
        <ele>474.07</ele>
        <time>2020-08-13T10:08:00Z</time>
      </trkpt>
      <trkpt lat="42.0629843976" lon="-7.4702523462">
        <ele>473.59</ele>
        <time>2020-08-13T10:08:09Z</time>
      </trkpt>
      <trkpt lat="42.0630022511" lon="-7.4703326449">
        <ele>474.07</ele>
        <time>2020-08-13T10:08:16Z</time>
      </trkpt>
      <trkpt lat="42.0630035084" lon="-7.4703615624">
        <ele>474.07</ele>
        <time>2020-08-13T10:08:18Z</time>
      </trkpt>
      <trkpt lat="42.0630463399" lon="-7.4705562741">
        <ele>474.07</ele>
        <time>2020-08-13T10:08:25Z</time>
      </trkpt>
      <trkpt lat="42.0631456655" lon="-7.4708695058">
        <ele>474.07</ele>
        <time>2020-08-13T10:08:35Z</time>
      </trkpt>
      <trkpt lat="42.0632543787" lon="-7.4711783789">
        <ele>474.55</ele>
        <time>2020-08-13T10:08:44Z</time>
      </trkpt>
      <trkpt lat="42.0633808617" lon="-7.4715239648">
        <ele>475.03</ele>
        <time>2020-08-13T10:08:53Z</time>
      </trkpt>
      <trkpt lat="42.0635060035" lon="-7.4718083628">
        <ele>476.47</ele>
        <time>2020-08-13T10:09:01Z</time>
      </trkpt>
      <trkpt lat="42.0637117792" lon="-7.4722355884">
        <ele>475.99</ele>
        <time>2020-08-13T10:09:13Z</time>
      </trkpt>
      <trkpt lat="42.0638520084" lon="-7.4725529272">
        <ele>475.03</ele>
        <time>2020-08-13T10:09:22Z</time>
      </trkpt>
      <trkpt lat="42.0640223287" lon="-7.4729910493">
        <ele>475.99</ele>
        <time>2020-08-13T10:09:34Z</time>
      </trkpt>
      <trkpt lat="42.0641606301" lon="-7.4734622799">
        <ele>475.99</ele>
        <time>2020-08-13T10:09:46Z</time>
      </trkpt>
      <trkpt lat="42.0642773900" lon="-7.4739025813">
        <ele>476.47</ele>
        <time>2020-08-13T10:09:57Z</time>
      </trkpt>
      <trkpt lat="42.0643482171" lon="-7.4741522782">
        <ele>476.47</ele>
        <time>2020-08-13T10:10:05Z</time>
      </trkpt>
      <trkpt lat="42.0644157752" lon="-7.4743850436">
        <ele>475.99</ele>
        <time>2020-08-13T10:10:13Z</time>
      </trkpt>
      <trkpt lat="42.0645129215" lon="-7.4747563619">
        <ele>476.47</ele>
        <time>2020-08-13T10:10:23Z</time>
      </trkpt>
      <trkpt lat="42.0646012668" lon="-7.4750887882">
        <ele>475.99</ele>
        <time>2020-08-13T10:10:33Z</time>
      </trkpt>
      <trkpt lat="42.0647125784" lon="-7.4755123258">
        <ele>475.51</ele>
        <time>2020-08-13T10:10:44Z</time>
      </trkpt>
      <trkpt lat="42.0647957269" lon="-7.4758615997">
        <ele>473.59</ele>
        <time>2020-08-13T10:10:53Z</time>
      </trkpt>
      <trkpt lat="42.0648932084" lon="-7.4762163218">
        <ele>472.14</ele>
        <time>2020-08-13T10:11:02Z</time>
      </trkpt>
      <trkpt lat="42.0650155842" lon="-7.4766554497">
        <ele>474.07</ele>
        <time>2020-08-13T10:11:12Z</time>
      </trkpt>
      <trkpt lat="42.0651289914" lon="-7.4770803284">
        <ele>475.51</ele>
        <time>2020-08-13T10:11:22Z</time>
      </trkpt>
      <trkpt lat="42.0652244613" lon="-7.4774312787">
        <ele>476.95</ele>
        <time>2020-08-13T10:11:31Z</time>
      </trkpt>
      <trkpt lat="42.0653026644" lon="-7.4778383039">
        <ele>477.43</ele>
        <time>2020-08-13T10:11:41Z</time>
      </trkpt>
      <trkpt lat="42.0652778540" lon="-7.4780004937">
        <ele>477.43</ele>
        <time>2020-08-13T10:11:47Z</time>
      </trkpt>
      <trkpt lat="42.0652753394" lon="-7.4780103005">
        <ele>477.91</ele>
        <time>2020-08-13T10:11:52Z</time>
      </trkpt>
      <trkpt lat="42.0652608387" lon="-7.4779937882">
        <ele>479.35</ele>
        <time>2020-08-13T10:12:03Z</time>
      </trkpt>
      <trkpt lat="42.0652575698" lon="-7.4780146591">
        <ele>479.84</ele>
        <time>2020-08-13T10:12:35Z</time>
      </trkpt>
      <trkpt lat="42.0652685501" lon="-7.4780115578">
        <ele>480.32</ele>
        <time>2020-08-13T10:12:44Z</time>
      </trkpt>
      <trkpt lat="42.0652985573" lon="-7.4780282378">
        <ele>480.32</ele>
        <time>2020-08-13T10:12:50Z</time>
      </trkpt>
      <trkpt lat="42.0653120521" lon="-7.4780223705">
        <ele>480.80</ele>
        <time>2020-08-13T10:12:51Z</time>
      </trkpt>
      <trkpt lat="42.0653262176" lon="-7.4780206103">
        <ele>480.80</ele>
        <time>2020-08-13T10:12:52Z</time>
      </trkpt>
      <trkpt lat="42.0653432328" lon="-7.4780317582">
        <ele>480.80</ele>
        <time>2020-08-13T10:12:53Z</time>
      </trkpt>
      <trkpt lat="42.0653589070" lon="-7.4780566525">
        <ele>480.80</ele>
        <time>2020-08-13T10:12:54Z</time>
      </trkpt>
      <trkpt lat="42.0653686300" lon="-7.4780740868">
        <ele>480.80</ele>
        <time>2020-08-13T10:12:55Z</time>
      </trkpt>
      <trkpt lat="42.0654279739" lon="-7.4782854784">
        <ele>480.32</ele>
        <time>2020-08-13T10:13:02Z</time>
      </trkpt>
      <trkpt lat="42.0655385312" lon="-7.4786583055">
        <ele>480.80</ele>
        <time>2020-08-13T10:13:11Z</time>
      </trkpt>
      <trkpt lat="42.0656843763" lon="-7.4790983554">
        <ele>481.28</ele>
        <time>2020-08-13T10:13:22Z</time>
      </trkpt>
      <trkpt lat="42.0658842847" lon="-7.4794702604">
        <ele>482.24</ele>
        <time>2020-08-13T10:13:32Z</time>
      </trkpt>
      <trkpt lat="42.0661483984" lon="-7.4797670636">
        <ele>483.20</ele>
        <time>2020-08-13T10:13:42Z</time>
      </trkpt>
      <trkpt lat="42.0664515719" lon="-7.4800307583">
        <ele>486.56</ele>
        <time>2020-08-13T10:13:53Z</time>
      </trkpt>
      <trkpt lat="42.0667674020" lon="-7.4803086184">
        <ele>490.41</ele>
        <time>2020-08-13T10:14:04Z</time>
      </trkpt>
      <trkpt lat="42.0670922846" lon="-7.4805404618">
        <ele>488.97</ele>
        <time>2020-08-13T10:14:13Z</time>
      </trkpt>
      <trkpt lat="42.0674594119" lon="-7.4808257818">
        <ele>487.05</ele>
        <time>2020-08-13T10:14:23Z</time>
      </trkpt>
      <trkpt lat="42.0678520203" lon="-7.4811388459">
        <ele>488.01</ele>
        <time>2020-08-13T10:14:34Z</time>
      </trkpt>
      <trkpt lat="42.0682225004" lon="-7.4814355653">
        <ele>488.49</ele>
        <time>2020-08-13T10:14:44Z</time>
      </trkpt>
      <trkpt lat="42.0685116760" lon="-7.4816618767">
        <ele>488.49</ele>
        <time>2020-08-13T10:14:52Z</time>
      </trkpt>
      <trkpt lat="42.0688400790" lon="-7.4819249846">
        <ele>490.41</ele>
        <time>2020-08-13T10:15:01Z</time>
      </trkpt>
      <trkpt lat="42.0691186935" lon="-7.4821354542">
        <ele>489.45</ele>
        <time>2020-08-13T10:15:10Z</time>
      </trkpt>
      <trkpt lat="42.0693457592" lon="-7.4823044334">
        <ele>488.97</ele>
        <time>2020-08-13T10:15:17Z</time>
      </trkpt>
      <trkpt lat="42.0697884914" lon="-7.4826439843">
        <ele>488.01</ele>
        <time>2020-08-13T10:15:30Z</time>
      </trkpt>
      <trkpt lat="42.0701008011" lon="-7.4828866404">
        <ele>488.01</ele>
        <time>2020-08-13T10:15:40Z</time>
      </trkpt>
      <trkpt lat="42.0703225862" lon="-7.4830634147">
        <ele>489.45</ele>
        <time>2020-08-13T10:15:47Z</time>
      </trkpt>
      <trkpt lat="42.0706036314" lon="-7.4832683522">
        <ele>488.97</ele>
        <time>2020-08-13T10:15:56Z</time>
      </trkpt>
      <trkpt lat="42.0708422642" lon="-7.4834593758">
        <ele>488.97</ele>
        <time>2020-08-13T10:16:04Z</time>
      </trkpt>
      <trkpt lat="42.0710498840" lon="-7.4836597871">
        <ele>487.53</ele>
        <time>2020-08-13T10:16:12Z</time>
      </trkpt>
      <trkpt lat="42.0712923724" lon="-7.4840402417">
        <ele>486.56</ele>
        <time>2020-08-13T10:16:22Z</time>
      </trkpt>
      <trkpt lat="42.0715338551" lon="-7.4844401423">
        <ele>486.08</ele>
        <time>2020-08-13T10:16:33Z</time>
      </trkpt>
      <trkpt lat="42.0717033371" lon="-7.4847219419">
        <ele>486.56</ele>
        <time>2020-08-13T10:16:41Z</time>
      </trkpt>
      <trkpt lat="42.0719381981" lon="-7.4850423820">
        <ele>487.05</ele>
        <time>2020-08-13T10:16:50Z</time>
      </trkpt>
      <trkpt lat="42.0721566305" lon="-7.4852437992">
        <ele>488.01</ele>
        <time>2020-08-13T10:16:57Z</time>
      </trkpt>
      <trkpt lat="42.0724402741" lon="-7.4854851142">
        <ele>488.97</ele>
        <time>2020-08-13T10:17:06Z</time>
      </trkpt>
      <trkpt lat="42.0727455430" lon="-7.4857903831">
        <ele>488.97</ele>
        <time>2020-08-13T10:17:16Z</time>
      </trkpt>
      <trkpt lat="42.0730102435" lon="-7.4861574266">
        <ele>486.56</ele>
        <time>2020-08-13T10:17:27Z</time>
      </trkpt>
      <trkpt lat="42.0732508041" lon="-7.4865004979">
        <ele>483.20</ele>
        <time>2020-08-13T10:17:37Z</time>
      </trkpt>
      <trkpt lat="42.0733945537" lon="-7.4867019989">
        <ele>484.16</ele>
        <time>2020-08-13T10:17:45Z</time>
      </trkpt>
      <trkpt lat="42.0735425781" lon="-7.4869973771">
        <ele>484.64</ele>
        <time>2020-08-13T10:17:53Z</time>
      </trkpt>
      <trkpt lat="42.0736830588" lon="-7.4873961043">
        <ele>486.08</ele>
        <time>2020-08-13T10:18:03Z</time>
      </trkpt>
      <trkpt lat="42.0738059375" lon="-7.4877147004">
        <ele>485.60</ele>
        <time>2020-08-13T10:18:11Z</time>
      </trkpt>
      <trkpt lat="42.0739434008" lon="-7.4881099910">
        <ele>488.97</ele>
        <time>2020-08-13T10:18:21Z</time>
      </trkpt>
      <trkpt lat="42.0740314107" lon="-7.4885069579">
        <ele>491.85</ele>
        <time>2020-08-13T10:18:30Z</time>
      </trkpt>
      <trkpt lat="42.0741435606" lon="-7.4889730755">
        <ele>492.33</ele>
        <time>2020-08-13T10:18:41Z</time>
      </trkpt>
      <trkpt lat="42.0743495040" lon="-7.4893780891">
        <ele>492.33</ele>
        <time>2020-08-13T10:18:50Z</time>
      </trkpt>
      <trkpt lat="42.0746308006" lon="-7.4897360802">
        <ele>492.81</ele>
        <time>2020-08-13T10:18:59Z</time>
      </trkpt>
      <trkpt lat="42.0748126879" lon="-7.4899768922">
        <ele>492.33</ele>
        <time>2020-08-13T10:19:06Z</time>
      </trkpt>
      <trkpt lat="42.0749550965" lon="-7.4902840052">
        <ele>492.33</ele>
        <time>2020-08-13T10:19:13Z</time>
      </trkpt>
      <trkpt lat="42.0749750454" lon="-7.4903306924">
        <ele>492.81</ele>
        <time>2020-08-13T10:19:14Z</time>
      </trkpt>
      <trkpt lat="42.0749921445" lon="-7.4903783854">
        <ele>492.81</ele>
        <time>2020-08-13T10:19:15Z</time>
      </trkpt>
      <trkpt lat="42.0751070604" lon="-7.4907046091">
        <ele>494.26</ele>
        <time>2020-08-13T10:19:23Z</time>
      </trkpt>
      <trkpt lat="42.0752966590" lon="-7.4911253806">
        <ele>497.14</ele>
        <time>2020-08-13T10:19:32Z</time>
      </trkpt>
      <trkpt lat="42.0754604414" lon="-7.4914488383">
        <ele>498.10</ele>
        <time>2020-08-13T10:19:39Z</time>
      </trkpt>
      <trkpt lat="42.0756309293" lon="-7.4918122776">
        <ele>498.58</ele>
        <time>2020-08-13T10:19:47Z</time>
      </trkpt>
      <trkpt lat="42.0758442488" lon="-7.4922789820">
        <ele>498.10</ele>
        <time>2020-08-13T10:19:57Z</time>
      </trkpt>
      <trkpt lat="42.0760226157" lon="-7.4926565029">
        <ele>496.66</ele>
        <time>2020-08-13T10:20:06Z</time>
      </trkpt>
      <trkpt lat="42.0762100350" lon="-7.4930587504">
        <ele>496.18</ele>
        <time>2020-08-13T10:20:16Z</time>
      </trkpt>
      <trkpt lat="42.0763872284" lon="-7.4934289791">
        <ele>497.14</ele>
        <time>2020-08-13T10:20:26Z</time>
      </trkpt>
      <trkpt lat="42.0765275415" lon="-7.4936958589">
        <ele>498.58</ele>
        <time>2020-08-13T10:20:34Z</time>
      </trkpt>
      <trkpt lat="42.0767129492" lon="-7.4940964300">
        <ele>499.06</ele>
        <time>2020-08-13T10:20:45Z</time>
      </trkpt>
      <trkpt lat="42.0770239178" lon="-7.4947280064">
        <ele>498.58</ele>
        <time>2020-08-13T10:21:01Z</time>
      </trkpt>
      <trkpt lat="42.0772188809" lon="-7.4951572437">
        <ele>500.02</ele>
        <time>2020-08-13T10:21:12Z</time>
      </trkpt>
      <trkpt lat="42.0773934759" lon="-7.4955350161">
        <ele>502.43</ele>
        <time>2020-08-13T10:21:24Z</time>
      </trkpt>
      <trkpt lat="42.0775738545" lon="-7.4959336594">
        <ele>502.43</ele>
        <time>2020-08-13T10:21:36Z</time>
      </trkpt>
      <trkpt lat="42.0778845716" lon="-7.4965229072">
        <ele>504.83</ele>
        <time>2020-08-13T10:21:55Z</time>
      </trkpt>
      <trkpt lat="42.0780640282" lon="-7.4966220651">
        <ele>506.75</ele>
        <time>2020-08-13T10:22:02Z</time>
      </trkpt>
      <trkpt lat="42.0782760903" lon="-7.4965343904">
        <ele>508.67</ele>
        <time>2020-08-13T10:22:11Z</time>
      </trkpt>
      <trkpt lat="42.0784366038" lon="-7.4964698497">
        <ele>511.56</ele>
        <time>2020-08-13T10:22:19Z</time>
      </trkpt>
      <trkpt lat="42.0785986260" lon="-7.4964279402">
        <ele>514.92</ele>
        <time>2020-08-13T10:22:28Z</time>
      </trkpt>
      <trkpt lat="42.0787920803" lon="-7.4964794051">
        <ele>518.77</ele>
        <time>2020-08-13T10:22:38Z</time>
      </trkpt>
      <trkpt lat="42.0789603889" lon="-7.4966257531">
        <ele>520.69</ele>
        <time>2020-08-13T10:22:48Z</time>
      </trkpt>
      <trkpt lat="42.0791090839" lon="-7.4967715982">
        <ele>522.61</ele>
        <time>2020-08-13T10:22:58Z</time>
      </trkpt>
      <trkpt lat="42.0792424399" lon="-7.4969021045">
        <ele>523.58</ele>
        <time>2020-08-13T10:23:07Z</time>
      </trkpt>
      <trkpt lat="42.0793643966" lon="-7.4970321916">
        <ele>523.58</ele>
        <time>2020-08-13T10:23:16Z</time>
      </trkpt>
      <trkpt lat="42.0794950705" lon="-7.4971795455">
        <ele>524.06</ele>
        <time>2020-08-13T10:23:25Z</time>
      </trkpt>
      <trkpt lat="42.0796030294" lon="-7.4972962216">
        <ele>525.02</ele>
        <time>2020-08-13T10:23:33Z</time>
      </trkpt>
      <trkpt lat="42.0797199570" lon="-7.4974404741">
        <ele>525.98</ele>
        <time>2020-08-13T10:23:42Z</time>
      </trkpt>
      <trkpt lat="42.0798530616" lon="-7.4976047594">
        <ele>526.46</ele>
        <time>2020-08-13T10:23:52Z</time>
      </trkpt>
      <trkpt lat="42.0799748506" lon="-7.4977408815">
        <ele>527.90</ele>
        <time>2020-08-13T10:24:01Z</time>
      </trkpt>
      <trkpt lat="42.0800828096" lon="-7.4978562165">
        <ele>529.82</ele>
        <time>2020-08-13T10:24:09Z</time>
      </trkpt>
      <trkpt lat="42.0802242961" lon="-7.4980089348">
        <ele>531.27</ele>
        <time>2020-08-13T10:24:19Z</time>
      </trkpt>
      <trkpt lat="42.0803419780" lon="-7.4981503375">
        <ele>532.23</ele>
        <time>2020-08-13T10:24:28Z</time>
      </trkpt>
      <trkpt lat="42.0804749150" lon="-7.4982989486">
        <ele>533.19</ele>
        <time>2020-08-13T10:24:38Z</time>
      </trkpt>
      <trkpt lat="42.0805552136" lon="-7.4983908981">
        <ele>533.19</ele>
        <time>2020-08-13T10:24:45Z</time>
      </trkpt>
      <trkpt lat="42.0806519408" lon="-7.4985282775">
        <ele>533.67</ele>
        <time>2020-08-13T10:24:53Z</time>
      </trkpt>
      <trkpt lat="42.0806765836" lon="-7.4985573627">
        <ele>533.67</ele>
        <time>2020-08-13T10:24:55Z</time>
      </trkpt>
      <trkpt lat="42.0807630848" lon="-7.4987238273">
        <ele>534.63</ele>
        <time>2020-08-13T10:25:04Z</time>
      </trkpt>
      <trkpt lat="42.0809028950" lon="-7.4989695009">
        <ele>538.48</ele>
        <time>2020-08-13T10:25:15Z</time>
      </trkpt>
      <trkpt lat="42.0810492430" lon="-7.4992197007">
        <ele>539.92</ele>
        <time>2020-08-13T10:25:27Z</time>
      </trkpt>
      <trkpt lat="42.0811743848" lon="-7.4994519632">
        <ele>539.92</ele>
        <time>2020-08-13T10:25:38Z</time>
      </trkpt>
      <trkpt lat="42.0812776498" lon="-7.4996443279">
        <ele>539.92</ele>
        <time>2020-08-13T10:25:47Z</time>
      </trkpt>
      <trkpt lat="42.0813690964" lon="-7.4998293165">
        <ele>540.88</ele>
        <time>2020-08-13T10:25:56Z</time>
      </trkpt>
      <trkpt lat="42.0814591181" lon="-7.4999826215">
        <ele>539.92</ele>
        <time>2020-08-13T10:26:04Z</time>
      </trkpt>
      <trkpt lat="42.0815990120" lon="-7.5001720525">
        <ele>540.88</ele>
        <time>2020-08-13T10:26:15Z</time>
      </trkpt>
      <trkpt lat="42.0816960745" lon="-7.5002709590">
        <ele>542.80</ele>
        <time>2020-08-13T10:26:22Z</time>
      </trkpt>
      <trkpt lat="42.0817660633" lon="-7.5003384333">
        <ele>542.32</ele>
        <time>2020-08-13T10:26:27Z</time>
      </trkpt>
      <trkpt lat="42.0817773789" lon="-7.5003490783">
        <ele>542.32</ele>
        <time>2020-08-13T10:26:28Z</time>
      </trkpt>
      <trkpt lat="42.0818730164" lon="-7.5004738010">
        <ele>545.20</ele>
        <time>2020-08-13T10:26:36Z</time>
      </trkpt>
      <trkpt lat="42.0820248965" lon="-7.5006323028">
        <ele>547.13</ele>
        <time>2020-08-13T10:26:46Z</time>
      </trkpt>
      <trkpt lat="42.0821125712" lon="-7.5007371604">
        <ele>549.53</ele>
        <time>2020-08-13T10:26:53Z</time>
      </trkpt>
      <trkpt lat="42.0822367072" lon="-7.5009006076">
        <ele>551.93</ele>
        <time>2020-08-13T10:27:03Z</time>
      </trkpt>
      <trkpt lat="42.0823473483" lon="-7.5010053813">
        <ele>555.30</ele>
        <time>2020-08-13T10:27:12Z</time>
      </trkpt>
      <trkpt lat="42.0823591668" lon="-7.5010197982">
        <ele>555.30</ele>
        <time>2020-08-13T10:27:13Z</time>
      </trkpt>
      <trkpt lat="42.0823709853" lon="-7.5010350533">
        <ele>555.30</ele>
        <time>2020-08-13T10:27:14Z</time>
      </trkpt>
      <trkpt lat="42.0823833905" lon="-7.5010497216">
        <ele>555.30</ele>
        <time>2020-08-13T10:27:15Z</time>
      </trkpt>
      <trkpt lat="42.0823951252" lon="-7.5010659825">
        <ele>555.30</ele>
        <time>2020-08-13T10:27:16Z</time>
      </trkpt>
      <trkpt lat="42.0824057702" lon="-7.5010845065">
        <ele>555.30</ele>
        <time>2020-08-13T10:27:17Z</time>
      </trkpt>
      <trkpt lat="42.0824121404" lon="-7.5011000969">
        <ele>555.30</ele>
        <time>2020-08-13T10:27:18Z</time>
      </trkpt>
      <trkpt lat="42.0824175049" lon="-7.5011193752">
        <ele>555.30</ele>
        <time>2020-08-13T10:27:19Z</time>
      </trkpt>
      <trkpt lat="42.0824260544" lon="-7.5011379831">
        <ele>554.82</ele>
        <time>2020-08-13T10:27:20Z</time>
      </trkpt>
      <trkpt lat="42.0824370347" lon="-7.5011574291">
        <ele>555.30</ele>
        <time>2020-08-13T10:27:21Z</time>
      </trkpt>
      <trkpt lat="42.0825209375" lon="-7.5013054535">
        <ele>556.74</ele>
        <time>2020-08-13T10:27:29Z</time>
      </trkpt>
      <trkpt lat="42.0825636853" lon="-7.5014355406">
        <ele>554.82</ele>
        <time>2020-08-13T10:27:35Z</time>
      </trkpt>
      <trkpt lat="42.0825912617" lon="-7.5016173441">
        <ele>555.30</ele>
        <time>2020-08-13T10:27:43Z</time>
      </trkpt>
      <trkpt lat="42.0825791918" lon="-7.5018341839">
        <ele>554.34</ele>
        <time>2020-08-13T10:27:52Z</time>
      </trkpt>
      <trkpt lat="42.0825413056" lon="-7.5020087790">
        <ele>553.38</ele>
        <time>2020-08-13T10:27:59Z</time>
      </trkpt>
      <trkpt lat="42.0825282298" lon="-7.5022153091">
        <ele>554.82</ele>
        <time>2020-08-13T10:28:07Z</time>
      </trkpt>
      <trkpt lat="42.0825017430" lon="-7.5024623238">
        <ele>556.26</ele>
        <time>2020-08-13T10:28:17Z</time>
      </trkpt>
      <trkpt lat="42.0824794471" lon="-7.5026624836">
        <ele>557.22</ele>
        <time>2020-08-13T10:28:25Z</time>
      </trkpt>
      <trkpt lat="42.0824548043" lon="-7.5028772280">
        <ele>558.66</ele>
        <time>2020-08-13T10:28:34Z</time>
      </trkpt>
      <trkpt lat="42.0824375376" lon="-7.5031011086">
        <ele>560.11</ele>
        <time>2020-08-13T10:28:44Z</time>
      </trkpt>
      <trkpt lat="42.0824452490" lon="-7.5032575987">
        <ele>560.59</ele>
        <time>2020-08-13T10:28:51Z</time>
      </trkpt>
      <trkpt lat="42.0825040899" lon="-7.5034960639">
        <ele>560.59</ele>
        <time>2020-08-13T10:29:01Z</time>
      </trkpt>
      <trkpt lat="42.0825847238" lon="-7.5036704075">
        <ele>562.99</ele>
        <time>2020-08-13T10:29:09Z</time>
      </trkpt>
      <trkpt lat="42.0826850552" lon="-7.5038650353">
        <ele>566.35</ele>
        <time>2020-08-13T10:29:19Z</time>
      </trkpt>
      <trkpt lat="42.0827956125" lon="-7.5039936136">
        <ele>567.32</ele>
        <time>2020-08-13T10:29:27Z</time>
      </trkpt>
      <trkpt lat="42.0829313155" lon="-7.5041392073">
        <ele>568.76</ele>
        <time>2020-08-13T10:29:36Z</time>
      </trkpt>
      <trkpt lat="42.0829868037" lon="-7.5042009819">
        <ele>569.72</ele>
        <time>2020-08-13T10:29:40Z</time>
      </trkpt>
      <trkpt lat="42.0830007177" lon="-7.5042131357">
        <ele>569.72</ele>
        <time>2020-08-13T10:29:41Z</time>
      </trkpt>
      <trkpt lat="42.0830164757" lon="-7.5042252894">
        <ele>569.72</ele>
        <time>2020-08-13T10:29:42Z</time>
      </trkpt>
      <trkpt lat="42.0830290485" lon="-7.5042373594">
        <ele>569.72</ele>
        <time>2020-08-13T10:29:43Z</time>
      </trkpt>
      <trkpt lat="42.0830438845" lon="-7.5042517763">
        <ele>569.24</ele>
        <time>2020-08-13T10:29:44Z</time>
      </trkpt>
      <trkpt lat="42.0830576308" lon="-7.5042616669">
        <ele>569.24</ele>
        <time>2020-08-13T10:29:45Z</time>
      </trkpt>
      <trkpt lat="42.0830737241" lon="-7.5042733178">
        <ele>569.24</ele>
        <time>2020-08-13T10:29:46Z</time>
      </trkpt>
      <trkpt lat="42.0831692778" lon="-7.5043495093">
        <ele>569.24</ele>
        <time>2020-08-13T10:29:54Z</time>
      </trkpt>
      <trkpt lat="42.0831664279" lon="-7.5043729786">
        <ele>569.72</ele>
        <time>2020-08-13T10:30:03Z</time>
      </trkpt>
      <trkpt lat="42.0831795037" lon="-7.5043716375">
        <ele>569.72</ele>
        <time>2020-08-13T10:30:15Z</time>
      </trkpt>
      <trkpt lat="42.0831719600" lon="-7.5043680333">
        <ele>570.68</ele>
        <time>2020-08-13T10:30:28Z</time>
      </trkpt>
      <trkpt lat="42.0831516758" lon="-7.5043776724">
        <ele>570.68</ele>
        <time>2020-08-13T10:30:46Z</time>
      </trkpt>
      <trkpt lat="42.0831654221" lon="-7.5044196658">
        <ele>571.16</ele>
        <time>2020-08-13T10:31:08Z</time>
      </trkpt>
      <trkpt lat="42.0831702836" lon="-7.5044076797">
        <ele>571.16</ele>
        <time>2020-08-13T10:31:29Z</time>
      </trkpt>
      <trkpt lat="42.0831790846" lon="-7.5043410435">
        <ele>570.20</ele>
        <time>2020-08-13T10:31:53Z</time>
      </trkpt>
      <trkpt lat="42.0831904840" lon="-7.5043627527">
        <ele>567.80</ele>
        <time>2020-08-13T10:32:13Z</time>
      </trkpt>
      <trkpt lat="42.0831580460" lon="-7.5044528581">
        <ele>573.08</ele>
        <time>2020-08-13T10:32:38Z</time>
      </trkpt>
      <trkpt lat="42.0831880532" lon="-7.5044462364">
        <ele>573.56</ele>
        <time>2020-08-13T10:33:03Z</time>
      </trkpt>
      <trkpt lat="42.0831630751" lon="-7.5044273771">
        <ele>571.16</ele>
        <time>2020-08-13T10:33:31Z</time>
      </trkpt>
      <trkpt lat="42.0831461437" lon="-7.5044390280">
        <ele>573.08</ele>
        <time>2020-08-13T10:33:54Z</time>
      </trkpt>
      <trkpt lat="42.0831318945" lon="-7.5043991301">
        <ele>581.73</ele>
        <time>2020-08-13T10:34:17Z</time>
      </trkpt>
      <trkpt lat="42.0831267815" lon="-7.5043851323">
        <ele>584.62</ele>
        <time>2020-08-13T10:34:37Z</time>
      </trkpt>
      <trkpt lat="42.0831499156" lon="-7.5043897424">
        <ele>582.70</ele>
        <time>2020-08-13T10:34:54Z</time>
      </trkpt>
      <trkpt lat="42.0831749775" lon="-7.5044044107">
        <ele>583.18</ele>
        <time>2020-08-13T10:35:02Z</time>
      </trkpt>
      <trkpt lat="42.0831852872" lon="-7.5044225994">
        <ele>582.70</ele>
        <time>2020-08-13T10:35:05Z</time>
      </trkpt>
      <trkpt lat="42.0832002070" lon="-7.5044355076">
        <ele>582.70</ele>
        <time>2020-08-13T10:35:06Z</time>
      </trkpt>
      <trkpt lat="42.0832886361" lon="-7.5045311451">
        <ele>584.14</ele>
        <time>2020-08-13T10:35:13Z</time>
      </trkpt>
      <trkpt lat="42.0833438728" lon="-7.5046231784">
        <ele>584.14</ele>
        <time>2020-08-13T10:35:19Z</time>
      </trkpt>
      <trkpt lat="42.0833535120" lon="-7.5046384335">
        <ele>584.14</ele>
        <time>2020-08-13T10:35:20Z</time>
      </trkpt>
      <trkpt lat="42.0833679289" lon="-7.5046569575">
        <ele>584.14</ele>
        <time>2020-08-13T10:35:21Z</time>
      </trkpt>
      <trkpt lat="42.0833806694" lon="-7.5046763197">
        <ele>584.62</ele>
        <time>2020-08-13T10:35:22Z</time>
      </trkpt>
      <trkpt lat="42.0833927393" lon="-7.5046961010">
        <ele>584.62</ele>
        <time>2020-08-13T10:35:23Z</time>
      </trkpt>
      <trkpt lat="42.0834804140" lon="-7.5049189758">
        <ele>587.50</ele>
        <time>2020-08-13T10:35:32Z</time>
      </trkpt>
      <trkpt lat="42.0835086610" lon="-7.5051077362">
        <ele>586.06</ele>
        <time>2020-08-13T10:35:40Z</time>
      </trkpt>
      <trkpt lat="42.0834762231" lon="-7.5053881947">
        <ele>586.54</ele>
        <time>2020-08-13T10:35:49Z</time>
      </trkpt>
      <trkpt lat="42.0834395941" lon="-7.5056105666">
        <ele>586.06</ele>
        <time>2020-08-13T10:35:57Z</time>
      </trkpt>
      <trkpt lat="42.0834033005" lon="-7.5057735946">
        <ele>586.54</ele>
        <time>2020-08-13T10:36:04Z</time>
      </trkpt>
      <trkpt lat="42.0833985228" lon="-7.5057984050">
        <ele>586.54</ele>
        <time>2020-08-13T10:36:05Z</time>
      </trkpt>
      <trkpt lat="42.0833634026" lon="-7.5060009956">
        <ele>586.54</ele>
        <time>2020-08-13T10:36:14Z</time>
      </trkpt>
      <trkpt lat="42.0833587088" lon="-7.5060272310">
        <ele>586.54</ele>
        <time>2020-08-13T10:36:15Z</time>
      </trkpt>
      <trkpt lat="42.0833534282" lon="-7.5060503650">
        <ele>586.54</ele>
        <time>2020-08-13T10:36:16Z</time>
      </trkpt>
      <trkpt lat="42.0833266899" lon="-7.5061922707">
        <ele>587.02</ele>
        <time>2020-08-13T10:36:22Z</time>
      </trkpt>
      <trkpt lat="42.0832812600" lon="-7.5064112060">
        <ele>587.98</ele>
        <time>2020-08-13T10:36:31Z</time>
      </trkpt>
      <trkpt lat="42.0832703635" lon="-7.5066472404">
        <ele>586.06</ele>
        <time>2020-08-13T10:36:41Z</time>
      </trkpt>
      <trkpt lat="42.0833378378" lon="-7.5068282057">
        <ele>586.54</ele>
        <time>2020-08-13T10:36:50Z</time>
      </trkpt>
      <trkpt lat="42.0834440365" lon="-7.5069948379">
        <ele>585.10</ele>
        <time>2020-08-13T10:36:59Z</time>
      </trkpt>
      <trkpt lat="42.0835737884" lon="-7.5071809161">
        <ele>587.02</ele>
        <time>2020-08-13T10:37:10Z</time>
      </trkpt>
      <trkpt lat="42.0836803224" lon="-7.5073110871">
        <ele>586.54</ele>
        <time>2020-08-13T10:37:19Z</time>
      </trkpt>
      <trkpt lat="42.0836819150" lon="-7.5073196366">
        <ele>587.02</ele>
        <time>2020-08-13T10:37:27Z</time>
      </trkpt>
      <trkpt lat="42.0837324578" lon="-7.5073823333">
        <ele>587.50</ele>
        <time>2020-08-13T10:37:33Z</time>
      </trkpt>
      <trkpt lat="42.0838341303" lon="-7.5075516477">
        <ele>589.43</ele>
        <time>2020-08-13T10:37:42Z</time>
      </trkpt>
      <trkpt lat="42.0839734375" lon="-7.5077361334">
        <ele>589.43</ele>
        <time>2020-08-13T10:37:53Z</time>
      </trkpt>
      <trkpt lat="42.0841040276" lon="-7.5079133268">
        <ele>591.83</ele>
        <time>2020-08-13T10:38:04Z</time>
      </trkpt>
      <trkpt lat="42.0842538960" lon="-7.5081055239">
        <ele>592.79</ele>
        <time>2020-08-13T10:38:15Z</time>
      </trkpt>
      <trkpt lat="42.0843733381" lon="-7.5082242116">
        <ele>593.27</ele>
        <time>2020-08-13T10:38:23Z</time>
      </trkpt>
      <trkpt lat="42.0845459215" lon="-7.5082319230">
        <ele>593.75</ele>
        <time>2020-08-13T10:38:32Z</time>
      </trkpt>
      <trkpt lat="42.0846921019" lon="-7.5081510376">
        <ele>595.19</ele>
        <time>2020-08-13T10:38:41Z</time>
      </trkpt>
      <trkpt lat="42.0848326664" lon="-7.5080599263">
        <ele>596.64</ele>
        <time>2020-08-13T10:38:50Z</time>
      </trkpt>
      <trkpt lat="42.0849899109" lon="-7.5079894345">
        <ele>598.56</ele>
        <time>2020-08-13T10:39:00Z</time>
      </trkpt>
      <trkpt lat="42.0851388574" lon="-7.5079881772">
        <ele>598.56</ele>
        <time>2020-08-13T10:39:08Z</time>
      </trkpt>
      <trkpt lat="42.0852987003" lon="-7.5080286618">
        <ele>600.96</ele>
        <time>2020-08-13T10:39:17Z</time>
      </trkpt>
      <trkpt lat="42.0854523405" lon="-7.5080879219">
        <ele>603.85</ele>
        <time>2020-08-13T10:39:26Z</time>
      </trkpt>
      <trkpt lat="42.0856052265" lon="-7.5081623532">
        <ele>605.29</ele>
        <time>2020-08-13T10:39:35Z</time>
      </trkpt>
      <trkpt lat="42.0857338887" lon="-7.5082617626">
        <ele>608.17</ele>
        <time>2020-08-13T10:39:44Z</time>
      </trkpt>
      <trkpt lat="42.0858244132" lon="-7.5084264670">
        <ele>607.21</ele>
        <time>2020-08-13T10:39:53Z</time>
      </trkpt>
      <trkpt lat="42.0858478826" lon="-7.5086394511">
        <ele>604.81</ele>
        <time>2020-08-13T10:40:03Z</time>
      </trkpt>
      <trkpt lat="42.0857898798" lon="-7.5088610686">
        <ele>605.29</ele>
        <time>2020-08-13T10:40:13Z</time>
      </trkpt>
      <trkpt lat="42.0856539253" lon="-7.5090887211">
        <ele>606.73</ele>
        <time>2020-08-13T10:40:24Z</time>
      </trkpt>
      <trkpt lat="42.0855453797" lon="-7.5092620589">
        <ele>607.21</ele>
        <time>2020-08-13T10:40:33Z</time>
      </trkpt>
      <trkpt lat="42.0854504127" lon="-7.5095048826">
        <ele>607.69</ele>
        <time>2020-08-13T10:40:43Z</time>
      </trkpt>
      <trkpt lat="42.0853919908" lon="-7.5097240694">
        <ele>609.13</ele>
        <time>2020-08-13T10:40:52Z</time>
      </trkpt>
      <trkpt lat="42.0853640791" lon="-7.5099549908">
        <ele>609.13</ele>
        <time>2020-08-13T10:41:01Z</time>
      </trkpt>
      <trkpt lat="42.0853499137" lon="-7.5102367066">
        <ele>609.61</ele>
        <time>2020-08-13T10:41:12Z</time>
      </trkpt>
      <trkpt lat="42.0853715390" lon="-7.5104744174">
        <ele>611.54</ele>
        <time>2020-08-13T10:41:20Z</time>
      </trkpt>
      <trkpt lat="42.0854708645" lon="-7.5106787682">
        <ele>612.98</ele>
        <time>2020-08-13T10:41:29Z</time>
      </trkpt>
      <trkpt lat="42.0855963416" lon="-7.5108410418">
        <ele>614.42</ele>
        <time>2020-08-13T10:41:38Z</time>
      </trkpt>
      <trkpt lat="42.0857096650" lon="-7.5110145472">
        <ele>615.38</ele>
        <time>2020-08-13T10:41:47Z</time>
      </trkpt>
      <trkpt lat="42.0857994352" lon="-7.5112551078">
        <ele>617.78</ele>
        <time>2020-08-13T10:41:57Z</time>
      </trkpt>
      <trkpt lat="42.0858473796" lon="-7.5114878733">
        <ele>618.26</ele>
        <time>2020-08-13T10:42:06Z</time>
      </trkpt>
      <trkpt lat="42.0858787280" lon="-7.5117296912">
        <ele>617.30</ele>
        <time>2020-08-13T10:42:15Z</time>
      </trkpt>
      <trkpt lat="42.0859334618" lon="-7.5119325332">
        <ele>617.30</ele>
        <time>2020-08-13T10:42:23Z</time>
      </trkpt>
      <trkpt lat="42.0860228129" lon="-7.5121151749">
        <ele>617.30</ele>
        <time>2020-08-13T10:42:31Z</time>
      </trkpt>
      <trkpt lat="42.0861506369" lon="-7.5123296678">
        <ele>617.30</ele>
        <time>2020-08-13T10:42:41Z</time>
      </trkpt>
      <trkpt lat="42.0862844121" lon="-7.5125410594">
        <ele>617.78</ele>
        <time>2020-08-13T10:42:51Z</time>
      </trkpt>
      <trkpt lat="42.0864135772" lon="-7.5127475057">
        <ele>618.26</ele>
        <time>2020-08-13T10:43:01Z</time>
      </trkpt>
      <trkpt lat="42.0865420718" lon="-7.5129593164">
        <ele>618.26</ele>
        <time>2020-08-13T10:43:11Z</time>
      </trkpt>
      <trkpt lat="42.0866576582" lon="-7.5131495018">
        <ele>618.75</ele>
        <time>2020-08-13T10:43:20Z</time>
      </trkpt>
      <trkpt lat="42.0867823809" lon="-7.5133680180">
        <ele>621.63</ele>
        <time>2020-08-13T10:43:30Z</time>
      </trkpt>
      <trkpt lat="42.0869330876" lon="-7.5136076566">
        <ele>623.07</ele>
        <time>2020-08-13T10:43:42Z</time>
      </trkpt>
      <trkpt lat="42.0870640129" lon="-7.5138120912">
        <ele>624.03</ele>
        <time>2020-08-13T10:43:53Z</time>
      </trkpt>
      <trkpt lat="42.0871804375" lon="-7.5139974989">
        <ele>625.47</ele>
        <time>2020-08-13T10:44:03Z</time>
      </trkpt>
      <trkpt lat="42.0872953534" lon="-7.5141858403">
        <ele>626.92</ele>
        <time>2020-08-13T10:44:13Z</time>
      </trkpt>
      <trkpt lat="42.0873965230" lon="-7.5143412407">
        <ele>627.40</ele>
        <time>2020-08-13T10:44:22Z</time>
      </trkpt>
      <trkpt lat="42.0874800906" lon="-7.5144824758">
        <ele>627.88</ele>
        <time>2020-08-13T10:44:30Z</time>
      </trkpt>
      <trkpt lat="42.0875844453" lon="-7.5146316737">
        <ele>629.32</ele>
        <time>2020-08-13T10:44:39Z</time>
      </trkpt>
      <trkpt lat="42.0877290331" lon="-7.5147836376">
        <ele>630.28</ele>
        <time>2020-08-13T10:44:50Z</time>
      </trkpt>
      <trkpt lat="42.0878866129" lon="-7.5148782693">
        <ele>631.72</ele>
        <time>2020-08-13T10:45:00Z</time>
      </trkpt>
      <trkpt lat="42.0880767144" lon="-7.5149358530">
        <ele>633.65</ele>
        <time>2020-08-13T10:45:11Z</time>
      </trkpt>
      <trkpt lat="42.0882229786" lon="-7.5149804447">
        <ele>636.05</ele>
        <time>2020-08-13T10:45:20Z</time>
      </trkpt>
      <trkpt lat="42.0884031057" lon="-7.5150164030">
        <ele>639.89</ele>
        <time>2020-08-13T10:45:31Z</time>
      </trkpt>
      <trkpt lat="42.0885632839" lon="-7.5151012279">
        <ele>641.34</ele>
        <time>2020-08-13T10:45:42Z</time>
      </trkpt>
      <trkpt lat="42.0886716619" lon="-7.5151863880">
        <ele>641.34</ele>
        <time>2020-08-13T10:45:50Z</time>
      </trkpt>
      <trkpt lat="42.0888127293" lon="-7.5153645873">
        <ele>641.34</ele>
        <time>2020-08-13T10:46:02Z</time>
      </trkpt>
      <trkpt lat="42.0889113005" lon="-7.5155260228">
        <ele>640.86</ele>
        <time>2020-08-13T10:46:12Z</time>
      </trkpt>
      <trkpt lat="42.0889424812" lon="-7.5155880488">
        <ele>640.38</ele>
        <time>2020-08-13T10:46:16Z</time>
      </trkpt>
      <trkpt lat="42.0889460016" lon="-7.5156057347">
        <ele>640.38</ele>
        <time>2020-08-13T10:46:17Z</time>
      </trkpt>
      <trkpt lat="42.0889511984" lon="-7.5156284496">
        <ele>640.38</ele>
        <time>2020-08-13T10:46:18Z</time>
      </trkpt>
      <trkpt lat="42.0889957063" lon="-7.5157379173">
        <ele>640.38</ele>
        <time>2020-08-13T10:46:27Z</time>
      </trkpt>
      <trkpt lat="42.0889988076" lon="-7.5157426950">
        <ele>639.41</ele>
        <time>2020-08-13T10:46:40Z</time>
      </trkpt>
      <trkpt lat="42.0890061837" lon="-7.5157488137">
        <ele>640.38</ele>
        <time>2020-08-13T10:46:56Z</time>
      </trkpt>
      <trkpt lat="42.0889975503" lon="-7.5157504901">
        <ele>637.97</ele>
        <time>2020-08-13T10:47:15Z</time>
      </trkpt>
      <trkpt lat="42.0890045073" lon="-7.5157644879">
        <ele>635.57</ele>
        <time>2020-08-13T10:47:38Z</time>
      </trkpt>
      <trkpt lat="42.0890090335" lon="-7.5157570280">
        <ele>636.05</ele>
        <time>2020-08-13T10:48:04Z</time>
      </trkpt>
      <trkpt lat="42.0890054293" lon="-7.5157442037">
        <ele>637.97</ele>
        <time>2020-08-13T10:48:29Z</time>
      </trkpt>
      <trkpt lat="42.0890050102" lon="-7.5157520827">
        <ele>637.97</ele>
        <time>2020-08-13T10:48:30Z</time>
      </trkpt>
      <trkpt lat="42.0890189242" lon="-7.5158918928">
        <ele>638.93</ele>
        <time>2020-08-13T10:48:37Z</time>
      </trkpt>
      <trkpt lat="42.0890291501" lon="-7.5160999317">
        <ele>639.41</ele>
        <time>2020-08-13T10:48:45Z</time>
      </trkpt>
      <trkpt lat="42.0890485961" lon="-7.5163772888">
        <ele>640.86</ele>
        <time>2020-08-13T10:48:56Z</time>
      </trkpt>
      <trkpt lat="42.0891112089" lon="-7.5166138262">
        <ele>642.78</ele>
        <time>2020-08-13T10:49:06Z</time>
      </trkpt>
      <trkpt lat="42.0892397873" lon="-7.5168481842">
        <ele>645.18</ele>
        <time>2020-08-13T10:49:17Z</time>
      </trkpt>
      <trkpt lat="42.0893152244" lon="-7.5170547981">
        <ele>646.62</ele>
        <time>2020-08-13T10:49:27Z</time>
      </trkpt>
      <trkpt lat="42.0893271267" lon="-7.5171958655">
        <ele>646.62</ele>
        <time>2020-08-13T10:49:35Z</time>
      </trkpt>
      <trkpt lat="42.0893214270" lon="-7.5174215063">
        <ele>647.59</ele>
        <time>2020-08-13T10:49:44Z</time>
      </trkpt>
      <trkpt lat="42.0893042441" lon="-7.5176100992">
        <ele>648.55</ele>
        <time>2020-08-13T10:49:52Z</time>
      </trkpt>
      <trkpt lat="42.0893410407" lon="-7.5177561119">
        <ele>649.99</ele>
        <time>2020-08-13T10:49:59Z</time>
      </trkpt>
      <trkpt lat="42.0893780887" lon="-7.5178055651">
        <ele>650.95</ele>
        <time>2020-08-13T10:50:02Z</time>
      </trkpt>
      <trkpt lat="42.0893930923" lon="-7.5178183895">
        <ele>651.43</ele>
        <time>2020-08-13T10:50:03Z</time>
      </trkpt>
      <trkpt lat="42.0895437989" lon="-7.5178582873">
        <ele>653.35</ele>
        <time>2020-08-13T10:50:12Z</time>
      </trkpt>
      <trkpt lat="42.0896129496" lon="-7.5178152882">
        <ele>655.28</ele>
        <time>2020-08-13T10:50:18Z</time>
      </trkpt>
      <trkpt lat="42.0896519255" lon="-7.5177847780">
        <ele>656.24</ele>
        <time>2020-08-13T10:50:21Z</time>
      </trkpt>
      <trkpt lat="42.0896674320" lon="-7.5177803356">
        <ele>656.72</ele>
        <time>2020-08-13T10:50:22Z</time>
      </trkpt>
      <trkpt lat="42.0897596329" lon="-7.5177452993">
        <ele>658.16</ele>
        <time>2020-08-13T10:50:30Z</time>
      </trkpt>
      <trkpt lat="42.0897655841" lon="-7.5177354086">
        <ele>658.16</ele>
        <time>2020-08-13T10:50:37Z</time>
      </trkpt>
      <trkpt lat="42.0897701941" lon="-7.5177442934">
        <ele>656.72</ele>
        <time>2020-08-13T10:50:51Z</time>
      </trkpt>
      <trkpt lat="42.0897704456" lon="-7.5177503284">
        <ele>657.20</ele>
        <time>2020-08-13T10:51:02Z</time>
      </trkpt>
      <trkpt lat="42.0897551067" lon="-7.5177540164">
        <ele>658.16</ele>
        <time>2020-08-13T10:51:20Z</time>
      </trkpt>
      <trkpt lat="42.0897603873" lon="-7.5177313853">
        <ele>660.56</ele>
        <time>2020-08-13T10:51:39Z</time>
      </trkpt>
      <trkpt lat="42.0897585433" lon="-7.5177276134">
        <ele>660.08</ele>
        <time>2020-08-13T10:51:58Z</time>
      </trkpt>
      <trkpt lat="42.0897477306" lon="-7.5177408569">
        <ele>661.52</ele>
        <time>2020-08-13T10:52:13Z</time>
      </trkpt>
      <trkpt lat="42.0897561125" lon="-7.5177462213">
        <ele>660.56</ele>
        <time>2020-08-13T10:52:18Z</time>
      </trkpt>
      <trkpt lat="42.0898420271" lon="-7.5178075768">
        <ele>660.08</ele>
        <time>2020-08-13T10:52:25Z</time>
      </trkpt>
      <trkpt lat="42.0899177995" lon="-7.5179512426">
        <ele>661.04</ele>
        <time>2020-08-13T10:52:33Z</time>
      </trkpt>
      <trkpt lat="42.0899188891" lon="-7.5181467086">
        <ele>661.52</ele>
        <time>2020-08-13T10:52:41Z</time>
      </trkpt>
      <trkpt lat="42.0898444578" lon="-7.5183994230">
        <ele>662.01</ele>
        <time>2020-08-13T10:52:52Z</time>
      </trkpt>
      <trkpt lat="42.0897578727" lon="-7.5185589306">
        <ele>663.93</ele>
        <time>2020-08-13T10:53:00Z</time>
      </trkpt>
      <trkpt lat="42.0896649174" lon="-7.5187393092">
        <ele>665.37</ele>
        <time>2020-08-13T10:53:09Z</time>
      </trkpt>
      <trkpt lat="42.0896453038" lon="-7.5188325997">
        <ele>665.85</ele>
        <time>2020-08-13T10:53:13Z</time>
      </trkpt>
      <trkpt lat="42.0896468125" lon="-7.5188557338">
        <ele>665.85</ele>
        <time>2020-08-13T10:53:14Z</time>
      </trkpt>
      <trkpt lat="42.0896465611" lon="-7.5188797060">
        <ele>665.85</ele>
        <time>2020-08-13T10:53:15Z</time>
      </trkpt>
      <trkpt lat="42.0896507520" lon="-7.5189030915">
        <ele>665.37</ele>
        <time>2020-08-13T10:53:16Z</time>
      </trkpt>
      <trkpt lat="42.0896550268" lon="-7.5189286564">
        <ele>665.37</ele>
        <time>2020-08-13T10:53:17Z</time>
      </trkpt>
      <trkpt lat="42.0897532627" lon="-7.5190931093">
        <ele>667.29</ele>
        <time>2020-08-13T10:53:26Z</time>
      </trkpt>
      <trkpt lat="42.0899238344" lon="-7.5191354379">
        <ele>669.70</ele>
        <time>2020-08-13T10:53:35Z</time>
      </trkpt>
      <trkpt lat="42.0900550950" lon="-7.5191363599">
        <ele>670.66</ele>
        <time>2020-08-13T10:53:43Z</time>
      </trkpt>
      <trkpt lat="42.0901288558" lon="-7.5191312470">
        <ele>672.10</ele>
        <time>2020-08-13T10:53:50Z</time>
      </trkpt>
      <trkpt lat="42.0902767126" lon="-7.5191126391">
        <ele>674.98</ele>
        <time>2020-08-13T10:54:00Z</time>
      </trkpt>
      <trkpt lat="42.0903872699" lon="-7.5191290677">
        <ele>676.42</ele>
        <time>2020-08-13T10:54:07Z</time>
      </trkpt>
      <trkpt lat="42.0905223023" lon="-7.5192195084">
        <ele>677.39</ele>
        <time>2020-08-13T10:54:15Z</time>
      </trkpt>
      <trkpt lat="42.0906390622" lon="-7.5194152258">
        <ele>677.39</ele>
        <time>2020-08-13T10:54:25Z</time>
      </trkpt>
      <trkpt lat="42.0907956362" lon="-7.5195956044">
        <ele>678.35</ele>
        <time>2020-08-13T10:54:36Z</time>
      </trkpt>
      <trkpt lat="42.0909234602" lon="-7.5196048245">
        <ele>681.23</ele>
        <time>2020-08-13T10:54:44Z</time>
      </trkpt>
      <trkpt lat="42.0910364483" lon="-7.5195720512">
        <ele>683.15</ele>
        <time>2020-08-13T10:54:51Z</time>
      </trkpt>
      <trkpt lat="42.0910532121" lon="-7.5195696205">
        <ele>683.15</ele>
        <time>2020-08-13T10:54:52Z</time>
      </trkpt>
      <trkpt lat="42.0912138093" lon="-7.5196225941">
        <ele>685.08</ele>
        <time>2020-08-13T10:55:01Z</time>
      </trkpt>
      <trkpt lat="42.0913459919" lon="-7.5198021345">
        <ele>684.60</ele>
        <time>2020-08-13T10:55:11Z</time>
      </trkpt>
      <trkpt lat="42.0913774241" lon="-7.5198589638">
        <ele>684.60</ele>
        <time>2020-08-13T10:55:16Z</time>
      </trkpt>
      <trkpt lat="42.0913811121" lon="-7.5198751409">
        <ele>684.12</ele>
        <time>2020-08-13T10:55:17Z</time>
      </trkpt>
      <trkpt lat="42.0914436411" lon="-7.5200841017">
        <ele>684.60</ele>
        <time>2020-08-13T10:55:27Z</time>
      </trkpt>
      <trkpt lat="42.0915076789" lon="-7.5202224031">
        <ele>685.56</ele>
        <time>2020-08-13T10:55:34Z</time>
      </trkpt>
      <trkpt lat="42.0916049089" lon="-7.5204047095">
        <ele>687.00</ele>
        <time>2020-08-13T10:55:43Z</time>
      </trkpt>
      <trkpt lat="42.0917497482" lon="-7.5205349643">
        <ele>689.40</ele>
        <time>2020-08-13T10:55:53Z</time>
      </trkpt>
      <trkpt lat="42.0919002872" lon="-7.5206617825">
        <ele>690.36</ele>
        <time>2020-08-13T10:56:03Z</time>
      </trkpt>
      <trkpt lat="42.0919759758" lon="-7.5208560750">
        <ele>691.33</ele>
        <time>2020-08-13T10:56:12Z</time>
      </trkpt>
      <trkpt lat="42.0919900574" lon="-7.5209447555">
        <ele>691.81</ele>
        <time>2020-08-13T10:56:16Z</time>
      </trkpt>
      <trkpt lat="42.0920181368" lon="-7.5211108848">
        <ele>692.29</ele>
        <time>2020-08-13T10:56:26Z</time>
      </trkpt>
      <trkpt lat="42.0920283627" lon="-7.5211196020">
        <ele>691.33</ele>
        <time>2020-08-13T10:56:38Z</time>
      </trkpt>
      <trkpt lat="42.0920139458" lon="-7.5211174227">
        <ele>692.29</ele>
        <time>2020-08-13T10:56:58Z</time>
      </trkpt>
      <trkpt lat="42.0920198131" lon="-7.5211152434">
        <ele>692.77</ele>
        <time>2020-08-13T10:57:13Z</time>
      </trkpt>
      <trkpt lat="42.0920383371" lon="-7.5211681332">
        <ele>692.29</ele>
        <time>2020-08-13T10:57:25Z</time>
      </trkpt>
      <trkpt lat="42.0921253413" lon="-7.5213038363">
        <ele>693.73</ele>
        <time>2020-08-13T10:57:33Z</time>
      </trkpt>
      <trkpt lat="42.0922337193" lon="-7.5213607494">
        <ele>695.65</ele>
        <time>2020-08-13T10:57:40Z</time>
      </trkpt>
      <trkpt lat="42.0923841745" lon="-7.5213553011">
        <ele>698.53</ele>
        <time>2020-08-13T10:57:49Z</time>
      </trkpt>
      <trkpt lat="42.0924766269" lon="-7.5213413034">
        <ele>699.50</ele>
        <time>2020-08-13T10:57:57Z</time>
      </trkpt>
      <trkpt lat="42.0925952308" lon="-7.5213387050">
        <ele>700.46</ele>
        <time>2020-08-13T10:58:06Z</time>
      </trkpt>
      <trkpt lat="42.0927094761" lon="-7.5213797763">
        <ele>701.90</ele>
        <time>2020-08-13T10:58:15Z</time>
      </trkpt>
      <trkpt lat="42.0927855000" lon="-7.5214448199">
        <ele>703.34</ele>
        <time>2020-08-13T10:58:23Z</time>
      </trkpt>
      <trkpt lat="42.0928425808" lon="-7.5215323269">
        <ele>703.34</ele>
        <time>2020-08-13T10:58:29Z</time>
      </trkpt>
      <trkpt lat="42.0928645413" lon="-7.5216032378">
        <ele>703.82</ele>
        <time>2020-08-13T10:58:34Z</time>
      </trkpt>
      <trkpt lat="42.0928649604" lon="-7.5216188282">
        <ele>703.82</ele>
        <time>2020-08-13T10:58:35Z</time>
      </trkpt>
      <trkpt lat="42.0928700734" lon="-7.5216365140">
        <ele>703.82</ele>
        <time>2020-08-13T10:58:36Z</time>
      </trkpt>
      <trkpt lat="42.0928748511" lon="-7.5216547027">
        <ele>704.30</ele>
        <time>2020-08-13T10:58:37Z</time>
      </trkpt>
      <trkpt lat="42.0928770304" lon="-7.5216760766">
        <ele>704.30</ele>
        <time>2020-08-13T10:58:38Z</time>
      </trkpt>
      <trkpt lat="42.0928778686" lon="-7.5216974504">
        <ele>703.82</ele>
        <time>2020-08-13T10:58:39Z</time>
      </trkpt>
      <trkpt lat="42.0929057803" lon="-7.5218092650">
        <ele>704.78</ele>
        <time>2020-08-13T10:58:45Z</time>
      </trkpt>
      <trkpt lat="42.0929076243" lon="-7.5218287949">
        <ele>704.78</ele>
        <time>2020-08-13T10:58:46Z</time>
      </trkpt>
      <trkpt lat="42.0929093845" lon="-7.5218519289">
        <ele>704.78</ele>
        <time>2020-08-13T10:58:47Z</time>
      </trkpt>
      <trkpt lat="42.0929119829" lon="-7.5218739733">
        <ele>704.78</ele>
        <time>2020-08-13T10:58:48Z</time>
      </trkpt>
      <trkpt lat="42.0929138269" lon="-7.5218973588">
        <ele>704.78</ele>
        <time>2020-08-13T10:58:49Z</time>
      </trkpt>
      <trkpt lat="42.0929186046" lon="-7.5219162181">
        <ele>705.26</ele>
        <time>2020-08-13T10:58:50Z</time>
      </trkpt>
      <trkpt lat="42.0929541439" lon="-7.5220271945">
        <ele>705.75</ele>
        <time>2020-08-13T10:58:56Z</time>
      </trkpt>
      <trkpt lat="42.0929662976" lon="-7.5220407732">
        <ele>706.23</ele>
        <time>2020-08-13T10:58:57Z</time>
      </trkpt>
      <trkpt lat="42.0931132324" lon="-7.5221092533">
        <ele>708.15</ele>
        <time>2020-08-13T10:59:06Z</time>
      </trkpt>
      <trkpt lat="42.0932933595" lon="-7.5220303796">
        <ele>709.11</ele>
        <time>2020-08-13T10:59:16Z</time>
      </trkpt>
      <trkpt lat="42.0934649371" lon="-7.5219841115">
        <ele>711.03</ele>
        <time>2020-08-13T10:59:25Z</time>
      </trkpt>
      <trkpt lat="42.0936419629" lon="-7.5219909009">
        <ele>712.47</ele>
        <time>2020-08-13T10:59:34Z</time>
      </trkpt>
      <trkpt lat="42.0938362554" lon="-7.5220552739">
        <ele>713.44</ele>
        <time>2020-08-13T10:59:44Z</time>
      </trkpt>
      <trkpt lat="42.0940295421" lon="-7.5221287832">
        <ele>713.92</ele>
        <time>2020-08-13T10:59:55Z</time>
      </trkpt>
      <trkpt lat="42.0942380000" lon="-7.5221631490">
        <ele>715.84</ele>
        <time>2020-08-13T11:00:06Z</time>
      </trkpt>
      <trkpt lat="42.0944073144" lon="-7.5221090857">
        <ele>717.76</ele>
        <time>2020-08-13T11:00:15Z</time>
      </trkpt>
      <trkpt lat="42.0945709292" lon="-7.5219783280">
        <ele>718.72</ele>
        <time>2020-08-13T11:00:25Z</time>
      </trkpt>
      <trkpt lat="42.0947055425" lon="-7.5218470674">
        <ele>720.16</ele>
        <time>2020-08-13T11:00:34Z</time>
      </trkpt>
      <trkpt lat="42.0948471967" lon="-7.5217781682">
        <ele>721.61</ele>
        <time>2020-08-13T11:00:43Z</time>
      </trkpt>
      <trkpt lat="42.0949530602" lon="-7.5217938423">
        <ele>723.05</ele>
        <time>2020-08-13T11:00:50Z</time>
      </trkpt>
      <trkpt lat="42.0950590074" lon="-7.5218699500">
        <ele>724.01</ele>
        <time>2020-08-13T11:00:58Z</time>
      </trkpt>
      <trkpt lat="42.0951346960" lon="-7.5219658390">
        <ele>724.01</ele>
        <time>2020-08-13T11:01:05Z</time>
      </trkpt>
      <trkpt lat="42.0952146593" lon="-7.5221421104">
        <ele>724.97</ele>
        <time>2020-08-13T11:01:14Z</time>
      </trkpt>
      <trkpt lat="42.0952848159" lon="-7.5223241653">
        <ele>725.93</ele>
        <time>2020-08-13T11:01:23Z</time>
      </trkpt>
      <trkpt lat="42.0953641925" lon="-7.5225464534">
        <ele>727.37</ele>
        <time>2020-08-13T11:01:34Z</time>
      </trkpt>
      <trkpt lat="42.0954725705" lon="-7.5227622036">
        <ele>728.34</ele>
        <time>2020-08-13T11:01:45Z</time>
      </trkpt>
      <trkpt lat="42.0954942796" lon="-7.5228081364">
        <ele>728.34</ele>
        <time>2020-08-13T11:01:51Z</time>
      </trkpt>
      <trkpt lat="42.0954915136" lon="-7.5228026044">
        <ele>728.34</ele>
        <time>2020-08-13T11:02:01Z</time>
      </trkpt>
      <trkpt lat="42.0954944473" lon="-7.5228134170">
        <ele>728.82</ele>
        <time>2020-08-13T11:02:11Z</time>
      </trkpt>
      <trkpt lat="42.0955097862" lon="-7.5227946416">
        <ele>727.37</ele>
        <time>2020-08-13T11:02:31Z</time>
      </trkpt>
      <trkpt lat="42.0954957884" lon="-7.5227986649">
        <ele>729.30</ele>
        <time>2020-08-13T11:02:55Z</time>
      </trkpt>
      <trkpt lat="42.0954978839" lon="-7.5228067953">
        <ele>729.30</ele>
        <time>2020-08-13T11:03:10Z</time>
      </trkpt>
      <trkpt lat="42.0955052599" lon="-7.5227760337">
        <ele>729.78</ele>
        <time>2020-08-13T11:03:30Z</time>
      </trkpt>
      <trkpt lat="42.0954989735" lon="-7.5228010118">
        <ele>728.34</ele>
        <time>2020-08-13T11:03:51Z</time>
      </trkpt>
      <trkpt lat="42.0954970457" lon="-7.5227912888">
        <ele>727.37</ele>
        <time>2020-08-13T11:04:11Z</time>
      </trkpt>
      <trkpt lat="42.0955034997" lon="-7.5227991678">
        <ele>727.86</ele>
        <time>2020-08-13T11:04:29Z</time>
      </trkpt>
      <trkpt lat="42.0955063496" lon="-7.5228035264">
        <ele>727.86</ele>
        <time>2020-08-13T11:04:45Z</time>
      </trkpt>
      <trkpt lat="42.0954997279" lon="-7.5227982458">
        <ele>728.34</ele>
        <time>2020-08-13T11:05:07Z</time>
      </trkpt>
      <trkpt lat="42.0954896696" lon="-7.5227929652">
        <ele>730.74</ele>
        <time>2020-08-13T11:05:23Z</time>
      </trkpt>
      <trkpt lat="42.0954827964" lon="-7.5227893610">
        <ele>733.62</ele>
        <time>2020-08-13T11:05:42Z</time>
      </trkpt>
      <trkpt lat="42.0954877418" lon="-7.5227936357">
        <ele>731.22</ele>
        <time>2020-08-13T11:06:00Z</time>
      </trkpt>
      <trkpt lat="42.0955060981" lon="-7.5228067115">
        <ele>729.30</ele>
        <time>2020-08-13T11:06:19Z</time>
      </trkpt>
      <trkpt lat="42.0954935253" lon="-7.5228059571">
        <ele>727.86</ele>
        <time>2020-08-13T11:06:37Z</time>
      </trkpt>
      <trkpt lat="42.0954879094" lon="-7.5227935519">
        <ele>728.82</ele>
        <time>2020-08-13T11:06:57Z</time>
      </trkpt>
      <trkpt lat="42.0955059305" lon="-7.5227974914">
        <ele>727.86</ele>
        <time>2020-08-13T11:07:12Z</time>
      </trkpt>
      <trkpt lat="42.0954923518" lon="-7.5227945577">
        <ele>728.82</ele>
        <time>2020-08-13T11:07:28Z</time>
      </trkpt>
      <trkpt lat="42.0954803657" lon="-7.5227809791">
        <ele>729.78</ele>
        <time>2020-08-13T11:07:47Z</time>
      </trkpt>
      <trkpt lat="42.0954799466" lon="-7.5227952283">
        <ele>728.82</ele>
        <time>2020-08-13T11:08:06Z</time>
      </trkpt>
      <trkpt lat="42.0954935253" lon="-7.5228141714">
        <ele>729.30</ele>
        <time>2020-08-13T11:08:33Z</time>
      </trkpt>
      <trkpt lat="42.0954932738" lon="-7.5228088070">
        <ele>728.34</ele>
        <time>2020-08-13T11:09:03Z</time>
      </trkpt>
      <trkpt lat="42.0955052599" lon="-7.5228092261">
        <ele>726.41</ele>
        <time>2020-08-13T11:09:26Z</time>
      </trkpt>
      <trkpt lat="42.0954934414" lon="-7.5228079688">
        <ele>729.78</ele>
        <time>2020-08-13T11:09:50Z</time>
      </trkpt>
      <trkpt lat="42.0954923518" lon="-7.5228057895">
        <ele>728.34</ele>
        <time>2020-08-13T11:10:13Z</time>
      </trkpt>
      <trkpt lat="42.0954878256" lon="-7.5228423346">
        <ele>729.30</ele>
        <time>2020-08-13T11:10:21Z</time>
      </trkpt>
      <trkpt lat="42.0954845566" lon="-7.5228769518">
        <ele>730.26</ele>
        <time>2020-08-13T11:10:26Z</time>
      </trkpt>
      <trkpt lat="42.0954863168" lon="-7.5228969008">
        <ele>730.74</ele>
        <time>2020-08-13T11:10:27Z</time>
      </trkpt>
      <trkpt lat="42.0954879932" lon="-7.5229139999">
        <ele>730.74</ele>
        <time>2020-08-13T11:10:28Z</time>
      </trkpt>
      <trkpt lat="42.0954889990" lon="-7.5229368825">
        <ele>730.74</ele>
        <time>2020-08-13T11:10:29Z</time>
      </trkpt>
      <trkpt lat="42.0954919327" lon="-7.5229578372">
        <ele>730.74</ele>
        <time>2020-08-13T11:10:30Z</time>
      </trkpt>
      <trkpt lat="42.0955304056" lon="-7.5231427420">
        <ele>732.66</ele>
        <time>2020-08-13T11:10:39Z</time>
      </trkpt>
      <trkpt lat="42.0955957845" lon="-7.5233553071">
        <ele>733.14</ele>
        <time>2020-08-13T11:10:50Z</time>
      </trkpt>
      <trkpt lat="42.0956790168" lon="-7.5235510245">
        <ele>733.14</ele>
        <time>2020-08-13T11:11:01Z</time>
      </trkpt>
      <trkpt lat="42.0957858022" lon="-7.5236943550">
        <ele>734.10</ele>
        <time>2020-08-13T11:11:10Z</time>
      </trkpt>
      <trkpt lat="42.0959429629" lon="-7.5238019787">
        <ele>736.03</ele>
        <time>2020-08-13T11:11:20Z</time>
      </trkpt>
      <trkpt lat="42.0961118583" lon="-7.5238668546">
        <ele>737.95</ele>
        <time>2020-08-13T11:11:30Z</time>
      </trkpt>
      <trkpt lat="42.0963064861" lon="-7.5239240192">
        <ele>741.31</ele>
        <time>2020-08-13T11:11:41Z</time>
      </trkpt>
      <trkpt lat="42.0964844339" lon="-7.5240352470">
        <ele>742.28</ele>
        <time>2020-08-13T11:11:52Z</time>
      </trkpt>
      <trkpt lat="42.0966101624" lon="-7.5241867919">
        <ele>743.24</ele>
        <time>2020-08-13T11:12:02Z</time>
      </trkpt>
      <trkpt lat="42.0966966636" lon="-7.5243129395">
        <ele>743.72</ele>
        <time>2020-08-13T11:12:10Z</time>
      </trkpt>
      <trkpt lat="42.0968452748" lon="-7.5244403444">
        <ele>745.64</ele>
        <time>2020-08-13T11:12:21Z</time>
      </trkpt>
      <trkpt lat="42.0970128290" lon="-7.5244954135">
        <ele>746.60</ele>
        <time>2020-08-13T11:12:31Z</time>
      </trkpt>
      <trkpt lat="42.0972186048" lon="-7.5245296955">
        <ele>748.52</ele>
        <time>2020-08-13T11:12:43Z</time>
      </trkpt>
      <trkpt lat="42.0973820519" lon="-7.5245529972">
        <ele>750.45</ele>
        <time>2020-08-13T11:12:53Z</time>
      </trkpt>
      <trkpt lat="42.0975704771" lon="-7.5245842617">
        <ele>750.93</ele>
        <time>2020-08-13T11:13:05Z</time>
      </trkpt>
      <trkpt lat="42.0977024082" lon="-7.5246068928">
        <ele>750.93</ele>
        <time>2020-08-13T11:13:14Z</time>
      </trkpt>
      <trkpt lat="42.0978830382" lon="-7.5246969983">
        <ele>751.89</ele>
        <time>2020-08-13T11:13:25Z</time>
      </trkpt>
      <trkpt lat="42.0979974512" lon="-7.5247708429">
        <ele>752.85</ele>
        <time>2020-08-13T11:13:33Z</time>
      </trkpt>
      <trkpt lat="42.0981279574" lon="-7.5249127485">
        <ele>754.29</ele>
        <time>2020-08-13T11:13:43Z</time>
      </trkpt>
      <trkpt lat="42.0982349943" lon="-7.5250782073">
        <ele>754.77</ele>
        <time>2020-08-13T11:13:53Z</time>
      </trkpt>
      <trkpt lat="42.0983265247" lon="-7.5252597593">
        <ele>756.21</ele>
        <time>2020-08-13T11:14:03Z</time>
      </trkpt>
      <trkpt lat="42.0983962622" lon="-7.5254617631">
        <ele>757.18</ele>
        <time>2020-08-13T11:14:13Z</time>
      </trkpt>
      <trkpt lat="42.0984637365" lon="-7.5257434789">
        <ele>757.18</ele>
        <time>2020-08-13T11:14:25Z</time>
      </trkpt>
      <trkpt lat="42.0985203143" lon="-7.5259946007">
        <ele>758.14</ele>
        <time>2020-08-13T11:14:36Z</time>
      </trkpt>
      <trkpt lat="42.0986023732" lon="-7.5262720417">
        <ele>758.62</ele>
        <time>2020-08-13T11:14:48Z</time>
      </trkpt>
      <trkpt lat="42.0987342205" lon="-7.5264171325">
        <ele>760.54</ele>
        <time>2020-08-13T11:14:58Z</time>
      </trkpt>
      <trkpt lat="42.0988948178" lon="-7.5265654083">
        <ele>762.46</ele>
        <time>2020-08-13T11:15:09Z</time>
      </trkpt>
      <trkpt lat="42.0989985857" lon="-7.5266965013">
        <ele>763.42</ele>
        <time>2020-08-13T11:15:17Z</time>
      </trkpt>
      <trkpt lat="42.0991098136" lon="-7.5268544164">
        <ele>763.42</ele>
        <time>2020-08-13T11:15:26Z</time>
      </trkpt>
      <trkpt lat="42.0992336981" lon="-7.5270566717">
        <ele>764.87</ele>
        <time>2020-08-13T11:15:37Z</time>
      </trkpt>
      <trkpt lat="42.0993397292" lon="-7.5272595976">
        <ele>765.35</ele>
        <time>2020-08-13T11:15:48Z</time>
      </trkpt>
      <trkpt lat="42.0994203631" lon="-7.5274537224">
        <ele>765.83</ele>
        <time>2020-08-13T11:15:58Z</time>
      </trkpt>
      <trkpt lat="42.0994978119" lon="-7.5276770163">
        <ele>766.31</ele>
        <time>2020-08-13T11:16:09Z</time>
      </trkpt>
      <trkpt lat="42.0995922759" lon="-7.5279326644">
        <ele>767.27</ele>
        <time>2020-08-13T11:16:21Z</time>
      </trkpt>
      <trkpt lat="42.0996282343" lon="-7.5280771684">
        <ele>768.23</ele>
        <time>2020-08-13T11:16:28Z</time>
      </trkpt>
      <trkpt lat="42.0996790286" lon="-7.5282966904">
        <ele>770.63</ele>
        <time>2020-08-13T11:16:38Z</time>
      </trkpt>
      <trkpt lat="42.0997335110" lon="-7.5284851156">
        <ele>772.56</ele>
        <time>2020-08-13T11:16:47Z</time>
      </trkpt>
      <trkpt lat="42.0998073556" lon="-7.5287235808">
        <ele>774.00</ele>
        <time>2020-08-13T11:16:59Z</time>
      </trkpt>
      <trkpt lat="42.0998475887" lon="-7.5288961641">
        <ele>774.96</ele>
        <time>2020-08-13T11:17:07Z</time>
      </trkpt>
      <trkpt lat="42.0999029931" lon="-7.5290657301">
        <ele>776.40</ele>
        <time>2020-08-13T11:17:15Z</time>
      </trkpt>
      <trkpt lat="42.0999599900" lon="-7.5292772055">
        <ele>776.88</ele>
        <time>2020-08-13T11:17:25Z</time>
      </trkpt>
      <trkpt lat="42.1000314876" lon="-7.5294523872">
        <ele>776.88</ele>
        <time>2020-08-13T11:17:34Z</time>
      </trkpt>
      <trkpt lat="42.1001861338" lon="-7.5295823067">
        <ele>777.84</ele>
        <time>2020-08-13T11:17:45Z</time>
      </trkpt>
      <trkpt lat="42.1003018878" lon="-7.5296168402">
        <ele>779.29</ele>
        <time>2020-08-13T11:17:54Z</time>
      </trkpt>
      <trkpt lat="42.1003059950" lon="-7.5296226237">
        <ele>779.77</ele>
        <time>2020-08-13T11:18:01Z</time>
      </trkpt>
      <trkpt lat="42.1003052406" lon="-7.5296781119">
        <ele>780.25</ele>
        <time>2020-08-13T11:18:10Z</time>
      </trkpt>
      <trkpt lat="42.1003069170" lon="-7.5296944566">
        <ele>779.29</ele>
        <time>2020-08-13T11:18:20Z</time>
      </trkpt>
      <trkpt lat="42.1003124490" lon="-7.5297155790">
        <ele>777.84</ele>
        <time>2020-08-13T11:18:32Z</time>
      </trkpt>
      <trkpt lat="42.1003033128" lon="-7.5297128968">
        <ele>778.81</ele>
        <time>2020-08-13T11:18:43Z</time>
      </trkpt>
      <trkpt lat="42.1003028098" lon="-7.5297132321">
        <ele>779.77</ele>
        <time>2020-08-13T11:18:50Z</time>
      </trkpt>
      <trkpt lat="42.1002950985" lon="-7.5297207758">
        <ele>781.21</ele>
        <time>2020-08-13T11:19:02Z</time>
      </trkpt>
      <trkpt lat="42.1002975293" lon="-7.5297384616">
        <ele>781.69</ele>
        <time>2020-08-13T11:19:15Z</time>
      </trkpt>
      <trkpt lat="42.1003143769" lon="-7.5297598355">
        <ele>781.69</ele>
        <time>2020-08-13T11:19:30Z</time>
      </trkpt>
      <trkpt lat="42.1003185678" lon="-7.5297617633">
        <ele>778.32</ele>
        <time>2020-08-13T11:19:45Z</time>
      </trkpt>
      <trkpt lat="42.1002818551" lon="-7.5297821313">
        <ele>774.00</ele>
        <time>2020-08-13T11:20:03Z</time>
      </trkpt>
      <trkpt lat="42.1002840344" lon="-7.5297780242">
        <ele>775.92</ele>
        <time>2020-08-13T11:20:21Z</time>
      </trkpt>
      <trkpt lat="42.1002805978" lon="-7.5297828857">
        <ele>773.52</ele>
        <time>2020-08-13T11:20:39Z</time>
      </trkpt>
      <trkpt lat="42.1002653427" lon="-7.5297549739">
        <ele>776.88</ele>
        <time>2020-08-13T11:21:00Z</time>
      </trkpt>
      <trkpt lat="42.1002991218" lon="-7.5297817960">
        <ele>777.36</ele>
        <time>2020-08-13T11:21:22Z</time>
      </trkpt>
      <trkpt lat="42.1003018040" lon="-7.5297470111">
        <ele>774.00</ele>
        <time>2020-08-13T11:21:46Z</time>
      </trkpt>
      <trkpt lat="42.1003038157" lon="-7.5297188479">
        <ele>771.11</ele>
        <time>2020-08-13T11:22:07Z</time>
      </trkpt>
      <trkpt lat="42.1003199928" lon="-7.5297363661">
        <ele>769.19</ele>
        <time>2020-08-13T11:22:34Z</time>
      </trkpt>
      <trkpt lat="42.1003139578" lon="-7.5297510345">
        <ele>770.15</ele>
        <time>2020-08-13T11:23:04Z</time>
      </trkpt>
      <trkpt lat="42.1003190707" lon="-7.5297364499">
        <ele>772.08</ele>
        <time>2020-08-13T11:23:30Z</time>
      </trkpt>
      <trkpt lat="42.1003256086" lon="-7.5297584943">
        <ele>770.63</ele>
        <time>2020-08-13T11:23:59Z</time>
      </trkpt>
      <trkpt lat="42.1003145445" lon="-7.5297814608">
        <ele>769.67</ele>
        <time>2020-08-13T11:24:27Z</time>
      </trkpt>
      <trkpt lat="42.1003335714" lon="-7.5297447480">
        <ele>770.63</ele>
        <time>2020-08-13T11:24:52Z</time>
      </trkpt>
      <trkpt lat="42.1003220882" lon="-7.5297488552">
        <ele>770.63</ele>
        <time>2020-08-13T11:25:17Z</time>
      </trkpt>
      <trkpt lat="42.1003036480" lon="-7.5297097955">
        <ele>771.11</ele>
        <time>2020-08-13T11:25:48Z</time>
      </trkpt>
      <trkpt lat="42.1003023908" lon="-7.5297278166">
        <ele>777.84</ele>
        <time>2020-08-13T11:26:16Z</time>
      </trkpt>
      <trkpt lat="42.1002903208" lon="-7.5297284033">
        <ele>779.77</ele>
        <time>2020-08-13T11:26:42Z</time>
      </trkpt>
      <trkpt lat="42.1002982836" lon="-7.5297046825">
        <ele>781.69</ele>
        <time>2020-08-13T11:27:07Z</time>
      </trkpt>
      <trkpt lat="42.1002827771" lon="-7.5297159143">
        <ele>783.13</ele>
        <time>2020-08-13T11:27:33Z</time>
      </trkpt>
      <trkpt lat="42.1002954338" lon="-7.5297260564">
        <ele>779.77</ele>
        <time>2020-08-13T11:27:59Z</time>
      </trkpt>
      <trkpt lat="42.1003080904" lon="-7.5297167525">
        <ele>781.21</ele>
        <time>2020-08-13T11:28:24Z</time>
      </trkpt>
      <trkpt lat="42.1003059112" lon="-7.5297565665">
        <ele>777.84</ele>
        <time>2020-08-13T11:28:50Z</time>
      </trkpt>
      <trkpt lat="42.1002887283" lon="-7.5297655351">
        <ele>779.77</ele>
        <time>2020-08-13T11:29:12Z</time>
      </trkpt>
      <trkpt lat="42.1003060788" lon="-7.5297468435">
        <ele>779.29</ele>
        <time>2020-08-13T11:29:33Z</time>
      </trkpt>
      <trkpt lat="42.1003210824" lon="-7.5297435746">
        <ele>777.36</ele>
        <time>2020-08-13T11:29:57Z</time>
      </trkpt>
      <trkpt lat="42.1003218368" lon="-7.5297486037">
        <ele>776.40</ele>
        <time>2020-08-13T11:30:18Z</time>
      </trkpt>
      <trkpt lat="42.1003126167" lon="-7.5297604222">
        <ele>777.84</ele>
        <time>2020-08-13T11:30:35Z</time>
      </trkpt>
      <trkpt lat="42.1002909075" lon="-7.5297285710">
        <ele>774.96</ele>
        <time>2020-08-13T11:31:06Z</time>
      </trkpt>
      <trkpt lat="42.1003044862" lon="-7.5297310855">
        <ele>783.13</ele>
        <time>2020-08-13T11:31:33Z</time>
      </trkpt>
      <trkpt lat="42.1003189869" lon="-7.5297311693">
        <ele>782.65</ele>
        <time>2020-08-13T11:32:01Z</time>
      </trkpt>
      <trkpt lat="42.1003178135" lon="-7.5297377072">
        <ele>782.65</ele>
        <time>2020-08-13T11:32:23Z</time>
      </trkpt>
      <trkpt lat="42.1002957691" lon="-7.5297440775">
        <ele>775.44</ele>
        <time>2020-08-13T11:32:50Z</time>
      </trkpt>
      <trkpt lat="42.1003168076" lon="-7.5297491904">
        <ele>774.48</ele>
        <time>2020-08-13T11:33:15Z</time>
      </trkpt>
      <trkpt lat="42.1003036480" lon="-7.5297429878">
        <ele>769.67</ele>
        <time>2020-08-13T11:33:35Z</time>
      </trkpt>
      <trkpt lat="42.1003020555" lon="-7.5297522917">
        <ele>763.42</ele>
        <time>2020-08-13T11:33:55Z</time>
      </trkpt>
      <trkpt lat="42.1003033966" lon="-7.5297510345">
        <ele>761.50</ele>
        <time>2020-08-13T11:34:19Z</time>
      </trkpt>
      <trkpt lat="42.1003101859" lon="-7.5297667924">
        <ele>767.27</ele>
        <time>2020-08-13T11:34:43Z</time>
      </trkpt>
      <trkpt lat="42.1003046539" lon="-7.5297600031">
        <ele>769.19</ele>
        <time>2020-08-13T11:35:06Z</time>
      </trkpt>
      <trkpt lat="42.1003069170" lon="-7.5297340192">
        <ele>768.71</ele>
        <time>2020-08-13T11:35:35Z</time>
      </trkpt>
      <trkpt lat="42.1002930868" lon="-7.5297268946">
        <ele>766.79</ele>
        <time>2020-08-13T11:36:04Z</time>
      </trkpt>
      <trkpt lat="42.1002790891" lon="-7.5297019165">
        <ele>770.63</ele>
        <time>2020-08-13T11:36:31Z</time>
      </trkpt>
      <trkpt lat="42.1002673544" lon="-7.5297005754">
        <ele>773.52</ele>
        <time>2020-08-13T11:37:00Z</time>
      </trkpt>
      <trkpt lat="42.1002805140" lon="-7.5297144894">
        <ele>768.23</ele>
        <time>2020-08-13T11:37:24Z</time>
      </trkpt>
      <trkpt lat="42.1002627444" lon="-7.5297528785">
        <ele>770.15</ele>
        <time>2020-08-13T11:37:46Z</time>
      </trkpt>
      <trkpt lat="42.1002930868" lon="-7.5297418144">
        <ele>773.52</ele>
        <time>2020-08-13T11:38:12Z</time>
      </trkpt>
      <trkpt lat="42.1003054921" lon="-7.5297358632">
        <ele>776.40</ele>
        <time>2020-08-13T11:38:32Z</time>
      </trkpt>
      <trkpt lat="42.1002739761" lon="-7.5297250506">
        <ele>778.32</ele>
        <time>2020-08-13T11:38:58Z</time>
      </trkpt>
      <trkpt lat="42.1003075875" lon="-7.5297663733">
        <ele>779.29</ele>
        <time>2020-08-13T11:39:24Z</time>
      </trkpt>
      <trkpt lat="42.1003159694" lon="-7.5297576562">
        <ele>781.69</ele>
        <time>2020-08-13T11:39:49Z</time>
      </trkpt>
      <trkpt lat="42.1002829447" lon="-7.5297764316">
        <ele>778.81</ele>
        <time>2020-08-13T11:40:17Z</time>
      </trkpt>
      <trkpt lat="42.1002878062" lon="-7.5298025832">
        <ele>778.81</ele>
        <time>2020-08-13T11:40:39Z</time>
      </trkpt>
      <trkpt lat="42.1003209148" lon="-7.5297601707">
        <ele>776.88</ele>
        <time>2020-08-13T11:41:03Z</time>
      </trkpt>
      <trkpt lat="42.1003261115" lon="-7.5297637749">
        <ele>776.40</ele>
        <time>2020-08-13T11:41:22Z</time>
      </trkpt>
      <trkpt lat="42.1003059950" lon="-7.5297534652">
        <ele>775.44</ele>
        <time>2020-08-13T11:41:40Z</time>
      </trkpt>
      <trkpt lat="42.1002945956" lon="-7.5297589134">
        <ele>775.92</ele>
        <time>2020-08-13T11:42:01Z</time>
      </trkpt>
      <trkpt lat="42.1002810169" lon="-7.5297278166">
        <ele>775.92</ele>
        <time>2020-08-13T11:42:22Z</time>
      </trkpt>
      <trkpt lat="42.1002843697" lon="-7.5297271460">
        <ele>780.73</ele>
        <time>2020-08-13T11:42:45Z</time>
      </trkpt>
      <trkpt lat="42.1002868842" lon="-7.5297372881">
        <ele>777.84</ele>
        <time>2020-08-13T11:43:06Z</time>
      </trkpt>
      <trkpt lat="42.1002949309" lon="-7.5297364499">
        <ele>776.40</ele>
        <time>2020-08-13T11:43:24Z</time>
      </trkpt>
      <trkpt lat="42.1002849564" lon="-7.5297414791">
        <ele>777.36</ele>
        <time>2020-08-13T11:43:45Z</time>
      </trkpt>
      <trkpt lat="42.1002918296" lon="-7.5297261402">
        <ele>778.32</ele>
        <time>2020-08-13T11:44:09Z</time>
      </trkpt>
      <trkpt lat="42.1003203280" lon="-7.5297470111">
        <ele>779.29</ele>
        <time>2020-08-13T11:44:34Z</time>
      </trkpt>
      <trkpt lat="42.1003266145" lon="-7.5297465082">
        <ele>779.77</ele>
        <time>2020-08-13T11:44:54Z</time>
      </trkpt>
      <trkpt lat="42.1002930868" lon="-7.5297329295">
        <ele>776.40</ele>
        <time>2020-08-13T11:45:16Z</time>
      </trkpt>
      <trkpt lat="42.1002981160" lon="-7.5297237094">
        <ele>772.08</ele>
        <time>2020-08-13T11:45:42Z</time>
      </trkpt>
      <trkpt lat="42.1003184840" lon="-7.5297930278">
        <ele>772.08</ele>
        <time>2020-08-13T11:46:03Z</time>
      </trkpt>
      <trkpt lat="42.1003266145" lon="-7.5297474302">
        <ele>774.48</ele>
        <time>2020-08-13T11:46:28Z</time>
      </trkpt>
      <trkpt lat="42.1003054082" lon="-7.5297211949">
        <ele>773.04</ele>
        <time>2020-08-13T11:46:53Z</time>
      </trkpt>
      <trkpt lat="42.1002889797" lon="-7.5297208596">
        <ele>772.56</ele>
        <time>2020-08-13T11:47:12Z</time>
      </trkpt>
      <trkpt lat="42.1002680250" lon="-7.5297446642">
        <ele>773.04</ele>
        <time>2020-08-13T11:47:31Z</time>
      </trkpt>
      <trkpt lat="42.1002956014" lon="-7.5297490228">
        <ele>771.60</ele>
        <time>2020-08-13T11:47:59Z</time>
      </trkpt>
      <trkpt lat="42.1003031451" lon="-7.5297241285">
        <ele>772.08</ele>
        <time>2020-08-13T11:48:30Z</time>
      </trkpt>
      <trkpt lat="42.1003115270" lon="-7.5297722407">
        <ele>774.00</ele>
        <time>2020-08-13T11:48:54Z</time>
      </trkpt>
      <trkpt lat="42.1003232617" lon="-7.5297426526">
        <ele>773.04</ele>
        <time>2020-08-13T11:49:18Z</time>
      </trkpt>
      <trkpt lat="42.1003452223" lon="-7.5297299959">
        <ele>770.15</ele>
        <time>2020-08-13T11:49:45Z</time>
      </trkpt>
      <trkpt lat="42.1003121138" lon="-7.5297367852">
        <ele>769.67</ele>
        <time>2020-08-13T11:50:05Z</time>
      </trkpt>
      <trkpt lat="42.1002906561" lon="-7.5297348574">
        <ele>769.19</ele>
        <time>2020-08-13T11:50:27Z</time>
      </trkpt>
      <trkpt lat="42.1003132034" lon="-7.5297338516">
        <ele>774.00</ele>
        <time>2020-08-13T11:50:54Z</time>
      </trkpt>
      <trkpt lat="42.1003100183" lon="-7.5297157466">
        <ele>775.92</ele>
        <time>2020-08-13T11:51:16Z</time>
      </trkpt>
      <trkpt lat="42.1003084257" lon="-7.5297569856">
        <ele>775.44</ele>
        <time>2020-08-13T11:51:39Z</time>
      </trkpt>
      <trkpt lat="42.1003234293" lon="-7.5297325104">
        <ele>773.04</ele>
        <time>2020-08-13T11:52:04Z</time>
      </trkpt>
      <trkpt lat="42.1003382653" lon="-7.5297281519">
        <ele>774.48</ele>
        <time>2020-08-13T11:52:29Z</time>
      </trkpt>
      <trkpt lat="42.1003165562" lon="-7.5297468435">
        <ele>775.92</ele>
        <time>2020-08-13T11:52:50Z</time>
      </trkpt>
      <trkpt lat="42.1002925839" lon="-7.5297557283">
        <ele>774.96</ele>
        <time>2020-08-13T11:53:21Z</time>
      </trkpt>
      <trkpt lat="42.1002956014" lon="-7.5297519565">
        <ele>771.60</ele>
        <time>2020-08-13T11:53:50Z</time>
      </trkpt>
      <trkpt lat="42.1003075875" lon="-7.5297563989">
        <ele>771.60</ele>
        <time>2020-08-13T11:54:10Z</time>
      </trkpt>
      <trkpt lat="42.1003109403" lon="-7.5297769345">
        <ele>773.52</ele>
        <time>2020-08-13T11:54:35Z</time>
      </trkpt>
      <trkpt lat="42.1003047377" lon="-7.5297582429">
        <ele>771.11</ele>
        <time>2020-08-13T11:54:59Z</time>
      </trkpt>
      <trkpt lat="42.1003158018" lon="-7.5297697261">
        <ele>772.08</ele>
        <time>2020-08-13T11:55:19Z</time>
      </trkpt>
      <trkpt lat="42.1003277041" lon="-7.5297587458">
        <ele>770.63</ele>
        <time>2020-08-13T11:55:35Z</time>
      </trkpt>
      <trkpt lat="42.1003232617" lon="-7.5297400542">
        <ele>773.52</ele>
        <time>2020-08-13T11:55:56Z</time>
      </trkpt>
      <trkpt lat="42.1003077552" lon="-7.5297657866">
        <ele>774.96</ele>
        <time>2020-08-13T11:56:20Z</time>
      </trkpt>
      <trkpt lat="42.1003206633" lon="-7.5297688879">
        <ele>773.04</ele>
        <time>2020-08-13T11:56:38Z</time>
      </trkpt>
      <trkpt lat="42.1002952661" lon="-7.5297512021">
        <ele>776.88</ele>
        <time>2020-08-13T11:56:56Z</time>
      </trkpt>
      <trkpt lat="42.1003136225" lon="-7.5297424011">
        <ele>779.29</ele>
        <time>2020-08-13T11:57:18Z</time>
      </trkpt>
      <trkpt lat="42.1003070008" lon="-7.5297139864">
        <ele>775.92</ele>
        <time>2020-08-13T11:57:36Z</time>
      </trkpt>
      <trkpt lat="42.1003066655" lon="-7.5297674630">
        <ele>777.36</ele>
        <time>2020-08-13T11:58:03Z</time>
      </trkpt>
      <trkpt lat="42.1003011335" lon="-7.5297709834">
        <ele>779.29</ele>
        <time>2020-08-13T11:58:25Z</time>
      </trkpt>
      <trkpt lat="42.1003109403" lon="-7.5297317561">
        <ele>781.21</ele>
        <time>2020-08-13T11:58:47Z</time>
      </trkpt>
      <trkpt lat="42.1002911590" lon="-7.5297030900">
        <ele>777.36</ele>
        <time>2020-08-13T11:59:11Z</time>
      </trkpt>
      <trkpt lat="42.1003326494" lon="-7.5297500286">
        <ele>774.96</ele>
        <time>2020-08-13T11:59:40Z</time>
      </trkpt>
      <trkpt lat="42.1002965234" lon="-7.5297413953">
        <ele>779.29</ele>
        <time>2020-08-13T12:00:04Z</time>
      </trkpt>
      <trkpt lat="42.1002987865" lon="-7.5297682174">
        <ele>774.96</ele>
        <time>2020-08-13T12:00:28Z</time>
      </trkpt>
      <trkpt lat="42.1002976131" lon="-7.5297760125">
        <ele>775.44</ele>
        <time>2020-08-13T12:00:48Z</time>
      </trkpt>
      <trkpt lat="42.1002757363" lon="-7.5297473464">
        <ele>772.56</ele>
        <time>2020-08-13T12:01:22Z</time>
      </trkpt>
      <trkpt lat="42.1002960205" lon="-7.5297269784">
        <ele>774.00</ele>
        <time>2020-08-13T12:01:45Z</time>
      </trkpt>
      <trkpt lat="42.1002934221" lon="-7.5297328457">
        <ele>775.92</ele>
        <time>2020-08-13T12:02:13Z</time>
      </trkpt>
      <trkpt lat="42.1002852079" lon="-7.5297496095">
        <ele>775.92</ele>
        <time>2020-08-13T12:02:28Z</time>
      </trkpt>
      <trkpt lat="42.1002913266" lon="-7.5297097117">
        <ele>780.25</ele>
        <time>2020-08-13T12:02:42Z</time>
      </trkpt>
      <trkpt lat="42.1002842020" lon="-7.5297042634">
        <ele>779.77</ele>
        <time>2020-08-13T12:02:58Z</time>
      </trkpt>
      <trkpt lat="42.1002926677" lon="-7.5297087897">
        <ele>781.21</ele>
        <time>2020-08-13T12:03:21Z</time>
      </trkpt>
      <trkpt lat="42.1002915781" lon="-7.5297258049">
        <ele>780.25</ele>
        <time>2020-08-13T12:03:43Z</time>
      </trkpt>
      <trkpt lat="42.1002810169" lon="-7.5297398027">
        <ele>780.25</ele>
        <time>2020-08-13T12:04:03Z</time>
      </trkpt>
      <trkpt lat="42.1002691984" lon="-7.5297193509">
        <ele>780.73</ele>
        <time>2020-08-13T12:04:23Z</time>
      </trkpt>
      <trkpt lat="42.1002837829" lon="-7.5297035929">
        <ele>780.25</ele>
        <time>2020-08-13T12:04:38Z</time>
      </trkpt>
      <trkpt lat="42.1002910752" lon="-7.5297270622">
        <ele>780.25</ele>
        <time>2020-08-13T12:04:57Z</time>
      </trkpt>
      <trkpt lat="42.1002987865" lon="-7.5297110528">
        <ele>778.81</ele>
        <time>2020-08-13T12:05:11Z</time>
      </trkpt>
      <trkpt lat="42.1002993733" lon="-7.5297273975">
        <ele>779.77</ele>
        <time>2020-08-13T12:05:31Z</time>
      </trkpt>
      <trkpt lat="42.1002961043" lon="-7.5297065265">
        <ele>780.73</ele>
        <time>2020-08-13T12:05:49Z</time>
      </trkpt>
      <trkpt lat="42.1002892312" lon="-7.5297061913">
        <ele>780.25</ele>
        <time>2020-08-13T12:06:04Z</time>
      </trkpt>
      <trkpt lat="42.1002909914" lon="-7.5297249667">
        <ele>779.29</ele>
        <time>2020-08-13T12:06:19Z</time>
      </trkpt>
      <trkpt lat="42.1003078390" lon="-7.5297343545">
        <ele>781.69</ele>
        <time>2020-08-13T12:06:41Z</time>
      </trkpt>
      <trkpt lat="42.1003226750" lon="-7.5297575723">
        <ele>782.17</ele>
        <time>2020-08-13T12:06:55Z</time>
      </trkpt>
      <trkpt lat="42.1003251057" lon="-7.5297355279">
        <ele>781.21</ele>
        <time>2020-08-13T12:07:17Z</time>
      </trkpt>
      <trkpt lat="42.1003270335" lon="-7.5297194347">
        <ele>779.77</ele>
        <time>2020-08-13T12:07:36Z</time>
      </trkpt>
      <trkpt lat="42.1003192384" lon="-7.5297175068">
        <ele>780.73</ele>
        <time>2020-08-13T12:07:49Z</time>
      </trkpt>
      <trkpt lat="42.1003226750" lon="-7.5297198538">
        <ele>779.29</ele>
        <time>2020-08-13T12:08:08Z</time>
      </trkpt>
      <trkpt lat="42.1002952661" lon="-7.5297058560">
        <ele>777.36</ele>
        <time>2020-08-13T12:08:30Z</time>
      </trkpt>
      <trkpt lat="42.1003003791" lon="-7.5296988990">
        <ele>780.25</ele>
        <time>2020-08-13T12:08:46Z</time>
      </trkpt>
      <trkpt lat="42.1003075875" lon="-7.5297333486">
        <ele>782.17</ele>
        <time>2020-08-13T12:09:13Z</time>
      </trkpt>
      <trkpt lat="42.1002920810" lon="-7.5297283195">
        <ele>778.81</ele>
        <time>2020-08-13T12:09:32Z</time>
      </trkpt>
      <trkpt lat="42.1002805978" lon="-7.5297102146">
        <ele>776.88</ele>
        <time>2020-08-13T12:09:47Z</time>
      </trkpt>
      <trkpt lat="42.1002871357" lon="-7.5297379587">
        <ele>777.36</ele>
        <time>2020-08-13T12:10:11Z</time>
      </trkpt>
      <trkpt lat="42.1003133710" lon="-7.5297408924">
        <ele>777.84</ele>
        <time>2020-08-13T12:10:38Z</time>
      </trkpt>
      <trkpt lat="42.1003002953" lon="-7.5297429878">
        <ele>774.00</ele>
        <time>2020-08-13T12:10:55Z</time>
      </trkpt>
      <trkpt lat="42.1002710424" lon="-7.5297300797">
        <ele>774.48</ele>
        <time>2020-08-13T12:11:22Z</time>
      </trkpt>
      <trkpt lat="42.1002771612" lon="-7.5297412276">
        <ele>771.60</ele>
        <time>2020-08-13T12:11:42Z</time>
      </trkpt>
      <trkpt lat="42.1002778318" lon="-7.5297273137">
        <ele>772.08</ele>
        <time>2020-08-13T12:12:01Z</time>
      </trkpt>
      <trkpt lat="42.1002722997" lon="-7.5297394674">
        <ele>772.08</ele>
        <time>2020-08-13T12:12:21Z</time>
      </trkpt>
      <trkpt lat="42.1002805140" lon="-7.5297255535">
        <ele>773.52</ele>
        <time>2020-08-13T12:12:35Z</time>
      </trkpt>
      <trkpt lat="42.1003092639" lon="-7.5297247991">
        <ele>774.48</ele>
        <time>2020-08-13T12:12:53Z</time>
      </trkpt>
      <trkpt lat="42.1003091801" lon="-7.5297071971">
        <ele>775.92</ele>
        <time>2020-08-13T12:13:06Z</time>
      </trkpt>
      <trkpt lat="42.1003219206" lon="-7.5297232065">
        <ele>774.96</ele>
        <time>2020-08-13T12:13:20Z</time>
      </trkpt>
      <trkpt lat="42.1003349964" lon="-7.5297476817">
        <ele>776.88</ele>
        <time>2020-08-13T12:13:34Z</time>
      </trkpt>
      <trkpt lat="42.1003357507" lon="-7.5297365338">
        <ele>777.84</ele>
        <time>2020-08-13T12:13:49Z</time>
      </trkpt>
      <trkpt lat="42.1003184002" lon="-7.5297326781">
        <ele>780.25</ele>
        <time>2020-08-13T12:14:07Z</time>
      </trkpt>
      <trkpt lat="42.1002980322" lon="-7.5297364499">
        <ele>781.21</ele>
        <time>2020-08-13T12:14:20Z</time>
      </trkpt>
      <trkpt lat="42.1003220044" lon="-7.5297527947">
        <ele>779.77</ele>
        <time>2020-08-13T12:14:36Z</time>
      </trkpt>
      <trkpt lat="42.1003246028" lon="-7.5297419820">
        <ele>780.25</ele>
        <time>2020-08-13T12:14:52Z</time>
      </trkpt>
      <trkpt lat="42.1003231779" lon="-7.5297180936">
        <ele>778.81</ele>
        <time>2020-08-13T12:15:10Z</time>
      </trkpt>
      <trkpt lat="42.1003047377" lon="-7.5297211111">
        <ele>776.88</ele>
        <time>2020-08-13T12:15:25Z</time>
      </trkpt>
      <trkpt lat="42.1002936736" lon="-7.5297296606">
        <ele>778.81</ele>
        <time>2020-08-13T12:15:41Z</time>
      </trkpt>
      <trkpt lat="42.1003002953" lon="-7.5297159143">
        <ele>778.32</ele>
        <time>2020-08-13T12:15:59Z</time>
      </trkpt>
      <trkpt lat="42.1002957691" lon="-7.5297043473">
        <ele>778.81</ele>
        <time>2020-08-13T12:16:14Z</time>
      </trkpt>
      <trkpt lat="42.1002972778" lon="-7.5297128130">
        <ele>778.81</ele>
        <time>2020-08-13T12:16:30Z</time>
      </trkpt>
      <trkpt lat="42.1002978645" lon="-7.5297249667">
        <ele>777.84</ele>
        <time>2020-08-13T12:16:47Z</time>
      </trkpt>
      <trkpt lat="42.1003007982" lon="-7.5297129806">
        <ele>779.29</ele>
        <time>2020-08-13T12:17:05Z</time>
      </trkpt>
      <trkpt lat="42.1003139578" lon="-7.5297050178">
        <ele>780.25</ele>
        <time>2020-08-13T12:17:15Z</time>
      </trkpt>
      <trkpt lat="42.1003211662" lon="-7.5297084544">
        <ele>779.77</ele>
        <time>2020-08-13T12:17:26Z</time>
      </trkpt>
      <trkpt lat="42.1003225911" lon="-7.5296678860">
        <ele>779.77</ele>
        <time>2020-08-13T12:17:31Z</time>
      </trkpt>
      <trkpt lat="42.1003386844" lon="-7.5296059437">
        <ele>781.69</ele>
        <time>2020-08-13T12:17:39Z</time>
      </trkpt>
      <trkpt lat="42.1003514249" lon="-7.5295640342">
        <ele>781.21</ele>
        <time>2020-08-13T12:17:48Z</time>
      </trkpt>
      <trkpt lat="42.1003616508" lon="-7.5295542274">
        <ele>781.69</ele>
        <time>2020-08-13T12:17:49Z</time>
      </trkpt>
      <trkpt lat="42.1003730502" lon="-7.5295445044">
        <ele>781.69</ele>
        <time>2020-08-13T12:17:50Z</time>
      </trkpt>
      <trkpt lat="42.1003815997" lon="-7.5295337755">
        <ele>781.69</ele>
        <time>2020-08-13T12:17:51Z</time>
      </trkpt>
      <trkpt lat="42.1004045662" lon="-7.5295191072">
        <ele>781.69</ele>
        <time>2020-08-13T12:17:54Z</time>
      </trkpt>
      <trkpt lat="42.1004175581" lon="-7.5295130722">
        <ele>781.69</ele>
        <time>2020-08-13T12:17:55Z</time>
      </trkpt>
      <trkpt lat="42.1004695259" lon="-7.5294767786">
        <ele>782.65</ele>
        <time>2020-08-13T12:17:59Z</time>
      </trkpt>
      <trkpt lat="42.1004845295" lon="-7.5294672232">
        <ele>782.65</ele>
        <time>2020-08-13T12:18:00Z</time>
      </trkpt>
      <trkpt lat="42.1004986949" lon="-7.5294548180">
        <ele>782.65</ele>
        <time>2020-08-13T12:18:01Z</time>
      </trkpt>
      <trkpt lat="42.1006168798" lon="-7.5293336157">
        <ele>783.61</ele>
        <time>2020-08-13T12:18:10Z</time>
      </trkpt>
      <trkpt lat="42.1007375792" lon="-7.5292161852">
        <ele>784.57</ele>
        <time>2020-08-13T12:18:18Z</time>
      </trkpt>
      <trkpt lat="42.1008712705" lon="-7.5290748663">
        <ele>786.02</ele>
        <time>2020-08-13T12:18:27Z</time>
      </trkpt>
      <trkpt lat="42.1009786427" lon="-7.5289124250">
        <ele>788.42</ele>
        <time>2020-08-13T12:18:36Z</time>
      </trkpt>
      <trkpt lat="42.1010970790" lon="-7.5287452061">
        <ele>791.30</ele>
        <time>2020-08-13T12:18:45Z</time>
      </trkpt>
      <trkpt lat="42.1012124978" lon="-7.5285868719">
        <ele>793.22</ele>
        <time>2020-08-13T12:18:54Z</time>
      </trkpt>
      <trkpt lat="42.1013287548" lon="-7.5284709502">
        <ele>794.67</ele>
        <time>2020-08-13T12:19:02Z</time>
      </trkpt>
      <trkpt lat="42.1014768630" lon="-7.5283770729">
        <ele>794.19</ele>
        <time>2020-08-13T12:19:11Z</time>
      </trkpt>
      <trkpt lat="42.1016331855" lon="-7.5283089280">
        <ele>793.71</ele>
        <time>2020-08-13T12:19:20Z</time>
      </trkpt>
      <trkpt lat="42.1017488558" lon="-7.5282372627">
        <ele>794.67</ele>
        <time>2020-08-13T12:19:27Z</time>
      </trkpt>
      <trkpt lat="42.1018346027" lon="-7.5281723868">
        <ele>795.63</ele>
        <time>2020-08-13T12:19:33Z</time>
      </trkpt>
      <trkpt lat="42.1019465011" lon="-7.5280692056">
        <ele>795.63</ele>
        <time>2020-08-13T12:19:41Z</time>
      </trkpt>
      <trkpt lat="42.1020766720" lon="-7.5280075148">
        <ele>795.15</ele>
        <time>2020-08-13T12:19:50Z</time>
      </trkpt>
      <trkpt lat="42.1020931844" lon="-7.5280058384">
        <ele>794.67</ele>
        <time>2020-08-13T12:19:51Z</time>
      </trkpt>
      <trkpt lat="42.1021107864" lon="-7.5280044973">
        <ele>794.67</ele>
        <time>2020-08-13T12:19:52Z</time>
      </trkpt>
      <trkpt lat="42.1021281369" lon="-7.5279990491">
        <ele>794.67</ele>
        <time>2020-08-13T12:19:53Z</time>
      </trkpt>
      <trkpt lat="42.1022703778" lon="-7.5280313194">
        <ele>795.15</ele>
        <time>2020-08-13T12:20:02Z</time>
      </trkpt>
      <trkpt lat="42.1023805160" lon="-7.5281359255">
        <ele>795.63</ele>
        <time>2020-08-13T12:20:10Z</time>
      </trkpt>
      <trkpt lat="42.1024940070" lon="-7.5282514282">
        <ele>797.07</ele>
        <time>2020-08-13T12:20:18Z</time>
      </trkpt>
      <trkpt lat="42.1025999542" lon="-7.5283852033">
        <ele>797.55</ele>
        <time>2020-08-13T12:20:27Z</time>
      </trkpt>
      <trkpt lat="42.1027789079" lon="-7.5285339821">
        <ele>799.47</ele>
        <time>2020-08-13T12:20:39Z</time>
      </trkpt>
      <trkpt lat="42.1028981823" lon="-7.5286497362">
        <ele>800.92</ele>
        <time>2020-08-13T12:20:48Z</time>
      </trkpt>
      <trkpt lat="42.1030165348" lon="-7.5287903845">
        <ele>802.36</ele>
        <time>2020-08-13T12:20:57Z</time>
      </trkpt>
      <trkpt lat="42.1030835900" lon="-7.5288892910">
        <ele>802.84</ele>
        <time>2020-08-13T12:21:04Z</time>
      </trkpt>
      <trkpt lat="42.1031871904" lon="-7.5290254969">
        <ele>803.32</ele>
        <time>2020-08-13T12:21:12Z</time>
      </trkpt>
      <trkpt lat="42.1033253241" lon="-7.5292259920">
        <ele>805.72</ele>
        <time>2020-08-13T12:21:23Z</time>
      </trkpt>
      <trkpt lat="42.1034337021" lon="-7.5293651316">
        <ele>806.68</ele>
        <time>2020-08-13T12:21:32Z</time>
      </trkpt>
      <trkpt lat="42.1035703272" lon="-7.5294537283">
        <ele>807.64</ele>
        <time>2020-08-13T12:21:41Z</time>
      </trkpt>
      <trkpt lat="42.1037046053" lon="-7.5295039359">
        <ele>808.61</ele>
        <time>2020-08-13T12:21:50Z</time>
      </trkpt>
      <trkpt lat="42.1038705669" lon="-7.5295668002">
        <ele>810.05</ele>
        <time>2020-08-13T12:22:00Z</time>
      </trkpt>
      <trkpt lat="42.1040358581" lon="-7.5296701491">
        <ele>811.01</ele>
        <time>2020-08-13T12:22:11Z</time>
      </trkpt>
      <trkpt lat="42.1041967068" lon="-7.5298159104">
        <ele>813.41</ele>
        <time>2020-08-13T12:22:23Z</time>
      </trkpt>
      <trkpt lat="42.1043476649" lon="-7.5300025754">
        <ele>814.37</ele>
        <time>2020-08-13T12:22:35Z</time>
      </trkpt>
      <trkpt lat="42.1044672746" lon="-7.5301541202">
        <ele>815.34</ele>
        <time>2020-08-13T12:22:45Z</time>
      </trkpt>
      <trkpt lat="42.1046082582" lon="-7.5302556250">
        <ele>817.26</ele>
        <time>2020-08-13T12:22:55Z</time>
      </trkpt>
      <trkpt lat="42.1046789177" lon="-7.5302950200">
        <ele>817.74</ele>
        <time>2020-08-13T12:23:01Z</time>
      </trkpt>
      <trkpt lat="42.1048304625" lon="-7.5303371809">
        <ele>818.70</ele>
        <time>2020-08-13T12:23:10Z</time>
      </trkpt>
      <trkpt lat="42.1049703564" lon="-7.5304002967">
        <ele>819.66</ele>
        <time>2020-08-13T12:23:19Z</time>
      </trkpt>
      <trkpt lat="42.1050846856" lon="-7.5304696988">
        <ele>820.14</ele>
        <time>2020-08-13T12:23:27Z</time>
      </trkpt>
      <trkpt lat="42.1052235737" lon="-7.5305805076">
        <ele>821.58</ele>
        <time>2020-08-13T12:23:37Z</time>
      </trkpt>
      <trkpt lat="42.1053147689" lon="-7.5307053141">
        <ele>823.51</ele>
        <time>2020-08-13T12:23:44Z</time>
      </trkpt>
      <trkpt lat="42.1054070536" lon="-7.5308820885">
        <ele>824.95</ele>
        <time>2020-08-13T12:23:54Z</time>
      </trkpt>
      <trkpt lat="42.1054829936" lon="-7.5310571864">
        <ele>825.91</ele>
        <time>2020-08-13T12:24:04Z</time>
      </trkpt>
      <trkpt lat="42.1055585146" lon="-7.5312060490">
        <ele>826.87</ele>
        <time>2020-08-13T12:24:13Z</time>
      </trkpt>
      <trkpt lat="42.1055875998" lon="-7.5312508084">
        <ele>827.35</ele>
        <time>2020-08-13T12:24:16Z</time>
      </trkpt>
      <trkpt lat="42.1055992506" lon="-7.5312641356">
        <ele>827.35</ele>
        <time>2020-08-13T12:24:17Z</time>
      </trkpt>
      <trkpt lat="42.1056619473" lon="-7.5313355494">
        <ele>827.83</ele>
        <time>2020-08-13T12:24:24Z</time>
      </trkpt>
      <trkpt lat="42.1057438385" lon="-7.5314496271">
        <ele>828.31</ele>
        <time>2020-08-13T12:24:32Z</time>
      </trkpt>
      <trkpt lat="42.1058365423" lon="-7.5315637887">
        <ele>829.27</ele>
        <time>2020-08-13T12:24:40Z</time>
      </trkpt>
      <trkpt lat="42.1059474349" lon="-7.5316969771">
        <ele>831.68</ele>
        <time>2020-08-13T12:24:50Z</time>
      </trkpt>
      <trkpt lat="42.1060448326" lon="-7.5318194367">
        <ele>832.64</ele>
        <time>2020-08-13T12:25:00Z</time>
      </trkpt>
      <trkpt lat="42.1061239578" lon="-7.5319136493">
        <ele>834.08</ele>
        <time>2020-08-13T12:25:08Z</time>
      </trkpt>
      <trkpt lat="42.1061625145" lon="-7.5319670420">
        <ele>834.08</ele>
        <time>2020-08-13T12:25:12Z</time>
      </trkpt>
      <trkpt lat="42.1061745007" lon="-7.5319777709">
        <ele>834.56</ele>
        <time>2020-08-13T12:25:13Z</time>
      </trkpt>
      <trkpt lat="42.1061859000" lon="-7.5319895893">
        <ele>834.56</ele>
        <time>2020-08-13T12:25:14Z</time>
      </trkpt>
      <trkpt lat="42.1061961260" lon="-7.5320014078">
        <ele>834.56</ele>
        <time>2020-08-13T12:25:15Z</time>
      </trkpt>
      <trkpt lat="42.1062066872" lon="-7.5320128910">
        <ele>834.56</ele>
        <time>2020-08-13T12:25:16Z</time>
      </trkpt>
      <trkpt lat="42.1063231956" lon="-7.5321288966">
        <ele>836.48</ele>
        <time>2020-08-13T12:25:26Z</time>
      </trkpt>
      <trkpt lat="42.1064469125" lon="-7.5321894139">
        <ele>837.45</ele>
        <time>2020-08-13T12:25:35Z</time>
      </trkpt>
      <trkpt lat="42.1066317335" lon="-7.5321769249">
        <ele>837.93</ele>
        <time>2020-08-13T12:25:46Z</time>
      </trkpt>
      <trkpt lat="42.1068116929" lon="-7.5321139768">
        <ele>839.37</ele>
        <time>2020-08-13T12:25:57Z</time>
      </trkpt>
      <trkpt lat="42.1069506649" lon="-7.5320666190">
        <ele>840.81</ele>
        <time>2020-08-13T12:26:06Z</time>
      </trkpt>
      <trkpt lat="42.1070810873" lon="-7.5320294872">
        <ele>842.25</ele>
        <time>2020-08-13T12:26:14Z</time>
      </trkpt>
      <trkpt lat="42.1072220709" lon="-7.5319370348">
        <ele>843.69</ele>
        <time>2020-08-13T12:26:24Z</time>
      </trkpt>
      <trkpt lat="42.1073382441" lon="-7.5318396371">
        <ele>846.10</ele>
        <time>2020-08-13T12:26:32Z</time>
      </trkpt>
      <trkpt lat="42.1074486338" lon="-7.5317435805">
        <ele>848.50</ele>
        <time>2020-08-13T12:26:40Z</time>
      </trkpt>
      <trkpt lat="42.1075692493" lon="-7.5316735916">
        <ele>849.46</ele>
        <time>2020-08-13T12:26:48Z</time>
      </trkpt>
      <trkpt lat="42.1077073831" lon="-7.5316616055">
        <ele>849.94</ele>
        <time>2020-08-13T12:26:56Z</time>
      </trkpt>
      <trkpt lat="42.1078357100" lon="-7.5316802133">
        <ele>850.42</ele>
        <time>2020-08-13T12:27:04Z</time>
      </trkpt>
      <trkpt lat="42.1080217045" lon="-7.5317322649">
        <ele>851.38</ele>
        <time>2020-08-13T12:27:15Z</time>
      </trkpt>
      <trkpt lat="42.1081679687" lon="-7.5317811314">
        <ele>851.87</ele>
        <time>2020-08-13T12:27:24Z</time>
      </trkpt>
      <trkpt lat="42.1083286498" lon="-7.5318869110">
        <ele>852.35</ele>
        <time>2020-08-13T12:27:35Z</time>
      </trkpt>
      <trkpt lat="42.1084804460" lon="-7.5320236199">
        <ele>852.35</ele>
        <time>2020-08-13T12:27:46Z</time>
      </trkpt>
      <trkpt lat="42.1086184960" lon="-7.5321905036">
        <ele>853.31</ele>
        <time>2020-08-13T12:27:57Z</time>
      </trkpt>
      <trkpt lat="42.1087118704" lon="-7.5323902443">
        <ele>853.79</ele>
        <time>2020-08-13T12:28:08Z</time>
      </trkpt>
      <trkpt lat="42.1087612398" lon="-7.5325380173">
        <ele>854.75</ele>
        <time>2020-08-13T12:28:16Z</time>
      </trkpt>
      <trkpt lat="42.1088478249" lon="-7.5327785779">
        <ele>856.67</ele>
        <time>2020-08-13T12:28:28Z</time>
      </trkpt>
      <trkpt lat="42.1089565381" lon="-7.5329177175">
        <ele>857.63</ele>
        <time>2020-08-13T12:28:37Z</time>
      </trkpt>
      <trkpt lat="42.1090712864" lon="-7.5329895504">
        <ele>859.08</ele>
        <time>2020-08-13T12:28:45Z</time>
      </trkpt>
      <trkpt lat="42.1091359947" lon="-7.5329980161">
        <ele>860.04</ele>
        <time>2020-08-13T12:28:50Z</time>
      </trkpt>
      <trkpt lat="42.1091501601" lon="-7.5330037158">
        <ele>860.04</ele>
        <time>2020-08-13T12:28:51Z</time>
      </trkpt>
      <trkpt lat="42.1091651637" lon="-7.5330075715">
        <ele>860.04</ele>
        <time>2020-08-13T12:28:52Z</time>
      </trkpt>
      <trkpt lat="42.1091798320" lon="-7.5330146123">
        <ele>860.52</ele>
        <time>2020-08-13T12:28:53Z</time>
      </trkpt>
      <trkpt lat="42.1091949195" lon="-7.5330246706">
        <ele>860.52</ele>
        <time>2020-08-13T12:28:54Z</time>
      </trkpt>
      <trkpt lat="42.1093392558" lon="-7.5331048854">
        <ele>861.48</ele>
        <time>2020-08-13T12:29:05Z</time>
      </trkpt>
      <trkpt lat="42.1093509067" lon="-7.5331087410">
        <ele>861.00</ele>
        <time>2020-08-13T12:29:14Z</time>
      </trkpt>
      <trkpt lat="42.1093524154" lon="-7.5331043825">
        <ele>860.52</ele>
        <time>2020-08-13T12:29:30Z</time>
      </trkpt>
      <trkpt lat="42.1093611326" lon="-7.5331012812">
        <ele>861.00</ele>
        <time>2020-08-13T12:29:44Z</time>
      </trkpt>
      <trkpt lat="42.1093597077" lon="-7.5331045501">
        <ele>860.04</ele>
        <time>2020-08-13T12:29:59Z</time>
      </trkpt>
      <trkpt lat="42.1093550138" lon="-7.5331182126">
        <ele>858.59</ele>
        <time>2020-08-13T12:30:19Z</time>
      </trkpt>
      <trkpt lat="42.1093882900" lon="-7.5331514888">
        <ele>860.04</ele>
        <time>2020-08-13T12:30:29Z</time>
      </trkpt>
      <trkpt lat="42.1095125098" lon="-7.5332659855">
        <ele>861.96</ele>
        <time>2020-08-13T12:30:38Z</time>
      </trkpt>
      <trkpt lat="42.1096533258" lon="-7.5334508903">
        <ele>863.40</ele>
        <time>2020-08-13T12:30:49Z</time>
      </trkpt>
      <trkpt lat="42.1097663976" lon="-7.5336162653">
        <ele>863.88</ele>
        <time>2020-08-13T12:30:58Z</time>
      </trkpt>
      <trkpt lat="42.1098738536" lon="-7.5337797962">
        <ele>864.36</ele>
        <time>2020-08-13T12:31:07Z</time>
      </trkpt>
      <trkpt lat="42.1100134961" lon="-7.5339922775">
        <ele>866.29</ele>
        <time>2020-08-13T12:31:18Z</time>
      </trkpt>
      <trkpt lat="42.1101060323" lon="-7.5341509469">
        <ele>868.69</ele>
        <time>2020-08-13T12:31:28Z</time>
      </trkpt>
      <trkpt lat="42.1101162583" lon="-7.5341645256">
        <ele>868.69</ele>
        <time>2020-08-13T12:31:29Z</time>
      </trkpt>
      <trkpt lat="42.1101264842" lon="-7.5341781043">
        <ele>869.17</ele>
        <time>2020-08-13T12:31:30Z</time>
      </trkpt>
      <trkpt lat="42.1102169249" lon="-7.5343366060">
        <ele>871.57</ele>
        <time>2020-08-13T12:31:40Z</time>
      </trkpt>
      <trkpt lat="42.1102437470" lon="-7.5345015619">
        <ele>873.50</ele>
        <time>2020-08-13T12:31:49Z</time>
      </trkpt>
      <trkpt lat="42.1101894323" lon="-7.5346413720">
        <ele>874.94</ele>
        <time>2020-08-13T12:31:57Z</time>
      </trkpt>
      <trkpt lat="42.1100939624" lon="-7.5347488280">
        <ele>875.42</ele>
        <time>2020-08-13T12:32:04Z</time>
      </trkpt>
      <trkpt lat="42.1099526435" lon="-7.5348162185">
        <ele>876.86</ele>
        <time>2020-08-13T12:32:12Z</time>
      </trkpt>
      <trkpt lat="42.1098228078" lon="-7.5348401908">
        <ele>877.82</ele>
        <time>2020-08-13T12:32:19Z</time>
      </trkpt>
      <trkpt lat="42.1096653119" lon="-7.5348699465">
        <ele>878.78</ele>
        <time>2020-08-13T12:32:28Z</time>
      </trkpt>
      <trkpt lat="42.1094607096" lon="-7.5349075813">
        <ele>880.22</ele>
        <time>2020-08-13T12:32:39Z</time>
      </trkpt>
      <trkpt lat="42.1092842706" lon="-7.5349513348">
        <ele>880.22</ele>
        <time>2020-08-13T12:32:48Z</time>
      </trkpt>
      <trkpt lat="42.1091300435" lon="-7.5349965133">
        <ele>880.71</ele>
        <time>2020-08-13T12:32:56Z</time>
      </trkpt>
      <trkpt lat="42.1089146286" lon="-7.5350965094">
        <ele>881.67</ele>
        <time>2020-08-13T12:33:07Z</time>
      </trkpt>
      <trkpt lat="42.1087748185" lon="-7.5352110900">
        <ele>882.63</ele>
        <time>2020-08-13T12:33:15Z</time>
      </trkpt>
      <trkpt lat="42.1086040791" lon="-7.5353725255">
        <ele>882.63</ele>
        <time>2020-08-13T12:33:25Z</time>
      </trkpt>
      <trkpt lat="42.1084151510" lon="-7.5355476234">
        <ele>884.07</ele>
        <time>2020-08-13T12:33:33Z</time>
      </trkpt>
      <trkpt lat="42.1082066931" lon="-7.5356863439">
        <ele>885.03</ele>
        <time>2020-08-13T12:33:41Z</time>
      </trkpt>
      <trkpt lat="42.1080024261" lon="-7.5357800536">
        <ele>885.03</ele>
        <time>2020-08-13T12:33:48Z</time>
      </trkpt>
      <trkpt lat="42.1077216323" lon="-7.5359148346">
        <ele>885.99</ele>
        <time>2020-08-13T12:33:58Z</time>
      </trkpt>
      <trkpt lat="42.1076104883" lon="-7.5361678004">
        <ele>885.51</ele>
        <time>2020-08-13T12:34:05Z</time>
      </trkpt>
      <trkpt lat="42.1076515596" lon="-7.5363998953">
        <ele>885.99</ele>
        <time>2020-08-13T12:34:11Z</time>
      </trkpt>
      <trkpt lat="42.1078336984" lon="-7.5366468262">
        <ele>886.95</ele>
        <time>2020-08-13T12:34:20Z</time>
      </trkpt>
      <trkpt lat="42.1080160048" lon="-7.5368432980">
        <ele>887.91</ele>
        <time>2020-08-13T12:34:28Z</time>
      </trkpt>
      <trkpt lat="42.1082895063" lon="-7.5371293724">
        <ele>888.88</ele>
        <time>2020-08-13T12:34:40Z</time>
      </trkpt>
      <trkpt lat="42.1085278876" lon="-7.5373907201">
        <ele>890.32</ele>
        <time>2020-08-13T12:34:51Z</time>
      </trkpt>
      <trkpt lat="42.1088082623" lon="-7.5376917142">
        <ele>891.28</ele>
        <time>2020-08-13T12:35:03Z</time>
      </trkpt>
      <trkpt lat="42.1089538559" lon="-7.5378395710">
        <ele>891.76</ele>
        <time>2020-08-13T12:35:09Z</time>
      </trkpt>
      <trkpt lat="42.1091758087" lon="-7.5380847417">
        <ele>892.24</ele>
        <time>2020-08-13T12:35:19Z</time>
      </trkpt>
      <trkpt lat="42.1093741246" lon="-7.5383019168">
        <ele>893.68</ele>
        <time>2020-08-13T12:35:28Z</time>
      </trkpt>
      <trkpt lat="42.1096481290" lon="-7.5385926012">
        <ele>894.64</ele>
        <time>2020-08-13T12:35:41Z</time>
      </trkpt>
      <trkpt lat="42.1098427568" lon="-7.5387899112">
        <ele>894.64</ele>
        <time>2020-08-13T12:35:50Z</time>
      </trkpt>
      <trkpt lat="42.1100670565" lon="-7.5389438868">
        <ele>896.09</ele>
        <time>2020-08-13T12:35:59Z</time>
      </trkpt>
      <trkpt lat="42.1104169171" lon="-7.5391012151">
        <ele>898.01</ele>
        <time>2020-08-13T12:36:12Z</time>
      </trkpt>
      <trkpt lat="42.1107127145" lon="-7.5392248482">
        <ele>898.97</ele>
        <time>2020-08-13T12:36:22Z</time>
      </trkpt>
      <trkpt lat="42.1109761577" lon="-7.5393392611">
        <ele>900.41</ele>
        <time>2020-08-13T12:36:31Z</time>
      </trkpt>
      <trkpt lat="42.1112344880" lon="-7.5394416042">
        <ele>902.82</ele>
        <time>2020-08-13T12:36:41Z</time>
      </trkpt>
      <trkpt lat="42.1114075743" lon="-7.5395028759">
        <ele>904.74</ele>
        <time>2020-08-13T12:36:49Z</time>
      </trkpt>
      <trkpt lat="42.1116478834" lon="-7.5396093260">
        <ele>905.70</ele>
        <time>2020-08-13T12:37:01Z</time>
      </trkpt>
      <trkpt lat="42.1117767971" lon="-7.5396871101">
        <ele>906.18</ele>
        <time>2020-08-13T12:37:08Z</time>
      </trkpt>
      <trkpt lat="42.1118254121" lon="-7.5397192966">
        <ele>906.66</ele>
        <time>2020-08-13T12:37:12Z</time>
      </trkpt>
      <trkpt lat="42.1118384879" lon="-7.5397344679">
        <ele>906.66</ele>
        <time>2020-08-13T12:37:13Z</time>
      </trkpt>
      <trkpt lat="42.1119834110" lon="-7.5398964901">
        <ele>907.62</ele>
        <time>2020-08-13T12:37:22Z</time>
      </trkpt>
      <trkpt lat="42.1121043619" lon="-7.5400869269">
        <ele>908.58</ele>
        <time>2020-08-13T12:37:32Z</time>
      </trkpt>
      <trkpt lat="42.1122124884" lon="-7.5403038505">
        <ele>909.54</ele>
        <time>2020-08-13T12:37:42Z</time>
      </trkpt>
      <trkpt lat="42.1123282425" lon="-7.5405294076">
        <ele>911.47</ele>
        <time>2020-08-13T12:37:52Z</time>
      </trkpt>
      <trkpt lat="42.1124576591" lon="-7.5407630112">
        <ele>912.91</ele>
        <time>2020-08-13T12:38:02Z</time>
      </trkpt>
      <trkpt lat="42.1126005705" lon="-7.5409585610">
        <ele>914.35</ele>
        <time>2020-08-13T12:38:12Z</time>
      </trkpt>
      <trkpt lat="42.1127846371" lon="-7.5411215890">
        <ele>915.79</ele>
        <time>2020-08-13T12:38:23Z</time>
      </trkpt>
      <trkpt lat="42.1129684523" lon="-7.5412639137">
        <ele>917.72</ele>
        <time>2020-08-13T12:38:33Z</time>
      </trkpt>
      <trkpt lat="42.1132007148" lon="-7.5413810927">
        <ele>918.20</ele>
        <time>2020-08-13T12:38:44Z</time>
      </trkpt>
      <trkpt lat="42.1134546865" lon="-7.5414425321">
        <ele>920.12</ele>
        <time>2020-08-13T12:38:56Z</time>
      </trkpt>
      <trkpt lat="42.1137168724" lon="-7.5415261835">
        <ele>921.08</ele>
        <time>2020-08-13T12:39:09Z</time>
      </trkpt>
      <trkpt lat="42.1138624661" lon="-7.5416021235">
        <ele>921.56</ele>
        <time>2020-08-13T12:39:17Z</time>
      </trkpt>
      <trkpt lat="42.1140252426" lon="-7.5417505670">
        <ele>922.04</ele>
        <time>2020-08-13T12:39:26Z</time>
      </trkpt>
      <trkpt lat="42.1141610295" lon="-7.5419310294">
        <ele>922.04</ele>
        <time>2020-08-13T12:39:33Z</time>
      </trkpt>
      <trkpt lat="42.1143285837" lon="-7.5422763638">
        <ele>921.56</ele>
        <time>2020-08-13T12:39:43Z</time>
      </trkpt>
      <trkpt lat="42.1145294141" lon="-7.5427142344">
        <ele>921.08</ele>
        <time>2020-08-13T12:39:55Z</time>
      </trkpt>
      <trkpt lat="42.1146904305" lon="-7.5430721417">
        <ele>921.08</ele>
        <time>2020-08-13T12:40:05Z</time>
      </trkpt>
      <trkpt lat="42.1148772631" lon="-7.5434743054">
        <ele>921.08</ele>
        <time>2020-08-13T12:40:17Z</time>
      </trkpt>
      <trkpt lat="42.1150096972" lon="-7.5437537581">
        <ele>920.60</ele>
        <time>2020-08-13T12:40:27Z</time>
      </trkpt>
      <trkpt lat="42.1152023133" lon="-7.5441027805">
        <ele>919.16</ele>
        <time>2020-08-13T12:40:37Z</time>
      </trkpt>
      <trkpt lat="42.1154455561" lon="-7.5445136614">
        <ele>917.72</ele>
        <time>2020-08-13T12:40:45Z</time>
      </trkpt>
      <trkpt lat="42.1157873701" lon="-7.5450905878">
        <ele>913.39</ele>
        <time>2020-08-13T12:40:53Z</time>
      </trkpt>
      <trkpt lat="42.1162149310" lon="-7.5457977690">
        <ele>909.06</ele>
        <time>2020-08-13T12:41:01Z</time>
      </trkpt>
      <trkpt lat="42.1166800428" lon="-7.5465823151">
        <ele>906.66</ele>
        <time>2020-08-13T12:41:10Z</time>
      </trkpt>
      <trkpt lat="42.1173151396" lon="-7.5476487447">
        <ele>902.82</ele>
        <time>2020-08-13T12:41:22Z</time>
      </trkpt>
      <trkpt lat="42.1178582031" lon="-7.5485818181">
        <ele>901.37</ele>
        <time>2020-08-13T12:41:33Z</time>
      </trkpt>
      <trkpt lat="42.1181353927" lon="-7.5490345247">
        <ele>900.41</ele>
        <time>2020-08-13T12:41:39Z</time>
      </trkpt>
      <trkpt lat="42.1181866899" lon="-7.5490999036">
        <ele>900.41</ele>
        <time>2020-08-13T12:41:40Z</time>
      </trkpt>
      <trkpt lat="42.1183554176" lon="-7.5492664520">
        <ele>899.93</ele>
        <time>2020-08-13T12:41:43Z</time>
      </trkpt>
      <trkpt lat="42.1184150968" lon="-7.5493039191">
        <ele>899.93</ele>
        <time>2020-08-13T12:41:44Z</time>
      </trkpt>
      <trkpt lat="42.1188750956" lon="-7.5495039113">
        <ele>899.93</ele>
        <time>2020-08-13T12:41:52Z</time>
      </trkpt>
      <trkpt lat="42.1191948652" lon="-7.5496366806">
        <ele>899.93</ele>
        <time>2020-08-13T12:41:59Z</time>
      </trkpt>
      <trkpt lat="42.1194656007" lon="-7.5497583859">
        <ele>900.41</ele>
        <time>2020-08-13T12:42:07Z</time>
      </trkpt>
      <trkpt lat="42.1197955962" lon="-7.5498993695">
        <ele>901.85</ele>
        <time>2020-08-13T12:42:18Z</time>
      </trkpt>
      <trkpt lat="42.1199656650" lon="-7.5499541033">
        <ele>901.85</ele>
        <time>2020-08-13T12:42:26Z</time>
      </trkpt>
      <trkpt lat="42.1199747175" lon="-7.5499540195">
        <ele>901.37</ele>
        <time>2020-08-13T12:42:32Z</time>
      </trkpt>
      <trkpt lat="42.1199769806" lon="-7.5499473978">
        <ele>900.41</ele>
        <time>2020-08-13T12:42:42Z</time>
      </trkpt>
      <trkpt lat="42.1199743822" lon="-7.5499527622">
        <ele>900.89</ele>
        <time>2020-08-13T12:42:58Z</time>
      </trkpt>
      <trkpt lat="42.1199603006" lon="-7.5499493256">
        <ele>900.89</ele>
        <time>2020-08-13T12:43:21Z</time>
      </trkpt>
      <trkpt lat="42.1199677605" lon="-7.5499351602">
        <ele>902.33</ele>
        <time>2020-08-13T12:43:40Z</time>
      </trkpt>
      <trkpt lat="42.1199697722" lon="-7.5499324780">
        <ele>901.85</ele>
        <time>2020-08-13T12:43:54Z</time>
      </trkpt>
      <trkpt lat="42.1199836861" lon="-7.5499600545">
        <ele>900.89</ele>
        <time>2020-08-13T12:44:03Z</time>
      </trkpt>
      <trkpt lat="42.1199904755" lon="-7.5499683525">
        <ele>900.89</ele>
        <time>2020-08-13T12:44:04Z</time>
      </trkpt>
      <trkpt lat="42.1200044733" lon="-7.5499722082">
        <ele>900.89</ele>
        <time>2020-08-13T12:44:10Z</time>
      </trkpt>
      <trkpt lat="42.1200235002" lon="-7.5499901455">
        <ele>901.37</ele>
        <time>2020-08-13T12:44:13Z</time>
      </trkpt>
      <trkpt lat="42.1200377494" lon="-7.5499981083">
        <ele>901.37</ele>
        <time>2020-08-13T12:44:14Z</time>
      </trkpt>
      <trkpt lat="42.1200587880" lon="-7.5500086695">
        <ele>901.37</ele>
        <time>2020-08-13T12:44:15Z</time>
      </trkpt>
      <trkpt lat="42.1200814191" lon="-7.5500182249">
        <ele>901.37</ele>
        <time>2020-08-13T12:44:16Z</time>
      </trkpt>
      <trkpt lat="42.1201092470" lon="-7.5500270259">
        <ele>901.37</ele>
        <time>2020-08-13T12:44:17Z</time>
      </trkpt>
      <trkpt lat="42.1203268413" lon="-7.5501249265">
        <ele>902.33</ele>
        <time>2020-08-13T12:44:25Z</time>
      </trkpt>
      <trkpt lat="42.1206568368" lon="-7.5502673350">
        <ele>902.82</ele>
        <time>2020-08-13T12:44:36Z</time>
      </trkpt>
      <trkpt lat="42.1209841501" lon="-7.5504148565">
        <ele>903.30</ele>
        <time>2020-08-13T12:44:47Z</time>
      </trkpt>
      <trkpt lat="42.1212346852" lon="-7.5505150203">
        <ele>903.78</ele>
        <time>2020-08-13T12:44:56Z</time>
      </trkpt>
      <trkpt lat="42.1215279680" lon="-7.5506487954">
        <ele>904.26</ele>
        <time>2020-08-13T12:45:06Z</time>
      </trkpt>
      <trkpt lat="42.1218622383" lon="-7.5507828221">
        <ele>904.74</ele>
        <time>2020-08-13T12:45:16Z</time>
      </trkpt>
      <trkpt lat="42.1222330537" lon="-7.5509405695">
        <ele>906.66</ele>
        <time>2020-08-13T12:45:27Z</time>
      </trkpt>
      <trkpt lat="42.1224408410" lon="-7.5510238018">
        <ele>907.62</ele>
        <time>2020-08-13T12:45:35Z</time>
      </trkpt>
      <trkpt lat="42.1224428527" lon="-7.5510240532">
        <ele>907.62</ele>
        <time>2020-08-13T12:45:41Z</time>
      </trkpt>
      <trkpt lat="42.1224521566" lon="-7.5510490313">
        <ele>907.62</ele>
        <time>2020-08-13T12:45:47Z</time>
      </trkpt>
      <trkpt lat="42.1224627178" lon="-7.5510625262">
        <ele>907.62</ele>
        <time>2020-08-13T12:45:48Z</time>
      </trkpt>
      <trkpt lat="42.1224774700" lon="-7.5510750990">
        <ele>908.10</ele>
        <time>2020-08-13T12:45:49Z</time>
      </trkpt>
      <trkpt lat="42.1226569265" lon="-7.5512252189">
        <ele>908.58</ele>
        <time>2020-08-13T12:45:57Z</time>
      </trkpt>
      <trkpt lat="42.1228188649" lon="-7.5514254626">
        <ele>909.06</ele>
        <time>2020-08-13T12:46:05Z</time>
      </trkpt>
      <trkpt lat="42.1229654644" lon="-7.5516286399">
        <ele>909.54</ele>
        <time>2020-08-13T12:46:13Z</time>
      </trkpt>
      <trkpt lat="42.1231367067" lon="-7.5518250279">
        <ele>910.99</ele>
        <time>2020-08-13T12:46:22Z</time>
      </trkpt>
      <trkpt lat="42.1233059373" lon="-7.5519581325">
        <ele>911.95</ele>
        <time>2020-08-13T12:46:29Z</time>
      </trkpt>
      <trkpt lat="42.1235439833" lon="-7.5521390140">
        <ele>912.43</ele>
        <time>2020-08-13T12:46:39Z</time>
      </trkpt>
      <trkpt lat="42.1238369308" lon="-7.5523625594">
        <ele>913.87</ele>
        <time>2020-08-13T12:46:52Z</time>
      </trkpt>
      <trkpt lat="42.1240439638" lon="-7.5525191333">
        <ele>915.31</ele>
        <time>2020-08-13T12:47:01Z</time>
      </trkpt>
      <trkpt lat="42.1241390985" lon="-7.5525824167">
        <ele>915.31</ele>
        <time>2020-08-13T12:47:06Z</time>
      </trkpt>
      <trkpt lat="42.1241841931" lon="-7.5526192132">
        <ele>915.31</ele>
        <time>2020-08-13T12:47:12Z</time>
      </trkpt>
      <trkpt lat="42.1241835225" lon="-7.5526285172">
        <ele>916.27</ele>
        <time>2020-08-13T12:47:24Z</time>
      </trkpt>
      <trkpt lat="42.1241779905" lon="-7.5526221469">
        <ele>915.31</ele>
        <time>2020-08-13T12:47:35Z</time>
      </trkpt>
      <trkpt lat="42.1242002863" lon="-7.5526168663">
        <ele>915.31</ele>
        <time>2020-08-13T12:47:45Z</time>
      </trkpt>
      <trkpt lat="42.1242064890" lon="-7.5526274275">
        <ele>914.83</ele>
        <time>2020-08-13T12:47:59Z</time>
      </trkpt>
      <trkpt lat="42.1242261864" lon="-7.5526471250">
        <ele>914.83</ele>
        <time>2020-08-13T12:48:11Z</time>
      </trkpt>
      <trkpt lat="42.1243644040" lon="-7.5527487975">
        <ele>916.27</ele>
        <time>2020-08-13T12:48:20Z</time>
      </trkpt>
      <trkpt lat="42.1245167870" lon="-7.5528656412">
        <ele>916.75</ele>
        <time>2020-08-13T12:48:29Z</time>
      </trkpt>
      <trkpt lat="42.1246688347" lon="-7.5529842451">
        <ele>918.20</ele>
        <time>2020-08-13T12:48:39Z</time>
      </trkpt>
      <trkpt lat="42.1248689108" lon="-7.5531330239">
        <ele>919.64</ele>
        <time>2020-08-13T12:48:50Z</time>
      </trkpt>
      <trkpt lat="42.1249959804" lon="-7.5532336067">
        <ele>920.60</ele>
        <time>2020-08-13T12:48:57Z</time>
      </trkpt>
      <trkpt lat="42.1251895186" lon="-7.5534076989">
        <ele>921.56</ele>
        <time>2020-08-13T12:49:09Z</time>
      </trkpt>
      <trkpt lat="42.1253038477" lon="-7.5535239559">
        <ele>921.08</ele>
        <time>2020-08-13T12:49:17Z</time>
      </trkpt>
      <trkpt lat="42.1253992338" lon="-7.5536264665">
        <ele>922.04</ele>
        <time>2020-08-13T12:49:24Z</time>
      </trkpt>
      <trkpt lat="42.1255850606" lon="-7.5538450666">
        <ele>922.04</ele>
        <time>2020-08-13T12:49:36Z</time>
      </trkpt>
      <trkpt lat="42.1257348452" lon="-7.5540118665">
        <ele>923.96</ele>
        <time>2020-08-13T12:49:44Z</time>
      </trkpt>
      <trkpt lat="42.1259692032" lon="-7.5542677660">
        <ele>924.45</ele>
        <time>2020-08-13T12:49:54Z</time>
      </trkpt>
      <trkpt lat="42.1262663417" lon="-7.5545894634">
        <ele>924.93</ele>
        <time>2020-08-13T12:50:06Z</time>
      </trkpt>
      <trkpt lat="42.1265307069" lon="-7.5548818242">
        <ele>925.41</ele>
        <time>2020-08-13T12:50:17Z</time>
      </trkpt>
      <trkpt lat="42.1267429367" lon="-7.5551183615">
        <ele>926.37</ele>
        <time>2020-08-13T12:50:27Z</time>
      </trkpt>
      <trkpt lat="42.1268222295" lon="-7.5552092213">
        <ele>927.81</ele>
        <time>2020-08-13T12:50:34Z</time>
      </trkpt>
      <trkpt lat="42.1269297693" lon="-7.5553228799">
        <ele>928.77</ele>
        <time>2020-08-13T12:50:42Z</time>
      </trkpt>
      <trkpt lat="42.1270505525" lon="-7.5554502849">
        <ele>929.73</ele>
        <time>2020-08-13T12:50:50Z</time>
      </trkpt>
      <trkpt lat="42.1272396483" lon="-7.5556484330">
        <ele>931.17</ele>
        <time>2020-08-13T12:51:01Z</time>
      </trkpt>
      <trkpt lat="42.1274118964" lon="-7.5558675360">
        <ele>932.14</ele>
        <time>2020-08-13T12:51:11Z</time>
      </trkpt>
      <trkpt lat="42.1275494434" lon="-7.5561481621">
        <ele>932.14</ele>
        <time>2020-08-13T12:51:21Z</time>
      </trkpt>
      <trkpt lat="42.1276491880" lon="-7.5564114377">
        <ele>933.10</ele>
        <time>2020-08-13T12:51:31Z</time>
      </trkpt>
      <trkpt lat="42.1277054306" lon="-7.5565733761">
        <ele>933.58</ele>
        <time>2020-08-13T12:51:39Z</time>
      </trkpt>
      <trkpt lat="42.1277930215" lon="-7.5568261743">
        <ele>934.54</ele>
        <time>2020-08-13T12:51:50Z</time>
      </trkpt>
      <trkpt lat="42.1278848872" lon="-7.5570703391">
        <ele>936.46</ele>
        <time>2020-08-13T12:52:01Z</time>
      </trkpt>
      <trkpt lat="42.1279705502" lon="-7.5573043618">
        <ele>937.90</ele>
        <time>2020-08-13T12:52:11Z</time>
      </trkpt>
      <trkpt lat="42.1280537825" lon="-7.5575163402">
        <ele>938.86</ele>
        <time>2020-08-13T12:52:21Z</time>
      </trkpt>
      <trkpt lat="42.1281583887" lon="-7.5577910990">
        <ele>939.83</ele>
        <time>2020-08-13T12:52:34Z</time>
      </trkpt>
      <trkpt lat="42.1282271203" lon="-7.5579953659">
        <ele>941.27</ele>
        <time>2020-08-13T12:52:43Z</time>
      </trkpt>
      <trkpt lat="42.1283285413" lon="-7.5582670234">
        <ele>942.23</ele>
        <time>2020-08-13T12:52:55Z</time>
      </trkpt>
      <trkpt lat="42.1284134500" lon="-7.5585026387">
        <ele>943.19</ele>
        <time>2020-08-13T12:53:05Z</time>
      </trkpt>
      <trkpt lat="42.1285030525" lon="-7.5587329734">
        <ele>944.63</ele>
        <time>2020-08-13T12:53:15Z</time>
      </trkpt>
      <trkpt lat="42.1285910625" lon="-7.5589794014">
        <ele>946.07</ele>
        <time>2020-08-13T12:53:25Z</time>
      </trkpt>
      <trkpt lat="42.1286974289" lon="-7.5592785515">
        <ele>947.52</ele>
        <time>2020-08-13T12:53:37Z</time>
      </trkpt>
      <trkpt lat="42.1288285218" lon="-7.5595110655">
        <ele>948.96</ele>
        <time>2020-08-13T12:53:47Z</time>
      </trkpt>
      <trkpt lat="42.1289492212" lon="-7.5596886780">
        <ele>949.92</ele>
        <time>2020-08-13T12:53:56Z</time>
      </trkpt>
      <trkpt lat="42.1290996764" lon="-7.5598776899">
        <ele>950.40</ele>
        <time>2020-08-13T12:54:04Z</time>
      </trkpt>
      <trkpt lat="42.1292699967" lon="-7.5601006486">
        <ele>951.36</ele>
        <time>2020-08-13T12:54:13Z</time>
      </trkpt>
      <trkpt lat="42.1293900255" lon="-7.5602474995">
        <ele>952.32</ele>
        <time>2020-08-13T12:54:21Z</time>
      </trkpt>
      <trkpt lat="42.1294887643" lon="-7.5603721384">
        <ele>952.32</ele>
        <time>2020-08-13T12:54:28Z</time>
      </trkpt>
      <trkpt lat="42.1296761837" lon="-7.5606204104">
        <ele>951.84</ele>
        <time>2020-08-13T12:54:40Z</time>
      </trkpt>
      <trkpt lat="42.1298215259" lon="-7.5608683471">
        <ele>951.36</ele>
        <time>2020-08-13T12:54:50Z</time>
      </trkpt>
      <trkpt lat="42.1299270540" lon="-7.5611035433">
        <ele>950.88</ele>
        <time>2020-08-13T12:55:01Z</time>
      </trkpt>
      <trkpt lat="42.1300136391" lon="-7.5613292679">
        <ele>950.88</ele>
        <time>2020-08-13T12:55:09Z</time>
      </trkpt>
      <trkpt lat="42.1301111206" lon="-7.5615898613">
        <ele>950.40</ele>
        <time>2020-08-13T12:55:18Z</time>
      </trkpt>
      <trkpt lat="42.1301772539" lon="-7.5617841538">
        <ele>950.40</ele>
        <time>2020-08-13T12:55:24Z</time>
      </trkpt>
      <trkpt lat="42.1303020604" lon="-7.5620984752">
        <ele>950.40</ele>
        <time>2020-08-13T12:55:34Z</time>
      </trkpt>
      <trkpt lat="42.1303686127" lon="-7.5622930191">
        <ele>949.92</ele>
        <time>2020-08-13T12:55:42Z</time>
      </trkpt>
      <trkpt lat="42.1304786671" lon="-7.5625818595">
        <ele>948.96</ele>
        <time>2020-08-13T12:55:52Z</time>
      </trkpt>
      <trkpt lat="42.1305867098" lon="-7.5628729630">
        <ele>948.48</ele>
        <time>2020-08-13T12:56:01Z</time>
      </trkpt>
      <trkpt lat="42.1306935791" lon="-7.5631647371">
        <ele>947.52</ele>
        <time>2020-08-13T12:56:09Z</time>
      </trkpt>
      <trkpt lat="42.1308313776" lon="-7.5635479577">
        <ele>946.56</ele>
        <time>2020-08-13T12:56:18Z</time>
      </trkpt>
      <trkpt lat="42.1309263445" lon="-7.5639895163">
        <ele>946.07</ele>
        <time>2020-08-13T12:56:27Z</time>
      </trkpt>
      <trkpt lat="42.1309575252" lon="-7.5643593259">
        <ele>947.04</ele>
        <time>2020-08-13T12:56:37Z</time>
      </trkpt>
      <trkpt lat="42.1309892088" lon="-7.5648414530">
        <ele>948.48</ele>
        <time>2020-08-13T12:56:50Z</time>
      </trkpt>
      <trkpt lat="42.1310233232" lon="-7.5652720314">
        <ele>950.40</ele>
        <time>2020-08-13T12:57:01Z</time>
      </trkpt>
      <trkpt lat="42.1310529113" lon="-7.5657455251">
        <ele>952.32</ele>
        <time>2020-08-13T12:57:13Z</time>
      </trkpt>
      <trkpt lat="42.1310575213" lon="-7.5659254007">
        <ele>952.80</ele>
        <time>2020-08-13T12:57:21Z</time>
      </trkpt>
      <trkpt lat="42.1310581919" lon="-7.5659422483">
        <ele>952.80</ele>
        <time>2020-08-13T12:57:22Z</time>
      </trkpt>
      <trkpt lat="42.1310594492" lon="-7.5659579225">
        <ele>952.80</ele>
        <time>2020-08-13T12:57:23Z</time>
      </trkpt>
      <trkpt lat="42.1310620476" lon="-7.5659724232">
        <ele>952.80</ele>
        <time>2020-08-13T12:57:28Z</time>
      </trkpt>
      <trkpt lat="42.1310676634" lon="-7.5659723394">
        <ele>953.28</ele>
        <time>2020-08-13T12:57:45Z</time>
      </trkpt>
      <trkpt lat="42.1310633887" lon="-7.5659882650">
        <ele>953.77</ele>
        <time>2020-08-13T12:58:03Z</time>
      </trkpt>
      <trkpt lat="42.1310625505" lon="-7.5659821462">
        <ele>953.28</ele>
        <time>2020-08-13T12:58:22Z</time>
      </trkpt>
      <trkpt lat="42.1310612094" lon="-7.5659730937">
        <ele>951.36</ele>
        <time>2020-08-13T12:58:31Z</time>
      </trkpt>
      <trkpt lat="42.1310618799" lon="-7.5659818109">
        <ele>950.40</ele>
        <time>2020-08-13T12:58:53Z</time>
      </trkpt>
      <trkpt lat="42.1310581081" lon="-7.5659746025">
        <ele>949.92</ele>
        <time>2020-08-13T12:59:11Z</time>
      </trkpt>
      <trkpt lat="42.1310643945" lon="-7.5659694057">
        <ele>951.36</ele>
        <time>2020-08-13T12:59:34Z</time>
      </trkpt>
      <trkpt lat="42.1310568508" lon="-7.5659794640">
        <ele>949.92</ele>
        <time>2020-08-13T12:59:49Z</time>
      </trkpt>
      <trkpt lat="42.1310591977" lon="-7.5659626164">
        <ele>948.48</ele>
        <time>2020-08-13T13:00:08Z</time>
      </trkpt>
      <trkpt lat="42.1310580242" lon="-7.5659498759">
        <ele>948.00</ele>
        <time>2020-08-13T13:00:25Z</time>
      </trkpt>
      <trkpt lat="42.1310560964" lon="-7.5659638736">
        <ele>948.96</ele>
        <time>2020-08-13T13:00:35Z</time>
      </trkpt>
      <trkpt lat="42.1310590301" lon="-7.5659792125">
        <ele>948.96</ele>
        <time>2020-08-13T13:00:45Z</time>
      </trkpt>
      <trkpt lat="42.1310617123" lon="-7.5661149155">
        <ele>948.96</ele>
        <time>2020-08-13T13:00:52Z</time>
      </trkpt>
      <trkpt lat="42.1310804877" lon="-7.5663979724">
        <ele>948.96</ele>
        <time>2020-08-13T13:01:00Z</time>
      </trkpt>
      <trkpt lat="42.1311001852" lon="-7.5667666085">
        <ele>948.96</ele>
        <time>2020-08-13T13:01:09Z</time>
      </trkpt>
      <trkpt lat="42.1311337128" lon="-7.5671856198">
        <ele>948.96</ele>
        <time>2020-08-13T13:01:19Z</time>
      </trkpt>
      <trkpt lat="42.1311610378" lon="-7.5676061399">
        <ele>948.48</ele>
        <time>2020-08-13T13:01:28Z</time>
      </trkpt>
      <trkpt lat="42.1312051266" lon="-7.5681984052">
        <ele>948.96</ele>
        <time>2020-08-13T13:01:40Z</time>
      </trkpt>
      <trkpt lat="42.1312187053" lon="-7.5684404746">
        <ele>949.44</ele>
        <time>2020-08-13T13:01:47Z</time>
      </trkpt>
      <trkpt lat="42.1312428452" lon="-7.5688018184">
        <ele>951.36</ele>
        <time>2020-08-13T13:01:57Z</time>
      </trkpt>
      <trkpt lat="42.1312648896" lon="-7.5691840332">
        <ele>953.28</ele>
        <time>2020-08-13T13:02:07Z</time>
      </trkpt>
      <trkpt lat="42.1312922146" lon="-7.5695898011">
        <ele>954.73</ele>
        <time>2020-08-13T13:02:17Z</time>
      </trkpt>
      <trkpt lat="42.1313121635" lon="-7.5699096546">
        <ele>955.21</ele>
        <time>2020-08-13T13:02:26Z</time>
      </trkpt>
      <trkpt lat="42.1313470323" lon="-7.5702439249">
        <ele>955.21</ele>
        <time>2020-08-13T13:02:36Z</time>
      </trkpt>
      <trkpt lat="42.1314567514" lon="-7.5705983117">
        <ele>954.73</ele>
        <time>2020-08-13T13:02:47Z</time>
      </trkpt>
      <trkpt lat="42.1316479426" lon="-7.5710704643">
        <ele>953.77</ele>
        <time>2020-08-13T13:02:56Z</time>
      </trkpt>
      <trkpt lat="42.1318150777" lon="-7.5714802556">
        <ele>954.25</ele>
        <time>2020-08-13T13:03:05Z</time>
      </trkpt>
      <trkpt lat="42.1320028324" lon="-7.5719395839">
        <ele>955.69</ele>
        <time>2020-08-13T13:03:16Z</time>
      </trkpt>
      <trkpt lat="42.1322221030" lon="-7.5723169371">
        <ele>956.65</ele>
        <time>2020-08-13T13:03:26Z</time>
      </trkpt>
      <trkpt lat="42.1325443033" lon="-7.5727104675">
        <ele>956.17</ele>
        <time>2020-08-13T13:03:37Z</time>
      </trkpt>
      <trkpt lat="42.1329327207" lon="-7.5731661078">
        <ele>955.21</ele>
        <time>2020-08-13T13:03:49Z</time>
      </trkpt>
      <trkpt lat="42.1332498919" lon="-7.5735404436">
        <ele>956.65</ele>
        <time>2020-08-13T13:04:00Z</time>
      </trkpt>
      <trkpt lat="42.1335455216" lon="-7.5738929026">
        <ele>958.57</ele>
        <time>2020-08-13T13:04:11Z</time>
      </trkpt>
      <trkpt lat="42.1337306779" lon="-7.5741132628">
        <ele>958.57</ele>
        <time>2020-08-13T13:04:19Z</time>
      </trkpt>
      <trkpt lat="42.1339279879" lon="-7.5743447710">
        <ele>958.57</ele>
        <time>2020-08-13T13:04:29Z</time>
      </trkpt>
      <trkpt lat="42.1340089571" lon="-7.5744392350">
        <ele>958.09</ele>
        <time>2020-08-13T13:04:37Z</time>
      </trkpt>
      <trkpt lat="42.1340097114" lon="-7.5744347088">
        <ele>958.57</ele>
        <time>2020-08-13T13:04:55Z</time>
      </trkpt>
      <trkpt lat="42.1340528782" lon="-7.5744947232">
        <ele>958.57</ele>
        <time>2020-08-13T13:05:01Z</time>
      </trkpt>
      <trkpt lat="42.1342403814" lon="-7.5747089647">
        <ele>957.13</ele>
        <time>2020-08-13T13:05:07Z</time>
      </trkpt>
      <trkpt lat="42.1346535254" lon="-7.5751919299">
        <ele>955.21</ele>
        <time>2020-08-13T13:05:17Z</time>
      </trkpt>
      <trkpt lat="42.1350121032" lon="-7.5756145455">
        <ele>953.28</ele>
        <time>2020-08-13T13:05:26Z</time>
      </trkpt>
      <trkpt lat="42.1350613888" lon="-7.5756598916">
        <ele>953.28</ele>
        <time>2020-08-13T13:05:30Z</time>
      </trkpt>
      <trkpt lat="42.1350567788" lon="-7.5756544434">
        <ele>953.77</ele>
        <time>2020-08-13T13:05:48Z</time>
      </trkpt>
      <trkpt lat="42.1350647416" lon="-7.5756396912">
        <ele>954.25</ele>
        <time>2020-08-13T13:05:53Z</time>
      </trkpt>
      <trkpt lat="42.1350761410" lon="-7.5756274536">
        <ele>954.25</ele>
        <time>2020-08-13T13:05:54Z</time>
      </trkpt>
      <trkpt lat="42.1350913122" lon="-7.5756108575">
        <ele>954.25</ele>
        <time>2020-08-13T13:05:55Z</time>
      </trkpt>
      <trkpt lat="42.1351029631" lon="-7.5756006315">
        <ele>953.77</ele>
        <time>2020-08-13T13:05:56Z</time>
      </trkpt>
      <trkpt lat="42.1351193916" lon="-7.5755909085">
        <ele>954.25</ele>
        <time>2020-08-13T13:05:57Z</time>
      </trkpt>
      <trkpt lat="42.1351376642" lon="-7.5755892321">
        <ele>954.25</ele>
        <time>2020-08-13T13:05:58Z</time>
      </trkpt>
      <trkpt lat="42.1351545118" lon="-7.5755903218">
        <ele>954.25</ele>
        <time>2020-08-13T13:05:59Z</time>
      </trkpt>
      <trkpt lat="42.1353258379" lon="-7.5756588019">
        <ele>954.25</ele>
        <time>2020-08-13T13:06:07Z</time>
      </trkpt>
      <trkpt lat="42.1354424302" lon="-7.5757631566">
        <ele>954.73</ele>
        <time>2020-08-13T13:06:14Z</time>
      </trkpt>
      <trkpt lat="42.1355613694" lon="-7.5759337284">
        <ele>955.21</ele>
        <time>2020-08-13T13:06:22Z</time>
      </trkpt>
      <trkpt lat="42.1357160155" lon="-7.5761318766">
        <ele>955.69</ele>
        <time>2020-08-13T13:06:31Z</time>
      </trkpt>
      <trkpt lat="42.1358263213" lon="-7.5762668252">
        <ele>956.65</ele>
        <time>2020-08-13T13:06:38Z</time>
      </trkpt>
      <trkpt lat="42.1359862480" lon="-7.5764879398">
        <ele>956.65</ele>
        <time>2020-08-13T13:06:47Z</time>
      </trkpt>
      <trkpt lat="42.1361159999" lon="-7.5767005887">
        <ele>957.61</ele>
        <time>2020-08-13T13:06:56Z</time>
      </trkpt>
      <trkpt lat="42.1362302452" lon="-7.5769000780">
        <ele>958.57</ele>
        <time>2020-08-13T13:07:06Z</time>
      </trkpt>
      <trkpt lat="42.1363193449" lon="-7.5770122278">
        <ele>959.53</ele>
        <time>2020-08-13T13:07:14Z</time>
      </trkpt>
      <trkpt lat="42.1364265494" lon="-7.5771754235">
        <ele>961.46</ele>
        <time>2020-08-13T13:07:23Z</time>
      </trkpt>
      <trkpt lat="42.1365270484" lon="-7.5773226097">
        <ele>962.42</ele>
        <time>2020-08-13T13:07:31Z</time>
      </trkpt>
      <trkpt lat="42.1366486698" lon="-7.5774934329">
        <ele>963.38</ele>
        <time>2020-08-13T13:07:41Z</time>
      </trkpt>
      <trkpt lat="42.1367166471" lon="-7.5776123721">
        <ele>964.82</ele>
        <time>2020-08-13T13:07:49Z</time>
      </trkpt>
      <trkpt lat="42.1368005499" lon="-7.5777364243">
        <ele>965.78</ele>
        <time>2020-08-13T13:07:56Z</time>
      </trkpt>
      <trkpt lat="42.1368641686" lon="-7.5778174773">
        <ele>966.26</ele>
        <time>2020-08-13T13:08:02Z</time>
      </trkpt>
      <trkpt lat="42.1368666831" lon="-7.5778424554">
        <ele>966.74</ele>
        <time>2020-08-13T13:08:08Z</time>
      </trkpt>
      <trkpt lat="42.1368606482" lon="-7.5778312236">
        <ele>966.26</ele>
        <time>2020-08-13T13:08:21Z</time>
      </trkpt>
      <trkpt lat="42.1368692815" lon="-7.5778104365">
        <ele>966.26</ele>
        <time>2020-08-13T13:08:38Z</time>
      </trkpt>
      <trkpt lat="42.1368671022" lon="-7.5778080896">
        <ele>965.78</ele>
        <time>2020-08-13T13:08:55Z</time>
      </trkpt>
      <trkpt lat="42.1368571278" lon="-7.5778344087">
        <ele>964.82</ele>
        <time>2020-08-13T13:09:14Z</time>
      </trkpt>
      <trkpt lat="42.1368608996" lon="-7.5778346602">
        <ele>965.30</ele>
        <time>2020-08-13T13:09:28Z</time>
      </trkpt>
      <trkpt lat="42.1368685272" lon="-7.5778376777">
        <ele>965.30</ele>
        <time>2020-08-13T13:09:36Z</time>
      </trkpt>
      <trkpt lat="42.1368704550" lon="-7.5778565370">
        <ele>964.82</ele>
        <time>2020-08-13T13:09:45Z</time>
      </trkpt>
      <trkpt lat="42.1368729696" lon="-7.5778735522">
        <ele>964.82</ele>
        <time>2020-08-13T13:09:46Z</time>
      </trkpt>
      <trkpt lat="42.1368785854" lon="-7.5778937526">
        <ele>964.82</ele>
        <time>2020-08-13T13:09:47Z</time>
      </trkpt>
      <trkpt lat="42.1368857939" lon="-7.5779227540">
        <ele>964.82</ele>
        <time>2020-08-13T13:09:48Z</time>
      </trkpt>
      <trkpt lat="42.1368964389" lon="-7.5779492408">
        <ele>965.30</ele>
        <time>2020-08-13T13:09:49Z</time>
      </trkpt>
      <trkpt lat="42.1369083412" lon="-7.5779747218">
        <ele>965.30</ele>
        <time>2020-08-13T13:09:50Z</time>
      </trkpt>
      <trkpt lat="42.1369210817" lon="-7.5779990293">
        <ele>965.30</ele>
        <time>2020-08-13T13:09:51Z</time>
      </trkpt>
      <trkpt lat="42.1369332355" lon="-7.5780213252">
        <ele>965.30</ele>
        <time>2020-08-13T13:09:52Z</time>
      </trkpt>
      <trkpt lat="42.1369471494" lon="-7.5780367479">
        <ele>965.30</ele>
        <time>2020-08-13T13:09:53Z</time>
      </trkpt>
      <trkpt lat="42.1369628236" lon="-7.5780516677">
        <ele>965.30</ele>
        <time>2020-08-13T13:09:54Z</time>
      </trkpt>
      <trkpt lat="42.1369778272" lon="-7.5780696888">
        <ele>964.82</ele>
        <time>2020-08-13T13:09:55Z</time>
      </trkpt>
      <trkpt lat="42.1369948424" lon="-7.5780863687">
        <ele>964.82</ele>
        <time>2020-08-13T13:09:56Z</time>
      </trkpt>
      <trkpt lat="42.1370123606" lon="-7.5781014562">
        <ele>964.82</ele>
        <time>2020-08-13T13:09:57Z</time>
      </trkpt>
      <trkpt lat="42.1371210739" lon="-7.5781678408">
        <ele>963.86</ele>
        <time>2020-08-13T13:10:04Z</time>
      </trkpt>
      <trkpt lat="42.1372491494" lon="-7.5782367401">
        <ele>962.90</ele>
        <time>2020-08-13T13:10:12Z</time>
      </trkpt>
      <trkpt lat="42.1374014486" lon="-7.5783082377">
        <ele>960.98</ele>
        <time>2020-08-13T13:10:20Z</time>
      </trkpt>
      <trkpt lat="42.1375790611" lon="-7.5783938169">
        <ele>959.05</ele>
        <time>2020-08-13T13:10:29Z</time>
      </trkpt>
      <trkpt lat="42.1376819909" lon="-7.5784419291">
        <ele>958.09</ele>
        <time>2020-08-13T13:10:36Z</time>
      </trkpt>
      <trkpt lat="42.1378238127" lon="-7.5785099063">
        <ele>956.65</ele>
        <time>2020-08-13T13:10:44Z</time>
      </trkpt>
      <trkpt lat="42.1379460208" lon="-7.5785444397">
        <ele>955.21</ele>
        <time>2020-08-13T13:10:52Z</time>
      </trkpt>
      <trkpt lat="42.1379968151" lon="-7.5785715133">
        <ele>955.21</ele>
        <time>2020-08-13T13:10:58Z</time>
      </trkpt>
      <trkpt lat="42.1381233819" lon="-7.5786677375">
        <ele>954.73</ele>
        <time>2020-08-13T13:11:07Z</time>
      </trkpt>
      <trkpt lat="42.1381375473" lon="-7.5786894467">
        <ele>953.28</ele>
        <time>2020-08-13T13:11:11Z</time>
      </trkpt>
      <trkpt lat="42.1381416544" lon="-7.5786979124">
        <ele>952.32</ele>
        <time>2020-08-13T13:11:21Z</time>
      </trkpt>
      <trkpt lat="42.1381701529" lon="-7.5787279196">
        <ele>952.80</ele>
        <time>2020-08-13T13:11:29Z</time>
      </trkpt>
      <trkpt lat="42.1382274851" lon="-7.5787775405">
        <ele>952.32</ele>
        <time>2020-08-13T13:11:39Z</time>
      </trkpt>
      <trkpt lat="42.1382292453" lon="-7.5787476171">
        <ele>950.40</ele>
        <time>2020-08-13T13:12:05Z</time>
      </trkpt>
      <trkpt lat="42.1382377949" lon="-7.5787425041">
        <ele>950.40</ele>
        <time>2020-08-13T13:12:19Z</time>
      </trkpt>
      <trkpt lat="42.1382395551" lon="-7.5787488744">
        <ele>950.40</ele>
        <time>2020-08-13T13:12:39Z</time>
      </trkpt>
      <trkpt lat="42.1382429078" lon="-7.5787828211">
        <ele>951.84</ele>
        <time>2020-08-13T13:12:55Z</time>
      </trkpt>
      <trkpt lat="42.1382458415" lon="-7.5788012613">
        <ele>951.36</ele>
        <time>2020-08-13T13:13:09Z</time>
      </trkpt>
      <trkpt lat="42.1382948756" lon="-7.5788554922">
        <ele>950.40</ele>
        <time>2020-08-13T13:13:19Z</time>
      </trkpt>
      <trkpt lat="42.1383473463" lon="-7.5789227150">
        <ele>948.96</ele>
        <time>2020-08-13T13:13:28Z</time>
      </trkpt>
      <trkpt lat="42.1383902617" lon="-7.5790109765">
        <ele>947.52</ele>
        <time>2020-08-13T13:13:36Z</time>
      </trkpt>
      <trkpt lat="42.1384371165" lon="-7.5790926162">
        <ele>945.11</ele>
        <time>2020-08-13T13:13:45Z</time>
      </trkpt>
      <trkpt lat="42.1384401340" lon="-7.5791020039">
        <ele>943.67</ele>
        <time>2020-08-13T13:13:55Z</time>
      </trkpt>
      <trkpt lat="42.1384556405" lon="-7.5791467633">
        <ele>942.23</ele>
        <time>2020-08-13T13:14:06Z</time>
      </trkpt>
      <trkpt lat="42.1384881623" lon="-7.5792109687">
        <ele>942.23</ele>
        <time>2020-08-13T13:14:14Z</time>
      </trkpt>
      <trkpt lat="42.1384978853" lon="-7.5792192668">
        <ele>942.23</ele>
        <time>2020-08-13T13:14:15Z</time>
      </trkpt>
      <trkpt lat="42.1385065187" lon="-7.5792273134">
        <ele>942.23</ele>
        <time>2020-08-13T13:14:16Z</time>
      </trkpt>
      <trkpt lat="42.1385138948" lon="-7.5792362820">
        <ele>942.71</ele>
        <time>2020-08-13T13:14:17Z</time>
      </trkpt>
      <trkpt lat="42.1385795251" lon="-7.5792932790">
        <ele>942.23</ele>
        <time>2020-08-13T13:14:26Z</time>
      </trkpt>
      <trkpt lat="42.1386604942" lon="-7.5793558918">
        <ele>941.27</ele>
        <time>2020-08-13T13:14:35Z</time>
      </trkpt>
      <trkpt lat="42.1387322433" lon="-7.5793915987">
        <ele>939.83</ele>
        <time>2020-08-13T13:14:43Z</time>
      </trkpt>
      <trkpt lat="42.1388208400" lon="-7.5794435665">
        <ele>939.83</ele>
        <time>2020-08-13T13:14:52Z</time>
      </trkpt>
      <trkpt lat="42.1388551220" lon="-7.5794729032">
        <ele>938.86</ele>
        <time>2020-08-13T13:15:00Z</time>
      </trkpt>
      <trkpt lat="42.1388857160" lon="-7.5795148127">
        <ele>939.35</ele>
        <time>2020-08-13T13:15:13Z</time>
      </trkpt>
      <trkpt lat="42.1388878953" lon="-7.5795096159">
        <ele>938.86</ele>
        <time>2020-08-13T13:15:20Z</time>
      </trkpt>
      <trkpt lat="42.1388692036" lon="-7.5795066822">
        <ele>939.35</ele>
        <time>2020-08-13T13:15:41Z</time>
      </trkpt>
      <trkpt lat="42.1388621628" lon="-7.5794990547">
        <ele>940.79</ele>
        <time>2020-08-13T13:15:54Z</time>
      </trkpt>
      <trkpt lat="42.1388692874" lon="-7.5794989709">
        <ele>939.35</ele>
        <time>2020-08-13T13:16:10Z</time>
      </trkpt>
      <trkpt lat="42.1388545353" lon="-7.5795253739">
        <ele>937.42</ele>
        <time>2020-08-13T13:16:24Z</time>
      </trkpt>
      <trkpt lat="42.1388552897" lon="-7.5795443170">
        <ele>937.42</ele>
        <time>2020-08-13T13:16:44Z</time>
      </trkpt>
      <trkpt lat="42.1388702095" lon="-7.5795574766">
        <ele>937.90</ele>
        <time>2020-08-13T13:17:03Z</time>
      </trkpt>
      <trkpt lat="42.1388743166" lon="-7.5795478374">
        <ele>936.94</ele>
        <time>2020-08-13T13:17:13Z</time>
      </trkpt>
      <trkpt lat="42.1388834529" lon="-7.5795309059">
        <ele>937.42</ele>
        <time>2020-08-13T13:17:27Z</time>
      </trkpt>
      <trkpt lat="42.1388863865" lon="-7.5795131363">
        <ele>938.38</ele>
        <time>2020-08-13T13:17:42Z</time>
      </trkpt>
      <trkpt lat="42.1388830338" lon="-7.5795080233">
        <ele>938.86</ele>
        <time>2020-08-13T13:17:57Z</time>
      </trkpt>
      <trkpt lat="42.1389384381" lon="-7.5795503519">
        <ele>938.86</ele>
        <time>2020-08-13T13:18:06Z</time>
      </trkpt>
      <trkpt lat="42.1390686091" lon="-7.5796859711">
        <ele>936.94</ele>
        <time>2020-08-13T13:18:14Z</time>
      </trkpt>
      <trkpt lat="42.1391757298" lon="-7.5798785873">
        <ele>934.54</ele>
        <time>2020-08-13T13:18:22Z</time>
      </trkpt>
      <trkpt lat="42.1392934956" lon="-7.5800618995">
        <ele>934.06</ele>
        <time>2020-08-13T13:18:29Z</time>
      </trkpt>
      <trkpt lat="42.1393737104" lon="-7.5801755581">
        <ele>935.02</ele>
        <time>2020-08-13T13:18:34Z</time>
      </trkpt>
      <trkpt lat="42.1395626385" lon="-7.5803715270">
        <ele>934.06</ele>
        <time>2020-08-13T13:18:42Z</time>
      </trkpt>
      <trkpt lat="42.1398302726" lon="-7.5805383269">
        <ele>928.77</ele>
        <time>2020-08-13T13:18:52Z</time>
      </trkpt>
      <trkpt lat="42.1400559135" lon="-7.5807109103">
        <ele>923.48</ele>
        <time>2020-08-13T13:19:00Z</time>
      </trkpt>
      <trkpt lat="42.1401512157" lon="-7.5807891134">
        <ele>920.60</ele>
        <time>2020-08-13T13:19:06Z</time>
      </trkpt>
      <trkpt lat="42.1402517986" lon="-7.5809117407">
        <ele>918.68</ele>
        <time>2020-08-13T13:19:13Z</time>
      </trkpt>
      <trkpt lat="42.1404050197" lon="-7.5810777023">
        <ele>914.83</ele>
        <time>2020-08-13T13:19:21Z</time>
      </trkpt>
      <trkpt lat="42.1405129787" lon="-7.5812310912">
        <ele>913.39</ele>
        <time>2020-08-13T13:19:26Z</time>
      </trkpt>
      <trkpt lat="42.1407561377" lon="-7.5814336818">
        <ele>910.99</ele>
        <time>2020-08-13T13:19:31Z</time>
      </trkpt>
      <trkpt lat="42.1411089320" lon="-7.5817255396">
        <ele>907.14</ele>
        <time>2020-08-13T13:19:36Z</time>
      </trkpt>
      <trkpt lat="42.1413455531" lon="-7.5818946864">
        <ele>905.22</ele>
        <time>2020-08-13T13:19:39Z</time>
      </trkpt>
      <trkpt lat="42.1414249297" lon="-7.5819282141">
        <ele>904.26</ele>
        <time>2020-08-13T13:19:40Z</time>
      </trkpt>
      <trkpt lat="42.1416513249" lon="-7.5820187386">
        <ele>902.33</ele>
        <time>2020-08-13T13:19:43Z</time>
      </trkpt>
      <trkpt lat="42.1417190507" lon="-7.5820728019">
        <ele>901.37</ele>
        <time>2020-08-13T13:19:44Z</time>
      </trkpt>
      <trkpt lat="42.1417807415" lon="-7.5821474846">
        <ele>900.89</ele>
        <time>2020-08-13T13:19:45Z</time>
      </trkpt>
      <trkpt lat="42.1418226510" lon="-7.5822205748">
        <ele>900.41</ele>
        <time>2020-08-13T13:19:46Z</time>
      </trkpt>
      <trkpt lat="42.1418625489" lon="-7.5823168829">
        <ele>899.45</ele>
        <time>2020-08-13T13:19:47Z</time>
      </trkpt>
      <trkpt lat="42.1418942325" lon="-7.5824210700">
        <ele>898.97</ele>
        <time>2020-08-13T13:19:48Z</time>
      </trkpt>
      <trkpt lat="42.1419279277" lon="-7.5825397577">
        <ele>898.49</ele>
        <time>2020-08-13T13:19:49Z</time>
      </trkpt>
      <trkpt lat="42.1420060471" lon="-7.5827601179">
        <ele>896.57</ele>
        <time>2020-08-13T13:19:51Z</time>
      </trkpt>
      <trkpt lat="42.1420643851" lon="-7.5828713458">
        <ele>896.09</ele>
        <time>2020-08-13T13:19:52Z</time>
      </trkpt>
      <trkpt lat="42.1421306022" lon="-7.5829673186">
        <ele>895.12</ele>
        <time>2020-08-13T13:19:53Z</time>
      </trkpt>
      <trkpt lat="42.1427716501" lon="-7.5836972147">
        <ele>887.91</ele>
        <time>2020-08-13T13:20:01Z</time>
      </trkpt>
      <trkpt lat="42.1429883223" lon="-7.5839700457">
        <ele>885.51</ele>
        <time>2020-08-13T13:20:04Z</time>
      </trkpt>
      <trkpt lat="42.1430526115" lon="-7.5840764958">
        <ele>884.55</ele>
        <time>2020-08-13T13:20:05Z</time>
      </trkpt>
      <trkpt lat="42.1434442978" lon="-7.5847873650">
        <ele>878.78</ele>
        <time>2020-08-13T13:20:11Z</time>
      </trkpt>
      <trkpt lat="42.1436160430" lon="-7.5850984175">
        <ele>877.82</ele>
        <time>2020-08-13T13:20:14Z</time>
      </trkpt>
      <trkpt lat="42.1436725371" lon="-7.5851723459">
        <ele>876.86</ele>
        <time>2020-08-13T13:20:15Z</time>
      </trkpt>
      <trkpt lat="42.1437334735" lon="-7.5852354616">
        <ele>876.38</ele>
        <time>2020-08-13T13:20:16Z</time>
      </trkpt>
      <trkpt lat="42.1438021213" lon="-7.5852858368">
        <ele>875.90</ele>
        <time>2020-08-13T13:20:17Z</time>
      </trkpt>
      <trkpt lat="42.1438681707" lon="-7.5853179395">
        <ele>875.42</ele>
        <time>2020-08-13T13:20:18Z</time>
      </trkpt>
      <trkpt lat="42.1439336333" lon="-7.5853354577">
        <ele>874.46</ele>
        <time>2020-08-13T13:20:19Z</time>
      </trkpt>
      <trkpt lat="42.1440001857" lon="-7.5853347033">
        <ele>873.98</ele>
        <time>2020-08-13T13:20:20Z</time>
      </trkpt>
      <trkpt lat="42.1440607868" lon="-7.5853130780">
        <ele>873.50</ele>
        <time>2020-08-13T13:20:21Z</time>
      </trkpt>
      <trkpt lat="42.1441182867" lon="-7.5852666423">
        <ele>873.01</ele>
        <time>2020-08-13T13:20:22Z</time>
      </trkpt>
      <trkpt lat="42.1441643033" lon="-7.5851995870">
        <ele>872.05</ele>
        <time>2020-08-13T13:20:23Z</time>
      </trkpt>
      <trkpt lat="42.1442007646" lon="-7.5851145107">
        <ele>872.05</ele>
        <time>2020-08-13T13:20:24Z</time>
      </trkpt>
      <trkpt lat="42.1442327835" lon="-7.5850182027">
        <ele>871.57</ele>
        <time>2020-08-13T13:20:25Z</time>
      </trkpt>
      <trkpt lat="42.1443578415" lon="-7.5846022926">
        <ele>868.69</ele>
        <time>2020-08-13T13:20:29Z</time>
      </trkpt>
      <trkpt lat="42.1443765331" lon="-7.5844939146">
        <ele>867.73</ele>
        <time>2020-08-13T13:20:30Z</time>
      </trkpt>
      <trkpt lat="42.1443848312" lon="-7.5843873806">
        <ele>867.25</ele>
        <time>2020-08-13T13:20:31Z</time>
      </trkpt>
      <trkpt lat="42.1443777904" lon="-7.5842749793">
        <ele>866.29</ele>
        <time>2020-08-13T13:20:32Z</time>
      </trkpt>
      <trkpt lat="42.1443521418" lon="-7.5841584709">
        <ele>865.80</ele>
        <time>2020-08-13T13:20:33Z</time>
      </trkpt>
      <trkpt lat="42.1443157643" lon="-7.5840549543">
        <ele>865.80</ele>
        <time>2020-08-13T13:20:34Z</time>
      </trkpt>
      <trkpt lat="42.1442742739" lon="-7.5839484204">
        <ele>865.32</ele>
        <time>2020-08-13T13:20:35Z</time>
      </trkpt>
      <trkpt lat="42.1441135090" lon="-7.5835621823">
        <ele>863.40</ele>
        <time>2020-08-13T13:20:39Z</time>
      </trkpt>
      <trkpt lat="42.1440923028" lon="-7.5834662933">
        <ele>863.40</ele>
        <time>2020-08-13T13:20:40Z</time>
      </trkpt>
      <trkpt lat="42.1440855134" lon="-7.5833754335">
        <ele>862.92</ele>
        <time>2020-08-13T13:20:41Z</time>
      </trkpt>
      <trkpt lat="42.1440995112" lon="-7.5832819752">
        <ele>862.44</ele>
        <time>2020-08-13T13:20:42Z</time>
      </trkpt>
      <trkpt lat="42.1441365592" lon="-7.5832042750">
        <ele>861.96</ele>
        <time>2020-08-13T13:20:43Z</time>
      </trkpt>
      <trkpt lat="42.1441940591" lon="-7.5831448473">
        <ele>861.48</ele>
        <time>2020-08-13T13:20:44Z</time>
      </trkpt>
      <trkpt lat="42.1442674007" lon="-7.5831079669">
        <ele>861.48</ele>
        <time>2020-08-13T13:20:45Z</time>
      </trkpt>
      <trkpt lat="42.1443524770" lon="-7.5830987468">
        <ele>861.00</ele>
        <time>2020-08-13T13:20:46Z</time>
      </trkpt>
      <trkpt lat="42.1444375534" lon="-7.5831103139">
        <ele>860.52</ele>
        <time>2020-08-13T13:20:47Z</time>
      </trkpt>
      <trkpt lat="42.1445243899" lon="-7.5831300113">
        <ele>859.56</ele>
        <time>2020-08-13T13:20:48Z</time>
      </trkpt>
      <trkpt lat="42.1452443954" lon="-7.5832679775">
        <ele>853.79</ele>
        <time>2020-08-13T13:20:55Z</time>
      </trkpt>
      <trkpt lat="42.1460532490" lon="-7.5834104698">
        <ele>847.06</ele>
        <time>2020-08-13T13:21:02Z</time>
      </trkpt>
      <trkpt lat="42.1461566817" lon="-7.5834546424">
        <ele>846.10</ele>
        <time>2020-08-13T13:21:03Z</time>
      </trkpt>
      <trkpt lat="42.1462560073" lon="-7.5835190993">
        <ele>845.14</ele>
        <time>2020-08-13T13:21:04Z</time>
      </trkpt>
      <trkpt lat="42.1463489626" lon="-7.5836069416">
        <ele>844.18</ele>
        <time>2020-08-13T13:21:05Z</time>
      </trkpt>
      <trkpt lat="42.1464301832" lon="-7.5836980529">
        <ele>843.21</ele>
        <time>2020-08-13T13:21:06Z</time>
      </trkpt>
      <trkpt lat="42.1465178579" lon="-7.5837886613">
        <ele>842.25</ele>
        <time>2020-08-13T13:21:07Z</time>
      </trkpt>
      <trkpt lat="42.1466145851" lon="-7.5838624220">
        <ele>840.81</ele>
        <time>2020-08-13T13:21:08Z</time>
      </trkpt>
      <trkpt lat="42.1467128210" lon="-7.5839108694">
        <ele>839.85</ele>
        <time>2020-08-13T13:21:09Z</time>
      </trkpt>
      <trkpt lat="42.1468211152" lon="-7.5839403737">
        <ele>838.41</ele>
        <time>2020-08-13T13:21:10Z</time>
      </trkpt>
      <trkpt lat="42.1469314210" lon="-7.5839522760">
        <ele>837.45</ele>
        <time>2020-08-13T13:21:11Z</time>
      </trkpt>
      <trkpt lat="42.1470303275" lon="-7.5839464925">
        <ele>836.00</ele>
        <time>2020-08-13T13:21:12Z</time>
      </trkpt>
      <trkpt lat="42.1471303236" lon="-7.5839223526">
        <ele>835.04</ele>
        <time>2020-08-13T13:21:13Z</time>
      </trkpt>
      <trkpt lat="42.1472282242" lon="-7.5838804431">
        <ele>834.08</ele>
        <time>2020-08-13T13:21:14Z</time>
      </trkpt>
      <trkpt lat="42.1473116241" lon="-7.5838301517">
        <ele>833.60</ele>
        <time>2020-08-13T13:21:15Z</time>
      </trkpt>
      <trkpt lat="42.1473978739" lon="-7.5837749150">
        <ele>832.64</ele>
        <time>2020-08-13T13:21:16Z</time>
      </trkpt>
      <trkpt lat="42.1478969324" lon="-7.5834993180">
        <ele>829.76</ele>
        <time>2020-08-13T13:21:22Z</time>
      </trkpt>
      <trkpt lat="42.1479691006" lon="-7.5834295806">
        <ele>829.76</ele>
        <time>2020-08-13T13:21:23Z</time>
      </trkpt>
      <trkpt lat="42.1481892932" lon="-7.5832300074">
        <ele>828.79</ele>
        <time>2020-08-13T13:21:26Z</time>
      </trkpt>
      <trkpt lat="42.1482744534" lon="-7.5831882656">
        <ele>828.31</ele>
        <time>2020-08-13T13:21:27Z</time>
      </trkpt>
      <trkpt lat="42.1483644750" lon="-7.5831762794">
        <ele>828.31</ele>
        <time>2020-08-13T13:21:28Z</time>
      </trkpt>
      <trkpt lat="42.1484548319" lon="-7.5831953902">
        <ele>827.83</ele>
        <time>2020-08-13T13:21:29Z</time>
      </trkpt>
      <trkpt lat="42.1485450212" lon="-7.5832431670">
        <ele>827.35</ele>
        <time>2020-08-13T13:21:30Z</time>
      </trkpt>
      <trkpt lat="42.1486231405" lon="-7.5833000802">
        <ele>826.87</ele>
        <time>2020-08-13T13:21:31Z</time>
      </trkpt>
      <trkpt lat="42.1487066243" lon="-7.5833711587">
        <ele>826.39</ele>
        <time>2020-08-13T13:21:32Z</time>
      </trkpt>
      <trkpt lat="42.1487940475" lon="-7.5834557321">
        <ele>825.43</ele>
        <time>2020-08-13T13:21:33Z</time>
      </trkpt>
      <trkpt lat="42.1488669701" lon="-7.5835408084">
        <ele>824.95</ele>
        <time>2020-08-13T13:21:34Z</time>
      </trkpt>
      <trkpt lat="42.1489348635" lon="-7.5836469233">
        <ele>823.99</ele>
        <time>2020-08-13T13:21:35Z</time>
      </trkpt>
      <trkpt lat="42.1489937045" lon="-7.5837637670">
        <ele>823.51</ele>
        <time>2020-08-13T13:21:36Z</time>
      </trkpt>
      <trkpt lat="42.1490514558" lon="-7.5838841312">
        <ele>822.55</ele>
        <time>2020-08-13T13:21:37Z</time>
      </trkpt>
      <trkpt lat="42.1494718920" lon="-7.5847238302">
        <ele>817.26</ele>
        <time>2020-08-13T13:21:44Z</time>
      </trkpt>
      <trkpt lat="42.1496194135" lon="-7.5849206373">
        <ele>815.82</ele>
        <time>2020-08-13T13:21:46Z</time>
      </trkpt>
      <trkpt lat="42.1497021429" lon="-7.5850021094">
        <ele>814.85</ele>
        <time>2020-08-13T13:21:47Z</time>
      </trkpt>
      <trkpt lat="42.1497925837" lon="-7.5850696675">
        <ele>813.89</ele>
        <time>2020-08-13T13:21:48Z</time>
      </trkpt>
      <trkpt lat="42.1498912387" lon="-7.5851265807">
        <ele>812.93</ele>
        <time>2020-08-13T13:21:49Z</time>
      </trkpt>
      <trkpt lat="42.1499911509" lon="-7.5851786323">
        <ele>811.49</ele>
        <time>2020-08-13T13:21:50Z</time>
      </trkpt>
      <trkpt lat="42.1501707751" lon="-7.5853053667">
        <ele>809.57</ele>
        <time>2020-08-13T13:21:52Z</time>
      </trkpt>
      <trkpt lat="42.1502394229" lon="-7.5853948016">
        <ele>808.61</ele>
        <time>2020-08-13T13:21:53Z</time>
      </trkpt>
      <trkpt lat="42.1502921451" lon="-7.5855044369">
        <ele>808.13</ele>
        <time>2020-08-13T13:21:54Z</time>
      </trkpt>
      <trkpt lat="42.1503290255" lon="-7.5856310874">
        <ele>807.16</ele>
        <time>2020-08-13T13:21:55Z</time>
      </trkpt>
      <trkpt lat="42.1503569372" lon="-7.5857669581">
        <ele>806.20</ele>
        <time>2020-08-13T13:21:56Z</time>
      </trkpt>
      <trkpt lat="42.1505196299" lon="-7.5864153821">
        <ele>802.36</ele>
        <time>2020-08-13T13:22:01Z</time>
      </trkpt>
      <trkpt lat="42.1505732741" lon="-7.5865203235">
        <ele>801.40</ele>
        <time>2020-08-13T13:22:02Z</time>
      </trkpt>
      <trkpt lat="42.1508518886" lon="-7.5869887881">
        <ele>797.07</ele>
        <time>2020-08-13T13:22:07Z</time>
      </trkpt>
      <trkpt lat="42.1510347817" lon="-7.5872715097">
        <ele>794.19</ele>
        <time>2020-08-13T13:22:11Z</time>
      </trkpt>
      <trkpt lat="42.1510895155" lon="-7.5873256568">
        <ele>793.22</ele>
        <time>2020-08-13T13:22:12Z</time>
      </trkpt>
      <trkpt lat="42.1511460934" lon="-7.5873647165">
        <ele>792.74</ele>
        <time>2020-08-13T13:22:13Z</time>
      </trkpt>
      <trkpt lat="42.1511895116" lon="-7.5873843301">
        <ele>792.26</ele>
        <time>2020-08-13T13:22:14Z</time>
      </trkpt>
      <trkpt lat="42.1512168366" lon="-7.5873925444">
        <ele>791.78</ele>
        <time>2020-08-13T13:22:15Z</time>
      </trkpt>
      <trkpt lat="42.1512354445" lon="-7.5874004234">
        <ele>791.30</ele>
        <time>2020-08-13T13:22:16Z</time>
      </trkpt>
      <trkpt lat="42.1512488555" lon="-7.5874099787">
        <ele>790.82</ele>
        <time>2020-08-13T13:22:17Z</time>
      </trkpt>
      <trkpt lat="42.1512559801" lon="-7.5874343701">
        <ele>790.82</ele>
        <time>2020-08-13T13:22:19Z</time>
      </trkpt>
      <trkpt lat="42.1512464248" lon="-7.5874536484">
        <ele>790.82</ele>
        <time>2020-08-13T13:22:21Z</time>
      </trkpt>
      <trkpt lat="42.1512213629" lon="-7.5874563307">
        <ele>791.78</ele>
        <time>2020-08-13T13:22:27Z</time>
      </trkpt>
      <trkpt lat="42.1512171719" lon="-7.5874585938">
        <ele>791.78</ele>
        <time>2020-08-13T13:22:40Z</time>
      </trkpt>
      <trkpt lat="42.1512182616" lon="-7.5874596834">
        <ele>792.26</ele>
        <time>2020-08-13T13:22:52Z</time>
      </trkpt>
      <trkpt lat="42.1512090415" lon="-7.5874650478">
        <ele>794.19</ele>
        <time>2020-08-13T13:23:11Z</time>
      </trkpt>
      <trkpt lat="42.1512116399" lon="-7.5874663051">
        <ele>793.71</ele>
        <time>2020-08-13T13:23:22Z</time>
      </trkpt>
      <trkpt lat="42.1512020007" lon="-7.5874794647">
        <ele>792.74</ele>
        <time>2020-08-13T13:23:30Z</time>
      </trkpt>
      <trkpt lat="42.1511909366" lon="-7.5875046942">
        <ele>792.74</ele>
        <time>2020-08-13T13:23:31Z</time>
      </trkpt>
      <trkpt lat="42.1511046030" lon="-7.5876867492">
        <ele>791.30</ele>
        <time>2020-08-13T13:23:36Z</time>
      </trkpt>
      <trkpt lat="42.1509343665" lon="-7.5879002362">
        <ele>790.34</ele>
        <time>2020-08-13T13:23:42Z</time>
      </trkpt>
      <trkpt lat="42.1506107412" lon="-7.5880620070">
        <ele>788.90</ele>
        <time>2020-08-13T13:23:51Z</time>
      </trkpt>
      <trkpt lat="42.1503962483" lon="-7.5880405493">
        <ele>788.42</ele>
        <time>2020-08-13T13:23:58Z</time>
      </trkpt>
      <trkpt lat="42.1502685919" lon="-7.5880902540">
        <ele>787.94</ele>
        <time>2020-08-13T13:24:04Z</time>
      </trkpt>
      <trkpt lat="42.1502340585" lon="-7.5882457383">
        <ele>787.46</ele>
        <time>2020-08-13T13:24:10Z</time>
      </trkpt>
      <trkpt lat="42.1501513291" lon="-7.5884460658">
        <ele>786.02</ele>
        <time>2020-08-13T13:24:17Z</time>
      </trkpt>
      <trkpt lat="42.1499800030" lon="-7.5886821002">
        <ele>783.13</ele>
        <time>2020-08-13T13:24:25Z</time>
      </trkpt>
      <trkpt lat="42.1498502512" lon="-7.5888478104">
        <ele>781.21</ele>
        <time>2020-08-13T13:24:29Z</time>
      </trkpt>
      <trkpt lat="42.1498097666" lon="-7.5889246725">
        <ele>780.25</ele>
        <time>2020-08-13T13:24:30Z</time>
      </trkpt>
      <trkpt lat="42.1497764066" lon="-7.5890025403">
        <ele>779.77</ele>
        <time>2020-08-13T13:24:31Z</time>
      </trkpt>
      <trkpt lat="42.1495327447" lon="-7.5894924626">
        <ele>775.92</ele>
        <time>2020-08-13T13:24:37Z</time>
      </trkpt>
      <trkpt lat="42.1493209340" lon="-7.5899581611">
        <ele>771.11</ele>
        <time>2020-08-13T13:24:43Z</time>
      </trkpt>
      <trkpt lat="42.1492967103" lon="-7.5900603365">
        <ele>770.15</ele>
        <time>2020-08-13T13:24:44Z</time>
      </trkpt>
      <trkpt lat="42.1492797788" lon="-7.5901605003">
        <ele>768.71</ele>
        <time>2020-08-13T13:24:45Z</time>
      </trkpt>
      <trkpt lat="42.1492706425" lon="-7.5902586523">
        <ele>767.75</ele>
        <time>2020-08-13T13:24:46Z</time>
      </trkpt>
      <trkpt lat="42.1492726542" lon="-7.5903623365">
        <ele>766.79</ele>
        <time>2020-08-13T13:24:47Z</time>
      </trkpt>
      <trkpt lat="42.1492855623" lon="-7.5904699601">
        <ele>766.31</ele>
        <time>2020-08-13T13:24:48Z</time>
      </trkpt>
      <trkpt lat="42.1493004821" lon="-7.5905655976">
        <ele>765.35</ele>
        <time>2020-08-13T13:24:49Z</time>
      </trkpt>
      <trkpt lat="42.1494590677" lon="-7.5916036963">
        <ele>758.14</ele>
        <time>2020-08-13T13:25:00Z</time>
      </trkpt>
      <trkpt lat="42.1495151427" lon="-7.5920964684">
        <ele>752.85</ele>
        <time>2020-08-13T13:25:06Z</time>
      </trkpt>
      <trkpt lat="42.1495065931" lon="-7.5921736658">
        <ele>751.89</ele>
        <time>2020-08-13T13:25:07Z</time>
      </trkpt>
      <trkpt lat="42.1494908351" lon="-7.5922411401">
        <ele>750.93</ele>
        <time>2020-08-13T13:25:08Z</time>
      </trkpt>
      <trkpt lat="42.1494650189" lon="-7.5923105422">
        <ele>749.49</ele>
        <time>2020-08-13T13:25:09Z</time>
      </trkpt>
      <trkpt lat="42.1494332515" lon="-7.5923638511">
        <ele>748.52</ele>
        <time>2020-08-13T13:25:10Z</time>
      </trkpt>
      <trkpt lat="42.1493917610" lon="-7.5924097002">
        <ele>747.08</ele>
        <time>2020-08-13T13:25:11Z</time>
      </trkpt>
      <trkpt lat="42.1493382845" lon="-7.5924410485">
        <ele>745.64</ele>
        <time>2020-08-13T13:25:12Z</time>
      </trkpt>
      <trkpt lat="42.1492807847" lon="-7.5924573932">
        <ele>744.68</ele>
        <time>2020-08-13T13:25:13Z</time>
      </trkpt>
      <trkpt lat="42.1492116340" lon="-7.5924630929">
        <ele>743.72</ele>
        <time>2020-08-13T13:25:14Z</time>
      </trkpt>
      <trkpt lat="42.1491371188" lon="-7.5924578961">
        <ele>742.28</ele>
        <time>2020-08-13T13:25:15Z</time>
      </trkpt>
      <trkpt lat="42.1490716562" lon="-7.5924484245">
        <ele>741.31</ele>
        <time>2020-08-13T13:25:16Z</time>
      </trkpt>
      <trkpt lat="42.1489441674" lon="-7.5924443174">
        <ele>738.91</ele>
        <time>2020-08-13T13:25:18Z</time>
      </trkpt>
      <trkpt lat="42.1488873381" lon="-7.5924629252">
        <ele>737.47</ele>
        <time>2020-08-13T13:25:19Z</time>
      </trkpt>
      <trkpt lat="42.1488305926" lon="-7.5925017335">
        <ele>736.03</ele>
        <time>2020-08-13T13:25:20Z</time>
      </trkpt>
      <trkpt lat="42.1487762779" lon="-7.5925604068">
        <ele>734.58</ele>
        <time>2020-08-13T13:25:21Z</time>
      </trkpt>
      <trkpt lat="42.1487348713" lon="-7.5926245283">
        <ele>733.14</ele>
        <time>2020-08-13T13:25:22Z</time>
      </trkpt>
      <trkpt lat="42.1486984938" lon="-7.5927045755">
        <ele>731.70</ele>
        <time>2020-08-13T13:25:23Z</time>
      </trkpt>
      <trkpt lat="42.1486678161" lon="-7.5927969441">
        <ele>730.26</ele>
        <time>2020-08-13T13:25:24Z</time>
      </trkpt>
      <trkpt lat="42.1486446820" lon="-7.5928962696">
        <ele>728.82</ele>
        <time>2020-08-13T13:25:25Z</time>
      </trkpt>
      <trkpt lat="42.1486321092" lon="-7.5930025522">
        <ele>727.37</ele>
        <time>2020-08-13T13:25:26Z</time>
      </trkpt>
      <trkpt lat="42.1486295108" lon="-7.5930971000">
        <ele>725.93</ele>
        <time>2020-08-13T13:25:27Z</time>
      </trkpt>
      <trkpt lat="42.1486290917" lon="-7.5931915641">
        <ele>724.97</ele>
        <time>2020-08-13T13:25:28Z</time>
      </trkpt>
      <trkpt lat="42.1486485377" lon="-7.5935850944">
        <ele>719.20</ele>
        <time>2020-08-13T13:25:34Z</time>
      </trkpt>
      <trkpt lat="42.1487015113" lon="-7.5939867552">
        <ele>715.84</ele>
        <time>2020-08-13T13:25:40Z</time>
      </trkpt>
      <trkpt lat="42.1487181913" lon="-7.5940635335">
        <ele>715.36</ele>
        <time>2020-08-13T13:25:41Z</time>
      </trkpt>
      <trkpt lat="42.1487407386" lon="-7.5941354502">
        <ele>714.88</ele>
        <time>2020-08-13T13:25:42Z</time>
      </trkpt>
      <trkpt lat="42.1487676445" lon="-7.5942028407">
        <ele>714.88</ele>
        <time>2020-08-13T13:25:43Z</time>
      </trkpt>
      <trkpt lat="42.1487905271" lon="-7.5942610111">
        <ele>714.88</ele>
        <time>2020-08-13T13:25:44Z</time>
      </trkpt>
      <trkpt lat="42.1488102246" lon="-7.5943276472">
        <ele>715.36</ele>
        <time>2020-08-13T13:25:45Z</time>
      </trkpt>
      <trkpt lat="42.1488252282" lon="-7.5943959597">
        <ele>715.36</ele>
        <time>2020-08-13T13:25:46Z</time>
      </trkpt>
      <trkpt lat="42.1488369629" lon="-7.5944646075">
        <ele>715.36</ele>
        <time>2020-08-13T13:25:47Z</time>
      </trkpt>
      <trkpt lat="42.1488657966" lon="-7.5947919209">
        <ele>715.84</ele>
        <time>2020-08-13T13:25:52Z</time>
      </trkpt>
      <trkpt lat="42.1489257272" lon="-7.5953074917">
        <ele>714.88</ele>
        <time>2020-08-13T13:26:00Z</time>
      </trkpt>
      <trkpt lat="42.1489549801" lon="-7.5958986674">
        <ele>711.03</ele>
        <time>2020-08-13T13:26:08Z</time>
      </trkpt>
      <trkpt lat="42.1490100492" lon="-7.5965835527">
        <ele>704.30</ele>
        <time>2020-08-13T13:26:16Z</time>
      </trkpt>
      <trkpt lat="42.1490444150" lon="-7.5967780128">
        <ele>702.38</ele>
        <time>2020-08-13T13:26:21Z</time>
      </trkpt>
      <trkpt lat="42.1490470972" lon="-7.5967858918">
        <ele>701.90</ele>
        <time>2020-08-13T13:26:26Z</time>
      </trkpt>
      <trkpt lat="42.1490476001" lon="-7.5967920944">
        <ele>701.42</ele>
        <time>2020-08-13T13:26:43Z</time>
      </trkpt>
      <trkpt lat="42.1490704827" lon="-7.5969031546">
        <ele>700.46</ele>
        <time>2020-08-13T13:26:48Z</time>
      </trkpt>
      <trkpt lat="42.1491302457" lon="-7.5972210802">
        <ele>697.57</ele>
        <time>2020-08-13T13:26:53Z</time>
      </trkpt>
      <trkpt lat="42.1491315868" lon="-7.5972843636">
        <ele>696.61</ele>
        <time>2020-08-13T13:26:54Z</time>
      </trkpt>
      <trkpt lat="42.1491233725" lon="-7.5973498262">
        <ele>696.13</ele>
        <time>2020-08-13T13:26:55Z</time>
      </trkpt>
      <trkpt lat="42.1491025854" lon="-7.5974127743">
        <ele>695.17</ele>
        <time>2020-08-13T13:26:56Z</time>
      </trkpt>
      <trkpt lat="42.1490702312" lon="-7.5974717829">
        <ele>694.69</ele>
        <time>2020-08-13T13:26:57Z</time>
      </trkpt>
      <trkpt lat="42.1490234602" lon="-7.5975328870">
        <ele>693.73</ele>
        <time>2020-08-13T13:26:58Z</time>
      </trkpt>
      <trkpt lat="42.1489685588" lon="-7.5975876208">
        <ele>692.77</ele>
        <time>2020-08-13T13:26:59Z</time>
      </trkpt>
      <trkpt lat="42.1489022579" lon="-7.5976406783">
        <ele>692.29</ele>
        <time>2020-08-13T13:27:00Z</time>
      </trkpt>
      <trkpt lat="42.1488362085" lon="-7.5976873655">
        <ele>691.33</ele>
        <time>2020-08-13T13:27:01Z</time>
      </trkpt>
      <trkpt lat="42.1487719193" lon="-7.5977202225">
        <ele>690.84</ele>
        <time>2020-08-13T13:27:02Z</time>
      </trkpt>
      <trkpt lat="42.1487027686" lon="-7.5977390818">
        <ele>690.36</ele>
        <time>2020-08-13T13:27:03Z</time>
      </trkpt>
      <trkpt lat="42.1486363839" lon="-7.5977426860">
        <ele>689.88</ele>
        <time>2020-08-13T13:27:04Z</time>
      </trkpt>
      <trkpt lat="42.1485694125" lon="-7.5977354776">
        <ele>688.92</ele>
        <time>2020-08-13T13:27:05Z</time>
      </trkpt>
      <trkpt lat="42.1485104878" lon="-7.5977229048">
        <ele>688.44</ele>
        <time>2020-08-13T13:27:06Z</time>
      </trkpt>
      <trkpt lat="42.1484559216" lon="-7.5977109186">
        <ele>687.96</ele>
        <time>2020-08-13T13:27:07Z</time>
      </trkpt>
      <trkpt lat="42.1484038699" lon="-7.5977085717">
        <ele>687.96</ele>
        <time>2020-08-13T13:27:08Z</time>
      </trkpt>
      <trkpt lat="42.1483484656" lon="-7.5977175403">
        <ele>687.48</ele>
        <time>2020-08-13T13:27:09Z</time>
      </trkpt>
      <trkpt lat="42.1482957434" lon="-7.5977395009">
        <ele>687.00</ele>
        <time>2020-08-13T13:27:10Z</time>
      </trkpt>
      <trkpt lat="42.1482445300" lon="-7.5977716874">
        <ele>686.52</ele>
        <time>2020-08-13T13:27:11Z</time>
      </trkpt>
      <trkpt lat="42.1481886227" lon="-7.5978187099">
        <ele>686.04</ele>
        <time>2020-08-13T13:27:12Z</time>
      </trkpt>
      <trkpt lat="42.1481332183" lon="-7.5978705939">
        <ele>685.56</ele>
        <time>2020-08-13T13:27:13Z</time>
      </trkpt>
      <trkpt lat="42.1477600560" lon="-7.5981591828">
        <ele>680.75</ele>
        <time>2020-08-13T13:27:19Z</time>
      </trkpt>
      <trkpt lat="42.1475892328" lon="-7.5983423274">
        <ele>678.83</ele>
        <time>2020-08-13T13:27:22Z</time>
      </trkpt>
      <trkpt lat="42.1475030668" lon="-7.5984791201">
        <ele>677.39</ele>
        <time>2020-08-13T13:27:24Z</time>
      </trkpt>
      <trkpt lat="42.1474675275" lon="-7.5985528808">
        <ele>676.91</ele>
        <time>2020-08-13T13:27:25Z</time>
      </trkpt>
      <trkpt lat="42.1473360993" lon="-7.5989747420">
        <ele>676.42</ele>
        <time>2020-08-13T13:27:31Z</time>
      </trkpt>
      <trkpt lat="42.1472605783" lon="-7.5992857106">
        <ele>677.87</ele>
        <time>2020-08-13T13:27:37Z</time>
      </trkpt>
      <trkpt lat="42.1471842192" lon="-7.5995242596">
        <ele>679.79</ele>
        <time>2020-08-13T13:27:43Z</time>
      </trkpt>
      <trkpt lat="42.1469780244" lon="-7.5998496450">
        <ele>680.75</ele>
        <time>2020-08-13T13:27:51Z</time>
      </trkpt>
      <trkpt lat="42.1467465162" lon="-7.6000928041">
        <ele>679.31</ele>
        <time>2020-08-13T13:27:57Z</time>
      </trkpt>
      <trkpt lat="42.1463076398" lon="-7.6005034335">
        <ele>675.94</ele>
        <time>2020-08-13T13:28:05Z</time>
      </trkpt>
      <trkpt lat="42.1459789015" lon="-7.6008826308">
        <ele>673.06</ele>
        <time>2020-08-13T13:28:11Z</time>
      </trkpt>
      <trkpt lat="42.1459166240" lon="-7.6010159031">
        <ele>672.58</ele>
        <time>2020-08-13T13:28:15Z</time>
      </trkpt>
      <trkpt lat="42.1459194738" lon="-7.6010764204">
        <ele>672.10</ele>
        <time>2020-08-13T13:28:18Z</time>
      </trkpt>
      <trkpt lat="42.1459359024" lon="-7.6010917593">
        <ele>672.10</ele>
        <time>2020-08-13T13:28:19Z</time>
      </trkpt>
      <trkpt lat="42.1459540911" lon="-7.6010972913">
        <ele>672.10</ele>
        <time>2020-08-13T13:28:20Z</time>
      </trkpt>
      <trkpt lat="42.1461662371" lon="-7.6011424698">
        <ele>672.58</ele>
        <time>2020-08-13T13:28:27Z</time>
      </trkpt>
      <trkpt lat="42.1465058718" lon="-7.6013207529">
        <ele>672.58</ele>
        <time>2020-08-13T13:28:37Z</time>
      </trkpt>
      <trkpt lat="42.1469013300" lon="-7.6015686058">
        <ele>672.58</ele>
        <time>2020-08-13T13:28:48Z</time>
      </trkpt>
      <trkpt lat="42.1471791063" lon="-7.6017379202">
        <ele>672.10</ele>
        <time>2020-08-13T13:28:56Z</time>
      </trkpt>
      <trkpt lat="42.1474317368" lon="-7.6019419357">
        <ele>672.10</ele>
        <time>2020-08-13T13:29:04Z</time>
      </trkpt>
      <trkpt lat="42.1477062441" lon="-7.6022226457">
        <ele>672.10</ele>
        <time>2020-08-13T13:29:12Z</time>
      </trkpt>
      <trkpt lat="42.1480140276" lon="-7.6024675649">
        <ele>670.66</ele>
        <time>2020-08-13T13:29:18Z</time>
      </trkpt>
      <trkpt lat="42.1480884589" lon="-7.6024955604">
        <ele>670.18</ele>
        <time>2020-08-13T13:29:19Z</time>
      </trkpt>
      <trkpt lat="42.1481648181" lon="-7.6025151741">
        <ele>669.70</ele>
        <time>2020-08-13T13:29:20Z</time>
      </trkpt>
      <trkpt lat="42.1482456196" lon="-7.6025248971">
        <ele>669.70</ele>
        <time>2020-08-13T13:29:21Z</time>
      </trkpt>
      <trkpt lat="42.1483352222" lon="-7.6025219634">
        <ele>669.22</ele>
        <time>2020-08-13T13:29:22Z</time>
      </trkpt>
      <trkpt lat="42.1484224778" lon="-7.6025046129">
        <ele>669.22</ele>
        <time>2020-08-13T13:29:23Z</time>
      </trkpt>
      <trkpt lat="42.1485145949" lon="-7.6024661399">
        <ele>668.73</ele>
        <time>2020-08-13T13:29:24Z</time>
      </trkpt>
      <trkpt lat="42.1485975757" lon="-7.6024128310">
        <ele>668.25</ele>
        <time>2020-08-13T13:29:25Z</time>
      </trkpt>
      <trkpt lat="42.1486759465" lon="-7.6023477875">
        <ele>668.25</ele>
        <time>2020-08-13T13:29:26Z</time>
      </trkpt>
      <trkpt lat="42.1487559937" lon="-7.6022743620">
        <ele>667.77</ele>
        <time>2020-08-13T13:29:27Z</time>
      </trkpt>
      <trkpt lat="42.1492181718" lon="-7.6018126868">
        <ele>666.33</ele>
        <time>2020-08-13T13:29:34Z</time>
      </trkpt>
      <trkpt lat="42.1492727380" lon="-7.6017411891">
        <ele>666.33</ele>
        <time>2020-08-13T13:29:35Z</time>
      </trkpt>
      <trkpt lat="42.1493194252" lon="-7.6016670093">
        <ele>666.33</ele>
        <time>2020-08-13T13:29:36Z</time>
      </trkpt>
      <trkpt lat="42.1493597422" lon="-7.6015880518">
        <ele>665.85</ele>
        <time>2020-08-13T13:29:37Z</time>
      </trkpt>
      <trkpt lat="42.1493954491" lon="-7.6015022211">
        <ele>665.85</ele>
        <time>2020-08-13T13:29:38Z</time>
      </trkpt>
      <trkpt lat="42.1494252887" lon="-7.6014176477">
        <ele>665.37</ele>
        <time>2020-08-13T13:29:39Z</time>
      </trkpt>
      <trkpt lat="42.1494599059" lon="-7.6013277099">
        <ele>664.89</ele>
        <time>2020-08-13T13:29:40Z</time>
      </trkpt>
      <trkpt lat="42.1494995523" lon="-7.6012432203">
        <ele>664.41</ele>
        <time>2020-08-13T13:29:41Z</time>
      </trkpt>
      <trkpt lat="42.1495972853" lon="-7.6010706369">
        <ele>662.97</ele>
        <time>2020-08-13T13:29:43Z</time>
      </trkpt>
      <trkpt lat="42.1497601457" lon="-7.6008502766">
        <ele>661.52</ele>
        <time>2020-08-13T13:29:46Z</time>
      </trkpt>
      <trkpt lat="42.1498204954" lon="-7.6007885858">
        <ele>661.04</ele>
        <time>2020-08-13T13:29:47Z</time>
      </trkpt>
      <trkpt lat="42.1498888079" lon="-7.6007334329">
        <ele>661.04</ele>
        <time>2020-08-13T13:29:48Z</time>
      </trkpt>
      <trkpt lat="42.1499576233" lon="-7.6006921940">
        <ele>661.04</ele>
        <time>2020-08-13T13:29:49Z</time>
      </trkpt>
      <trkpt lat="42.1500290371" lon="-7.6006634440">
        <ele>660.56</ele>
        <time>2020-08-13T13:29:50Z</time>
      </trkpt>
      <trkpt lat="42.1501048096" lon="-7.6006478537">
        <ele>660.56</ele>
        <time>2020-08-13T13:29:51Z</time>
      </trkpt>
      <trkpt lat="42.1501778997" lon="-7.6006381307">
        <ele>660.56</ele>
        <time>2020-08-13T13:29:52Z</time>
      </trkpt>
      <trkpt lat="42.1508367173" lon="-7.6006536372">
        <ele>658.16</ele>
        <time>2020-08-13T13:30:01Z</time>
      </trkpt>
      <trkpt lat="42.1509027667" lon="-7.6006885897">
        <ele>657.68</ele>
        <time>2020-08-13T13:30:02Z</time>
      </trkpt>
      <trkpt lat="42.1509678941" lon="-7.6007336844">
        <ele>657.68</ele>
        <time>2020-08-13T13:30:03Z</time>
      </trkpt>
      <trkpt lat="42.1510270704" lon="-7.6007839758">
        <ele>657.20</ele>
        <time>2020-08-13T13:30:04Z</time>
      </trkpt>
      <trkpt lat="42.1510849893" lon="-7.6008444093">
        <ele>657.20</ele>
        <time>2020-08-13T13:30:05Z</time>
      </trkpt>
      <trkpt lat="42.1511390526" lon="-7.6009133086">
        <ele>656.72</ele>
        <time>2020-08-13T13:30:06Z</time>
      </trkpt>
      <trkpt lat="42.1511856560" lon="-7.6009798609">
        <ele>656.72</ele>
        <time>2020-08-13T13:30:07Z</time>
      </trkpt>
      <trkpt lat="42.1514148172" lon="-7.6013469044">
        <ele>656.72</ele>
        <time>2020-08-13T13:30:13Z</time>
      </trkpt>
      <trkpt lat="42.1516302321" lon="-7.6016766485">
        <ele>657.20</ele>
        <time>2020-08-13T13:30:21Z</time>
      </trkpt>
      <trkpt lat="42.1518711280" lon="-7.6020309515">
        <ele>658.16</ele>
        <time>2020-08-13T13:30:31Z</time>
      </trkpt>
      <trkpt lat="42.1520903986" lon="-7.6023529842">
        <ele>659.60</ele>
        <time>2020-08-13T13:30:40Z</time>
      </trkpt>
      <trkpt lat="42.1523218229" lon="-7.6026840694">
        <ele>660.08</ele>
        <time>2020-08-13T13:30:50Z</time>
      </trkpt>
      <trkpt lat="42.1525141038" lon="-7.6029610075">
        <ele>661.04</ele>
        <time>2020-08-13T13:30:59Z</time>
      </trkpt>
      <trkpt lat="42.1526332106" lon="-7.6031361055">
        <ele>661.52</ele>
        <time>2020-08-13T13:31:06Z</time>
      </trkpt>
      <trkpt lat="42.1528401598" lon="-7.6034269575">
        <ele>662.01</ele>
        <time>2020-08-13T13:31:16Z</time>
      </trkpt>
      <trkpt lat="42.1530020982" lon="-7.6036634948">
        <ele>662.49</ele>
        <time>2020-08-13T13:31:26Z</time>
      </trkpt>
      <trkpt lat="42.1531086322" lon="-7.6038173866">
        <ele>663.45</ele>
        <time>2020-08-13T13:31:33Z</time>
      </trkpt>
      <trkpt lat="42.1532464307" lon="-7.6040249225">
        <ele>665.37</ele>
        <time>2020-08-13T13:31:42Z</time>
      </trkpt>
      <trkpt lat="42.1534079500" lon="-7.6042571012">
        <ele>666.33</ele>
        <time>2020-08-13T13:31:51Z</time>
      </trkpt>
      <trkpt lat="42.1536096185" lon="-7.6044798922">
        <ele>666.81</ele>
        <time>2020-08-13T13:32:01Z</time>
      </trkpt>
      <trkpt lat="42.1538215131" lon="-7.6046204567">
        <ele>667.29</ele>
        <time>2020-08-13T13:32:10Z</time>
      </trkpt>
      <trkpt lat="42.1540955175" lon="-7.6047811378">
        <ele>668.25</ele>
        <time>2020-08-13T13:32:21Z</time>
      </trkpt>
      <trkpt lat="42.1543657500" lon="-7.6049387176">
        <ele>670.18</ele>
        <time>2020-08-13T13:32:32Z</time>
      </trkpt>
      <trkpt lat="42.1546118427" lon="-7.6050847303">
        <ele>670.66</ele>
        <time>2020-08-13T13:32:42Z</time>
      </trkpt>
      <trkpt lat="42.1547829174" lon="-7.6051999815">
        <ele>672.10</ele>
        <time>2020-08-13T13:32:50Z</time>
      </trkpt>
      <trkpt lat="42.1549731866" lon="-7.6054291427">
        <ele>673.06</ele>
        <time>2020-08-13T13:32:59Z</time>
      </trkpt>
      <trkpt lat="42.1551418304" lon="-7.6057578810">
        <ele>674.02</ele>
        <time>2020-08-13T13:33:09Z</time>
      </trkpt>
      <trkpt lat="42.1552876756" lon="-7.6060048956">
        <ele>674.02</ele>
        <time>2020-08-13T13:33:17Z</time>
      </trkpt>
      <trkpt lat="42.1554399747" lon="-7.6062711887">
        <ele>671.62</ele>
        <time>2020-08-13T13:33:23Z</time>
      </trkpt>
      <trkpt lat="42.1555838920" lon="-7.6064741984">
        <ele>669.70</ele>
        <time>2020-08-13T13:33:27Z</time>
      </trkpt>
      <trkpt lat="42.1556180064" lon="-7.6065068040">
        <ele>669.22</ele>
        <time>2020-08-13T13:33:28Z</time>
      </trkpt>
      <trkpt lat="42.1558114607" lon="-7.6066509727">
        <ele>666.33</ele>
        <time>2020-08-13T13:33:34Z</time>
      </trkpt>
      <trkpt lat="42.1561781690" lon="-7.6067712530">
        <ele>663.93</ele>
        <time>2020-08-13T13:33:41Z</time>
      </trkpt>
      <trkpt lat="42.1566742938" lon="-7.6069175173">
        <ele>661.52</ele>
        <time>2020-08-13T13:33:50Z</time>
      </trkpt>
      <trkpt lat="42.1568757109" lon="-7.6070158370">
        <ele>661.04</ele>
        <time>2020-08-13T13:33:54Z</time>
      </trkpt>
      <trkpt lat="42.1569166984" lon="-7.6070507895">
        <ele>661.04</ele>
        <time>2020-08-13T13:33:55Z</time>
      </trkpt>
      <trkpt lat="42.1569560096" lon="-7.6070971414">
        <ele>660.56</ele>
        <time>2020-08-13T13:33:56Z</time>
      </trkpt>
      <trkpt lat="42.1569908783" lon="-7.6071493607">
        <ele>660.56</ele>
        <time>2020-08-13T13:33:57Z</time>
      </trkpt>
      <trkpt lat="42.1570287645" lon="-7.6072102971">
        <ele>660.08</ele>
        <time>2020-08-13T13:33:58Z</time>
      </trkpt>
      <trkpt lat="42.1573201194" lon="-7.6077062543">
        <ele>657.68</ele>
        <time>2020-08-13T13:34:05Z</time>
      </trkpt>
      <trkpt lat="42.1575417370" lon="-7.6081200689">
        <ele>658.16</ele>
        <time>2020-08-13T13:34:12Z</time>
      </trkpt>
      <trkpt lat="42.1577386279" lon="-7.6084180456">
        <ele>658.64</ele>
        <time>2020-08-13T13:34:19Z</time>
      </trkpt>
      <trkpt lat="42.1580202598" lon="-7.6087106578">
        <ele>657.68</ele>
        <time>2020-08-13T13:34:28Z</time>
      </trkpt>
      <trkpt lat="42.1581286378" lon="-7.6088218018">
        <ele>657.20</ele>
        <time>2020-08-13T13:34:31Z</time>
      </trkpt>
      <trkpt lat="42.1583930030" lon="-7.6090127416">
        <ele>656.24</ele>
        <time>2020-08-13T13:34:38Z</time>
      </trkpt>
      <trkpt lat="42.1583965234" lon="-7.6090156753">
        <ele>657.20</ele>
        <time>2020-08-13T13:34:48Z</time>
      </trkpt>
      <trkpt lat="42.1583909914" lon="-7.6090208720">
        <ele>658.64</ele>
        <time>2020-08-13T13:34:59Z</time>
      </trkpt>
      <trkpt lat="42.1583883930" lon="-7.6090127416">
        <ele>658.16</ele>
        <time>2020-08-13T13:35:11Z</time>
      </trkpt>
      <trkpt lat="42.1584137063" lon="-7.6090213750">
        <ele>659.12</ele>
        <time>2020-08-13T13:35:23Z</time>
      </trkpt>
      <trkpt lat="42.1584620699" lon="-7.6090362109">
        <ele>659.60</ele>
        <time>2020-08-13T13:35:29Z</time>
      </trkpt>
      <trkpt lat="42.1584803425" lon="-7.6090507116">
        <ele>660.08</ele>
        <time>2020-08-13T13:35:31Z</time>
      </trkpt>
      <trkpt lat="42.1585404407" lon="-7.6091203652">
        <ele>660.08</ele>
        <time>2020-08-13T13:35:37Z</time>
      </trkpt>
      <trkpt lat="42.1586684324" lon="-7.6092098840">
        <ele>660.08</ele>
        <time>2020-08-13T13:35:45Z</time>
      </trkpt>
      <trkpt lat="42.1588345617" lon="-7.6093247999">
        <ele>660.08</ele>
        <time>2020-08-13T13:35:54Z</time>
      </trkpt>
      <trkpt lat="42.1590580232" lon="-7.6094620116">
        <ele>662.01</ele>
        <time>2020-08-13T13:36:05Z</time>
      </trkpt>
      <trkpt lat="42.1592264995" lon="-7.6095594093">
        <ele>662.49</ele>
        <time>2020-08-13T13:36:13Z</time>
      </trkpt>
      <trkpt lat="42.1594161820" lon="-7.6096748281">
        <ele>662.49</ele>
        <time>2020-08-13T13:36:21Z</time>
      </trkpt>
      <trkpt lat="42.1595991589" lon="-7.6097901631">
        <ele>664.41</ele>
        <time>2020-08-13T13:36:29Z</time>
      </trkpt>
      <trkpt lat="42.1597661264" lon="-7.6098997146">
        <ele>664.41</ele>
        <time>2020-08-13T13:36:36Z</time>
      </trkpt>
      <trkpt lat="42.1599687170" lon="-7.6100426260">
        <ele>664.41</ele>
        <time>2020-08-13T13:36:45Z</time>
      </trkpt>
      <trkpt lat="42.1600615885" lon="-7.6101043168">
        <ele>664.89</ele>
        <time>2020-08-13T13:36:51Z</time>
      </trkpt>
      <trkpt lat="42.1600667015" lon="-7.6101059094">
        <ele>664.89</ele>
        <time>2020-08-13T13:36:57Z</time>
      </trkpt>
      <trkpt lat="42.1600703895" lon="-7.6101176441">
        <ele>663.45</ele>
        <time>2020-08-13T13:37:11Z</time>
      </trkpt>
      <trkpt lat="42.1600608341" lon="-7.6101018861">
        <ele>661.52</ele>
        <time>2020-08-13T13:37:23Z</time>
      </trkpt>
      <trkpt lat="42.1600648575" lon="-7.6101041492">
        <ele>660.56</ele>
        <time>2020-08-13T13:37:38Z</time>
      </trkpt>
      <trkpt lat="42.1600645222" lon="-7.6101084240">
        <ele>660.08</ele>
        <time>2020-08-13T13:37:51Z</time>
      </trkpt>
      <trkpt lat="42.1600574814" lon="-7.6101157162">
        <ele>662.49</ele>
        <time>2020-08-13T13:38:01Z</time>
      </trkpt>
      <trkpt lat="42.1600482613" lon="-7.6101310551">
        <ele>664.89</ele>
        <time>2020-08-13T13:38:13Z</time>
      </trkpt>
      <trkpt lat="42.1600652765" lon="-7.6101106033">
        <ele>663.93</ele>
        <time>2020-08-13T13:38:30Z</time>
      </trkpt>
      <trkpt lat="42.1600701381" lon="-7.6101117767">
        <ele>662.97</ele>
        <time>2020-08-13T13:38:40Z</time>
      </trkpt>
      <trkpt lat="42.1600685455" lon="-7.6101111900">
        <ele>663.93</ele>
        <time>2020-08-13T13:38:55Z</time>
      </trkpt>
      <trkpt lat="42.1600620914" lon="-7.6101042330">
        <ele>664.89</ele>
        <time>2020-08-13T13:39:05Z</time>
      </trkpt>
      <trkpt lat="42.1600662824" lon="-7.6101068314">
        <ele>665.37</ele>
        <time>2020-08-13T13:39:14Z</time>
      </trkpt>
      <trkpt lat="42.1601005644" lon="-7.6101394370">
        <ele>664.89</ele>
        <time>2020-08-13T13:39:20Z</time>
      </trkpt>
      <trkpt lat="42.1602185816" lon="-7.6103000343">
        <ele>666.33</ele>
        <time>2020-08-13T13:39:31Z</time>
      </trkpt>
      <trkpt lat="42.1603011433" lon="-7.6104146987">
        <ele>669.70</ele>
        <time>2020-08-13T13:39:42Z</time>
      </trkpt>
      <trkpt lat="42.1602921747" lon="-7.6104182191">
        <ele>669.70</ele>
        <time>2020-08-13T13:39:50Z</time>
      </trkpt>
      <trkpt lat="42.1602848824" lon="-7.6104078256">
        <ele>669.22</ele>
        <time>2020-08-13T13:40:01Z</time>
      </trkpt>
      <trkpt lat="42.1602919232" lon="-7.6103841886">
        <ele>669.22</ele>
        <time>2020-08-13T13:40:16Z</time>
      </trkpt>
      <trkpt lat="42.1602796856" lon="-7.6103791595">
        <ele>670.66</ele>
        <time>2020-08-13T13:40:36Z</time>
      </trkpt>
      <trkpt lat="42.1602796856" lon="-7.6103648264">
        <ele>671.14</ele>
        <time>2020-08-13T13:40:53Z</time>
      </trkpt>
      <trkpt lat="42.1602809429" lon="-7.6103711966">
        <ele>670.18</ele>
        <time>2020-08-13T13:41:18Z</time>
      </trkpt>
      <trkpt lat="42.1602925099" lon="-7.6103841048">
        <ele>671.14</ele>
        <time>2020-08-13T13:41:39Z</time>
      </trkpt>
      <trkpt lat="42.1602850500" lon="-7.6103801653">
        <ele>671.14</ele>
        <time>2020-08-13T13:41:54Z</time>
      </trkpt>
      <trkpt lat="42.1602977905" lon="-7.6103888825">
        <ele>671.14</ele>
        <time>2020-08-13T13:42:06Z</time>
      </trkpt>
      <trkpt lat="42.1603064239" lon="-7.6103568636">
        <ele>671.62</ele>
        <time>2020-08-13T13:42:27Z</time>
      </trkpt>
      <trkpt lat="42.1602889895" lon="-7.6103595458">
        <ele>672.10</ele>
        <time>2020-08-13T13:42:48Z</time>
      </trkpt>
      <trkpt lat="42.1602682024" lon="-7.6103546843">
        <ele>672.58</ele>
        <time>2020-08-13T13:43:11Z</time>
      </trkpt>
      <trkpt lat="42.1603031550" lon="-7.6103561930">
        <ele>675.46</ele>
        <time>2020-08-13T13:43:36Z</time>
      </trkpt>
      <trkpt lat="42.1602795180" lon="-7.6103901397">
        <ele>674.50</ele>
        <time>2020-08-13T13:44:01Z</time>
      </trkpt>
      <trkpt lat="42.1602848824" lon="-7.6103592105">
        <ele>673.06</ele>
        <time>2020-08-13T13:44:22Z</time>
      </trkpt>
      <trkpt lat="42.1602829546" lon="-7.6103687659">
        <ele>674.50</ele>
        <time>2020-08-13T13:44:47Z</time>
      </trkpt>
      <trkpt lat="42.1602868941" lon="-7.6103877090">
        <ele>673.54</ele>
        <time>2020-08-13T13:45:12Z</time>
      </trkpt>
      <trkpt lat="42.1602855530" lon="-7.6103644073">
        <ele>671.62</ele>
        <time>2020-08-13T13:45:40Z</time>
      </trkpt>
      <trkpt lat="42.1602876484" lon="-7.6104171295">
        <ele>673.06</ele>
        <time>2020-08-13T13:46:10Z</time>
      </trkpt>
      <trkpt lat="42.1602648497" lon="-7.6104405150">
        <ele>675.46</ele>
        <time>2020-08-13T13:46:28Z</time>
      </trkpt>
      <trkpt lat="42.1602694597" lon="-7.6104117651">
        <ele>674.02</ele>
        <time>2020-08-13T13:46:52Z</time>
      </trkpt>
      <trkpt lat="42.1602842119" lon="-7.6103898883">
        <ele>673.06</ele>
        <time>2020-08-13T13:47:18Z</time>
      </trkpt>
      <trkpt lat="42.1602935996" lon="-7.6103541814">
        <ele>674.50</ele>
        <time>2020-08-13T13:47:36Z</time>
      </trkpt>
      <trkpt lat="42.1602945216" lon="-7.6103287842">
        <ele>675.46</ele>
        <time>2020-08-13T13:47:53Z</time>
      </trkpt>
      <trkpt lat="42.1603060886" lon="-7.6103614736">
        <ele>678.35</ele>
        <time>2020-08-13T13:48:13Z</time>
      </trkpt>
      <trkpt lat="42.1602912527" lon="-7.6103893016">
        <ele>676.42</ele>
        <time>2020-08-13T13:48:40Z</time>
      </trkpt>
      <trkpt lat="42.1602692083" lon="-7.6104151178">
        <ele>676.91</ele>
        <time>2020-08-13T13:49:10Z</time>
      </trkpt>
      <trkpt lat="42.1602789313" lon="-7.6104228292">
        <ele>678.35</ele>
        <time>2020-08-13T13:49:34Z</time>
      </trkpt>
      <trkpt lat="42.1602785960" lon="-7.6104073226">
        <ele>675.94</ele>
        <time>2020-08-13T13:50:04Z</time>
      </trkpt>
      <trkpt lat="42.1602754947" lon="-7.6104110107">
        <ele>677.39</ele>
        <time>2020-08-13T13:50:33Z</time>
      </trkpt>
      <trkpt lat="42.1602820326" lon="-7.6104048919">
        <ele>675.46</ele>
        <time>2020-08-13T13:50:55Z</time>
      </trkpt>
      <trkpt lat="42.1602834575" lon="-7.6104351506">
        <ele>673.06</ele>
        <time>2020-08-13T13:51:28Z</time>
      </trkpt>
      <trkpt lat="42.1602901630" lon="-7.6104227453">
        <ele>668.73</ele>
        <time>2020-08-13T13:52:02Z</time>
      </trkpt>
      <trkpt lat="42.1602899116" lon="-7.6104051434">
        <ele>668.73</ele>
        <time>2020-08-13T13:52:29Z</time>
      </trkpt>
      <trkpt lat="42.1602834575" lon="-7.6104049757">
        <ele>667.77</ele>
        <time>2020-08-13T13:52:47Z</time>
      </trkpt>
      <trkpt lat="42.1602920908" lon="-7.6103849430">
        <ele>667.29</ele>
        <time>2020-08-13T13:53:07Z</time>
      </trkpt>
      <trkpt lat="42.1602806076" lon="-7.6103960909">
        <ele>668.25</ele>
        <time>2020-08-13T13:53:23Z</time>
      </trkpt>
      <trkpt lat="42.1602987964" lon="-7.6104161236">
        <ele>668.25</ele>
        <time>2020-08-13T13:53:26Z</time>
      </trkpt>
      <trkpt lat="42.1604121197" lon="-7.6105602924">
        <ele>670.18</ele>
        <time>2020-08-13T13:53:37Z</time>
      </trkpt>
      <trkpt lat="42.1604837850" lon="-7.6106879488">
        <ele>672.10</ele>
        <time>2020-08-13T13:53:47Z</time>
      </trkpt>
      <trkpt lat="42.1604900714" lon="-7.6107317861">
        <ele>672.10</ele>
        <time>2020-08-13T13:53:54Z</time>
      </trkpt>
      <trkpt lat="42.1604904067" lon="-7.6107375696">
        <ele>672.10</ele>
        <time>2020-08-13T13:53:57Z</time>
      </trkpt>
      <trkpt lat="42.1604143828" lon="-7.6108865999">
        <ele>672.10</ele>
        <time>2020-08-13T13:54:05Z</time>
      </trkpt>
      <trkpt lat="42.1603324078" lon="-7.6111860014">
        <ele>672.10</ele>
        <time>2020-08-13T13:54:14Z</time>
      </trkpt>
      <trkpt lat="42.1603041608" lon="-7.6114458404">
        <ele>672.58</ele>
        <time>2020-08-13T13:54:23Z</time>
      </trkpt>
      <trkpt lat="42.1603076812" lon="-7.6116806176">
        <ele>671.62</ele>
        <time>2020-08-13T13:54:31Z</time>
      </trkpt>
      <trkpt lat="42.1603255346" lon="-7.6118569728">
        <ele>670.66</ele>
        <time>2020-08-13T13:54:37Z</time>
      </trkpt>
      <trkpt lat="42.1603614930" lon="-7.6120777521">
        <ele>669.22</ele>
        <time>2020-08-13T13:54:41Z</time>
      </trkpt>
      <trkpt lat="42.1603801008" lon="-7.6121421251">
        <ele>668.73</ele>
        <time>2020-08-13T13:54:42Z</time>
      </trkpt>
      <trkpt lat="42.1604060847" lon="-7.6122085936">
        <ele>668.25</ele>
        <time>2020-08-13T13:54:43Z</time>
      </trkpt>
      <trkpt lat="42.1605628263" lon="-7.6126651559">
        <ele>665.85</ele>
        <time>2020-08-13T13:54:49Z</time>
      </trkpt>
      <trkpt lat="42.1606448852" lon="-7.6131378114">
        <ele>665.85</ele>
        <time>2020-08-13T13:54:55Z</time>
      </trkpt>
      <trkpt lat="42.1607201546" lon="-7.6135103870">
        <ele>666.33</ele>
        <time>2020-08-13T13:55:01Z</time>
      </trkpt>
      <trkpt lat="42.1607368346" lon="-7.6135616843">
        <ele>665.85</ele>
        <time>2020-08-13T13:55:02Z</time>
      </trkpt>
      <trkpt lat="42.1607516706" lon="-7.6136052702">
        <ele>665.85</ele>
        <time>2020-08-13T13:55:03Z</time>
      </trkpt>
      <trkpt lat="42.1607635729" lon="-7.6136387140">
        <ele>665.85</ele>
        <time>2020-08-13T13:55:04Z</time>
      </trkpt>
      <trkpt lat="42.1607751399" lon="-7.6136730798">
        <ele>666.33</ele>
        <time>2020-08-13T13:55:05Z</time>
      </trkpt>
      <trkpt lat="42.1608744655" lon="-7.6139150653">
        <ele>666.81</ele>
        <time>2020-08-13T13:55:13Z</time>
      </trkpt>
      <trkpt lat="42.1609512437" lon="-7.6141324919">
        <ele>666.81</ele>
        <time>2020-08-13T13:55:21Z</time>
      </trkpt>
      <trkpt lat="42.1610309556" lon="-7.6143351663">
        <ele>665.37</ele>
        <time>2020-08-13T13:55:28Z</time>
      </trkpt>
      <trkpt lat="42.1610630583" lon="-7.6144982781">
        <ele>668.25</ele>
        <time>2020-08-13T13:55:34Z</time>
      </trkpt>
      <trkpt lat="42.1610634774" lon="-7.6148400083">
        <ele>671.14</ele>
        <time>2020-08-13T13:55:44Z</time>
      </trkpt>
      <trkpt lat="42.1610196400" lon="-7.6150726061">
        <ele>672.10</ele>
        <time>2020-08-13T13:55:52Z</time>
      </trkpt>
      <trkpt lat="42.1609706059" lon="-7.6153789647">
        <ele>671.62</ele>
        <time>2020-08-13T13:56:00Z</time>
      </trkpt>
      <trkpt lat="42.1609837655" lon="-7.6157010812">
        <ele>669.70</ele>
        <time>2020-08-13T13:56:08Z</time>
      </trkpt>
      <trkpt lat="42.1609800775" lon="-7.6160980482">
        <ele>668.25</ele>
        <time>2020-08-13T13:56:15Z</time>
      </trkpt>
      <trkpt lat="42.1609846037" lon="-7.6165206637">
        <ele>665.85</ele>
        <time>2020-08-13T13:56:20Z</time>
      </trkpt>
      <trkpt lat="42.1611139365" lon="-7.6169797406">
        <ele>663.93</ele>
        <time>2020-08-13T13:56:26Z</time>
      </trkpt>
      <trkpt lat="42.1612357255" lon="-7.6172393281">
        <ele>662.97</ele>
        <time>2020-08-13T13:56:30Z</time>
      </trkpt>
      <trkpt lat="42.1615166869" lon="-7.6177103911">
        <ele>662.01</ele>
        <time>2020-08-13T13:56:39Z</time>
      </trkpt>
      <trkpt lat="42.1617189422" lon="-7.6180554740">
        <ele>662.01</ele>
        <time>2020-08-13T13:56:47Z</time>
      </trkpt>
      <trkpt lat="42.1620060224" lon="-7.6185585558">
        <ele>662.01</ele>
        <time>2020-08-13T13:56:58Z</time>
      </trkpt>
      <trkpt lat="42.1622812003" lon="-7.6190295350">
        <ele>662.97</ele>
        <time>2020-08-13T13:57:09Z</time>
      </trkpt>
      <trkpt lat="42.1624293085" lon="-7.6192975882">
        <ele>662.01</ele>
        <time>2020-08-13T13:57:15Z</time>
      </trkpt>
      <trkpt lat="42.1626247745" lon="-7.6196602732">
        <ele>662.01</ele>
        <time>2020-08-13T13:57:23Z</time>
      </trkpt>
      <trkpt lat="42.1627623215" lon="-7.6198652945">
        <ele>663.45</ele>
        <time>2020-08-13T13:57:28Z</time>
      </trkpt>
      <trkpt lat="42.1628950071" lon="-7.6200032607">
        <ele>664.41</ele>
        <time>2020-08-13T13:57:32Z</time>
      </trkpt>
      <trkpt lat="42.1633326262" lon="-7.6203383692">
        <ele>663.45</ele>
        <time>2020-08-13T13:57:43Z</time>
      </trkpt>
      <trkpt lat="42.1636196226" lon="-7.6206454821">
        <ele>662.97</ele>
        <time>2020-08-13T13:57:51Z</time>
      </trkpt>
      <trkpt lat="42.1639018413" lon="-7.6210138667">
        <ele>663.45</ele>
        <time>2020-08-13T13:58:00Z</time>
      </trkpt>
      <trkpt lat="42.1641368698" lon="-7.6213763002">
        <ele>663.45</ele>
        <time>2020-08-13T13:58:09Z</time>
      </trkpt>
      <trkpt lat="42.1641872451" lon="-7.6216062158">
        <ele>663.93</ele>
        <time>2020-08-13T13:58:15Z</time>
      </trkpt>
      <trkpt lat="42.1642503608" lon="-7.6219579205">
        <ele>664.89</ele>
        <time>2020-08-13T13:58:22Z</time>
      </trkpt>
      <trkpt lat="42.1643470041" lon="-7.6222786121">
        <ele>665.85</ele>
        <time>2020-08-13T13:58:29Z</time>
      </trkpt>
      <trkpt lat="42.1644640993" lon="-7.6227482501">
        <ele>665.85</ele>
        <time>2020-08-13T13:58:38Z</time>
      </trkpt>
      <trkpt lat="42.1645458229" lon="-7.6231937483">
        <ele>664.89</ele>
        <time>2020-08-13T13:58:46Z</time>
      </trkpt>
      <trkpt lat="42.1646321565" lon="-7.6236402523">
        <ele>664.89</ele>
        <time>2020-08-13T13:58:54Z</time>
      </trkpt>
      <trkpt lat="42.1647223458" lon="-7.6240710821">
        <ele>662.97</ele>
        <time>2020-08-13T13:59:02Z</time>
      </trkpt>
      <trkpt lat="42.1648027282" lon="-7.6245033368">
        <ele>660.08</ele>
        <time>2020-08-13T13:59:09Z</time>
      </trkpt>
      <trkpt lat="42.1648132894" lon="-7.6250707917">
        <ele>656.24</ele>
        <time>2020-08-13T13:59:17Z</time>
      </trkpt>
      <trkpt lat="42.1648006327" lon="-7.6254803315">
        <ele>654.31</ele>
        <time>2020-08-13T13:59:23Z</time>
      </trkpt>
      <trkpt lat="42.1647354215" lon="-7.6261399873">
        <ele>650.47</ele>
        <time>2020-08-13T13:59:32Z</time>
      </trkpt>
      <trkpt lat="42.1647137124" lon="-7.6264818851">
        <ele>648.07</ele>
        <time>2020-08-13T13:59:36Z</time>
      </trkpt>
      <trkpt lat="42.1647607349" lon="-7.6269618329">
        <ele>645.66</ele>
        <time>2020-08-13T13:59:42Z</time>
      </trkpt>
      <trkpt lat="42.1647548676" lon="-7.6271729730">
        <ele>644.70</ele>
        <time>2020-08-13T13:59:46Z</time>
      </trkpt>
      <trkpt lat="42.1647459827" lon="-7.6272254437">
        <ele>644.70</ele>
        <time>2020-08-13T13:59:47Z</time>
      </trkpt>
      <trkpt lat="42.1647344157" lon="-7.6272774115">
        <ele>644.70</ele>
        <time>2020-08-13T13:59:48Z</time>
      </trkpt>
      <trkpt lat="42.1647144668" lon="-7.6273331512">
        <ele>644.70</ele>
        <time>2020-08-13T13:59:49Z</time>
      </trkpt>
      <trkpt lat="42.1646878961" lon="-7.6273813471">
        <ele>644.22</ele>
        <time>2020-08-13T13:59:50Z</time>
      </trkpt>
      <trkpt lat="42.1646553744" lon="-7.6274308003">
        <ele>644.22</ele>
        <time>2020-08-13T13:59:51Z</time>
      </trkpt>
      <trkpt lat="42.1643001493" lon="-7.6279563457">
        <ele>643.26</ele>
        <time>2020-08-13T14:00:02Z</time>
      </trkpt>
      <trkpt lat="42.1642266400" lon="-7.6280972455">
        <ele>642.78</ele>
        <time>2020-08-13T14:00:05Z</time>
      </trkpt>
      <trkpt lat="42.1642082836" lon="-7.6281505544">
        <ele>642.78</ele>
        <time>2020-08-13T14:00:06Z</time>
      </trkpt>
      <trkpt lat="42.1641922742" lon="-7.6282098982">
        <ele>642.78</ele>
        <time>2020-08-13T14:00:07Z</time>
      </trkpt>
      <trkpt lat="42.1641674638" lon="-7.6283289213">
        <ele>642.78</ele>
        <time>2020-08-13T14:00:09Z</time>
      </trkpt>
      <trkpt lat="42.1641522925" lon="-7.6284583379">
        <ele>642.78</ele>
        <time>2020-08-13T14:00:11Z</time>
      </trkpt>
      <trkpt lat="42.1641338523" lon="-7.6288881619">
        <ele>642.78</ele>
        <time>2020-08-13T14:00:18Z</time>
      </trkpt>
      <trkpt lat="42.1641366184" lon="-7.6289483439">
        <ele>642.78</ele>
        <time>2020-08-13T14:00:19Z</time>
      </trkpt>
      <trkpt lat="42.1641960461" lon="-7.6296298765">
        <ele>642.78</ele>
        <time>2020-08-13T14:00:30Z</time>
      </trkpt>
      <trkpt lat="42.1642672922" lon="-7.6301472913">
        <ele>643.26</ele>
        <time>2020-08-13T14:00:39Z</time>
      </trkpt>
      <trkpt lat="42.1643143147" lon="-7.6304367185">
        <ele>643.26</ele>
        <time>2020-08-13T14:00:47Z</time>
      </trkpt>
      <trkpt lat="42.1643834654" lon="-7.6308590826">
        <ele>643.74</ele>
        <time>2020-08-13T14:00:57Z</time>
      </trkpt>
      <trkpt lat="42.1644261293" lon="-7.6312126312">
        <ele>644.70</ele>
        <time>2020-08-13T14:01:06Z</time>
      </trkpt>
      <trkpt lat="42.1644765884" lon="-7.6315967739">
        <ele>645.66</ele>
        <time>2020-08-13T14:01:15Z</time>
      </trkpt>
      <trkpt lat="42.1645184141" lon="-7.6319889631">
        <ele>645.66</ele>
        <time>2020-08-13T14:01:24Z</time>
      </trkpt>
      <trkpt lat="42.1644634288" lon="-7.6323980838">
        <ele>647.10</ele>
        <time>2020-08-13T14:01:34Z</time>
      </trkpt>
      <trkpt lat="42.1643569786" lon="-7.6328153349">
        <ele>647.10</ele>
        <time>2020-08-13T14:01:44Z</time>
      </trkpt>
      <trkpt lat="42.1643104590" lon="-7.6331759244">
        <ele>647.59</ele>
        <time>2020-08-13T14:01:53Z</time>
      </trkpt>
      <trkpt lat="42.1642720699" lon="-7.6335426327">
        <ele>648.55</ele>
        <time>2020-08-13T14:02:02Z</time>
      </trkpt>
      <trkpt lat="42.1641732473" lon="-7.6338691916">
        <ele>648.55</ele>
        <time>2020-08-13T14:02:10Z</time>
      </trkpt>
      <trkpt lat="42.1640346944" lon="-7.6342229918">
        <ele>648.55</ele>
        <time>2020-08-13T14:02:19Z</time>
      </trkpt>
      <trkpt lat="42.1638655476" lon="-7.6345361397">
        <ele>648.55</ele>
        <time>2020-08-13T14:02:28Z</time>
      </trkpt>
      <trkpt lat="42.1636572573" lon="-7.6347658038">
        <ele>649.03</ele>
        <time>2020-08-13T14:02:35Z</time>
      </trkpt>
      <trkpt lat="42.1634109970" lon="-7.6350285765">
        <ele>649.03</ele>
        <time>2020-08-13T14:02:43Z</time>
      </trkpt>
      <trkpt lat="42.1632797364" lon="-7.6351928618">
        <ele>648.55</ele>
        <time>2020-08-13T14:02:48Z</time>
      </trkpt>
      <trkpt lat="42.1632572729" lon="-7.6352399681">
        <ele>648.55</ele>
        <time>2020-08-13T14:02:49Z</time>
      </trkpt>
      <trkpt lat="42.1630672552" lon="-7.6356793474">
        <ele>646.62</ele>
        <time>2020-08-13T14:02:57Z</time>
      </trkpt>
      <trkpt lat="42.1629526746" lon="-7.6360051520">
        <ele>647.10</ele>
        <time>2020-08-13T14:03:04Z</time>
      </trkpt>
      <trkpt lat="42.1628209949" lon="-7.6364627201">
        <ele>647.10</ele>
        <time>2020-08-13T14:03:14Z</time>
      </trkpt>
      <trkpt lat="42.1627443004" lon="-7.6368859224">
        <ele>646.62</ele>
        <time>2020-08-13T14:03:23Z</time>
      </trkpt>
      <trkpt lat="42.1627470665" lon="-7.6372649521">
        <ele>647.59</ele>
        <time>2020-08-13T14:03:31Z</time>
      </trkpt>
      <trkpt lat="42.1627678536" lon="-7.6376638468">
        <ele>647.59</ele>
        <time>2020-08-13T14:03:41Z</time>
      </trkpt>
      <trkpt lat="42.1627353318" lon="-7.6379092690">
        <ele>648.07</ele>
        <time>2020-08-13T14:03:50Z</time>
      </trkpt>
      <trkpt lat="42.1626929194" lon="-7.6380324829">
        <ele>648.07</ele>
        <time>2020-08-13T14:03:58Z</time>
      </trkpt>
      <trkpt lat="42.1626884770" lon="-7.6381019689">
        <ele>649.03</ele>
        <time>2020-08-13T14:04:04Z</time>
      </trkpt>
      <trkpt lat="42.1626634151" lon="-7.6382295415">
        <ele>649.51</ele>
        <time>2020-08-13T14:04:13Z</time>
      </trkpt>
      <trkpt lat="42.1626386885" lon="-7.6383328903">
        <ele>649.99</ele>
        <time>2020-08-13T14:04:20Z</time>
      </trkpt>
      <trkpt lat="42.1626259480" lon="-7.6385260932">
        <ele>650.95</ele>
        <time>2020-08-13T14:04:30Z</time>
      </trkpt>
      <trkpt lat="42.1625862177" lon="-7.6387440227">
        <ele>652.39</ele>
        <time>2020-08-13T14:04:42Z</time>
      </trkpt>
      <trkpt lat="42.1625433024" lon="-7.6389371417">
        <ele>654.31</ele>
        <time>2020-08-13T14:04:53Z</time>
      </trkpt>
      <trkpt lat="42.1625166479" lon="-7.6391175203">
        <ele>656.72</ele>
        <time>2020-08-13T14:05:04Z</time>
      </trkpt>
      <trkpt lat="42.1625524387" lon="-7.6393144950">
        <ele>659.12</ele>
        <time>2020-08-13T14:05:16Z</time>
      </trkpt>
      <trkpt lat="42.1625781711" lon="-7.6394324284">
        <ele>660.08</ele>
        <time>2020-08-13T14:05:25Z</time>
      </trkpt>
      <trkpt lat="42.1625780873" lon="-7.6394545566">
        <ele>660.08</ele>
        <time>2020-08-13T14:05:32Z</time>
      </trkpt>
      <trkpt lat="42.1626350004" lon="-7.6396670379">
        <ele>662.01</ele>
        <time>2020-08-13T14:05:45Z</time>
      </trkpt>
      <trkpt lat="42.1626780834" lon="-7.6398269646">
        <ele>662.97</ele>
        <time>2020-08-13T14:05:55Z</time>
      </trkpt>
      <trkpt lat="42.1627093479" lon="-7.6399827003">
        <ele>663.93</ele>
        <time>2020-08-13T14:06:05Z</time>
      </trkpt>
      <trkpt lat="42.1627243515" lon="-7.6400708780">
        <ele>664.41</ele>
        <time>2020-08-13T14:06:14Z</time>
      </trkpt>
      <trkpt lat="42.1627380978" lon="-7.6401392743">
        <ele>664.41</ele>
        <time>2020-08-13T14:06:21Z</time>
      </trkpt>
      <trkpt lat="42.1627900656" lon="-7.6403978560">
        <ele>664.89</ele>
        <time>2020-08-13T14:06:29Z</time>
      </trkpt>
      <trkpt lat="42.1628390159" lon="-7.6406361535">
        <ele>665.37</ele>
        <time>2020-08-13T14:06:36Z</time>
      </trkpt>
      <trkpt lat="42.1629048977" lon="-7.6409978326">
        <ele>666.33</ele>
        <time>2020-08-13T14:06:47Z</time>
      </trkpt>
      <trkpt lat="42.1629658341" lon="-7.6412983239">
        <ele>667.29</ele>
        <time>2020-08-13T14:06:56Z</time>
      </trkpt>
      <trkpt lat="42.1630363259" lon="-7.6416693907">
        <ele>668.25</ele>
        <time>2020-08-13T14:07:06Z</time>
      </trkpt>
      <trkpt lat="42.1631048061" lon="-7.6420648489">
        <ele>669.70</ele>
        <time>2020-08-13T14:07:16Z</time>
      </trkpt>
      <trkpt lat="42.1631976776" lon="-7.6424054895">
        <ele>669.70</ele>
        <time>2020-08-13T14:07:25Z</time>
      </trkpt>
      <trkpt lat="42.1632830892" lon="-7.6426732074">
        <ele>669.70</ele>
        <time>2020-08-13T14:07:34Z</time>
      </trkpt>
      <trkpt lat="42.1633912157" lon="-7.6429703459">
        <ele>668.73</ele>
        <time>2020-08-13T14:07:41Z</time>
      </trkpt>
      <trkpt lat="42.1634586900" lon="-7.6431560889">
        <ele>667.29</ele>
        <time>2020-08-13T14:07:48Z</time>
      </trkpt>
      <trkpt lat="42.1635214705" lon="-7.6432884391">
        <ele>667.29</ele>
        <time>2020-08-13T14:07:55Z</time>
      </trkpt>
      <trkpt lat="42.1635303553" lon="-7.6434783731">
        <ele>667.29</ele>
        <time>2020-08-13T14:08:01Z</time>
      </trkpt>
      <trkpt lat="42.1634465363" lon="-7.6437786967">
        <ele>667.77</ele>
        <time>2020-08-13T14:08:11Z</time>
      </trkpt>
      <trkpt lat="42.1634440217" lon="-7.6438146550">
        <ele>667.77</ele>
        <time>2020-08-13T14:08:12Z</time>
      </trkpt>
      <trkpt lat="42.1634236537" lon="-7.6440387871">
        <ele>665.37</ele>
        <time>2020-08-13T14:08:19Z</time>
      </trkpt>
      <trkpt lat="42.1633478813" lon="-7.6443803497">
        <ele>662.97</ele>
        <time>2020-08-13T14:08:26Z</time>
      </trkpt>
      <trkpt lat="42.1631863620" lon="-7.6448286977">
        <ele>660.08</ele>
        <time>2020-08-13T14:08:34Z</time>
      </trkpt>
      <trkpt lat="42.1631444525" lon="-7.6451655664">
        <ele>658.16</ele>
        <time>2020-08-13T14:08:41Z</time>
      </trkpt>
      <trkpt lat="42.1631304547" lon="-7.6455615275">
        <ele>657.20</ele>
        <time>2020-08-13T14:08:50Z</time>
      </trkpt>
      <trkpt lat="42.1631416027" lon="-7.6458736695">
        <ele>655.76</ele>
        <time>2020-08-13T14:08:58Z</time>
      </trkpt>
      <trkpt lat="42.1632093284" lon="-7.6462393720">
        <ele>653.35</ele>
        <time>2020-08-13T14:09:06Z</time>
      </trkpt>
      <trkpt lat="42.1633882821" lon="-7.6465774141">
        <ele>649.51</ele>
        <time>2020-08-13T14:09:14Z</time>
      </trkpt>
      <trkpt lat="42.1635194588" lon="-7.6468587946">
        <ele>646.62</ele>
        <time>2020-08-13T14:09:20Z</time>
      </trkpt>
      <trkpt lat="42.1636140905" lon="-7.6472633891">
        <ele>643.26</ele>
        <time>2020-08-13T14:09:27Z</time>
      </trkpt>
      <trkpt lat="42.1636911202" lon="-7.6476245653">
        <ele>640.86</ele>
        <time>2020-08-13T14:09:34Z</time>
      </trkpt>
      <trkpt lat="42.1637140866" lon="-7.6476660557">
        <ele>640.38</ele>
        <time>2020-08-13T14:09:36Z</time>
      </trkpt>
      <trkpt lat="42.1637601871" lon="-7.6476808079">
        <ele>639.89</ele>
        <time>2020-08-13T14:09:38Z</time>
      </trkpt>
      <trkpt lat="42.1637907811" lon="-7.6476741862">
        <ele>639.89</ele>
        <time>2020-08-13T14:09:39Z</time>
      </trkpt>
      <trkpt lat="42.1641229559" lon="-7.6475474518">
        <ele>639.89</ele>
        <time>2020-08-13T14:09:48Z</time>
      </trkpt>
      <trkpt lat="42.1644092817" lon="-7.6474447735">
        <ele>639.89</ele>
        <time>2020-08-13T14:09:56Z</time>
      </trkpt>
      <trkpt lat="42.1647786722" lon="-7.6473061368">
        <ele>639.89</ele>
        <time>2020-08-13T14:10:05Z</time>
      </trkpt>
      <trkpt lat="42.1652752161" lon="-7.6471194718">
        <ele>639.41</ele>
        <time>2020-08-13T14:10:17Z</time>
      </trkpt>
      <trkpt lat="42.1653183829" lon="-7.6471039653">
        <ele>639.41</ele>
        <time>2020-08-13T14:10:18Z</time>
      </trkpt>
      <trkpt lat="42.1656781342" lon="-7.6469735429">
        <ele>637.97</ele>
        <time>2020-08-13T14:10:26Z</time>
      </trkpt>
      <trkpt lat="42.1660817228" lon="-7.6468339004">
        <ele>636.53</ele>
        <time>2020-08-13T14:10:34Z</time>
      </trkpt>
      <trkpt lat="42.1666221879" lon="-7.6466362551">
        <ele>636.05</ele>
        <time>2020-08-13T14:10:45Z</time>
      </trkpt>
      <trkpt lat="42.1669617388" lon="-7.6465057489">
        <ele>635.57</ele>
        <time>2020-08-13T14:10:53Z</time>
      </trkpt>
      <trkpt lat="42.1673732903" lon="-7.6463516895">
        <ele>635.57</ele>
        <time>2020-08-13T14:11:03Z</time>
      </trkpt>
      <trkpt lat="42.1678342111" lon="-7.6461870689">
        <ele>635.57</ele>
        <time>2020-08-13T14:11:14Z</time>
      </trkpt>
      <trkpt lat="42.1681026835" lon="-7.6460807864">
        <ele>636.05</ele>
        <time>2020-08-13T14:11:21Z</time>
      </trkpt>
      <trkpt lat="42.1681403182" lon="-7.6460655313">
        <ele>636.05</ele>
        <time>2020-08-13T14:11:22Z</time>
      </trkpt>
      <trkpt lat="42.1682565752" lon="-7.6460252982">
        <ele>636.05</ele>
        <time>2020-08-13T14:11:25Z</time>
      </trkpt>
      <trkpt lat="42.1684918553" lon="-7.6459372044">
        <ele>636.05</ele>
        <time>2020-08-13T14:11:31Z</time>
      </trkpt>
      <trkpt lat="42.1685304120" lon="-7.6459193509">
        <ele>636.05</ele>
        <time>2020-08-13T14:11:32Z</time>
      </trkpt>
      <trkpt lat="42.1688348427" lon="-7.6457990706">
        <ele>636.53</ele>
        <time>2020-08-13T14:11:40Z</time>
      </trkpt>
      <trkpt lat="42.1691394411" lon="-7.6456854958">
        <ele>637.01</ele>
        <time>2020-08-13T14:11:48Z</time>
      </trkpt>
      <trkpt lat="42.1695074905" lon="-7.6455596834">
        <ele>637.01</ele>
        <time>2020-08-13T14:11:58Z</time>
      </trkpt>
      <trkpt lat="42.1698819101" lon="-7.6455104817">
        <ele>637.49</ele>
        <time>2020-08-13T14:12:08Z</time>
      </trkpt>
      <trkpt lat="42.1700569242" lon="-7.6455478650">
        <ele>637.97</ele>
        <time>2020-08-13T14:12:13Z</time>
      </trkpt>
      <trkpt lat="42.1700839140" lon="-7.6455850806">
        <ele>637.97</ele>
        <time>2020-08-13T14:12:14Z</time>
      </trkpt>
      <trkpt lat="42.1701011807" lon="-7.6456320193">
        <ele>637.97</ele>
        <time>2020-08-13T14:12:15Z</time>
      </trkpt>
      <trkpt lat="42.1701113228" lon="-7.6456794608">
        <ele>637.97</ele>
        <time>2020-08-13T14:12:16Z</time>
      </trkpt>
      <trkpt lat="42.1701212972" lon="-7.6457347814">
        <ele>637.49</ele>
        <time>2020-08-13T14:12:17Z</time>
      </trkpt>
      <trkpt lat="42.1701295953" lon="-7.6457964722">
        <ele>637.49</ele>
        <time>2020-08-13T14:12:18Z</time>
      </trkpt>
      <trkpt lat="42.1702192817" lon="-7.6463835407">
        <ele>635.57</ele>
        <time>2020-08-13T14:12:27Z</time>
      </trkpt>
      <trkpt lat="42.1703435015" lon="-7.6471692603">
        <ele>633.65</ele>
        <time>2020-08-13T14:12:38Z</time>
      </trkpt>
      <trkpt lat="42.1704367083" lon="-7.6477607712">
        <ele>632.68</ele>
        <time>2020-08-13T14:12:47Z</time>
      </trkpt>
      <trkpt lat="42.1705259755" lon="-7.6483799424">
        <ele>632.68</ele>
        <time>2020-08-13T14:12:57Z</time>
      </trkpt>
      <trkpt lat="42.1706149075" lon="-7.6489737164">
        <ele>632.20</ele>
        <time>2020-08-13T14:13:07Z</time>
      </trkpt>
      <trkpt lat="42.1706853155" lon="-7.6494610403">
        <ele>631.72</ele>
        <time>2020-08-13T14:13:15Z</time>
      </trkpt>
      <trkpt lat="42.1707900055" lon="-7.6501548104">
        <ele>631.24</ele>
        <time>2020-08-13T14:13:26Z</time>
      </trkpt>
      <trkpt lat="42.1708822902" lon="-7.6508030668">
        <ele>630.76</ele>
        <time>2020-08-13T14:13:37Z</time>
      </trkpt>
      <trkpt lat="42.1708984673" lon="-7.6510236785">
        <ele>630.76</ele>
        <time>2020-08-13T14:13:41Z</time>
      </trkpt>
      <trkpt lat="42.1709102020" lon="-7.6510774903">
        <ele>630.76</ele>
        <time>2020-08-13T14:13:42Z</time>
      </trkpt>
      <trkpt lat="42.1709217690" lon="-7.6511318050">
        <ele>630.76</ele>
        <time>2020-08-13T14:13:43Z</time>
      </trkpt>
      <trkpt lat="42.1709339228" lon="-7.6511902269">
        <ele>630.76</ele>
        <time>2020-08-13T14:13:44Z</time>
      </trkpt>
      <trkpt lat="42.1709472500" lon="-7.6512496546">
        <ele>631.24</ele>
        <time>2020-08-13T14:13:45Z</time>
      </trkpt>
      <trkpt lat="42.1710163169" lon="-7.6517131738">
        <ele>631.72</ele>
        <time>2020-08-13T14:13:53Z</time>
      </trkpt>
      <trkpt lat="42.1711101104" lon="-7.6522588357">
        <ele>631.24</ele>
        <time>2020-08-13T14:14:02Z</time>
      </trkpt>
      <trkpt lat="42.1711842902" lon="-7.6527827885">
        <ele>630.28</ele>
        <time>2020-08-13T14:14:11Z</time>
      </trkpt>
      <trkpt lat="42.1712463163" lon="-7.6532009616">
        <ele>630.76</ele>
        <time>2020-08-13T14:14:19Z</time>
      </trkpt>
      <trkpt lat="42.1713411994" lon="-7.6538261678">
        <ele>631.24</ele>
        <time>2020-08-13T14:14:30Z</time>
      </trkpt>
      <trkpt lat="42.1714293770" lon="-7.6544377953">
        <ele>631.24</ele>
        <time>2020-08-13T14:14:40Z</time>
      </trkpt>
      <trkpt lat="42.1714435425" lon="-7.6545654517">
        <ele>631.24</ele>
        <time>2020-08-13T14:14:42Z</time>
      </trkpt>
      <trkpt lat="42.1715303790" lon="-7.6551367622">
        <ele>631.24</ele>
        <time>2020-08-13T14:14:51Z</time>
      </trkpt>
      <trkpt lat="42.1716156229" lon="-7.6556363236">
        <ele>630.76</ele>
        <time>2020-08-13T14:14:59Z</time>
      </trkpt>
      <trkpt lat="42.1716952510" lon="-7.6561741903">
        <ele>630.28</ele>
        <time>2020-08-13T14:15:08Z</time>
      </trkpt>
      <trkpt lat="42.1717053931" lon="-7.6562315226">
        <ele>630.28</ele>
        <time>2020-08-13T14:15:09Z</time>
      </trkpt>
      <trkpt lat="42.1717157029" lon="-7.6562859211">
        <ele>630.28</ele>
        <time>2020-08-13T14:15:10Z</time>
      </trkpt>
      <trkpt lat="42.1718027908" lon="-7.6568715647">
        <ele>629.80</ele>
        <time>2020-08-13T14:15:20Z</time>
      </trkpt>
      <trkpt lat="42.1718913876" lon="-7.6574480720">
        <ele>629.80</ele>
        <time>2020-08-13T14:15:30Z</time>
      </trkpt>
      <trkpt lat="42.1720026992" lon="-7.6581827458">
        <ele>629.80</ele>
        <time>2020-08-13T14:15:42Z</time>
      </trkpt>
      <trkpt lat="42.1720331255" lon="-7.6584255695">
        <ele>629.80</ele>
        <time>2020-08-13T14:15:46Z</time>
      </trkpt>
      <trkpt lat="42.1720431838" lon="-7.6584842429">
        <ele>629.80</ele>
        <time>2020-08-13T14:15:47Z</time>
      </trkpt>
      <trkpt lat="42.1720477100" lon="-7.6585400663">
        <ele>629.80</ele>
        <time>2020-08-13T14:15:48Z</time>
      </trkpt>
      <trkpt lat="42.1720479615" lon="-7.6588906813">
        <ele>629.80</ele>
        <time>2020-08-13T14:15:54Z</time>
      </trkpt>
      <trkpt lat="42.1720114164" lon="-7.6592029911">
        <ele>628.84</ele>
        <time>2020-08-13T14:15:59Z</time>
      </trkpt>
      <trkpt lat="42.1719773021" lon="-7.6598955039">
        <ele>628.36</ele>
        <time>2020-08-13T14:16:09Z</time>
      </trkpt>
      <trkpt lat="42.1719293576" lon="-7.6605988294">
        <ele>627.88</ele>
        <time>2020-08-13T14:16:20Z</time>
      </trkpt>
      <trkpt lat="42.1718894597" lon="-7.6612124685">
        <ele>627.88</ele>
        <time>2020-08-13T14:16:30Z</time>
      </trkpt>
      <trkpt lat="42.1718444489" lon="-7.6618825179">
        <ele>627.88</ele>
        <time>2020-08-13T14:16:41Z</time>
      </trkpt>
      <trkpt lat="42.1717965882" lon="-7.6625535730">
        <ele>627.88</ele>
        <time>2020-08-13T14:16:52Z</time>
      </trkpt>
      <trkpt lat="42.1717421897" lon="-7.6632981375">
        <ele>627.40</ele>
        <time>2020-08-13T14:17:05Z</time>
      </trkpt>
      <trkpt lat="42.1717176307" lon="-7.6636832859">
        <ele>627.40</ele>
        <time>2020-08-13T14:17:12Z</time>
      </trkpt>
      <trkpt lat="42.1717152838" lon="-7.6637376845">
        <ele>627.40</ele>
        <time>2020-08-13T14:17:13Z</time>
      </trkpt>
      <trkpt lat="42.1716713626" lon="-7.6643167902">
        <ele>627.88</ele>
        <time>2020-08-13T14:17:23Z</time>
      </trkpt>
      <trkpt lat="42.1716405172" lon="-7.6648093108">
        <ele>627.40</ele>
        <time>2020-08-13T14:17:31Z</time>
      </trkpt>
      <trkpt lat="42.1716391761" lon="-7.6648715883">
        <ele>627.40</ele>
        <time>2020-08-13T14:17:32Z</time>
      </trkpt>
      <trkpt lat="42.1715870406" lon="-7.6655473374">
        <ele>626.92</ele>
        <time>2020-08-13T14:17:43Z</time>
      </trkpt>
      <trkpt lat="42.1715419460" lon="-7.6661820151">
        <ele>626.44</ele>
        <time>2020-08-13T14:17:53Z</time>
      </trkpt>
      <trkpt lat="42.1714935824" lon="-7.6669653878">
        <ele>626.44</ele>
        <time>2020-08-13T14:18:05Z</time>
      </trkpt>
      <trkpt lat="42.1714498289" lon="-7.6675679628">
        <ele>626.44</ele>
        <time>2020-08-13T14:18:15Z</time>
      </trkpt>
      <trkpt lat="42.1714070812" lon="-7.6681491639">
        <ele>626.92</ele>
        <time>2020-08-13T14:18:25Z</time>
      </trkpt>
      <trkpt lat="42.1713636629" lon="-7.6687894575">
        <ele>626.92</ele>
        <time>2020-08-13T14:18:36Z</time>
      </trkpt>
      <trkpt lat="42.1713557001" lon="-7.6689270884">
        <ele>626.92</ele>
        <time>2020-08-13T14:18:42Z</time>
      </trkpt>
      <trkpt lat="42.1713488270" lon="-7.6689280942">
        <ele>627.40</ele>
        <time>2020-08-13T14:18:54Z</time>
      </trkpt>
      <trkpt lat="42.1713508386" lon="-7.6689311955">
        <ele>627.88</ele>
        <time>2020-08-13T14:19:10Z</time>
      </trkpt>
      <trkpt lat="42.1713442169" lon="-7.6689510606">
        <ele>627.88</ele>
        <time>2020-08-13T14:19:15Z</time>
      </trkpt>
      <trkpt lat="42.1713416185" lon="-7.6689700037">
        <ele>627.88</ele>
        <time>2020-08-13T14:19:16Z</time>
      </trkpt>
      <trkpt lat="42.1713330690" lon="-7.6691700798">
        <ele>628.36</ele>
        <time>2020-08-13T14:19:22Z</time>
      </trkpt>
      <trkpt lat="42.1713030618" lon="-7.6696006581">
        <ele>627.88</ele>
        <time>2020-08-13T14:19:30Z</time>
      </trkpt>
      <trkpt lat="42.1712686960" lon="-7.6701581385">
        <ele>627.88</ele>
        <time>2020-08-13T14:19:39Z</time>
      </trkpt>
      <trkpt lat="42.1712099388" lon="-7.6709898748">
        <ele>627.40</ele>
        <time>2020-08-13T14:19:52Z</time>
      </trkpt>
      <trkpt lat="42.1711751539" lon="-7.6714793779">
        <ele>627.40</ele>
        <time>2020-08-13T14:20:00Z</time>
      </trkpt>
      <trkpt lat="42.1711347532" lon="-7.6720460784">
        <ele>627.40</ele>
        <time>2020-08-13T14:20:10Z</time>
      </trkpt>
      <trkpt lat="42.1710894909" lon="-7.6727747172">
        <ele>627.40</ele>
        <time>2020-08-13T14:20:22Z</time>
      </trkpt>
      <trkpt lat="42.1710521914" lon="-7.6733197086">
        <ele>628.36</ele>
        <time>2020-08-13T14:20:30Z</time>
      </trkpt>
      <trkpt lat="42.1710050851" lon="-7.6739802025">
        <ele>629.32</ele>
        <time>2020-08-13T14:20:40Z</time>
      </trkpt>
      <trkpt lat="42.1709606610" lon="-7.6745520160">
        <ele>629.80</ele>
        <time>2020-08-13T14:20:49Z</time>
      </trkpt>
      <trkpt lat="42.1709223557" lon="-7.6752091572">
        <ele>629.32</ele>
        <time>2020-08-13T14:20:59Z</time>
      </trkpt>
      <trkpt lat="42.1708705556" lon="-7.6759588346">
        <ele>628.84</ele>
        <time>2020-08-13T14:21:10Z</time>
      </trkpt>
      <trkpt lat="42.1708265506" lon="-7.6766117848">
        <ele>628.84</ele>
        <time>2020-08-13T14:21:20Z</time>
      </trkpt>
      <trkpt lat="42.1707923524" lon="-7.6771411020">
        <ele>628.84</ele>
        <time>2020-08-13T14:21:29Z</time>
      </trkpt>
      <trkpt lat="42.1707373671" lon="-7.6778753567">
        <ele>627.88</ele>
        <time>2020-08-13T14:21:41Z</time>
      </trkpt>
      <trkpt lat="42.1706891712" lon="-7.6785891596">
        <ele>627.40</ele>
        <time>2020-08-13T14:21:52Z</time>
      </trkpt>
      <trkpt lat="42.1706504468" lon="-7.6791577041">
        <ele>627.40</ele>
        <time>2020-08-13T14:22:01Z</time>
      </trkpt>
      <trkpt lat="42.1706049331" lon="-7.6797451917">
        <ele>627.88</ele>
        <time>2020-08-13T14:22:11Z</time>
      </trkpt>
      <trkpt lat="42.1706023347" lon="-7.6797964890">
        <ele>627.88</ele>
        <time>2020-08-13T14:22:12Z</time>
      </trkpt>
      <trkpt lat="42.1705643646" lon="-7.6804071106">
        <ele>627.88</ele>
        <time>2020-08-13T14:22:23Z</time>
      </trkpt>
      <trkpt lat="42.1705167554" lon="-7.6810950134">
        <ele>627.40</ele>
        <time>2020-08-13T14:22:34Z</time>
      </trkpt>
      <trkpt lat="42.1704750974" lon="-7.6817204710">
        <ele>626.92</ele>
        <time>2020-08-13T14:22:44Z</time>
      </trkpt>
      <trkpt lat="42.1704361215" lon="-7.6822510455">
        <ele>627.88</ele>
        <time>2020-08-13T14:22:53Z</time>
      </trkpt>
      <trkpt lat="42.1703900211" lon="-7.6829175744">
        <ele>628.84</ele>
        <time>2020-08-13T14:23:04Z</time>
      </trkpt>
      <trkpt lat="42.1703417413" lon="-7.6836053934">
        <ele>628.84</ele>
        <time>2020-08-13T14:23:15Z</time>
      </trkpt>
      <trkpt lat="42.1703001671" lon="-7.6842423342">
        <ele>628.84</ele>
        <time>2020-08-13T14:23:25Z</time>
      </trkpt>
      <trkpt lat="42.1702555753" lon="-7.6848634332">
        <ele>628.84</ele>
        <time>2020-08-13T14:23:35Z</time>
      </trkpt>
      <trkpt lat="42.1702073794" lon="-7.6856142003">
        <ele>629.32</ele>
        <time>2020-08-13T14:23:47Z</time>
      </trkpt>
      <trkpt lat="42.1701614466" lon="-7.6861824933">
        <ele>629.32</ele>
        <time>2020-08-13T14:23:56Z</time>
      </trkpt>
      <trkpt lat="42.1701917890" lon="-7.6863747742">
        <ele>630.28</ele>
        <time>2020-08-13T14:24:00Z</time>
      </trkpt>
      <trkpt lat="42.1702246461" lon="-7.6863984950">
        <ele>630.28</ele>
        <time>2020-08-13T14:24:01Z</time>
      </trkpt>
      <trkpt lat="42.1702486183" lon="-7.6864063740">
        <ele>630.28</ele>
        <time>2020-08-13T14:24:02Z</time>
      </trkpt>
      <trkpt lat="42.1702815592" lon="-7.6864113193">
        <ele>630.76</ele>
        <time>2020-08-13T14:24:03Z</time>
      </trkpt>
      <trkpt lat="42.1703127399" lon="-7.6864090562">
        <ele>630.76</ele>
        <time>2020-08-13T14:24:04Z</time>
      </trkpt>
      <trkpt lat="42.1703431662" lon="-7.6864057872">
        <ele>630.76</ele>
        <time>2020-08-13T14:24:05Z</time>
      </trkpt>
      <trkpt lat="42.1703757718" lon="-7.6864088047">
        <ele>630.76</ele>
        <time>2020-08-13T14:24:06Z</time>
      </trkpt>
      <trkpt lat="42.1704117302" lon="-7.6864146721">
        <ele>631.24</ele>
        <time>2020-08-13T14:24:07Z</time>
      </trkpt>
      <trkpt lat="42.1707704756" lon="-7.6864775363">
        <ele>632.20</ele>
        <time>2020-08-13T14:24:16Z</time>
      </trkpt>
      <trkpt lat="42.1711660177" lon="-7.6865536440">
        <ele>632.20</ele>
        <time>2020-08-13T14:24:26Z</time>
      </trkpt>
      <trkpt lat="42.1715315524" lon="-7.6866182685">
        <ele>632.68</ele>
        <time>2020-08-13T14:24:36Z</time>
      </trkpt>
      <trkpt lat="42.1717208158" lon="-7.6866306737">
        <ele>633.17</ele>
        <time>2020-08-13T14:24:42Z</time>
      </trkpt>
      <trkpt lat="42.1720310301" lon="-7.6866807137">
        <ele>634.13</ele>
        <time>2020-08-13T14:24:50Z</time>
      </trkpt>
      <trkpt lat="42.1723448485" lon="-7.6867159177">
        <ele>634.61</ele>
        <time>2020-08-13T14:24:58Z</time>
      </trkpt>
      <trkpt lat="42.1726373769" lon="-7.6867590006">
        <ele>634.61</ele>
        <time>2020-08-13T14:25:06Z</time>
      </trkpt>
      <trkpt lat="42.1729639359" lon="-7.6868133154">
        <ele>635.57</ele>
        <time>2020-08-13T14:25:15Z</time>
      </trkpt>
      <trkpt lat="42.1733577177" lon="-7.6868689712">
        <ele>635.57</ele>
        <time>2020-08-13T14:25:26Z</time>
      </trkpt>
      <trkpt lat="42.1737665031" lon="-7.6869224478">
        <ele>635.09</ele>
        <time>2020-08-13T14:25:37Z</time>
      </trkpt>
      <trkpt lat="42.1741663199" lon="-7.6869795285">
        <ele>635.09</ele>
        <time>2020-08-13T14:25:48Z</time>
      </trkpt>
      <trkpt lat="42.1745833196" lon="-7.6870418899">
        <ele>635.57</ele>
        <time>2020-08-13T14:26:00Z</time>
      </trkpt>
      <trkpt lat="42.1748817153" lon="-7.6870872360">
        <ele>636.05</ele>
        <time>2020-08-13T14:26:10Z</time>
      </trkpt>
      <trkpt lat="42.1751766745" lon="-7.6871319953">
        <ele>637.49</ele>
        <time>2020-08-13T14:26:20Z</time>
      </trkpt>
      <trkpt lat="42.1754172351" lon="-7.6871680375">
        <ele>638.45</ele>
        <time>2020-08-13T14:26:29Z</time>
      </trkpt>
      <trkpt lat="42.1756931674" lon="-7.6872069295">
        <ele>639.41</ele>
        <time>2020-08-13T14:26:40Z</time>
      </trkpt>
      <trkpt lat="42.1759093367" lon="-7.6872397866">
        <ele>639.89</ele>
        <time>2020-08-13T14:26:49Z</time>
      </trkpt>
      <trkpt lat="42.1761164535" lon="-7.6872692909">
        <ele>640.38</ele>
        <time>2020-08-13T14:26:58Z</time>
      </trkpt>
      <trkpt lat="42.1762819961" lon="-7.6872979570">
        <ele>641.34</ele>
        <time>2020-08-13T14:27:05Z</time>
      </trkpt>
      <trkpt lat="42.1764529031" lon="-7.6873204205">
        <ele>642.30</ele>
        <time>2020-08-13T14:27:13Z</time>
      </trkpt>
      <trkpt lat="42.1767556574" lon="-7.6873707119">
        <ele>643.74</ele>
        <time>2020-08-13T14:27:25Z</time>
      </trkpt>
      <trkpt lat="42.1770097967" lon="-7.6874041557">
        <ele>645.18</ele>
        <time>2020-08-13T14:27:35Z</time>
      </trkpt>
      <trkpt lat="42.1772491001" lon="-7.6874375995">
        <ele>644.70</ele>
        <time>2020-08-13T14:27:44Z</time>
      </trkpt>
      <trkpt lat="42.1774982102" lon="-7.6874759048">
        <ele>646.14</ele>
        <time>2020-08-13T14:27:54Z</time>
      </trkpt>
      <trkpt lat="42.1776895691" lon="-7.6875496656">
        <ele>648.07</ele>
        <time>2020-08-13T14:28:03Z</time>
      </trkpt>
      <trkpt lat="42.1777703706" lon="-7.6876634080">
        <ele>648.55</ele>
        <time>2020-08-13T14:28:09Z</time>
      </trkpt>
      <trkpt lat="42.1777764894" lon="-7.6876864582">
        <ele>648.55</ele>
        <time>2020-08-13T14:28:10Z</time>
      </trkpt>
      <trkpt lat="42.1778745577" lon="-7.6879374962">
        <ele>649.51</ele>
        <time>2020-08-13T14:28:20Z</time>
      </trkpt>
      <trkpt lat="42.1779759787" lon="-7.6882009394">
        <ele>650.95</ele>
        <time>2020-08-13T14:28:31Z</time>
      </trkpt>
      <trkpt lat="42.1780809201" lon="-7.6884090621">
        <ele>652.39</ele>
        <time>2020-08-13T14:28:40Z</time>
      </trkpt>
      <trkpt lat="42.1781929024" lon="-7.6886488684">
        <ele>653.83</ele>
        <time>2020-08-13T14:28:50Z</time>
      </trkpt>
      <trkpt lat="42.1782948263" lon="-7.6888405625">
        <ele>653.83</ele>
        <time>2020-08-13T14:28:59Z</time>
      </trkpt>
      <trkpt lat="42.1783806570" lon="-7.6889976393">
        <ele>655.28</ele>
        <time>2020-08-13T14:29:07Z</time>
      </trkpt>
      <trkpt lat="42.1783990972" lon="-7.6890346035">
        <ele>655.76</ele>
        <time>2020-08-13T14:29:09Z</time>
      </trkpt>
      <trkpt lat="42.1784044616" lon="-7.6892215200">
        <ele>656.24</ele>
        <time>2020-08-13T14:29:17Z</time>
      </trkpt>
      <trkpt lat="42.1783454530" lon="-7.6894711331">
        <ele>657.20</ele>
        <time>2020-08-13T14:29:27Z</time>
      </trkpt>
      <trkpt lat="42.1782961674" lon="-7.6896695327">
        <ele>658.16</ele>
        <time>2020-08-13T14:29:35Z</time>
      </trkpt>
      <trkpt lat="42.1782561019" lon="-7.6898828521">
        <ele>660.08</ele>
        <time>2020-08-13T14:29:44Z</time>
      </trkpt>
      <trkpt lat="42.1782165393" lon="-7.6900965068">
        <ele>661.04</ele>
        <time>2020-08-13T14:29:52Z</time>
      </trkpt>
      <trkpt lat="42.1781683434" lon="-7.6903472096">
        <ele>660.56</ele>
        <time>2020-08-13T14:30:02Z</time>
      </trkpt>
      <trkpt lat="42.1781199798" lon="-7.6905609481">
        <ele>662.97</ele>
        <time>2020-08-13T14:30:11Z</time>
      </trkpt>
      <trkpt lat="42.1780835185" lon="-7.6907360461">
        <ele>663.93</ele>
        <time>2020-08-13T14:30:18Z</time>
      </trkpt>
      <trkpt lat="42.1780481469" lon="-7.6909199450">
        <ele>663.93</ele>
        <time>2020-08-13T14:30:25Z</time>
      </trkpt>
      <trkpt lat="42.1780138649" lon="-7.6911952067">
        <ele>662.49</ele>
        <time>2020-08-13T14:30:35Z</time>
      </trkpt>
      <trkpt lat="42.1779475641" lon="-7.6915085223">
        <ele>662.49</ele>
        <time>2020-08-13T14:30:46Z</time>
      </trkpt>
      <trkpt lat="42.1778990328" lon="-7.6917650085">
        <ele>662.97</ele>
        <time>2020-08-13T14:30:55Z</time>
      </trkpt>
      <trkpt lat="42.1778436285" lon="-7.6920536812">
        <ele>662.97</ele>
        <time>2020-08-13T14:31:04Z</time>
      </trkpt>
      <trkpt lat="42.1778116096" lon="-7.6922666654">
        <ele>664.41</ele>
        <time>2020-08-13T14:31:12Z</time>
      </trkpt>
      <trkpt lat="42.1778064966" lon="-7.6925185416">
        <ele>667.77</ele>
        <time>2020-08-13T14:31:21Z</time>
      </trkpt>
      <trkpt lat="42.1778028924" lon="-7.6927771233">
        <ele>670.18</ele>
        <time>2020-08-13T14:31:30Z</time>
      </trkpt>
      <trkpt lat="42.1778125316" lon="-7.6929326076">
        <ele>670.18</ele>
        <time>2020-08-13T14:31:35Z</time>
      </trkpt>
      <trkpt lat="42.1778303850" lon="-7.6931484416">
        <ele>670.18</ele>
        <time>2020-08-13T14:31:41Z</time>
      </trkpt>
      <trkpt lat="42.1778613143" lon="-7.6934693847">
        <ele>668.73</ele>
        <time>2020-08-13T14:31:49Z</time>
      </trkpt>
      <trkpt lat="42.1778949257" lon="-7.6938273758">
        <ele>667.29</ele>
        <time>2020-08-13T14:31:57Z</time>
      </trkpt>
      <trkpt lat="42.1779283695" lon="-7.6941429544">
        <ele>666.81</ele>
        <time>2020-08-13T14:32:04Z</time>
      </trkpt>
      <trkpt lat="42.1779676806" lon="-7.6945794839">
        <ele>666.33</ele>
        <time>2020-08-13T14:32:14Z</time>
      </trkpt>
      <trkpt lat="42.1779360808" lon="-7.6948985830">
        <ele>666.33</ele>
        <time>2020-08-13T14:32:22Z</time>
      </trkpt>
      <trkpt lat="42.1778535191" lon="-7.6951915305">
        <ele>666.81</ele>
        <time>2020-08-13T14:32:30Z</time>
      </trkpt>
      <trkpt lat="42.1777498350" lon="-7.6954047661">
        <ele>667.77</ele>
        <time>2020-08-13T14:32:37Z</time>
      </trkpt>
      <trkpt lat="42.1775879804" lon="-7.6955760084">
        <ele>670.66</ele>
        <time>2020-08-13T14:32:47Z</time>
      </trkpt>
      <trkpt lat="42.1774635091" lon="-7.6956622582">
        <ele>672.10</ele>
        <time>2020-08-13T14:32:54Z</time>
      </trkpt>
      <trkpt lat="42.1772891656" lon="-7.6958004758">
        <ele>674.02</ele>
        <time>2020-08-13T14:33:04Z</time>
      </trkpt>
      <trkpt lat="42.1772247925" lon="-7.6958671957">
        <ele>674.50</ele>
        <time>2020-08-13T14:33:10Z</time>
      </trkpt>
      <trkpt lat="42.1771380398" lon="-7.6960097719">
        <ele>675.94</ele>
        <time>2020-08-13T14:33:18Z</time>
      </trkpt>
      <trkpt lat="42.1770779416" lon="-7.6962073334">
        <ele>676.91</ele>
        <time>2020-08-13T14:33:27Z</time>
      </trkpt>
      <trkpt lat="42.1770148259" lon="-7.6964269392">
        <ele>678.35</ele>
        <time>2020-08-13T14:33:37Z</time>
      </trkpt>
      <trkpt lat="42.1769383829" lon="-7.6966901310">
        <ele>680.27</ele>
        <time>2020-08-13T14:33:49Z</time>
      </trkpt>
      <trkpt lat="42.1768797934" lon="-7.6968729403">
        <ele>681.71</ele>
        <time>2020-08-13T14:33:57Z</time>
      </trkpt>
      <trkpt lat="42.1768435836" lon="-7.6969985012">
        <ele>682.67</ele>
        <time>2020-08-13T14:34:04Z</time>
      </trkpt>
      <trkpt lat="42.1767972317" lon="-7.6971677318">
        <ele>683.15</ele>
        <time>2020-08-13T14:34:14Z</time>
      </trkpt>
      <trkpt lat="42.1767466050" lon="-7.6973246410">
        <ele>684.12</ele>
        <time>2020-08-13T14:34:21Z</time>
      </trkpt>
      <trkpt lat="42.1767346188" lon="-7.6973834820">
        <ele>684.12</ele>
        <time>2020-08-13T14:34:27Z</time>
      </trkpt>
      <trkpt lat="42.1767403185" lon="-7.6973938756">
        <ele>685.08</ele>
        <time>2020-08-13T14:34:43Z</time>
      </trkpt>
      <trkpt lat="42.1767423302" lon="-7.6973869186">
        <ele>684.60</ele>
        <time>2020-08-13T14:34:57Z</time>
      </trkpt>
      <trkpt lat="42.1767278295" lon="-7.6973851584">
        <ele>682.67</ele>
        <time>2020-08-13T14:35:14Z</time>
      </trkpt>
      <trkpt lat="42.1767183580" lon="-7.6974442508">
        <ele>683.15</ele>
        <time>2020-08-13T14:35:22Z</time>
      </trkpt>
      <trkpt lat="42.1766496263" lon="-7.6976379566">
        <ele>684.12</ele>
        <time>2020-08-13T14:35:30Z</time>
      </trkpt>
      <trkpt lat="42.1766010951" lon="-7.6978195086">
        <ele>685.56</ele>
        <time>2020-08-13T14:35:37Z</time>
      </trkpt>
      <trkpt lat="42.1765324473" lon="-7.6980267931">
        <ele>685.56</ele>
        <time>2020-08-13T14:35:45Z</time>
      </trkpt>
      <trkpt lat="42.1764626261" lon="-7.6982439682">
        <ele>686.52</ele>
        <time>2020-08-13T14:35:54Z</time>
      </trkpt>
      <trkpt lat="42.1763814893" lon="-7.6985002868">
        <ele>687.96</ele>
        <time>2020-08-13T14:36:04Z</time>
      </trkpt>
      <trkpt lat="42.1763210557" lon="-7.6986885443">
        <ele>688.44</ele>
        <time>2020-08-13T14:36:12Z</time>
      </trkpt>
      <trkpt lat="42.1762707643" lon="-7.6988538355">
        <ele>689.40</ele>
        <time>2020-08-13T14:36:19Z</time>
      </trkpt>
      <trkpt lat="42.1762069780" lon="-7.6990524866">
        <ele>690.84</ele>
        <time>2020-08-13T14:36:27Z</time>
      </trkpt>
      <trkpt lat="42.1761477180" lon="-7.6992397383">
        <ele>691.81</ele>
        <time>2020-08-13T14:36:35Z</time>
      </trkpt>
      <trkpt lat="42.1760783996" lon="-7.6994580869">
        <ele>692.77</ele>
        <time>2020-08-13T14:36:44Z</time>
      </trkpt>
      <trkpt lat="42.1760114282" lon="-7.6996772736">
        <ele>693.25</ele>
        <time>2020-08-13T14:36:52Z</time>
      </trkpt>
      <trkpt lat="42.1759462170" lon="-7.6999060996">
        <ele>694.69</ele>
        <time>2020-08-13T14:37:00Z</time>
      </trkpt>
      <trkpt lat="42.1758945845" lon="-7.7002659347">
        <ele>693.25</ele>
        <time>2020-08-13T14:37:09Z</time>
      </trkpt>
      <trkpt lat="42.1758509148" lon="-7.7007081639">
        <ele>689.40</ele>
        <time>2020-08-13T14:37:15Z</time>
      </trkpt>
      <trkpt lat="42.1757966839" lon="-7.7012739424">
        <ele>684.60</ele>
        <time>2020-08-13T14:37:20Z</time>
      </trkpt>
      <trkpt lat="42.1756863780" lon="-7.7023722231">
        <ele>676.91</ele>
        <time>2020-08-13T14:37:28Z</time>
      </trkpt>
      <trkpt lat="42.1756349970" lon="-7.7035113238">
        <ele>671.62</ele>
        <time>2020-08-13T14:37:36Z</time>
      </trkpt>
      <trkpt lat="42.1756650042" lon="-7.7046279609">
        <ele>666.33</ele>
        <time>2020-08-13T14:37:44Z</time>
      </trkpt>
      <trkpt lat="42.1757900622" lon="-7.7055903710">
        <ele>662.97</ele>
        <time>2020-08-13T14:37:51Z</time>
      </trkpt>
      <trkpt lat="42.1757955104" lon="-7.7057068795">
        <ele>662.97</ele>
        <time>2020-08-13T14:37:52Z</time>
      </trkpt>
      <trkpt lat="42.1757918224" lon="-7.7058136649">
        <ele>662.49</ele>
        <time>2020-08-13T14:37:53Z</time>
      </trkpt>
      <trkpt lat="42.1757801715" lon="-7.7059176844">
        <ele>662.49</ele>
        <time>2020-08-13T14:37:54Z</time>
      </trkpt>
      <trkpt lat="42.1756619029" lon="-7.7064405475">
        <ele>662.97</ele>
        <time>2020-08-13T14:38:00Z</time>
      </trkpt>
      <trkpt lat="42.1756435465" lon="-7.7066390309">
        <ele>663.45</ele>
        <time>2020-08-13T14:38:04Z</time>
      </trkpt>
      <trkpt lat="42.1757359151" lon="-7.7068290487">
        <ele>664.41</ele>
        <time>2020-08-13T14:38:10Z</time>
      </trkpt>
      <trkpt lat="42.1759496536" lon="-7.7070891391">
        <ele>666.81</ele>
        <time>2020-08-13T14:38:20Z</time>
      </trkpt>
      <trkpt lat="42.1761566866" lon="-7.7073019557">
        <ele>669.22</ele>
        <time>2020-08-13T14:38:30Z</time>
      </trkpt>
      <trkpt lat="42.1763550863" lon="-7.7075327933">
        <ele>671.62</ele>
        <time>2020-08-13T14:38:40Z</time>
      </trkpt>
      <trkpt lat="42.1764956508" lon="-7.7077328693">
        <ele>674.02</ele>
        <time>2020-08-13T14:38:49Z</time>
      </trkpt>
      <trkpt lat="42.1765674837" lon="-7.7078940533">
        <ele>674.02</ele>
        <time>2020-08-13T14:38:56Z</time>
      </trkpt>
      <trkpt lat="42.1766447648" lon="-7.7080963086">
        <ele>674.98</ele>
        <time>2020-08-13T14:39:05Z</time>
      </trkpt>
      <trkpt lat="42.1767310146" lon="-7.7083361987">
        <ele>675.46</ele>
        <time>2020-08-13T14:39:16Z</time>
      </trkpt>
      <trkpt lat="42.1768240537" lon="-7.7085892484">
        <ele>676.42</ele>
        <time>2020-08-13T14:39:27Z</time>
      </trkpt>
      <trkpt lat="42.1769257262" lon="-7.7088609897">
        <ele>677.87</ele>
        <time>2020-08-13T14:39:39Z</time>
      </trkpt>
      <trkpt lat="42.1770027559" lon="-7.7090585511">
        <ele>678.83</ele>
        <time>2020-08-13T14:39:48Z</time>
      </trkpt>
      <trkpt lat="42.1770564839" lon="-7.7092318889">
        <ele>679.79</ele>
        <time>2020-08-13T14:39:56Z</time>
      </trkpt>
      <trkpt lat="42.1771177556" lon="-7.7094042208">
        <ele>680.27</ele>
        <time>2020-08-13T14:40:04Z</time>
      </trkpt>
      <trkpt lat="42.1771707293" lon="-7.7095726132">
        <ele>681.23</ele>
        <time>2020-08-13T14:40:12Z</time>
      </trkpt>
      <trkpt lat="42.1772298217" lon="-7.7097467054">
        <ele>682.67</ele>
        <time>2020-08-13T14:40:20Z</time>
      </trkpt>
      <trkpt lat="42.1772988886" lon="-7.7099445183">
        <ele>684.12</ele>
        <time>2020-08-13T14:40:29Z</time>
      </trkpt>
      <trkpt lat="42.1773553826" lon="-7.7101893537">
        <ele>685.56</ele>
        <time>2020-08-13T14:40:39Z</time>
      </trkpt>
      <trkpt lat="42.1774068475" lon="-7.7104296628">
        <ele>687.00</ele>
        <time>2020-08-13T14:40:50Z</time>
      </trkpt>
      <trkpt lat="42.1774542890" lon="-7.7106106281">
        <ele>688.44</ele>
        <time>2020-08-13T14:40:59Z</time>
      </trkpt>
      <trkpt lat="42.1775406227" lon="-7.7108255401">
        <ele>688.44</ele>
        <time>2020-08-13T14:41:09Z</time>
      </trkpt>
      <trkpt lat="42.1776686143" lon="-7.7109818626">
        <ele>689.40</ele>
        <time>2020-08-13T14:41:18Z</time>
      </trkpt>
      <trkpt lat="42.1778516751" lon="-7.7111344971">
        <ele>689.88</ele>
        <time>2020-08-13T14:41:28Z</time>
      </trkpt>
      <trkpt lat="42.1780856140" lon="-7.7112966869">
        <ele>689.88</ele>
        <time>2020-08-13T14:41:37Z</time>
      </trkpt>
      <trkpt lat="42.1782324649" lon="-7.7114309650">
        <ele>690.36</ele>
        <time>2020-08-13T14:41:44Z</time>
      </trkpt>
      <trkpt lat="42.1783817466" lon="-7.7116410993">
        <ele>689.88</ele>
        <time>2020-08-13T14:41:51Z</time>
      </trkpt>
      <trkpt lat="42.1786007658" lon="-7.7120443527">
        <ele>687.96</ele>
        <time>2020-08-13T14:42:00Z</time>
      </trkpt>
      <trkpt lat="42.1788709983" lon="-7.7125270665">
        <ele>686.04</ele>
        <time>2020-08-13T14:42:08Z</time>
      </trkpt>
      <trkpt lat="42.1792338509" lon="-7.7130556293">
        <ele>682.67</ele>
        <time>2020-08-13T14:42:15Z</time>
      </trkpt>
      <trkpt lat="42.1796483360" lon="-7.7137615532">
        <ele>680.27</ele>
        <time>2020-08-13T14:42:23Z</time>
      </trkpt>
      <trkpt lat="42.1799147129" lon="-7.7142492123">
        <ele>680.27</ele>
        <time>2020-08-13T14:42:30Z</time>
      </trkpt>
      <trkpt lat="42.1800286230" lon="-7.7144816425">
        <ele>681.71</ele>
        <time>2020-08-13T14:42:36Z</time>
      </trkpt>
      <trkpt lat="42.1801741328" lon="-7.7147380449">
        <ele>682.19</ele>
        <time>2020-08-13T14:42:43Z</time>
      </trkpt>
      <trkpt lat="42.1804089099" lon="-7.7150058467">
        <ele>682.67</ele>
        <time>2020-08-13T14:42:52Z</time>
      </trkpt>
      <trkpt lat="42.1805827506" lon="-7.7151468303">
        <ele>682.19</ele>
        <time>2020-08-13T14:42:57Z</time>
      </trkpt>
      <trkpt lat="42.1809467766" lon="-7.7154265344">
        <ele>682.67</ele>
        <time>2020-08-13T14:43:07Z</time>
      </trkpt>
      <trkpt lat="42.1813470125" lon="-7.7156398539">
        <ele>680.75</ele>
        <time>2020-08-13T14:43:17Z</time>
      </trkpt>
      <trkpt lat="42.1817928459" lon="-7.7159121819">
        <ele>680.75</ele>
        <time>2020-08-13T14:43:28Z</time>
      </trkpt>
      <trkpt lat="42.1822324768" lon="-7.7161679137">
        <ele>678.83</ele>
        <time>2020-08-13T14:43:39Z</time>
      </trkpt>
      <trkpt lat="42.1825513244" lon="-7.7163000125">
        <ele>679.31</ele>
        <time>2020-08-13T14:43:46Z</time>
      </trkpt>
      <trkpt lat="42.1830066293" lon="-7.7163931355">
        <ele>679.79</ele>
        <time>2020-08-13T14:43:56Z</time>
      </trkpt>
      <trkpt lat="42.1834728308" lon="-7.7165024355">
        <ele>680.27</ele>
        <time>2020-08-13T14:44:07Z</time>
      </trkpt>
      <trkpt lat="42.1837888286" lon="-7.7167508751">
        <ele>681.23</ele>
        <time>2020-08-13T14:44:16Z</time>
      </trkpt>
      <trkpt lat="42.1840117034" lon="-7.7170385420">
        <ele>682.19</ele>
        <time>2020-08-13T14:44:24Z</time>
      </trkpt>
      <trkpt lat="42.1840713825" lon="-7.7172038332">
        <ele>682.67</ele>
        <time>2020-08-13T14:44:31Z</time>
      </trkpt>
      <trkpt lat="42.1841391083" lon="-7.7174447291">
        <ele>681.71</ele>
        <time>2020-08-13T14:44:39Z</time>
      </trkpt>
      <trkpt lat="42.1842030622" lon="-7.7176968567">
        <ele>680.75</ele>
        <time>2020-08-13T14:44:45Z</time>
      </trkpt>
      <trkpt lat="42.1842950117" lon="-7.7179571986">
        <ele>679.79</ele>
        <time>2020-08-13T14:44:54Z</time>
      </trkpt>
      <trkpt lat="42.1842921618" lon="-7.7179698553">
        <ele>681.23</ele>
        <time>2020-08-13T14:45:01Z</time>
      </trkpt>
      <trkpt lat="42.1842922457" lon="-7.7180074062">
        <ele>681.23</ele>
        <time>2020-08-13T14:45:13Z</time>
      </trkpt>
      <trkpt lat="42.1842710394" lon="-7.7179858647">
        <ele>680.75</ele>
        <time>2020-08-13T14:45:29Z</time>
      </trkpt>
      <trkpt lat="42.1842883062" lon="-7.7180059813">
        <ele>679.79</ele>
        <time>2020-08-13T14:45:46Z</time>
      </trkpt>
      <trkpt lat="42.1842915751" lon="-7.7180050593">
        <ele>678.83</ele>
        <time>2020-08-13T14:46:00Z</time>
      </trkpt>
      <trkpt lat="42.1842963528" lon="-7.7180027962">
        <ele>679.79</ele>
        <time>2020-08-13T14:46:17Z</time>
      </trkpt>
      <trkpt lat="42.1842940897" lon="-7.7180106752">
        <ele>679.79</ele>
        <time>2020-08-13T14:46:33Z</time>
      </trkpt>
      <trkpt lat="42.1843017172" lon="-7.7179878764">
        <ele>681.71</ele>
        <time>2020-08-13T14:46:50Z</time>
      </trkpt>
      <trkpt lat="42.1842957661" lon="-7.7179898880">
        <ele>682.67</ele>
        <time>2020-08-13T14:47:04Z</time>
      </trkpt>
      <trkpt lat="42.1842941735" lon="-7.7179941628">
        <ele>681.23</ele>
        <time>2020-08-13T14:47:15Z</time>
      </trkpt>
      <trkpt lat="42.1842920780" lon="-7.7180055622">
        <ele>680.75</ele>
        <time>2020-08-13T14:47:16Z</time>
      </trkpt>
      <trkpt lat="42.1842888929" lon="-7.7180264331">
        <ele>680.75</ele>
        <time>2020-08-13T14:47:17Z</time>
      </trkpt>
      <trkpt lat="42.1842847019" lon="-7.7180530038">
        <ele>680.75</ele>
        <time>2020-08-13T14:47:18Z</time>
      </trkpt>
      <trkpt lat="42.1842844505" lon="-7.7180837654">
        <ele>680.27</ele>
        <time>2020-08-13T14:47:19Z</time>
      </trkpt>
      <trkpt lat="42.1842878032" lon="-7.7181118447">
        <ele>680.27</ele>
        <time>2020-08-13T14:47:20Z</time>
      </trkpt>
      <trkpt lat="42.1842947602" lon="-7.7181414329">
        <ele>680.27</ele>
        <time>2020-08-13T14:47:21Z</time>
      </trkpt>
      <trkpt lat="42.1843059920" lon="-7.7181737870">
        <ele>679.79</ele>
        <time>2020-08-13T14:47:22Z</time>
      </trkpt>
      <trkpt lat="42.1843183972" lon="-7.7182113379">
        <ele>679.79</ele>
        <time>2020-08-13T14:47:23Z</time>
      </trkpt>
      <trkpt lat="42.1843809262" lon="-7.7183311991">
        <ele>679.31</ele>
        <time>2020-08-13T14:47:26Z</time>
      </trkpt>
      <trkpt lat="42.1844116040" lon="-7.7183631342">
        <ele>679.31</ele>
        <time>2020-08-13T14:47:27Z</time>
      </trkpt>
      <trkpt lat="42.1844509989" lon="-7.7183944825">
        <ele>679.31</ele>
        <time>2020-08-13T14:47:28Z</time>
      </trkpt>
      <trkpt lat="42.1848073136" lon="-7.7186297625">
        <ele>677.39</ele>
        <time>2020-08-13T14:47:36Z</time>
      </trkpt>
      <trkpt lat="42.1851379797" lon="-7.7190316748">
        <ele>674.98</ele>
        <time>2020-08-13T14:47:44Z</time>
      </trkpt>
      <trkpt lat="42.1854278259" lon="-7.7194011491">
        <ele>673.06</ele>
        <time>2020-08-13T14:47:51Z</time>
      </trkpt>
      <trkpt lat="42.1857741661" lon="-7.7198512573">
        <ele>671.14</ele>
        <time>2020-08-13T14:48:00Z</time>
      </trkpt>
      <trkpt lat="42.1861462388" lon="-7.7203383297">
        <ele>670.66</ele>
        <time>2020-08-13T14:48:10Z</time>
      </trkpt>
      <trkpt lat="42.1864315588" lon="-7.7207251545">
        <ele>669.70</ele>
        <time>2020-08-13T14:48:18Z</time>
      </trkpt>
      <trkpt lat="42.1867298707" lon="-7.7211323474">
        <ele>668.73</ele>
        <time>2020-08-13T14:48:27Z</time>
      </trkpt>
      <trkpt lat="42.1870516520" lon="-7.7214321680">
        <ele>669.70</ele>
        <time>2020-08-13T14:48:35Z</time>
      </trkpt>
      <trkpt lat="42.1871272568" lon="-7.7214701381">
        <ele>669.70</ele>
        <time>2020-08-13T14:48:37Z</time>
      </trkpt>
      <trkpt lat="42.1872109082" lon="-7.7214895841">
        <ele>669.70</ele>
        <time>2020-08-13T14:48:38Z</time>
      </trkpt>
      <trkpt lat="42.1876204479" lon="-7.7217065077">
        <ele>668.25</ele>
        <time>2020-08-13T14:48:46Z</time>
      </trkpt>
      <trkpt lat="42.1876618546" lon="-7.7217525244">
        <ele>668.73</ele>
        <time>2020-08-13T14:48:47Z</time>
      </trkpt>
      <trkpt lat="42.1878971346" lon="-7.7221182268">
        <ele>668.25</ele>
        <time>2020-08-13T14:48:53Z</time>
      </trkpt>
      <trkpt lat="42.1882006433" lon="-7.7226405870">
        <ele>667.77</ele>
        <time>2020-08-13T14:49:01Z</time>
      </trkpt>
      <trkpt lat="42.1884561237" lon="-7.7230032720">
        <ele>668.25</ele>
        <time>2020-08-13T14:49:09Z</time>
      </trkpt>
      <trkpt lat="42.1885363385" lon="-7.7230745181">
        <ele>668.73</ele>
        <time>2020-08-13T14:49:11Z</time>
      </trkpt>
      <trkpt lat="42.1885837801" lon="-7.7231068723">
        <ele>668.73</ele>
        <time>2020-08-13T14:49:12Z</time>
      </trkpt>
      <trkpt lat="42.1888368297" lon="-7.7232059464">
        <ele>667.77</ele>
        <time>2020-08-13T14:49:17Z</time>
      </trkpt>
      <trkpt lat="42.1894169413" lon="-7.7232151665">
        <ele>666.33</ele>
        <time>2020-08-13T14:49:27Z</time>
      </trkpt>
      <trkpt lat="42.1896824799" lon="-7.7231948823">
        <ele>664.41</ele>
        <time>2020-08-13T14:49:31Z</time>
      </trkpt>
      <trkpt lat="42.1897498704" lon="-7.7231774479">
        <ele>663.93</ele>
        <time>2020-08-13T14:49:32Z</time>
      </trkpt>
      <trkpt lat="42.1898170933" lon="-7.7231544815">
        <ele>663.45</ele>
        <time>2020-08-13T14:49:33Z</time>
      </trkpt>
      <trkpt lat="42.1898821369" lon="-7.7231188584">
        <ele>663.45</ele>
        <time>2020-08-13T14:49:34Z</time>
      </trkpt>
      <trkpt lat="42.1899444982" lon="-7.7230708301">
        <ele>662.97</ele>
        <time>2020-08-13T14:49:35Z</time>
      </trkpt>
      <trkpt lat="42.1900000703" lon="-7.7230165992">
        <ele>662.49</ele>
        <time>2020-08-13T14:49:36Z</time>
      </trkpt>
      <trkpt lat="42.1900532115" lon="-7.7229549084">
        <ele>661.52</ele>
        <time>2020-08-13T14:49:37Z</time>
      </trkpt>
      <trkpt lat="42.1901048440" lon="-7.7228876855">
        <ele>661.04</ele>
        <time>2020-08-13T14:49:38Z</time>
      </trkpt>
      <trkpt lat="42.1901567280" lon="-7.7228154335">
        <ele>660.56</ele>
        <time>2020-08-13T14:49:39Z</time>
      </trkpt>
      <trkpt lat="42.1904640924" lon="-7.7224115096">
        <ele>657.68</ele>
        <time>2020-08-13T14:49:45Z</time>
      </trkpt>
      <trkpt lat="42.1905167308" lon="-7.7223692648">
        <ele>657.20</ele>
        <time>2020-08-13T14:49:46Z</time>
      </trkpt>
      <trkpt lat="42.1906424593" lon="-7.7222928219">
        <ele>656.72</ele>
        <time>2020-08-13T14:49:50Z</time>
      </trkpt>
      <trkpt lat="42.1908434574" lon="-7.7223043051">
        <ele>656.24</ele>
        <time>2020-08-13T14:49:56Z</time>
      </trkpt>
      <trkpt lat="42.1912531648" lon="-7.7223941591">
        <ele>655.76</ele>
        <time>2020-08-13T14:50:04Z</time>
      </trkpt>
      <trkpt lat="42.1916396543" lon="-7.7225102484">
        <ele>655.28</ele>
        <time>2020-08-13T14:50:11Z</time>
      </trkpt>
      <trkpt lat="42.1916951425" lon="-7.7225478832">
        <ele>655.28</ele>
        <time>2020-08-13T14:50:12Z</time>
      </trkpt>
      <trkpt lat="42.1917456016" lon="-7.7225895412">
        <ele>654.80</ele>
        <time>2020-08-13T14:50:13Z</time>
      </trkpt>
      <trkpt lat="42.1920925286" lon="-7.7229657210">
        <ele>652.39</ele>
        <time>2020-08-13T14:50:20Z</time>
      </trkpt>
      <trkpt lat="42.1925454028" lon="-7.7234822139">
        <ele>649.99</ele>
        <time>2020-08-13T14:50:28Z</time>
      </trkpt>
      <trkpt lat="42.1928246040" lon="-7.7237155661">
        <ele>648.07</ele>
        <time>2020-08-13T14:50:32Z</time>
      </trkpt>
      <trkpt lat="42.1929002926" lon="-7.7237498481">
        <ele>647.59</ele>
        <time>2020-08-13T14:50:33Z</time>
      </trkpt>
      <trkpt lat="42.1929809265" lon="-7.7237723116">
        <ele>647.10</ele>
        <time>2020-08-13T14:50:34Z</time>
      </trkpt>
      <trkpt lat="42.1930722892" lon="-7.7237885725">
        <ele>646.62</ele>
        <time>2020-08-13T14:50:35Z</time>
      </trkpt>
      <trkpt lat="42.1931550186" lon="-7.7237970382">
        <ele>645.66</ele>
        <time>2020-08-13T14:50:36Z</time>
      </trkpt>
      <trkpt lat="42.1936991718" lon="-7.7238908317">
        <ele>642.30</ele>
        <time>2020-08-13T14:50:42Z</time>
      </trkpt>
      <trkpt lat="42.1937821526" lon="-7.7239315677">
        <ele>641.82</ele>
        <time>2020-08-13T14:50:43Z</time>
      </trkpt>
      <trkpt lat="42.1943869069" lon="-7.7243263554">
        <ele>637.01</ele>
        <time>2020-08-13T14:50:50Z</time>
      </trkpt>
      <trkpt lat="42.1948604845" lon="-7.7246695105">
        <ele>632.20</ele>
        <time>2020-08-13T14:50:56Z</time>
      </trkpt>
      <trkpt lat="42.1949251927" lon="-7.7247482166">
        <ele>631.72</ele>
        <time>2020-08-13T14:50:57Z</time>
      </trkpt>
      <trkpt lat="42.1949744783" lon="-7.7248306945">
        <ele>630.76</ele>
        <time>2020-08-13T14:50:58Z</time>
      </trkpt>
      <trkpt lat="42.1950182319" lon="-7.7249342110">
        <ele>630.28</ele>
        <time>2020-08-13T14:50:59Z</time>
      </trkpt>
      <trkpt lat="42.1950597223" lon="-7.7250557486">
        <ele>629.32</ele>
        <time>2020-08-13T14:51:00Z</time>
      </trkpt>
      <trkpt lat="42.1950907353" lon="-7.7251646295">
        <ele>628.36</ele>
        <time>2020-08-13T14:51:01Z</time>
      </trkpt>
      <trkpt lat="42.1951192338" lon="-7.7252850775">
        <ele>627.40</ele>
        <time>2020-08-13T14:51:02Z</time>
      </trkpt>
      <trkpt lat="42.1952891350" lon="-7.7260617446">
        <ele>621.63</ele>
        <time>2020-08-13T14:51:09Z</time>
      </trkpt>
      <trkpt lat="42.1953441203" lon="-7.7267438639">
        <ele>615.86</ele>
        <time>2020-08-13T14:51:15Z</time>
      </trkpt>
      <trkpt lat="42.1952986903" lon="-7.7275386360">
        <ele>612.50</ele>
        <time>2020-08-13T14:51:22Z</time>
      </trkpt>
      <trkpt lat="42.1952582896" lon="-7.7281438094">
        <ele>610.57</ele>
        <time>2020-08-13T14:51:29Z</time>
      </trkpt>
      <trkpt lat="42.1952610556" lon="-7.7283247747">
        <ele>610.57</ele>
        <time>2020-08-13T14:51:31Z</time>
      </trkpt>
      <trkpt lat="42.1952704433" lon="-7.7283980325">
        <ele>610.09</ele>
        <time>2020-08-13T14:51:32Z</time>
      </trkpt>
      <trkpt lat="42.1952857822" lon="-7.7284738049">
        <ele>610.09</ele>
        <time>2020-08-13T14:51:33Z</time>
      </trkpt>
      <trkpt lat="42.1953064017" lon="-7.7285499126">
        <ele>610.09</ele>
        <time>2020-08-13T14:51:34Z</time>
      </trkpt>
      <trkpt lat="42.1953316312" lon="-7.7286219131">
        <ele>609.61</ele>
        <time>2020-08-13T14:51:35Z</time>
      </trkpt>
      <trkpt lat="42.1953625605" lon="-7.7286982723">
        <ele>609.61</ele>
        <time>2020-08-13T14:51:36Z</time>
      </trkpt>
      <trkpt lat="42.1956296917" lon="-7.7291168645">
        <ele>608.17</ele>
        <time>2020-08-13T14:51:43Z</time>
      </trkpt>
      <trkpt lat="42.1958715096" lon="-7.7294171043">
        <ele>606.25</ele>
        <time>2020-08-13T14:51:49Z</time>
      </trkpt>
      <trkpt lat="42.1959135029" lon="-7.7294507157">
        <ele>605.77</ele>
        <time>2020-08-13T14:51:50Z</time>
      </trkpt>
      <trkpt lat="42.1959602740" lon="-7.7294764481">
        <ele>605.77</ele>
        <time>2020-08-13T14:51:51Z</time>
      </trkpt>
      <trkpt lat="42.1960134991" lon="-7.7294963133">
        <ele>605.29</ele>
        <time>2020-08-13T14:51:52Z</time>
      </trkpt>
      <trkpt lat="42.1960726753" lon="-7.7295077126">
        <ele>605.29</ele>
        <time>2020-08-13T14:51:53Z</time>
      </trkpt>
      <trkpt lat="42.1961133275" lon="-7.7295103949">
        <ele>605.29</ele>
        <time>2020-08-13T14:51:54Z</time>
      </trkpt>
      <trkpt lat="42.1961609367" lon="-7.7295124903">
        <ele>605.29</ele>
        <time>2020-08-13T14:51:55Z</time>
      </trkpt>
      <trkpt lat="42.1963385493" lon="-7.7295025997">
        <ele>604.33</ele>
        <time>2020-08-13T14:51:59Z</time>
      </trkpt>
      <trkpt lat="42.1963816322" lon="-7.7294886857">
        <ele>604.33</ele>
        <time>2020-08-13T14:52:00Z</time>
      </trkpt>
      <trkpt lat="42.1964200214" lon="-7.7294714190">
        <ele>603.85</ele>
        <time>2020-08-13T14:52:01Z</time>
      </trkpt>
      <trkpt lat="42.1964575723" lon="-7.7294508833">
        <ele>603.36</ele>
        <time>2020-08-13T14:52:02Z</time>
      </trkpt>
      <trkpt lat="42.1964960452" lon="-7.7294254024">
        <ele>602.88</ele>
        <time>2020-08-13T14:52:03Z</time>
      </trkpt>
      <trkpt lat="42.1965321712" lon="-7.7293988317">
        <ele>602.40</ele>
        <time>2020-08-13T14:52:04Z</time>
      </trkpt>
      <trkpt lat="42.1968470793" lon="-7.7291814052">
        <ele>600.96</ele>
        <time>2020-08-13T14:52:12Z</time>
      </trkpt>
      <trkpt lat="42.1970045753" lon="-7.7290853485">
        <ele>600.48</ele>
        <time>2020-08-13T14:52:16Z</time>
      </trkpt>
      <trkpt lat="42.1970549505" lon="-7.7290768828">
        <ele>600.48</ele>
        <time>2020-08-13T14:52:17Z</time>
      </trkpt>
      <trkpt lat="42.1971135400" lon="-7.7290837560">
        <ele>600.00</ele>
        <time>2020-08-13T14:52:18Z</time>
      </trkpt>
      <trkpt lat="42.1971792541" lon="-7.7291041240">
        <ele>600.00</ele>
        <time>2020-08-13T14:52:19Z</time>
      </trkpt>
      <trkpt lat="42.1972487401" lon="-7.7291373163">
        <ele>599.04</ele>
        <time>2020-08-13T14:52:20Z</time>
      </trkpt>
      <trkpt lat="42.1973142866" lon="-7.7291731071">
        <ele>598.56</ele>
        <time>2020-08-13T14:52:21Z</time>
      </trkpt>
      <trkpt lat="42.1978691686" lon="-7.7294425014">
        <ele>593.75</ele>
        <time>2020-08-13T14:52:29Z</time>
      </trkpt>
      <trkpt lat="42.1982305963" lon="-7.7296066191">
        <ele>591.83</ele>
        <time>2020-08-13T14:52:35Z</time>
      </trkpt>
      <trkpt lat="42.1986415610" lon="-7.7296943776">
        <ele>587.50</ele>
        <time>2020-08-13T14:52:41Z</time>
      </trkpt>
      <trkpt lat="42.1991142165" lon="-7.7297234628">
        <ele>581.25</ele>
        <time>2020-08-13T14:52:47Z</time>
      </trkpt>
      <trkpt lat="42.1995171346" lon="-7.7298066951">
        <ele>575.97</ele>
        <time>2020-08-13T14:52:53Z</time>
      </trkpt>
      <trkpt lat="42.1998640615" lon="-7.7299473435">
        <ele>572.12</ele>
        <time>2020-08-13T14:52:59Z</time>
      </trkpt>
      <trkpt lat="42.2002553288" lon="-7.7301574778">
        <ele>568.28</ele>
        <time>2020-08-13T14:53:06Z</time>
      </trkpt>
      <trkpt lat="42.2007129807" lon="-7.7302585635">
        <ele>565.87</ele>
        <time>2020-08-13T14:53:13Z</time>
      </trkpt>
      <trkpt lat="42.2007836401" lon="-7.7302874811">
        <ele>565.87</ele>
        <time>2020-08-13T14:53:14Z</time>
      </trkpt>
      <trkpt lat="42.2008472588" lon="-7.7303252835">
        <ele>565.87</ele>
        <time>2020-08-13T14:53:15Z</time>
      </trkpt>
      <trkpt lat="42.2009102069" lon="-7.7303729765">
        <ele>565.39</ele>
        <time>2020-08-13T14:53:16Z</time>
      </trkpt>
      <trkpt lat="42.2011454869" lon="-7.7305854578">
        <ele>564.91</ele>
        <time>2020-08-13T14:53:21Z</time>
      </trkpt>
      <trkpt lat="42.2011833731" lon="-7.7306092624">
        <ele>564.43</ele>
        <time>2020-08-13T14:53:25Z</time>
      </trkpt>
      <trkpt lat="42.2011885699" lon="-7.7306090109">
        <ele>564.91</ele>
        <time>2020-08-13T14:53:42Z</time>
      </trkpt>
      <trkpt lat="42.2012066748" lon="-7.7306124475">
        <ele>564.91</ele>
        <time>2020-08-13T14:53:55Z</time>
      </trkpt>
      <trkpt lat="42.2012163140" lon="-7.7306080051">
        <ele>563.95</ele>
        <time>2020-08-13T14:54:11Z</time>
      </trkpt>
      <trkpt lat="42.2012044955" lon="-7.7306016348">
        <ele>565.39</ele>
        <time>2020-08-13T14:54:32Z</time>
      </trkpt>
      <trkpt lat="42.2012250312" lon="-7.7306203265">
        <ele>565.39</ele>
        <time>2020-08-13T14:54:46Z</time>
      </trkpt>
      <trkpt lat="42.2013281286" lon="-7.7307482343">
        <ele>563.47</ele>
        <time>2020-08-13T14:54:51Z</time>
      </trkpt>
      <trkpt lat="42.2015809268" lon="-7.7309971768">
        <ele>559.62</ele>
        <time>2020-08-13T14:54:59Z</time>
      </trkpt>
      <trkpt lat="42.2017295379" lon="-7.7311509009">
        <ele>557.70</ele>
        <time>2020-08-13T14:55:04Z</time>
      </trkpt>
      <trkpt lat="42.2019837610" lon="-7.7314364724">
        <ele>554.82</ele>
        <time>2020-08-13T14:55:10Z</time>
      </trkpt>
      <trkpt lat="42.2021809872" lon="-7.7316653822">
        <ele>551.93</ele>
        <time>2020-08-13T14:55:16Z</time>
      </trkpt>
      <trkpt lat="42.2021978348" lon="-7.7316733450">
        <ele>551.93</ele>
        <time>2020-08-13T14:55:17Z</time>
      </trkpt>
      <trkpt lat="42.2022118326" lon="-7.7316825651">
        <ele>551.45</ele>
        <time>2020-08-13T14:55:23Z</time>
      </trkpt>
      <trkpt lat="42.2022209689" lon="-7.7316915337">
        <ele>551.45</ele>
        <time>2020-08-13T14:55:24Z</time>
      </trkpt>
      <trkpt lat="42.2022320330" lon="-7.7317031845">
        <ele>551.45</ele>
        <time>2020-08-13T14:55:25Z</time>
      </trkpt>
      <trkpt lat="42.2023270000" lon="-7.7318067849">
        <ele>550.01</ele>
        <time>2020-08-13T14:55:32Z</time>
      </trkpt>
      <trkpt lat="42.2023466974" lon="-7.7318450902">
        <ele>550.01</ele>
        <time>2020-08-13T14:55:39Z</time>
      </trkpt>
      <trkpt lat="42.2024837416" lon="-7.7319951262">
        <ele>548.57</ele>
        <time>2020-08-13T14:55:46Z</time>
      </trkpt>
      <trkpt lat="42.2027216200" lon="-7.7322870679">
        <ele>546.65</ele>
        <time>2020-08-13T14:55:54Z</time>
      </trkpt>
      <trkpt lat="42.2029889189" lon="-7.7325663529">
        <ele>546.17</ele>
        <time>2020-08-13T14:56:02Z</time>
      </trkpt>
      <trkpt lat="42.2031043377" lon="-7.7326389402">
        <ele>544.72</ele>
        <time>2020-08-13T14:56:07Z</time>
      </trkpt>
      <trkpt lat="42.2032328323" lon="-7.7327184007">
        <ele>544.24</ele>
        <time>2020-08-13T14:56:13Z</time>
      </trkpt>
      <trkpt lat="42.2032748256" lon="-7.7327731345">
        <ele>543.28</ele>
        <time>2020-08-13T14:56:19Z</time>
      </trkpt>
      <trkpt lat="42.2033207584" lon="-7.7328287903">
        <ele>542.32</ele>
        <time>2020-08-13T14:56:29Z</time>
      </trkpt>
      <trkpt lat="42.2035102732" lon="-7.7330074087">
        <ele>541.84</ele>
        <time>2020-08-13T14:56:35Z</time>
      </trkpt>
      <trkpt lat="42.2039421927" lon="-7.7333982568">
        <ele>539.92</ele>
        <time>2020-08-13T14:56:45Z</time>
      </trkpt>
      <trkpt lat="42.2043177020" lon="-7.7337388135">
        <ele>541.36</ele>
        <time>2020-08-13T14:56:54Z</time>
      </trkpt>
      <trkpt lat="42.2045082226" lon="-7.7339302562">
        <ele>542.80</ele>
        <time>2020-08-13T14:57:01Z</time>
      </trkpt>
      <trkpt lat="42.2045388166" lon="-7.7341255546">
        <ele>543.28</ele>
        <time>2020-08-13T14:57:07Z</time>
      </trkpt>
      <trkpt lat="42.2045539878" lon="-7.7344511077">
        <ele>544.72</ele>
        <time>2020-08-13T14:57:16Z</time>
      </trkpt>
      <trkpt lat="42.2045777924" lon="-7.7346828673">
        <ele>545.69</ele>
        <time>2020-08-13T14:57:25Z</time>
      </trkpt>
      <trkpt lat="42.2046197020" lon="-7.7348602284">
        <ele>547.13</ele>
        <time>2020-08-13T14:57:33Z</time>
      </trkpt>
      <trkpt lat="42.2046408243" lon="-7.7349551115">
        <ele>547.13</ele>
        <time>2020-08-13T14:57:40Z</time>
      </trkpt>
      <trkpt lat="42.2046388127" lon="-7.7349581290">
        <ele>547.61</ele>
        <time>2020-08-13T14:57:47Z</time>
      </trkpt>
      <trkpt lat="42.2046395671" lon="-7.7349552792">
        <ele>547.61</ele>
        <time>2020-08-13T14:57:59Z</time>
      </trkpt>
      <trkpt lat="42.2046385612" lon="-7.7349570394">
        <ele>550.01</ele>
        <time>2020-08-13T14:58:10Z</time>
      </trkpt>
      <trkpt lat="42.2046352923" lon="-7.7349737193">
        <ele>550.49</ele>
        <time>2020-08-13T14:58:24Z</time>
      </trkpt>
      <trkpt lat="42.2046268266" lon="-7.7349724621">
        <ele>550.01</ele>
        <time>2020-08-13T14:58:40Z</time>
      </trkpt>
      <trkpt lat="42.2046235576" lon="-7.7349779103">
        <ele>548.57</ele>
        <time>2020-08-13T14:58:51Z</time>
      </trkpt>
      <trkpt lat="42.2046209592" lon="-7.7349755634">
        <ele>547.13</ele>
        <time>2020-08-13T14:59:05Z</time>
      </trkpt>
      <trkpt lat="42.2046305984" lon="-7.7349587996">
        <ele>549.05</ele>
        <time>2020-08-13T14:59:20Z</time>
      </trkpt>
      <trkpt lat="42.2046398185" lon="-7.7350245137">
        <ele>550.97</ele>
        <time>2020-08-13T14:59:28Z</time>
      </trkpt>
      <trkpt lat="42.2046203725" lon="-7.7351619769">
        <ele>552.41</ele>
        <time>2020-08-13T14:59:37Z</time>
      </trkpt>
      <trkpt lat="42.2045966517" lon="-7.7352413535">
        <ele>552.41</ele>
        <time>2020-08-13T14:59:42Z</time>
      </trkpt>
      <trkpt lat="42.2045837436" lon="-7.7352470532">
        <ele>551.93</ele>
        <time>2020-08-13T14:59:47Z</time>
      </trkpt>
      <trkpt lat="42.2045856714" lon="-7.7352547646">
        <ele>551.93</ele>
        <time>2020-08-13T15:00:00Z</time>
      </trkpt>
      <trkpt lat="42.2045981605" lon="-7.7352591231">
        <ele>551.45</ele>
        <time>2020-08-13T15:00:14Z</time>
      </trkpt>
      <trkpt lat="42.2045893595" lon="-7.7352710254">
        <ele>550.97</ele>
        <time>2020-08-13T15:00:28Z</time>
      </trkpt>
      <trkpt lat="42.2045926284" lon="-7.7352363244">
        <ele>550.49</ele>
        <time>2020-08-13T15:00:46Z</time>
      </trkpt>
      <trkpt lat="42.2045844980" lon="-7.7352354024">
        <ele>546.65</ele>
        <time>2020-08-13T15:01:02Z</time>
      </trkpt>
      <trkpt lat="42.2045851685" lon="-7.7352438681">
        <ele>545.20</ele>
        <time>2020-08-13T15:01:17Z</time>
      </trkpt>
      <trkpt lat="42.2045818996" lon="-7.7352480590">
        <ele>542.80</ele>
        <time>2020-08-13T15:01:32Z</time>
      </trkpt>
      <trkpt lat="42.2045885213" lon="-7.7352460474">
        <ele>538.96</ele>
        <time>2020-08-13T15:01:45Z</time>
      </trkpt>
      <trkpt lat="42.2046001721" lon="-7.7352323011">
        <ele>536.07</ele>
        <time>2020-08-13T15:02:00Z</time>
      </trkpt>
      <trkpt lat="42.2046069615" lon="-7.7352426946">
        <ele>536.55</ele>
        <time>2020-08-13T15:02:15Z</time>
      </trkpt>
      <trkpt lat="42.2046007589" lon="-7.7352562733">
        <ele>539.44</ele>
        <time>2020-08-13T15:02:26Z</time>
      </trkpt>
      <trkpt lat="42.2045755293" lon="-7.7352594584">
        <ele>539.92</ele>
        <time>2020-08-13T15:02:33Z</time>
      </trkpt>
      <trkpt lat="42.2045803070" lon="-7.7352649067">
        <ele>543.28</ele>
        <time>2020-08-13T15:02:48Z</time>
      </trkpt>
      <trkpt lat="42.2045708355" lon="-7.7352545969">
        <ele>543.76</ele>
        <time>2020-08-13T15:03:05Z</time>
      </trkpt>
      <trkpt lat="42.2045628726" lon="-7.7352494001">
        <ele>543.76</ele>
        <time>2020-08-13T15:03:15Z</time>
      </trkpt>
      <trkpt lat="42.2045732662" lon="-7.7352370787">
        <ele>544.24</ele>
        <time>2020-08-13T15:03:18Z</time>
      </trkpt>
      <trkpt lat="42.2045827378" lon="-7.7352401800">
        <ele>544.24</ele>
        <time>2020-08-13T15:03:19Z</time>
      </trkpt>
      <trkpt lat="42.2046694066" lon="-7.7353022061">
        <ele>544.72</ele>
        <time>2020-08-13T15:03:28Z</time>
      </trkpt>
      <trkpt lat="42.2047526389" lon="-7.7354066446">
        <ele>546.17</ele>
        <time>2020-08-13T15:03:38Z</time>
      </trkpt>
      <trkpt lat="42.2047669720" lon="-7.7354954928">
        <ele>547.13</ele>
        <time>2020-08-13T15:03:44Z</time>
      </trkpt>
      <trkpt lat="42.2048020922" lon="-7.7356513124">
        <ele>549.53</ele>
        <time>2020-08-13T15:03:54Z</time>
      </trkpt>
      <trkpt lat="42.2048031818" lon="-7.7356685791">
        <ele>549.53</ele>
        <time>2020-08-13T15:03:55Z</time>
      </trkpt>
      <trkpt lat="42.2048599273" lon="-7.7358483709">
        <ele>550.97</ele>
        <time>2020-08-13T15:04:06Z</time>
      </trkpt>
      <trkpt lat="42.2049083747" lon="-7.7359134983">
        <ele>550.49</ele>
        <time>2020-08-13T15:04:11Z</time>
      </trkpt>
      <trkpt lat="42.2050161660" lon="-7.7359281667">
        <ele>550.97</ele>
        <time>2020-08-13T15:04:21Z</time>
      </trkpt>
      <trkpt lat="42.2050325107" lon="-7.7359336149">
        <ele>550.49</ele>
        <time>2020-08-13T15:04:28Z</time>
      </trkpt>
      <trkpt lat="42.2051121388" lon="-7.7359647956">
        <ele>550.49</ele>
        <time>2020-08-13T15:04:36Z</time>
      </trkpt>
      <trkpt lat="42.2051294893" lon="-7.7359559108">
        <ele>550.01</ele>
        <time>2020-08-13T15:04:38Z</time>
      </trkpt>
      <trkpt lat="42.2051465884" lon="-7.7359386440">
        <ele>549.53</ele>
        <time>2020-08-13T15:04:40Z</time>
      </trkpt>
      <trkpt lat="42.2051524557" lon="-7.7359248977">
        <ele>549.53</ele>
        <time>2020-08-13T15:04:41Z</time>
      </trkpt>
      <trkpt lat="42.2052009031" lon="-7.7357930504">
        <ele>548.09</ele>
        <time>2020-08-13T15:04:50Z</time>
      </trkpt>
      <trkpt lat="42.2052319162" lon="-7.7355793957">
        <ele>547.61</ele>
        <time>2020-08-13T15:05:02Z</time>
      </trkpt>
      <trkpt lat="42.2052528709" lon="-7.7354649827">
        <ele>549.05</ele>
        <time>2020-08-13T15:05:10Z</time>
      </trkpt>
      <trkpt lat="42.2053094488" lon="-7.7352664154">
        <ele>549.53</ele>
        <time>2020-08-13T15:05:20Z</time>
      </trkpt>
      <trkpt lat="42.2053803597" lon="-7.7351044770">
        <ele>551.45</ele>
        <time>2020-08-13T15:05:29Z</time>
      </trkpt>
      <trkpt lat="42.2053865623" lon="-7.7349400241">
        <ele>556.26</ele>
        <time>2020-08-13T15:05:38Z</time>
      </trkpt>
      <trkpt lat="42.2053609136" lon="-7.7347894013">
        <ele>557.70</ele>
        <time>2020-08-13T15:05:46Z</time>
      </trkpt>
      <trkpt lat="42.2053007316" lon="-7.7345614135">
        <ele>559.62</ele>
        <time>2020-08-13T15:05:58Z</time>
      </trkpt>
      <trkpt lat="42.2052323353" lon="-7.7343928535">
        <ele>558.66</ele>
        <time>2020-08-13T15:06:08Z</time>
      </trkpt>
      <trkpt lat="42.2051840555" lon="-7.7343035862">
        <ele>557.22</ele>
        <time>2020-08-13T15:06:19Z</time>
      </trkpt>
      <trkpt lat="42.2051880788" lon="-7.7343355212">
        <ele>556.26</ele>
        <time>2020-08-13T15:06:30Z</time>
      </trkpt>
      <trkpt lat="42.2051845584" lon="-7.7343797777">
        <ele>556.26</ele>
        <time>2020-08-13T15:06:36Z</time>
      </trkpt>
      <trkpt lat="42.2051809542" lon="-7.7343739942">
        <ele>556.74</ele>
        <time>2020-08-13T15:06:47Z</time>
      </trkpt>
      <trkpt lat="42.2051791940" lon="-7.7343923505">
        <ele>556.74</ele>
        <time>2020-08-13T15:07:05Z</time>
      </trkpt>
      <trkpt lat="42.2051788587" lon="-7.7343963739">
        <ele>556.74</ele>
        <time>2020-08-13T15:07:26Z</time>
      </trkpt>
      <trkpt lat="42.2051803675" lon="-7.7343912609">
        <ele>557.22</ele>
        <time>2020-08-13T15:07:48Z</time>
      </trkpt>
      <trkpt lat="42.2050941177" lon="-7.7344457433">
        <ele>548.09</ele>
        <time>2020-08-14T05:47:40Z</time>
      </trkpt>
      <trkpt lat="42.2051000688" lon="-7.7344497666">
        <ele>547.61</ele>
        <time>2020-08-14T05:47:54Z</time>
      </trkpt>
      <trkpt lat="42.2050962970" lon="-7.7344746608">
        <ele>547.13</ele>
        <time>2020-08-14T05:48:03Z</time>
      </trkpt>
      <trkpt lat="42.2051299084" lon="-7.7344874013">
        <ele>546.65</ele>
        <time>2020-08-14T05:48:13Z</time>
      </trkpt>
      <trkpt lat="42.2051454149" lon="-7.7345346753">
        <ele>541.84</ele>
        <time>2020-08-14T05:48:21Z</time>
      </trkpt>
      <trkpt lat="42.2052472550" lon="-7.7344729006">
        <ele>549.53</ele>
        <time>2020-08-14T05:48:33Z</time>
      </trkpt>
      <trkpt lat="42.2052737419" lon="-7.7345335856">
        <ele>549.53</ele>
        <time>2020-08-14T05:48:37Z</time>
      </trkpt>
      <trkpt lat="42.2053226084" lon="-7.7346952725">
        <ele>548.09</ele>
        <time>2020-08-14T05:48:44Z</time>
      </trkpt>
      <trkpt lat="42.2053708043" lon="-7.7349033114">
        <ele>550.49</ele>
        <time>2020-08-14T05:48:53Z</time>
      </trkpt>
      <trkpt lat="42.2053537052" lon="-7.7351033036">
        <ele>552.41</ele>
        <time>2020-08-14T05:49:00Z</time>
      </trkpt>
      <trkpt lat="42.2053503525" lon="-7.7351088356">
        <ele>552.90</ele>
        <time>2020-08-14T05:49:05Z</time>
      </trkpt>
      <trkpt lat="42.2053481732" lon="-7.7350894734">
        <ele>556.26</ele>
        <time>2020-08-14T05:49:20Z</time>
      </trkpt>
      <trkpt lat="42.2053637635" lon="-7.7350731287">
        <ele>559.14</ele>
        <time>2020-08-14T05:49:38Z</time>
      </trkpt>
      <trkpt lat="42.2053667810" lon="-7.7350867074">
        <ele>557.70</ele>
        <time>2020-08-14T05:49:54Z</time>
      </trkpt>
      <trkpt lat="42.2053569742" lon="-7.7350935806">
        <ele>555.78</ele>
        <time>2020-08-14T05:50:08Z</time>
      </trkpt>
      <trkpt lat="42.2053543758" lon="-7.7350980230">
        <ele>555.78</ele>
        <time>2020-08-14T05:50:23Z</time>
      </trkpt>
      <trkpt lat="42.2053623386" lon="-7.7351050638">
        <ele>555.30</ele>
        <time>2020-08-14T05:50:37Z</time>
      </trkpt>
      <trkpt lat="42.2053496819" lon="-7.7351240069">
        <ele>556.26</ele>
        <time>2020-08-14T05:50:55Z</time>
      </trkpt>
      <trkpt lat="42.2052739095" lon="-7.7353100013">
        <ele>556.74</ele>
        <time>2020-08-14T05:51:02Z</time>
      </trkpt>
      <trkpt lat="42.2052201815" lon="-7.7355187945">
        <ele>558.18</ele>
        <time>2020-08-14T05:51:09Z</time>
      </trkpt>
      <trkpt lat="42.2051844746" lon="-7.7357835788">
        <ele>558.66</ele>
        <time>2020-08-14T05:51:18Z</time>
      </trkpt>
      <trkpt lat="42.2051610053" lon="-7.7359595988">
        <ele>557.22</ele>
        <time>2020-08-14T05:51:25Z</time>
      </trkpt>
      <trkpt lat="42.2051695548" lon="-7.7359763626">
        <ele>557.22</ele>
        <time>2020-08-14T05:51:26Z</time>
      </trkpt>
      <trkpt lat="42.2051865701" lon="-7.7359925397">
        <ele>556.74</ele>
        <time>2020-08-14T05:51:27Z</time>
      </trkpt>
      <trkpt lat="42.2052117996" lon="-7.7360008378">
        <ele>556.74</ele>
        <time>2020-08-14T05:51:29Z</time>
      </trkpt>
      <trkpt lat="42.2053831257" lon="-7.7360564098">
        <ele>556.74</ele>
        <time>2020-08-14T05:51:35Z</time>
      </trkpt>
      <trkpt lat="42.2056887299" lon="-7.7361341100">
        <ele>556.26</ele>
        <time>2020-08-14T05:51:41Z</time>
      </trkpt>
      <trkpt lat="42.2058095969" lon="-7.7361430787">
        <ele>552.90</ele>
        <time>2020-08-14T05:51:43Z</time>
      </trkpt>
      <trkpt lat="42.2058681026" lon="-7.7361340262">
        <ele>551.93</ele>
        <time>2020-08-14T05:51:44Z</time>
      </trkpt>
      <trkpt lat="42.2059253510" lon="-7.7361158375">
        <ele>550.49</ele>
        <time>2020-08-14T05:51:45Z</time>
      </trkpt>
      <trkpt lat="42.2059780732" lon="-7.7360828966">
        <ele>549.53</ele>
        <time>2020-08-14T05:51:46Z</time>
      </trkpt>
      <trkpt lat="42.2060312144" lon="-7.7360353712">
        <ele>548.57</ele>
        <time>2020-08-14T05:51:47Z</time>
      </trkpt>
      <trkpt lat="42.2060822602" lon="-7.7359853312">
        <ele>547.13</ele>
        <time>2020-08-14T05:51:48Z</time>
      </trkpt>
      <trkpt lat="42.2063532472" lon="-7.7356141806">
        <ele>539.92</ele>
        <time>2020-08-14T05:51:54Z</time>
      </trkpt>
      <trkpt lat="42.2064055502" lon="-7.7355590276">
        <ele>538.96</ele>
        <time>2020-08-14T05:51:55Z</time>
      </trkpt>
      <trkpt lat="42.2064628825" lon="-7.7355073113">
        <ele>538.48</ele>
        <time>2020-08-14T05:51:56Z</time>
      </trkpt>
      <trkpt lat="42.2065252438" lon="-7.7354622167">
        <ele>537.99</ele>
        <time>2020-08-14T05:51:57Z</time>
      </trkpt>
      <trkpt lat="42.2065895330" lon="-7.7354244981">
        <ele>537.51</ele>
        <time>2020-08-14T05:51:58Z</time>
      </trkpt>
      <trkpt lat="42.2066585161" lon="-7.7353904676">
        <ele>536.07</ele>
        <time>2020-08-14T05:51:59Z</time>
      </trkpt>
      <trkpt lat="42.2069145832" lon="-7.7352234162">
        <ele>532.23</ele>
        <time>2020-08-14T05:52:03Z</time>
      </trkpt>
      <trkpt lat="42.2069555707" lon="-7.7351705264">
        <ele>531.27</ele>
        <time>2020-08-14T05:52:04Z</time>
      </trkpt>
      <trkpt lat="42.2069833148" lon="-7.7351223305">
        <ele>530.79</ele>
        <time>2020-08-14T05:52:05Z</time>
      </trkpt>
      <trkpt lat="42.2070640326" lon="-7.7349722106">
        <ele>528.86</ele>
        <time>2020-08-14T05:52:08Z</time>
      </trkpt>
      <trkpt lat="42.2070997395" lon="-7.7349413652">
        <ele>528.38</ele>
        <time>2020-08-14T05:52:09Z</time>
      </trkpt>
      <trkpt lat="42.2071455885" lon="-7.7349289600">
        <ele>527.90</ele>
        <time>2020-08-14T05:52:10Z</time>
      </trkpt>
      <trkpt lat="42.2071987297" lon="-7.7349379286">
        <ele>526.94</ele>
        <time>2020-08-14T05:52:11Z</time>
      </trkpt>
      <trkpt lat="42.2072500270" lon="-7.7349719591">
        <ele>526.46</ele>
        <time>2020-08-14T05:52:12Z</time>
      </trkpt>
      <trkpt lat="42.2072925232" lon="-7.7350308839">
        <ele>525.50</ele>
        <time>2020-08-14T05:52:13Z</time>
      </trkpt>
      <trkpt lat="42.2073211893" lon="-7.7351064049">
        <ele>524.54</ele>
        <time>2020-08-14T05:52:14Z</time>
      </trkpt>
      <trkpt lat="42.2073412221" lon="-7.7351865359">
        <ele>524.06</ele>
        <time>2020-08-14T05:52:15Z</time>
      </trkpt>
      <trkpt lat="42.2073579021" lon="-7.7352675050">
        <ele>523.09</ele>
        <time>2020-08-14T05:52:16Z</time>
      </trkpt>
      <trkpt lat="42.2073779348" lon="-7.7353400085">
        <ele>522.13</ele>
        <time>2020-08-14T05:52:17Z</time>
      </trkpt>
      <trkpt lat="42.2074057627" lon="-7.7354067285">
        <ele>521.17</ele>
        <time>2020-08-14T05:52:18Z</time>
      </trkpt>
      <trkpt lat="42.2074438166" lon="-7.7354657371">
        <ele>520.69</ele>
        <time>2020-08-14T05:52:19Z</time>
      </trkpt>
      <trkpt lat="42.2075034957" lon="-7.7355172858">
        <ele>519.73</ele>
        <time>2020-08-14T05:52:20Z</time>
      </trkpt>
      <trkpt lat="42.2075692099" lon="-7.7355441917">
        <ele>519.25</ele>
        <time>2020-08-14T05:52:21Z</time>
      </trkpt>
      <trkpt lat="42.2076196689" lon="-7.7355602011">
        <ele>518.29</ele>
        <time>2020-08-14T05:52:22Z</time>
      </trkpt>
      <trkpt lat="42.2080131155" lon="-7.7356505580">
        <ele>513.00</ele>
        <time>2020-08-14T05:52:28Z</time>
      </trkpt>
      <trkpt lat="42.2084143572" lon="-7.7357460279">
        <ele>507.71</ele>
        <time>2020-08-14T05:52:36Z</time>
      </trkpt>
      <trkpt lat="42.2088383138" lon="-7.7357965708">
        <ele>504.83</ele>
        <time>2020-08-14T05:52:45Z</time>
      </trkpt>
      <trkpt lat="42.2090456821" lon="-7.7358047012">
        <ele>502.91</ele>
        <time>2020-08-14T05:52:48Z</time>
      </trkpt>
      <trkpt lat="42.2095946968" lon="-7.7358279191">
        <ele>498.58</ele>
        <time>2020-08-14T05:52:55Z</time>
      </trkpt>
      <trkpt lat="42.2098000534" lon="-7.7358953096">
        <ele>496.18</ele>
        <time>2020-08-14T05:52:58Z</time>
      </trkpt>
      <trkpt lat="42.2098562121" lon="-7.7359316032">
        <ele>495.70</ele>
        <time>2020-08-14T05:52:59Z</time>
      </trkpt>
      <trkpt lat="42.2099093534" lon="-7.7359828167">
        <ele>495.22</ele>
        <time>2020-08-14T05:53:00Z</time>
      </trkpt>
      <trkpt lat="42.2099491674" lon="-7.7360450104">
        <ele>494.74</ele>
        <time>2020-08-14T05:53:01Z</time>
      </trkpt>
      <trkpt lat="42.2099795938" lon="-7.7361206990">
        <ele>494.26</ele>
        <time>2020-08-14T05:53:02Z</time>
      </trkpt>
      <trkpt lat="42.2100015543" lon="-7.7362080384">
        <ele>493.77</ele>
        <time>2020-08-14T05:53:03Z</time>
      </trkpt>
      <trkpt lat="42.2100152168" lon="-7.7363020834">
        <ele>492.81</ele>
        <time>2020-08-14T05:53:04Z</time>
      </trkpt>
      <trkpt lat="42.2100242693" lon="-7.7364108805">
        <ele>492.33</ele>
        <time>2020-08-14T05:53:05Z</time>
      </trkpt>
      <trkpt lat="42.2100606468" lon="-7.7367203403">
        <ele>490.41</ele>
        <time>2020-08-14T05:53:08Z</time>
      </trkpt>
      <trkpt lat="42.2100872174" lon="-7.7368081827">
        <ele>489.45</ele>
        <time>2020-08-14T05:53:09Z</time>
      </trkpt>
      <trkpt lat="42.2101230919" lon="-7.7368835360">
        <ele>488.97</ele>
        <time>2020-08-14T05:53:10Z</time>
      </trkpt>
      <trkpt lat="42.2101644147" lon="-7.7369470708">
        <ele>488.49</ele>
        <time>2020-08-14T05:53:11Z</time>
      </trkpt>
      <trkpt lat="42.2102063242" lon="-7.7369940095">
        <ele>488.01</ele>
        <time>2020-08-14T05:53:12Z</time>
      </trkpt>
      <trkpt lat="42.2102491558" lon="-7.7370321471">
        <ele>487.05</ele>
        <time>2020-08-14T05:53:13Z</time>
      </trkpt>
      <trkpt lat="42.2103493195" lon="-7.7371067461">
        <ele>486.08</ele>
        <time>2020-08-14T05:53:15Z</time>
      </trkpt>
      <trkpt lat="42.2105472162" lon="-7.7372668404">
        <ele>483.68</ele>
        <time>2020-08-14T05:53:19Z</time>
      </trkpt>
      <trkpt lat="42.2105883714" lon="-7.7373267710">
        <ele>483.20</ele>
        <time>2020-08-14T05:53:20Z</time>
      </trkpt>
      <trkpt lat="42.2106252518" lon="-7.7373975981">
        <ele>482.24</ele>
        <time>2020-08-14T05:53:21Z</time>
      </trkpt>
      <trkpt lat="42.2106545046" lon="-7.7374721132">
        <ele>481.76</ele>
        <time>2020-08-14T05:53:22Z</time>
      </trkpt>
      <trkpt lat="42.2106770519" lon="-7.7375570219">
        <ele>481.28</ele>
        <time>2020-08-14T05:53:23Z</time>
      </trkpt>
      <trkpt lat="42.2106941510" lon="-7.7376525756">
        <ele>480.80</ele>
        <time>2020-08-14T05:53:24Z</time>
      </trkpt>
      <trkpt lat="42.2107036225" lon="-7.7377437707">
        <ele>480.32</ele>
        <time>2020-08-14T05:53:25Z</time>
      </trkpt>
      <trkpt lat="42.2107021976" lon="-7.7378331218">
        <ele>480.32</ele>
        <time>2020-08-14T05:53:26Z</time>
      </trkpt>
      <trkpt lat="42.2106913850" lon="-7.7379238978">
        <ele>479.84</ele>
        <time>2020-08-14T05:53:27Z</time>
      </trkpt>
      <trkpt lat="42.2106725257" lon="-7.7380217984">
        <ele>479.35</ele>
        <time>2020-08-14T05:53:28Z</time>
      </trkpt>
      <trkpt lat="42.2106476314" lon="-7.7381139155">
        <ele>479.35</ele>
        <time>2020-08-14T05:53:29Z</time>
      </trkpt>
      <trkpt lat="42.2106177080" lon="-7.7382051945">
        <ele>478.87</ele>
        <time>2020-08-14T05:53:30Z</time>
      </trkpt>
      <trkpt lat="42.2105803248" lon="-7.7382922824">
        <ele>478.39</ele>
        <time>2020-08-14T05:53:31Z</time>
      </trkpt>
      <trkpt lat="42.2105332185" lon="-7.7383843996">
        <ele>478.39</ele>
        <time>2020-08-14T05:53:32Z</time>
      </trkpt>
      <trkpt lat="42.2104875371" lon="-7.7384709008">
        <ele>477.91</ele>
        <time>2020-08-14T05:53:33Z</time>
      </trkpt>
      <trkpt lat="42.2102059051" lon="-7.7390057500">
        <ele>475.03</ele>
        <time>2020-08-14T05:53:40Z</time>
      </trkpt>
      <trkpt lat="42.2101920750" lon="-7.7390647586">
        <ele>474.55</ele>
        <time>2020-08-14T05:53:41Z</time>
      </trkpt>
      <trkpt lat="42.2101900633" lon="-7.7391254436">
        <ele>474.07</ele>
        <time>2020-08-14T05:53:42Z</time>
      </trkpt>
      <trkpt lat="42.2102006245" lon="-7.7391764894">
        <ele>474.07</ele>
        <time>2020-08-14T05:53:43Z</time>
      </trkpt>
      <trkpt lat="42.2102274466" lon="-7.7392342407">
        <ele>473.59</ele>
        <time>2020-08-14T05:53:44Z</time>
      </trkpt>
      <trkpt lat="42.2102708649" lon="-7.7392837778">
        <ele>473.11</ele>
        <time>2020-08-14T05:53:45Z</time>
      </trkpt>
      <trkpt lat="42.2103196476" lon="-7.7393231727">
        <ele>472.14</ele>
        <time>2020-08-14T05:53:46Z</time>
      </trkpt>
      <trkpt lat="42.2103772312" lon="-7.7393570356">
        <ele>471.66</ele>
        <time>2020-08-14T05:53:47Z</time>
      </trkpt>
      <trkpt lat="42.2104368266" lon="-7.7393831871">
        <ele>471.18</ele>
        <time>2020-08-14T05:53:48Z</time>
      </trkpt>
      <trkpt lat="42.2104976792" lon="-7.7394011244">
        <ele>470.22</ele>
        <time>2020-08-14T05:53:49Z</time>
      </trkpt>
      <trkpt lat="42.2105632257" lon="-7.7394064888">
        <ele>469.74</ele>
        <time>2020-08-14T05:53:50Z</time>
      </trkpt>
      <trkpt lat="42.2106240783" lon="-7.7393989451">
        <ele>469.26</ele>
        <time>2020-08-14T05:53:51Z</time>
      </trkpt>
      <trkpt lat="42.2106774710" lon="-7.7393789124">
        <ele>468.30</ele>
        <time>2020-08-14T05:53:52Z</time>
      </trkpt>
      <trkpt lat="42.2107269242" lon="-7.7393453009">
        <ele>467.82</ele>
        <time>2020-08-14T05:53:53Z</time>
      </trkpt>
      <trkpt lat="42.2107718512" lon="-7.7392999548">
        <ele>466.86</ele>
        <time>2020-08-14T05:53:54Z</time>
      </trkpt>
      <trkpt lat="42.2108127549" lon="-7.7392474003">
        <ele>466.38</ele>
        <time>2020-08-14T05:53:55Z</time>
      </trkpt>
      <trkpt lat="42.2108473722" lon="-7.7392014675">
        <ele>465.90</ele>
        <time>2020-08-14T05:53:56Z</time>
      </trkpt>
      <trkpt lat="42.2108829115" lon="-7.7391645871">
        <ele>465.42</ele>
        <time>2020-08-14T05:53:57Z</time>
      </trkpt>
      <trkpt lat="42.2109207138" lon="-7.7391362563">
        <ele>464.93</ele>
        <time>2020-08-14T05:53:58Z</time>
      </trkpt>
      <trkpt lat="42.2109599411" lon="-7.7391145471">
        <ele>464.45</ele>
        <time>2020-08-14T05:53:59Z</time>
      </trkpt>
      <trkpt lat="42.2110027727" lon="-7.7391001303">
        <ele>464.45</ele>
        <time>2020-08-14T05:54:00Z</time>
      </trkpt>
      <trkpt lat="42.2110463586" lon="-7.7390925866">
        <ele>463.97</ele>
        <time>2020-08-14T05:54:01Z</time>
      </trkpt>
      <trkpt lat="42.2110789642" lon="-7.7390903234">
        <ele>463.49</ele>
        <time>2020-08-14T05:54:02Z</time>
      </trkpt>
      <trkpt lat="42.2112395614" lon="-7.7390785888">
        <ele>462.53</ele>
        <time>2020-08-14T05:54:09Z</time>
      </trkpt>
      <trkpt lat="42.2112338617" lon="-7.7390660997">
        <ele>462.53</ele>
        <time>2020-08-14T05:54:16Z</time>
      </trkpt>
      <trkpt lat="42.2112429142" lon="-7.7390645072">
        <ele>465.42</ele>
        <time>2020-08-14T05:54:31Z</time>
      </trkpt>
      <trkpt lat="42.2112517990" lon="-7.7390776668">
        <ele>466.38</ele>
        <time>2020-08-14T05:54:38Z</time>
      </trkpt>
      <trkpt lat="42.2113325167" lon="-7.7390765771">
        <ele>466.38</ele>
        <time>2020-08-14T05:54:44Z</time>
      </trkpt>
      <trkpt lat="42.2115967143" lon="-7.7390636690">
        <ele>465.90</ele>
        <time>2020-08-14T05:54:53Z</time>
      </trkpt>
      <trkpt lat="42.2118176613" lon="-7.7391024772">
        <ele>465.42</ele>
        <time>2020-08-14T05:55:00Z</time>
      </trkpt>
      <trkpt lat="42.2118661087" lon="-7.7391682751">
        <ele>466.38</ele>
        <time>2020-08-14T05:55:03Z</time>
      </trkpt>
      <trkpt lat="42.2118677851" lon="-7.7392027248">
        <ele>466.38</ele>
        <time>2020-08-14T05:55:04Z</time>
      </trkpt>
      <trkpt lat="42.2118695453" lon="-7.7392283734">
        <ele>466.86</ele>
        <time>2020-08-14T05:55:05Z</time>
      </trkpt>
      <trkpt lat="42.2118742391" lon="-7.7392543573">
        <ele>467.34</ele>
        <time>2020-08-14T05:55:06Z</time>
      </trkpt>
      <trkpt lat="42.2118863091" lon="-7.7392753121">
        <ele>467.34</ele>
        <time>2020-08-14T05:55:07Z</time>
      </trkpt>
      <trkpt lat="42.2119008936" lon="-7.7392968535">
        <ele>467.82</ele>
        <time>2020-08-14T05:55:08Z</time>
      </trkpt>
      <trkpt lat="42.2119973693" lon="-7.7395102568">
        <ele>469.26</ele>
        <time>2020-08-14T05:55:17Z</time>
      </trkpt>
      <trkpt lat="42.2121146321" lon="-7.7396965865">
        <ele>470.70</ele>
        <time>2020-08-14T05:55:26Z</time>
      </trkpt>
      <trkpt lat="42.2122934181" lon="-7.7398098260">
        <ele>472.14</ele>
        <time>2020-08-14T05:55:35Z</time>
      </trkpt>
      <trkpt lat="42.2124701086" lon="-7.7399046253">
        <ele>473.59</ele>
        <time>2020-08-14T05:55:45Z</time>
      </trkpt>
      <trkpt lat="42.2126174625" lon="-7.7399791405">
        <ele>474.07</ele>
        <time>2020-08-14T05:55:54Z</time>
      </trkpt>
      <trkpt lat="42.2127626371" lon="-7.7400686592">
        <ele>475.03</ele>
        <time>2020-08-14T05:56:04Z</time>
      </trkpt>
      <trkpt lat="42.2128719371" lon="-7.7401346248">
        <ele>476.95</ele>
        <time>2020-08-14T05:56:12Z</time>
      </trkpt>
      <trkpt lat="42.2129829135" lon="-7.7401906997">
        <ele>478.39</ele>
        <time>2020-08-14T05:56:19Z</time>
      </trkpt>
      <trkpt lat="42.2130345460" lon="-7.7402149234">
        <ele>477.91</ele>
        <time>2020-08-14T05:56:22Z</time>
      </trkpt>
      <trkpt lat="42.2130491305" lon="-7.7402242273">
        <ele>477.91</ele>
        <time>2020-08-14T05:56:23Z</time>
      </trkpt>
      <trkpt lat="42.2130645532" lon="-7.7402335312">
        <ele>477.91</ele>
        <time>2020-08-14T05:56:24Z</time>
      </trkpt>
      <trkpt lat="42.2130808141" lon="-7.7402425837">
        <ele>477.91</ele>
        <time>2020-08-14T05:56:25Z</time>
      </trkpt>
      <trkpt lat="42.2130935546" lon="-7.7402542345">
        <ele>478.39</ele>
        <time>2020-08-14T05:56:26Z</time>
      </trkpt>
      <trkpt lat="42.2131060436" lon="-7.7402649634">
        <ele>478.39</ele>
        <time>2020-08-14T05:56:27Z</time>
      </trkpt>
      <trkpt lat="42.2131232265" lon="-7.7402760275">
        <ele>478.39</ele>
        <time>2020-08-14T05:56:28Z</time>
      </trkpt>
      <trkpt lat="42.2131400742" lon="-7.7402906958">
        <ele>478.87</ele>
        <time>2020-08-14T05:56:29Z</time>
      </trkpt>
      <trkpt lat="42.2131554130" lon="-7.7403034363">
        <ele>479.35</ele>
        <time>2020-08-14T05:56:30Z</time>
      </trkpt>
      <trkpt lat="42.2131730989" lon="-7.7403131593">
        <ele>479.35</ele>
        <time>2020-08-14T05:56:31Z</time>
      </trkpt>
      <trkpt lat="42.2131896950" lon="-7.7403211221">
        <ele>479.84</ele>
        <time>2020-08-14T05:56:32Z</time>
      </trkpt>
      <trkpt lat="42.2132079676" lon="-7.7403330244">
        <ele>480.32</ele>
        <time>2020-08-14T05:56:33Z</time>
      </trkpt>
      <trkpt lat="42.2132233065" lon="-7.7403399814">
        <ele>480.32</ele>
        <time>2020-08-14T05:56:34Z</time>
      </trkpt>
      <trkpt lat="42.2132420819" lon="-7.7403445914">
        <ele>480.80</ele>
        <time>2020-08-14T05:56:35Z</time>
      </trkpt>
      <trkpt lat="42.2132596001" lon="-7.7403501235">
        <ele>480.80</ele>
        <time>2020-08-14T05:56:36Z</time>
      </trkpt>
      <trkpt lat="42.2132787108" lon="-7.7403587569">
        <ele>480.80</ele>
        <time>2020-08-14T05:56:37Z</time>
      </trkpt>
      <trkpt lat="42.2132969834" lon="-7.7403650433">
        <ele>480.80</ele>
        <time>2020-08-14T05:56:38Z</time>
      </trkpt>
      <trkpt lat="42.2133147530" lon="-7.7403695695">
        <ele>481.28</ele>
        <time>2020-08-14T05:56:39Z</time>
      </trkpt>
      <trkpt lat="42.2133332770" lon="-7.7403777000">
        <ele>481.76</ele>
        <time>2020-08-14T05:56:40Z</time>
      </trkpt>
      <trkpt lat="42.2134419065" lon="-7.7403917816">
        <ele>482.24</ele>
        <time>2020-08-14T05:56:47Z</time>
      </trkpt>
      <trkpt lat="42.2135512065" lon="-7.7404010016">
        <ele>481.76</ele>
        <time>2020-08-14T05:56:53Z</time>
      </trkpt>
      <trkpt lat="42.2135689761" lon="-7.7404037677">
        <ele>481.28</ele>
        <time>2020-08-14T05:56:54Z</time>
      </trkpt>
      <trkpt lat="42.2135907691" lon="-7.7404097188">
        <ele>481.28</ele>
        <time>2020-08-14T05:56:55Z</time>
      </trkpt>
      <trkpt lat="42.2136145737" lon="-7.7404166758">
        <ele>481.28</ele>
        <time>2020-08-14T05:56:56Z</time>
      </trkpt>
      <trkpt lat="42.2136341874" lon="-7.7404206991">
        <ele>480.80</ele>
        <time>2020-08-14T05:56:57Z</time>
      </trkpt>
      <trkpt lat="42.2138396278" lon="-7.7404377144">
        <ele>480.32</ele>
        <time>2020-08-14T05:57:07Z</time>
      </trkpt>
      <trkpt lat="42.2140423860" lon="-7.7404182684">
        <ele>481.76</ele>
        <time>2020-08-14T05:57:16Z</time>
      </trkpt>
      <trkpt lat="42.2142706253" lon="-7.7404242195">
        <ele>484.64</ele>
        <time>2020-08-14T05:57:27Z</time>
      </trkpt>
      <trkpt lat="42.2144404426" lon="-7.7404295001">
        <ele>485.12</ele>
        <time>2020-08-14T05:57:36Z</time>
      </trkpt>
      <trkpt lat="42.2146218270" lon="-7.7404298354">
        <ele>486.08</ele>
        <time>2020-08-14T05:57:45Z</time>
      </trkpt>
      <trkpt lat="42.2148467973" lon="-7.7404317632">
        <ele>487.53</ele>
        <time>2020-08-14T05:57:57Z</time>
      </trkpt>
      <trkpt lat="42.2150206380" lon="-7.7404403966">
        <ele>488.49</ele>
        <time>2020-08-14T05:58:07Z</time>
      </trkpt>
      <trkpt lat="42.2151971608" lon="-7.7404399775">
        <ele>489.93</ele>
        <time>2020-08-14T05:58:17Z</time>
      </trkpt>
      <trkpt lat="42.2153627034" lon="-7.7404446714">
        <ele>491.85</ele>
        <time>2020-08-14T05:58:27Z</time>
      </trkpt>
      <trkpt lat="42.2155486979" lon="-7.7404317632">
        <ele>493.77</ele>
        <time>2020-08-14T05:58:38Z</time>
      </trkpt>
      <trkpt lat="42.2157338541" lon="-7.7404118981">
        <ele>495.22</ele>
        <time>2020-08-14T05:58:49Z</time>
      </trkpt>
      <trkpt lat="42.2159359418" lon="-7.7404009178">
        <ele>495.70</ele>
        <time>2020-08-14T05:59:01Z</time>
      </trkpt>
      <trkpt lat="42.2161117103" lon="-7.7403797954">
        <ele>496.18</ele>
        <time>2020-08-14T05:59:11Z</time>
      </trkpt>
      <trkpt lat="42.2162749898" lon="-7.7403672226">
        <ele>497.62</ele>
        <time>2020-08-14T05:59:20Z</time>
      </trkpt>
      <trkpt lat="42.2164100222" lon="-7.7403464355">
        <ele>498.58</ele>
        <time>2020-08-14T05:59:28Z</time>
      </trkpt>
      <trkpt lat="42.2165680211" lon="-7.7403409034">
        <ele>500.02</ele>
        <time>2020-08-14T05:59:37Z</time>
      </trkpt>
      <trkpt lat="42.2167690191" lon="-7.7403280791">
        <ele>501.46</ele>
        <time>2020-08-14T05:59:48Z</time>
      </trkpt>
      <trkpt lat="42.2169187199" lon="-7.7403047774">
        <ele>502.43</ele>
        <time>2020-08-14T05:59:56Z</time>
      </trkpt>
      <trkpt lat="42.2171260044" lon="-7.7402145881">
        <ele>503.39</ele>
        <time>2020-08-14T06:00:08Z</time>
      </trkpt>
      <trkpt lat="42.2172937263" lon="-7.7401008457">
        <ele>504.35</ele>
        <time>2020-08-14T06:00:18Z</time>
      </trkpt>
      <trkpt lat="42.2173963208" lon="-7.7400100697">
        <ele>505.31</ele>
        <time>2020-08-14T06:00:25Z</time>
      </trkpt>
      <trkpt lat="42.2175478656" lon="-7.7399290167">
        <ele>505.79</ele>
        <time>2020-08-14T06:00:33Z</time>
      </trkpt>
      <trkpt lat="42.2177170124" lon="-7.7399002668">
        <ele>505.31</ele>
        <time>2020-08-14T06:00:42Z</time>
      </trkpt>
      <trkpt lat="42.2178705689" lon="-7.7399438526">
        <ele>506.75</ele>
        <time>2020-08-14T06:00:51Z</time>
      </trkpt>
      <trkpt lat="42.2179653682" lon="-7.7399742790">
        <ele>507.71</ele>
        <time>2020-08-14T06:00:57Z</time>
      </trkpt>
      <trkpt lat="42.2179759294" lon="-7.7399780508">
        <ele>508.19</ele>
        <time>2020-08-14T06:00:58Z</time>
      </trkpt>
      <trkpt lat="42.2179909330" lon="-7.7399741951">
        <ele>509.16</ele>
        <time>2020-08-14T06:01:05Z</time>
      </trkpt>
      <trkpt lat="42.2180036735" lon="-7.7399548329">
        <ele>510.12</ele>
        <time>2020-08-14T06:01:18Z</time>
      </trkpt>
      <trkpt lat="42.2179943696" lon="-7.7399422601">
        <ele>511.08</ele>
        <time>2020-08-14T06:01:32Z</time>
      </trkpt>
      <trkpt lat="42.2180051822" lon="-7.7399535757">
        <ele>512.52</ele>
        <time>2020-08-14T06:01:51Z</time>
      </trkpt>
      <trkpt lat="42.2180097084" lon="-7.7399702556">
        <ele>511.56</ele>
        <time>2020-08-14T06:01:57Z</time>
      </trkpt>
      <trkpt lat="42.2180200182" lon="-7.7399799787">
        <ele>511.56</ele>
        <time>2020-08-14T06:01:58Z</time>
      </trkpt>
      <trkpt lat="42.2181650251" lon="-7.7400572598">
        <ele>511.56</ele>
        <time>2020-08-14T06:02:07Z</time>
      </trkpt>
      <trkpt lat="42.2183081880" lon="-7.7401321940">
        <ele>510.60</ele>
        <time>2020-08-14T06:02:15Z</time>
      </trkpt>
      <trkpt lat="42.2184606548" lon="-7.7402129117">
        <ele>513.00</ele>
        <time>2020-08-14T06:02:24Z</time>
      </trkpt>
      <trkpt lat="42.2186296340" lon="-7.7402906120">
        <ele>513.96</ele>
        <time>2020-08-14T06:02:33Z</time>
      </trkpt>
      <trkpt lat="42.2187735513" lon="-7.7403690666">
        <ele>514.92</ele>
        <time>2020-08-14T06:02:41Z</time>
      </trkpt>
      <trkpt lat="42.2189417761" lon="-7.7404448390">
        <ele>516.85</ele>
        <time>2020-08-14T06:02:50Z</time>
      </trkpt>
      <trkpt lat="42.2191267647" lon="-7.7405591682">
        <ele>518.29</ele>
        <time>2020-08-14T06:03:00Z</time>
      </trkpt>
      <trkpt lat="42.2192762978" lon="-7.7407039236">
        <ele>519.73</ele>
        <time>2020-08-14T06:03:09Z</time>
      </trkpt>
      <trkpt lat="42.2193839215" lon="-7.7408051770">
        <ele>519.73</ele>
        <time>2020-08-14T06:03:17Z</time>
      </trkpt>
      <trkpt lat="42.2196300142" lon="-7.7410760801">
        <ele>520.69</ele>
        <time>2020-08-14T06:03:29Z</time>
      </trkpt>
      <trkpt lat="42.2199550644" lon="-7.7414555289">
        <ele>521.65</ele>
        <time>2020-08-14T06:03:44Z</time>
      </trkpt>
      <trkpt lat="42.2201632708" lon="-7.7417338919">
        <ele>520.69</ele>
        <time>2020-08-14T06:03:54Z</time>
      </trkpt>
      <trkpt lat="42.2203165758" lon="-7.7419458702">
        <ele>520.69</ele>
        <time>2020-08-14T06:04:02Z</time>
      </trkpt>
      <trkpt lat="42.2204582300" lon="-7.7421382349">
        <ele>519.73</ele>
        <time>2020-08-14T06:04:09Z</time>
      </trkpt>
      <trkpt lat="42.2205784265" lon="-7.7423068788">
        <ele>520.21</ele>
        <time>2020-08-14T06:04:15Z</time>
      </trkpt>
      <trkpt lat="42.2207762394" lon="-7.7425576653">
        <ele>521.17</ele>
        <time>2020-08-14T06:04:24Z</time>
      </trkpt>
      <trkpt lat="42.2209860384" lon="-7.7428411413">
        <ele>522.13</ele>
        <time>2020-08-14T06:04:33Z</time>
      </trkpt>
      <trkpt lat="42.2211256810" lon="-7.7431730647">
        <ele>521.17</ele>
        <time>2020-08-14T06:04:41Z</time>
      </trkpt>
      <trkpt lat="42.2210996132" lon="-7.7435853705">
        <ele>522.13</ele>
        <time>2020-08-14T06:04:49Z</time>
      </trkpt>
      <trkpt lat="42.2210248467" lon="-7.7440534998">
        <ele>521.65</ele>
        <time>2020-08-14T06:04:58Z</time>
      </trkpt>
      <trkpt lat="42.2210068256" lon="-7.7441682480">
        <ele>521.65</ele>
        <time>2020-08-14T06:05:00Z</time>
      </trkpt>
      <trkpt lat="42.2209879663" lon="-7.7443414181">
        <ele>522.13</ele>
        <time>2020-08-14T06:05:03Z</time>
      </trkpt>
      <trkpt lat="42.2209875472" lon="-7.7444033604">
        <ele>522.13</ele>
        <time>2020-08-14T06:05:04Z</time>
      </trkpt>
      <trkpt lat="42.2210011259" lon="-7.7445838228">
        <ele>522.13</ele>
        <time>2020-08-14T06:05:07Z</time>
      </trkpt>
      <trkpt lat="42.2210836876" lon="-7.7451574802">
        <ele>521.65</ele>
        <time>2020-08-14T06:05:17Z</time>
      </trkpt>
      <trkpt lat="42.2211522516" lon="-7.7456011344">
        <ele>522.61</ele>
        <time>2020-08-14T06:05:26Z</time>
      </trkpt>
      <trkpt lat="42.2212647367" lon="-7.7458105981">
        <ele>524.06</ele>
        <time>2020-08-14T06:05:32Z</time>
      </trkpt>
      <trkpt lat="42.2214058042" lon="-7.7459895518">
        <ele>525.50</ele>
        <time>2020-08-14T06:05:40Z</time>
      </trkpt>
      <trkpt lat="42.2215915471" lon="-7.7462310344">
        <ele>526.94</ele>
        <time>2020-08-14T06:05:51Z</time>
      </trkpt>
      <trkpt lat="42.2217378113" lon="-7.7463676594">
        <ele>527.90</ele>
        <time>2020-08-14T06:06:00Z</time>
      </trkpt>
      <trkpt lat="42.2219472751" lon="-7.7464850899">
        <ele>529.34</ele>
        <time>2020-08-14T06:06:13Z</time>
      </trkpt>
      <trkpt lat="42.2221109737" lon="-7.7465704177">
        <ele>529.34</ele>
        <time>2020-08-14T06:06:23Z</time>
      </trkpt>
      <trkpt lat="42.2221421544" lon="-7.7465923782">
        <ele>529.82</ele>
        <time>2020-08-14T06:06:25Z</time>
      </trkpt>
      <trkpt lat="42.2223014943" lon="-7.7466553263">
        <ele>532.23</ele>
        <time>2020-08-14T06:06:34Z</time>
      </trkpt>
      <trkpt lat="42.2224458307" lon="-7.7467452642">
        <ele>533.19</ele>
        <time>2020-08-14T06:06:43Z</time>
      </trkpt>
      <trkpt lat="42.2225658596" lon="-7.7468034346">
        <ele>533.67</ele>
        <time>2020-08-14T06:06:51Z</time>
      </trkpt>
      <trkpt lat="42.2227101959" lon="-7.7468885109">
        <ele>534.15</ele>
        <time>2020-08-14T06:07:00Z</time>
      </trkpt>
      <trkpt lat="42.2228562925" lon="-7.7469688095">
        <ele>536.07</ele>
        <time>2020-08-14T06:07:09Z</time>
      </trkpt>
      <trkpt lat="42.2229970247" lon="-7.7470418159">
        <ele>538.48</ele>
        <time>2020-08-14T06:07:18Z</time>
      </trkpt>
      <trkpt lat="42.2231266927" lon="-7.7471119724">
        <ele>539.92</ele>
        <time>2020-08-14T06:07:26Z</time>
      </trkpt>
      <trkpt lat="42.2232899722" lon="-7.7472010721">
        <ele>541.84</ele>
        <time>2020-08-14T06:07:36Z</time>
      </trkpt>
      <trkpt lat="42.2234003618" lon="-7.7472842205">
        <ele>541.84</ele>
        <time>2020-08-14T06:07:44Z</time>
      </trkpt>
      <trkpt lat="42.2235307842" lon="-7.7473704703">
        <ele>542.80</ele>
        <time>2020-08-14T06:07:52Z</time>
      </trkpt>
      <trkpt lat="42.2236507293" lon="-7.7475008927">
        <ele>544.24</ele>
        <time>2020-08-14T06:08:01Z</time>
      </trkpt>
      <trkpt lat="42.2237671539" lon="-7.7476760745">
        <ele>544.72</ele>
        <time>2020-08-14T06:08:11Z</time>
      </trkpt>
      <trkpt lat="42.2238303535" lon="-7.7478142083">
        <ele>544.72</ele>
        <time>2020-08-14T06:08:18Z</time>
      </trkpt>
      <trkpt lat="42.2239297628" lon="-7.7480302937">
        <ele>546.17</ele>
        <time>2020-08-14T06:08:29Z</time>
      </trkpt>
      <trkpt lat="42.2240222152" lon="-7.7482273523">
        <ele>547.13</ele>
        <time>2020-08-14T06:08:39Z</time>
      </trkpt>
      <trkpt lat="42.2241224628" lon="-7.7484481316">
        <ele>548.09</ele>
        <time>2020-08-14T06:08:50Z</time>
      </trkpt>
      <trkpt lat="42.2242337745" lon="-7.7486979961">
        <ele>549.05</ele>
        <time>2020-08-14T06:09:01Z</time>
      </trkpt>
      <trkpt lat="42.2243165039" lon="-7.7488901094">
        <ele>549.05</ele>
        <time>2020-08-14T06:09:09Z</time>
      </trkpt>
      <trkpt lat="42.2244485188" lon="-7.7490652911">
        <ele>549.53</ele>
        <time>2020-08-14T06:09:16Z</time>
      </trkpt>
      <trkpt lat="42.2246785183" lon="-7.7492646128">
        <ele>551.45</ele>
        <time>2020-08-14T06:09:25Z</time>
      </trkpt>
      <trkpt lat="42.2249916662" lon="-7.7495121304">
        <ele>552.41</ele>
        <time>2020-08-14T06:09:36Z</time>
      </trkpt>
      <trkpt lat="42.2252907325" lon="-7.7497318201">
        <ele>553.38</ele>
        <time>2020-08-14T06:09:47Z</time>
      </trkpt>
      <trkpt lat="42.2255654912" lon="-7.7499363385">
        <ele>553.86</ele>
        <time>2020-08-14T06:09:57Z</time>
      </trkpt>
      <trkpt lat="42.2257896233" lon="-7.7500800882">
        <ele>553.86</ele>
        <time>2020-08-14T06:10:05Z</time>
      </trkpt>
      <trkpt lat="42.2259735223" lon="-7.7502270229">
        <ele>554.34</ele>
        <time>2020-08-14T06:10:13Z</time>
      </trkpt>
      <trkpt lat="42.2259892803" lon="-7.7502459660">
        <ele>554.34</ele>
        <time>2020-08-14T06:10:18Z</time>
      </trkpt>
      <trkpt lat="42.2259841673" lon="-7.7502504084">
        <ele>553.38</ele>
        <time>2020-08-14T06:10:33Z</time>
      </trkpt>
      <trkpt lat="42.2259876039" lon="-7.7502590418">
        <ele>550.97</ele>
        <time>2020-08-14T06:10:45Z</time>
      </trkpt>
      <trkpt lat="42.2259974107" lon="-7.7502575330">
        <ele>550.97</ele>
        <time>2020-08-14T06:10:46Z</time>
      </trkpt>
      <trkpt lat="42.2260102350" lon="-7.7502585389">
        <ele>550.97</ele>
        <time>2020-08-14T06:10:47Z</time>
      </trkpt>
      <trkpt lat="42.2260260768" lon="-7.7502612211">
        <ele>550.97</ele>
        <time>2020-08-14T06:10:48Z</time>
      </trkpt>
      <trkpt lat="42.2260444332" lon="-7.7502617240">
        <ele>550.49</ele>
        <time>2020-08-14T06:10:49Z</time>
      </trkpt>
      <trkpt lat="42.2260639630" lon="-7.7502559405">
        <ele>550.49</ele>
        <time>2020-08-14T06:10:50Z</time>
      </trkpt>
      <trkpt lat="42.2260810621" lon="-7.7502461337">
        <ele>550.49</ele>
        <time>2020-08-14T06:10:51Z</time>
      </trkpt>
      <trkpt lat="42.2260932997" lon="-7.7502352372">
        <ele>550.49</ele>
        <time>2020-08-14T06:10:52Z</time>
      </trkpt>
      <trkpt lat="42.2261653002" lon="-7.7500857040">
        <ele>551.45</ele>
        <time>2020-08-14T06:11:01Z</time>
      </trkpt>
      <trkpt lat="42.2261739336" lon="-7.7500670124">
        <ele>554.34</ele>
        <time>2020-08-14T06:11:11Z</time>
      </trkpt>
      <trkpt lat="42.2261756938" lon="-7.7500610612">
        <ele>554.34</ele>
        <time>2020-08-14T06:11:22Z</time>
      </trkpt>
      <trkpt lat="42.2261779569" lon="-7.7500621509">
        <ele>554.34</ele>
        <time>2020-08-14T06:11:27Z</time>
      </trkpt>
      <trkpt lat="42.2261782084" lon="-7.7500821836">
        <ele>553.38</ele>
        <time>2020-08-14T06:11:37Z</time>
      </trkpt>
      <trkpt lat="42.2261723410" lon="-7.7500796691">
        <ele>552.90</ele>
        <time>2020-08-14T06:11:50Z</time>
      </trkpt>
      <trkpt lat="42.2261555772" lon="-7.7500774059">
        <ele>555.30</ele>
        <time>2020-08-14T06:12:02Z</time>
      </trkpt>
      <trkpt lat="42.2261435073" lon="-7.7501004562">
        <ele>555.78</ele>
        <time>2020-08-14T06:12:11Z</time>
      </trkpt>
      <trkpt lat="42.2261423338" lon="-7.7501815930">
        <ele>556.26</ele>
        <time>2020-08-14T06:12:16Z</time>
      </trkpt>
      <trkpt lat="42.2261230554" lon="-7.7502872050">
        <ele>555.30</ele>
        <time>2020-08-14T06:12:22Z</time>
      </trkpt>
      <trkpt lat="42.2261149250" lon="-7.7503129374">
        <ele>555.78</ele>
        <time>2020-08-14T06:12:24Z</time>
      </trkpt>
      <trkpt lat="42.2261531465" lon="-7.7503631450">
        <ele>556.26</ele>
        <time>2020-08-14T06:12:27Z</time>
      </trkpt>
      <trkpt lat="42.2261739336" lon="-7.7503809985">
        <ele>556.26</ele>
        <time>2020-08-14T06:12:28Z</time>
      </trkpt>
      <trkpt lat="42.2261961456" lon="-7.7504003607">
        <ele>556.26</ele>
        <time>2020-08-14T06:12:29Z</time>
      </trkpt>
      <trkpt lat="42.2264301684" lon="-7.7505854331">
        <ele>554.82</ele>
        <time>2020-08-14T06:12:38Z</time>
      </trkpt>
      <trkpt lat="42.2267068550" lon="-7.7508155163">
        <ele>551.93</ele>
        <time>2020-08-14T06:12:47Z</time>
      </trkpt>
      <trkpt lat="42.2270250320" lon="-7.7510585077">
        <ele>549.53</ele>
        <time>2020-08-14T06:12:56Z</time>
      </trkpt>
      <trkpt lat="42.2270755749" lon="-7.7510849107">
        <ele>549.53</ele>
        <time>2020-08-14T06:12:57Z</time>
      </trkpt>
      <trkpt lat="42.2272670176" lon="-7.7511368785">
        <ele>549.05</ele>
        <time>2020-08-14T06:13:01Z</time>
      </trkpt>
      <trkpt lat="42.2278033756" lon="-7.7511133254">
        <ele>547.61</ele>
        <time>2020-08-14T06:13:12Z</time>
      </trkpt>
      <trkpt lat="42.2280441877" lon="-7.7510931250">
        <ele>546.65</ele>
        <time>2020-08-14T06:13:18Z</time>
      </trkpt>
      <trkpt lat="42.2280688304" lon="-7.7510893531">
        <ele>546.17</ele>
        <time>2020-08-14T06:13:22Z</time>
      </trkpt>
      <trkpt lat="42.2280661482" lon="-7.7510857489">
        <ele>544.24</ele>
        <time>2020-08-14T06:13:36Z</time>
      </trkpt>
      <trkpt lat="42.2280731052" lon="-7.7510885987">
        <ele>543.76</ele>
        <time>2020-08-14T06:13:49Z</time>
      </trkpt>
      <trkpt lat="42.2282222193" lon="-7.7510912810">
        <ele>543.76</ele>
        <time>2020-08-14T06:13:55Z</time>
      </trkpt>
      <trkpt lat="42.2285262309" lon="-7.7510769479">
        <ele>542.32</ele>
        <time>2020-08-14T06:14:01Z</time>
      </trkpt>
      <trkpt lat="42.2286578268" lon="-7.7510481142">
        <ele>541.36</ele>
        <time>2020-08-14T06:14:03Z</time>
      </trkpt>
      <trkpt lat="42.2287215292" lon="-7.7510170173">
        <ele>540.88</ele>
        <time>2020-08-14T06:14:04Z</time>
      </trkpt>
      <trkpt lat="42.2291439772" lon="-7.7507537417">
        <ele>537.03</ele>
        <time>2020-08-14T06:14:10Z</time>
      </trkpt>
      <trkpt lat="42.2297442053" lon="-7.7505090740">
        <ele>533.67</ele>
        <time>2020-08-14T06:14:17Z</time>
      </trkpt>
      <trkpt lat="42.2299631406" lon="-7.7504467126">
        <ele>533.67</ele>
        <time>2020-08-14T06:14:20Z</time>
      </trkpt>
      <trkpt lat="42.2300247476" lon="-7.7504450362">
        <ele>534.15</ele>
        <time>2020-08-14T06:14:21Z</time>
      </trkpt>
      <trkpt lat="42.2301992588" lon="-7.7504603751">
        <ele>535.11</ele>
        <time>2020-08-14T06:14:25Z</time>
      </trkpt>
      <trkpt lat="42.2304013465" lon="-7.7504958306">
        <ele>535.11</ele>
        <time>2020-08-14T06:14:32Z</time>
      </trkpt>
      <trkpt lat="42.2306847386" lon="-7.7505324595">
        <ele>536.55</ele>
        <time>2020-08-14T06:14:42Z</time>
      </trkpt>
      <trkpt lat="42.2309703939" lon="-7.7505757939">
        <ele>537.99</ele>
        <time>2020-08-14T06:14:53Z</time>
      </trkpt>
      <trkpt lat="42.2311796900" lon="-7.7505957428">
        <ele>539.92</ele>
        <time>2020-08-14T06:15:01Z</time>
      </trkpt>
      <trkpt lat="42.2314003855" lon="-7.7505223174">
        <ele>540.40</ele>
        <time>2020-08-14T06:15:10Z</time>
      </trkpt>
      <trkpt lat="42.2316918243" lon="-7.7503676713">
        <ele>539.92</ele>
        <time>2020-08-14T06:15:19Z</time>
      </trkpt>
      <trkpt lat="42.2320166230" lon="-7.7502006199">
        <ele>537.99</ele>
        <time>2020-08-14T06:15:25Z</time>
      </trkpt>
      <trkpt lat="42.2324231453" lon="-7.7498893160">
        <ele>535.11</ele>
        <time>2020-08-14T06:15:31Z</time>
      </trkpt>
      <trkpt lat="42.2330735810" lon="-7.7492841426">
        <ele>534.15</ele>
        <time>2020-08-14T06:15:41Z</time>
      </trkpt>
      <trkpt lat="42.2334806900" lon="-7.7489056159">
        <ele>534.15</ele>
        <time>2020-08-14T06:15:49Z</time>
      </trkpt>
      <trkpt lat="42.2338238452" lon="-7.7486038674">
        <ele>534.15</ele>
        <time>2020-08-14T06:15:57Z</time>
      </trkpt>
      <trkpt lat="42.2343653999" lon="-7.7481675893">
        <ele>532.71</ele>
        <time>2020-08-14T06:16:09Z</time>
      </trkpt>
      <trkpt lat="42.2347598523" lon="-7.7478142921">
        <ele>533.19</ele>
        <time>2020-08-14T06:16:19Z</time>
      </trkpt>
      <trkpt lat="42.2350398079" lon="-7.7474402916">
        <ele>534.15</ele>
        <time>2020-08-14T06:16:29Z</time>
      </trkpt>
      <trkpt lat="42.2352480981" lon="-7.7471228689">
        <ele>533.67</ele>
        <time>2020-08-14T06:16:37Z</time>
      </trkpt>
      <trkpt lat="42.2354494315" lon="-7.7468159236">
        <ele>532.23</ele>
        <time>2020-08-14T06:16:45Z</time>
      </trkpt>
      <trkpt lat="42.2354988847" lon="-7.7467474435">
        <ele>532.23</ele>
        <time>2020-08-14T06:16:50Z</time>
      </trkpt>
      <trkpt lat="42.2355717234" lon="-7.7466458548">
        <ele>532.71</ele>
        <time>2020-08-14T06:16:56Z</time>
      </trkpt>
      <trkpt lat="42.2357479949" lon="-7.7463868540">
        <ele>532.23</ele>
        <time>2020-08-14T06:17:03Z</time>
      </trkpt>
      <trkpt lat="42.2360767331" lon="-7.7458990272">
        <ele>532.23</ele>
        <time>2020-08-14T06:17:14Z</time>
      </trkpt>
      <trkpt lat="42.2363502346" lon="-7.7455001324">
        <ele>530.79</ele>
        <time>2020-08-14T06:17:23Z</time>
      </trkpt>
      <trkpt lat="42.2363786492" lon="-7.7454500087">
        <ele>530.79</ele>
        <time>2020-08-14T06:17:24Z</time>
      </trkpt>
      <trkpt lat="42.2366156895" lon="-7.7450266387">
        <ele>529.82</ele>
        <time>2020-08-14T06:17:33Z</time>
      </trkpt>
      <trkpt lat="42.2368403245" lon="-7.7446596790">
        <ele>529.34</ele>
        <time>2020-08-14T06:17:41Z</time>
      </trkpt>
      <trkpt lat="42.2368805576" lon="-7.7446174342">
        <ele>528.86</ele>
        <time>2020-08-14T06:17:42Z</time>
      </trkpt>
      <trkpt lat="42.2369180247" lon="-7.7445916180">
        <ele>529.34</ele>
        <time>2020-08-14T06:17:43Z</time>
      </trkpt>
      <trkpt lat="42.2369647957" lon="-7.7445691545">
        <ele>529.34</ele>
        <time>2020-08-14T06:17:44Z</time>
      </trkpt>
      <trkpt lat="42.2370076273" lon="-7.7445554081">
        <ele>529.34</ele>
        <time>2020-08-14T06:17:45Z</time>
      </trkpt>
      <trkpt lat="42.2370621935" lon="-7.7445420809">
        <ele>529.34</ele>
        <time>2020-08-14T06:17:46Z</time>
      </trkpt>
      <trkpt lat="42.2371106409" lon="-7.7445369679">
        <ele>528.86</ele>
        <time>2020-08-14T06:17:47Z</time>
      </trkpt>
      <trkpt lat="42.2371623572" lon="-7.7445379738">
        <ele>528.86</ele>
        <time>2020-08-14T06:17:48Z</time>
      </trkpt>
      <trkpt lat="42.2372158337" lon="-7.7445485350">
        <ele>528.86</ele>
        <time>2020-08-14T06:17:49Z</time>
      </trkpt>
      <trkpt lat="42.2372782789" lon="-7.7445659693">
        <ele>528.38</ele>
        <time>2020-08-14T06:17:50Z</time>
      </trkpt>
      <trkpt lat="42.2377036605" lon="-7.7447202802">
        <ele>526.94</ele>
        <time>2020-08-14T06:17:56Z</time>
      </trkpt>
      <trkpt lat="42.2383418586" lon="-7.7449429035">
        <ele>522.61</ele>
        <time>2020-08-14T06:18:03Z</time>
      </trkpt>
      <trkpt lat="42.2388859279" lon="-7.7451299876">
        <ele>518.77</ele>
        <time>2020-08-14T06:18:09Z</time>
      </trkpt>
      <trkpt lat="42.2389684059" lon="-7.7451312449">
        <ele>518.29</ele>
        <time>2020-08-14T06:18:10Z</time>
      </trkpt>
      <trkpt lat="42.2390382271" lon="-7.7451157384">
        <ele>517.81</ele>
        <time>2020-08-14T06:18:11Z</time>
      </trkpt>
      <trkpt lat="42.2391234711" lon="-7.7450807858">
        <ele>517.33</ele>
        <time>2020-08-14T06:18:12Z</time>
      </trkpt>
      <trkpt lat="42.2391913645" lon="-7.7450444922">
        <ele>516.85</ele>
        <time>2020-08-14T06:18:13Z</time>
      </trkpt>
      <trkpt lat="42.2392719146" lon="-7.7449998166">
        <ele>516.37</ele>
        <time>2020-08-14T06:18:14Z</time>
      </trkpt>
      <trkpt lat="42.2393571585" lon="-7.7449505311">
        <ele>515.88</ele>
        <time>2020-08-14T06:18:15Z</time>
      </trkpt>
      <trkpt lat="42.2394253034" lon="-7.7449019160">
        <ele>515.40</ele>
        <time>2020-08-14T06:18:16Z</time>
      </trkpt>
      <trkpt lat="42.2394994833" lon="-7.7448387165">
        <ele>514.92</ele>
        <time>2020-08-14T06:18:17Z</time>
      </trkpt>
      <trkpt lat="42.2395785246" lon="-7.7447639499">
        <ele>514.44</ele>
        <time>2020-08-14T06:18:18Z</time>
      </trkpt>
      <trkpt lat="42.2399445623" lon="-7.7443417534">
        <ele>511.08</ele>
        <time>2020-08-14T06:18:23Z</time>
      </trkpt>
      <trkpt lat="42.2400146350" lon="-7.7442770451">
        <ele>510.60</ele>
        <time>2020-08-14T06:18:24Z</time>
      </trkpt>
      <trkpt lat="42.2400857974" lon="-7.7442437690">
        <ele>510.12</ele>
        <time>2020-08-14T06:18:25Z</time>
      </trkpt>
      <trkpt lat="42.2401496675" lon="-7.7442408353">
        <ele>509.64</ele>
        <time>2020-08-14T06:18:26Z</time>
      </trkpt>
      <trkpt lat="42.2402183991" lon="-7.7442645561">
        <ele>509.16</ele>
        <time>2020-08-14T06:18:27Z</time>
      </trkpt>
      <trkpt lat="42.2402811795" lon="-7.7443079744">
        <ele>508.67</ele>
        <time>2020-08-14T06:18:28Z</time>
      </trkpt>
      <trkpt lat="42.2403411102" lon="-7.7443717606">
        <ele>508.19</ele>
        <time>2020-08-14T06:18:29Z</time>
      </trkpt>
      <trkpt lat="42.2403920721" lon="-7.7444441803">
        <ele>507.71</ele>
        <time>2020-08-14T06:18:30Z</time>
      </trkpt>
      <trkpt lat="42.2404406033" lon="-7.7445194498">
        <ele>507.71</ele>
        <time>2020-08-14T06:18:31Z</time>
      </trkpt>
      <trkpt lat="42.2406877857" lon="-7.7449001558">
        <ele>506.27</ele>
        <time>2020-08-14T06:18:36Z</time>
      </trkpt>
      <trkpt lat="42.2407503985" lon="-7.7449659538">
        <ele>505.79</ele>
        <time>2020-08-14T06:18:37Z</time>
      </trkpt>
      <trkpt lat="42.2408142686" lon="-7.7450205199">
        <ele>505.79</ele>
        <time>2020-08-14T06:18:38Z</time>
      </trkpt>
      <trkpt lat="42.2408816591" lon="-7.7450681292">
        <ele>505.31</ele>
        <time>2020-08-14T06:18:39Z</time>
      </trkpt>
      <trkpt lat="42.2409498040" lon="-7.7451089490">
        <ele>505.31</ele>
        <time>2020-08-14T06:18:40Z</time>
      </trkpt>
      <trkpt lat="42.2416433226" lon="-7.7454370167">
        <ele>503.87</ele>
        <time>2020-08-14T06:18:50Z</time>
      </trkpt>
      <trkpt lat="42.2422582190" lon="-7.7456130367">
        <ele>501.46</ele>
        <time>2020-08-14T06:18:59Z</time>
      </trkpt>
      <trkpt lat="42.2423266154" lon="-7.7456453070">
        <ele>501.46</ele>
        <time>2020-08-14T06:19:00Z</time>
      </trkpt>
      <trkpt lat="42.2423941735" lon="-7.7456896473">
        <ele>500.98</ele>
        <time>2020-08-14T06:19:01Z</time>
      </trkpt>
      <trkpt lat="42.2428672481" lon="-7.7460584510">
        <ele>499.06</ele>
        <time>2020-08-14T06:19:09Z</time>
      </trkpt>
      <trkpt lat="42.2434817255" lon="-7.7465467807">
        <ele>497.62</ele>
        <time>2020-08-14T06:19:20Z</time>
      </trkpt>
      <trkpt lat="42.2439352702" lon="-7.7469257265">
        <ele>496.66</ele>
        <time>2020-08-14T06:19:29Z</time>
      </trkpt>
      <trkpt lat="42.2443898208" lon="-7.7472585719">
        <ele>494.74</ele>
        <time>2020-08-14T06:19:37Z</time>
      </trkpt>
      <trkpt lat="42.2448663320" lon="-7.7474455722">
        <ele>491.85</ele>
        <time>2020-08-14T06:19:44Z</time>
      </trkpt>
      <trkpt lat="42.2453632951" lon="-7.7476237714">
        <ele>488.49</ele>
        <time>2020-08-14T06:19:50Z</time>
      </trkpt>
      <trkpt lat="42.2457455099" lon="-7.7477024775">
        <ele>484.64</ele>
        <time>2020-08-14T06:19:55Z</time>
      </trkpt>
      <trkpt lat="42.2458177619" lon="-7.7476722188">
        <ele>483.68</ele>
        <time>2020-08-14T06:19:56Z</time>
      </trkpt>
      <trkpt lat="42.2458620183" lon="-7.7476249449">
        <ele>483.20</ele>
        <time>2020-08-14T06:19:57Z</time>
      </trkpt>
      <trkpt lat="42.2459031735" lon="-7.7475478314">
        <ele>482.24</ele>
        <time>2020-08-14T06:19:58Z</time>
      </trkpt>
      <trkpt lat="42.2459350247" lon="-7.7474549599">
        <ele>481.76</ele>
        <time>2020-08-14T06:19:59Z</time>
      </trkpt>
      <trkpt lat="42.2459677979" lon="-7.7473497670">
        <ele>480.80</ele>
        <time>2020-08-14T06:20:00Z</time>
      </trkpt>
      <trkpt lat="42.2461975459" lon="-7.7468700707">
        <ele>478.39</ele>
        <time>2020-08-14T06:20:05Z</time>
      </trkpt>
      <trkpt lat="42.2462575603" lon="-7.7468099725">
        <ele>478.39</ele>
        <time>2020-08-14T06:20:06Z</time>
      </trkpt>
      <trkpt lat="42.2463264596" lon="-7.7467662189">
        <ele>478.39</ele>
        <time>2020-08-14T06:20:07Z</time>
      </trkpt>
      <trkpt lat="42.2463970352" lon="-7.7467435040">
        <ele>478.39</ele>
        <time>2020-08-14T06:20:08Z</time>
      </trkpt>
      <trkpt lat="42.2464671917" lon="-7.7467400674">
        <ele>478.39</ele>
        <time>2020-08-14T06:20:09Z</time>
      </trkpt>
      <trkpt lat="42.2465329897" lon="-7.7467627823">
        <ele>477.91</ele>
        <time>2020-08-14T06:20:10Z</time>
      </trkpt>
      <trkpt lat="42.2465892322" lon="-7.7468100563">
        <ele>477.91</ele>
        <time>2020-08-14T06:20:11Z</time>
      </trkpt>
      <trkpt lat="42.2466362547" lon="-7.7468728367">
        <ele>477.91</ele>
        <time>2020-08-14T06:20:12Z</time>
      </trkpt>
      <trkpt lat="42.2466788348" lon="-7.7469435800">
        <ele>477.43</ele>
        <time>2020-08-14T06:20:13Z</time>
      </trkpt>
      <trkpt lat="42.2471023723" lon="-7.7476632502">
        <ele>475.03</ele>
        <time>2020-08-14T06:20:22Z</time>
      </trkpt>
      <trkpt lat="42.2476052865" lon="-7.7485261671">
        <ele>471.18</ele>
        <time>2020-08-14T06:20:31Z</time>
      </trkpt>
      <trkpt lat="42.2477316856" lon="-7.7487007622">
        <ele>471.18</ele>
        <time>2020-08-14T06:20:33Z</time>
      </trkpt>
      <trkpt lat="42.2481641918" lon="-7.7491689753">
        <ele>470.70</ele>
        <time>2020-08-14T06:20:40Z</time>
      </trkpt>
      <trkpt lat="42.2484265454" lon="-7.7494618390">
        <ele>470.22</ele>
        <time>2020-08-14T06:20:46Z</time>
      </trkpt>
      <trkpt lat="42.2488222551" lon="-7.7499278728">
        <ele>469.74</ele>
        <time>2020-08-14T06:20:58Z</time>
      </trkpt>
      <trkpt lat="42.2491784021" lon="-7.7504303679">
        <ele>467.82</ele>
        <time>2020-08-14T06:21:08Z</time>
      </trkpt>
      <trkpt lat="42.2495782189" lon="-7.7509740181">
        <ele>467.34</ele>
        <time>2020-08-14T06:21:18Z</time>
      </trkpt>
      <trkpt lat="42.2498502955" lon="-7.7513125632">
        <ele>467.82</ele>
        <time>2020-08-14T06:21:26Z</time>
      </trkpt>
      <trkpt lat="42.2499599308" lon="-7.7514796145">
        <ele>467.82</ele>
        <time>2020-08-14T06:21:30Z</time>
      </trkpt>
      <trkpt lat="42.2502263915" lon="-7.7519361768">
        <ele>466.86</ele>
        <time>2020-08-14T06:21:39Z</time>
      </trkpt>
      <trkpt lat="42.2504071891" lon="-7.7522282023">
        <ele>467.82</ele>
        <time>2020-08-14T06:21:45Z</time>
      </trkpt>
      <trkpt lat="42.2506487556" lon="-7.7525597066">
        <ele>469.74</ele>
        <time>2020-08-14T06:21:54Z</time>
      </trkpt>
      <trkpt lat="42.2508477420" lon="-7.7528132591">
        <ele>471.18</ele>
        <time>2020-08-14T06:22:02Z</time>
      </trkpt>
      <trkpt lat="42.2510661744" lon="-7.7529574279">
        <ele>472.14</ele>
        <time>2020-08-14T06:22:09Z</time>
      </trkpt>
      <trkpt lat="42.2513079084" lon="-7.7530439291">
        <ele>472.63</ele>
        <time>2020-08-14T06:22:17Z</time>
      </trkpt>
      <trkpt lat="42.2514374927" lon="-7.7531301789">
        <ele>471.66</ele>
        <time>2020-08-14T06:22:20Z</time>
      </trkpt>
      <trkpt lat="42.2514838446" lon="-7.7531758603">
        <ele>471.18</ele>
        <time>2020-08-14T06:22:21Z</time>
      </trkpt>
      <trkpt lat="42.2515258379" lon="-7.7532290854">
        <ele>470.70</ele>
        <time>2020-08-14T06:22:22Z</time>
      </trkpt>
      <trkpt lat="42.2515682504" lon="-7.7532943804">
        <ele>470.22</ele>
        <time>2020-08-14T06:22:23Z</time>
      </trkpt>
      <trkpt lat="42.2516081482" lon="-7.7533674706">
        <ele>469.74</ele>
        <time>2020-08-14T06:22:24Z</time>
      </trkpt>
      <trkpt lat="42.2516437713" lon="-7.7534460928">
        <ele>469.26</ele>
        <time>2020-08-14T06:22:25Z</time>
      </trkpt>
      <trkpt lat="42.2516796459" lon="-7.7535355277">
        <ele>468.30</ele>
        <time>2020-08-14T06:22:26Z</time>
      </trkpt>
      <trkpt lat="42.2517175321" lon="-7.7536357753">
        <ele>467.82</ele>
        <time>2020-08-14T06:22:27Z</time>
      </trkpt>
      <trkpt lat="42.2518922947" lon="-7.7540879790">
        <ele>464.45</ele>
        <time>2020-08-14T06:22:32Z</time>
      </trkpt>
      <trkpt lat="42.2519397363" lon="-7.7541649248">
        <ele>463.97</ele>
        <time>2020-08-14T06:22:33Z</time>
      </trkpt>
      <trkpt lat="42.2519887704" lon="-7.7542238496">
        <ele>463.49</ele>
        <time>2020-08-14T06:22:34Z</time>
      </trkpt>
      <trkpt lat="42.2520507965" lon="-7.7542793378">
        <ele>462.53</ele>
        <time>2020-08-14T06:22:35Z</time>
      </trkpt>
      <trkpt lat="42.2521072067" lon="-7.7543183975">
        <ele>462.05</ele>
        <time>2020-08-14T06:22:36Z</time>
      </trkpt>
      <trkpt lat="42.2521694005" lon="-7.7543632407">
        <ele>461.57</ele>
        <time>2020-08-14T06:22:37Z</time>
      </trkpt>
      <trkpt lat="42.2522206139" lon="-7.7544135321">
        <ele>461.09</ele>
        <time>2020-08-14T06:22:38Z</time>
      </trkpt>
      <trkpt lat="42.2522630263" lon="-7.7544758935">
        <ele>460.13</ele>
        <time>2020-08-14T06:22:39Z</time>
      </trkpt>
      <trkpt lat="42.2522927821" lon="-7.7545504924">
        <ele>459.65</ele>
        <time>2020-08-14T06:22:40Z</time>
      </trkpt>
      <trkpt lat="42.2523066960" lon="-7.7546228282">
        <ele>458.69</ele>
        <time>2020-08-14T06:22:41Z</time>
      </trkpt>
      <trkpt lat="42.2523085400" lon="-7.7546996064">
        <ele>458.21</ele>
        <time>2020-08-14T06:22:42Z</time>
      </trkpt>
      <trkpt lat="42.2522997390" lon="-7.7547758818">
        <ele>457.72</ele>
        <time>2020-08-14T06:22:43Z</time>
      </trkpt>
      <trkpt lat="42.2522859089" lon="-7.7548534144">
        <ele>457.24</ele>
        <time>2020-08-14T06:22:44Z</time>
      </trkpt>
      <trkpt lat="42.2522601765" lon="-7.7550720144">
        <ele>456.76</ele>
        <time>2020-08-14T06:22:47Z</time>
      </trkpt>
      <trkpt lat="42.2522755992" lon="-7.7551376447">
        <ele>456.28</ele>
        <time>2020-08-14T06:22:48Z</time>
      </trkpt>
      <trkpt lat="42.2523184307" lon="-7.7552035265">
        <ele>455.80</ele>
        <time>2020-08-14T06:22:49Z</time>
      </trkpt>
      <trkpt lat="42.2523553111" lon="-7.7552437596">
        <ele>455.80</ele>
        <time>2020-08-14T06:22:50Z</time>
      </trkpt>
      <trkpt lat="42.2524092905" lon="-7.7552978229">
        <ele>455.32</ele>
        <time>2020-08-14T06:22:51Z</time>
      </trkpt>
      <trkpt lat="42.2529039904" lon="-7.7557807881">
        <ele>450.52</ele>
        <time>2020-08-14T06:22:59Z</time>
      </trkpt>
      <trkpt lat="42.2530942596" lon="-7.7560069319">
        <ele>448.59</ele>
        <time>2020-08-14T06:23:02Z</time>
      </trkpt>
      <trkpt lat="42.2531434614" lon="-7.7560985461">
        <ele>447.63</ele>
        <time>2020-08-14T06:23:03Z</time>
      </trkpt>
      <trkpt lat="42.2531847842" lon="-7.7561958600">
        <ele>447.15</ele>
        <time>2020-08-14T06:23:04Z</time>
      </trkpt>
      <trkpt lat="42.2532209102" lon="-7.7563009690">
        <ele>446.67</ele>
        <time>2020-08-14T06:23:05Z</time>
      </trkpt>
      <trkpt lat="42.2532551084" lon="-7.7564114425">
        <ele>445.71</ele>
        <time>2020-08-14T06:23:06Z</time>
      </trkpt>
      <trkpt lat="42.2535535041" lon="-7.7574594319">
        <ele>439.46</ele>
        <time>2020-08-14T06:23:15Z</time>
      </trkpt>
      <trkpt lat="42.2537708469" lon="-7.7583773341">
        <ele>435.13</ele>
        <time>2020-08-14T06:23:23Z</time>
      </trkpt>
      <trkpt lat="42.2537700925" lon="-7.7584800962">
        <ele>435.13</ele>
        <time>2020-08-14T06:23:24Z</time>
      </trkpt>
      <trkpt lat="42.2537550051" lon="-7.7585790027">
        <ele>434.65</ele>
        <time>2020-08-14T06:23:25Z</time>
      </trkpt>
      <trkpt lat="42.2537249140" lon="-7.7586909849">
        <ele>434.17</ele>
        <time>2020-08-14T06:23:26Z</time>
      </trkpt>
      <trkpt lat="42.2536890395" lon="-7.7587936632">
        <ele>433.21</ele>
        <time>2020-08-14T06:23:27Z</time>
      </trkpt>
      <trkpt lat="42.2536555957" lon="-7.7588706091">
        <ele>432.73</ele>
        <time>2020-08-14T06:23:28Z</time>
      </trkpt>
      <trkpt lat="42.2536163684" lon="-7.7589503210">
        <ele>432.25</ele>
        <time>2020-08-14T06:23:29Z</time>
      </trkpt>
      <trkpt lat="42.2535710223" lon="-7.7590393368">
        <ele>431.77</ele>
        <time>2020-08-14T06:23:30Z</time>
      </trkpt>
      <trkpt lat="42.2533333115" lon="-7.7596554067">
        <ele>427.92</ele>
        <time>2020-08-14T06:23:36Z</time>
      </trkpt>
      <trkpt lat="42.2531702835" lon="-7.7605648432">
        <ele>423.60</ele>
        <time>2020-08-14T06:23:44Z</time>
      </trkpt>
      <trkpt lat="42.2531795036" lon="-7.7606867161">
        <ele>423.12</ele>
        <time>2020-08-14T06:23:45Z</time>
      </trkpt>
      <trkpt lat="42.2531957645" lon="-7.7607946750">
        <ele>422.64</ele>
        <time>2020-08-14T06:23:46Z</time>
      </trkpt>
      <trkpt lat="42.2532172222" lon="-7.7609039750">
        <ele>422.16</ele>
        <time>2020-08-14T06:23:47Z</time>
      </trkpt>
      <trkpt lat="42.2532346565" lon="-7.7609799989">
        <ele>421.68</ele>
        <time>2020-08-14T06:23:48Z</time>
      </trkpt>
      <trkpt lat="42.2534259316" lon="-7.7618253138">
        <ele>416.39</ele>
        <time>2020-08-14T06:23:57Z</time>
      </trkpt>
      <trkpt lat="42.2536418494" lon="-7.7628023084">
        <ele>410.14</ele>
        <time>2020-08-14T06:24:06Z</time>
      </trkpt>
      <trkpt lat="42.2536835913" lon="-7.7630291227">
        <ele>409.18</ele>
        <time>2020-08-14T06:24:08Z</time>
      </trkpt>
      <trkpt lat="42.2536912188" lon="-7.7631449606">
        <ele>408.22</ele>
        <time>2020-08-14T06:24:09Z</time>
      </trkpt>
      <trkpt lat="42.2536886204" lon="-7.7632632293">
        <ele>407.74</ele>
        <time>2020-08-14T06:24:10Z</time>
      </trkpt>
      <trkpt lat="42.2536778916" lon="-7.7633924782">
        <ele>406.77</ele>
        <time>2020-08-14T06:24:11Z</time>
      </trkpt>
      <trkpt lat="42.2536617983" lon="-7.7635152731">
        <ele>406.29</ele>
        <time>2020-08-14T06:24:12Z</time>
      </trkpt>
      <trkpt lat="42.2535422724" lon="-7.7642456722">
        <ele>403.41</ele>
        <time>2020-08-14T06:24:18Z</time>
      </trkpt>
      <trkpt lat="42.2535393387" lon="-7.7643643599">
        <ele>402.93</ele>
        <time>2020-08-14T06:24:19Z</time>
      </trkpt>
      <trkpt lat="42.2535442002" lon="-7.7644751687">
        <ele>402.45</ele>
        <time>2020-08-14T06:24:20Z</time>
      </trkpt>
      <trkpt lat="42.2535612155" lon="-7.7645832952">
        <ele>401.97</ele>
        <time>2020-08-14T06:24:21Z</time>
      </trkpt>
      <trkpt lat="42.2535915580" lon="-7.7646875661">
        <ele>401.49</ele>
        <time>2020-08-14T06:24:22Z</time>
      </trkpt>
      <trkpt lat="42.2536345571" lon="-7.7647978719">
        <ele>401.01</ele>
        <time>2020-08-14T06:24:23Z</time>
      </trkpt>
      <trkpt lat="42.2536807414" lon="-7.7649033163">
        <ele>400.05</ele>
        <time>2020-08-14T06:24:24Z</time>
      </trkpt>
      <trkpt lat="42.2540446837" lon="-7.7656827495">
        <ele>396.68</ele>
        <time>2020-08-14T06:24:31Z</time>
      </trkpt>
      <trkpt lat="42.2543275729" lon="-7.7665717341">
        <ele>396.20</ele>
        <time>2020-08-14T06:24:39Z</time>
      </trkpt>
      <trkpt lat="42.2544947919" lon="-7.7670825273">
        <ele>395.72</ele>
        <time>2020-08-14T06:24:45Z</time>
      </trkpt>
      <trkpt lat="42.2545552254" lon="-7.7672252711">
        <ele>395.72</ele>
        <time>2020-08-14T06:24:49Z</time>
      </trkpt>
      <trkpt lat="42.2545771860" lon="-7.7672286239">
        <ele>395.24</ele>
        <time>2020-08-14T06:24:55Z</time>
      </trkpt>
      <trkpt lat="42.2545672953" lon="-7.7672202419">
        <ele>395.24</ele>
        <time>2020-08-14T06:25:03Z</time>
      </trkpt>
      <trkpt lat="42.2545651160" lon="-7.7672246844">
        <ele>396.68</ele>
        <time>2020-08-14T06:25:27Z</time>
      </trkpt>
      <trkpt lat="42.2545575723" lon="-7.7672183979">
        <ele>395.72</ele>
        <time>2020-08-14T06:25:39Z</time>
      </trkpt>
      <trkpt lat="42.2545561474" lon="-7.7672141232">
        <ele>395.24</ele>
        <time>2020-08-14T06:25:47Z</time>
      </trkpt>
      <trkpt lat="42.2545581590" lon="-7.7672256902">
        <ele>395.24</ele>
        <time>2020-08-14T06:25:56Z</time>
      </trkpt>
      <trkpt lat="42.2545624338" lon="-7.7672463097">
        <ele>395.24</ele>
        <time>2020-08-14T06:25:57Z</time>
      </trkpt>
      <trkpt lat="42.2545695584" lon="-7.7672653366">
        <ele>395.24</ele>
        <time>2020-08-14T06:25:58Z</time>
      </trkpt>
      <trkpt lat="42.2546518687" lon="-7.7674652450">
        <ele>395.24</ele>
        <time>2020-08-14T06:26:04Z</time>
      </trkpt>
      <trkpt lat="42.2548757493" lon="-7.7679957356">
        <ele>394.28</ele>
        <time>2020-08-14T06:26:15Z</time>
      </trkpt>
      <trkpt lat="42.2551454790" lon="-7.7685361169">
        <ele>392.84</ele>
        <time>2020-08-14T06:26:25Z</time>
      </trkpt>
      <trkpt lat="42.2555212397" lon="-7.7691189945">
        <ele>391.39</ele>
        <time>2020-08-14T06:26:35Z</time>
      </trkpt>
      <trkpt lat="42.2558606230" lon="-7.7696043905">
        <ele>390.91</ele>
        <time>2020-08-14T06:26:44Z</time>
      </trkpt>
      <trkpt lat="42.2561423387" lon="-7.7700088173">
        <ele>391.87</ele>
        <time>2020-08-14T06:26:53Z</time>
      </trkpt>
      <trkpt lat="42.2564643715" lon="-7.7705180179">
        <ele>392.84</ele>
        <time>2020-08-14T06:27:04Z</time>
      </trkpt>
      <trkpt lat="42.2566611785" lon="-7.7710081916">
        <ele>392.36</ele>
        <time>2020-08-14T06:27:13Z</time>
      </trkpt>
      <trkpt lat="42.2568825446" lon="-7.7716092579">
        <ele>388.51</ele>
        <time>2020-08-14T06:27:21Z</time>
      </trkpt>
      <trkpt lat="42.2570297308" lon="-7.7720075659">
        <ele>385.15</ele>
        <time>2020-08-14T06:27:27Z</time>
      </trkpt>
      <trkpt lat="42.2572104447" lon="-7.7725041937">
        <ele>382.26</ele>
        <time>2020-08-14T06:27:33Z</time>
      </trkpt>
      <trkpt lat="42.2575563658" lon="-7.7734259516">
        <ele>377.94</ele>
        <time>2020-08-14T06:27:42Z</time>
      </trkpt>
      <trkpt lat="42.2579742875" lon="-7.7744261641">
        <ele>375.05</ele>
        <time>2020-08-14T06:27:52Z</time>
      </trkpt>
      <trkpt lat="42.2584384773" lon="-7.7750676312">
        <ele>372.65</ele>
        <time>2020-08-14T06:28:00Z</time>
      </trkpt>
      <trkpt lat="42.2587157506" lon="-7.7756443899">
        <ele>371.21</ele>
        <time>2020-08-14T06:28:06Z</time>
      </trkpt>
      <trkpt lat="42.2590326704" lon="-7.7763373218">
        <ele>370.24</ele>
        <time>2020-08-14T06:28:14Z</time>
      </trkpt>
      <trkpt lat="42.2594211716" lon="-7.7771921083">
        <ele>368.80</ele>
        <time>2020-08-14T06:28:25Z</time>
      </trkpt>
      <trkpt lat="42.2596476506" lon="-7.7777402010">
        <ele>368.32</ele>
        <time>2020-08-14T06:28:33Z</time>
      </trkpt>
      <trkpt lat="42.2598275263" lon="-7.7782940771">
        <ele>368.32</ele>
        <time>2020-08-14T06:28:42Z</time>
      </trkpt>
      <trkpt lat="42.2600052226" lon="-7.7788635436">
        <ele>367.36</ele>
        <time>2020-08-14T06:28:51Z</time>
      </trkpt>
      <trkpt lat="42.2601610422" lon="-7.7793135680">
        <ele>365.44</ele>
        <time>2020-08-14T06:28:59Z</time>
      </trkpt>
      <trkpt lat="42.2603700869" lon="-7.7798515186">
        <ele>364.00</ele>
        <time>2020-08-14T06:29:08Z</time>
      </trkpt>
      <trkpt lat="42.2605531476" lon="-7.7803102601">
        <ele>362.07</ele>
        <time>2020-08-14T06:29:15Z</time>
      </trkpt>
      <trkpt lat="42.2608293314" lon="-7.7810127474">
        <ele>360.63</ele>
        <time>2020-08-14T06:29:25Z</time>
      </trkpt>
      <trkpt lat="42.2611215245" lon="-7.7817601617">
        <ele>358.71</ele>
        <time>2020-08-14T06:29:36Z</time>
      </trkpt>
      <trkpt lat="42.2613151465" lon="-7.7822422888">
        <ele>356.79</ele>
        <time>2020-08-14T06:29:44Z</time>
      </trkpt>
      <trkpt lat="42.2615412064" lon="-7.7827903815">
        <ele>356.31</ele>
        <time>2020-08-14T06:29:53Z</time>
      </trkpt>
      <trkpt lat="42.2617117781" lon="-7.7832280006">
        <ele>355.83</ele>
        <time>2020-08-14T06:30:00Z</time>
      </trkpt>
      <trkpt lat="42.2619817592" lon="-7.7839222737">
        <ele>355.34</ele>
        <time>2020-08-14T06:30:10Z</time>
      </trkpt>
      <trkpt lat="42.2621405963" lon="-7.7844208293">
        <ele>354.38</ele>
        <time>2020-08-14T06:30:16Z</time>
      </trkpt>
      <trkpt lat="42.2621510737" lon="-7.7845214121">
        <ele>353.90</ele>
        <time>2020-08-14T06:30:17Z</time>
      </trkpt>
      <trkpt lat="42.2621530853" lon="-7.7846254315">
        <ele>353.90</ele>
        <time>2020-08-14T06:30:18Z</time>
      </trkpt>
      <trkpt lat="42.2621478885" lon="-7.7847318817">
        <ele>353.42</ele>
        <time>2020-08-14T06:30:19Z</time>
      </trkpt>
      <trkpt lat="42.2621372435" lon="-7.7848393377">
        <ele>353.42</ele>
        <time>2020-08-14T06:30:20Z</time>
      </trkpt>
      <trkpt lat="42.2621206474" lon="-7.7849451173">
        <ele>352.94</ele>
        <time>2020-08-14T06:30:21Z</time>
      </trkpt>
      <trkpt lat="42.2621017043" lon="-7.7850500587">
        <ele>352.94</ele>
        <time>2020-08-14T06:30:22Z</time>
      </trkpt>
      <trkpt lat="42.2619337309" lon="-7.7859663684">
        <ele>352.94</ele>
        <time>2020-08-14T06:30:31Z</time>
      </trkpt>
      <trkpt lat="42.2619276121" lon="-7.7862645965">
        <ele>352.46</ele>
        <time>2020-08-14T06:30:34Z</time>
      </trkpt>
      <trkpt lat="42.2619450465" lon="-7.7863697056">
        <ele>352.46</ele>
        <time>2020-08-14T06:30:35Z</time>
      </trkpt>
      <trkpt lat="42.2619655821" lon="-7.7864513453">
        <ele>352.46</ele>
        <time>2020-08-14T06:30:36Z</time>
      </trkpt>
      <trkpt lat="42.2619952541" lon="-7.7865384333">
        <ele>352.46</ele>
        <time>2020-08-14T06:30:37Z</time>
      </trkpt>
      <trkpt lat="42.2620285302" lon="-7.7866178937">
        <ele>351.98</ele>
        <time>2020-08-14T06:30:38Z</time>
      </trkpt>
      <trkpt lat="42.2620648239" lon="-7.7866966836">
        <ele>351.98</ele>
        <time>2020-08-14T06:30:39Z</time>
      </trkpt>
      <trkpt lat="42.2624629643" lon="-7.7874908689">
        <ele>350.06</ele>
        <time>2020-08-14T06:30:50Z</time>
      </trkpt>
      <trkpt lat="42.2627619468" lon="-7.7881306596">
        <ele>349.58</ele>
        <time>2020-08-14T06:31:00Z</time>
      </trkpt>
      <trkpt lat="42.2629445884" lon="-7.7887056582">
        <ele>349.10</ele>
        <time>2020-08-14T06:31:09Z</time>
      </trkpt>
      <trkpt lat="42.2631409764" lon="-7.7893232368">
        <ele>348.13</ele>
        <time>2020-08-14T06:31:19Z</time>
      </trkpt>
      <trkpt lat="42.2633440699" lon="-7.7899668831">
        <ele>348.13</ele>
        <time>2020-08-14T06:31:30Z</time>
      </trkpt>
      <trkpt lat="42.2636164818" lon="-7.7907657623">
        <ele>348.13</ele>
        <time>2020-08-14T06:31:43Z</time>
      </trkpt>
      <trkpt lat="42.2639100999" lon="-7.7914244961">
        <ele>347.65</ele>
        <time>2020-08-14T06:31:55Z</time>
      </trkpt>
      <trkpt lat="42.2641724534" lon="-7.7919942979">
        <ele>347.17</ele>
        <time>2020-08-14T06:32:06Z</time>
      </trkpt>
      <trkpt lat="42.2643744573" lon="-7.7924479265">
        <ele>346.69</ele>
        <time>2020-08-14T06:32:15Z</time>
      </trkpt>
      <trkpt lat="42.2645945661" lon="-7.7928850427">
        <ele>346.21</ele>
        <time>2020-08-14T06:32:23Z</time>
      </trkpt>
      <trkpt lat="42.2648725938" lon="-7.7933260147">
        <ele>346.69</ele>
        <time>2020-08-14T06:32:32Z</time>
      </trkpt>
      <trkpt lat="42.2651023418" lon="-7.7937908750">
        <ele>347.65</ele>
        <time>2020-08-14T06:32:41Z</time>
      </trkpt>
      <trkpt lat="42.2651560698" lon="-7.7939560823">
        <ele>347.65</ele>
        <time>2020-08-14T06:32:44Z</time>
      </trkpt>
      <trkpt lat="42.2652567364" lon="-7.7945170831">
        <ele>348.62</ele>
        <time>2020-08-14T06:32:54Z</time>
      </trkpt>
      <trkpt lat="42.2653509490" lon="-7.7951975260">
        <ele>349.58</ele>
        <time>2020-08-14T06:33:06Z</time>
      </trkpt>
      <trkpt lat="42.2654228657" lon="-7.7958605345">
        <ele>349.10</ele>
        <time>2020-08-14T06:33:17Z</time>
      </trkpt>
      <trkpt lat="42.2654682118" lon="-7.7964145783">
        <ele>349.58</ele>
        <time>2020-08-14T06:33:26Z</time>
      </trkpt>
      <trkpt lat="42.2654441558" lon="-7.7970271278">
        <ele>349.58</ele>
        <time>2020-08-14T06:33:36Z</time>
      </trkpt>
      <trkpt lat="42.2653637733" lon="-7.7976143640">
        <ele>351.98</ele>
        <time>2020-08-14T06:33:47Z</time>
      </trkpt>
      <trkpt lat="42.2652781103" lon="-7.7980403323">
        <ele>352.94</ele>
        <time>2020-08-14T06:33:56Z</time>
      </trkpt>
      <trkpt lat="42.2651038505" lon="-7.7983858343">
        <ele>353.90</ele>
        <time>2020-08-14T06:34:04Z</time>
      </trkpt>
      <trkpt lat="42.2650631983" lon="-7.7984813042">
        <ele>353.90</ele>
        <time>2020-08-14T06:34:06Z</time>
      </trkpt>
      <trkpt lat="42.2650477756" lon="-7.7985314280">
        <ele>354.38</ele>
        <time>2020-08-14T06:34:07Z</time>
      </trkpt>
      <trkpt lat="42.2650125716" lon="-7.7986874152">
        <ele>354.86</ele>
        <time>2020-08-14T06:34:11Z</time>
      </trkpt>
      <trkpt lat="42.2650447581" lon="-7.7987031732">
        <ele>354.38</ele>
        <time>2020-08-14T06:34:17Z</time>
      </trkpt>
      <trkpt lat="42.2650333587" lon="-7.7987061907">
        <ele>353.42</ele>
        <time>2020-08-14T06:34:28Z</time>
      </trkpt>
      <trkpt lat="42.2650088836" lon="-7.7987040114">
        <ele>352.94</ele>
        <time>2020-08-14T06:34:47Z</time>
      </trkpt>
      <trkpt lat="42.2650374658" lon="-7.7987122256">
        <ele>352.94</ele>
        <time>2020-08-14T06:35:09Z</time>
      </trkpt>
      <trkpt lat="42.2650537267" lon="-7.7987067774">
        <ele>351.02</ele>
        <time>2020-08-14T06:35:24Z</time>
      </trkpt>
      <trkpt lat="42.2650419921" lon="-7.7986933663">
        <ele>351.02</ele>
        <time>2020-08-14T06:35:50Z</time>
      </trkpt>
      <trkpt lat="42.2650394775" lon="-7.7987185959">
        <ele>350.54</ele>
        <time>2020-08-14T06:36:07Z</time>
      </trkpt>
      <trkpt lat="42.2650204506" lon="-7.7987293247">
        <ele>350.54</ele>
        <time>2020-08-14T06:36:15Z</time>
      </trkpt>
      <trkpt lat="42.2650102247" lon="-7.7987452503">
        <ele>351.02</ele>
        <time>2020-08-14T06:36:22Z</time>
      </trkpt>
      <trkpt lat="42.2650059499" lon="-7.7987636905">
        <ele>351.02</ele>
        <time>2020-08-14T06:36:24Z</time>
      </trkpt>
      <trkpt lat="42.2650100570" lon="-7.7989349328">
        <ele>352.46</ele>
        <time>2020-08-14T06:36:30Z</time>
      </trkpt>
      <trkpt lat="42.2650441714" lon="-7.7992467396">
        <ele>352.94</ele>
        <time>2020-08-14T06:36:38Z</time>
      </trkpt>
      <trkpt lat="42.2651470173" lon="-7.7996108495">
        <ele>353.90</ele>
        <time>2020-08-14T06:36:47Z</time>
      </trkpt>
      <trkpt lat="42.2653183434" lon="-7.8000081517">
        <ele>355.83</ele>
        <time>2020-08-14T06:36:57Z</time>
      </trkpt>
      <trkpt lat="42.2654942796" lon="-7.8003745247">
        <ele>356.79</ele>
        <time>2020-08-14T06:37:06Z</time>
      </trkpt>
      <trkpt lat="42.2657873109" lon="-7.8009159956">
        <ele>357.27</ele>
        <time>2020-08-14T06:37:18Z</time>
      </trkpt>
      <trkpt lat="42.2658148035" lon="-7.8009645268">
        <ele>357.27</ele>
        <time>2020-08-14T06:37:19Z</time>
      </trkpt>
      <trkpt lat="42.2661037277" lon="-7.8014211729">
        <ele>355.83</ele>
        <time>2020-08-14T06:37:29Z</time>
      </trkpt>
      <trkpt lat="42.2664716095" lon="-7.8019202314">
        <ele>355.34</ele>
        <time>2020-08-14T06:37:39Z</time>
      </trkpt>
      <trkpt lat="42.2666964959" lon="-7.8021828365">
        <ele>355.83</ele>
        <time>2020-08-14T06:37:45Z</time>
      </trkpt>
      <trkpt lat="42.2670042794" lon="-7.8025054559">
        <ele>354.86</ele>
        <time>2020-08-14T06:37:53Z</time>
      </trkpt>
      <trkpt lat="42.2673699819" lon="-7.8028221242">
        <ele>353.90</ele>
        <time>2020-08-14T06:38:02Z</time>
      </trkpt>
      <trkpt lat="42.2677213512" lon="-7.8031778522">
        <ele>353.42</ele>
        <time>2020-08-14T06:38:11Z</time>
      </trkpt>
      <trkpt lat="42.2679889854" lon="-7.8036154713">
        <ele>353.42</ele>
        <time>2020-08-14T06:38:20Z</time>
      </trkpt>
      <trkpt lat="42.2682235949" lon="-7.8041148651">
        <ele>353.42</ele>
        <time>2020-08-14T06:38:29Z</time>
      </trkpt>
      <trkpt lat="42.2686137725" lon="-7.8048080485">
        <ele>352.94</ele>
        <time>2020-08-14T06:38:42Z</time>
      </trkpt>
      <trkpt lat="42.2689306084" lon="-7.8052423988">
        <ele>353.42</ele>
        <time>2020-08-14T06:38:51Z</time>
      </trkpt>
      <trkpt lat="42.2693921160" lon="-7.8057716321">
        <ele>352.46</ele>
        <time>2020-08-14T06:39:03Z</time>
      </trkpt>
      <trkpt lat="42.2697409708" lon="-7.8062049765">
        <ele>352.46</ele>
        <time>2020-08-14T06:39:12Z</time>
      </trkpt>
      <trkpt lat="42.2700918373" lon="-7.8068135865">
        <ele>352.46</ele>
        <time>2020-08-14T06:39:23Z</time>
      </trkpt>
      <trkpt lat="42.2703419533" lon="-7.8073785268">
        <ele>351.98</ele>
        <time>2020-08-14T06:39:34Z</time>
      </trkpt>
      <trkpt lat="42.2705696058" lon="-7.8079655953">
        <ele>350.06</ele>
        <time>2020-08-14T06:39:45Z</time>
      </trkpt>
      <trkpt lat="42.2707686760" lon="-7.8083965927">
        <ele>348.62</ele>
        <time>2020-08-14T06:39:52Z</time>
      </trkpt>
      <trkpt lat="42.2708084900" lon="-7.8084516618">
        <ele>348.62</ele>
        <time>2020-08-14T06:39:53Z</time>
      </trkpt>
      <trkpt lat="42.2712509707" lon="-7.8089389019">
        <ele>347.17</ele>
        <time>2020-08-14T06:40:02Z</time>
      </trkpt>
      <trkpt lat="42.2717595845" lon="-7.8093935363">
        <ele>346.21</ele>
        <time>2020-08-14T06:40:12Z</time>
      </trkpt>
      <trkpt lat="42.2718163300" lon="-7.8094362002">
        <ele>346.69</ele>
        <time>2020-08-14T06:40:13Z</time>
      </trkpt>
      <trkpt lat="42.2721428890" lon="-7.8097304050">
        <ele>346.69</ele>
        <time>2020-08-14T06:40:19Z</time>
      </trkpt>
      <trkpt lat="42.2724393569" lon="-7.8101198282">
        <ele>345.25</ele>
        <time>2020-08-14T06:40:26Z</time>
      </trkpt>
      <trkpt lat="42.2727632336" lon="-7.8105640691">
        <ele>343.81</ele>
        <time>2020-08-14T06:40:35Z</time>
      </trkpt>
      <trkpt lat="42.2730339691" lon="-7.8110057954">
        <ele>341.89</ele>
        <time>2020-08-14T06:40:43Z</time>
      </trkpt>
      <trkpt lat="42.2733016871" lon="-7.8114447556">
        <ele>339.96</ele>
        <time>2020-08-14T06:40:51Z</time>
      </trkpt>
      <trkpt lat="42.2736215405" lon="-7.8119843826">
        <ele>338.04</ele>
        <time>2020-08-14T06:41:00Z</time>
      </trkpt>
      <trkpt lat="42.2740231175" lon="-7.8126104269">
        <ele>336.12</ele>
        <time>2020-08-14T06:41:10Z</time>
      </trkpt>
      <trkpt lat="42.2744288016" lon="-7.8132904507">
        <ele>334.68</ele>
        <time>2020-08-14T06:41:20Z</time>
      </trkpt>
      <trkpt lat="42.2747593839" lon="-7.8139076103">
        <ele>332.75</ele>
        <time>2020-08-14T06:41:29Z</time>
      </trkpt>
      <trkpt lat="42.2749560233" lon="-7.8145939205">
        <ele>330.35</ele>
        <time>2020-08-14T06:41:38Z</time>
      </trkpt>
      <trkpt lat="42.2751980927" lon="-7.8151657339">
        <ele>327.47</ele>
        <time>2020-08-14T06:41:45Z</time>
      </trkpt>
      <trkpt lat="42.2753413394" lon="-7.8153853398">
        <ele>326.02</ele>
        <time>2020-08-14T06:41:48Z</time>
      </trkpt>
      <trkpt lat="42.2753902059" lon="-7.8154326975">
        <ele>325.54</ele>
        <time>2020-08-14T06:41:49Z</time>
      </trkpt>
      <trkpt lat="42.2754989192" lon="-7.8155166004">
        <ele>324.58</ele>
        <time>2020-08-14T06:41:51Z</time>
      </trkpt>
      <trkpt lat="42.2755603585" lon="-7.8155486193">
        <ele>324.10</ele>
        <time>2020-08-14T06:41:52Z</time>
      </trkpt>
      <trkpt lat="42.2756246477" lon="-7.8155704960">
        <ele>323.62</ele>
        <time>2020-08-14T06:41:53Z</time>
      </trkpt>
      <trkpt lat="42.2760725766" lon="-7.8156287502">
        <ele>320.26</ele>
        <time>2020-08-14T06:41:59Z</time>
      </trkpt>
      <trkpt lat="42.2766487487" lon="-7.8156830650">
        <ele>318.33</ele>
        <time>2020-08-14T06:42:07Z</time>
      </trkpt>
      <trkpt lat="42.2772834264" lon="-7.8157512099">
        <ele>315.45</ele>
        <time>2020-08-14T06:42:17Z</time>
      </trkpt>
      <trkpt lat="42.2776338737" lon="-7.8158817161">
        <ele>313.53</ele>
        <time>2020-08-14T06:42:23Z</time>
      </trkpt>
      <trkpt lat="42.2780305054" lon="-7.8161827102">
        <ele>311.12</ele>
        <time>2020-08-14T06:42:30Z</time>
      </trkpt>
      <trkpt lat="42.2782471776" lon="-7.8163512703">
        <ele>310.16</ele>
        <time>2020-08-14T06:42:35Z</time>
      </trkpt>
      <trkpt lat="42.2786337510" lon="-7.8166386858">
        <ele>311.60</ele>
        <time>2020-08-14T06:42:43Z</time>
      </trkpt>
      <trkpt lat="42.2791789938" lon="-7.8170057293">
        <ele>309.68</ele>
        <time>2020-08-14T06:42:54Z</time>
      </trkpt>
      <trkpt lat="42.2797207162" lon="-7.8174267523">
        <ele>307.28</ele>
        <time>2020-08-14T06:43:04Z</time>
      </trkpt>
      <trkpt lat="42.2800752707" lon="-7.8177983221">
        <ele>305.36</ele>
        <time>2020-08-14T06:43:12Z</time>
      </trkpt>
      <trkpt lat="42.2805703059" lon="-7.8182811197">
        <ele>305.36</ele>
        <time>2020-08-14T06:43:23Z</time>
      </trkpt>
      <trkpt lat="42.2809521016" lon="-7.8186387755">
        <ele>306.32</ele>
        <time>2020-08-14T06:43:31Z</time>
      </trkpt>
      <trkpt lat="42.2812982742" lon="-7.8189362492">
        <ele>304.88</ele>
        <time>2020-08-14T06:43:40Z</time>
      </trkpt>
      <trkpt lat="42.2815517429" lon="-7.8191712778">
        <ele>303.91</ele>
        <time>2020-08-14T06:43:48Z</time>
      </trkpt>
      <trkpt lat="42.2818679083" lon="-7.8194820788">
        <ele>302.47</ele>
        <time>2020-08-14T06:43:56Z</time>
      </trkpt>
      <trkpt lat="42.2821800504" lon="-7.8197629564">
        <ele>301.99</ele>
        <time>2020-08-14T06:44:05Z</time>
      </trkpt>
      <trkpt lat="42.2825839743" lon="-7.8201174270">
        <ele>302.47</ele>
        <time>2020-08-14T06:44:15Z</time>
      </trkpt>
      <trkpt lat="42.2829663567" lon="-7.8204641864">
        <ele>302.47</ele>
        <time>2020-08-14T06:44:24Z</time>
      </trkpt>
      <trkpt lat="42.2832940891" lon="-7.8207622468">
        <ele>303.43</ele>
        <time>2020-08-14T06:44:32Z</time>
      </trkpt>
      <trkpt lat="42.2835969273" lon="-7.8210805077">
        <ele>303.91</ele>
        <time>2020-08-14T06:44:40Z</time>
      </trkpt>
      <trkpt lat="42.2839794774" lon="-7.8214859404">
        <ele>301.03</ele>
        <time>2020-08-14T06:44:49Z</time>
      </trkpt>
      <trkpt lat="42.2844057810" lon="-7.8221252281">
        <ele>298.15</ele>
        <time>2020-08-14T06:45:01Z</time>
      </trkpt>
      <trkpt lat="42.2847669572" lon="-7.8227816988">
        <ele>295.74</ele>
        <time>2020-08-14T06:45:13Z</time>
      </trkpt>
      <trkpt lat="42.2848305758" lon="-7.8228718042">
        <ele>295.74</ele>
        <time>2020-08-14T06:45:15Z</time>
      </trkpt>
      <trkpt lat="42.2848661989" lon="-7.8229097743">
        <ele>295.26</ele>
        <time>2020-08-14T06:45:16Z</time>
      </trkpt>
      <trkpt lat="42.2849077731" lon="-7.8229429666">
        <ele>295.26</ele>
        <time>2020-08-14T06:45:17Z</time>
      </trkpt>
      <trkpt lat="42.2849889938" lon="-7.8229995444">
        <ele>295.26</ele>
        <time>2020-08-14T06:45:19Z</time>
      </trkpt>
      <trkpt lat="42.2851608228" lon="-7.8230767418">
        <ele>294.78</ele>
        <time>2020-08-14T06:45:23Z</time>
      </trkpt>
      <trkpt lat="42.2852022294" lon="-7.8230873030">
        <ele>294.78</ele>
        <time>2020-08-14T06:45:24Z</time>
      </trkpt>
      <trkpt lat="42.2856028005" lon="-7.8231822699">
        <ele>296.70</ele>
        <time>2020-08-14T06:45:34Z</time>
      </trkpt>
      <trkpt lat="42.2859667428" lon="-7.8232837748">
        <ele>298.63</ele>
        <time>2020-08-14T06:45:43Z</time>
      </trkpt>
      <trkpt lat="42.2863612790" lon="-7.8233621456">
        <ele>299.59</ele>
        <time>2020-08-14T06:45:52Z</time>
      </trkpt>
      <trkpt lat="42.2867501993" lon="-7.8234308772">
        <ele>301.99</ele>
        <time>2020-08-14T06:46:01Z</time>
      </trkpt>
      <trkpt lat="42.2871879023" lon="-7.8235217370">
        <ele>307.28</ele>
        <time>2020-08-14T06:46:11Z</time>
      </trkpt>
      <trkpt lat="42.2876447160" lon="-7.8236090764">
        <ele>312.09</ele>
        <time>2020-08-14T06:46:22Z</time>
      </trkpt>
      <trkpt lat="42.2880685050" lon="-7.8236642294">
        <ele>312.09</ele>
        <time>2020-08-14T06:46:32Z</time>
      </trkpt>
      <trkpt lat="42.2884384822" lon="-7.8237513173">
        <ele>310.64</ele>
        <time>2020-08-14T06:46:42Z</time>
      </trkpt>
      <trkpt lat="42.2886038572" lon="-7.8238046262">
        <ele>309.68</ele>
        <time>2020-08-14T06:46:48Z</time>
      </trkpt>
      <trkpt lat="42.2886159271" lon="-7.8238008544">
        <ele>307.76</ele>
        <time>2020-08-14T06:46:54Z</time>
      </trkpt>
      <trkpt lat="42.2886222973" lon="-7.8237632196">
        <ele>304.39</ele>
        <time>2020-08-14T06:47:04Z</time>
      </trkpt>
      <trkpt lat="42.2886300087" lon="-7.8237534128">
        <ele>302.47</ele>
        <time>2020-08-14T06:47:11Z</time>
      </trkpt>
      <trkpt lat="42.2886347864" lon="-7.8237292729">
        <ele>301.99</ele>
        <time>2020-08-14T06:47:12Z</time>
      </trkpt>
      <trkpt lat="42.2886335291" lon="-7.8237095755">
        <ele>301.51</ele>
        <time>2020-08-14T06:47:13Z</time>
      </trkpt>
      <trkpt lat="42.2886010073" lon="-7.8236768860">
        <ele>301.03</ele>
        <time>2020-08-14T06:47:15Z</time>
      </trkpt>
      <trkpt lat="42.2885786276" lon="-7.8236748744">
        <ele>300.55</ele>
        <time>2020-08-14T06:47:16Z</time>
      </trkpt>
      <trkpt lat="42.2885646299" lon="-7.8236751258">
        <ele>300.07</ele>
        <time>2020-08-14T06:47:17Z</time>
      </trkpt>
      <trkpt lat="42.2884573415" lon="-7.8236609604">
        <ele>300.07</ele>
        <time>2020-08-14T06:47:23Z</time>
      </trkpt>
      <trkpt lat="42.2882575169" lon="-7.8236417659">
        <ele>299.59</ele>
        <time>2020-08-14T06:47:31Z</time>
      </trkpt>
      <trkpt lat="42.2882418428" lon="-7.8236631397">
        <ele>299.59</ele>
        <time>2020-08-14T06:47:32Z</time>
      </trkpt>
      <trkpt lat="42.2882313654" lon="-7.8237256687">
        <ele>299.11</ele>
        <time>2020-08-14T06:47:34Z</time>
      </trkpt>
      <trkpt lat="42.2882430162" lon="-7.8237466235">
        <ele>299.11</ele>
        <time>2020-08-14T06:47:35Z</time>
      </trkpt>
      <trkpt lat="42.2882665694" lon="-7.8237605374">
        <ele>299.11</ele>
        <time>2020-08-14T06:47:36Z</time>
      </trkpt>
      <trkpt lat="42.2882912960" lon="-7.8237690032">
        <ele>299.11</ele>
        <time>2020-08-14T06:47:37Z</time>
      </trkpt>
      <trkpt lat="42.2883150168" lon="-7.8237754572">
        <ele>298.63</ele>
        <time>2020-08-14T06:47:41Z</time>
      </trkpt>
      <trkpt lat="42.2883829940" lon="-7.8237984236">
        <ele>297.67</ele>
        <time>2020-08-14T06:47:49Z</time>
      </trkpt>
      <trkpt lat="42.2885270789" lon="-7.8238451108">
        <ele>294.78</ele>
        <time>2020-08-14T06:48:00Z</time>
      </trkpt>
      <trkpt lat="42.2885810584" lon="-7.8239048738">
        <ele>293.82</ele>
        <time>2020-08-14T06:48:08Z</time>
      </trkpt>
      <trkpt lat="42.2885891888" lon="-7.8239234816">
        <ele>293.82</ele>
        <time>2020-08-14T06:48:09Z</time>
      </trkpt>
      <trkpt lat="42.2885913681" lon="-7.8239387367">
        <ele>293.82</ele>
        <time>2020-08-14T06:48:10Z</time>
      </trkpt>
      <trkpt lat="42.2885923740" lon="-7.8239586856">
        <ele>293.82</ele>
        <time>2020-08-14T06:48:11Z</time>
      </trkpt>
      <trkpt lat="42.2885902785" lon="-7.8239763714">
        <ele>293.82</ele>
        <time>2020-08-14T06:48:12Z</time>
      </trkpt>
      <trkpt lat="42.2885875963" lon="-7.8239953145">
        <ele>294.30</ele>
        <time>2020-08-14T06:48:13Z</time>
      </trkpt>
      <trkpt lat="42.2885440942" lon="-7.8242149204">
        <ele>293.34</ele>
        <time>2020-08-14T06:48:24Z</time>
      </trkpt>
      <trkpt lat="42.2884938028" lon="-7.8244717419">
        <ele>295.26</ele>
        <time>2020-08-14T06:48:37Z</time>
      </trkpt>
      <trkpt lat="42.2885060403" lon="-7.8245271463">
        <ele>294.78</ele>
        <time>2020-08-14T06:48:41Z</time>
      </trkpt>
      <trkpt lat="42.2885843273" lon="-7.8245637752">
        <ele>294.30</ele>
        <time>2020-08-14T06:48:47Z</time>
      </trkpt>
      <trkpt lat="42.2885970678" lon="-7.8246422298">
        <ele>294.30</ele>
        <time>2020-08-14T06:48:53Z</time>
      </trkpt>
      <trkpt lat="42.2885946371" lon="-7.8246501088">
        <ele>294.30</ele>
        <time>2020-08-14T06:48:58Z</time>
      </trkpt>
      <trkpt lat="42.2885956429" lon="-7.8246589098">
        <ele>293.82</ele>
        <time>2020-08-14T06:49:09Z</time>
      </trkpt>
      <trkpt lat="42.2885535657" lon="-7.8248694632">
        <ele>293.82</ele>
        <time>2020-08-14T06:49:15Z</time>
      </trkpt>
      <trkpt lat="42.2884792183" lon="-7.8252676874">
        <ele>292.86</ele>
        <time>2020-08-14T06:49:23Z</time>
      </trkpt>
      <trkpt lat="42.2883625422" lon="-7.8258509003">
        <ele>291.90</ele>
        <time>2020-08-14T06:49:34Z</time>
      </trkpt>
      <trkpt lat="42.2882296052" lon="-7.8264934570">
        <ele>290.46</ele>
        <time>2020-08-14T06:49:45Z</time>
      </trkpt>
      <trkpt lat="42.2881206404" lon="-7.8270778432">
        <ele>289.01</ele>
        <time>2020-08-14T06:49:54Z</time>
      </trkpt>
      <trkpt lat="42.2880781442" lon="-7.8273999598">
        <ele>288.53</ele>
        <time>2020-08-14T06:50:00Z</time>
      </trkpt>
      <trkpt lat="42.2881555930" lon="-7.8275873791">
        <ele>287.57</ele>
        <time>2020-08-14T06:50:06Z</time>
      </trkpt>
      <trkpt lat="42.2881888691" lon="-7.8276815079">
        <ele>287.57</ele>
        <time>2020-08-14T06:50:08Z</time>
      </trkpt>
      <trkpt lat="42.2881951556" lon="-7.8277392592">
        <ele>287.57</ele>
        <time>2020-08-14T06:50:09Z</time>
      </trkpt>
      <trkpt lat="42.2881907970" lon="-7.8277934901">
        <ele>287.57</ele>
        <time>2020-08-14T06:50:10Z</time>
      </trkpt>
      <trkpt lat="42.2881762125" lon="-7.8278474696">
        <ele>287.57</ele>
        <time>2020-08-14T06:50:11Z</time>
      </trkpt>
      <trkpt lat="42.2881502286" lon="-7.8279017843">
        <ele>287.57</ele>
        <time>2020-08-14T06:50:12Z</time>
      </trkpt>
      <trkpt lat="42.2881163657" lon="-7.8279424366">
        <ele>287.57</ele>
        <time>2020-08-14T06:50:13Z</time>
      </trkpt>
      <trkpt lat="42.2880782280" lon="-7.8279732820">
        <ele>287.57</ele>
        <time>2020-08-14T06:50:14Z</time>
      </trkpt>
      <trkpt lat="42.2880375758" lon="-7.8280006070">
        <ele>287.57</ele>
        <time>2020-08-14T06:50:15Z</time>
      </trkpt>
      <trkpt lat="42.2879971750" lon="-7.8280312847">
        <ele>287.57</ele>
        <time>2020-08-14T06:50:16Z</time>
      </trkpt>
      <trkpt lat="42.2879617196" lon="-7.8280782234">
        <ele>287.57</ele>
        <time>2020-08-14T06:50:17Z</time>
      </trkpt>
      <trkpt lat="42.2879456263" lon="-7.8281373996">
        <ele>287.57</ele>
        <time>2020-08-14T06:50:18Z</time>
      </trkpt>
      <trkpt lat="42.2879407648" lon="-7.8281807341">
        <ele>287.09</ele>
        <time>2020-08-14T06:50:19Z</time>
      </trkpt>
      <trkpt lat="42.2879393399" lon="-7.8282309417">
        <ele>287.09</ele>
        <time>2020-08-14T06:50:20Z</time>
      </trkpt>
      <trkpt lat="42.2879421059" lon="-7.8282746114">
        <ele>286.61</ele>
        <time>2020-08-14T06:50:21Z</time>
      </trkpt>
      <trkpt lat="42.2879697662" lon="-7.8286285792">
        <ele>286.13</ele>
        <time>2020-08-14T06:50:29Z</time>
      </trkpt>
      <trkpt lat="42.2880793177" lon="-7.8289431520">
        <ele>285.17</ele>
        <time>2020-08-14T06:50:37Z</time>
      </trkpt>
      <trkpt lat="42.2881841753" lon="-7.8292987961">
        <ele>284.21</ele>
        <time>2020-08-14T06:50:46Z</time>
      </trkpt>
      <trkpt lat="42.2883672360" lon="-7.8297810070">
        <ele>283.25</ele>
        <time>2020-08-14T06:50:56Z</time>
      </trkpt>
      <trkpt lat="42.2886131611" lon="-7.8303606994">
        <ele>281.80</ele>
        <time>2020-08-14T06:51:07Z</time>
      </trkpt>
      <trkpt lat="42.2889052704" lon="-7.8310770169">
        <ele>282.28</ele>
        <time>2020-08-14T06:51:19Z</time>
      </trkpt>
      <trkpt lat="42.2891358566" lon="-7.8316972777">
        <ele>282.77</ele>
        <time>2020-08-14T06:51:29Z</time>
      </trkpt>
      <trkpt lat="42.2893863078" lon="-7.8322919738">
        <ele>281.80</ele>
        <time>2020-08-14T06:51:39Z</time>
      </trkpt>
      <trkpt lat="42.2897390183" lon="-7.8331352770">
        <ele>281.80</ele>
        <time>2020-08-14T06:51:53Z</time>
      </trkpt>
      <trkpt lat="42.2898962628" lon="-7.8335259575">
        <ele>281.32</ele>
        <time>2020-08-14T06:52:00Z</time>
      </trkpt>
      <trkpt lat="42.2899137810" lon="-7.8335754108">
        <ele>281.32</ele>
        <time>2020-08-14T06:52:01Z</time>
      </trkpt>
      <trkpt lat="42.2901201434" lon="-7.8340735473">
        <ele>280.36</ele>
        <time>2020-08-14T06:52:11Z</time>
      </trkpt>
      <trkpt lat="42.2903313674" lon="-7.8347293474">
        <ele>279.88</ele>
        <time>2020-08-14T06:52:23Z</time>
      </trkpt>
      <trkpt lat="42.2904151026" lon="-7.8353054356">
        <ele>280.84</ele>
        <time>2020-08-14T06:52:33Z</time>
      </trkpt>
      <trkpt lat="42.2904915456" lon="-7.8358513489">
        <ele>281.80</ele>
        <time>2020-08-14T06:52:43Z</time>
      </trkpt>
      <trkpt lat="42.2905318625" lon="-7.8360803425">
        <ele>281.80</ele>
        <time>2020-08-14T06:52:49Z</time>
      </trkpt>
      <trkpt lat="42.2905304376" lon="-7.8360876348">
        <ele>281.80</ele>
        <time>2020-08-14T06:52:57Z</time>
      </trkpt>
      <trkpt lat="42.2905156855" lon="-7.8360978607">
        <ele>283.73</ele>
        <time>2020-08-14T06:53:15Z</time>
      </trkpt>
      <trkpt lat="42.2905135900" lon="-7.8360930830">
        <ele>284.21</ele>
        <time>2020-08-14T06:53:26Z</time>
      </trkpt>
      <trkpt lat="42.2905137576" lon="-7.8360888921">
        <ele>284.69</ele>
        <time>2020-08-14T06:53:38Z</time>
      </trkpt>
      <trkpt lat="42.2905200440" lon="-7.8361459728">
        <ele>284.21</ele>
        <time>2020-08-14T06:53:45Z</time>
      </trkpt>
      <trkpt lat="42.2905415855" lon="-7.8362986073">
        <ele>285.17</ele>
        <time>2020-08-14T06:53:52Z</time>
      </trkpt>
      <trkpt lat="42.2905763704" lon="-7.8365437780">
        <ele>284.69</ele>
        <time>2020-08-14T06:53:59Z</time>
      </trkpt>
      <trkpt lat="42.2906225547" lon="-7.8368757013">
        <ele>286.13</ele>
        <time>2020-08-14T06:54:08Z</time>
      </trkpt>
      <trkpt lat="42.2906642128" lon="-7.8372357041">
        <ele>287.09</ele>
        <time>2020-08-14T06:54:19Z</time>
      </trkpt>
      <trkpt lat="42.2907093912" lon="-7.8375505283">
        <ele>288.05</ele>
        <time>2020-08-14T06:54:28Z</time>
      </trkpt>
      <trkpt lat="42.2907749377" lon="-7.8379071783">
        <ele>289.01</ele>
        <time>2020-08-14T06:54:39Z</time>
      </trkpt>
      <trkpt lat="42.2909175139" lon="-7.8382037301">
        <ele>291.42</ele>
        <time>2020-08-14T06:54:52Z</time>
      </trkpt>
      <trkpt lat="42.2910743393" lon="-7.8383836057">
        <ele>294.78</ele>
        <time>2020-08-14T06:55:02Z</time>
      </trkpt>
      <trkpt lat="42.2912558075" lon="-7.8385027125">
        <ele>296.22</ele>
        <time>2020-08-14T06:55:11Z</time>
      </trkpt>
      <trkpt lat="42.2914407123" lon="-7.8386243340">
        <ele>297.18</ele>
        <time>2020-08-14T06:55:21Z</time>
      </trkpt>
      <trkpt lat="42.2916338313" lon="-7.8387457039">
        <ele>298.15</ele>
        <time>2020-08-14T06:55:31Z</time>
      </trkpt>
      <trkpt lat="42.2918479051" lon="-7.8388849273">
        <ele>297.18</ele>
        <time>2020-08-14T06:55:42Z</time>
      </trkpt>
      <trkpt lat="42.2920350730" lon="-7.8390090633">
        <ele>297.67</ele>
        <time>2020-08-14T06:55:52Z</time>
      </trkpt>
      <trkpt lat="42.2922010347" lon="-7.8391146753">
        <ele>298.63</ele>
        <time>2020-08-14T06:56:01Z</time>
      </trkpt>
      <trkpt lat="42.2924088221" lon="-7.8392445110">
        <ele>300.07</ele>
        <time>2020-08-14T06:56:12Z</time>
      </trkpt>
      <trkpt lat="42.2925961576" lon="-7.8393776156">
        <ele>302.47</ele>
        <time>2020-08-14T06:56:23Z</time>
      </trkpt>
      <trkpt lat="42.2927849181" lon="-7.8395194374">
        <ele>303.43</ele>
        <time>2020-08-14T06:56:34Z</time>
      </trkpt>
      <trkpt lat="42.2929910291" lon="-7.8397340141">
        <ele>305.36</ele>
        <time>2020-08-14T06:56:47Z</time>
      </trkpt>
      <trkpt lat="42.2931554820" lon="-7.8399212658">
        <ele>307.28</ele>
        <time>2020-08-14T06:56:58Z</time>
      </trkpt>
      <trkpt lat="42.2933085356" lon="-7.8400811087">
        <ele>308.24</ele>
        <time>2020-08-14T06:57:08Z</time>
      </trkpt>
      <trkpt lat="42.2934380360" lon="-7.8402591404">
        <ele>309.20</ele>
        <time>2020-08-14T06:57:17Z</time>
      </trkpt>
      <trkpt lat="42.2935776785" lon="-7.8404453862">
        <ele>309.68</ele>
        <time>2020-08-14T06:57:27Z</time>
      </trkpt>
      <trkpt lat="42.2937549558" lon="-7.8405402694">
        <ele>311.12</ele>
        <time>2020-08-14T06:57:36Z</time>
      </trkpt>
      <trkpt lat="42.2939232644" lon="-7.8406170476">
        <ele>312.09</ele>
        <time>2020-08-14T06:57:45Z</time>
      </trkpt>
      <trkpt lat="42.2941546049" lon="-7.8407262638">
        <ele>313.05</ele>
        <time>2020-08-14T06:57:55Z</time>
      </trkpt>
      <trkpt lat="42.2944069840" lon="-7.8408815805">
        <ele>314.01</ele>
        <time>2020-08-14T06:58:05Z</time>
      </trkpt>
      <trkpt lat="42.2947020270" lon="-7.8411533218">
        <ele>313.05</ele>
        <time>2020-08-14T06:58:16Z</time>
      </trkpt>
      <trkpt lat="42.2950471938" lon="-7.8414941300">
        <ele>311.12</ele>
        <time>2020-08-14T06:58:27Z</time>
      </trkpt>
      <trkpt lat="42.2954175901" lon="-7.8418493550">
        <ele>308.72</ele>
        <time>2020-08-14T06:58:37Z</time>
      </trkpt>
      <trkpt lat="42.2955812886" lon="-7.8420050908">
        <ele>307.76</ele>
        <time>2020-08-14T06:58:41Z</time>
      </trkpt>
      <trkpt lat="42.2956203483" lon="-7.8420402110">
        <ele>307.28</ele>
        <time>2020-08-14T06:58:42Z</time>
      </trkpt>
      <trkpt lat="42.2959350049" lon="-7.8423593938">
        <ele>304.88</ele>
        <time>2020-08-14T06:58:50Z</time>
      </trkpt>
      <trkpt lat="42.2962681856" lon="-7.8426895570">
        <ele>301.03</ele>
        <time>2020-08-14T06:58:58Z</time>
      </trkpt>
      <trkpt lat="42.2966255900" lon="-7.8430516552">
        <ele>299.11</ele>
        <time>2020-08-14T06:59:07Z</time>
      </trkpt>
      <trkpt lat="42.2969766241" lon="-7.8433902841">
        <ele>297.18</ele>
        <time>2020-08-14T06:59:16Z</time>
      </trkpt>
      <trkpt lat="42.2971114889" lon="-7.8434758633">
        <ele>296.22</ele>
        <time>2020-08-14T06:59:19Z</time>
      </trkpt>
      <trkpt lat="42.2971585114" lon="-7.8434826527">
        <ele>295.74</ele>
        <time>2020-08-14T06:59:20Z</time>
      </trkpt>
      <trkpt lat="42.2972121555" lon="-7.8434746061">
        <ele>295.26</ele>
        <time>2020-08-14T06:59:21Z</time>
      </trkpt>
      <trkpt lat="42.2972653806" lon="-7.8434505500">
        <ele>295.26</ele>
        <time>2020-08-14T06:59:22Z</time>
      </trkpt>
      <trkpt lat="42.2973175161" lon="-7.8434097301">
        <ele>294.78</ele>
        <time>2020-08-14T06:59:23Z</time>
      </trkpt>
      <trkpt lat="42.2973670531" lon="-7.8433562536">
        <ele>294.30</ele>
        <time>2020-08-14T06:59:24Z</time>
      </trkpt>
      <trkpt lat="42.2974103037" lon="-7.8432955686">
        <ele>293.34</ele>
        <time>2020-08-14T06:59:25Z</time>
      </trkpt>
      <trkpt lat="42.2974523809" lon="-7.8432320338">
        <ele>293.34</ele>
        <time>2020-08-14T06:59:26Z</time>
      </trkpt>
      <trkpt lat="42.2977746651" lon="-7.8428125195">
        <ele>289.97</ele>
        <time>2020-08-14T06:59:33Z</time>
      </trkpt>
      <trkpt lat="42.2978371941" lon="-7.8427805845">
        <ele>289.97</ele>
        <time>2020-08-14T06:59:34Z</time>
      </trkpt>
      <trkpt lat="42.2978911735" lon="-7.8427654970">
        <ele>289.49</ele>
        <time>2020-08-14T06:59:35Z</time>
      </trkpt>
      <trkpt lat="42.2979557142" lon="-7.8427590430">
        <ele>289.49</ele>
        <time>2020-08-14T06:59:36Z</time>
      </trkpt>
      <trkpt lat="42.2980205063" lon="-7.8427654132">
        <ele>289.01</ele>
        <time>2020-08-14T06:59:37Z</time>
      </trkpt>
      <trkpt lat="42.2980887350" lon="-7.8427879605">
        <ele>288.53</ele>
        <time>2020-08-14T06:59:38Z</time>
      </trkpt>
      <trkpt lat="42.2981527727" lon="-7.8428227454">
        <ele>288.53</ele>
        <time>2020-08-14T06:59:39Z</time>
      </trkpt>
      <trkpt lat="42.2982179001" lon="-7.8428662475">
        <ele>288.05</ele>
        <time>2020-08-14T06:59:40Z</time>
      </trkpt>
      <trkpt lat="42.2986209020" lon="-7.8432296868">
        <ele>284.69</ele>
        <time>2020-08-14T06:59:46Z</time>
      </trkpt>
      <trkpt lat="42.2993310168" lon="-7.8439564817">
        <ele>279.40</ele>
        <time>2020-08-14T06:59:56Z</time>
      </trkpt>
      <trkpt lat="42.2999848891" lon="-7.8445968591">
        <ele>274.11</ele>
        <time>2020-08-14T07:00:05Z</time>
      </trkpt>
      <trkpt lat="42.3000405449" lon="-7.8446806781">
        <ele>273.15</ele>
        <time>2020-08-14T07:00:06Z</time>
      </trkpt>
      <trkpt lat="42.3000912555" lon="-7.8447784949">
        <ele>272.67</ele>
        <time>2020-08-14T07:00:07Z</time>
      </trkpt>
      <trkpt lat="42.3001281358" lon="-7.8448747192">
        <ele>272.19</ele>
        <time>2020-08-14T07:00:08Z</time>
      </trkpt>
      <trkpt lat="42.3001594003" lon="-7.8450078238">
        <ele>271.23</ele>
        <time>2020-08-14T07:00:09Z</time>
      </trkpt>
      <trkpt lat="42.3001680337" lon="-7.8450790700">
        <ele>270.75</ele>
        <time>2020-08-14T07:00:10Z</time>
      </trkpt>
      <trkpt lat="42.3001776729" lon="-7.8451861069">
        <ele>270.27</ele>
        <time>2020-08-14T07:00:11Z</time>
      </trkpt>
      <trkpt lat="42.3002423812" lon="-7.8463285603">
        <ele>264.98</ele>
        <time>2020-08-14T07:00:21Z</time>
      </trkpt>
      <trkpt lat="42.3002178222" lon="-7.8470131103">
        <ele>262.10</ele>
        <time>2020-08-14T07:00:27Z</time>
      </trkpt>
      <trkpt lat="42.3001946043" lon="-7.8471177164">
        <ele>261.62</ele>
        <time>2020-08-14T07:00:28Z</time>
      </trkpt>
      <trkpt lat="42.3001644295" lon="-7.8472244181">
        <ele>260.65</ele>
        <time>2020-08-14T07:00:29Z</time>
      </trkpt>
      <trkpt lat="42.2998075280" lon="-7.8483160771">
        <ele>254.89</ele>
        <time>2020-08-14T07:00:39Z</time>
      </trkpt>
      <trkpt lat="42.2995962203" lon="-7.8490575403">
        <ele>250.56</ele>
        <time>2020-08-14T07:00:46Z</time>
      </trkpt>
      <trkpt lat="42.2995947953" lon="-7.8491735458">
        <ele>250.08</ele>
        <time>2020-08-14T07:00:47Z</time>
      </trkpt>
      <trkpt lat="42.2996046860" lon="-7.8492747154">
        <ele>249.60</ele>
        <time>2020-08-14T07:00:48Z</time>
      </trkpt>
      <trkpt lat="42.2996252216" lon="-7.8493855242">
        <ele>249.12</ele>
        <time>2020-08-14T07:00:49Z</time>
      </trkpt>
      <trkpt lat="42.2996594198" lon="-7.8495053854">
        <ele>248.64</ele>
        <time>2020-08-14T07:00:50Z</time>
      </trkpt>
      <trkpt lat="42.2996864934" lon="-7.8495830018">
        <ele>248.64</ele>
        <time>2020-08-14T07:00:51Z</time>
      </trkpt>
      <trkpt lat="42.2997254692" lon="-7.8496755380">
        <ele>248.16</ele>
        <time>2020-08-14T07:00:52Z</time>
      </trkpt>
      <trkpt lat="42.2997697257" lon="-7.8497665655">
        <ele>248.16</ele>
        <time>2020-08-14T07:00:53Z</time>
      </trkpt>
      <trkpt lat="42.3000446521" lon="-7.8501452599">
        <ele>246.23</ele>
        <time>2020-08-14T07:00:58Z</time>
      </trkpt>
      <trkpt lat="42.3001156468" lon="-7.8502068669">
        <ele>245.75</ele>
        <time>2020-08-14T07:00:59Z</time>
      </trkpt>
      <trkpt lat="42.3007843550" lon="-7.8507095296">
        <ele>241.91</ele>
        <time>2020-08-14T07:01:08Z</time>
      </trkpt>
      <trkpt lat="42.3009847663" lon="-7.8508686181">
        <ele>240.47</ele>
        <time>2020-08-14T07:01:11Z</time>
      </trkpt>
      <trkpt lat="42.3010477144" lon="-7.8509335779">
        <ele>239.99</ele>
        <time>2020-08-14T07:01:12Z</time>
      </trkpt>
      <trkpt lat="42.3011062201" lon="-7.8510083444">
        <ele>239.51</ele>
        <time>2020-08-14T07:01:13Z</time>
      </trkpt>
      <trkpt lat="42.3011548351" lon="-7.8510849550">
        <ele>239.02</ele>
        <time>2020-08-14T07:01:14Z</time>
      </trkpt>
      <trkpt lat="42.3012027796" lon="-7.8511701152">
        <ele>238.54</ele>
        <time>2020-08-14T07:01:15Z</time>
      </trkpt>
      <trkpt lat="42.3012484610" lon="-7.8512649145">
        <ele>237.58</ele>
        <time>2020-08-14T07:01:16Z</time>
      </trkpt>
      <trkpt lat="42.3012833297" lon="-7.8513543494">
        <ele>237.10</ele>
        <time>2020-08-14T07:01:17Z</time>
      </trkpt>
      <trkpt lat="42.3013121635" lon="-7.8514493164">
        <ele>236.62</ele>
        <time>2020-08-14T07:01:18Z</time>
      </trkpt>
      <trkpt lat="42.3013335373" lon="-7.8515405953">
        <ele>236.14</ele>
        <time>2020-08-14T07:01:19Z</time>
      </trkpt>
      <trkpt lat="42.3013518099" lon="-7.8516398370">
        <ele>235.18</ele>
        <time>2020-08-14T07:01:20Z</time>
      </trkpt>
      <trkpt lat="42.3013797216" lon="-7.8517897055">
        <ele>234.22</ele>
        <time>2020-08-14T07:01:22Z</time>
      </trkpt>
      <trkpt lat="42.3014196195" lon="-7.8519459441">
        <ele>233.26</ele>
        <time>2020-08-14T07:01:24Z</time>
      </trkpt>
      <trkpt lat="42.3014261574" lon="-7.8520276677">
        <ele>232.78</ele>
        <time>2020-08-14T07:01:25Z</time>
      </trkpt>
      <trkpt lat="42.3014176916" lon="-7.8521130793">
        <ele>232.78</ele>
        <time>2020-08-14T07:01:26Z</time>
      </trkpt>
      <trkpt lat="42.3013985809" lon="-7.8521979041">
        <ele>231.81</ele>
        <time>2020-08-14T07:01:27Z</time>
      </trkpt>
      <trkpt lat="42.3013772070" lon="-7.8522864170">
        <ele>231.33</ele>
        <time>2020-08-14T07:01:28Z</time>
      </trkpt>
      <trkpt lat="42.3013629578" lon="-7.8523693141">
        <ele>230.85</ele>
        <time>2020-08-14T07:01:29Z</time>
      </trkpt>
      <trkpt lat="42.3013544921" lon="-7.8524552286">
        <ele>230.37</ele>
        <time>2020-08-14T07:01:30Z</time>
      </trkpt>
      <trkpt lat="42.3013481218" lon="-7.8525451664">
        <ele>229.41</ele>
        <time>2020-08-14T07:01:31Z</time>
      </trkpt>
      <trkpt lat="42.3013303522" lon="-7.8529260401">
        <ele>226.05</ele>
        <time>2020-08-14T07:01:37Z</time>
      </trkpt>
      <trkpt lat="42.3013404943" lon="-7.8530703764">
        <ele>224.61</ele>
        <time>2020-08-14T07:01:43Z</time>
      </trkpt>
      <trkpt lat="42.3013402428" lon="-7.8531788383">
        <ele>224.12</ele>
        <time>2020-08-14T07:01:45Z</time>
      </trkpt>
      <trkpt lat="42.3013501335" lon="-7.8532435466">
        <ele>224.12</ele>
        <time>2020-08-14T07:01:46Z</time>
      </trkpt>
      <trkpt lat="42.3014088906" lon="-7.8534771502">
        <ele>222.68</ele>
        <time>2020-08-14T07:01:49Z</time>
      </trkpt>
      <trkpt lat="42.3014394008" lon="-7.8535568621">
        <ele>222.20</ele>
        <time>2020-08-14T07:01:50Z</time>
      </trkpt>
      <trkpt lat="42.3014725931" lon="-7.8536283597">
        <ele>221.72</ele>
        <time>2020-08-14T07:01:51Z</time>
      </trkpt>
      <trkpt lat="42.3016491160" lon="-7.8539485484">
        <ele>218.36</ele>
        <time>2020-08-14T07:01:57Z</time>
      </trkpt>
      <trkpt lat="42.3017367907" lon="-7.8540911246">
        <ele>216.43</ele>
        <time>2020-08-14T07:02:03Z</time>
      </trkpt>
      <trkpt lat="42.3018905986" lon="-7.8543644585">
        <ele>214.51</ele>
        <time>2020-08-14T07:02:10Z</time>
      </trkpt>
      <trkpt lat="42.3021019902" lon="-7.8546366189">
        <ele>213.07</ele>
        <time>2020-08-14T07:02:17Z</time>
      </trkpt>
      <trkpt lat="42.3022815306" lon="-7.8547441587">
        <ele>212.11</ele>
        <time>2020-08-14T07:02:22Z</time>
      </trkpt>
      <trkpt lat="42.3023216799" lon="-7.8547532950">
        <ele>212.11</ele>
        <time>2020-08-14T07:02:23Z</time>
      </trkpt>
      <trkpt lat="42.3024201673" lon="-7.8547623474">
        <ele>211.63</ele>
        <time>2020-08-14T07:02:25Z</time>
      </trkpt>
      <trkpt lat="42.3026460595" lon="-7.8547130618">
        <ele>210.67</ele>
        <time>2020-08-14T07:02:29Z</time>
      </trkpt>
      <trkpt lat="42.3027035594" lon="-7.8546802886">
        <ele>210.19</ele>
        <time>2020-08-14T07:02:30Z</time>
      </trkpt>
      <trkpt lat="42.3027603887" lon="-7.8546387982">
        <ele>210.19</ele>
        <time>2020-08-14T07:02:31Z</time>
      </trkpt>
      <trkpt lat="42.3028170504" lon="-7.8545895964">
        <ele>209.70</ele>
        <time>2020-08-14T07:02:32Z</time>
      </trkpt>
      <trkpt lat="42.3028677609" lon="-7.8545375448">
        <ele>209.70</ele>
        <time>2020-08-14T07:02:33Z</time>
      </trkpt>
      <trkpt lat="42.3029203992" lon="-7.8544761892">
        <ele>209.70</ele>
        <time>2020-08-14T07:02:34Z</time>
      </trkpt>
      <trkpt lat="42.3031958286" lon="-7.8540915437">
        <ele>210.19</ele>
        <time>2020-08-14T07:02:41Z</time>
      </trkpt>
      <trkpt lat="42.3033084814" lon="-7.8539288510">
        <ele>210.67</ele>
        <time>2020-08-14T07:02:45Z</time>
      </trkpt>
      <trkpt lat="42.3033314478" lon="-7.8538955748">
        <ele>210.67</ele>
        <time>2020-08-14T07:02:46Z</time>
      </trkpt>
      <trkpt lat="42.3033592757" lon="-7.8538498934">
        <ele>211.15</ele>
        <time>2020-08-14T07:02:47Z</time>
      </trkpt>
      <trkpt lat="42.3035814799" lon="-7.8535170481">
        <ele>212.59</ele>
        <time>2020-08-14T07:02:56Z</time>
      </trkpt>
      <trkpt lat="42.3037848249" lon="-7.8532243520">
        <ele>214.03</ele>
        <time>2020-08-14T07:03:04Z</time>
      </trkpt>
      <trkpt lat="42.3040212784" lon="-7.8528682049">
        <ele>214.51</ele>
        <time>2020-08-14T07:03:13Z</time>
      </trkpt>
      <trkpt lat="42.3042268865" lon="-7.8525589127">
        <ele>214.99</ele>
        <time>2020-08-14T07:03:21Z</time>
      </trkpt>
      <trkpt lat="42.3044583108" lon="-7.8522660490">
        <ele>214.99</ele>
        <time>2020-08-14T07:03:29Z</time>
      </trkpt>
      <trkpt lat="42.3047318123" lon="-7.8520619497">
        <ele>214.03</ele>
        <time>2020-08-14T07:03:36Z</time>
      </trkpt>
      <trkpt lat="42.3050874565" lon="-7.8519543260">
        <ele>211.63</ele>
        <time>2020-08-14T07:03:44Z</time>
      </trkpt>
      <trkpt lat="42.3055459466" lon="-7.8519187868">
        <ele>209.22</ele>
        <time>2020-08-14T07:03:53Z</time>
      </trkpt>
      <trkpt lat="42.3058639560" lon="-7.8518694174">
        <ele>207.30</ele>
        <time>2020-08-14T07:03:59Z</time>
      </trkpt>
      <trkpt lat="42.3059144150" lon="-7.8518486302">
        <ele>207.30</ele>
        <time>2020-08-14T07:04:00Z</time>
      </trkpt>
      <trkpt lat="42.3059623595" lon="-7.8518189583">
        <ele>206.82</ele>
        <time>2020-08-14T07:04:01Z</time>
      </trkpt>
      <trkpt lat="42.3059980664" lon="-7.8517893702">
        <ele>206.82</ele>
        <time>2020-08-14T07:04:02Z</time>
      </trkpt>
      <trkpt lat="42.3060334381" lon="-7.8517524060">
        <ele>206.82</ele>
        <time>2020-08-14T07:04:03Z</time>
      </trkpt>
      <trkpt lat="42.3060707375" lon="-7.8517149389">
        <ele>206.34</ele>
        <time>2020-08-14T07:04:04Z</time>
      </trkpt>
      <trkpt lat="42.3061257228" lon="-7.8516824171">
        <ele>206.34</ele>
        <time>2020-08-14T07:04:05Z</time>
      </trkpt>
      <trkpt lat="42.3061832227" lon="-7.8516700957">
        <ele>205.86</ele>
        <time>2020-08-14T07:04:06Z</time>
      </trkpt>
      <trkpt lat="42.3062170856" lon="-7.8516652342">
        <ele>205.86</ele>
        <time>2020-08-14T07:04:07Z</time>
      </trkpt>
      <trkpt lat="42.3062745854" lon="-7.8516513202">
        <ele>205.38</ele>
        <time>2020-08-14T07:04:08Z</time>
      </trkpt>
      <trkpt lat="42.3063341808" lon="-7.8516257554">
        <ele>205.38</ele>
        <time>2020-08-14T07:04:09Z</time>
      </trkpt>
      <trkpt lat="42.3063923512" lon="-7.8515858576">
        <ele>204.90</ele>
        <time>2020-08-14T07:04:10Z</time>
      </trkpt>
      <trkpt lat="42.3066173214" lon="-7.8514027130">
        <ele>203.46</ele>
        <time>2020-08-14T07:04:14Z</time>
      </trkpt>
      <trkpt lat="42.3066646792" lon="-7.8513845243">
        <ele>202.98</ele>
        <time>2020-08-14T07:04:15Z</time>
      </trkpt>
      <trkpt lat="42.3067162279" lon="-7.8513849434">
        <ele>202.49</ele>
        <time>2020-08-14T07:04:16Z</time>
      </trkpt>
      <trkpt lat="42.3068294674" lon="-7.8513867036">
        <ele>201.53</ele>
        <time>2020-08-14T07:04:18Z</time>
      </trkpt>
      <trkpt lat="42.3068908229" lon="-7.8513781540">
        <ele>201.05</ele>
        <time>2020-08-14T07:04:19Z</time>
      </trkpt>
      <trkpt lat="42.3070129473" lon="-7.8513608873">
        <ele>200.09</ele>
        <time>2020-08-14T07:04:21Z</time>
      </trkpt>
      <trkpt lat="42.3070717044" lon="-7.8513655812">
        <ele>199.61</ele>
        <time>2020-08-14T07:04:22Z</time>
      </trkpt>
      <trkpt lat="42.3071390949" lon="-7.8513799142">
        <ele>199.13</ele>
        <time>2020-08-14T07:04:23Z</time>
      </trkpt>
      <trkpt lat="42.3072055634" lon="-7.8514042217">
        <ele>198.65</ele>
        <time>2020-08-14T07:04:24Z</time>
      </trkpt>
      <trkpt lat="42.3072695173" lon="-7.8514399286">
        <ele>198.65</ele>
        <time>2020-08-14T07:04:25Z</time>
      </trkpt>
      <trkpt lat="42.3073359020" lon="-7.8514882084">
        <ele>197.69</ele>
        <time>2020-08-14T07:04:26Z</time>
      </trkpt>
      <trkpt lat="42.3073891271" lon="-7.8515393380">
        <ele>197.69</ele>
        <time>2020-08-14T07:04:27Z</time>
      </trkpt>
      <trkpt lat="42.3074388318" lon="-7.8516049683">
        <ele>196.73</ele>
        <time>2020-08-14T07:04:28Z</time>
      </trkpt>
      <trkpt lat="42.3074776400" lon="-7.8516791482">
        <ele>196.25</ele>
        <time>2020-08-14T07:04:29Z</time>
      </trkpt>
      <trkpt lat="42.3075101618" lon="-7.8517606203">
        <ele>195.77</ele>
        <time>2020-08-14T07:04:30Z</time>
      </trkpt>
      <trkpt lat="42.3078474496" lon="-7.8525982238">
        <ele>191.44</ele>
        <time>2020-08-14T07:04:40Z</time>
      </trkpt>
      <trkpt lat="42.3080466036" lon="-7.8528963681">
        <ele>189.04</ele>
        <time>2020-08-14T07:04:45Z</time>
      </trkpt>
      <trkpt lat="42.3082858231" lon="-7.8532007989">
        <ele>187.11</ele>
        <time>2020-08-14T07:04:53Z</time>
      </trkpt>
      <trkpt lat="42.3084058519" lon="-7.8532669321">
        <ele>188.08</ele>
        <time>2020-08-14T07:04:58Z</time>
      </trkpt>
      <trkpt lat="42.3084454145" lon="-7.8532849532">
        <ele>188.08</ele>
        <time>2020-08-14T07:04:59Z</time>
      </trkpt>
      <trkpt lat="42.3084843066" lon="-7.8533132002">
        <ele>188.08</ele>
        <time>2020-08-14T07:05:00Z</time>
      </trkpt>
      <trkpt lat="42.3085243721" lon="-7.8533514217">
        <ele>188.08</ele>
        <time>2020-08-14T07:05:01Z</time>
      </trkpt>
      <trkpt lat="42.3085611686" lon="-7.8533942532">
        <ele>187.59</ele>
        <time>2020-08-14T07:05:02Z</time>
      </trkpt>
      <trkpt lat="42.3085967079" lon="-7.8534393478">
        <ele>187.59</ele>
        <time>2020-08-14T07:05:03Z</time>
      </trkpt>
      <trkpt lat="42.3088479973" lon="-7.8537527472">
        <ele>185.19</ele>
        <time>2020-08-14T07:05:09Z</time>
      </trkpt>
      <trkpt lat="42.3090161383" lon="-7.8538944013">
        <ele>184.23</ele>
        <time>2020-08-14T07:05:12Z</time>
      </trkpt>
      <trkpt lat="42.3090853728" lon="-7.8539296053">
        <ele>183.75</ele>
        <time>2020-08-14T07:05:13Z</time>
      </trkpt>
      <trkpt lat="42.3091542721" lon="-7.8539558407">
        <ele>183.75</ele>
        <time>2020-08-14T07:05:14Z</time>
      </trkpt>
      <trkpt lat="42.3097868543" lon="-7.8541795537">
        <ele>180.87</ele>
        <time>2020-08-14T07:05:23Z</time>
      </trkpt>
      <trkpt lat="42.3103574943" lon="-7.8543955553">
        <ele>178.94</ele>
        <time>2020-08-14T07:05:31Z</time>
      </trkpt>
      <trkpt lat="42.3104027566" lon="-7.8544353694">
        <ele>178.46</ele>
        <time>2020-08-14T07:05:32Z</time>
      </trkpt>
      <trkpt lat="42.3105092067" lon="-7.8545246366">
        <ele>177.98</ele>
        <time>2020-08-14T07:05:34Z</time>
      </trkpt>
      <trkpt lat="42.3105638567" lon="-7.8545565717">
        <ele>177.50</ele>
        <time>2020-08-14T07:05:35Z</time>
      </trkpt>
      <trkpt lat="42.3106213566" lon="-7.8545818012">
        <ele>177.02</ele>
        <time>2020-08-14T07:05:36Z</time>
      </trkpt>
      <trkpt lat="42.3111593071" lon="-7.8547765967">
        <ele>173.66</ele>
        <time>2020-08-14T07:05:44Z</time>
      </trkpt>
      <trkpt lat="42.3114404362" lon="-7.8549242020">
        <ele>171.73</ele>
        <time>2020-08-14T07:05:49Z</time>
      </trkpt>
      <trkpt lat="42.3114719521" lon="-7.8549494315">
        <ele>171.25</ele>
        <time>2020-08-14T07:05:50Z</time>
      </trkpt>
      <trkpt lat="42.3114971817" lon="-7.8549733199">
        <ele>170.77</ele>
        <time>2020-08-14T07:05:51Z</time>
      </trkpt>
      <trkpt lat="42.3115190584" lon="-7.8549959511">
        <ele>170.77</ele>
        <time>2020-08-14T07:05:52Z</time>
      </trkpt>
      <trkpt lat="42.3115370795" lon="-7.8550101165">
        <ele>170.29</ele>
        <time>2020-08-14T07:05:53Z</time>
      </trkpt>
      <trkpt lat="42.3115485627" lon="-7.8550173249">
        <ele>170.29</ele>
        <time>2020-08-14T07:05:54Z</time>
      </trkpt>
      <trkpt lat="42.3115470540" lon="-7.8550161514">
        <ele>169.81</ele>
        <time>2020-08-14T07:05:59Z</time>
      </trkpt>
      <trkpt lat="42.3115583695" lon="-7.8549922630">
        <ele>169.81</ele>
        <time>2020-08-14T07:06:07Z</time>
      </trkpt>
      <trkpt lat="42.3115780670" lon="-7.8549566399">
        <ele>169.81</ele>
        <time>2020-08-14T07:06:09Z</time>
      </trkpt>
      <trkpt lat="42.3115919810" lon="-7.8549428936">
        <ele>170.29</ele>
        <time>2020-08-14T07:06:10Z</time>
      </trkpt>
      <trkpt lat="42.3116078228" lon="-7.8549319133">
        <ele>170.29</ele>
        <time>2020-08-14T07:06:11Z</time>
      </trkpt>
      <trkpt lat="42.3116158694" lon="-7.8549290635">
        <ele>170.29</ele>
        <time>2020-08-14T07:06:12Z</time>
      </trkpt>
      <trkpt lat="42.3116325494" lon="-7.8549362719">
        <ele>170.29</ele>
        <time>2020-08-14T07:06:17Z</time>
      </trkpt>
      <trkpt lat="42.3116419371" lon="-7.8549521975">
        <ele>170.29</ele>
        <time>2020-08-14T07:06:18Z</time>
      </trkpt>
      <trkpt lat="42.3116537556" lon="-7.8549725655">
        <ele>170.29</ele>
        <time>2020-08-14T07:06:19Z</time>
      </trkpt>
      <trkpt lat="42.3116618022" lon="-7.8549853899">
        <ele>170.29</ele>
        <time>2020-08-14T07:06:20Z</time>
      </trkpt>
      <trkpt lat="42.3116704356" lon="-7.8549984656">
        <ele>169.81</ele>
        <time>2020-08-14T07:06:21Z</time>
      </trkpt>
      <trkpt lat="42.3117464595" lon="-7.8551235236">
        <ele>168.85</ele>
        <time>2020-08-14T07:06:27Z</time>
      </trkpt>
      <trkpt lat="42.3118361458" lon="-7.8553413693">
        <ele>167.41</ele>
        <time>2020-08-14T07:06:32Z</time>
      </trkpt>
      <trkpt lat="42.3119177856" lon="-7.8557928186">
        <ele>165.00</ele>
        <time>2020-08-14T07:06:39Z</time>
      </trkpt>
      <trkpt lat="42.3119320348" lon="-7.8565139137">
        <ele>162.12</ele>
        <time>2020-08-14T07:06:48Z</time>
      </trkpt>
      <trkpt lat="42.3119389080" lon="-7.8570699692">
        <ele>161.64</ele>
        <time>2020-08-14T07:06:56Z</time>
      </trkpt>
      <trkpt lat="42.3119599465" lon="-7.8577392641">
        <ele>160.68</ele>
        <time>2020-08-14T07:07:06Z</time>
      </trkpt>
      <trkpt lat="42.3120560031" lon="-7.8583430964">
        <ele>159.72</ele>
        <time>2020-08-14T07:07:15Z</time>
      </trkpt>
      <trkpt lat="42.3122486193" lon="-7.8588125668">
        <ele>159.24</ele>
        <time>2020-08-14T07:07:23Z</time>
      </trkpt>
      <trkpt lat="42.3125402257" lon="-7.8594374377">
        <ele>158.27</ele>
        <time>2020-08-14T07:07:34Z</time>
      </trkpt>
      <trkpt lat="42.3128088657" lon="-7.8600633144">
        <ele>158.27</ele>
        <time>2020-08-14T07:07:45Z</time>
      </trkpt>
      <trkpt lat="42.3130413797" lon="-7.8605740238">
        <ele>158.27</ele>
        <time>2020-08-14T07:07:54Z</time>
      </trkpt>
      <trkpt lat="42.3133257776" lon="-7.8608580027">
        <ele>157.79</ele>
        <time>2020-08-14T07:08:01Z</time>
      </trkpt>
      <trkpt lat="42.3133691959" lon="-7.8608848248">
        <ele>157.79</ele>
        <time>2020-08-14T07:08:02Z</time>
      </trkpt>
      <trkpt lat="42.3134177271" lon="-7.8609094676">
        <ele>157.79</ele>
        <time>2020-08-14T07:08:03Z</time>
      </trkpt>
      <trkpt lat="42.3139290232" lon="-7.8610697296">
        <ele>158.27</ele>
        <time>2020-08-14T07:08:14Z</time>
      </trkpt>
      <trkpt lat="42.3143401556" lon="-7.8612143174">
        <ele>157.79</ele>
        <time>2020-08-14T07:08:22Z</time>
      </trkpt>
      <trkpt lat="42.3148379568" lon="-7.8613826260">
        <ele>157.79</ele>
        <time>2020-08-14T07:08:31Z</time>
      </trkpt>
      <trkpt lat="42.3155562021" lon="-7.8615808580">
        <ele>158.27</ele>
        <time>2020-08-14T07:08:43Z</time>
      </trkpt>
      <trkpt lat="42.3161409236" lon="-7.8617252782">
        <ele>157.31</ele>
        <time>2020-08-14T07:08:53Z</time>
      </trkpt>
      <trkpt lat="42.3167098872" lon="-7.8618686087">
        <ele>156.35</ele>
        <time>2020-08-14T07:09:03Z</time>
      </trkpt>
      <trkpt lat="42.3173067626" lon="-7.8620333970">
        <ele>156.83</ele>
        <time>2020-08-14T07:09:14Z</time>
      </trkpt>
      <trkpt lat="42.3176269513" lon="-7.8621058166">
        <ele>157.79</ele>
        <time>2020-08-14T07:09:20Z</time>
      </trkpt>
      <trkpt lat="42.3176783323" lon="-7.8621021286">
        <ele>157.79</ele>
        <time>2020-08-14T07:09:21Z</time>
      </trkpt>
      <trkpt lat="42.3177262768" lon="-7.8620917350">
        <ele>157.79</ele>
        <time>2020-08-14T07:09:22Z</time>
      </trkpt>
      <trkpt lat="42.3177627381" lon="-7.8620753065">
        <ele>157.79</ele>
        <time>2020-08-14T07:09:23Z</time>
      </trkpt>
      <trkpt lat="42.3177830223" lon="-7.8620600514">
        <ele>157.31</ele>
        <time>2020-08-14T07:09:24Z</time>
      </trkpt>
      <trkpt lat="42.3177963495" lon="-7.8620477300">
        <ele>157.31</ele>
        <time>2020-08-14T07:09:25Z</time>
      </trkpt>
      <trkpt lat="42.3178100958" lon="-7.8620344028">
        <ele>157.31</ele>
        <time>2020-08-14T07:09:26Z</time>
      </trkpt>
      <trkpt lat="42.3178218305" lon="-7.8620165493">
        <ele>156.83</ele>
        <time>2020-08-14T07:09:27Z</time>
      </trkpt>
      <trkpt lat="42.3178328946" lon="-7.8620021325">
        <ele>156.83</ele>
        <time>2020-08-14T07:09:28Z</time>
      </trkpt>
      <trkpt lat="42.3179539293" lon="-7.8619375080">
        <ele>155.87</ele>
        <time>2020-08-14T07:09:33Z</time>
      </trkpt>
      <trkpt lat="42.3180317972" lon="-7.8619422857">
        <ele>155.39</ele>
        <time>2020-08-14T07:09:35Z</time>
      </trkpt>
      <trkpt lat="42.3180748802" lon="-7.8619644139">
        <ele>155.39</ele>
        <time>2020-08-14T07:09:36Z</time>
      </trkpt>
      <trkpt lat="42.3181127664" lon="-7.8619957622">
        <ele>154.91</ele>
        <time>2020-08-14T07:09:37Z</time>
      </trkpt>
      <trkpt lat="42.3181489762" lon="-7.8620385937">
        <ele>154.91</ele>
        <time>2020-08-14T07:09:38Z</time>
      </trkpt>
      <trkpt lat="42.3181806598" lon="-7.8620815091">
        <ele>153.95</ele>
        <time>2020-08-14T07:09:39Z</time>
      </trkpt>
      <trkpt lat="42.3182792310" lon="-7.8621719498">
        <ele>153.95</ele>
        <time>2020-08-14T07:09:43Z</time>
      </trkpt>
      <trkpt lat="42.3183338810" lon="-7.8621921502">
        <ele>154.43</ele>
        <time>2020-08-14T07:09:50Z</time>
      </trkpt>
      <trkpt lat="42.3183574341" lon="-7.8621964250">
        <ele>155.87</ele>
        <time>2020-08-14T07:10:03Z</time>
      </trkpt>
      <trkpt lat="42.3185494635" lon="-7.8621947486">
        <ele>154.91</ele>
        <time>2020-08-14T07:10:10Z</time>
      </trkpt>
      <trkpt lat="42.3189723305" lon="-7.8622210678">
        <ele>154.43</ele>
        <time>2020-08-14T07:10:19Z</time>
      </trkpt>
      <trkpt lat="42.3194747418" lon="-7.8622483928">
        <ele>157.31</ele>
        <time>2020-08-14T07:10:29Z</time>
      </trkpt>
      <trkpt lat="42.3195281345" lon="-7.8622553498">
        <ele>157.79</ele>
        <time>2020-08-14T07:10:30Z</time>
      </trkpt>
      <trkpt lat="42.3195785936" lon="-7.8622654080">
        <ele>158.27</ele>
        <time>2020-08-14T07:10:31Z</time>
      </trkpt>
      <trkpt lat="42.3201100901" lon="-7.8623207286">
        <ele>159.24</ele>
        <time>2020-08-14T07:10:41Z</time>
      </trkpt>
      <trkpt lat="42.3206962366" lon="-7.8623742890">
        <ele>162.12</ele>
        <time>2020-08-14T07:10:53Z</time>
      </trkpt>
      <trkpt lat="42.3211414833" lon="-7.8622853570">
        <ele>164.52</ele>
        <time>2020-08-14T07:11:02Z</time>
      </trkpt>
      <trkpt lat="42.3213442415" lon="-7.8622411843">
        <ele>164.52</ele>
        <time>2020-08-14T07:11:08Z</time>
      </trkpt>
      <trkpt lat="42.3213782720" lon="-7.8622171283">
        <ele>164.04</ele>
        <time>2020-08-14T07:11:14Z</time>
      </trkpt>
      <trkpt lat="42.3213812057" lon="-7.8622031305">
        <ele>163.56</ele>
        <time>2020-08-14T07:11:32Z</time>
      </trkpt>
      <trkpt lat="42.3214363586" lon="-7.8621864505">
        <ele>162.12</ele>
        <time>2020-08-14T07:11:38Z</time>
      </trkpt>
      <trkpt lat="42.3215373605" lon="-7.8621589579">
        <ele>160.20</ele>
        <time>2020-08-14T07:11:41Z</time>
      </trkpt>
      <trkpt lat="42.3219650891" lon="-7.8621853609">
        <ele>159.24</ele>
        <time>2020-08-14T07:11:50Z</time>
      </trkpt>
      <trkpt lat="42.3225819971" lon="-7.8622975107">
        <ele>155.87</ele>
        <time>2020-08-14T07:12:01Z</time>
      </trkpt>
      <trkpt lat="42.3230488691" lon="-7.8623771388">
        <ele>153.95</ele>
        <time>2020-08-14T07:12:09Z</time>
      </trkpt>
      <trkpt lat="42.3235257994" lon="-7.8624582756">
        <ele>151.06</ele>
        <time>2020-08-14T07:12:17Z</time>
      </trkpt>
      <trkpt lat="42.3240878899" lon="-7.8625719342">
        <ele>147.70</ele>
        <time>2020-08-14T07:12:26Z</time>
      </trkpt>
      <trkpt lat="42.3244383372" lon="-7.8625871893">
        <ele>147.22</ele>
        <time>2020-08-14T07:12:32Z</time>
      </trkpt>
      <trkpt lat="42.3244993575" lon="-7.8625633009">
        <ele>146.74</ele>
        <time>2020-08-14T07:12:33Z</time>
      </trkpt>
      <trkpt lat="42.3245991860" lon="-7.8625137638">
        <ele>146.26</ele>
        <time>2020-08-14T07:12:35Z</time>
      </trkpt>
      <trkpt lat="42.3246570211" lon="-7.8625034541">
        <ele>145.78</ele>
        <time>2020-08-14T07:12:36Z</time>
      </trkpt>
      <trkpt lat="42.3247129284" lon="-7.8625082318">
        <ele>145.30</ele>
        <time>2020-08-14T07:12:37Z</time>
      </trkpt>
      <trkpt lat="42.3247648124" lon="-7.8625336289">
        <ele>144.82</ele>
        <time>2020-08-14T07:12:38Z</time>
      </trkpt>
      <trkpt lat="42.3248078115" lon="-7.8625755385">
        <ele>144.34</ele>
        <time>2020-08-14T07:12:39Z</time>
      </trkpt>
      <trkpt lat="42.3248407524" lon="-7.8626259975">
        <ele>143.85</ele>
        <time>2020-08-14T07:12:40Z</time>
      </trkpt>
      <trkpt lat="42.3248653952" lon="-7.8626823239">
        <ele>142.41</ele>
        <time>2020-08-14T07:12:41Z</time>
      </trkpt>
      <trkpt lat="42.3248869367" lon="-7.8627486248">
        <ele>141.45</ele>
        <time>2020-08-14T07:12:42Z</time>
      </trkpt>
      <trkpt lat="42.3249334563" lon="-7.8628673963">
        <ele>140.01</ele>
        <time>2020-08-14T07:12:44Z</time>
      </trkpt>
      <trkpt lat="42.3251048662" lon="-7.8630186059">
        <ele>139.53</ele>
        <time>2020-08-14T07:12:48Z</time>
      </trkpt>
      <trkpt lat="42.3254595883" lon="-7.8632233758">
        <ele>139.05</ele>
        <time>2020-08-14T07:12:56Z</time>
      </trkpt>
      <trkpt lat="42.3258051742" lon="-7.8634175844">
        <ele>140.01</ele>
        <time>2020-08-14T07:13:05Z</time>
      </trkpt>
      <trkpt lat="42.3260955233" lon="-7.8635018226">
        <ele>144.34</ele>
        <time>2020-08-14T07:13:12Z</time>
      </trkpt>
      <trkpt lat="42.3265558574" lon="-7.8636011481">
        <ele>142.89</ele>
        <time>2020-08-14T07:13:22Z</time>
      </trkpt>
      <trkpt lat="42.3269622959" lon="-7.8637014795">
        <ele>144.34</ele>
        <time>2020-08-14T07:13:30Z</time>
      </trkpt>
      <trkpt lat="42.3270201311" lon="-7.8637175728">
        <ele>144.34</ele>
        <time>2020-08-14T07:13:31Z</time>
      </trkpt>
      <trkpt lat="42.3272543214" lon="-7.8637824487">
        <ele>143.85</ele>
        <time>2020-08-14T07:13:36Z</time>
      </trkpt>
      <trkpt lat="42.3275419883" lon="-7.8638360929">
        <ele>144.34</ele>
        <time>2020-08-14T07:13:42Z</time>
      </trkpt>
      <trkpt lat="42.3277211096" lon="-7.8638894018">
        <ele>145.30</ele>
        <time>2020-08-14T07:13:46Z</time>
      </trkpt>
      <trkpt lat="42.3280002270" lon="-7.8639601450">
        <ele>146.74</ele>
        <time>2020-08-14T07:13:53Z</time>
      </trkpt>
      <trkpt lat="42.3283287976" lon="-7.8640137892">
        <ele>150.10</ele>
        <time>2020-08-14T07:14:01Z</time>
      </trkpt>
      <trkpt lat="42.3284701165" lon="-7.8640263621">
        <ele>152.03</ele>
        <time>2020-08-14T07:14:04Z</time>
      </trkpt>
      <trkpt lat="42.3287665006" lon="-7.8640669305">
        <ele>152.99</ele>
        <time>2020-08-14T07:14:11Z</time>
      </trkpt>
      <trkpt lat="42.3288893793" lon="-7.8640888073">
        <ele>153.47</ele>
        <time>2020-08-14T07:14:17Z</time>
      </trkpt>
      <trkpt lat="42.3289435264" lon="-7.8640732169">
        <ele>151.06</ele>
        <time>2020-08-14T07:14:26Z</time>
      </trkpt>
      <trkpt lat="42.3289562669" lon="-7.8640883882">
        <ele>148.18</ele>
        <time>2020-08-14T07:14:43Z</time>
      </trkpt>
      <trkpt lat="42.3289661575" lon="-7.8640791681">
        <ele>147.70</ele>
        <time>2020-08-14T07:14:55Z</time>
      </trkpt>
      <trkpt lat="42.3289884534" lon="-7.8640235122">
        <ele>147.70</ele>
        <time>2020-08-14T07:15:09Z</time>
      </trkpt>
      <trkpt lat="42.3290017806" lon="-7.8640226740">
        <ele>149.62</ele>
        <time>2020-08-14T07:15:24Z</time>
      </trkpt>
      <trkpt lat="42.3289919738" lon="-7.8640278708">
        <ele>153.47</ele>
        <time>2020-08-14T07:15:40Z</time>
      </trkpt>
      <trkpt lat="42.3289699294" lon="-7.8640329000">
        <ele>153.47</ele>
        <time>2020-08-14T07:15:53Z</time>
      </trkpt>
      <trkpt lat="42.3289645649" lon="-7.8640551120">
        <ele>152.99</ele>
        <time>2020-08-14T07:16:08Z</time>
      </trkpt>
      <trkpt lat="42.3289737850" lon="-7.8640768211">
        <ele>152.51</ele>
        <time>2020-08-14T07:16:22Z</time>
      </trkpt>
      <trkpt lat="42.3289825860" lon="-7.8640824370">
        <ele>153.47</ele>
        <time>2020-08-14T07:16:38Z</time>
      </trkpt>
      <trkpt lat="42.3289782275" lon="-7.8640648350">
        <ele>154.91</ele>
        <time>2020-08-14T07:16:56Z</time>
      </trkpt>
      <trkpt lat="42.3289535847" lon="-7.8641065769">
        <ele>154.43</ele>
        <time>2020-08-14T07:17:12Z</time>
      </trkpt>
      <trkpt lat="42.3289509863" lon="-7.8640876338">
        <ele>150.58</ele>
        <time>2020-08-14T07:17:24Z</time>
      </trkpt>
      <trkpt lat="42.3289377429" lon="-7.8640737198">
        <ele>149.14</ele>
        <time>2020-08-14T07:17:38Z</time>
      </trkpt>
      <trkpt lat="42.3290044628" lon="-7.8641100973">
        <ele>147.70</ele>
        <time>2020-08-14T07:17:46Z</time>
      </trkpt>
      <trkpt lat="42.3292757012" lon="-7.8642228339">
        <ele>145.30</ele>
        <time>2020-08-14T07:17:55Z</time>
      </trkpt>
      <trkpt lat="42.3295351211" lon="-7.8643961716">
        <ele>145.78</ele>
        <time>2020-08-14T07:18:03Z</time>
      </trkpt>
      <trkpt lat="42.3298627697" lon="-7.8645665757">
        <ele>149.14</ele>
        <time>2020-08-14T07:18:12Z</time>
      </trkpt>
      <trkpt lat="42.3301603273" lon="-7.8647187073">
        <ele>150.58</ele>
        <time>2020-08-14T07:18:20Z</time>
      </trkpt>
      <trkpt lat="42.3306001257" lon="-7.8649010137">
        <ele>152.51</ele>
        <time>2020-08-14T07:18:31Z</time>
      </trkpt>
      <trkpt lat="42.3310442828" lon="-7.8650601860">
        <ele>152.51</ele>
        <time>2020-08-14T07:18:40Z</time>
      </trkpt>
      <trkpt lat="42.3315390665" lon="-7.8652636986">
        <ele>149.62</ele>
        <time>2020-08-14T07:18:50Z</time>
      </trkpt>
      <trkpt lat="42.3320696410" lon="-7.8655268904">
        <ele>145.78</ele>
        <time>2020-08-14T07:19:00Z</time>
      </trkpt>
      <trkpt lat="42.3322402127" lon="-7.8656009026">
        <ele>144.82</ele>
        <time>2020-08-14T07:19:03Z</time>
      </trkpt>
      <trkpt lat="42.3325557075" lon="-7.8657300677">
        <ele>141.93</ele>
        <time>2020-08-14T07:19:09Z</time>
      </trkpt>
      <trkpt lat="42.3328759801" lon="-7.8658318240">
        <ele>142.41</ele>
        <time>2020-08-14T07:19:15Z</time>
      </trkpt>
      <trkpt lat="42.3333275970" lon="-7.8659007233">
        <ele>145.78</ele>
        <time>2020-08-14T07:19:24Z</time>
      </trkpt>
      <trkpt lat="42.3335432634" lon="-7.8659287188">
        <ele>145.30</ele>
        <time>2020-08-14T07:19:31Z</time>
      </trkpt>
      <trkpt lat="42.3335573450" lon="-7.8659329936">
        <ele>144.34</ele>
        <time>2020-08-14T07:19:36Z</time>
      </trkpt>
      <trkpt lat="42.3336284235" lon="-7.8659458179">
        <ele>142.89</ele>
        <time>2020-08-14T07:19:43Z</time>
      </trkpt>
      <trkpt lat="42.3338716663" lon="-7.8659251146">
        <ele>141.93</ele>
        <time>2020-08-14T07:19:50Z</time>
      </trkpt>
      <trkpt lat="42.3341982253" lon="-7.8659500927">
        <ele>144.34</ele>
        <time>2020-08-14T07:19:57Z</time>
      </trkpt>
      <trkpt lat="42.3342470080" lon="-7.8659568820">
        <ele>144.82</ele>
        <time>2020-08-14T07:19:58Z</time>
      </trkpt>
      <trkpt lat="42.3346552067" lon="-7.8659382742">
        <ele>143.37</ele>
        <time>2020-08-14T07:20:07Z</time>
      </trkpt>
      <trkpt lat="42.3351361603" lon="-7.8659280483">
        <ele>140.49</ele>
        <time>2020-08-14T07:20:19Z</time>
      </trkpt>
      <trkpt lat="42.3355115019" lon="-7.8659302276">
        <ele>141.93</ele>
        <time>2020-08-14T07:20:29Z</time>
      </trkpt>
      <trkpt lat="42.3358224705" lon="-7.8659300599">
        <ele>142.41</ele>
        <time>2020-08-14T07:20:38Z</time>
      </trkpt>
      <trkpt lat="42.3359375540" lon="-7.8658546228">
        <ele>142.41</ele>
        <time>2020-08-14T07:20:43Z</time>
      </trkpt>
      <trkpt lat="42.3359355424" lon="-7.8657407127">
        <ele>141.93</ele>
        <time>2020-08-14T07:20:47Z</time>
      </trkpt>
      <trkpt lat="42.3359271605" lon="-7.8655220289">
        <ele>142.41</ele>
        <time>2020-08-14T07:20:54Z</time>
      </trkpt>
      <trkpt lat="42.3359308485" lon="-7.8652675543">
        <ele>142.89</ele>
        <time>2020-08-14T07:21:02Z</time>
      </trkpt>
      <trkpt lat="42.3359038588" lon="-7.8649914544">
        <ele>143.85</ele>
        <time>2020-08-14T07:21:11Z</time>
      </trkpt>
      <trkpt lat="42.3359345365" lon="-7.8647396620">
        <ele>143.85</ele>
        <time>2020-08-14T07:21:18Z</time>
      </trkpt>
      <trkpt lat="42.3359839059" lon="-7.8644894622">
        <ele>142.89</ele>
        <time>2020-08-14T07:21:26Z</time>
      </trkpt>
      <trkpt lat="42.3360028490" lon="-7.8643713612">
        <ele>142.41</ele>
        <time>2020-08-14T07:21:30Z</time>
      </trkpt>
      <trkpt lat="42.3359632865" lon="-7.8642934095">
        <ele>140.01</ele>
        <time>2020-08-14T07:21:37Z</time>
      </trkpt>
      <trkpt lat="42.3358867597" lon="-7.8641141206">
        <ele>137.13</ele>
        <time>2020-08-14T07:21:46Z</time>
      </trkpt>
      <trkpt lat="42.3358246498" lon="-7.8639947623">
        <ele>140.01</ele>
        <time>2020-08-14T07:21:53Z</time>
      </trkpt>
      <trkpt lat="42.3357895296" lon="-7.8638879769">
        <ele>140.97</ele>
        <time>2020-08-14T07:21:58Z</time>
      </trkpt>
      <trkpt lat="42.3357049562" lon="-7.8638014756">
        <ele>141.93</ele>
        <time>2020-08-14T07:22:03Z</time>
      </trkpt>
      <trkpt lat="42.3355912976" lon="-7.8637355939">
        <ele>142.41</ele>
        <time>2020-08-14T07:22:10Z</time>
      </trkpt>
      <trkpt lat="42.3355767969" lon="-7.8637433890">
        <ele>142.41</ele>
        <time>2020-08-14T07:22:17Z</time>
      </trkpt>
      <trkpt lat="42.3355603684" lon="-7.8636785969">
        <ele>147.70</ele>
        <time>2020-08-14T07:22:37Z</time>
      </trkpt>
      <trkpt lat="42.3355460353" lon="-7.8637003060">
        <ele>149.62</ele>
        <time>2020-08-14T07:22:46Z</time>
      </trkpt>
      <trkpt lat="42.3355683312" lon="-7.8636854701">
        <ele>150.58</ele>
        <time>2020-08-14T07:22:50Z</time>
      </trkpt>
      <trkpt lat="42.3356561735" lon="-7.8637552075">
        <ele>149.62</ele>
        <time>2020-08-14T07:22:57Z</time>
      </trkpt>
      <trkpt lat="42.3357598577" lon="-7.8637923393">
        <ele>150.10</ele>
        <time>2020-08-14T07:23:03Z</time>
      </trkpt>
      <trkpt lat="42.3357838299" lon="-7.8637848794">
        <ele>150.10</ele>
        <time>2020-08-14T07:23:04Z</time>
      </trkpt>
      <trkpt lat="42.3359730095" lon="-7.8637060057">
        <ele>151.06</ele>
        <time>2020-08-14T07:23:12Z</time>
      </trkpt>
      <trkpt lat="42.3360389750" lon="-7.8637142200">
        <ele>151.06</ele>
        <time>2020-08-14T07:23:15Z</time>
      </trkpt>
      <trkpt lat="42.3361763544" lon="-7.8637633380">
        <ele>154.43</ele>
        <time>2020-08-14T07:23:23Z</time>
      </trkpt>
      <trkpt lat="42.3362063617" lon="-7.8637723066">
        <ele>155.39</ele>
        <time>2020-08-14T07:23:25Z</time>
      </trkpt>
      <trkpt lat="42.3363285698" lon="-7.8637960274">
        <ele>158.27</ele>
        <time>2020-08-14T07:23:31Z</time>
      </trkpt>
      <trkpt lat="42.3363282345" lon="-7.8638138808">
        <ele>158.75</ele>
        <time>2020-08-14T07:23:33Z</time>
      </trkpt>
      <trkpt lat="42.3363227025" lon="-7.8639348317">
        <ele>161.16</ele>
        <time>2020-08-14T07:23:39Z</time>
      </trkpt>
      <trkpt lat="42.3363898415" lon="-7.8639587201">
        <ele>163.08</ele>
        <time>2020-08-14T07:23:44Z</time>
      </trkpt>
      <trkpt lat="42.3364065215" lon="-7.8639736399">
        <ele>167.41</ele>
        <time>2020-08-14T07:23:56Z</time>
      </trkpt>
      <trkpt lat="42.3364206031" lon="-7.8639746457">
        <ele>168.85</ele>
        <time>2020-08-14T07:24:05Z</time>
      </trkpt>
      <trkpt lat="42.3364315834" lon="-7.8639605641">
        <ele>169.33</ele>
        <time>2020-08-14T07:24:16Z</time>
      </trkpt>
      <trkpt lat="42.3364340141" lon="-7.8639576305">
        <ele>169.33</ele>
        <time>2020-08-14T07:24:28Z</time>
      </trkpt>
      <trkpt lat="42.3364210222" lon="-7.8639760707">
        <ele>169.81</ele>
        <time>2020-08-14T07:24:48Z</time>
      </trkpt>
      <trkpt lat="42.3364233691" lon="-7.8639782500">
        <ele>170.77</ele>
        <time>2020-08-14T07:24:59Z</time>
      </trkpt>
      <trkpt lat="42.3364268057" lon="-7.8639737237">
        <ele>171.73</ele>
        <time>2020-08-14T07:25:13Z</time>
      </trkpt>
      <trkpt lat="42.3364373669" lon="-7.8639603965">
        <ele>170.29</ele>
        <time>2020-08-14T07:25:27Z</time>
      </trkpt>
      <trkpt lat="42.3364450783" lon="-7.8639520146">
        <ele>168.37</ele>
        <time>2020-08-14T07:25:39Z</time>
      </trkpt>
      <trkpt lat="42.3364480119" lon="-7.8639454767">
        <ele>168.37</ele>
        <time>2020-08-14T07:25:50Z</time>
      </trkpt>
      <trkpt lat="42.3364441562" lon="-7.8639608156">
        <ele>170.77</ele>
        <time>2020-08-14T07:26:09Z</time>
      </trkpt>
      <trkpt lat="42.3364350200" lon="-7.8639546968">
        <ele>172.69</ele>
        <time>2020-08-14T07:26:24Z</time>
      </trkpt>
      <trkpt lat="42.3364491016" lon="-7.8639599774">
        <ele>173.17</ele>
        <time>2020-08-14T07:26:44Z</time>
      </trkpt>
      <trkpt lat="42.3364552204" lon="-7.8639717959">
        <ele>174.14</ele>
        <time>2020-08-14T07:26:59Z</time>
      </trkpt>
      <trkpt lat="42.3364595789" lon="-7.8639512602">
        <ele>174.62</ele>
        <time>2020-08-14T07:27:14Z</time>
      </trkpt>
      <trkpt lat="42.3364366964" lon="-7.8639483266">
        <ele>175.10</ele>
        <time>2020-08-14T07:27:28Z</time>
      </trkpt>
      <trkpt lat="42.3364563938" lon="-7.8639474045">
        <ele>174.14</ele>
        <time>2020-08-14T07:27:36Z</time>
      </trkpt>
      <trkpt lat="42.3364810366" lon="-7.8639362566">
        <ele>171.73</ele>
        <time>2020-08-14T07:27:43Z</time>
      </trkpt>
      <trkpt lat="42.3365090322" lon="-7.8638685308">
        <ele>167.41</ele>
        <time>2020-08-14T07:27:52Z</time>
      </trkpt>
      <trkpt lat="42.3365109600" lon="-7.8638246097">
        <ele>165.00</ele>
        <time>2020-08-14T07:27:59Z</time>
      </trkpt>
      <trkpt lat="42.3366077710" lon="-7.8638067562">
        <ele>162.12</ele>
        <time>2020-08-14T07:28:07Z</time>
      </trkpt>
      <trkpt lat="42.3366503511" lon="-7.8637854662">
        <ele>159.24</ele>
        <time>2020-08-14T07:28:15Z</time>
      </trkpt>
      <trkpt lat="42.3366618343" lon="-7.8637692891">
        <ele>157.31</ele>
        <time>2020-08-14T07:28:27Z</time>
      </trkpt>
      <trkpt lat="42.3366690427" lon="-7.8637941834">
        <ele>155.39</ele>
        <time>2020-08-14T07:28:34Z</time>
      </trkpt>
      <trkpt lat="42.3366906680" lon="-7.8638174012">
        <ele>156.83</ele>
        <time>2020-08-14T07:28:40Z</time>
      </trkpt>
      <trkpt lat="42.3366902489" lon="-7.8638231009">
        <ele>156.83</ele>
        <time>2020-08-14T07:28:41Z</time>
      </trkpt>
      <trkpt lat="42.3366859742" lon="-7.8639420401">
        <ele>157.31</ele>
        <time>2020-08-14T07:28:47Z</time>
      </trkpt>
      <trkpt lat="42.3366746586" lon="-7.8641284537">
        <ele>157.79</ele>
        <time>2020-08-14T07:28:55Z</time>
      </trkpt>
      <trkpt lat="42.3366659414" lon="-7.8643031325">
        <ele>157.31</ele>
        <time>2020-08-14T07:29:04Z</time>
      </trkpt>
      <trkpt lat="42.3366650194" lon="-7.8643499874">
        <ele>158.75</ele>
        <time>2020-08-14T07:29:10Z</time>
      </trkpt>
      <trkpt lat="42.3366899975" lon="-7.8642687667">
        <ele>160.20</ele>
        <time>2020-08-14T07:29:15Z</time>
      </trkpt>
      <trkpt lat="42.3367086053" lon="-7.8641008772">
        <ele>159.24</ele>
        <time>2020-08-14T07:29:24Z</time>
      </trkpt>
      <trkpt lat="42.3367131315" lon="-7.8638761584">
        <ele>161.16</ele>
        <time>2020-08-14T07:29:33Z</time>
      </trkpt>
      <trkpt lat="42.3367384449" lon="-7.8637174889">
        <ele>158.27</ele>
        <time>2020-08-14T07:29:39Z</time>
      </trkpt>
      <trkpt lat="42.3367600702" lon="-7.8635356016">
        <ele>158.75</ele>
        <time>2020-08-14T07:29:46Z</time>
      </trkpt>
      <trkpt lat="42.3367649317" lon="-7.8635298181">
        <ele>159.72</ele>
        <time>2020-08-14T07:29:51Z</time>
      </trkpt>
      <trkpt lat="42.3367494252" lon="-7.8634265531">
        <ele>159.72</ele>
        <time>2020-08-14T07:29:59Z</time>
      </trkpt>
      <trkpt lat="42.3367627524" lon="-7.8632432409">
        <ele>159.72</ele>
        <time>2020-08-14T07:30:09Z</time>
      </trkpt>
      <trkpt lat="42.3367687035" lon="-7.8631921113">
        <ele>160.20</ele>
        <time>2020-08-14T07:30:12Z</time>
      </trkpt>
      <trkpt lat="42.3367687035" lon="-7.8631117288">
        <ele>160.68</ele>
        <time>2020-08-14T07:30:18Z</time>
      </trkpt>
      <trkpt lat="42.3367737327" lon="-7.8631237149">
        <ele>162.60</ele>
        <time>2020-08-14T07:30:25Z</time>
      </trkpt>
      <trkpt lat="42.3367819469" lon="-7.8631079569">
        <ele>163.08</ele>
        <time>2020-08-14T07:30:40Z</time>
      </trkpt>
      <trkpt lat="42.3367730621" lon="-7.8631089628">
        <ele>163.08</ele>
        <time>2020-08-14T07:30:53Z</time>
      </trkpt>
      <trkpt lat="42.3367648479" lon="-7.8631159198">
        <ele>163.56</ele>
        <time>2020-08-14T07:31:06Z</time>
      </trkpt>
      <trkpt lat="42.3367461562" lon="-7.8631099686">
        <ele>165.96</ele>
        <time>2020-08-14T07:31:21Z</time>
      </trkpt>
      <trkpt lat="42.3367243633" lon="-7.8631113935">
        <ele>168.85</ele>
        <time>2020-08-14T07:31:36Z</time>
      </trkpt>
      <trkpt lat="42.3367442284" lon="-7.8631069511">
        <ele>167.89</ele>
        <time>2020-08-14T07:31:56Z</time>
      </trkpt>
      <trkpt lat="42.3367507663" lon="-7.8631016705">
        <ele>165.00</ele>
        <time>2020-08-14T07:32:10Z</time>
      </trkpt>
      <trkpt lat="42.3367643449" lon="-7.8630658798">
        <ele>165.48</ele>
        <time>2020-08-14T07:32:28Z</time>
      </trkpt>
      <trkpt lat="42.3367521912" lon="-7.8630365431">
        <ele>169.33</ele>
        <time>2020-08-14T07:32:44Z</time>
      </trkpt>
      <trkpt lat="42.3367447313" lon="-7.8630431648">
        <ele>174.14</ele>
        <time>2020-08-14T07:32:59Z</time>
      </trkpt>
      <trkpt lat="42.3367423005" lon="-7.8630536422">
        <ele>176.54</ele>
        <time>2020-08-14T07:33:21Z</time>
      </trkpt>
      <trkpt lat="42.3367601540" lon="-7.8630497865">
        <ele>174.62</ele>
        <time>2020-08-14T07:33:36Z</time>
      </trkpt>
      <trkpt lat="42.3367609922" lon="-7.8630854096">
        <ele>175.10</ele>
        <time>2020-08-14T07:33:56Z</time>
      </trkpt>
      <trkpt lat="42.3367368523" lon="-7.8630990721">
        <ele>173.66</ele>
        <time>2020-08-14T07:34:12Z</time>
      </trkpt>
      <trkpt lat="42.3367303144" lon="-7.8631162550">
        <ele>174.62</ele>
        <time>2020-08-14T07:34:32Z</time>
      </trkpt>
      <trkpt lat="42.3367419653" lon="-7.8631315939">
        <ele>173.17</ele>
        <time>2020-08-14T07:34:52Z</time>
      </trkpt>
      <trkpt lat="42.3367408756" lon="-7.8631269000">
        <ele>172.69</ele>
        <time>2020-08-14T07:35:08Z</time>
      </trkpt>
      <trkpt lat="42.3367359303" lon="-7.8631447535">
        <ele>170.29</ele>
        <time>2020-08-14T07:35:27Z</time>
      </trkpt>
      <trkpt lat="42.3367404565" lon="-7.8631346952">
        <ele>167.41</ele>
        <time>2020-08-14T07:35:42Z</time>
      </trkpt>
      <trkpt lat="42.3367728107" lon="-7.8631272353">
        <ele>165.48</ele>
        <time>2020-08-14T07:36:00Z</time>
      </trkpt>
      <trkpt lat="42.3367868923" lon="-7.8630968928">
        <ele>165.00</ele>
        <time>2020-08-14T07:36:17Z</time>
      </trkpt>
      <trkpt lat="42.3367962800" lon="-7.8630890138">
        <ele>162.60</ele>
        <time>2020-08-14T07:36:37Z</time>
      </trkpt>
      <trkpt lat="42.3367907479" lon="-7.8630746808">
        <ele>161.16</ele>
        <time>2020-08-14T07:36:48Z</time>
      </trkpt>
      <trkpt lat="42.3367688712" lon="-7.8630801290">
        <ele>161.64</ele>
        <time>2020-08-14T07:37:04Z</time>
      </trkpt>
      <trkpt lat="42.3367613275" lon="-7.8630980663">
        <ele>161.16</ele>
        <time>2020-08-14T07:37:21Z</time>
      </trkpt>
      <trkpt lat="42.3367242794" lon="-7.8631218709">
        <ele>161.16</ele>
        <time>2020-08-14T07:37:39Z</time>
      </trkpt>
      <trkpt lat="42.3367166519" lon="-7.8631424904">
        <ele>160.68</ele>
        <time>2020-08-14T07:37:53Z</time>
      </trkpt>
      <trkpt lat="42.3367243633" lon="-7.8631101362">
        <ele>161.64</ele>
        <time>2020-08-14T07:38:07Z</time>
      </trkpt>
      <trkpt lat="42.3367241118" lon="-7.8630852420">
        <ele>163.08</ele>
        <time>2020-08-14T07:38:19Z</time>
      </trkpt>
      <trkpt lat="42.3367388640" lon="-7.8630797938">
        <ele>165.96</ele>
        <time>2020-08-14T07:38:29Z</time>
      </trkpt>
      <trkpt lat="42.3367573880" lon="-7.8630945459">
        <ele>169.81</ele>
        <time>2020-08-14T07:38:38Z</time>
      </trkpt>
      <trkpt lat="42.3368580546" lon="-7.8630959708">
        <ele>167.89</ele>
        <time>2020-08-14T07:38:45Z</time>
      </trkpt>
      <trkpt lat="42.3369723000" lon="-7.8631327674">
        <ele>166.45</ele>
        <time>2020-08-14T07:38:51Z</time>
      </trkpt>
      <trkpt lat="42.3371649999" lon="-7.8631589189">
        <ele>164.52</ele>
        <time>2020-08-14T07:39:00Z</time>
      </trkpt>
      <trkpt lat="42.3372872081" lon="-7.8632190172">
        <ele>163.56</ele>
        <time>2020-08-14T07:39:06Z</time>
      </trkpt>
      <trkpt lat="42.3374081589" lon="-7.8632165864">
        <ele>166.93</ele>
        <time>2020-08-14T07:39:14Z</time>
      </trkpt>
      <trkpt lat="42.3374397587" lon="-7.8632214479">
        <ele>167.41</ele>
        <time>2020-08-14T07:39:15Z</time>
      </trkpt>
      <trkpt lat="42.3375781439" lon="-7.8633398004">
        <ele>165.00</ele>
        <time>2020-08-14T07:39:21Z</time>
      </trkpt>
      <trkpt lat="42.3376308661" lon="-7.8634960391">
        <ele>159.72</ele>
        <time>2020-08-14T07:39:26Z</time>
      </trkpt>
      <trkpt lat="42.3376442771" lon="-7.8635356855">
        <ele>159.24</ele>
        <time>2020-08-14T07:39:27Z</time>
      </trkpt>
      <trkpt lat="42.3376999330" lon="-7.8639313951">
        <ele>153.95</ele>
        <time>2020-08-14T07:39:36Z</time>
      </trkpt>
      <trkpt lat="42.3376806546" lon="-7.8642246779">
        <ele>152.51</ele>
        <time>2020-08-14T07:39:43Z</time>
      </trkpt>
      <trkpt lat="42.3376357276" lon="-7.8645311203">
        <ele>151.54</ele>
        <time>2020-08-14T07:39:50Z</time>
      </trkpt>
      <trkpt lat="42.3375954106" lon="-7.8647497203">
        <ele>152.99</ele>
        <time>2020-08-14T07:39:56Z</time>
      </trkpt>
      <trkpt lat="42.3374931514" lon="-7.8650084697">
        <ele>155.87</ele>
        <time>2020-08-14T07:40:03Z</time>
      </trkpt>
      <trkpt lat="42.3374587018" lon="-7.8653640300">
        <ele>152.99</ele>
        <time>2020-08-14T07:40:10Z</time>
      </trkpt>
      <trkpt lat="42.3374431115" lon="-7.8657485917">
        <ele>149.62</ele>
        <time>2020-08-14T07:40:18Z</time>
      </trkpt>
      <trkpt lat="42.3374633957" lon="-7.8658544552">
        <ele>148.66</ele>
        <time>2020-08-14T07:40:21Z</time>
      </trkpt>
      <trkpt lat="42.3374784831" lon="-7.8658682015">
        <ele>148.66</ele>
        <time>2020-08-14T07:40:22Z</time>
      </trkpt>
      <trkpt lat="42.3375039641" lon="-7.8658764996">
        <ele>148.18</ele>
        <time>2020-08-14T07:40:23Z</time>
      </trkpt>
      <trkpt lat="42.3375322111" lon="-7.8658774216">
        <ele>147.70</ele>
        <time>2020-08-14T07:40:24Z</time>
      </trkpt>
      <trkpt lat="42.3375631403" lon="-7.8658786789">
        <ele>147.70</ele>
        <time>2020-08-14T07:40:25Z</time>
      </trkpt>
      <trkpt lat="42.3376000207" lon="-7.8658800200">
        <ele>147.22</ele>
        <time>2020-08-14T07:40:26Z</time>
      </trkpt>
      <trkpt lat="42.3379828222" lon="-7.8658974543">
        <ele>145.30</ele>
        <time>2020-08-14T07:40:35Z</time>
      </trkpt>
      <trkpt lat="42.3383814655" lon="-7.8659962770">
        <ele>143.85</ele>
        <time>2020-08-14T07:40:43Z</time>
      </trkpt>
      <trkpt lat="42.3388044164" lon="-7.8662339877">
        <ele>140.97</ele>
        <time>2020-08-14T07:40:51Z</time>
      </trkpt>
      <trkpt lat="42.3390738107" lon="-7.8663665894">
        <ele>139.53</ele>
        <time>2020-08-14T07:40:57Z</time>
      </trkpt>
      <trkpt lat="42.3391062487" lon="-7.8663740493">
        <ele>139.53</ele>
        <time>2020-08-14T07:40:58Z</time>
      </trkpt>
      <trkpt lat="42.3391551990" lon="-7.8664038889">
        <ele>140.97</ele>
        <time>2020-08-14T07:41:03Z</time>
      </trkpt>
      <trkpt lat="42.3391604796" lon="-7.8664086666">
        <ele>143.85</ele>
        <time>2020-08-14T07:41:11Z</time>
      </trkpt>
      <trkpt lat="42.3392286245" lon="-7.8664366622">
        <ele>144.34</ele>
        <time>2020-08-14T07:41:18Z</time>
      </trkpt>
      <trkpt lat="42.3394777346" lon="-7.8665367421">
        <ele>147.70</ele>
        <time>2020-08-14T07:41:26Z</time>
      </trkpt>
      <trkpt lat="42.3396921437" lon="-7.8665642347">
        <ele>157.31</ele>
        <time>2020-08-14T07:41:33Z</time>
      </trkpt>
      <trkpt lat="42.3397368193" lon="-7.8665670007">
        <ele>159.24</ele>
        <time>2020-08-14T07:41:35Z</time>
      </trkpt>
      <trkpt lat="42.3397534154" lon="-7.8665861115">
        <ele>163.08</ele>
        <time>2020-08-14T07:41:40Z</time>
      </trkpt>
      <trkpt lat="42.3397512361" lon="-7.8666104190">
        <ele>165.00</ele>
        <time>2020-08-14T07:41:50Z</time>
      </trkpt>
      <trkpt lat="42.3398006894" lon="-7.8666040488">
        <ele>164.52</ele>
        <time>2020-08-14T07:41:55Z</time>
      </trkpt>
      <trkpt lat="42.3398219794" lon="-7.8665967565">
        <ele>165.00</ele>
        <time>2020-08-14T07:41:57Z</time>
      </trkpt>
      <trkpt lat="42.3398273438" lon="-7.8665947448">
        <ele>165.96</ele>
        <time>2020-08-14T07:41:58Z</time>
      </trkpt>
      <trkpt lat="42.3398787249" lon="-7.8666094132">
        <ele>165.96</ele>
        <time>2020-08-14T07:42:04Z</time>
      </trkpt>
      <trkpt lat="42.3399128392" lon="-7.8665839322">
        <ele>164.52</ele>
        <time>2020-08-14T07:42:10Z</time>
      </trkpt>
      <trkpt lat="42.3399059661" lon="-7.8665914759">
        <ele>165.00</ele>
        <time>2020-08-14T07:42:11Z</time>
      </trkpt>
      <trkpt lat="42.3398965783" lon="-7.8665948287">
        <ele>165.00</ele>
        <time>2020-08-14T07:42:12Z</time>
      </trkpt>
      <trkpt lat="42.3398767971" lon="-7.8665897995">
        <ele>165.48</ele>
        <time>2020-08-14T07:42:13Z</time>
      </trkpt>
      <trkpt lat="42.3398643080" lon="-7.8666084073">
        <ele>165.96</ele>
        <time>2020-08-14T07:42:15Z</time>
      </trkpt>
      <trkpt lat="42.3398547526" lon="-7.8666374087">
        <ele>166.93</ele>
        <time>2020-08-14T07:42:16Z</time>
      </trkpt>
      <trkpt lat="42.3398555070" lon="-7.8666512389">
        <ele>166.93</ele>
        <time>2020-08-14T07:42:17Z</time>
      </trkpt>
      <trkpt lat="42.3398766294" lon="-7.8666826710">
        <ele>166.93</ele>
        <time>2020-08-14T07:42:19Z</time>
      </trkpt>
      <trkpt lat="42.3398953211" lon="-7.8666945733">
        <ele>166.93</ele>
        <time>2020-08-14T07:42:20Z</time>
      </trkpt>
      <trkpt lat="42.3399140127" lon="-7.8667025361">
        <ele>166.93</ele>
        <time>2020-08-14T07:42:21Z</time>
      </trkpt>
      <trkpt lat="42.3399252445" lon="-7.8667079844">
        <ele>166.93</ele>
        <time>2020-08-14T07:42:22Z</time>
      </trkpt>
      <trkpt lat="42.3399429303" lon="-7.8667147737">
        <ele>166.45</ele>
        <time>2020-08-14T07:42:23Z</time>
      </trkpt>
      <trkpt lat="42.3399600293" lon="-7.8667242453">
        <ele>166.45</ele>
        <time>2020-08-14T07:42:24Z</time>
      </trkpt>
      <trkpt lat="42.3400977440" lon="-7.8668011911">
        <ele>167.41</ele>
        <time>2020-08-14T07:42:33Z</time>
      </trkpt>
      <trkpt lat="42.3402029369" lon="-7.8668897040">
        <ele>167.41</ele>
        <time>2020-08-14T07:42:41Z</time>
      </trkpt>
      <trkpt lat="42.3402761109" lon="-7.8669409174">
        <ele>166.93</ele>
        <time>2020-08-14T07:42:48Z</time>
      </trkpt>
      <trkpt lat="42.3403170984" lon="-7.8669691645">
        <ele>166.45</ele>
        <time>2020-08-14T07:42:51Z</time>
      </trkpt>
      <trkpt lat="42.3403304256" lon="-7.8669757862">
        <ele>166.45</ele>
        <time>2020-08-14T07:42:52Z</time>
      </trkpt>
      <trkpt lat="42.3403420765" lon="-7.8669822402">
        <ele>166.45</ele>
        <time>2020-08-14T07:42:53Z</time>
      </trkpt>
      <trkpt lat="42.3404578306" lon="-7.8670406621">
        <ele>166.45</ele>
        <time>2020-08-14T07:43:02Z</time>
      </trkpt>
      <trkpt lat="42.3405780271" lon="-7.8671130817">
        <ele>166.93</ele>
        <time>2020-08-14T07:43:11Z</time>
      </trkpt>
      <trkpt lat="42.3406604212" lon="-7.8671587631">
        <ele>166.93</ele>
        <time>2020-08-14T07:43:17Z</time>
      </trkpt>
      <trkpt lat="42.3406714015" lon="-7.8671708331">
        <ele>166.93</ele>
        <time>2020-08-14T07:43:18Z</time>
      </trkpt>
      <trkpt lat="42.3407858983" lon="-7.8672314342">
        <ele>166.93</ele>
        <time>2020-08-14T07:43:26Z</time>
      </trkpt>
      <trkpt lat="42.3408946954" lon="-7.8673005849">
        <ele>166.45</ele>
        <time>2020-08-14T07:43:34Z</time>
      </trkpt>
      <trkpt lat="42.3410088569" lon="-7.8673916962">
        <ele>166.45</ele>
        <time>2020-08-14T07:43:43Z</time>
      </trkpt>
      <trkpt lat="42.3411179055" lon="-7.8674391378">
        <ele>166.93</ele>
        <time>2020-08-14T07:43:52Z</time>
      </trkpt>
      <trkpt lat="42.3412817717" lon="-7.8675071150">
        <ele>166.45</ele>
        <time>2020-08-14T07:44:04Z</time>
      </trkpt>
      <trkpt lat="42.3414165527" lon="-7.8675777745">
        <ele>164.04</ele>
        <time>2020-08-14T07:44:14Z</time>
      </trkpt>
      <trkpt lat="42.3414288741" lon="-7.8675737511">
        <ele>164.04</ele>
        <time>2020-08-14T07:44:15Z</time>
      </trkpt>
      <trkpt lat="42.3414444644" lon="-7.8675716557">
        <ele>164.04</ele>
        <time>2020-08-14T07:44:16Z</time>
      </trkpt>
      <trkpt lat="42.3414579593" lon="-7.8675705660">
        <ele>164.04</ele>
        <time>2020-08-14T07:44:17Z</time>
      </trkpt>
      <trkpt lat="42.3414702807" lon="-7.8675631899">
        <ele>164.52</ele>
        <time>2020-08-14T07:44:18Z</time>
      </trkpt>
      <trkpt lat="42.3414831888" lon="-7.8675574902">
        <ele>165.00</ele>
        <time>2020-08-14T07:44:19Z</time>
      </trkpt>
      <trkpt lat="42.3415015452" lon="-7.8675520420">
        <ele>165.48</ele>
        <time>2020-08-14T07:44:20Z</time>
      </trkpt>
      <trkpt lat="42.3415172193" lon="-7.8675554786">
        <ele>165.48</ele>
        <time>2020-08-14T07:44:21Z</time>
      </trkpt>
      <trkpt lat="42.3415296245" lon="-7.8675618488">
        <ele>165.96</ele>
        <time>2020-08-14T07:44:22Z</time>
      </trkpt>
      <trkpt lat="42.3415411916" lon="-7.8675685544">
        <ele>165.96</ele>
        <time>2020-08-14T07:44:23Z</time>
      </trkpt>
      <trkpt lat="42.3415559437" lon="-7.8675753437">
        <ele>166.45</ele>
        <time>2020-08-14T07:44:24Z</time>
      </trkpt>
      <trkpt lat="42.3415693548" lon="-7.8675805405">
        <ele>166.45</ele>
        <time>2020-08-14T07:44:25Z</time>
      </trkpt>
      <trkpt lat="42.3415834364" lon="-7.8675818816">
        <ele>166.45</ele>
        <time>2020-08-14T07:44:26Z</time>
      </trkpt>
      <trkpt lat="42.3415970989" lon="-7.8675855696">
        <ele>166.45</ele>
        <time>2020-08-14T07:44:27Z</time>
      </trkpt>
      <trkpt lat="42.3416100070" lon="-7.8675902635">
        <ele>166.45</ele>
        <time>2020-08-14T07:44:28Z</time>
      </trkpt>
      <trkpt lat="42.3416229151" lon="-7.8675925266">
        <ele>166.45</ele>
        <time>2020-08-14T07:44:29Z</time>
      </trkpt>
      <trkpt lat="42.3416366614" lon="-7.8675906826">
        <ele>166.93</ele>
        <time>2020-08-14T07:44:30Z</time>
      </trkpt>
      <trkpt lat="42.3417316284" lon="-7.8676662035">
        <ele>166.93</ele>
        <time>2020-08-14T07:44:38Z</time>
      </trkpt>
      <trkpt lat="42.3418655712" lon="-7.8677848075">
        <ele>166.45</ele>
        <time>2020-08-14T07:44:49Z</time>
      </trkpt>
      <trkpt lat="42.3420034535" lon="-7.8678723983">
        <ele>164.52</ele>
        <time>2020-08-14T07:45:00Z</time>
      </trkpt>
      <trkpt lat="42.3421422578" lon="-7.8678947780">
        <ele>164.04</ele>
        <time>2020-08-14T07:45:10Z</time>
      </trkpt>
      <trkpt lat="42.3422304355" lon="-7.8679310717">
        <ele>165.48</ele>
        <time>2020-08-14T07:45:17Z</time>
      </trkpt>
      <trkpt lat="42.3424062040" lon="-7.8679877333">
        <ele>165.48</ele>
        <time>2020-08-14T07:45:30Z</time>
      </trkpt>
      <trkpt lat="42.3425528035" lon="-7.8679981269">
        <ele>162.12</ele>
        <time>2020-08-14T07:45:39Z</time>
      </trkpt>
      <trkpt lat="42.3425636161" lon="-7.8679856379">
        <ele>161.64</ele>
        <time>2020-08-14T07:45:40Z</time>
      </trkpt>
      <trkpt lat="42.3425730038" lon="-7.8679685388">
        <ele>160.68</ele>
        <time>2020-08-14T07:45:41Z</time>
      </trkpt>
      <trkpt lat="42.3425848223" lon="-7.8679292277">
        <ele>159.72</ele>
        <time>2020-08-14T07:45:43Z</time>
      </trkpt>
      <trkpt lat="42.3426619358" lon="-7.8677340131">
        <ele>156.83</ele>
        <time>2020-08-14T07:45:55Z</time>
      </trkpt>
      <trkpt lat="42.3427784443" lon="-7.8676543012">
        <ele>152.03</ele>
        <time>2020-08-14T07:46:04Z</time>
      </trkpt>
      <trkpt lat="42.3428066913" lon="-7.8676466737">
        <ele>149.14</ele>
        <time>2020-08-14T07:46:10Z</time>
      </trkpt>
      <trkpt lat="42.3428725731" lon="-7.8676209413">
        <ele>141.93</ele>
        <time>2020-08-14T07:46:17Z</time>
      </trkpt>
      <trkpt lat="42.3429838009" lon="-7.8676785249">
        <ele>141.93</ele>
        <time>2020-08-14T07:46:22Z</time>
      </trkpt>
      <trkpt lat="42.3430687934" lon="-7.8678872343">
        <ele>141.93</ele>
        <time>2020-08-14T07:46:27Z</time>
      </trkpt>
      <trkpt lat="42.3431594018" lon="-7.8681086842">
        <ele>139.05</ele>
        <time>2020-08-14T07:46:31Z</time>
      </trkpt>
      <trkpt lat="42.3431999702" lon="-7.8681474924">
        <ele>138.09</ele>
        <time>2020-08-14T07:46:32Z</time>
      </trkpt>
      <trkpt lat="42.3432338331" lon="-7.8681723028">
        <ele>137.61</ele>
        <time>2020-08-14T07:46:33Z</time>
      </trkpt>
      <trkpt lat="42.3433647584" lon="-7.8682726342">
        <ele>135.68</ele>
        <time>2020-08-14T07:46:36Z</time>
      </trkpt>
      <trkpt lat="42.3433995433" lon="-7.8683119453">
        <ele>135.20</ele>
        <time>2020-08-14T07:46:37Z</time>
      </trkpt>
      <trkpt lat="42.3434274551" lon="-7.8683573753">
        <ele>134.72</ele>
        <time>2020-08-14T07:46:38Z</time>
      </trkpt>
      <trkpt lat="42.3434515111" lon="-7.8684146237">
        <ele>133.76</ele>
        <time>2020-08-14T07:46:39Z</time>
      </trkpt>
      <trkpt lat="42.3434639163" lon="-7.8684625681">
        <ele>132.80</ele>
        <time>2020-08-14T07:46:40Z</time>
      </trkpt>
      <trkpt lat="42.3434709571" lon="-7.8685061540">
        <ele>131.84</ele>
        <time>2020-08-14T07:46:41Z</time>
      </trkpt>
      <trkpt lat="42.3434790038" lon="-7.8685463034">
        <ele>130.88</ele>
        <time>2020-08-14T07:46:42Z</time>
      </trkpt>
      <trkpt lat="42.3434860446" lon="-7.8685768135">
        <ele>130.40</ele>
        <time>2020-08-14T07:46:43Z</time>
      </trkpt>
      <trkpt lat="42.3435001262" lon="-7.8686063178">
        <ele>129.92</ele>
        <time>2020-08-14T07:46:44Z</time>
      </trkpt>
      <trkpt lat="42.3435303010" lon="-7.8686124366">
        <ele>129.43</ele>
        <time>2020-08-14T07:46:45Z</time>
      </trkpt>
      <trkpt lat="42.3435457237" lon="-7.8686066531">
        <ele>128.95</ele>
        <time>2020-08-14T07:46:46Z</time>
      </trkpt>
      <trkpt lat="42.3435660079" lon="-7.8685996123">
        <ele>128.95</ele>
        <time>2020-08-14T07:46:47Z</time>
      </trkpt>
      <trkpt lat="42.3435851187" lon="-7.8685913980">
        <ele>128.47</ele>
        <time>2020-08-14T07:46:48Z</time>
      </trkpt>
      <trkpt lat="42.3437430337" lon="-7.8686037194">
        <ele>126.55</ele>
        <time>2020-08-14T07:46:56Z</time>
      </trkpt>
      <trkpt lat="42.3439311236" lon="-7.8687129356">
        <ele>126.07</ele>
        <time>2020-08-14T07:47:05Z</time>
      </trkpt>
      <trkpt lat="42.3440915532" lon="-7.8687706869">
        <ele>125.11</ele>
        <time>2020-08-14T07:47:12Z</time>
      </trkpt>
      <trkpt lat="42.3441371508" lon="-7.8687826730">
        <ele>125.11</ele>
        <time>2020-08-14T07:47:18Z</time>
      </trkpt>
      <trkpt lat="42.3441576026" lon="-7.8687987663">
        <ele>123.19</ele>
        <time>2020-08-14T07:47:32Z</time>
      </trkpt>
      <trkpt lat="42.3442769609" lon="-7.8688402567">
        <ele>122.22</ele>
        <time>2020-08-14T07:47:40Z</time>
      </trkpt>
      <trkpt lat="42.3444290087" lon="-7.8688737005">
        <ele>121.74</ele>
        <time>2020-08-14T07:47:49Z</time>
      </trkpt>
      <trkpt lat="42.3446616065" lon="-7.8688594513">
        <ele>122.71</ele>
        <time>2020-08-14T07:48:00Z</time>
      </trkpt>
      <trkpt lat="42.3447733372" lon="-7.8688133508">
        <ele>122.71</ele>
        <time>2020-08-14T07:48:07Z</time>
      </trkpt>
      <trkpt lat="42.3447582498" lon="-7.8688091598">
        <ele>123.19</ele>
        <time>2020-08-14T07:48:16Z</time>
      </trkpt>
      <trkpt lat="42.3447782826" lon="-7.8688291088">
        <ele>122.71</ele>
        <time>2020-08-14T07:48:24Z</time>
      </trkpt>
      <trkpt lat="42.3448012490" lon="-7.8688406758">
        <ele>122.71</ele>
        <time>2020-08-14T07:48:30Z</time>
      </trkpt>
      <trkpt lat="42.3448170070" lon="-7.8688388318">
        <ele>122.71</ele>
        <time>2020-08-14T07:48:31Z</time>
      </trkpt>
      <trkpt lat="42.3448352795" lon="-7.8688364848">
        <ele>122.71</ele>
        <time>2020-08-14T07:48:32Z</time>
      </trkpt>
      <trkpt lat="42.3448532168" lon="-7.8688338865">
        <ele>122.71</ele>
        <time>2020-08-14T07:48:33Z</time>
      </trkpt>
      <trkpt lat="42.3448721599" lon="-7.8688302822">
        <ele>122.71</ele>
        <time>2020-08-14T07:48:34Z</time>
      </trkpt>
      <trkpt lat="42.3450047616" lon="-7.8688142728">
        <ele>123.19</ele>
        <time>2020-08-14T07:48:42Z</time>
      </trkpt>
      <trkpt lat="42.3451426439" lon="-7.8687990177">
        <ele>124.63</ele>
        <time>2020-08-14T07:48:49Z</time>
      </trkpt>
      <trkpt lat="42.3452832922" lon="-7.8687738720">
        <ele>126.07</ele>
        <time>2020-08-14T07:48:56Z</time>
      </trkpt>
      <trkpt lat="42.3454016447" lon="-7.8687405121">
        <ele>126.55</ele>
        <time>2020-08-14T07:49:04Z</time>
      </trkpt>
      <trkpt lat="42.3455503397" lon="-7.8687196411">
        <ele>125.11</ele>
        <time>2020-08-14T07:49:10Z</time>
      </trkpt>
      <trkpt lat="42.3457795009" lon="-7.8686909750">
        <ele>123.19</ele>
        <time>2020-08-14T07:49:19Z</time>
      </trkpt>
      <trkpt lat="42.3460136075" lon="-7.8686858620">
        <ele>122.71</ele>
        <time>2020-08-14T07:49:28Z</time>
      </trkpt>
      <trkpt lat="42.3462758772" lon="-7.8686547652">
        <ele>121.26</ele>
        <time>2020-08-14T07:49:35Z</time>
      </trkpt>
      <trkpt lat="42.3465591855" lon="-7.8686540108">
        <ele>120.78</ele>
        <time>2020-08-14T07:49:43Z</time>
      </trkpt>
      <trkpt lat="42.3467545677" lon="-7.8687015362">
        <ele>120.78</ele>
        <time>2020-08-14T07:49:51Z</time>
      </trkpt>
      <trkpt lat="42.3469036818" lon="-7.8687252570">
        <ele>122.22</ele>
        <time>2020-08-14T07:49:57Z</time>
      </trkpt>
      <trkpt lat="42.3470568191" lon="-7.8688630555">
        <ele>124.63</ele>
        <time>2020-08-14T07:50:04Z</time>
      </trkpt>
      <trkpt lat="42.3472242057" lon="-7.8690139297">
        <ele>124.63</ele>
        <time>2020-08-14T07:50:12Z</time>
      </trkpt>
      <trkpt lat="42.3473623395" lon="-7.8691564221">
        <ele>126.07</ele>
        <time>2020-08-14T07:50:20Z</time>
      </trkpt>
      <trkpt lat="42.3475413769" lon="-7.8692870121">
        <ele>127.03</ele>
        <time>2020-08-14T07:50:29Z</time>
      </trkpt>
      <trkpt lat="42.3476923350" lon="-7.8694005869">
        <ele>128.47</ele>
        <time>2020-08-14T07:50:37Z</time>
      </trkpt>
      <trkpt lat="42.3477861285" lon="-7.8694761079">
        <ele>129.92</ele>
        <time>2020-08-14T07:50:44Z</time>
      </trkpt>
      <trkpt lat="42.3478133697" lon="-7.8694766946">
        <ele>130.88</ele>
        <time>2020-08-14T07:50:52Z</time>
      </trkpt>
      <trkpt lat="42.3478259426" lon="-7.8694688156">
        <ele>131.84</ele>
        <time>2020-08-14T07:50:59Z</time>
      </trkpt>
      <trkpt lat="42.3478343245" lon="-7.8694628645">
        <ele>131.84</ele>
        <time>2020-08-14T07:51:09Z</time>
      </trkpt>
      <trkpt lat="42.3478675168" lon="-7.8694074601">
        <ele>132.32</ele>
        <time>2020-08-14T07:51:12Z</time>
      </trkpt>
      <trkpt lat="42.3479463905" lon="-7.8691878542">
        <ele>133.76</ele>
        <time>2020-08-14T07:51:20Z</time>
      </trkpt>
      <trkpt lat="42.3479620647" lon="-7.8691632114">
        <ele>134.72</ele>
        <time>2020-08-14T07:51:25Z</time>
      </trkpt>
      <trkpt lat="42.3479739670" lon="-7.8691404127">
        <ele>136.64</ele>
        <time>2020-08-14T07:51:32Z</time>
      </trkpt>
      <trkpt lat="42.3480158765" lon="-7.8690125886">
        <ele>139.53</ele>
        <time>2020-08-14T07:51:37Z</time>
      </trkpt>
      <trkpt lat="42.3480837699" lon="-7.8687278554">
        <ele>140.01</ele>
        <time>2020-08-14T07:51:47Z</time>
      </trkpt>
      <trkpt lat="42.3481613025" lon="-7.8684664238">
        <ele>141.45</ele>
        <time>2020-08-14T07:51:55Z</time>
      </trkpt>
      <trkpt lat="42.3482066486" lon="-7.8684348240">
        <ele>141.93</ele>
        <time>2020-08-14T07:51:57Z</time>
      </trkpt>
      <trkpt lat="42.3482368235" lon="-7.8684378415">
        <ele>142.41</ele>
        <time>2020-08-14T07:51:58Z</time>
      </trkpt>
      <trkpt lat="42.3482574429" lon="-7.8684451338">
        <ele>142.41</ele>
        <time>2020-08-14T07:51:59Z</time>
      </trkpt>
      <trkpt lat="42.3482828401" lon="-7.8684556950">
        <ele>142.41</ele>
        <time>2020-08-14T07:52:00Z</time>
      </trkpt>
      <trkpt lat="42.3484964110" lon="-7.8685399331">
        <ele>145.30</ele>
        <time>2020-08-14T07:52:08Z</time>
      </trkpt>
      <trkpt lat="42.3486756161" lon="-7.8685717005">
        <ele>148.66</ele>
        <time>2020-08-14T07:52:15Z</time>
      </trkpt>
      <trkpt lat="42.3487125803" lon="-7.8685843572">
        <ele>148.66</ele>
        <time>2020-08-14T07:52:17Z</time>
      </trkpt>
      <trkpt lat="42.3487302661" lon="-7.8686043900">
        <ele>148.66</ele>
        <time>2020-08-14T07:52:18Z</time>
      </trkpt>
      <trkpt lat="42.3487449344" lon="-7.8686390910">
        <ele>148.66</ele>
        <time>2020-08-14T07:52:19Z</time>
      </trkpt>
      <trkpt lat="42.3487497959" lon="-7.8686799947">
        <ele>148.66</ele>
        <time>2020-08-14T07:52:20Z</time>
      </trkpt>
      <trkpt lat="42.3487515561" lon="-7.8687153663">
        <ele>148.66</ele>
        <time>2020-08-14T07:52:21Z</time>
      </trkpt>
      <trkpt lat="42.3487093952" lon="-7.8688880336">
        <ele>146.74</ele>
        <time>2020-08-14T07:52:26Z</time>
      </trkpt>
      <trkpt lat="42.3487083893" lon="-7.8689503949">
        <ele>145.78</ele>
        <time>2020-08-14T07:52:30Z</time>
      </trkpt>
      <trkpt lat="42.3487089761" lon="-7.8689410072">
        <ele>145.30</ele>
        <time>2020-08-14T07:52:39Z</time>
      </trkpt>
      <trkpt lat="42.3487070482" lon="-7.8689532448">
        <ele>144.82</ele>
        <time>2020-08-14T07:52:47Z</time>
      </trkpt>
      <trkpt lat="42.3487063777" lon="-7.8689555079">
        <ele>144.82</ele>
        <time>2020-08-14T07:52:55Z</time>
      </trkpt>
      <trkpt lat="42.3486922961" lon="-7.8689713497">
        <ele>145.30</ele>
        <time>2020-08-14T07:52:58Z</time>
      </trkpt>
      <trkpt lat="42.3486855906" lon="-7.8689747863">
        <ele>144.82</ele>
        <time>2020-08-14T07:52:59Z</time>
      </trkpt>
      <trkpt lat="42.3486517277" lon="-7.8689571004">
        <ele>145.78</ele>
        <time>2020-08-14T07:53:06Z</time>
      </trkpt>
      <trkpt lat="42.3486442678" lon="-7.8689460363">
        <ele>147.22</ele>
        <time>2020-08-14T07:53:12Z</time>
      </trkpt>
      <trkpt lat="42.3486922961" lon="-7.8690103255">
        <ele>147.22</ele>
        <time>2020-08-14T07:53:27Z</time>
      </trkpt>
      <trkpt lat="42.3487222195" lon="-7.8690200485">
        <ele>147.70</ele>
        <time>2020-08-14T07:53:37Z</time>
      </trkpt>
      <trkpt lat="42.3487160169" lon="-7.8689928073">
        <ele>148.66</ele>
        <time>2020-08-14T07:53:48Z</time>
      </trkpt>
      <trkpt lat="42.3487334512" lon="-7.8689805698">
        <ele>149.62</ele>
        <time>2020-08-14T07:54:02Z</time>
      </trkpt>
      <trkpt lat="42.3487233929" lon="-7.8689739481">
        <ele>147.22</ele>
        <time>2020-08-14T07:54:10Z</time>
      </trkpt>
      <trkpt lat="42.3487176932" lon="-7.8689920530">
        <ele>146.74</ele>
        <time>2020-08-14T07:54:19Z</time>
      </trkpt>
      <trkpt lat="42.3487360496" lon="-7.8690234851">
        <ele>148.18</ele>
        <time>2020-08-14T07:54:27Z</time>
      </trkpt>
      <trkpt lat="42.3487410787" lon="-7.8690298554">
        <ele>150.10</ele>
        <time>2020-08-14T07:54:43Z</time>
      </trkpt>
      <trkpt lat="42.3487383965" lon="-7.8690026142">
        <ele>150.58</ele>
        <time>2020-08-14T07:54:52Z</time>
      </trkpt>
      <trkpt lat="42.3487295117" lon="-7.8689700086">
        <ele>149.14</ele>
        <time>2020-08-14T07:55:06Z</time>
      </trkpt>
      <trkpt lat="42.3487124126" lon="-7.8689510655">
        <ele>148.18</ele>
        <time>2020-08-14T07:55:21Z</time>
      </trkpt>
      <trkpt lat="42.3487266619" lon="-7.8689530771">
        <ele>146.74</ele>
        <time>2020-08-14T07:55:34Z</time>
      </trkpt>
      <trkpt lat="42.3487248179" lon="-7.8689734451">
        <ele>147.22</ele>
        <time>2020-08-14T07:55:45Z</time>
      </trkpt>
      <trkpt lat="42.3487202916" lon="-7.8690234851">
        <ele>148.18</ele>
        <time>2020-08-14T07:55:56Z</time>
      </trkpt>
      <trkpt lat="42.3487309366" lon="-7.8690258320">
        <ele>146.74</ele>
        <time>2020-08-14T07:56:12Z</time>
      </trkpt>
      <trkpt lat="42.3487185314" lon="-7.8690069728">
        <ele>148.66</ele>
        <time>2020-08-14T07:56:24Z</time>
      </trkpt>
      <trkpt lat="42.3487185314" lon="-7.8690010216">
        <ele>152.03</ele>
        <time>2020-08-14T07:56:38Z</time>
      </trkpt>
      <trkpt lat="42.3487178609" lon="-7.8690223116">
        <ele>152.03</ele>
        <time>2020-08-14T07:56:54Z</time>
      </trkpt>
      <trkpt lat="42.3487087246" lon="-7.8690192103">
        <ele>151.06</ele>
        <time>2020-08-14T07:57:10Z</time>
      </trkpt>
      <trkpt lat="42.3486971576" lon="-7.8689915501">
        <ele>152.51</ele>
        <time>2020-08-14T07:57:20Z</time>
      </trkpt>
      <trkpt lat="42.3487155139" lon="-7.8689796478">
        <ele>152.99</ele>
        <time>2020-08-14T07:57:31Z</time>
      </trkpt>
      <trkpt lat="42.3487578426" lon="-7.8689810727">
        <ele>155.39</ele>
        <time>2020-08-14T07:57:48Z</time>
      </trkpt>
      <trkpt lat="42.3487342056" lon="-7.8690094035">
        <ele>152.99</ele>
        <time>2020-08-14T07:58:10Z</time>
      </trkpt>
      <trkpt lat="42.3487478681" lon="-7.8690011054">
        <ele>150.58</ele>
        <time>2020-08-14T07:58:32Z</time>
      </trkpt>
      <trkpt lat="42.3487644643" lon="-7.8689933103">
        <ele>151.54</ele>
        <time>2020-08-14T07:58:45Z</time>
      </trkpt>
      <trkpt lat="42.3487532325" lon="-7.8689855989">
        <ele>152.99</ele>
        <time>2020-08-14T07:58:59Z</time>
      </trkpt>
      <trkpt lat="42.3487608600" lon="-7.8690288495">
        <ele>152.51</ele>
        <time>2020-08-14T07:59:23Z</time>
      </trkpt>
      <trkpt lat="42.3487546574" lon="-7.8690671548">
        <ele>150.58</ele>
        <time>2020-08-14T07:59:41Z</time>
      </trkpt>
      <trkpt lat="42.3487836588" lon="-7.8690522350">
        <ele>153.95</ele>
        <time>2020-08-14T07:59:58Z</time>
      </trkpt>
      <trkpt lat="42.3487898614" lon="-7.8690333758">
        <ele>153.47</ele>
        <time>2020-08-14T08:00:07Z</time>
      </trkpt>
      <trkpt lat="42.3487515561" lon="-7.8689966630">
        <ele>154.91</ele>
        <time>2020-08-14T08:00:21Z</time>
      </trkpt>
      <trkpt lat="42.3487377260" lon="-7.8689798992">
        <ele>152.03</ele>
        <time>2020-08-14T08:00:36Z</time>
      </trkpt>
      <trkpt lat="42.3487263266" lon="-7.8689884488">
        <ele>150.58</ele>
        <time>2020-08-14T08:00:49Z</time>
      </trkpt>
      <trkpt lat="42.3487347923" lon="-7.8690054640">
        <ele>150.10</ele>
        <time>2020-08-14T08:01:01Z</time>
      </trkpt>
      <trkpt lat="42.3487495445" lon="-7.8690152708">
        <ele>150.58</ele>
        <time>2020-08-14T08:01:13Z</time>
      </trkpt>
      <trkpt lat="42.3487455212" lon="-7.8690121695">
        <ele>151.06</ele>
        <time>2020-08-14T08:01:27Z</time>
      </trkpt>
      <trkpt lat="42.3487259075" lon="-7.8689933103">
        <ele>152.03</ele>
        <time>2020-08-14T08:01:41Z</time>
      </trkpt>
      <trkpt lat="42.3487202916" lon="-7.8690028656">
        <ele>153.95</ele>
        <time>2020-08-14T08:01:54Z</time>
      </trkpt>
      <trkpt lat="42.3487229738" lon="-7.8690143488">
        <ele>154.43</ele>
        <time>2020-08-14T08:02:06Z</time>
      </trkpt>
      <trkpt lat="42.3487254884" lon="-7.8690015245">
        <ele>154.91</ele>
        <time>2020-08-14T08:02:19Z</time>
      </trkpt>
      <trkpt lat="42.3487409111" lon="-7.8689758759">
        <ele>157.31</ele>
        <time>2020-08-14T08:02:33Z</time>
      </trkpt>
      <trkpt lat="42.3487326130" lon="-7.8689833358">
        <ele>155.87</ele>
        <time>2020-08-14T08:02:43Z</time>
      </trkpt>
      <trkpt lat="42.3487193696" lon="-7.8690046258">
        <ele>155.39</ele>
        <time>2020-08-14T08:02:54Z</time>
      </trkpt>
      <trkpt lat="42.3487304337" lon="-7.8690169472">
        <ele>153.95</ele>
        <time>2020-08-14T08:03:11Z</time>
      </trkpt>
      <trkpt lat="42.3487461917" lon="-7.8690194618">
        <ele>154.43</ele>
        <time>2020-08-14T08:03:25Z</time>
      </trkpt>
      <trkpt lat="42.3487529811" lon="-7.8690083139">
        <ele>154.91</ele>
        <time>2020-08-14T08:03:41Z</time>
      </trkpt>
      <trkpt lat="42.3487567529" lon="-7.8690029494">
        <ele>153.47</ele>
        <time>2020-08-14T08:03:56Z</time>
      </trkpt>
      <trkpt lat="42.3487435933" lon="-7.8689959925">
        <ele>154.91</ele>
        <time>2020-08-14T08:04:06Z</time>
      </trkpt>
      <trkpt lat="42.3487493768" lon="-7.8690056317">
        <ele>152.51</ele>
        <time>2020-08-14T08:04:19Z</time>
      </trkpt>
      <trkpt lat="42.3487689067" lon="-7.8690292686">
        <ele>149.62</ele>
        <time>2020-08-14T08:04:32Z</time>
      </trkpt>
      <trkpt lat="42.3487937171" lon="-7.8690156061">
        <ele>147.70</ele>
        <time>2020-08-14T08:04:47Z</time>
      </trkpt>
      <trkpt lat="42.3488255683" lon="-7.8689902090">
        <ele>149.62</ele>
        <time>2020-08-14T08:04:59Z</time>
      </trkpt>
      <trkpt lat="42.3488111515" lon="-7.8690123372">
        <ele>152.03</ele>
        <time>2020-08-14T08:05:12Z</time>
      </trkpt>
      <trkpt lat="42.3487954773" lon="-7.8690268379">
        <ele>151.54</ele>
        <time>2020-08-14T08:05:25Z</time>
      </trkpt>
      <trkpt lat="42.3487661406" lon="-7.8690234013">
        <ele>153.47</ele>
        <time>2020-08-14T08:05:43Z</time>
      </trkpt>
      <trkpt lat="42.3487652186" lon="-7.8690052126">
        <ele>152.51</ele>
        <time>2020-08-14T08:06:00Z</time>
      </trkpt>
      <trkpt lat="42.3487782944" lon="-7.8689927235">
        <ele>151.54</ele>
        <time>2020-08-14T08:06:10Z</time>
      </trkpt>
      <trkpt lat="42.3487902805" lon="-7.8689809889">
        <ele>151.54</ele>
        <time>2020-08-14T08:06:18Z</time>
      </trkpt>
      <trkpt lat="42.3488123249" lon="-7.8690071404">
        <ele>150.10</ele>
        <time>2020-08-14T08:06:36Z</time>
      </trkpt>
      <trkpt lat="42.3487913702" lon="-7.8690144327">
        <ele>149.14</ele>
        <time>2020-08-14T08:06:50Z</time>
      </trkpt>
      <trkpt lat="42.3487823177" lon="-7.8690091521">
        <ele>150.10</ele>
        <time>2020-08-14T08:07:01Z</time>
      </trkpt>
      <trkpt lat="42.3488167673" lon="-7.8690112475">
        <ele>150.10</ele>
        <time>2020-08-14T08:07:14Z</time>
      </trkpt>
      <trkpt lat="42.3488133308" lon="-7.8690185398">
        <ele>149.62</ele>
        <time>2020-08-14T08:07:25Z</time>
      </trkpt>
      <trkpt lat="42.3488173541" lon="-7.8690163605">
        <ele>149.14</ele>
        <time>2020-08-14T08:07:33Z</time>
      </trkpt>
      <trkpt lat="42.3488171864" lon="-7.8690127563">
        <ele>150.10</ele>
        <time>2020-08-14T08:07:41Z</time>
      </trkpt>
      <trkpt lat="42.3488145880" lon="-7.8689860180">
        <ele>152.51</ele>
        <time>2020-08-14T08:07:55Z</time>
      </trkpt>
      <trkpt lat="42.3488141689" lon="-7.8689938970">
        <ele>151.54</ele>
        <time>2020-08-14T08:08:07Z</time>
      </trkpt>
      <trkpt lat="42.3487748578" lon="-7.8690436017">
        <ele>149.14</ele>
        <time>2020-08-14T08:08:21Z</time>
      </trkpt>
      <trkpt lat="42.3487718403" lon="-7.8690254968">
        <ele>150.58</ele>
        <time>2020-08-14T08:08:32Z</time>
      </trkpt>
      <trkpt lat="42.3487478681" lon="-7.8690166119">
        <ele>150.58</ele>
        <time>2020-08-14T08:08:41Z</time>
      </trkpt>
      <trkpt lat="42.3487438448" lon="-7.8689986747">
        <ele>151.06</ele>
        <time>2020-08-14T08:08:48Z</time>
      </trkpt>
      <trkpt lat="42.3487502988" lon="-7.8689847607">
        <ele>152.03</ele>
        <time>2020-08-14T08:09:05Z</time>
      </trkpt>
      <trkpt lat="42.3487269133" lon="-7.8690063860">
        <ele>152.51</ele>
        <time>2020-08-14T08:09:13Z</time>
      </trkpt>
      <trkpt lat="42.3487420008" lon="-7.8690310288">
        <ele>152.51</ele>
        <time>2020-08-14T08:09:29Z</time>
      </trkpt>
      <trkpt lat="42.3487866763" lon="-7.8690024465">
        <ele>156.83</ele>
        <time>2020-08-14T08:09:47Z</time>
      </trkpt>
      <trkpt lat="42.3487790488" lon="-7.8689887840">
        <ele>157.31</ele>
        <time>2020-08-14T08:10:01Z</time>
      </trkpt>
      <trkpt lat="42.3487530649" lon="-7.8689889517">
        <ele>155.39</ele>
        <time>2020-08-14T08:10:12Z</time>
      </trkpt>
      <trkpt lat="42.3487217166" lon="-7.8689862695">
        <ele>152.03</ele>
        <time>2020-08-14T08:10:32Z</time>
      </trkpt>
      <trkpt lat="42.3487439286" lon="-7.8689518198">
        <ele>153.47</ele>
        <time>2020-08-14T08:10:43Z</time>
      </trkpt>
      <trkpt lat="42.3487578426" lon="-7.8689438570">
        <ele>154.91</ele>
        <time>2020-08-14T08:10:53Z</time>
      </trkpt>
      <trkpt lat="42.3487248179" lon="-7.8689432703">
        <ele>154.43</ele>
        <time>2020-08-14T08:11:08Z</time>
      </trkpt>
      <trkpt lat="42.3486909550" lon="-7.8689996805">
        <ele>153.95</ele>
        <time>2020-08-14T08:11:23Z</time>
      </trkpt>
      <trkpt lat="42.3486869317" lon="-7.8689981718">
        <ele>151.06</ele>
        <time>2020-08-14T08:11:38Z</time>
      </trkpt>
      <trkpt lat="42.3487022705" lon="-7.8689766303">
        <ele>150.58</ele>
        <time>2020-08-14T08:11:49Z</time>
      </trkpt>
      <trkpt lat="42.3487161845" lon="-7.8689493891">
        <ele>152.03</ele>
        <time>2020-08-14T08:12:00Z</time>
      </trkpt>
      <trkpt lat="42.3487052042" lon="-7.8689498082">
        <ele>152.51</ele>
        <time>2020-08-14T08:12:14Z</time>
      </trkpt>
      <trkpt lat="42.3486905359" lon="-7.8689815756">
        <ele>152.51</ele>
        <time>2020-08-14T08:12:26Z</time>
      </trkpt>
      <trkpt lat="42.3486997560" lon="-7.8690225631">
        <ele>153.47</ele>
        <time>2020-08-14T08:12:42Z</time>
      </trkpt>
      <trkpt lat="42.3487250693" lon="-7.8690201323">
        <ele>154.91</ele>
        <time>2020-08-14T08:12:53Z</time>
      </trkpt>
      <trkpt lat="42.3487219680" lon="-7.8690187912">
        <ele>154.43</ele>
        <time>2020-08-14T08:13:05Z</time>
      </trkpt>
      <trkpt lat="42.3487148434" lon="-7.8690227307">
        <ele>154.43</ele>
        <time>2020-08-14T08:13:15Z</time>
      </trkpt>
      <trkpt lat="42.3486772925" lon="-7.8690441884">
        <ele>153.47</ele>
        <time>2020-08-14T08:13:30Z</time>
      </trkpt>
      <trkpt lat="42.3486788850" lon="-7.8690258320">
        <ele>153.95</ele>
        <time>2020-08-14T08:13:40Z</time>
      </trkpt>
      <trkpt lat="42.3487001751" lon="-7.8689736966">
        <ele>152.51</ele>
        <time>2020-08-14T08:13:50Z</time>
      </trkpt>
      <trkpt lat="42.3487011809" lon="-7.8689594474">
        <ele>150.58</ele>
        <time>2020-08-14T08:14:01Z</time>
      </trkpt>
      <trkpt lat="42.3486986663" lon="-7.8689911310">
        <ele>150.10</ele>
        <time>2020-08-14T08:14:12Z</time>
      </trkpt>
      <trkpt lat="42.3487029411" lon="-7.8690172825">
        <ele>151.06</ele>
        <time>2020-08-14T08:14:23Z</time>
      </trkpt>
      <trkpt lat="42.3486705869" lon="-7.8690602817">
        <ele>150.10</ele>
        <time>2020-08-14T08:14:32Z</time>
      </trkpt>
      <trkpt lat="42.3486569244" lon="-7.8690454457">
        <ele>151.06</ele>
        <time>2020-08-14T08:14:49Z</time>
      </trkpt>
      <trkpt lat="42.3486619536" lon="-7.8690302745">
        <ele>151.54</ele>
        <time>2020-08-14T08:14:51Z</time>
      </trkpt>
      <trkpt lat="42.3486902844" lon="-7.8689641412">
        <ele>152.03</ele>
        <time>2020-08-14T08:14:55Z</time>
      </trkpt>
      <trkpt lat="42.3486896977" lon="-7.8688021190">
        <ele>153.95</ele>
        <time>2020-08-14T08:15:03Z</time>
      </trkpt>
      <trkpt lat="42.3486702517" lon="-7.8687224910">
        <ele>155.87</ele>
        <time>2020-08-14T08:15:11Z</time>
      </trkpt>
      <trkpt lat="42.3486725148" lon="-7.8687046375">
        <ele>154.91</ele>
        <time>2020-08-14T08:15:23Z</time>
      </trkpt>
      <trkpt lat="42.3486566730" lon="-7.8686669189">
        <ele>152.99</ele>
        <time>2020-08-14T08:15:44Z</time>
      </trkpt>
      <trkpt lat="42.3486472853" lon="-7.8686788213">
        <ele>152.51</ele>
        <time>2020-08-14T08:15:57Z</time>
      </trkpt>
      <trkpt lat="42.3486410826" lon="-7.8686648235">
        <ele>152.51</ele>
        <time>2020-08-14T08:16:03Z</time>
      </trkpt>
      <trkpt lat="42.3486768734" lon="-7.8685285337">
        <ele>152.51</ele>
        <time>2020-08-14T08:16:13Z</time>
      </trkpt>
      <trkpt lat="42.3487317748" lon="-7.8685195651">
        <ele>152.03</ele>
        <time>2020-08-14T08:16:18Z</time>
      </trkpt>
      <trkpt lat="42.3487490416" lon="-7.8685042262">
        <ele>152.03</ele>
        <time>2020-08-14T08:16:20Z</time>
      </trkpt>
      <trkpt lat="42.3487703316" lon="-7.8684450500">
        <ele>152.99</ele>
        <time>2020-08-14T08:16:24Z</time>
      </trkpt>
      <trkpt lat="42.3488422483" lon="-7.8682267014">
        <ele>153.47</ele>
        <time>2020-08-14T08:16:36Z</time>
      </trkpt>
      <trkpt lat="42.3489046935" lon="-7.8680473287">
        <ele>155.39</ele>
        <time>2020-08-14T08:16:47Z</time>
      </trkpt>
      <trkpt lat="42.3489637859" lon="-7.8678781819">
        <ele>152.99</ele>
        <time>2020-08-14T08:16:57Z</time>
      </trkpt>
      <trkpt lat="42.3490292486" lon="-7.8677273914">
        <ele>153.95</ele>
        <time>2020-08-14T08:17:08Z</time>
      </trkpt>
      <trkpt lat="42.3490742594" lon="-7.8675852343">
        <ele>155.39</ele>
        <time>2020-08-14T08:17:17Z</time>
      </trkpt>
      <trkpt lat="42.3491340224" lon="-7.8674606793">
        <ele>157.79</ele>
        <time>2020-08-14T08:17:27Z</time>
      </trkpt>
      <trkpt lat="42.3492215294" lon="-7.8672833182">
        <ele>158.27</ele>
        <time>2020-08-14T08:17:38Z</time>
      </trkpt>
      <trkpt lat="42.3493174184" lon="-7.8671412449">
        <ele>159.72</ele>
        <time>2020-08-14T08:17:48Z</time>
      </trkpt>
      <trkpt lat="42.3493943643" lon="-7.8669944778">
        <ele>158.27</ele>
        <time>2020-08-14T08:17:57Z</time>
      </trkpt>
      <trkpt lat="42.3494915105" lon="-7.8668898717">
        <ele>158.27</ele>
        <time>2020-08-14T08:18:06Z</time>
      </trkpt>
      <trkpt lat="42.3496413790" lon="-7.8667584434">
        <ele>158.27</ele>
        <time>2020-08-14T08:18:18Z</time>
      </trkpt>
      <trkpt lat="42.3497992102" lon="-7.8666427732">
        <ele>155.87</ele>
        <time>2020-08-14T08:18:31Z</time>
      </trkpt>
      <trkpt lat="42.3499498330" lon="-7.8665677551">
        <ele>152.51</ele>
        <time>2020-08-14T08:18:43Z</time>
      </trkpt>
      <trkpt lat="42.3501113523" lon="-7.8665067349">
        <ele>152.99</ele>
        <time>2020-08-14T08:18:56Z</time>
      </trkpt>
      <trkpt lat="42.3502214067" lon="-7.8665497340">
        <ele>154.43</ele>
        <time>2020-08-14T08:19:05Z</time>
      </trkpt>
      <trkpt lat="42.3503871169" lon="-7.8665476386">
        <ele>158.27</ele>
        <time>2020-08-14T08:19:16Z</time>
      </trkpt>
      <trkpt lat="42.3505051341" lon="-7.8665198945">
        <ele>160.20</ele>
        <time>2020-08-14T08:19:25Z</time>
      </trkpt>
      <trkpt lat="42.3505268432" lon="-7.8664825112">
        <ele>161.16</ele>
        <time>2020-08-14T08:19:33Z</time>
      </trkpt>
      <trkpt lat="42.3505545035" lon="-7.8663873766">
        <ele>163.08</ele>
        <time>2020-08-14T08:19:44Z</time>
      </trkpt>
      <trkpt lat="42.3505981732" lon="-7.8663169686">
        <ele>164.04</ele>
        <time>2020-08-14T08:19:51Z</time>
      </trkpt>
      <trkpt lat="42.3505659029" lon="-7.8662827704">
        <ele>162.12</ele>
        <time>2020-08-14T08:20:00Z</time>
      </trkpt>
      <trkpt lat="42.3505485523" lon="-7.8662726283">
        <ele>160.68</ele>
        <time>2020-08-14T08:20:07Z</time>
      </trkpt>
      <trkpt lat="42.3506160267" lon="-7.8662790824">
        <ele>160.68</ele>
        <time>2020-08-14T08:20:15Z</time>
      </trkpt>
      <trkpt lat="42.3507738579" lon="-7.8662044834">
        <ele>162.12</ele>
        <time>2020-08-14T08:20:21Z</time>
      </trkpt>
      <trkpt lat="42.3510015104" lon="-7.8661106061">
        <ele>164.04</ele>
        <time>2020-08-14T08:20:29Z</time>
      </trkpt>
      <trkpt lat="42.3512637801" lon="-7.8660013899">
        <ele>165.96</ele>
        <time>2020-08-14T08:20:38Z</time>
      </trkpt>
      <trkpt lat="42.3514970485" lon="-7.8658755776">
        <ele>168.85</ele>
        <time>2020-08-14T08:20:47Z</time>
      </trkpt>
      <trkpt lat="42.3517341726" lon="-7.8657416347">
        <ele>170.29</ele>
        <time>2020-08-14T08:20:56Z</time>
      </trkpt>
      <trkpt lat="42.3518815264" lon="-7.8656720649">
        <ele>165.96</ele>
        <time>2020-08-14T08:21:02Z</time>
      </trkpt>
      <trkpt lat="42.3520094343" lon="-7.8656376153">
        <ele>164.52</ele>
        <time>2020-08-14T08:21:10Z</time>
      </trkpt>
      <trkpt lat="42.3521888908" lon="-7.8656117152">
        <ele>166.45</ele>
        <time>2020-08-14T08:21:18Z</time>
      </trkpt>
      <trkpt lat="42.3524070717" lon="-7.8655552212">
        <ele>169.33</ele>
        <time>2020-08-14T08:21:27Z</time>
      </trkpt>
      <trkpt lat="42.3526633065" lon="-7.8655387089">
        <ele>174.62</ele>
        <time>2020-08-14T08:21:38Z</time>
      </trkpt>
      <trkpt lat="42.3528606165" lon="-7.8655169159">
        <ele>179.42</ele>
        <time>2020-08-14T08:21:48Z</time>
      </trkpt>
      <trkpt lat="42.3529173620" lon="-7.8655079473">
        <ele>181.83</ele>
        <time>2020-08-14T08:21:53Z</time>
      </trkpt>
      <trkpt lat="42.3529285099" lon="-7.8655018285">
        <ele>182.31</ele>
        <time>2020-08-14T08:21:54Z</time>
      </trkpt>
      <trkpt lat="42.3529420048" lon="-7.8654990625">
        <ele>182.79</ele>
        <time>2020-08-14T08:21:55Z</time>
      </trkpt>
      <trkpt lat="42.3529580142" lon="-7.8654955421">
        <ele>183.27</ele>
        <time>2020-08-14T08:21:56Z</time>
      </trkpt>
      <trkpt lat="42.3529801425" lon="-7.8654919378">
        <ele>183.75</ele>
        <time>2020-08-14T08:21:57Z</time>
      </trkpt>
      <trkpt lat="42.3530053720" lon="-7.8654899262">
        <ele>184.23</ele>
        <time>2020-08-14T08:21:58Z</time>
      </trkpt>
      <trkpt lat="42.3530315235" lon="-7.8654851485">
        <ele>184.23</ele>
        <time>2020-08-14T08:21:59Z</time>
      </trkpt>
      <trkpt lat="42.3532799631" lon="-7.8654415626">
        <ele>188.08</ele>
        <time>2020-08-14T08:22:09Z</time>
      </trkpt>
      <trkpt lat="42.3535157461" lon="-7.8654230386">
        <ele>191.44</ele>
        <time>2020-08-14T08:22:18Z</time>
      </trkpt>
      <trkpt lat="42.3537275568" lon="-7.8653809614">
        <ele>193.36</ele>
        <time>2020-08-14T08:22:26Z</time>
      </trkpt>
      <trkpt lat="42.3540246114" lon="-7.8653792012">
        <ele>193.84</ele>
        <time>2020-08-14T08:22:36Z</time>
      </trkpt>
      <trkpt lat="42.3542203289" lon="-7.8653560672">
        <ele>193.84</ele>
        <time>2020-08-14T08:22:44Z</time>
      </trkpt>
      <trkpt lat="42.3542407807" lon="-7.8653452545">
        <ele>192.88</ele>
        <time>2020-08-14T08:22:50Z</time>
      </trkpt>
      <trkpt lat="42.3542328179" lon="-7.8653418180">
        <ele>192.88</ele>
        <time>2020-08-14T08:23:06Z</time>
      </trkpt>
      <trkpt lat="42.3542341590" lon="-7.8653357830">
        <ele>193.84</ele>
        <time>2020-08-14T08:23:18Z</time>
      </trkpt>
      <trkpt lat="42.3542722128" lon="-7.8653196059">
        <ele>193.84</ele>
        <time>2020-08-14T08:23:24Z</time>
      </trkpt>
      <trkpt lat="42.3545145337" lon="-7.8653087094">
        <ele>193.36</ele>
        <time>2020-08-14T08:23:31Z</time>
      </trkpt>
      <trkpt lat="42.3548969161" lon="-7.8652981482">
        <ele>189.52</ele>
        <time>2020-08-14T08:23:41Z</time>
      </trkpt>
      <trkpt lat="42.3550270032" lon="-7.8653186001">
        <ele>187.11</ele>
        <time>2020-08-14T08:23:44Z</time>
      </trkpt>
      <trkpt lat="42.3550719302" lon="-7.8653290775">
        <ele>186.63</ele>
        <time>2020-08-14T08:23:45Z</time>
      </trkpt>
      <trkpt lat="42.3553344514" lon="-7.8653547261">
        <ele>186.63</ele>
        <time>2020-08-14T08:23:51Z</time>
      </trkpt>
      <trkpt lat="42.3555883393" lon="-7.8653679695">
        <ele>188.56</ele>
        <time>2020-08-14T08:23:57Z</time>
      </trkpt>
      <trkpt lat="42.3556336854" lon="-7.8653710708">
        <ele>189.04</ele>
        <time>2020-08-14T08:23:58Z</time>
      </trkpt>
      <trkpt lat="42.3556798697" lon="-7.8653716575">
        <ele>189.52</ele>
        <time>2020-08-14T08:23:59Z</time>
      </trkpt>
      <trkpt lat="42.3561039101" lon="-7.8653921932">
        <ele>190.48</ele>
        <time>2020-08-14T08:24:08Z</time>
      </trkpt>
      <trkpt lat="42.3563994560" lon="-7.8654266428">
        <ele>190.96</ele>
        <time>2020-08-14T08:24:15Z</time>
      </trkpt>
      <trkpt lat="42.3565341532" lon="-7.8654482681">
        <ele>192.88</ele>
        <time>2020-08-14T08:24:21Z</time>
      </trkpt>
      <trkpt lat="42.3565634899" lon="-7.8654558118">
        <ele>194.32</ele>
        <time>2020-08-14T08:24:27Z</time>
      </trkpt>
      <trkpt lat="42.3565855343" lon="-7.8654788621">
        <ele>196.25</ele>
        <time>2020-08-14T08:24:40Z</time>
      </trkpt>
      <trkpt lat="42.3565873783" lon="-7.8654931113">
        <ele>196.25</ele>
        <time>2020-08-14T08:24:53Z</time>
      </trkpt>
      <trkpt lat="42.3566026334" lon="-7.8654974699">
        <ele>195.77</ele>
        <time>2020-08-14T08:25:01Z</time>
      </trkpt>
      <trkpt lat="42.3566160444" lon="-7.8654943686">
        <ele>195.77</ele>
        <time>2020-08-14T08:25:02Z</time>
      </trkpt>
      <trkpt lat="42.3566347361" lon="-7.8654933628">
        <ele>195.77</ele>
        <time>2020-08-14T08:25:03Z</time>
      </trkpt>
      <trkpt lat="42.3566608876" lon="-7.8654907644">
        <ele>195.28</ele>
        <time>2020-08-14T08:25:04Z</time>
      </trkpt>
      <trkpt lat="42.3566889670" lon="-7.8654870763">
        <ele>195.28</ele>
        <time>2020-08-14T08:25:05Z</time>
      </trkpt>
      <trkpt lat="42.3567206506" lon="-7.8654875793">
        <ele>195.28</ele>
        <time>2020-08-14T08:25:06Z</time>
      </trkpt>
      <trkpt lat="42.3567561898" lon="-7.8654915188">
        <ele>195.77</ele>
        <time>2020-08-14T08:25:07Z</time>
      </trkpt>
      <trkpt lat="42.3568688426" lon="-7.8655097913">
        <ele>196.73</ele>
        <time>2020-08-14T08:25:10Z</time>
      </trkpt>
      <trkpt lat="42.3572741076" lon="-7.8654866572">
        <ele>198.65</ele>
        <time>2020-08-14T08:25:19Z</time>
      </trkpt>
      <trkpt lat="42.3577385489" lon="-7.8654440772">
        <ele>192.40</ele>
        <time>2020-08-14T08:25:29Z</time>
      </trkpt>
      <trkpt lat="42.3582324106" lon="-7.8654890880">
        <ele>189.52</ele>
        <time>2020-08-14T08:25:39Z</time>
      </trkpt>
      <trkpt lat="42.3586097639" lon="-7.8655111324">
        <ele>188.56</ele>
        <time>2020-08-14T08:25:48Z</time>
      </trkpt>
      <trkpt lat="42.3586505000" lon="-7.8655079473">
        <ele>188.56</ele>
        <time>2020-08-14T08:25:49Z</time>
      </trkpt>
      <trkpt lat="42.3586872965" lon="-7.8655034211">
        <ele>188.56</ele>
        <time>2020-08-14T08:25:50Z</time>
      </trkpt>
      <trkpt lat="42.3590433598" lon="-7.8655406367">
        <ele>189.04</ele>
        <time>2020-08-14T08:26:00Z</time>
      </trkpt>
      <trkpt lat="42.3593531549" lon="-7.8656205162">
        <ele>187.59</ele>
        <time>2020-08-14T08:26:10Z</time>
      </trkpt>
      <trkpt lat="42.3596149217" lon="-7.8656658623">
        <ele>186.15</ele>
        <time>2020-08-14T08:26:20Z</time>
      </trkpt>
      <trkpt lat="42.3598574102" lon="-7.8656916786">
        <ele>185.67</ele>
        <time>2020-08-14T08:26:29Z</time>
      </trkpt>
      <trkpt lat="42.3601586558" lon="-7.8657515254">
        <ele>185.19</ele>
        <time>2020-08-14T08:26:40Z</time>
      </trkpt>
      <trkpt lat="42.3604120407" lon="-7.8658133838">
        <ele>183.75</ele>
        <time>2020-08-14T08:26:49Z</time>
      </trkpt>
      <trkpt lat="42.3607023060" lon="-7.8658707999">
        <ele>181.83</ele>
        <time>2020-08-14T08:26:59Z</time>
      </trkpt>
      <trkpt lat="42.3609138653" lon="-7.8659429681">
        <ele>180.87</ele>
        <time>2020-08-14T08:27:05Z</time>
      </trkpt>
      <trkpt lat="42.3611955810" lon="-7.8659998812">
        <ele>179.90</ele>
        <time>2020-08-14T08:27:13Z</time>
      </trkpt>
      <trkpt lat="42.3613204714" lon="-7.8660221770">
        <ele>179.42</ele>
        <time>2020-08-14T08:27:16Z</time>
      </trkpt>
      <trkpt lat="42.3613626324" lon="-7.8660410363">
        <ele>178.94</ele>
        <time>2020-08-14T08:27:17Z</time>
      </trkpt>
      <trkpt lat="42.3614024464" lon="-7.8660759050">
        <ele>178.94</ele>
        <time>2020-08-14T08:27:18Z</time>
      </trkpt>
      <trkpt lat="42.3614357226" lon="-7.8661225922">
        <ele>178.94</ele>
        <time>2020-08-14T08:27:19Z</time>
      </trkpt>
      <trkpt lat="42.3614601139" lon="-7.8661743924">
        <ele>178.94</ele>
        <time>2020-08-14T08:27:20Z</time>
      </trkpt>
      <trkpt lat="42.3614728544" lon="-7.8662029747">
        <ele>178.94</ele>
        <time>2020-08-14T08:27:21Z</time>
      </trkpt>
      <trkpt lat="42.3615845013" lon="-7.8664607182">
        <ele>179.90</ele>
        <time>2020-08-14T08:27:29Z</time>
      </trkpt>
      <trkpt lat="42.3617068771" lon="-7.8667047992">
        <ele>180.38</ele>
        <time>2020-08-14T08:27:38Z</time>
      </trkpt>
      <trkpt lat="42.3618172668" lon="-7.8668342158">
        <ele>180.87</ele>
        <time>2020-08-14T08:27:47Z</time>
      </trkpt>
      <trkpt lat="42.3618634511" lon="-7.8670067992">
        <ele>182.79</ele>
        <time>2020-08-14T08:27:54Z</time>
      </trkpt>
      <trkpt lat="42.3618927039" lon="-7.8670846671">
        <ele>183.27</ele>
        <time>2020-08-14T08:27:58Z</time>
      </trkpt>
      <trkpt lat="42.3618956376" lon="-7.8671039455">
        <ele>184.23</ele>
        <time>2020-08-14T08:28:04Z</time>
      </trkpt>
      <trkpt lat="42.3618909437" lon="-7.8670849185">
        <ele>184.71</ele>
        <time>2020-08-14T08:28:13Z</time>
      </trkpt>
      <trkpt lat="42.3618759401" lon="-7.8670631256">
        <ele>182.31</ele>
        <time>2020-08-14T08:28:27Z</time>
      </trkpt>
      <trkpt lat="42.3618771974" lon="-7.8670699149">
        <ele>181.35</ele>
        <time>2020-08-14T08:28:41Z</time>
      </trkpt>
      <trkpt lat="42.3618721683" lon="-7.8670884389">
        <ele>180.87</ele>
        <time>2020-08-14T08:28:58Z</time>
      </trkpt>
      <trkpt lat="42.3618850764" lon="-7.8671025205">
        <ele>184.71</ele>
        <time>2020-08-14T08:29:14Z</time>
      </trkpt>
      <trkpt lat="42.3618985713" lon="-7.8671098128">
        <ele>185.67</ele>
        <time>2020-08-14T08:29:32Z</time>
      </trkpt>
      <trkpt lat="42.3618683964" lon="-7.8671647981">
        <ele>189.52</ele>
        <time>2020-08-14T08:29:48Z</time>
      </trkpt>
      <trkpt lat="42.3618604336" lon="-7.8671723418">
        <ele>190.48</ele>
        <time>2020-08-14T08:30:00Z</time>
      </trkpt>
      <trkpt lat="42.3618565779" lon="-7.8671638761">
        <ele>190.48</ele>
        <time>2020-08-14T08:30:17Z</time>
      </trkpt>
      <trkpt lat="42.3618583381" lon="-7.8671535663">
        <ele>188.56</ele>
        <time>2020-08-14T08:30:29Z</time>
      </trkpt>
      <trkpt lat="42.3618642054" lon="-7.8671465255">
        <ele>187.11</ele>
        <time>2020-08-14T08:30:43Z</time>
      </trkpt>
      <trkpt lat="42.3618863337" lon="-7.8671317734">
        <ele>185.67</ele>
        <time>2020-08-14T08:31:00Z</time>
      </trkpt>
      <trkpt lat="42.3618842382" lon="-7.8671073820">
        <ele>186.63</ele>
        <time>2020-08-14T08:31:18Z</time>
      </trkpt>
      <trkpt lat="42.3618879262" lon="-7.8671340365">
        <ele>185.67</ele>
        <time>2020-08-14T08:31:35Z</time>
      </trkpt>
      <trkpt lat="42.3618818074" lon="-7.8671196196">
        <ele>184.71</ele>
        <time>2020-08-14T08:31:55Z</time>
      </trkpt>
      <trkpt lat="42.3618980683" lon="-7.8671055380">
        <ele>182.31</ele>
        <time>2020-08-14T08:32:11Z</time>
      </trkpt>
      <trkpt lat="42.3618772812" lon="-7.8671566676">
        <ele>182.31</ele>
        <time>2020-08-14T08:32:35Z</time>
      </trkpt>
      <trkpt lat="42.3618553206" lon="-7.8671779577">
        <ele>183.75</ele>
        <time>2020-08-14T08:32:54Z</time>
      </trkpt>
      <trkpt lat="42.3618690670" lon="-7.8671699949">
        <ele>183.27</ele>
        <time>2020-08-14T08:33:09Z</time>
      </trkpt>
      <trkpt lat="42.3618690670" lon="-7.8671217989">
        <ele>180.87</ele>
        <time>2020-08-14T08:33:26Z</time>
      </trkpt>
      <trkpt lat="42.3618731741" lon="-7.8671590984">
        <ele>183.75</ele>
        <time>2020-08-14T08:33:47Z</time>
      </trkpt>
      <trkpt lat="42.3619024269" lon="-7.8671542369">
        <ele>187.59</ele>
        <time>2020-08-14T08:34:12Z</time>
      </trkpt>
      <trkpt lat="42.3619113117" lon="-7.8671114054">
        <ele>185.19</ele>
        <time>2020-08-14T08:34:26Z</time>
      </trkpt>
      <trkpt lat="42.3619010020" lon="-7.8670903668">
        <ele>184.71</ele>
        <time>2020-08-14T08:34:45Z</time>
      </trkpt>
      <trkpt lat="42.3618943803" lon="-7.8671026044">
        <ele>184.23</ele>
        <time>2020-08-14T08:35:03Z</time>
      </trkpt>
      <trkpt lat="42.3618725874" lon="-7.8671301808">
        <ele>187.11</ele>
        <time>2020-08-14T08:35:20Z</time>
      </trkpt>
      <trkpt lat="42.3618732579" lon="-7.8671522252">
        <ele>184.71</ele>
        <time>2020-08-14T08:35:38Z</time>
      </trkpt>
      <trkpt lat="42.3618814722" lon="-7.8671332821">
        <ele>180.87</ele>
        <time>2020-08-14T08:35:54Z</time>
      </trkpt>
      <trkpt lat="42.3618749343" lon="-7.8671499621">
        <ele>179.42</ele>
        <time>2020-08-14T08:36:12Z</time>
      </trkpt>
      <trkpt lat="42.3618515488" lon="-7.8671632893">
        <ele>182.31</ele>
        <time>2020-08-14T08:36:28Z</time>
      </trkpt>
      <trkpt lat="42.3618813884" lon="-7.8671098966">
        <ele>181.83</ele>
        <time>2020-08-14T08:36:50Z</time>
      </trkpt>
      <trkpt lat="42.3618734255" lon="-7.8671119083">
        <ele>180.38</ele>
        <time>2020-08-14T08:37:05Z</time>
      </trkpt>
      <trkpt lat="42.3618615232" lon="-7.8671369702">
        <ele>180.38</ele>
        <time>2020-08-14T08:37:33Z</time>
      </trkpt>
      <trkpt lat="42.3618450947" lon="-7.8671655525">
        <ele>179.90</ele>
        <time>2020-08-14T08:37:57Z</time>
      </trkpt>
      <trkpt lat="42.3618623614" lon="-7.8671363834">
        <ele>180.87</ele>
        <time>2020-08-14T08:38:18Z</time>
      </trkpt>
      <trkpt lat="42.3618785385" lon="-7.8671284206">
        <ele>180.38</ele>
        <time>2020-08-14T08:38:39Z</time>
      </trkpt>
      <trkpt lat="42.3618836515" lon="-7.8670907859">
        <ele>180.87</ele>
        <time>2020-08-14T08:38:56Z</time>
      </trkpt>
      <trkpt lat="42.3618890159" lon="-7.8671057057">
        <ele>180.87</ele>
        <time>2020-08-14T08:39:14Z</time>
      </trkpt>
      <trkpt lat="42.3618763592" lon="-7.8671065439">
        <ele>180.38</ele>
        <time>2020-08-14T08:39:32Z</time>
      </trkpt>
      <trkpt lat="42.3618953023" lon="-7.8671088908">
        <ele>178.94</ele>
        <time>2020-08-14T08:39:49Z</time>
      </trkpt>
      <trkpt lat="42.3618794605" lon="-7.8670964856">
        <ele>183.27</ele>
        <time>2020-08-14T08:40:12Z</time>
      </trkpt>
      <trkpt lat="42.3619063664" lon="-7.8670829069">
        <ele>181.35</ele>
        <time>2020-08-14T08:40:30Z</time>
      </trkpt>
      <trkpt lat="42.3618857469" lon="-7.8670737706">
        <ele>181.35</ele>
        <time>2020-08-14T08:40:47Z</time>
      </trkpt>
      <trkpt lat="42.3618821427" lon="-7.8670917917">
        <ele>179.42</ele>
        <time>2020-08-14T08:41:03Z</time>
      </trkpt>
      <trkpt lat="42.3618847411" lon="-7.8671109863">
        <ele>177.98</ele>
        <time>2020-08-14T08:41:25Z</time>
      </trkpt>
      <trkpt lat="42.3618793767" lon="-7.8671482857">
        <ele>181.35</ele>
        <time>2020-08-14T08:41:42Z</time>
      </trkpt>
      <trkpt lat="42.3619162571" lon="-7.8671083879">
        <ele>179.42</ele>
        <time>2020-08-14T08:41:59Z</time>
      </trkpt>
      <trkpt lat="42.3619098030" lon="-7.8670881037">
        <ele>178.46</ele>
        <time>2020-08-14T08:42:10Z</time>
      </trkpt>
      <trkpt lat="42.3618877586" lon="-7.8670763690">
        <ele>175.58</ele>
        <time>2020-08-14T08:42:27Z</time>
      </trkpt>
      <trkpt lat="42.3618826456" lon="-7.8670872655">
        <ele>177.02</ele>
        <time>2020-08-14T08:42:41Z</time>
      </trkpt>
      <trkpt lat="42.3618825618" lon="-7.8671059571">
        <ele>176.54</ele>
        <time>2020-08-14T08:42:56Z</time>
      </trkpt>
      <trkpt lat="42.3618787061" lon="-7.8671335336">
        <ele>175.10</ele>
        <time>2020-08-14T08:43:14Z</time>
      </trkpt>
      <trkpt lat="42.3618966434" lon="-7.8670865111">
        <ele>177.02</ele>
        <time>2020-08-14T08:43:31Z</time>
      </trkpt>
      <trkpt lat="42.3618964758" lon="-7.8670719266">
        <ele>177.50</ele>
        <time>2020-08-14T08:43:42Z</time>
      </trkpt>
      <trkpt lat="42.3618794605" lon="-7.8671527281">
        <ele>179.42</ele>
        <time>2020-08-14T08:44:01Z</time>
      </trkpt>
      <trkpt lat="42.3618628643" lon="-7.8671710007">
        <ele>179.90</ele>
        <time>2020-08-14T08:44:19Z</time>
      </trkpt>
      <trkpt lat="42.3618515488" lon="-7.8671883512">
        <ele>183.75</ele>
        <time>2020-08-14T08:44:38Z</time>
      </trkpt>
      <trkpt lat="42.3618601821" lon="-7.8671660554">
        <ele>183.27</ele>
        <time>2020-08-14T08:44:59Z</time>
      </trkpt>
      <trkpt lat="42.3618830647" lon="-7.8671588469">
        <ele>182.79</ele>
        <time>2020-08-14T08:45:14Z</time>
      </trkpt>
      <trkpt lat="42.3619221244" lon="-7.8671078850">
        <ele>185.19</ele>
        <time>2020-08-14T08:45:31Z</time>
      </trkpt>
      <trkpt lat="42.3619153351" lon="-7.8671156801">
        <ele>184.23</ele>
        <time>2020-08-14T08:45:45Z</time>
      </trkpt>
      <trkpt lat="42.3619076237" lon="-7.8671276662">
        <ele>182.79</ele>
        <time>2020-08-14T08:46:02Z</time>
      </trkpt>
      <trkpt lat="42.3618937097" lon="-7.8671426699">
        <ele>184.71</ele>
        <time>2020-08-14T08:46:17Z</time>
      </trkpt>
      <trkpt lat="42.3618771136" lon="-7.8671430890">
        <ele>185.67</ele>
        <time>2020-08-14T08:46:35Z</time>
      </trkpt>
      <trkpt lat="42.3618697375" lon="-7.8671312705">
        <ele>186.15</ele>
        <time>2020-08-14T08:46:52Z</time>
      </trkpt>
      <trkpt lat="42.3618839029" lon="-7.8671098966">
        <ele>183.27</ele>
        <time>2020-08-14T08:47:07Z</time>
      </trkpt>
      <trkpt lat="42.3618970625" lon="-7.8671159316">
        <ele>182.31</ele>
        <time>2020-08-14T08:47:21Z</time>
      </trkpt>
      <trkpt lat="42.3619067017" lon="-7.8671232238">
        <ele>182.79</ele>
        <time>2020-08-14T08:47:35Z</time>
      </trkpt>
      <trkpt lat="42.3618957214" lon="-7.8671151772">
        <ele>181.83</ele>
        <time>2020-08-14T08:47:52Z</time>
      </trkpt>
      <trkpt lat="42.3618957214" lon="-7.8671044484">
        <ele>181.35</ele>
        <time>2020-08-14T08:48:10Z</time>
      </trkpt>
      <trkpt lat="42.3618869204" lon="-7.8671195358">
        <ele>182.31</ele>
        <time>2020-08-14T08:48:26Z</time>
      </trkpt>
      <trkpt lat="42.3618752696" lon="-7.8671127465">
        <ele>184.23</ele>
        <time>2020-08-14T08:48:48Z</time>
      </trkpt>
      <trkpt lat="42.3618802149" lon="-7.8671137523">
        <ele>185.19</ele>
        <time>2020-08-14T08:49:02Z</time>
      </trkpt>
      <trkpt lat="42.3618678935" lon="-7.8671172727">
        <ele>184.71</ele>
        <time>2020-08-14T08:49:07Z</time>
      </trkpt>
      <trkpt lat="42.3618518841" lon="-7.8671314381">
        <ele>185.67</ele>
        <time>2020-08-14T08:49:13Z</time>
      </trkpt>
      <trkpt lat="42.3618527222" lon="-7.8670789674">
        <ele>185.67</ele>
        <time>2020-08-14T08:49:22Z</time>
      </trkpt>
      <trkpt lat="42.3618489504" lon="-7.8670663107">
        <ele>185.19</ele>
        <time>2020-08-14T08:49:23Z</time>
      </trkpt>
      <trkpt lat="42.3618356232" lon="-7.8670512233">
        <ele>185.19</ele>
        <time>2020-08-14T08:49:24Z</time>
      </trkpt>
      <trkpt lat="42.3618191108" lon="-7.8670386504">
        <ele>184.71</ele>
        <time>2020-08-14T08:49:25Z</time>
      </trkpt>
      <trkpt lat="42.3617551569" lon="-7.8669798095">
        <ele>182.79</ele>
        <time>2020-08-14T08:49:29Z</time>
      </trkpt>
      <trkpt lat="42.3617514689" lon="-7.8669483773">
        <ele>182.31</ele>
        <time>2020-08-14T08:49:30Z</time>
      </trkpt>
      <trkpt lat="42.3617574200" lon="-7.8669202980">
        <ele>181.83</ele>
        <time>2020-08-14T08:49:31Z</time>
      </trkpt>
      <trkpt lat="42.3617761955" lon="-7.8668837529">
        <ele>181.35</ele>
        <time>2020-08-14T08:49:32Z</time>
      </trkpt>
      <trkpt lat="42.3618062027" lon="-7.8668543324">
        <ele>180.87</ele>
        <time>2020-08-14T08:49:33Z</time>
      </trkpt>
      <trkpt lat="42.3618447594" lon="-7.8668302763">
        <ele>180.38</ele>
        <time>2020-08-14T08:49:34Z</time>
      </trkpt>
      <trkpt lat="42.3618886806" lon="-7.8668104112">
        <ele>180.38</ele>
        <time>2020-08-14T08:49:35Z</time>
      </trkpt>
      <trkpt lat="42.3619175982" lon="-7.8667959943">
        <ele>179.90</ele>
        <time>2020-08-14T08:49:36Z</time>
      </trkpt>
      <trkpt lat="42.3619511258" lon="-7.8667807393">
        <ele>179.90</ele>
        <time>2020-08-14T08:49:37Z</time>
      </trkpt>
      <trkpt lat="42.3621090408" lon="-7.8666714393">
        <ele>178.46</ele>
        <time>2020-08-14T08:49:43Z</time>
      </trkpt>
      <trkpt lat="42.3624146450" lon="-7.8664540965">
        <ele>178.94</ele>
        <time>2020-08-14T08:49:54Z</time>
      </trkpt>
      <trkpt lat="42.3626398668" lon="-7.8663328942">
        <ele>179.90</ele>
        <time>2020-08-14T08:50:02Z</time>
      </trkpt>
      <trkpt lat="42.3629471473" lon="-7.8662091773">
        <ele>182.31</ele>
        <time>2020-08-14T08:50:13Z</time>
      </trkpt>
      <trkpt lat="42.3633043002" lon="-7.8660785034">
        <ele>182.79</ele>
        <time>2020-08-14T08:50:26Z</time>
      </trkpt>
      <trkpt lat="42.3636223096" lon="-7.8659517691">
        <ele>183.27</ele>
        <time>2020-08-14T08:50:38Z</time>
      </trkpt>
      <trkpt lat="42.3639099766" lon="-7.8658604063">
        <ele>184.71</ele>
        <time>2020-08-14T08:50:49Z</time>
      </trkpt>
      <trkpt lat="42.3641540576" lon="-7.8657969553">
        <ele>186.15</ele>
        <time>2020-08-14T08:50:59Z</time>
      </trkpt>
      <trkpt lat="42.3644485977" lon="-7.8658303153">
        <ele>188.08</ele>
        <time>2020-08-14T08:51:11Z</time>
      </trkpt>
      <trkpt lat="42.3647106159" lon="-7.8659607377">
        <ele>188.08</ele>
        <time>2020-08-14T08:51:21Z</time>
      </trkpt>
      <trkpt lat="42.3649697844" lon="-7.8660242725">
        <ele>189.04</ele>
        <time>2020-08-14T08:51:31Z</time>
      </trkpt>
      <trkpt lat="42.3651943356" lon="-7.8659823630">
        <ele>190.00</ele>
        <time>2020-08-14T08:51:40Z</time>
      </trkpt>
      <trkpt lat="42.3654612992" lon="-7.8659294732">
        <ele>190.48</ele>
        <time>2020-08-14T08:51:51Z</time>
      </trkpt>
      <trkpt lat="42.3656808212" lon="-7.8659062553">
        <ele>191.44</ele>
        <time>2020-08-14T08:52:00Z</time>
      </trkpt>
      <trkpt lat="42.3659359664" lon="-7.8658966161">
        <ele>192.40</ele>
        <time>2020-08-14T08:52:10Z</time>
      </trkpt>
      <trkpt lat="42.3661876749" lon="-7.8658965323">
        <ele>193.84</ele>
        <time>2020-08-14T08:52:20Z</time>
      </trkpt>
      <trkpt lat="42.3664435744" lon="-7.8659032378">
        <ele>194.32</ele>
        <time>2020-08-14T08:52:30Z</time>
      </trkpt>
      <trkpt lat="42.3666813690" lon="-7.8659460694">
        <ele>194.80</ele>
        <time>2020-08-14T08:52:39Z</time>
      </trkpt>
      <trkpt lat="42.3669105303" lon="-7.8660103586">
        <ele>196.25</ele>
        <time>2020-08-14T08:52:48Z</time>
      </trkpt>
      <trkpt lat="42.3671003804" lon="-7.8660980333">
        <ele>197.69</ele>
        <time>2020-08-14T08:52:56Z</time>
      </trkpt>
      <trkpt lat="42.3673081677" lon="-7.8662676830">
        <ele>198.17</ele>
        <time>2020-08-14T08:53:05Z</time>
      </trkpt>
      <trkpt lat="42.3674666695" lon="-7.8664630651">
        <ele>197.21</ele>
        <time>2020-08-14T08:53:13Z</time>
      </trkpt>
      <trkpt lat="42.3676330503" lon="-7.8666412644">
        <ele>196.73</ele>
        <time>2020-08-14T08:53:21Z</time>
      </trkpt>
      <trkpt lat="42.3678777181" lon="-7.8667510673">
        <ele>196.73</ele>
        <time>2020-08-14T08:53:29Z</time>
      </trkpt>
      <trkpt lat="42.3681704979" lon="-7.8667571861">
        <ele>198.65</ele>
        <time>2020-08-14T08:53:38Z</time>
      </trkpt>
      <trkpt lat="42.3684682231" lon="-7.8667193837">
        <ele>200.09</ele>
        <time>2020-08-14T08:53:49Z</time>
      </trkpt>
      <trkpt lat="42.3686935287" lon="-7.8667187970">
        <ele>202.01</ele>
        <time>2020-08-14T08:53:58Z</time>
      </trkpt>
      <trkpt lat="42.3688213527" lon="-7.8667445295">
        <ele>202.01</ele>
        <time>2020-08-14T08:54:05Z</time>
      </trkpt>
      <trkpt lat="42.3688061815" lon="-7.8667574376">
        <ele>202.01</ele>
        <time>2020-08-14T08:54:16Z</time>
      </trkpt>
      <trkpt lat="42.3687998112" lon="-7.8667556774">
        <ele>202.49</ele>
        <time>2020-08-14T08:54:30Z</time>
      </trkpt>
      <trkpt lat="42.3688216042" lon="-7.8667418472">
        <ele>200.57</ele>
        <time>2020-08-14T08:54:46Z</time>
      </trkpt>
      <trkpt lat="42.3688232806" lon="-7.8667500615">
        <ele>200.57</ele>
        <time>2020-08-14T08:54:59Z</time>
      </trkpt>
      <trkpt lat="42.3688242864" lon="-7.8667462058">
        <ele>200.57</ele>
        <time>2020-08-14T08:55:08Z</time>
      </trkpt>
      <trkpt lat="42.3688236997" lon="-7.8667367343">
        <ele>201.05</ele>
        <time>2020-08-14T08:55:17Z</time>
      </trkpt>
      <trkpt lat="42.3688481748" lon="-7.8667457867">
        <ele>200.57</ele>
        <time>2020-08-14T08:55:24Z</time>
      </trkpt>
      <trkpt lat="42.3689464945" lon="-7.8667814098">
        <ele>201.05</ele>
        <time>2020-08-14T08:55:30Z</time>
      </trkpt>
      <trkpt lat="42.3690887354" lon="-7.8668435197">
        <ele>202.49</ele>
        <time>2020-08-14T08:55:37Z</time>
      </trkpt>
      <trkpt lat="42.3692772444" lon="-7.8669893648">
        <ele>203.46</ele>
        <time>2020-08-14T08:55:45Z</time>
      </trkpt>
      <trkpt lat="42.3694851156" lon="-7.8671490401">
        <ele>203.46</ele>
        <time>2020-08-14T08:55:53Z</time>
      </trkpt>
      <trkpt lat="42.3696292844" lon="-7.8671232238">
        <ele>202.98</ele>
        <time>2020-08-14T08:55:58Z</time>
      </trkpt>
      <trkpt lat="42.3699016962" lon="-7.8670049552">
        <ele>203.46</ele>
        <time>2020-08-14T08:56:07Z</time>
      </trkpt>
      <trkpt lat="42.3700869363" lon="-7.8668140993">
        <ele>204.42</ele>
        <time>2020-08-14T08:56:15Z</time>
      </trkpt>
      <trkpt lat="42.3701732699" lon="-7.8666120954">
        <ele>206.34</ele>
        <time>2020-08-14T08:56:22Z</time>
      </trkpt>
      <trkpt lat="42.3702518083" lon="-7.8663880471">
        <ele>207.30</ele>
        <time>2020-08-14T08:56:30Z</time>
      </trkpt>
      <trkpt lat="42.3703418300" lon="-7.8661741409">
        <ele>209.70</ele>
        <time>2020-08-14T08:56:38Z</time>
      </trkpt>
      <trkpt lat="42.3704268225" lon="-7.8659474105">
        <ele>210.67</ele>
        <time>2020-08-14T08:56:46Z</time>
      </trkpt>
      <trkpt lat="42.3705312610" lon="-7.8656693827">
        <ele>212.11</ele>
        <time>2020-08-14T08:56:56Z</time>
      </trkpt>
      <trkpt lat="42.3706473503" lon="-7.8653160855">
        <ele>213.55</ele>
        <time>2020-08-14T08:57:08Z</time>
      </trkpt>
      <trkpt lat="42.3706595041" lon="-7.8651013412">
        <ele>214.03</ele>
        <time>2020-08-14T08:57:16Z</time>
      </trkpt>
      <trkpt lat="42.3705928680" lon="-7.8648894466">
        <ele>214.51</ele>
        <time>2020-08-14T08:57:25Z</time>
      </trkpt>
      <trkpt lat="42.3704582546" lon="-7.8647558391">
        <ele>215.95</ele>
        <time>2020-08-14T08:57:34Z</time>
      </trkpt>
      <trkpt lat="42.3703160975" lon="-7.8646466229">
        <ele>216.91</ele>
        <time>2020-08-14T08:57:43Z</time>
      </trkpt>
      <trkpt lat="42.3701479565" lon="-7.8645321261">
        <ele>215.47</ele>
        <time>2020-08-14T08:57:53Z</time>
      </trkpt>
      <trkpt lat="42.3699676618" lon="-7.8643872868">
        <ele>215.47</ele>
        <time>2020-08-14T08:58:04Z</time>
      </trkpt>
      <trkpt lat="42.3698297795" lon="-7.8642761428">
        <ele>216.91</ele>
        <time>2020-08-14T08:58:12Z</time>
      </trkpt>
      <trkpt lat="42.3696719483" lon="-7.8640912380">
        <ele>219.32</ele>
        <time>2020-08-14T08:58:23Z</time>
      </trkpt>
      <trkpt lat="42.3695314676" lon="-7.8638664354">
        <ele>220.76</ele>
        <time>2020-08-14T08:58:34Z</time>
      </trkpt>
      <trkpt lat="42.3694339860" lon="-7.8636807762">
        <ele>221.72</ele>
        <time>2020-08-14T08:58:43Z</time>
      </trkpt>
      <trkpt lat="42.3693186510" lon="-7.8634761740">
        <ele>222.68</ele>
        <time>2020-08-14T08:58:53Z</time>
      </trkpt>
      <trkpt lat="42.3692062497" lon="-7.8632938676">
        <ele>223.64</ele>
        <time>2020-08-14T08:59:02Z</time>
      </trkpt>
      <trkpt lat="42.3690721393" lon="-7.8631773591">
        <ele>224.61</ele>
        <time>2020-08-14T08:59:10Z</time>
      </trkpt>
      <trkpt lat="42.3688931018" lon="-7.8630947135">
        <ele>225.57</ele>
        <time>2020-08-14T08:59:20Z</time>
      </trkpt>
      <trkpt lat="42.3686989769" lon="-7.8629593458">
        <ele>226.53</ele>
        <time>2020-08-14T08:59:31Z</time>
      </trkpt>
      <trkpt lat="42.3685576580" lon="-7.8628124949">
        <ele>227.97</ele>
        <time>2020-08-14T08:59:40Z</time>
      </trkpt>
      <trkpt lat="42.3684572428" lon="-7.8626563400">
        <ele>228.93</ele>
        <time>2020-08-14T08:59:50Z</time>
      </trkpt>
      <trkpt lat="42.3684514593" lon="-7.8626315296">
        <ele>229.41</ele>
        <time>2020-08-14T08:59:58Z</time>
      </trkpt>
      <trkpt lat="42.3684368748" lon="-7.8625976667">
        <ele>229.89</ele>
        <time>2020-08-14T09:00:05Z</time>
      </trkpt>
      <trkpt lat="42.3684529681" lon="-7.8626011871">
        <ele>230.37</ele>
        <time>2020-08-14T09:00:19Z</time>
      </trkpt>
      <trkpt lat="42.3684274871" lon="-7.8626223095">
        <ele>230.37</ele>
        <time>2020-08-14T09:00:35Z</time>
      </trkpt>
      <trkpt lat="42.3684302531" lon="-7.8626261652">
        <ele>229.89</ele>
        <time>2020-08-14T09:00:50Z</time>
      </trkpt>
      <trkpt lat="42.3684357014" lon="-7.8625914641">
        <ele>229.41</ele>
        <time>2020-08-14T09:01:04Z</time>
      </trkpt>
      <trkpt lat="42.3684010003" lon="-7.8624793980">
        <ele>229.89</ele>
        <time>2020-08-14T09:01:11Z</time>
      </trkpt>
      <trkpt lat="42.3683555704" lon="-7.8622887097">
        <ele>230.85</ele>
        <time>2020-08-14T09:01:19Z</time>
      </trkpt>
      <trkpt lat="42.3683167621" lon="-7.8620162979">
        <ele>231.33</ele>
        <time>2020-08-14T09:01:29Z</time>
      </trkpt>
      <trkpt lat="42.3683017585" lon="-7.8617884777">
        <ele>231.81</ele>
        <time>2020-08-14T09:01:38Z</time>
      </trkpt>
      <trkpt lat="42.3682688177" lon="-7.8615183290">
        <ele>233.26</ele>
        <time>2020-08-14T09:01:49Z</time>
      </trkpt>
      <trkpt lat="42.3682563286" lon="-7.8612994775">
        <ele>235.18</ele>
        <time>2020-08-14T09:01:58Z</time>
      </trkpt>
      <trkpt lat="42.3682275787" lon="-7.8610685561">
        <ele>235.66</ele>
        <time>2020-08-14T09:02:07Z</time>
      </trkpt>
      <trkpt lat="42.3682015948" lon="-7.8607667238">
        <ele>237.10</ele>
        <time>2020-08-14T09:02:19Z</time>
      </trkpt>
      <trkpt lat="42.3681974877" lon="-7.8607509658">
        <ele>237.10</ele>
        <time>2020-08-14T09:02:20Z</time>
      </trkpt>
      <trkpt lat="42.3681824002" lon="-7.8607328609">
        <ele>236.62</ele>
        <time>2020-08-14T09:02:27Z</time>
      </trkpt>
      <trkpt lat="42.3681797180" lon="-7.8607166838">
        <ele>237.10</ele>
        <time>2020-08-14T09:02:36Z</time>
      </trkpt>
      <trkpt lat="42.3681786284" lon="-7.8606337029">
        <ele>238.54</ele>
        <time>2020-08-14T09:02:42Z</time>
      </trkpt>
      <trkpt lat="42.3681774549" lon="-7.8605736047">
        <ele>238.54</ele>
        <time>2020-08-14T09:02:47Z</time>
      </trkpt>
      <trkpt lat="42.3681777902" lon="-7.8605597746">
        <ele>239.02</ele>
        <time>2020-08-14T09:02:48Z</time>
      </trkpt>
      <trkpt lat="42.3681742698" lon="-7.8605379816">
        <ele>239.51</ele>
        <time>2020-08-14T09:02:49Z</time>
      </trkpt>
      <trkpt lat="42.3681539018" lon="-7.8603284340">
        <ele>240.47</ele>
        <time>2020-08-14T09:02:58Z</time>
      </trkpt>
      <trkpt lat="42.3681464419" lon="-7.8600977641">
        <ele>239.51</ele>
        <time>2020-08-14T09:03:07Z</time>
      </trkpt>
      <trkpt lat="42.3681287561" lon="-7.8598545212">
        <ele>240.47</ele>
        <time>2020-08-14T09:03:16Z</time>
      </trkpt>
      <trkpt lat="42.3681191169" lon="-7.8596096020">
        <ele>240.95</ele>
        <time>2020-08-14T09:03:25Z</time>
      </trkpt>
      <trkpt lat="42.3680927977" lon="-7.8593535349">
        <ele>242.39</ele>
        <time>2020-08-14T09:03:35Z</time>
      </trkpt>
      <trkpt lat="42.3681705818" lon="-7.8591167461">
        <ele>243.83</ele>
        <time>2020-08-14T09:03:45Z</time>
      </trkpt>
      <trkpt lat="42.3683295865" lon="-7.8590025008">
        <ele>244.31</ele>
        <time>2020-08-14T09:03:54Z</time>
      </trkpt>
      <trkpt lat="42.3685251363" lon="-7.8589198552">
        <ele>245.75</ele>
        <time>2020-08-14T09:04:04Z</time>
      </trkpt>
      <trkpt lat="42.3687441554" lon="-7.8588253073">
        <ele>246.72</ele>
        <time>2020-08-14T09:04:15Z</time>
      </trkpt>
      <trkpt lat="42.3689831235" lon="-7.8587367106">
        <ele>249.12</ele>
        <time>2020-08-14T09:04:27Z</time>
      </trkpt>
      <trkpt lat="42.3691175692" lon="-7.8586712480">
        <ele>249.60</ele>
        <time>2020-08-14T09:04:34Z</time>
      </trkpt>
      <trkpt lat="42.3693080898" lon="-7.8585431725">
        <ele>249.60</ele>
        <time>2020-08-14T09:04:44Z</time>
      </trkpt>
      <trkpt lat="42.3694469780" lon="-7.8584000096">
        <ele>251.04</ele>
        <time>2020-08-14T09:04:53Z</time>
      </trkpt>
      <trkpt lat="42.3695540149" lon="-7.8582641389">
        <ele>251.52</ele>
        <time>2020-08-14T09:05:00Z</time>
      </trkpt>
      <trkpt lat="42.3696830124" lon="-7.8580734506">
        <ele>252.00</ele>
        <time>2020-08-14T09:05:10Z</time>
      </trkpt>
      <trkpt lat="42.3698073160" lon="-7.8578952514">
        <ele>252.48</ele>
        <time>2020-08-14T09:05:20Z</time>
      </trkpt>
      <trkpt lat="42.3699332960" lon="-7.8577131964">
        <ele>253.44</ele>
        <time>2020-08-14T09:05:30Z</time>
      </trkpt>
      <trkpt lat="42.3701180331" lon="-7.8574848734">
        <ele>254.89</ele>
        <time>2020-08-14T09:05:43Z</time>
      </trkpt>
      <trkpt lat="42.3702489585" lon="-7.8573261201">
        <ele>255.85</ele>
        <time>2020-08-14T09:05:52Z</time>
      </trkpt>
      <trkpt lat="42.3704079632" lon="-7.8571496811">
        <ele>256.81</ele>
        <time>2020-08-14T09:06:02Z</time>
      </trkpt>
      <trkpt lat="42.3705463484" lon="-7.8569960408">
        <ele>257.77</ele>
        <time>2020-08-14T09:06:11Z</time>
      </trkpt>
      <trkpt lat="42.3707185965" lon="-7.8568408918">
        <ele>259.21</ele>
        <time>2020-08-14T09:06:21Z</time>
      </trkpt>
      <trkpt lat="42.3708490189" lon="-7.8567336872">
        <ele>260.65</ele>
        <time>2020-08-14T09:06:29Z</time>
      </trkpt>
      <trkpt lat="42.3709627613" lon="-7.8566623572">
        <ele>261.62</ele>
        <time>2020-08-14T09:06:37Z</time>
      </trkpt>
      <trkpt lat="42.3711433075" lon="-7.8565837350">
        <ele>262.58</ele>
        <time>2020-08-14T09:06:47Z</time>
      </trkpt>
      <trkpt lat="42.3713304754" lon="-7.8565074597">
        <ele>263.06</ele>
        <time>2020-08-14T09:06:57Z</time>
      </trkpt>
      <trkpt lat="42.3714958504" lon="-7.8564222157">
        <ele>264.02</ele>
        <time>2020-08-14T09:07:07Z</time>
      </trkpt>
      <trkpt lat="42.3716726247" lon="-7.8563463595">
        <ele>264.98</ele>
        <time>2020-08-14T09:07:17Z</time>
      </trkpt>
      <trkpt lat="42.3718326353" lon="-7.8562586010">
        <ele>266.42</ele>
        <time>2020-08-14T09:07:27Z</time>
      </trkpt>
      <trkpt lat="42.3719871137" lon="-7.8561635502">
        <ele>267.86</ele>
        <time>2020-08-14T09:07:37Z</time>
      </trkpt>
      <trkpt lat="42.3721347190" lon="-7.8560252488">
        <ele>268.83</ele>
        <time>2020-08-14T09:07:47Z</time>
      </trkpt>
      <trkpt lat="42.3722830787" lon="-7.8558006976">
        <ele>269.79</ele>
        <time>2020-08-14T09:07:59Z</time>
      </trkpt>
      <trkpt lat="42.3723680712" lon="-7.8556775674">
        <ele>270.27</ele>
        <time>2020-08-14T09:08:06Z</time>
      </trkpt>
      <trkpt lat="42.3724814784" lon="-7.8555155452">
        <ele>271.23</ele>
        <time>2020-08-14T09:08:14Z</time>
      </trkpt>
      <trkpt lat="42.3726141639" lon="-7.8553169779">
        <ele>272.19</ele>
        <time>2020-08-14T09:08:24Z</time>
      </trkpt>
      <trkpt lat="42.3727234639" lon="-7.8551588953">
        <ele>272.67</ele>
        <time>2020-08-14T09:08:32Z</time>
      </trkpt>
      <trkpt lat="42.3728206940" lon="-7.8550288081">
        <ele>273.15</ele>
        <time>2020-08-14T09:08:39Z</time>
      </trkpt>
      <trkpt lat="42.3729278985" lon="-7.8549235314">
        <ele>274.11</ele>
        <time>2020-08-14T09:08:46Z</time>
      </trkpt>
      <trkpt lat="42.3730708938" lon="-7.8548392933">
        <ele>275.07</ele>
        <time>2020-08-14T09:08:54Z</time>
      </trkpt>
      <trkpt lat="42.3732905835" lon="-7.8548114654">
        <ele>276.04</ele>
        <time>2020-08-14T09:09:05Z</time>
      </trkpt>
      <trkpt lat="42.3735141288" lon="-7.8548120521">
        <ele>277.00</ele>
        <time>2020-08-14T09:09:16Z</time>
      </trkpt>
      <trkpt lat="42.3736999556" lon="-7.8547952883">
        <ele>277.96</ele>
        <time>2020-08-14T09:09:25Z</time>
      </trkpt>
      <trkpt lat="42.3738808371" lon="-7.8547391295">
        <ele>278.92</ele>
        <time>2020-08-14T09:09:34Z</time>
      </trkpt>
      <trkpt lat="42.3740953300" lon="-7.8546082880">
        <ele>280.84</ele>
        <time>2020-08-14T09:09:46Z</time>
      </trkpt>
      <trkpt lat="42.3743161932" lon="-7.8544844035">
        <ele>281.80</ele>
        <time>2020-08-14T09:09:58Z</time>
      </trkpt>
      <trkpt lat="42.3744732700" lon="-7.8543911967">
        <ele>281.80</ele>
        <time>2020-08-14T09:10:07Z</time>
      </trkpt>
      <trkpt lat="42.3746290896" lon="-7.8542998340">
        <ele>282.77</ele>
        <time>2020-08-14T09:10:16Z</time>
      </trkpt>
      <trkpt lat="42.3747595120" lon="-7.8542391490">
        <ele>284.21</ele>
        <time>2020-08-14T09:10:25Z</time>
      </trkpt>
      <trkpt lat="42.3748859949" lon="-7.8542098962">
        <ele>285.17</ele>
        <time>2020-08-14T09:10:33Z</time>
      </trkpt>
      <trkpt lat="42.3748996574" lon="-7.8541938867">
        <ele>284.69</ele>
        <time>2020-08-14T09:10:38Z</time>
      </trkpt>
      <trkpt lat="42.3749054410" lon="-7.8541860916">
        <ele>285.17</ele>
        <time>2020-08-14T09:10:52Z</time>
      </trkpt>
      <trkpt lat="42.3749042675" lon="-7.8541924618">
        <ele>286.13</ele>
        <time>2020-08-14T09:11:03Z</time>
      </trkpt>
      <trkpt lat="42.3748764396" lon="-7.8541905340">
        <ele>286.13</ele>
        <time>2020-08-14T09:11:17Z</time>
      </trkpt>
      <trkpt lat="42.3748985678" lon="-7.8542047832">
        <ele>286.13</ele>
        <time>2020-08-14T09:11:32Z</time>
      </trkpt>
      <trkpt lat="42.3748768587" lon="-7.8542289231">
        <ele>286.61</ele>
        <time>2020-08-14T09:11:51Z</time>
      </trkpt>
      <trkpt lat="42.3748828098" lon="-7.8542275820">
        <ele>289.49</ele>
        <time>2020-08-14T09:12:18Z</time>
      </trkpt>
      <trkpt lat="42.3748970591" lon="-7.8542465251">
        <ele>290.46</ele>
        <time>2020-08-14T09:12:44Z</time>
      </trkpt>
      <trkpt lat="42.3748910241" lon="-7.8542474471">
        <ele>292.86</ele>
        <time>2020-08-14T09:13:03Z</time>
      </trkpt>
      <trkpt lat="42.3748963885" lon="-7.8542532306">
        <ele>292.38</ele>
        <time>2020-08-14T09:13:30Z</time>
      </trkpt>
      <trkpt lat="42.3748823907" lon="-7.8542426694">
        <ele>291.90</ele>
        <time>2020-08-14T09:13:43Z</time>
      </trkpt>
      <trkpt lat="42.3748898506" lon="-7.8542417474">
        <ele>290.46</ele>
        <time>2020-08-14T09:14:03Z</time>
      </trkpt>
      <trkpt lat="42.3748894315" lon="-7.8542214632">
        <ele>290.46</ele>
        <time>2020-08-14T09:14:22Z</time>
      </trkpt>
      <trkpt lat="42.3748677224" lon="-7.8542819805">
        <ele>294.30</ele>
        <time>2020-08-14T09:14:43Z</time>
      </trkpt>
      <trkpt lat="42.3748673033" lon="-7.8542900272">
        <ele>297.67</ele>
        <time>2020-08-14T09:15:06Z</time>
      </trkpt>
      <trkpt lat="42.3748764396" lon="-7.8542802203">
        <ele>298.63</ele>
        <time>2020-08-14T09:15:29Z</time>
      </trkpt>
      <trkpt lat="42.3748761881" lon="-7.8542533983">
        <ele>296.70</ele>
        <time>2020-08-14T09:15:48Z</time>
      </trkpt>
      <trkpt lat="42.3748761881" lon="-7.8542256542">
        <ele>295.26</ele>
        <time>2020-08-14T09:16:04Z</time>
      </trkpt>
      <trkpt lat="42.3748711590" lon="-7.8541907854">
        <ele>292.38</ele>
        <time>2020-08-14T09:16:26Z</time>
      </trkpt>
      <trkpt lat="42.3748833966" lon="-7.8541949764">
        <ele>290.94</ele>
        <time>2020-08-14T09:16:44Z</time>
      </trkpt>
      <trkpt lat="42.3748883419" lon="-7.8542088903">
        <ele>290.94</ele>
        <time>2020-08-14T09:17:05Z</time>
      </trkpt>
      <trkpt lat="42.3749009147" lon="-7.8542016819">
        <ele>290.46</ele>
        <time>2020-08-14T09:17:12Z</time>
      </trkpt>
      <trkpt lat="42.3749087099" lon="-7.8542006761">
        <ele>289.97</ele>
        <time>2020-08-14T09:17:14Z</time>
      </trkpt>
      <trkpt lat="42.3749963008" lon="-7.8541872650">
        <ele>289.97</ele>
        <time>2020-08-14T09:17:20Z</time>
      </trkpt>
      <trkpt lat="42.3751770146" lon="-7.8541772068">
        <ele>289.97</ele>
        <time>2020-08-14T09:17:29Z</time>
      </trkpt>
      <trkpt lat="42.3753742408" lon="-7.8541881032">
        <ele>290.46</ele>
        <time>2020-08-14T09:17:39Z</time>
      </trkpt>
      <trkpt lat="42.3755659349" lon="-7.8542505484">
        <ele>290.94</ele>
        <time>2020-08-14T09:17:49Z</time>
      </trkpt>
      <trkpt lat="42.3757490795" lon="-7.8543689847">
        <ele>290.46</ele>
        <time>2020-08-14T09:17:59Z</time>
      </trkpt>
      <trkpt lat="42.3758945893" lon="-7.8545126505">
        <ele>290.94</ele>
        <time>2020-08-14T09:18:08Z</time>
      </trkpt>
      <trkpt lat="42.3759460542" lon="-7.8545784485">
        <ele>291.42</ele>
        <time>2020-08-14T09:18:15Z</time>
      </trkpt>
      <trkpt lat="42.3759515863" lon="-7.8545915242">
        <ele>291.42</ele>
        <time>2020-08-14T09:18:16Z</time>
      </trkpt>
      <trkpt lat="42.3760175519" lon="-7.8546788637">
        <ele>292.38</ele>
        <time>2020-08-14T09:18:24Z</time>
      </trkpt>
      <trkpt lat="42.3761163745" lon="-7.8548056819">
        <ele>292.86</ele>
        <time>2020-08-14T09:18:32Z</time>
      </trkpt>
      <trkpt lat="42.3762345593" lon="-7.8549665306">
        <ele>293.34</ele>
        <time>2020-08-14T09:18:41Z</time>
      </trkpt>
      <trkpt lat="42.3763541691" lon="-7.8551963624">
        <ele>294.78</ele>
        <time>2020-08-14T09:18:52Z</time>
      </trkpt>
      <trkpt lat="42.3764406703" lon="-7.8554196563">
        <ele>295.74</ele>
        <time>2020-08-14T09:19:02Z</time>
      </trkpt>
      <trkpt lat="42.3765521497" lon="-7.8556886315">
        <ele>297.18</ele>
        <time>2020-08-14T09:19:14Z</time>
      </trkpt>
      <trkpt lat="42.3766606115" lon="-7.8557730373">
        <ele>298.63</ele>
        <time>2020-08-14T09:19:21Z</time>
      </trkpt>
      <trkpt lat="42.3766777106" lon="-7.8557719477">
        <ele>298.63</ele>
        <time>2020-08-14T09:19:22Z</time>
      </trkpt>
      <trkpt lat="42.3766957317" lon="-7.8557730373">
        <ele>299.11</ele>
        <time>2020-08-14T09:19:23Z</time>
      </trkpt>
      <trkpt lat="42.3767166026" lon="-7.8557716124">
        <ele>299.11</ele>
        <time>2020-08-14T09:19:24Z</time>
      </trkpt>
      <trkpt lat="42.3767343722" lon="-7.8557639010">
        <ele>299.11</ele>
        <time>2020-08-14T09:19:25Z</time>
      </trkpt>
      <trkpt lat="42.3768338654" lon="-7.8556789085">
        <ele>299.11</ele>
        <time>2020-08-14T09:19:31Z</time>
      </trkpt>
      <trkpt lat="42.3768844083" lon="-7.8555095941">
        <ele>301.51</ele>
        <time>2020-08-14T09:19:39Z</time>
      </trkpt>
      <trkpt lat="42.3769404832" lon="-7.8552995436">
        <ele>302.47</ele>
        <time>2020-08-14T09:19:48Z</time>
      </trkpt>
      <trkpt lat="42.3770033475" lon="-7.8549855575">
        <ele>303.43</ele>
        <time>2020-08-14T09:19:59Z</time>
      </trkpt>
      <trkpt lat="42.3770596739" lon="-7.8547362797">
        <ele>304.39</ele>
        <time>2020-08-14T09:20:09Z</time>
      </trkpt>
      <trkpt lat="42.3771074507" lon="-7.8545170091">
        <ele>305.36</ele>
        <time>2020-08-14T09:20:18Z</time>
      </trkpt>
      <trkpt lat="42.3771663755" lon="-7.8542750236">
        <ele>306.32</ele>
        <time>2020-08-14T09:20:28Z</time>
      </trkpt>
      <trkpt lat="42.3772151582" lon="-7.8540645540">
        <ele>307.28</ele>
        <time>2020-08-14T09:20:37Z</time>
      </trkpt>
      <trkpt lat="42.3772609234" lon="-7.8538637236">
        <ele>307.76</ele>
        <time>2020-08-14T09:20:46Z</time>
      </trkpt>
      <trkpt lat="42.3773313314" lon="-7.8536281921">
        <ele>308.72</ele>
        <time>2020-08-14T09:20:56Z</time>
      </trkpt>
      <trkpt lat="42.3773917649" lon="-7.8534774855">
        <ele>309.20</ele>
        <time>2020-08-14T09:21:03Z</time>
      </trkpt>
      <trkpt lat="42.3774744105" lon="-7.8533067461">
        <ele>309.68</ele>
        <time>2020-08-14T09:21:11Z</time>
      </trkpt>
      <trkpt lat="42.3776366003" lon="-7.8531067539">
        <ele>311.12</ele>
        <time>2020-08-14T09:21:22Z</time>
      </trkpt>
      <trkpt lat="42.3777737282" lon="-7.8529907484">
        <ele>312.09</ele>
        <time>2020-08-14T09:21:30Z</time>
      </trkpt>
      <trkpt lat="42.3779464792" lon="-7.8528745752">
        <ele>313.05</ele>
        <time>2020-08-14T09:21:40Z</time>
      </trkpt>
      <trkpt lat="42.3781199008" lon="-7.8528137226">
        <ele>314.01</ele>
        <time>2020-08-14T09:21:50Z</time>
      </trkpt>
      <trkpt lat="42.3782470543" lon="-7.8528211825">
        <ele>314.97</ele>
        <time>2020-08-14T09:21:57Z</time>
      </trkpt>
      <trkpt lat="42.3784271814" lon="-7.8528804425">
        <ele>315.45</ele>
        <time>2020-08-14T09:22:07Z</time>
      </trkpt>
      <trkpt lat="42.3786298558" lon="-7.8529588133">
        <ele>316.89</ele>
        <time>2020-08-14T09:22:18Z</time>
      </trkpt>
      <trkpt lat="42.3788487073" lon="-7.8530371841">
        <ele>318.33</ele>
        <time>2020-08-14T09:22:29Z</time>
      </trkpt>
      <trkpt lat="42.3790051136" lon="-7.8530925047">
        <ele>318.33</ele>
        <time>2020-08-14T09:22:38Z</time>
      </trkpt>
      <trkpt lat="42.3791504558" lon="-7.8531514294">
        <ele>319.30</ele>
        <time>2020-08-14T09:22:46Z</time>
      </trkpt>
      <trkpt lat="42.3793597519" lon="-7.8532364219">
        <ele>320.26</ele>
        <time>2020-08-14T09:22:57Z</time>
      </trkpt>
      <trkpt lat="42.3795598280" lon="-7.8533224203">
        <ele>320.26</ele>
        <time>2020-08-14T09:23:07Z</time>
      </trkpt>
      <trkpt lat="42.3797576409" lon="-7.8534026351">
        <ele>320.74</ele>
        <time>2020-08-14T09:23:17Z</time>
      </trkpt>
      <trkpt lat="42.3799594771" lon="-7.8534913994">
        <ele>320.74</ele>
        <time>2020-08-14T09:23:27Z</time>
      </trkpt>
      <trkpt lat="42.3800797574" lon="-7.8535435349">
        <ele>321.22</ele>
        <time>2020-08-14T09:23:33Z</time>
      </trkpt>
      <trkpt lat="42.3800978623" lon="-7.8535544313">
        <ele>321.70</ele>
        <time>2020-08-14T09:23:34Z</time>
      </trkpt>
      <trkpt lat="42.3801189847" lon="-7.8535598796">
        <ele>321.70</ele>
        <time>2020-08-14T09:23:35Z</time>
      </trkpt>
      <trkpt lat="42.3801412806" lon="-7.8535652440">
        <ele>321.70</ele>
        <time>2020-08-14T09:23:36Z</time>
      </trkpt>
      <trkpt lat="42.3801606428" lon="-7.8535700217">
        <ele>321.22</ele>
        <time>2020-08-14T09:23:37Z</time>
      </trkpt>
      <trkpt lat="42.3801807594" lon="-7.8535768110">
        <ele>321.22</ele>
        <time>2020-08-14T09:23:38Z</time>
      </trkpt>
      <trkpt lat="42.3802012112" lon="-7.8535866179">
        <ele>321.22</ele>
        <time>2020-08-14T09:23:39Z</time>
      </trkpt>
      <trkpt lat="42.3802223336" lon="-7.8535972629">
        <ele>321.22</ele>
        <time>2020-08-14T09:23:40Z</time>
      </trkpt>
      <trkpt lat="42.3802401032" lon="-7.8536040522">
        <ele>321.22</ele>
        <time>2020-08-14T09:23:41Z</time>
      </trkpt>
      <trkpt lat="42.3804344796" lon="-7.8536684252">
        <ele>321.70</ele>
        <time>2020-08-14T09:23:50Z</time>
      </trkpt>
      <trkpt lat="42.3806094937" lon="-7.8537421860">
        <ele>322.66</ele>
        <time>2020-08-14T09:23:59Z</time>
      </trkpt>
      <trkpt lat="42.3807861842" lon="-7.8538460378">
        <ele>322.18</ele>
        <time>2020-08-14T09:24:08Z</time>
      </trkpt>
      <trkpt lat="42.3809648864" lon="-7.8540309425">
        <ele>323.14</ele>
        <time>2020-08-14T09:24:18Z</time>
      </trkpt>
      <trkpt lat="42.3811012600" lon="-7.8541948088">
        <ele>324.58</ele>
        <time>2020-08-14T09:24:26Z</time>
      </trkpt>
      <trkpt lat="42.3812682275" lon="-7.8543771990">
        <ele>325.06</ele>
        <time>2020-08-14T09:24:35Z</time>
      </trkpt>
      <trkpt lat="42.3814364523" lon="-7.8545894288">
        <ele>326.02</ele>
        <time>2020-08-14T09:24:45Z</time>
      </trkpt>
      <trkpt lat="42.3816293199" lon="-7.8548350185">
        <ele>326.50</ele>
        <time>2020-08-14T09:24:56Z</time>
      </trkpt>
      <trkpt lat="42.3817194253" lon="-7.8549879882">
        <ele>326.02</ele>
        <time>2020-08-14T09:25:04Z</time>
      </trkpt>
      <trkpt lat="42.3818269651" lon="-7.8552001342">
        <ele>326.50</ele>
        <time>2020-08-14T09:25:13Z</time>
      </trkpt>
      <trkpt lat="42.3819509335" lon="-7.8554309718">
        <ele>326.99</ele>
        <time>2020-08-14T09:25:23Z</time>
      </trkpt>
      <trkpt lat="42.3820844572" lon="-7.8557193931">
        <ele>328.43</ele>
        <time>2020-08-14T09:25:35Z</time>
      </trkpt>
      <trkpt lat="42.3822319787" lon="-7.8559281863">
        <ele>329.39</ele>
        <time>2020-08-14T09:25:45Z</time>
      </trkpt>
      <trkpt lat="42.3823827691" lon="-7.8560574353">
        <ele>330.35</ele>
        <time>2020-08-14T09:25:54Z</time>
      </trkpt>
      <trkpt lat="42.3825421929" lon="-7.8561171144">
        <ele>331.31</ele>
        <time>2020-08-14T09:26:02Z</time>
      </trkpt>
      <trkpt lat="42.3828128446" lon="-7.8561041225">
        <ele>335.64</ele>
        <time>2020-08-14T09:26:15Z</time>
      </trkpt>
      <trkpt lat="42.3829998448" lon="-7.8560659010">
        <ele>337.08</ele>
        <time>2020-08-14T09:26:24Z</time>
      </trkpt>
      <trkpt lat="42.3832142539" lon="-7.8560086526">
        <ele>337.56</ele>
        <time>2020-08-14T09:26:34Z</time>
      </trkpt>
      <trkpt lat="42.3834002484" lon="-7.8559660725">
        <ele>338.52</ele>
        <time>2020-08-14T09:26:43Z</time>
      </trkpt>
      <trkpt lat="42.3835811298" lon="-7.8559535835">
        <ele>339.48</ele>
        <time>2020-08-14T09:26:52Z</time>
      </trkpt>
      <trkpt lat="42.3837458342" lon="-7.8559583612">
        <ele>340.44</ele>
        <time>2020-08-14T09:27:00Z</time>
      </trkpt>
      <trkpt lat="42.3839495145" lon="-7.8559801541">
        <ele>339.96</ele>
        <time>2020-08-14T09:27:10Z</time>
      </trkpt>
      <trkpt lat="42.3841340002" lon="-7.8560018633">
        <ele>339.96</ele>
        <time>2020-08-14T09:27:18Z</time>
      </trkpt>
      <trkpt lat="42.3843851220" lon="-7.8560374025">
        <ele>339.96</ele>
        <time>2020-08-14T09:27:28Z</time>
      </trkpt>
      <trkpt lat="42.3845535144" lon="-7.8560600337">
        <ele>339.96</ele>
        <time>2020-08-14T09:27:35Z</time>
      </trkpt>
      <trkpt lat="42.3847483099" lon="-7.8560698405">
        <ele>340.44</ele>
        <time>2020-08-14T09:27:44Z</time>
      </trkpt>
      <trkpt lat="42.3849148583" lon="-7.8560861014">
        <ele>340.92</ele>
        <time>2020-08-14T09:27:52Z</time>
      </trkpt>
      <trkpt lat="42.3850954883" lon="-7.8561258316">
        <ele>342.85</ele>
        <time>2020-08-14T09:28:01Z</time>
      </trkpt>
      <trkpt lat="42.3853243142" lon="-7.8561562579">
        <ele>344.77</ele>
        <time>2020-08-14T09:28:12Z</time>
      </trkpt>
      <trkpt lat="42.3855689820" lon="-7.8561744466">
        <ele>346.69</ele>
        <time>2020-08-14T09:28:24Z</time>
      </trkpt>
      <trkpt lat="42.3857729137" lon="-7.8561913781">
        <ele>347.65</ele>
        <time>2020-08-14T09:28:35Z</time>
      </trkpt>
      <trkpt lat="42.3859657813" lon="-7.8561410028">
        <ele>348.62</ele>
        <time>2020-08-14T09:28:45Z</time>
      </trkpt>
      <trkpt lat="42.3860612512" lon="-7.8559879493">
        <ele>349.10</ele>
        <time>2020-08-14T09:28:52Z</time>
      </trkpt>
      <trkpt lat="42.3861717246" lon="-7.8556813393">
        <ele>349.58</ele>
        <time>2020-08-14T09:29:04Z</time>
      </trkpt>
      <trkpt lat="42.3862618301" lon="-7.8553681076">
        <ele>350.54</ele>
        <time>2020-08-14T09:29:16Z</time>
      </trkpt>
      <trkpt lat="42.3863438051" lon="-7.8550868109">
        <ele>350.54</ele>
        <time>2020-08-14T09:29:27Z</time>
      </trkpt>
      <trkpt lat="42.3864398617" lon="-7.8548042569">
        <ele>351.02</ele>
        <time>2020-08-14T09:29:39Z</time>
      </trkpt>
      <trkpt lat="42.3865224235" lon="-7.8545630258">
        <ele>351.98</ele>
        <time>2020-08-14T09:29:49Z</time>
      </trkpt>
      <trkpt lat="42.3866432067" lon="-7.8543462697">
        <ele>352.94</ele>
        <time>2020-08-14T09:29:59Z</time>
      </trkpt>
      <trkpt lat="42.3867654987" lon="-7.8541642986">
        <ele>353.90</ele>
        <time>2020-08-14T09:30:08Z</time>
      </trkpt>
      <trkpt lat="42.3869028781" lon="-7.8539571818">
        <ele>355.34</ele>
        <time>2020-08-14T09:30:18Z</time>
      </trkpt>
      <trkpt lat="42.3870185483" lon="-7.8538062237">
        <ele>357.27</ele>
        <time>2020-08-14T09:30:26Z</time>
      </trkpt>
      <trkpt lat="42.3871802352" lon="-7.8535866179">
        <ele>358.71</ele>
        <time>2020-08-14T09:30:38Z</time>
      </trkpt>
      <trkpt lat="42.3873394914" lon="-7.8534146212">
        <ele>360.15</ele>
        <time>2020-08-14T09:30:49Z</time>
      </trkpt>
      <trkpt lat="42.3874762841" lon="-7.8532993700">
        <ele>361.11</ele>
        <time>2020-08-14T09:30:57Z</time>
      </trkpt>
      <trkpt lat="42.3876165971" lon="-7.8531872202">
        <ele>361.59</ele>
        <time>2020-08-14T09:31:05Z</time>
      </trkpt>
      <trkpt lat="42.3877209518" lon="-7.8531071730">
        <ele>362.07</ele>
        <time>2020-08-14T09:31:12Z</time>
      </trkpt>
      <trkpt lat="42.3877415713" lon="-7.8530940972">
        <ele>362.07</ele>
        <time>2020-08-14T09:31:18Z</time>
      </trkpt>
      <trkpt lat="42.3877517134" lon="-7.8530959412">
        <ele>361.59</ele>
        <time>2020-08-14T09:31:36Z</time>
      </trkpt>
      <trkpt lat="42.3877569102" lon="-7.8530944325">
        <ele>360.63</ele>
        <time>2020-08-14T09:31:49Z</time>
      </trkpt>
      <trkpt lat="42.3877540603" lon="-7.8530951031">
        <ele>360.63</ele>
        <time>2020-08-14T09:32:04Z</time>
      </trkpt>
      <trkpt lat="42.3877757695" lon="-7.8530840389">
        <ele>361.11</ele>
        <time>2020-08-14T09:32:07Z</time>
      </trkpt>
      <trkpt lat="42.3877861630" lon="-7.8530726396">
        <ele>361.11</ele>
        <time>2020-08-14T09:32:08Z</time>
      </trkpt>
      <trkpt lat="42.3878004123" lon="-7.8530572169">
        <ele>361.59</ele>
        <time>2020-08-14T09:32:09Z</time>
      </trkpt>
      <trkpt lat="42.3878153320" lon="-7.8530424647">
        <ele>361.59</ele>
        <time>2020-08-14T09:32:10Z</time>
      </trkpt>
      <trkpt lat="42.3878329340" lon="-7.8530267067">
        <ele>362.07</ele>
        <time>2020-08-14T09:32:11Z</time>
      </trkpt>
      <trkpt lat="42.3879507836" lon="-7.8529453184">
        <ele>363.52</ele>
        <time>2020-08-14T09:32:18Z</time>
      </trkpt>
      <trkpt lat="42.3880906776" lon="-7.8528335877">
        <ele>364.48</ele>
        <time>2020-08-14T09:32:26Z</time>
      </trkpt>
      <trkpt lat="42.3882617522" lon="-7.8527069371">
        <ele>364.96</ele>
        <time>2020-08-14T09:32:36Z</time>
      </trkpt>
      <trkpt lat="42.3884573858" lon="-7.8525551409">
        <ele>365.92</ele>
        <time>2020-08-14T09:32:47Z</time>
      </trkpt>
      <trkpt lat="42.3886548635" lon="-7.8524162527">
        <ele>366.88</ele>
        <time>2020-08-14T09:32:58Z</time>
      </trkpt>
      <trkpt lat="42.3888573702" lon="-7.8522881772">
        <ele>367.84</ele>
        <time>2020-08-14T09:33:09Z</time>
      </trkpt>
      <trkpt lat="42.3889830988" lon="-7.8522230498">
        <ele>367.36</ele>
        <time>2020-08-14T09:33:16Z</time>
      </trkpt>
      <trkpt lat="42.3891090788" lon="-7.8521765303">
        <ele>367.84</ele>
        <time>2020-08-14T09:33:23Z</time>
      </trkpt>
      <trkpt lat="42.3893314507" lon="-7.8521300945">
        <ele>368.80</ele>
        <time>2020-08-14T09:33:34Z</time>
      </trkpt>
      <trkpt lat="42.3895171937" lon="-7.8521016799">
        <ele>369.28</ele>
        <time>2020-08-14T09:33:44Z</time>
      </trkpt>
      <trkpt lat="42.3896673135" lon="-7.8520734329">
        <ele>370.24</ele>
        <time>2020-08-14T09:33:52Z</time>
      </trkpt>
      <trkpt lat="42.3898428306" lon="-7.8520553280">
        <ele>372.17</ele>
        <time>2020-08-14T09:34:01Z</time>
      </trkpt>
      <trkpt lat="42.3900846485" lon="-7.8520363849">
        <ele>376.01</ele>
        <time>2020-08-14T09:34:13Z</time>
      </trkpt>
      <trkpt lat="42.3902731575" lon="-7.8520007618">
        <ele>376.97</ele>
        <time>2020-08-14T09:34:22Z</time>
      </trkpt>
      <trkpt lat="42.3904968705" lon="-7.8519785497">
        <ele>376.97</ele>
        <time>2020-08-14T09:34:33Z</time>
      </trkpt>
      <trkpt lat="42.3907085136" lon="-7.8519549128">
        <ele>377.45</ele>
        <time>2020-08-14T09:34:44Z</time>
      </trkpt>
      <trkpt lat="42.3908779956" lon="-7.8519558348">
        <ele>376.97</ele>
        <time>2020-08-14T09:34:53Z</time>
      </trkpt>
      <trkpt lat="42.3910707794" lon="-7.8519229777">
        <ele>377.45</ele>
        <time>2020-08-14T09:35:03Z</time>
      </trkpt>
      <trkpt lat="42.3912623059" lon="-7.8519111592">
        <ele>377.94</ele>
        <time>2020-08-14T09:35:13Z</time>
      </trkpt>
      <trkpt lat="42.3914343864" lon="-7.8518900368">
        <ele>379.38</ele>
        <time>2020-08-14T09:35:22Z</time>
      </trkpt>
      <trkpt lat="42.3915976658" lon="-7.8518671542">
        <ele>379.38</ele>
        <time>2020-08-14T09:35:31Z</time>
      </trkpt>
      <trkpt lat="42.3917825706" lon="-7.8518510610">
        <ele>380.82</ele>
        <time>2020-08-14T09:35:41Z</time>
      </trkpt>
      <trkpt lat="42.3919853289" lon="-7.8518296033">
        <ele>382.74</ele>
        <time>2020-08-14T09:35:52Z</time>
      </trkpt>
      <trkpt lat="42.3921010830" lon="-7.8518109955">
        <ele>384.18</ele>
        <time>2020-08-14T09:35:59Z</time>
      </trkpt>
      <trkpt lat="42.3922771029" lon="-7.8518007696">
        <ele>385.63</ele>
        <time>2020-08-14T09:36:08Z</time>
      </trkpt>
      <trkpt lat="42.3924739938" lon="-7.8517798986">
        <ele>386.11</ele>
        <time>2020-08-14T09:36:18Z</time>
      </trkpt>
      <trkpt lat="42.3926912528" lon="-7.8517785575">
        <ele>387.55</ele>
        <time>2020-08-14T09:36:29Z</time>
      </trkpt>
      <trkpt lat="42.3928697873" lon="-7.8517604526">
        <ele>388.03</ele>
        <time>2020-08-14T09:36:38Z</time>
      </trkpt>
      <trkpt lat="42.3930585478" lon="-7.8517381568">
        <ele>389.47</ele>
        <time>2020-08-14T09:36:47Z</time>
      </trkpt>
      <trkpt lat="42.3932478111" lon="-7.8517089039">
        <ele>391.39</ele>
        <time>2020-08-14T09:36:56Z</time>
      </trkpt>
      <trkpt lat="42.3934944067" lon="-7.8516907990">
        <ele>391.87</ele>
        <time>2020-08-14T09:37:08Z</time>
      </trkpt>
      <trkpt lat="42.3936863523" lon="-7.8516612109">
        <ele>392.36</ele>
        <time>2020-08-14T09:37:17Z</time>
      </trkpt>
      <trkpt lat="42.3939444311" lon="-7.8516281862">
        <ele>393.32</ele>
        <time>2020-08-14T09:37:29Z</time>
      </trkpt>
      <trkpt lat="42.3941534758" lon="-7.8516129311">
        <ele>394.28</ele>
        <time>2020-08-14T09:37:39Z</time>
      </trkpt>
      <trkpt lat="42.3943445832" lon="-7.8515978437">
        <ele>394.76</ele>
        <time>2020-08-14T09:37:48Z</time>
      </trkpt>
      <trkpt lat="42.3945600819" lon="-7.8515838459">
        <ele>396.68</ele>
        <time>2020-08-14T09:37:58Z</time>
      </trkpt>
      <trkpt lat="42.3945986386" lon="-7.8515973408">
        <ele>396.68</ele>
        <time>2020-08-14T09:38:00Z</time>
      </trkpt>
      <trkpt lat="42.3946138099" lon="-7.8516144399">
        <ele>396.68</ele>
        <time>2020-08-14T09:38:01Z</time>
      </trkpt>
      <trkpt lat="42.3946235329" lon="-7.8516349755">
        <ele>396.68</ele>
        <time>2020-08-14T09:38:02Z</time>
      </trkpt>
      <trkpt lat="42.3946307413" lon="-7.8516645636">
        <ele>396.20</ele>
        <time>2020-08-14T09:38:03Z</time>
      </trkpt>
      <trkpt lat="42.3946300708" lon="-7.8516919725">
        <ele>396.20</ele>
        <time>2020-08-14T09:38:04Z</time>
      </trkpt>
      <trkpt lat="42.3946231976" lon="-7.8517105803">
        <ele>396.20</ele>
        <time>2020-08-14T09:38:05Z</time>
      </trkpt>
      <trkpt lat="42.3946112953" lon="-7.8517308645">
        <ele>396.68</ele>
        <time>2020-08-14T09:38:06Z</time>
      </trkpt>
      <trkpt lat="42.3945964593" lon="-7.8517471254">
        <ele>396.68</ele>
        <time>2020-08-14T09:38:07Z</time>
      </trkpt>
      <trkpt lat="42.3945802823" lon="-7.8517610393">
        <ele>396.68</ele>
        <time>2020-08-14T09:38:08Z</time>
      </trkpt>
      <trkpt lat="42.3945121374" lon="-7.8518115822">
        <ele>396.68</ele>
        <time>2020-08-14T09:38:12Z</time>
      </trkpt>
      <trkpt lat="42.3944923561" lon="-7.8518165275">
        <ele>397.16</ele>
        <time>2020-08-14T09:38:13Z</time>
      </trkpt>
      <trkpt lat="42.3944701441" lon="-7.8518243227">
        <ele>397.16</ele>
        <time>2020-08-14T09:38:14Z</time>
      </trkpt>
      <trkpt lat="42.3944531288" lon="-7.8518431820">
        <ele>397.16</ele>
        <time>2020-08-14T09:38:15Z</time>
      </trkpt>
      <trkpt lat="42.3944382928" lon="-7.8518653940">
        <ele>397.64</ele>
        <time>2020-08-14T09:38:16Z</time>
      </trkpt>
      <trkpt lat="42.3944219481" lon="-7.8518875223">
        <ele>398.12</ele>
        <time>2020-08-14T09:38:17Z</time>
      </trkpt>
      <trkpt lat="42.3944062740" lon="-7.8519057110">
        <ele>398.60</ele>
        <time>2020-08-14T09:38:18Z</time>
      </trkpt>
      <trkpt lat="42.3943886720" lon="-7.8519267496">
        <ele>399.08</ele>
        <time>2020-08-14T09:38:19Z</time>
      </trkpt>
      <trkpt lat="42.3942579981" lon="-7.8520560823">
        <ele>400.05</ele>
        <time>2020-08-14T09:38:27Z</time>
      </trkpt>
      <trkpt lat="42.3941451777" lon="-7.8521691542">
        <ele>400.53</ele>
        <time>2020-08-14T09:38:35Z</time>
      </trkpt>
      <trkpt lat="42.3939497117" lon="-7.8523253091">
        <ele>400.05</ele>
        <time>2020-08-14T09:38:44Z</time>
      </trkpt>
      <trkpt lat="42.3937221430" lon="-7.8524785303">
        <ele>400.53</ele>
        <time>2020-08-14T09:38:53Z</time>
      </trkpt>
      <trkpt lat="42.3934654891" lon="-7.8526522871">
        <ele>401.97</ele>
        <time>2020-08-14T09:39:03Z</time>
      </trkpt>
      <trkpt lat="42.3931586277" lon="-7.8528589010">
        <ele>403.89</ele>
        <time>2020-08-14T09:39:15Z</time>
      </trkpt>
      <trkpt lat="42.3930087592" lon="-7.8529642615">
        <ele>404.37</ele>
        <time>2020-08-14T09:39:23Z</time>
      </trkpt>
      <trkpt lat="42.3928368464" lon="-7.8530481644">
        <ele>404.85</ele>
        <time>2020-08-14T09:39:32Z</time>
      </trkpt>
      <trkpt lat="42.3927236907" lon="-7.8531008866">
        <ele>405.33</ele>
        <time>2020-08-14T09:39:39Z</time>
      </trkpt>
      <trkpt lat="42.3926212639" lon="-7.8531277087">
        <ele>404.85</ele>
        <time>2020-08-14T09:39:45Z</time>
      </trkpt>
      <trkpt lat="42.3924391251" lon="-7.8531920817">
        <ele>406.29</ele>
        <time>2020-08-14T09:39:55Z</time>
      </trkpt>
      <trkpt lat="42.3922402225" lon="-7.8532675188">
        <ele>407.74</ele>
        <time>2020-08-14T09:40:06Z</time>
      </trkpt>
      <trkpt lat="42.3920608498" lon="-7.8533680178">
        <ele>408.70</ele>
        <time>2020-08-14T09:40:16Z</time>
      </trkpt>
      <trkpt lat="42.3919283319" lon="-7.8535162937">
        <ele>408.70</ele>
        <time>2020-08-14T09:40:25Z</time>
      </trkpt>
      <trkpt lat="42.3918623663" lon="-7.8536061477">
        <ele>409.66</ele>
        <time>2020-08-14T09:40:32Z</time>
      </trkpt>
      <trkpt lat="42.3918361310" lon="-7.8536296170">
        <ele>409.66</ele>
        <time>2020-08-14T09:40:36Z</time>
      </trkpt>
      <trkpt lat="42.3917940538" lon="-7.8536805790">
        <ele>409.66</ele>
        <time>2020-08-14T09:40:40Z</time>
      </trkpt>
      <trkpt lat="42.3917819001" lon="-7.8536784835">
        <ele>409.66</ele>
        <time>2020-08-14T09:40:41Z</time>
      </trkpt>
      <trkpt lat="42.3917720933" lon="-7.8536630608">
        <ele>409.18</ele>
        <time>2020-08-14T09:40:48Z</time>
      </trkpt>
      <trkpt lat="42.3917699978" lon="-7.8536702693">
        <ele>409.18</ele>
        <time>2020-08-14T09:41:00Z</time>
      </trkpt>
      <trkpt lat="42.3917667288" lon="-7.8536806628">
        <ele>411.10</ele>
        <time>2020-08-14T09:41:13Z</time>
      </trkpt>
      <trkpt lat="42.3917743564" lon="-7.8536734544">
        <ele>411.10</ele>
        <time>2020-08-14T09:41:31Z</time>
      </trkpt>
      <trkpt lat="42.3917747755" lon="-7.8536580317">
        <ele>409.66</ele>
        <time>2020-08-14T09:41:43Z</time>
      </trkpt>
      <trkpt lat="42.3917846661" lon="-7.8536472190">
        <ele>409.66</ele>
        <time>2020-08-14T09:41:44Z</time>
      </trkpt>
      <trkpt lat="42.3918015976" lon="-7.8536529187">
        <ele>409.66</ele>
        <time>2020-08-14T09:41:46Z</time>
      </trkpt>
      <trkpt lat="42.3917803913" lon="-7.8537277691">
        <ele>409.18</ele>
        <time>2020-08-14T09:41:51Z</time>
      </trkpt>
      <trkpt lat="42.3917704169" lon="-7.8537409287">
        <ele>409.18</ele>
        <time>2020-08-14T09:41:52Z</time>
      </trkpt>
      <trkpt lat="42.3916472029" lon="-7.8539094049">
        <ele>409.18</ele>
        <time>2020-08-14T09:42:01Z</time>
      </trkpt>
      <trkpt lat="42.3915164452" lon="-7.8540695831">
        <ele>408.70</ele>
        <time>2020-08-14T09:42:09Z</time>
      </trkpt>
      <trkpt lat="42.3913786467" lon="-7.8541889414">
        <ele>409.66</ele>
        <time>2020-08-14T09:42:17Z</time>
      </trkpt>
      <trkpt lat="42.3912457936" lon="-7.8543191962">
        <ele>410.62</ele>
        <time>2020-08-14T09:42:25Z</time>
      </trkpt>
      <trkpt lat="42.3911360744" lon="-7.8544153366">
        <ele>411.10</ele>
        <time>2020-08-14T09:42:31Z</time>
      </trkpt>
      <trkpt lat="42.3909779917" lon="-7.8545139916">
        <ele>409.66</ele>
        <time>2020-08-14T09:42:39Z</time>
      </trkpt>
      <trkpt lat="42.3909187317" lon="-7.8545174282">
        <ele>409.18</ele>
        <time>2020-08-14T09:42:45Z</time>
      </trkpt>
      <trkpt lat="42.3909043986" lon="-7.8545138240">
        <ele>409.18</ele>
        <time>2020-08-14T09:42:46Z</time>
      </trkpt>
      <trkpt lat="42.3908858746" lon="-7.8545185179">
        <ele>409.18</ele>
        <time>2020-08-14T09:42:47Z</time>
      </trkpt>
      <trkpt lat="42.3908722121" lon="-7.8545221221">
        <ele>409.18</ele>
        <time>2020-08-14T09:42:48Z</time>
      </trkpt>
      <trkpt lat="42.3908568732" lon="-7.8545280732">
        <ele>409.18</ele>
        <time>2020-08-14T09:42:49Z</time>
      </trkpt>
      <trkpt lat="42.3908418696" lon="-7.8545408137">
        <ele>409.18</ele>
        <time>2020-08-14T09:42:50Z</time>
      </trkpt>
      <trkpt lat="42.3908272851" lon="-7.8545576613">
        <ele>408.70</ele>
        <time>2020-08-14T09:42:51Z</time>
      </trkpt>
      <trkpt lat="42.3908108566" lon="-7.8545761015">
        <ele>408.70</ele>
        <time>2020-08-14T09:42:52Z</time>
      </trkpt>
      <trkpt lat="42.3907945119" lon="-7.8545986488">
        <ele>408.22</ele>
        <time>2020-08-14T09:42:53Z</time>
      </trkpt>
      <trkpt lat="42.3907785863" lon="-7.8546248842">
        <ele>408.22</ele>
        <time>2020-08-14T09:42:54Z</time>
      </trkpt>
      <trkpt lat="42.3906298913" lon="-7.8548595775">
        <ele>405.81</ele>
        <time>2020-08-14T09:43:01Z</time>
      </trkpt>
      <trkpt lat="42.3906113673" lon="-7.8549032472">
        <ele>405.33</ele>
        <time>2020-08-14T09:43:02Z</time>
      </trkpt>
      <trkpt lat="42.3905978724" lon="-7.8549605794">
        <ele>404.85</ele>
        <time>2020-08-14T09:43:03Z</time>
      </trkpt>
      <trkpt lat="42.3905897420" lon="-7.8550090268">
        <ele>404.37</ele>
        <time>2020-08-14T09:43:04Z</time>
      </trkpt>
      <trkpt lat="42.3905706313" lon="-7.8553173970">
        <ele>402.93</ele>
        <time>2020-08-14T09:43:11Z</time>
      </trkpt>
      <trkpt lat="42.3905652668" lon="-7.8556321375">
        <ele>401.01</ele>
        <time>2020-08-14T09:43:18Z</time>
      </trkpt>
      <trkpt lat="42.3905725591" lon="-7.8556920681">
        <ele>401.01</ele>
        <time>2020-08-14T09:43:19Z</time>
      </trkpt>
      <trkpt lat="42.3905900773" lon="-7.8563422523">
        <ele>400.53</ele>
        <time>2020-08-14T09:43:29Z</time>
      </trkpt>
      <trkpt lat="42.3905786779" lon="-7.8564723395">
        <ele>400.05</ele>
        <time>2020-08-14T09:43:31Z</time>
      </trkpt>
      <trkpt lat="42.3905672785" lon="-7.8565360419">
        <ele>400.05</ele>
        <time>2020-08-14T09:43:32Z</time>
      </trkpt>
      <trkpt lat="42.3905159812" lon="-7.8568700608">
        <ele>400.05</ele>
        <time>2020-08-14T09:43:38Z</time>
      </trkpt>
      <trkpt lat="42.3905516043" lon="-7.8570832126">
        <ele>400.53</ele>
        <time>2020-08-14T09:43:45Z</time>
      </trkpt>
      <trkpt lat="42.3905910831" lon="-7.8573405370">
        <ele>400.53</ele>
        <time>2020-08-14T09:43:55Z</time>
      </trkpt>
      <trkpt lat="42.3905898258" lon="-7.8574429639">
        <ele>401.49</ele>
        <time>2020-08-14T09:44:02Z</time>
      </trkpt>
      <trkpt lat="42.3905523587" lon="-7.8576476499">
        <ele>403.41</ele>
        <time>2020-08-14T09:44:11Z</time>
      </trkpt>
      <trkpt lat="42.3904920090" lon="-7.8578375001">
        <ele>406.29</ele>
        <time>2020-08-14T09:44:19Z</time>
      </trkpt>
      <trkpt lat="42.3904394545" lon="-7.8580247518">
        <ele>409.18</ele>
        <time>2020-08-14T09:44:26Z</time>
      </trkpt>
      <trkpt lat="42.3903956171" lon="-7.8582393285">
        <ele>409.66</ele>
        <time>2020-08-14T09:44:34Z</time>
      </trkpt>
      <trkpt lat="42.3903579824" lon="-7.8586160112">
        <ele>408.70</ele>
        <time>2020-08-14T09:44:46Z</time>
      </trkpt>
      <trkpt lat="42.3903634306" lon="-7.8588676360">
        <ele>407.74</ele>
        <time>2020-08-14T09:44:55Z</time>
      </trkpt>
      <trkpt lat="42.3903492652" lon="-7.8590803687">
        <ele>407.74</ele>
        <time>2020-08-14T09:45:03Z</time>
      </trkpt>
      <trkpt lat="42.3903154023" lon="-7.8593427222">
        <ele>407.26</ele>
        <time>2020-08-14T09:45:12Z</time>
      </trkpt>
      <trkpt lat="42.3902791925" lon="-7.8595795110">
        <ele>406.29</ele>
        <time>2020-08-14T09:45:20Z</time>
      </trkpt>
      <trkpt lat="42.3902449105" lon="-7.8598432895">
        <ele>407.74</ele>
        <time>2020-08-14T09:45:29Z</time>
      </trkpt>
      <trkpt lat="42.3901719879" lon="-7.8601089120">
        <ele>411.10</ele>
        <time>2020-08-14T09:45:39Z</time>
      </trkpt>
      <trkpt lat="42.3901201040" lon="-7.8603055514">
        <ele>413.02</ele>
        <time>2020-08-14T09:45:47Z</time>
      </trkpt>
      <trkpt lat="42.3900603410" lon="-7.8604909591">
        <ele>414.95</ele>
        <time>2020-08-14T09:45:56Z</time>
      </trkpt>
      <trkpt lat="42.3900266457" lon="-7.8606181126">
        <ele>416.39</ele>
        <time>2020-08-14T09:46:02Z</time>
      </trkpt>
      <trkpt lat="42.3899739236" lon="-7.8607755248">
        <ele>417.83</ele>
        <time>2020-08-14T09:46:10Z</time>
      </trkpt>
      <trkpt lat="42.3899525497" lon="-7.8608502075">
        <ele>418.31</ele>
        <time>2020-08-14T09:46:17Z</time>
      </trkpt>
      <trkpt lat="42.3899130709" lon="-7.8609628603">
        <ele>419.27</ele>
        <time>2020-08-14T09:46:24Z</time>
      </trkpt>
      <trkpt lat="42.3898536433" lon="-7.8611025866">
        <ele>420.71</ele>
        <time>2020-08-14T09:46:31Z</time>
      </trkpt>
      <trkpt lat="42.3897529766" lon="-7.8612857312">
        <ele>422.16</ele>
        <time>2020-08-14T09:46:41Z</time>
      </trkpt>
      <trkpt lat="42.3896920402" lon="-7.8613866493">
        <ele>423.60</ele>
        <time>2020-08-14T09:46:48Z</time>
      </trkpt>
      <trkpt lat="42.3896111548" lon="-7.8615039121">
        <ele>425.04</ele>
        <time>2020-08-14T09:46:56Z</time>
      </trkpt>
      <trkpt lat="42.3895238992" lon="-7.8616068419">
        <ele>426.00</ele>
        <time>2020-08-14T09:47:05Z</time>
      </trkpt>
      <trkpt lat="42.3894244060" lon="-7.8617410362">
        <ele>427.44</ele>
        <time>2020-08-14T09:47:15Z</time>
      </trkpt>
      <trkpt lat="42.3893477954" lon="-7.8618802596">
        <ele>427.92</ele>
        <time>2020-08-14T09:47:24Z</time>
      </trkpt>
      <trkpt lat="42.3892948218" lon="-7.8620792460">
        <ele>428.89</ele>
        <time>2020-08-14T09:47:34Z</time>
      </trkpt>
      <trkpt lat="42.3892777227" lon="-7.8622921463">
        <ele>429.85</ele>
        <time>2020-08-14T09:47:43Z</time>
      </trkpt>
      <trkpt lat="42.3892683350" lon="-7.8625618760">
        <ele>430.33</ele>
        <time>2020-08-14T09:47:54Z</time>
      </trkpt>
      <trkpt lat="42.3892641440" lon="-7.8628185298">
        <ele>431.29</ele>
        <time>2020-08-14T09:48:05Z</time>
      </trkpt>
      <trkpt lat="42.3892616294" lon="-7.8630316816">
        <ele>432.25</ele>
        <time>2020-08-14T09:48:14Z</time>
      </trkpt>
      <trkpt lat="42.3892242461" lon="-7.8632939514">
        <ele>433.69</ele>
        <time>2020-08-14T09:48:25Z</time>
      </trkpt>
      <trkpt lat="42.3891867790" lon="-7.8634337615">
        <ele>434.65</ele>
        <time>2020-08-14T09:48:33Z</time>
      </trkpt>
      <trkpt lat="42.3891778942" lon="-7.8634293191">
        <ele>435.61</ele>
        <time>2020-08-14T09:48:43Z</time>
      </trkpt>
      <trkpt lat="42.3891854379" lon="-7.8634241223">
        <ele>435.13</ele>
        <time>2020-08-14T09:48:56Z</time>
      </trkpt>
      <trkpt lat="42.3891816661" lon="-7.8634267207">
        <ele>435.61</ele>
        <time>2020-08-14T09:49:07Z</time>
      </trkpt>
      <trkpt lat="42.3891835101" lon="-7.8634381201">
        <ele>435.61</ele>
        <time>2020-08-14T09:49:23Z</time>
      </trkpt>
      <trkpt lat="42.3891675845" lon="-7.8634714801">
        <ele>436.10</ele>
        <time>2020-08-14T09:49:27Z</time>
      </trkpt>
      <trkpt lat="42.3891592864" lon="-7.8634887468">
        <ele>436.58</ele>
        <time>2020-08-14T09:49:28Z</time>
      </trkpt>
      <trkpt lat="42.3891504854" lon="-7.8635128029">
        <ele>436.58</ele>
        <time>2020-08-14T09:49:29Z</time>
      </trkpt>
      <trkpt lat="42.3891420197" lon="-7.8635391220">
        <ele>436.58</ele>
        <time>2020-08-14T09:49:30Z</time>
      </trkpt>
      <trkpt lat="42.3891343083" lon="-7.8635668661">
        <ele>436.58</ele>
        <time>2020-08-14T09:49:31Z</time>
      </trkpt>
      <trkpt lat="42.3891267646" lon="-7.8635927662">
        <ele>436.58</ele>
        <time>2020-08-14T09:49:32Z</time>
      </trkpt>
      <trkpt lat="42.3891195562" lon="-7.8636180796">
        <ele>436.58</ele>
        <time>2020-08-14T09:49:33Z</time>
      </trkpt>
      <trkpt lat="42.3890791554" lon="-7.8638582211">
        <ele>436.10</ele>
        <time>2020-08-14T09:49:42Z</time>
      </trkpt>
      <trkpt lat="42.3891436961" lon="-7.8641056549">
        <ele>435.61</ele>
        <time>2020-08-14T09:49:49Z</time>
      </trkpt>
      <trkpt lat="42.3892997671" lon="-7.8643814195">
        <ele>435.13</ele>
        <time>2020-08-14T09:49:58Z</time>
      </trkpt>
      <trkpt lat="42.3894691654" lon="-7.8646705952">
        <ele>437.06</ele>
        <time>2020-08-14T09:50:09Z</time>
      </trkpt>
      <trkpt lat="42.3896207940" lon="-7.8649088927">
        <ele>437.54</ele>
        <time>2020-08-14T09:50:18Z</time>
      </trkpt>
      <trkpt lat="42.3897778708" lon="-7.8651854116">
        <ele>438.50</ele>
        <time>2020-08-14T09:50:28Z</time>
      </trkpt>
      <trkpt lat="42.3898580857" lon="-7.8654508665">
        <ele>438.98</ele>
        <time>2020-08-14T09:50:37Z</time>
      </trkpt>
      <trkpt lat="42.3897783738" lon="-7.8656443208">
        <ele>438.98</ele>
        <time>2020-08-14T09:50:43Z</time>
      </trkpt>
      <trkpt lat="42.3895032797" lon="-7.8659959417">
        <ele>438.98</ele>
        <time>2020-08-14T09:50:56Z</time>
      </trkpt>
      <trkpt lat="42.3893589433" lon="-7.8662709519">
        <ele>438.98</ele>
        <time>2020-08-14T09:51:04Z</time>
      </trkpt>
      <trkpt lat="42.3892998509" lon="-7.8664949164">
        <ele>437.54</ele>
        <time>2020-08-14T09:51:10Z</time>
      </trkpt>
      <trkpt lat="42.3891690094" lon="-7.8668910451">
        <ele>435.61</ele>
        <time>2020-08-14T09:51:19Z</time>
      </trkpt>
      <trkpt lat="42.3889634851" lon="-7.8674118128">
        <ele>435.13</ele>
        <time>2020-08-14T09:51:28Z</time>
      </trkpt>
      <trkpt lat="42.3887817655" lon="-7.8678133897">
        <ele>436.10</ele>
        <time>2020-08-14T09:51:36Z</time>
      </trkpt>
      <trkpt lat="42.3886919115" lon="-7.8679925948">
        <ele>437.54</ele>
        <time>2020-08-14T09:51:44Z</time>
      </trkpt>
      <trkpt lat="42.3886794224" lon="-7.8680202551">
        <ele>438.02</ele>
        <time>2020-08-14T09:51:46Z</time>
      </trkpt>
      <trkpt lat="42.3886657599" lon="-7.8680234402">
        <ele>438.02</ele>
        <time>2020-08-14T09:51:47Z</time>
      </trkpt>
      <trkpt lat="42.3886468168" lon="-7.8680270445">
        <ele>437.54</ele>
        <time>2020-08-14T09:51:48Z</time>
      </trkpt>
      <trkpt lat="42.3886220902" lon="-7.8680288047">
        <ele>437.54</ele>
        <time>2020-08-14T09:51:49Z</time>
      </trkpt>
      <trkpt lat="42.3885985371" lon="-7.8680285532">
        <ele>437.54</ele>
        <time>2020-08-14T09:51:50Z</time>
      </trkpt>
      <trkpt lat="42.3884083517" lon="-7.8680179920">
        <ele>435.61</ele>
        <time>2020-08-14T09:51:56Z</time>
      </trkpt>
      <trkpt lat="42.3882188369" lon="-7.8679214325">
        <ele>434.65</ele>
        <time>2020-08-14T09:52:03Z</time>
      </trkpt>
      <trkpt lat="42.3880109657" lon="-7.8677900881">
        <ele>434.65</ele>
        <time>2020-08-14T09:52:11Z</time>
      </trkpt>
      <trkpt lat="42.3878375441" lon="-7.8676995635">
        <ele>434.65</ele>
        <time>2020-08-14T09:52:19Z</time>
      </trkpt>
      <trkpt lat="42.3877031822" lon="-7.8677479271">
        <ele>434.65</ele>
        <time>2020-08-14T09:52:25Z</time>
      </trkpt>
      <trkpt lat="42.3875456862" lon="-7.8678387031">
        <ele>436.58</ele>
        <time>2020-08-14T09:52:32Z</time>
      </trkpt>
      <trkpt lat="42.3874701653" lon="-7.8680772521">
        <ele>437.54</ele>
        <time>2020-08-14T09:52:39Z</time>
      </trkpt>
      <trkpt lat="42.3874018528" lon="-7.8683063295">
        <ele>436.58</ele>
        <time>2020-08-14T09:52:46Z</time>
      </trkpt>
      <trkpt lat="42.3873512261" lon="-7.8685942478">
        <ele>437.54</ele>
        <time>2020-08-14T09:52:54Z</time>
      </trkpt>
      <trkpt lat="42.3873790540" lon="-7.8689246625">
        <ele>437.54</ele>
        <time>2020-08-14T09:53:04Z</time>
      </trkpt>
      <trkpt lat="42.3873981647" lon="-7.8692822345">
        <ele>437.06</ele>
        <time>2020-08-14T09:53:12Z</time>
      </trkpt>
      <trkpt lat="42.3874033615" lon="-7.8693331126">
        <ele>436.58</ele>
        <time>2020-08-14T09:53:13Z</time>
      </trkpt>
      <trkpt lat="42.3874238133" lon="-7.8694489505">
        <ele>436.10</ele>
        <time>2020-08-14T09:53:15Z</time>
      </trkpt>
      <trkpt lat="42.3875593487" lon="-7.8699498530">
        <ele>432.73</ele>
        <time>2020-08-14T09:53:22Z</time>
      </trkpt>
      <trkpt lat="42.3876670562" lon="-7.8702288866">
        <ele>431.29</ele>
        <time>2020-08-14T09:53:27Z</time>
      </trkpt>
      <trkpt lat="42.3876834009" lon="-7.8702543676">
        <ele>431.29</ele>
        <time>2020-08-14T09:53:33Z</time>
      </trkpt>
      <trkpt lat="42.3876763601" lon="-7.8702518530">
        <ele>433.69</ele>
        <time>2020-08-14T09:53:55Z</time>
      </trkpt>
      <trkpt lat="42.3876913637" lon="-7.8702964447">
        <ele>435.13</ele>
        <time>2020-08-14T09:54:16Z</time>
      </trkpt>
      <trkpt lat="42.3876995780" lon="-7.8703299724">
        <ele>435.61</ele>
        <time>2020-08-14T09:54:24Z</time>
      </trkpt>
      <trkpt lat="42.3877783678" lon="-7.8704650048">
        <ele>434.65</ele>
        <time>2020-08-14T09:54:31Z</time>
      </trkpt>
      <trkpt lat="42.3878756817" lon="-7.8706420306">
        <ele>435.61</ele>
        <time>2020-08-14T09:54:41Z</time>
      </trkpt>
      <trkpt lat="42.3879097961" lon="-7.8706899751">
        <ele>436.10</ele>
        <time>2020-08-14T09:54:48Z</time>
      </trkpt>
      <trkpt lat="42.3879920226" lon="-7.8708178829">
        <ele>436.58</ele>
        <time>2020-08-14T09:54:53Z</time>
      </trkpt>
      <trkpt lat="42.3881216068" lon="-7.8710136004">
        <ele>436.10</ele>
        <time>2020-08-14T09:55:01Z</time>
      </trkpt>
      <trkpt lat="42.3882782646" lon="-7.8712266684">
        <ele>435.61</ele>
        <time>2020-08-14T09:55:08Z</time>
      </trkpt>
      <trkpt lat="42.3885632493" lon="-7.8715825640">
        <ele>433.21</ele>
        <time>2020-08-14T09:55:15Z</time>
      </trkpt>
      <trkpt lat="42.3888508324" lon="-7.8719160799">
        <ele>432.25</ele>
        <time>2020-08-14T09:55:21Z</time>
      </trkpt>
      <trkpt lat="42.3890801612" lon="-7.8723116219">
        <ele>432.25</ele>
        <time>2020-08-14T09:55:28Z</time>
      </trkpt>
      <trkpt lat="42.3891889583" lon="-7.8725638334">
        <ele>432.25</ele>
        <time>2020-08-14T09:55:34Z</time>
      </trkpt>
      <trkpt lat="42.3892365675" lon="-7.8728539310">
        <ele>433.21</ele>
        <time>2020-08-14T09:55:42Z</time>
      </trkpt>
      <trkpt lat="42.3891970888" lon="-7.8731019516">
        <ele>435.13</ele>
        <time>2020-08-14T09:55:49Z</time>
      </trkpt>
      <trkpt lat="42.3891289439" lon="-7.8734794725">
        <ele>435.61</ele>
        <time>2020-08-14T09:55:59Z</time>
      </trkpt>
      <trkpt lat="42.3891349789" lon="-7.8735629562">
        <ele>436.10</ele>
        <time>2020-08-14T09:56:02Z</time>
      </trkpt>
      <trkpt lat="42.3891515750" lon="-7.8735731822">
        <ele>436.10</ele>
        <time>2020-08-14T09:56:03Z</time>
      </trkpt>
      <trkpt lat="42.3891757149" lon="-7.8735744394">
        <ele>436.10</ele>
        <time>2020-08-14T09:56:04Z</time>
      </trkpt>
      <trkpt lat="42.3891966697" lon="-7.8735698294">
        <ele>436.10</ele>
        <time>2020-08-14T09:56:05Z</time>
      </trkpt>
      <trkpt lat="42.3892208934" lon="-7.8735632915">
        <ele>436.10</ele>
        <time>2020-08-14T09:56:06Z</time>
      </trkpt>
      <trkpt lat="42.3894446902" lon="-7.8734820709">
        <ele>437.06</ele>
        <time>2020-08-14T09:56:14Z</time>
      </trkpt>
      <trkpt lat="42.3897740152" lon="-7.8733454458">
        <ele>437.06</ele>
        <time>2020-08-14T09:56:24Z</time>
      </trkpt>
      <trkpt lat="42.3901731614" lon="-7.8731891233">
        <ele>437.06</ele>
        <time>2020-08-14T09:56:35Z</time>
      </trkpt>
      <trkpt lat="42.3906246107" lon="-7.8730652388">
        <ele>436.58</ele>
        <time>2020-08-14T09:56:47Z</time>
      </trkpt>
      <trkpt lat="42.3909658380" lon="-7.8731147759">
        <ele>435.61</ele>
        <time>2020-08-14T09:56:55Z</time>
      </trkpt>
      <trkpt lat="42.3911323864" lon="-7.8731114231">
        <ele>434.65</ele>
        <time>2020-08-14T09:57:00Z</time>
      </trkpt>
      <trkpt lat="42.3911778163" lon="-7.8731114231">
        <ele>435.13</ele>
        <time>2020-08-14T09:57:05Z</time>
      </trkpt>
      <trkpt lat="42.3912026267" lon="-7.8731105011">
        <ele>434.65</ele>
        <time>2020-08-14T09:57:17Z</time>
      </trkpt>
      <trkpt lat="42.3913471308" lon="-7.8730606288">
        <ele>433.69</ele>
        <time>2020-08-14T09:57:24Z</time>
      </trkpt>
      <trkpt lat="42.3915644735" lon="-7.8729846887">
        <ele>432.73</ele>
        <time>2020-08-14T09:57:31Z</time>
      </trkpt>
      <trkpt lat="42.3917862587" lon="-7.8729400970">
        <ele>432.73</ele>
        <time>2020-08-14T09:57:39Z</time>
      </trkpt>
      <trkpt lat="42.3918781243" lon="-7.8729224950">
        <ele>432.73</ele>
        <time>2020-08-14T09:57:45Z</time>
      </trkpt>
      <trkpt lat="42.3918950558" lon="-7.8729201481">
        <ele>434.17</ele>
        <time>2020-08-14T09:57:54Z</time>
      </trkpt>
      <trkpt lat="42.3919269908" lon="-7.8728933260">
        <ele>432.73</ele>
        <time>2020-08-14T09:58:01Z</time>
      </trkpt>
      <trkpt lat="42.3919921182" lon="-7.8729351517">
        <ele>438.02</ele>
        <time>2020-08-14T09:58:22Z</time>
      </trkpt>
      <trkpt lat="42.3919790424" lon="-7.8729535919">
        <ele>438.50</ele>
        <time>2020-08-14T09:58:39Z</time>
      </trkpt>
      <trkpt lat="42.3919711635" lon="-7.8729716968">
        <ele>435.61</ele>
        <time>2020-08-14T09:59:00Z</time>
      </trkpt>
      <trkpt lat="42.3919804674" lon="-7.8729720321">
        <ele>431.77</ele>
        <time>2020-08-14T09:59:25Z</time>
      </trkpt>
      <trkpt lat="42.3919637874" lon="-7.8729741275">
        <ele>433.21</ele>
        <time>2020-08-14T09:59:29Z</time>
      </trkpt>
      <trkpt lat="42.3919033539" lon="-7.8729578666">
        <ele>434.65</ele>
        <time>2020-08-14T09:59:37Z</time>
      </trkpt>
      <trkpt lat="42.3919085506" lon="-7.8729518317">
        <ele>435.13</ele>
        <time>2020-08-14T09:59:40Z</time>
      </trkpt>
      <trkpt lat="42.3919114843" lon="-7.8729578666">
        <ele>435.61</ele>
        <time>2020-08-14T09:59:46Z</time>
      </trkpt>
      <trkpt lat="42.3919197824" lon="-7.8729598783">
        <ele>436.58</ele>
        <time>2020-08-14T09:59:51Z</time>
      </trkpt>
      <trkpt lat="42.3920911923" lon="-7.8729330562">
        <ele>437.06</ele>
        <time>2020-08-14T09:59:59Z</time>
      </trkpt>
      <trkpt lat="42.3922524601" lon="-7.8729195613">
        <ele>439.46</ele>
        <time>2020-08-14T10:00:05Z</time>
      </trkpt>
      <trkpt lat="42.3922985606" lon="-7.8729103412">
        <ele>440.90</ele>
        <time>2020-08-14T10:00:10Z</time>
      </trkpt>
      <trkpt lat="42.3922617640" lon="-7.8729022946">
        <ele>439.94</ele>
        <time>2020-08-14T10:00:16Z</time>
      </trkpt>
      <trkpt lat="42.3922486883" lon="-7.8729038034">
        <ele>439.94</ele>
        <time>2020-08-14T10:00:17Z</time>
      </trkpt>
      <trkpt lat="42.3920991551" lon="-7.8729146998">
        <ele>439.94</ele>
        <time>2020-08-14T10:00:23Z</time>
      </trkpt>
      <trkpt lat="42.3920073733" lon="-7.8729131073">
        <ele>439.46</ele>
        <time>2020-08-14T10:00:29Z</time>
      </trkpt>
      <trkpt lat="42.3919968959" lon="-7.8729369957">
        <ele>440.42</ele>
        <time>2020-08-14T10:00:43Z</time>
      </trkpt>
      <trkpt lat="42.3919942975" lon="-7.8729493171">
        <ele>439.94</ele>
        <time>2020-08-14T10:00:49Z</time>
      </trkpt>
      <trkpt lat="42.3920137435" lon="-7.8729373310">
        <ele>439.46</ele>
        <time>2020-08-14T10:00:51Z</time>
      </trkpt>
      <trkpt lat="42.3920305073" lon="-7.8729327209">
        <ele>438.98</ele>
        <time>2020-08-14T10:00:52Z</time>
      </trkpt>
      <trkpt lat="42.3920414876" lon="-7.8729305416">
        <ele>438.98</ele>
        <time>2020-08-14T10:00:53Z</time>
      </trkpt>
      <trkpt lat="42.3920559883" lon="-7.8729281109">
        <ele>439.46</ele>
        <time>2020-08-14T10:00:54Z</time>
      </trkpt>
      <trkpt lat="42.3920764402" lon="-7.8729297034">
        <ele>439.94</ele>
        <time>2020-08-14T10:00:55Z</time>
      </trkpt>
      <trkpt lat="42.3922218662" lon="-7.8729126882">
        <ele>441.38</ele>
        <time>2020-08-14T10:01:01Z</time>
      </trkpt>
      <trkpt lat="42.3923625145" lon="-7.8729094192">
        <ele>442.82</ele>
        <time>2020-08-14T10:01:08Z</time>
      </trkpt>
      <trkpt lat="42.3924982175" lon="-7.8729100060">
        <ele>445.23</ele>
        <time>2020-08-14T10:01:16Z</time>
      </trkpt>
      <trkpt lat="42.3926793505" lon="-7.8729377501">
        <ele>446.67</ele>
        <time>2020-08-14T10:01:24Z</time>
      </trkpt>
      <trkpt lat="42.3928929213" lon="-7.8729664162">
        <ele>443.79</ele>
        <time>2020-08-14T10:01:34Z</time>
      </trkpt>
      <trkpt lat="42.3930940032" lon="-7.8729876224">
        <ele>440.90</ele>
        <time>2020-08-14T10:01:43Z</time>
      </trkpt>
      <trkpt lat="42.3931333981" lon="-7.8730056435">
        <ele>438.98</ele>
        <time>2020-08-14T10:01:52Z</time>
      </trkpt>
      <trkpt lat="42.3931795824" lon="-7.8730101697">
        <ele>438.02</ele>
        <time>2020-08-14T10:01:59Z</time>
      </trkpt>
      <trkpt lat="42.3932185583" lon="-7.8729980160">
        <ele>437.54</ele>
        <time>2020-08-14T10:02:06Z</time>
      </trkpt>
      <trkpt lat="42.3932157084" lon="-7.8730053920">
        <ele>437.54</ele>
        <time>2020-08-14T10:02:19Z</time>
      </trkpt>
      <trkpt lat="42.3933410179" lon="-7.8730152827">
        <ele>437.06</ele>
        <time>2020-08-14T10:02:29Z</time>
      </trkpt>
      <trkpt lat="42.3934779782" lon="-7.8730203118">
        <ele>436.10</ele>
        <time>2020-08-14T10:02:39Z</time>
      </trkpt>
      <trkpt lat="42.3936221469" lon="-7.8730228264">
        <ele>436.58</ele>
        <time>2020-08-14T10:02:50Z</time>
      </trkpt>
      <trkpt lat="42.3937404156" lon="-7.8730291966">
        <ele>437.54</ele>
        <time>2020-08-14T10:03:00Z</time>
      </trkpt>
      <trkpt lat="42.3938297667" lon="-7.8730657417">
        <ele>438.98</ele>
        <time>2020-08-14T10:03:08Z</time>
      </trkpt>
      <trkpt lat="42.3938861769" lon="-7.8730654065">
        <ele>439.94</ele>
        <time>2020-08-14T10:03:17Z</time>
      </trkpt>
      <trkpt lat="42.3939118255" lon="-7.8730736207">
        <ele>438.50</ele>
        <time>2020-08-14T10:03:32Z</time>
      </trkpt>
      <trkpt lat="42.3940067086" lon="-7.8730857745">
        <ele>439.94</ele>
        <time>2020-08-14T10:03:41Z</time>
      </trkpt>
      <trkpt lat="42.3941102251" lon="-7.8730956651">
        <ele>441.38</ele>
        <time>2020-08-14T10:03:50Z</time>
      </trkpt>
      <trkpt lat="42.3941818066" lon="-7.8730748780">
        <ele>441.86</ele>
        <time>2020-08-14T10:03:58Z</time>
      </trkpt>
      <trkpt lat="42.3942077905" lon="-7.8730634786">
        <ele>442.34</ele>
        <time>2020-08-14T10:04:05Z</time>
      </trkpt>
      <trkpt lat="42.3942719121" lon="-7.8730518278">
        <ele>443.31</ele>
        <time>2020-08-14T10:04:13Z</time>
      </trkpt>
      <trkpt lat="42.3943359498" lon="-7.8730242513">
        <ele>443.79</ele>
        <time>2020-08-14T10:04:21Z</time>
      </trkpt>
      <trkpt lat="42.3943455052" lon="-7.8730241675">
        <ele>444.27</ele>
        <time>2020-08-14T10:04:22Z</time>
      </trkpt>
      <trkpt lat="42.3943556473" lon="-7.8730247542">
        <ele>444.27</ele>
        <time>2020-08-14T10:04:23Z</time>
      </trkpt>
      <trkpt lat="42.3944387119" lon="-7.8729846887">
        <ele>445.23</ele>
        <time>2020-08-14T10:04:33Z</time>
      </trkpt>
      <trkpt lat="42.3945215251" lon="-7.8729231656">
        <ele>446.19</ele>
        <time>2020-08-14T10:04:43Z</time>
      </trkpt>
      <trkpt lat="42.3946247902" lon="-7.8728670068">
        <ele>446.67</ele>
        <time>2020-08-14T10:04:53Z</time>
      </trkpt>
      <trkpt lat="42.3947485909" lon="-7.8728085011">
        <ele>447.63</ele>
        <time>2020-08-14T10:05:05Z</time>
      </trkpt>
      <trkpt lat="42.3948381934" lon="-7.8727718722">
        <ele>449.55</ele>
        <time>2020-08-14T10:05:14Z</time>
      </trkpt>
      <trkpt lat="42.3949088529" lon="-7.8727640770">
        <ele>451.00</ele>
        <time>2020-08-14T10:05:22Z</time>
      </trkpt>
      <trkpt lat="42.3950285465" lon="-7.8727458045">
        <ele>451.48</ele>
        <time>2020-08-14T10:05:32Z</time>
      </trkpt>
      <trkpt lat="42.3951283749" lon="-7.8727063257">
        <ele>451.00</ele>
        <time>2020-08-14T10:05:41Z</time>
      </trkpt>
      <trkpt lat="42.3952133674" lon="-7.8726505861">
        <ele>452.92</ele>
        <time>2020-08-14T10:05:50Z</time>
      </trkpt>
      <trkpt lat="42.3953139503" lon="-7.8726054076">
        <ele>454.36</ele>
        <time>2020-08-14T10:06:00Z</time>
      </trkpt>
      <trkpt lat="42.3954157904" lon="-7.8725530207">
        <ele>455.80</ele>
        <time>2020-08-14T10:06:10Z</time>
      </trkpt>
      <trkpt lat="42.3955045547" lon="-7.8725774959">
        <ele>458.21</ele>
        <time>2020-08-14T10:06:19Z</time>
      </trkpt>
      <trkpt lat="42.3955485597" lon="-7.8725969419">
        <ele>458.21</ele>
        <time>2020-08-14T10:06:27Z</time>
      </trkpt>
      <trkpt lat="42.3955856077" lon="-7.8726096824">
        <ele>459.17</ele>
        <time>2020-08-14T10:06:35Z</time>
      </trkpt>
      <trkpt lat="42.3956814129" lon="-7.8726210818">
        <ele>459.17</ele>
        <time>2020-08-14T10:06:44Z</time>
      </trkpt>
      <trkpt lat="42.3956890404" lon="-7.8726262785">
        <ele>459.17</ele>
        <time>2020-08-14T10:06:51Z</time>
      </trkpt>
      <trkpt lat="42.3956806585" lon="-7.8726215009">
        <ele>459.17</ele>
        <time>2020-08-14T10:07:03Z</time>
      </trkpt>
      <trkpt lat="42.3956869449" lon="-7.8726230934">
        <ele>459.17</ele>
        <time>2020-08-14T10:07:07Z</time>
      </trkpt>
      <trkpt lat="42.3957012780" lon="-7.8726293799">
        <ele>459.17</ele>
        <time>2020-08-14T10:07:08Z</time>
      </trkpt>
      <trkpt lat="42.3958602827" lon="-7.8726716246">
        <ele>459.17</ele>
        <time>2020-08-14T10:07:16Z</time>
      </trkpt>
      <trkpt lat="42.3959519807" lon="-7.8726937529">
        <ele>459.17</ele>
        <time>2020-08-14T10:07:20Z</time>
      </trkpt>
      <trkpt lat="42.3959759530" lon="-7.8726932500">
        <ele>459.17</ele>
        <time>2020-08-14T10:07:21Z</time>
      </trkpt>
      <trkpt lat="42.3960026912" lon="-7.8726870473">
        <ele>459.17</ele>
        <time>2020-08-14T10:07:22Z</time>
      </trkpt>
      <trkpt lat="42.3960267473" lon="-7.8726777434">
        <ele>459.17</ele>
        <time>2020-08-14T10:07:23Z</time>
      </trkpt>
      <trkpt lat="42.3960517254" lon="-7.8726665955">
        <ele>459.65</ele>
        <time>2020-08-14T10:07:24Z</time>
      </trkpt>
      <trkpt lat="42.3962079640" lon="-7.8726453893">
        <ele>459.65</ele>
        <time>2020-08-14T10:07:31Z</time>
      </trkpt>
      <trkpt lat="42.3964140750" lon="-7.8726400249">
        <ele>461.57</ele>
        <time>2020-08-14T10:07:40Z</time>
      </trkpt>
      <trkpt lat="42.3965771031" lon="-7.8726225905">
        <ele>463.01</ele>
        <time>2020-08-14T10:07:49Z</time>
      </trkpt>
      <trkpt lat="42.3967547994" lon="-7.8726263624">
        <ele>463.49</ele>
        <time>2020-08-14T10:07:59Z</time>
      </trkpt>
      <trkpt lat="42.3968645185" lon="-7.8726484906">
        <ele>464.93</ele>
        <time>2020-08-14T10:08:06Z</time>
      </trkpt>
      <trkpt lat="42.3970169015" lon="-7.8726406116">
        <ele>466.38</ele>
        <time>2020-08-14T10:08:15Z</time>
      </trkpt>
      <trkpt lat="42.3971800134" lon="-7.8726533521">
        <ele>469.26</ele>
        <time>2020-08-14T10:08:26Z</time>
      </trkpt>
      <trkpt lat="42.3972473200" lon="-7.8726646677">
        <ele>470.22</ele>
        <time>2020-08-14T10:08:31Z</time>
      </trkpt>
      <trkpt lat="42.3972601444" lon="-7.8726717923">
        <ele>470.22</ele>
        <time>2020-08-14T10:08:32Z</time>
      </trkpt>
      <trkpt lat="42.3972750641" lon="-7.8726750612">
        <ele>470.22</ele>
        <time>2020-08-14T10:08:33Z</time>
      </trkpt>
      <trkpt lat="42.3972893972" lon="-7.8726739716">
        <ele>470.22</ele>
        <time>2020-08-14T10:08:34Z</time>
      </trkpt>
      <trkpt lat="42.3973036464" lon="-7.8726744745">
        <ele>470.22</ele>
        <time>2020-08-14T10:08:35Z</time>
      </trkpt>
      <trkpt lat="42.3973158002" lon="-7.8726758994">
        <ele>470.22</ele>
        <time>2020-08-14T10:08:36Z</time>
      </trkpt>
      <trkpt lat="42.3973793350" lon="-7.8727172222">
        <ele>471.66</ele>
        <time>2020-08-14T10:08:41Z</time>
      </trkpt>
      <trkpt lat="42.3974126950" lon="-7.8727821819">
        <ele>471.66</ele>
        <time>2020-08-14T10:08:45Z</time>
      </trkpt>
      <trkpt lat="42.3974134494" lon="-7.8727998678">
        <ele>471.66</ele>
        <time>2020-08-14T10:08:46Z</time>
      </trkpt>
      <trkpt lat="42.3974132817" lon="-7.8728180565">
        <ele>471.66</ele>
        <time>2020-08-14T10:08:47Z</time>
      </trkpt>
      <trkpt lat="42.3974162992" lon="-7.8728388436">
        <ele>471.66</ele>
        <time>2020-08-14T10:08:48Z</time>
      </trkpt>
      <trkpt lat="42.3974222504" lon="-7.8728596307">
        <ele>471.66</ele>
        <time>2020-08-14T10:08:49Z</time>
      </trkpt>
      <trkpt lat="42.3974254355" lon="-7.8728812560">
        <ele>471.66</ele>
        <time>2020-08-14T10:08:50Z</time>
      </trkpt>
      <trkpt lat="42.3974303808" lon="-7.8730643168">
        <ele>473.11</ele>
        <time>2020-08-14T10:08:59Z</time>
      </trkpt>
      <trkpt lat="42.3974331468" lon="-7.8732094076">
        <ele>474.07</ele>
        <time>2020-08-14T10:09:07Z</time>
      </trkpt>
      <trkpt lat="42.3974474799" lon="-7.8733629640">
        <ele>475.03</ele>
        <time>2020-08-14T10:09:16Z</time>
      </trkpt>
      <trkpt lat="42.3974624835" lon="-7.8735337034">
        <ele>476.47</ele>
        <time>2020-08-14T10:09:25Z</time>
      </trkpt>
      <trkpt lat="42.3975082487" lon="-7.8736841585">
        <ele>477.43</ele>
        <time>2020-08-14T10:09:33Z</time>
      </trkpt>
      <trkpt lat="42.3976126034" lon="-7.8738526348">
        <ele>478.87</ele>
        <time>2020-08-14T10:09:43Z</time>
      </trkpt>
      <trkpt lat="42.3977145273" lon="-7.8739941213">
        <ele>479.84</ele>
        <time>2020-08-14T10:09:52Z</time>
      </trkpt>
      <trkpt lat="42.3978092428" lon="-7.8741722368">
        <ele>480.80</ele>
        <time>2020-08-14T10:10:01Z</time>
      </trkpt>
      <trkpt lat="42.3978549242" lon="-7.8743999731">
        <ele>481.28</ele>
        <time>2020-08-14T10:10:10Z</time>
      </trkpt>
      <trkpt lat="42.3978955764" lon="-7.8745714668">
        <ele>482.24</ele>
        <time>2020-08-14T10:10:17Z</time>
      </trkpt>
      <trkpt lat="42.3979789764" lon="-7.8747916594">
        <ele>483.20</ele>
        <time>2020-08-14T10:10:27Z</time>
      </trkpt>
      <trkpt lat="42.3980581854" lon="-7.8749395162">
        <ele>484.16</ele>
        <time>2020-08-14T10:10:34Z</time>
      </trkpt>
      <trkpt lat="42.3981264979" lon="-7.8750861157">
        <ele>484.64</ele>
        <time>2020-08-14T10:10:42Z</time>
      </trkpt>
      <trkpt lat="42.3981309403" lon="-7.8751015384">
        <ele>484.64</ele>
        <time>2020-08-14T10:10:43Z</time>
      </trkpt>
      <trkpt lat="42.3981350474" lon="-7.8751140274">
        <ele>484.64</ele>
        <time>2020-08-14T10:10:49Z</time>
      </trkpt>
      <trkpt lat="42.3981325328" lon="-7.8751150332">
        <ele>484.16</ele>
        <time>2020-08-14T10:11:09Z</time>
      </trkpt>
      <trkpt lat="42.3981330357" lon="-7.8751264326">
        <ele>485.12</ele>
        <time>2020-08-14T10:11:24Z</time>
      </trkpt>
      <trkpt lat="42.3981341254" lon="-7.8751305398">
        <ele>484.64</ele>
        <time>2020-08-14T10:11:31Z</time>
      </trkpt>
      <trkpt lat="42.3981321976" lon="-7.8751283605">
        <ele>485.12</ele>
        <time>2020-08-14T10:11:44Z</time>
      </trkpt>
      <trkpt lat="42.3981348798" lon="-7.8751276899">
        <ele>485.12</ele>
        <time>2020-08-14T10:12:06Z</time>
      </trkpt>
      <trkpt lat="42.3981444351" lon="-7.8751126025">
        <ele>484.64</ele>
        <time>2020-08-14T10:12:25Z</time>
      </trkpt>
      <trkpt lat="42.3981525656" lon="-7.8751266841">
        <ele>484.64</ele>
        <time>2020-08-14T10:12:29Z</time>
      </trkpt>
      <trkpt lat="42.3981648870" lon="-7.8751269355">
        <ele>484.64</ele>
        <time>2020-08-14T10:12:30Z</time>
      </trkpt>
      <trkpt lat="42.3981760349" lon="-7.8751270194">
        <ele>484.64</ele>
        <time>2020-08-14T10:12:31Z</time>
      </trkpt>
      <trkpt lat="42.3981873505" lon="-7.8751312941">
        <ele>485.12</ele>
        <time>2020-08-14T10:12:32Z</time>
      </trkpt>
      <trkpt lat="42.3981954809" lon="-7.8751412686">
        <ele>485.12</ele>
        <time>2020-08-14T10:12:33Z</time>
      </trkpt>
      <trkpt lat="42.3982034437" lon="-7.8751541767">
        <ele>485.12</ele>
        <time>2020-08-14T10:12:34Z</time>
      </trkpt>
      <trkpt lat="42.3982938845" lon="-7.8752435278">
        <ele>485.60</ele>
        <time>2020-08-14T10:12:41Z</time>
      </trkpt>
      <trkpt lat="42.3983892705" lon="-7.8753446136">
        <ele>485.12</ele>
        <time>2020-08-14T10:12:48Z</time>
      </trkpt>
      <trkpt lat="42.3985655420" lon="-7.8755302727">
        <ele>484.64</ele>
        <time>2020-08-14T10:12:59Z</time>
      </trkpt>
      <trkpt lat="42.3987128120" lon="-7.8756995033">
        <ele>484.16</ele>
        <time>2020-08-14T10:13:07Z</time>
      </trkpt>
      <trkpt lat="42.3989245389" lon="-7.8759588394">
        <ele>483.68</ele>
        <time>2020-08-14T10:13:17Z</time>
      </trkpt>
      <trkpt lat="42.3991265427" lon="-7.8762405552">
        <ele>483.20</ele>
        <time>2020-08-14T10:13:26Z</time>
      </trkpt>
      <trkpt lat="42.3992849607" lon="-7.8763752524">
        <ele>482.72</ele>
        <time>2020-08-14T10:13:33Z</time>
      </trkpt>
      <trkpt lat="42.3995510861" lon="-7.8764640167">
        <ele>480.80</ele>
        <time>2020-08-14T10:13:40Z</time>
      </trkpt>
      <trkpt lat="42.3999718577" lon="-7.8765622526">
        <ele>480.80</ele>
        <time>2020-08-14T10:13:48Z</time>
      </trkpt>
      <trkpt lat="42.4003959820" lon="-7.8767105285">
        <ele>480.80</ele>
        <time>2020-08-14T10:13:57Z</time>
      </trkpt>
      <trkpt lat="42.4008059409" lon="-7.8768708743">
        <ele>479.84</ele>
        <time>2020-08-14T10:14:06Z</time>
      </trkpt>
      <trkpt lat="42.4011480063" lon="-7.8769886401">
        <ele>479.84</ele>
        <time>2020-08-14T10:14:14Z</time>
      </trkpt>
      <trkpt lat="42.4011892453" lon="-7.8770037275">
        <ele>479.84</ele>
        <time>2020-08-14T10:14:15Z</time>
      </trkpt>
      <trkpt lat="42.4015871342" lon="-7.8771266062">
        <ele>478.39</ele>
        <time>2020-08-14T10:14:24Z</time>
      </trkpt>
      <trkpt lat="42.4018399324" lon="-7.8771791607">
        <ele>479.35</ele>
        <time>2020-08-14T10:14:30Z</time>
      </trkpt>
      <trkpt lat="42.4022703432" lon="-7.8773167916">
        <ele>482.72</ele>
        <time>2020-08-14T10:14:39Z</time>
      </trkpt>
      <trkpt lat="42.4023694173" lon="-7.8773658257">
        <ele>483.20</ele>
        <time>2020-08-14T10:14:41Z</time>
      </trkpt>
      <trkpt lat="42.4025263265" lon="-7.8774112556">
        <ele>482.72</ele>
        <time>2020-08-14T10:14:44Z</time>
      </trkpt>
      <trkpt lat="42.4025668111" lon="-7.8774208948">
        <ele>482.72</ele>
        <time>2020-08-14T10:14:45Z</time>
      </trkpt>
      <trkpt lat="42.4029971380" lon="-7.8775251657">
        <ele>482.24</ele>
        <time>2020-08-14T10:14:55Z</time>
      </trkpt>
      <trkpt lat="42.4033161532" lon="-7.8775941487">
        <ele>482.72</ele>
        <time>2020-08-14T10:15:03Z</time>
      </trkpt>
      <trkpt lat="42.4035123736" lon="-7.8776645567">
        <ele>483.68</ele>
        <time>2020-08-14T10:15:10Z</time>
      </trkpt>
      <trkpt lat="42.4037077557" lon="-7.8777583502">
        <ele>485.12</ele>
        <time>2020-08-14T10:15:17Z</time>
      </trkpt>
      <trkpt lat="42.4038866255" lon="-7.8778530657">
        <ele>485.12</ele>
        <time>2020-08-14T10:15:25Z</time>
      </trkpt>
      <trkpt lat="42.4040606339" lon="-7.8779439256">
        <ele>487.05</ele>
        <time>2020-08-14T10:15:33Z</time>
      </trkpt>
      <trkpt lat="42.4042775575" lon="-7.8780580033">
        <ele>488.97</ele>
        <time>2020-08-14T10:15:43Z</time>
      </trkpt>
      <trkpt lat="42.4044892006" lon="-7.8781611845">
        <ele>492.33</ele>
        <time>2020-08-14T10:15:52Z</time>
      </trkpt>
      <trkpt lat="42.4047562480" lon="-7.8782532178">
        <ele>495.70</ele>
        <time>2020-08-14T10:16:02Z</time>
      </trkpt>
      <trkpt lat="42.4049947131" lon="-7.8783667926">
        <ele>498.10</ele>
        <time>2020-08-14T10:16:11Z</time>
      </trkpt>
      <trkpt lat="42.4051677156" lon="-7.8784729075">
        <ele>499.54</ele>
        <time>2020-08-14T10:16:18Z</time>
      </trkpt>
      <trkpt lat="42.4054025766" lon="-7.8785969596">
        <ele>500.02</ele>
        <time>2020-08-14T10:16:26Z</time>
      </trkpt>
      <trkpt lat="42.4056454003" lon="-7.8787392844">
        <ele>499.54</ele>
        <time>2020-08-14T10:16:35Z</time>
      </trkpt>
      <trkpt lat="42.4058277067" lon="-7.8788437229">
        <ele>500.02</ele>
        <time>2020-08-14T10:16:42Z</time>
      </trkpt>
      <trkpt lat="42.4060620647" lon="-7.8790168930">
        <ele>500.50</ele>
        <time>2020-08-14T10:16:50Z</time>
      </trkpt>
      <trkpt lat="42.4062616378" lon="-7.8792139515">
        <ele>500.50</ele>
        <time>2020-08-14T10:16:58Z</time>
      </trkpt>
      <trkpt lat="42.4064082373" lon="-7.8793881275">
        <ele>500.98</ele>
        <time>2020-08-14T10:17:05Z</time>
      </trkpt>
      <trkpt lat="42.4066006020" lon="-7.8795737028">
        <ele>500.98</ele>
        <time>2020-08-14T10:17:12Z</time>
      </trkpt>
      <trkpt lat="42.4067622051" lon="-7.8796638083">
        <ele>503.87</ele>
        <time>2020-08-14T10:17:18Z</time>
      </trkpt>
      <trkpt lat="42.4069740996" lon="-7.8797486331">
        <ele>506.27</ele>
        <time>2020-08-14T10:17:26Z</time>
      </trkpt>
      <trkpt lat="42.4072072841" lon="-7.8798319492">
        <ele>505.31</ele>
        <time>2020-08-14T10:17:35Z</time>
      </trkpt>
      <trkpt lat="42.4074359424" lon="-7.8799527325">
        <ele>501.95</ele>
        <time>2020-08-14T10:17:42Z</time>
      </trkpt>
      <trkpt lat="42.4078673590" lon="-7.8802098054">
        <ele>500.50</ele>
        <time>2020-08-14T10:17:51Z</time>
      </trkpt>
      <trkpt lat="42.4082751386" lon="-7.8804859053">
        <ele>498.10</ele>
        <time>2020-08-14T10:18:01Z</time>
      </trkpt>
      <trkpt lat="42.4085220695" lon="-7.8806632664">
        <ele>497.14</ele>
        <time>2020-08-14T10:18:08Z</time>
      </trkpt>
      <trkpt lat="42.4088776298" lon="-7.8809533641">
        <ele>494.26</ele>
        <time>2020-08-14T10:18:18Z</time>
      </trkpt>
      <trkpt lat="42.4091609381" lon="-7.8812157176">
        <ele>493.77</ele>
        <time>2020-08-14T10:18:28Z</time>
      </trkpt>
      <trkpt lat="42.4094296619" lon="-7.8814393468">
        <ele>492.33</ele>
        <time>2020-08-14T10:18:38Z</time>
      </trkpt>
      <trkpt lat="42.4095223658" lon="-7.8815057315">
        <ele>491.85</ele>
        <time>2020-08-14T10:18:43Z</time>
      </trkpt>
      <trkpt lat="42.4097526167" lon="-7.8816472180">
        <ele>489.93</ele>
        <time>2020-08-14T10:18:50Z</time>
      </trkpt>
      <trkpt lat="42.4100693688" lon="-7.8817999363">
        <ele>488.97</ele>
        <time>2020-08-14T10:18:58Z</time>
      </trkpt>
      <trkpt lat="42.4102964345" lon="-7.8819645569">
        <ele>488.49</ele>
        <time>2020-08-14T10:19:04Z</time>
      </trkpt>
      <trkpt lat="42.4103311356" lon="-7.8820011020">
        <ele>488.01</ele>
        <time>2020-08-14T10:19:05Z</time>
      </trkpt>
      <trkpt lat="42.4105754681" lon="-7.8823404014">
        <ele>487.05</ele>
        <time>2020-08-14T10:19:14Z</time>
      </trkpt>
      <trkpt lat="42.4107996002" lon="-7.8826857358">
        <ele>486.56</ele>
        <time>2020-08-14T10:19:24Z</time>
      </trkpt>
      <trkpt lat="42.4110706709" lon="-7.8829765040">
        <ele>486.08</ele>
        <time>2020-08-14T10:19:34Z</time>
      </trkpt>
      <trkpt lat="42.4112876784" lon="-7.8832499217">
        <ele>486.56</ele>
        <time>2020-08-14T10:19:43Z</time>
      </trkpt>
      <trkpt lat="42.4114382174" lon="-7.8834986128">
        <ele>484.64</ele>
        <time>2020-08-14T10:19:51Z</time>
      </trkpt>
      <trkpt lat="42.4116429873" lon="-7.8838417679">
        <ele>482.24</ele>
        <time>2020-08-14T10:19:58Z</time>
      </trkpt>
      <trkpt lat="42.4119299836" lon="-7.8841945622">
        <ele>480.80</ele>
        <time>2020-08-14T10:20:04Z</time>
      </trkpt>
      <trkpt lat="42.4123797566" lon="-7.8846623562">
        <ele>479.35</ele>
        <time>2020-08-14T10:20:14Z</time>
      </trkpt>
      <trkpt lat="42.4127084948" lon="-7.8849486820">
        <ele>478.39</ele>
        <time>2020-08-14T10:20:21Z</time>
      </trkpt>
      <trkpt lat="42.4130534939" lon="-7.8851004783">
        <ele>475.51</ele>
        <time>2020-08-14T10:20:26Z</time>
      </trkpt>
      <trkpt lat="42.4134928733" lon="-7.8852102812">
        <ele>473.11</ele>
        <time>2020-08-14T10:20:32Z</time>
      </trkpt>
      <trkpt lat="42.4136476032" lon="-7.8852384444">
        <ele>474.07</ele>
        <time>2020-08-14T10:20:37Z</time>
      </trkpt>
      <trkpt lat="42.4138787761" lon="-7.8852713015">
        <ele>474.07</ele>
        <time>2020-08-14T10:20:44Z</time>
      </trkpt>
      <trkpt lat="42.4141193368" lon="-7.8852490056">
        <ele>472.63</ele>
        <time>2020-08-14T10:20:52Z</time>
      </trkpt>
      <trkpt lat="42.4143030681" lon="-7.8852185793">
        <ele>471.66</ele>
        <time>2020-08-14T10:20:59Z</time>
      </trkpt>
      <trkpt lat="42.4144935887" lon="-7.8852060903">
        <ele>469.26</ele>
        <time>2020-08-14T10:21:06Z</time>
      </trkpt>
      <trkpt lat="42.4146397691" lon="-7.8851904161">
        <ele>466.86</ele>
        <time>2020-08-14T10:21:12Z</time>
      </trkpt>
      <trkpt lat="42.4148559384" lon="-7.8851759993">
        <ele>463.49</ele>
        <time>2020-08-14T10:21:20Z</time>
      </trkpt>
      <trkpt lat="42.4150869437" lon="-7.8851439804">
        <ele>460.13</ele>
        <time>2020-08-14T10:21:28Z</time>
      </trkpt>
      <trkpt lat="42.4153533205" lon="-7.8851153981">
        <ele>457.24</ele>
        <time>2020-08-14T10:21:36Z</time>
      </trkpt>
      <trkpt lat="42.4156476930" lon="-7.8850210179">
        <ele>455.32</ele>
        <time>2020-08-14T10:21:44Z</time>
      </trkpt>
      <trkpt lat="42.4157814682" lon="-7.8850424755">
        <ele>453.88</ele>
        <time>2020-08-14T10:21:49Z</time>
      </trkpt>
      <trkpt lat="42.4159691390" lon="-7.8851595707">
        <ele>453.40</ele>
        <time>2020-08-14T10:21:56Z</time>
      </trkpt>
      <trkpt lat="42.4161428120" lon="-7.8853236046">
        <ele>453.40</ele>
        <time>2020-08-14T10:22:04Z</time>
      </trkpt>
      <trkpt lat="42.4162759166" lon="-7.8854554519">
        <ele>451.96</ele>
        <time>2020-08-14T10:22:11Z</time>
      </trkpt>
      <trkpt lat="42.4164414592" lon="-7.8856270295">
        <ele>451.00</ele>
        <time>2020-08-14T10:22:20Z</time>
      </trkpt>
      <trkpt lat="42.4166172277" lon="-7.8858239204">
        <ele>451.00</ele>
        <time>2020-08-14T10:22:28Z</time>
      </trkpt>
      <trkpt lat="42.4167399388" lon="-7.8859433625">
        <ele>449.55</ele>
        <time>2020-08-14T10:22:35Z</time>
      </trkpt>
      <trkpt lat="42.4168639071" lon="-7.8860632237">
        <ele>449.07</ele>
        <time>2020-08-14T10:22:41Z</time>
      </trkpt>
      <trkpt lat="42.4170262646" lon="-7.8862323705">
        <ele>448.11</ele>
        <time>2020-08-14T10:22:48Z</time>
      </trkpt>
      <trkpt lat="42.4171395041" lon="-7.8863489628">
        <ele>448.11</ele>
        <time>2020-08-14T10:22:55Z</time>
      </trkpt>
      <trkpt lat="42.4172566831" lon="-7.8864855040">
        <ele>449.55</ele>
        <time>2020-08-14T10:23:02Z</time>
      </trkpt>
      <trkpt lat="42.4173708446" lon="-7.8866119869">
        <ele>452.92</ele>
        <time>2020-08-14T10:23:09Z</time>
      </trkpt>
      <trkpt lat="42.4175162707" lon="-7.8867395595">
        <ele>455.32</ele>
        <time>2020-08-14T10:23:17Z</time>
      </trkpt>
      <trkpt lat="42.4176804721" lon="-7.8868900985">
        <ele>455.32</ele>
        <time>2020-08-14T10:23:24Z</time>
      </trkpt>
      <trkpt lat="42.4178181030" lon="-7.8870598320">
        <ele>454.36</ele>
        <time>2020-08-14T10:23:29Z</time>
      </trkpt>
      <trkpt lat="42.4179766886" lon="-7.8873190004">
        <ele>452.92</ele>
        <time>2020-08-14T10:23:36Z</time>
      </trkpt>
      <trkpt lat="42.4181301612" lon="-7.8875611536">
        <ele>451.48</ele>
        <time>2020-08-14T10:23:42Z</time>
      </trkpt>
      <trkpt lat="42.4182646070" lon="-7.8877743054">
        <ele>450.03</ele>
        <time>2020-08-14T10:23:49Z</time>
      </trkpt>
      <trkpt lat="42.4182943627" lon="-7.8878194839">
        <ele>449.55</ele>
        <time>2020-08-14T10:23:51Z</time>
      </trkpt>
      <trkpt lat="42.4183033314" lon="-7.8878421150">
        <ele>449.07</ele>
        <time>2020-08-14T10:23:52Z</time>
      </trkpt>
      <trkpt lat="42.4183133896" lon="-7.8878641594">
        <ele>448.59</ele>
        <time>2020-08-14T10:23:53Z</time>
      </trkpt>
      <trkpt lat="42.4183245376" lon="-7.8878902271">
        <ele>448.59</ele>
        <time>2020-08-14T10:23:54Z</time>
      </trkpt>
      <trkpt lat="42.4183486775" lon="-7.8879182227">
        <ele>448.11</ele>
        <time>2020-08-14T10:23:55Z</time>
      </trkpt>
      <trkpt lat="42.4183629267" lon="-7.8879444581">
        <ele>447.63</ele>
        <time>2020-08-14T10:23:56Z</time>
      </trkpt>
      <trkpt lat="42.4183783494" lon="-7.8879716154">
        <ele>447.15</ele>
        <time>2020-08-14T10:23:57Z</time>
      </trkpt>
      <trkpt lat="42.4183965381" lon="-7.8879972640">
        <ele>447.15</ele>
        <time>2020-08-14T10:23:58Z</time>
      </trkpt>
      <trkpt lat="42.4185397848" lon="-7.8881379124">
        <ele>444.27</ele>
        <time>2020-08-14T10:24:05Z</time>
      </trkpt>
      <trkpt lat="42.4187101889" lon="-7.8883048799">
        <ele>442.34</ele>
        <time>2020-08-14T10:24:13Z</time>
      </trkpt>
      <trkpt lat="42.4188312236" lon="-7.8884555865">
        <ele>442.82</ele>
        <time>2020-08-14T10:24:19Z</time>
      </trkpt>
      <trkpt lat="42.4189904798" lon="-7.8886492923">
        <ele>442.34</ele>
        <time>2020-08-14T10:24:26Z</time>
      </trkpt>
      <trkpt lat="42.4191919807" lon="-7.8888702393">
        <ele>441.38</ele>
        <time>2020-08-14T10:24:33Z</time>
      </trkpt>
      <trkpt lat="42.4193775561" lon="-7.8890111391">
        <ele>440.42</ele>
        <time>2020-08-14T10:24:39Z</time>
      </trkpt>
      <trkpt lat="42.4195838347" lon="-7.8890948743">
        <ele>438.98</ele>
        <time>2020-08-14T10:24:45Z</time>
      </trkpt>
      <trkpt lat="42.4198507983" lon="-7.8890961315">
        <ele>435.13</ele>
        <time>2020-08-14T10:24:52Z</time>
      </trkpt>
      <trkpt lat="42.4200586695" lon="-7.8890713211">
        <ele>434.17</ele>
        <time>2020-08-14T10:24:57Z</time>
      </trkpt>
      <trkpt lat="42.4203942809" lon="-7.8890541382">
        <ele>432.73</ele>
        <time>2020-08-14T10:25:05Z</time>
      </trkpt>
      <trkpt lat="42.4206840433" lon="-7.8891455010">
        <ele>431.77</ele>
        <time>2020-08-14T10:25:12Z</time>
      </trkpt>
      <trkpt lat="42.4209474027" lon="-7.8892765101">
        <ele>430.33</ele>
        <time>2020-08-14T10:25:19Z</time>
      </trkpt>
      <trkpt lat="42.4210823514" lon="-7.8893889114">
        <ele>431.29</ele>
        <time>2020-08-14T10:25:24Z</time>
      </trkpt>
      <trkpt lat="42.4212311301" lon="-7.8895749897">
        <ele>432.73</ele>
        <time>2020-08-14T10:25:29Z</time>
      </trkpt>
      <trkpt lat="42.4213925656" lon="-7.8898308054">
        <ele>434.65</ele>
        <time>2020-08-14T10:25:36Z</time>
      </trkpt>
      <trkpt lat="42.4215667415" lon="-7.8900953382">
        <ele>437.06</ele>
        <time>2020-08-14T10:25:43Z</time>
      </trkpt>
      <trkpt lat="42.4217727687" lon="-7.8903789818">
        <ele>438.98</ele>
        <time>2020-08-14T10:25:50Z</time>
      </trkpt>
      <trkpt lat="42.4220322724" lon="-7.8907744400">
        <ele>431.77</ele>
        <time>2020-08-14T10:25:58Z</time>
      </trkpt>
      <trkpt lat="42.4222931173" lon="-7.8913242090">
        <ele>421.19</ele>
        <time>2020-08-14T10:26:10Z</time>
      </trkpt>
      <trkpt lat="42.4224159960" lon="-7.8916005604">
        <ele>418.79</ele>
        <time>2020-08-14T10:26:17Z</time>
      </trkpt>
      <trkpt lat="42.4225540459" lon="-7.8918529395">
        <ele>416.39</ele>
        <time>2020-08-14T10:26:24Z</time>
      </trkpt>
      <trkpt lat="42.4227787647" lon="-7.8922392614">
        <ele>415.91</ele>
        <time>2020-08-14T10:26:33Z</time>
      </trkpt>
      <trkpt lat="42.4229541980" lon="-7.8924773913">
        <ele>415.91</ele>
        <time>2020-08-14T10:26:40Z</time>
      </trkpt>
      <trkpt lat="42.4231619015" lon="-7.8927547485">
        <ele>415.91</ele>
        <time>2020-08-14T10:26:50Z</time>
      </trkpt>
      <trkpt lat="42.4233274441" lon="-7.8929903638">
        <ele>416.87</ele>
        <time>2020-08-14T10:26:59Z</time>
      </trkpt>
      <trkpt lat="42.4235048052" lon="-7.8932455089">
        <ele>417.83</ele>
        <time>2020-08-14T10:27:09Z</time>
      </trkpt>
      <trkpt lat="42.4236392509" lon="-7.8934744187">
        <ele>418.79</ele>
        <time>2020-08-14T10:27:17Z</time>
      </trkpt>
      <trkpt lat="42.4237733614" lon="-7.8937316593">
        <ele>419.75</ele>
        <time>2020-08-14T10:27:26Z</time>
      </trkpt>
      <trkpt lat="42.4239075556" lon="-7.8937753290">
        <ele>420.71</ele>
        <time>2020-08-14T10:27:32Z</time>
      </trkpt>
      <trkpt lat="42.4240876827" lon="-7.8937395383">
        <ele>421.68</ele>
        <time>2020-08-14T10:27:40Z</time>
      </trkpt>
      <trkpt lat="42.4241631199" lon="-7.8939011414">
        <ele>421.68</ele>
        <time>2020-08-14T10:27:45Z</time>
      </trkpt>
      <trkpt lat="42.4242440052" lon="-7.8942924924">
        <ele>421.68</ele>
        <time>2020-08-14T10:27:55Z</time>
      </trkpt>
      <trkpt lat="42.4243331049" lon="-7.8947413433">
        <ele>423.12</ele>
        <time>2020-08-14T10:28:07Z</time>
      </trkpt>
      <trkpt lat="42.4244196899" lon="-7.8951107338">
        <ele>424.56</ele>
        <time>2020-08-14T10:28:17Z</time>
      </trkpt>
      <trkpt lat="42.4244874157" lon="-7.8952314332">
        <ele>424.56</ele>
        <time>2020-08-14T10:28:23Z</time>
      </trkpt>
      <trkpt lat="42.4244776927" lon="-7.8952262364">
        <ele>424.56</ele>
        <time>2020-08-14T10:28:32Z</time>
      </trkpt>
      <trkpt lat="42.4244755134" lon="-7.8952202853">
        <ele>424.08</ele>
        <time>2020-08-14T10:28:40Z</time>
      </trkpt>
      <trkpt lat="42.4244808778" lon="-7.8952243086">
        <ele>423.60</ele>
        <time>2020-08-14T10:28:48Z</time>
      </trkpt>
      <trkpt lat="42.4244874995" lon="-7.8952227999">
        <ele>422.64</ele>
        <time>2020-08-14T10:28:57Z</time>
      </trkpt>
      <trkpt lat="42.4244978093" lon="-7.8952096403">
        <ele>420.71</ele>
        <time>2020-08-14T10:29:14Z</time>
      </trkpt>
      <trkpt lat="42.4244956300" lon="-7.8952144179">
        <ele>420.23</ele>
        <time>2020-08-14T10:29:29Z</time>
      </trkpt>
      <trkpt lat="42.4244855717" lon="-7.8952403180">
        <ele>422.16</ele>
        <time>2020-08-14T10:29:42Z</time>
      </trkpt>
      <trkpt lat="42.4244764354" lon="-7.8952469397">
        <ele>420.71</ele>
        <time>2020-08-14T10:29:57Z</time>
      </trkpt>
      <trkpt lat="42.4244884215" lon="-7.8952223808">
        <ele>421.68</ele>
        <time>2020-08-14T10:30:09Z</time>
      </trkpt>
      <trkpt lat="42.4244952109" lon="-7.8952522203">
        <ele>422.16</ele>
        <time>2020-08-14T10:30:15Z</time>
      </trkpt>
      <trkpt lat="42.4245847296" lon="-7.8953820560">
        <ele>421.68</ele>
        <time>2020-08-14T10:30:22Z</time>
      </trkpt>
      <trkpt lat="42.4246916827" lon="-7.8956003208">
        <ele>422.16</ele>
        <time>2020-08-14T10:30:31Z</time>
      </trkpt>
      <trkpt lat="42.4247649405" lon="-7.8957998939">
        <ele>423.12</ele>
        <time>2020-08-14T10:30:39Z</time>
      </trkpt>
      <trkpt lat="42.4248724803" lon="-7.8960423823">
        <ele>422.16</ele>
        <time>2020-08-14T10:30:47Z</time>
      </trkpt>
      <trkpt lat="42.4249826185" lon="-7.8962199111">
        <ele>420.71</ele>
        <time>2020-08-14T10:30:53Z</time>
      </trkpt>
      <trkpt lat="42.4250568822" lon="-7.8962911572">
        <ele>421.68</ele>
        <time>2020-08-14T10:30:59Z</time>
      </trkpt>
      <trkpt lat="42.4251511786" lon="-7.8963803407">
        <ele>422.64</ele>
        <time>2020-08-14T10:31:08Z</time>
      </trkpt>
      <trkpt lat="42.4252463970" lon="-7.8964444622">
        <ele>424.08</ele>
        <time>2020-08-14T10:31:14Z</time>
      </trkpt>
      <trkpt lat="42.4253681861" lon="-7.8965428658">
        <ele>427.44</ele>
        <time>2020-08-14T10:31:22Z</time>
      </trkpt>
      <trkpt lat="42.4253986124" lon="-7.8965517506">
        <ele>428.40</ele>
        <time>2020-08-14T10:31:28Z</time>
      </trkpt>
      <trkpt lat="42.4254141189" lon="-7.8965641558">
        <ele>430.81</ele>
        <time>2020-08-14T10:31:43Z</time>
      </trkpt>
      <trkpt lat="42.4254486524" lon="-7.8966092505">
        <ele>431.77</ele>
        <time>2020-08-14T10:32:00Z</time>
      </trkpt>
      <trkpt lat="42.4254927412" lon="-7.8966440354">
        <ele>431.77</ele>
        <time>2020-08-14T10:32:09Z</time>
      </trkpt>
      <trkpt lat="42.4256021250" lon="-7.8967667464">
        <ele>433.21</ele>
        <time>2020-08-14T10:32:16Z</time>
      </trkpt>
      <trkpt lat="42.4256793223" lon="-7.8968824167">
        <ele>436.58</ele>
        <time>2020-08-14T10:32:22Z</time>
      </trkpt>
      <trkpt lat="42.4257780612" lon="-7.8970740270">
        <ele>438.98</ele>
        <time>2020-08-14T10:32:29Z</time>
      </trkpt>
      <trkpt lat="42.4258591980" lon="-7.8973010089">
        <ele>438.98</ele>
        <time>2020-08-14T10:32:36Z</time>
      </trkpt>
      <trkpt lat="42.4259023648" lon="-7.8975128196">
        <ele>436.58</ele>
        <time>2020-08-14T10:32:42Z</time>
      </trkpt>
      <trkpt lat="42.4259296060" lon="-7.8977497760">
        <ele>433.21</ele>
        <time>2020-08-14T10:32:48Z</time>
      </trkpt>
      <trkpt lat="42.4259456154" lon="-7.8981663566">
        <ele>433.21</ele>
        <time>2020-08-14T10:32:57Z</time>
      </trkpt>
      <trkpt lat="42.4259601999" lon="-7.8986530937">
        <ele>435.61</ele>
        <time>2020-08-14T10:33:09Z</time>
      </trkpt>
      <trkpt lat="42.4260045402" lon="-7.8989708517">
        <ele>432.73</ele>
        <time>2020-08-14T10:33:17Z</time>
      </trkpt>
      <trkpt lat="42.4260871019" lon="-7.8994386457">
        <ele>432.73</ele>
        <time>2020-08-14T10:33:28Z</time>
      </trkpt>
      <trkpt lat="42.4262157641" lon="-7.8999180067">
        <ele>437.54</ele>
        <time>2020-08-14T10:33:40Z</time>
      </trkpt>
      <trkpt lat="42.4263170175" lon="-7.9001438990">
        <ele>439.46</ele>
        <time>2020-08-14T10:33:47Z</time>
      </trkpt>
      <trkpt lat="42.4264138285" lon="-7.9003519379">
        <ele>443.31</ele>
        <time>2020-08-14T10:33:55Z</time>
      </trkpt>
      <trkpt lat="42.4265099689" lon="-7.9005950969">
        <ele>445.71</ele>
        <time>2020-08-14T10:34:05Z</time>
      </trkpt>
      <trkpt lat="42.4265588354" lon="-7.9008988570">
        <ele>444.27</ele>
        <time>2020-08-14T10:34:16Z</time>
      </trkpt>
      <trkpt lat="42.4265770242" lon="-7.9010561854">
        <ele>443.79</ele>
        <time>2020-08-14T10:34:22Z</time>
      </trkpt>
      <trkpt lat="42.4265820533" lon="-7.9010797385">
        <ele>443.79</ele>
        <time>2020-08-14T10:34:23Z</time>
      </trkpt>
      <trkpt lat="42.4265872501" lon="-7.9011021182">
        <ele>444.27</ele>
        <time>2020-08-14T10:34:24Z</time>
      </trkpt>
      <trkpt lat="42.4265930336" lon="-7.9011240788">
        <ele>444.27</ele>
        <time>2020-08-14T10:34:25Z</time>
      </trkpt>
      <trkpt lat="42.4265983142" lon="-7.9011466261">
        <ele>444.75</ele>
        <time>2020-08-14T10:34:26Z</time>
      </trkpt>
      <trkpt lat="42.4266037624" lon="-7.9011699278">
        <ele>445.71</ele>
        <time>2020-08-14T10:34:27Z</time>
      </trkpt>
      <trkpt lat="42.4266068637" lon="-7.9011907149">
        <ele>445.71</ele>
        <time>2020-08-14T10:34:28Z</time>
      </trkpt>
      <trkpt lat="42.4266073667" lon="-7.9012109991">
        <ele>446.19</ele>
        <time>2020-08-14T10:34:29Z</time>
      </trkpt>
      <trkpt lat="42.4266642798" lon="-7.9014087282">
        <ele>448.59</ele>
        <time>2020-08-14T10:34:39Z</time>
      </trkpt>
      <trkpt lat="42.4267222825" lon="-7.9015226383">
        <ele>449.07</ele>
        <time>2020-08-14T10:34:46Z</time>
      </trkpt>
      <trkpt lat="42.4267853145" lon="-7.9017252289">
        <ele>449.55</ele>
        <time>2020-08-14T10:34:54Z</time>
      </trkpt>
      <trkpt lat="42.4268726539" lon="-7.9019380454">
        <ele>451.48</ele>
        <time>2020-08-14T10:35:03Z</time>
      </trkpt>
      <trkpt lat="42.4269910064" lon="-7.9021241236">
        <ele>451.96</ele>
        <time>2020-08-14T10:35:12Z</time>
      </trkpt>
      <trkpt lat="42.4270671979" lon="-7.9023076873">
        <ele>454.36</ele>
        <time>2020-08-14T10:35:21Z</time>
      </trkpt>
      <trkpt lat="42.4272119533" lon="-7.9024109524">
        <ele>457.24</ele>
        <time>2020-08-14T10:35:29Z</time>
      </trkpt>
      <trkpt lat="42.4273928348" lon="-7.9025308974">
        <ele>458.21</ele>
        <time>2020-08-14T10:35:39Z</time>
      </trkpt>
      <trkpt lat="42.4275344051" lon="-7.9026348330">
        <ele>458.69</ele>
        <time>2020-08-14T10:35:48Z</time>
      </trkpt>
      <trkpt lat="42.4275567848" lon="-7.9026584700">
        <ele>458.69</ele>
        <time>2020-08-14T10:35:50Z</time>
      </trkpt>
      <trkpt lat="42.4275732972" lon="-7.9026690312">
        <ele>459.17</ele>
        <time>2020-08-14T10:35:51Z</time>
      </trkpt>
      <trkpt lat="42.4277656619" lon="-7.9028142896">
        <ele>459.65</ele>
        <time>2020-08-14T10:36:02Z</time>
      </trkpt>
      <trkpt lat="42.4278503191" lon="-7.9028835241">
        <ele>460.13</ele>
        <time>2020-08-14T10:36:09Z</time>
      </trkpt>
      <trkpt lat="42.4279597867" lon="-7.9030116834">
        <ele>460.61</ele>
        <time>2020-08-14T10:36:17Z</time>
      </trkpt>
      <trkpt lat="42.4280959927" lon="-7.9032457899">
        <ele>461.09</ele>
        <time>2020-08-14T10:36:28Z</time>
      </trkpt>
      <trkpt lat="42.4282472860" lon="-7.9034741130">
        <ele>462.53</ele>
        <time>2020-08-14T10:36:39Z</time>
      </trkpt>
      <trkpt lat="42.4283567537" lon="-7.9036855884">
        <ele>463.49</ele>
        <time>2020-08-14T10:36:49Z</time>
      </trkpt>
      <trkpt lat="42.4284309335" lon="-7.9038454313">
        <ele>464.45</ele>
        <time>2020-08-14T10:36:57Z</time>
      </trkpt>
      <trkpt lat="42.4285065383" lon="-7.9040034302">
        <ele>465.42</ele>
        <time>2020-08-14T10:37:05Z</time>
      </trkpt>
      <trkpt lat="42.4286028463" lon="-7.9042035900">
        <ele>464.45</ele>
        <time>2020-08-14T10:37:15Z</time>
      </trkpt>
      <trkpt lat="42.4287149962" lon="-7.9043045081">
        <ele>464.93</ele>
        <time>2020-08-14T10:37:23Z</time>
      </trkpt>
      <trkpt lat="42.4288569018" lon="-7.9043892492">
        <ele>471.66</ele>
        <time>2020-08-14T10:37:33Z</time>
      </trkpt>
      <trkpt lat="42.4289962091" lon="-7.9044017382">
        <ele>473.59</ele>
        <time>2020-08-14T10:37:41Z</time>
      </trkpt>
      <trkpt lat="42.4290160742" lon="-7.9044064321">
        <ele>474.07</ele>
        <time>2020-08-14T10:37:43Z</time>
      </trkpt>
      <trkpt lat="42.4290302396" lon="-7.9044132214">
        <ele>474.07</ele>
        <time>2020-08-14T10:37:44Z</time>
      </trkpt>
      <trkpt lat="42.4290506076" lon="-7.9044199269">
        <ele>474.07</ele>
        <time>2020-08-14T10:37:45Z</time>
      </trkpt>
      <trkpt lat="42.4290705565" lon="-7.9044221062">
        <ele>474.07</ele>
        <time>2020-08-14T10:37:46Z</time>
      </trkpt>
      <trkpt lat="42.4290896673" lon="-7.9044258781">
        <ele>474.07</ele>
        <time>2020-08-14T10:37:47Z</time>
      </trkpt>
      <trkpt lat="42.4291114602" lon="-7.9044324160">
        <ele>474.55</ele>
        <time>2020-08-14T10:37:48Z</time>
      </trkpt>
      <trkpt lat="42.4291319959" lon="-7.9044366907">
        <ele>474.55</ele>
        <time>2020-08-14T10:37:49Z</time>
      </trkpt>
      <trkpt lat="42.4291511904" lon="-7.9044362716">
        <ele>475.03</ele>
        <time>2020-08-14T10:37:50Z</time>
      </trkpt>
      <trkpt lat="42.4291703012" lon="-7.9044350982">
        <ele>475.51</ele>
        <time>2020-08-14T10:37:51Z</time>
      </trkpt>
      <trkpt lat="42.4291918427" lon="-7.9044370260">
        <ele>475.51</ele>
        <time>2020-08-14T10:37:52Z</time>
      </trkpt>
      <trkpt lat="42.4292123783" lon="-7.9044386186">
        <ele>475.51</ele>
        <time>2020-08-14T10:37:53Z</time>
      </trkpt>
      <trkpt lat="42.4294147175" lon="-7.9045227729">
        <ele>473.59</ele>
        <time>2020-08-14T10:38:01Z</time>
      </trkpt>
      <trkpt lat="42.4295888096" lon="-7.9046996310">
        <ele>473.11</ele>
        <time>2020-08-14T10:38:09Z</time>
      </trkpt>
      <trkpt lat="42.4296399392" lon="-7.9047532752">
        <ele>473.11</ele>
        <time>2020-08-14T10:38:14Z</time>
      </trkpt>
      <trkpt lat="42.4296633247" lon="-7.9047598969">
        <ele>471.18</ele>
        <time>2020-08-14T10:38:30Z</time>
      </trkpt>
      <trkpt lat="42.4296497460" lon="-7.9047977831">
        <ele>469.26</ele>
        <time>2020-08-14T10:38:50Z</time>
      </trkpt>
      <trkpt lat="42.4296562001" lon="-7.9048033990">
        <ele>470.22</ele>
        <time>2020-08-14T10:39:13Z</time>
      </trkpt>
      <trkpt lat="42.4296599720" lon="-7.9047783371">
        <ele>470.70</ele>
        <time>2020-08-14T10:39:36Z</time>
      </trkpt>
      <trkpt lat="42.4296548590" lon="-7.9047679435">
        <ele>471.18</ele>
        <time>2020-08-14T10:39:47Z</time>
      </trkpt>
      <trkpt lat="42.4296441302" lon="-7.9047960229">
        <ele>473.59</ele>
        <time>2020-08-14T10:40:10Z</time>
      </trkpt>
      <trkpt lat="42.4296387658" lon="-7.9047924187">
        <ele>475.03</ele>
        <time>2020-08-14T10:40:39Z</time>
      </trkpt>
      <trkpt lat="42.4296431243" lon="-7.9047771636">
        <ele>474.07</ele>
        <time>2020-08-14T10:40:59Z</time>
      </trkpt>
      <trkpt lat="42.4296417832" lon="-7.9047667701">
        <ele>471.66</ele>
        <time>2020-08-14T10:41:14Z</time>
      </trkpt>
      <trkpt lat="42.4296406098" lon="-7.9047567956">
        <ele>470.70</ele>
        <time>2020-08-14T10:41:29Z</time>
      </trkpt>
      <trkpt lat="42.4296278693" lon="-7.9047485813">
        <ele>469.26</ele>
        <time>2020-08-14T10:41:45Z</time>
      </trkpt>
      <trkpt lat="42.4296199903" lon="-7.9047658481">
        <ele>468.30</ele>
        <time>2020-08-14T10:41:57Z</time>
      </trkpt>
      <trkpt lat="42.4296259414" lon="-7.9047487490">
        <ele>467.82</ele>
        <time>2020-08-14T10:42:15Z</time>
      </trkpt>
      <trkpt lat="42.4296524283" lon="-7.9047692008">
        <ele>465.90</ele>
        <time>2020-08-14T10:42:41Z</time>
      </trkpt>
      <trkpt lat="42.4296240974" lon="-7.9047624953">
        <ele>467.34</ele>
        <time>2020-08-14T10:43:10Z</time>
      </trkpt>
      <trkpt lat="42.4296289589" lon="-7.9047397804">
        <ele>468.30</ele>
        <time>2020-08-14T10:43:29Z</time>
      </trkpt>
      <trkpt lat="42.4296410289" lon="-7.9047611542">
        <ele>467.82</ele>
        <time>2020-08-14T10:43:33Z</time>
      </trkpt>
      <trkpt lat="42.4296487402" lon="-7.9047743976">
        <ele>467.34</ele>
        <time>2020-08-14T10:43:34Z</time>
      </trkpt>
      <trkpt lat="42.4296577089" lon="-7.9047860485">
        <ele>467.34</ele>
        <time>2020-08-14T10:43:35Z</time>
      </trkpt>
      <trkpt lat="42.4297546037" lon="-7.9049014673">
        <ele>467.34</ele>
        <time>2020-08-14T10:43:41Z</time>
      </trkpt>
      <trkpt lat="42.4299602117" lon="-7.9051292874">
        <ele>465.90</ele>
        <time>2020-08-14T10:43:47Z</time>
      </trkpt>
      <trkpt lat="42.4302949850" lon="-7.9055150226">
        <ele>463.49</ele>
        <time>2020-08-14T10:43:54Z</time>
      </trkpt>
      <trkpt lat="42.4308676366" lon="-7.9061569925">
        <ele>461.09</ele>
        <time>2020-08-14T10:44:05Z</time>
      </trkpt>
      <trkpt lat="42.4310324248" lon="-7.9063383769">
        <ele>460.61</ele>
        <time>2020-08-14T10:44:10Z</time>
      </trkpt>
      <trkpt lat="42.4313299824" lon="-7.9066838790">
        <ele>461.09</ele>
        <time>2020-08-14T10:44:22Z</time>
      </trkpt>
      <trkpt lat="42.4315462355" lon="-7.9069338273">
        <ele>461.09</ele>
        <time>2020-08-14T10:44:31Z</time>
      </trkpt>
      <trkpt lat="42.4316197447" lon="-7.9071469791">
        <ele>461.57</ele>
        <time>2020-08-14T10:44:37Z</time>
      </trkpt>
      <trkpt lat="42.4316080939" lon="-7.9071862902">
        <ele>461.09</ele>
        <time>2020-08-14T10:44:38Z</time>
      </trkpt>
      <trkpt lat="42.4315966107" lon="-7.9072136153">
        <ele>461.57</ele>
        <time>2020-08-14T10:44:39Z</time>
      </trkpt>
      <trkpt lat="42.4315798469" lon="-7.9072476458">
        <ele>461.57</ele>
        <time>2020-08-14T10:44:40Z</time>
      </trkpt>
      <trkpt lat="42.4315615743" lon="-7.9072812572">
        <ele>461.09</ele>
        <time>2020-08-14T10:44:41Z</time>
      </trkpt>
      <trkpt lat="42.4314153939" lon="-7.9075435270">
        <ele>459.65</ele>
        <time>2020-08-14T10:44:49Z</time>
      </trkpt>
      <trkpt lat="42.4314174056" lon="-7.9075637273">
        <ele>459.65</ele>
        <time>2020-08-14T10:44:50Z</time>
      </trkpt>
      <trkpt lat="42.4314329121" lon="-7.9075859394">
        <ele>459.65</ele>
        <time>2020-08-14T10:44:51Z</time>
      </trkpt>
      <trkpt lat="42.4314556271" lon="-7.9076023679">
        <ele>459.65</ele>
        <time>2020-08-14T10:44:52Z</time>
      </trkpt>
      <trkpt lat="42.4314830359" lon="-7.9076202214">
        <ele>459.65</ele>
        <time>2020-08-14T10:44:53Z</time>
      </trkpt>
      <trkpt lat="42.4315115344" lon="-7.9076431040">
        <ele>460.13</ele>
        <time>2020-08-14T10:44:54Z</time>
      </trkpt>
      <trkpt lat="42.4318074994" lon="-7.9078249075">
        <ele>461.57</ele>
        <time>2020-08-14T10:45:03Z</time>
      </trkpt>
      <trkpt lat="42.4321474694" lon="-7.9080115724">
        <ele>461.09</ele>
        <time>2020-08-14T10:45:13Z</time>
      </trkpt>
      <trkpt lat="42.4324923847" lon="-7.9082189407">
        <ele>460.13</ele>
        <time>2020-08-14T10:45:23Z</time>
      </trkpt>
      <trkpt lat="42.4328645412" lon="-7.9084293265">
        <ele>459.17</ele>
        <time>2020-08-14T10:45:33Z</time>
      </trkpt>
      <trkpt lat="42.4331909325" lon="-7.9086149856">
        <ele>458.21</ele>
        <time>2020-08-14T10:45:43Z</time>
      </trkpt>
      <trkpt lat="42.4333760049" lon="-7.9087075219">
        <ele>457.24</ele>
        <time>2020-08-14T10:45:52Z</time>
      </trkpt>
      <trkpt lat="42.4333758373" lon="-7.9087060131">
        <ele>457.72</ele>
        <time>2020-08-14T10:46:04Z</time>
      </trkpt>
      <trkpt lat="42.4333799444" lon="-7.9087250400">
        <ele>458.21</ele>
        <time>2020-08-14T10:46:08Z</time>
      </trkpt>
      <trkpt lat="42.4333698861" lon="-7.9087449051">
        <ele>458.21</ele>
        <time>2020-08-14T10:46:09Z</time>
      </trkpt>
      <trkpt lat="42.4333510268" lon="-7.9087575618">
        <ele>457.72</ele>
        <time>2020-08-14T10:46:10Z</time>
      </trkpt>
      <trkpt lat="42.4333383702" lon="-7.9087609146">
        <ele>457.72</ele>
        <time>2020-08-14T10:46:11Z</time>
      </trkpt>
      <trkpt lat="42.4333134759" lon="-7.9087584838">
        <ele>457.72</ele>
        <time>2020-08-14T10:46:12Z</time>
      </trkpt>
      <trkpt lat="42.4332946166" lon="-7.9087563884">
        <ele>457.72</ele>
        <time>2020-08-14T10:46:13Z</time>
      </trkpt>
      <trkpt lat="42.4331904296" lon="-7.9087289795">
        <ele>457.24</ele>
        <time>2020-08-14T10:46:19Z</time>
      </trkpt>
      <trkpt lat="42.4331786949" lon="-7.9087588191">
        <ele>456.76</ele>
        <time>2020-08-14T10:46:21Z</time>
      </trkpt>
      <trkpt lat="42.4331780244" lon="-7.9089806043">
        <ele>453.40</ele>
        <time>2020-08-14T10:46:29Z</time>
      </trkpt>
      <trkpt lat="42.4332536291" lon="-7.9091714602">
        <ele>453.40</ele>
        <time>2020-08-14T10:46:35Z</time>
      </trkpt>
      <trkpt lat="42.4333604146" lon="-7.9093649145">
        <ele>453.88</ele>
        <time>2020-08-14T10:46:43Z</time>
      </trkpt>
      <trkpt lat="42.4333861470" lon="-7.9093809240">
        <ele>453.88</ele>
        <time>2020-08-14T10:46:44Z</time>
      </trkpt>
      <trkpt lat="42.4334127177" lon="-7.9093853664">
        <ele>454.36</ele>
        <time>2020-08-14T10:46:45Z</time>
      </trkpt>
      <trkpt lat="42.4334394559" lon="-7.9093829356">
        <ele>454.36</ele>
        <time>2020-08-14T10:46:46Z</time>
      </trkpt>
      <trkpt lat="42.4334672000" lon="-7.9093805049">
        <ele>454.84</ele>
        <time>2020-08-14T10:46:47Z</time>
      </trkpt>
      <trkpt lat="42.4334938545" lon="-7.9093833547">
        <ele>454.84</ele>
        <time>2020-08-14T10:46:48Z</time>
      </trkpt>
      <trkpt lat="42.4335208442" lon="-7.9093892220">
        <ele>454.84</ele>
        <time>2020-08-14T10:46:49Z</time>
      </trkpt>
      <trkpt lat="42.4336907454" lon="-7.9094499908">
        <ele>455.80</ele>
        <time>2020-08-14T10:46:57Z</time>
      </trkpt>
      <trkpt lat="42.4338154681" lon="-7.9095016234">
        <ele>457.72</ele>
        <time>2020-08-14T10:47:04Z</time>
      </trkpt>
      <trkpt lat="42.4339720421" lon="-7.9095750488">
        <ele>459.65</ele>
        <time>2020-08-14T10:47:13Z</time>
      </trkpt>
      <trkpt lat="42.4340989441" lon="-7.9096312914">
        <ele>459.65</ele>
        <time>2020-08-14T10:47:22Z</time>
      </trkpt>
      <trkpt lat="42.4342001975" lon="-7.9096687585">
        <ele>458.69</ele>
        <time>2020-08-14T10:47:29Z</time>
      </trkpt>
      <trkpt lat="42.4342122674" lon="-7.9096814990">
        <ele>458.69</ele>
        <time>2020-08-14T10:47:30Z</time>
      </trkpt>
      <trkpt lat="42.4342245888" lon="-7.9097045492">
        <ele>458.21</ele>
        <time>2020-08-14T10:47:31Z</time>
      </trkpt>
      <trkpt lat="42.4342333898" lon="-7.9097304493">
        <ele>458.21</ele>
        <time>2020-08-14T10:47:32Z</time>
      </trkpt>
      <trkpt lat="42.4342359044" lon="-7.9097476322">
        <ele>458.21</ele>
        <time>2020-08-14T10:47:33Z</time>
      </trkpt>
      <trkpt lat="42.4342347309" lon="-7.9097722750">
        <ele>458.21</ele>
        <time>2020-08-14T10:47:34Z</time>
      </trkpt>
      <trkpt lat="42.4342328869" lon="-7.9097950738">
        <ele>458.21</ele>
        <time>2020-08-14T10:47:35Z</time>
      </trkpt>
      <trkpt lat="42.4342359044" lon="-7.9098230693">
        <ele>458.21</ele>
        <time>2020-08-14T10:47:36Z</time>
      </trkpt>
      <trkpt lat="42.4342435319" lon="-7.9098502267">
        <ele>458.21</ele>
        <time>2020-08-14T10:47:37Z</time>
      </trkpt>
      <trkpt lat="42.4343302846" lon="-7.9100785498">
        <ele>457.72</ele>
        <time>2020-08-14T10:47:43Z</time>
      </trkpt>
      <trkpt lat="42.4344296940" lon="-7.9102551565">
        <ele>455.80</ele>
        <time>2020-08-14T10:47:47Z</time>
      </trkpt>
      <trkpt lat="42.4344608746" lon="-7.9103041906">
        <ele>454.84</ele>
        <time>2020-08-14T10:47:48Z</time>
      </trkpt>
      <trkpt lat="42.4344864395" lon="-7.9103579186">
        <ele>454.36</ele>
        <time>2020-08-14T10:47:49Z</time>
      </trkpt>
      <trkpt lat="42.4347202107" lon="-7.9107838031">
        <ele>450.52</ele>
        <time>2020-08-14T10:47:56Z</time>
      </trkpt>
      <trkpt lat="42.4350554869" lon="-7.9112851247">
        <ele>446.67</ele>
        <time>2020-08-14T10:48:03Z</time>
      </trkpt>
      <trkpt lat="42.4353547208" lon="-7.9116887134">
        <ele>442.82</ele>
        <time>2020-08-14T10:48:09Z</time>
      </trkpt>
      <trkpt lat="42.4354884960" lon="-7.9119518213">
        <ele>440.42</ele>
        <time>2020-08-14T10:48:14Z</time>
      </trkpt>
      <trkpt lat="42.4356203433" lon="-7.9122637119">
        <ele>438.98</ele>
        <time>2020-08-14T10:48:19Z</time>
      </trkpt>
      <trkpt lat="42.4358868040" lon="-7.9128947016">
        <ele>434.65</ele>
        <time>2020-08-14T10:48:26Z</time>
      </trkpt>
      <trkpt lat="42.4360923283" lon="-7.9133358411">
        <ele>433.21</ele>
        <time>2020-08-14T10:48:32Z</time>
      </trkpt>
      <trkpt lat="42.4362257682" lon="-7.9135468975">
        <ele>432.73</ele>
        <time>2020-08-14T10:48:36Z</time>
      </trkpt>
      <trkpt lat="42.4364933185" lon="-7.9138136934">
        <ele>432.73</ele>
        <time>2020-08-14T10:48:43Z</time>
      </trkpt>
      <trkpt lat="42.4367365614" lon="-7.9140711855">
        <ele>432.73</ele>
        <time>2020-08-14T10:48:51Z</time>
      </trkpt>
      <trkpt lat="42.4368917942" lon="-7.9142103251">
        <ele>433.69</ele>
        <time>2020-08-14T10:48:59Z</time>
      </trkpt>
      <trkpt lat="42.4370126612" lon="-7.9144026898">
        <ele>434.65</ele>
        <time>2020-08-14T10:49:07Z</time>
      </trkpt>
      <trkpt lat="42.4372026790" lon="-7.9146194458">
        <ele>434.65</ele>
        <time>2020-08-14T10:49:16Z</time>
      </trkpt>
      <trkpt lat="42.4373085424" lon="-7.9147701524">
        <ele>435.61</ele>
        <time>2020-08-14T10:49:24Z</time>
      </trkpt>
      <trkpt lat="42.4374110531" lon="-7.9149589967">
        <ele>438.02</ele>
        <time>2020-08-14T10:49:33Z</time>
      </trkpt>
      <trkpt lat="42.4375196826" lon="-7.9151682928">
        <ele>439.46</ele>
        <time>2020-08-14T10:49:42Z</time>
      </trkpt>
      <trkpt lat="42.4376320839" lon="-7.9153784271">
        <ele>439.94</ele>
        <time>2020-08-14T10:49:52Z</time>
      </trkpt>
      <trkpt lat="42.4378133845" lon="-7.9156343266">
        <ele>438.98</ele>
        <time>2020-08-14T10:50:01Z</time>
      </trkpt>
      <trkpt lat="42.4379606545" lon="-7.9158315528">
        <ele>437.06</ele>
        <time>2020-08-14T10:50:07Z</time>
      </trkpt>
      <trkpt lat="42.4381984491" lon="-7.9160979297">
        <ele>435.13</ele>
        <time>2020-08-14T10:50:14Z</time>
      </trkpt>
      <trkpt lat="42.4384622276" lon="-7.9163384065">
        <ele>434.17</ele>
        <time>2020-08-14T10:50:22Z</time>
      </trkpt>
      <trkpt lat="42.4386285245" lon="-7.9164802283">
        <ele>432.73</ele>
        <time>2020-08-14T10:50:29Z</time>
      </trkpt>
      <trkpt lat="42.4387807399" lon="-7.9166029394">
        <ele>432.25</ele>
        <time>2020-08-14T10:50:37Z</time>
      </trkpt>
      <trkpt lat="42.4389807321" lon="-7.9167528078">
        <ele>436.10</ele>
        <time>2020-08-14T10:50:45Z</time>
      </trkpt>
      <trkpt lat="42.4391056225" lon="-7.9168592580">
        <ele>439.94</ele>
        <time>2020-08-14T10:50:51Z</time>
      </trkpt>
      <trkpt lat="42.4393777829" lon="-7.9170763493">
        <ele>444.27</ele>
        <time>2020-08-14T10:51:01Z</time>
      </trkpt>
      <trkpt lat="42.4395602569" lon="-7.9172998946">
        <ele>446.67</ele>
        <time>2020-08-14T10:51:09Z</time>
      </trkpt>
      <trkpt lat="42.4397196807" lon="-7.9175269604">
        <ele>447.63</ele>
        <time>2020-08-14T10:51:16Z</time>
      </trkpt>
      <trkpt lat="42.4399290606" lon="-7.9177220911">
        <ele>445.71</ele>
        <time>2020-08-14T10:51:24Z</time>
      </trkpt>
      <trkpt lat="42.4400977045" lon="-7.9179263581">
        <ele>445.71</ele>
        <time>2020-08-14T10:51:33Z</time>
      </trkpt>
      <trkpt lat="42.4402183201" lon="-7.9180753883">
        <ele>445.71</ele>
        <time>2020-08-14T10:51:41Z</time>
      </trkpt>
      <trkpt lat="42.4403202441" lon="-7.9182370752">
        <ele>449.55</ele>
        <time>2020-08-14T10:51:50Z</time>
      </trkpt>
      <trkpt lat="42.4405052327" lon="-7.9184945673">
        <ele>448.59</ele>
        <time>2020-08-14T10:52:02Z</time>
      </trkpt>
      <trkpt lat="42.4406795762" lon="-7.9187874310">
        <ele>447.63</ele>
        <time>2020-08-14T10:52:14Z</time>
      </trkpt>
      <trkpt lat="42.4408209790" lon="-7.9190191906">
        <ele>447.63</ele>
        <time>2020-08-14T10:52:23Z</time>
      </trkpt>
      <trkpt lat="42.4409260880" lon="-7.9192635231">
        <ele>448.59</ele>
        <time>2020-08-14T10:52:32Z</time>
      </trkpt>
      <trkpt lat="42.4409969989" lon="-7.9194983002">
        <ele>448.11</ele>
        <time>2020-08-14T10:52:40Z</time>
      </trkpt>
      <trkpt lat="42.4410595279" lon="-7.9195701331">
        <ele>448.59</ele>
        <time>2020-08-14T10:52:45Z</time>
      </trkpt>
      <trkpt lat="42.4410696700" lon="-7.9195899144">
        <ele>448.59</ele>
        <time>2020-08-14T10:52:46Z</time>
      </trkpt>
      <trkpt lat="42.4411654752" lon="-7.9197982885">
        <ele>448.11</ele>
        <time>2020-08-14T10:52:54Z</time>
      </trkpt>
      <trkpt lat="42.4412255734" lon="-7.9201055691">
        <ele>447.15</ele>
        <time>2020-08-14T10:53:04Z</time>
      </trkpt>
      <trkpt lat="42.4412718415" lon="-7.9204374924">
        <ele>446.19</ele>
        <time>2020-08-14T10:53:13Z</time>
      </trkpt>
      <trkpt lat="42.4413099792" lon="-7.9207568429">
        <ele>445.71</ele>
        <time>2020-08-14T10:53:21Z</time>
      </trkpt>
      <trkpt lat="42.4413402379" lon="-7.9210000858">
        <ele>444.27</ele>
        <time>2020-08-14T10:53:27Z</time>
      </trkpt>
      <trkpt lat="42.4413958937" lon="-7.9213993996">
        <ele>436.58</ele>
        <time>2020-08-14T10:53:36Z</time>
      </trkpt>
      <trkpt lat="42.4415447563" lon="-7.9219044093">
        <ele>433.21</ele>
        <time>2020-08-14T10:53:45Z</time>
      </trkpt>
      <trkpt lat="42.4416522961" lon="-7.9222274479">
        <ele>435.61</ele>
        <time>2020-08-14T10:53:51Z</time>
      </trkpt>
      <trkpt lat="42.4418035056" lon="-7.9226727784">
        <ele>436.10</ele>
        <time>2020-08-14T10:53:58Z</time>
      </trkpt>
      <trkpt lat="42.4418491870" lon="-7.9228184558">
        <ele>435.61</ele>
        <time>2020-08-14T10:54:00Z</time>
      </trkpt>
      <trkpt lat="42.4419495184" lon="-7.9232199490">
        <ele>435.61</ele>
        <time>2020-08-14T10:54:06Z</time>
      </trkpt>
      <trkpt lat="42.4421951920" lon="-7.9236514494">
        <ele>435.61</ele>
        <time>2020-08-14T10:54:13Z</time>
      </trkpt>
      <trkpt lat="42.4424463138" lon="-7.9241138790">
        <ele>434.65</ele>
        <time>2020-08-14T10:54:20Z</time>
      </trkpt>
      <trkpt lat="42.4426398519" lon="-7.9245705251">
        <ele>432.25</ele>
        <time>2020-08-14T10:54:26Z</time>
      </trkpt>
      <trkpt lat="42.4428172968" lon="-7.9249950685">
        <ele>430.33</ele>
        <time>2020-08-14T10:54:33Z</time>
      </trkpt>
      <trkpt lat="42.4429874495" lon="-7.9252076335">
        <ele>432.73</ele>
        <time>2020-08-14T10:54:40Z</time>
      </trkpt>
      <trkpt lat="42.4432034511" lon="-7.9254438356">
        <ele>433.21</ele>
        <time>2020-08-14T10:54:48Z</time>
      </trkpt>
      <trkpt lat="42.4433958996" lon="-7.9257857334">
        <ele>431.77</ele>
        <time>2020-08-14T10:54:56Z</time>
      </trkpt>
      <trkpt lat="42.4434192013" lon="-7.9258362763">
        <ele>431.29</ele>
        <time>2020-08-14T10:54:57Z</time>
      </trkpt>
      <trkpt lat="42.4434634577" lon="-7.9259438999">
        <ele>430.81</ele>
        <time>2020-08-14T10:54:59Z</time>
      </trkpt>
      <trkpt lat="42.4434913695" lon="-7.9259930179">
        <ele>430.33</ele>
        <time>2020-08-14T10:55:00Z</time>
      </trkpt>
      <trkpt lat="42.4435216282" lon="-7.9260449018">
        <ele>430.33</ele>
        <time>2020-08-14T10:55:01Z</time>
      </trkpt>
      <trkpt lat="42.4437164236" lon="-7.9264163040">
        <ele>428.89</ele>
        <time>2020-08-14T10:55:09Z</time>
      </trkpt>
      <trkpt lat="42.4438040145" lon="-7.9265373386">
        <ele>428.89</ele>
        <time>2020-08-14T10:55:12Z</time>
      </trkpt>
      <trkpt lat="42.4439986423" lon="-7.9267147835">
        <ele>428.40</ele>
        <time>2020-08-14T10:55:19Z</time>
      </trkpt>
      <trkpt lat="42.4441081937" lon="-7.9268234130">
        <ele>427.44</ele>
        <time>2020-08-14T10:55:25Z</time>
      </trkpt>
      <trkpt lat="42.4441271368" lon="-7.9269889556">
        <ele>424.56</ele>
        <time>2020-08-14T10:55:30Z</time>
      </trkpt>
      <trkpt lat="42.4440999795" lon="-7.9272872675">
        <ele>422.16</ele>
        <time>2020-08-14T10:55:36Z</time>
      </trkpt>
      <trkpt lat="42.4442287255" lon="-7.9275363777">
        <ele>421.19</ele>
        <time>2020-08-14T10:55:42Z</time>
      </trkpt>
      <trkpt lat="42.4444482476" lon="-7.9277795367">
        <ele>419.75</ele>
        <time>2020-08-14T10:55:50Z</time>
      </trkpt>
      <trkpt lat="42.4446005467" lon="-7.9280206002">
        <ele>418.79</ele>
        <time>2020-08-14T10:55:56Z</time>
      </trkpt>
      <trkpt lat="42.4447752256" lon="-7.9285908211">
        <ele>415.43</ele>
        <time>2020-08-14T10:56:05Z</time>
      </trkpt>
      <trkpt lat="42.4447976891" lon="-7.9286564514">
        <ele>414.95</ele>
        <time>2020-08-14T10:56:06Z</time>
      </trkpt>
      <trkpt lat="42.4448289536" lon="-7.9287235904">
        <ele>413.98</ele>
        <time>2020-08-14T10:56:07Z</time>
      </trkpt>
      <trkpt lat="42.4448658340" lon="-7.9287846945">
        <ele>413.50</ele>
        <time>2020-08-14T10:56:08Z</time>
      </trkpt>
      <trkpt lat="42.4451794010" lon="-7.9292586911">
        <ele>408.70</ele>
        <time>2020-08-14T10:56:16Z</time>
      </trkpt>
      <trkpt lat="42.4452185445" lon="-7.9293080606">
        <ele>408.70</ele>
        <time>2020-08-14T10:56:17Z</time>
      </trkpt>
      <trkpt lat="42.4452623818" lon="-7.9293510597">
        <ele>408.70</ele>
        <time>2020-08-14T10:56:18Z</time>
      </trkpt>
      <trkpt lat="42.4453065544" lon="-7.9293822404">
        <ele>408.22</ele>
        <time>2020-08-14T10:56:19Z</time>
      </trkpt>
      <trkpt lat="42.4453596957" lon="-7.9294022731">
        <ele>407.74</ele>
        <time>2020-08-14T10:56:20Z</time>
      </trkpt>
      <trkpt lat="42.4454116635" lon="-7.9294080567">
        <ele>407.74</ele>
        <time>2020-08-14T10:56:21Z</time>
      </trkpt>
      <trkpt lat="42.4454698339" lon="-7.9294106551">
        <ele>407.26</ele>
        <time>2020-08-14T10:56:22Z</time>
      </trkpt>
      <trkpt lat="42.4456926249" lon="-7.9294012673">
        <ele>404.85</ele>
        <time>2020-08-14T10:56:27Z</time>
      </trkpt>
      <trkpt lat="42.4457135797" lon="-7.9294143431">
        <ele>404.37</ele>
        <time>2020-08-14T10:56:28Z</time>
      </trkpt>
      <trkpt lat="42.4457262363" lon="-7.9294402432">
        <ele>403.89</ele>
        <time>2020-08-14T10:56:29Z</time>
      </trkpt>
      <trkpt lat="42.4457289185" lon="-7.9294788837">
        <ele>403.41</ele>
        <time>2020-08-14T10:56:30Z</time>
      </trkpt>
      <trkpt lat="42.4457268231" lon="-7.9295031913">
        <ele>403.41</ele>
        <time>2020-08-14T10:56:31Z</time>
      </trkpt>
      <trkpt lat="42.4457134120" lon="-7.9295405746">
        <ele>403.41</ele>
        <time>2020-08-14T10:56:32Z</time>
      </trkpt>
      <trkpt lat="42.4456945527" lon="-7.9295765329">
        <ele>403.89</ele>
        <time>2020-08-14T10:56:33Z</time>
      </trkpt>
      <trkpt lat="42.4456712510" lon="-7.9296154249">
        <ele>403.89</ele>
        <time>2020-08-14T10:56:34Z</time>
      </trkpt>
      <trkpt lat="42.4455280881" lon="-7.9299551435">
        <ele>402.93</ele>
        <time>2020-08-14T10:56:42Z</time>
      </trkpt>
      <trkpt lat="42.4454329535" lon="-7.9302837979">
        <ele>401.49</ele>
        <time>2020-08-14T10:56:50Z</time>
      </trkpt>
      <trkpt lat="42.4454355519" lon="-7.9303426389">
        <ele>401.49</ele>
        <time>2020-08-14T10:56:52Z</time>
      </trkpt>
      <trkpt lat="42.4454435986" lon="-7.9303668626">
        <ele>401.01</ele>
        <time>2020-08-14T10:56:53Z</time>
      </trkpt>
      <trkpt lat="42.4454518966" lon="-7.9303811956">
        <ele>401.01</ele>
        <time>2020-08-14T10:56:54Z</time>
      </trkpt>
      <trkpt lat="42.4455623701" lon="-7.9305177368">
        <ele>400.05</ele>
        <time>2020-08-14T10:57:00Z</time>
      </trkpt>
      <trkpt lat="42.4457274936" lon="-7.9307239316">
        <ele>398.60</ele>
        <time>2020-08-14T10:57:08Z</time>
      </trkpt>
      <trkpt lat="42.4458353687" lon="-7.9308575392">
        <ele>398.12</ele>
        <time>2020-08-14T10:57:14Z</time>
      </trkpt>
      <trkpt lat="42.4460310861" lon="-7.9310031328">
        <ele>396.68</ele>
        <time>2020-08-14T10:57:22Z</time>
      </trkpt>
      <trkpt lat="42.4461991433" lon="-7.9311327171">
        <ele>394.76</ele>
        <time>2020-08-14T10:57:29Z</time>
      </trkpt>
      <trkpt lat="42.4463621713" lon="-7.9312916379">
        <ele>393.80</ele>
        <time>2020-08-14T10:57:37Z</time>
      </trkpt>
      <trkpt lat="42.4465141352" lon="-7.9315129202">
        <ele>391.87</ele>
        <time>2020-08-14T10:57:45Z</time>
      </trkpt>
      <trkpt lat="42.4467137083" lon="-7.9318057001">
        <ele>390.91</ele>
        <time>2020-08-14T10:57:54Z</time>
      </trkpt>
      <trkpt lat="42.4469686020" lon="-7.9321610928">
        <ele>390.43</ele>
        <time>2020-08-14T10:58:04Z</time>
      </trkpt>
      <trkpt lat="42.4471768923" lon="-7.9324458260">
        <ele>389.95</ele>
        <time>2020-08-14T10:58:12Z</time>
      </trkpt>
      <trkpt lat="42.4473754596" lon="-7.9327018932">
        <ele>388.99</ele>
        <time>2020-08-14T10:58:20Z</time>
      </trkpt>
      <trkpt lat="42.4476048723" lon="-7.9329241812">
        <ele>388.51</ele>
        <time>2020-08-14T10:58:29Z</time>
      </trkpt>
      <trkpt lat="42.4478533957" lon="-7.9331173841">
        <ele>386.59</ele>
        <time>2020-08-14T10:58:39Z</time>
      </trkpt>
      <trkpt lat="42.4481793679" lon="-7.9333699308">
        <ele>385.15</ele>
        <time>2020-08-14T10:58:50Z</time>
      </trkpt>
      <trkpt lat="42.4484490976" lon="-7.9335550871">
        <ele>384.66</ele>
        <time>2020-08-14T10:58:59Z</time>
      </trkpt>
      <trkpt lat="42.4485962838" lon="-7.9337283410">
        <ele>382.26</ele>
        <time>2020-08-14T10:59:06Z</time>
      </trkpt>
      <trkpt lat="42.4486619141" lon="-7.9338342883">
        <ele>381.30</ele>
        <time>2020-08-14T10:59:12Z</time>
      </trkpt>
      <trkpt lat="42.4486622494" lon="-7.9338429216">
        <ele>381.78</ele>
        <time>2020-08-14T10:59:19Z</time>
      </trkpt>
      <trkpt lat="42.4486691225" lon="-7.9338650499">
        <ele>383.22</ele>
        <time>2020-08-14T10:59:27Z</time>
      </trkpt>
      <trkpt lat="42.4486833718" lon="-7.9338849988">
        <ele>383.70</ele>
        <time>2020-08-14T10:59:36Z</time>
      </trkpt>
      <trkpt lat="42.4487031531" lon="-7.9338974878">
        <ele>385.15</ele>
        <time>2020-08-14T10:59:46Z</time>
      </trkpt>
      <trkpt lat="42.4487795960" lon="-7.9338859208">
        <ele>387.07</ele>
        <time>2020-08-14T10:59:57Z</time>
      </trkpt>
      <trkpt lat="42.4487849604" lon="-7.9338970687">
        <ele>387.07</ele>
        <time>2020-08-14T11:00:11Z</time>
      </trkpt>
      <trkpt lat="42.4488558713" lon="-7.9338770360">
        <ele>387.07</ele>
        <time>2020-08-14T11:00:20Z</time>
      </trkpt>
      <trkpt lat="42.4489314761" lon="-7.9338399880">
        <ele>386.59</ele>
        <time>2020-08-14T11:00:30Z</time>
      </trkpt>
      <trkpt lat="42.4489798397" lon="-7.9337979946">
        <ele>386.11</ele>
        <time>2020-08-14T11:00:37Z</time>
      </trkpt>
      <trkpt lat="42.4490618147" lon="-7.9337095656">
        <ele>385.63</ele>
        <time>2020-08-14T11:00:47Z</time>
      </trkpt>
      <trkpt lat="42.4490909837" lon="-7.9336787201">
        <ele>385.63</ele>
        <time>2020-08-14T11:00:51Z</time>
      </trkpt>
      <trkpt lat="42.4491604697" lon="-7.9336474556">
        <ele>387.07</ele>
        <time>2020-08-14T11:00:59Z</time>
      </trkpt>
      <trkpt lat="42.4493017886" lon="-7.9336204659">
        <ele>388.03</ele>
        <time>2020-08-14T11:01:12Z</time>
      </trkpt>
      <trkpt lat="42.4493876193" lon="-7.9336137604">
        <ele>388.03</ele>
        <time>2020-08-14T11:01:21Z</time>
      </trkpt>
      <trkpt lat="42.4494671635" lon="-7.9336384032">
        <ele>388.03</ele>
        <time>2020-08-14T11:01:28Z</time>
      </trkpt>
      <trkpt lat="42.4495156109" lon="-7.9336655606">
        <ele>387.55</ele>
        <time>2020-08-14T11:01:33Z</time>
      </trkpt>
      <trkpt lat="42.4495267589" lon="-7.9336679913">
        <ele>387.55</ele>
        <time>2020-08-14T11:01:34Z</time>
      </trkpt>
      <trkpt lat="42.4495895393" lon="-7.9336657282">
        <ele>386.11</ele>
        <time>2020-08-14T11:01:43Z</time>
      </trkpt>
      <trkpt lat="42.4495901261" lon="-7.9336748645">
        <ele>384.66</ele>
        <time>2020-08-14T11:01:53Z</time>
      </trkpt>
      <trkpt lat="42.4495947361" lon="-7.9336720984">
        <ele>383.22</ele>
        <time>2020-08-14T11:02:03Z</time>
      </trkpt>
      <trkpt lat="42.4496943969" lon="-7.9337142594">
        <ele>382.74</ele>
        <time>2020-08-14T11:02:09Z</time>
      </trkpt>
      <trkpt lat="42.4499309342" lon="-7.9338238109">
        <ele>382.26</ele>
        <time>2020-08-14T11:02:18Z</time>
      </trkpt>
      <trkpt lat="42.4501657113" lon="-7.9339559097">
        <ele>382.74</ele>
        <time>2020-08-14T11:02:27Z</time>
      </trkpt>
      <trkpt lat="42.4504664540" lon="-7.9341258109">
        <ele>384.18</ele>
        <time>2020-08-14T11:02:38Z</time>
      </trkpt>
      <trkpt lat="42.4507604912" lon="-7.9342915211">
        <ele>383.22</ele>
        <time>2020-08-14T11:02:49Z</time>
      </trkpt>
      <trkpt lat="42.4509957712" lon="-7.9344171658">
        <ele>384.66</ele>
        <time>2020-08-14T11:02:58Z</time>
      </trkpt>
      <trkpt lat="42.4513320532" lon="-7.9345914256">
        <ele>385.63</ele>
        <time>2020-08-14T11:03:10Z</time>
      </trkpt>
      <trkpt lat="42.4514844362" lon="-7.9346699640">
        <ele>386.59</ele>
        <time>2020-08-14T11:03:16Z</time>
      </trkpt>
      <trkpt lat="42.4517422635" lon="-7.9347867239">
        <ele>388.51</ele>
        <time>2020-08-14T11:03:25Z</time>
      </trkpt>
      <trkpt lat="42.4519523978" lon="-7.9348626640">
        <ele>390.43</ele>
        <time>2020-08-14T11:03:33Z</time>
      </trkpt>
      <trkpt lat="42.4520995840" lon="-7.9348350037">
        <ele>391.87</ele>
        <time>2020-08-14T11:03:41Z</time>
      </trkpt>
      <trkpt lat="42.4522339460" lon="-7.9347559623">
        <ele>392.36</ele>
        <time>2020-08-14T11:03:49Z</time>
      </trkpt>
      <trkpt lat="42.4524118099" lon="-7.9346758313">
        <ele>393.80</ele>
        <time>2020-08-14T11:03:59Z</time>
      </trkpt>
      <trkpt lat="42.4526092038" lon="-7.9345919285">
        <ele>395.24</ele>
        <time>2020-08-14T11:04:10Z</time>
      </trkpt>
      <trkpt lat="42.4527968746" lon="-7.9345195089">
        <ele>395.72</ele>
        <time>2020-08-14T11:04:20Z</time>
      </trkpt>
      <trkpt lat="42.4530367646" lon="-7.9344186746">
        <ele>396.20</ele>
        <time>2020-08-14T11:04:32Z</time>
      </trkpt>
      <trkpt lat="42.4532185681" lon="-7.9343482666">
        <ele>397.64</ele>
        <time>2020-08-14T11:04:41Z</time>
      </trkpt>
      <trkpt lat="42.4534055684" lon="-7.9342614301">
        <ele>399.08</ele>
        <time>2020-08-14T11:04:51Z</time>
      </trkpt>
      <trkpt lat="42.4535690993" lon="-7.9341920279">
        <ele>400.05</ele>
        <time>2020-08-14T11:05:01Z</time>
      </trkpt>
      <trkpt lat="42.4537049700" lon="-7.9341358691">
        <ele>401.49</ele>
        <time>2020-08-14T11:05:10Z</time>
      </trkpt>
      <trkpt lat="42.4538333807" lon="-7.9340967257">
        <ele>402.45</ele>
        <time>2020-08-14T11:05:18Z</time>
      </trkpt>
      <trkpt lat="42.4539376516" lon="-7.9340801295">
        <ele>402.45</ele>
        <time>2020-08-14T11:05:27Z</time>
      </trkpt>
      <trkpt lat="42.4539666530" lon="-7.9340843204">
        <ele>402.93</ele>
        <time>2020-08-14T11:05:29Z</time>
      </trkpt>
      <trkpt lat="42.4539817404" lon="-7.9340827279">
        <ele>402.93</ele>
        <time>2020-08-14T11:05:30Z</time>
      </trkpt>
      <trkpt lat="42.4539961573" lon="-7.9340815544">
        <ele>402.93</ele>
        <time>2020-08-14T11:05:31Z</time>
      </trkpt>
      <trkpt lat="42.4541399069" lon="-7.9340520501">
        <ele>404.37</ele>
        <time>2020-08-14T11:05:41Z</time>
      </trkpt>
      <trkpt lat="42.4542772025" lon="-7.9340057820">
        <ele>407.26</ele>
        <time>2020-08-14T11:05:51Z</time>
      </trkpt>
      <trkpt lat="42.4543449283" lon="-7.9339610226">
        <ele>408.22</ele>
        <time>2020-08-14T11:05:57Z</time>
      </trkpt>
      <trkpt lat="42.4544040207" lon="-7.9339773674">
        <ele>408.70</ele>
        <time>2020-08-14T11:06:03Z</time>
      </trkpt>
      <trkpt lat="42.4544993229" lon="-7.9340573307">
        <ele>409.18</ele>
        <time>2020-08-14T11:06:12Z</time>
      </trkpt>
      <trkpt lat="42.4545842316" lon="-7.9341579974">
        <ele>410.62</ele>
        <time>2020-08-14T11:06:21Z</time>
      </trkpt>
      <trkpt lat="42.4546779413" lon="-7.9342628550">
        <ele>412.54</ele>
        <time>2020-08-14T11:06:30Z</time>
      </trkpt>
      <trkpt lat="42.4547781050" lon="-7.9343840573">
        <ele>413.02</ele>
        <time>2020-08-14T11:06:39Z</time>
      </trkpt>
      <trkpt lat="42.4548863154" lon="-7.9344962072">
        <ele>413.98</ele>
        <time>2020-08-14T11:06:49Z</time>
      </trkpt>
      <trkpt lat="42.4549901672" lon="-7.9345768411">
        <ele>415.43</ele>
        <time>2020-08-14T11:06:58Z</time>
      </trkpt>
      <trkpt lat="42.4550693762" lon="-7.9346444830">
        <ele>416.39</ele>
        <time>2020-08-14T11:07:05Z</time>
      </trkpt>
      <trkpt lat="42.4551795982" lon="-7.9347443953">
        <ele>419.75</ele>
        <time>2020-08-14T11:07:15Z</time>
      </trkpt>
      <trkpt lat="42.4552463181" lon="-7.9349207506">
        <ele>421.68</ele>
        <time>2020-08-14T11:07:26Z</time>
      </trkpt>
      <trkpt lat="42.4552882276" lon="-7.9350976925">
        <ele>424.08</ele>
        <time>2020-08-14T11:07:36Z</time>
      </trkpt>
      <trkpt lat="42.4553534389" lon="-7.9352823459">
        <ele>426.48</ele>
        <time>2020-08-14T11:07:46Z</time>
      </trkpt>
      <trkpt lat="42.4553939234" lon="-7.9354117624">
        <ele>427.92</ele>
        <time>2020-08-14T11:07:54Z</time>
      </trkpt>
      <trkpt lat="42.4553976115" lon="-7.9354254249">
        <ele>427.92</ele>
        <time>2020-08-14T11:07:55Z</time>
      </trkpt>
      <trkpt lat="42.4554007128" lon="-7.9354416020">
        <ele>427.92</ele>
        <time>2020-08-14T11:07:56Z</time>
      </trkpt>
      <trkpt lat="42.4554056581" lon="-7.9354558513">
        <ele>427.92</ele>
        <time>2020-08-14T11:07:57Z</time>
      </trkpt>
      <trkpt lat="42.4554233439" lon="-7.9354997724">
        <ele>429.37</ele>
        <time>2020-08-14T11:08:00Z</time>
      </trkpt>
      <trkpt lat="42.4554286245" lon="-7.9355139378">
        <ele>429.85</ele>
        <time>2020-08-14T11:08:01Z</time>
      </trkpt>
      <trkpt lat="42.4554354977" lon="-7.9355276003">
        <ele>430.33</ele>
        <time>2020-08-14T11:08:02Z</time>
      </trkpt>
      <trkpt lat="42.4554452207" lon="-7.9355396703">
        <ele>430.33</ele>
        <time>2020-08-14T11:08:03Z</time>
      </trkpt>
      <trkpt lat="42.4554571230" lon="-7.9355501477">
        <ele>430.33</ele>
        <time>2020-08-14T11:08:04Z</time>
      </trkpt>
      <trkpt lat="42.4554676842" lon="-7.9355599545">
        <ele>430.33</ele>
        <time>2020-08-14T11:08:05Z</time>
      </trkpt>
      <trkpt lat="42.4554805923" lon="-7.9355676658">
        <ele>430.81</ele>
        <time>2020-08-14T11:08:06Z</time>
      </trkpt>
      <trkpt lat="42.4554925784" lon="-7.9355731979">
        <ele>430.81</ele>
        <time>2020-08-14T11:08:07Z</time>
      </trkpt>
      <trkpt lat="42.4555024691" lon="-7.9355769698">
        <ele>430.81</ele>
        <time>2020-08-14T11:08:08Z</time>
      </trkpt>
      <trkpt lat="42.4555411097" lon="-7.9355749581">
        <ele>430.81</ele>
        <time>2020-08-14T11:08:12Z</time>
      </trkpt>
      <trkpt lat="42.4555746373" lon="-7.9355579428">
        <ele>431.29</ele>
        <time>2020-08-14T11:08:20Z</time>
      </trkpt>
      <trkpt lat="42.4555756431" lon="-7.9355612956">
        <ele>430.33</ele>
        <time>2020-08-14T11:08:34Z</time>
      </trkpt>
      <trkpt lat="42.4556303769" lon="-7.9355211463">
        <ele>431.77</ele>
        <time>2020-08-14T11:08:44Z</time>
      </trkpt>
      <trkpt lat="42.4557312112" lon="-7.9354296997">
        <ele>432.73</ele>
        <time>2020-08-14T11:08:56Z</time>
      </trkpt>
      <trkpt lat="42.4558127671" lon="-7.9353613872">
        <ele>434.17</ele>
        <time>2020-08-14T11:09:06Z</time>
      </trkpt>
      <trkpt lat="42.4559280183" lon="-7.9352595471">
        <ele>436.10</ele>
        <time>2020-08-14T11:09:19Z</time>
      </trkpt>
      <trkpt lat="42.4559892062" lon="-7.9351954255">
        <ele>437.54</ele>
        <time>2020-08-14T11:09:30Z</time>
      </trkpt>
      <trkpt lat="42.4560508132" lon="-7.9351464752">
        <ele>438.02</ele>
        <time>2020-08-14T11:09:37Z</time>
      </trkpt>
      <trkpt lat="42.4561653100" lon="-7.9350624047">
        <ele>438.98</ele>
        <time>2020-08-14T11:09:49Z</time>
      </trkpt>
      <trkpt lat="42.4562557507" lon="-7.9350427072">
        <ele>439.94</ele>
        <time>2020-08-14T11:09:58Z</time>
      </trkpt>
      <trkpt lat="42.4563466944" lon="-7.9350701999">
        <ele>440.90</ele>
        <time>2020-08-14T11:10:09Z</time>
      </trkpt>
      <trkpt lat="42.4564349558" lon="-7.9351183958">
        <ele>441.38</ele>
        <time>2020-08-14T11:10:18Z</time>
      </trkpt>
      <trkpt lat="42.4565412384" lon="-7.9351644963">
        <ele>441.86</ele>
        <time>2020-08-14T11:10:28Z</time>
      </trkpt>
      <trkpt lat="42.4566422403" lon="-7.9351898935">
        <ele>444.75</ele>
        <time>2020-08-14T11:10:37Z</time>
      </trkpt>
      <trkpt lat="42.4567046016" lon="-7.9351708665">
        <ele>445.71</ele>
        <time>2020-08-14T11:10:47Z</time>
      </trkpt>
      <trkpt lat="42.4567213655" lon="-7.9351665918">
        <ele>446.19</ele>
        <time>2020-08-14T11:10:57Z</time>
      </trkpt>
      <trkpt lat="42.4567421526" lon="-7.9351847805">
        <ele>445.71</ele>
        <time>2020-08-14T11:11:13Z</time>
      </trkpt>
      <trkpt lat="42.4567562342" lon="-7.9351722915">
        <ele>445.23</ele>
        <time>2020-08-14T11:11:31Z</time>
      </trkpt>
      <trkpt lat="42.4567379616" lon="-7.9351725429">
        <ele>445.23</ele>
        <time>2020-08-14T11:11:48Z</time>
      </trkpt>
      <trkpt lat="42.4567170069" lon="-7.9351702798">
        <ele>444.75</ele>
        <time>2020-08-14T11:12:09Z</time>
      </trkpt>
      <trkpt lat="42.4567211140" lon="-7.9351924919">
        <ele>448.59</ele>
        <time>2020-08-14T11:12:27Z</time>
      </trkpt>
      <trkpt lat="42.4567248859" lon="-7.9351828527">
        <ele>451.96</ele>
        <time>2020-08-14T11:12:43Z</time>
      </trkpt>
      <trkpt lat="42.4567404762" lon="-7.9351999518">
        <ele>449.55</ele>
        <time>2020-08-14T11:12:56Z</time>
      </trkpt>
      <trkpt lat="42.4567419849" lon="-7.9352126922">
        <ele>448.59</ele>
        <time>2020-08-14T11:13:15Z</time>
      </trkpt>
      <trkpt lat="42.4567720760" lon="-7.9352258518">
        <ele>453.40</ele>
        <time>2020-08-14T11:13:32Z</time>
      </trkpt>
      <trkpt lat="42.4568185117" lon="-7.9352152068">
        <ele>454.36</ele>
        <time>2020-08-14T11:13:46Z</time>
      </trkpt>
      <trkpt lat="42.4567839783" lon="-7.9352054000">
        <ele>456.28</ele>
        <time>2020-08-14T11:14:02Z</time>
      </trkpt>
      <trkpt lat="42.4567998201" lon="-7.9352151230">
        <ele>453.40</ele>
        <time>2020-08-14T11:14:18Z</time>
      </trkpt>
      <trkpt lat="42.4567760993" lon="-7.9352188110">
        <ele>454.84</ele>
        <time>2020-08-14T11:14:32Z</time>
      </trkpt>
      <trkpt lat="42.4567786139" lon="-7.9352086689">
        <ele>455.32</ele>
        <time>2020-08-14T11:14:43Z</time>
      </trkpt>
      <trkpt lat="42.4567872472" lon="-7.9351846129">
        <ele>457.72</ele>
        <time>2020-08-14T11:14:59Z</time>
      </trkpt>
      <trkpt lat="42.4567709025" lon="-7.9352048971">
        <ele>455.32</ele>
        <time>2020-08-14T11:15:15Z</time>
      </trkpt>
      <trkpt lat="42.4567488581" lon="-7.9351800866">
        <ele>453.88</ele>
        <time>2020-08-14T11:15:38Z</time>
      </trkpt>
      <trkpt lat="42.4567501992" lon="-7.9351808410">
        <ele>448.59</ele>
        <time>2020-08-14T11:15:55Z</time>
      </trkpt>
      <trkpt lat="42.4567729142" lon="-7.9351553600">
        <ele>448.59</ele>
        <time>2020-08-14T11:16:10Z</time>
      </trkpt>
      <trkpt lat="42.4567478523" lon="-7.9352056514">
        <ele>447.15</ele>
        <time>2020-08-14T11:16:29Z</time>
      </trkpt>
      <trkpt lat="42.4567687232" lon="-7.9351719562">
        <ele>444.75</ele>
        <time>2020-08-14T11:16:47Z</time>
      </trkpt>
      <trkpt lat="42.4567631073" lon="-7.9351638258">
        <ele>445.71</ele>
        <time>2020-08-14T11:17:05Z</time>
      </trkpt>
      <trkpt lat="42.4567273166" lon="-7.9351487383">
        <ele>446.67</ele>
        <time>2020-08-14T11:17:27Z</time>
      </trkpt>
      <trkpt lat="42.4567468464" lon="-7.9351375066">
        <ele>447.15</ele>
        <time>2020-08-14T11:17:47Z</time>
      </trkpt>
      <trkpt lat="42.4567378778" lon="-7.9351709504">
        <ele>450.03</ele>
        <time>2020-08-14T11:18:16Z</time>
      </trkpt>
      <trkpt lat="42.4567350280" lon="-7.9351763148">
        <ele>450.03</ele>
        <time>2020-08-14T11:18:52Z</time>
      </trkpt>
      <trkpt lat="42.4567273166" lon="-7.9351568688">
        <ele>450.52</ele>
        <time>2020-08-14T11:19:28Z</time>
      </trkpt>
      <trkpt lat="42.4567429908" lon="-7.9351611435">
        <ele>449.07</ele>
        <time>2020-08-14T11:19:55Z</time>
      </trkpt>
      <trkpt lat="42.4567098822" lon="-7.9351794161">
        <ele>450.03</ele>
        <time>2020-08-14T11:20:17Z</time>
      </trkpt>
      <trkpt lat="42.4567066971" lon="-7.9351679329">
        <ele>450.03</ele>
        <time>2020-08-14T11:20:40Z</time>
      </trkpt>
      <trkpt lat="42.4567354470" lon="-7.9351675976">
        <ele>450.03</ele>
        <time>2020-08-14T11:20:52Z</time>
      </trkpt>
      <trkpt lat="42.4568045139" lon="-7.9351482354">
        <ele>449.55</ele>
        <time>2020-08-14T11:20:58Z</time>
      </trkpt>
      <trkpt lat="42.4568338506" lon="-7.9351598024">
        <ele>449.07</ele>
        <time>2020-08-14T11:21:00Z</time>
      </trkpt>
      <trkpt lat="42.4568463396" lon="-7.9351742193">
        <ele>449.07</ele>
        <time>2020-08-14T11:21:01Z</time>
      </trkpt>
      <trkpt lat="42.4568542186" lon="-7.9351863731">
        <ele>448.59</ele>
        <time>2020-08-14T11:21:02Z</time>
      </trkpt>
      <trkpt lat="42.4568588287" lon="-7.9351972695">
        <ele>448.59</ele>
        <time>2020-08-14T11:21:03Z</time>
      </trkpt>
      <trkpt lat="42.4568628520" lon="-7.9352130275">
        <ele>448.11</ele>
        <time>2020-08-14T11:21:09Z</time>
      </trkpt>
      <trkpt lat="42.4568610080" lon="-7.9352543503">
        <ele>447.15</ele>
        <time>2020-08-14T11:21:12Z</time>
      </trkpt>
      <trkpt lat="42.4568821304" lon="-7.9354821704">
        <ele>446.67</ele>
        <time>2020-08-14T11:21:21Z</time>
      </trkpt>
      <trkpt lat="42.4568920210" lon="-7.9357398301">
        <ele>446.67</ele>
        <time>2020-08-14T11:21:29Z</time>
      </trkpt>
      <trkpt lat="42.4569201004" lon="-7.9360888526">
        <ele>446.19</ele>
        <time>2020-08-14T11:21:39Z</time>
      </trkpt>
      <trkpt lat="42.4569342658" lon="-7.9363863263">
        <ele>447.63</ele>
        <time>2020-08-14T11:21:47Z</time>
      </trkpt>
      <trkpt lat="42.4569456652" lon="-7.9367733188">
        <ele>449.55</ele>
        <time>2020-08-14T11:21:57Z</time>
      </trkpt>
      <trkpt lat="42.4569719844" lon="-7.9371331539">
        <ele>450.03</ele>
        <time>2020-08-14T11:22:06Z</time>
      </trkpt>
      <trkpt lat="42.4569946155" lon="-7.9375240020">
        <ele>451.96</ele>
        <time>2020-08-14T11:22:17Z</time>
      </trkpt>
      <trkpt lat="42.4569969624" lon="-7.9378952365">
        <ele>451.96</ele>
        <time>2020-08-14T11:22:28Z</time>
      </trkpt>
      <trkpt lat="42.4570140615" lon="-7.9381440114">
        <ele>452.92</ele>
        <time>2020-08-14T11:22:36Z</time>
      </trkpt>
      <trkpt lat="42.4570338428" lon="-7.9384351149">
        <ele>453.88</ele>
        <time>2020-08-14T11:22:45Z</time>
      </trkpt>
      <trkpt lat="42.4570432305" lon="-7.9386907630">
        <ele>454.84</ele>
        <time>2020-08-14T11:22:53Z</time>
      </trkpt>
      <trkpt lat="42.4570585694" lon="-7.9390178248">
        <ele>456.76</ele>
        <time>2020-08-14T11:23:04Z</time>
      </trkpt>
      <trkpt lat="42.4570711423" lon="-7.9392440524">
        <ele>458.69</ele>
        <time>2020-08-14T11:23:11Z</time>
      </trkpt>
      <trkpt lat="42.4570905045" lon="-7.9396044742">
        <ele>460.13</ele>
        <time>2020-08-14T11:23:22Z</time>
      </trkpt>
      <trkpt lat="42.4571100343" lon="-7.9398570210">
        <ele>461.09</ele>
        <time>2020-08-14T11:23:31Z</time>
      </trkpt>
      <trkpt lat="42.4571251217" lon="-7.9401033651">
        <ele>461.57</ele>
        <time>2020-08-14T11:23:40Z</time>
      </trkpt>
      <trkpt lat="42.4571364373" lon="-7.9403572530">
        <ele>462.53</ele>
        <time>2020-08-14T11:23:50Z</time>
      </trkpt>
      <trkpt lat="42.4571464956" lon="-7.9405131564">
        <ele>462.05</ele>
        <time>2020-08-14T11:23:57Z</time>
      </trkpt>
      <trkpt lat="42.4571600743" lon="-7.9407415632">
        <ele>463.01</ele>
        <time>2020-08-14T11:24:06Z</time>
      </trkpt>
      <trkpt lat="42.4571766704" lon="-7.9409743287">
        <ele>463.49</ele>
        <time>2020-08-14T11:24:15Z</time>
      </trkpt>
      <trkpt lat="42.4571921770" lon="-7.9412059207">
        <ele>464.93</ele>
        <time>2020-08-14T11:24:24Z</time>
      </trkpt>
      <trkpt lat="42.4571991339" lon="-7.9414062481">
        <ele>466.38</ele>
        <time>2020-08-14T11:24:32Z</time>
      </trkpt>
      <trkpt lat="42.4572056718" lon="-7.9416388460">
        <ele>466.86</ele>
        <time>2020-08-14T11:24:41Z</time>
      </trkpt>
      <trkpt lat="42.4572136346" lon="-7.9418637324">
        <ele>468.78</ele>
        <time>2020-08-14T11:24:50Z</time>
      </trkpt>
      <trkpt lat="42.4572216813" lon="-7.9420667421">
        <ele>469.74</ele>
        <time>2020-08-14T11:24:58Z</time>
      </trkpt>
      <trkpt lat="42.4572343379" lon="-7.9423055425">
        <ele>471.18</ele>
        <time>2020-08-14T11:25:07Z</time>
      </trkpt>
      <trkpt lat="42.4572454020" lon="-7.9426315986">
        <ele>472.14</ele>
        <time>2020-08-14T11:25:19Z</time>
      </trkpt>
      <trkpt lat="42.4572615791" lon="-7.9428574070">
        <ele>472.63</ele>
        <time>2020-08-14T11:25:28Z</time>
      </trkpt>
      <trkpt lat="42.4572791811" lon="-7.9431181680">
        <ele>472.63</ele>
        <time>2020-08-14T11:25:38Z</time>
      </trkpt>
      <trkpt lat="42.4572929274" lon="-7.9433541186">
        <ele>473.59</ele>
        <time>2020-08-14T11:25:47Z</time>
      </trkpt>
      <trkpt lat="42.4573080987" lon="-7.9435681924">
        <ele>473.59</ele>
        <time>2020-08-14T11:25:55Z</time>
      </trkpt>
      <trkpt lat="42.4573254492" lon="-7.9438466392">
        <ele>475.03</ele>
        <time>2020-08-14T11:26:06Z</time>
      </trkpt>
      <trkpt lat="42.4573343340" lon="-7.9440474696">
        <ele>475.99</ele>
        <time>2020-08-14T11:26:14Z</time>
      </trkpt>
      <trkpt lat="42.4573407043" lon="-7.9442517366">
        <ele>476.95</ele>
        <time>2020-08-14T11:26:22Z</time>
      </trkpt>
      <trkpt lat="42.4573615752" lon="-7.9444814008">
        <ele>476.47</ele>
        <time>2020-08-14T11:26:31Z</time>
      </trkpt>
      <trkpt lat="42.4573652633" lon="-7.9447621107">
        <ele>477.91</ele>
        <time>2020-08-14T11:26:42Z</time>
      </trkpt>
      <trkpt lat="42.4573692866" lon="-7.9450185969">
        <ele>478.87</ele>
        <time>2020-08-14T11:26:52Z</time>
      </trkpt>
      <trkpt lat="42.4573814403" lon="-7.9452539608">
        <ele>479.84</ele>
        <time>2020-08-14T11:27:01Z</time>
      </trkpt>
      <trkpt lat="42.4573892355" lon="-7.9455380235">
        <ele>482.24</ele>
        <time>2020-08-14T11:27:12Z</time>
      </trkpt>
      <trkpt lat="42.4574029818" lon="-7.9458087590">
        <ele>483.20</ele>
        <time>2020-08-14T11:27:22Z</time>
      </trkpt>
      <trkpt lat="42.4574153870" lon="-7.9461015388">
        <ele>483.68</ele>
        <time>2020-08-14T11:27:30Z</time>
      </trkpt>
      <trkpt lat="42.4574427120" lon="-7.9466109909">
        <ele>483.20</ele>
        <time>2020-08-14T11:27:42Z</time>
      </trkpt>
      <trkpt lat="42.4574627448" lon="-7.9470341094">
        <ele>483.68</ele>
        <time>2020-08-14T11:27:51Z</time>
      </trkpt>
      <trkpt lat="42.4574895669" lon="-7.9474656098">
        <ele>483.20</ele>
        <time>2020-08-14T11:28:00Z</time>
      </trkpt>
      <trkpt lat="42.4575262796" lon="-7.9481000360">
        <ele>484.16</ele>
        <time>2020-08-14T11:28:12Z</time>
      </trkpt>
      <trkpt lat="42.4575635791" lon="-7.9488176107">
        <ele>485.12</ele>
        <time>2020-08-14T11:28:26Z</time>
      </trkpt>
      <trkpt lat="42.4575895630" lon="-7.9492746759">
        <ele>486.08</ele>
        <time>2020-08-14T11:28:35Z</time>
      </trkpt>
      <trkpt lat="42.4576244317" lon="-7.9497871455">
        <ele>485.60</ele>
        <time>2020-08-14T11:28:45Z</time>
      </trkpt>
      <trkpt lat="42.4576456379" lon="-7.9502679314">
        <ele>486.08</ele>
        <time>2020-08-14T11:28:54Z</time>
      </trkpt>
      <trkpt lat="42.4576706160" lon="-7.9507192131">
        <ele>486.08</ele>
        <time>2020-08-14T11:29:02Z</time>
      </trkpt>
      <trkpt lat="42.4577118549" lon="-7.9514362849">
        <ele>486.56</ele>
        <time>2020-08-14T11:29:14Z</time>
      </trkpt>
      <trkpt lat="42.4577449635" lon="-7.9520957731">
        <ele>485.60</ele>
        <time>2020-08-14T11:29:25Z</time>
      </trkpt>
      <trkpt lat="42.4577898066" lon="-7.9526845179">
        <ele>484.64</ele>
        <time>2020-08-14T11:29:35Z</time>
      </trkpt>
      <trkpt lat="42.4578314647" lon="-7.9534222931">
        <ele>483.68</ele>
        <time>2020-08-14T11:29:47Z</time>
      </trkpt>
      <trkpt lat="42.4578764755" lon="-7.9541626666">
        <ele>482.72</ele>
        <time>2020-08-14T11:29:59Z</time>
      </trkpt>
      <trkpt lat="42.4579267669" lon="-7.9547260143">
        <ele>482.24</ele>
        <time>2020-08-14T11:30:08Z</time>
      </trkpt>
      <trkpt lat="42.4580322951" lon="-7.9554995801">
        <ele>481.76</ele>
        <time>2020-08-14T11:30:21Z</time>
      </trkpt>
      <trkpt lat="42.4581960775" lon="-7.9562146403">
        <ele>482.24</ele>
        <time>2020-08-14T11:30:34Z</time>
      </trkpt>
      <trkpt lat="42.4583655596" lon="-7.9568198137">
        <ele>479.84</ele>
        <time>2020-08-14T11:30:43Z</time>
      </trkpt>
      <trkpt lat="42.4585782085" lon="-7.9575086385">
        <ele>476.95</ele>
        <time>2020-08-14T11:30:51Z</time>
      </trkpt>
      <trkpt lat="42.4589012470" lon="-7.9585609026">
        <ele>472.14</ele>
        <time>2020-08-14T11:31:01Z</time>
      </trkpt>
      <trkpt lat="42.4592882395" lon="-7.9598398972">
        <ele>468.30</ele>
        <time>2020-08-14T11:31:12Z</time>
      </trkpt>
      <trkpt lat="42.4595769960" lon="-7.9607632477">
        <ele>467.34</ele>
        <time>2020-08-14T11:31:21Z</time>
      </trkpt>
      <trkpt lat="42.4597727135" lon="-7.9614108335">
        <ele>467.34</ele>
        <time>2020-08-14T11:31:29Z</time>
      </trkpt>
      <trkpt lat="42.4599441234" lon="-7.9619585909">
        <ele>467.82</ele>
        <time>2020-08-14T11:31:38Z</time>
      </trkpt>
      <trkpt lat="42.4600648228" lon="-7.9623716511">
        <ele>469.26</ele>
        <time>2020-08-14T11:31:48Z</time>
      </trkpt>
      <trkpt lat="42.4602030404" lon="-7.9627526924">
        <ele>472.14</ele>
        <time>2020-08-14T11:31:59Z</time>
      </trkpt>
      <trkpt lat="42.4603041261" lon="-7.9630624037">
        <ele>473.11</ele>
        <time>2020-08-14T11:32:08Z</time>
      </trkpt>
      <trkpt lat="42.4604219757" lon="-7.9634496477">
        <ele>474.55</ele>
        <time>2020-08-14T11:32:19Z</time>
      </trkpt>
      <trkpt lat="42.4605231453" lon="-7.9637533240">
        <ele>476.47</ele>
        <time>2020-08-14T11:32:28Z</time>
      </trkpt>
      <trkpt lat="42.4605598580" lon="-7.9638780467">
        <ele>477.43</ele>
        <time>2020-08-14T11:32:35Z</time>
      </trkpt>
      <trkpt lat="42.4606235605" lon="-7.9641042743">
        <ele>478.87</ele>
        <time>2020-08-14T11:32:45Z</time>
      </trkpt>
      <trkpt lat="42.4607053678" lon="-7.9643793683">
        <ele>480.32</ele>
        <time>2020-08-14T11:32:56Z</time>
      </trkpt>
      <trkpt lat="42.4607698247" lon="-7.9646255448">
        <ele>483.20</ele>
        <time>2020-08-14T11:33:06Z</time>
      </trkpt>
      <trkpt lat="42.4608586729" lon="-7.9649109486">
        <ele>485.12</ele>
        <time>2020-08-14T11:33:17Z</time>
      </trkpt>
      <trkpt lat="42.4609363731" lon="-7.9651472345">
        <ele>486.56</ele>
        <time>2020-08-14T11:33:26Z</time>
      </trkpt>
      <trkpt lat="42.4610274006" lon="-7.9654203169">
        <ele>487.53</ele>
        <time>2020-08-14T11:33:36Z</time>
      </trkpt>
      <trkpt lat="42.4610952940" lon="-7.9656397551">
        <ele>488.49</ele>
        <time>2020-08-14T11:33:44Z</time>
      </trkpt>
      <trkpt lat="42.4611620978" lon="-7.9658601154">
        <ele>488.97</ele>
        <time>2020-08-14T11:33:52Z</time>
      </trkpt>
      <trkpt lat="42.4612213578" lon="-7.9660664778">
        <ele>490.41</ele>
        <time>2020-08-14T11:34:00Z</time>
      </trkpt>
      <trkpt lat="42.4613044225" lon="-7.9663366266">
        <ele>491.37</ele>
        <time>2020-08-14T11:34:10Z</time>
      </trkpt>
      <trkpt lat="42.4613641016" lon="-7.9665362835">
        <ele>491.85</ele>
        <time>2020-08-14T11:34:18Z</time>
      </trkpt>
      <trkpt lat="42.4614279717" lon="-7.9667371977">
        <ele>492.81</ele>
        <time>2020-08-14T11:34:26Z</time>
      </trkpt>
      <trkpt lat="42.4615057558" lon="-7.9670027364">
        <ele>492.33</ele>
        <time>2020-08-14T11:34:35Z</time>
      </trkpt>
      <trkpt lat="42.4615790136" lon="-7.9672686942">
        <ele>491.37</ele>
        <time>2020-08-14T11:34:43Z</time>
      </trkpt>
      <trkpt lat="42.4616726395" lon="-7.9675447941">
        <ele>491.37</ele>
        <time>2020-08-14T11:34:51Z</time>
      </trkpt>
      <trkpt lat="42.4618002120" lon="-7.9679484665">
        <ele>490.89</ele>
        <time>2020-08-14T11:35:02Z</time>
      </trkpt>
      <trkpt lat="42.4619354121" lon="-7.9683830682">
        <ele>490.89</ele>
        <time>2020-08-14T11:35:14Z</time>
      </trkpt>
      <trkpt lat="42.4620355759" lon="-7.9687125608">
        <ele>491.37</ele>
        <time>2020-08-14T11:35:23Z</time>
      </trkpt>
      <trkpt lat="42.4621594604" lon="-7.9691614956">
        <ele>492.81</ele>
        <time>2020-08-14T11:35:35Z</time>
      </trkpt>
      <trkpt lat="42.4622910563" lon="-7.9696121067">
        <ele>493.77</ele>
        <time>2020-08-14T11:35:47Z</time>
      </trkpt>
      <trkpt lat="42.4623871967" lon="-7.9699534178">
        <ele>494.26</ele>
        <time>2020-08-14T11:35:56Z</time>
      </trkpt>
      <trkpt lat="42.4625348859" lon="-7.9704410769">
        <ele>495.70</ele>
        <time>2020-08-14T11:36:09Z</time>
      </trkpt>
      <trkpt lat="42.4626322836" lon="-7.9707632773">
        <ele>496.66</ele>
        <time>2020-08-14T11:36:18Z</time>
      </trkpt>
      <trkpt lat="42.4627550784" lon="-7.9711752478">
        <ele>498.10</ele>
        <time>2020-08-14T11:36:30Z</time>
      </trkpt>
      <trkpt lat="42.4628406577" lon="-7.9714475758">
        <ele>498.58</ele>
        <time>2020-08-14T11:36:38Z</time>
      </trkpt>
      <trkpt lat="42.4629552383" lon="-7.9718169663">
        <ele>500.02</ele>
        <time>2020-08-14T11:36:49Z</time>
      </trkpt>
      <trkpt lat="42.4630579166" lon="-7.9721411783">
        <ele>500.02</ele>
        <time>2020-08-14T11:36:59Z</time>
      </trkpt>
      <trkpt lat="42.4631483573" lon="-7.9724337067">
        <ele>500.02</ele>
        <time>2020-08-14T11:37:08Z</time>
      </trkpt>
      <trkpt lat="42.4632240459" lon="-7.9726306815">
        <ele>500.50</ele>
        <time>2020-08-14T11:37:15Z</time>
      </trkpt>
      <trkpt lat="42.4632517062" lon="-7.9726403207">
        <ele>500.50</ele>
        <time>2020-08-14T11:37:16Z</time>
      </trkpt>
      <trkpt lat="42.4632855691" lon="-7.9726368003">
        <ele>500.50</ele>
        <time>2020-08-14T11:37:17Z</time>
      </trkpt>
      <trkpt lat="42.4635035824" lon="-7.9726334475">
        <ele>502.43</ele>
        <time>2020-08-14T11:37:25Z</time>
      </trkpt>
      <trkpt lat="42.4636773393" lon="-7.9727395624">
        <ele>503.87</ele>
        <time>2020-08-14T11:37:32Z</time>
      </trkpt>
      <trkpt lat="42.4639023095" lon="-7.9730972182">
        <ele>504.35</ele>
        <time>2020-08-14T11:37:44Z</time>
      </trkpt>
      <trkpt lat="42.4640749767" lon="-7.9733013175">
        <ele>505.31</ele>
        <time>2020-08-14T11:37:53Z</time>
      </trkpt>
      <trkpt lat="42.4641610589" lon="-7.9735185765">
        <ele>504.83</ele>
        <time>2020-08-14T11:38:00Z</time>
      </trkpt>
      <trkpt lat="42.4642551038" lon="-7.9738916550">
        <ele>503.39</ele>
        <time>2020-08-14T11:38:09Z</time>
      </trkpt>
      <trkpt lat="42.4642930739" lon="-7.9742878675">
        <ele>502.43</ele>
        <time>2020-08-14T11:38:18Z</time>
      </trkpt>
      <trkpt lat="42.4643468857" lon="-7.9745786358">
        <ele>500.98</ele>
        <time>2020-08-14T11:38:26Z</time>
      </trkpt>
      <trkpt lat="42.4644934013" lon="-7.9747980740">
        <ele>500.02</ele>
        <time>2020-08-14T11:38:34Z</time>
      </trkpt>
      <trkpt lat="42.4646101613" lon="-7.9749813024">
        <ele>498.58</ele>
        <time>2020-08-14T11:38:42Z</time>
      </trkpt>
      <trkpt lat="42.4647669028" lon="-7.9751679674">
        <ele>498.58</ele>
        <time>2020-08-14T11:38:50Z</time>
      </trkpt>
      <trkpt lat="42.4650088884" lon="-7.9753614217">
        <ele>499.54</ele>
        <time>2020-08-14T11:39:00Z</time>
      </trkpt>
      <trkpt lat="42.4652247224" lon="-7.9754863959">
        <ele>500.98</ele>
        <time>2020-08-14T11:39:09Z</time>
      </trkpt>
      <trkpt lat="42.4654003233" lon="-7.9755216837">
        <ele>501.46</ele>
        <time>2020-08-14T11:39:17Z</time>
      </trkpt>
      <trkpt lat="42.4655444082" lon="-7.9755072668">
        <ele>501.95</ele>
        <time>2020-08-14T11:39:25Z</time>
      </trkpt>
      <trkpt lat="42.4657582305" lon="-7.9754854739">
        <ele>503.87</ele>
        <time>2020-08-14T11:39:34Z</time>
      </trkpt>
      <trkpt lat="42.4659048300" lon="-7.9754619207">
        <ele>505.31</ele>
        <time>2020-08-14T11:39:42Z</time>
      </trkpt>
      <trkpt lat="42.4660661817" lon="-7.9754642677">
        <ele>505.79</ele>
        <time>2020-08-14T11:39:50Z</time>
      </trkpt>
      <trkpt lat="42.4661913235" lon="-7.9754841328">
        <ele>506.75</ele>
        <time>2020-08-14T11:39:58Z</time>
      </trkpt>
      <trkpt lat="42.4663402699" lon="-7.9754945263">
        <ele>508.19</ele>
        <time>2020-08-14T11:40:06Z</time>
      </trkpt>
      <trkpt lat="42.4665084109" lon="-7.9755091108">
        <ele>509.16</ele>
        <time>2020-08-14T11:40:14Z</time>
      </trkpt>
      <trkpt lat="42.4666911364" lon="-7.9756175727">
        <ele>508.67</ele>
        <time>2020-08-14T11:40:22Z</time>
      </trkpt>
      <trkpt lat="42.4667680822" lon="-7.9757712130">
        <ele>508.19</ele>
        <time>2020-08-14T11:40:28Z</time>
      </trkpt>
      <trkpt lat="42.4668892007" lon="-7.9759710375">
        <ele>508.67</ele>
        <time>2020-08-14T11:40:37Z</time>
      </trkpt>
      <trkpt lat="42.4670391530" lon="-7.9762452096">
        <ele>511.08</ele>
        <time>2020-08-14T11:40:50Z</time>
      </trkpt>
      <trkpt lat="42.4671634566" lon="-7.9764084890">
        <ele>511.56</ele>
        <time>2020-08-14T11:40:59Z</time>
      </trkpt>
      <trkpt lat="42.4672751036" lon="-7.9765225668">
        <ele>512.04</ele>
        <time>2020-08-14T11:41:06Z</time>
      </trkpt>
      <trkpt lat="42.4674066156" lon="-7.9766958207">
        <ele>511.56</ele>
        <time>2020-08-14T11:41:15Z</time>
      </trkpt>
      <trkpt lat="42.4675233755" lon="-7.9768802226">
        <ele>511.56</ele>
        <time>2020-08-14T11:41:23Z</time>
      </trkpt>
      <trkpt lat="42.4676688015" lon="-7.9770605173">
        <ele>512.04</ele>
        <time>2020-08-14T11:41:32Z</time>
      </trkpt>
      <trkpt lat="42.4678122997" lon="-7.9772434104">
        <ele>511.56</ele>
        <time>2020-08-14T11:41:41Z</time>
      </trkpt>
      <trkpt lat="42.4679474998" lon="-7.9774297401">
        <ele>511.56</ele>
        <time>2020-08-14T11:41:50Z</time>
      </trkpt>
      <trkpt lat="42.4680447299" lon="-7.9775978811">
        <ele>512.04</ele>
        <time>2020-08-14T11:41:58Z</time>
      </trkpt>
      <trkpt lat="42.4681265373" lon="-7.9777998012">
        <ele>512.52</ele>
        <time>2020-08-14T11:42:06Z</time>
      </trkpt>
      <trkpt lat="42.4682217557" lon="-7.9780634120">
        <ele>513.00</ele>
        <time>2020-08-14T11:42:15Z</time>
      </trkpt>
      <trkpt lat="42.4682997074" lon="-7.9783194792">
        <ele>516.37</ele>
        <time>2020-08-14T11:42:24Z</time>
      </trkpt>
      <trkpt lat="42.4683662597" lon="-7.9785509873">
        <ele>518.29</ele>
        <time>2020-08-14T11:42:32Z</time>
      </trkpt>
      <trkpt lat="42.4684193172" lon="-7.9787226487">
        <ele>518.29</ele>
        <time>2020-08-14T11:42:39Z</time>
      </trkpt>
      <trkpt lat="42.4684247654" lon="-7.9787436035">
        <ele>518.29</ele>
        <time>2020-08-14T11:42:40Z</time>
      </trkpt>
      <trkpt lat="42.4684323929" lon="-7.9787646420">
        <ele>517.81</ele>
        <time>2020-08-14T11:42:41Z</time>
      </trkpt>
      <trkpt lat="42.4684403557" lon="-7.9787828308">
        <ele>517.33</ele>
        <time>2020-08-14T11:42:42Z</time>
      </trkpt>
      <trkpt lat="42.4684494920" lon="-7.9788047913">
        <ele>517.33</ele>
        <time>2020-08-14T11:42:43Z</time>
      </trkpt>
      <trkpt lat="42.4684569519" lon="-7.9788273387">
        <ele>517.33</ele>
        <time>2020-08-14T11:42:44Z</time>
      </trkpt>
      <trkpt lat="42.4684618134" lon="-7.9788492154">
        <ele>517.33</ele>
        <time>2020-08-14T11:42:45Z</time>
      </trkpt>
      <trkpt lat="42.4684674293" lon="-7.9788736906">
        <ele>517.33</ele>
        <time>2020-08-14T11:42:46Z</time>
      </trkpt>
      <trkpt lat="42.4684709497" lon="-7.9788979981">
        <ele>517.33</ele>
        <time>2020-08-14T11:42:47Z</time>
      </trkpt>
      <trkpt lat="42.4684758950" lon="-7.9791078810">
        <ele>517.81</ele>
        <time>2020-08-14T11:42:55Z</time>
      </trkpt>
      <trkpt lat="42.4684955925" lon="-7.9792766087">
        <ele>518.29</ele>
        <time>2020-08-14T11:43:02Z</time>
      </trkpt>
      <trkpt lat="42.4684938323" lon="-7.9793846514">
        <ele>519.73</ele>
        <time>2020-08-14T11:43:07Z</time>
      </trkpt>
      <trkpt lat="42.4685372505" lon="-7.9795815423">
        <ele>520.21</ele>
        <time>2020-08-14T11:43:16Z</time>
      </trkpt>
      <trkpt lat="42.4685883801" lon="-7.9797803611">
        <ele>520.69</ele>
        <time>2020-08-14T11:43:25Z</time>
      </trkpt>
      <trkpt lat="42.4686460476" lon="-7.9800205026">
        <ele>522.13</ele>
        <time>2020-08-14T11:43:33Z</time>
      </trkpt>
      <trkpt lat="42.4687185511" lon="-7.9802709538">
        <ele>522.61</ele>
        <time>2020-08-14T11:43:40Z</time>
      </trkpt>
      <trkpt lat="42.4687944911" lon="-7.9805540945">
        <ele>523.09</ele>
        <time>2020-08-14T11:43:47Z</time>
      </trkpt>
      <trkpt lat="42.4688163679" lon="-7.9807434417">
        <ele>523.58</ele>
        <time>2020-08-14T11:43:53Z</time>
      </trkpt>
      <trkpt lat="42.4688135181" lon="-7.9809754528">
        <ele>524.54</ele>
        <time>2020-08-14T11:44:00Z</time>
      </trkpt>
      <trkpt lat="42.4688677490" lon="-7.9813164286">
        <ele>525.50</ele>
        <time>2020-08-14T11:44:08Z</time>
      </trkpt>
      <trkpt lat="42.4689019471" lon="-7.9815908521">
        <ele>525.50</ele>
        <time>2020-08-14T11:44:15Z</time>
      </trkpt>
      <trkpt lat="42.4689846765" lon="-7.9818102065">
        <ele>524.54</ele>
        <time>2020-08-14T11:44:21Z</time>
      </trkpt>
      <trkpt lat="42.4690721836" lon="-7.9820067622">
        <ele>523.58</ele>
        <time>2020-08-14T11:44:27Z</time>
      </trkpt>
      <trkpt lat="42.4691688269" lon="-7.9822514299">
        <ele>522.13</ele>
        <time>2020-08-14T11:44:35Z</time>
      </trkpt>
      <trkpt lat="42.4693076313" lon="-7.9825136997">
        <ele>519.25</ele>
        <time>2020-08-14T11:44:42Z</time>
      </trkpt>
      <trkpt lat="42.4694254808" lon="-7.9827492312">
        <ele>517.33</ele>
        <time>2020-08-14T11:44:49Z</time>
      </trkpt>
      <trkpt lat="42.4694651272" lon="-7.9828225728">
        <ele>516.37</ele>
        <time>2020-08-14T11:44:53Z</time>
      </trkpt>
      <trkpt lat="42.4695774447" lon="-7.9829410091">
        <ele>516.37</ele>
        <time>2020-08-14T11:44:59Z</time>
      </trkpt>
      <trkpt lat="42.4697504472" lon="-7.9832207970">
        <ele>515.88</ele>
        <time>2020-08-14T11:45:08Z</time>
      </trkpt>
      <trkpt lat="42.4699208513" lon="-7.9834989924">
        <ele>517.33</ele>
        <time>2020-08-14T11:45:17Z</time>
      </trkpt>
      <trkpt lat="42.4701414630" lon="-7.9837380443">
        <ele>522.61</ele>
        <time>2020-08-14T11:45:27Z</time>
      </trkpt>
      <trkpt lat="42.4703567941" lon="-7.9839790240">
        <ele>522.13</ele>
        <time>2020-08-14T11:45:37Z</time>
      </trkpt>
      <trkpt lat="42.4704721291" lon="-7.9842329118">
        <ele>522.13</ele>
        <time>2020-08-14T11:45:45Z</time>
      </trkpt>
      <trkpt lat="42.4704432953" lon="-7.9844167270">
        <ele>521.65</ele>
        <time>2020-08-14T11:45:51Z</time>
      </trkpt>
      <trkpt lat="42.4703567941" lon="-7.9845854547">
        <ele>519.73</ele>
        <time>2020-08-14T11:45:57Z</time>
      </trkpt>
      <trkpt lat="42.4704075046" lon="-7.9847655818">
        <ele>519.25</ele>
        <time>2020-08-14T11:46:01Z</time>
      </trkpt>
      <trkpt lat="42.4705847818" lon="-7.9850553442">
        <ele>518.29</ele>
        <time>2020-08-14T11:46:09Z</time>
      </trkpt>
      <trkpt lat="42.4707286991" lon="-7.9852600303">
        <ele>517.81</ele>
        <time>2020-08-14T11:46:17Z</time>
      </trkpt>
      <trkpt lat="42.4709135201" lon="-7.9853720963">
        <ele>516.37</ele>
        <time>2020-08-14T11:46:24Z</time>
      </trkpt>
      <trkpt lat="42.4709558487" lon="-7.9853861779">
        <ele>515.88</ele>
        <time>2020-08-14T11:46:25Z</time>
      </trkpt>
      <trkpt lat="42.4711822439" lon="-7.9854211304">
        <ele>515.88</ele>
        <time>2020-08-14T11:46:30Z</time>
      </trkpt>
      <trkpt lat="42.4712329544" lon="-7.9853865132">
        <ele>517.33</ele>
        <time>2020-08-14T11:46:33Z</time>
      </trkpt>
      <trkpt lat="42.4713530671" lon="-7.9852056317">
        <ele>520.21</ele>
        <time>2020-08-14T11:46:43Z</time>
      </trkpt>
      <trkpt lat="42.4714605231" lon="-7.9850032087">
        <ele>523.09</ele>
        <time>2020-08-14T11:46:53Z</time>
      </trkpt>
      <trkpt lat="42.4714829866" lon="-7.9849823378">
        <ele>523.58</ele>
        <time>2020-08-14T11:46:55Z</time>
      </trkpt>
      <trkpt lat="42.4715109821" lon="-7.9849900492">
        <ele>523.58</ele>
        <time>2020-08-14T11:46:58Z</time>
      </trkpt>
      <trkpt lat="42.4716024287" lon="-7.9850048013">
        <ele>523.58</ele>
        <time>2020-08-14T11:47:04Z</time>
      </trkpt>
      <trkpt lat="42.4716395605" lon="-7.9850037955">
        <ele>523.58</ele>
        <time>2020-08-14T11:47:06Z</time>
      </trkpt>
      <trkpt lat="42.4717921112" lon="-7.9850041308">
        <ele>523.58</ele>
        <time>2020-08-14T11:47:15Z</time>
      </trkpt>
      <trkpt lat="42.4717934523" lon="-7.9849981796">
        <ele>523.58</ele>
        <time>2020-08-14T11:47:22Z</time>
      </trkpt>
      <trkpt lat="42.4718239624" lon="-7.9849971738">
        <ele>523.58</ele>
        <time>2020-08-14T11:47:35Z</time>
      </trkpt>
      <trkpt lat="42.4719675444" lon="-7.9850018676">
        <ele>522.61</ele>
        <time>2020-08-14T11:47:42Z</time>
      </trkpt>
      <trkpt lat="42.4722521938" lon="-7.9849871993">
        <ele>520.69</ele>
        <time>2020-08-14T11:47:52Z</time>
      </trkpt>
      <trkpt lat="42.4725261144" lon="-7.9850170389">
        <ele>519.73</ele>
        <time>2020-08-14T11:48:02Z</time>
      </trkpt>
      <trkpt lat="42.4728221633" lon="-7.9850737005">
        <ele>517.81</ele>
        <time>2020-08-14T11:48:11Z</time>
      </trkpt>
      <trkpt lat="42.4729923159" lon="-7.9852450266">
        <ele>516.85</ele>
        <time>2020-08-14T11:48:17Z</time>
      </trkpt>
      <trkpt lat="42.4730855227" lon="-7.9854983278">
        <ele>516.85</ele>
        <time>2020-08-14T11:48:24Z</time>
      </trkpt>
      <trkpt lat="42.4731663242" lon="-7.9856967274">
        <ele>516.37</ele>
        <time>2020-08-14T11:48:32Z</time>
      </trkpt>
      <trkpt lat="42.4732081499" lon="-7.9857676383">
        <ele>516.85</ele>
        <time>2020-08-14T11:48:35Z</time>
      </trkpt>
      <trkpt lat="42.4733391590" lon="-7.9858606774">
        <ele>520.21</ele>
        <time>2020-08-14T11:48:43Z</time>
      </trkpt>
      <trkpt lat="42.4734874349" lon="-7.9858935345">
        <ele>520.69</ele>
        <time>2020-08-14T11:48:52Z</time>
      </trkpt>
      <trkpt lat="42.4735759478" lon="-7.9859318398">
        <ele>520.21</ele>
        <time>2020-08-14T11:49:00Z</time>
      </trkpt>
      <trkpt lat="42.4735904485" lon="-7.9859504476">
        <ele>521.17</ele>
        <time>2020-08-14T11:49:06Z</time>
      </trkpt>
      <trkpt lat="42.4736255687" lon="-7.9859517049">
        <ele>523.09</ele>
        <time>2020-08-14T11:49:11Z</time>
      </trkpt>
      <trkpt lat="42.4736842420" lon="-7.9858839791">
        <ele>524.54</ele>
        <time>2020-08-14T11:49:20Z</time>
      </trkpt>
      <trkpt lat="42.4737103097" lon="-7.9859216139">
        <ele>524.54</ele>
        <time>2020-08-14T11:49:25Z</time>
      </trkpt>
      <trkpt lat="42.4737553205" lon="-7.9859360307">
        <ele>525.02</ele>
        <time>2020-08-14T11:49:34Z</time>
      </trkpt>
      <trkpt lat="42.4737532251" lon="-7.9859463405">
        <ele>525.02</ele>
        <time>2020-08-14T11:49:52Z</time>
      </trkpt>
      <trkpt lat="42.4737585057" lon="-7.9859466758">
        <ele>524.54</ele>
        <time>2020-08-14T11:50:05Z</time>
      </trkpt>
      <trkpt lat="42.4737613555" lon="-7.9859404732">
        <ele>522.61</ele>
        <time>2020-08-14T11:50:18Z</time>
      </trkpt>
      <trkpt lat="42.4737564102" lon="-7.9859433230">
        <ele>521.65</ele>
        <time>2020-08-14T11:50:29Z</time>
      </trkpt>
      <trkpt lat="42.4737538118" lon="-7.9859511182">
        <ele>521.17</ele>
        <time>2020-08-14T11:50:45Z</time>
      </trkpt>
      <trkpt lat="42.4737532251" lon="-7.9859572370">
        <ele>521.65</ele>
        <time>2020-08-14T11:51:03Z</time>
      </trkpt>
      <trkpt lat="42.4737495370" lon="-7.9859496094">
        <ele>521.17</ele>
        <time>2020-08-14T11:51:17Z</time>
      </trkpt>
      <trkpt lat="42.4737470224" lon="-7.9859432392">
        <ele>521.17</ele>
        <time>2020-08-14T11:51:28Z</time>
      </trkpt>
      <trkpt lat="42.4737485312" lon="-7.9859367013">
        <ele>521.65</ele>
        <time>2020-08-14T11:51:40Z</time>
      </trkpt>
      <trkpt lat="42.4737598468" lon="-7.9859330133">
        <ele>521.65</ele>
        <time>2020-08-14T11:51:51Z</time>
      </trkpt>
      <trkpt lat="42.4737618584" lon="-7.9859297443">
        <ele>520.69</ele>
        <time>2020-08-14T11:52:02Z</time>
      </trkpt>
      <trkpt lat="42.4737585895" lon="-7.9859412275">
        <ele>521.17</ele>
        <time>2020-08-14T11:52:14Z</time>
      </trkpt>
      <trkpt lat="42.4737580866" lon="-7.9859299120">
        <ele>520.69</ele>
        <time>2020-08-14T11:52:26Z</time>
      </trkpt>
      <trkpt lat="42.4737585057" lon="-7.9859195184">
        <ele>519.73</ele>
        <time>2020-08-14T11:52:38Z</time>
      </trkpt>
      <trkpt lat="42.4737602659" lon="-7.9859264754">
        <ele>520.21</ele>
        <time>2020-08-14T11:52:50Z</time>
      </trkpt>
      <trkpt lat="42.4737569969" lon="-7.9859403055">
        <ele>522.13</ele>
        <time>2020-08-14T11:53:00Z</time>
      </trkpt>
      <trkpt lat="42.4737660494" lon="-7.9859382100">
        <ele>522.61</ele>
        <time>2020-08-14T11:53:14Z</time>
      </trkpt>
      <trkpt lat="42.4737645406" lon="-7.9859274812">
        <ele>521.65</ele>
        <time>2020-08-14T11:53:25Z</time>
      </trkpt>
      <trkpt lat="42.4737609364" lon="-7.9859258886">
        <ele>520.21</ele>
        <time>2020-08-14T11:53:43Z</time>
      </trkpt>
      <trkpt lat="42.4737606011" lon="-7.9859222006">
        <ele>518.77</ele>
        <time>2020-08-14T11:54:01Z</time>
      </trkpt>
      <trkpt lat="42.4737550691" lon="-7.9859185964">
        <ele>518.29</ele>
        <time>2020-08-14T11:54:16Z</time>
      </trkpt>
      <trkpt lat="42.4737468548" lon="-7.9859125614">
        <ele>517.33</ele>
        <time>2020-08-14T11:54:30Z</time>
      </trkpt>
      <trkpt lat="42.4737454299" lon="-7.9859206080">
        <ele>516.37</ele>
        <time>2020-08-14T11:54:42Z</time>
      </trkpt>
      <trkpt lat="42.4737485312" lon="-7.9859370366">
        <ele>516.37</ele>
        <time>2020-08-14T11:54:57Z</time>
      </trkpt>
      <trkpt lat="42.4737503752" lon="-7.9859487712">
        <ele>517.33</ele>
        <time>2020-08-14T11:55:14Z</time>
      </trkpt>
      <trkpt lat="42.4737504590" lon="-7.9859522078">
        <ele>517.81</ele>
        <time>2020-08-14T11:55:29Z</time>
      </trkpt>
      <trkpt lat="42.4737512134" lon="-7.9859388806">
        <ele>517.33</ele>
        <time>2020-08-14T11:55:41Z</time>
      </trkpt>
      <trkpt lat="42.4737625290" lon="-7.9859286547">
        <ele>516.37</ele>
        <time>2020-08-14T11:55:56Z</time>
      </trkpt>
      <trkpt lat="42.4737680610" lon="-7.9859263916">
        <ele>515.40</ele>
        <time>2020-08-14T11:56:12Z</time>
      </trkpt>
      <trkpt lat="42.4737685639" lon="-7.9859191831">
        <ele>515.88</ele>
        <time>2020-08-14T11:56:27Z</time>
      </trkpt>
      <trkpt lat="42.4737716652" lon="-7.9859206919">
        <ele>515.88</ele>
        <time>2020-08-14T11:56:40Z</time>
      </trkpt>
      <trkpt lat="42.4737621099" lon="-7.9859174229">
        <ele>517.81</ele>
        <time>2020-08-14T11:56:56Z</time>
      </trkpt>
      <trkpt lat="42.4737612717" lon="-7.9859225359">
        <ele>519.73</ele>
        <time>2020-08-14T11:57:08Z</time>
      </trkpt>
      <trkpt lat="42.4737459328" lon="-7.9859295767">
        <ele>520.69</ele>
        <time>2020-08-14T11:57:27Z</time>
      </trkpt>
      <trkpt lat="42.4737445917" lon="-7.9859367851">
        <ele>519.25</ele>
        <time>2020-08-14T11:57:41Z</time>
      </trkpt>
      <trkpt lat="42.4737430830" lon="-7.9859345220">
        <ele>517.81</ele>
        <time>2020-08-14T11:57:53Z</time>
      </trkpt>
      <trkpt lat="42.4737400655" lon="-7.9859216977">
        <ele>517.33</ele>
        <time>2020-08-14T11:58:09Z</time>
      </trkpt>
      <trkpt lat="42.4737585895" lon="-7.9859175067">
        <ele>515.88</ele>
        <time>2020-08-14T11:58:25Z</time>
      </trkpt>
      <trkpt lat="42.4737733416" lon="-7.9859055206">
        <ele>514.92</ele>
        <time>2020-08-14T11:58:48Z</time>
      </trkpt>
      <trkpt lat="42.4737633672" lon="-7.9859080352">
        <ele>515.40</ele>
        <time>2020-08-14T11:59:05Z</time>
      </trkpt>
      <trkpt lat="42.4737580027" lon="-7.9859153274">
        <ele>517.33</ele>
        <time>2020-08-14T11:59:19Z</time>
      </trkpt>
      <trkpt lat="42.4737617746" lon="-7.9859254695">
        <ele>517.81</ele>
        <time>2020-08-14T11:59:36Z</time>
      </trkpt>
      <trkpt lat="42.4737639539" lon="-7.9859206080">
        <ele>518.29</ele>
        <time>2020-08-14T11:59:50Z</time>
      </trkpt>
      <trkpt lat="42.4737557396" lon="-7.9859097954">
        <ele>517.81</ele>
        <time>2020-08-14T12:00:05Z</time>
      </trkpt>
      <trkpt lat="42.4737557396" lon="-7.9858967196">
        <ele>516.85</ele>
        <time>2020-08-14T12:00:21Z</time>
      </trkpt>
      <trkpt lat="42.4737517163" lon="-7.9859058559">
        <ele>516.85</ele>
        <time>2020-08-14T12:00:39Z</time>
      </trkpt>
      <trkpt lat="42.4737532251" lon="-7.9859272297">
        <ele>518.29</ele>
        <time>2020-08-14T12:00:57Z</time>
      </trkpt>
      <trkpt lat="42.4737624452" lon="-7.9859397188">
        <ele>520.21</ele>
        <time>2020-08-14T12:01:22Z</time>
      </trkpt>
      <trkpt lat="42.4737575836" lon="-7.9859328456">
        <ele>521.17</ele>
        <time>2020-08-14T12:01:50Z</time>
      </trkpt>
      <trkpt lat="42.4737371318" lon="-7.9859027546">
        <ele>520.21</ele>
        <time>2020-08-14T12:02:21Z</time>
      </trkpt>
      <trkpt lat="42.4737370480" lon="-7.9859056044">
        <ele>518.29</ele>
        <time>2020-08-14T12:02:43Z</time>
      </trkpt>
      <trkpt lat="42.4737445917" lon="-7.9859144054">
        <ele>518.77</ele>
        <time>2020-08-14T12:02:59Z</time>
      </trkpt>
      <trkpt lat="42.4737563264" lon="-7.9859221168">
        <ele>518.29</ele>
        <time>2020-08-14T12:03:17Z</time>
      </trkpt>
      <trkpt lat="42.4737529736" lon="-7.9859195184">
        <ele>517.33</ele>
        <time>2020-08-14T12:03:42Z</time>
      </trkpt>
      <trkpt lat="42.4737495370" lon="-7.9859113880">
        <ele>517.33</ele>
        <time>2020-08-14T12:04:08Z</time>
      </trkpt>
      <trkpt lat="42.4737374671" lon="-7.9859031737">
        <ele>515.88</ele>
        <time>2020-08-14T12:04:44Z</time>
      </trkpt>
      <trkpt lat="42.4737460166" lon="-7.9859124776">
        <ele>516.85</ele>
        <time>2020-08-14T12:05:16Z</time>
      </trkpt>
      <trkpt lat="42.4737383053" lon="-7.9859565664">
        <ele>518.29</ele>
        <time>2020-08-14T12:05:53Z</time>
      </trkpt>
      <trkpt lat="42.4737372156" lon="-7.9859672952">
        <ele>519.73</ele>
        <time>2020-08-14T12:06:21Z</time>
      </trkpt>
      <trkpt lat="42.4737476092" lon="-7.9859508667">
        <ele>519.25</ele>
        <time>2020-08-14T12:06:52Z</time>
      </trkpt>
      <trkpt lat="42.4737479445" lon="-7.9859390482">
        <ele>518.29</ele>
        <time>2020-08-14T12:07:14Z</time>
      </trkpt>
      <trkpt lat="42.4737509619" lon="-7.9859403055">
        <ele>517.33</ele>
        <time>2020-08-14T12:07:33Z</time>
      </trkpt>
      <trkpt lat="42.4737532251" lon="-7.9859483521">
        <ele>517.81</ele>
        <time>2020-08-14T12:07:47Z</time>
      </trkpt>
      <trkpt lat="42.4737490341" lon="-7.9859453347">
        <ele>518.77</ele>
        <time>2020-08-14T12:08:08Z</time>
      </trkpt>
      <trkpt lat="42.4737450946" lon="-7.9859484360">
        <ele>518.29</ele>
        <time>2020-08-14T12:08:24Z</time>
      </trkpt>
      <trkpt lat="42.4737512134" lon="-7.9859504476">
        <ele>519.25</ele>
        <time>2020-08-14T12:08:41Z</time>
      </trkpt>
      <trkpt lat="42.4737501238" lon="-7.9859467596">
        <ele>519.73</ele>
        <time>2020-08-14T12:08:57Z</time>
      </trkpt>
      <trkpt lat="42.4737508781" lon="-7.9859438259">
        <ele>519.25</ele>
        <time>2020-08-14T12:09:11Z</time>
      </trkpt>
      <trkpt lat="42.4737502914" lon="-7.9859392159">
        <ele>517.81</ele>
        <time>2020-08-14T12:09:25Z</time>
      </trkpt>
      <trkpt lat="42.4737516325" lon="-7.9859349411">
        <ele>515.88</ele>
        <time>2020-08-14T12:09:41Z</time>
      </trkpt>
      <trkpt lat="42.4737515487" lon="-7.9859238770">
        <ele>515.88</ele>
        <time>2020-08-14T12:10:01Z</time>
      </trkpt>
      <trkpt lat="42.4737556558" lon="-7.9859218653">
        <ele>513.96</ele>
        <time>2020-08-14T12:10:20Z</time>
      </trkpt>
      <trkpt lat="42.4737608526" lon="-7.9859157465">
        <ele>513.00</ele>
        <time>2020-08-14T12:10:33Z</time>
      </trkpt>
      <trkpt lat="42.4737637863" lon="-7.9859083705">
        <ele>513.00</ele>
        <time>2020-08-14T12:10:52Z</time>
      </trkpt>
      <trkpt lat="42.4737584218" lon="-7.9859073646">
        <ele>513.48</ele>
        <time>2020-08-14T12:11:08Z</time>
      </trkpt>
      <trkpt lat="42.4737585895" lon="-7.9858957976">
        <ele>513.48</ele>
        <time>2020-08-14T12:11:22Z</time>
      </trkpt>
      <trkpt lat="42.4737499561" lon="-7.9858914390">
        <ele>514.92</ele>
        <time>2020-08-14T12:11:38Z</time>
      </trkpt>
      <trkpt lat="42.4737511296" lon="-7.9859154113">
        <ele>516.37</ele>
        <time>2020-08-14T12:11:55Z</time>
      </trkpt>
      <trkpt lat="42.4737538118" lon="-7.9859236255">
        <ele>517.33</ele>
        <time>2020-08-14T12:12:11Z</time>
      </trkpt>
      <trkpt lat="42.4737505428" lon="-7.9859394673">
        <ele>517.81</ele>
        <time>2020-08-14T12:12:29Z</time>
      </trkpt>
      <trkpt lat="42.4737544823" lon="-7.9859392997">
        <ele>517.81</ele>
        <time>2020-08-14T12:12:49Z</time>
      </trkpt>
      <trkpt lat="42.4737555720" lon="-7.9859312531">
        <ele>516.85</ele>
        <time>2020-08-14T12:13:02Z</time>
      </trkpt>
      <trkpt lat="42.4737512134" lon="-7.9859166685">
        <ele>514.92</ele>
        <time>2020-08-14T12:13:17Z</time>
      </trkpt>
      <trkpt lat="42.4737501238" lon="-7.9859061912">
        <ele>513.96</ele>
        <time>2020-08-14T12:13:34Z</time>
      </trkpt>
      <trkpt lat="42.4737512134" lon="-7.9859062750">
        <ele>512.52</ele>
        <time>2020-08-14T12:13:54Z</time>
      </trkpt>
      <trkpt lat="42.4737578351" lon="-7.9859180935">
        <ele>512.04</ele>
        <time>2020-08-14T12:14:09Z</time>
      </trkpt>
      <trkpt lat="42.4737590086" lon="-7.9859211948">
        <ele>510.60</ele>
        <time>2020-08-14T12:14:30Z</time>
      </trkpt>
      <trkpt lat="42.4737505428" lon="-7.9859116394">
        <ele>511.08</ele>
        <time>2020-08-14T12:14:48Z</time>
      </trkpt>
      <trkpt lat="42.4737440050" lon="-7.9859118070">
        <ele>512.52</ele>
        <time>2020-08-14T12:15:11Z</time>
      </trkpt>
      <trkpt lat="42.4737478606" lon="-7.9858977254">
        <ele>511.56</ele>
        <time>2020-08-14T12:15:31Z</time>
      </trkpt>
      <trkpt lat="42.4737515487" lon="-7.9859005753">
        <ele>510.60</ele>
        <time>2020-08-14T12:15:50Z</time>
      </trkpt>
      <trkpt lat="42.4737599306" lon="-7.9859082028">
        <ele>509.64</ele>
        <time>2020-08-14T12:16:07Z</time>
      </trkpt>
      <trkpt lat="42.4737634510" lon="-7.9859197699">
        <ele>511.08</ele>
        <time>2020-08-14T12:16:42Z</time>
      </trkpt>
      <trkpt lat="42.4737549014" lon="-7.9859112203">
        <ele>512.04</ele>
        <time>2020-08-14T12:17:14Z</time>
      </trkpt>
      <trkpt lat="42.4737593438" lon="-7.9859144054">
        <ele>512.52</ele>
        <time>2020-08-14T12:17:42Z</time>
      </trkpt>
      <trkpt lat="42.4737483636" lon="-7.9859264754">
        <ele>514.44</ele>
        <time>2020-08-14T12:18:09Z</time>
      </trkpt>
      <trkpt lat="42.4737462681" lon="-7.9859298281">
        <ele>514.44</ele>
        <time>2020-08-14T12:18:29Z</time>
      </trkpt>
      <trkpt lat="42.4737455975" lon="-7.9859429877">
        <ele>513.96</ele>
        <time>2020-08-14T12:18:55Z</time>
      </trkpt>
      <trkpt lat="42.4737514649" lon="-7.9859423172">
        <ele>514.44</ele>
        <time>2020-08-14T12:19:19Z</time>
      </trkpt>
      <trkpt lat="42.4737519678" lon="-7.9859440774">
        <ele>516.37</ele>
        <time>2020-08-14T12:19:44Z</time>
      </trkpt>
      <trkpt lat="42.4737475254" lon="-7.9859486874">
        <ele>516.37</ele>
        <time>2020-08-14T12:20:06Z</time>
      </trkpt>
      <trkpt lat="42.4737409037" lon="-7.9859575722">
        <ele>514.92</ele>
        <time>2020-08-14T12:20:41Z</time>
      </trkpt>
      <trkpt lat="42.4737481959" lon="-7.9859544709">
        <ele>514.44</ele>
        <time>2020-08-14T12:21:10Z</time>
      </trkpt>
      <trkpt lat="42.4737463519" lon="-7.9859408922">
        <ele>514.92</ele>
        <time>2020-08-14T12:21:30Z</time>
      </trkpt>
      <trkpt lat="42.4737462681" lon="-7.9859482683">
        <ele>515.88</ele>
        <time>2020-08-14T12:21:51Z</time>
      </trkpt>
      <trkpt lat="42.4737402331" lon="-7.9859637748">
        <ele>516.37</ele>
        <time>2020-08-14T12:22:06Z</time>
      </trkpt>
      <trkpt lat="42.4737341143" lon="-7.9859771021">
        <ele>516.85</ele>
        <time>2020-08-14T12:22:25Z</time>
      </trkpt>
      <trkpt lat="42.4737336952" lon="-7.9859742522">
        <ele>514.92</ele>
        <time>2020-08-14T12:22:41Z</time>
      </trkpt>
      <trkpt lat="42.4737405684" lon="-7.9859677143">
        <ele>513.00</ele>
        <time>2020-08-14T12:23:01Z</time>
      </trkpt>
      <trkpt lat="42.4737460166" lon="-7.9859507829">
        <ele>511.08</ele>
        <time>2020-08-14T12:23:20Z</time>
      </trkpt>
      <trkpt lat="42.4737491179" lon="-7.9859382939">
        <ele>510.60</ele>
        <time>2020-08-14T12:23:37Z</time>
      </trkpt>
      <trkpt lat="42.4737518001" lon="-7.9859435745">
        <ele>511.08</ele>
        <time>2020-08-14T12:23:53Z</time>
      </trkpt>
      <trkpt lat="42.4737498723" lon="-7.9859512020">
        <ele>511.56</ele>
        <time>2020-08-14T12:24:09Z</time>
      </trkpt>
      <trkpt lat="42.4737471901" lon="-7.9859594163">
        <ele>512.52</ele>
        <time>2020-08-14T12:24:20Z</time>
      </trkpt>
      <trkpt lat="42.4737475254" lon="-7.9859469272">
        <ele>513.00</ele>
        <time>2020-08-14T12:24:36Z</time>
      </trkpt>
      <trkpt lat="42.4737542309" lon="-7.9859329294">
        <ele>510.60</ele>
        <time>2020-08-14T12:24:51Z</time>
      </trkpt>
      <trkpt lat="42.4737621937" lon="-7.9859353602">
        <ele>509.16</ele>
        <time>2020-08-14T12:25:06Z</time>
      </trkpt>
      <trkpt lat="42.4737634510" lon="-7.9859311692">
        <ele>507.23</ele>
        <time>2020-08-14T12:25:21Z</time>
      </trkpt>
      <trkpt lat="42.4737678096" lon="-7.9859263077">
        <ele>505.31</ele>
        <time>2020-08-14T12:25:38Z</time>
      </trkpt>
      <trkpt lat="42.4737707432" lon="-7.9859272297">
        <ele>505.79</ele>
        <time>2020-08-14T12:25:53Z</time>
      </trkpt>
      <trkpt lat="42.4737616908" lon="-7.9859351926">
        <ele>506.27</ele>
        <time>2020-08-14T12:26:12Z</time>
      </trkpt>
      <trkpt lat="42.4737589248" lon="-7.9859336838">
        <ele>506.75</ele>
        <time>2020-08-14T12:26:28Z</time>
      </trkpt>
      <trkpt lat="42.4737542309" lon="-7.9859165847">
        <ele>506.75</ele>
        <time>2020-08-14T12:26:44Z</time>
      </trkpt>
      <trkpt lat="42.4737549853" lon="-7.9859106336">
        <ele>507.23</ele>
        <time>2020-08-14T12:27:01Z</time>
      </trkpt>
      <trkpt lat="42.4737544823" lon="-7.9859139025">
        <ele>507.23</ele>
        <time>2020-08-14T12:27:20Z</time>
      </trkpt>
      <trkpt lat="42.4737547338" lon="-7.9859265592">
        <ele>506.75</ele>
        <time>2020-08-14T12:27:34Z</time>
      </trkpt>
      <trkpt lat="42.4737595115" lon="-7.9859379586">
        <ele>506.27</ele>
        <time>2020-08-14T12:27:50Z</time>
      </trkpt>
      <trkpt lat="42.4737606850" lon="-7.9859453347">
        <ele>506.75</ele>
        <time>2020-08-14T12:28:08Z</time>
      </trkpt>
      <trkpt lat="42.4737597629" lon="-7.9859517049">
        <ele>507.71</ele>
        <time>2020-08-14T12:28:21Z</time>
      </trkpt>
      <trkpt lat="42.4737590924" lon="-7.9859455023">
        <ele>508.19</ele>
        <time>2020-08-14T12:28:41Z</time>
      </trkpt>
      <trkpt lat="42.4737512134" lon="-7.9859460052">
        <ele>509.64</ele>
        <time>2020-08-14T12:29:00Z</time>
      </trkpt>
      <trkpt lat="42.4737457652" lon="-7.9859591648">
        <ele>510.60</ele>
        <time>2020-08-14T12:29:14Z</time>
      </trkpt>
      <trkpt lat="42.4737464357" lon="-7.9859572370">
        <ele>511.08</ele>
        <time>2020-08-14T12:29:29Z</time>
      </trkpt>
      <trkpt lat="42.4737483636" lon="-7.9859493580">
        <ele>511.08</ele>
        <time>2020-08-14T12:29:46Z</time>
      </trkpt>
      <trkpt lat="42.4737520516" lon="-7.9859441612">
        <ele>511.56</ele>
        <time>2020-08-14T12:30:05Z</time>
      </trkpt>
      <trkpt lat="42.4737575836" lon="-7.9859464243">
        <ele>511.56</ele>
        <time>2020-08-14T12:30:21Z</time>
      </trkpt>
      <trkpt lat="42.4737620261" lon="-7.9859455861">
        <ele>511.08</ele>
        <time>2020-08-14T12:30:37Z</time>
      </trkpt>
      <trkpt lat="42.4737593438" lon="-7.9859581590">
        <ele>512.04</ele>
        <time>2020-08-14T12:30:57Z</time>
      </trkpt>
      <trkpt lat="42.4737576675" lon="-7.9859528784">
        <ele>511.08</ele>
        <time>2020-08-14T12:31:17Z</time>
      </trkpt>
      <trkpt lat="42.4737472739" lon="-7.9859526269">
        <ele>512.04</ele>
        <time>2020-08-14T12:31:42Z</time>
      </trkpt>
      <trkpt lat="42.4737309292" lon="-7.9859556444">
        <ele>513.96</ele>
        <time>2020-08-14T12:32:08Z</time>
      </trkpt>
      <trkpt lat="42.4737311807" lon="-7.9859549738">
        <ele>515.40</ele>
        <time>2020-08-14T12:32:27Z</time>
      </trkpt>
      <trkpt lat="42.4737435021" lon="-7.9859442450">
        <ele>515.40</ele>
        <time>2020-08-14T12:32:44Z</time>
      </trkpt>
      <trkpt lat="42.4737525545" lon="-7.9859381262">
        <ele>513.96</ele>
        <time>2020-08-14T12:33:08Z</time>
      </trkpt>
      <trkpt lat="42.4737531412" lon="-7.9859322589">
        <ele>513.48</ele>
        <time>2020-08-14T12:33:26Z</time>
      </trkpt>
      <trkpt lat="42.4737445079" lon="-7.9859238770">
        <ele>513.96</ele>
        <time>2020-08-14T12:33:33Z</time>
      </trkpt>
      <trkpt lat="42.4737020116" lon="-7.9859424848">
        <ele>514.44</ele>
        <time>2020-08-14T12:33:40Z</time>
      </trkpt>
      <trkpt lat="42.4736875948" lon="-7.9859954584">
        <ele>514.44</ele>
        <time>2020-08-14T12:33:48Z</time>
      </trkpt>
      <trkpt lat="42.4737512134" lon="-7.9860504437">
        <ele>516.85</ele>
        <time>2020-08-14T12:33:56Z</time>
      </trkpt>
      <trkpt lat="42.4738439173" lon="-7.9860876594">
        <ele>520.21</ele>
        <time>2020-08-14T12:34:07Z</time>
      </trkpt>
      <trkpt lat="42.4739164207" lon="-7.9861449916">
        <ele>523.09</ele>
        <time>2020-08-14T12:34:18Z</time>
      </trkpt>
      <trkpt lat="42.4739695620" lon="-7.9862517770">
        <ele>524.54</ele>
        <time>2020-08-14T12:34:28Z</time>
      </trkpt>
      <trkpt lat="42.4739810452" lon="-7.9862874001">
        <ele>524.06</ele>
        <time>2020-08-14T12:34:31Z</time>
      </trkpt>
      <trkpt lat="42.4740170874" lon="-7.9864288867">
        <ele>522.13</ele>
        <time>2020-08-14T12:34:41Z</time>
      </trkpt>
      <trkpt lat="42.4740992300" lon="-7.9864583071">
        <ele>522.13</ele>
        <time>2020-08-14T12:34:48Z</time>
      </trkpt>
      <trkpt lat="42.4742108770" lon="-7.9864599835">
        <ele>522.61</ele>
        <time>2020-08-14T12:35:00Z</time>
      </trkpt>
      <trkpt lat="42.4742126372" lon="-7.9864626657">
        <ele>523.09</ele>
        <time>2020-08-14T12:35:04Z</time>
      </trkpt>
      <trkpt lat="42.4742343463" lon="-7.9864682816">
        <ele>523.58</ele>
        <time>2020-08-14T12:35:07Z</time>
      </trkpt>
      <trkpt lat="42.4742796086" lon="-7.9865538608">
        <ele>524.54</ele>
        <time>2020-08-14T12:35:13Z</time>
      </trkpt>
      <trkpt lat="42.4743086100" lon="-7.9866526835">
        <ele>524.54</ele>
        <time>2020-08-14T12:35:18Z</time>
      </trkpt>
      <trkpt lat="42.4744015653" lon="-7.9867386818">
        <ele>524.54</ele>
        <time>2020-08-14T12:35:26Z</time>
      </trkpt>
      <trkpt lat="42.4744341709" lon="-7.9867307190">
        <ele>523.09</ele>
        <time>2020-08-14T12:35:29Z</time>
      </trkpt>
      <trkpt lat="42.4745681975" lon="-7.9866520129">
        <ele>522.13</ele>
        <time>2020-08-14T12:35:38Z</time>
      </trkpt>
      <trkpt lat="42.4747037329" lon="-7.9866321478">
        <ele>524.06</ele>
        <time>2020-08-14T12:35:46Z</time>
      </trkpt>
      <trkpt lat="42.4747873843" lon="-7.9866607301">
        <ele>524.54</ele>
        <time>2020-08-14T12:35:52Z</time>
      </trkpt>
      <trkpt lat="42.4748793337" lon="-7.9867644142">
        <ele>524.54</ele>
        <time>2020-08-14T12:35:59Z</time>
      </trkpt>
      <trkpt lat="42.4749019649" lon="-7.9867665935">
        <ele>524.54</ele>
        <time>2020-08-14T12:36:00Z</time>
      </trkpt>
      <trkpt lat="42.4751106743" lon="-7.9867941700">
        <ele>525.50</ele>
        <time>2020-08-14T12:36:09Z</time>
      </trkpt>
      <trkpt lat="42.4753099121" lon="-7.9868730437">
        <ele>527.42</ele>
        <time>2020-08-14T12:36:17Z</time>
      </trkpt>
      <trkpt lat="42.4753388297" lon="-7.9869089182">
        <ele>527.42</ele>
        <time>2020-08-14T12:36:23Z</time>
      </trkpt>
      <trkpt lat="42.4753370695" lon="-7.9869095888">
        <ele>525.98</ele>
        <time>2020-08-14T12:36:32Z</time>
      </trkpt>
      <trkpt lat="42.4753372371" lon="-7.9869146179">
        <ele>522.61</ele>
        <time>2020-08-14T12:36:53Z</time>
      </trkpt>
      <trkpt lat="42.4753420986" lon="-7.9869034700">
        <ele>520.69</ele>
        <time>2020-08-14T12:37:16Z</time>
      </trkpt>
      <trkpt lat="42.4753373209" lon="-7.9868938308">
        <ele>519.73</ele>
        <time>2020-08-14T12:37:37Z</time>
      </trkpt>
      <trkpt lat="42.4753413443" lon="-7.9869060684">
        <ele>519.25</ele>
        <time>2020-08-14T12:37:53Z</time>
      </trkpt>
      <trkpt lat="42.4753426015" lon="-7.9869027156">
        <ele>519.73</ele>
        <time>2020-08-14T12:37:55Z</time>
      </trkpt>
      <trkpt lat="42.4754311983" lon="-7.9869956709">
        <ele>520.21</ele>
        <time>2020-08-14T12:38:04Z</time>
      </trkpt>
      <trkpt lat="42.4755569268" lon="-7.9870552663">
        <ele>521.17</ele>
        <time>2020-08-14T12:38:12Z</time>
      </trkpt>
      <trkpt lat="42.4756696634" lon="-7.9871365707">
        <ele>524.06</ele>
        <time>2020-08-14T12:38:19Z</time>
      </trkpt>
      <trkpt lat="42.4757795502" lon="-7.9871731158">
        <ele>526.94</ele>
        <time>2020-08-14T12:38:27Z</time>
      </trkpt>
      <trkpt lat="42.4757950567" lon="-7.9871750437">
        <ele>527.42</ele>
        <time>2020-08-14T12:38:28Z</time>
      </trkpt>
      <trkpt lat="42.4758610222" lon="-7.9872164503">
        <ele>527.90</ele>
        <time>2020-08-14T12:38:32Z</time>
      </trkpt>
      <trkpt lat="42.4759312626" lon="-7.9872946534">
        <ele>528.38</ele>
        <time>2020-08-14T12:38:37Z</time>
      </trkpt>
      <trkpt lat="42.4760939553" lon="-7.9873980861">
        <ele>529.34</ele>
        <time>2020-08-14T12:38:47Z</time>
      </trkpt>
      <trkpt lat="42.4762637727" lon="-7.9874871857">
        <ele>531.27</ele>
        <time>2020-08-14T12:38:57Z</time>
      </trkpt>
      <trkpt lat="42.4764400441" lon="-7.9876135010">
        <ele>534.15</ele>
        <time>2020-08-14T12:39:08Z</time>
      </trkpt>
      <trkpt lat="42.4766399525" lon="-7.9876402393">
        <ele>537.51</ele>
        <time>2020-08-14T12:39:18Z</time>
      </trkpt>
      <trkpt lat="42.4768733885" lon="-7.9876660556">
        <ele>538.48</ele>
        <time>2020-08-14T12:39:29Z</time>
      </trkpt>
      <trkpt lat="42.4770479836" lon="-7.9877340328">
        <ele>538.96</ele>
        <time>2020-08-14T12:39:38Z</time>
      </trkpt>
      <trkpt lat="42.4772855267" lon="-7.9878434166">
        <ele>538.96</ele>
        <time>2020-08-14T12:39:48Z</time>
      </trkpt>
      <trkpt lat="42.4774680845" lon="-7.9880672973">
        <ele>537.99</ele>
        <time>2020-08-14T12:39:58Z</time>
      </trkpt>
      <trkpt lat="42.4775556754" lon="-7.9883210175">
        <ele>537.03</ele>
        <time>2020-08-14T12:40:06Z</time>
      </trkpt>
      <trkpt lat="42.4775726069" lon="-7.9884164874">
        <ele>536.55</ele>
        <time>2020-08-14T12:40:10Z</time>
      </trkpt>
      <trkpt lat="42.4775706790" lon="-7.9884339217">
        <ele>536.55</ele>
        <time>2020-08-14T12:40:11Z</time>
      </trkpt>
      <trkpt lat="42.4775655661" lon="-7.9884498473">
        <ele>536.07</ele>
        <time>2020-08-14T12:40:12Z</time>
      </trkpt>
      <trkpt lat="42.4775386602" lon="-7.9884759989">
        <ele>535.59</ele>
        <time>2020-08-14T12:40:19Z</time>
      </trkpt>
      <trkpt lat="42.4775467906" lon="-7.9884734005">
        <ele>536.07</ele>
        <time>2020-08-14T12:40:29Z</time>
      </trkpt>
      <trkpt lat="42.4775589444" lon="-7.9884635936">
        <ele>536.55</ele>
        <time>2020-08-14T12:40:36Z</time>
      </trkpt>
      <trkpt lat="42.4776063021" lon="-7.9884733167">
        <ele>537.03</ele>
        <time>2020-08-14T12:40:39Z</time>
      </trkpt>
      <trkpt lat="42.4776254129" lon="-7.9884884879">
        <ele>537.03</ele>
        <time>2020-08-14T12:40:40Z</time>
      </trkpt>
      <trkpt lat="42.4776465353" lon="-7.9885097779">
        <ele>537.03</ele>
        <time>2020-08-14T12:40:41Z</time>
      </trkpt>
      <trkpt lat="42.4776671547" lon="-7.9885365162">
        <ele>537.51</ele>
        <time>2020-08-14T12:40:42Z</time>
      </trkpt>
      <trkpt lat="42.4776833318" lon="-7.9885665234">
        <ele>537.51</ele>
        <time>2020-08-14T12:40:43Z</time>
      </trkpt>
      <trkpt lat="42.4776974972" lon="-7.9885972012">
        <ele>537.51</ele>
        <time>2020-08-14T12:40:44Z</time>
      </trkpt>
      <trkpt lat="42.4778478686" lon="-7.9889714532">
        <ele>537.03</ele>
        <time>2020-08-14T12:40:53Z</time>
      </trkpt>
      <trkpt lat="42.4780398142" lon="-7.9893660732">
        <ele>536.07</ele>
        <time>2020-08-14T12:41:03Z</time>
      </trkpt>
      <trkpt lat="42.4783228710" lon="-7.9896167759">
        <ele>535.59</ele>
        <time>2020-08-14T12:41:12Z</time>
      </trkpt>
      <trkpt lat="42.4786084425" lon="-7.9897176102">
        <ele>536.07</ele>
        <time>2020-08-14T12:41:22Z</time>
      </trkpt>
      <trkpt lat="42.4789260328" lon="-7.9898049496">
        <ele>536.07</ele>
        <time>2020-08-14T12:41:31Z</time>
      </trkpt>
      <trkpt lat="42.4792950880" lon="-7.9898899421">
        <ele>533.67</ele>
        <time>2020-08-14T12:41:39Z</time>
      </trkpt>
      <trkpt lat="42.4797581881" lon="-7.9900341108">
        <ele>531.75</ele>
        <time>2020-08-14T12:41:47Z</time>
      </trkpt>
      <trkpt lat="42.4798840005" lon="-7.9901205283">
        <ele>530.79</ele>
        <time>2020-08-14T12:41:49Z</time>
      </trkpt>
      <trkpt lat="42.4799471162" lon="-7.9901817162">
        <ele>529.82</ele>
        <time>2020-08-14T12:41:50Z</time>
      </trkpt>
      <trkpt lat="42.4800053705" lon="-7.9902531300">
        <ele>529.34</ele>
        <time>2020-08-14T12:41:51Z</time>
      </trkpt>
      <trkpt lat="42.4800614454" lon="-7.9903381225">
        <ele>528.38</ele>
        <time>2020-08-14T12:41:52Z</time>
      </trkpt>
      <trkpt lat="42.4801157601" lon="-7.9904356878">
        <ele>527.42</ele>
        <time>2020-08-14T12:41:53Z</time>
      </trkpt>
      <trkpt lat="42.4801632855" lon="-7.9905300681">
        <ele>526.94</ele>
        <time>2020-08-14T12:41:54Z</time>
      </trkpt>
      <trkpt lat="42.4802610185" lon="-7.9906936828">
        <ele>525.02</ele>
        <time>2020-08-14T12:41:56Z</time>
      </trkpt>
      <trkpt lat="42.4803203624" lon="-7.9907481652">
        <ele>524.06</ele>
        <time>2020-08-14T12:41:57Z</time>
      </trkpt>
      <trkpt lat="42.4803857412" lon="-7.9907795135">
        <ele>523.58</ele>
        <time>2020-08-14T12:41:58Z</time>
      </trkpt>
      <trkpt lat="42.4804424867" lon="-7.9907930922">
        <ele>522.61</ele>
        <time>2020-08-14T12:41:59Z</time>
      </trkpt>
      <trkpt lat="42.4804950412" lon="-7.9907952715">
        <ele>522.13</ele>
        <time>2020-08-14T12:42:00Z</time>
      </trkpt>
      <trkpt lat="42.4805347715" lon="-7.9907918349">
        <ele>521.65</ele>
        <time>2020-08-14T12:42:01Z</time>
      </trkpt>
      <trkpt lat="42.4805571511" lon="-7.9907858837">
        <ele>521.17</ele>
        <time>2020-08-14T12:42:02Z</time>
      </trkpt>
      <trkpt lat="42.4807314109" lon="-7.9907319881">
        <ele>519.73</ele>
        <time>2020-08-14T12:42:08Z</time>
      </trkpt>
      <trkpt lat="42.4810244422" lon="-7.9905758332">
        <ele>518.29</ele>
        <time>2020-08-14T12:42:15Z</time>
      </trkpt>
      <trkpt lat="42.4814343173" lon="-7.9903407209">
        <ele>515.40</ele>
        <time>2020-08-14T12:42:22Z</time>
      </trkpt>
      <trkpt lat="42.4819483794" lon="-7.9900422413">
        <ele>513.48</ele>
        <time>2020-08-14T12:42:30Z</time>
      </trkpt>
      <trkpt lat="42.4821135867" lon="-7.9899523873">
        <ele>514.92</ele>
        <time>2020-08-14T12:42:35Z</time>
      </trkpt>
      <trkpt lat="42.4823305104" lon="-7.9899309296">
        <ele>516.85</ele>
        <time>2020-08-14T12:42:44Z</time>
      </trkpt>
      <trkpt lat="42.4824792892" lon="-7.9899498727">
        <ele>518.77</ele>
        <time>2020-08-14T12:42:52Z</time>
      </trkpt>
      <trkpt lat="42.4826152436" lon="-7.9899652116">
        <ele>519.73</ele>
        <time>2020-08-14T12:43:00Z</time>
      </trkpt>
      <trkpt lat="42.4826625176" lon="-7.9899674747">
        <ele>520.21</ele>
        <time>2020-08-14T12:43:04Z</time>
      </trkpt>
      <trkpt lat="42.4826762639" lon="-7.9899665527">
        <ele>520.21</ele>
        <time>2020-08-14T12:43:05Z</time>
      </trkpt>
      <trkpt lat="42.4826893397" lon="-7.9899678938">
        <ele>520.21</ele>
        <time>2020-08-14T12:43:06Z</time>
      </trkpt>
      <trkpt lat="42.4828435667" lon="-7.9899593443">
        <ele>521.65</ele>
        <time>2020-08-14T12:43:15Z</time>
      </trkpt>
      <trkpt lat="42.4830230232" lon="-7.9899734259">
        <ele>523.58</ele>
        <time>2020-08-14T12:43:24Z</time>
      </trkpt>
      <trkpt lat="42.4831935111" lon="-7.9900407325">
        <ele>524.54</ele>
        <time>2020-08-14T12:43:32Z</time>
      </trkpt>
      <trkpt lat="42.4834924936" lon="-7.9901696462">
        <ele>525.50</ele>
        <time>2020-08-14T12:43:44Z</time>
      </trkpt>
      <trkpt lat="42.4837624747" lon="-7.9902418982">
        <ele>525.98</ele>
        <time>2020-08-14T12:43:54Z</time>
      </trkpt>
      <trkpt lat="42.4840021972" lon="-7.9902555607">
        <ele>526.94</ele>
        <time>2020-08-14T12:44:03Z</time>
      </trkpt>
      <trkpt lat="42.4842684064" lon="-7.9902632721">
        <ele>528.38</ele>
        <time>2020-08-14T12:44:11Z</time>
      </trkpt>
      <trkpt lat="42.4843919557" lon="-7.9902269784">
        <ele>527.90</ele>
        <time>2020-08-14T12:44:17Z</time>
      </trkpt>
      <trkpt lat="42.4843909498" lon="-7.9902237933">
        <ele>527.90</ele>
        <time>2020-08-14T12:44:23Z</time>
      </trkpt>
      <trkpt lat="42.4843635410" lon="-7.9902341031">
        <ele>525.02</ele>
        <time>2020-08-14T12:44:39Z</time>
      </trkpt>
      <trkpt lat="42.4843940511" lon="-7.9902315885">
        <ele>524.54</ele>
        <time>2020-08-14T12:45:08Z</time>
      </trkpt>
      <trkpt lat="42.4843758624" lon="-7.9902284872">
        <ele>524.54</ele>
        <time>2020-08-14T12:45:37Z</time>
      </trkpt>
      <trkpt lat="42.4843889382" lon="-7.9902381264">
        <ele>524.06</ele>
        <time>2020-08-14T12:45:55Z</time>
      </trkpt>
      <trkpt lat="42.4844014272" lon="-7.9902329296">
        <ele>526.94</ele>
        <time>2020-08-14T12:46:14Z</time>
      </trkpt>
      <trkpt lat="42.4844157603" lon="-7.9902358633">
        <ele>526.46</ele>
        <time>2020-08-14T12:46:24Z</time>
      </trkpt>
      <trkpt lat="42.4844339490" lon="-7.9902405571">
        <ele>526.46</ele>
        <time>2020-08-14T12:46:25Z</time>
      </trkpt>
      <trkpt lat="42.4844570830" lon="-7.9902418982">
        <ele>526.46</ele>
        <time>2020-08-14T12:46:26Z</time>
      </trkpt>
      <trkpt lat="42.4844838213" lon="-7.9902404733">
        <ele>526.46</ele>
        <time>2020-08-14T12:46:27Z</time>
      </trkpt>
      <trkpt lat="42.4845147505" lon="-7.9902408924">
        <ele>525.98</ele>
        <time>2020-08-14T12:46:28Z</time>
      </trkpt>
      <trkpt lat="42.4845490325" lon="-7.9902370367">
        <ele>525.98</ele>
        <time>2020-08-14T12:46:29Z</time>
      </trkpt>
      <trkpt lat="42.4845889304" lon="-7.9902377073">
        <ele>525.50</ele>
        <time>2020-08-14T12:46:30Z</time>
      </trkpt>
      <trkpt lat="42.4849219434" lon="-7.9902380425">
        <ele>524.54</ele>
        <time>2020-08-14T12:46:37Z</time>
      </trkpt>
      <trkpt lat="42.4854002148" lon="-7.9903406370">
        <ele>522.61</ele>
        <time>2020-08-14T12:46:45Z</time>
      </trkpt>
      <trkpt lat="42.4859651551" lon="-7.9905553814">
        <ele>520.21</ele>
        <time>2020-08-14T12:46:55Z</time>
      </trkpt>
      <trkpt lat="42.4863605294" lon="-7.9907097761">
        <ele>520.69</ele>
        <time>2020-08-14T12:47:04Z</time>
      </trkpt>
      <trkpt lat="42.4866774492" lon="-7.9908495862">
        <ele>521.17</ele>
        <time>2020-08-14T12:47:13Z</time>
      </trkpt>
      <trkpt lat="42.4869775213" lon="-7.9909646697">
        <ele>520.69</ele>
        <time>2020-08-14T12:47:22Z</time>
      </trkpt>
      <trkpt lat="42.4873380270" lon="-7.9911539331">
        <ele>521.65</ele>
        <time>2020-08-14T12:47:32Z</time>
      </trkpt>
      <trkpt lat="42.4875375163" lon="-7.9913214874">
        <ele>523.09</ele>
        <time>2020-08-14T12:47:41Z</time>
      </trkpt>
      <trkpt lat="42.4877075851" lon="-7.9915089905">
        <ele>523.58</ele>
        <time>2020-08-14T12:47:51Z</time>
      </trkpt>
      <trkpt lat="42.4878197350" lon="-7.9916444421">
        <ele>524.54</ele>
        <time>2020-08-14T12:47:59Z</time>
      </trkpt>
      <trkpt lat="42.4879249278" lon="-7.9917948134">
        <ele>525.50</ele>
        <time>2020-08-14T12:48:07Z</time>
      </trkpt>
      <trkpt lat="42.4880293664" lon="-7.9919816460">
        <ele>525.98</ele>
        <time>2020-08-14T12:48:17Z</time>
      </trkpt>
      <trkpt lat="42.4881202262" lon="-7.9921566602">
        <ele>526.94</ele>
        <time>2020-08-14T12:48:27Z</time>
      </trkpt>
      <trkpt lat="42.4881626386" lon="-7.9922466818">
        <ele>527.42</ele>
        <time>2020-08-14T12:48:32Z</time>
      </trkpt>
      <trkpt lat="42.4881725293" lon="-7.9922619369">
        <ele>527.42</ele>
        <time>2020-08-14T12:48:33Z</time>
      </trkpt>
      <trkpt lat="42.4881821685" lon="-7.9922789522">
        <ele>527.42</ele>
        <time>2020-08-14T12:48:34Z</time>
      </trkpt>
      <trkpt lat="42.4881916400" lon="-7.9922948778">
        <ele>527.42</ele>
        <time>2020-08-14T12:48:35Z</time>
      </trkpt>
      <trkpt lat="42.4881994352" lon="-7.9923124798">
        <ele>527.90</ele>
        <time>2020-08-14T12:48:36Z</time>
      </trkpt>
      <trkpt lat="42.4882571865" lon="-7.9924239591">
        <ele>528.38</ele>
        <time>2020-08-14T12:48:43Z</time>
      </trkpt>
      <trkpt lat="42.4883617926" lon="-7.9925890826">
        <ele>530.30</ele>
        <time>2020-08-14T12:48:54Z</time>
      </trkpt>
      <trkpt lat="42.4885005970" lon="-7.9927072674">
        <ele>532.23</ele>
        <time>2020-08-14T12:49:04Z</time>
      </trkpt>
      <trkpt lat="42.4886686541" lon="-7.9928304814">
        <ele>535.11</ele>
        <time>2020-08-14T12:49:15Z</time>
      </trkpt>
      <trkpt lat="42.4887943827" lon="-7.9929400329">
        <ele>536.55</ele>
        <time>2020-08-14T12:49:24Z</time>
      </trkpt>
      <trkpt lat="42.4889502861" lon="-7.9931059107">
        <ele>538.48</ele>
        <time>2020-08-14T12:49:36Z</time>
      </trkpt>
      <trkpt lat="42.4890563171" lon="-7.9932810925">
        <ele>538.96</ele>
        <time>2020-08-14T12:49:46Z</time>
      </trkpt>
      <trkpt lat="42.4891459197" lon="-7.9934717808">
        <ele>540.88</ele>
        <time>2020-08-14T12:49:56Z</time>
      </trkpt>
      <trkpt lat="42.4892372824" lon="-7.9936844297">
        <ele>541.84</ele>
        <time>2020-08-14T12:50:07Z</time>
      </trkpt>
      <trkpt lat="42.4893474206" lon="-7.9938744474">
        <ele>542.32</ele>
        <time>2020-08-14T12:50:18Z</time>
      </trkpt>
      <trkpt lat="42.4894635938" lon="-7.9939956497">
        <ele>543.28</ele>
        <time>2020-08-14T12:50:27Z</time>
      </trkpt>
      <trkpt lat="42.4895288050" lon="-7.9941280838">
        <ele>543.76</ele>
        <time>2020-08-14T12:50:34Z</time>
      </trkpt>
      <trkpt lat="42.4895668589" lon="-7.9943021759">
        <ele>544.24</ele>
        <time>2020-08-14T12:50:41Z</time>
      </trkpt>
      <trkpt lat="42.4896402843" lon="-7.9945721570">
        <ele>543.28</ele>
        <time>2020-08-14T12:50:49Z</time>
      </trkpt>
      <trkpt lat="42.4897465669" lon="-7.9949264601">
        <ele>543.28</ele>
        <time>2020-08-14T12:51:00Z</time>
      </trkpt>
      <trkpt lat="42.4898453057" lon="-7.9952415358">
        <ele>541.36</ele>
        <time>2020-08-14T12:51:07Z</time>
      </trkpt>
      <trkpt lat="42.4899721239" lon="-7.9956732038">
        <ele>539.92</ele>
        <time>2020-08-14T12:51:13Z</time>
      </trkpt>
      <trkpt lat="42.4900437053" lon="-7.9962624516">
        <ele>537.03</ele>
        <time>2020-08-14T12:51:19Z</time>
      </trkpt>
      <trkpt lat="42.4901192263" lon="-7.9970999714">
        <ele>532.23</ele>
        <time>2020-08-14T12:51:27Z</time>
      </trkpt>
      <trkpt lat="42.4901495688" lon="-7.9971860535">
        <ele>531.75</ele>
        <time>2020-08-14T12:51:28Z</time>
      </trkpt>
      <trkpt lat="42.4901884608" lon="-7.9972624127">
        <ele>531.27</ele>
        <time>2020-08-14T12:51:29Z</time>
      </trkpt>
      <trkpt lat="42.4902363215" lon="-7.9973320663">
        <ele>530.79</ele>
        <time>2020-08-14T12:51:30Z</time>
      </trkpt>
      <trkpt lat="42.4902903847" lon="-7.9973971099">
        <ele>530.30</ele>
        <time>2020-08-14T12:51:31Z</time>
      </trkpt>
      <trkpt lat="42.4905790575" lon="-7.9977179691">
        <ele>527.42</ele>
        <time>2020-08-14T12:51:36Z</time>
      </trkpt>
      <trkpt lat="42.4906266667" lon="-7.9977894668">
        <ele>526.94</ele>
        <time>2020-08-14T12:51:37Z</time>
      </trkpt>
      <trkpt lat="42.4906664807" lon="-7.9978695977">
        <ele>526.94</ele>
        <time>2020-08-14T12:51:38Z</time>
      </trkpt>
      <trkpt lat="42.4906938896" lon="-7.9979573563">
        <ele>526.46</ele>
        <time>2020-08-14T12:51:39Z</time>
      </trkpt>
      <trkpt lat="42.4907087255" lon="-7.9980581068">
        <ele>525.98</ele>
        <time>2020-08-14T12:51:40Z</time>
      </trkpt>
      <trkpt lat="42.4907097314" lon="-7.9981580190">
        <ele>525.50</ele>
        <time>2020-08-14T12:51:41Z</time>
      </trkpt>
      <trkpt lat="42.4907036126" lon="-7.9982628766">
        <ele>525.02</ele>
        <time>2020-08-14T12:51:42Z</time>
      </trkpt>
      <trkpt lat="42.4906909559" lon="-7.9983706679">
        <ele>524.54</ele>
        <time>2020-08-14T12:51:43Z</time>
      </trkpt>
      <trkpt lat="42.4906725157" lon="-7.9984881822">
        <ele>524.06</ele>
        <time>2020-08-14T12:51:44Z</time>
      </trkpt>
      <trkpt lat="42.4905220605" lon="-7.9992363509">
        <ele>520.21</ele>
        <time>2020-08-14T12:51:51Z</time>
      </trkpt>
      <trkpt lat="42.4904255848" lon="-7.9995291308">
        <ele>518.77</ele>
        <time>2020-08-14T12:51:54Z</time>
      </trkpt>
      <trkpt lat="42.4904089049" lon="-7.9996198229">
        <ele>518.29</ele>
        <time>2020-08-14T12:51:55Z</time>
      </trkpt>
      <trkpt lat="42.4904059712" lon="-7.9997071624">
        <ele>517.81</ele>
        <time>2020-08-14T12:51:56Z</time>
      </trkpt>
      <trkpt lat="42.4904171191" lon="-7.9997788277">
        <ele>517.33</ele>
        <time>2020-08-14T12:51:57Z</time>
      </trkpt>
      <trkpt lat="42.4904456176" lon="-7.9998509120">
        <ele>516.37</ele>
        <time>2020-08-14T12:51:58Z</time>
      </trkpt>
      <trkpt lat="42.4904923886" lon="-7.9999063164">
        <ele>515.88</ele>
        <time>2020-08-14T12:51:59Z</time>
      </trkpt>
      <trkpt lat="42.4905405845" lon="-7.9999344796">
        <ele>515.40</ele>
        <time>2020-08-14T12:52:00Z</time>
      </trkpt>
      <trkpt lat="42.4905925523" lon="-7.9999444541">
        <ele>514.44</ele>
        <time>2020-08-14T12:52:01Z</time>
      </trkpt>
      <trkpt lat="42.4906541593" lon="-7.9999317974">
        <ele>513.96</ele>
        <time>2020-08-14T12:52:02Z</time>
      </trkpt>
      <trkpt lat="42.4907148443" lon="-7.9998962581">
        <ele>513.48</ele>
        <time>2020-08-14T12:52:03Z</time>
      </trkpt>
      <trkpt lat="42.4907799717" lon="-7.9998458829">
        <ele>513.00</ele>
        <time>2020-08-14T12:52:04Z</time>
      </trkpt>
      <trkpt lat="42.4912742525" lon="-7.9994195793">
        <ele>508.67</ele>
        <time>2020-08-14T12:52:11Z</time>
      </trkpt>
      <trkpt lat="42.4917434715" lon="-7.9991346784">
        <ele>506.27</ele>
        <time>2020-08-14T12:52:17Z</time>
      </trkpt>
      <trkpt lat="42.4919384345" lon="-7.9989860673">
        <ele>504.83</ele>
        <time>2020-08-14T12:52:20Z</time>
      </trkpt>
      <trkpt lat="42.4919949286" lon="-7.9989107139">
        <ele>504.35</ele>
        <time>2020-08-14T12:52:21Z</time>
      </trkpt>
      <trkpt lat="42.4920430407" lon="-7.9988331813">
        <ele>503.87</ele>
        <time>2020-08-14T12:52:22Z</time>
      </trkpt>
      <trkpt lat="42.4924410135" lon="-7.9981245752">
        <ele>499.06</ele>
        <time>2020-08-14T12:52:30Z</time>
      </trkpt>
      <trkpt lat="42.4925440270" lon="-7.9979589488">
        <ele>498.10</ele>
        <time>2020-08-14T12:52:32Z</time>
      </trkpt>
      <trkpt lat="42.4925970845" lon="-7.9978991859">
        <ele>497.62</ele>
        <time>2020-08-14T12:52:33Z</time>
      </trkpt>
      <trkpt lat="42.4926631339" lon="-7.9978460446">
        <ele>497.14</ele>
        <time>2020-08-14T12:52:34Z</time>
      </trkpt>
      <trkpt lat="42.4927249923" lon="-7.9978183005">
        <ele>497.14</ele>
        <time>2020-08-14T12:52:35Z</time>
      </trkpt>
      <trkpt lat="42.4928005971" lon="-7.9978144448">
        <ele>497.14</ele>
        <time>2020-08-14T12:52:36Z</time>
      </trkpt>
      <trkpt lat="42.4928710889" lon="-7.9978393391">
        <ele>496.66</ele>
        <time>2020-08-14T12:52:37Z</time>
      </trkpt>
      <trkpt lat="42.4929435086" lon="-7.9978934024">
        <ele>496.18</ele>
        <time>2020-08-14T12:52:38Z</time>
      </trkpt>
      <trkpt lat="42.4930032715" lon="-7.9979635589">
        <ele>495.70</ele>
        <time>2020-08-14T12:52:39Z</time>
      </trkpt>
      <trkpt lat="42.4930520542" lon="-7.9980509821">
        <ele>495.22</ele>
        <time>2020-08-14T12:52:40Z</time>
      </trkpt>
      <trkpt lat="42.4930906110" lon="-7.9981418420">
        <ele>494.74</ele>
        <time>2020-08-14T12:52:41Z</time>
      </trkpt>
      <trkpt lat="42.4931313470" lon="-7.9982452746">
        <ele>494.74</ele>
        <time>2020-08-14T12:52:42Z</time>
      </trkpt>
      <trkpt lat="42.4933471810" lon="-7.9988524597">
        <ele>493.29</ele>
        <time>2020-08-14T12:52:49Z</time>
      </trkpt>
      <trkpt lat="42.4935210217" lon="-7.9991713073">
        <ele>493.29</ele>
        <time>2020-08-14T12:52:54Z</time>
      </trkpt>
      <trkpt lat="42.4935624283" lon="-7.9992182460">
        <ele>493.29</ele>
        <time>2020-08-14T12:52:55Z</time>
      </trkpt>
      <trkpt lat="42.4935969617" lon="-7.9992499296">
        <ele>493.29</ele>
        <time>2020-08-14T12:52:56Z</time>
      </trkpt>
      <trkpt lat="42.4936360214" lon="-7.9992790148">
        <ele>493.29</ele>
        <time>2020-08-14T12:52:57Z</time>
      </trkpt>
      <trkpt lat="42.4936667830" lon="-7.9992985446">
        <ele>493.77</ele>
        <time>2020-08-14T12:52:58Z</time>
      </trkpt>
      <trkpt lat="42.4938137177" lon="-7.9993242770">
        <ele>496.18</ele>
        <time>2020-08-14T12:53:04Z</time>
      </trkpt>
      <trkpt lat="42.4939749856" lon="-7.9992812779">
        <ele>497.62</ele>
        <time>2020-08-14T12:53:12Z</time>
      </trkpt>
      <trkpt lat="42.4941329844" lon="-7.9992309865">
        <ele>499.06</ele>
        <time>2020-08-14T12:53:21Z</time>
      </trkpt>
      <trkpt lat="42.4942629039" lon="-7.9991964530">
        <ele>500.98</ele>
        <time>2020-08-14T12:53:29Z</time>
      </trkpt>
      <trkpt lat="42.4944147840" lon="-7.9991529509">
        <ele>501.95</ele>
        <time>2020-08-14T12:53:38Z</time>
      </trkpt>
      <trkpt lat="42.4945679214" lon="-7.9991417192">
        <ele>505.31</ele>
        <time>2020-08-14T12:53:47Z</time>
      </trkpt>
      <trkpt lat="42.4946500640" lon="-7.9991607461">
        <ele>507.23</ele>
        <time>2020-08-14T12:53:54Z</time>
      </trkpt>
      <trkpt lat="42.4947669916" lon="-7.9991814494">
        <ele>511.08</ele>
        <time>2020-08-14T12:54:02Z</time>
      </trkpt>
      <trkpt lat="42.4949394073" lon="-7.9992729798">
        <ele>513.96</ele>
        <time>2020-08-14T12:54:12Z</time>
      </trkpt>
      <trkpt lat="42.4951077159" lon="-7.9993774183">
        <ele>514.44</ele>
        <time>2020-08-14T12:54:22Z</time>
      </trkpt>
      <trkpt lat="42.4952397309" lon="-7.9994707927">
        <ele>514.44</ele>
        <time>2020-08-14T12:54:31Z</time>
      </trkpt>
      <trkpt lat="42.4953838997" lon="-7.9995774105">
        <ele>515.88</ele>
        <time>2020-08-14T12:54:40Z</time>
      </trkpt>
      <trkpt lat="42.4954750109" lon="-7.9996819329">
        <ele>516.37</ele>
        <time>2020-08-14T12:54:48Z</time>
      </trkpt>
      <trkpt lat="42.4955215305" lon="-7.9998498224">
        <ele>516.37</ele>
        <time>2020-08-14T12:54:57Z</time>
      </trkpt>
      <trkpt lat="42.4955367018" lon="-8.0000012834">
        <ele>515.88</ele>
        <time>2020-08-14T12:55:04Z</time>
      </trkpt>
      <trkpt lat="42.4954881705" lon="-8.0001747049">
        <ele>514.44</ele>
        <time>2020-08-14T12:55:13Z</time>
      </trkpt>
      <trkpt lat="42.4954526313" lon="-8.0003245734">
        <ele>513.96</ele>
        <time>2020-08-14T12:55:21Z</time>
      </trkpt>
      <trkpt lat="42.4954020884" lon="-8.0004455242">
        <ele>515.40</ele>
        <time>2020-08-14T12:55:28Z</time>
      </trkpt>
      <trkpt lat="42.4953960534" lon="-8.0004627071">
        <ele>515.88</ele>
        <time>2020-08-14T12:55:29Z</time>
      </trkpt>
      <trkpt lat="42.4953883421" lon="-8.0004830752">
        <ele>516.37</ele>
        <time>2020-08-14T12:55:30Z</time>
      </trkpt>
      <trkpt lat="42.4953813013" lon="-8.0005026888">
        <ele>516.85</ele>
        <time>2020-08-14T12:55:31Z</time>
      </trkpt>
      <trkpt lat="42.4953740928" lon="-8.0005207937">
        <ele>517.33</ele>
        <time>2020-08-14T12:55:32Z</time>
      </trkpt>
      <trkpt lat="42.4953126535" lon="-8.0006928742">
        <ele>518.77</ele>
        <time>2020-08-14T12:55:41Z</time>
      </trkpt>
      <trkpt lat="42.4952472746" lon="-8.0008466821">
        <ele>520.69</ele>
        <time>2020-08-14T12:55:49Z</time>
      </trkpt>
      <trkpt lat="42.4951870088" lon="-8.0009950418">
        <ele>522.13</ele>
        <time>2020-08-14T12:55:57Z</time>
      </trkpt>
      <trkpt lat="42.4951276649" lon="-8.0011936929">
        <ele>523.58</ele>
        <time>2020-08-14T12:56:06Z</time>
      </trkpt>
      <trkpt lat="42.4950581789" lon="-8.0014273804">
        <ele>525.50</ele>
        <time>2020-08-14T12:56:17Z</time>
      </trkpt>
      <trkpt lat="42.4950263277" lon="-8.0016217567">
        <ele>525.98</ele>
        <time>2020-08-14T12:56:26Z</time>
      </trkpt>
      <trkpt lat="42.4950323626" lon="-8.0017898139">
        <ele>526.94</ele>
        <time>2020-08-14T12:56:34Z</time>
      </trkpt>
      <trkpt lat="42.4950812291" lon="-8.0019582063">
        <ele>529.82</ele>
        <time>2020-08-14T12:56:43Z</time>
      </trkpt>
      <trkpt lat="42.4951817282" lon="-8.0021493137">
        <ele>532.23</ele>
        <time>2020-08-14T12:56:53Z</time>
      </trkpt>
      <trkpt lat="42.4952441733" lon="-8.0022626370">
        <ele>531.75</ele>
        <time>2020-08-14T12:57:00Z</time>
      </trkpt>
      <trkpt lat="42.4953398108" lon="-8.0024139304">
        <ele>533.19</ele>
        <time>2020-08-14T12:57:09Z</time>
      </trkpt>
      <trkpt lat="42.4954345264" lon="-8.0025579315">
        <ele>532.71</ele>
        <time>2020-08-14T12:57:18Z</time>
      </trkpt>
      <trkpt lat="42.4955440778" lon="-8.0027292576">
        <ele>534.63</ele>
        <time>2020-08-14T12:57:29Z</time>
      </trkpt>
      <trkpt lat="42.4955541361" lon="-8.0027595162">
        <ele>535.11</ele>
        <time>2020-08-14T12:57:34Z</time>
      </trkpt>
      <trkpt lat="42.4955622666" lon="-8.0027607735">
        <ele>535.59</ele>
        <time>2020-08-14T12:57:48Z</time>
      </trkpt>
      <trkpt lat="42.4955601711" lon="-8.0027642101">
        <ele>535.11</ele>
        <time>2020-08-14T12:58:06Z</time>
      </trkpt>
      <trkpt lat="42.4955797009" lon="-8.0028126575">
        <ele>536.07</ele>
        <time>2020-08-14T12:58:15Z</time>
      </trkpt>
      <trkpt lat="42.4955868255" lon="-8.0028196145">
        <ele>536.55</ele>
        <time>2020-08-14T12:58:16Z</time>
      </trkpt>
      <trkpt lat="42.4955981411" lon="-8.0028295889">
        <ele>537.03</ele>
        <time>2020-08-14T12:58:17Z</time>
      </trkpt>
      <trkpt lat="42.4956071936" lon="-8.0028430000">
        <ele>537.51</ele>
        <time>2020-08-14T12:58:18Z</time>
      </trkpt>
      <trkpt lat="42.4956159107" lon="-8.0028586742">
        <ele>537.51</ele>
        <time>2020-08-14T12:58:19Z</time>
      </trkpt>
      <trkpt lat="42.4956264719" lon="-8.0028756894">
        <ele>537.51</ele>
        <time>2020-08-14T12:58:20Z</time>
      </trkpt>
      <trkpt lat="42.4957298208" lon="-8.0030356999">
        <ele>538.96</ele>
        <time>2020-08-14T12:58:29Z</time>
      </trkpt>
      <trkpt lat="42.4958347622" lon="-8.0031776056">
        <ele>540.40</ele>
        <time>2020-08-14T12:58:37Z</time>
      </trkpt>
      <trkpt lat="42.4959512707" lon="-8.0033314973">
        <ele>539.92</ele>
        <time>2020-08-14T12:58:46Z</time>
      </trkpt>
      <trkpt lat="42.4960500933" lon="-8.0034758337">
        <ele>540.40</ele>
        <time>2020-08-14T12:58:54Z</time>
      </trkpt>
      <trkpt lat="42.4961666856" lon="-8.0035925098">
        <ele>541.36</ele>
        <time>2020-08-14T12:59:02Z</time>
      </trkpt>
      <trkpt lat="42.4963116087" lon="-8.0037216749">
        <ele>541.84</ele>
        <time>2020-08-14T12:59:12Z</time>
      </trkpt>
      <trkpt lat="42.4964497425" lon="-8.0038151331">
        <ele>542.80</ele>
        <time>2020-08-14T12:59:21Z</time>
      </trkpt>
      <trkpt lat="42.4966012873" lon="-8.0039420351">
        <ele>543.76</ele>
        <time>2020-08-14T12:59:31Z</time>
      </trkpt>
      <trkpt lat="42.4966288637" lon="-8.0039693601">
        <ele>543.76</ele>
        <time>2020-08-14T12:59:33Z</time>
      </trkpt>
      <trkpt lat="42.4967446178" lon="-8.0040470604">
        <ele>544.72</ele>
        <time>2020-08-14T12:59:41Z</time>
      </trkpt>
      <trkpt lat="42.4968705978" lon="-8.0041366629">
        <ele>546.17</ele>
        <time>2020-08-14T12:59:50Z</time>
      </trkpt>
      <trkpt lat="42.4969523214" lon="-8.0042027961">
        <ele>547.61</ele>
        <time>2020-08-14T12:59:58Z</time>
      </trkpt>
      <trkpt lat="42.4970290158" lon="-8.0042578653">
        <ele>548.09</ele>
        <time>2020-08-14T13:00:05Z</time>
      </trkpt>
      <trkpt lat="42.4970440194" lon="-8.0042643193">
        <ele>548.09</ele>
        <time>2020-08-14T13:00:06Z</time>
      </trkpt>
      <trkpt lat="42.4970588554" lon="-8.0042742938">
        <ele>548.57</ele>
        <time>2020-08-14T13:00:07Z</time>
      </trkpt>
      <trkpt lat="42.4970712606" lon="-8.0042856932">
        <ele>548.57</ele>
        <time>2020-08-14T13:00:08Z</time>
      </trkpt>
      <trkpt lat="42.4970846716" lon="-8.0042969249">
        <ele>549.05</ele>
        <time>2020-08-14T13:00:09Z</time>
      </trkpt>
      <trkpt lat="42.4970977474" lon="-8.0043074861">
        <ele>549.05</ele>
        <time>2020-08-14T13:00:10Z</time>
      </trkpt>
      <trkpt lat="42.4971092306" lon="-8.0043208972">
        <ele>549.53</ele>
        <time>2020-08-14T13:00:11Z</time>
      </trkpt>
      <trkpt lat="42.4972254876" lon="-8.0044210609">
        <ele>550.49</ele>
        <time>2020-08-14T13:00:20Z</time>
      </trkpt>
      <trkpt lat="42.4973077141" lon="-8.0044993479">
        <ele>550.97</ele>
        <time>2020-08-14T13:00:27Z</time>
      </trkpt>
      <trkpt lat="42.4974085484" lon="-8.0046191253">
        <ele>552.41</ele>
        <time>2020-08-14T13:00:36Z</time>
      </trkpt>
      <trkpt lat="42.4975260627" lon="-8.0047772918">
        <ele>553.86</ele>
        <time>2020-08-14T13:00:48Z</time>
      </trkpt>
      <trkpt lat="42.4976212811" lon="-8.0048823170">
        <ele>555.78</ele>
        <time>2020-08-14T13:00:57Z</time>
      </trkpt>
      <trkpt lat="42.4977356941" lon="-8.0049668904">
        <ele>558.18</ele>
        <time>2020-08-14T13:01:06Z</time>
      </trkpt>
      <trkpt lat="42.4978390429" lon="-8.0050321855">
        <ele>559.62</ele>
        <time>2020-08-14T13:01:14Z</time>
      </trkpt>
      <trkpt lat="42.4978511967" lon="-8.0050419085">
        <ele>560.11</ele>
        <time>2020-08-14T13:01:15Z</time>
      </trkpt>
      <trkpt lat="42.4978654459" lon="-8.0050512962">
        <ele>560.11</ele>
        <time>2020-08-14T13:01:16Z</time>
      </trkpt>
      <trkpt lat="42.4980158173" lon="-8.0051205307">
        <ele>562.51</ele>
        <time>2020-08-14T13:01:26Z</time>
      </trkpt>
      <trkpt lat="42.4981674459" lon="-8.0051591713">
        <ele>564.91</ele>
        <time>2020-08-14T13:01:36Z</time>
      </trkpt>
      <trkpt lat="42.4983264506" lon="-8.0052028410">
        <ele>567.32</ele>
        <time>2020-08-14T13:01:46Z</time>
      </trkpt>
      <trkpt lat="42.4984427076" lon="-8.0052581616">
        <ele>567.80</ele>
        <time>2020-08-14T13:01:54Z</time>
      </trkpt>
      <trkpt lat="42.4985471461" lon="-8.0053737480">
        <ele>569.24</ele>
        <time>2020-08-14T13:02:02Z</time>
      </trkpt>
      <trkpt lat="42.4986395147" lon="-8.0055815354">
        <ele>568.76</ele>
        <time>2020-08-14T13:02:12Z</time>
      </trkpt>
      <trkpt lat="42.4987315480" lon="-8.0057852156">
        <ele>569.72</ele>
        <time>2020-08-14T13:02:22Z</time>
      </trkpt>
      <trkpt lat="42.4988273531" lon="-8.0059915781">
        <ele>570.68</ele>
        <time>2020-08-14T13:02:32Z</time>
      </trkpt>
      <trkpt lat="42.4989290256" lon="-8.0061724596">
        <ele>571.16</ele>
        <time>2020-08-14T13:02:41Z</time>
      </trkpt>
      <trkpt lat="42.4990849290" lon="-8.0063608848">
        <ele>570.20</ele>
        <time>2020-08-14T13:02:52Z</time>
      </trkpt>
      <trkpt lat="42.4992380664" lon="-8.0065605417">
        <ele>570.68</ele>
        <time>2020-08-14T13:03:03Z</time>
      </trkpt>
      <trkpt lat="42.4993255734" lon="-8.0067250784">
        <ele>571.16</ele>
        <time>2020-08-14T13:03:11Z</time>
      </trkpt>
      <trkpt lat="42.4994716700" lon="-8.0069760326">
        <ele>572.12</ele>
        <time>2020-08-14T13:03:22Z</time>
      </trkpt>
      <trkpt lat="42.4995793775" lon="-8.0071703251">
        <ele>573.08</ele>
        <time>2020-08-14T13:03:31Z</time>
      </trkpt>
      <trkpt lat="42.4997046031" lon="-8.0073840637">
        <ele>574.04</ele>
        <time>2020-08-14T13:03:41Z</time>
      </trkpt>
      <trkpt lat="42.4998411443" lon="-8.0075889174">
        <ele>575.01</ele>
        <time>2020-08-14T13:03:51Z</time>
      </trkpt>
      <trkpt lat="42.4999660347" lon="-8.0077713076">
        <ele>575.49</ele>
        <time>2020-08-14T13:04:00Z</time>
      </trkpt>
      <trkpt lat="42.5001117121" lon="-8.0079852976">
        <ele>575.49</ele>
        <time>2020-08-14T13:04:09Z</time>
      </trkpt>
      <trkpt lat="42.5002919231" lon="-8.0082486570">
        <ele>577.41</ele>
        <time>2020-08-14T13:04:19Z</time>
      </trkpt>
      <trkpt lat="42.5005147140" lon="-8.0085076578">
        <ele>578.85</ele>
        <time>2020-08-14T13:04:30Z</time>
      </trkpt>
      <trkpt lat="42.5006499980" lon="-8.0085799936">
        <ele>579.33</ele>
        <time>2020-08-14T13:04:36Z</time>
      </trkpt>
      <trkpt lat="42.5009310432" lon="-8.0087169539">
        <ele>579.81</ele>
        <time>2020-08-14T13:04:48Z</time>
      </trkpt>
      <trkpt lat="42.5012348872" lon="-8.0088385753">
        <ele>582.70</ele>
        <time>2020-08-14T13:05:00Z</time>
      </trkpt>
      <trkpt lat="42.5014472846" lon="-8.0089303572">
        <ele>584.14</ele>
        <time>2020-08-14T13:05:09Z</time>
      </trkpt>
      <trkpt lat="42.5016773678" lon="-8.0090373103">
        <ele>586.54</ele>
        <time>2020-08-14T13:05:19Z</time>
      </trkpt>
      <trkpt lat="42.5018765219" lon="-8.0090850033">
        <ele>587.50</ele>
        <time>2020-08-14T13:05:28Z</time>
      </trkpt>
      <trkpt lat="42.5021373667" lon="-8.0091150105">
        <ele>587.50</ele>
        <time>2020-08-14T13:05:38Z</time>
      </trkpt>
      <trkpt lat="42.5023370236" lon="-8.0091590155">
        <ele>586.54</ele>
        <time>2020-08-14T13:05:46Z</time>
      </trkpt>
      <trkpt lat="42.5025571324" lon="-8.0091945548">
        <ele>586.06</ele>
        <time>2020-08-14T13:05:54Z</time>
      </trkpt>
      <trkpt lat="42.5027834438" lon="-8.0092186108">
        <ele>585.58</ele>
        <time>2020-08-14T13:06:04Z</time>
      </trkpt>
      <trkpt lat="42.5030058995" lon="-8.0092080496">
        <ele>584.62</ele>
        <time>2020-08-14T13:06:12Z</time>
      </trkpt>
      <trkpt lat="42.5032378267" lon="-8.0090635456">
        <ele>583.66</ele>
        <time>2020-08-14T13:06:19Z</time>
      </trkpt>
      <trkpt lat="42.5035893638" lon="-8.0087270122">
        <ele>581.25</ele>
        <time>2020-08-14T13:06:29Z</time>
      </trkpt>
      <trkpt lat="42.5039067864" lon="-8.0084059015">
        <ele>580.77</ele>
        <time>2020-08-14T13:06:39Z</time>
      </trkpt>
      <trkpt lat="42.5041631050" lon="-8.0082448851">
        <ele>581.73</ele>
        <time>2020-08-14T13:06:48Z</time>
      </trkpt>
      <trkpt lat="42.5044309068" lon="-8.0081104394">
        <ele>582.70</ele>
        <time>2020-08-14T13:06:57Z</time>
      </trkpt>
      <trkpt lat="42.5047018938" lon="-8.0081348307">
        <ele>583.66</ele>
        <time>2020-08-14T13:07:05Z</time>
      </trkpt>
      <trkpt lat="42.5049886387" lon="-8.0083594657">
        <ele>581.73</ele>
        <time>2020-08-14T13:07:11Z</time>
      </trkpt>
      <trkpt lat="42.5054180436" lon="-8.0087091587">
        <ele>580.29</ele>
        <time>2020-08-14T13:07:18Z</time>
      </trkpt>
      <trkpt lat="42.5058816466" lon="-8.0090195406">
        <ele>581.25</ele>
        <time>2020-08-14T13:07:26Z</time>
      </trkpt>
      <trkpt lat="42.5059367996" lon="-8.0090363044">
        <ele>581.25</ele>
        <time>2020-08-14T13:07:27Z</time>
      </trkpt>
      <trkpt lat="42.5063088723" lon="-8.0091088079">
        <ele>581.25</ele>
        <time>2020-08-14T13:07:35Z</time>
      </trkpt>
      <trkpt lat="42.5067622494" lon="-8.0091840774">
        <ele>581.73</ele>
        <time>2020-08-14T13:07:46Z</time>
      </trkpt>
      <trkpt lat="42.5071337353" lon="-8.0091419164">
        <ele>581.25</ele>
        <time>2020-08-14T13:07:56Z</time>
      </trkpt>
      <trkpt lat="42.5073223282" lon="-8.0090369750">
        <ele>580.77</ele>
        <time>2020-08-14T13:08:04Z</time>
      </trkpt>
      <trkpt lat="42.5075354800" lon="-8.0088921357">
        <ele>581.73</ele>
        <time>2020-08-14T13:08:13Z</time>
      </trkpt>
      <trkpt lat="42.5077863503" lon="-8.0087375734">
        <ele>582.70</ele>
        <time>2020-08-14T13:08:24Z</time>
      </trkpt>
      <trkpt lat="42.5080292579" lon="-8.0085908063">
        <ele>584.62</ele>
        <time>2020-08-14T13:08:35Z</time>
      </trkpt>
      <trkpt lat="42.5082807988" lon="-8.0084396806">
        <ele>586.06</ele>
        <time>2020-08-14T13:08:47Z</time>
      </trkpt>
      <trkpt lat="42.5084443297" lon="-8.0083384272">
        <ele>587.50</ele>
        <time>2020-08-14T13:08:55Z</time>
      </trkpt>
      <trkpt lat="42.5086137280" lon="-8.0082428735">
        <ele>588.46</ele>
        <time>2020-08-14T13:09:03Z</time>
      </trkpt>
      <trkpt lat="42.5087656919" lon="-8.0081904028">
        <ele>588.95</ele>
        <time>2020-08-14T13:09:10Z</time>
      </trkpt>
      <trkpt lat="42.5090243574" lon="-8.0081573781">
        <ele>591.35</ele>
        <time>2020-08-14T13:09:20Z</time>
      </trkpt>
      <trkpt lat="42.5092783291" lon="-8.0081653409">
        <ele>591.83</ele>
        <time>2020-08-14T13:09:29Z</time>
      </trkpt>
      <trkpt lat="42.5095472205" lon="-8.0080743134">
        <ele>590.87</ele>
        <time>2020-08-14T13:09:38Z</time>
      </trkpt>
      <trkpt lat="42.5097056385" lon="-8.0080110300">
        <ele>589.43</ele>
        <time>2020-08-14T13:09:43Z</time>
      </trkpt>
      <trkpt lat="42.5098874420" lon="-8.0079742335">
        <ele>588.46</ele>
        <time>2020-08-14T13:09:51Z</time>
      </trkpt>
      <trkpt lat="42.5101155136" lon="-8.0079765804">
        <ele>587.50</ele>
        <time>2020-08-14T13:09:59Z</time>
      </trkpt>
      <trkpt lat="42.5103879254" lon="-8.0079759099">
        <ele>584.62</ele>
        <time>2020-08-14T13:10:04Z</time>
      </trkpt>
      <trkpt lat="42.5108061824" lon="-8.0080167297">
        <ele>580.77</ele>
        <time>2020-08-14T13:10:09Z</time>
      </trkpt>
      <trkpt lat="42.5113670994" lon="-8.0081230123">
        <ele>576.45</ele>
        <time>2020-08-14T13:10:15Z</time>
      </trkpt>
      <trkpt lat="42.5115625653" lon="-8.0081472360">
        <ele>575.97</ele>
        <time>2020-08-14T13:10:18Z</time>
      </trkpt>
      <trkpt lat="42.5116245076" lon="-8.0081348307">
        <ele>575.97</ele>
        <time>2020-08-14T13:10:19Z</time>
      </trkpt>
      <trkpt lat="42.5117881224" lon="-8.0080883950">
        <ele>575.49</ele>
        <time>2020-08-14T13:10:22Z</time>
      </trkpt>
      <trkpt lat="42.5118492264" lon="-8.0080852937">
        <ele>575.49</ele>
        <time>2020-08-14T13:10:23Z</time>
      </trkpt>
      <trkpt lat="42.5124024320" lon="-8.0081502534">
        <ele>573.56</ele>
        <time>2020-08-14T13:10:32Z</time>
      </trkpt>
      <trkpt lat="42.5129429810" lon="-8.0082346592">
        <ele>571.64</ele>
        <time>2020-08-14T13:10:40Z</time>
      </trkpt>
      <trkpt lat="42.5130118802" lon="-8.0082695279">
        <ele>571.64</ele>
        <time>2020-08-14T13:10:41Z</time>
      </trkpt>
      <trkpt lat="42.5130702183" lon="-8.0083109345">
        <ele>571.16</ele>
        <time>2020-08-14T13:10:42Z</time>
      </trkpt>
      <trkpt lat="42.5131290592" lon="-8.0083626509">
        <ele>571.16</ele>
        <time>2020-08-14T13:10:43Z</time>
      </trkpt>
      <trkpt lat="42.5131790154" lon="-8.0084152892">
        <ele>570.68</ele>
        <time>2020-08-14T13:10:44Z</time>
      </trkpt>
      <trkpt lat="42.5132341683" lon="-8.0084793270">
        <ele>570.20</ele>
        <time>2020-08-14T13:10:45Z</time>
      </trkpt>
      <trkpt lat="42.5137379207" lon="-8.0090446025">
        <ele>564.91</ele>
        <time>2020-08-14T13:10:53Z</time>
      </trkpt>
      <trkpt lat="42.5141550042" lon="-8.0092378054">
        <ele>562.03</ele>
        <time>2020-08-14T13:10:58Z</time>
      </trkpt>
      <trkpt lat="42.5142455287" lon="-8.0092474446">
        <ele>561.55</ele>
        <time>2020-08-14T13:10:59Z</time>
      </trkpt>
      <trkpt lat="42.5143273361" lon="-8.0092461035">
        <ele>561.55</ele>
        <time>2020-08-14T13:11:00Z</time>
      </trkpt>
      <trkpt lat="42.5150393788" lon="-8.0091829877">
        <ele>559.14</ele>
        <time>2020-08-14T13:11:09Z</time>
      </trkpt>
      <trkpt lat="42.5157188158" lon="-8.0091052037">
        <ele>555.30</ele>
        <time>2020-08-14T13:11:17Z</time>
      </trkpt>
      <trkpt lat="42.5164097361" lon="-8.0088996794">
        <ele>550.97</ele>
        <time>2020-08-14T13:11:25Z</time>
      </trkpt>
      <trkpt lat="42.5169675518" lon="-8.0087126791">
        <ele>546.65</ele>
        <time>2020-08-14T13:11:32Z</time>
      </trkpt>
      <trkpt lat="42.5171427336" lon="-8.0087024532">
        <ele>544.72</ele>
        <time>2020-08-14T13:11:36Z</time>
      </trkpt>
      <trkpt lat="42.5172920991" lon="-8.0088078976">
        <ele>543.28</ele>
        <time>2020-08-14T13:11:41Z</time>
      </trkpt>
      <trkpt lat="42.5173219386" lon="-8.0088533275">
        <ele>543.28</ele>
        <time>2020-08-14T13:11:42Z</time>
      </trkpt>
      <trkpt lat="42.5173433125" lon="-8.0088950694">
        <ele>543.28</ele>
        <time>2020-08-14T13:11:43Z</time>
      </trkpt>
      <trkpt lat="42.5173638482" lon="-8.0089438520">
        <ele>542.80</ele>
        <time>2020-08-14T13:11:44Z</time>
      </trkpt>
      <trkpt lat="42.5173771754" lon="-8.0089884438">
        <ele>542.80</ele>
        <time>2020-08-14T13:11:45Z</time>
      </trkpt>
      <trkpt lat="42.5173879880" lon="-8.0090385675">
        <ele>542.80</ele>
        <time>2020-08-14T13:11:46Z</time>
      </trkpt>
      <trkpt lat="42.5173931010" lon="-8.0090891942">
        <ele>543.28</ele>
        <time>2020-08-14T13:11:47Z</time>
      </trkpt>
      <trkpt lat="42.5173923466" lon="-8.0091398209">
        <ele>543.28</ele>
        <time>2020-08-14T13:11:48Z</time>
      </trkpt>
      <trkpt lat="42.5173875690" lon="-8.0091834068">
        <ele>542.80</ele>
        <time>2020-08-14T13:11:49Z</time>
      </trkpt>
      <trkpt lat="42.5173822884" lon="-8.0092238914">
        <ele>542.80</ele>
        <time>2020-08-14T13:11:50Z</time>
      </trkpt>
      <trkpt lat="42.5173753314" lon="-8.0092595145">
        <ele>542.80</ele>
        <time>2020-08-14T13:11:51Z</time>
      </trkpt>
      <trkpt lat="42.5173497666" lon="-8.0094540585">
        <ele>542.80</ele>
        <time>2020-08-14T13:11:58Z</time>
      </trkpt>
      <trkpt lat="42.5172930211" lon="-8.0097620934">
        <ele>545.20</ele>
        <time>2020-08-14T13:12:09Z</time>
      </trkpt>
      <trkpt lat="42.5172403827" lon="-8.0099671986">
        <ele>546.65</ele>
        <time>2020-08-14T13:12:18Z</time>
      </trkpt>
      <trkpt lat="42.5172330067" lon="-8.0099860579">
        <ele>546.65</ele>
        <time>2020-08-14T13:12:19Z</time>
      </trkpt>
      <trkpt lat="42.5171747524" lon="-8.0101385247">
        <ele>548.57</ele>
        <time>2020-08-14T13:12:27Z</time>
      </trkpt>
      <trkpt lat="42.5171234552" lon="-8.0103334039">
        <ele>550.01</ele>
        <time>2020-08-14T13:12:37Z</time>
      </trkpt>
      <trkpt lat="42.5171224494" lon="-8.0104149599">
        <ele>550.49</ele>
        <time>2020-08-14T13:12:42Z</time>
      </trkpt>
      <trkpt lat="42.5171675440" lon="-8.0105550215">
        <ele>551.93</ele>
        <time>2020-08-14T13:12:50Z</time>
      </trkpt>
      <trkpt lat="42.5172511116" lon="-8.0106592923">
        <ele>553.38</ele>
        <time>2020-08-14T13:12:58Z</time>
      </trkpt>
      <trkpt lat="42.5173695479" lon="-8.0107923131">
        <ele>556.74</ele>
        <time>2020-08-14T13:13:07Z</time>
      </trkpt>
      <trkpt lat="42.5174876489" lon="-8.0109850969">
        <ele>558.18</ele>
        <time>2020-08-14T13:13:17Z</time>
      </trkpt>
      <trkpt lat="42.5175307319" lon="-8.0111443531">
        <ele>558.66</ele>
        <time>2020-08-14T13:13:25Z</time>
      </trkpt>
      <trkpt lat="42.5175374374" lon="-8.0112993345">
        <ele>558.66</ele>
        <time>2020-08-14T13:13:33Z</time>
      </trkpt>
      <trkpt lat="42.5175276306" lon="-8.0114925373">
        <ele>560.11</ele>
        <time>2020-08-14T13:13:42Z</time>
      </trkpt>
      <trkpt lat="42.5175152253" lon="-8.0117265601">
        <ele>561.07</ele>
        <time>2020-08-14T13:13:52Z</time>
      </trkpt>
      <trkpt lat="42.5175136328" lon="-8.0119473394">
        <ele>561.07</ele>
        <time>2020-08-14T13:14:02Z</time>
      </trkpt>
      <trkpt lat="42.5175289717" lon="-8.0120326672">
        <ele>561.55</ele>
        <time>2020-08-14T13:14:06Z</time>
      </trkpt>
      <trkpt lat="42.5176149700" lon="-8.0122127943">
        <ele>563.47</ele>
        <time>2020-08-14T13:14:16Z</time>
      </trkpt>
      <trkpt lat="42.5177023932" lon="-8.0123477429">
        <ele>564.91</ele>
        <time>2020-08-14T13:14:24Z</time>
      </trkpt>
      <trkpt lat="42.5177881401" lon="-8.0124829430">
        <ele>566.35</ele>
        <time>2020-08-14T13:14:32Z</time>
      </trkpt>
      <trkpt lat="42.5178391021" lon="-8.0126904789">
        <ele>567.32</ele>
        <time>2020-08-14T13:14:41Z</time>
      </trkpt>
      <trkpt lat="42.5178527646" lon="-8.0128658284">
        <ele>567.80</ele>
        <time>2020-08-14T13:14:49Z</time>
      </trkpt>
      <trkpt lat="42.5178741384" lon="-8.0130384956">
        <ele>567.80</ele>
        <time>2020-08-14T13:14:57Z</time>
      </trkpt>
      <trkpt lat="42.5179069955" lon="-8.0132218916">
        <ele>568.76</ele>
        <time>2020-08-14T13:15:06Z</time>
      </trkpt>
      <trkpt lat="42.5179295428" lon="-8.0133173615">
        <ele>568.76</ele>
        <time>2020-08-14T13:15:11Z</time>
      </trkpt>
      <trkpt lat="42.5179325603" lon="-8.0133360531">
        <ele>569.24</ele>
        <time>2020-08-14T13:15:12Z</time>
      </trkpt>
      <trkpt lat="42.5179359131" lon="-8.0133523978">
        <ele>569.24</ele>
        <time>2020-08-14T13:15:13Z</time>
      </trkpt>
      <trkpt lat="42.5179752242" lon="-8.0134378094">
        <ele>570.20</ele>
        <time>2020-08-14T13:15:19Z</time>
      </trkpt>
      <trkpt lat="42.5179899763" lon="-8.0134482868">
        <ele>570.20</ele>
        <time>2020-08-14T13:15:20Z</time>
      </trkpt>
      <trkpt lat="42.5180051476" lon="-8.0134559982">
        <ele>570.68</ele>
        <time>2020-08-14T13:15:21Z</time>
      </trkpt>
      <trkpt lat="42.5180166308" lon="-8.0134585127">
        <ele>570.68</ele>
        <time>2020-08-14T13:15:22Z</time>
      </trkpt>
      <trkpt lat="42.5180316344" lon="-8.0134584289">
        <ele>570.68</ele>
        <time>2020-08-14T13:15:23Z</time>
      </trkpt>
      <trkpt lat="42.5180478115" lon="-8.0134559982">
        <ele>571.16</ele>
        <time>2020-08-14T13:15:24Z</time>
      </trkpt>
      <trkpt lat="42.5180617254" lon="-8.0134523939">
        <ele>570.68</ele>
        <time>2020-08-14T13:15:25Z</time>
      </trkpt>
      <trkpt lat="42.5181996915" lon="-8.0133938882">
        <ele>571.64</ele>
        <time>2020-08-14T13:15:33Z</time>
      </trkpt>
      <trkpt lat="42.5183151104" lon="-8.0132316984">
        <ele>572.60</ele>
        <time>2020-08-14T13:15:42Z</time>
      </trkpt>
      <trkpt lat="42.5183742866" lon="-8.0130684189">
        <ele>573.56</ele>
        <time>2020-08-14T13:15:50Z</time>
      </trkpt>
      <trkpt lat="42.5184142683" lon="-8.0128404312">
        <ele>575.49</ele>
        <time>2020-08-14T13:15:59Z</time>
      </trkpt>
      <trkpt lat="42.5184203032" lon="-8.0126048159">
        <ele>576.45</ele>
        <time>2020-08-14T13:16:08Z</time>
      </trkpt>
      <trkpt lat="42.5184224825" lon="-8.0123916641">
        <ele>577.41</ele>
        <time>2020-08-14T13:16:16Z</time>
      </trkpt>
      <trkpt lat="42.5184243266" lon="-8.0121483374">
        <ele>578.37</ele>
        <time>2020-08-14T13:16:26Z</time>
      </trkpt>
      <trkpt lat="42.5184324570" lon="-8.0119479261">
        <ele>578.37</ele>
        <time>2020-08-14T13:16:34Z</time>
      </trkpt>
      <trkpt lat="42.5184832513" lon="-8.0117242131">
        <ele>579.81</ele>
        <time>2020-08-14T13:16:43Z</time>
      </trkpt>
      <trkpt lat="42.5185829960" lon="-8.0115275737">
        <ele>579.81</ele>
        <time>2020-08-14T13:16:53Z</time>
      </trkpt>
      <trkpt lat="42.5186395738" lon="-8.0114492867">
        <ele>580.29</ele>
        <time>2020-08-14T13:17:00Z</time>
      </trkpt>
      <trkpt lat="42.5186455250" lon="-8.0114366300">
        <ele>580.77</ele>
        <time>2020-08-14T13:17:10Z</time>
      </trkpt>
      <trkpt lat="42.5186294317" lon="-8.0114250630">
        <ele>582.70</ele>
        <time>2020-08-14T13:17:23Z</time>
      </trkpt>
      <trkpt lat="42.5186413340" lon="-8.0114430841">
        <ele>581.25</ele>
        <time>2020-08-14T13:17:36Z</time>
      </trkpt>
      <trkpt lat="42.5186528172" lon="-8.0114239734">
        <ele>581.73</ele>
        <time>2020-08-14T13:17:49Z</time>
      </trkpt>
      <trkpt lat="42.5186601095" lon="-8.0114236381">
        <ele>581.73</ele>
        <time>2020-08-14T13:17:57Z</time>
      </trkpt>
      <trkpt lat="42.5186585169" lon="-8.0114100594">
        <ele>582.22</ele>
        <time>2020-08-14T13:18:12Z</time>
      </trkpt>
      <trkpt lat="42.5186591037" lon="-8.0114069581">
        <ele>580.77</ele>
        <time>2020-08-14T13:18:30Z</time>
      </trkpt>
      <trkpt lat="42.5186674856" lon="-8.0114113167">
        <ele>580.77</ele>
        <time>2020-08-14T13:18:46Z</time>
      </trkpt>
      <trkpt lat="42.5186733529" lon="-8.0114128254">
        <ele>579.81</ele>
        <time>2020-08-14T13:19:05Z</time>
      </trkpt>
      <trkpt lat="42.5187624525" lon="-8.0112893600">
        <ele>580.29</ele>
        <time>2020-08-14T13:19:13Z</time>
      </trkpt>
      <trkpt lat="42.5188855827" lon="-8.0111429282">
        <ele>580.77</ele>
        <time>2020-08-14T13:19:22Z</time>
      </trkpt>
      <trkpt lat="42.5190389715" lon="-8.0109573528">
        <ele>582.22</ele>
        <time>2020-08-14T13:19:32Z</time>
      </trkpt>
      <trkpt lat="42.5192341022" lon="-8.0106980167">
        <ele>582.22</ele>
        <time>2020-08-14T13:19:45Z</time>
      </trkpt>
      <trkpt lat="42.5193935260" lon="-8.0105136987">
        <ele>583.66</ele>
        <time>2020-08-14T13:19:55Z</time>
      </trkpt>
      <trkpt lat="42.5195485074" lon="-8.0103824381">
        <ele>584.62</ele>
        <time>2020-08-14T13:20:04Z</time>
      </trkpt>
      <trkpt lat="42.5197237730" lon="-8.0102491658">
        <ele>585.58</ele>
        <time>2020-08-14T13:20:14Z</time>
      </trkpt>
      <trkpt lat="42.5198560394" lon="-8.0101280473">
        <ele>586.54</ele>
        <time>2020-08-14T13:20:23Z</time>
      </trkpt>
      <trkpt lat="42.5198826101" lon="-8.0100986268">
        <ele>587.02</ele>
        <time>2020-08-14T13:20:29Z</time>
      </trkpt>
      <trkpt lat="42.5198831968" lon="-8.0100881495">
        <ele>586.54</ele>
        <time>2020-08-14T13:20:38Z</time>
      </trkpt>
      <trkpt lat="42.5198930874" lon="-8.0100967828">
        <ele>587.02</ele>
        <time>2020-08-14T13:20:53Z</time>
      </trkpt>
      <trkpt lat="42.5199089292" lon="-8.0100939330">
        <ele>588.46</ele>
        <time>2020-08-14T13:21:13Z</time>
      </trkpt>
      <trkpt lat="42.5198989548" lon="-8.0100810248">
        <ele>588.95</ele>
        <time>2020-08-14T13:21:35Z</time>
      </trkpt>
      <trkpt lat="42.5198918302" lon="-8.0100787617">
        <ele>587.98</ele>
        <time>2020-08-14T13:22:06Z</time>
      </trkpt>
      <trkpt lat="42.5198997930" lon="-8.0100915860">
        <ele>589.43</ele>
        <time>2020-08-14T13:22:31Z</time>
      </trkpt>
      <trkpt lat="42.5198945962" lon="-8.0100923404">
        <ele>588.95</ele>
        <time>2020-08-14T13:22:58Z</time>
      </trkpt>
      <trkpt lat="42.5199028105" lon="-8.0100715533">
        <ele>588.46</ele>
        <time>2020-08-14T13:23:07Z</time>
      </trkpt>
      <trkpt lat="42.5199226756" lon="-8.0100495927">
        <ele>588.46</ele>
        <time>2020-08-14T13:23:14Z</time>
      </trkpt>
      <trkpt lat="42.5199342426" lon="-8.0100443959">
        <ele>588.46</ele>
        <time>2020-08-14T13:23:15Z</time>
      </trkpt>
      <trkpt lat="42.5201087538" lon="-8.0099281389">
        <ele>588.46</ele>
        <time>2020-08-14T13:23:25Z</time>
      </trkpt>
      <trkpt lat="42.5203597918" lon="-8.0097506102">
        <ele>588.95</ele>
        <time>2020-08-14T13:23:38Z</time>
      </trkpt>
      <trkpt lat="42.5205332134" lon="-8.0096195173">
        <ele>590.39</ele>
        <time>2020-08-14T13:23:47Z</time>
      </trkpt>
      <trkpt lat="42.5207477901" lon="-8.0094799586">
        <ele>592.31</ele>
        <time>2020-08-14T13:23:58Z</time>
      </trkpt>
      <trkpt lat="42.5209696591" lon="-8.0093727540">
        <ele>593.75</ele>
        <time>2020-08-14T13:24:09Z</time>
      </trkpt>
      <trkpt lat="42.5211274065" lon="-8.0093245581">
        <ele>594.23</ele>
        <time>2020-08-14T13:24:17Z</time>
      </trkpt>
      <trkpt lat="42.5213087071" lon="-8.0092860851">
        <ele>595.19</ele>
        <time>2020-08-14T13:24:26Z</time>
      </trkpt>
      <trkpt lat="42.5214537140" lon="-8.0091733485">
        <ele>596.15</ele>
        <time>2020-08-14T13:24:34Z</time>
      </trkpt>
      <trkpt lat="42.5215263851" lon="-8.0090123322">
        <ele>596.64</ele>
        <time>2020-08-14T13:24:41Z</time>
      </trkpt>
      <trkpt lat="42.5215562247" lon="-8.0088159442">
        <ele>597.60</ele>
        <time>2020-08-14T13:24:49Z</time>
      </trkpt>
      <trkpt lat="42.5215791911" lon="-8.0085214041">
        <ele>598.56</ele>
        <time>2020-08-14T13:25:00Z</time>
      </trkpt>
      <trkpt lat="42.5215801969" lon="-8.0083178915">
        <ele>599.52</ele>
        <time>2020-08-14T13:25:09Z</time>
      </trkpt>
      <trkpt lat="42.5216366909" lon="-8.0081243534">
        <ele>600.00</ele>
        <time>2020-08-14T13:25:17Z</time>
      </trkpt>
      <trkpt lat="42.5217533670" lon="-8.0078486726">
        <ele>600.96</ele>
        <time>2020-08-14T13:25:29Z</time>
      </trkpt>
      <trkpt lat="42.5218640082" lon="-8.0077014025">
        <ele>601.92</ele>
        <time>2020-08-14T13:25:37Z</time>
      </trkpt>
      <trkpt lat="42.5220065005" lon="-8.0075409729">
        <ele>602.40</ele>
        <time>2020-08-14T13:25:46Z</time>
      </trkpt>
      <trkpt lat="42.5221524294" lon="-8.0074310862">
        <ele>603.85</ele>
        <time>2020-08-14T13:25:55Z</time>
      </trkpt>
      <trkpt lat="42.5223101769" lon="-8.0073342752">
        <ele>605.77</ele>
        <time>2020-08-14T13:26:04Z</time>
      </trkpt>
      <trkpt lat="42.5224345643" lon="-8.0072787870">
        <ele>605.77</ele>
        <time>2020-08-14T13:26:11Z</time>
      </trkpt>
      <trkpt lat="42.5225854386" lon="-8.0072026793">
        <ele>607.69</ele>
        <time>2020-08-14T13:26:19Z</time>
      </trkpt>
      <trkpt lat="42.5227674097" lon="-8.0071346182">
        <ele>608.17</ele>
        <time>2020-08-14T13:26:29Z</time>
      </trkpt>
      <trkpt lat="42.5228915457" lon="-8.0070858356">
        <ele>609.13</ele>
        <time>2020-08-14T13:26:36Z</time>
      </trkpt>
      <trkpt lat="42.5230806414" lon="-8.0070187803">
        <ele>611.06</ele>
        <time>2020-08-14T13:26:46Z</time>
      </trkpt>
      <trkpt lat="42.5232867524" lon="-8.0069668964">
        <ele>611.06</ele>
        <time>2020-08-14T13:26:57Z</time>
      </trkpt>
      <trkpt lat="42.5234511215" lon="-8.0069918744">
        <ele>611.54</ele>
        <time>2020-08-14T13:27:06Z</time>
      </trkpt>
      <trkpt lat="42.5235640258" lon="-8.0070994981">
        <ele>612.98</ele>
        <time>2020-08-14T13:27:14Z</time>
      </trkpt>
      <trkpt lat="42.5236884132" lon="-8.0072940420">
        <ele>613.94</ele>
        <time>2020-08-14T13:27:24Z</time>
      </trkpt>
      <trkpt lat="42.5237569772" lon="-8.0074803717">
        <ele>614.90</ele>
        <time>2020-08-14T13:27:32Z</time>
      </trkpt>
      <trkpt lat="42.5238199253" lon="-8.0077363551">
        <ele>615.86</ele>
        <time>2020-08-14T13:27:42Z</time>
      </trkpt>
      <trkpt lat="42.5238377787" lon="-8.0079980381">
        <ele>617.30</ele>
        <time>2020-08-14T13:27:51Z</time>
      </trkpt>
      <trkpt lat="42.5238448195" lon="-8.0082605593">
        <ele>618.75</ele>
        <time>2020-08-14T13:28:00Z</time>
      </trkpt>
      <trkpt lat="42.5238431431" lon="-8.0084990244">
        <ele>619.23</ele>
        <time>2020-08-14T13:28:08Z</time>
      </trkpt>
      <trkpt lat="42.5238775089" lon="-8.0087469611">
        <ele>619.23</ele>
        <time>2020-08-14T13:28:17Z</time>
      </trkpt>
      <trkpt lat="42.5239301473" lon="-8.0089674052">
        <ele>619.23</ele>
        <time>2020-08-14T13:28:25Z</time>
      </trkpt>
      <trkpt lat="42.5240525231" lon="-8.0091253202">
        <ele>619.23</ele>
        <time>2020-08-14T13:28:33Z</time>
      </trkpt>
      <trkpt lat="42.5242213346" lon="-8.0092738476">
        <ele>619.71</ele>
        <time>2020-08-14T13:28:42Z</time>
      </trkpt>
      <trkpt lat="42.5244138669" lon="-8.0093494523">
        <ele>620.67</ele>
        <time>2020-08-14T13:28:52Z</time>
      </trkpt>
      <trkpt lat="42.5246302877" lon="-8.0093736760">
        <ele>621.15</ele>
        <time>2020-08-14T13:29:03Z</time>
      </trkpt>
      <trkpt lat="42.5248855166" lon="-8.0093979836">
        <ele>623.07</ele>
        <time>2020-08-14T13:29:16Z</time>
      </trkpt>
      <trkpt lat="42.5251010153" lon="-8.0094393902">
        <ele>624.99</ele>
        <time>2020-08-14T13:29:27Z</time>
      </trkpt>
      <trkpt lat="42.5253187772" lon="-8.0094930343">
        <ele>625.96</ele>
        <time>2020-08-14T13:29:39Z</time>
      </trkpt>
      <trkpt lat="42.5255448371" lon="-8.0095701478">
        <ele>626.44</ele>
        <time>2020-08-14T13:29:51Z</time>
      </trkpt>
      <trkpt lat="42.5256434921" lon="-8.0095973052">
        <ele>626.92</ele>
        <time>2020-08-14T13:29:58Z</time>
      </trkpt>
      <trkpt lat="42.5256655365" lon="-8.0096058547">
        <ele>626.44</ele>
        <time>2020-08-14T13:30:04Z</time>
      </trkpt>
      <trkpt lat="42.5256652851" lon="-8.0096011609">
        <ele>626.92</ele>
        <time>2020-08-14T13:30:14Z</time>
      </trkpt>
      <trkpt lat="42.5256800372" lon="-8.0096035078">
        <ele>626.92</ele>
        <time>2020-08-14T13:30:33Z</time>
      </trkpt>
      <trkpt lat="42.5256665424" lon="-8.0096107163">
        <ele>626.44</ele>
        <time>2020-08-14T13:30:52Z</time>
      </trkpt>
      <trkpt lat="42.5256569870" lon="-8.0096025020">
        <ele>625.96</ele>
        <time>2020-08-14T13:31:11Z</time>
      </trkpt>
      <trkpt lat="42.5256568193" lon="-8.0095951259">
        <ele>626.44</ele>
        <time>2020-08-14T13:31:33Z</time>
      </trkpt>
      <trkpt lat="42.5256642792" lon="-8.0096087046">
        <ele>626.92</ele>
        <time>2020-08-14T13:31:41Z</time>
      </trkpt>
      <trkpt lat="42.5256702304" lon="-8.0096066929">
        <ele>627.40</ele>
        <time>2020-08-14T13:31:55Z</time>
      </trkpt>
      <trkpt lat="42.5257428177" lon="-8.0096435733">
        <ele>628.36</ele>
        <time>2020-08-14T13:32:02Z</time>
      </trkpt>
      <trkpt lat="42.5259197596" lon="-8.0097050965">
        <ele>629.32</ele>
        <time>2020-08-14T13:32:12Z</time>
      </trkpt>
      <trkpt lat="42.5261317380" lon="-8.0097798631">
        <ele>630.28</ele>
        <time>2020-08-14T13:32:23Z</time>
      </trkpt>
      <trkpt lat="42.5263321493" lon="-8.0098538753">
        <ele>630.76</ele>
        <time>2020-08-14T13:32:34Z</time>
      </trkpt>
      <trkpt lat="42.5265337341" lon="-8.0099193379">
        <ele>632.20</ele>
        <time>2020-08-14T13:32:45Z</time>
      </trkpt>
      <trkpt lat="42.5267411023" lon="-8.0099912547">
        <ele>631.72</ele>
        <time>2020-08-14T13:32:56Z</time>
      </trkpt>
      <trkpt lat="42.5269150268" lon="-8.0100448150">
        <ele>632.68</ele>
        <time>2020-08-14T13:33:05Z</time>
      </trkpt>
      <trkpt lat="42.5270871911" lon="-8.0100991298">
        <ele>633.65</ele>
        <time>2020-08-14T13:33:14Z</time>
      </trkpt>
      <trkpt lat="42.5273127481" lon="-8.0101756565">
        <ele>635.57</ele>
        <time>2020-08-14T13:33:26Z</time>
      </trkpt>
      <trkpt lat="42.5275146682" lon="-8.0102513451">
        <ele>638.45</ele>
        <time>2020-08-14T13:33:37Z</time>
      </trkpt>
      <trkpt lat="42.5277211145" lon="-8.0103241839">
        <ele>639.89</ele>
        <time>2020-08-14T13:33:48Z</time>
      </trkpt>
      <trkpt lat="42.5279045943" lon="-8.0103827734">
        <ele>639.89</ele>
        <time>2020-08-14T13:33:58Z</time>
      </trkpt>
      <trkpt lat="42.5280720647" lon="-8.0104412790">
        <ele>640.86</ele>
        <time>2020-08-14T13:34:07Z</time>
      </trkpt>
      <trkpt lat="42.5282730628" lon="-8.0104891397">
        <ele>644.22</ele>
        <time>2020-08-14T13:34:17Z</time>
      </trkpt>
      <trkpt lat="42.5284655113" lon="-8.0104908999">
        <ele>645.18</ele>
        <time>2020-08-14T13:34:26Z</time>
      </trkpt>
      <trkpt lat="42.5286922418" lon="-8.0104411952">
        <ele>645.66</ele>
        <time>2020-08-14T13:34:37Z</time>
      </trkpt>
      <trkpt lat="42.5288837682" lon="-8.0103900656">
        <ele>645.18</ele>
        <time>2020-08-14T13:34:46Z</time>
      </trkpt>
      <trkpt lat="42.5290768873" lon="-8.0103323143">
        <ele>645.18</ele>
        <time>2020-08-14T13:34:56Z</time>
      </trkpt>
      <trkpt lat="42.5292776339" lon="-8.0102822743">
        <ele>645.18</ele>
        <time>2020-08-14T13:35:06Z</time>
      </trkpt>
      <trkpt lat="42.5294899475" lon="-8.0102204997">
        <ele>645.66</ele>
        <time>2020-08-14T13:35:17Z</time>
      </trkpt>
      <trkpt lat="42.5297202822" lon="-8.0101582222">
        <ele>646.62</ele>
        <time>2020-08-14T13:35:28Z</time>
      </trkpt>
      <trkpt lat="42.5298913568" lon="-8.0101194978">
        <ele>648.07</ele>
        <time>2020-08-14T13:35:36Z</time>
      </trkpt>
      <trkpt lat="42.5300602522" lon="-8.0100674462">
        <ele>648.55</ele>
        <time>2020-08-14T13:35:45Z</time>
      </trkpt>
      <trkpt lat="42.5302451570" lon="-8.0100204237">
        <ele>648.55</ele>
        <time>2020-08-14T13:35:54Z</time>
      </trkpt>
      <trkpt lat="42.5304810237" lon="-8.0099529494">
        <ele>648.55</ele>
        <time>2020-08-14T13:36:04Z</time>
      </trkpt>
      <trkpt lat="42.5306679402" lon="-8.0099063460">
        <ele>649.03</ele>
        <time>2020-08-14T13:36:13Z</time>
      </trkpt>
      <trkpt lat="42.5308341533" lon="-8.0098701362">
        <ele>649.51</ele>
        <time>2020-08-14T13:36:21Z</time>
      </trkpt>
      <trkpt lat="42.5310532562" lon="-8.0098036677">
        <ele>650.95</ele>
        <time>2020-08-14T13:36:32Z</time>
      </trkpt>
      <trkpt lat="42.5312422682" lon="-8.0097482633">
        <ele>651.91</ele>
        <time>2020-08-14T13:36:41Z</time>
      </trkpt>
      <trkpt lat="42.5314532407" lon="-8.0096848123">
        <ele>653.83</ele>
        <time>2020-08-14T13:36:51Z</time>
      </trkpt>
      <trkpt lat="42.5316704158" lon="-8.0095968023">
        <ele>654.31</ele>
        <time>2020-08-14T13:37:00Z</time>
      </trkpt>
      <trkpt lat="42.5319145806" lon="-8.0094834790">
        <ele>654.80</ele>
        <time>2020-08-14T13:37:09Z</time>
      </trkpt>
      <trkpt lat="42.5321267266" lon="-8.0093723349">
        <ele>656.24</ele>
        <time>2020-08-14T13:37:17Z</time>
      </trkpt>
      <trkpt lat="42.5324545428" lon="-8.0091793835">
        <ele>658.16</ele>
        <time>2020-08-14T13:37:29Z</time>
      </trkpt>
      <trkpt lat="42.5327894837" lon="-8.0089800619">
        <ele>659.12</ele>
        <time>2020-08-14T13:37:41Z</time>
      </trkpt>
      <trkpt lat="42.5331043918" lon="-8.0087882001">
        <ele>660.56</ele>
        <time>2020-08-14T13:37:52Z</time>
      </trkpt>
      <trkpt lat="42.5333941542" lon="-8.0086203106">
        <ele>662.49</ele>
        <time>2020-08-14T13:38:02Z</time>
      </trkpt>
      <trkpt lat="42.5336524006" lon="-8.0084694363">
        <ele>663.93</ele>
        <time>2020-08-14T13:38:11Z</time>
      </trkpt>
      <trkpt lat="42.5338559132" lon="-8.0083464738">
        <ele>664.89</ele>
        <time>2020-08-14T13:38:19Z</time>
      </trkpt>
      <trkpt lat="42.5340647902" lon="-8.0082134530">
        <ele>666.33</ele>
        <time>2020-08-14T13:38:27Z</time>
      </trkpt>
      <trkpt lat="42.5344004016" lon="-8.0080116168">
        <ele>667.77</ele>
        <time>2020-08-14T13:38:39Z</time>
      </trkpt>
      <trkpt lat="42.5347488374" lon="-8.0078021530">
        <ele>668.73</ele>
        <time>2020-08-14T13:38:52Z</time>
      </trkpt>
      <trkpt lat="42.5348595623" lon="-8.0077431444">
        <ele>669.70</ele>
        <time>2020-08-14T13:39:00Z</time>
      </trkpt>
      <trkpt lat="42.5350012165" lon="-8.0076602474">
        <ele>669.70</ele>
        <time>2020-08-14T13:39:08Z</time>
      </trkpt>
      <trkpt lat="42.5352367479" lon="-8.0075170007">
        <ele>670.66</ele>
        <time>2020-08-14T13:39:19Z</time>
      </trkpt>
      <trkpt lat="42.5355763827" lon="-8.0073104706">
        <ele>672.58</ele>
        <time>2020-08-14T13:39:32Z</time>
      </trkpt>
      <trkpt lat="42.5359017681" lon="-8.0071402341">
        <ele>672.58</ele>
        <time>2020-08-14T13:39:44Z</time>
      </trkpt>
      <trkpt lat="42.5362386368" lon="-8.0069928803">
        <ele>673.54</ele>
        <time>2020-08-14T13:39:57Z</time>
      </trkpt>
      <trkpt lat="42.5362875033" lon="-8.0069710873">
        <ele>673.06</ele>
        <time>2020-08-14T13:40:00Z</time>
      </trkpt>
      <trkpt lat="42.5362976454" lon="-8.0069577601">
        <ele>673.06</ele>
        <time>2020-08-14T13:40:06Z</time>
      </trkpt>
      <trkpt lat="42.5363026746" lon="-8.0069559161">
        <ele>671.62</ele>
        <time>2020-08-14T13:40:24Z</time>
      </trkpt>
      <trkpt lat="42.5363013335" lon="-8.0069601070">
        <ele>672.58</ele>
        <time>2020-08-14T13:40:41Z</time>
      </trkpt>
      <trkpt lat="42.5362908561" lon="-8.0069592688">
        <ele>671.14</ele>
        <time>2020-08-14T13:40:56Z</time>
      </trkpt>
      <trkpt lat="42.5363000762" lon="-8.0069512222">
        <ele>672.10</ele>
        <time>2020-08-14T13:41:07Z</time>
      </trkpt>
      <trkpt lat="42.5363337714" lon="-8.0069569219">
        <ele>673.54</ele>
        <time>2020-08-14T13:41:17Z</time>
      </trkpt>
      <trkpt lat="42.5363492779" lon="-8.0069547426">
        <ele>673.54</ele>
        <time>2020-08-14T13:41:18Z</time>
      </trkpt>
      <trkpt lat="42.5365372002" lon="-8.0069366377">
        <ele>674.50</ele>
        <time>2020-08-14T13:41:26Z</time>
      </trkpt>
      <trkpt lat="42.5367747433" lon="-8.0069262441">
        <ele>675.46</ele>
        <time>2020-08-14T13:41:35Z</time>
      </trkpt>
      <trkpt lat="42.5370115321" lon="-8.0069461931">
        <ele>676.42</ele>
        <time>2020-08-14T13:41:44Z</time>
      </trkpt>
      <trkpt lat="42.5372691918" lon="-8.0070041958">
        <ele>676.91</ele>
        <time>2020-08-14T13:41:54Z</time>
      </trkpt>
      <trkpt lat="42.5375514943" lon="-8.0071201175">
        <ele>677.87</ele>
        <time>2020-08-14T13:42:05Z</time>
      </trkpt>
      <trkpt lat="42.5378138479" lon="-8.0072600115">
        <ele>679.79</ele>
        <time>2020-08-14T13:42:16Z</time>
      </trkpt>
      <trkpt lat="42.5381163508" lon="-8.0074418150">
        <ele>680.75</ele>
        <time>2020-08-14T13:42:29Z</time>
      </trkpt>
      <trkpt lat="42.5383392256" lon="-8.0075957906">
        <ele>681.71</ele>
        <time>2020-08-14T13:42:39Z</time>
      </trkpt>
      <trkpt lat="42.5385351945" lon="-8.0077300686">
        <ele>682.67</ele>
        <time>2020-08-14T13:42:47Z</time>
      </trkpt>
      <trkpt lat="42.5388215203" lon="-8.0079105310">
        <ele>684.60</ele>
        <time>2020-08-14T13:42:59Z</time>
      </trkpt>
      <trkpt lat="42.5391228497" lon="-8.0081060808">
        <ele>686.04</ele>
        <time>2020-08-14T13:43:12Z</time>
      </trkpt>
      <trkpt lat="42.5393247698" lon="-8.0082304683">
        <ele>687.00</ele>
        <time>2020-08-14T13:43:21Z</time>
      </trkpt>
      <trkpt lat="42.5395066570" lon="-8.0083500780">
        <ele>687.48</ele>
        <time>2020-08-14T13:43:29Z</time>
      </trkpt>
      <trkpt lat="42.5397151150" lon="-8.0085095018">
        <ele>687.48</ele>
        <time>2020-08-14T13:43:38Z</time>
      </trkpt>
      <trkpt lat="42.5398964994" lon="-8.0087023694">
        <ele>688.92</ele>
        <time>2020-08-14T13:43:47Z</time>
      </trkpt>
      <trkpt lat="42.5401019398" lon="-8.0090267491">
        <ele>689.88</ele>
        <time>2020-08-14T13:43:59Z</time>
      </trkpt>
      <trkpt lat="42.5402569212" lon="-8.0093687307">
        <ele>690.36</ele>
        <time>2020-08-14T13:44:10Z</time>
      </trkpt>
      <trkpt lat="42.5403827336" lon="-8.0096652824">
        <ele>691.33</ele>
        <time>2020-08-14T13:44:20Z</time>
      </trkpt>
      <trkpt lat="42.5405248068" lon="-8.0099833757">
        <ele>692.77</ele>
        <time>2020-08-14T13:44:31Z</time>
      </trkpt>
      <trkpt lat="42.5406698976" lon="-8.0103360862">
        <ele>693.73</ele>
        <time>2020-08-14T13:44:42Z</time>
      </trkpt>
      <trkpt lat="42.5407614280" lon="-8.0105455499">
        <ele>694.69</ele>
        <time>2020-08-14T13:44:49Z</time>
      </trkpt>
      <trkpt lat="42.5409138110" lon="-8.0108715221">
        <ele>695.65</ele>
        <time>2020-08-14T13:45:00Z</time>
      </trkpt>
      <trkpt lat="42.5411116239" lon="-8.0112096481">
        <ele>697.09</ele>
        <time>2020-08-14T13:45:12Z</time>
      </trkpt>
      <trkpt lat="42.5413368456" lon="-8.0114699900">
        <ele>699.02</ele>
        <time>2020-08-14T13:45:24Z</time>
      </trkpt>
      <trkpt lat="42.5415152963" lon="-8.0116191879">
        <ele>699.98</ele>
        <time>2020-08-14T13:45:33Z</time>
      </trkpt>
      <trkpt lat="42.5417307112" lon="-8.0117451679">
        <ele>700.94</ele>
        <time>2020-08-14T13:45:43Z</time>
      </trkpt>
      <trkpt lat="42.5419174600" lon="-8.0118361115">
        <ele>701.42</ele>
        <time>2020-08-14T13:45:51Z</time>
      </trkpt>
      <trkpt lat="42.5422359724" lon="-8.0119923502">
        <ele>702.86</ele>
        <time>2020-08-14T13:46:04Z</time>
      </trkpt>
      <trkpt lat="42.5425098930" lon="-8.0121174920">
        <ele>704.30</ele>
        <time>2020-08-14T13:46:15Z</time>
      </trkpt>
      <trkpt lat="42.5427833106" lon="-8.0121860560">
        <ele>704.78</ele>
        <time>2020-08-14T13:46:26Z</time>
      </trkpt>
      <trkpt lat="42.5429755915" lon="-8.0122005567">
        <ele>705.26</ele>
        <time>2020-08-14T13:46:34Z</time>
      </trkpt>
      <trkpt lat="42.5432070997" lon="-8.0122315697">
        <ele>705.75</ele>
        <time>2020-08-14T13:46:42Z</time>
      </trkpt>
      <trkpt lat="42.5434794277" lon="-8.0122501776">
        <ele>705.75</ele>
        <time>2020-08-14T13:46:51Z</time>
      </trkpt>
      <trkpt lat="42.5437676813" lon="-8.0122930929">
        <ele>705.75</ele>
        <time>2020-08-14T13:47:00Z</time>
      </trkpt>
      <trkpt lat="42.5439822581" lon="-8.0123107787">
        <ele>705.26</ele>
        <time>2020-08-14T13:47:08Z</time>
      </trkpt>
      <trkpt lat="42.5443328731" lon="-8.0123582203">
        <ele>705.75</ele>
        <time>2020-08-14T13:47:20Z</time>
      </trkpt>
      <trkpt lat="42.5446272455" lon="-8.0123850424">
        <ele>706.71</ele>
        <time>2020-08-14T13:47:30Z</time>
      </trkpt>
      <trkpt lat="42.5449349452" lon="-8.0124143790">
        <ele>707.19</ele>
        <time>2020-08-14T13:47:40Z</time>
      </trkpt>
      <trkpt lat="42.5452641863" lon="-8.0124581326">
        <ele>708.63</ele>
        <time>2020-08-14T13:47:51Z</time>
      </trkpt>
      <trkpt lat="42.5455055851" lon="-8.0124867149">
        <ele>710.07</ele>
        <time>2020-08-14T13:48:00Z</time>
      </trkpt>
      <trkpt lat="42.5457222573" lon="-8.0124971084">
        <ele>711.51</ele>
        <time>2020-08-14T13:48:08Z</time>
      </trkpt>
      <trkpt lat="42.5459808391" lon="-8.0125115253">
        <ele>711.99</ele>
        <time>2020-08-14T13:48:18Z</time>
      </trkpt>
      <trkpt lat="42.5462327991" lon="-8.0125320610">
        <ele>712.95</ele>
        <time>2020-08-14T13:48:28Z</time>
      </trkpt>
      <trkpt lat="42.5464505609" lon="-8.0125661753">
        <ele>713.44</ele>
        <time>2020-08-14T13:48:37Z</time>
      </trkpt>
      <trkpt lat="42.5466693286" lon="-8.0126083363">
        <ele>714.40</ele>
        <time>2020-08-14T13:48:46Z</time>
      </trkpt>
      <trkpt lat="42.5468603522" lon="-8.0126805883">
        <ele>715.36</ele>
        <time>2020-08-14T13:48:55Z</time>
      </trkpt>
      <trkpt lat="42.5468927901" lon="-8.0126919039">
        <ele>716.32</ele>
        <time>2020-08-14T13:49:01Z</time>
      </trkpt>
      <trkpt lat="42.5469257310" lon="-8.0126876291">
        <ele>716.32</ele>
        <time>2020-08-14T13:49:10Z</time>
      </trkpt>
      <trkpt lat="42.5469268207" lon="-8.0126769841">
        <ele>715.84</ele>
        <time>2020-08-14T13:49:20Z</time>
      </trkpt>
      <trkpt lat="42.5469517149" lon="-8.0126462225">
        <ele>714.40</ele>
        <time>2020-08-14T13:49:37Z</time>
      </trkpt>
      <trkpt lat="42.5469321012" lon="-8.0126950890">
        <ele>714.40</ele>
        <time>2020-08-14T13:49:59Z</time>
      </trkpt>
      <trkpt lat="42.5469264854" lon="-8.0126699433">
        <ele>713.44</ele>
        <time>2020-08-14T13:50:11Z</time>
      </trkpt>
      <trkpt lat="42.5469229650" lon="-8.0126667581">
        <ele>712.47</ele>
        <time>2020-08-14T13:50:25Z</time>
      </trkpt>
      <trkpt lat="42.5469284970" lon="-8.0126714520">
        <ele>712.47</ele>
        <time>2020-08-14T13:50:45Z</time>
      </trkpt>
      <trkpt lat="42.5469394773" lon="-8.0126919877">
        <ele>713.44</ele>
        <time>2020-08-14T13:51:01Z</time>
      </trkpt>
      <trkpt lat="42.5469478592" lon="-8.0127097573">
        <ele>713.92</ele>
        <time>2020-08-14T13:51:23Z</time>
      </trkpt>
      <trkpt lat="42.5469364598" lon="-8.0126748048">
        <ele>713.92</ele>
        <time>2020-08-14T13:51:35Z</time>
      </trkpt>
      <trkpt lat="42.5469321851" lon="-8.0126515031">
        <ele>712.47</ele>
        <time>2020-08-14T13:51:49Z</time>
      </trkpt>
      <trkpt lat="42.5469284970" lon="-8.0126781575">
        <ele>713.44</ele>
        <time>2020-08-14T13:52:06Z</time>
      </trkpt>
      <trkpt lat="42.5469317660" lon="-8.0126872100">
        <ele>715.36</ele>
        <time>2020-08-14T13:52:19Z</time>
      </trkpt>
      <trkpt lat="42.5469403993" lon="-8.0126809236">
        <ele>715.84</ele>
        <time>2020-08-14T13:52:30Z</time>
      </trkpt>
      <trkpt lat="42.5469414890" lon="-8.0126776546">
        <ele>716.80</ele>
        <time>2020-08-14T13:52:41Z</time>
      </trkpt>
      <trkpt lat="42.5469155051" lon="-8.0126996990">
        <ele>714.88</ele>
        <time>2020-08-14T13:52:55Z</time>
      </trkpt>
      <trkpt lat="42.5469247252" lon="-8.0126825999">
        <ele>714.40</ele>
        <time>2020-08-14T13:53:06Z</time>
      </trkpt>
      <trkpt lat="42.5469976477" lon="-8.0127144512">
        <ele>714.40</ele>
        <time>2020-08-14T13:53:14Z</time>
      </trkpt>
      <trkpt lat="42.5471758470" lon="-8.0127869546">
        <ele>714.40</ele>
        <time>2020-08-14T13:53:22Z</time>
      </trkpt>
      <trkpt lat="42.5473798625" lon="-8.0128980987">
        <ele>717.76</ele>
        <time>2020-08-14T13:53:31Z</time>
      </trkpt>
      <trkpt lat="42.5475233607" lon="-8.0129882880">
        <ele>719.20</ele>
        <time>2020-08-14T13:53:38Z</time>
      </trkpt>
      <trkpt lat="42.5477392785" lon="-8.0131407548">
        <ele>721.13</ele>
        <time>2020-08-14T13:53:48Z</time>
      </trkpt>
      <trkpt lat="42.5479182322" lon="-8.0132539943">
        <ele>722.09</ele>
        <time>2020-08-14T13:53:56Z</time>
      </trkpt>
      <trkpt lat="42.5480676815" lon="-8.0133684073">
        <ele>723.05</ele>
        <time>2020-08-14T13:54:03Z</time>
      </trkpt>
      <trkpt lat="42.5482571963" lon="-8.0134962313">
        <ele>723.53</ele>
        <time>2020-08-14T13:54:11Z</time>
      </trkpt>
      <trkpt lat="42.5484399218" lon="-8.0136169307">
        <ele>724.01</ele>
        <time>2020-08-14T13:54:19Z</time>
      </trkpt>
      <trkpt lat="42.5486971624" lon="-8.0137985665">
        <ele>725.45</ele>
        <time>2020-08-14T13:54:31Z</time>
      </trkpt>
      <trkpt lat="42.5488667283" lon="-8.0139189307">
        <ele>726.41</ele>
        <time>2020-08-14T13:54:39Z</time>
      </trkpt>
      <trkpt lat="42.5491152517" lon="-8.0140823778">
        <ele>726.89</ele>
        <time>2020-08-14T13:54:50Z</time>
      </trkpt>
      <trkpt lat="42.5493406411" lon="-8.0142312404">
        <ele>728.34</ele>
        <time>2020-08-14T13:55:00Z</time>
      </trkpt>
      <trkpt lat="42.5496118795" lon="-8.0144064222">
        <ele>730.74</ele>
        <time>2020-08-14T13:55:12Z</time>
      </trkpt>
      <trkpt lat="42.5498238578" lon="-8.0145436339">
        <ele>731.70</ele>
        <time>2020-08-14T13:55:21Z</time>
      </trkpt>
      <trkpt lat="42.5500489958" lon="-8.0146955978">
        <ele>731.22</ele>
        <time>2020-08-14T13:55:31Z</time>
      </trkpt>
      <trkpt lat="42.5502809230" lon="-8.0148224998">
        <ele>732.18</ele>
        <time>2020-08-14T13:55:41Z</time>
      </trkpt>
      <trkpt lat="42.5504946616" lon="-8.0149104260">
        <ele>733.62</ele>
        <time>2020-08-14T13:55:50Z</time>
      </trkpt>
      <trkpt lat="42.5507811550" lon="-8.0149887130">
        <ele>733.62</ele>
        <time>2020-08-14T13:56:02Z</time>
      </trkpt>
      <trkpt lat="42.5510495435" lon="-8.0150292814">
        <ele>735.55</ele>
        <time>2020-08-14T13:56:13Z</time>
      </trkpt>
      <trkpt lat="42.5512443390" lon="-8.0150553491">
        <ele>735.55</ele>
        <time>2020-08-14T13:56:21Z</time>
      </trkpt>
      <trkpt lat="42.5514538866" lon="-8.0150884576">
        <ele>736.51</ele>
        <time>2020-08-14T13:56:30Z</time>
      </trkpt>
      <trkpt lat="42.5516787730" lon="-8.0151150282">
        <ele>737.95</ele>
        <time>2020-08-14T13:56:39Z</time>
      </trkpt>
      <trkpt lat="42.5518640969" lon="-8.0151608773">
        <ele>739.87</ele>
        <time>2020-08-14T13:56:47Z</time>
      </trkpt>
      <trkpt lat="42.5520586409" lon="-8.0152123421">
        <ele>740.83</ele>
        <time>2020-08-14T13:56:55Z</time>
      </trkpt>
      <trkpt lat="42.5522220042" lon="-8.0152437743">
        <ele>741.31</ele>
        <time>2020-08-14T13:57:02Z</time>
      </trkpt>
      <trkpt lat="42.5524344854" lon="-8.0153172836">
        <ele>741.31</ele>
        <time>2020-08-14T13:57:11Z</time>
      </trkpt>
      <trkpt lat="42.5526686758" lon="-8.0154187884">
        <ele>742.28</ele>
        <time>2020-08-14T13:57:21Z</time>
      </trkpt>
      <trkpt lat="42.5528736133" lon="-8.0155140907">
        <ele>743.72</ele>
        <time>2020-08-14T13:57:30Z</time>
      </trkpt>
      <trkpt lat="42.5531475339" lon="-8.0156482011">
        <ele>745.64</ele>
        <time>2020-08-14T13:57:41Z</time>
      </trkpt>
      <trkpt lat="42.5533667207" lon="-8.0157735944">
        <ele>747.08</ele>
        <time>2020-08-14T13:57:50Z</time>
      </trkpt>
      <trkpt lat="42.5535738375" lon="-8.0159155000">
        <ele>747.08</ele>
        <time>2020-08-14T13:57:59Z</time>
      </trkpt>
      <trkpt lat="42.5537952874" lon="-8.0160893407">
        <ele>748.04</ele>
        <time>2020-08-14T13:58:10Z</time>
      </trkpt>
      <trkpt lat="42.5540490914" lon="-8.0163070187">
        <ele>749.49</ele>
        <time>2020-08-14T13:58:22Z</time>
      </trkpt>
      <trkpt lat="42.5542531069" lon="-8.0164773390">
        <ele>749.97</ele>
        <time>2020-08-14T13:58:32Z</time>
      </trkpt>
      <trkpt lat="42.5544237625" lon="-8.0166589748">
        <ele>750.93</ele>
        <time>2020-08-14T13:58:41Z</time>
      </trkpt>
      <trkpt lat="42.5545904785" lon="-8.0168469809">
        <ele>752.37</ele>
        <time>2020-08-14T13:58:50Z</time>
      </trkpt>
      <trkpt lat="42.5547628943" lon="-8.0170634016">
        <ele>753.33</ele>
        <time>2020-08-14T13:58:59Z</time>
      </trkpt>
      <trkpt lat="42.5549543370" lon="-8.0173217319">
        <ele>755.25</ele>
        <time>2020-08-14T13:59:10Z</time>
      </trkpt>
      <trkpt lat="42.5551432651" lon="-8.0175967421">
        <ele>755.73</ele>
        <time>2020-08-14T13:59:21Z</time>
      </trkpt>
      <trkpt lat="42.5553068798" lon="-8.0178544857">
        <ele>756.21</ele>
        <time>2020-08-14T13:59:31Z</time>
      </trkpt>
      <trkpt lat="42.5554881804" lon="-8.0181877501">
        <ele>758.14</ele>
        <time>2020-08-14T13:59:43Z</time>
      </trkpt>
      <trkpt lat="42.5556387194" lon="-8.0184924323">
        <ele>760.06</ele>
        <time>2020-08-14T13:59:54Z</time>
      </trkpt>
      <trkpt lat="42.5557830557" lon="-8.0188009702">
        <ele>761.98</ele>
        <time>2020-08-14T14:00:05Z</time>
      </trkpt>
      <trkpt lat="42.5559004024" lon="-8.0190769024">
        <ele>763.90</ele>
        <time>2020-08-14T14:00:15Z</time>
      </trkpt>
      <trkpt lat="42.5560191739" lon="-8.0194021203">
        <ele>765.83</ele>
        <time>2020-08-14T14:00:26Z</time>
      </trkpt>
      <trkpt lat="42.5560920127" lon="-8.0195825826">
        <ele>767.27</ele>
        <time>2020-08-14T14:00:33Z</time>
      </trkpt>
      <trkpt lat="42.5562149752" lon="-8.0199203733">
        <ele>768.23</ele>
        <time>2020-08-14T14:00:43Z</time>
      </trkpt>
      <trkpt lat="42.5563296396" lon="-8.0202395562">
        <ele>769.19</ele>
        <time>2020-08-14T14:00:53Z</time>
      </trkpt>
      <trkpt lat="42.5564186554" lon="-8.0204905104">
        <ele>770.15</ele>
        <time>2020-08-14T14:01:03Z</time>
      </trkpt>
      <trkpt lat="42.5565240160" lon="-8.0208013952">
        <ele>770.15</ele>
        <time>2020-08-14T14:01:15Z</time>
      </trkpt>
      <trkpt lat="42.5565966032" lon="-8.0210216716">
        <ele>771.60</ele>
        <time>2020-08-14T14:01:24Z</time>
      </trkpt>
      <trkpt lat="42.5566900615" lon="-8.0212633219">
        <ele>772.56</ele>
        <time>2020-08-14T14:01:35Z</time>
      </trkpt>
      <trkpt lat="42.5567748025" lon="-8.0214923155">
        <ele>773.04</ele>
        <time>2020-08-14T14:01:45Z</time>
      </trkpt>
      <trkpt lat="42.5568507425" lon="-8.0217450298">
        <ele>774.00</ele>
        <time>2020-08-14T14:01:56Z</time>
      </trkpt>
      <trkpt lat="42.5569025427" lon="-8.0219424237">
        <ele>775.44</ele>
        <time>2020-08-14T14:02:04Z</time>
      </trkpt>
      <trkpt lat="42.5569673348" lon="-8.0221553240">
        <ele>777.36</ele>
        <time>2020-08-14T14:02:13Z</time>
      </trkpt>
      <trkpt lat="42.5570244156" lon="-8.0223537236">
        <ele>779.29</ele>
        <time>2020-08-14T14:02:22Z</time>
      </trkpt>
      <trkpt lat="42.5570919737" lon="-8.0225791130">
        <ele>781.21</ele>
        <time>2020-08-14T14:02:31Z</time>
      </trkpt>
      <trkpt lat="42.5571596157" lon="-8.0228344258">
        <ele>782.65</ele>
        <time>2020-08-14T14:02:42Z</time>
      </trkpt>
      <trkpt lat="42.5571865216" lon="-8.0229282193">
        <ele>783.13</ele>
        <time>2020-08-14T14:02:49Z</time>
      </trkpt>
      <trkpt lat="42.5572446082" lon="-8.0231430475">
        <ele>785.05</ele>
        <time>2020-08-14T14:02:58Z</time>
      </trkpt>
      <trkpt lat="42.5573032815" lon="-8.0233546905">
        <ele>785.53</ele>
        <time>2020-08-14T14:03:07Z</time>
      </trkpt>
      <trkpt lat="42.5573602784" lon="-8.0235970952">
        <ele>786.98</ele>
        <time>2020-08-14T14:03:17Z</time>
      </trkpt>
      <trkpt lat="42.5574191194" lon="-8.0238511506">
        <ele>788.42</ele>
        <time>2020-08-14T14:03:28Z</time>
      </trkpt>
      <trkpt lat="42.5574648008" lon="-8.0240434315">
        <ele>788.90</ele>
        <time>2020-08-14T14:03:36Z</time>
      </trkpt>
      <trkpt lat="42.5574675668" lon="-8.0240640510">
        <ele>788.90</ele>
        <time>2020-08-14T14:03:37Z</time>
      </trkpt>
      <trkpt lat="42.5574746914" lon="-8.0240896158">
        <ele>788.90</ele>
        <time>2020-08-14T14:03:38Z</time>
      </trkpt>
      <trkpt lat="42.5574838277" lon="-8.0241135042">
        <ele>788.90</ele>
        <time>2020-08-14T14:03:39Z</time>
      </trkpt>
      <trkpt lat="42.5574907009" lon="-8.0241354648">
        <ele>789.38</ele>
        <time>2020-08-14T14:03:40Z</time>
      </trkpt>
      <trkpt lat="42.5574964844" lon="-8.0241611972">
        <ele>789.38</ele>
        <time>2020-08-14T14:03:41Z</time>
      </trkpt>
      <trkpt lat="42.5575472787" lon="-8.0243867543">
        <ele>790.34</ele>
        <time>2020-08-14T14:03:50Z</time>
      </trkpt>
      <trkpt lat="42.5575774536" lon="-8.0245160032">
        <ele>790.82</ele>
        <time>2020-08-14T14:03:57Z</time>
      </trkpt>
      <trkpt lat="42.5576005038" lon="-8.0246576574">
        <ele>790.34</ele>
        <time>2020-08-14T14:04:04Z</time>
      </trkpt>
      <trkpt lat="42.5576492026" lon="-8.0248748325">
        <ele>791.30</ele>
        <time>2020-08-14T14:04:13Z</time>
      </trkpt>
      <trkpt lat="42.5577203650" lon="-8.0252510961">
        <ele>793.22</ele>
        <time>2020-08-14T14:04:27Z</time>
      </trkpt>
      <trkpt lat="42.5577756017" lon="-8.0255472288">
        <ele>793.22</ele>
        <time>2020-08-14T14:04:38Z</time>
      </trkpt>
      <trkpt lat="42.5577953830" lon="-8.0256773997">
        <ele>794.67</ele>
        <time>2020-08-14T14:04:46Z</time>
      </trkpt>
      <trkpt lat="42.5578175113" lon="-8.0257056467">
        <ele>794.67</ele>
        <time>2020-08-14T14:04:56Z</time>
      </trkpt>
      <trkpt lat="42.5578232948" lon="-8.0257407669">
        <ele>794.19</ele>
        <time>2020-08-14T14:05:00Z</time>
      </trkpt>
      <trkpt lat="42.5578290783" lon="-8.0257575307">
        <ele>794.67</ele>
        <time>2020-08-14T14:05:01Z</time>
      </trkpt>
      <trkpt lat="42.5578326825" lon="-8.0257773120">
        <ele>794.67</ele>
        <time>2020-08-14T14:05:02Z</time>
      </trkpt>
      <trkpt lat="42.5578346942" lon="-8.0258016195">
        <ele>794.67</ele>
        <time>2020-08-14T14:05:03Z</time>
      </trkpt>
      <trkpt lat="42.5578374602" lon="-8.0258271005">
        <ele>795.15</ele>
        <time>2020-08-14T14:05:04Z</time>
      </trkpt>
      <trkpt lat="42.5578408968" lon="-8.0258532520">
        <ele>795.15</ele>
        <time>2020-08-14T14:05:05Z</time>
      </trkpt>
      <trkpt lat="42.5578943733" lon="-8.0261052120">
        <ele>797.07</ele>
        <time>2020-08-14T14:05:15Z</time>
      </trkpt>
      <trkpt lat="42.5579535495" lon="-8.0263378099">
        <ele>797.55</ele>
        <time>2020-08-14T14:05:24Z</time>
      </trkpt>
      <trkpt lat="42.5580124743" lon="-8.0265942123">
        <ele>798.51</ele>
        <time>2020-08-14T14:05:33Z</time>
      </trkpt>
      <trkpt lat="42.5581256300" lon="-8.0269206036">
        <ele>800.44</ele>
        <time>2020-08-14T14:05:45Z</time>
      </trkpt>
      <trkpt lat="42.5582478382" lon="-8.0271610804">
        <ele>800.44</ele>
        <time>2020-08-14T14:05:55Z</time>
      </trkpt>
      <trkpt lat="42.5584045798" lon="-8.0274542794">
        <ele>801.88</ele>
        <time>2020-08-14T14:06:08Z</time>
      </trkpt>
      <trkpt lat="42.5585239381" lon="-8.0276286229">
        <ele>802.84</ele>
        <time>2020-08-14T14:06:16Z</time>
      </trkpt>
      <trkpt lat="42.5586808473" lon="-8.0278215744">
        <ele>804.76</ele>
        <time>2020-08-14T14:06:26Z</time>
      </trkpt>
      <trkpt lat="42.5588024687" lon="-8.0279412679">
        <ele>805.24</ele>
        <time>2020-08-14T14:06:34Z</time>
      </trkpt>
      <trkpt lat="42.5588518381" lon="-8.0279683415">
        <ele>805.24</ele>
        <time>2020-08-14T14:06:40Z</time>
      </trkpt>
      <trkpt lat="42.5588670932" lon="-8.0279457103">
        <ele>806.20</ele>
        <time>2020-08-14T14:06:56Z</time>
      </trkpt>
      <trkpt lat="42.5588706136" lon="-8.0279357359">
        <ele>806.20</ele>
        <time>2020-08-14T14:07:12Z</time>
      </trkpt>
      <trkpt lat="42.5588872097" lon="-8.0279596243">
        <ele>806.20</ele>
        <time>2020-08-14T14:07:20Z</time>
      </trkpt>
      <trkpt lat="42.5589671731" lon="-8.0280510709">
        <ele>806.20</ele>
        <time>2020-08-14T14:07:26Z</time>
      </trkpt>
      <trkpt lat="42.5591329671" lon="-8.0282138474">
        <ele>806.20</ele>
        <time>2020-08-14T14:07:36Z</time>
      </trkpt>
      <trkpt lat="42.5592694245" lon="-8.0283622909">
        <ele>807.16</ele>
        <time>2020-08-14T14:07:45Z</time>
      </trkpt>
      <trkpt lat="42.5594035350" lon="-8.0284923781">
        <ele>807.64</ele>
        <time>2020-08-14T14:07:53Z</time>
      </trkpt>
      <trkpt lat="42.5596550759" lon="-8.0287224613">
        <ele>808.13</ele>
        <time>2020-08-14T14:08:07Z</time>
      </trkpt>
      <trkpt lat="42.5598771125" lon="-8.0289324280">
        <ele>809.57</ele>
        <time>2020-08-14T14:08:20Z</time>
      </trkpt>
      <trkpt lat="42.5600171741" lon="-8.0290614255">
        <ele>810.53</ele>
        <time>2020-08-14T14:08:28Z</time>
      </trkpt>
      <trkpt lat="42.5601887517" lon="-8.0292258784">
        <ele>811.49</ele>
        <time>2020-08-14T14:08:38Z</time>
      </trkpt>
      <trkpt lat="42.5603822898" lon="-8.0294020660">
        <ele>812.45</ele>
        <time>2020-08-14T14:08:49Z</time>
      </trkpt>
      <trkpt lat="42.5605644286" lon="-8.0295719672">
        <ele>813.89</ele>
        <time>2020-08-14T14:09:00Z</time>
      </trkpt>
      <trkpt lat="42.5606996287" lon="-8.0296962708">
        <ele>814.85</ele>
        <time>2020-08-14T14:09:08Z</time>
      </trkpt>
      <trkpt lat="42.5608924124" lon="-8.0298784934">
        <ele>816.30</ele>
        <time>2020-08-14T14:09:19Z</time>
      </trkpt>
      <trkpt lat="42.5610176381" lon="-8.0299859494">
        <ele>816.78</ele>
        <time>2020-08-14T14:09:26Z</time>
      </trkpt>
      <trkpt lat="42.5611423608" lon="-8.0300947465">
        <ele>817.74</ele>
        <time>2020-08-14T14:09:33Z</time>
      </trkpt>
      <trkpt lat="42.5613441132" lon="-8.0302918050">
        <ele>819.18</ele>
        <time>2020-08-14T14:09:45Z</time>
      </trkpt>
      <trkpt lat="42.5615337119" lon="-8.0304710101">
        <ele>820.14</ele>
        <time>2020-08-14T14:09:56Z</time>
      </trkpt>
      <trkpt lat="42.5616959855" lon="-8.0306298472">
        <ele>821.10</ele>
        <time>2020-08-14T14:10:05Z</time>
      </trkpt>
      <trkpt lat="42.5619217940" lon="-8.0308840703">
        <ele>822.06</ele>
        <time>2020-08-14T14:10:15Z</time>
      </trkpt>
      <trkpt lat="42.5621064473" lon="-8.0311327614">
        <ele>822.06</ele>
        <time>2020-08-14T14:10:23Z</time>
      </trkpt>
      <trkpt lat="42.5623043440" lon="-8.0314623378">
        <ele>821.58</ele>
        <time>2020-08-14T14:10:33Z</time>
      </trkpt>
      <trkpt lat="42.5624392927" lon="-8.0317776650">
        <ele>820.62</ele>
        <time>2020-08-14T14:10:42Z</time>
      </trkpt>
      <trkpt lat="42.5625710562" lon="-8.0322026275">
        <ele>819.18</ele>
        <time>2020-08-14T14:10:52Z</time>
      </trkpt>
      <trkpt lat="42.5626474153" lon="-8.0326504726">
        <ele>817.74</ele>
        <time>2020-08-14T14:11:00Z</time>
      </trkpt>
      <trkpt lat="42.5626699626" lon="-8.0333056021">
        <ele>815.82</ele>
        <time>2020-08-14T14:11:08Z</time>
      </trkpt>
      <trkpt lat="42.5626451522" lon="-8.0338896532">
        <ele>812.93</ele>
        <time>2020-08-14T14:11:15Z</time>
      </trkpt>
      <trkpt lat="42.5626194198" lon="-8.0345177092">
        <ele>809.09</ele>
        <time>2020-08-14T14:11:21Z</time>
      </trkpt>
      <trkpt lat="42.5626624189" lon="-8.0353261437">
        <ele>804.28</ele>
        <time>2020-08-14T14:11:27Z</time>
      </trkpt>
      <trkpt lat="42.5628350861" lon="-8.0361684412">
        <ele>799.47</ele>
        <time>2020-08-14T14:11:33Z</time>
      </trkpt>
      <trkpt lat="42.5631569512" lon="-8.0370052904">
        <ele>794.67</ele>
        <time>2020-08-14T14:11:39Z</time>
      </trkpt>
      <trkpt lat="42.5636161957" lon="-8.0377552193">
        <ele>789.38</ele>
        <time>2020-08-14T14:11:45Z</time>
      </trkpt>
      <trkpt lat="42.5642631948" lon="-8.0386899691">
        <ele>784.57</ele>
        <time>2020-08-14T14:11:53Z</time>
      </trkpt>
      <trkpt lat="42.5645043422" lon="-8.0393801350">
        <ele>781.69</ele>
        <time>2020-08-14T14:11:58Z</time>
      </trkpt>
      <trkpt lat="42.5645307451" lon="-8.0395485274">
        <ele>781.21</ele>
        <time>2020-08-14T14:11:59Z</time>
      </trkpt>
      <trkpt lat="42.5645611715" lon="-8.0400687922">
        <ele>779.77</ele>
        <time>2020-08-14T14:12:04Z</time>
      </trkpt>
      <trkpt lat="42.5644823816" lon="-8.0408905540">
        <ele>776.88</ele>
        <time>2020-08-14T14:12:11Z</time>
      </trkpt>
      <trkpt lat="42.5644248817" lon="-8.0417471007">
        <ele>774.00</ele>
        <time>2020-08-14T14:12:18Z</time>
      </trkpt>
      <trkpt lat="42.5644314196" lon="-8.0418654531">
        <ele>773.52</ele>
        <time>2020-08-14T14:12:19Z</time>
      </trkpt>
      <trkpt lat="42.5644465070" lon="-8.0419865716">
        <ele>773.04</ele>
        <time>2020-08-14T14:12:20Z</time>
      </trkpt>
      <trkpt lat="42.5646278076" lon="-8.0426656734">
        <ele>771.11</ele>
        <time>2020-08-14T14:12:26Z</time>
      </trkpt>
      <trkpt lat="42.5650137104" lon="-8.0434021074">
        <ele>768.23</ele>
        <time>2020-08-14T14:12:34Z</time>
      </trkpt>
      <trkpt lat="42.5655197259" lon="-8.0443340074">
        <ele>763.90</ele>
        <time>2020-08-14T14:12:44Z</time>
      </trkpt>
      <trkpt lat="42.5658063870" lon="-8.0448472314">
        <ele>761.50</ele>
        <time>2020-08-14T14:12:52Z</time>
      </trkpt>
      <trkpt lat="42.5660984963" lon="-8.0454202183">
        <ele>758.62</ele>
        <time>2020-08-14T14:13:00Z</time>
      </trkpt>
      <trkpt lat="42.5663226284" lon="-8.0458332784">
        <ele>757.18</ele>
        <time>2020-08-14T14:13:07Z</time>
      </trkpt>
      <trkpt lat="42.5664019212" lon="-8.0459807999">
        <ele>756.21</ele>
        <time>2020-08-14T14:13:12Z</time>
      </trkpt>
      <trkpt lat="42.5664179306" lon="-8.0459865835">
        <ele>756.69</ele>
        <time>2020-08-14T14:13:20Z</time>
      </trkpt>
      <trkpt lat="42.5664168410" lon="-8.0459847394">
        <ele>756.21</ele>
        <time>2020-08-14T14:13:28Z</time>
      </trkpt>
      <trkpt lat="42.5664161704" lon="-8.0459858291">
        <ele>754.77</ele>
        <time>2020-08-14T14:13:41Z</time>
      </trkpt>
      <trkpt lat="42.5664223731" lon="-8.0459911935">
        <ele>755.25</ele>
        <time>2020-08-14T14:13:58Z</time>
      </trkpt>
      <trkpt lat="42.5664245524" lon="-8.0459890980">
        <ele>755.73</ele>
        <time>2020-08-14T14:14:12Z</time>
      </trkpt>
      <trkpt lat="42.5664288271" lon="-8.0459849909">
        <ele>755.25</ele>
        <time>2020-08-14T14:14:26Z</time>
      </trkpt>
      <trkpt lat="42.5664319284" lon="-8.0459893495">
        <ele>752.85</ele>
        <time>2020-08-14T14:14:42Z</time>
      </trkpt>
      <trkpt lat="42.5664340239" lon="-8.0459953006">
        <ele>751.41</ele>
        <time>2020-08-14T14:14:58Z</time>
      </trkpt>
      <trkpt lat="42.5664388854" lon="-8.0459857453">
        <ele>750.93</ele>
        <time>2020-08-14T14:15:15Z</time>
      </trkpt>
      <trkpt lat="42.5664423220" lon="-8.0459781177">
        <ele>751.89</ele>
        <time>2020-08-14T14:15:28Z</time>
      </trkpt>
      <trkpt lat="42.5664313417" lon="-8.0459725019">
        <ele>753.33</ele>
        <time>2020-08-14T14:15:43Z</time>
      </trkpt>
      <trkpt lat="42.5664177630" lon="-8.0459833145">
        <ele>754.29</ele>
        <time>2020-08-14T14:15:57Z</time>
      </trkpt>
      <trkpt lat="42.5664156675" lon="-8.0459781177">
        <ele>755.25</ele>
        <time>2020-08-14T14:16:12Z</time>
      </trkpt>
      <trkpt lat="42.5664241333" lon="-8.0459816381">
        <ele>755.25</ele>
        <time>2020-08-14T14:16:27Z</time>
      </trkpt>
      <trkpt lat="42.5664291624" lon="-8.0459782854">
        <ele>755.73</ele>
        <time>2020-08-14T14:16:44Z</time>
      </trkpt>
      <trkpt lat="42.5664300006" lon="-8.0459830631">
        <ele>755.25</ele>
        <time>2020-08-14T14:17:02Z</time>
      </trkpt>
      <trkpt lat="42.5664308388" lon="-8.0459714960">
        <ele>755.73</ele>
        <time>2020-08-14T14:17:19Z</time>
      </trkpt>
      <trkpt lat="42.5664311741" lon="-8.0459639523">
        <ele>754.77</ele>
        <time>2020-08-14T14:17:37Z</time>
      </trkpt>
      <trkpt lat="42.5664332695" lon="-8.0459683947">
        <ele>753.33</ele>
        <time>2020-08-14T14:17:52Z</time>
      </trkpt>
      <trkpt lat="42.5664310902" lon="-8.0459791236">
        <ele>753.33</ele>
        <time>2020-08-14T14:18:07Z</time>
      </trkpt>
      <trkpt lat="42.5664196070" lon="-8.0459751841">
        <ele>755.73</ele>
        <time>2020-08-14T14:18:23Z</time>
      </trkpt>
      <trkpt lat="42.5664151646" lon="-8.0459677242">
        <ele>757.66</ele>
        <time>2020-08-14T14:18:42Z</time>
      </trkpt>
      <trkpt lat="42.5664198585" lon="-8.0459741782">
        <ele>757.18</ele>
        <time>2020-08-14T14:19:03Z</time>
      </trkpt>
      <trkpt lat="42.5664249714" lon="-8.0459673889">
        <ele>757.18</ele>
        <time>2020-08-14T14:19:19Z</time>
      </trkpt>
      <trkpt lat="42.5664249714" lon="-8.0459497869">
        <ele>756.69</ele>
        <time>2020-08-14T14:19:38Z</time>
      </trkpt>
      <trkpt lat="42.5664253067" lon="-8.0459616892">
        <ele>757.18</ele>
        <time>2020-08-14T14:19:59Z</time>
      </trkpt>
      <trkpt lat="42.5664223731" lon="-8.0459623598">
        <ele>756.69</ele>
        <time>2020-08-14T14:20:18Z</time>
      </trkpt>
      <trkpt lat="42.5664266478" lon="-8.0459679756">
        <ele>755.25</ele>
        <time>2020-08-14T14:20:35Z</time>
      </trkpt>
      <trkpt lat="42.5664290786" lon="-8.0459735915">
        <ele>754.77</ele>
        <time>2020-08-14T14:20:54Z</time>
      </trkpt>
      <trkpt lat="42.5664274860" lon="-8.0459881760">
        <ele>753.81</ele>
        <time>2020-08-14T14:21:13Z</time>
      </trkpt>
      <trkpt lat="42.5664339401" lon="-8.0459750164">
        <ele>754.29</ele>
        <time>2020-08-14T14:21:35Z</time>
      </trkpt>
      <trkpt lat="42.5664346945" lon="-8.0459770281">
        <ele>753.33</ele>
        <time>2020-08-14T14:21:55Z</time>
      </trkpt>
      <trkpt lat="42.5664286595" lon="-8.0459766928">
        <ele>753.33</ele>
        <time>2020-08-14T14:22:13Z</time>
      </trkpt>
      <trkpt lat="42.5664316770" lon="-8.0459770281">
        <ele>754.29</ele>
        <time>2020-08-14T14:22:30Z</time>
      </trkpt>
      <trkpt lat="42.5664291624" lon="-8.0459699035">
        <ele>753.81</ele>
        <time>2020-08-14T14:22:47Z</time>
      </trkpt>
      <trkpt lat="42.5664395560" lon="-8.0459719151">
        <ele>752.37</ele>
        <time>2020-08-14T14:23:13Z</time>
      </trkpt>
      <trkpt lat="42.5664358679" lon="-8.0459694006">
        <ele>752.37</ele>
        <time>2020-08-14T14:23:31Z</time>
      </trkpt>
      <trkpt lat="42.5664195232" lon="-8.0459744297">
        <ele>753.81</ele>
        <time>2020-08-14T14:23:56Z</time>
      </trkpt>
      <trkpt lat="42.5664198585" lon="-8.0459803808">
        <ele>754.77</ele>
        <time>2020-08-14T14:24:18Z</time>
      </trkpt>
      <trkpt lat="42.5664183497" lon="-8.0459969770">
        <ele>754.77</ele>
        <time>2020-08-14T14:24:36Z</time>
      </trkpt>
      <trkpt lat="42.5664194394" lon="-8.0459931213">
        <ele>755.73</ele>
        <time>2020-08-14T14:25:01Z</time>
      </trkpt>
      <trkpt lat="42.5664253067" lon="-8.0459994078">
        <ele>754.77</ele>
        <time>2020-08-14T14:25:20Z</time>
      </trkpt>
      <trkpt lat="42.5664134882" lon="-8.0459905230">
        <ele>756.21</ele>
        <time>2020-08-14T14:25:39Z</time>
      </trkpt>
      <trkpt lat="42.5664112251" lon="-8.0459970608">
        <ele>757.18</ele>
        <time>2020-08-14T14:25:57Z</time>
      </trkpt>
      <trkpt lat="42.5664269831" lon="-8.0459776148">
        <ele>755.73</ele>
        <time>2020-08-14T14:26:16Z</time>
      </trkpt>
      <trkpt lat="42.5664279051" lon="-8.0459792912">
        <ele>755.73</ele>
        <time>2020-08-14T14:26:34Z</time>
      </trkpt>
      <trkpt lat="42.5664199423" lon="-8.0459634494">
        <ele>756.21</ele>
        <time>2020-08-14T14:26:59Z</time>
      </trkpt>
      <trkpt lat="42.5664263964" lon="-8.0459663831">
        <ele>754.29</ele>
        <time>2020-08-14T14:27:24Z</time>
      </trkpt>
      <trkpt lat="42.5664279889" lon="-8.0459790397">
        <ele>754.29</ele>
        <time>2020-08-14T14:27:47Z</time>
      </trkpt>
      <trkpt lat="42.5664035976" lon="-8.0459786206">
        <ele>756.21</ele>
        <time>2020-08-14T14:28:08Z</time>
      </trkpt>
      <trkpt lat="42.5664191879" lon="-8.0459793750">
        <ele>756.69</ele>
        <time>2020-08-14T14:28:31Z</time>
      </trkpt>
      <trkpt lat="42.5664299168" lon="-8.0459700711">
        <ele>756.21</ele>
        <time>2020-08-14T14:28:50Z</time>
      </trkpt>
      <trkpt lat="42.5664351974" lon="-8.0459608510">
        <ele>755.25</ele>
        <time>2020-08-14T14:29:14Z</time>
      </trkpt>
      <trkpt lat="42.5664372090" lon="-8.0459575821">
        <ele>754.29</ele>
        <time>2020-08-14T14:29:35Z</time>
      </trkpt>
      <trkpt lat="42.5664291624" lon="-8.0459591746">
        <ele>755.73</ele>
        <time>2020-08-14T14:29:55Z</time>
      </trkpt>
      <trkpt lat="42.5664227083" lon="-8.0459703226">
        <ele>756.69</ele>
        <time>2020-08-14T14:30:03Z</time>
      </trkpt>
      <trkpt lat="42.5664163381" lon="-8.0459916126">
        <ele>758.14</ele>
        <time>2020-08-14T14:30:21Z</time>
      </trkpt>
      <trkpt lat="42.5664273184" lon="-8.0459965579">
        <ele>758.62</ele>
        <time>2020-08-14T14:30:31Z</time>
      </trkpt>
      <trkpt lat="42.5664218701" lon="-8.0459945463">
        <ele>758.62</ele>
        <time>2020-08-14T14:30:42Z</time>
      </trkpt>
      <trkpt lat="42.5664183497" lon="-8.0460118130">
        <ele>759.58</ele>
        <time>2020-08-14T14:30:59Z</time>
      </trkpt>
      <trkpt lat="42.5664203614" lon="-8.0459967256">
        <ele>760.06</ele>
        <time>2020-08-14T14:31:07Z</time>
      </trkpt>
      <trkpt lat="42.5664377958" lon="-8.0460174289">
        <ele>759.58</ele>
        <time>2020-08-14T14:31:18Z</time>
      </trkpt>
      <trkpt lat="42.5664651208" lon="-8.0461127311">
        <ele>759.10</ele>
        <time>2020-08-14T14:31:25Z</time>
      </trkpt>
      <trkpt lat="42.5665903464" lon="-8.0463359412">
        <ele>757.66</ele>
        <time>2020-08-14T14:31:32Z</time>
      </trkpt>
      <trkpt lat="42.5668157358" lon="-8.0467443913">
        <ele>755.25</ele>
        <time>2020-08-14T14:31:40Z</time>
      </trkpt>
      <trkpt lat="42.5671831984" lon="-8.0471566971">
        <ele>753.33</ele>
        <time>2020-08-14T14:31:47Z</time>
      </trkpt>
      <trkpt lat="42.5676072389" lon="-8.0474182125">
        <ele>751.89</ele>
        <time>2020-08-14T14:31:54Z</time>
      </trkpt>
      <trkpt lat="42.5683725066" lon="-8.0477912072">
        <ele>749.49</ele>
        <time>2020-08-14T14:32:05Z</time>
      </trkpt>
      <trkpt lat="42.5687387120" lon="-8.0479537323">
        <ele>749.49</ele>
        <time>2020-08-14T14:32:11Z</time>
      </trkpt>
      <trkpt lat="42.5690375268" lon="-8.0481503718">
        <ele>749.97</ele>
        <time>2020-08-14T14:32:19Z</time>
      </trkpt>
      <trkpt lat="42.5692655984" lon="-8.0484107975">
        <ele>750.45</ele>
        <time>2020-08-14T14:32:27Z</time>
      </trkpt>
      <trkpt lat="42.5693693664" lon="-8.0485237017">
        <ele>750.45</ele>
        <time>2020-08-14T14:32:34Z</time>
      </trkpt>
      <trkpt lat="42.5693727192" lon="-8.0485268030">
        <ele>750.93</ele>
        <time>2020-08-14T14:32:40Z</time>
      </trkpt>
      <trkpt lat="42.5693717971" lon="-8.0485149007">
        <ele>750.45</ele>
        <time>2020-08-14T14:32:58Z</time>
      </trkpt>
      <trkpt lat="42.5693705399" lon="-8.0485170800">
        <ele>750.45</ele>
        <time>2020-08-14T14:33:15Z</time>
      </trkpt>
      <trkpt lat="42.5693849567" lon="-8.0485447403">
        <ele>750.45</ele>
        <time>2020-08-14T14:33:18Z</time>
      </trkpt>
      <trkpt lat="42.5693909079" lon="-8.0485608336">
        <ele>750.45</ele>
        <time>2020-08-14T14:33:19Z</time>
      </trkpt>
      <trkpt lat="42.5693969429" lon="-8.0485786870">
        <ele>750.45</ele>
        <time>2020-08-14T14:33:20Z</time>
      </trkpt>
      <trkpt lat="42.5694034807" lon="-8.0485932715">
        <ele>750.45</ele>
        <time>2020-08-14T14:33:21Z</time>
      </trkpt>
      <trkpt lat="42.5694097672" lon="-8.0486075208">
        <ele>750.45</ele>
        <time>2020-08-14T14:33:22Z</time>
      </trkpt>
      <trkpt lat="42.5694190711" lon="-8.0486320797">
        <ele>750.45</ele>
        <time>2020-08-14T14:33:23Z</time>
      </trkpt>
      <trkpt lat="42.5694290455" lon="-8.0486586504">
        <ele>750.45</ele>
        <time>2020-08-14T14:33:24Z</time>
      </trkpt>
      <trkpt lat="42.5695513375" lon="-8.0489169806">
        <ele>749.97</ele>
        <time>2020-08-14T14:33:32Z</time>
      </trkpt>
      <trkpt lat="42.5697192270" lon="-8.0494172126">
        <ele>751.89</ele>
        <time>2020-08-14T14:33:48Z</time>
      </trkpt>
      <trkpt lat="42.5698252581" lon="-8.0497265887">
        <ele>753.33</ele>
        <time>2020-08-14T14:33:58Z</time>
      </trkpt>
      <trkpt lat="42.5698958337" lon="-8.0499689095">
        <ele>754.77</ele>
        <time>2020-08-14T14:34:06Z</time>
      </trkpt>
      <trkpt lat="42.5700301118" lon="-8.0503726657">
        <ele>755.73</ele>
        <time>2020-08-14T14:34:20Z</time>
      </trkpt>
      <trkpt lat="42.5701622944" lon="-8.0508057587">
        <ele>757.18</ele>
        <time>2020-08-14T14:34:35Z</time>
      </trkpt>
      <trkpt lat="42.5703080557" lon="-8.0512650032">
        <ele>759.10</ele>
        <time>2020-08-14T14:34:50Z</time>
      </trkpt>
      <trkpt lat="42.5704868417" lon="-8.0516337231">
        <ele>760.06</ele>
        <time>2020-08-14T14:35:03Z</time>
      </trkpt>
      <trkpt lat="42.5706796255" lon="-8.0518961605">
        <ele>761.02</ele>
        <time>2020-08-14T14:35:13Z</time>
      </trkpt>
      <trkpt lat="42.5709028356" lon="-8.0520627927">
        <ele>761.98</ele>
        <time>2020-08-14T14:35:22Z</time>
      </trkpt>
      <trkpt lat="42.5711567234" lon="-8.0521562509">
        <ele>761.98</ele>
        <time>2020-08-14T14:35:31Z</time>
      </trkpt>
      <trkpt lat="42.5715039857" lon="-8.0521930475">
        <ele>761.50</ele>
        <time>2020-08-14T14:35:41Z</time>
      </trkpt>
      <trkpt lat="42.5718515832" lon="-8.0522138346">
        <ele>759.58</ele>
        <time>2020-08-14T14:35:50Z</time>
      </trkpt>
      <trkpt lat="42.5720585324" lon="-8.0522539001">
        <ele>758.62</ele>
        <time>2020-08-14T14:35:55Z</time>
      </trkpt>
      <trkpt lat="42.5724176131" lon="-8.0524670519">
        <ele>758.14</ele>
        <time>2020-08-14T14:36:03Z</time>
      </trkpt>
      <trkpt lat="42.5725533161" lon="-8.0526037607">
        <ele>757.18</ele>
        <time>2020-08-14T14:36:06Z</time>
      </trkpt>
      <trkpt lat="42.5727186911" lon="-8.0528547149">
        <ele>755.73</ele>
        <time>2020-08-14T14:36:10Z</time>
      </trkpt>
      <trkpt lat="42.5727533922" lon="-8.0529254582">
        <ele>754.77</ele>
        <time>2020-08-14T14:36:11Z</time>
      </trkpt>
      <trkpt lat="42.5728921965" lon="-8.0533497501">
        <ele>752.37</ele>
        <time>2020-08-14T14:36:16Z</time>
      </trkpt>
      <trkpt lat="42.5729252212" lon="-8.0539425183">
        <ele>749.97</ele>
        <time>2020-08-14T14:36:22Z</time>
      </trkpt>
      <trkpt lat="42.5728390552" lon="-8.0546638649">
        <ele>746.60</ele>
        <time>2020-08-14T14:36:29Z</time>
      </trkpt>
      <trkpt lat="42.5726688188" lon="-8.0558306258">
        <ele>741.31</ele>
        <time>2020-08-14T14:36:39Z</time>
      </trkpt>
      <trkpt lat="42.5724853389" lon="-8.0570727400">
        <ele>735.55</ele>
        <time>2020-08-14T14:36:49Z</time>
      </trkpt>
      <trkpt lat="42.5723707583" lon="-8.0581002776">
        <ele>730.74</ele>
        <time>2020-08-14T14:36:57Z</time>
      </trkpt>
      <trkpt lat="42.5724278390" lon="-8.0586988293">
        <ele>728.82</ele>
        <time>2020-08-14T14:37:02Z</time>
      </trkpt>
      <trkpt lat="42.5726492889" lon="-8.0593477562">
        <ele>725.45</ele>
        <time>2020-08-14T14:37:08Z</time>
      </trkpt>
      <trkpt lat="42.5729545578" lon="-8.0598121975">
        <ele>722.57</ele>
        <time>2020-08-14T14:37:13Z</time>
      </trkpt>
      <trkpt lat="42.5732075237" lon="-8.0600342341">
        <ele>721.13</ele>
        <time>2020-08-14T14:37:16Z</time>
      </trkpt>
      <trkpt lat="42.5737019721" lon="-8.0602579471">
        <ele>717.76</ele>
        <time>2020-08-14T14:37:21Z</time>
      </trkpt>
      <trkpt lat="42.5744531583" lon="-8.0603482202">
        <ele>712.95</ele>
        <time>2020-08-14T14:37:28Z</time>
      </trkpt>
      <trkpt lat="42.5754550472" lon="-8.0604417622">
        <ele>707.67</ele>
        <time>2020-08-14T14:37:38Z</time>
      </trkpt>
      <trkpt lat="42.5761200674" lon="-8.0605151039">
        <ele>708.15</ele>
        <time>2020-08-14T14:37:46Z</time>
      </trkpt>
      <trkpt lat="42.5765531603" lon="-8.0605613720">
        <ele>708.63</ele>
        <time>2020-08-14T14:37:53Z</time>
      </trkpt>
      <trkpt lat="42.5769504625" lon="-8.0606013536">
        <ele>708.63</ele>
        <time>2020-08-14T14:38:01Z</time>
      </trkpt>
      <trkpt lat="42.5774674583" lon="-8.0606524833">
        <ele>708.63</ele>
        <time>2020-08-14T14:38:12Z</time>
      </trkpt>
      <trkpt lat="42.5779883098" lon="-8.0607102346">
        <ele>709.11</ele>
        <time>2020-08-14T14:38:24Z</time>
      </trkpt>
      <trkpt lat="42.5784120988" lon="-8.0607534014">
        <ele>711.03</ele>
        <time>2020-08-14T14:38:36Z</time>
      </trkpt>
      <trkpt lat="42.5787442736" lon="-8.0607863422">
        <ele>711.99</ele>
        <time>2020-08-14T14:38:46Z</time>
      </trkpt>
      <trkpt lat="42.5791199505" lon="-8.0608291738">
        <ele>712.47</ele>
        <time>2020-08-14T14:38:58Z</time>
      </trkpt>
      <trkpt lat="42.5794479344" lon="-8.0608603545">
        <ele>713.44</ele>
        <time>2020-08-14T14:39:08Z</time>
      </trkpt>
      <trkpt lat="42.5798162352" lon="-8.0608979892">
        <ele>714.40</ele>
        <time>2020-08-14T14:39:19Z</time>
      </trkpt>
      <trkpt lat="42.5806725305" lon="-8.0609880947">
        <ele>716.32</ele>
        <time>2020-08-14T14:39:46Z</time>
      </trkpt>
      <trkpt lat="42.5810716767" lon="-8.0610230472">
        <ele>717.28</ele>
        <time>2020-08-14T14:39:59Z</time>
      </trkpt>
      <trkpt lat="42.5814465154" lon="-8.0610652082">
        <ele>718.24</ele>
        <time>2020-08-14T14:40:12Z</time>
      </trkpt>
      <trkpt lat="42.5817939453" lon="-8.0610911082">
        <ele>719.68</ele>
        <time>2020-08-14T14:40:24Z</time>
      </trkpt>
      <trkpt lat="42.5820725597" lon="-8.0611251388">
        <ele>720.65</ele>
        <time>2020-08-14T14:40:34Z</time>
      </trkpt>
      <trkpt lat="42.5823284592" lon="-8.0611644499">
        <ele>721.13</ele>
        <time>2020-08-14T14:40:43Z</time>
      </trkpt>
      <trkpt lat="42.5826814212" lon="-8.0612426531">
        <ele>722.09</ele>
        <time>2020-08-14T14:40:55Z</time>
      </trkpt>
      <trkpt lat="42.5830414239" lon="-8.0613558087">
        <ele>723.53</ele>
        <time>2020-08-14T14:41:08Z</time>
      </trkpt>
      <trkpt lat="42.5833091419" lon="-8.0614748318">
        <ele>724.97</ele>
        <time>2020-08-14T14:41:18Z</time>
      </trkpt>
      <trkpt lat="42.5836025085" lon="-8.0616344232">
        <ele>725.93</ele>
        <time>2020-08-14T14:41:28Z</time>
      </trkpt>
      <trkpt lat="42.5838847272" lon="-8.0618168134">
        <ele>726.41</ele>
        <time>2020-08-14T14:41:38Z</time>
      </trkpt>
      <trkpt lat="42.5842222665" lon="-8.0620525125">
        <ele>726.89</ele>
        <time>2020-08-14T14:41:50Z</time>
      </trkpt>
      <trkpt lat="42.5845940877" lon="-8.0623321328">
        <ele>726.89</ele>
        <time>2020-08-14T14:42:02Z</time>
      </trkpt>
      <trkpt lat="42.5849760510" lon="-8.0626241583">
        <ele>727.37</ele>
        <time>2020-08-14T14:42:14Z</time>
      </trkpt>
      <trkpt lat="42.5852747820" lon="-8.0628405791">
        <ele>727.37</ele>
        <time>2020-08-14T14:42:23Z</time>
      </trkpt>
      <trkpt lat="42.5856162608" lon="-8.0631021783">
        <ele>725.93</ele>
        <time>2020-08-14T14:42:32Z</time>
      </trkpt>
      <trkpt lat="42.5859517045" lon="-8.0634108000">
        <ele>724.97</ele>
        <time>2020-08-14T14:42:41Z</time>
      </trkpt>
      <trkpt lat="42.5862765871" lon="-8.0638084374">
        <ele>723.05</ele>
        <time>2020-08-14T14:42:50Z</time>
      </trkpt>
      <trkpt lat="42.5865427125" lon="-8.0643047299">
        <ele>720.16</ele>
        <time>2020-08-14T14:42:58Z</time>
      </trkpt>
      <trkpt lat="42.5867620669" lon="-8.0649724323">
        <ele>716.80</ele>
        <time>2020-08-14T14:43:06Z</time>
      </trkpt>
      <trkpt lat="42.5869712792" lon="-8.0658022407">
        <ele>713.44</ele>
        <time>2020-08-14T14:43:14Z</time>
      </trkpt>
      <trkpt lat="42.5872654002" lon="-8.0664598849">
        <ele>709.11</ele>
        <time>2020-08-14T14:43:20Z</time>
      </trkpt>
      <trkpt lat="42.5875389017" lon="-8.0667989329">
        <ele>707.19</ele>
        <time>2020-08-14T14:43:24Z</time>
      </trkpt>
      <trkpt lat="42.5881079491" lon="-8.0672490411">
        <ele>704.30</ele>
        <time>2020-08-14T14:43:31Z</time>
      </trkpt>
      <trkpt lat="42.5887603126" lon="-8.0678030010">
        <ele>699.50</ele>
        <time>2020-08-14T14:43:39Z</time>
      </trkpt>
      <trkpt lat="42.5895693339" lon="-8.0685536843">
        <ele>694.21</ele>
        <time>2020-08-14T14:43:49Z</time>
      </trkpt>
      <trkpt lat="42.5900756847" lon="-8.0690239090">
        <ele>692.77</ele>
        <time>2020-08-14T14:43:56Z</time>
      </trkpt>
      <trkpt lat="42.5904670358" lon="-8.0693819001">
        <ele>693.25</ele>
        <time>2020-08-14T14:44:03Z</time>
      </trkpt>
      <trkpt lat="42.5907719694" lon="-8.0696695670">
        <ele>693.25</ele>
        <time>2020-08-14T14:44:11Z</time>
      </trkpt>
      <trkpt lat="42.5911754742" lon="-8.0700527038">
        <ele>694.69</ele>
        <time>2020-08-14T14:44:22Z</time>
      </trkpt>
      <trkpt lat="42.5915502291" lon="-8.0703963619">
        <ele>695.65</ele>
        <time>2020-08-14T14:44:33Z</time>
      </trkpt>
      <trkpt lat="42.5918505527" lon="-8.0706735514">
        <ele>695.17</ele>
        <time>2020-08-14T14:44:41Z</time>
      </trkpt>
      <trkpt lat="42.5921469368" lon="-8.0709588714">
        <ele>694.69</ele>
        <time>2020-08-14T14:44:50Z</time>
      </trkpt>
      <trkpt lat="42.5924826320" lon="-8.0713236518">
        <ele>693.25</ele>
        <time>2020-08-14T14:45:00Z</time>
      </trkpt>
      <trkpt lat="42.5927713886" lon="-8.0716975685">
        <ele>690.84</ele>
        <time>2020-08-14T14:45:07Z</time>
      </trkpt>
      <trkpt lat="42.5931210816" lon="-8.0721594114">
        <ele>687.48</ele>
        <time>2020-08-14T14:45:14Z</time>
      </trkpt>
      <trkpt lat="42.5936545897" lon="-8.0728458893">
        <ele>685.08</ele>
        <time>2020-08-14T14:45:23Z</time>
      </trkpt>
      <trkpt lat="42.5940715056" lon="-8.0732464604">
        <ele>686.04</ele>
        <time>2020-08-14T14:45:30Z</time>
      </trkpt>
      <trkpt lat="42.5943914428" lon="-8.0734326225">
        <ele>687.48</ele>
        <time>2020-08-14T14:45:37Z</time>
      </trkpt>
      <trkpt lat="42.5947806984" lon="-8.0735944770">
        <ele>688.92</ele>
        <time>2020-08-14T14:45:47Z</time>
      </trkpt>
      <trkpt lat="42.5948196743" lon="-8.0736234784">
        <ele>688.92</ele>
        <time>2020-08-14T14:45:48Z</time>
      </trkpt>
      <trkpt lat="42.5948473345" lon="-8.0736536533">
        <ele>688.92</ele>
        <time>2020-08-14T14:45:49Z</time>
      </trkpt>
      <trkpt lat="42.5950220134" lon="-8.0738226324">
        <ele>689.88</ele>
        <time>2020-08-14T14:45:56Z</time>
      </trkpt>
      <trkpt lat="42.5951896515" lon="-8.0738714989">
        <ele>690.84</ele>
        <time>2020-08-14T14:46:03Z</time>
      </trkpt>
      <trkpt lat="42.5953137875" lon="-8.0738776177">
        <ele>692.29</ele>
        <time>2020-08-14T14:46:10Z</time>
      </trkpt>
      <trkpt lat="42.5953597203" lon="-8.0738527235">
        <ele>693.25</ele>
        <time>2020-08-14T14:46:17Z</time>
      </trkpt>
      <trkpt lat="42.5953917392" lon="-8.0738460179">
        <ele>694.69</ele>
        <time>2020-08-14T14:46:25Z</time>
      </trkpt>
      <trkpt lat="42.5954041444" lon="-8.0738383066">
        <ele>695.65</ele>
        <time>2020-08-14T14:46:57Z</time>
      </trkpt>
      <trkpt lat="42.5954018813" lon="-8.0738270748">
        <ele>696.61</ele>
        <time>2020-08-14T14:47:19Z</time>
      </trkpt>
      <trkpt lat="42.5954178069" lon="-8.0738302600">
        <ele>697.09</ele>
        <time>2020-08-14T14:47:33Z</time>
      </trkpt>
      <trkpt lat="42.5955291186" lon="-8.0738155078">
        <ele>698.05</ele>
        <time>2020-08-14T14:47:40Z</time>
      </trkpt>
      <trkpt lat="42.5957149453" lon="-8.0737826508">
        <ele>699.02</ele>
        <time>2020-08-14T14:47:49Z</time>
      </trkpt>
      <trkpt lat="42.5959227327" lon="-8.0737590138">
        <ele>698.53</ele>
        <time>2020-08-14T14:47:56Z</time>
      </trkpt>
      <trkpt lat="42.5960910413" lon="-8.0737630371">
        <ele>699.02</ele>
        <time>2020-08-14T14:48:04Z</time>
      </trkpt>
      <trkpt lat="42.5961911213" lon="-8.0737797171">
        <ele>699.50</ele>
        <time>2020-08-14T14:48:13Z</time>
      </trkpt>
      <trkpt lat="42.5962352101" lon="-8.0738022644">
        <ele>699.02</ele>
        <time>2020-08-14T14:48:20Z</time>
      </trkpt>
      <trkpt lat="42.5963305961" lon="-8.0738538969">
        <ele>699.50</ele>
        <time>2020-08-14T14:48:30Z</time>
      </trkpt>
      <trkpt lat="42.5963971484" lon="-8.0739059485">
        <ele>699.50</ele>
        <time>2020-08-14T14:48:38Z</time>
      </trkpt>
      <trkpt lat="42.5965108909" lon="-8.0740139075">
        <ele>700.46</ele>
        <time>2020-08-14T14:48:50Z</time>
      </trkpt>
      <trkpt lat="42.5965999905" lon="-8.0741685536">
        <ele>701.42</ele>
        <time>2020-08-14T14:49:03Z</time>
      </trkpt>
      <trkpt lat="42.5966047682" lon="-8.0741832219">
        <ele>701.90</ele>
        <time>2020-08-14T14:49:04Z</time>
      </trkpt>
      <trkpt lat="42.5966097135" lon="-8.0741995666">
        <ele>701.90</ele>
        <time>2020-08-14T14:49:05Z</time>
      </trkpt>
      <trkpt lat="42.5966504496" lon="-8.0743639357">
        <ele>703.34</ele>
        <time>2020-08-14T14:49:16Z</time>
      </trkpt>
      <trkpt lat="42.5966587476" lon="-8.0745539535">
        <ele>704.30</ele>
        <time>2020-08-14T14:49:29Z</time>
      </trkpt>
      <trkpt lat="42.5966659561" lon="-8.0745812785">
        <ele>703.82</ele>
        <time>2020-08-14T14:49:37Z</time>
      </trkpt>
      <trkpt lat="42.5966658723" lon="-8.0745837092">
        <ele>703.82</ele>
        <time>2020-08-14T14:49:43Z</time>
      </trkpt>
      <trkpt lat="42.5966632739" lon="-8.0746650975">
        <ele>703.82</ele>
        <time>2020-08-14T14:49:50Z</time>
      </trkpt>
      <trkpt lat="42.5966565683" lon="-8.0748837814">
        <ele>705.26</ele>
        <time>2020-08-14T14:49:59Z</time>
      </trkpt>
      <trkpt lat="42.5966583285" lon="-8.0751813389">
        <ele>706.71</ele>
        <time>2020-08-14T14:50:10Z</time>
      </trkpt>
      <trkpt lat="42.5966387987" lon="-8.0754445307">
        <ele>707.19</ele>
        <time>2020-08-14T14:50:19Z</time>
      </trkpt>
      <trkpt lat="42.5966279861" lon="-8.0756660644">
        <ele>706.71</ele>
        <time>2020-08-14T14:50:26Z</time>
      </trkpt>
      <trkpt lat="42.5966983940" lon="-8.0760060344">
        <ele>704.78</ele>
        <time>2020-08-14T14:50:36Z</time>
      </trkpt>
      <trkpt lat="42.5968558062" lon="-8.0762181804">
        <ele>706.23</ele>
        <time>2020-08-14T14:50:45Z</time>
      </trkpt>
      <trkpt lat="42.5970599055" lon="-8.0764031690">
        <ele>709.59</ele>
        <time>2020-08-14T14:50:55Z</time>
      </trkpt>
      <trkpt lat="42.5972971972" lon="-8.0766563024">
        <ele>711.99</ele>
        <time>2020-08-14T14:51:06Z</time>
      </trkpt>
      <trkpt lat="42.5975712016" lon="-8.0769625772">
        <ele>712.47</ele>
        <time>2020-08-14T14:51:18Z</time>
      </trkpt>
      <trkpt lat="42.5977828447" lon="-8.0771902297">
        <ele>713.44</ele>
        <time>2020-08-14T14:51:27Z</time>
      </trkpt>
      <trkpt lat="42.5980184600" lon="-8.0773830973">
        <ele>713.92</ele>
        <time>2020-08-14T14:51:36Z</time>
      </trkpt>
      <trkpt lat="42.5982411671" lon="-8.0774792377">
        <ele>713.92</ele>
        <time>2020-08-14T14:51:44Z</time>
      </trkpt>
      <trkpt lat="42.5984564982" lon="-8.0775607098">
        <ele>714.88</ele>
        <time>2020-08-14T14:51:51Z</time>
      </trkpt>
      <trkpt lat="42.5988304988" lon="-8.0776631366">
        <ele>715.84</ele>
        <time>2020-08-14T14:52:03Z</time>
      </trkpt>
      <trkpt lat="42.5991917588" lon="-8.0776810739">
        <ele>715.36</ele>
        <time>2020-08-14T14:52:13Z</time>
      </trkpt>
      <trkpt lat="42.5995731354" lon="-8.0776784755">
        <ele>715.36</ele>
        <time>2020-08-14T14:52:23Z</time>
      </trkpt>
      <trkpt lat="42.5998032186" lon="-8.0778463650">
        <ele>714.40</ele>
        <time>2020-08-14T14:52:30Z</time>
      </trkpt>
      <trkpt lat="42.6000183821" lon="-8.0779530667">
        <ele>713.44</ele>
        <time>2020-08-14T14:52:37Z</time>
      </trkpt>
      <trkpt lat="42.6002208050" lon="-8.0779812299">
        <ele>711.03</ele>
        <time>2020-08-14T14:52:44Z</time>
      </trkpt>
      <trkpt lat="42.6004351303" lon="-8.0780395679">
        <ele>707.67</ele>
        <time>2020-08-14T14:52:50Z</time>
      </trkpt>
      <trkpt lat="42.6005194522" lon="-8.0780843273">
        <ele>706.71</ele>
        <time>2020-08-14T14:52:52Z</time>
      </trkpt>
      <trkpt lat="42.6006525569" lon="-8.0781649612">
        <ele>705.26</ele>
        <time>2020-08-14T14:52:55Z</time>
      </trkpt>
      <trkpt lat="42.6006935444" lon="-8.0781895202">
        <ele>704.78</ele>
        <time>2020-08-14T14:52:56Z</time>
      </trkpt>
      <trkpt lat="42.6007291675" lon="-8.0782116484">
        <ele>704.30</ele>
        <time>2020-08-14T14:52:57Z</time>
      </trkpt>
      <trkpt lat="42.6007685624" lon="-8.0782351177">
        <ele>704.30</ele>
        <time>2020-08-14T14:52:58Z</time>
      </trkpt>
      <trkpt lat="42.6008083764" lon="-8.0782605149">
        <ele>703.82</ele>
        <time>2020-08-14T14:52:59Z</time>
      </trkpt>
      <trkpt lat="42.6008496992" lon="-8.0782878399">
        <ele>703.82</ele>
        <time>2020-08-14T14:53:00Z</time>
      </trkpt>
      <trkpt lat="42.6009775233" lon="-8.0783749279">
        <ele>703.34</ele>
        <time>2020-08-14T14:53:03Z</time>
      </trkpt>
      <trkpt lat="42.6010244619" lon="-8.0783958826">
        <ele>703.34</ele>
        <time>2020-08-14T14:53:04Z</time>
      </trkpt>
      <trkpt lat="42.6014149748" lon="-8.0785046797">
        <ele>701.90</ele>
        <time>2020-08-14T14:53:11Z</time>
      </trkpt>
      <trkpt lat="42.6016991213" lon="-8.0785592459">
        <ele>699.98</ele>
        <time>2020-08-14T14:53:17Z</time>
      </trkpt>
      <trkpt lat="42.6017940883" lon="-8.0785849784">
        <ele>699.50</ele>
        <time>2020-08-14T14:53:19Z</time>
      </trkpt>
      <trkpt lat="42.6021798234" lon="-8.0786266364">
        <ele>699.02</ele>
        <time>2020-08-14T14:53:26Z</time>
      </trkpt>
      <trkpt lat="42.6024457812" lon="-8.0786647741">
        <ele>697.57</ele>
        <time>2020-08-14T14:53:31Z</time>
      </trkpt>
      <trkpt lat="42.6028100587" lon="-8.0787485093">
        <ele>695.17</ele>
        <time>2020-08-14T14:53:38Z</time>
      </trkpt>
      <trkpt lat="42.6031263079" lon="-8.0788269639">
        <ele>694.21</ele>
        <time>2020-08-14T14:53:44Z</time>
      </trkpt>
      <trkpt lat="42.6034105383" lon="-8.0789460707">
        <ele>694.21</ele>
        <time>2020-08-14T14:53:51Z</time>
      </trkpt>
      <trkpt lat="42.6034500170" lon="-8.0789681990">
        <ele>694.69</ele>
        <time>2020-08-14T14:53:52Z</time>
      </trkpt>
      <trkpt lat="42.6034842990" lon="-8.0789940991">
        <ele>694.69</ele>
        <time>2020-08-14T14:53:53Z</time>
      </trkpt>
      <trkpt lat="42.6037070062" lon="-8.0792455561">
        <ele>695.17</ele>
        <time>2020-08-14T14:54:00Z</time>
      </trkpt>
      <trkpt lat="42.6039401907" lon="-8.0797286052">
        <ele>691.81</ele>
        <time>2020-08-14T14:54:08Z</time>
      </trkpt>
      <trkpt lat="42.6041128580" lon="-8.0801177770">
        <ele>690.84</ele>
        <time>2020-08-14T14:54:16Z</time>
      </trkpt>
      <trkpt lat="42.6042028796" lon="-8.0802350398">
        <ele>690.84</ele>
        <time>2020-08-14T14:54:19Z</time>
      </trkpt>
      <trkpt lat="42.6042416040" lon="-8.0802664720">
        <ele>690.84</ele>
        <time>2020-08-14T14:54:20Z</time>
      </trkpt>
      <trkpt lat="42.6042823400" lon="-8.0802891031">
        <ele>690.36</ele>
        <time>2020-08-14T14:54:21Z</time>
      </trkpt>
      <trkpt lat="42.6043252554" lon="-8.0803008378">
        <ele>689.88</ele>
        <time>2020-08-14T14:54:22Z</time>
      </trkpt>
      <trkpt lat="42.6043726970" lon="-8.0803074595">
        <ele>689.40</ele>
        <time>2020-08-14T14:54:23Z</time>
      </trkpt>
      <trkpt lat="42.6044144388" lon="-8.0803098064">
        <ele>688.92</ele>
        <time>2020-08-14T14:54:24Z</time>
      </trkpt>
      <trkpt lat="42.6044570189" lon="-8.0803133268">
        <ele>688.92</ele>
        <time>2020-08-14T14:54:25Z</time>
      </trkpt>
      <trkpt lat="42.6044967491" lon="-8.0803161766">
        <ele>688.44</ele>
        <time>2020-08-14T14:54:26Z</time>
      </trkpt>
      <trkpt lat="42.6045362279" lon="-8.0803143326">
        <ele>687.48</ele>
        <time>2020-08-14T14:54:27Z</time>
      </trkpt>
      <trkpt lat="42.6045705937" lon="-8.0803090520">
        <ele>687.00</ele>
        <time>2020-08-14T14:54:28Z</time>
      </trkpt>
      <trkpt lat="42.6046023611" lon="-8.0803023465">
        <ele>686.52</ele>
        <time>2020-08-14T14:54:29Z</time>
      </trkpt>
      <trkpt lat="42.6046359725" lon="-8.0802920368">
        <ele>685.56</ele>
        <time>2020-08-14T14:54:30Z</time>
      </trkpt>
      <trkpt lat="42.6048028562" lon="-8.0802689865">
        <ele>683.15</ele>
        <time>2020-08-14T14:54:35Z</time>
      </trkpt>
      <trkpt lat="42.6048792992" lon="-8.0803636182">
        <ele>682.19</ele>
        <time>2020-08-14T14:54:38Z</time>
      </trkpt>
      <trkpt lat="42.6049018465" lon="-8.0804113951">
        <ele>681.71</ele>
        <time>2020-08-14T14:54:39Z</time>
      </trkpt>
      <trkpt lat="42.6050827280" lon="-8.0808977131">
        <ele>681.23</ele>
        <time>2020-08-14T14:54:47Z</time>
      </trkpt>
      <trkpt lat="42.6052014157" lon="-8.0814321432">
        <ele>679.79</ele>
        <time>2020-08-14T14:54:55Z</time>
      </trkpt>
      <trkpt lat="42.6052019186" lon="-8.0814986955">
        <ele>679.31</ele>
        <time>2020-08-14T14:55:00Z</time>
      </trkpt>
      <trkpt lat="42.6052062772" lon="-8.0815140344">
        <ele>679.31</ele>
        <time>2020-08-14T14:55:11Z</time>
      </trkpt>
      <trkpt lat="42.6052119769" lon="-8.0815261882">
        <ele>679.31</ele>
        <time>2020-08-14T14:55:12Z</time>
      </trkpt>
      <trkpt lat="42.6052215323" lon="-8.0815460533">
        <ele>679.31</ele>
        <time>2020-08-14T14:55:13Z</time>
      </trkpt>
      <trkpt lat="42.6052306686" lon="-8.0815698579">
        <ele>678.83</ele>
        <time>2020-08-14T14:55:14Z</time>
      </trkpt>
      <trkpt lat="42.6052607596" lon="-8.0816695187">
        <ele>678.83</ele>
        <time>2020-08-14T14:55:20Z</time>
      </trkpt>
      <trkpt lat="42.6053056866" lon="-8.0818125140">
        <ele>677.87</ele>
        <time>2020-08-14T14:55:25Z</time>
      </trkpt>
      <trkpt lat="42.6053853147" lon="-8.0820334610">
        <ele>677.39</ele>
        <time>2020-08-14T14:55:33Z</time>
      </trkpt>
      <trkpt lat="42.6054864842" lon="-8.0822399911">
        <ele>675.94</ele>
        <time>2020-08-14T14:55:40Z</time>
      </trkpt>
      <trkpt lat="42.6055609155" lon="-8.0824171007">
        <ele>674.50</ele>
        <time>2020-08-14T14:55:47Z</time>
      </trkpt>
      <trkpt lat="42.6055743266" lon="-8.0824277457">
        <ele>674.50</ele>
        <time>2020-08-14T14:55:54Z</time>
      </trkpt>
      <trkpt lat="42.6056081057" lon="-8.0825131573">
        <ele>674.02</ele>
        <time>2020-08-14T14:56:00Z</time>
      </trkpt>
      <trkpt lat="42.6056829561" lon="-8.0827376246">
        <ele>672.58</ele>
        <time>2020-08-14T14:56:05Z</time>
      </trkpt>
      <trkpt lat="42.6056933496" lon="-8.0827992316">
        <ele>672.10</ele>
        <time>2020-08-14T14:56:06Z</time>
      </trkpt>
      <trkpt lat="42.6056997199" lon="-8.0828631856">
        <ele>672.10</ele>
        <time>2020-08-14T14:56:07Z</time>
      </trkpt>
      <trkpt lat="42.6057298109" lon="-8.0833344162">
        <ele>669.70</ele>
        <time>2020-08-14T14:56:15Z</time>
      </trkpt>
      <trkpt lat="42.6057852153" lon="-8.0835706182">
        <ele>668.25</ele>
        <time>2020-08-14T14:56:20Z</time>
      </trkpt>
      <trkpt lat="42.6058137976" lon="-8.0838892143">
        <ele>667.29</ele>
        <time>2020-08-14T14:56:26Z</time>
      </trkpt>
      <trkpt lat="42.6058292203" lon="-8.0839464627">
        <ele>667.29</ele>
        <time>2020-08-14T14:56:27Z</time>
      </trkpt>
      <trkpt lat="42.6059670188" lon="-8.0843876023">
        <ele>665.85</ele>
        <time>2020-08-14T14:56:35Z</time>
      </trkpt>
      <trkpt lat="42.6060356665" lon="-8.0848710705">
        <ele>665.37</ele>
        <time>2020-08-14T14:56:44Z</time>
      </trkpt>
      <trkpt lat="42.6060698647" lon="-8.0853296444">
        <ele>664.89</ele>
        <time>2020-08-14T14:56:52Z</time>
      </trkpt>
      <trkpt lat="42.6060570404" lon="-8.0858520884">
        <ele>663.93</ele>
        <time>2020-08-14T14:57:01Z</time>
      </trkpt>
      <trkpt lat="42.6060183160" lon="-8.0863349698">
        <ele>662.49</ele>
        <time>2020-08-14T14:57:09Z</time>
      </trkpt>
      <trkpt lat="42.6060277037" lon="-8.0863928050">
        <ele>662.49</ele>
        <time>2020-08-14T14:57:10Z</time>
      </trkpt>
      <trkpt lat="42.6060446352" lon="-8.0864459462">
        <ele>662.97</ele>
        <time>2020-08-14T14:57:11Z</time>
      </trkpt>
      <trkpt lat="42.6060678530" lon="-8.0864945613">
        <ele>662.97</ele>
        <time>2020-08-14T14:57:12Z</time>
      </trkpt>
      <trkpt lat="42.6060901489" lon="-8.0865366384">
        <ele>662.97</ele>
        <time>2020-08-14T14:57:13Z</time>
      </trkpt>
      <trkpt lat="42.6061116066" lon="-8.0865786318">
        <ele>663.45</ele>
        <time>2020-08-14T14:57:14Z</time>
      </trkpt>
      <trkpt lat="42.6062441245" lon="-8.0869039334">
        <ele>665.85</ele>
        <time>2020-08-14T14:57:22Z</time>
      </trkpt>
      <trkpt lat="42.6063309610" lon="-8.0871493556">
        <ele>665.37</ele>
        <time>2020-08-14T14:57:28Z</time>
      </trkpt>
      <trkpt lat="42.6064662449" lon="-8.0874988809">
        <ele>663.45</ele>
        <time>2020-08-14T14:57:36Z</time>
      </trkpt>
      <trkpt lat="42.6065913867" lon="-8.0877539422">
        <ele>661.52</ele>
        <time>2020-08-14T14:57:43Z</time>
      </trkpt>
      <trkpt lat="42.6067835838" lon="-8.0881574471">
        <ele>659.12</ele>
        <time>2020-08-14T14:57:51Z</time>
      </trkpt>
      <trkpt lat="42.6070215460" lon="-8.0886249896">
        <ele>656.24</ele>
        <time>2020-08-14T14:57:59Z</time>
      </trkpt>
      <trkpt lat="42.6072766911" lon="-8.0891096313">
        <ele>653.83</ele>
        <time>2020-08-14T14:58:07Z</time>
      </trkpt>
      <trkpt lat="42.6074286550" lon="-8.0893976334">
        <ele>652.87</ele>
        <time>2020-08-14T14:58:14Z</time>
      </trkpt>
      <trkpt lat="42.6075646933" lon="-8.0896559637">
        <ele>652.39</ele>
        <time>2020-08-14T14:58:21Z</time>
      </trkpt>
      <trkpt lat="42.6077020727" lon="-8.0900005437">
        <ele>650.95</ele>
        <time>2020-08-14T14:58:29Z</time>
      </trkpt>
      <trkpt lat="42.6077825390" lon="-8.0903250072">
        <ele>648.55</ele>
        <time>2020-08-14T14:58:38Z</time>
      </trkpt>
      <trkpt lat="42.6078366023" lon="-8.0905911326">
        <ele>646.14</ele>
        <time>2020-08-14T14:58:44Z</time>
      </trkpt>
      <trkpt lat="42.6079435553" lon="-8.0910821445">
        <ele>642.30</ele>
        <time>2020-08-14T14:58:54Z</time>
      </trkpt>
      <trkpt lat="42.6080300566" lon="-8.0913813785">
        <ele>639.89</ele>
        <time>2020-08-14T14:59:01Z</time>
      </trkpt>
      <trkpt lat="42.6081389375" lon="-8.0916635972">
        <ele>637.01</ele>
        <time>2020-08-14T14:59:09Z</time>
      </trkpt>
      <trkpt lat="42.6082962658" lon="-8.0919533595">
        <ele>635.57</ele>
        <time>2020-08-14T14:59:18Z</time>
      </trkpt>
      <trkpt lat="42.6084644068" lon="-8.0921784136">
        <ele>634.61</ele>
        <time>2020-08-14T14:59:27Z</time>
      </trkpt>
      <trkpt lat="42.6086400915" lon="-8.0923632346">
        <ele>632.20</ele>
        <time>2020-08-14T14:59:33Z</time>
      </trkpt>
      <trkpt lat="42.6087742858" lon="-8.0925683398">
        <ele>631.24</ele>
        <time>2020-08-14T14:59:40Z</time>
      </trkpt>
      <trkpt lat="42.6087878644" lon="-8.0927841738">
        <ele>632.68</ele>
        <time>2020-08-14T14:59:46Z</time>
      </trkpt>
      <trkpt lat="42.6087766327" lon="-8.0929137580">
        <ele>634.13</ele>
        <time>2020-08-14T14:59:52Z</time>
      </trkpt>
      <trkpt lat="42.6087776385" lon="-8.0929154344">
        <ele>636.05</ele>
        <time>2020-08-14T15:00:04Z</time>
      </trkpt>
      <trkpt lat="42.6087762136" lon="-8.0929024424">
        <ele>636.05</ele>
        <time>2020-08-14T15:00:18Z</time>
      </trkpt>
      <trkpt lat="42.6087788120" lon="-8.0929157697">
        <ele>637.49</ele>
        <time>2020-08-14T15:00:32Z</time>
      </trkpt>
      <trkpt lat="42.6087844279" lon="-8.0929231457">
        <ele>637.01</ele>
        <time>2020-08-14T15:00:49Z</time>
      </trkpt>
      <trkpt lat="42.6087899599" lon="-8.0929068848">
        <ele>637.49</ele>
        <time>2020-08-14T15:01:04Z</time>
      </trkpt>
      <trkpt lat="42.6087820809" lon="-8.0929099862">
        <ele>636.53</ele>
        <time>2020-08-14T15:01:15Z</time>
      </trkpt>
      <trkpt lat="42.6087741181" lon="-8.0929444358">
        <ele>637.97</ele>
        <time>2020-08-14T15:01:33Z</time>
      </trkpt>
      <trkpt lat="42.6087536663" lon="-8.0929293483">
        <ele>638.93</ele>
        <time>2020-08-14T15:01:52Z</time>
      </trkpt>
      <trkpt lat="42.6087586954" lon="-8.0929285940">
        <ele>638.45</ele>
        <time>2020-08-14T15:02:03Z</time>
      </trkpt>
      <trkpt lat="42.6087540016" lon="-8.0929851718">
        <ele>637.01</ele>
        <time>2020-08-14T15:02:10Z</time>
      </trkpt>
      <trkpt lat="42.6087768003" lon="-8.0931759439">
        <ele>636.05</ele>
        <time>2020-08-14T15:02:16Z</time>
      </trkpt>
      <trkpt lat="42.6089085639" lon="-8.0935304146">
        <ele>634.13</ele>
        <time>2020-08-14T15:02:25Z</time>
      </trkpt>
      <trkpt lat="42.6091325283" lon="-8.0940379389">
        <ele>631.24</ele>
        <time>2020-08-14T15:02:37Z</time>
      </trkpt>
      <trkpt lat="42.6093196124" lon="-8.0945439544">
        <ele>628.84</ele>
        <time>2020-08-14T15:02:46Z</time>
      </trkpt>
      <trkpt lat="42.6094782818" lon="-8.0950588547">
        <ele>626.44</ele>
        <time>2020-08-14T15:02:55Z</time>
      </trkpt>
      <trkpt lat="42.6095324289" lon="-8.0952269956">
        <ele>625.47</ele>
        <time>2020-08-14T15:02:58Z</time>
      </trkpt>
      <trkpt lat="42.6096062735" lon="-8.0957860686">
        <ele>621.63</ele>
        <time>2020-08-14T15:03:07Z</time>
      </trkpt>
      <trkpt lat="42.6096491050" lon="-8.0963615701">
        <ele>619.71</ele>
        <time>2020-08-14T15:03:16Z</time>
      </trkpt>
      <trkpt lat="42.6097291522" lon="-8.0967808329">
        <ele>616.82</ele>
        <time>2020-08-14T15:03:23Z</time>
      </trkpt>
      <trkpt lat="42.6097511128" lon="-8.0968281068">
        <ele>616.34</ele>
        <time>2020-08-14T15:03:24Z</time>
      </trkpt>
      <trkpt lat="42.6099113747" lon="-8.0971534923">
        <ele>612.50</ele>
        <time>2020-08-14T15:03:32Z</time>
      </trkpt>
      <trkpt lat="42.6098951977" lon="-8.0974254850">
        <ele>609.61</ele>
        <time>2020-08-14T15:03:39Z</time>
      </trkpt>
      <trkpt lat="42.6097784378" lon="-8.0977260601">
        <ele>606.73</ele>
        <time>2020-08-14T15:03:47Z</time>
      </trkpt>
      <trkpt lat="42.6096154097" lon="-8.0980730709">
        <ele>602.40</ele>
        <time>2020-08-14T15:03:56Z</time>
      </trkpt>
      <trkpt lat="42.6094212849" lon="-8.0983441416">
        <ele>599.04</ele>
        <time>2020-08-14T15:04:02Z</time>
      </trkpt>
      <trkpt lat="42.6091145910" lon="-8.0987541843">
        <ele>593.75</ele>
        <time>2020-08-14T15:04:11Z</time>
      </trkpt>
      <trkpt lat="42.6087654009" lon="-8.0991952401">
        <ele>587.98</ele>
        <time>2020-08-14T15:04:20Z</time>
      </trkpt>
      <trkpt lat="42.6085096691" lon="-8.0994613655">
        <ele>585.58</ele>
        <time>2020-08-14T15:04:26Z</time>
      </trkpt>
      <trkpt lat="42.6083253510" lon="-8.0996507127">
        <ele>582.70</ele>
        <time>2020-08-14T15:04:31Z</time>
      </trkpt>
      <trkpt lat="42.6080142986" lon="-8.0998191051">
        <ele>579.33</ele>
        <time>2020-08-14T15:04:38Z</time>
      </trkpt>
      <trkpt lat="42.6077663619" lon="-8.0999004096">
        <ele>575.49</ele>
        <time>2020-08-14T15:04:44Z</time>
      </trkpt>
      <trkpt lat="42.6076826267" lon="-8.0999366194">
        <ele>574.53</ele>
        <time>2020-08-14T15:04:46Z</time>
      </trkpt>
      <trkpt lat="42.6076128054" lon="-8.0999857374">
        <ele>574.04</ele>
        <time>2020-08-14T15:04:48Z</time>
      </trkpt>
      <trkpt lat="42.6075808704" lon="-8.1000216119">
        <ele>573.08</ele>
        <time>2020-08-14T15:04:49Z</time>
      </trkpt>
      <trkpt lat="42.6075408049" lon="-8.1000946183">
        <ele>572.60</ele>
        <time>2020-08-14T15:04:51Z</time>
      </trkpt>
      <trkpt lat="42.6075040083" lon="-8.1002247892">
        <ele>571.64</ele>
        <time>2020-08-14T15:04:52Z</time>
      </trkpt>
      <trkpt lat="42.6074959617" lon="-8.1002833787">
        <ele>571.16</ele>
        <time>2020-08-14T15:04:53Z</time>
      </trkpt>
      <trkpt lat="42.6074822992" lon="-8.1003718916">
        <ele>570.68</ele>
        <time>2020-08-14T15:04:54Z</time>
      </trkpt>
      <trkpt lat="42.6074668765" lon="-8.1004811917">
        <ele>570.20</ele>
        <time>2020-08-14T15:04:56Z</time>
      </trkpt>
      <trkpt lat="42.6074624341" lon="-8.1005479116">
        <ele>569.72</ele>
        <time>2020-08-14T15:04:57Z</time>
      </trkpt>
      <trkpt lat="42.6074571535" lon="-8.1006184034">
        <ele>569.24</ele>
        <time>2020-08-14T15:04:58Z</time>
      </trkpt>
      <trkpt lat="42.6074486040" lon="-8.1006822735">
        <ele>568.76</ele>
        <time>2020-08-14T15:04:59Z</time>
      </trkpt>
      <trkpt lat="42.6074372046" lon="-8.1007443834">
        <ele>568.76</ele>
        <time>2020-08-14T15:05:00Z</time>
      </trkpt>
      <trkpt lat="42.6074222848" lon="-8.1008278672">
        <ele>568.28</ele>
        <time>2020-08-14T15:05:01Z</time>
      </trkpt>
      <trkpt lat="42.6073859073" lon="-8.1012109201">
        <ele>568.28</ele>
        <time>2020-08-14T15:05:09Z</time>
      </trkpt>
      <trkpt lat="42.6073772740" lon="-8.1013576034">
        <ele>568.76</ele>
        <time>2020-08-14T15:05:15Z</time>
      </trkpt>
      <trkpt lat="42.6073802914" lon="-8.1015563384">
        <ele>570.20</ele>
        <time>2020-08-14T15:05:23Z</time>
      </trkpt>
      <trkpt lat="42.6073697302" lon="-8.1017702445">
        <ele>571.16</ele>
        <time>2020-08-14T15:05:32Z</time>
      </trkpt>
      <trkpt lat="42.6073466800" lon="-8.1019836478">
        <ele>573.08</ele>
        <time>2020-08-14T15:05:41Z</time>
      </trkpt>
      <trkpt lat="42.6073001605" lon="-8.1021596678">
        <ele>576.45</ele>
        <time>2020-08-14T15:05:49Z</time>
      </trkpt>
      <trkpt lat="42.6072434988" lon="-8.1023584027">
        <ele>579.81</ele>
        <time>2020-08-14T15:05:58Z</time>
      </trkpt>
      <trkpt lat="42.6072159223" lon="-8.1024594884">
        <ele>581.73</ele>
        <time>2020-08-14T15:06:04Z</time>
      </trkpt>
      <trkpt lat="42.6071461849" lon="-8.1026737299">
        <ele>583.66</ele>
        <time>2020-08-14T15:06:13Z</time>
      </trkpt>
      <trkpt lat="42.6070753578" lon="-8.1029195711">
        <ele>584.14</ele>
        <time>2020-08-14T15:06:22Z</time>
      </trkpt>
      <trkpt lat="42.6069929637" lon="-8.1031585392">
        <ele>584.62</ele>
        <time>2020-08-14T15:06:32Z</time>
      </trkpt>
      <trkpt lat="42.6069207955" lon="-8.1033533346">
        <ele>583.66</ele>
        <time>2020-08-14T15:06:40Z</time>
      </trkpt>
      <trkpt lat="42.6067939773" lon="-8.1036875211">
        <ele>581.73</ele>
        <time>2020-08-14T15:06:49Z</time>
      </trkpt>
      <trkpt lat="42.6066348050" lon="-8.1041155010">
        <ele>578.85</ele>
        <time>2020-08-14T15:06:56Z</time>
      </trkpt>
      <trkpt lat="42.6064433623" lon="-8.1047107000">
        <ele>573.56</ele>
        <time>2020-08-14T15:07:04Z</time>
      </trkpt>
      <trkpt lat="42.6061989460" lon="-8.1052887160">
        <ele>568.28</ele>
        <time>2020-08-14T15:07:12Z</time>
      </trkpt>
      <trkpt lat="42.6059443876" lon="-8.1058995891">
        <ele>561.55</ele>
        <time>2020-08-14T15:07:20Z</time>
      </trkpt>
      <trkpt lat="42.6058224309" lon="-8.1063590851">
        <ele>554.82</ele>
        <time>2020-08-14T15:07:26Z</time>
      </trkpt>
      <trkpt lat="42.6058130432" lon="-8.1064190157">
        <ele>553.38</ele>
        <time>2020-08-14T15:07:29Z</time>
      </trkpt>
      <trkpt lat="42.6057956088" lon="-8.1064969674">
        <ele>551.93</ele>
        <time>2020-08-14T15:07:38Z</time>
      </trkpt>
      <trkpt lat="42.6057919208" lon="-8.1065258849">
        <ele>551.45</ele>
        <time>2020-08-14T15:07:42Z</time>
      </trkpt>
      <trkpt lat="42.6057489216" lon="-8.1066615880">
        <ele>550.49</ele>
        <time>2020-08-14T15:07:50Z</time>
      </trkpt>
      <trkpt lat="42.6056857221" lon="-8.1069849618">
        <ele>548.57</ele>
        <time>2020-08-14T15:07:55Z</time>
      </trkpt>
      <trkpt lat="42.6055635139" lon="-8.1075664982">
        <ele>545.20</ele>
        <time>2020-08-14T15:08:02Z</time>
      </trkpt>
      <trkpt lat="42.6054824609" lon="-8.1079979986">
        <ele>541.36</ele>
        <time>2020-08-14T15:08:07Z</time>
      </trkpt>
      <trkpt lat="42.6052859053" lon="-8.1087918486">
        <ele>536.55</ele>
        <time>2020-08-14T15:08:15Z</time>
      </trkpt>
      <trkpt lat="42.6052053552" lon="-8.1092013884">
        <ele>533.67</ele>
        <time>2020-08-14T15:08:20Z</time>
      </trkpt>
      <trkpt lat="42.6052021701" lon="-8.1092655100">
        <ele>533.19</ele>
        <time>2020-08-14T15:08:21Z</time>
      </trkpt>
      <trkpt lat="42.6052034274" lon="-8.1093877181">
        <ele>532.23</ele>
        <time>2020-08-14T15:08:23Z</time>
      </trkpt>
      <trkpt lat="42.6052563172" lon="-8.1097436976">
        <ele>528.86</ele>
        <time>2020-08-14T15:08:28Z</time>
      </trkpt>
      <trkpt lat="42.6054122206" lon="-8.1102761999">
        <ele>524.54</ele>
        <time>2020-08-14T15:08:35Z</time>
      </trkpt>
      <trkpt lat="42.6055309083" lon="-8.1108027510">
        <ele>521.17</ele>
        <time>2020-08-14T15:08:41Z</time>
      </trkpt>
      <trkpt lat="42.6055567246" lon="-8.1109265517">
        <ele>520.21</ele>
        <time>2020-08-14T15:08:43Z</time>
      </trkpt>
      <trkpt lat="42.6056127995" lon="-8.1112651806">
        <ele>516.85</ele>
        <time>2020-08-14T15:08:49Z</time>
      </trkpt>
      <trkpt lat="42.6056915894" lon="-8.1116561964">
        <ele>514.44</ele>
        <time>2020-08-14T15:08:55Z</time>
      </trkpt>
      <trkpt lat="42.6057538670" lon="-8.1119425222">
        <ele>510.60</ele>
        <time>2020-08-14T15:09:01Z</time>
      </trkpt>
      <trkpt lat="42.6058179047" lon="-8.1122577656">
        <ele>509.16</ele>
        <time>2020-08-14T15:09:07Z</time>
      </trkpt>
      <trkpt lat="42.6059631631" lon="-8.1126437522">
        <ele>510.12</ele>
        <time>2020-08-14T15:09:15Z</time>
      </trkpt>
      <trkpt lat="42.6060159691" lon="-8.1127353664">
        <ele>510.12</ele>
        <time>2020-08-14T15:09:18Z</time>
      </trkpt>
      <trkpt lat="42.6060485747" lon="-8.1127469335">
        <ele>510.12</ele>
        <time>2020-08-14T15:09:19Z</time>
      </trkpt>
      <trkpt lat="42.6060785819" lon="-8.1127448380">
        <ele>510.12</ele>
        <time>2020-08-14T15:09:20Z</time>
      </trkpt>
      <trkpt lat="42.6061612274" lon="-8.1127303373">
        <ele>510.12</ele>
        <time>2020-08-14T15:09:22Z</time>
      </trkpt>
      <trkpt lat="42.6063639019" lon="-8.1126859132">
        <ele>509.64</ele>
        <time>2020-08-14T15:09:26Z</time>
      </trkpt>
      <trkpt lat="42.6067259163" lon="-8.1124778744">
        <ele>509.64</ele>
        <time>2020-08-14T15:09:32Z</time>
      </trkpt>
      <trkpt lat="42.6070942171" lon="-8.1120902952">
        <ele>511.08</ele>
        <time>2020-08-14T15:09:38Z</time>
      </trkpt>
      <trkpt lat="42.6077036653" lon="-8.1113660149">
        <ele>507.23</ele>
        <time>2020-08-14T15:09:47Z</time>
      </trkpt>
      <trkpt lat="42.6083033066" lon="-8.1107096281">
        <ele>502.43</ele>
        <time>2020-08-14T15:09:55Z</time>
      </trkpt>
      <trkpt lat="42.6088441070" lon="-8.1104196142">
        <ele>498.10</ele>
        <time>2020-08-14T15:10:01Z</time>
      </trkpt>
      <trkpt lat="42.6092819776" lon="-8.1103899423">
        <ele>496.66</ele>
        <time>2020-08-14T15:10:06Z</time>
      </trkpt>
      <trkpt lat="42.6097018272" lon="-8.1105223764">
        <ele>496.66</ele>
        <time>2020-08-14T15:10:12Z</time>
      </trkpt>
      <trkpt lat="42.6099057589" lon="-8.1106478535">
        <ele>498.58</ele>
        <time>2020-08-14T15:10:17Z</time>
      </trkpt>
      <trkpt lat="42.6100382768" lon="-8.1107429042">
        <ele>500.50</ele>
        <time>2020-08-14T15:10:23Z</time>
      </trkpt>
      <trkpt lat="42.6102039870" lon="-8.1109090336">
        <ele>502.43</ele>
        <time>2020-08-14T15:10:32Z</time>
      </trkpt>
      <trkpt lat="42.6103619020" lon="-8.1111073494">
        <ele>502.91</ele>
        <time>2020-08-14T15:10:43Z</time>
      </trkpt>
      <trkpt lat="42.6104768179" lon="-8.1112945173">
        <ele>504.35</ele>
        <time>2020-08-14T15:10:53Z</time>
      </trkpt>
      <trkpt lat="42.6105941646" lon="-8.1115582958">
        <ele>505.79</ele>
        <time>2020-08-14T15:11:05Z</time>
      </trkpt>
      <trkpt lat="42.6106706914" lon="-8.1117525045">
        <ele>507.23</ele>
        <time>2020-08-14T15:11:14Z</time>
      </trkpt>
      <trkpt lat="42.6107531693" lon="-8.1120053865">
        <ele>508.19</ele>
        <time>2020-08-14T15:11:25Z</time>
      </trkpt>
      <trkpt lat="42.6108196378" lon="-8.1122004334">
        <ele>509.16</ele>
        <time>2020-08-14T15:11:34Z</time>
      </trkpt>
      <trkpt lat="42.6108944044" lon="-8.1124158483">
        <ele>509.16</ele>
        <time>2020-08-14T15:11:44Z</time>
      </trkpt>
      <trkpt lat="42.6109554246" lon="-8.1125875935">
        <ele>510.12</ele>
        <time>2020-08-14T15:11:52Z</time>
      </trkpt>
      <trkpt lat="42.6110121701" lon="-8.1127934530">
        <ele>511.56</ele>
        <time>2020-08-14T15:12:01Z</time>
      </trkpt>
      <trkpt lat="42.6110772975" lon="-8.1129680481">
        <ele>512.52</ele>
        <time>2020-08-14T15:12:09Z</time>
      </trkpt>
      <trkpt lat="42.6111530699" lon="-8.1131308246">
        <ele>513.48</ele>
        <time>2020-08-14T15:12:17Z</time>
      </trkpt>
      <trkpt lat="42.6111963205" lon="-8.1132281385">
        <ele>515.40</ele>
        <time>2020-08-14T15:12:25Z</time>
      </trkpt>
      <trkpt lat="42.6111973263" lon="-8.1132312398">
        <ele>515.40</ele>
        <time>2020-08-14T15:12:37Z</time>
      </trkpt>
      <trkpt lat="42.6112379786" lon="-8.1133009773">
        <ele>516.37</ele>
        <time>2020-08-14T15:12:43Z</time>
      </trkpt>
      <trkpt lat="42.6113360468" lon="-8.1134222634">
        <ele>516.85</ele>
        <time>2020-08-14T15:12:51Z</time>
      </trkpt>
      <trkpt lat="42.6114389766" lon="-8.1135097705">
        <ele>518.77</ele>
        <time>2020-08-14T15:12:58Z</time>
      </trkpt>
      <trkpt lat="42.6116272341" lon="-8.1136137061">
        <ele>521.17</ele>
        <time>2020-08-14T15:13:10Z</time>
      </trkpt>
      <trkpt lat="42.6116397232" lon="-8.1136185676">
        <ele>521.65</ele>
        <time>2020-08-14T15:13:11Z</time>
      </trkpt>
      <trkpt lat="42.6117961295" lon="-8.1136465631">
        <ele>523.09</ele>
        <time>2020-08-14T15:13:20Z</time>
      </trkpt>
      <trkpt lat="42.6119268034" lon="-8.1136553641">
        <ele>524.54</ele>
        <time>2020-08-14T15:13:28Z</time>
      </trkpt>
      <trkpt lat="42.6120841317" lon="-8.1136120297">
        <ele>526.46</ele>
        <time>2020-08-14T15:13:38Z</time>
      </trkpt>
      <trkpt lat="42.6122289710" lon="-8.1135380175">
        <ele>527.90</ele>
        <time>2020-08-14T15:13:47Z</time>
      </trkpt>
      <trkpt lat="42.6123531070" lon="-8.1134298071">
        <ele>528.38</ele>
        <time>2020-08-14T15:13:55Z</time>
      </trkpt>
      <trkpt lat="42.6124644186" lon="-8.1133173220">
        <ele>529.34</ele>
        <time>2020-08-14T15:14:03Z</time>
      </trkpt>
      <trkpt lat="42.6125581283" lon="-8.1132241152">
        <ele>529.34</ele>
        <time>2020-08-14T15:14:10Z</time>
      </trkpt>
      <trkpt lat="42.6126654167" lon="-8.1130925193">
        <ele>529.82</ele>
        <time>2020-08-14T15:14:19Z</time>
      </trkpt>
      <trkpt lat="42.6127737109" lon="-8.1129703950">
        <ele>529.82</ele>
        <time>2020-08-14T15:14:28Z</time>
      </trkpt>
      <trkpt lat="42.6128823403" lon="-8.1128676329">
        <ele>530.79</ele>
        <time>2020-08-14T15:14:37Z</time>
      </trkpt>
      <trkpt lat="42.6130364835" lon="-8.1127253082">
        <ele>532.71</ele>
        <time>2020-08-14T15:14:48Z</time>
      </trkpt>
      <trkpt lat="42.6131695043" lon="-8.1126377173">
        <ele>534.63</ele>
        <time>2020-08-14T15:14:57Z</time>
      </trkpt>
      <trkpt lat="42.6131834183" lon="-8.1126270723">
        <ele>534.63</ele>
        <time>2020-08-14T15:14:58Z</time>
      </trkpt>
      <trkpt lat="42.6133350469" lon="-8.1125502102">
        <ele>536.55</ele>
        <time>2020-08-14T15:15:08Z</time>
      </trkpt>
      <trkpt lat="42.6134815626" lon="-8.1124998350">
        <ele>537.51</ele>
        <time>2020-08-14T15:15:17Z</time>
      </trkpt>
      <trkpt lat="42.6136468537" lon="-8.1124726776">
        <ele>538.48</ele>
        <time>2020-08-14T15:15:27Z</time>
      </trkpt>
      <trkpt lat="42.6137753483" lon="-8.1124801375">
        <ele>539.44</ele>
        <time>2020-08-14T15:15:35Z</time>
      </trkpt>
      <trkpt lat="42.6139134821" lon="-8.1125055347">
        <ele>540.40</ele>
        <time>2020-08-14T15:15:44Z</time>
      </trkpt>
      <trkpt lat="42.6140711457" lon="-8.1125577539">
        <ele>541.36</ele>
        <time>2020-08-14T15:15:54Z</time>
      </trkpt>
      <trkpt lat="42.6141844690" lon="-8.1126008369">
        <ele>542.32</ele>
        <time>2020-08-14T15:16:02Z</time>
      </trkpt>
      <trkpt lat="42.6143226027" lon="-8.1126701552">
        <ele>544.72</ele>
        <time>2020-08-14T15:16:12Z</time>
      </trkpt>
      <trkpt lat="42.6144111995" lon="-8.1127287447">
        <ele>545.69</ele>
        <time>2020-08-14T15:16:19Z</time>
      </trkpt>
      <trkpt lat="42.6145300549" lon="-8.1128325127">
        <ele>546.17</ele>
        <time>2020-08-14T15:16:28Z</time>
      </trkpt>
      <trkpt lat="42.6146540232" lon="-8.1129577383">
        <ele>548.09</ele>
        <time>2020-08-14T15:16:37Z</time>
      </trkpt>
      <trkpt lat="42.6147707831" lon="-8.1131148152">
        <ele>549.53</ele>
        <time>2020-08-14T15:16:46Z</time>
      </trkpt>
      <trkpt lat="42.6148312166" lon="-8.1132027414">
        <ele>550.01</ele>
        <time>2020-08-14T15:16:53Z</time>
      </trkpt>
      <trkpt lat="42.6149119344" lon="-8.1133181602">
        <ele>550.97</ele>
        <time>2020-08-14T15:17:01Z</time>
      </trkpt>
      <trkpt lat="42.6149896346" lon="-8.1134702917">
        <ele>551.93</ele>
        <time>2020-08-14T15:17:09Z</time>
      </trkpt>
      <trkpt lat="42.6150017884" lon="-8.1134875584">
        <ele>551.93</ele>
        <time>2020-08-14T15:17:10Z</time>
      </trkpt>
      <trkpt lat="42.6150154509" lon="-8.1135005504">
        <ele>551.93</ele>
        <time>2020-08-14T15:17:11Z</time>
      </trkpt>
      <trkpt lat="42.6150264312" lon="-8.1135145482">
        <ele>552.41</ele>
        <time>2020-08-14T15:17:12Z</time>
      </trkpt>
      <trkpt lat="42.6150357351" lon="-8.1135329045">
        <ele>552.41</ele>
        <time>2020-08-14T15:17:13Z</time>
      </trkpt>
      <trkpt lat="42.6150438655" lon="-8.1135552004">
        <ele>552.90</ele>
        <time>2020-08-14T15:17:14Z</time>
      </trkpt>
      <trkpt lat="42.6151472982" lon="-8.1137220003">
        <ele>553.86</ele>
        <time>2020-08-14T15:17:23Z</time>
      </trkpt>
      <trkpt lat="42.6152255852" lon="-8.1138709467">
        <ele>553.86</ele>
        <time>2020-08-14T15:17:31Z</time>
      </trkpt>
      <trkpt lat="42.6152798999" lon="-8.1139513291">
        <ele>555.30</ele>
        <time>2020-08-14T15:17:38Z</time>
      </trkpt>
      <trkpt lat="42.6152862702" lon="-8.1139704399">
        <ele>556.74</ele>
        <time>2020-08-14T15:17:53Z</time>
      </trkpt>
      <trkpt lat="42.6152786426" lon="-8.1139641535">
        <ele>556.26</ele>
        <time>2020-08-14T15:18:07Z</time>
      </trkpt>
      <trkpt lat="42.6152873598" lon="-8.1139540952">
        <ele>558.18</ele>
        <time>2020-08-14T15:18:21Z</time>
      </trkpt>
      <trkpt lat="42.6152994297" lon="-8.1139790732">
        <ele>558.66</ele>
        <time>2020-08-14T15:18:28Z</time>
      </trkpt>
      <trkpt lat="42.6153083984" lon="-8.1139935739">
        <ele>558.66</ele>
        <time>2020-08-14T15:18:29Z</time>
      </trkpt>
      <trkpt lat="42.6153993420" lon="-8.1141326297">
        <ele>558.66</ele>
        <time>2020-08-14T15:18:37Z</time>
      </trkpt>
      <trkpt lat="42.6154934708" lon="-8.1142930593">
        <ele>560.59</ele>
        <time>2020-08-14T15:18:46Z</time>
      </trkpt>
      <trkpt lat="42.6155780442" lon="-8.1144707557">
        <ele>561.55</ele>
        <time>2020-08-14T15:18:56Z</time>
      </trkpt>
      <trkpt lat="42.6156462729" lon="-8.1146058720">
        <ele>562.51</ele>
        <time>2020-08-14T15:19:04Z</time>
      </trkpt>
      <trkpt lat="42.6156783756" lon="-8.1146702450">
        <ele>562.51</ele>
        <time>2020-08-14T15:19:08Z</time>
      </trkpt>
      <trkpt lat="42.6156849973" lon="-8.1146856677">
        <ele>562.51</ele>
        <time>2020-08-14T15:19:09Z</time>
      </trkpt>
      <trkpt lat="42.6156952232" lon="-8.1146990787">
        <ele>562.51</ele>
        <time>2020-08-14T15:19:10Z</time>
      </trkpt>
      <trkpt lat="42.6157036889" lon="-8.1147110648">
        <ele>562.51</ele>
        <time>2020-08-14T15:19:11Z</time>
      </trkpt>
      <trkpt lat="42.6157126576" lon="-8.1147332769">
        <ele>563.47</ele>
        <time>2020-08-14T15:19:17Z</time>
      </trkpt>
      <trkpt lat="42.6157977339" lon="-8.1148921978">
        <ele>563.95</ele>
        <time>2020-08-14T15:19:29Z</time>
      </trkpt>
      <trkpt lat="42.6158699859" lon="-8.1150258053">
        <ele>565.87</ele>
        <time>2020-08-14T15:19:39Z</time>
      </trkpt>
      <trkpt lat="42.6159733348" lon="-8.1151793618">
        <ele>568.76</ele>
        <time>2020-08-14T15:19:51Z</time>
      </trkpt>
      <trkpt lat="42.6160843112" lon="-8.1153558008">
        <ele>568.28</ele>
        <time>2020-08-14T15:20:04Z</time>
      </trkpt>
      <trkpt lat="42.6161643583" lon="-8.1154928450">
        <ele>569.24</ele>
        <time>2020-08-14T15:20:14Z</time>
      </trkpt>
      <trkpt lat="42.6162679587" lon="-8.1156716309">
        <ele>570.68</ele>
        <time>2020-08-14T15:20:27Z</time>
      </trkpt>
      <trkpt lat="42.6163931843" lon="-8.1159021333">
        <ele>572.12</ele>
        <time>2020-08-14T15:20:43Z</time>
      </trkpt>
      <trkpt lat="42.6164765004" lon="-8.1160535943">
        <ele>573.56</ele>
        <time>2020-08-14T15:20:54Z</time>
      </trkpt>
      <trkpt lat="42.6165704615" lon="-8.1162159517">
        <ele>574.53</ele>
        <time>2020-08-14T15:21:06Z</time>
      </trkpt>
      <trkpt lat="42.6166795939" lon="-8.1164029520">
        <ele>576.45</ele>
        <time>2020-08-14T15:21:20Z</time>
      </trkpt>
      <trkpt lat="42.6167915761" lon="-8.1165805645">
        <ele>578.37</ele>
        <time>2020-08-14T15:21:34Z</time>
      </trkpt>
      <trkpt lat="42.6169127785" lon="-8.1167249009">
        <ele>579.33</ele>
        <time>2020-08-14T15:21:47Z</time>
      </trkpt>
      <trkpt lat="42.6170276944" lon="-8.1168529764">
        <ele>580.29</ele>
        <time>2020-08-14T15:22:00Z</time>
      </trkpt>
      <trkpt lat="42.6170438714" lon="-8.1168613583">
        <ele>581.25</ele>
        <time>2020-08-14T15:22:07Z</time>
      </trkpt>
      <trkpt lat="42.6170887146" lon="-8.1169082969">
        <ele>582.22</ele>
        <time>2020-08-14T15:22:14Z</time>
      </trkpt>
      <trkpt lat="42.6172943227" lon="-8.1170502026">
        <ele>583.66</ele>
        <time>2020-08-14T15:22:25Z</time>
      </trkpt>
      <trkpt lat="42.6175464503" lon="-8.1171517074">
        <ele>585.10</ele>
        <time>2020-08-14T15:22:37Z</time>
      </trkpt>
      <trkpt lat="42.6178143360" lon="-8.1171968859">
        <ele>586.06</ele>
        <time>2020-08-14T15:22:49Z</time>
      </trkpt>
      <trkpt lat="42.6180224586" lon="-8.1172241271">
        <ele>586.54</ele>
        <time>2020-08-14T15:22:58Z</time>
      </trkpt>
      <trkpt lat="42.6180975605" lon="-8.1173707265">
        <ele>585.10</ele>
        <time>2020-08-14T15:23:05Z</time>
      </trkpt>
      <trkpt lat="42.6182621811" lon="-8.1177956052">
        <ele>581.25</ele>
        <time>2020-08-14T15:23:12Z</time>
      </trkpt>
      <trkpt lat="42.6182874106" lon="-8.1178456452">
        <ele>580.29</ele>
        <time>2020-08-14T15:23:13Z</time>
      </trkpt>
      <trkpt lat="42.6183093712" lon="-8.1178927515">
        <ele>579.81</ele>
        <time>2020-08-14T15:23:14Z</time>
      </trkpt>
      <trkpt lat="42.6184097864" lon="-8.1181901414">
        <ele>576.93</ele>
        <time>2020-08-14T15:23:21Z</time>
      </trkpt>
      <trkpt lat="42.6184261311" lon="-8.1183183007">
        <ele>576.93</ele>
        <time>2020-08-14T15:23:24Z</time>
      </trkpt>
      <trkpt lat="42.6184419729" lon="-8.1183587015">
        <ele>576.45</ele>
        <time>2020-08-14T15:23:25Z</time>
      </trkpt>
      <trkpt lat="42.6184610836" lon="-8.1183967553">
        <ele>576.93</ele>
        <time>2020-08-14T15:23:26Z</time>
      </trkpt>
      <trkpt lat="42.6186164841" lon="-8.1187855918">
        <ele>578.37</ele>
        <time>2020-08-14T15:23:35Z</time>
      </trkpt>
      <trkpt lat="42.6186841261" lon="-8.1191930361">
        <ele>577.41</ele>
        <time>2020-08-14T15:23:42Z</time>
      </trkpt>
      <trkpt lat="42.6187022310" lon="-8.1192451715">
        <ele>577.41</ele>
        <time>2020-08-14T15:23:43Z</time>
      </trkpt>
      <trkpt lat="42.6187261194" lon="-8.1192942057">
        <ele>576.93</ele>
        <time>2020-08-14T15:23:44Z</time>
      </trkpt>
      <trkpt lat="42.6189407799" lon="-8.1196240336">
        <ele>573.56</ele>
        <time>2020-08-14T15:23:52Z</time>
      </trkpt>
      <trkpt lat="42.6189961005" lon="-8.1199245248">
        <ele>569.72</ele>
        <time>2020-08-14T15:23:58Z</time>
      </trkpt>
      <trkpt lat="42.6190572884" lon="-8.1200722978">
        <ele>568.28</ele>
        <time>2020-08-14T15:24:02Z</time>
      </trkpt>
      <trkpt lat="42.6192500722" lon="-8.1201835256">
        <ele>569.24</ele>
        <time>2020-08-14T15:24:10Z</time>
      </trkpt>
      <trkpt lat="42.6194095798" lon="-8.1202732958">
        <ele>570.20</ele>
        <time>2020-08-14T15:24:17Z</time>
      </trkpt>
      <trkpt lat="42.6196031179" lon="-8.1204353180">
        <ele>570.20</ele>
        <time>2020-08-14T15:24:25Z</time>
      </trkpt>
      <trkpt lat="42.6198023558" lon="-8.1206333824">
        <ele>569.24</ele>
        <time>2020-08-14T15:24:35Z</time>
      </trkpt>
      <trkpt lat="42.6199305989" lon="-8.1207733601">
        <ele>569.24</ele>
        <time>2020-08-14T15:24:42Z</time>
      </trkpt>
      <trkpt lat="42.6201052777" lon="-8.1209175289">
        <ele>567.80</ele>
        <time>2020-08-14T15:24:49Z</time>
      </trkpt>
      <trkpt lat="42.6203564834" lon="-8.1211202871">
        <ele>569.72</ele>
        <time>2020-08-14T15:24:59Z</time>
      </trkpt>
      <trkpt lat="42.6205826271" lon="-8.1213242188">
        <ele>571.16</ele>
        <time>2020-08-14T15:25:08Z</time>
      </trkpt>
      <trkpt lat="42.6208770834" lon="-8.1215965468">
        <ele>572.60</ele>
        <time>2020-08-14T15:25:20Z</time>
      </trkpt>
      <trkpt lat="42.6210784167" lon="-8.1217788532">
        <ele>572.12</ele>
        <time>2020-08-14T15:25:28Z</time>
      </trkpt>
      <trkpt lat="42.6212820131" lon="-8.1219445635">
        <ele>573.08</ele>
        <time>2020-08-14T15:25:36Z</time>
      </trkpt>
      <trkpt lat="42.6214346476" lon="-8.1220533606">
        <ele>573.08</ele>
        <time>2020-08-14T15:25:43Z</time>
      </trkpt>
      <trkpt lat="42.6215796545" lon="-8.1221183203">
        <ele>572.60</ele>
        <time>2020-08-14T15:25:48Z</time>
      </trkpt>
      <trkpt lat="42.6216789801" lon="-8.1221454777">
        <ele>572.60</ele>
        <time>2020-08-14T15:25:52Z</time>
      </trkpt>
      <trkpt lat="42.6218834985" lon="-8.1223354116">
        <ele>573.56</ele>
        <time>2020-08-14T15:25:59Z</time>
      </trkpt>
      <trkpt lat="42.6221519709" lon="-8.1226662453">
        <ele>575.49</ele>
        <time>2020-08-14T15:26:07Z</time>
      </trkpt>
      <trkpt lat="42.6224450022" lon="-8.1230371445">
        <ele>575.97</ele>
        <time>2020-08-14T15:26:15Z</time>
      </trkpt>
      <trkpt lat="42.6226937771" lon="-8.1233984046">
        <ele>575.97</ele>
        <time>2020-08-14T15:26:23Z</time>
      </trkpt>
      <trkpt lat="42.6228522789" lon="-8.1236219499">
        <ele>575.01</ele>
        <time>2020-08-14T15:26:28Z</time>
      </trkpt>
      <trkpt lat="42.6231532730" lon="-8.1239410490">
        <ele>574.53</ele>
        <time>2020-08-14T15:26:36Z</time>
      </trkpt>
      <trkpt lat="42.6233675983" lon="-8.1242557056">
        <ele>573.56</ele>
        <time>2020-08-14T15:26:44Z</time>
      </trkpt>
      <trkpt lat="42.6236038841" lon="-8.1245821808">
        <ele>571.64</ele>
        <time>2020-08-14T15:26:51Z</time>
      </trkpt>
      <trkpt lat="42.6236976776" lon="-8.1246757228">
        <ele>571.16</ele>
        <time>2020-08-14T15:26:53Z</time>
      </trkpt>
      <trkpt lat="42.6239576843" lon="-8.1249117572">
        <ele>569.24</ele>
        <time>2020-08-14T15:26:58Z</time>
      </trkpt>
      <trkpt lat="42.6240067184" lon="-8.1249783933">
        <ele>568.76</ele>
        <time>2020-08-14T15:26:59Z</time>
      </trkpt>
      <trkpt lat="42.6240657270" lon="-8.1250668224">
        <ele>567.80</ele>
        <time>2020-08-14T15:27:00Z</time>
      </trkpt>
      <trkpt lat="42.6243740134" lon="-8.1257221196">
        <ele>564.43</ele>
        <time>2020-08-14T15:27:07Z</time>
      </trkpt>
      <trkpt lat="42.6246606745" lon="-8.1266279519">
        <ele>559.62</ele>
        <time>2020-08-14T15:27:17Z</time>
      </trkpt>
      <trkpt lat="42.6248358563" lon="-8.1273508910">
        <ele>557.70</ele>
        <time>2020-08-14T15:27:26Z</time>
      </trkpt>
      <trkpt lat="42.6249633450" lon="-8.1279310025">
        <ele>557.22</ele>
        <time>2020-08-14T15:27:35Z</time>
      </trkpt>
      <trkpt lat="42.6250742376" lon="-8.1284427177">
        <ele>556.74</ele>
        <time>2020-08-14T15:27:43Z</time>
      </trkpt>
      <trkpt lat="42.6250911690" lon="-8.1284962781">
        <ele>556.74</ele>
        <time>2020-08-14T15:27:44Z</time>
      </trkpt>
      <trkpt lat="42.6252211723" lon="-8.1288421154">
        <ele>555.30</ele>
        <time>2020-08-14T15:27:52Z</time>
      </trkpt>
      <trkpt lat="42.6252552867" lon="-8.1289086677">
        <ele>554.34</ele>
        <time>2020-08-14T15:27:56Z</time>
      </trkpt>
      <trkpt lat="42.6252636686" lon="-8.1289452128">
        <ele>554.82</ele>
        <time>2020-08-14T15:28:08Z</time>
      </trkpt>
      <trkpt lat="42.6253284607" lon="-8.1291388348">
        <ele>555.78</ele>
        <time>2020-08-14T15:28:14Z</time>
      </trkpt>
      <trkpt lat="42.6254881360" lon="-8.1294886954">
        <ele>553.38</ele>
        <time>2020-08-14T15:28:22Z</time>
      </trkpt>
      <trkpt lat="42.6256343164" lon="-8.1298457645">
        <ele>553.38</ele>
        <time>2020-08-14T15:28:27Z</time>
      </trkpt>
      <trkpt lat="42.6257814188" lon="-8.1302452460">
        <ele>552.41</ele>
        <time>2020-08-14T15:28:32Z</time>
      </trkpt>
      <trkpt lat="42.6257948298" lon="-8.1302848086">
        <ele>551.93</ele>
        <time>2020-08-14T15:28:33Z</time>
      </trkpt>
      <trkpt lat="42.6258102525" lon="-8.1303261314">
        <ele>549.53</ele>
        <time>2020-08-14T15:28:38Z</time>
      </trkpt>
      <trkpt lat="42.6258159522" lon="-8.1303384528">
        <ele>551.93</ele>
        <time>2020-08-14T15:29:02Z</time>
      </trkpt>
      <trkpt lat="42.6258253399" lon="-8.1303610001">
        <ele>556.74</ele>
        <time>2020-08-14T15:29:27Z</time>
      </trkpt>
      <trkpt lat="42.6258436963" lon="-8.1304704677">
        <ele>555.78</ele>
        <time>2020-08-14T15:29:34Z</time>
      </trkpt>
      <trkpt lat="42.6258945744" lon="-8.1307440531">
        <ele>554.34</ele>
        <time>2020-08-14T15:29:40Z</time>
      </trkpt>
      <trkpt lat="42.6259931456" lon="-8.1310784910">
        <ele>552.41</ele>
        <time>2020-08-14T15:29:45Z</time>
      </trkpt>
      <trkpt lat="42.6262362208" lon="-8.1315902900">
        <ele>547.61</ele>
        <time>2020-08-14T15:29:52Z</time>
      </trkpt>
      <trkpt lat="42.6262652222" lon="-8.1316606980">
        <ele>546.65</ele>
        <time>2020-08-14T15:29:53Z</time>
      </trkpt>
      <trkpt lat="42.6265443396" lon="-8.1323564798">
        <ele>540.88</ele>
        <time>2020-08-14T15:30:02Z</time>
      </trkpt>
      <trkpt lat="42.6267595869" lon="-8.1327038258">
        <ele>539.44</ele>
        <time>2020-08-14T15:30:07Z</time>
      </trkpt>
      <trkpt lat="42.6268102974" lon="-8.1327552069">
        <ele>539.44</ele>
        <time>2020-08-14T15:30:08Z</time>
      </trkpt>
      <trkpt lat="42.6268636901" lon="-8.1327980384">
        <ele>539.44</ele>
        <time>2020-08-14T15:30:09Z</time>
      </trkpt>
      <trkpt lat="42.6272327453" lon="-8.1330651697">
        <ele>540.40</ele>
        <time>2020-08-14T15:30:17Z</time>
      </trkpt>
      <trkpt lat="42.6274269540" lon="-8.1332045607">
        <ele>543.28</ele>
        <time>2020-08-14T15:30:22Z</time>
      </trkpt>
      <trkpt lat="42.6274588052" lon="-8.1332376692">
        <ele>543.28</ele>
        <time>2020-08-14T15:30:23Z</time>
      </trkpt>
      <trkpt lat="42.6276126970" lon="-8.1334165391">
        <ele>544.24</ele>
        <time>2020-08-14T15:30:27Z</time>
      </trkpt>
      <trkpt lat="42.6277723722" lon="-8.1336617935">
        <ele>543.76</ele>
        <time>2020-08-14T15:30:32Z</time>
      </trkpt>
      <trkpt lat="42.6280245837" lon="-8.1341606844">
        <ele>543.28</ele>
        <time>2020-08-14T15:30:41Z</time>
      </trkpt>
      <trkpt lat="42.6281072292" lon="-8.1342758518">
        <ele>542.80</ele>
        <time>2020-08-14T15:30:43Z</time>
      </trkpt>
      <trkpt lat="42.6281546708" lon="-8.1343287416">
        <ele>542.80</ele>
        <time>2020-08-14T15:30:44Z</time>
      </trkpt>
      <trkpt lat="42.6285010949" lon="-8.1346957013">
        <ele>538.48</ele>
        <time>2020-08-14T15:30:51Z</time>
      </trkpt>
      <trkpt lat="42.6287820563" lon="-8.1350775808">
        <ele>533.67</ele>
        <time>2020-08-14T15:30:58Z</time>
      </trkpt>
      <trkpt lat="42.6288185176" lon="-8.1351639982">
        <ele>533.19</ele>
        <time>2020-08-14T15:30:59Z</time>
      </trkpt>
      <trkpt lat="42.6289791986" lon="-8.1355118472">
        <ele>531.27</ele>
        <time>2020-08-14T15:31:04Z</time>
      </trkpt>
      <trkpt lat="42.6290787756" lon="-8.1356588658">
        <ele>529.82</ele>
        <time>2020-08-14T15:31:06Z</time>
      </trkpt>
      <trkpt lat="42.6294331625" lon="-8.1360483728">
        <ele>528.86</ele>
        <time>2020-08-14T15:31:14Z</time>
      </trkpt>
      <trkpt lat="42.6297449693" lon="-8.1362595968">
        <ele>528.86</ele>
        <time>2020-08-14T15:31:20Z</time>
      </trkpt>
      <trkpt lat="42.6298032235" lon="-8.1362784561">
        <ele>528.86</ele>
        <time>2020-08-14T15:31:21Z</time>
      </trkpt>
      <trkpt lat="42.6298617292" lon="-8.1362909451">
        <ele>528.38</ele>
        <time>2020-08-14T15:31:22Z</time>
      </trkpt>
      <trkpt lat="42.6304236520" lon="-8.1363129057">
        <ele>527.90</ele>
        <time>2020-08-14T15:31:31Z</time>
      </trkpt>
      <trkpt lat="42.6309911069" lon="-8.1362373848">
        <ele>525.98</ele>
        <time>2020-08-14T15:31:39Z</time>
      </trkpt>
      <trkpt lat="42.6311515365" lon="-8.1362708285">
        <ele>524.54</ele>
        <time>2020-08-14T15:31:41Z</time>
      </trkpt>
      <trkpt lat="42.6312264707" lon="-8.1363033503">
        <ele>524.06</ele>
        <time>2020-08-14T15:31:42Z</time>
      </trkpt>
      <trkpt lat="42.6313078590" lon="-8.1363509595">
        <ele>523.58</ele>
        <time>2020-08-14T15:31:43Z</time>
      </trkpt>
      <trkpt lat="42.6313851401" lon="-8.1364101358">
        <ele>523.09</ele>
        <time>2020-08-14T15:31:44Z</time>
      </trkpt>
      <trkpt lat="42.6316938456" lon="-8.1367309112">
        <ele>520.69</ele>
        <time>2020-08-14T15:31:48Z</time>
      </trkpt>
      <trkpt lat="42.6322950795" lon="-8.1373022217">
        <ele>514.44</ele>
        <time>2020-08-14T15:31:55Z</time>
      </trkpt>
      <trkpt lat="42.6327233948" lon="-8.1376486458">
        <ele>508.67</ele>
        <time>2020-08-14T15:32:02Z</time>
      </trkpt>
      <trkpt lat="42.6328567509" lon="-8.1378674973">
        <ele>505.79</ele>
        <time>2020-08-14T15:32:05Z</time>
      </trkpt>
      <trkpt lat="42.6328991633" lon="-8.1379537471">
        <ele>505.31</ele>
        <time>2020-08-14T15:32:06Z</time>
      </trkpt>
      <trkpt lat="42.6331295818" lon="-8.1383963116">
        <ele>500.50</ele>
        <time>2020-08-14T15:32:11Z</time>
      </trkpt>
      <trkpt lat="42.6333129779" lon="-8.1387456693">
        <ele>494.26</ele>
        <time>2020-08-14T15:32:17Z</time>
      </trkpt>
      <trkpt lat="42.6334266365" lon="-8.1389713939">
        <ele>489.93</ele>
        <time>2020-08-14T15:32:24Z</time>
      </trkpt>
      <trkpt lat="42.6334071066" lon="-8.1391847972">
        <ele>488.97</ele>
        <time>2020-08-14T15:32:28Z</time>
      </trkpt>
      <trkpt lat="42.6333968807" lon="-8.1392174866">
        <ele>488.97</ele>
        <time>2020-08-14T15:32:29Z</time>
      </trkpt>
      <trkpt lat="42.6333091222" lon="-8.1395323947">
        <ele>487.05</ele>
        <time>2020-08-14T15:32:34Z</time>
      </trkpt>
      <trkpt lat="42.6332936157" lon="-8.1396142021">
        <ele>486.56</ele>
        <time>2020-08-14T15:32:35Z</time>
      </trkpt>
      <trkpt lat="42.6332812104" lon="-8.1404969003">
        <ele>485.12</ele>
        <time>2020-08-14T15:32:48Z</time>
      </trkpt>
      <trkpt lat="42.6333530433" lon="-8.1407569069">
        <ele>486.08</ele>
        <time>2020-08-14T15:32:54Z</time>
      </trkpt>
      <trkpt lat="42.6334311627" lon="-8.1411478389">
        <ele>486.08</ele>
        <time>2020-08-14T15:33:02Z</time>
      </trkpt>
      <trkpt lat="42.6335445698" lon="-8.1416401919">
        <ele>486.08</ele>
        <time>2020-08-14T15:33:13Z</time>
      </trkpt>
      <trkpt lat="42.6335409656" lon="-8.1418077461">
        <ele>486.56</ele>
        <time>2020-08-14T15:33:20Z</time>
      </trkpt>
      <trkpt lat="42.6334811188" lon="-8.1418341491">
        <ele>486.08</ele>
        <time>2020-08-14T15:33:26Z</time>
      </trkpt>
      <trkpt lat="42.6334772632" lon="-8.1418346521">
        <ele>486.56</ele>
        <time>2020-08-14T15:33:35Z</time>
      </trkpt>
      <trkpt lat="42.6334765088" lon="-8.1418403517">
        <ele>486.56</ele>
        <time>2020-08-14T15:33:50Z</time>
      </trkpt>
      <trkpt lat="42.6334743295" lon="-8.1418451294">
        <ele>486.56</ele>
        <time>2020-08-14T15:34:03Z</time>
      </trkpt>
      <trkpt lat="42.6334654447" lon="-8.1418501586">
        <ele>487.53</ele>
        <time>2020-08-14T15:34:22Z</time>
      </trkpt>
      <trkpt lat="42.6334553864" lon="-8.1418496557">
        <ele>488.01</ele>
        <time>2020-08-14T15:34:40Z</time>
      </trkpt>
      <trkpt lat="42.6331574935" lon="-8.1405445933">
        <ele>506.75</ele>
        <time>2020-08-15T05:28:16Z</time>
      </trkpt>
      <trkpt lat="42.6331023406" lon="-8.1405909453">
        <ele>498.10</ele>
        <time>2020-08-15T05:28:29Z</time>
      </trkpt>
      <trkpt lat="42.6331096329" lon="-8.1405726727">
        <ele>494.74</ele>
        <time>2020-08-15T05:28:45Z</time>
      </trkpt>
      <trkpt lat="42.6331125665" lon="-8.1405595969">
        <ele>489.45</ele>
        <time>2020-08-15T05:29:05Z</time>
      </trkpt>
      <trkpt lat="42.6331214514" lon="-8.1405756064">
        <ele>489.93</ele>
        <time>2020-08-15T05:29:22Z</time>
      </trkpt>
      <trkpt lat="42.6331295818" lon="-8.1405580882">
        <ele>488.97</ele>
        <time>2020-08-15T05:29:32Z</time>
      </trkpt>
      <trkpt lat="42.6331455912" lon="-8.1405460183">
        <ele>488.49</ele>
        <time>2020-08-15T05:29:35Z</time>
      </trkpt>
      <trkpt lat="42.6332229562" lon="-8.1403972395">
        <ele>487.05</ele>
        <time>2020-08-15T05:29:44Z</time>
      </trkpt>
      <trkpt lat="42.6333271433" lon="-8.1401461177">
        <ele>486.08</ele>
        <time>2020-08-15T05:29:53Z</time>
      </trkpt>
      <trkpt lat="42.6333750878" lon="-8.1400921382">
        <ele>486.08</ele>
        <time>2020-08-15T05:29:56Z</time>
      </trkpt>
      <trkpt lat="42.6333960425" lon="-8.1400883663">
        <ele>486.08</ele>
        <time>2020-08-15T05:29:57Z</time>
      </trkpt>
      <trkpt lat="42.6334163267" lon="-8.1400903780">
        <ele>485.60</ele>
        <time>2020-08-15T05:29:58Z</time>
      </trkpt>
      <trkpt lat="42.6334288158" lon="-8.1400994305">
        <ele>485.60</ele>
        <time>2020-08-15T05:29:59Z</time>
      </trkpt>
      <trkpt lat="42.6334428973" lon="-8.1401197147">
        <ele>485.60</ele>
        <time>2020-08-15T05:30:00Z</time>
      </trkpt>
      <trkpt lat="42.6334595773" lon="-8.1401513983">
        <ele>485.12</ele>
        <time>2020-08-15T05:30:01Z</time>
      </trkpt>
      <trkpt lat="42.6335969567" lon="-8.1403238978">
        <ele>482.24</ele>
        <time>2020-08-15T05:30:06Z</time>
      </trkpt>
      <trkpt lat="42.6336373575" lon="-8.1403545756">
        <ele>481.76</ele>
        <time>2020-08-15T05:30:07Z</time>
      </trkpt>
      <trkpt lat="42.6339016389" lon="-8.1405316014">
        <ele>477.43</ele>
        <time>2020-08-15T05:30:13Z</time>
      </trkpt>
      <trkpt lat="42.6339457277" lon="-8.1405729242">
        <ele>476.95</ele>
        <time>2020-08-15T05:30:14Z</time>
      </trkpt>
      <trkpt lat="42.6339903194" lon="-8.1406252272">
        <ele>476.47</ele>
        <time>2020-08-15T05:30:15Z</time>
      </trkpt>
      <trkpt lat="42.6340318099" lon="-8.1406820565">
        <ele>475.99</ele>
        <time>2020-08-15T05:30:16Z</time>
      </trkpt>
      <trkpt lat="42.6340676006" lon="-8.1407412328">
        <ele>475.51</ele>
        <time>2020-08-15T05:30:17Z</time>
      </trkpt>
      <trkpt lat="42.6341013797" lon="-8.1408036780">
        <ele>474.55</ele>
        <time>2020-08-15T05:30:18Z</time>
      </trkpt>
      <trkpt lat="42.6342699397" lon="-8.1411242019">
        <ele>472.14</ele>
        <time>2020-08-15T05:30:23Z</time>
      </trkpt>
      <trkpt lat="42.6344991010" lon="-8.1413697917">
        <ele>470.22</ele>
        <time>2020-08-15T05:30:29Z</time>
      </trkpt>
      <trkpt lat="42.6345397532" lon="-8.1414019782">
        <ele>470.22</ele>
        <time>2020-08-15T05:30:30Z</time>
      </trkpt>
      <trkpt lat="42.6345757116" lon="-8.1414371822">
        <ele>470.22</ele>
        <time>2020-08-15T05:30:31Z</time>
      </trkpt>
      <trkpt lat="42.6346102450" lon="-8.1414742302">
        <ele>470.22</ele>
        <time>2020-08-15T05:30:32Z</time>
      </trkpt>
      <trkpt lat="42.6347326208" lon="-8.1416361686">
        <ele>471.66</ele>
        <time>2020-08-15T05:30:38Z</time>
      </trkpt>
      <trkpt lat="42.6348448545" lon="-8.1417349074">
        <ele>474.07</ele>
        <time>2020-08-15T05:30:44Z</time>
      </trkpt>
      <trkpt lat="42.6350159291" lon="-8.1418519188">
        <ele>476.47</ele>
        <time>2020-08-15T05:30:53Z</time>
      </trkpt>
      <trkpt lat="42.6351947151" lon="-8.1420318782">
        <ele>477.91</ele>
        <time>2020-08-15T05:31:02Z</time>
      </trkpt>
      <trkpt lat="42.6354553923" lon="-8.1422317866">
        <ele>478.39</ele>
        <time>2020-08-15T05:31:13Z</time>
      </trkpt>
      <trkpt lat="42.6356597431" lon="-8.1422636379">
        <ele>479.35</ele>
        <time>2020-08-15T05:31:21Z</time>
      </trkpt>
      <trkpt lat="42.6358357631" lon="-8.1422484666">
        <ele>479.35</ele>
        <time>2020-08-15T05:31:28Z</time>
      </trkpt>
      <trkpt lat="42.6360713784" lon="-8.1421866920">
        <ele>479.35</ele>
        <time>2020-08-15T05:31:38Z</time>
      </trkpt>
      <trkpt lat="42.6362997852" lon="-8.1420922279">
        <ele>479.84</ele>
        <time>2020-08-15T05:31:48Z</time>
      </trkpt>
      <trkpt lat="42.6365444530" lon="-8.1419550162">
        <ele>480.80</ele>
        <time>2020-08-15T05:31:59Z</time>
      </trkpt>
      <trkpt lat="42.6367587782" lon="-8.1418417767">
        <ele>482.24</ele>
        <time>2020-08-15T05:32:09Z</time>
      </trkpt>
      <trkpt lat="42.6370083913" lon="-8.1417364161">
        <ele>484.64</ele>
        <time>2020-08-15T05:32:20Z</time>
      </trkpt>
      <trkpt lat="42.6371600199" lon="-8.1416562013">
        <ele>486.08</ele>
        <time>2020-08-15T05:32:29Z</time>
      </trkpt>
      <trkpt lat="42.6373201143" lon="-8.1416605599">
        <ele>486.56</ele>
        <time>2020-08-15T05:32:38Z</time>
      </trkpt>
      <trkpt lat="42.6375038456" lon="-8.1416829396">
        <ele>487.05</ele>
        <time>2020-08-15T05:32:48Z</time>
      </trkpt>
      <trkpt lat="42.6376776025" lon="-8.1416960992">
        <ele>488.49</ele>
        <time>2020-08-15T05:32:58Z</time>
      </trkpt>
      <trkpt lat="42.6377846394" lon="-8.1417367514">
        <ele>488.97</ele>
        <time>2020-08-15T05:33:05Z</time>
      </trkpt>
      <trkpt lat="42.6378849708" lon="-8.1417297944">
        <ele>489.93</ele>
        <time>2020-08-15T05:33:12Z</time>
      </trkpt>
      <trkpt lat="42.6378952805" lon="-8.1417155452">
        <ele>489.93</ele>
        <time>2020-08-15T05:33:13Z</time>
      </trkpt>
      <trkpt lat="42.6379042491" lon="-8.1417023856">
        <ele>490.41</ele>
        <time>2020-08-15T05:33:14Z</time>
      </trkpt>
      <trkpt lat="42.6379143074" lon="-8.1416875497">
        <ele>490.89</ele>
        <time>2020-08-15T05:33:15Z</time>
      </trkpt>
      <trkpt lat="42.6379241981" lon="-8.1416728813">
        <ele>490.89</ele>
        <time>2020-08-15T05:33:16Z</time>
      </trkpt>
      <trkpt lat="42.6379335020" lon="-8.1416603923">
        <ele>491.37</ele>
        <time>2020-08-15T05:33:17Z</time>
      </trkpt>
      <trkpt lat="42.6380159799" lon="-8.1415208336">
        <ele>493.29</ele>
        <time>2020-08-15T05:33:25Z</time>
      </trkpt>
      <trkpt lat="42.6380751561" lon="-8.1413788442">
        <ele>495.22</ele>
        <time>2020-08-15T05:33:33Z</time>
      </trkpt>
      <trkpt lat="42.6380853821" lon="-8.1413669419">
        <ele>495.70</ele>
        <time>2020-08-15T05:33:34Z</time>
      </trkpt>
      <trkpt lat="42.6380954403" lon="-8.1413585600">
        <ele>495.70</ele>
        <time>2020-08-15T05:33:35Z</time>
      </trkpt>
      <trkpt lat="42.6381070912" lon="-8.1413425505">
        <ele>496.18</ele>
        <time>2020-08-15T05:33:41Z</time>
      </trkpt>
      <trkpt lat="42.6381006371" lon="-8.1413383596">
        <ele>496.66</ele>
        <time>2020-08-15T05:33:58Z</time>
      </trkpt>
      <trkpt lat="42.6381132938" lon="-8.1413202547">
        <ele>496.18</ele>
        <time>2020-08-15T05:34:12Z</time>
      </trkpt>
      <trkpt lat="42.6381212566" lon="-8.1413241103">
        <ele>497.14</ele>
        <time>2020-08-15T05:34:26Z</time>
      </trkpt>
      <trkpt lat="42.6382180676" lon="-8.1412275508">
        <ele>497.14</ele>
        <time>2020-08-15T05:34:32Z</time>
      </trkpt>
      <trkpt lat="42.6383500826" lon="-8.1410428975">
        <ele>497.62</ele>
        <time>2020-08-15T05:34:41Z</time>
      </trkpt>
      <trkpt lat="42.6384662557" lon="-8.1408196036">
        <ele>498.58</ele>
        <time>2020-08-15T05:34:50Z</time>
      </trkpt>
      <trkpt lat="42.6385898888" lon="-8.1405071262">
        <ele>498.10</ele>
        <time>2020-08-15T05:34:58Z</time>
      </trkpt>
      <trkpt lat="42.6387082413" lon="-8.1402312778">
        <ele>499.06</ele>
        <time>2020-08-15T05:35:06Z</time>
      </trkpt>
      <trkpt lat="42.6388186309" lon="-8.1400345545">
        <ele>499.54</ele>
        <time>2020-08-15T05:35:14Z</time>
      </trkpt>
      <trkpt lat="42.6389233209" lon="-8.1398692634">
        <ele>500.50</ele>
        <time>2020-08-15T05:35:23Z</time>
      </trkpt>
      <trkpt lat="42.6390752848" lon="-8.1397584546">
        <ele>502.43</ele>
        <time>2020-08-15T05:35:33Z</time>
      </trkpt>
      <trkpt lat="42.6392071322" lon="-8.1397492345">
        <ele>502.43</ele>
        <time>2020-08-15T05:35:41Z</time>
      </trkpt>
      <trkpt lat="42.6393382251" lon="-8.1398022082">
        <ele>503.39</ele>
        <time>2020-08-15T05:35:50Z</time>
      </trkpt>
      <trkpt lat="42.6394142490" lon="-8.1398604624">
        <ele>504.35</ele>
        <time>2020-08-15T05:35:57Z</time>
      </trkpt>
      <trkpt lat="42.6394942962" lon="-8.1399277691">
        <ele>505.79</ele>
        <time>2020-08-15T05:36:04Z</time>
      </trkpt>
      <trkpt lat="42.6395871677" lon="-8.1400645617">
        <ele>508.19</ele>
        <time>2020-08-15T05:36:13Z</time>
      </trkpt>
      <trkpt lat="42.6396834757" lon="-8.1402114965">
        <ele>510.60</ele>
        <time>2020-08-15T05:36:23Z</time>
      </trkpt>
      <trkpt lat="42.6398123056" lon="-8.1404254865">
        <ele>513.00</ele>
        <time>2020-08-15T05:36:37Z</time>
      </trkpt>
      <trkpt lat="42.6399021596" lon="-8.1405748520">
        <ele>514.44</ele>
        <time>2020-08-15T05:36:47Z</time>
      </trkpt>
      <trkpt lat="42.6399951149" lon="-8.1407073699">
        <ele>516.37</ele>
        <time>2020-08-15T05:36:56Z</time>
      </trkpt>
      <trkpt lat="42.6400910877" lon="-8.1408199389">
        <ele>518.29</ele>
        <time>2020-08-15T05:37:04Z</time>
      </trkpt>
      <trkpt lat="42.6401863899" lon="-8.1409237068">
        <ele>520.21</ele>
        <time>2020-08-15T05:37:12Z</time>
      </trkpt>
      <trkpt lat="42.6403126214" lon="-8.1410081964">
        <ele>521.65</ele>
        <time>2020-08-15T05:37:21Z</time>
      </trkpt>
      <trkpt lat="42.6403783355" lon="-8.1410542969">
        <ele>523.09</ele>
        <time>2020-08-15T05:37:28Z</time>
      </trkpt>
      <trkpt lat="42.6405064110" lon="-8.1411390379">
        <ele>525.02</ele>
        <time>2020-08-15T05:37:38Z</time>
      </trkpt>
      <trkpt lat="42.6406414434" lon="-8.1412312388">
        <ele>526.46</ele>
        <time>2020-08-15T05:37:49Z</time>
      </trkpt>
      <trkpt lat="42.6407634001" lon="-8.1413174048">
        <ele>528.38</ele>
        <time>2020-08-15T05:37:59Z</time>
      </trkpt>
      <trkpt lat="42.6408048067" lon="-8.1413575541">
        <ele>528.86</ele>
        <time>2020-08-15T05:38:03Z</time>
      </trkpt>
      <trkpt lat="42.6409005281" lon="-8.1414287165">
        <ele>529.82</ele>
        <time>2020-08-15T05:38:11Z</time>
      </trkpt>
      <trkpt lat="42.6409655716" lon="-8.1414873060">
        <ele>529.82</ele>
        <time>2020-08-15T05:38:17Z</time>
      </trkpt>
      <trkpt lat="42.6409741212" lon="-8.1414994597">
        <ele>529.82</ele>
        <time>2020-08-15T05:38:18Z</time>
      </trkpt>
      <trkpt lat="42.6410936471" lon="-8.1416034792">
        <ele>530.79</ele>
        <time>2020-08-15T05:38:29Z</time>
      </trkpt>
      <trkpt lat="42.6412132569" lon="-8.1417038105">
        <ele>531.27</ele>
        <time>2020-08-15T05:38:40Z</time>
      </trkpt>
      <trkpt lat="42.6413123310" lon="-8.1417901441">
        <ele>533.19</ele>
        <time>2020-08-15T05:38:49Z</time>
      </trkpt>
      <trkpt lat="42.6414159313" lon="-8.1418913137">
        <ele>535.11</ele>
        <time>2020-08-15T05:38:59Z</time>
      </trkpt>
      <trkpt lat="42.6415279973" lon="-8.1420017034">
        <ele>536.07</ele>
        <time>2020-08-15T05:39:09Z</time>
      </trkpt>
      <trkpt lat="42.6416593418" lon="-8.1421295274">
        <ele>537.03</ele>
        <time>2020-08-15T05:39:20Z</time>
      </trkpt>
      <trkpt lat="42.6417686418" lon="-8.1422370672">
        <ele>537.99</ele>
        <time>2020-08-15T05:39:29Z</time>
      </trkpt>
      <trkpt lat="42.6418982260" lon="-8.1423800625">
        <ele>538.48</ele>
        <time>2020-08-15T05:39:40Z</time>
      </trkpt>
      <trkpt lat="42.6420438197" lon="-8.1425420009">
        <ele>537.51</ele>
        <time>2020-08-15T05:39:49Z</time>
      </trkpt>
      <trkpt lat="42.6422547922" lon="-8.1427819747">
        <ele>536.55</ele>
        <time>2020-08-15T05:39:58Z</time>
      </trkpt>
      <trkpt lat="42.6424906589" lon="-8.1430870760">
        <ele>535.59</ele>
        <time>2020-08-15T05:40:04Z</time>
      </trkpt>
      <trkpt lat="42.6428468060" lon="-8.1435894873">
        <ele>533.19</ele>
        <time>2020-08-15T05:40:11Z</time>
      </trkpt>
      <trkpt lat="42.6430836786" lon="-8.1438918225">
        <ele>531.75</ele>
        <time>2020-08-15T05:40:15Z</time>
      </trkpt>
      <trkpt lat="42.6432927232" lon="-8.1440143660">
        <ele>531.27</ele>
        <time>2020-08-15T05:40:18Z</time>
      </trkpt>
      <trkpt lat="42.6433636341" lon="-8.1440297049">
        <ele>531.75</ele>
        <time>2020-08-15T05:40:19Z</time>
      </trkpt>
      <trkpt lat="42.6434117462" lon="-8.1440372486">
        <ele>531.27</ele>
        <time>2020-08-15T05:40:20Z</time>
      </trkpt>
      <trkpt lat="42.6437668037" lon="-8.1440433674">
        <ele>531.75</ele>
        <time>2020-08-15T05:40:27Z</time>
      </trkpt>
      <trkpt lat="42.6440833881" lon="-8.1440501567">
        <ele>532.71</ele>
        <time>2020-08-15T05:40:35Z</time>
      </trkpt>
      <trkpt lat="42.6444149762" lon="-8.1442134362">
        <ele>531.75</ele>
        <time>2020-08-15T05:40:43Z</time>
      </trkpt>
      <trkpt lat="42.6447246876" lon="-8.1444160268">
        <ele>532.23</ele>
        <time>2020-08-15T05:40:52Z</time>
      </trkpt>
      <trkpt lat="42.6448712032" lon="-8.1446480379">
        <ele>531.75</ele>
        <time>2020-08-15T05:41:00Z</time>
      </trkpt>
      <trkpt lat="42.6449492387" lon="-8.1449282449">
        <ele>532.71</ele>
        <time>2020-08-15T05:41:08Z</time>
      </trkpt>
      <trkpt lat="42.6450534258" lon="-8.1451583281">
        <ele>533.19</ele>
        <time>2020-08-15T05:41:16Z</time>
      </trkpt>
      <trkpt lat="42.6452013664" lon="-8.1453807838">
        <ele>531.75</ele>
        <time>2020-08-15T05:41:23Z</time>
      </trkpt>
      <trkpt lat="42.6454002690" lon="-8.1455703825">
        <ele>531.27</ele>
        <time>2020-08-15T05:41:32Z</time>
      </trkpt>
      <trkpt lat="42.6456134208" lon="-8.1456899922">
        <ele>531.75</ele>
        <time>2020-08-15T05:41:38Z</time>
      </trkpt>
      <trkpt lat="42.6459187735" lon="-8.1458721310">
        <ele>530.30</ele>
        <time>2020-08-15T05:41:45Z</time>
      </trkpt>
      <trkpt lat="42.6459645387" lon="-8.1458878890">
        <ele>530.30</ele>
        <time>2020-08-15T05:41:46Z</time>
      </trkpt>
      <trkpt lat="42.6461688057" lon="-8.1459242664">
        <ele>530.30</ele>
        <time>2020-08-15T05:41:52Z</time>
      </trkpt>
      <trkpt lat="42.6463581529" lon="-8.1459579617">
        <ele>531.75</ele>
        <time>2020-08-15T05:42:00Z</time>
      </trkpt>
      <trkpt lat="42.6465052553" lon="-8.1459718756">
        <ele>532.71</ele>
        <time>2020-08-15T05:42:08Z</time>
      </trkpt>
      <trkpt lat="42.6466806047" lon="-8.1459964346">
        <ele>534.63</ele>
        <time>2020-08-15T05:42:18Z</time>
      </trkpt>
      <trkpt lat="42.6468179841" lon="-8.1460219994">
        <ele>536.07</ele>
        <time>2020-08-15T05:42:26Z</time>
      </trkpt>
      <trkpt lat="42.6469668467" lon="-8.1460499112">
        <ele>537.51</ele>
        <time>2020-08-15T05:42:35Z</time>
      </trkpt>
      <trkpt lat="42.6470872108" lon="-8.1460927427">
        <ele>539.44</ele>
        <time>2020-08-15T05:42:43Z</time>
      </trkpt>
      <trkpt lat="42.6471799985" lon="-8.1461109314">
        <ele>539.44</ele>
        <time>2020-08-15T05:42:51Z</time>
      </trkpt>
      <trkpt lat="42.6472006179" lon="-8.1461137813">
        <ele>539.44</ele>
        <time>2020-08-15T05:42:53Z</time>
      </trkpt>
      <trkpt lat="42.6472121850" lon="-8.1461207382">
        <ele>539.44</ele>
        <time>2020-08-15T05:42:54Z</time>
      </trkpt>
      <trkpt lat="42.6472271048" lon="-8.1461264379">
        <ele>539.44</ele>
        <time>2020-08-15T05:42:55Z</time>
      </trkpt>
      <trkpt lat="42.6473814156" lon="-8.1461742148">
        <ele>540.88</ele>
        <time>2020-08-15T05:43:05Z</time>
      </trkpt>
      <trkpt lat="42.6475623809" lon="-8.1462020427">
        <ele>543.76</ele>
        <time>2020-08-15T05:43:16Z</time>
      </trkpt>
      <trkpt lat="42.6477396581" lon="-8.1462391745">
        <ele>546.17</ele>
        <time>2020-08-15T05:43:26Z</time>
      </trkpt>
      <trkpt lat="42.6478810608" lon="-8.1462680083">
        <ele>548.09</ele>
        <time>2020-08-15T05:43:34Z</time>
      </trkpt>
      <trkpt lat="42.6480828971" lon="-8.1463065650">
        <ele>550.01</ele>
        <time>2020-08-15T05:43:45Z</time>
      </trkpt>
      <trkpt lat="42.6482600067" lon="-8.1463328004">
        <ele>550.49</ele>
        <time>2020-08-15T05:43:55Z</time>
      </trkpt>
      <trkpt lat="42.6484267227" lon="-8.1463621370">
        <ele>551.93</ele>
        <time>2020-08-15T05:44:05Z</time>
      </trkpt>
      <trkpt lat="42.6485759206" lon="-8.1463838462">
        <ele>552.90</ele>
        <time>2020-08-15T05:44:14Z</time>
      </trkpt>
      <trkpt lat="42.6487366017" lon="-8.1463864446">
        <ele>553.38</ele>
        <time>2020-08-15T05:44:24Z</time>
      </trkpt>
      <trkpt lat="42.6489049941" lon="-8.1463891268">
        <ele>553.38</ele>
        <time>2020-08-15T05:44:34Z</time>
      </trkpt>
      <trkpt lat="42.6490600593" lon="-8.1463993527">
        <ele>552.90</ele>
        <time>2020-08-15T05:44:43Z</time>
      </trkpt>
      <trkpt lat="42.6492187288" lon="-8.1463921443">
        <ele>554.34</ele>
        <time>2020-08-15T05:44:52Z</time>
      </trkpt>
      <trkpt lat="42.6493804995" lon="-8.1463889591">
        <ele>555.78</ele>
        <time>2020-08-15T05:45:01Z</time>
      </trkpt>
      <trkpt lat="42.6495173760" lon="-8.1463753805">
        <ele>555.78</ele>
        <time>2020-08-15T05:45:09Z</time>
      </trkpt>
      <trkpt lat="42.6496842597" lon="-8.1463650707">
        <ele>556.26</ele>
        <time>2020-08-15T05:45:18Z</time>
      </trkpt>
      <trkpt lat="42.6498798095" lon="-8.1463530008">
        <ele>556.74</ele>
        <time>2020-08-15T05:45:29Z</time>
      </trkpt>
      <trkpt lat="42.6500285883" lon="-8.1463452894">
        <ele>557.70</ele>
        <time>2020-08-15T05:45:37Z</time>
      </trkpt>
      <trkpt lat="42.6501523890" lon="-8.1463384163">
        <ele>559.14</ele>
        <time>2020-08-15T05:45:44Z</time>
      </trkpt>
      <trkpt lat="42.6502618566" lon="-8.1463410985">
        <ele>560.11</ele>
        <time>2020-08-15T05:45:51Z</time>
      </trkpt>
      <trkpt lat="42.6504109707" lon="-8.1463299505">
        <ele>561.07</ele>
        <time>2020-08-15T05:45:59Z</time>
      </trkpt>
      <trkpt lat="42.6505953725" lon="-8.1463331357">
        <ele>562.03</ele>
        <time>2020-08-15T05:46:08Z</time>
      </trkpt>
      <trkpt lat="42.6507590711" lon="-8.1463538390">
        <ele>562.03</ele>
        <time>2020-08-15T05:46:15Z</time>
      </trkpt>
      <trkpt lat="42.6510681957" lon="-8.1463868637">
        <ele>563.95</ele>
        <time>2020-08-15T05:46:27Z</time>
      </trkpt>
      <trkpt lat="42.6512584649" lon="-8.1464126799">
        <ele>564.91</ele>
        <time>2020-08-15T05:46:35Z</time>
      </trkpt>
      <trkpt lat="42.6514689345" lon="-8.1464479677">
        <ele>567.80</ele>
        <time>2020-08-15T05:46:44Z</time>
      </trkpt>
      <trkpt lat="42.6516268495" lon="-8.1465058029">
        <ele>568.28</ele>
        <time>2020-08-15T05:46:51Z</time>
      </trkpt>
      <trkpt lat="42.6516490616" lon="-8.1465203874">
        <ele>567.80</ele>
        <time>2020-08-15T05:46:52Z</time>
      </trkpt>
      <trkpt lat="42.6518862695" lon="-8.1466391589">
        <ele>568.76</ele>
        <time>2020-08-15T05:47:01Z</time>
      </trkpt>
      <trkpt lat="42.6520759519" lon="-8.1467246544">
        <ele>570.68</ele>
        <time>2020-08-15T05:47:08Z</time>
      </trkpt>
      <trkpt lat="42.6522347052" lon="-8.1467748620">
        <ele>572.12</ele>
        <time>2020-08-15T05:47:15Z</time>
      </trkpt>
      <trkpt lat="42.6522513013" lon="-8.1467915419">
        <ele>572.12</ele>
        <time>2020-08-15T05:47:16Z</time>
      </trkpt>
      <trkpt lat="42.6522650477" lon="-8.1468088087">
        <ele>572.12</ele>
        <time>2020-08-15T05:47:17Z</time>
      </trkpt>
      <trkpt lat="42.6522802189" lon="-8.1468248181">
        <ele>572.12</ele>
        <time>2020-08-15T05:47:18Z</time>
      </trkpt>
      <trkpt lat="42.6522982400" lon="-8.1468395703">
        <ele>572.12</ele>
        <time>2020-08-15T05:47:19Z</time>
      </trkpt>
      <trkpt lat="42.6523177698" lon="-8.1468526460">
        <ele>572.12</ele>
        <time>2020-08-15T05:47:20Z</time>
      </trkpt>
      <trkpt lat="42.6523387246" lon="-8.1468649674">
        <ele>572.60</ele>
        <time>2020-08-15T05:47:21Z</time>
      </trkpt>
      <trkpt lat="42.6525008306" lon="-8.1469667237">
        <ele>572.12</ele>
        <time>2020-08-15T05:47:29Z</time>
      </trkpt>
      <trkpt lat="42.6526451670" lon="-8.1470733415">
        <ele>572.12</ele>
        <time>2020-08-15T05:47:37Z</time>
      </trkpt>
      <trkpt lat="42.6527629327" lon="-8.1472091284">
        <ele>573.08</ele>
        <time>2020-08-15T05:47:44Z</time>
      </trkpt>
      <trkpt lat="42.6528827939" lon="-8.1473681331">
        <ele>573.08</ele>
        <time>2020-08-15T05:47:50Z</time>
      </trkpt>
      <trkpt lat="42.6530120429" lon="-8.1476195902">
        <ele>572.12</ele>
        <time>2020-08-15T05:47:56Z</time>
      </trkpt>
      <trkpt lat="42.6531007234" lon="-8.1478105299">
        <ele>572.12</ele>
        <time>2020-08-15T05:48:02Z</time>
      </trkpt>
      <trkpt lat="42.6532023121" lon="-8.1480634958">
        <ele>572.60</ele>
        <time>2020-08-15T05:48:10Z</time>
      </trkpt>
      <trkpt lat="42.6532693673" lon="-8.1482553575">
        <ele>571.64</ele>
        <time>2020-08-15T05:48:16Z</time>
      </trkpt>
      <trkpt lat="42.6533402782" lon="-8.1484530866">
        <ele>571.64</ele>
        <time>2020-08-15T05:48:22Z</time>
      </trkpt>
      <trkpt lat="42.6534097642" lon="-8.1486489717">
        <ele>573.08</ele>
        <time>2020-08-15T05:48:27Z</time>
      </trkpt>
      <trkpt lat="42.6535375882" lon="-8.1488841679">
        <ele>577.89</ele>
        <time>2020-08-15T05:48:34Z</time>
      </trkpt>
      <trkpt lat="42.6536442060" lon="-8.1490421668">
        <ele>583.18</ele>
        <time>2020-08-15T05:48:40Z</time>
      </trkpt>
      <trkpt lat="42.6537251752" lon="-8.1491340324">
        <ele>588.46</ele>
        <time>2020-08-15T05:48:46Z</time>
      </trkpt>
      <trkpt lat="42.6537689287" lon="-8.1491970643">
        <ele>591.35</ele>
        <time>2020-08-15T05:48:52Z</time>
      </trkpt>
      <trkpt lat="42.6538048871" lon="-8.1492292508">
        <ele>597.12</ele>
        <time>2020-08-15T05:49:07Z</time>
      </trkpt>
      <trkpt lat="42.6538282726" lon="-8.1493008323">
        <ele>596.15</ele>
        <time>2020-08-15T05:49:31Z</time>
      </trkpt>
      <trkpt lat="42.6538207289" lon="-8.1493006647">
        <ele>595.67</ele>
        <time>2020-08-15T05:49:45Z</time>
      </trkpt>
      <trkpt lat="42.6538262609" lon="-8.1492948812">
        <ele>594.23</ele>
        <time>2020-08-15T05:49:57Z</time>
      </trkpt>
      <trkpt lat="42.6538420189" lon="-8.1492945459">
        <ele>589.43</ele>
        <time>2020-08-15T05:50:09Z</time>
      </trkpt>
      <trkpt lat="42.6538391691" lon="-8.1492936239">
        <ele>584.62</ele>
        <time>2020-08-15T05:50:21Z</time>
      </trkpt>
      <trkpt lat="42.6538465451" lon="-8.1493315939">
        <ele>581.73</ele>
        <time>2020-08-15T05:50:33Z</time>
      </trkpt>
      <trkpt lat="42.6539911330" lon="-8.1494850665">
        <ele>581.73</ele>
        <time>2020-08-15T05:50:41Z</time>
      </trkpt>
      <trkpt lat="42.6541183703" lon="-8.1496884115">
        <ele>581.25</ele>
        <time>2020-08-15T05:50:48Z</time>
      </trkpt>
      <trkpt lat="42.6542368066" lon="-8.1498701312">
        <ele>578.85</ele>
        <time>2020-08-15T05:50:55Z</time>
      </trkpt>
      <trkpt lat="42.6543816458" lon="-8.1500896532">
        <ele>577.41</ele>
        <time>2020-08-15T05:51:01Z</time>
      </trkpt>
      <trkpt lat="42.6545277424" lon="-8.1502782460">
        <ele>575.97</ele>
        <time>2020-08-15T05:51:06Z</time>
      </trkpt>
      <trkpt lat="42.6547065284" lon="-8.1504882127">
        <ele>573.08</ele>
        <time>2020-08-15T05:51:12Z</time>
      </trkpt>
      <trkpt lat="42.6548493560" lon="-8.1506652385">
        <ele>568.76</ele>
        <time>2020-08-15T05:51:18Z</time>
      </trkpt>
      <trkpt lat="42.6550424751" lon="-8.1508085690">
        <ele>562.51</ele>
        <time>2020-08-15T05:51:25Z</time>
      </trkpt>
      <trkpt lat="42.6551480871" lon="-8.1508996803">
        <ele>558.66</ele>
        <time>2020-08-15T05:51:30Z</time>
      </trkpt>
      <trkpt lat="42.6552646793" lon="-8.1509877741">
        <ele>555.30</ele>
        <time>2020-08-15T05:51:35Z</time>
      </trkpt>
      <trkpt lat="42.6553932577" lon="-8.1510891952">
        <ele>553.38</ele>
        <time>2020-08-15T05:51:41Z</time>
      </trkpt>
      <trkpt lat="42.6555221714" lon="-8.1511840783">
        <ele>554.82</ele>
        <time>2020-08-15T05:51:47Z</time>
      </trkpt>
      <trkpt lat="42.6555687748" lon="-8.1512117386">
        <ele>557.22</ele>
        <time>2020-08-15T05:51:53Z</time>
      </trkpt>
      <trkpt lat="42.6556165516" lon="-8.1512280833">
        <ele>560.59</ele>
        <time>2020-08-15T05:52:07Z</time>
      </trkpt>
      <trkpt lat="42.6556559466" lon="-8.1512784585">
        <ele>561.07</ele>
        <time>2020-08-15T05:52:23Z</time>
      </trkpt>
      <trkpt lat="42.6558029652" lon="-8.1513870042">
        <ele>563.95</ele>
        <time>2020-08-15T05:52:29Z</time>
      </trkpt>
      <trkpt lat="42.6560566854" lon="-8.1515511218">
        <ele>564.91</ele>
        <time>2020-08-15T05:52:36Z</time>
      </trkpt>
      <trkpt lat="42.6560987625" lon="-8.1515802070">
        <ele>564.91</ele>
        <time>2020-08-15T05:52:37Z</time>
      </trkpt>
      <trkpt lat="42.6561438572" lon="-8.1516112201">
        <ele>564.91</ele>
        <time>2020-08-15T05:52:38Z</time>
      </trkpt>
      <trkpt lat="42.6565298438" lon="-8.1518502720">
        <ele>565.39</ele>
        <time>2020-08-15T05:52:46Z</time>
      </trkpt>
      <trkpt lat="42.6569481846" lon="-8.1521135475">
        <ele>559.14</ele>
        <time>2020-08-15T05:52:57Z</time>
      </trkpt>
      <trkpt lat="42.6571402140" lon="-8.1522006355">
        <ele>561.55</ele>
        <time>2020-08-15T05:53:03Z</time>
      </trkpt>
      <trkpt lat="42.6573527791" lon="-8.1523298845">
        <ele>566.35</ele>
        <time>2020-08-15T05:53:10Z</time>
      </trkpt>
      <trkpt lat="42.6576000452" lon="-8.1524782442">
        <ele>571.16</ele>
        <time>2020-08-15T05:53:18Z</time>
      </trkpt>
      <trkpt lat="42.6577712875" lon="-8.1526416913">
        <ele>572.60</ele>
        <time>2020-08-15T05:53:25Z</time>
      </trkpt>
      <trkpt lat="42.6579300407" lon="-8.1528144423">
        <ele>570.20</ele>
        <time>2020-08-15T05:53:34Z</time>
      </trkpt>
      <trkpt lat="42.6580667496" lon="-8.1529664900">
        <ele>568.76</ele>
        <time>2020-08-15T05:53:42Z</time>
      </trkpt>
      <trkpt lat="42.6582768001" lon="-8.1531218905">
        <ele>567.32</ele>
        <time>2020-08-15T05:53:50Z</time>
      </trkpt>
      <trkpt lat="42.6584584359" lon="-8.1532593537">
        <ele>564.43</ele>
        <time>2020-08-15T05:53:56Z</time>
      </trkpt>
      <trkpt lat="42.6586587634" lon="-8.1533471961">
        <ele>562.03</ele>
        <time>2020-08-15T05:54:02Z</time>
      </trkpt>
      <trkpt lat="42.6587774511" lon="-8.1534611899">
        <ele>560.11</ele>
        <time>2020-08-15T05:54:05Z</time>
      </trkpt>
      <trkpt lat="42.6588170137" lon="-8.1535074580">
        <ele>559.14</ele>
        <time>2020-08-15T05:54:06Z</time>
      </trkpt>
      <trkpt lat="42.6591118891" lon="-8.1538774353">
        <ele>553.38</ele>
        <time>2020-08-15T05:54:14Z</time>
      </trkpt>
      <trkpt lat="42.6592050958" lon="-8.1539474241">
        <ele>551.45</ele>
        <time>2020-08-15T05:54:18Z</time>
      </trkpt>
      <trkpt lat="42.6592393778" lon="-8.1539380364">
        <ele>550.97</ele>
        <time>2020-08-15T05:54:19Z</time>
      </trkpt>
      <trkpt lat="42.6595367678" lon="-8.1538110506">
        <ele>542.80</ele>
        <time>2020-08-15T05:54:27Z</time>
      </trkpt>
      <trkpt lat="42.6598302182" lon="-8.1536754314">
        <ele>537.03</ele>
        <time>2020-08-15T05:54:35Z</time>
      </trkpt>
      <trkpt lat="42.6601389237" lon="-8.1535094697">
        <ele>534.63</ele>
        <time>2020-08-15T05:54:44Z</time>
      </trkpt>
      <trkpt lat="42.6604546700" lon="-8.1533413287">
        <ele>532.71</ele>
        <time>2020-08-15T05:54:55Z</time>
      </trkpt>
      <trkpt lat="42.6605977491" lon="-8.1531194597">
        <ele>531.75</ele>
        <time>2020-08-15T05:55:03Z</time>
      </trkpt>
      <trkpt lat="42.6606191229" lon="-8.1528784800">
        <ele>531.75</ele>
        <time>2020-08-15T05:55:11Z</time>
      </trkpt>
      <trkpt lat="42.6606852561" lon="-8.1527650729">
        <ele>532.71</ele>
        <time>2020-08-15T05:55:17Z</time>
      </trkpt>
      <trkpt lat="42.6606891118" lon="-8.1527422741">
        <ele>533.67</ele>
        <time>2020-08-15T05:55:23Z</time>
      </trkpt>
      <trkpt lat="42.6606907882" lon="-8.1527437828">
        <ele>533.67</ele>
        <time>2020-08-15T05:55:39Z</time>
      </trkpt>
      <trkpt lat="42.6606984995" lon="-8.1527270190">
        <ele>533.19</ele>
        <time>2020-08-15T05:55:51Z</time>
      </trkpt>
      <trkpt lat="42.6607110724" lon="-8.1527224928">
        <ele>533.19</ele>
        <time>2020-08-15T05:55:52Z</time>
      </trkpt>
      <trkpt lat="42.6607230585" lon="-8.1527186371">
        <ele>533.19</ele>
        <time>2020-08-15T05:55:53Z</time>
      </trkpt>
      <trkpt lat="42.6608658861" lon="-8.1526737940">
        <ele>533.19</ele>
        <time>2020-08-15T05:56:01Z</time>
      </trkpt>
      <trkpt lat="42.6610487793" lon="-8.1526091695">
        <ele>534.15</ele>
        <time>2020-08-15T05:56:08Z</time>
      </trkpt>
      <trkpt lat="42.6612767670" lon="-8.1525063235">
        <ele>530.79</ele>
        <time>2020-08-15T05:56:16Z</time>
      </trkpt>
      <trkpt lat="42.6615229435" lon="-8.1524019688">
        <ele>528.38</ele>
        <time>2020-08-15T05:56:24Z</time>
      </trkpt>
      <trkpt lat="42.6617594808" lon="-8.1523163058">
        <ele>527.42</ele>
        <time>2020-08-15T05:56:32Z</time>
      </trkpt>
      <trkpt lat="42.6620094292" lon="-8.1521372683">
        <ele>524.06</ele>
        <time>2020-08-15T05:56:40Z</time>
      </trkpt>
      <trkpt lat="42.6622735430" lon="-8.1518654432">
        <ele>520.69</ele>
        <time>2020-08-15T05:56:49Z</time>
      </trkpt>
      <trkpt lat="42.6624076534" lon="-8.1518539600">
        <ele>518.77</ele>
        <time>2020-08-15T05:56:53Z</time>
      </trkpt>
      <trkpt lat="42.6626447774" lon="-8.1519643497">
        <ele>516.85</ele>
        <time>2020-08-15T05:56:58Z</time>
      </trkpt>
      <trkpt lat="42.6626903750" lon="-8.1519988831">
        <ele>516.85</ele>
        <time>2020-08-15T05:56:59Z</time>
      </trkpt>
      <trkpt lat="42.6627314463" lon="-8.1520369370">
        <ele>516.85</ele>
        <time>2020-08-15T05:57:00Z</time>
      </trkpt>
      <trkpt lat="42.6627788879" lon="-8.1520899944">
        <ele>516.37</ele>
        <time>2020-08-15T05:57:01Z</time>
      </trkpt>
      <trkpt lat="42.6628173608" lon="-8.1521396153">
        <ele>516.37</ele>
        <time>2020-08-15T05:57:02Z</time>
      </trkpt>
      <trkpt lat="42.6631647069" lon="-8.1525613926">
        <ele>515.40</ele>
        <time>2020-08-15T05:57:11Z</time>
      </trkpt>
      <trkpt lat="42.6635771804" lon="-8.1529293582">
        <ele>514.92</ele>
        <time>2020-08-15T05:57:22Z</time>
      </trkpt>
      <trkpt lat="42.6638309006" lon="-8.1531530712">
        <ele>514.44</ele>
        <time>2020-08-15T05:57:29Z</time>
      </trkpt>
      <trkpt lat="42.6638596505" lon="-8.1531892810">
        <ele>514.44</ele>
        <time>2020-08-15T05:57:30Z</time>
      </trkpt>
      <trkpt lat="42.6638860535" lon="-8.1532277539">
        <ele>514.44</ele>
        <time>2020-08-15T05:57:31Z</time>
      </trkpt>
      <trkpt lat="42.6639161445" lon="-8.1532657240">
        <ele>513.96</ele>
        <time>2020-08-15T05:57:32Z</time>
      </trkpt>
      <trkpt lat="42.6639408711" lon="-8.1532876845">
        <ele>513.96</ele>
        <time>2020-08-15T05:57:33Z</time>
      </trkpt>
      <trkpt lat="42.6639581379" lon="-8.1532984972">
        <ele>514.44</ele>
        <time>2020-08-15T05:57:34Z</time>
      </trkpt>
      <trkpt lat="42.6639724709" lon="-8.1533067115">
        <ele>514.44</ele>
        <time>2020-08-15T05:57:35Z</time>
      </trkpt>
      <trkpt lat="42.6639921684" lon="-8.1533129979">
        <ele>514.44</ele>
        <time>2020-08-15T05:57:36Z</time>
      </trkpt>
      <trkpt lat="42.6640175655" lon="-8.1533179432">
        <ele>514.44</ele>
        <time>2020-08-15T05:57:37Z</time>
      </trkpt>
      <trkpt lat="42.6642774045" lon="-8.1534099765">
        <ele>515.40</ele>
        <time>2020-08-15T05:57:45Z</time>
      </trkpt>
      <trkpt lat="42.6645249221" lon="-8.1534938794">
        <ele>514.92</ele>
        <time>2020-08-15T05:57:52Z</time>
      </trkpt>
      <trkpt lat="42.6647048816" lon="-8.1535689812">
        <ele>513.48</ele>
        <time>2020-08-15T05:57:57Z</time>
      </trkpt>
      <trkpt lat="42.6649501361" lon="-8.1536669657">
        <ele>510.60</ele>
        <time>2020-08-15T05:58:03Z</time>
      </trkpt>
      <trkpt lat="42.6652129088" lon="-8.1538012438">
        <ele>508.19</ele>
        <time>2020-08-15T05:58:09Z</time>
      </trkpt>
      <trkpt lat="42.6653309260" lon="-8.1539129745">
        <ele>507.23</ele>
        <time>2020-08-15T05:58:12Z</time>
      </trkpt>
      <trkpt lat="42.6653621066" lon="-8.1539511122">
        <ele>506.75</ele>
        <time>2020-08-15T05:58:13Z</time>
      </trkpt>
      <trkpt lat="42.6653915271" lon="-8.1539912615">
        <ele>506.27</ele>
        <time>2020-08-15T05:58:14Z</time>
      </trkpt>
      <trkpt lat="42.6655618474" lon="-8.1541855540">
        <ele>504.83</ele>
        <time>2020-08-15T05:58:21Z</time>
      </trkpt>
      <trkpt lat="42.6657508593" lon="-8.1543685310">
        <ele>503.87</ele>
        <time>2020-08-15T05:58:28Z</time>
      </trkpt>
      <trkpt lat="42.6659436431" lon="-8.1545912381">
        <ele>503.87</ele>
        <time>2020-08-15T05:58:36Z</time>
      </trkpt>
      <trkpt lat="42.6661210880" lon="-8.1548016239">
        <ele>503.39</ele>
        <time>2020-08-15T05:58:42Z</time>
      </trkpt>
      <trkpt lat="42.6661528554" lon="-8.1548476405">
        <ele>503.39</ele>
        <time>2020-08-15T05:58:43Z</time>
      </trkpt>
      <trkpt lat="42.6661868859" lon="-8.1548962556">
        <ele>503.39</ele>
        <time>2020-08-15T05:58:44Z</time>
      </trkpt>
      <trkpt lat="42.6662147976" lon="-8.1549372431">
        <ele>503.39</ele>
        <time>2020-08-15T05:58:45Z</time>
      </trkpt>
      <trkpt lat="42.6662454754" lon="-8.1549783982">
        <ele>503.39</ele>
        <time>2020-08-15T05:58:46Z</time>
      </trkpt>
      <trkpt lat="42.6663348265" lon="-8.1550966669">
        <ele>503.39</ele>
        <time>2020-08-15T05:58:49Z</time>
      </trkpt>
      <trkpt lat="42.6663627382" lon="-8.1551380735">
        <ele>503.39</ele>
        <time>2020-08-15T05:58:50Z</time>
      </trkpt>
      <trkpt lat="42.6665981859" lon="-8.1554128323">
        <ele>503.39</ele>
        <time>2020-08-15T05:58:58Z</time>
      </trkpt>
      <trkpt lat="42.6667371579" lon="-8.1554989982">
        <ele>504.35</ele>
        <time>2020-08-15T05:59:03Z</time>
      </trkpt>
      <trkpt lat="42.6670190413" lon="-8.1556748506">
        <ele>505.79</ele>
        <time>2020-08-15T05:59:10Z</time>
      </trkpt>
      <trkpt lat="42.6672682352" lon="-8.1558196060">
        <ele>506.27</ele>
        <time>2020-08-15T05:59:17Z</time>
      </trkpt>
      <trkpt lat="42.6673761103" lon="-8.1558926124">
        <ele>506.75</ele>
        <time>2020-08-15T05:59:20Z</time>
      </trkpt>
      <trkpt lat="42.6676976401" lon="-8.1560320035">
        <ele>509.16</ele>
        <time>2020-08-15T05:59:27Z</time>
      </trkpt>
      <trkpt lat="42.6680043340" lon="-8.1561501045">
        <ele>511.08</ele>
        <time>2020-08-15T05:59:33Z</time>
      </trkpt>
      <trkpt lat="42.6683557034" lon="-8.1562835444">
        <ele>513.96</ele>
        <time>2020-08-15T05:59:40Z</time>
      </trkpt>
      <trkpt lat="42.6686690189" lon="-8.1564193312">
        <ele>516.37</ele>
        <time>2020-08-15T05:59:46Z</time>
      </trkpt>
      <trkpt lat="42.6689809933" lon="-8.1565961055">
        <ele>514.44</ele>
        <time>2020-08-15T05:59:52Z</time>
      </trkpt>
      <trkpt lat="42.6690220647" lon="-8.1566342432">
        <ele>513.96</ele>
        <time>2020-08-15T05:59:53Z</time>
      </trkpt>
      <trkpt lat="42.6690550055" lon="-8.1566757336">
        <ele>513.00</ele>
        <time>2020-08-15T05:59:54Z</time>
      </trkpt>
      <trkpt lat="42.6690904610" lon="-8.1567193195">
        <ele>512.52</ele>
        <time>2020-08-15T05:59:55Z</time>
      </trkpt>
      <trkpt lat="42.6691166963" lon="-8.1567613129">
        <ele>511.08</ele>
        <time>2020-08-15T05:59:56Z</time>
      </trkpt>
      <trkpt lat="42.6691323705" lon="-8.1567969359">
        <ele>509.16</ele>
        <time>2020-08-15T05:59:57Z</time>
      </trkpt>
      <trkpt lat="42.6691466197" lon="-8.1568417791">
        <ele>506.75</ele>
        <time>2020-08-15T05:59:58Z</time>
      </trkpt>
      <trkpt lat="42.6692547463" lon="-8.1570828427">
        <ele>494.26</ele>
        <time>2020-08-15T06:00:03Z</time>
      </trkpt>
      <trkpt lat="42.6693892758" lon="-8.1571628060">
        <ele>488.01</ele>
        <time>2020-08-15T06:00:09Z</time>
      </trkpt>
      <trkpt lat="42.6695652120" lon="-8.1571225729">
        <ele>480.32</ele>
        <time>2020-08-15T06:00:16Z</time>
      </trkpt>
      <trkpt lat="42.6697186008" lon="-8.1570035499">
        <ele>477.43</ele>
        <time>2020-08-15T06:00:22Z</time>
      </trkpt>
      <trkpt lat="42.6697676349" lon="-8.1569803320">
        <ele>476.95</ele>
        <time>2020-08-15T06:00:25Z</time>
      </trkpt>
      <trkpt lat="42.6698320080" lon="-8.1570352335">
        <ele>476.47</ele>
        <time>2020-08-15T06:00:34Z</time>
      </trkpt>
      <trkpt lat="42.6698347740" lon="-8.1570446212">
        <ele>475.99</ele>
        <time>2020-08-15T06:00:46Z</time>
      </trkpt>
      <trkpt lat="42.6698329300" lon="-8.1570706051">
        <ele>475.51</ele>
        <time>2020-08-15T06:01:04Z</time>
      </trkpt>
      <trkpt lat="42.6698284876" lon="-8.1570730358">
        <ele>475.99</ele>
        <time>2020-08-15T06:01:23Z</time>
      </trkpt>
      <trkpt lat="42.6698214468" lon="-8.1570618879">
        <ele>475.03</ele>
        <time>2020-08-15T06:01:41Z</time>
      </trkpt>
      <trkpt lat="42.6698372886" lon="-8.1570338923">
        <ele>475.99</ele>
        <time>2020-08-15T06:01:57Z</time>
      </trkpt>
      <trkpt lat="42.6698456705" lon="-8.1569965929">
        <ele>476.47</ele>
        <time>2020-08-15T06:02:15Z</time>
      </trkpt>
      <trkpt lat="42.6698544715" lon="-8.1569844391">
        <ele>477.43</ele>
        <time>2020-08-15T06:02:34Z</time>
      </trkpt>
      <trkpt lat="42.6698543876" lon="-8.1569888815">
        <ele>476.95</ele>
        <time>2020-08-15T06:02:43Z</time>
      </trkpt>
      <trkpt lat="42.6698548067" lon="-8.1569878757">
        <ele>475.99</ele>
        <time>2020-08-15T06:02:58Z</time>
      </trkpt>
      <trkpt lat="42.6698434073" lon="-8.1570034660">
        <ele>473.59</ele>
        <time>2020-08-15T06:03:09Z</time>
      </trkpt>
      <trkpt lat="42.6698392164" lon="-8.1570155360">
        <ele>472.14</ele>
        <time>2020-08-15T06:03:17Z</time>
      </trkpt>
      <trkpt lat="42.6698238775" lon="-8.1570346467">
        <ele>470.70</ele>
        <time>2020-08-15T06:03:32Z</time>
      </trkpt>
      <trkpt lat="42.6698194351" lon="-8.1570498180">
        <ele>469.74</ele>
        <time>2020-08-15T06:03:48Z</time>
      </trkpt>
      <trkpt lat="42.6698303316" lon="-8.1570493989">
        <ele>469.26</ele>
        <time>2020-08-15T06:04:01Z</time>
      </trkpt>
      <trkpt lat="42.6698310860" lon="-8.1570525002">
        <ele>467.82</ele>
        <time>2020-08-15T06:04:19Z</time>
      </trkpt>
      <trkpt lat="42.6698347740" lon="-8.1570427772">
        <ele>467.82</ele>
        <time>2020-08-15T06:04:32Z</time>
      </trkpt>
      <trkpt lat="42.6698273141" lon="-8.1570535898">
        <ele>468.30</ele>
        <time>2020-08-15T06:04:43Z</time>
      </trkpt>
      <trkpt lat="42.6698343549" lon="-8.1570698507">
        <ele>468.78</ele>
        <time>2020-08-15T06:04:45Z</time>
      </trkpt>
      <trkpt lat="42.6698957104" lon="-8.1571804080">
        <ele>471.66</ele>
        <time>2020-08-15T06:04:55Z</time>
      </trkpt>
      <trkpt lat="42.6699601673" lon="-8.1572721060">
        <ele>473.59</ele>
        <time>2020-08-15T06:05:03Z</time>
      </trkpt>
      <trkpt lat="42.6700349338" lon="-8.1573519856">
        <ele>475.51</ele>
        <time>2020-08-15T06:05:12Z</time>
      </trkpt>
      <trkpt lat="42.6700790226" lon="-8.1574073061">
        <ele>475.03</ele>
        <time>2020-08-15T06:05:20Z</time>
      </trkpt>
      <trkpt lat="42.6701337565" lon="-8.1574636325">
        <ele>476.47</ele>
        <time>2020-08-15T06:05:29Z</time>
      </trkpt>
      <trkpt lat="42.6701922622" lon="-8.1575303525">
        <ele>478.39</ele>
        <time>2020-08-15T06:05:38Z</time>
      </trkpt>
      <trkpt lat="42.6702480856" lon="-8.1575975753">
        <ele>480.32</ele>
        <time>2020-08-15T06:05:46Z</time>
      </trkpt>
      <trkpt lat="42.6702983771" lon="-8.1576412451">
        <ele>481.28</ele>
        <time>2020-08-15T06:05:54Z</time>
      </trkpt>
      <trkpt lat="42.6703554578" lon="-8.1576766167">
        <ele>482.72</ele>
        <time>2020-08-15T06:06:03Z</time>
      </trkpt>
      <trkpt lat="42.6704015583" lon="-8.1577196997">
        <ele>483.20</ele>
        <time>2020-08-15T06:06:13Z</time>
      </trkpt>
      <trkpt lat="42.6704184897" lon="-8.1577455159">
        <ele>483.20</ele>
        <time>2020-08-15T06:06:23Z</time>
      </trkpt>
      <trkpt lat="42.6705234312" lon="-8.1577829830">
        <ele>483.68</ele>
        <time>2020-08-15T06:06:31Z</time>
      </trkpt>
      <trkpt lat="42.6706035621" lon="-8.1578355376">
        <ele>485.12</ele>
        <time>2020-08-15T06:06:37Z</time>
      </trkpt>
      <trkpt lat="42.6707364153" lon="-8.1579124834">
        <ele>488.01</ele>
        <time>2020-08-15T06:06:44Z</time>
      </trkpt>
      <trkpt lat="42.6708994433" lon="-8.1579439156">
        <ele>497.14</ele>
        <time>2020-08-15T06:06:53Z</time>
      </trkpt>
      <trkpt lat="42.6710233279" lon="-8.1579750124">
        <ele>504.83</ele>
        <time>2020-08-15T06:07:01Z</time>
      </trkpt>
      <trkpt lat="42.6711742859" lon="-8.1580486894">
        <ele>505.79</ele>
        <time>2020-08-15T06:07:09Z</time>
      </trkpt>
      <trkpt lat="42.6713164430" lon="-8.1581099611">
        <ele>505.31</ele>
        <time>2020-08-15T06:07:16Z</time>
      </trkpt>
      <trkpt lat="42.6714309398" lon="-8.1581726577">
        <ele>505.79</ele>
        <time>2020-08-15T06:07:23Z</time>
      </trkpt>
      <trkpt lat="42.6715439279" lon="-8.1582684629">
        <ele>505.31</ele>
        <time>2020-08-15T06:07:31Z</time>
      </trkpt>
      <trkpt lat="42.6716473605" lon="-8.1583679561">
        <ele>505.31</ele>
        <time>2020-08-15T06:07:39Z</time>
      </trkpt>
      <trkpt lat="42.6716711652" lon="-8.1583926827">
        <ele>505.31</ele>
        <time>2020-08-15T06:07:41Z</time>
      </trkpt>
      <trkpt lat="42.6716836542" lon="-8.1584029924">
        <ele>505.31</ele>
        <time>2020-08-15T06:07:42Z</time>
      </trkpt>
      <trkpt lat="42.6716968976" lon="-8.1584122963">
        <ele>505.31</ele>
        <time>2020-08-15T06:07:43Z</time>
      </trkpt>
      <trkpt lat="42.6717114821" lon="-8.1584229413">
        <ele>505.31</ele>
        <time>2020-08-15T06:07:44Z</time>
      </trkpt>
      <trkpt lat="42.6717258990" lon="-8.1584350113">
        <ele>505.79</ele>
        <time>2020-08-15T06:07:45Z</time>
      </trkpt>
      <trkpt lat="42.6717382204" lon="-8.1584484223">
        <ele>505.79</ele>
        <time>2020-08-15T06:07:46Z</time>
      </trkpt>
      <trkpt lat="42.6717523858" lon="-8.1584620848">
        <ele>505.79</ele>
        <time>2020-08-15T06:07:47Z</time>
      </trkpt>
      <trkpt lat="42.6717644557" lon="-8.1584738195">
        <ele>505.79</ele>
        <time>2020-08-15T06:07:48Z</time>
      </trkpt>
      <trkpt lat="42.6717760228" lon="-8.1584853865">
        <ele>506.27</ele>
        <time>2020-08-15T06:07:49Z</time>
      </trkpt>
      <trkpt lat="42.6717879251" lon="-8.1584961154">
        <ele>506.27</ele>
        <time>2020-08-15T06:07:50Z</time>
      </trkpt>
      <trkpt lat="42.6718001626" lon="-8.1585100293">
        <ele>506.75</ele>
        <time>2020-08-15T06:07:51Z</time>
      </trkpt>
      <trkpt lat="42.6718139928" lon="-8.1585215125">
        <ele>506.75</ele>
        <time>2020-08-15T06:07:52Z</time>
      </trkpt>
      <trkpt lat="42.6718274876" lon="-8.1585326605">
        <ele>507.23</ele>
        <time>2020-08-15T06:07:53Z</time>
      </trkpt>
      <trkpt lat="42.6718901843" lon="-8.1585937645">
        <ele>507.71</ele>
        <time>2020-08-15T06:07:59Z</time>
      </trkpt>
      <trkpt lat="42.6720338501" lon="-8.1587211695">
        <ele>508.19</ele>
        <time>2020-08-15T06:08:08Z</time>
      </trkpt>
      <trkpt lat="42.6720484346" lon="-8.1587293837">
        <ele>508.19</ele>
        <time>2020-08-15T06:08:09Z</time>
      </trkpt>
      <trkpt lat="42.6720617618" lon="-8.1587380171">
        <ele>508.67</ele>
        <time>2020-08-15T06:08:10Z</time>
      </trkpt>
      <trkpt lat="42.6720760111" lon="-8.1587496679">
        <ele>509.16</ele>
        <time>2020-08-15T06:08:11Z</time>
      </trkpt>
      <trkpt lat="42.6720893383" lon="-8.1587617379">
        <ele>509.64</ele>
        <time>2020-08-15T06:08:12Z</time>
      </trkpt>
      <trkpt lat="42.6721720677" lon="-8.1588515919">
        <ele>504.83</ele>
        <time>2020-08-15T06:08:19Z</time>
      </trkpt>
      <trkpt lat="42.6722915936" lon="-8.1590630673">
        <ele>497.62</ele>
        <time>2020-08-15T06:08:28Z</time>
      </trkpt>
      <trkpt lat="42.6724308170" lon="-8.1594148558">
        <ele>492.33</ele>
        <time>2020-08-15T06:08:42Z</time>
      </trkpt>
      <trkpt lat="42.6725493371" lon="-8.1596754491">
        <ele>490.89</ele>
        <time>2020-08-15T06:08:54Z</time>
      </trkpt>
      <trkpt lat="42.6726371795" lon="-8.1598621979">
        <ele>491.37</ele>
        <time>2020-08-15T06:09:03Z</time>
      </trkpt>
      <trkpt lat="42.6727292966" lon="-8.1600735895">
        <ele>492.33</ele>
        <time>2020-08-15T06:09:13Z</time>
      </trkpt>
      <trkpt lat="42.6727993693" lon="-8.1602327619">
        <ele>493.29</ele>
        <time>2020-08-15T06:09:21Z</time>
      </trkpt>
      <trkpt lat="42.6728826016" lon="-8.1604073569">
        <ele>493.29</ele>
        <time>2020-08-15T06:09:30Z</time>
      </trkpt>
      <trkpt lat="42.6729901414" lon="-8.1606177427">
        <ele>494.26</ele>
        <time>2020-08-15T06:09:41Z</time>
      </trkpt>
      <trkpt lat="42.6730693504" lon="-8.1607961934">
        <ele>494.26</ele>
        <time>2020-08-15T06:09:49Z</time>
      </trkpt>
      <trkpt lat="42.6731578633" lon="-8.1609363388">
        <ele>494.26</ele>
        <time>2020-08-15T06:09:56Z</time>
      </trkpt>
      <trkpt lat="42.6732894592" lon="-8.1611656677">
        <ele>495.22</ele>
        <time>2020-08-15T06:10:06Z</time>
      </trkpt>
      <trkpt lat="42.6733274292" lon="-8.1613440346">
        <ele>496.18</ele>
        <time>2020-08-15T06:10:13Z</time>
      </trkpt>
      <trkpt lat="42.6733341347" lon="-8.1615527440">
        <ele>496.66</ele>
        <time>2020-08-15T06:10:21Z</time>
      </trkpt>
      <trkpt lat="42.6733863540" lon="-8.1617730204">
        <ele>496.66</ele>
        <time>2020-08-15T06:10:29Z</time>
      </trkpt>
      <trkpt lat="42.6735095680" lon="-8.1619808916">
        <ele>495.22</ele>
        <time>2020-08-15T06:10:37Z</time>
      </trkpt>
      <trkpt lat="42.6736693271" lon="-8.1621186901">
        <ele>493.29</ele>
        <time>2020-08-15T06:10:44Z</time>
      </trkpt>
      <trkpt lat="42.6737834048" lon="-8.1623854861">
        <ele>491.37</ele>
        <time>2020-08-15T06:10:50Z</time>
      </trkpt>
      <trkpt lat="42.6739168447" lon="-8.1627084408">
        <ele>489.93</ele>
        <time>2020-08-15T06:10:55Z</time>
      </trkpt>
      <trkpt lat="42.6741838921" lon="-8.1631918252">
        <ele>486.56</ele>
        <time>2020-08-15T06:11:03Z</time>
      </trkpt>
      <trkpt lat="42.6742873248" lon="-8.1633680966">
        <ele>485.12</ele>
        <time>2020-08-15T06:11:06Z</time>
      </trkpt>
      <trkpt lat="42.6745878998" lon="-8.1637634709">
        <ele>481.28</ele>
        <time>2020-08-15T06:11:13Z</time>
      </trkpt>
      <trkpt lat="42.6747860480" lon="-8.1639930513">
        <ele>478.87</ele>
        <time>2020-08-15T06:11:19Z</time>
      </trkpt>
      <trkpt lat="42.6748744771" lon="-8.1639975775">
        <ele>476.95</ele>
        <time>2020-08-15T06:11:23Z</time>
      </trkpt>
      <trkpt lat="42.6748834457" lon="-8.1639851723">
        <ele>476.95</ele>
        <time>2020-08-15T06:11:24Z</time>
      </trkpt>
      <trkpt lat="42.6748898160" lon="-8.1639670674">
        <ele>476.47</ele>
        <time>2020-08-15T06:11:25Z</time>
      </trkpt>
      <trkpt lat="42.6748883910" lon="-8.1639316119">
        <ele>476.47</ele>
        <time>2020-08-15T06:11:27Z</time>
      </trkpt>
      <trkpt lat="42.6748760697" lon="-8.1639136747">
        <ele>476.47</ele>
        <time>2020-08-15T06:11:28Z</time>
      </trkpt>
      <trkpt lat="42.6748596411" lon="-8.1638964079">
        <ele>476.47</ele>
        <time>2020-08-15T06:11:29Z</time>
      </trkpt>
      <trkpt lat="42.6748432964" lon="-8.1638799794">
        <ele>476.47</ele>
        <time>2020-08-15T06:11:30Z</time>
      </trkpt>
      <trkpt lat="42.6748307236" lon="-8.1638639700">
        <ele>476.47</ele>
        <time>2020-08-15T06:11:31Z</time>
      </trkpt>
      <trkpt lat="42.6748199109" lon="-8.1638524029">
        <ele>476.47</ele>
        <time>2020-08-15T06:11:32Z</time>
      </trkpt>
      <trkpt lat="42.6747892331" lon="-8.1638191268">
        <ele>476.47</ele>
        <time>2020-08-15T06:11:36Z</time>
      </trkpt>
      <trkpt lat="42.6747883111" lon="-8.1638043746">
        <ele>476.47</ele>
        <time>2020-08-15T06:11:37Z</time>
      </trkpt>
      <trkpt lat="42.6747916639" lon="-8.1637850124">
        <ele>476.47</ele>
        <time>2020-08-15T06:11:38Z</time>
      </trkpt>
      <trkpt lat="42.6748187374" lon="-8.1637410913">
        <ele>475.99</ele>
        <time>2020-08-15T06:11:41Z</time>
      </trkpt>
      <trkpt lat="42.6749444660" lon="-8.1637647282">
        <ele>475.03</ele>
        <time>2020-08-15T06:11:50Z</time>
      </trkpt>
      <trkpt lat="42.6750525087" lon="-8.1638547499">
        <ele>474.07</ele>
        <time>2020-08-15T06:11:59Z</time>
      </trkpt>
      <trkpt lat="42.6751971804" lon="-8.1639861781">
        <ele>473.59</ele>
        <time>2020-08-15T06:12:11Z</time>
      </trkpt>
      <trkpt lat="42.6753368229" lon="-8.1641541515">
        <ele>473.59</ele>
        <time>2020-08-15T06:12:19Z</time>
      </trkpt>
      <trkpt lat="42.6755198836" lon="-8.1643575802">
        <ele>473.59</ele>
        <time>2020-08-15T06:12:29Z</time>
      </trkpt>
      <trkpt lat="42.6756815705" lon="-8.1644981448">
        <ele>474.07</ele>
        <time>2020-08-15T06:12:36Z</time>
      </trkpt>
      <trkpt lat="42.6759367995" lon="-8.1646279804">
        <ele>475.99</ele>
        <time>2020-08-15T06:12:46Z</time>
      </trkpt>
      <trkpt lat="42.6761761028" lon="-8.1647480931">
        <ele>477.91</ele>
        <time>2020-08-15T06:12:56Z</time>
      </trkpt>
      <trkpt lat="42.6764149033" lon="-8.1648636796">
        <ele>479.84</ele>
        <time>2020-08-15T06:13:06Z</time>
      </trkpt>
      <trkpt lat="42.6766295638" lon="-8.1649606582">
        <ele>481.28</ele>
        <time>2020-08-15T06:13:15Z</time>
      </trkpt>
      <trkpt lat="42.6768308133" lon="-8.1650465727">
        <ele>482.24</ele>
        <time>2020-08-15T06:13:23Z</time>
      </trkpt>
      <trkpt lat="42.6769800112" lon="-8.1651245244">
        <ele>483.20</ele>
        <time>2020-08-15T06:13:31Z</time>
      </trkpt>
      <trkpt lat="42.6771166362" lon="-8.1651800964">
        <ele>484.16</ele>
        <time>2020-08-15T06:13:39Z</time>
      </trkpt>
      <trkpt lat="42.6772841904" lon="-8.1652626581">
        <ele>486.08</ele>
        <time>2020-08-15T06:13:48Z</time>
      </trkpt>
      <trkpt lat="42.6775281038" lon="-8.1653810106">
        <ele>487.53</ele>
        <time>2020-08-15T06:14:00Z</time>
      </trkpt>
      <trkpt lat="42.6777279284" lon="-8.1654759776">
        <ele>488.97</ele>
        <time>2020-08-15T06:14:10Z</time>
      </trkpt>
      <trkpt lat="42.6779364701" lon="-8.1655690167">
        <ele>490.89</ele>
        <time>2020-08-15T06:14:20Z</time>
      </trkpt>
      <trkpt lat="42.6781554054" lon="-8.1656649057">
        <ele>491.85</ele>
        <time>2020-08-15T06:14:30Z</time>
      </trkpt>
      <trkpt lat="42.6783677191" lon="-8.1657663267">
        <ele>492.81</ele>
        <time>2020-08-15T06:14:40Z</time>
      </trkpt>
      <trkpt lat="42.6785727404" lon="-8.1658554263">
        <ele>493.29</ele>
        <time>2020-08-15T06:14:50Z</time>
      </trkpt>
      <trkpt lat="42.6787618361" lon="-8.1659426820">
        <ele>494.26</ele>
        <time>2020-08-15T06:15:00Z</time>
      </trkpt>
      <trkpt lat="42.6787736546" lon="-8.1659533270">
        <ele>494.26</ele>
        <time>2020-08-15T06:15:01Z</time>
      </trkpt>
      <trkpt lat="42.6787837967" lon="-8.1659629662">
        <ele>494.26</ele>
        <time>2020-08-15T06:15:02Z</time>
      </trkpt>
      <trkpt lat="42.6787938550" lon="-8.1659669895">
        <ele>494.26</ele>
        <time>2020-08-15T06:15:03Z</time>
      </trkpt>
      <trkpt lat="42.6788065117" lon="-8.1659581047">
        <ele>494.74</ele>
        <time>2020-08-15T06:15:10Z</time>
      </trkpt>
      <trkpt lat="42.6788110379" lon="-8.1659530755">
        <ele>494.26</ele>
        <time>2020-08-15T06:15:20Z</time>
      </trkpt>
      <trkpt lat="42.6788122952" lon="-8.1659492198">
        <ele>494.26</ele>
        <time>2020-08-15T06:15:33Z</time>
      </trkpt>
      <trkpt lat="42.6788200065" lon="-8.1659548357">
        <ele>493.77</ele>
        <time>2020-08-15T06:15:45Z</time>
      </trkpt>
      <trkpt lat="42.6788413804" lon="-8.1659846753">
        <ele>493.77</ele>
        <time>2020-08-15T06:15:48Z</time>
      </trkpt>
      <trkpt lat="42.6788455714" lon="-8.1660067197">
        <ele>494.26</ele>
        <time>2020-08-15T06:15:49Z</time>
      </trkpt>
      <trkpt lat="42.6788501814" lon="-8.1660231482">
        <ele>494.26</ele>
        <time>2020-08-15T06:15:50Z</time>
      </trkpt>
      <trkpt lat="42.6788536180" lon="-8.1660406664">
        <ele>494.26</ele>
        <time>2020-08-15T06:15:51Z</time>
      </trkpt>
      <trkpt lat="42.6788583957" lon="-8.1660602801">
        <ele>494.26</ele>
        <time>2020-08-15T06:15:52Z</time>
      </trkpt>
      <trkpt lat="42.6788653526" lon="-8.1660768762">
        <ele>494.26</ele>
        <time>2020-08-15T06:15:53Z</time>
      </trkpt>
      <trkpt lat="42.6788727287" lon="-8.1660950650">
        <ele>494.26</ele>
        <time>2020-08-15T06:15:54Z</time>
      </trkpt>
      <trkpt lat="42.6788811944" lon="-8.1661088951">
        <ele>493.77</ele>
        <time>2020-08-15T06:15:55Z</time>
      </trkpt>
      <trkpt lat="42.6788890734" lon="-8.1661185343">
        <ele>493.77</ele>
        <time>2020-08-15T06:15:56Z</time>
      </trkpt>
      <trkpt lat="42.6788961980" lon="-8.1661312748">
        <ele>494.26</ele>
        <time>2020-08-15T06:15:57Z</time>
      </trkpt>
      <trkpt lat="42.6789132971" lon="-8.1661933847">
        <ele>493.77</ele>
        <time>2020-08-15T06:16:01Z</time>
      </trkpt>
      <trkpt lat="42.6790218428" lon="-8.1663399003">
        <ele>492.81</ele>
        <time>2020-08-15T06:16:08Z</time>
      </trkpt>
      <trkpt lat="42.6792463940" lon="-8.1665455084">
        <ele>491.85</ele>
        <time>2020-08-15T06:16:15Z</time>
      </trkpt>
      <trkpt lat="42.6793891378" lon="-8.1667059381">
        <ele>491.37</ele>
        <time>2020-08-15T06:16:19Z</time>
      </trkpt>
      <trkpt lat="42.6794627309" lon="-8.1667879131">
        <ele>490.89</ele>
        <time>2020-08-15T06:16:21Z</time>
      </trkpt>
      <trkpt lat="42.6794975158" lon="-8.1668361928">
        <ele>490.89</ele>
        <time>2020-08-15T06:16:22Z</time>
      </trkpt>
      <trkpt lat="42.6796317101" lon="-8.1670576427">
        <ele>490.41</ele>
        <time>2020-08-15T06:16:26Z</time>
      </trkpt>
      <trkpt lat="42.6796949934" lon="-8.1672018953">
        <ele>490.41</ele>
        <time>2020-08-15T06:16:28Z</time>
      </trkpt>
      <trkpt lat="42.6797164511" lon="-8.1672660168">
        <ele>490.41</ele>
        <time>2020-08-15T06:16:29Z</time>
      </trkpt>
      <trkpt lat="42.6798291877" lon="-8.1677963398">
        <ele>487.53</ele>
        <time>2020-08-15T06:16:36Z</time>
      </trkpt>
      <trkpt lat="42.6799432654" lon="-8.1683829892">
        <ele>482.72</ele>
        <time>2020-08-15T06:16:43Z</time>
      </trkpt>
      <trkpt lat="42.6800050400" lon="-8.1686590891">
        <ele>480.80</ele>
        <time>2020-08-15T06:16:48Z</time>
      </trkpt>
      <trkpt lat="42.6801280864" lon="-8.1689589936">
        <ele>479.35</ele>
        <time>2020-08-15T06:16:55Z</time>
      </trkpt>
      <trkpt lat="42.6802204549" lon="-8.1690996420">
        <ele>477.43</ele>
        <time>2020-08-15T06:17:00Z</time>
      </trkpt>
      <trkpt lat="42.6802652143" lon="-8.1691558845">
        <ele>475.03</ele>
        <time>2020-08-15T06:17:06Z</time>
      </trkpt>
      <trkpt lat="42.6802641246" lon="-8.1691525318">
        <ele>475.03</ele>
        <time>2020-08-15T06:17:19Z</time>
      </trkpt>
      <trkpt lat="42.6802640408" lon="-8.1691704690">
        <ele>475.51</ele>
        <time>2020-08-15T06:17:33Z</time>
      </trkpt>
      <trkpt lat="42.6803450100" lon="-8.1692552939">
        <ele>474.55</ele>
        <time>2020-08-15T06:17:38Z</time>
      </trkpt>
      <trkpt lat="42.6805636939" lon="-8.1694191601">
        <ele>472.63</ele>
        <time>2020-08-15T06:17:45Z</time>
      </trkpt>
      <trkpt lat="42.6807674579" lon="-8.1695746444">
        <ele>472.63</ele>
        <time>2020-08-15T06:17:51Z</time>
      </trkpt>
      <trkpt lat="42.6809656899" lon="-8.1698282808">
        <ele>472.63</ele>
        <time>2020-08-15T06:17:58Z</time>
      </trkpt>
      <trkpt lat="42.6810008101" lon="-8.1699065678">
        <ele>472.14</ele>
        <time>2020-08-15T06:18:00Z</time>
      </trkpt>
      <trkpt lat="42.6810010616" lon="-8.1699455436">
        <ele>472.14</ele>
        <time>2020-08-15T06:18:01Z</time>
      </trkpt>
      <trkpt lat="42.6809965353" lon="-8.1699897163">
        <ele>472.14</ele>
        <time>2020-08-15T06:18:02Z</time>
      </trkpt>
      <trkpt lat="42.6809871476" lon="-8.1700385828">
        <ele>471.66</ele>
        <time>2020-08-15T06:18:03Z</time>
      </trkpt>
      <trkpt lat="42.6809745748" lon="-8.1700835936">
        <ele>471.66</ele>
        <time>2020-08-15T06:18:04Z</time>
      </trkpt>
      <trkpt lat="42.6809602417" lon="-8.1701208092">
        <ele>471.66</ele>
        <time>2020-08-15T06:18:05Z</time>
      </trkpt>
      <trkpt lat="42.6809452381" lon="-8.1701636408">
        <ele>471.66</ele>
        <time>2020-08-15T06:18:06Z</time>
      </trkpt>
      <trkpt lat="42.6809232775" lon="-8.1702005211">
        <ele>471.18</ele>
        <time>2020-08-15T06:18:07Z</time>
      </trkpt>
      <trkpt lat="42.6809014846" lon="-8.1702407543">
        <ele>470.70</ele>
        <time>2020-08-15T06:18:08Z</time>
      </trkpt>
      <trkpt lat="42.6808335073" lon="-8.1704663113">
        <ele>469.26</ele>
        <time>2020-08-15T06:18:14Z</time>
      </trkpt>
      <trkpt lat="42.6807832997" lon="-8.1706445944">
        <ele>468.78</ele>
        <time>2020-08-15T06:18:20Z</time>
      </trkpt>
      <trkpt lat="42.6807584893" lon="-8.1709768530">
        <ele>469.26</ele>
        <time>2020-08-15T06:18:28Z</time>
      </trkpt>
      <trkpt lat="42.6807773486" lon="-8.1711271405">
        <ele>469.26</ele>
        <time>2020-08-15T06:18:33Z</time>
      </trkpt>
      <trkpt lat="42.6808202639" lon="-8.1713043340">
        <ele>470.22</ele>
        <time>2020-08-15T06:18:40Z</time>
      </trkpt>
      <trkpt lat="42.6808724832" lon="-8.1715501752">
        <ele>471.18</ele>
        <time>2020-08-15T06:18:49Z</time>
      </trkpt>
      <trkpt lat="42.6809184160" lon="-8.1717564538">
        <ele>471.18</ele>
        <time>2020-08-15T06:18:57Z</time>
      </trkpt>
      <trkpt lat="42.6809773408" lon="-8.1718924083">
        <ele>473.11</ele>
        <time>2020-08-15T06:19:04Z</time>
      </trkpt>
      <trkpt lat="42.6811039913" lon="-8.1720679253">
        <ele>473.59</ele>
        <time>2020-08-15T06:19:12Z</time>
      </trkpt>
      <trkpt lat="42.6812340785" lon="-8.1722063944">
        <ele>474.07</ele>
        <time>2020-08-15T06:19:20Z</time>
      </trkpt>
      <trkpt lat="42.6813314762" lon="-8.1723553408">
        <ele>475.51</ele>
        <time>2020-08-15T06:19:28Z</time>
      </trkpt>
      <trkpt lat="42.6813678537" lon="-8.1724764593">
        <ele>476.95</ele>
        <time>2020-08-15T06:19:33Z</time>
      </trkpt>
      <trkpt lat="42.6813750621" lon="-8.1725009345">
        <ele>476.95</ele>
        <time>2020-08-15T06:19:34Z</time>
      </trkpt>
      <trkpt lat="42.6814108528" lon="-8.1726497132">
        <ele>477.91</ele>
        <time>2020-08-15T06:19:41Z</time>
      </trkpt>
      <trkpt lat="42.6814431231" lon="-8.1727972347">
        <ele>478.87</ele>
        <time>2020-08-15T06:19:47Z</time>
      </trkpt>
      <trkpt lat="42.6814495772" lon="-8.1728175189">
        <ele>479.35</ele>
        <time>2020-08-15T06:19:48Z</time>
      </trkpt>
      <trkpt lat="42.6814566180" lon="-8.1728401501">
        <ele>479.35</ele>
        <time>2020-08-15T06:19:49Z</time>
      </trkpt>
      <trkpt lat="42.6814667601" lon="-8.1728645414">
        <ele>479.84</ele>
        <time>2020-08-15T06:19:50Z</time>
      </trkpt>
      <trkpt lat="42.6814769860" lon="-8.1728896871">
        <ele>479.84</ele>
        <time>2020-08-15T06:19:51Z</time>
      </trkpt>
      <trkpt lat="42.6814877149" lon="-8.1729170121">
        <ele>479.84</ele>
        <time>2020-08-15T06:19:52Z</time>
      </trkpt>
      <trkpt lat="42.6815447956" lon="-8.1731530465">
        <ele>481.76</ele>
        <time>2020-08-15T06:20:01Z</time>
      </trkpt>
      <trkpt lat="42.6815456338" lon="-8.1733886618">
        <ele>480.32</ele>
        <time>2020-08-15T06:20:09Z</time>
      </trkpt>
      <trkpt lat="42.6814758126" lon="-8.1736197509">
        <ele>478.39</ele>
        <time>2020-08-15T06:20:16Z</time>
      </trkpt>
      <trkpt lat="42.6813837793" lon="-8.1738101039">
        <ele>476.95</ele>
        <time>2020-08-15T06:20:24Z</time>
      </trkpt>
      <trkpt lat="42.6813216694" lon="-8.1741412729">
        <ele>472.63</ele>
        <time>2020-08-15T06:20:33Z</time>
      </trkpt>
      <trkpt lat="42.6812278759" lon="-8.1744405068">
        <ele>469.74</ele>
        <time>2020-08-15T06:20:42Z</time>
      </trkpt>
      <trkpt lat="42.6810819469" lon="-8.1747855060">
        <ele>467.82</ele>
        <time>2020-08-15T06:20:53Z</time>
      </trkpt>
      <trkpt lat="42.6809034124" lon="-8.1750709936">
        <ele>465.90</ele>
        <time>2020-08-15T06:21:03Z</time>
      </trkpt>
      <trkpt lat="42.6807854790" lon="-8.1753125601">
        <ele>465.42</ele>
        <time>2020-08-15T06:21:10Z</time>
      </trkpt>
      <trkpt lat="42.6806449983" lon="-8.1756324135">
        <ele>465.42</ele>
        <time>2020-08-15T06:21:19Z</time>
      </trkpt>
      <trkpt lat="42.6806294918" lon="-8.1757900771">
        <ele>465.42</ele>
        <time>2020-08-15T06:21:25Z</time>
      </trkpt>
      <trkpt lat="42.6806548052" lon="-8.1759487465">
        <ele>465.42</ele>
        <time>2020-08-15T06:21:31Z</time>
      </trkpt>
      <trkpt lat="42.6806610078" lon="-8.1759709585">
        <ele>465.42</ele>
        <time>2020-08-15T06:21:32Z</time>
      </trkpt>
      <trkpt lat="42.6806704793" lon="-8.1759924162">
        <ele>465.42</ele>
        <time>2020-08-15T06:21:33Z</time>
      </trkpt>
      <trkpt lat="42.6806792803" lon="-8.1760126166">
        <ele>465.90</ele>
        <time>2020-08-15T06:21:34Z</time>
      </trkpt>
      <trkpt lat="42.6807704754" lon="-8.1761789136">
        <ele>466.86</ele>
        <time>2020-08-15T06:21:43Z</time>
      </trkpt>
      <trkpt lat="42.6808950305" lon="-8.1763572805">
        <ele>470.70</ele>
        <time>2020-08-15T06:21:54Z</time>
      </trkpt>
      <trkpt lat="42.6809745748" lon="-8.1765573565">
        <ele>471.66</ele>
        <time>2020-08-15T06:22:03Z</time>
      </trkpt>
      <trkpt lat="42.6810140535" lon="-8.1767513137">
        <ele>473.59</ele>
        <time>2020-08-15T06:22:11Z</time>
      </trkpt>
      <trkpt lat="42.6810265426" lon="-8.1769877672">
        <ele>473.59</ele>
        <time>2020-08-15T06:22:20Z</time>
      </trkpt>
      <trkpt lat="42.6810221840" lon="-8.1772160064">
        <ele>472.63</ele>
        <time>2020-08-15T06:22:27Z</time>
      </trkpt>
      <trkpt lat="42.6810492575" lon="-8.1774068624">
        <ele>472.63</ele>
        <time>2020-08-15T06:22:33Z</time>
      </trkpt>
      <trkpt lat="42.6811288018" lon="-8.1778062601">
        <ele>471.66</ele>
        <time>2020-08-15T06:22:43Z</time>
      </trkpt>
      <trkpt lat="42.6811950188" lon="-8.1781316455">
        <ele>471.66</ele>
        <time>2020-08-15T06:22:51Z</time>
      </trkpt>
      <trkpt lat="42.6812543627" lon="-8.1785199791">
        <ele>470.70</ele>
        <time>2020-08-15T06:23:00Z</time>
      </trkpt>
      <trkpt lat="42.6813002117" lon="-8.1787988450">
        <ele>469.26</ele>
        <time>2020-08-15T06:23:07Z</time>
      </trkpt>
      <trkpt lat="42.6813548617" lon="-8.1791009288">
        <ele>467.82</ele>
        <time>2020-08-15T06:23:14Z</time>
      </trkpt>
      <trkpt lat="42.6814007945" lon="-8.1793681439">
        <ele>466.38</ele>
        <time>2020-08-15T06:23:19Z</time>
      </trkpt>
      <trkpt lat="42.6814246830" lon="-8.1796033401">
        <ele>465.90</ele>
        <time>2020-08-15T06:23:23Z</time>
      </trkpt>
      <trkpt lat="42.6815422811" lon="-8.1800257880">
        <ele>465.90</ele>
        <time>2020-08-15T06:23:30Z</time>
      </trkpt>
      <trkpt lat="42.6816682611" lon="-8.1802890636">
        <ele>464.93</ele>
        <time>2020-08-15T06:23:36Z</time>
      </trkpt>
      <trkpt lat="42.6817071531" lon="-8.1803168077">
        <ele>464.93</ele>
        <time>2020-08-15T06:23:38Z</time>
      </trkpt>
      <trkpt lat="42.6817249227" lon="-8.1803132873">
        <ele>464.93</ele>
        <time>2020-08-15T06:23:39Z</time>
      </trkpt>
      <trkpt lat="42.6817402616" lon="-8.1803075038">
        <ele>464.45</ele>
        <time>2020-08-15T06:23:40Z</time>
      </trkpt>
      <trkpt lat="42.6818652358" lon="-8.1802469026">
        <ele>464.45</ele>
        <time>2020-08-15T06:23:45Z</time>
      </trkpt>
      <trkpt lat="42.6820546668" lon="-8.1801382732">
        <ele>464.93</ele>
        <time>2020-08-15T06:23:53Z</time>
      </trkpt>
      <trkpt lat="42.6820759568" lon="-8.1801381055">
        <ele>465.42</ele>
        <time>2020-08-15T06:23:54Z</time>
      </trkpt>
      <trkpt lat="42.6820983365" lon="-8.1801455654">
        <ele>465.42</ele>
        <time>2020-08-15T06:23:55Z</time>
      </trkpt>
      <trkpt lat="42.6821246557" lon="-8.1801619940">
        <ele>465.42</ele>
        <time>2020-08-15T06:23:56Z</time>
      </trkpt>
      <trkpt lat="42.6821482088" lon="-8.1801926717">
        <ele>464.93</ele>
        <time>2020-08-15T06:23:57Z</time>
      </trkpt>
      <trkpt lat="42.6821658947" lon="-8.1802287139">
        <ele>464.93</ele>
        <time>2020-08-15T06:23:58Z</time>
      </trkpt>
      <trkpt lat="42.6821830776" lon="-8.1802745629">
        <ele>464.93</ele>
        <time>2020-08-15T06:23:59Z</time>
      </trkpt>
      <trkpt lat="42.6821992546" lon="-8.1803274527">
        <ele>464.45</ele>
        <time>2020-08-15T06:24:00Z</time>
      </trkpt>
      <trkpt lat="42.6822144259" lon="-8.1803834438">
        <ele>464.45</ele>
        <time>2020-08-15T06:24:01Z</time>
      </trkpt>
      <trkpt lat="42.6823523082" lon="-8.1809037924">
        <ele>463.01</ele>
        <time>2020-08-15T06:24:09Z</time>
      </trkpt>
      <trkpt lat="42.6825235505" lon="-8.1815046910">
        <ele>460.61</ele>
        <time>2020-08-15T06:24:16Z</time>
      </trkpt>
      <trkpt lat="42.6827217825" lon="-8.1822054181">
        <ele>458.21</ele>
        <time>2020-08-15T06:24:23Z</time>
      </trkpt>
      <trkpt lat="42.6830589026" lon="-8.1834582612">
        <ele>453.88</ele>
        <time>2020-08-15T06:24:36Z</time>
      </trkpt>
      <trkpt lat="42.6833116170" lon="-8.1843904126">
        <ele>451.00</ele>
        <time>2020-08-15T06:24:46Z</time>
      </trkpt>
      <trkpt lat="42.6835299656" lon="-8.1854606140">
        <ele>447.15</ele>
        <time>2020-08-15T06:24:56Z</time>
      </trkpt>
      <trkpt lat="42.6837536786" lon="-8.1867080927">
        <ele>441.86</ele>
        <time>2020-08-15T06:25:06Z</time>
      </trkpt>
      <trkpt lat="42.6839040499" lon="-8.1877981592">
        <ele>438.02</ele>
        <time>2020-08-15T06:25:14Z</time>
      </trkpt>
      <trkpt lat="42.6838891301" lon="-8.1887219287">
        <ele>435.61</ele>
        <time>2020-08-15T06:25:21Z</time>
      </trkpt>
      <trkpt lat="42.6838260982" lon="-8.1895066425">
        <ele>435.13</ele>
        <time>2020-08-15T06:25:28Z</time>
      </trkpt>
      <trkpt lat="42.6837723702" lon="-8.1902030110">
        <ele>436.10</ele>
        <time>2020-08-15T06:25:36Z</time>
      </trkpt>
      <trkpt lat="42.6837295387" lon="-8.1907573901">
        <ele>436.58</ele>
        <time>2020-08-15T06:25:45Z</time>
      </trkpt>
      <trkpt lat="42.6836800016" lon="-8.1912820134">
        <ele>437.06</ele>
        <time>2020-08-15T06:25:55Z</time>
      </trkpt>
      <trkpt lat="42.6836336497" lon="-8.1918380689">
        <ele>437.06</ele>
        <time>2020-08-15T06:26:05Z</time>
      </trkpt>
      <trkpt lat="42.6835810952" lon="-8.1924994010">
        <ele>436.10</ele>
        <time>2020-08-15T06:26:16Z</time>
      </trkpt>
      <trkpt lat="42.6835263614" lon="-8.1931616552">
        <ele>434.65</ele>
        <time>2020-08-15T06:26:25Z</time>
      </trkpt>
      <trkpt lat="42.6834557857" lon="-8.1940578483">
        <ele>432.25</ele>
        <time>2020-08-15T06:26:35Z</time>
      </trkpt>
      <trkpt lat="42.6834269520" lon="-8.1949257944">
        <ele>428.40</ele>
        <time>2020-08-15T06:26:44Z</time>
      </trkpt>
      <trkpt lat="42.6834604796" lon="-8.1955357455">
        <ele>425.52</ele>
        <time>2020-08-15T06:26:51Z</time>
      </trkpt>
      <trkpt lat="42.6835655887" lon="-8.1962782145">
        <ele>422.16</ele>
        <time>2020-08-15T06:26:59Z</time>
      </trkpt>
      <trkpt lat="42.6837347355" lon="-8.1968942843">
        <ele>419.27</ele>
        <time>2020-08-15T06:27:05Z</time>
      </trkpt>
      <trkpt lat="42.6840162836" lon="-8.1976335682">
        <ele>415.91</ele>
        <time>2020-08-15T06:27:13Z</time>
      </trkpt>
      <trkpt lat="42.6843743585" lon="-8.1985135004">
        <ele>411.58</ele>
        <time>2020-08-15T06:27:22Z</time>
      </trkpt>
      <trkpt lat="42.6847289130" lon="-8.1993685383">
        <ele>407.26</ele>
        <time>2020-08-15T06:27:32Z</time>
      </trkpt>
      <trkpt lat="42.6850442402" lon="-8.2001366559">
        <ele>404.85</ele>
        <time>2020-08-15T06:27:41Z</time>
      </trkpt>
      <trkpt lat="42.6853956934" lon="-8.2009768579">
        <ele>402.45</ele>
        <time>2020-08-15T06:27:51Z</time>
      </trkpt>
      <trkpt lat="42.6857369207" lon="-8.2018117793">
        <ele>401.01</ele>
        <time>2020-08-15T06:28:02Z</time>
      </trkpt>
      <trkpt lat="42.6859789900" lon="-8.2023937348">
        <ele>401.01</ele>
        <time>2020-08-15T06:28:11Z</time>
      </trkpt>
      <trkpt lat="42.6862015296" lon="-8.2029354572">
        <ele>401.97</ele>
        <time>2020-08-15T06:28:20Z</time>
      </trkpt>
      <trkpt lat="42.6864285953" lon="-8.2034952845">
        <ele>404.37</ele>
        <time>2020-08-15T06:28:30Z</time>
      </trkpt>
      <trkpt lat="42.6866012625" lon="-8.2039572112">
        <ele>405.33</ele>
        <time>2020-08-15T06:28:39Z</time>
      </trkpt>
      <trkpt lat="42.6867737621" lon="-8.2045128476">
        <ele>405.81</ele>
        <time>2020-08-15T06:28:50Z</time>
      </trkpt>
      <trkpt lat="42.6868606824" lon="-8.2048746105">
        <ele>405.81</ele>
        <time>2020-08-15T06:28:58Z</time>
      </trkpt>
      <trkpt lat="42.6869359519" lon="-8.2053056080">
        <ele>406.77</ele>
        <time>2020-08-15T06:29:08Z</time>
      </trkpt>
      <trkpt lat="42.6869825553" lon="-8.2056929357">
        <ele>407.74</ele>
        <time>2020-08-15T06:29:17Z</time>
      </trkpt>
      <trkpt lat="42.6870066114" lon="-8.2061681058">
        <ele>408.22</ele>
        <time>2020-08-15T06:29:28Z</time>
      </trkpt>
      <trkpt lat="42.6870059408" lon="-8.2066382468">
        <ele>409.18</ele>
        <time>2020-08-15T06:29:40Z</time>
      </trkpt>
      <trkpt lat="42.6869797055" lon="-8.2070532348">
        <ele>410.14</ele>
        <time>2020-08-15T06:29:51Z</time>
      </trkpt>
      <trkpt lat="42.6869445015" lon="-8.2074197754">
        <ele>411.58</ele>
        <time>2020-08-15T06:30:01Z</time>
      </trkpt>
      <trkpt lat="42.6869084593" lon="-8.2077459991">
        <ele>412.54</ele>
        <time>2020-08-15T06:30:10Z</time>
      </trkpt>
      <trkpt lat="42.6868657116" lon="-8.2081593946">
        <ele>413.98</ele>
        <time>2020-08-15T06:30:22Z</time>
      </trkpt>
      <trkpt lat="42.6868257299" lon="-8.2085599657">
        <ele>414.95</ele>
        <time>2020-08-15T06:30:34Z</time>
      </trkpt>
      <trkpt lat="42.6867739297" lon="-8.2090446074">
        <ele>416.87</ele>
        <time>2020-08-15T06:30:48Z</time>
      </trkpt>
      <trkpt lat="42.6867202017" lon="-8.2095230464">
        <ele>417.83</ele>
        <time>2020-08-15T06:31:02Z</time>
      </trkpt>
      <trkpt lat="42.6866765320" lon="-8.2099468354">
        <ele>418.79</ele>
        <time>2020-08-15T06:31:14Z</time>
      </trkpt>
      <trkpt lat="42.6866337005" lon="-8.2103231829">
        <ele>419.27</ele>
        <time>2020-08-15T06:31:25Z</time>
      </trkpt>
      <trkpt lat="42.6865909528" lon="-8.2106841076">
        <ele>420.23</ele>
        <time>2020-08-15T06:31:36Z</time>
      </trkpt>
      <trkpt lat="42.6865459420" lon="-8.2110853493">
        <ele>421.19</ele>
        <time>2020-08-15T06:31:48Z</time>
      </trkpt>
      <trkpt lat="42.6865129173" lon="-8.2114220504">
        <ele>422.64</ele>
        <time>2020-08-15T06:31:58Z</time>
      </trkpt>
      <trkpt lat="42.6864700019" lon="-8.2118171733">
        <ele>424.08</ele>
        <time>2020-08-15T06:32:10Z</time>
      </trkpt>
      <trkpt lat="42.6864343788" lon="-8.2121640164">
        <ele>424.56</ele>
        <time>2020-08-15T06:32:20Z</time>
      </trkpt>
      <trkpt lat="42.6863954868" lon="-8.2124760747">
        <ele>426.48</ele>
        <time>2020-08-15T06:32:29Z</time>
      </trkpt>
      <trkpt lat="42.6863626298" lon="-8.2127902284">
        <ele>427.92</ele>
        <time>2020-08-15T06:32:38Z</time>
      </trkpt>
      <trkpt lat="42.6863208879" lon="-8.2131408434">
        <ele>428.89</ele>
        <time>2020-08-15T06:32:48Z</time>
      </trkpt>
      <trkpt lat="42.6862805709" lon="-8.2135166880">
        <ele>429.85</ele>
        <time>2020-08-15T06:32:59Z</time>
      </trkpt>
      <trkpt lat="42.6862413436" lon="-8.2138926163">
        <ele>430.81</ele>
        <time>2020-08-15T06:33:10Z</time>
      </trkpt>
      <trkpt lat="42.6862028707" lon="-8.2142253779">
        <ele>432.25</ele>
        <time>2020-08-15T06:33:20Z</time>
      </trkpt>
      <trkpt lat="42.6861700974" lon="-8.2145415433">
        <ele>432.73</ele>
        <time>2020-08-15T06:33:30Z</time>
      </trkpt>
      <trkpt lat="42.6861374080" lon="-8.2148309704">
        <ele>434.65</ele>
        <time>2020-08-15T06:33:39Z</time>
      </trkpt>
      <trkpt lat="42.6861016173" lon="-8.2151317969">
        <ele>437.06</ele>
        <time>2020-08-15T06:33:49Z</time>
      </trkpt>
      <trkpt lat="42.6860670839" lon="-8.2155494671">
        <ele>437.06</ele>
        <time>2020-08-15T06:34:02Z</time>
      </trkpt>
      <trkpt lat="42.6860473026" lon="-8.2158049475">
        <ele>438.98</ele>
        <time>2020-08-15T06:34:10Z</time>
      </trkpt>
      <trkpt lat="42.6860402618" lon="-8.2161161676">
        <ele>439.94</ele>
        <time>2020-08-15T06:34:20Z</time>
      </trkpt>
      <trkpt lat="42.6860400941" lon="-8.2163750008">
        <ele>439.94</ele>
        <time>2020-08-15T06:34:29Z</time>
      </trkpt>
      <trkpt lat="42.6860662457" lon="-8.2166813593">
        <ele>440.90</ele>
        <time>2020-08-15T06:34:39Z</time>
      </trkpt>
      <trkpt lat="42.6861103345" lon="-8.2170354947">
        <ele>441.86</ele>
        <time>2020-08-15T06:34:51Z</time>
      </trkpt>
      <trkpt lat="42.6861548424" lon="-8.2173202280">
        <ele>442.82</ele>
        <time>2020-08-15T06:35:01Z</time>
      </trkpt>
      <trkpt lat="42.6862175390" lon="-8.2175990101">
        <ele>445.23</ele>
        <time>2020-08-15T06:35:11Z</time>
      </trkpt>
      <trkpt lat="42.6862872764" lon="-8.2178568374">
        <ele>446.67</ele>
        <time>2020-08-15T06:35:21Z</time>
      </trkpt>
      <trkpt lat="42.6863870211" lon="-8.2181374636">
        <ele>448.11</ele>
        <time>2020-08-15T06:35:32Z</time>
      </trkpt>
      <trkpt lat="42.6864901185" lon="-8.2183781918">
        <ele>449.55</ele>
        <time>2020-08-15T06:35:42Z</time>
      </trkpt>
      <trkpt lat="42.6865082234" lon="-8.2184089534">
        <ele>450.03</ele>
        <time>2020-08-15T06:35:49Z</time>
      </trkpt>
      <trkpt lat="42.6865101513" lon="-8.2184016611">
        <ele>449.55</ele>
        <time>2020-08-15T06:36:02Z</time>
      </trkpt>
      <trkpt lat="42.6865121629" lon="-8.2184118032">
        <ele>450.03</ele>
        <time>2020-08-15T06:36:13Z</time>
      </trkpt>
      <trkpt lat="42.6865113247" lon="-8.2184277289">
        <ele>451.00</ele>
        <time>2020-08-15T06:36:25Z</time>
      </trkpt>
      <trkpt lat="42.6865162700" lon="-8.2184169162">
        <ele>450.03</ele>
        <time>2020-08-15T06:36:35Z</time>
      </trkpt>
      <trkpt lat="42.6865269989" lon="-8.2184366137">
        <ele>449.55</ele>
        <time>2020-08-15T06:36:46Z</time>
      </trkpt>
      <trkpt lat="42.6866167691" lon="-8.2186118793">
        <ele>450.52</ele>
        <time>2020-08-15T06:36:55Z</time>
      </trkpt>
      <trkpt lat="42.6867106464" lon="-8.2187893242">
        <ele>450.52</ele>
        <time>2020-08-15T06:37:04Z</time>
      </trkpt>
      <trkpt lat="42.6868149173" lon="-8.2188826986">
        <ele>450.52</ele>
        <time>2020-08-15T06:37:12Z</time>
      </trkpt>
      <trkpt lat="42.6868118998" lon="-8.2188751549">
        <ele>450.52</ele>
        <time>2020-08-15T06:37:18Z</time>
      </trkpt>
      <trkpt lat="42.6868049428" lon="-8.2188788429">
        <ele>450.52</ele>
        <time>2020-08-15T06:37:34Z</time>
      </trkpt>
      <trkpt lat="42.6868127380" lon="-8.2188577205">
        <ele>451.96</ele>
        <time>2020-08-15T06:37:53Z</time>
      </trkpt>
      <trkpt lat="42.6868191920" lon="-8.2188444771">
        <ele>452.92</ele>
        <time>2020-08-15T06:38:15Z</time>
      </trkpt>
      <trkpt lat="42.6868009195" lon="-8.2188596483">
        <ele>451.00</ele>
        <time>2020-08-15T06:38:32Z</time>
      </trkpt>
      <trkpt lat="42.6868014224" lon="-8.2188877277">
        <ele>448.59</ele>
        <time>2020-08-15T06:38:47Z</time>
      </trkpt>
      <trkpt lat="42.6868035179" lon="-8.2188922539">
        <ele>449.55</ele>
        <time>2020-08-15T06:38:54Z</time>
      </trkpt>
      <trkpt lat="42.6868055295" lon="-8.2189018093">
        <ele>449.55</ele>
        <time>2020-08-15T06:38:55Z</time>
      </trkpt>
      <trkpt lat="42.6868067030" lon="-8.2189190760">
        <ele>449.55</ele>
        <time>2020-08-15T06:38:56Z</time>
      </trkpt>
      <trkpt lat="42.6868073735" lon="-8.2189431321">
        <ele>449.55</ele>
        <time>2020-08-15T06:38:57Z</time>
      </trkpt>
      <trkpt lat="42.6868098043" lon="-8.2189662661">
        <ele>449.55</ele>
        <time>2020-08-15T06:38:58Z</time>
      </trkpt>
      <trkpt lat="42.6868191920" lon="-8.2189867180">
        <ele>450.03</ele>
        <time>2020-08-15T06:38:59Z</time>
      </trkpt>
      <trkpt lat="42.6868352015" lon="-8.2190068346">
        <ele>450.03</ele>
        <time>2020-08-15T06:39:00Z</time>
      </trkpt>
      <trkpt lat="42.6868462656" lon="-8.2190204971">
        <ele>450.03</ele>
        <time>2020-08-15T06:39:01Z</time>
      </trkpt>
      <trkpt lat="42.6868637837" lon="-8.2190425415">
        <ele>450.52</ele>
        <time>2020-08-15T06:39:02Z</time>
      </trkpt>
      <trkpt lat="42.6868792903" lon="-8.2190630771">
        <ele>450.52</ele>
        <time>2020-08-15T06:39:03Z</time>
      </trkpt>
      <trkpt lat="42.6868935395" lon="-8.2190857083">
        <ele>451.00</ele>
        <time>2020-08-15T06:39:04Z</time>
      </trkpt>
      <trkpt lat="42.6869952958" lon="-8.2192228362">
        <ele>451.48</ele>
        <time>2020-08-15T06:39:11Z</time>
      </trkpt>
      <trkpt lat="42.6871750038" lon="-8.2194286119">
        <ele>451.48</ele>
        <time>2020-08-15T06:39:19Z</time>
      </trkpt>
      <trkpt lat="42.6874110382" lon="-8.2196654007">
        <ele>452.44</ele>
        <time>2020-08-15T06:39:28Z</time>
      </trkpt>
      <trkpt lat="42.6876330748" lon="-8.2198495511">
        <ele>453.40</ele>
        <time>2020-08-15T06:39:36Z</time>
      </trkpt>
      <trkpt lat="42.6879538503" lon="-8.2200727612">
        <ele>453.40</ele>
        <time>2020-08-15T06:39:46Z</time>
      </trkpt>
      <trkpt lat="42.6882684231" lon="-8.2202670537">
        <ele>452.92</ele>
        <time>2020-08-15T06:39:55Z</time>
      </trkpt>
      <trkpt lat="42.6885881089" lon="-8.2204588316">
        <ele>452.92</ele>
        <time>2020-08-15T06:40:03Z</time>
      </trkpt>
      <trkpt lat="42.6888699923" lon="-8.2206339296">
        <ele>451.96</ele>
        <time>2020-08-15T06:40:10Z</time>
      </trkpt>
      <trkpt lat="42.6890973933" lon="-8.2207880728">
        <ele>452.44</ele>
        <time>2020-08-15T06:40:16Z</time>
      </trkpt>
      <trkpt lat="42.6891714055" lon="-8.2208315749">
        <ele>452.92</ele>
        <time>2020-08-15T06:40:18Z</time>
      </trkpt>
      <trkpt lat="42.6892086212" lon="-8.2208555471">
        <ele>452.92</ele>
        <time>2020-08-15T06:40:19Z</time>
      </trkpt>
      <trkpt lat="42.6896103658" lon="-8.2211188227">
        <ele>454.36</ele>
        <time>2020-08-15T06:40:29Z</time>
      </trkpt>
      <trkpt lat="42.6899137907" lon="-8.2213582098">
        <ele>455.80</ele>
        <time>2020-08-15T06:40:38Z</time>
      </trkpt>
      <trkpt lat="42.6901748870" lon="-8.2216237485">
        <ele>457.72</ele>
        <time>2020-08-15T06:40:47Z</time>
      </trkpt>
      <trkpt lat="42.6903412677" lon="-8.2218292728">
        <ele>460.13</ele>
        <time>2020-08-15T06:40:53Z</time>
      </trkpt>
      <trkpt lat="42.6905574370" lon="-8.2221366372">
        <ele>462.05</ele>
        <time>2020-08-15T06:41:02Z</time>
      </trkpt>
      <trkpt lat="42.6907433476" lon="-8.2223943807">
        <ele>462.53</ele>
        <time>2020-08-15T06:41:11Z</time>
      </trkpt>
      <trkpt lat="42.6909274142" lon="-8.2226816285">
        <ele>463.49</ele>
        <time>2020-08-15T06:41:21Z</time>
      </trkpt>
      <trkpt lat="42.6911339443" lon="-8.2229763363">
        <ele>463.97</ele>
        <time>2020-08-15T06:41:32Z</time>
      </trkpt>
      <trkpt lat="42.6913047675" lon="-8.2232053299">
        <ele>464.93</ele>
        <time>2020-08-15T06:41:42Z</time>
      </trkpt>
      <trkpt lat="42.6914782729" lon="-8.2234513387">
        <ele>466.38</ele>
        <time>2020-08-15T06:41:52Z</time>
      </trkpt>
      <trkpt lat="42.6916764211" lon="-8.2237556856">
        <ele>467.82</ele>
        <time>2020-08-15T06:42:04Z</time>
      </trkpt>
      <trkpt lat="42.6918124594" lon="-8.2239549235">
        <ele>468.30</ele>
        <time>2020-08-15T06:42:12Z</time>
      </trkpt>
      <trkpt lat="42.6920238510" lon="-8.2242580131">
        <ele>467.82</ele>
        <time>2020-08-15T06:42:24Z</time>
      </trkpt>
      <trkpt lat="42.6921955962" lon="-8.2245132420">
        <ele>468.30</ele>
        <time>2020-08-15T06:42:33Z</time>
      </trkpt>
      <trkpt lat="42.6924294513" lon="-8.2248567324">
        <ele>467.82</ele>
        <time>2020-08-15T06:42:44Z</time>
      </trkpt>
      <trkpt lat="42.6926922239" lon="-8.2252538670">
        <ele>467.82</ele>
        <time>2020-08-15T06:42:55Z</time>
      </trkpt>
      <trkpt lat="42.6928992569" lon="-8.2255661767">
        <ele>466.86</ele>
        <time>2020-08-15T06:43:04Z</time>
      </trkpt>
      <trkpt lat="42.6931416616" lon="-8.2259258442">
        <ele>465.42</ele>
        <time>2020-08-15T06:43:13Z</time>
      </trkpt>
      <trkpt lat="42.6934340224" lon="-8.2264135871">
        <ele>463.01</ele>
        <time>2020-08-15T06:43:22Z</time>
      </trkpt>
      <trkpt lat="42.6936740801" lon="-8.2269888371">
        <ele>459.65</ele>
        <time>2020-08-15T06:43:30Z</time>
      </trkpt>
      <trkpt lat="42.6938065141" lon="-8.2275352534">
        <ele>456.28</ele>
        <time>2020-08-15T06:43:36Z</time>
      </trkpt>
      <trkpt lat="42.6939112879" lon="-8.2281936519">
        <ele>452.44</ele>
        <time>2020-08-15T06:43:42Z</time>
      </trkpt>
      <trkpt lat="42.6940236054" lon="-8.2289551478">
        <ele>448.11</ele>
        <time>2020-08-15T06:43:48Z</time>
      </trkpt>
      <trkpt lat="42.6942448877" lon="-8.2303559314">
        <ele>443.31</ele>
        <time>2020-08-15T06:43:58Z</time>
      </trkpt>
      <trkpt lat="42.6943876315" lon="-8.2310471032">
        <ele>443.31</ele>
        <time>2020-08-15T06:44:04Z</time>
      </trkpt>
      <trkpt lat="42.6944770664" lon="-8.2315681223">
        <ele>444.27</ele>
        <time>2020-08-15T06:44:10Z</time>
      </trkpt>
      <trkpt lat="42.6945292018" lon="-8.2319220901">
        <ele>445.71</ele>
        <time>2020-08-15T06:44:17Z</time>
      </trkpt>
      <trkpt lat="42.6945727877" lon="-8.2322759740">
        <ele>447.15</ele>
        <time>2020-08-15T06:44:26Z</time>
      </trkpt>
      <trkpt lat="42.6946366578" lon="-8.2326980866">
        <ele>449.07</ele>
        <time>2020-08-15T06:44:38Z</time>
      </trkpt>
      <trkpt lat="42.6946952473" lon="-8.2330761943">
        <ele>451.00</ele>
        <time>2020-08-15T06:44:49Z</time>
      </trkpt>
      <trkpt lat="42.6947594527" lon="-8.2333663758">
        <ele>452.44</ele>
        <time>2020-08-15T06:44:58Z</time>
      </trkpt>
      <trkpt lat="42.6948051341" lon="-8.2336791046">
        <ele>454.36</ele>
        <time>2020-08-15T06:45:08Z</time>
      </trkpt>
      <trkpt lat="42.6948340517" lon="-8.2338946033">
        <ele>454.84</ele>
        <time>2020-08-15T06:45:16Z</time>
      </trkpt>
      <trkpt lat="42.6948623825" lon="-8.2341668475">
        <ele>455.80</ele>
        <time>2020-08-15T06:45:26Z</time>
      </trkpt>
      <trkpt lat="42.6948981732" lon="-8.2344365772">
        <ele>456.28</ele>
        <time>2020-08-15T06:45:37Z</time>
      </trkpt>
      <trkpt lat="42.6949390769" lon="-8.2346898783">
        <ele>457.24</ele>
        <time>2020-08-15T06:45:47Z</time>
      </trkpt>
      <trkpt lat="42.6949874405" lon="-8.2349829096">
        <ele>458.21</ele>
        <time>2020-08-15T06:45:59Z</time>
      </trkpt>
      <trkpt lat="42.6950254943" lon="-8.2352414075">
        <ele>460.13</ele>
        <time>2020-08-15T06:46:09Z</time>
      </trkpt>
      <trkpt lat="42.6950727683" lon="-8.2355692238">
        <ele>460.61</ele>
        <time>2020-08-15T06:46:21Z</time>
      </trkpt>
      <trkpt lat="42.6951146778" lon="-8.2358657755">
        <ele>462.05</ele>
        <time>2020-08-15T06:46:32Z</time>
      </trkpt>
      <trkpt lat="42.6951591019" lon="-8.2361637522">
        <ele>463.01</ele>
        <time>2020-08-15T06:46:43Z</time>
      </trkpt>
      <trkpt lat="42.6952154282" lon="-8.2365747169">
        <ele>463.97</ele>
        <time>2020-08-15T06:46:55Z</time>
      </trkpt>
      <trkpt lat="42.6952573378" lon="-8.2368856855">
        <ele>464.93</ele>
        <time>2020-08-15T06:47:04Z</time>
      </trkpt>
      <trkpt lat="42.6952953916" lon="-8.2372067124">
        <ele>465.42</ele>
        <time>2020-08-15T06:47:13Z</time>
      </trkpt>
      <trkpt lat="42.6953438390" lon="-8.2375752646">
        <ele>465.90</ele>
        <time>2020-08-15T06:47:23Z</time>
      </trkpt>
      <trkpt lat="42.6953944657" lon="-8.2379905879">
        <ele>466.86</ele>
        <time>2020-08-15T06:47:34Z</time>
      </trkpt>
      <trkpt lat="42.6954430807" lon="-8.2383583020">
        <ele>467.82</ele>
        <time>2020-08-15T06:47:44Z</time>
      </trkpt>
      <trkpt lat="42.6954979822" lon="-8.2387863658">
        <ele>469.26</ele>
        <time>2020-08-15T06:47:56Z</time>
      </trkpt>
      <trkpt lat="42.6955199428" lon="-8.2390509825">
        <ele>472.63</ele>
        <time>2020-08-15T06:48:04Z</time>
      </trkpt>
      <trkpt lat="42.6955651212" lon="-8.2393619511">
        <ele>473.11</ele>
        <time>2020-08-15T06:48:13Z</time>
      </trkpt>
      <trkpt lat="42.6956683863" lon="-8.2396538928">
        <ele>473.11</ele>
        <time>2020-08-15T06:48:22Z</time>
      </trkpt>
      <trkpt lat="42.6958310790" lon="-8.2399675436">
        <ele>474.07</ele>
        <time>2020-08-15T06:48:32Z</time>
      </trkpt>
      <trkpt lat="42.6957878284" lon="-8.2402815297">
        <ele>475.03</ele>
        <time>2020-08-15T06:48:40Z</time>
      </trkpt>
      <trkpt lat="42.6957437396" lon="-8.2405711245">
        <ele>475.99</ele>
        <time>2020-08-15T06:48:49Z</time>
      </trkpt>
      <trkpt lat="42.6957662031" lon="-8.2409337256">
        <ele>476.95</ele>
        <time>2020-08-15T06:49:00Z</time>
      </trkpt>
      <trkpt lat="42.6958038379" lon="-8.2412610389">
        <ele>477.91</ele>
        <time>2020-08-15T06:49:10Z</time>
      </trkpt>
      <trkpt lat="42.6958303247" lon="-8.2415606081">
        <ele>478.87</ele>
        <time>2020-08-15T06:49:19Z</time>
      </trkpt>
      <trkpt lat="42.6958718151" lon="-8.2419268135">
        <ele>479.84</ele>
        <time>2020-08-15T06:49:30Z</time>
      </trkpt>
      <trkpt lat="42.6959279738" lon="-8.2422477566">
        <ele>480.80</ele>
        <time>2020-08-15T06:49:39Z</time>
      </trkpt>
      <trkpt lat="42.6959825400" lon="-8.2425754052">
        <ele>483.20</ele>
        <time>2020-08-15T06:49:48Z</time>
      </trkpt>
      <trkpt lat="42.6961189136" lon="-8.2429476455">
        <ele>485.12</ele>
        <time>2020-08-15T06:49:59Z</time>
      </trkpt>
      <trkpt lat="42.6962857973" lon="-8.2433073130">
        <ele>487.53</ele>
        <time>2020-08-15T06:50:10Z</time>
      </trkpt>
      <trkpt lat="42.6964781620" lon="-8.2435792219">
        <ele>489.45</ele>
        <time>2020-08-15T06:50:20Z</time>
      </trkpt>
      <trkpt lat="42.6966315508" lon="-8.2437631208">
        <ele>489.93</ele>
        <time>2020-08-15T06:50:28Z</time>
      </trkpt>
      <trkpt lat="42.6968209818" lon="-8.2439444214">
        <ele>491.37</ele>
        <time>2020-08-15T06:50:38Z</time>
      </trkpt>
      <trkpt lat="42.6969748735" lon="-8.2440849021">
        <ele>492.81</ele>
        <time>2020-08-15T06:50:47Z</time>
      </trkpt>
      <trkpt lat="42.6971399132" lon="-8.2442767639">
        <ele>493.77</ele>
        <time>2020-08-15T06:50:58Z</time>
      </trkpt>
      <trkpt lat="42.6972136740" lon="-8.2444848865">
        <ele>493.77</ele>
        <time>2020-08-15T06:51:07Z</time>
      </trkpt>
      <trkpt lat="42.6972482912" lon="-8.2447146345">
        <ele>495.70</ele>
        <time>2020-08-15T06:51:16Z</time>
      </trkpt>
      <trkpt lat="42.6972719282" lon="-8.2449727971">
        <ele>497.14</ele>
        <time>2020-08-15T06:51:26Z</time>
      </trkpt>
      <trkpt lat="42.6972822379" lon="-8.2451716159">
        <ele>499.54</ele>
        <time>2020-08-15T06:51:34Z</time>
      </trkpt>
      <trkpt lat="42.6972755324" lon="-8.2451828476">
        <ele>500.98</ele>
        <time>2020-08-15T06:51:40Z</time>
      </trkpt>
      <trkpt lat="42.6972695813" lon="-8.2451788243">
        <ele>501.46</ele>
        <time>2020-08-15T06:51:53Z</time>
      </trkpt>
      <trkpt lat="42.6972596068" lon="-8.2451855298">
        <ele>504.35</ele>
        <time>2020-08-15T06:52:02Z</time>
      </trkpt>
      <trkpt lat="42.6972853392" lon="-8.2453126833">
        <ele>506.75</ele>
        <time>2020-08-15T06:52:08Z</time>
      </trkpt>
      <trkpt lat="42.6972956490" lon="-8.2455249131">
        <ele>509.64</ele>
        <time>2020-08-15T06:52:14Z</time>
      </trkpt>
      <trkpt lat="42.6973367203" lon="-8.2458066288">
        <ele>510.60</ele>
        <time>2020-08-15T06:52:20Z</time>
      </trkpt>
      <trkpt lat="42.6973824017" lon="-8.2461997401">
        <ele>510.60</ele>
        <time>2020-08-15T06:52:29Z</time>
      </trkpt>
      <trkpt lat="42.6974264905" lon="-8.2466360182">
        <ele>508.19</ele>
        <time>2020-08-15T06:52:39Z</time>
      </trkpt>
      <trkpt lat="42.6974421646" lon="-8.2469702046">
        <ele>509.64</ele>
        <time>2020-08-15T06:52:47Z</time>
      </trkpt>
      <trkpt lat="42.6974653825" lon="-8.2473794930">
        <ele>508.19</ele>
        <time>2020-08-15T06:52:54Z</time>
      </trkpt>
      <trkpt lat="42.6974911988" lon="-8.2479144260">
        <ele>505.79</ele>
        <time>2020-08-15T06:53:01Z</time>
      </trkpt>
      <trkpt lat="42.6975035202" lon="-8.2480473630">
        <ele>504.83</ele>
        <time>2020-08-15T06:53:03Z</time>
      </trkpt>
      <trkpt lat="42.6975178532" lon="-8.2481155917">
        <ele>504.35</ele>
        <time>2020-08-15T06:53:04Z</time>
      </trkpt>
      <trkpt lat="42.6975373831" lon="-8.2481837366">
        <ele>503.87</ele>
        <time>2020-08-15T06:53:05Z</time>
      </trkpt>
      <trkpt lat="42.6975599304" lon="-8.2482501213">
        <ele>503.39</ele>
        <time>2020-08-15T06:53:06Z</time>
      </trkpt>
      <trkpt lat="42.6975911949" lon="-8.2483210322">
        <ele>502.91</ele>
        <time>2020-08-15T06:53:07Z</time>
      </trkpt>
      <trkpt lat="42.6976232138" lon="-8.2483821362">
        <ele>503.39</ele>
        <time>2020-08-15T06:53:08Z</time>
      </trkpt>
      <trkpt lat="42.6976625249" lon="-8.2484413125">
        <ele>503.87</ele>
        <time>2020-08-15T06:53:09Z</time>
      </trkpt>
      <trkpt lat="42.6977136545" lon="-8.2484959625">
        <ele>503.87</ele>
        <time>2020-08-15T06:53:10Z</time>
      </trkpt>
      <trkpt lat="42.6977642812" lon="-8.2485403866">
        <ele>503.87</ele>
        <time>2020-08-15T06:53:11Z</time>
      </trkpt>
      <trkpt lat="42.6982074324" lon="-8.2488805242">
        <ele>500.02</ele>
        <time>2020-08-15T06:53:18Z</time>
      </trkpt>
      <trkpt lat="42.6988716982" lon="-8.2494185586">
        <ele>495.22</ele>
        <time>2020-08-15T06:53:27Z</time>
      </trkpt>
      <trkpt lat="42.6991344709" lon="-8.2498133462">
        <ele>495.22</ele>
        <time>2020-08-15T06:53:32Z</time>
      </trkpt>
      <trkpt lat="42.6992107462" lon="-8.2499678247">
        <ele>493.77</ele>
        <time>2020-08-15T06:53:34Z</time>
      </trkpt>
      <trkpt lat="42.6993575972" lon="-8.2505609281">
        <ele>488.97</ele>
        <time>2020-08-15T06:53:41Z</time>
      </trkpt>
      <trkpt lat="42.6993666496" lon="-8.2511118706">
        <ele>485.60</ele>
        <time>2020-08-15T06:53:48Z</time>
      </trkpt>
      <trkpt lat="42.6993247401" lon="-8.2517398428">
        <ele>483.20</ele>
        <time>2020-08-15T06:53:57Z</time>
      </trkpt>
      <trkpt lat="42.6992767956" lon="-8.2524553221">
        <ele>480.32</ele>
        <time>2020-08-15T06:54:05Z</time>
      </trkpt>
      <trkpt lat="42.6992894523" lon="-8.2528040092">
        <ele>478.87</ele>
        <time>2020-08-15T06:54:08Z</time>
      </trkpt>
      <trkpt lat="42.6994435117" lon="-8.2535065804">
        <ele>476.47</ele>
        <time>2020-08-15T06:54:15Z</time>
      </trkpt>
      <trkpt lat="42.6997067034" lon="-8.2540227380">
        <ele>474.55</ele>
        <time>2020-08-15T06:54:21Z</time>
      </trkpt>
      <trkpt lat="42.7001516987" lon="-8.2545250654">
        <ele>471.66</ele>
        <time>2020-08-15T06:54:28Z</time>
      </trkpt>
      <trkpt lat="42.7007636614" lon="-8.2549205236">
        <ele>467.82</ele>
        <time>2020-08-15T06:54:36Z</time>
      </trkpt>
      <trkpt lat="42.7011441998" lon="-8.2552232780">
        <ele>465.42</ele>
        <time>2020-08-15T06:54:41Z</time>
      </trkpt>
      <trkpt lat="42.7014485467" lon="-8.2556950115">
        <ele>463.01</ele>
        <time>2020-08-15T06:54:46Z</time>
      </trkpt>
      <trkpt lat="42.7015658095" lon="-8.2560245879">
        <ele>462.05</ele>
        <time>2020-08-15T06:54:49Z</time>
      </trkpt>
      <trkpt lat="42.7015902847" lon="-8.2561331335">
        <ele>462.05</ele>
        <time>2020-08-15T06:54:50Z</time>
      </trkpt>
      <trkpt lat="42.7017140854" lon="-8.2567950524">
        <ele>461.57</ele>
        <time>2020-08-15T06:54:57Z</time>
      </trkpt>
      <trkpt lat="42.7018393110" lon="-8.2574042492">
        <ele>461.09</ele>
        <time>2020-08-15T06:55:05Z</time>
      </trkpt>
      <trkpt lat="42.7018764429" lon="-8.2575469092">
        <ele>460.61</ele>
        <time>2020-08-15T06:55:07Z</time>
      </trkpt>
      <trkpt lat="42.7018967271" lon="-8.2576139644">
        <ele>460.61</ele>
        <time>2020-08-15T06:55:08Z</time>
      </trkpt>
      <trkpt lat="42.7021626011" lon="-8.2580960914">
        <ele>459.17</ele>
        <time>2020-08-15T06:55:16Z</time>
      </trkpt>
      <trkpt lat="42.7025412954" lon="-8.2585169468">
        <ele>459.17</ele>
        <time>2020-08-15T06:55:25Z</time>
      </trkpt>
      <trkpt lat="42.7026391122" lon="-8.2585780509">
        <ele>459.65</ele>
        <time>2020-08-15T06:55:27Z</time>
      </trkpt>
      <trkpt lat="42.7028430440" lon="-8.2586740237">
        <ele>460.13</ele>
        <time>2020-08-15T06:55:31Z</time>
      </trkpt>
      <trkpt lat="42.7032451238" lon="-8.2587343734">
        <ele>459.65</ele>
        <time>2020-08-15T06:55:38Z</time>
      </trkpt>
      <trkpt lat="42.7037943900" lon="-8.2587165199">
        <ele>457.72</ele>
        <time>2020-08-15T06:55:46Z</time>
      </trkpt>
      <trkpt lat="42.7045406308" lon="-8.2586933859">
        <ele>455.32</ele>
        <time>2020-08-15T06:55:56Z</time>
      </trkpt>
      <trkpt lat="42.7050466463" lon="-8.2587436773">
        <ele>452.44</ele>
        <time>2020-08-15T06:56:03Z</time>
      </trkpt>
      <trkpt lat="42.7053323854" lon="-8.2588444278">
        <ele>451.00</ele>
        <time>2020-08-15T06:56:07Z</time>
      </trkpt>
      <trkpt lat="42.7053926513" lon="-8.2588802185">
        <ele>450.52</ele>
        <time>2020-08-15T06:56:08Z</time>
      </trkpt>
      <trkpt lat="42.7054555155" lon="-8.2589243073">
        <ele>450.03</ele>
        <time>2020-08-15T06:56:09Z</time>
      </trkpt>
      <trkpt lat="42.7058899496" lon="-8.2593373675">
        <ele>447.63</ele>
        <time>2020-08-15T06:56:16Z</time>
      </trkpt>
      <trkpt lat="42.7062654588" lon="-8.2599422056">
        <ele>444.27</ele>
        <time>2020-08-15T06:56:23Z</time>
      </trkpt>
      <trkpt lat="42.7064677980" lon="-8.2606374007">
        <ele>439.94</ele>
        <time>2020-08-15T06:56:29Z</time>
      </trkpt>
      <trkpt lat="42.7065154072" lon="-8.2614199352">
        <ele>436.10</ele>
        <time>2020-08-15T06:56:35Z</time>
      </trkpt>
      <trkpt lat="42.7064377908" lon="-8.2625674177">
        <ele>431.29</ele>
        <time>2020-08-15T06:56:44Z</time>
      </trkpt>
      <trkpt lat="42.7064092923" lon="-8.2632733416">
        <ele>427.92</ele>
        <time>2020-08-15T06:56:51Z</time>
      </trkpt>
      <trkpt lat="42.7064801194" lon="-8.2640463207">
        <ele>424.08</ele>
        <time>2020-08-15T06:57:00Z</time>
      </trkpt>
      <trkpt lat="42.7066472545" lon="-8.2646531705">
        <ele>420.23</ele>
        <time>2020-08-15T06:57:07Z</time>
      </trkpt>
      <trkpt lat="42.7069553733" lon="-8.2653060369">
        <ele>416.39</ele>
        <time>2020-08-15T06:57:14Z</time>
      </trkpt>
      <trkpt lat="42.7073637396" lon="-8.2660290599">
        <ele>411.58</ele>
        <time>2020-08-15T06:57:21Z</time>
      </trkpt>
      <trkpt lat="42.7077129297" lon="-8.2668915577">
        <ele>407.26</ele>
        <time>2020-08-15T06:57:28Z</time>
      </trkpt>
      <trkpt lat="42.7081920393" lon="-8.2682386972">
        <ele>401.97</ele>
        <time>2020-08-15T06:57:38Z</time>
      </trkpt>
      <trkpt lat="42.7086349390" lon="-8.2694674004">
        <ele>396.20</ele>
        <time>2020-08-15T06:57:47Z</time>
      </trkpt>
      <trkpt lat="42.7090373542" lon="-8.2704832032">
        <ele>392.36</ele>
        <time>2020-08-15T06:57:55Z</time>
      </trkpt>
      <trkpt lat="42.7093817666" lon="-8.2714335434">
        <ele>388.99</ele>
        <time>2020-08-15T06:58:03Z</time>
      </trkpt>
      <trkpt lat="42.7097137738" lon="-8.2722843066">
        <ele>386.11</ele>
        <time>2020-08-15T06:58:11Z</time>
      </trkpt>
      <trkpt lat="42.7101355512" lon="-8.2733122632">
        <ele>381.78</ele>
        <time>2020-08-15T06:58:20Z</time>
      </trkpt>
      <trkpt lat="42.7105170116" lon="-8.2742052712">
        <ele>377.45</ele>
        <time>2020-08-15T06:58:28Z</time>
      </trkpt>
      <trkpt lat="42.7108713146" lon="-8.2749810163">
        <ele>373.61</ele>
        <time>2020-08-15T06:58:35Z</time>
      </trkpt>
      <trkpt lat="42.7113722172" lon="-8.2760565821">
        <ele>368.32</ele>
        <time>2020-08-15T06:58:44Z</time>
      </trkpt>
      <trkpt lat="42.7118095849" lon="-8.2769701257">
        <ele>364.00</ele>
        <time>2020-08-15T06:58:52Z</time>
      </trkpt>
      <trkpt lat="42.7122912928" lon="-8.2779471204">
        <ele>359.67</ele>
        <time>2020-08-15T06:59:01Z</time>
      </trkpt>
      <trkpt lat="42.7127306722" lon="-8.2788249571">
        <ele>355.83</ele>
        <time>2020-08-15T06:59:10Z</time>
      </trkpt>
      <trkpt lat="42.7131589036" lon="-8.2794216648">
        <ele>352.46</ele>
        <time>2020-08-15T06:59:17Z</time>
      </trkpt>
      <trkpt lat="42.7136315592" lon="-8.2797558513">
        <ele>348.13</ele>
        <time>2020-08-15T06:59:23Z</time>
      </trkpt>
      <trkpt lat="42.7142279316" lon="-8.2799007744">
        <ele>344.29</ele>
        <time>2020-08-15T06:59:29Z</time>
      </trkpt>
      <trkpt lat="42.7150706481" lon="-8.2799922209">
        <ele>339.96</ele>
        <time>2020-08-15T06:59:37Z</time>
      </trkpt>
      <trkpt lat="42.7155192476" lon="-8.2802175265">
        <ele>339.48</ele>
        <time>2020-08-15T06:59:42Z</time>
      </trkpt>
      <trkpt lat="42.7158354130" lon="-8.2805426605">
        <ele>338.52</ele>
        <time>2020-08-15T06:59:47Z</time>
      </trkpt>
      <trkpt lat="42.7162311226" lon="-8.2810832933">
        <ele>338.04</ele>
        <time>2020-08-15T06:59:55Z</time>
      </trkpt>
      <trkpt lat="42.7166037820" lon="-8.2816167176">
        <ele>338.52</ele>
        <time>2020-08-15T07:00:04Z</time>
      </trkpt>
      <trkpt lat="42.7168908622" lon="-8.2820214797">
        <ele>339.48</ele>
        <time>2020-08-15T07:00:12Z</time>
      </trkpt>
      <trkpt lat="42.7172787767" lon="-8.2825019304">
        <ele>338.52</ele>
        <time>2020-08-15T07:00:22Z</time>
      </trkpt>
      <trkpt lat="42.7177609876" lon="-8.2829675451">
        <ele>338.52</ele>
        <time>2020-08-15T07:00:34Z</time>
      </trkpt>
      <trkpt lat="42.7180011291" lon="-8.2831665315">
        <ele>337.56</ele>
        <time>2020-08-15T07:00:40Z</time>
      </trkpt>
      <trkpt lat="42.7180432901" lon="-8.2831993047">
        <ele>337.08</ele>
        <time>2020-08-15T07:00:41Z</time>
      </trkpt>
      <trkpt lat="42.7183850203" lon="-8.2834504265">
        <ele>336.60</ele>
        <time>2020-08-15T07:00:49Z</time>
      </trkpt>
      <trkpt lat="42.7188306022" lon="-8.2837944198">
        <ele>337.08</ele>
        <time>2020-08-15T07:00:59Z</time>
      </trkpt>
      <trkpt lat="42.7193245478" lon="-8.2841503154">
        <ele>338.52</ele>
        <time>2020-08-15T07:01:11Z</time>
      </trkpt>
      <trkpt lat="42.7194100432" lon="-8.2841935661">
        <ele>338.52</ele>
        <time>2020-08-15T07:01:13Z</time>
      </trkpt>
      <trkpt lat="42.7196703851" lon="-8.2843292691">
        <ele>340.44</ele>
        <time>2020-08-15T07:01:19Z</time>
      </trkpt>
      <trkpt lat="42.7202131972" lon="-8.2847646251">
        <ele>340.44</ele>
        <time>2020-08-15T07:01:32Z</time>
      </trkpt>
      <trkpt lat="42.7205742057" lon="-8.2850242965">
        <ele>340.92</ele>
        <time>2020-08-15T07:01:41Z</time>
      </trkpt>
      <trkpt lat="42.7208486293" lon="-8.2852899190">
        <ele>341.41</ele>
        <time>2020-08-15T07:01:49Z</time>
      </trkpt>
      <trkpt lat="42.7211431693" lon="-8.2856831141">
        <ele>341.89</ele>
        <time>2020-08-15T07:01:59Z</time>
      </trkpt>
      <trkpt lat="42.7213823888" lon="-8.2861342281">
        <ele>341.41</ele>
        <time>2020-08-15T07:02:09Z</time>
      </trkpt>
      <trkpt lat="42.7215631865" lon="-8.2866517268">
        <ele>341.89</ele>
        <time>2020-08-15T07:02:20Z</time>
      </trkpt>
      <trkpt lat="42.7217014879" lon="-8.2871722430">
        <ele>343.33</ele>
        <time>2020-08-15T07:02:31Z</time>
      </trkpt>
      <trkpt lat="42.7218514401" lon="-8.2877703756">
        <ele>344.77</ele>
        <time>2020-08-15T07:02:44Z</time>
      </trkpt>
      <trkpt lat="42.7219510172" lon="-8.2881522551">
        <ele>345.73</ele>
        <time>2020-08-15T07:02:52Z</time>
      </trkpt>
      <trkpt lat="42.7220752370" lon="-8.2886327896">
        <ele>346.21</ele>
        <time>2020-08-15T07:03:01Z</time>
      </trkpt>
      <trkpt lat="42.7221899014" lon="-8.2890811376">
        <ele>345.25</ele>
        <time>2020-08-15T07:03:10Z</time>
      </trkpt>
      <trkpt lat="42.7222764865" lon="-8.2895891648">
        <ele>343.81</ele>
        <time>2020-08-15T07:03:18Z</time>
      </trkpt>
      <trkpt lat="42.7223348245" lon="-8.2902497426">
        <ele>341.41</ele>
        <time>2020-08-15T07:03:26Z</time>
      </trkpt>
      <trkpt lat="42.7224000357" lon="-8.2909791358">
        <ele>338.52</ele>
        <time>2020-08-15T07:03:33Z</time>
      </trkpt>
      <trkpt lat="42.7226084936" lon="-8.2917807810">
        <ele>335.64</ele>
        <time>2020-08-15T07:03:40Z</time>
      </trkpt>
      <trkpt lat="42.7229166962" lon="-8.2927523274">
        <ele>332.75</ele>
        <time>2020-08-15T07:03:49Z</time>
      </trkpt>
      <trkpt lat="42.7230086457" lon="-8.2936015818">
        <ele>330.35</ele>
        <time>2020-08-15T07:03:56Z</time>
      </trkpt>
      <trkpt lat="42.7231608611" lon="-8.2942375168">
        <ele>328.91</ele>
        <time>2020-08-15T07:04:02Z</time>
      </trkpt>
      <trkpt lat="42.7234434150" lon="-8.2949664071">
        <ele>327.47</ele>
        <time>2020-08-15T07:04:10Z</time>
      </trkpt>
      <trkpt lat="42.7236465923" lon="-8.2954932936">
        <ele>328.43</ele>
        <time>2020-08-15T07:04:17Z</time>
      </trkpt>
      <trkpt lat="42.7238494344" lon="-8.2959280629">
        <ele>328.91</ele>
        <time>2020-08-15T07:04:25Z</time>
      </trkpt>
      <trkpt lat="42.7241761610" lon="-8.2963759080">
        <ele>330.35</ele>
        <time>2020-08-15T07:04:35Z</time>
      </trkpt>
      <trkpt lat="42.7244535182" lon="-8.2967138663">
        <ele>330.83</ele>
        <time>2020-08-15T07:04:44Z</time>
      </trkpt>
      <trkpt lat="42.7247728687" lon="-8.2971225679">
        <ele>331.79</ele>
        <time>2020-08-15T07:04:55Z</time>
      </trkpt>
      <trkpt lat="42.7249881160" lon="-8.2974008471">
        <ele>332.75</ele>
        <time>2020-08-15T07:05:03Z</time>
      </trkpt>
      <trkpt lat="42.7252186183" lon="-8.2976828981">
        <ele>333.71</ele>
        <time>2020-08-15T07:05:13Z</time>
      </trkpt>
      <trkpt lat="42.7254364640" lon="-8.2979481015">
        <ele>334.20</ele>
        <time>2020-08-15T07:05:23Z</time>
      </trkpt>
      <trkpt lat="42.7256493643" lon="-8.2982254587">
        <ele>336.12</ele>
        <time>2020-08-15T07:05:33Z</time>
      </trkpt>
      <trkpt lat="42.7258242946" lon="-8.2984485850">
        <ele>337.08</ele>
        <time>2020-08-15T07:05:42Z</time>
      </trkpt>
      <trkpt lat="42.7259364445" lon="-8.2986142952">
        <ele>337.56</ele>
        <time>2020-08-15T07:05:49Z</time>
      </trkpt>
      <trkpt lat="42.7260649391" lon="-8.2988603879">
        <ele>338.52</ele>
        <time>2020-08-15T07:05:58Z</time>
      </trkpt>
      <trkpt lat="42.7261961997" lon="-8.2991186343">
        <ele>339.96</ele>
        <time>2020-08-15T07:06:08Z</time>
      </trkpt>
      <trkpt lat="42.7262676135" lon="-8.2993128430">
        <ele>340.44</ele>
        <time>2020-08-15T07:06:15Z</time>
      </trkpt>
      <trkpt lat="42.7263493370" lon="-8.2996066287">
        <ele>341.89</ele>
        <time>2020-08-15T07:06:24Z</time>
      </trkpt>
      <trkpt lat="42.7264393587" lon="-8.2998896856">
        <ele>343.33</ele>
        <time>2020-08-15T07:06:33Z</time>
      </trkpt>
      <trkpt lat="42.7265362535" lon="-8.3002248779">
        <ele>344.77</ele>
        <time>2020-08-15T07:06:44Z</time>
      </trkpt>
      <trkpt lat="42.7266199049" lon="-8.3004712220">
        <ele>345.25</ele>
        <time>2020-08-15T07:06:52Z</time>
      </trkpt>
      <trkpt lat="42.7267758921" lon="-8.3008313924">
        <ele>345.73</ele>
        <time>2020-08-15T07:07:04Z</time>
      </trkpt>
      <trkpt lat="42.7269849367" lon="-8.3011592086">
        <ele>346.69</ele>
        <time>2020-08-15T07:07:16Z</time>
      </trkpt>
      <trkpt lat="42.7271806542" lon="-8.3013720252">
        <ele>347.65</ele>
        <time>2020-08-15T07:07:26Z</time>
      </trkpt>
      <trkpt lat="42.7274229750" lon="-8.3015544992">
        <ele>349.10</ele>
        <time>2020-08-15T07:07:37Z</time>
      </trkpt>
      <trkpt lat="42.7276373003" lon="-8.3016656432">
        <ele>350.54</ele>
        <time>2020-08-15T07:07:46Z</time>
      </trkpt>
      <trkpt lat="42.7278302517" lon="-8.3017427567">
        <ele>351.50</ele>
        <time>2020-08-15T07:07:54Z</time>
      </trkpt>
      <trkpt lat="42.7280454990" lon="-8.3018297609">
        <ele>354.38</ele>
        <time>2020-08-15T07:08:03Z</time>
      </trkpt>
      <trkpt lat="42.7282275539" lon="-8.3019154239">
        <ele>356.79</ele>
        <time>2020-08-15T07:08:11Z</time>
      </trkpt>
      <trkpt lat="42.7284733951" lon="-8.3020407334">
        <ele>358.23</ele>
        <time>2020-08-15T07:08:22Z</time>
      </trkpt>
      <trkpt lat="42.7286375966" lon="-8.3021965530">
        <ele>360.15</ele>
        <time>2020-08-15T07:08:31Z</time>
      </trkpt>
      <trkpt lat="42.7287789155" lon="-8.3023344353">
        <ele>362.07</ele>
        <time>2020-08-15T07:08:40Z</time>
      </trkpt>
      <trkpt lat="42.7288921550" lon="-8.3024995588">
        <ele>364.00</ele>
        <time>2020-08-15T07:08:47Z</time>
      </trkpt>
      <trkpt lat="42.7290691808" lon="-8.3027490880">
        <ele>364.00</ele>
        <time>2020-08-15T07:08:56Z</time>
      </trkpt>
      <trkpt lat="42.7292130142" lon="-8.3029734716">
        <ele>364.00</ele>
        <time>2020-08-15T07:09:03Z</time>
      </trkpt>
      <trkpt lat="42.7293980028" lon="-8.3032570314">
        <ele>363.52</ele>
        <time>2020-08-15T07:09:11Z</time>
      </trkpt>
      <trkpt lat="42.7296155132" lon="-8.3035685029">
        <ele>363.52</ele>
        <time>2020-08-15T07:09:19Z</time>
      </trkpt>
      <trkpt lat="42.7298201155" lon="-8.3038614504">
        <ele>364.00</ele>
        <time>2020-08-15T07:09:28Z</time>
      </trkpt>
      <trkpt lat="42.7299810480" lon="-8.3041356225">
        <ele>364.48</ele>
        <time>2020-08-15T07:09:35Z</time>
      </trkpt>
      <trkpt lat="42.7302304097" lon="-8.3045141492">
        <ele>365.44</ele>
        <time>2020-08-15T07:09:45Z</time>
      </trkpt>
      <trkpt lat="42.7304846328" lon="-8.3049032371">
        <ele>365.44</ele>
        <time>2020-08-15T07:09:55Z</time>
      </trkpt>
      <trkpt lat="42.7307953499" lon="-8.3053981047">
        <ele>365.44</ele>
        <time>2020-08-15T07:10:04Z</time>
      </trkpt>
      <trkpt lat="42.7310562786" lon="-8.3057584427">
        <ele>363.52</ele>
        <time>2020-08-15T07:10:11Z</time>
      </trkpt>
      <trkpt lat="42.7312265988" lon="-8.3059876878">
        <ele>361.11</ele>
        <time>2020-08-15T07:10:17Z</time>
      </trkpt>
      <trkpt lat="42.7312381659" lon="-8.3060036134">
        <ele>360.63</ele>
        <time>2020-08-15T07:10:19Z</time>
      </trkpt>
      <trkpt lat="42.7312462963" lon="-8.3060126659">
        <ele>360.63</ele>
        <time>2020-08-15T07:10:20Z</time>
      </trkpt>
      <trkpt lat="42.7312493976" lon="-8.3060110733">
        <ele>360.15</ele>
        <time>2020-08-15T07:10:26Z</time>
      </trkpt>
      <trkpt lat="42.7312526666" lon="-8.3060225565">
        <ele>360.15</ele>
        <time>2020-08-15T07:10:27Z</time>
      </trkpt>
      <trkpt lat="42.7312615514" lon="-8.3060401585">
        <ele>360.15</ele>
        <time>2020-08-15T07:10:28Z</time>
      </trkpt>
      <trkpt lat="42.7313559316" lon="-8.3062462695">
        <ele>359.19</ele>
        <time>2020-08-15T07:10:35Z</time>
      </trkpt>
      <trkpt lat="42.7314442769" lon="-8.3064804599">
        <ele>356.79</ele>
        <time>2020-08-15T07:10:40Z</time>
      </trkpt>
      <trkpt lat="42.7315423451" lon="-8.3069272153">
        <ele>354.38</ele>
        <time>2020-08-15T07:10:47Z</time>
      </trkpt>
      <trkpt lat="42.7315933909" lon="-8.3071007207">
        <ele>353.42</ele>
        <time>2020-08-15T07:10:50Z</time>
      </trkpt>
      <trkpt lat="42.7316047065" lon="-8.3071621601">
        <ele>352.94</ele>
        <time>2020-08-15T07:10:51Z</time>
      </trkpt>
      <trkpt lat="42.7316878550" lon="-8.3076084964">
        <ele>350.54</ele>
        <time>2020-08-15T07:10:59Z</time>
      </trkpt>
      <trkpt lat="42.7317017689" lon="-8.3076685108">
        <ele>349.58</ele>
        <time>2020-08-15T07:11:03Z</time>
      </trkpt>
      <trkpt lat="42.7317026071" lon="-8.3076539263">
        <ele>348.62</ele>
        <time>2020-08-15T07:11:10Z</time>
      </trkpt>
      <trkpt lat="42.7316971589" lon="-8.3076457959">
        <ele>348.62</ele>
        <time>2020-08-15T07:11:18Z</time>
      </trkpt>
      <trkpt lat="42.7316912077" lon="-8.3076400962">
        <ele>347.65</ele>
        <time>2020-08-15T07:11:35Z</time>
      </trkpt>
      <trkpt lat="42.7316893637" lon="-8.3076318819">
        <ele>347.65</ele>
        <time>2020-08-15T07:11:51Z</time>
      </trkpt>
      <trkpt lat="42.7316839155" lon="-8.3076240867">
        <ele>347.65</ele>
        <time>2020-08-15T07:12:04Z</time>
      </trkpt>
      <trkpt lat="42.7316831611" lon="-8.3076305408">
        <ele>348.13</ele>
        <time>2020-08-15T07:12:19Z</time>
      </trkpt>
      <trkpt lat="42.7316622064" lon="-8.3076384198">
        <ele>348.13</ele>
        <time>2020-08-15T07:12:36Z</time>
      </trkpt>
      <trkpt lat="42.7316595241" lon="-8.3076543454">
        <ele>349.10</ele>
        <time>2020-08-15T07:12:54Z</time>
      </trkpt>
      <trkpt lat="42.7316554170" lon="-8.3076656610">
        <ele>349.10</ele>
        <time>2020-08-15T07:13:13Z</time>
      </trkpt>
      <trkpt lat="42.7316357195" lon="-8.3076472208">
        <ele>347.65</ele>
        <time>2020-08-15T07:13:33Z</time>
      </trkpt>
      <trkpt lat="42.7316005155" lon="-8.3076356538">
        <ele>347.65</ele>
        <time>2020-08-15T07:13:49Z</time>
      </trkpt>
      <trkpt lat="42.7315983362" lon="-8.3076323848">
        <ele>346.69</ele>
        <time>2020-08-15T07:14:03Z</time>
      </trkpt>
      <trkpt lat="42.7315968275" lon="-8.3076303732">
        <ele>345.73</ele>
        <time>2020-08-15T07:14:19Z</time>
      </trkpt>
      <trkpt lat="42.7315980848" lon="-8.3076193091">
        <ele>346.21</ele>
        <time>2020-08-15T07:14:39Z</time>
      </trkpt>
      <trkpt lat="42.7316031139" lon="-8.3076339774">
        <ele>348.13</ele>
        <time>2020-08-15T07:14:54Z</time>
      </trkpt>
      <trkpt lat="42.7315840032" lon="-8.3076417726">
        <ele>351.50</ele>
        <time>2020-08-15T07:15:14Z</time>
      </trkpt>
      <trkpt lat="42.7315856796" lon="-8.3076481428">
        <ele>353.42</ele>
        <time>2020-08-15T07:15:29Z</time>
      </trkpt>
      <trkpt lat="42.7315943129" lon="-8.3076507412">
        <ele>353.42</ele>
        <time>2020-08-15T07:15:46Z</time>
      </trkpt>
      <trkpt lat="42.7316052094" lon="-8.3076590393">
        <ele>352.94</ele>
        <time>2020-08-15T07:15:57Z</time>
      </trkpt>
      <trkpt lat="42.7316042036" lon="-8.3076600451">
        <ele>354.86</ele>
        <time>2020-08-15T07:16:12Z</time>
      </trkpt>
      <trkpt lat="42.7316010185" lon="-8.3076493163">
        <ele>355.34</ele>
        <time>2020-08-15T07:16:25Z</time>
      </trkpt>
      <trkpt lat="42.7315867692" lon="-8.3076319657">
        <ele>356.79</ele>
        <time>2020-08-15T07:16:38Z</time>
      </trkpt>
      <trkpt lat="42.7315863501" lon="-8.3076260146">
        <ele>357.75</ele>
        <time>2020-08-15T07:16:50Z</time>
      </trkpt>
      <trkpt lat="42.7315700892" lon="-8.3076186385">
        <ele>358.71</ele>
        <time>2020-08-15T07:17:03Z</time>
      </trkpt>
      <trkpt lat="42.7315653116" lon="-8.3075993601">
        <ele>358.71</ele>
        <time>2020-08-15T07:17:17Z</time>
      </trkpt>
      <trkpt lat="42.7315425966" lon="-8.3075793274">
        <ele>361.59</ele>
        <time>2020-08-15T07:17:32Z</time>
      </trkpt>
      <trkpt lat="42.7315327059" lon="-8.3075773995">
        <ele>362.07</ele>
        <time>2020-08-15T07:17:45Z</time>
      </trkpt>
      <trkpt lat="42.7315387409" lon="-8.3075822610">
        <ele>361.11</ele>
        <time>2020-08-15T07:17:59Z</time>
      </trkpt>
      <trkpt lat="42.7315311972" lon="-8.3075794112">
        <ele>360.63</ele>
        <time>2020-08-15T07:18:10Z</time>
      </trkpt>
      <trkpt lat="42.7315247431" lon="-8.3075799141">
        <ele>359.67</ele>
        <time>2020-08-15T07:18:26Z</time>
      </trkpt>
      <trkpt lat="42.7315345500" lon="-8.3075749688">
        <ele>357.75</ele>
        <time>2020-08-15T07:18:37Z</time>
      </trkpt>
      <trkpt lat="42.7315560076" lon="-8.3075763937">
        <ele>354.86</ele>
        <time>2020-08-15T07:18:51Z</time>
      </trkpt>
      <trkpt lat="42.7315622941" lon="-8.3075982705">
        <ele>352.46</ele>
        <time>2020-08-15T07:19:10Z</time>
      </trkpt>
      <trkpt lat="42.7315791417" lon="-8.3076191414">
        <ele>350.54</ele>
        <time>2020-08-15T07:19:29Z</time>
      </trkpt>
      <trkpt lat="42.7315950673" lon="-8.3076275233">
        <ele>349.10</ele>
        <time>2020-08-15T07:19:42Z</time>
      </trkpt>
      <trkpt lat="42.7315978333" lon="-8.3076273557">
        <ele>348.13</ele>
        <time>2020-08-15T07:19:56Z</time>
      </trkpt>
      <trkpt lat="42.7316064667" lon="-8.3076235000">
        <ele>348.13</ele>
        <time>2020-08-15T07:20:11Z</time>
      </trkpt>
      <trkpt lat="42.7315985877" lon="-8.3076162077">
        <ele>350.54</ele>
        <time>2020-08-15T07:20:25Z</time>
      </trkpt>
      <trkpt lat="42.7316147648" lon="-8.3076254278">
        <ele>351.02</ele>
        <time>2020-08-15T07:20:42Z</time>
      </trkpt>
      <trkpt lat="42.7316252422" lon="-8.3076332230">
        <ele>351.50</ele>
        <time>2020-08-15T07:20:58Z</time>
      </trkpt>
      <trkpt lat="42.7316245716" lon="-8.3076300379">
        <ele>351.98</ele>
        <time>2020-08-15T07:21:17Z</time>
      </trkpt>
      <trkpt lat="42.7316043712" lon="-8.3076183870">
        <ele>353.90</ele>
        <time>2020-08-15T07:21:36Z</time>
      </trkpt>
      <trkpt lat="42.7316020243" lon="-8.3076175489">
        <ele>354.86</ele>
        <time>2020-08-15T07:21:54Z</time>
      </trkpt>
      <trkpt lat="42.7316026110" lon="-8.3076115977">
        <ele>354.86</ele>
        <time>2020-08-15T07:22:07Z</time>
      </trkpt>
      <trkpt lat="42.7315917984" lon="-8.3075962588">
        <ele>356.31</ele>
        <time>2020-08-15T07:22:21Z</time>
      </trkpt>
      <trkpt lat="42.7315990068" lon="-8.3075956721">
        <ele>355.83</ele>
        <time>2020-08-15T07:22:33Z</time>
      </trkpt>
      <trkpt lat="42.7315958217" lon="-8.3075912297">
        <ele>355.83</ele>
        <time>2020-08-15T07:22:48Z</time>
      </trkpt>
      <trkpt lat="42.7315951511" lon="-8.3075967617">
        <ele>354.86</ele>
        <time>2020-08-15T07:23:03Z</time>
      </trkpt>
      <trkpt lat="42.7316060476" lon="-8.3075955883">
        <ele>354.38</ele>
        <time>2020-08-15T07:23:14Z</time>
      </trkpt>
      <trkpt lat="42.7316037845" lon="-8.3075879607">
        <ele>354.86</ele>
        <time>2020-08-15T07:23:34Z</time>
      </trkpt>
      <trkpt lat="42.7316009346" lon="-8.3075905591">
        <ele>355.83</ele>
        <time>2020-08-15T07:23:51Z</time>
      </trkpt>
      <trkpt lat="42.7315923851" lon="-8.3075874578">
        <ele>356.79</ele>
        <time>2020-08-15T07:24:08Z</time>
      </trkpt>
      <trkpt lat="42.7315768786" lon="-8.3075724542">
        <ele>357.75</ele>
        <time>2020-08-15T07:24:18Z</time>
      </trkpt>
      <trkpt lat="42.7315911278" lon="-8.3075784892">
        <ele>357.75</ele>
        <time>2020-08-15T07:24:36Z</time>
      </trkpt>
      <trkpt lat="42.7315790579" lon="-8.3075706102">
        <ele>359.67</ele>
        <time>2020-08-15T07:24:49Z</time>
      </trkpt>
      <trkpt lat="42.7315743640" lon="-8.3075693529">
        <ele>360.15</ele>
        <time>2020-08-15T07:25:03Z</time>
      </trkpt>
      <trkpt lat="42.7315845061" lon="-8.3075838536">
        <ele>356.79</ele>
        <time>2020-08-15T07:25:18Z</time>
      </trkpt>
      <trkpt lat="42.7315910440" lon="-8.3075934090">
        <ele>355.83</ele>
        <time>2020-08-15T07:25:32Z</time>
      </trkpt>
      <trkpt lat="42.7315619588" lon="-8.3075705264">
        <ele>358.71</ele>
        <time>2020-08-15T07:25:45Z</time>
      </trkpt>
      <trkpt lat="42.7315335441" lon="-8.3075551875">
        <ele>361.11</ele>
        <time>2020-08-15T07:25:59Z</time>
      </trkpt>
      <trkpt lat="42.7315164451" lon="-8.3075401001">
        <ele>362.07</ele>
        <time>2020-08-15T07:26:17Z</time>
      </trkpt>
      <trkpt lat="42.7315385733" lon="-8.3075548522">
        <ele>359.67</ele>
        <time>2020-08-15T07:26:32Z</time>
      </trkpt>
      <trkpt lat="42.7315296885" lon="-8.3075556066">
        <ele>359.67</ele>
        <time>2020-08-15T07:26:44Z</time>
      </trkpt>
      <trkpt lat="42.7315570135" lon="-8.3075793274">
        <ele>359.19</ele>
        <time>2020-08-15T07:27:01Z</time>
      </trkpt>
      <trkpt lat="42.7315771300" lon="-8.3075821772">
        <ele>358.71</ele>
        <time>2020-08-15T07:27:17Z</time>
      </trkpt>
      <trkpt lat="42.7315984201" lon="-8.3075938281">
        <ele>356.31</ele>
        <time>2020-08-15T07:27:26Z</time>
      </trkpt>
      <trkpt lat="42.7316049580" lon="-8.3075964265">
        <ele>353.90</ele>
        <time>2020-08-15T07:27:41Z</time>
      </trkpt>
      <trkpt lat="42.7316321991" lon="-8.3076321334">
        <ele>351.50</ele>
        <time>2020-08-15T07:27:53Z</time>
      </trkpt>
      <trkpt lat="42.7316503040" lon="-8.3076659124">
        <ele>351.02</ele>
        <time>2020-08-15T07:28:00Z</time>
      </trkpt>
      <trkpt lat="42.7316615358" lon="-8.3079084847">
        <ele>351.50</ele>
        <time>2020-08-15T07:28:07Z</time>
      </trkpt>
      <trkpt lat="42.7316720132" lon="-8.3080218080">
        <ele>351.02</ele>
        <time>2020-08-15T07:28:09Z</time>
      </trkpt>
      <trkpt lat="42.7317516413" lon="-8.3082886040">
        <ele>348.62</ele>
        <time>2020-08-15T07:28:14Z</time>
      </trkpt>
      <trkpt lat="42.7317902818" lon="-8.3083167672">
        <ele>348.13</ele>
        <time>2020-08-15T07:28:15Z</time>
      </trkpt>
      <trkpt lat="42.7318250667" lon="-8.3083303459">
        <ele>348.13</ele>
        <time>2020-08-15T07:28:16Z</time>
      </trkpt>
      <trkpt lat="42.7318677306" lon="-8.3083401527">
        <ele>348.13</ele>
        <time>2020-08-15T07:28:17Z</time>
      </trkpt>
      <trkpt lat="42.7319078799" lon="-8.3083445951">
        <ele>348.13</ele>
        <time>2020-08-15T07:28:18Z</time>
      </trkpt>
      <trkpt lat="42.7319418266" lon="-8.3083486184">
        <ele>348.13</ele>
        <time>2020-08-15T07:28:19Z</time>
      </trkpt>
      <trkpt lat="42.7319734264" lon="-8.3083545696">
        <ele>348.13</ele>
        <time>2020-08-15T07:28:20Z</time>
      </trkpt>
      <trkpt lat="42.7322090417" lon="-8.3085132390">
        <ele>348.13</ele>
        <time>2020-08-15T07:28:28Z</time>
      </trkpt>
      <trkpt lat="42.7323255502" lon="-8.3087278157">
        <ele>346.69</ele>
        <time>2020-08-15T07:28:32Z</time>
      </trkpt>
      <trkpt lat="42.7325839642" lon="-8.3091230225">
        <ele>341.89</ele>
        <time>2020-08-15T07:28:38Z</time>
      </trkpt>
      <trkpt lat="42.7326462418" lon="-8.3091767505">
        <ele>340.92</ele>
        <time>2020-08-15T07:28:39Z</time>
      </trkpt>
      <trkpt lat="42.7331510000" lon="-8.3095266949">
        <ele>333.23</ele>
        <time>2020-08-15T07:28:46Z</time>
      </trkpt>
      <trkpt lat="42.7334298659" lon="-8.3096783236">
        <ele>328.43</ele>
        <time>2020-08-15T07:28:50Z</time>
      </trkpt>
      <trkpt lat="42.7334959991" lon="-8.3096878789">
        <ele>327.47</ele>
        <time>2020-08-15T07:28:51Z</time>
      </trkpt>
      <trkpt lat="42.7339205425" lon="-8.3096398506">
        <ele>322.66</ele>
        <time>2020-08-15T07:28:57Z</time>
      </trkpt>
      <trkpt lat="42.7343395539" lon="-8.3095562831">
        <ele>317.37</ele>
        <time>2020-08-15T07:29:03Z</time>
      </trkpt>
      <trkpt lat="42.7348034084" lon="-8.3094301354">
        <ele>312.57</ele>
        <time>2020-08-15T07:29:10Z</time>
      </trkpt>
      <trkpt lat="42.7351580467" lon="-8.3092495892">
        <ele>309.68</ele>
        <time>2020-08-15T07:29:16Z</time>
      </trkpt>
      <trkpt lat="42.7354965080" lon="-8.3090667799">
        <ele>305.84</ele>
        <time>2020-08-15T07:29:20Z</time>
      </trkpt>
      <trkpt lat="42.7360506356" lon="-8.3088035882">
        <ele>299.11</ele>
        <time>2020-08-15T07:29:26Z</time>
      </trkpt>
      <trkpt lat="42.7361288387" lon="-8.3087905124">
        <ele>298.63</ele>
        <time>2020-08-15T07:29:27Z</time>
      </trkpt>
      <trkpt lat="42.7362013422" lon="-8.3087922726">
        <ele>297.67</ele>
        <time>2020-08-15T07:29:28Z</time>
      </trkpt>
      <trkpt lat="42.7362786233" lon="-8.3088055998">
        <ele>297.67</ele>
        <time>2020-08-15T07:29:29Z</time>
      </trkpt>
      <trkpt lat="42.7363564074" lon="-8.3088250458">
        <ele>297.18</ele>
        <time>2020-08-15T07:29:30Z</time>
      </trkpt>
      <trkpt lat="42.7364345267" lon="-8.3088501915">
        <ele>296.70</ele>
        <time>2020-08-15T07:29:31Z</time>
      </trkpt>
      <trkpt lat="42.7365085389" lon="-8.3088818751">
        <ele>296.22</ele>
        <time>2020-08-15T07:29:32Z</time>
      </trkpt>
      <trkpt lat="42.7365779411" lon="-8.3089216892">
        <ele>295.74</ele>
        <time>2020-08-15T07:29:33Z</time>
      </trkpt>
      <trkpt lat="42.7366518695" lon="-8.3089753333">
        <ele>295.74</ele>
        <time>2020-08-15T07:29:34Z</time>
      </trkpt>
      <trkpt lat="42.7371909935" lon="-8.3093909919">
        <ele>291.90</ele>
        <time>2020-08-15T07:29:41Z</time>
      </trkpt>
      <trkpt lat="42.7378589474" lon="-8.3098998573">
        <ele>282.77</ele>
        <time>2020-08-15T07:29:49Z</time>
      </trkpt>
      <trkpt lat="42.7382061258" lon="-8.3102051262">
        <ele>277.96</ele>
        <time>2020-08-15T07:29:54Z</time>
      </trkpt>
      <trkpt lat="42.7382593509" lon="-8.3102770429">
        <ele>277.00</ele>
        <time>2020-08-15T07:29:55Z</time>
      </trkpt>
      <trkpt lat="42.7383005060" lon="-8.3103523124">
        <ele>276.04</ele>
        <time>2020-08-15T07:29:56Z</time>
      </trkpt>
      <trkpt lat="42.7383352071" lon="-8.3104342036">
        <ele>276.04</ele>
        <time>2020-08-15T07:29:57Z</time>
      </trkpt>
      <trkpt lat="42.7383604366" lon="-8.3105234709">
        <ele>275.56</ele>
        <time>2020-08-15T07:29:58Z</time>
      </trkpt>
      <trkpt lat="42.7383772843" lon="-8.3106164262">
        <ele>275.56</ele>
        <time>2020-08-15T07:29:59Z</time>
      </trkpt>
      <trkpt lat="42.7383886836" lon="-8.3107069507">
        <ele>275.07</ele>
        <time>2020-08-15T07:30:00Z</time>
      </trkpt>
      <trkpt lat="42.7384614386" lon="-8.3113579731">
        <ele>271.71</ele>
        <time>2020-08-15T07:30:07Z</time>
      </trkpt>
      <trkpt lat="42.7384819742" lon="-8.3114324883">
        <ele>271.71</ele>
        <time>2020-08-15T07:30:08Z</time>
      </trkpt>
      <trkpt lat="42.7385014202" lon="-8.3114811033">
        <ele>271.71</ele>
        <time>2020-08-15T07:30:09Z</time>
      </trkpt>
      <trkpt lat="42.7385301702" lon="-8.3115324844">
        <ele>271.71</ele>
        <time>2020-08-15T07:30:10Z</time>
      </trkpt>
      <trkpt lat="42.7385570761" lon="-8.3115641680">
        <ele>271.71</ele>
        <time>2020-08-15T07:30:11Z</time>
      </trkpt>
      <trkpt lat="42.7385828923" lon="-8.3115712088">
        <ele>271.71</ele>
        <time>2020-08-15T07:30:12Z</time>
      </trkpt>
      <trkpt lat="42.7386097983" lon="-8.3115629107">
        <ele>271.71</ele>
        <time>2020-08-15T07:30:13Z</time>
      </trkpt>
      <trkpt lat="42.7386368718" lon="-8.3115462307">
        <ele>271.23</ele>
        <time>2020-08-15T07:30:14Z</time>
      </trkpt>
      <trkpt lat="42.7386627719" lon="-8.3115271199">
        <ele>271.23</ele>
        <time>2020-08-15T07:30:15Z</time>
      </trkpt>
      <trkpt lat="42.7386882529" lon="-8.3114951011">
        <ele>271.71</ele>
        <time>2020-08-15T07:30:19Z</time>
      </trkpt>
      <trkpt lat="42.7386921924" lon="-8.3114765771">
        <ele>272.67</ele>
        <time>2020-08-15T07:30:32Z</time>
      </trkpt>
      <trkpt lat="42.7386892587" lon="-8.3114774153">
        <ele>272.67</ele>
        <time>2020-08-15T07:30:47Z</time>
      </trkpt>
      <trkpt lat="42.7387093753" lon="-8.3114836179">
        <ele>273.15</ele>
        <time>2020-08-15T07:30:56Z</time>
      </trkpt>
      <trkpt lat="42.7387023345" lon="-8.3115091827">
        <ele>273.15</ele>
        <time>2020-08-15T07:30:58Z</time>
      </trkpt>
      <trkpt lat="42.7386883367" lon="-8.3115186542">
        <ele>272.67</ele>
        <time>2020-08-15T07:30:59Z</time>
      </trkpt>
      <trkpt lat="42.7386064455" lon="-8.3116444666">
        <ele>273.63</ele>
        <time>2020-08-15T07:31:07Z</time>
      </trkpt>
      <trkpt lat="42.7386873309" lon="-8.3118566964">
        <ele>273.63</ele>
        <time>2020-08-15T07:31:16Z</time>
      </trkpt>
      <trkpt lat="42.7387764305" lon="-8.3119895495">
        <ele>274.11</ele>
        <time>2020-08-15T07:31:25Z</time>
      </trkpt>
      <trkpt lat="42.7388756722" lon="-8.3121357299">
        <ele>274.59</ele>
        <time>2020-08-15T07:31:34Z</time>
      </trkpt>
      <trkpt lat="42.7389831282" lon="-8.3122617099">
        <ele>276.04</ele>
        <time>2020-08-15T07:31:43Z</time>
      </trkpt>
      <trkpt lat="42.7390625048" lon="-8.3123326208">
        <ele>279.40</ele>
        <time>2020-08-15T07:31:50Z</time>
      </trkpt>
      <trkpt lat="42.7391919214" lon="-8.3124520630">
        <ele>282.28</ele>
        <time>2020-08-15T07:31:59Z</time>
      </trkpt>
      <trkpt lat="42.7393002994" lon="-8.3125590999">
        <ele>283.73</ele>
        <time>2020-08-15T07:32:06Z</time>
      </trkpt>
      <trkpt lat="42.7394804265" lon="-8.3126937971">
        <ele>282.77</ele>
        <time>2020-08-15T07:32:13Z</time>
      </trkpt>
      <trkpt lat="42.7396977693" lon="-8.3129103016">
        <ele>278.44</ele>
        <time>2020-08-15T07:32:19Z</time>
      </trkpt>
      <trkpt lat="42.7397183888" lon="-8.3129581623">
        <ele>277.48</ele>
        <time>2020-08-15T07:32:20Z</time>
      </trkpt>
      <trkpt lat="42.7397328895" lon="-8.3130202722">
        <ele>277.00</ele>
        <time>2020-08-15T07:32:21Z</time>
      </trkpt>
      <trkpt lat="42.7397367451" lon="-8.3130956255">
        <ele>276.04</ele>
        <time>2020-08-15T07:32:22Z</time>
      </trkpt>
      <trkpt lat="42.7397297043" lon="-8.3131724875">
        <ele>275.07</ele>
        <time>2020-08-15T07:32:23Z</time>
      </trkpt>
      <trkpt lat="42.7397166286" lon="-8.3132450748">
        <ele>275.07</ele>
        <time>2020-08-15T07:32:24Z</time>
      </trkpt>
      <trkpt lat="42.7396991942" lon="-8.3133196738">
        <ele>274.59</ele>
        <time>2020-08-15T07:32:25Z</time>
      </trkpt>
      <trkpt lat="42.7395567857" lon="-8.3138135355">
        <ele>274.11</ele>
        <time>2020-08-15T07:32:32Z</time>
      </trkpt>
      <trkpt lat="42.7395497449" lon="-8.3138819318">
        <ele>274.11</ele>
        <time>2020-08-15T07:32:33Z</time>
      </trkpt>
      <trkpt lat="42.7395504154" lon="-8.3139508311">
        <ele>274.59</ele>
        <time>2020-08-15T07:32:34Z</time>
      </trkpt>
      <trkpt lat="42.7395597193" lon="-8.3140088338">
        <ele>275.07</ele>
        <time>2020-08-15T07:32:35Z</time>
      </trkpt>
      <trkpt lat="42.7395754773" lon="-8.3140563592">
        <ele>275.07</ele>
        <time>2020-08-15T07:32:36Z</time>
      </trkpt>
      <trkpt lat="42.7395937499" lon="-8.3140956704">
        <ele>275.07</ele>
        <time>2020-08-15T07:32:37Z</time>
      </trkpt>
      <trkpt lat="42.7397292014" lon="-8.3143502288">
        <ele>275.07</ele>
        <time>2020-08-15T07:32:45Z</time>
      </trkpt>
      <trkpt lat="42.7399404254" lon="-8.3146881033">
        <ele>276.04</ele>
        <time>2020-08-15T07:32:56Z</time>
      </trkpt>
      <trkpt lat="42.7401231509" lon="-8.3148072939">
        <ele>277.96</ele>
        <time>2020-08-15T07:33:04Z</time>
      </trkpt>
      <trkpt lat="42.7402824908" lon="-8.3147656359">
        <ele>279.40</ele>
        <time>2020-08-15T07:33:10Z</time>
      </trkpt>
      <trkpt lat="42.7405277453" lon="-8.3147373050">
        <ele>280.36</ele>
        <time>2020-08-15T07:33:19Z</time>
      </trkpt>
      <trkpt lat="42.7406617720" lon="-8.3148357086">
        <ele>281.32</ele>
        <time>2020-08-15T07:33:26Z</time>
      </trkpt>
      <trkpt lat="42.7406698186" lon="-8.3148619439">
        <ele>281.32</ele>
        <time>2020-08-15T07:33:27Z</time>
      </trkpt>
      <trkpt lat="42.7406778652" lon="-8.3148922864">
        <ele>281.32</ele>
        <time>2020-08-15T07:33:28Z</time>
      </trkpt>
      <trkpt lat="42.7406801283" lon="-8.3149212040">
        <ele>281.32</ele>
        <time>2020-08-15T07:33:29Z</time>
      </trkpt>
      <trkpt lat="42.7406815533" lon="-8.3149481937">
        <ele>281.80</ele>
        <time>2020-08-15T07:33:30Z</time>
      </trkpt>
      <trkpt lat="42.7406808827" lon="-8.3149749320">
        <ele>281.80</ele>
        <time>2020-08-15T07:33:31Z</time>
      </trkpt>
      <trkpt lat="42.7406787034" lon="-8.3149946295">
        <ele>281.80</ele>
        <time>2020-08-15T07:33:32Z</time>
      </trkpt>
      <trkpt lat="42.7406753507" lon="-8.3150139917">
        <ele>282.28</ele>
        <time>2020-08-15T07:33:33Z</time>
      </trkpt>
      <trkpt lat="42.7406730875" lon="-8.3150335215">
        <ele>282.28</ele>
        <time>2020-08-15T07:33:34Z</time>
      </trkpt>
      <trkpt lat="42.7406175155" lon="-8.3151863236">
        <ele>284.21</ele>
        <time>2020-08-15T07:33:42Z</time>
      </trkpt>
      <trkpt lat="42.7405450121" lon="-8.3153382875">
        <ele>286.13</ele>
        <time>2020-08-15T07:33:49Z</time>
      </trkpt>
      <trkpt lat="42.7405077126" lon="-8.3155355975">
        <ele>287.09</ele>
        <time>2020-08-15T07:33:57Z</time>
      </trkpt>
      <trkpt lat="42.7405409887" lon="-8.3157759905">
        <ele>288.53</ele>
        <time>2020-08-15T07:34:08Z</time>
      </trkpt>
      <trkpt lat="42.7405944653" lon="-8.3160267770">
        <ele>289.01</ele>
        <time>2020-08-15T07:34:18Z</time>
      </trkpt>
      <trkpt lat="42.7406885102" lon="-8.3162765577">
        <ele>289.49</ele>
        <time>2020-08-15T07:34:28Z</time>
      </trkpt>
      <trkpt lat="42.7407967206" lon="-8.3165386599">
        <ele>290.46</ele>
        <time>2020-08-15T07:34:39Z</time>
      </trkpt>
      <trkpt lat="42.7408876643" lon="-8.3167903684">
        <ele>291.42</ele>
        <time>2020-08-15T07:34:50Z</time>
      </trkpt>
      <trkpt lat="42.7409117203" lon="-8.3168617822">
        <ele>291.42</ele>
        <time>2020-08-15T07:34:57Z</time>
      </trkpt>
      <trkpt lat="42.7409205213" lon="-8.3168684039">
        <ele>291.90</ele>
        <time>2020-08-15T07:35:02Z</time>
      </trkpt>
      <trkpt lat="42.7409220301" lon="-8.3168679848">
        <ele>291.90</ele>
        <time>2020-08-15T07:35:10Z</time>
      </trkpt>
      <trkpt lat="42.7409487683" lon="-8.3168558311">
        <ele>293.34</ele>
        <time>2020-08-15T07:35:34Z</time>
      </trkpt>
      <trkpt lat="42.7409381233" lon="-8.3168556634">
        <ele>292.38</ele>
        <time>2020-08-15T07:35:51Z</time>
      </trkpt>
      <trkpt lat="42.7409311663" lon="-8.3168565854">
        <ele>290.46</ele>
        <time>2020-08-15T07:36:06Z</time>
      </trkpt>
      <trkpt lat="42.7409340162" lon="-8.3169948868">
        <ele>291.90</ele>
        <time>2020-08-15T07:36:15Z</time>
      </trkpt>
      <trkpt lat="42.7409495227" lon="-8.3172636945">
        <ele>293.82</ele>
        <time>2020-08-15T07:36:30Z</time>
      </trkpt>
      <trkpt lat="42.7409588266" lon="-8.3174330089">
        <ele>295.26</ele>
        <time>2020-08-15T07:36:40Z</time>
      </trkpt>
      <trkpt lat="42.7409682982" lon="-8.3174840547">
        <ele>295.74</ele>
        <time>2020-08-15T07:36:48Z</time>
      </trkpt>
      <trkpt lat="42.7409605868" lon="-8.3174724039">
        <ele>295.74</ele>
        <time>2020-08-15T07:37:01Z</time>
      </trkpt>
      <trkpt lat="42.7409581561" lon="-8.3174854796">
        <ele>296.22</ele>
        <time>2020-08-15T07:37:11Z</time>
      </trkpt>
      <trkpt lat="42.7409574855" lon="-8.3175435662">
        <ele>295.74</ele>
        <time>2020-08-15T07:37:20Z</time>
      </trkpt>
      <trkpt lat="42.7409716509" lon="-8.3177366853">
        <ele>295.26</ele>
        <time>2020-08-15T07:37:27Z</time>
      </trkpt>
      <trkpt lat="42.7410113811" lon="-8.3180812653">
        <ele>294.78</ele>
        <time>2020-08-15T07:37:38Z</time>
      </trkpt>
      <trkpt lat="42.7411892451" lon="-8.3184424415">
        <ele>295.26</ele>
        <time>2020-08-15T07:37:48Z</time>
      </trkpt>
      <trkpt lat="42.7412601560" lon="-8.3187931404">
        <ele>294.78</ele>
        <time>2020-08-15T07:37:57Z</time>
      </trkpt>
      <trkpt lat="42.7413170692" lon="-8.3191336133">
        <ele>293.34</ele>
        <time>2020-08-15T07:38:04Z</time>
      </trkpt>
      <trkpt lat="42.7414132096" lon="-8.3197376970">
        <ele>294.30</ele>
        <time>2020-08-15T07:38:14Z</time>
      </trkpt>
      <trkpt lat="42.7414985374" lon="-8.3202403598">
        <ele>294.78</ele>
        <time>2020-08-15T07:38:25Z</time>
      </trkpt>
      <trkpt lat="42.7416301332" lon="-8.3205504902">
        <ele>295.74</ele>
        <time>2020-08-15T07:38:33Z</time>
      </trkpt>
      <trkpt lat="42.7418355737" lon="-8.3209617063">
        <ele>297.67</ele>
        <time>2020-08-15T07:38:44Z</time>
      </trkpt>
      <trkpt lat="42.7420158684" lon="-8.3213215414">
        <ele>298.63</ele>
        <time>2020-08-15T07:38:53Z</time>
      </trkpt>
      <trkpt lat="42.7422225662" lon="-8.3217306621">
        <ele>297.67</ele>
        <time>2020-08-15T07:39:02Z</time>
      </trkpt>
      <trkpt lat="42.7424095664" lon="-8.3221186604">
        <ele>298.15</ele>
        <time>2020-08-15T07:39:11Z</time>
      </trkpt>
      <trkpt lat="42.7426361293" lon="-8.3225949202">
        <ele>298.15</ele>
        <time>2020-08-15T07:39:22Z</time>
      </trkpt>
      <trkpt lat="42.7428392228" lon="-8.3229949884">
        <ele>299.11</ele>
        <time>2020-08-15T07:39:31Z</time>
      </trkpt>
      <trkpt lat="42.7430185955" lon="-8.3233717550">
        <ele>299.59</ele>
        <time>2020-08-15T07:39:40Z</time>
      </trkpt>
      <trkpt lat="42.7432025783" lon="-8.3236690611">
        <ele>299.59</ele>
        <time>2020-08-15T07:39:48Z</time>
      </trkpt>
      <trkpt lat="42.7434787620" lon="-8.3240400441">
        <ele>299.11</ele>
        <time>2020-08-15T07:39:58Z</time>
      </trkpt>
      <trkpt lat="42.7436818555" lon="-8.3242992125">
        <ele>299.11</ele>
        <time>2020-08-15T07:40:05Z</time>
      </trkpt>
      <trkpt lat="42.7439052332" lon="-8.3246171381">
        <ele>300.07</ele>
        <time>2020-08-15T07:40:13Z</time>
      </trkpt>
      <trkpt lat="42.7442101669" lon="-8.3250470459">
        <ele>301.51</ele>
        <time>2020-08-15T07:40:24Z</time>
      </trkpt>
      <trkpt lat="42.7444786392" lon="-8.3254170232">
        <ele>302.47</ele>
        <time>2020-08-15T07:40:34Z</time>
      </trkpt>
      <trkpt lat="42.7447078843" lon="-8.3257164247">
        <ele>302.47</ele>
        <time>2020-08-15T07:40:43Z</time>
      </trkpt>
      <trkpt lat="42.7449272387" lon="-8.3260369487">
        <ele>301.99</ele>
        <time>2020-08-15T07:40:53Z</time>
      </trkpt>
      <trkpt lat="42.7450601757" lon="-8.3262420539">
        <ele>301.99</ele>
        <time>2020-08-15T07:40:59Z</time>
      </trkpt>
      <trkpt lat="42.7452923544" lon="-8.3266136236">
        <ele>302.47</ele>
        <time>2020-08-15T07:41:08Z</time>
      </trkpt>
      <trkpt lat="42.7453470044" lon="-8.3266956825">
        <ele>302.95</ele>
        <time>2020-08-15T07:41:10Z</time>
      </trkpt>
      <trkpt lat="42.7453756705" lon="-8.3267401904">
        <ele>302.47</ele>
        <time>2020-08-15T07:41:11Z</time>
      </trkpt>
      <trkpt lat="42.7456417959" lon="-8.3271421026">
        <ele>302.95</ele>
        <time>2020-08-15T07:41:21Z</time>
      </trkpt>
      <trkpt lat="42.7459148783" lon="-8.3275593538">
        <ele>302.47</ele>
        <time>2020-08-15T07:41:32Z</time>
      </trkpt>
      <trkpt lat="42.7461181395" lon="-8.3280181792">
        <ele>302.47</ele>
        <time>2020-08-15T07:41:42Z</time>
      </trkpt>
      <trkpt lat="42.7462647390" lon="-8.3285045810">
        <ele>301.99</ele>
        <time>2020-08-15T07:41:51Z</time>
      </trkpt>
      <trkpt lat="42.7463691775" lon="-8.3288507536">
        <ele>301.99</ele>
        <time>2020-08-15T07:41:59Z</time>
      </trkpt>
      <trkpt lat="42.7464985102" lon="-8.3290732093">
        <ele>301.51</ele>
        <time>2020-08-15T07:42:06Z</time>
      </trkpt>
      <trkpt lat="42.7466148511" lon="-8.3291955013">
        <ele>301.03</ele>
        <time>2020-08-15T07:42:12Z</time>
      </trkpt>
      <trkpt lat="42.7467002627" lon="-8.3294762112">
        <ele>300.07</ele>
        <time>2020-08-15T07:42:20Z</time>
      </trkpt>
      <trkpt lat="42.7467586007" lon="-8.3297833242">
        <ele>299.59</ele>
        <time>2020-08-15T07:42:28Z</time>
      </trkpt>
      <trkpt lat="42.7468000073" lon="-8.3299507108">
        <ele>299.59</ele>
        <time>2020-08-15T07:42:33Z</time>
      </trkpt>
      <trkpt lat="42.7468177769" lon="-8.3302166685">
        <ele>299.59</ele>
        <time>2020-08-15T07:42:39Z</time>
      </trkpt>
      <trkpt lat="42.7469054516" lon="-8.3306093607">
        <ele>296.22</ele>
        <time>2020-08-15T07:42:48Z</time>
      </trkpt>
      <trkpt lat="42.7469948865" lon="-8.3308127895">
        <ele>294.30</ele>
        <time>2020-08-15T07:42:55Z</time>
      </trkpt>
      <trkpt lat="42.7470781188" lon="-8.3310120273">
        <ele>292.38</ele>
        <time>2020-08-15T07:43:02Z</time>
      </trkpt>
      <trkpt lat="42.7472296637" lon="-8.3311689366">
        <ele>289.97</ele>
        <time>2020-08-15T07:43:09Z</time>
      </trkpt>
      <trkpt lat="42.7474528737" lon="-8.3312553540">
        <ele>287.09</ele>
        <time>2020-08-15T07:43:17Z</time>
      </trkpt>
      <trkpt lat="42.7476376947" lon="-8.3312747162">
        <ele>286.13</ele>
        <time>2020-08-15T07:43:23Z</time>
      </trkpt>
      <trkpt lat="42.7478295565" lon="-8.3312353212">
        <ele>282.77</ele>
        <time>2020-08-15T07:43:31Z</time>
      </trkpt>
      <trkpt lat="42.7478462365" lon="-8.3312410209">
        <ele>282.28</ele>
        <time>2020-08-15T07:43:32Z</time>
      </trkpt>
      <trkpt lat="42.7478622459" lon="-8.3312526718">
        <ele>282.28</ele>
        <time>2020-08-15T07:43:33Z</time>
      </trkpt>
      <trkpt lat="42.7478788421" lon="-8.3312823437">
        <ele>281.80</ele>
        <time>2020-08-15T07:43:34Z</time>
      </trkpt>
      <trkpt lat="42.7478900738" lon="-8.3313109260">
        <ele>281.80</ele>
        <time>2020-08-15T07:43:35Z</time>
      </trkpt>
      <trkpt lat="42.7479028981" lon="-8.3313371614">
        <ele>281.32</ele>
        <time>2020-08-15T07:43:36Z</time>
      </trkpt>
      <trkpt lat="42.7479132079" lon="-8.3313697670">
        <ele>280.84</ele>
        <time>2020-08-15T07:43:37Z</time>
      </trkpt>
      <trkpt lat="42.7479182370" lon="-8.3314068988">
        <ele>280.84</ele>
        <time>2020-08-15T07:43:38Z</time>
      </trkpt>
      <trkpt lat="42.7479200810" lon="-8.3314457908">
        <ele>280.36</ele>
        <time>2020-08-15T07:43:39Z</time>
      </trkpt>
      <trkpt lat="42.7479163092" lon="-8.3314855210">
        <ele>279.88</ele>
        <time>2020-08-15T07:43:40Z</time>
      </trkpt>
      <trkpt lat="42.7478088532" lon="-8.3316946495">
        <ele>278.44</ele>
        <time>2020-08-15T07:43:47Z</time>
      </trkpt>
      <trkpt lat="42.7477510180" lon="-8.3319440950">
        <ele>277.96</ele>
        <time>2020-08-15T07:43:52Z</time>
      </trkpt>
      <trkpt lat="42.7478299756" lon="-8.3321148343">
        <ele>277.48</ele>
        <time>2020-08-15T07:43:56Z</time>
      </trkpt>
      <trkpt lat="42.7479386888" lon="-8.3322756831">
        <ele>277.96</ele>
        <time>2020-08-15T07:44:02Z</time>
      </trkpt>
      <trkpt lat="42.7480607294" lon="-8.3324884158">
        <ele>278.44</ele>
        <time>2020-08-15T07:44:08Z</time>
      </trkpt>
      <trkpt lat="42.7481791656" lon="-8.3329164796">
        <ele>278.44</ele>
        <time>2020-08-15T07:44:17Z</time>
      </trkpt>
      <trkpt lat="42.7483021282" lon="-8.3332173061">
        <ele>278.44</ele>
        <time>2020-08-15T07:44:25Z</time>
      </trkpt>
      <trkpt lat="42.7484495658" lon="-8.3334837668">
        <ele>277.48</ele>
        <time>2020-08-15T07:44:32Z</time>
      </trkpt>
      <trkpt lat="42.7485308703" lon="-8.3336674981">
        <ele>278.44</ele>
        <time>2020-08-15T07:44:38Z</time>
      </trkpt>
      <trkpt lat="42.7485415153" lon="-8.3338282630">
        <ele>279.40</ele>
        <time>2020-08-15T07:44:44Z</time>
      </trkpt>
      <trkpt lat="42.7485295292" lon="-8.3340157662">
        <ele>281.80</ele>
        <time>2020-08-15T07:44:52Z</time>
      </trkpt>
      <trkpt lat="42.7485003602" lon="-8.3341904450">
        <ele>285.17</ele>
        <time>2020-08-15T07:45:01Z</time>
      </trkpt>
      <trkpt lat="42.7484530862" lon="-8.3343829773">
        <ele>289.01</ele>
        <time>2020-08-15T07:45:10Z</time>
      </trkpt>
      <trkpt lat="42.7484135237" lon="-8.3345130645">
        <ele>291.90</ele>
        <time>2020-08-15T07:45:17Z</time>
      </trkpt>
      <trkpt lat="42.7483986039" lon="-8.3345664572">
        <ele>292.86</ele>
        <time>2020-08-15T07:45:20Z</time>
      </trkpt>
      <trkpt lat="42.7483677585" lon="-8.3347124700">
        <ele>295.26</ele>
        <time>2020-08-15T07:45:27Z</time>
      </trkpt>
      <trkpt lat="42.7483237535" lon="-8.3348517772">
        <ele>298.15</ele>
        <time>2020-08-15T07:45:34Z</time>
      </trkpt>
      <trkpt lat="42.7482034732" lon="-8.3349646814">
        <ele>300.55</ele>
        <time>2020-08-15T07:45:42Z</time>
      </trkpt>
      <trkpt lat="42.7480751462" lon="-8.3349966165">
        <ele>301.99</ele>
        <time>2020-08-15T07:45:48Z</time>
      </trkpt>
      <trkpt lat="42.7478925046" lon="-8.3350564633">
        <ele>301.03</ele>
        <time>2020-08-15T07:45:57Z</time>
      </trkpt>
      <trkpt lat="42.7478568815" lon="-8.3350747358">
        <ele>301.03</ele>
        <time>2020-08-15T07:45:59Z</time>
      </trkpt>
      <trkpt lat="42.7478420455" lon="-8.3350868057">
        <ele>301.03</ele>
        <time>2020-08-15T07:46:00Z</time>
      </trkpt>
      <trkpt lat="42.7477727272" lon="-8.3351610694">
        <ele>300.07</ele>
        <time>2020-08-15T07:46:08Z</time>
      </trkpt>
      <trkpt lat="42.7477252856" lon="-8.3351933397">
        <ele>299.59</ele>
        <time>2020-08-15T07:46:21Z</time>
      </trkpt>
      <trkpt lat="42.7476926800" lon="-8.3351955190">
        <ele>301.51</ele>
        <time>2020-08-15T07:46:32Z</time>
      </trkpt>
      <trkpt lat="42.7476583980" lon="-8.3352234308">
        <ele>303.43</ele>
        <time>2020-08-15T07:46:40Z</time>
      </trkpt>
      <trkpt lat="42.7476475853" lon="-8.3352504205">
        <ele>306.32</ele>
        <time>2020-08-15T07:46:55Z</time>
      </trkpt>
      <trkpt lat="42.7476710547" lon="-8.3352458943">
        <ele>307.76</ele>
        <time>2020-08-15T07:47:08Z</time>
      </trkpt>
      <trkpt lat="42.7476654388" lon="-8.3352786675">
        <ele>306.32</ele>
        <time>2020-08-15T07:47:16Z</time>
      </trkpt>
      <trkpt lat="42.7476057597" lon="-8.3354328107">
        <ele>305.84</ele>
        <time>2020-08-15T07:47:22Z</time>
      </trkpt>
      <trkpt lat="42.7475258801" lon="-8.3356192242">
        <ele>305.84</ele>
        <time>2020-08-15T07:47:29Z</time>
      </trkpt>
      <trkpt lat="42.7474811208" lon="-8.3356825914">
        <ele>306.80</ele>
        <time>2020-08-15T07:47:35Z</time>
      </trkpt>
      <trkpt lat="42.7474788576" lon="-8.3356768917">
        <ele>307.28</ele>
        <time>2020-08-15T07:47:36Z</time>
      </trkpt>
      <trkpt lat="42.7474932745" lon="-8.3356598765">
        <ele>307.28</ele>
        <time>2020-08-15T07:47:38Z</time>
      </trkpt>
      <trkpt lat="42.7475833800" lon="-8.3354473952">
        <ele>307.76</ele>
        <time>2020-08-15T07:47:46Z</time>
      </trkpt>
      <trkpt lat="42.7476045024" lon="-8.3354185615">
        <ele>307.28</ele>
        <time>2020-08-15T07:47:51Z</time>
      </trkpt>
      <trkpt lat="42.7476249542" lon="-8.3354162984">
        <ele>306.80</ele>
        <time>2020-08-15T07:48:07Z</time>
      </trkpt>
      <trkpt lat="42.7476059273" lon="-8.3354411926">
        <ele>305.84</ele>
        <time>2020-08-15T07:48:13Z</time>
      </trkpt>
      <trkpt lat="42.7475984674" lon="-8.3354571182">
        <ele>305.36</ele>
        <time>2020-08-15T07:48:14Z</time>
      </trkpt>
      <trkpt lat="42.7475927677" lon="-8.3354730438">
        <ele>305.36</ele>
        <time>2020-08-15T07:48:15Z</time>
      </trkpt>
      <trkpt lat="42.7475874871" lon="-8.3354831859">
        <ele>305.36</ele>
        <time>2020-08-15T07:48:16Z</time>
      </trkpt>
      <trkpt lat="42.7475801110" lon="-8.3354976028">
        <ele>305.36</ele>
        <time>2020-08-15T07:48:17Z</time>
      </trkpt>
      <trkpt lat="42.7475667838" lon="-8.3355182223">
        <ele>305.36</ele>
        <time>2020-08-15T07:48:18Z</time>
      </trkpt>
      <trkpt lat="42.7475483436" lon="-8.3355447091">
        <ele>305.84</ele>
        <time>2020-08-15T07:48:19Z</time>
      </trkpt>
      <trkpt lat="42.7474553883" lon="-8.3357317094">
        <ele>307.28</ele>
        <time>2020-08-15T07:48:25Z</time>
      </trkpt>
      <trkpt lat="42.7473636903" lon="-8.3359803166">
        <ele>309.20</ele>
        <time>2020-08-15T07:48:32Z</time>
      </trkpt>
      <trkpt lat="42.7473398019" lon="-8.3363217954">
        <ele>308.24</ele>
        <time>2020-08-15T07:48:40Z</time>
      </trkpt>
      <trkpt lat="42.7473653667" lon="-8.3364759386">
        <ele>307.28</ele>
        <time>2020-08-15T07:48:46Z</time>
      </trkpt>
      <trkpt lat="42.7473920211" lon="-8.3365900163">
        <ele>306.32</ele>
        <time>2020-08-15T07:48:50Z</time>
      </trkpt>
      <trkpt lat="42.7473953739" lon="-8.3366202749">
        <ele>305.84</ele>
        <time>2020-08-15T07:48:51Z</time>
      </trkpt>
      <trkpt lat="42.7474000677" lon="-8.3366554789">
        <ele>305.36</ele>
        <time>2020-08-15T07:48:52Z</time>
      </trkpt>
      <trkpt lat="42.7474023309" lon="-8.3366835583">
        <ele>304.88</ele>
        <time>2020-08-15T07:48:53Z</time>
      </trkpt>
      <trkpt lat="42.7474045102" lon="-8.3367085364">
        <ele>304.39</ele>
        <time>2020-08-15T07:48:54Z</time>
      </trkpt>
      <trkpt lat="42.7474087849" lon="-8.3367330115">
        <ele>304.39</ele>
        <time>2020-08-15T07:48:55Z</time>
      </trkpt>
      <trkpt lat="42.7474110480" lon="-8.3367561456">
        <ele>303.91</ele>
        <time>2020-08-15T07:48:56Z</time>
      </trkpt>
      <trkpt lat="42.7474128082" lon="-8.3367785253">
        <ele>303.91</ele>
        <time>2020-08-15T07:48:57Z</time>
      </trkpt>
      <trkpt lat="42.7474151552" lon="-8.3368037548">
        <ele>303.43</ele>
        <time>2020-08-15T07:48:58Z</time>
      </trkpt>
      <trkpt lat="42.7474163286" lon="-8.3368271403">
        <ele>303.43</ele>
        <time>2020-08-15T07:48:59Z</time>
      </trkpt>
      <trkpt lat="42.7474206034" lon="-8.3368548006">
        <ele>302.95</ele>
        <time>2020-08-15T07:49:00Z</time>
      </trkpt>
      <trkpt lat="42.7474237047" lon="-8.3368781023">
        <ele>302.95</ele>
        <time>2020-08-15T07:49:01Z</time>
      </trkpt>
      <trkpt lat="42.7474258840" lon="-8.3369014878">
        <ele>302.47</ele>
        <time>2020-08-15T07:49:02Z</time>
      </trkpt>
      <trkpt lat="42.7474244591" lon="-8.3369190060">
        <ele>302.47</ele>
        <time>2020-08-15T07:49:03Z</time>
      </trkpt>
      <trkpt lat="42.7474219445" lon="-8.3369371947">
        <ele>302.47</ele>
        <time>2020-08-15T07:49:04Z</time>
      </trkpt>
      <trkpt lat="42.7474197652" lon="-8.3369619213">
        <ele>302.47</ele>
        <time>2020-08-15T07:49:05Z</time>
      </trkpt>
      <trkpt lat="42.7474179212" lon="-8.3369847201">
        <ele>301.99</ele>
        <time>2020-08-15T07:49:06Z</time>
      </trkpt>
      <trkpt lat="42.7474148199" lon="-8.3370080218">
        <ele>301.99</ele>
        <time>2020-08-15T07:49:07Z</time>
      </trkpt>
      <trkpt lat="42.7474121377" lon="-8.3370345924">
        <ele>301.51</ele>
        <time>2020-08-15T07:49:08Z</time>
      </trkpt>
      <trkpt lat="42.7474098746" lon="-8.3370617498">
        <ele>301.51</ele>
        <time>2020-08-15T07:49:09Z</time>
      </trkpt>
      <trkpt lat="42.7474072762" lon="-8.3370858897">
        <ele>301.51</ele>
        <time>2020-08-15T07:49:10Z</time>
      </trkpt>
      <trkpt lat="42.7474048454" lon="-8.3371096943">
        <ele>301.99</ele>
        <time>2020-08-15T07:49:11Z</time>
      </trkpt>
      <trkpt lat="42.7474003192" lon="-8.3371319901">
        <ele>301.99</ele>
        <time>2020-08-15T07:49:12Z</time>
      </trkpt>
      <trkpt lat="42.7473952062" lon="-8.3371516038">
        <ele>302.47</ele>
        <time>2020-08-15T07:49:13Z</time>
      </trkpt>
      <trkpt lat="42.7473899256" lon="-8.3371695410">
        <ele>302.95</ele>
        <time>2020-08-15T07:49:14Z</time>
      </trkpt>
      <trkpt lat="42.7473522071" lon="-8.3373292163">
        <ele>306.80</ele>
        <time>2020-08-15T07:49:22Z</time>
      </trkpt>
      <trkpt lat="42.7472946234" lon="-8.3375525940">
        <ele>309.68</ele>
        <time>2020-08-15T07:49:31Z</time>
      </trkpt>
      <trkpt lat="42.7472911030" lon="-8.3378032967">
        <ele>308.72</ele>
        <time>2020-08-15T07:49:40Z</time>
      </trkpt>
      <trkpt lat="42.7473086212" lon="-8.3378424402">
        <ele>308.72</ele>
        <time>2020-08-15T07:49:42Z</time>
      </trkpt>
      <trkpt lat="42.7473256364" lon="-8.3378540073">
        <ele>308.72</ele>
        <time>2020-08-15T07:49:43Z</time>
      </trkpt>
      <trkpt lat="42.7473412268" lon="-8.3378591202">
        <ele>308.72</ele>
        <time>2020-08-15T07:49:44Z</time>
      </trkpt>
      <trkpt lat="42.7473543026" lon="-8.3378612157">
        <ele>308.72</ele>
        <time>2020-08-15T07:49:45Z</time>
      </trkpt>
      <trkpt lat="42.7473724913" lon="-8.3378596231">
        <ele>308.72</ele>
        <time>2020-08-15T07:49:46Z</time>
      </trkpt>
      <trkpt lat="42.7473929431" lon="-8.3378571086">
        <ele>307.76</ele>
        <time>2020-08-15T07:49:47Z</time>
      </trkpt>
      <trkpt lat="42.7474092878" lon="-8.3378564380">
        <ele>307.28</ele>
        <time>2020-08-15T07:49:48Z</time>
      </trkpt>
      <trkpt lat="42.7474030014" lon="-8.3378674183">
        <ele>304.88</ele>
        <time>2020-08-15T07:49:55Z</time>
      </trkpt>
      <trkpt lat="42.7473949548" lon="-8.3378591202">
        <ele>303.91</ele>
        <time>2020-08-15T07:50:10Z</time>
      </trkpt>
      <trkpt lat="42.7474218607" lon="-8.3378695976">
        <ele>299.59</ele>
        <time>2020-08-15T07:50:33Z</time>
      </trkpt>
      <trkpt lat="42.7474829648" lon="-8.3378505707">
        <ele>299.11</ele>
        <time>2020-08-15T07:50:44Z</time>
      </trkpt>
      <trkpt lat="42.7476879861" lon="-8.3378270175">
        <ele>297.18</ele>
        <time>2020-08-15T07:50:48Z</time>
      </trkpt>
      <trkpt lat="42.7481317241" lon="-8.3377886284">
        <ele>293.82</ele>
        <time>2020-08-15T07:50:54Z</time>
      </trkpt>
      <trkpt lat="42.7486613765" lon="-8.3377521671">
        <ele>292.38</ele>
        <time>2020-08-15T07:51:01Z</time>
      </trkpt>
      <trkpt lat="42.7492405660" lon="-8.3377017919">
        <ele>290.94</ele>
        <time>2020-08-15T07:51:10Z</time>
      </trkpt>
      <trkpt lat="42.7498138044" lon="-8.3376644086">
        <ele>286.61</ele>
        <time>2020-08-15T07:51:17Z</time>
      </trkpt>
      <trkpt lat="42.7505241707" lon="-8.3376123570">
        <ele>281.80</ele>
        <time>2020-08-15T07:51:24Z</time>
      </trkpt>
      <trkpt lat="42.7510347962" lon="-8.3375665918">
        <ele>282.77</ele>
        <time>2020-08-15T07:51:30Z</time>
      </trkpt>
      <trkpt lat="42.7514583338" lon="-8.3375169709">
        <ele>283.25</ele>
        <time>2020-08-15T07:51:37Z</time>
      </trkpt>
      <trkpt lat="42.7518229466" lon="-8.3374497481">
        <ele>283.25</ele>
        <time>2020-08-15T07:51:45Z</time>
      </trkpt>
      <trkpt lat="42.7523126174" lon="-8.3373419568">
        <ele>281.80</ele>
        <time>2020-08-15T07:51:56Z</time>
      </trkpt>
      <trkpt lat="42.7526682615" lon="-8.3372747339">
        <ele>279.88</ele>
        <time>2020-08-15T07:52:04Z</time>
      </trkpt>
      <trkpt lat="42.7530523203" lon="-8.3371911664">
        <ele>277.00</ele>
        <time>2020-08-15T07:52:10Z</time>
      </trkpt>
      <trkpt lat="42.7534761094" lon="-8.3371368516">
        <ele>277.00</ele>
        <time>2020-08-15T07:52:16Z</time>
      </trkpt>
      <trkpt lat="42.7535325196" lon="-8.3371422160">
        <ele>277.00</ele>
        <time>2020-08-15T07:52:17Z</time>
      </trkpt>
      <trkpt lat="42.7537303325" lon="-8.3371889871">
        <ele>277.96</ele>
        <time>2020-08-15T07:52:22Z</time>
      </trkpt>
      <trkpt lat="42.7538885828" lon="-8.3372534439">
        <ele>279.88</ele>
        <time>2020-08-15T07:52:30Z</time>
      </trkpt>
      <trkpt lat="42.7540697996" lon="-8.3373463992">
        <ele>282.28</ele>
        <time>2020-08-15T07:52:40Z</time>
      </trkpt>
      <trkpt lat="42.7542322408" lon="-8.3374267817">
        <ele>284.21</ele>
        <time>2020-08-15T07:52:50Z</time>
      </trkpt>
      <trkpt lat="42.7543077618" lon="-8.3374713734">
        <ele>285.65</ele>
        <time>2020-08-15T07:52:58Z</time>
      </trkpt>
      <trkpt lat="42.7543656807" lon="-8.3374944236">
        <ele>286.61</ele>
        <time>2020-08-15T07:53:05Z</time>
      </trkpt>
      <trkpt lat="42.7544418722" lon="-8.3375305496">
        <ele>288.05</ele>
        <time>2020-08-15T07:53:13Z</time>
      </trkpt>
      <trkpt lat="42.7544757351" lon="-8.3375450503">
        <ele>288.53</ele>
        <time>2020-08-15T07:53:16Z</time>
      </trkpt>
      <trkpt lat="42.7544871345" lon="-8.3375445474">
        <ele>288.53</ele>
        <time>2020-08-15T07:53:17Z</time>
      </trkpt>
      <trkpt lat="42.7544978634" lon="-8.3375473972">
        <ele>288.53</ele>
        <time>2020-08-15T07:53:18Z</time>
      </trkpt>
      <trkpt lat="42.7545059100" lon="-8.3375561982">
        <ele>288.53</ele>
        <time>2020-08-15T07:53:19Z</time>
      </trkpt>
      <trkpt lat="42.7545152977" lon="-8.3375622332">
        <ele>288.53</ele>
        <time>2020-08-15T07:53:20Z</time>
      </trkpt>
      <trkpt lat="42.7545266971" lon="-8.3375634067">
        <ele>289.01</ele>
        <time>2020-08-15T07:53:21Z</time>
      </trkpt>
      <trkpt lat="42.7546336502" lon="-8.3375965990">
        <ele>290.46</ele>
        <time>2020-08-15T07:53:30Z</time>
      </trkpt>
      <trkpt lat="42.7547525894" lon="-8.3376416098">
        <ele>291.42</ele>
        <time>2020-08-15T07:53:38Z</time>
      </trkpt>
      <trkpt lat="42.7548862807" lon="-8.3376871236">
        <ele>293.34</ele>
        <time>2020-08-15T07:53:47Z</time>
      </trkpt>
      <trkpt lat="42.7550019510" lon="-8.3377405163">
        <ele>295.26</ele>
        <time>2020-08-15T07:53:56Z</time>
      </trkpt>
      <trkpt lat="42.7551032882" lon="-8.3378126845">
        <ele>296.70</ele>
        <time>2020-08-15T07:54:05Z</time>
      </trkpt>
      <trkpt lat="42.7551920526" lon="-8.3378737886">
        <ele>298.15</ele>
        <time>2020-08-15T07:54:13Z</time>
      </trkpt>
      <trkpt lat="42.7552000992" lon="-8.3378853556">
        <ele>298.15</ele>
        <time>2020-08-15T07:54:14Z</time>
      </trkpt>
      <trkpt lat="42.7552434336" lon="-8.3379385807">
        <ele>299.11</ele>
        <time>2020-08-15T07:54:19Z</time>
      </trkpt>
      <trkpt lat="42.7552960720" lon="-8.3380141016">
        <ele>300.55</ele>
        <time>2020-08-15T07:54:25Z</time>
      </trkpt>
      <trkpt lat="42.7553068846" lon="-8.3380259201">
        <ele>300.55</ele>
        <time>2020-08-15T07:54:26Z</time>
      </trkpt>
      <trkpt lat="42.7553703357" lon="-8.3380927239">
        <ele>300.55</ele>
        <time>2020-08-15T07:54:33Z</time>
      </trkpt>
      <trkpt lat="42.7553842496" lon="-8.3380969986">
        <ele>300.55</ele>
        <time>2020-08-15T07:54:34Z</time>
      </trkpt>
      <trkpt lat="42.7553958166" lon="-8.3381033689">
        <ele>300.55</ele>
        <time>2020-08-15T07:54:35Z</time>
      </trkpt>
      <trkpt lat="42.7554039471" lon="-8.3381080627">
        <ele>300.07</ele>
        <time>2020-08-15T07:54:36Z</time>
      </trkpt>
      <trkpt lat="42.7554159332" lon="-8.3381154388">
        <ele>300.07</ele>
        <time>2020-08-15T07:54:37Z</time>
      </trkpt>
      <trkpt lat="42.7554294281" lon="-8.3381196298">
        <ele>300.07</ele>
        <time>2020-08-15T07:54:38Z</time>
      </trkpt>
      <trkpt lat="42.7554431744" lon="-8.3381244075">
        <ele>299.59</ele>
        <time>2020-08-15T07:54:39Z</time>
      </trkpt>
      <trkpt lat="42.7554585133" lon="-8.3381309453">
        <ele>299.59</ele>
        <time>2020-08-15T07:54:40Z</time>
      </trkpt>
      <trkpt lat="42.7554751094" lon="-8.3381359745">
        <ele>299.11</ele>
        <time>2020-08-15T07:54:41Z</time>
      </trkpt>
      <trkpt lat="42.7554906998" lon="-8.3381393272">
        <ele>299.11</ele>
        <time>2020-08-15T07:54:42Z</time>
      </trkpt>
      <trkpt lat="42.7555081341" lon="-8.3381391596">
        <ele>299.11</ele>
        <time>2020-08-15T07:54:43Z</time>
      </trkpt>
      <trkpt lat="42.7556682285" lon="-8.3381442726">
        <ele>298.63</ele>
        <time>2020-08-15T07:54:52Z</time>
      </trkpt>
      <trkpt lat="42.7558067814" lon="-8.3381493855">
        <ele>297.18</ele>
        <time>2020-08-15T07:54:59Z</time>
      </trkpt>
      <trkpt lat="42.7560304943" lon="-8.3381564263">
        <ele>294.78</ele>
        <time>2020-08-15T07:55:07Z</time>
      </trkpt>
      <trkpt lat="42.7562434785" lon="-8.3381959889">
        <ele>292.38</ele>
        <time>2020-08-15T07:55:14Z</time>
      </trkpt>
      <trkpt lat="42.7564125415" lon="-8.3383483719">
        <ele>291.42</ele>
        <time>2020-08-15T07:55:20Z</time>
      </trkpt>
      <trkpt lat="42.7565077599" lon="-8.3385267388">
        <ele>292.86</ele>
        <time>2020-08-15T07:55:27Z</time>
      </trkpt>
      <trkpt lat="42.7565893158" lon="-8.3386614360">
        <ele>293.82</ele>
        <time>2020-08-15T07:55:33Z</time>
      </trkpt>
      <trkpt lat="42.7567090932" lon="-8.3388402220">
        <ele>295.26</ele>
        <time>2020-08-15T07:55:42Z</time>
      </trkpt>
      <trkpt lat="42.7568152919" lon="-8.3390540443">
        <ele>297.67</ele>
        <time>2020-08-15T07:55:51Z</time>
      </trkpt>
      <trkpt lat="42.7569233347" lon="-8.3392722253">
        <ele>299.59</ele>
        <time>2020-08-15T07:56:01Z</time>
      </trkpt>
      <trkpt lat="42.7570407651" lon="-8.3394920826">
        <ele>301.99</ele>
        <time>2020-08-15T07:56:12Z</time>
      </trkpt>
      <trkpt lat="42.7571137715" lon="-8.3396379277">
        <ele>303.91</ele>
        <time>2020-08-15T07:56:20Z</time>
      </trkpt>
      <trkpt lat="42.7572106663" lon="-8.3398238383">
        <ele>306.32</ele>
        <time>2020-08-15T07:56:30Z</time>
      </trkpt>
      <trkpt lat="42.7572902944" lon="-8.3399921469">
        <ele>307.28</ele>
        <time>2020-08-15T07:56:39Z</time>
      </trkpt>
      <trkpt lat="42.7573119197" lon="-8.3401809074">
        <ele>307.28</ele>
        <time>2020-08-15T07:56:48Z</time>
      </trkpt>
      <trkpt lat="42.7573265880" lon="-8.3402075619">
        <ele>307.76</ele>
        <time>2020-08-15T07:56:54Z</time>
      </trkpt>
      <trkpt lat="42.7573347185" lon="-8.3402710967">
        <ele>307.28</ele>
        <time>2020-08-15T07:57:06Z</time>
      </trkpt>
      <trkpt lat="42.7573496383" lon="-8.3404753637">
        <ele>308.24</ele>
        <time>2020-08-15T07:57:14Z</time>
      </trkpt>
      <trkpt lat="42.7573850937" lon="-8.3407015912">
        <ele>309.20</ele>
        <time>2020-08-15T07:57:23Z</time>
      </trkpt>
      <trkpt lat="42.7574783843" lon="-8.3409357816">
        <ele>310.16</ele>
        <time>2020-08-15T07:57:33Z</time>
      </trkpt>
      <trkpt lat="42.7576027717" lon="-8.3411889989">
        <ele>311.12</ele>
        <time>2020-08-15T07:57:44Z</time>
      </trkpt>
      <trkpt lat="42.7577756066" lon="-8.3414920047">
        <ele>312.09</ele>
        <time>2020-08-15T07:57:54Z</time>
      </trkpt>
      <trkpt lat="42.7579245530" lon="-8.3417549450">
        <ele>312.57</ele>
        <time>2020-08-15T07:58:04Z</time>
      </trkpt>
      <trkpt lat="42.7580767684" lon="-8.3420439530">
        <ele>311.12</ele>
        <time>2020-08-15T07:58:13Z</time>
      </trkpt>
      <trkpt lat="42.7582010720" lon="-8.3424045425">
        <ele>309.20</ele>
        <time>2020-08-15T07:58:22Z</time>
      </trkpt>
      <trkpt lat="42.7582028322" lon="-8.3427521400">
        <ele>307.28</ele>
        <time>2020-08-15T07:58:30Z</time>
      </trkpt>
      <trkpt lat="42.7581326757" lon="-8.3431079518">
        <ele>308.24</ele>
        <time>2020-08-15T07:58:38Z</time>
      </trkpt>
      <trkpt lat="42.7580143232" lon="-8.3432788588">
        <ele>309.68</ele>
        <time>2020-08-15T07:58:44Z</time>
      </trkpt>
      <trkpt lat="42.7578259818" lon="-8.3433728199">
        <ele>310.64</ele>
        <time>2020-08-15T07:58:51Z</time>
      </trkpt>
      <trkpt lat="42.7575150970" lon="-8.3434173279">
        <ele>313.53</ele>
        <time>2020-08-15T07:59:02Z</time>
      </trkpt>
      <trkpt lat="42.7572505642" lon="-8.3434747439">
        <ele>315.45</ele>
        <time>2020-08-15T07:59:12Z</time>
      </trkpt>
      <trkpt lat="42.7570650727" lon="-8.3435609937">
        <ele>317.37</ele>
        <time>2020-08-15T07:59:21Z</time>
      </trkpt>
      <trkpt lat="42.7570628934" lon="-8.3435656037">
        <ele>317.37</ele>
        <time>2020-08-15T07:59:27Z</time>
      </trkpt>
      <trkpt lat="42.7570587862" lon="-8.3435635921">
        <ele>316.89</ele>
        <time>2020-08-15T07:59:36Z</time>
      </trkpt>
      <trkpt lat="42.7570657432" lon="-8.3435764164">
        <ele>317.37</ele>
        <time>2020-08-15T07:59:53Z</time>
      </trkpt>
      <trkpt lat="42.7570776455" lon="-8.3435884025">
        <ele>318.33</ele>
        <time>2020-08-15T08:00:08Z</time>
      </trkpt>
      <trkpt lat="42.7570790704" lon="-8.3435675316">
        <ele>318.81</ele>
        <time>2020-08-15T08:00:32Z</time>
      </trkpt>
      <trkpt lat="42.7570631448" lon="-8.3435397875">
        <ele>319.30</ele>
        <time>2020-08-15T08:01:05Z</time>
      </trkpt>
      <trkpt lat="42.7570511587" lon="-8.3435303997">
        <ele>320.26</ele>
        <time>2020-08-15T08:01:31Z</time>
      </trkpt>
      <trkpt lat="42.7570412681" lon="-8.3435489237">
        <ele>318.81</ele>
        <time>2020-08-15T08:01:56Z</time>
      </trkpt>
      <trkpt lat="42.7570438664" lon="-8.3435370214">
        <ele>318.33</ele>
        <time>2020-08-15T08:02:24Z</time>
      </trkpt>
      <trkpt lat="42.7570348978" lon="-8.3435491752">
        <ele>317.85</ele>
        <time>2020-08-15T08:02:49Z</time>
      </trkpt>
      <trkpt lat="42.7570477221" lon="-8.3435718901">
        <ele>316.41</ele>
        <time>2020-08-15T08:03:17Z</time>
      </trkpt>
      <trkpt lat="42.7570464648" lon="-8.3435461577">
        <ele>312.57</ele>
        <time>2020-08-15T08:03:42Z</time>
      </trkpt>
      <trkpt lat="42.7570328861" lon="-8.3435478341">
        <ele>314.01</ele>
        <time>2020-08-15T08:04:04Z</time>
      </trkpt>
      <trkpt lat="42.7570443694" lon="-8.3435500134">
        <ele>313.53</ele>
        <time>2020-08-15T08:04:13Z</time>
      </trkpt>
      <trkpt lat="42.7569919825" lon="-8.3435843792">
        <ele>314.49</ele>
        <time>2020-08-15T08:04:20Z</time>
      </trkpt>
      <trkpt lat="42.7568244282" lon="-8.3437274583">
        <ele>315.93</ele>
        <time>2020-08-15T08:04:29Z</time>
      </trkpt>
      <trkpt lat="42.7566087618" lon="-8.3439482376">
        <ele>316.89</ele>
        <time>2020-08-15T08:04:40Z</time>
      </trkpt>
      <trkpt lat="42.7564971149" lon="-8.3441163786">
        <ele>317.85</ele>
        <time>2020-08-15T08:04:47Z</time>
      </trkpt>
      <trkpt lat="42.7563666925" lon="-8.3443747927">
        <ele>318.81</ele>
        <time>2020-08-15T08:04:57Z</time>
      </trkpt>
      <trkpt lat="42.7562608290" lon="-8.3446530718">
        <ele>320.74</ele>
        <time>2020-08-15T08:05:07Z</time>
      </trkpt>
      <trkpt lat="42.7561733220" lon="-8.3449041098">
        <ele>322.18</ele>
        <time>2020-08-15T08:05:16Z</time>
      </trkpt>
      <trkpt lat="42.7560486831" lon="-8.3452385478">
        <ele>324.10</ele>
        <time>2020-08-15T08:05:29Z</time>
      </trkpt>
      <trkpt lat="42.7559522912" lon="-8.3455228619">
        <ele>325.06</ele>
        <time>2020-08-15T08:05:40Z</time>
      </trkpt>
      <trkpt lat="42.7558377106" lon="-8.3458240237">
        <ele>327.47</ele>
        <time>2020-08-15T08:05:52Z</time>
      </trkpt>
      <trkpt lat="42.7557446714" lon="-8.3461092599">
        <ele>328.43</ele>
        <time>2020-08-15T08:06:03Z</time>
      </trkpt>
      <trkpt lat="42.7556836512" lon="-8.3463976812">
        <ele>328.91</ele>
        <time>2020-08-15T08:06:13Z</time>
      </trkpt>
      <trkpt lat="42.7556867525" lon="-8.3466252498">
        <ele>329.87</ele>
        <time>2020-08-15T08:06:21Z</time>
      </trkpt>
      <trkpt lat="42.7557062823" lon="-8.3468222246">
        <ele>328.91</ele>
        <time>2020-08-15T08:06:29Z</time>
      </trkpt>
      <trkpt lat="42.7557120658" lon="-8.3470790461">
        <ele>327.47</ele>
        <time>2020-08-15T08:06:38Z</time>
      </trkpt>
      <trkpt lat="42.7557166759" lon="-8.3473108895">
        <ele>327.95</ele>
        <time>2020-08-15T08:06:45Z</time>
      </trkpt>
      <trkpt lat="42.7557347808" lon="-8.3475397993">
        <ele>327.95</ele>
        <time>2020-08-15T08:06:52Z</time>
      </trkpt>
      <trkpt lat="42.7557461802" lon="-8.3478314895">
        <ele>329.39</ele>
        <time>2020-08-15T08:07:01Z</time>
      </trkpt>
      <trkpt lat="42.7557584178" lon="-8.3481168933">
        <ele>328.91</ele>
        <time>2020-08-15T08:07:10Z</time>
      </trkpt>
      <trkpt lat="42.7557638660" lon="-8.3483615611">
        <ele>326.50</ele>
        <time>2020-08-15T08:07:18Z</time>
      </trkpt>
      <trkpt lat="42.7557880059" lon="-8.3486528322">
        <ele>326.99</ele>
        <time>2020-08-15T08:07:27Z</time>
      </trkpt>
      <trkpt lat="42.7558012493" lon="-8.3488239069">
        <ele>327.95</ele>
        <time>2020-08-15T08:07:33Z</time>
      </trkpt>
      <trkpt lat="42.7558047697" lon="-8.3490922954">
        <ele>327.95</ele>
        <time>2020-08-15T08:07:41Z</time>
      </trkpt>
      <trkpt lat="42.7558102179" lon="-8.3494449221">
        <ele>327.95</ele>
        <time>2020-08-15T08:07:50Z</time>
      </trkpt>
      <trkpt lat="42.7558263112" lon="-8.3497993089">
        <ele>331.31</ele>
        <time>2020-08-15T08:07:59Z</time>
      </trkpt>
      <trkpt lat="42.7558024228" lon="-8.3500910830">
        <ele>337.08</ele>
        <time>2020-08-15T08:08:07Z</time>
      </trkpt>
      <trkpt lat="42.7557758521" lon="-8.3503204957">
        <ele>338.04</ele>
        <time>2020-08-15T08:08:13Z</time>
      </trkpt>
      <trkpt lat="42.7556780353" lon="-8.3507297840">
        <ele>339.96</ele>
        <time>2020-08-15T08:08:23Z</time>
      </trkpt>
      <trkpt lat="42.7556163445" lon="-8.3510591090">
        <ele>340.44</ele>
        <time>2020-08-15T08:08:30Z</time>
      </trkpt>
      <trkpt lat="42.7555787098" lon="-8.3513709158">
        <ele>341.41</ele>
        <time>2020-08-15T08:08:37Z</time>
      </trkpt>
      <trkpt lat="42.7555175219" lon="-8.3517349418">
        <ele>340.44</ele>
        <time>2020-08-15T08:08:44Z</time>
      </trkpt>
      <trkpt lat="42.7554958127" lon="-8.3519138116">
        <ele>339.00</ele>
        <time>2020-08-15T08:08:47Z</time>
      </trkpt>
      <trkpt lat="42.7554953098" lon="-8.3519727364">
        <ele>338.52</ele>
        <time>2020-08-15T08:08:48Z</time>
      </trkpt>
      <trkpt lat="42.7555083018" lon="-8.3521003090">
        <ele>338.04</ele>
        <time>2020-08-15T08:08:50Z</time>
      </trkpt>
      <trkpt lat="42.7555228025" lon="-8.3521619160">
        <ele>337.56</ele>
        <time>2020-08-15T08:08:51Z</time>
      </trkpt>
      <trkpt lat="42.7555410750" lon="-8.3522273786">
        <ele>337.56</ele>
        <time>2020-08-15T08:08:52Z</time>
      </trkpt>
      <trkpt lat="42.7555875946" lon="-8.3523580525">
        <ele>337.08</ele>
        <time>2020-08-15T08:08:54Z</time>
      </trkpt>
      <trkpt lat="42.7558785304" lon="-8.3529191371">
        <ele>335.16</ele>
        <time>2020-08-15T08:09:03Z</time>
      </trkpt>
      <trkpt lat="42.7562626731" lon="-8.3536399808">
        <ele>331.79</ele>
        <time>2020-08-15T08:09:14Z</time>
      </trkpt>
      <trkpt lat="42.7564170677" lon="-8.3539235406">
        <ele>330.83</ele>
        <time>2020-08-15T08:09:20Z</time>
      </trkpt>
      <trkpt lat="42.7564402018" lon="-8.3540597465">
        <ele>330.83</ele>
        <time>2020-08-15T08:09:23Z</time>
      </trkpt>
      <trkpt lat="42.7564323228" lon="-8.3540973812">
        <ele>330.83</ele>
        <time>2020-08-15T08:09:24Z</time>
      </trkpt>
      <trkpt lat="42.7564200852" lon="-8.3541307412">
        <ele>331.31</ele>
        <time>2020-08-15T08:09:25Z</time>
      </trkpt>
      <trkpt lat="42.7564007230" lon="-8.3541616704">
        <ele>331.79</ele>
        <time>2020-08-15T08:09:26Z</time>
      </trkpt>
      <trkpt lat="42.7563784271" lon="-8.3541899174">
        <ele>332.27</ele>
        <time>2020-08-15T08:09:27Z</time>
      </trkpt>
      <trkpt lat="42.7561674546" lon="-8.3544521034">
        <ele>337.56</ele>
        <time>2020-08-15T08:09:35Z</time>
      </trkpt>
      <trkpt lat="42.7559163328" lon="-8.3547045663">
        <ele>341.41</ele>
        <time>2020-08-15T08:09:44Z</time>
      </trkpt>
      <trkpt lat="42.7557367086" lon="-8.3548934944">
        <ele>341.89</ele>
        <time>2020-08-15T08:09:52Z</time>
      </trkpt>
      <trkpt lat="42.7557291649" lon="-8.3549319673">
        <ele>341.89</ele>
        <time>2020-08-15T08:09:53Z</time>
      </trkpt>
      <trkpt lat="42.7557354514" lon="-8.3549658302">
        <ele>341.41</ele>
        <time>2020-08-15T08:09:54Z</time>
      </trkpt>
      <trkpt lat="42.7557476051" lon="-8.3549885452">
        <ele>341.41</ele>
        <time>2020-08-15T08:09:55Z</time>
      </trkpt>
      <trkpt lat="42.7557699010" lon="-8.3550120145">
        <ele>340.92</ele>
        <time>2020-08-15T08:09:56Z</time>
      </trkpt>
      <trkpt lat="42.7557952143" lon="-8.3550343104">
        <ele>340.44</ele>
        <time>2020-08-15T08:09:57Z</time>
      </trkpt>
      <trkpt lat="42.7559729945" lon="-8.3552113362">
        <ele>338.52</ele>
        <time>2020-08-15T08:10:04Z</time>
      </trkpt>
      <trkpt lat="42.7561352681" lon="-8.3553933073">
        <ele>337.08</ele>
        <time>2020-08-15T08:10:11Z</time>
      </trkpt>
      <trkpt lat="42.7563139703" lon="-8.3555808105">
        <ele>334.20</ele>
        <time>2020-08-15T08:10:19Z</time>
      </trkpt>
      <trkpt lat="42.7564512659" lon="-8.3556917030">
        <ele>333.23</ele>
        <time>2020-08-15T08:10:25Z</time>
      </trkpt>
      <trkpt lat="42.7565137949" lon="-8.3559215348">
        <ele>334.20</ele>
        <time>2020-08-15T08:10:32Z</time>
      </trkpt>
      <trkpt lat="42.7565559559" lon="-8.3561671246">
        <ele>334.68</ele>
        <time>2020-08-15T08:10:39Z</time>
      </trkpt>
      <trkpt lat="42.7566851210" lon="-8.3564354293">
        <ele>334.68</ele>
        <time>2020-08-15T08:10:47Z</time>
      </trkpt>
      <trkpt lat="42.7568653319" lon="-8.3567644190">
        <ele>334.68</ele>
        <time>2020-08-15T08:10:57Z</time>
      </trkpt>
      <trkpt lat="42.7570548467" lon="-8.3570803329">
        <ele>333.71</ele>
        <time>2020-08-15T08:11:06Z</time>
      </trkpt>
      <trkpt lat="42.7572063915" lon="-8.3574859332">
        <ele>332.27</ele>
        <time>2020-08-15T08:11:15Z</time>
      </trkpt>
      <trkpt lat="42.7573399991" lon="-8.3578870911">
        <ele>331.31</ele>
        <time>2020-08-15T08:11:24Z</time>
      </trkpt>
      <trkpt lat="42.7574015222" lon="-8.3580819704">
        <ele>331.31</ele>
        <time>2020-08-15T08:11:29Z</time>
      </trkpt>
      <trkpt lat="42.7575070504" lon="-8.3583763428">
        <ele>330.83</ele>
        <time>2020-08-15T08:11:36Z</time>
      </trkpt>
      <trkpt lat="42.7575949766" lon="-8.3585941885">
        <ele>329.39</ele>
        <time>2020-08-15T08:11:41Z</time>
      </trkpt>
      <trkpt lat="42.7577222977" lon="-8.3588961046">
        <ele>327.95</ele>
        <time>2020-08-15T08:11:49Z</time>
      </trkpt>
      <trkpt lat="42.7577814739" lon="-8.3590611443">
        <ele>326.50</ele>
        <time>2020-08-15T08:11:54Z</time>
      </trkpt>
      <trkpt lat="42.7578863315" lon="-8.3592918143">
        <ele>326.50</ele>
        <time>2020-08-15T08:12:00Z</time>
      </trkpt>
      <trkpt lat="42.7579657920" lon="-8.3594694268">
        <ele>327.95</ele>
        <time>2020-08-15T08:12:05Z</time>
      </trkpt>
      <trkpt lat="42.7580553107" lon="-8.3597030304">
        <ele>330.83</ele>
        <time>2020-08-15T08:12:12Z</time>
      </trkpt>
      <trkpt lat="42.7581268921" lon="-8.3599028550">
        <ele>331.79</ele>
        <time>2020-08-15T08:12:18Z</time>
      </trkpt>
      <trkpt lat="42.7582202666" lon="-8.3601576649">
        <ele>332.75</ele>
        <time>2020-08-15T08:12:25Z</time>
      </trkpt>
      <trkpt lat="42.7582480945" lon="-8.3603936154">
        <ele>333.23</ele>
        <time>2020-08-15T08:12:31Z</time>
      </trkpt>
      <trkpt lat="42.7582642715" lon="-8.3606222738">
        <ele>334.20</ele>
        <time>2020-08-15T08:12:39Z</time>
      </trkpt>
      <trkpt lat="42.7582693007" lon="-8.3606431447">
        <ele>334.20</ele>
        <time>2020-08-15T08:12:40Z</time>
      </trkpt>
      <trkpt lat="42.7582728211" lon="-8.3606691286">
        <ele>334.20</ele>
        <time>2020-08-15T08:12:41Z</time>
      </trkpt>
      <trkpt lat="42.7582777664" lon="-8.3606964536">
        <ele>334.68</ele>
        <time>2020-08-15T08:12:42Z</time>
      </trkpt>
      <trkpt lat="42.7582824603" lon="-8.3607215155">
        <ele>334.68</ele>
        <time>2020-08-15T08:12:43Z</time>
      </trkpt>
      <trkpt lat="42.7583075222" lon="-8.3608582243">
        <ele>336.12</ele>
        <time>2020-08-15T08:12:50Z</time>
      </trkpt>
      <trkpt lat="42.7583485935" lon="-8.3610192407">
        <ele>338.04</ele>
        <time>2020-08-15T08:12:59Z</time>
      </trkpt>
      <trkpt lat="42.7583927661" lon="-8.3611329831">
        <ele>339.48</ele>
        <time>2020-08-15T08:13:06Z</time>
      </trkpt>
      <trkpt lat="42.7584024053" lon="-8.3611475676">
        <ele>339.48</ele>
        <time>2020-08-15T08:13:07Z</time>
      </trkpt>
      <trkpt lat="42.7584117930" lon="-8.3611613140">
        <ele>339.96</ele>
        <time>2020-08-15T08:13:08Z</time>
      </trkpt>
      <trkpt lat="42.7584808599" lon="-8.3612495754">
        <ele>341.41</ele>
        <time>2020-08-15T08:13:16Z</time>
      </trkpt>
      <trkpt lat="42.7585343365" lon="-8.3613149542">
        <ele>341.89</ele>
        <time>2020-08-15T08:13:21Z</time>
      </trkpt>
      <trkpt lat="42.7585860528" lon="-8.3614351507">
        <ele>342.85</ele>
        <time>2020-08-15T08:13:28Z</time>
      </trkpt>
      <trkpt lat="42.7585989609" lon="-8.3614911418">
        <ele>343.81</ele>
        <time>2020-08-15T08:13:31Z</time>
      </trkpt>
      <trkpt lat="42.7586012240" lon="-8.3615113422">
        <ele>343.81</ele>
        <time>2020-08-15T08:13:32Z</time>
      </trkpt>
      <trkpt lat="42.7586401161" lon="-8.3616564330">
        <ele>344.77</ele>
        <time>2020-08-15T08:13:40Z</time>
      </trkpt>
      <trkpt lat="42.7586715482" lon="-8.3618423436">
        <ele>345.25</ele>
        <time>2020-08-15T08:13:47Z</time>
      </trkpt>
      <trkpt lat="42.7587385196" lon="-8.3621518873">
        <ele>344.77</ele>
        <time>2020-08-15T08:13:54Z</time>
      </trkpt>
      <trkpt lat="42.7588031441" lon="-8.3624871634">
        <ele>343.81</ele>
        <time>2020-08-15T08:14:02Z</time>
      </trkpt>
      <trkpt lat="42.7588756476" lon="-8.3628566377">
        <ele>342.37</ele>
        <time>2020-08-15T08:14:11Z</time>
      </trkpt>
      <trkpt lat="42.7589597180" lon="-8.3632050734">
        <ele>342.37</ele>
        <time>2020-08-15T08:14:21Z</time>
      </trkpt>
      <trkpt lat="42.7590075787" lon="-8.3634900581">
        <ele>342.37</ele>
        <time>2020-08-15T08:14:30Z</time>
      </trkpt>
      <trkpt lat="42.7590409387" lon="-8.3637296129">
        <ele>342.85</ele>
        <time>2020-08-15T08:14:38Z</time>
      </trkpt>
      <trkpt lat="42.7591234166" lon="-8.3638476301">
        <ele>343.33</ele>
        <time>2020-08-15T08:14:45Z</time>
      </trkpt>
      <trkpt lat="42.7592043020" lon="-8.3640078921">
        <ele>344.77</ele>
        <time>2020-08-15T08:14:53Z</time>
      </trkpt>
      <trkpt lat="42.7593066450" lon="-8.3641782962">
        <ele>345.73</ele>
        <time>2020-08-15T08:15:03Z</time>
      </trkpt>
      <trkpt lat="42.7594260033" lon="-8.3643178549">
        <ele>347.17</ele>
        <time>2020-08-15T08:15:13Z</time>
      </trkpt>
      <trkpt lat="42.7595381532" lon="-8.3644558210">
        <ele>347.17</ele>
        <time>2020-08-15T08:15:21Z</time>
      </trkpt>
      <trkpt lat="42.7596430108" lon="-8.3645937871">
        <ele>347.65</ele>
        <time>2020-08-15T08:15:29Z</time>
      </trkpt>
      <trkpt lat="42.7597423363" lon="-8.3647372853">
        <ele>349.58</ele>
        <time>2020-08-15T08:15:37Z</time>
      </trkpt>
      <trkpt lat="42.7598449308" lon="-8.3648517821">
        <ele>350.06</ele>
        <time>2020-08-15T08:15:45Z</time>
      </trkpt>
      <trkpt lat="42.7599614393" lon="-8.3650160674">
        <ele>350.06</ele>
        <time>2020-08-15T08:15:54Z</time>
      </trkpt>
      <trkpt lat="42.7600963041" lon="-8.3651643433">
        <ele>351.02</ele>
        <time>2020-08-15T08:16:02Z</time>
      </trkpt>
      <trkpt lat="42.7602356113" lon="-8.3651883993">
        <ele>354.38</ele>
        <time>2020-08-15T08:16:10Z</time>
      </trkpt>
      <trkpt lat="42.7603021637" lon="-8.3651646785">
        <ele>355.34</ele>
        <time>2020-08-15T08:16:17Z</time>
      </trkpt>
      <trkpt lat="42.7603317518" lon="-8.3651711326">
        <ele>354.86</ele>
        <time>2020-08-15T08:16:28Z</time>
      </trkpt>
      <trkpt lat="42.7603500243" lon="-8.3652126230">
        <ele>354.86</ele>
        <time>2020-08-15T08:16:46Z</time>
      </trkpt>
      <trkpt lat="42.7603614237" lon="-8.3652102761">
        <ele>356.31</ele>
        <time>2020-08-15T08:17:05Z</time>
      </trkpt>
      <trkpt lat="42.7603617590" lon="-8.3651657682">
        <ele>356.79</ele>
        <time>2020-08-15T08:17:25Z</time>
      </trkpt>
      <trkpt lat="42.7603614237" lon="-8.3651635889">
        <ele>359.19</ele>
        <time>2020-08-15T08:17:42Z</time>
      </trkpt>
      <trkpt lat="42.7603645250" lon="-8.3651662711">
        <ele>360.15</ele>
        <time>2020-08-15T08:17:55Z</time>
      </trkpt>
      <trkpt lat="42.7603726555" lon="-8.3651318215">
        <ele>362.55</ele>
        <time>2020-08-15T08:18:14Z</time>
      </trkpt>
      <trkpt lat="42.7603875753" lon="-8.3651286364">
        <ele>363.04</ele>
        <time>2020-08-15T08:18:27Z</time>
      </trkpt>
      <trkpt lat="42.7604151517" lon="-8.3651200030">
        <ele>364.00</ele>
        <time>2020-08-15T08:18:29Z</time>
      </trkpt>
      <trkpt lat="42.7604317479" lon="-8.3651180752">
        <ele>364.00</ele>
        <time>2020-08-15T08:18:30Z</time>
      </trkpt>
      <trkpt lat="42.7604474220" lon="-8.3651179075">
        <ele>364.00</ele>
        <time>2020-08-15T08:18:31Z</time>
      </trkpt>
      <trkpt lat="42.7604682930" lon="-8.3651221823">
        <ele>364.48</ele>
        <time>2020-08-15T08:18:32Z</time>
      </trkpt>
      <trkpt lat="42.7604862303" lon="-8.3651313186">
        <ele>364.96</ele>
        <time>2020-08-15T08:18:33Z</time>
      </trkpt>
      <trkpt lat="42.7604990546" lon="-8.3651397005">
        <ele>365.44</ele>
        <time>2020-08-15T08:18:34Z</time>
      </trkpt>
      <trkpt lat="42.7605098672" lon="-8.3651516866">
        <ele>365.92</ele>
        <time>2020-08-15T08:18:35Z</time>
      </trkpt>
      <trkpt lat="42.7605423052" lon="-8.3652227651">
        <ele>365.92</ele>
        <time>2020-08-15T08:18:41Z</time>
      </trkpt>
      <trkpt lat="42.7605461609" lon="-8.3652386907">
        <ele>365.92</ele>
        <time>2020-08-15T08:18:42Z</time>
      </trkpt>
      <trkpt lat="42.7605529502" lon="-8.3652600646">
        <ele>366.40</ele>
        <time>2020-08-15T08:18:43Z</time>
      </trkpt>
      <trkpt lat="42.7605622541" lon="-8.3652838692">
        <ele>366.40</ele>
        <time>2020-08-15T08:18:44Z</time>
      </trkpt>
      <trkpt lat="42.7605680376" lon="-8.3653077576">
        <ele>366.40</ele>
        <time>2020-08-15T08:18:45Z</time>
      </trkpt>
      <trkpt lat="42.7605732344" lon="-8.3653305564">
        <ele>366.40</ele>
        <time>2020-08-15T08:18:46Z</time>
      </trkpt>
      <trkpt lat="42.7606146410" lon="-8.3655074984">
        <ele>365.44</ele>
        <time>2020-08-15T08:18:53Z</time>
      </trkpt>
      <trkpt lat="42.7606553771" lon="-8.3656719513">
        <ele>364.48</ele>
        <time>2020-08-15T08:19:00Z</time>
      </trkpt>
      <trkpt lat="42.7607146371" lon="-8.3659203909">
        <ele>363.52</ele>
        <time>2020-08-15T08:19:08Z</time>
      </trkpt>
      <trkpt lat="42.7607733943" lon="-8.3661513962">
        <ele>364.00</ele>
        <time>2020-08-15T08:19:15Z</time>
      </trkpt>
      <trkpt lat="42.7608447243" lon="-8.3664326090">
        <ele>365.44</ele>
        <time>2020-08-15T08:19:23Z</time>
      </trkpt>
      <trkpt lat="42.7609281242" lon="-8.3667647000">
        <ele>364.96</ele>
        <time>2020-08-15T08:19:31Z</time>
      </trkpt>
      <trkpt lat="42.7610179782" lon="-8.3670578152">
        <ele>363.04</ele>
        <time>2020-08-15T08:19:38Z</time>
      </trkpt>
      <trkpt lat="42.7611252666" lon="-8.3673064224">
        <ele>361.11</ele>
        <time>2020-08-15T08:19:44Z</time>
      </trkpt>
      <trkpt lat="42.7612297051" lon="-8.3674978651">
        <ele>359.19</ele>
        <time>2020-08-15T08:19:50Z</time>
      </trkpt>
      <trkpt lat="42.7613131050" lon="-8.3676830214">
        <ele>360.15</ele>
        <time>2020-08-15T08:19:56Z</time>
      </trkpt>
      <trkpt lat="42.7614428569" lon="-8.3680326305">
        <ele>359.19</ele>
        <time>2020-08-15T08:20:04Z</time>
      </trkpt>
      <trkpt lat="42.7615688369" lon="-8.3683111612">
        <ele>360.15</ele>
        <time>2020-08-15T08:20:10Z</time>
      </trkpt>
      <trkpt lat="42.7616418432" lon="-8.3685791306">
        <ele>359.67</ele>
        <time>2020-08-15T08:20:16Z</time>
      </trkpt>
      <trkpt lat="42.7617242374" lon="-8.3689103834">
        <ele>360.15</ele>
        <time>2020-08-15T08:20:23Z</time>
      </trkpt>
      <trkpt lat="42.7618433442" lon="-8.3692337573">
        <ele>361.11</ele>
        <time>2020-08-15T08:20:29Z</time>
      </trkpt>
      <trkpt lat="42.7620206214" lon="-8.3695490006">
        <ele>360.15</ele>
        <time>2020-08-15T08:20:36Z</time>
      </trkpt>
      <trkpt lat="42.7621911932" lon="-8.3697881363">
        <ele>359.19</ele>
        <time>2020-08-15T08:20:42Z</time>
      </trkpt>
      <trkpt lat="42.7623577416" lon="-8.3700386714">
        <ele>356.79</ele>
        <time>2020-08-15T08:20:48Z</time>
      </trkpt>
      <trkpt lat="42.7626157366" lon="-8.3703926392">
        <ele>352.94</ele>
        <time>2020-08-15T08:20:56Z</time>
      </trkpt>
      <trkpt lat="42.7626514435" lon="-8.3704366442">
        <ele>352.46</ele>
        <time>2020-08-15T08:20:57Z</time>
      </trkpt>
      <trkpt lat="42.7626852226" lon="-8.3704781346">
        <ele>351.98</ele>
        <time>2020-08-15T08:20:58Z</time>
      </trkpt>
      <trkpt lat="42.7627187502" lon="-8.3705169428">
        <ele>351.50</ele>
        <time>2020-08-15T08:20:59Z</time>
      </trkpt>
      <trkpt lat="42.7628978714" lon="-8.3707164321">
        <ele>350.06</ele>
        <time>2020-08-15T08:21:05Z</time>
      </trkpt>
      <trkpt lat="42.7630805969" lon="-8.3709562384">
        <ele>349.10</ele>
        <time>2020-08-15T08:21:13Z</time>
      </trkpt>
      <trkpt lat="42.7630937565" lon="-8.3709753491">
        <ele>349.10</ele>
        <time>2020-08-15T08:21:14Z</time>
      </trkpt>
      <trkpt lat="42.7631515078" lon="-8.3710689750">
        <ele>349.10</ele>
        <time>2020-08-15T08:21:22Z</time>
      </trkpt>
      <trkpt lat="42.7632048167" lon="-8.3711563144">
        <ele>348.13</ele>
        <time>2020-08-15T08:21:36Z</time>
      </trkpt>
      <trkpt lat="42.7632150427" lon="-8.3711807895">
        <ele>347.17</ele>
        <time>2020-08-15T08:21:51Z</time>
      </trkpt>
      <trkpt lat="42.7632010449" lon="-8.3711797837">
        <ele>345.25</ele>
        <time>2020-08-15T08:22:06Z</time>
      </trkpt>
      <trkpt lat="42.7631874662" lon="-8.3711714018">
        <ele>343.33</ele>
        <time>2020-08-15T08:22:19Z</time>
      </trkpt>
      <trkpt lat="42.7631742228" lon="-8.3711662889">
        <ele>339.96</ele>
        <time>2020-08-15T08:22:40Z</time>
      </trkpt>
      <trkpt lat="42.7631823532" lon="-8.3711809572">
        <ele>339.48</ele>
        <time>2020-08-15T08:22:58Z</time>
      </trkpt>
      <trkpt lat="42.7631696127" lon="-8.3711820468">
        <ele>338.04</ele>
        <time>2020-08-15T08:23:12Z</time>
      </trkpt>
      <trkpt lat="42.7631841972" lon="-8.3711527102">
        <ele>339.00</ele>
        <time>2020-08-15T08:23:24Z</time>
      </trkpt>
      <trkpt lat="42.7631943393" lon="-8.3711496089">
        <ele>338.04</ele>
        <time>2020-08-15T08:23:41Z</time>
      </trkpt>
      <trkpt lat="42.7631764859" lon="-8.3711395506">
        <ele>339.48</ele>
        <time>2020-08-15T08:23:59Z</time>
      </trkpt>
      <trkpt lat="42.7631765697" lon="-8.3711326774">
        <ele>340.44</ele>
        <time>2020-08-15T08:24:12Z</time>
      </trkpt>
      <trkpt lat="42.7631852869" lon="-8.3711124770">
        <ele>340.92</ele>
        <time>2020-08-15T08:24:24Z</time>
      </trkpt>
      <trkpt lat="42.7631838620" lon="-8.3711411431">
        <ele>343.33</ele>
        <time>2020-08-15T08:24:39Z</time>
      </trkpt>
      <trkpt lat="42.7631891426" lon="-8.3711577393">
        <ele>341.89</ele>
        <time>2020-08-15T08:24:55Z</time>
      </trkpt>
      <trkpt lat="42.7632044815" lon="-8.3711382933">
        <ele>340.92</ele>
        <time>2020-08-15T08:25:12Z</time>
      </trkpt>
      <trkpt lat="42.7631726302" lon="-8.3711441606">
        <ele>340.44</ele>
        <time>2020-08-15T08:25:31Z</time>
      </trkpt>
      <trkpt lat="42.7631826047" lon="-8.3711564820">
        <ele>342.37</ele>
        <time>2020-08-15T08:25:46Z</time>
      </trkpt>
      <trkpt lat="42.7631862089" lon="-8.3711414784">
        <ele>342.37</ele>
        <time>2020-08-15T08:25:57Z</time>
      </trkpt>
      <trkpt lat="42.7631833591" lon="-8.3711539675">
        <ele>342.37</ele>
        <time>2020-08-15T08:26:06Z</time>
      </trkpt>
      <trkpt lat="42.7631670143" lon="-8.3711584099">
        <ele>342.85</ele>
        <time>2020-08-15T08:26:13Z</time>
      </trkpt>
      <trkpt lat="42.7631540224" lon="-8.3711216971">
        <ele>343.33</ele>
        <time>2020-08-15T08:26:20Z</time>
      </trkpt>
      <trkpt lat="42.7631784137" lon="-8.3710576594">
        <ele>342.85</ele>
        <time>2020-08-15T08:26:28Z</time>
      </trkpt>
      <trkpt lat="42.7631849516" lon="-8.3710242156">
        <ele>342.85</ele>
        <time>2020-08-15T08:26:38Z</time>
      </trkpt>
      <trkpt lat="42.7631912380" lon="-8.3709873352">
        <ele>343.81</ele>
        <time>2020-08-15T08:26:54Z</time>
      </trkpt>
      <trkpt lat="42.7632029727" lon="-8.3709849883">
        <ele>346.21</ele>
        <time>2020-08-15T08:27:14Z</time>
      </trkpt>
      <trkpt lat="42.7632302977" lon="-8.3710154984">
        <ele>345.25</ele>
        <time>2020-08-15T08:27:34Z</time>
      </trkpt>
      <trkpt lat="42.7632358298" lon="-8.3710139059">
        <ele>342.37</ele>
        <time>2020-08-15T08:27:52Z</time>
      </trkpt>
      <trkpt lat="42.7632357460" lon="-8.3709993213">
        <ele>343.33</ele>
        <time>2020-08-15T08:28:08Z</time>
      </trkpt>
      <trkpt lat="42.7632145397" lon="-8.3710071165">
        <ele>346.21</ele>
        <time>2020-08-15T08:28:24Z</time>
      </trkpt>
      <trkpt lat="42.7632070798" lon="-8.3710123133">
        <ele>347.17</ele>
        <time>2020-08-15T08:28:43Z</time>
      </trkpt>
      <trkpt lat="42.7632037271" lon="-8.3709897660">
        <ele>347.65</ele>
        <time>2020-08-15T08:28:59Z</time>
      </trkpt>
      <trkpt lat="42.7632210776" lon="-8.3709890116">
        <ele>349.58</ele>
        <time>2020-08-15T08:29:18Z</time>
      </trkpt>
      <trkpt lat="42.7632133663" lon="-8.3710149955">
        <ele>350.54</ele>
        <time>2020-08-15T08:29:35Z</time>
      </trkpt>
      <trkpt lat="42.7632043138" lon="-8.3710174263">
        <ele>349.58</ele>
        <time>2020-08-15T08:29:42Z</time>
      </trkpt>
      <trkpt lat="42.7631946746" lon="-8.3710284065">
        <ele>347.65</ele>
        <time>2020-08-15T08:29:50Z</time>
      </trkpt>
      <trkpt lat="42.7632006258" lon="-8.3710444998">
        <ele>346.69</ele>
        <time>2020-08-15T08:29:58Z</time>
      </trkpt>
      <trkpt lat="42.7631984465" lon="-8.3710415661">
        <ele>346.21</ele>
        <time>2020-08-15T08:30:09Z</time>
      </trkpt>
      <trkpt lat="42.7632085886" lon="-8.3710315917">
        <ele>347.65</ele>
        <time>2020-08-15T08:30:19Z</time>
      </trkpt>
      <trkpt lat="42.7631929982" lon="-8.3710133191">
        <ele>347.17</ele>
        <time>2020-08-15T08:30:33Z</time>
      </trkpt>
      <trkpt lat="42.7631846163" lon="-8.3709934540">
        <ele>345.25</ele>
        <time>2020-08-15T08:30:48Z</time>
      </trkpt>
      <trkpt lat="42.7632130310" lon="-8.3709979802">
        <ele>347.65</ele>
        <time>2020-08-15T08:31:05Z</time>
      </trkpt>
      <trkpt lat="42.7632602211" lon="-8.3709814679">
        <ele>349.10</ele>
        <time>2020-08-15T08:31:23Z</time>
      </trkpt>
      <trkpt lat="42.7632567007" lon="-8.3709840663">
        <ele>348.13</ele>
        <time>2020-08-15T08:31:39Z</time>
      </trkpt>
      <trkpt lat="42.7632561978" lon="-8.3709727507">
        <ele>349.10</ele>
        <time>2020-08-15T08:31:56Z</time>
      </trkpt>
      <trkpt lat="42.7632504981" lon="-8.3709592558">
        <ele>349.10</ele>
        <time>2020-08-15T08:32:05Z</time>
      </trkpt>
      <trkpt lat="42.7632254362" lon="-8.3710399736">
        <ele>348.62</ele>
        <time>2020-08-15T08:32:14Z</time>
      </trkpt>
      <trkpt lat="42.7632106841" lon="-8.3711020835">
        <ele>346.69</ele>
        <time>2020-08-15T08:32:21Z</time>
      </trkpt>
      <trkpt lat="42.7632214967" lon="-8.3711330127">
        <ele>347.17</ele>
        <time>2020-08-15T08:32:28Z</time>
      </trkpt>
      <trkpt lat="42.7633293718" lon="-8.3712649439">
        <ele>346.69</ele>
        <time>2020-08-15T08:32:35Z</time>
      </trkpt>
      <trkpt lat="42.7634242550" lon="-8.3714097831">
        <ele>344.77</ele>
        <time>2020-08-15T08:32:41Z</time>
      </trkpt>
      <trkpt lat="42.7634388395" lon="-8.3714321628">
        <ele>344.77</ele>
        <time>2020-08-15T08:32:42Z</time>
      </trkpt>
      <trkpt lat="42.7635235805" lon="-8.3715507668">
        <ele>343.33</ele>
        <time>2020-08-15T08:32:47Z</time>
      </trkpt>
      <trkpt lat="42.7637096588" lon="-8.3717474900">
        <ele>341.89</ele>
        <time>2020-08-15T08:32:55Z</time>
      </trkpt>
      <trkpt lat="42.7638898697" lon="-8.3719082549">
        <ele>341.41</ele>
        <time>2020-08-15T08:33:01Z</time>
      </trkpt>
      <trkpt lat="42.7641000878" lon="-8.3720966801">
        <ele>340.92</ele>
        <time>2020-08-15T08:33:08Z</time>
      </trkpt>
      <trkpt lat="42.7642577514" lon="-8.3722738735">
        <ele>341.89</ele>
        <time>2020-08-15T08:33:14Z</time>
      </trkpt>
      <trkpt lat="42.7644206956" lon="-8.3724373206">
        <ele>341.41</ele>
        <time>2020-08-15T08:33:20Z</time>
      </trkpt>
      <trkpt lat="42.7646392956" lon="-8.3726204652">
        <ele>339.48</ele>
        <time>2020-08-15T08:33:27Z</time>
      </trkpt>
      <trkpt lat="42.7648417186" lon="-8.3728253189">
        <ele>337.08</ele>
        <time>2020-08-15T08:33:35Z</time>
      </trkpt>
      <trkpt lat="42.7650141343" lon="-8.3729990758">
        <ele>333.71</ele>
        <time>2020-08-15T08:33:43Z</time>
      </trkpt>
      <trkpt lat="42.7651878912" lon="-8.3731708210">
        <ele>331.79</ele>
        <time>2020-08-15T08:33:50Z</time>
      </trkpt>
      <trkpt lat="42.7652914915" lon="-8.3734029997">
        <ele>330.83</ele>
        <time>2020-08-15T08:33:56Z</time>
      </trkpt>
      <trkpt lat="42.7654202376" lon="-8.3736298978">
        <ele>328.43</ele>
        <time>2020-08-15T08:34:02Z</time>
      </trkpt>
      <trkpt lat="42.7656052262" lon="-8.3738707937">
        <ele>325.54</ele>
        <time>2020-08-15T08:34:09Z</time>
      </trkpt>
      <trkpt lat="42.7656426094" lon="-8.3740637451">
        <ele>324.58</ele>
        <time>2020-08-15T08:34:14Z</time>
      </trkpt>
      <trkpt lat="42.7656625584" lon="-8.3742924873">
        <ele>323.62</ele>
        <time>2020-08-15T08:34:19Z</time>
      </trkpt>
      <trkpt lat="42.7656938229" lon="-8.3744409308">
        <ele>322.18</ele>
        <time>2020-08-15T08:34:22Z</time>
      </trkpt>
      <trkpt lat="42.7657971717" lon="-8.3747557551">
        <ele>319.30</ele>
        <time>2020-08-15T08:34:29Z</time>
      </trkpt>
      <trkpt lat="42.7659081481" lon="-8.3750367165">
        <ele>316.41</ele>
        <time>2020-08-15T08:34:35Z</time>
      </trkpt>
      <trkpt lat="42.7660529036" lon="-8.3753623534">
        <ele>311.60</ele>
        <time>2020-08-15T08:34:42Z</time>
      </trkpt>
      <trkpt lat="42.7660767920" lon="-8.3753965516">
        <ele>311.12</ele>
        <time>2020-08-15T08:34:43Z</time>
      </trkpt>
      <trkpt lat="42.7662730962" lon="-8.3756921813">
        <ele>305.84</ele>
        <time>2020-08-15T08:34:50Z</time>
      </trkpt>
      <trkpt lat="42.7663082164" lon="-8.3757384494">
        <ele>305.36</ele>
        <time>2020-08-15T08:34:51Z</time>
      </trkpt>
      <trkpt lat="42.7664859127" lon="-8.3759748191">
        <ele>302.95</ele>
        <time>2020-08-15T08:34:56Z</time>
      </trkpt>
      <trkpt lat="42.7666369546" lon="-8.3761177305">
        <ele>302.47</ele>
        <time>2020-08-15T08:35:02Z</time>
      </trkpt>
      <trkpt lat="42.7668013237" lon="-8.3761970233">
        <ele>301.99</ele>
        <time>2020-08-15T08:35:09Z</time>
      </trkpt>
      <trkpt lat="42.7670630906" lon="-8.3764511626">
        <ele>301.03</ele>
        <time>2020-08-15T08:35:17Z</time>
      </trkpt>
      <trkpt lat="42.7672134619" lon="-8.3765799925">
        <ele>300.55</ele>
        <time>2020-08-15T08:35:21Z</time>
      </trkpt>
      <trkpt lat="42.7674460597" lon="-8.3768102434">
        <ele>299.59</ele>
        <time>2020-08-15T08:35:28Z</time>
      </trkpt>
      <trkpt lat="42.7677230816" lon="-8.3771004248">
        <ele>298.15</ele>
        <time>2020-08-15T08:35:36Z</time>
      </trkpt>
      <trkpt lat="42.7677601296" lon="-8.3771343715">
        <ele>298.15</ele>
        <time>2020-08-15T08:35:37Z</time>
      </trkpt>
      <trkpt lat="42.7680697571" lon="-8.3774283249">
        <ele>296.70</ele>
        <time>2020-08-15T08:35:46Z</time>
      </trkpt>
      <trkpt lat="42.7683824021" lon="-8.3777270559">
        <ele>297.67</ele>
        <time>2020-08-15T08:35:54Z</time>
      </trkpt>
      <trkpt lat="42.7684340347" lon="-8.3777734078">
        <ele>297.67</ele>
        <time>2020-08-15T08:35:55Z</time>
      </trkpt>
      <trkpt lat="42.7688851487" lon="-8.3780644275">
        <ele>296.70</ele>
        <time>2020-08-15T08:36:03Z</time>
      </trkpt>
      <trkpt lat="42.7694132086" lon="-8.3783183154">
        <ele>293.82</ele>
        <time>2020-08-15T08:36:10Z</time>
      </trkpt>
      <trkpt lat="42.7700406779" lon="-8.3788081538">
        <ele>291.42</ele>
        <time>2020-08-15T08:36:18Z</time>
      </trkpt>
      <trkpt lat="42.7705707494" lon="-8.3793597668">
        <ele>287.57</ele>
        <time>2020-08-15T08:36:26Z</time>
      </trkpt>
      <trkpt lat="42.7709450852" lon="-8.3798756730">
        <ele>284.21</ele>
        <time>2020-08-15T08:36:33Z</time>
      </trkpt>
      <trkpt lat="42.7714231890" lon="-8.3805101831">
        <ele>281.32</ele>
        <time>2020-08-15T08:36:41Z</time>
      </trkpt>
      <trkpt lat="42.7718530968" lon="-8.3809922263">
        <ele>280.84</ele>
        <time>2020-08-15T08:36:48Z</time>
      </trkpt>
      <trkpt lat="42.7722299471" lon="-8.3813927136">
        <ele>279.40</ele>
        <time>2020-08-15T08:36:55Z</time>
      </trkpt>
      <trkpt lat="42.7724953182" lon="-8.3816853259">
        <ele>277.96</ele>
        <time>2020-08-15T08:37:00Z</time>
      </trkpt>
      <trkpt lat="42.7727564145" lon="-8.3821513597">
        <ele>274.59</ele>
        <time>2020-08-15T08:37:06Z</time>
      </trkpt>
      <trkpt lat="42.7728668042" lon="-8.3824242745">
        <ele>273.15</ele>
        <time>2020-08-15T08:37:09Z</time>
      </trkpt>
      <trkpt lat="42.7732185088" lon="-8.3832897060">
        <ele>270.27</ele>
        <time>2020-08-15T08:37:19Z</time>
      </trkpt>
      <trkpt lat="42.7732894197" lon="-8.3836989105">
        <ele>270.75</ele>
        <time>2020-08-15T08:37:26Z</time>
      </trkpt>
      <trkpt lat="42.7733710594" lon="-8.3842465002">
        <ele>271.23</ele>
        <time>2020-08-15T08:37:37Z</time>
      </trkpt>
      <trkpt lat="42.7734826226" lon="-8.3847572096">
        <ele>271.23</ele>
        <time>2020-08-15T08:37:46Z</time>
      </trkpt>
      <trkpt lat="42.7735790145" lon="-8.3852565195">
        <ele>271.23</ele>
        <time>2020-08-15T08:37:55Z</time>
      </trkpt>
      <trkpt lat="42.7736096922" lon="-8.3855330385">
        <ele>270.75</ele>
        <time>2020-08-15T08:38:00Z</time>
      </trkpt>
      <trkpt lat="42.7736275457" lon="-8.3855881076">
        <ele>270.27</ele>
        <time>2020-08-15T08:38:01Z</time>
      </trkpt>
      <trkpt lat="42.7736547031" lon="-8.3856440987">
        <ele>270.27</ele>
        <time>2020-08-15T08:38:02Z</time>
      </trkpt>
      <trkpt lat="42.7736852132" lon="-8.3856952284">
        <ele>269.79</ele>
        <time>2020-08-15T08:38:03Z</time>
      </trkpt>
      <trkpt lat="42.7737219259" lon="-8.3857477829">
        <ele>269.79</ele>
        <time>2020-08-15T08:38:04Z</time>
      </trkpt>
      <trkpt lat="42.7737608179" lon="-8.3858019300">
        <ele>269.31</ele>
        <time>2020-08-15T08:38:05Z</time>
      </trkpt>
      <trkpt lat="42.7740913164" lon="-8.3861931972">
        <ele>266.90</ele>
        <time>2020-08-15T08:38:12Z</time>
      </trkpt>
      <trkpt lat="42.7743768040" lon="-8.3866896573">
        <ele>265.94</ele>
        <time>2020-08-15T08:38:19Z</time>
      </trkpt>
      <trkpt lat="42.7746216394" lon="-8.3870891389">
        <ele>265.46</ele>
        <time>2020-08-15T08:38:26Z</time>
      </trkpt>
      <trkpt lat="42.7748418320" lon="-8.3872084133">
        <ele>265.94</ele>
        <time>2020-08-15T08:38:32Z</time>
      </trkpt>
      <trkpt lat="42.7750607673" lon="-8.3871166315">
        <ele>264.02</ele>
        <time>2020-08-15T08:38:37Z</time>
      </trkpt>
      <trkpt lat="42.7755273040" lon="-8.3869036473">
        <ele>261.62</ele>
        <time>2020-08-15T08:38:44Z</time>
      </trkpt>
      <trkpt lat="42.7759956010" lon="-8.3866923396">
        <ele>260.65</ele>
        <time>2020-08-15T08:38:52Z</time>
      </trkpt>
      <trkpt lat="42.7764859423" lon="-8.3864621725">
        <ele>260.17</ele>
        <time>2020-08-15T08:39:02Z</time>
      </trkpt>
      <trkpt lat="42.7768936381" lon="-8.3862543851">
        <ele>255.85</ele>
        <time>2020-08-15T08:39:09Z</time>
      </trkpt>
      <trkpt lat="42.7770214621" lon="-8.3862149902">
        <ele>254.41</ele>
        <time>2020-08-15T08:39:11Z</time>
      </trkpt>
      <trkpt lat="42.7770885173" lon="-8.3862066083">
        <ele>253.44</ele>
        <time>2020-08-15T08:39:12Z</time>
      </trkpt>
      <trkpt lat="42.7771563269" lon="-8.3862036746">
        <ele>252.96</ele>
        <time>2020-08-15T08:39:13Z</time>
      </trkpt>
      <trkpt lat="42.7772209514" lon="-8.3862101287">
        <ele>252.00</ele>
        <time>2020-08-15T08:39:14Z</time>
      </trkpt>
      <trkpt lat="42.7772911079" lon="-8.3862227015">
        <ele>251.04</ele>
        <time>2020-08-15T08:39:15Z</time>
      </trkpt>
      <trkpt lat="42.7774895076" lon="-8.3862852305">
        <ele>248.16</ele>
        <time>2020-08-15T08:39:19Z</time>
      </trkpt>
      <trkpt lat="42.7775495220" lon="-8.3863386232">
        <ele>246.72</ele>
        <time>2020-08-15T08:39:23Z</time>
      </trkpt>
      <trkpt lat="42.7775533777" lon="-8.3863530401">
        <ele>245.75</ele>
        <time>2020-08-15T08:39:30Z</time>
      </trkpt>
      <trkpt lat="42.7775561437" lon="-8.3863709774">
        <ele>245.27</ele>
        <time>2020-08-15T08:39:37Z</time>
      </trkpt>
      <trkpt lat="42.7775522042" lon="-8.3863699716">
        <ele>245.27</ele>
        <time>2020-08-15T08:39:44Z</time>
      </trkpt>
      <trkpt lat="42.7775439061" lon="-8.3863774315">
        <ele>244.31</ele>
        <time>2020-08-15T08:39:57Z</time>
      </trkpt>
      <trkpt lat="42.7775450796" lon="-8.3863738272">
        <ele>245.75</ele>
        <time>2020-08-15T08:40:11Z</time>
      </trkpt>
      <trkpt lat="42.7775532939" lon="-8.3863801137">
        <ele>245.75</ele>
        <time>2020-08-15T08:40:27Z</time>
      </trkpt>
      <trkpt lat="42.7775560599" lon="-8.3863841370">
        <ele>245.75</ele>
        <time>2020-08-15T08:40:36Z</time>
      </trkpt>
      <trkpt lat="42.7775534615" lon="-8.3863831311">
        <ele>245.75</ele>
        <time>2020-08-15T08:40:51Z</time>
      </trkpt>
      <trkpt lat="42.7775463369" lon="-8.3863698877">
        <ele>247.20</ele>
        <time>2020-08-15T08:41:05Z</time>
      </trkpt>
      <trkpt lat="42.7775429841" lon="-8.3863538783">
        <ele>248.64</ele>
        <time>2020-08-15T08:41:18Z</time>
      </trkpt>
      <trkpt lat="42.7775407210" lon="-8.3863474242">
        <ele>250.08</ele>
        <time>2020-08-15T08:41:31Z</time>
      </trkpt>
      <trkpt lat="42.7775439061" lon="-8.3863366954">
        <ele>251.04</ele>
        <time>2020-08-15T08:41:43Z</time>
      </trkpt>
      <trkpt lat="42.7775523718" lon="-8.3863358572">
        <ele>250.56</ele>
        <time>2020-08-15T08:41:54Z</time>
      </trkpt>
      <trkpt lat="42.7775742486" lon="-8.3863212727">
        <ele>250.08</ele>
        <time>2020-08-15T08:42:01Z</time>
      </trkpt>
      <trkpt lat="42.7775830496" lon="-8.3863294870">
        <ele>249.60</ele>
        <time>2020-08-15T08:42:07Z</time>
      </trkpt>
      <trkpt lat="42.7775997296" lon="-8.3863329235">
        <ele>249.12</ele>
        <time>2020-08-15T08:42:08Z</time>
      </trkpt>
      <trkpt lat="42.7776235342" lon="-8.3863425627">
        <ele>249.12</ele>
        <time>2020-08-15T08:42:09Z</time>
      </trkpt>
      <trkpt lat="42.7776545472" lon="-8.3863612544">
        <ele>248.16</ele>
        <time>2020-08-15T08:42:10Z</time>
      </trkpt>
      <trkpt lat="42.7776901703" lon="-8.3863833826">
        <ele>248.16</ele>
        <time>2020-08-15T08:42:11Z</time>
      </trkpt>
      <trkpt lat="42.7777924296" lon="-8.3864421397">
        <ele>247.20</ele>
        <time>2020-08-15T08:42:13Z</time>
      </trkpt>
      <trkpt lat="42.7778583113" lon="-8.3864608314">
        <ele>246.23</ele>
        <time>2020-08-15T08:42:14Z</time>
      </trkpt>
      <trkpt lat="42.7779243607" lon="-8.3864657767">
        <ele>244.79</ele>
        <time>2020-08-15T08:42:15Z</time>
      </trkpt>
      <trkpt lat="42.7779943496" lon="-8.3864615858">
        <ele>244.31</ele>
        <time>2020-08-15T08:42:16Z</time>
      </trkpt>
      <trkpt lat="42.7780562080" lon="-8.3864539582">
        <ele>243.35</ele>
        <time>2020-08-15T08:42:17Z</time>
      </trkpt>
      <trkpt lat="42.7785189729" lon="-8.3864185028">
        <ele>236.14</ele>
        <time>2020-08-15T08:42:25Z</time>
      </trkpt>
      <trkpt lat="42.7789113298" lon="-8.3866331633">
        <ele>228.93</ele>
        <time>2020-08-15T08:42:31Z</time>
      </trkpt>
      <trkpt lat="42.7790950611" lon="-8.3867906593">
        <ele>227.49</ele>
        <time>2020-08-15T08:42:34Z</time>
      </trkpt>
      <trkpt lat="42.7791413292" lon="-8.3868536074">
        <ele>227.49</ele>
        <time>2020-08-15T08:42:35Z</time>
      </trkpt>
      <trkpt lat="42.7791715879" lon="-8.3869150467">
        <ele>227.97</ele>
        <time>2020-08-15T08:42:36Z</time>
      </trkpt>
      <trkpt lat="42.7791896090" lon="-8.3869732171">
        <ele>227.97</ele>
        <time>2020-08-15T08:42:37Z</time>
      </trkpt>
      <trkpt lat="42.7792000864" lon="-8.3870274480">
        <ele>228.45</ele>
        <time>2020-08-15T08:42:38Z</time>
      </trkpt>
      <trkpt lat="42.7792075463" lon="-8.3870749734">
        <ele>228.45</ele>
        <time>2020-08-15T08:42:39Z</time>
      </trkpt>
      <trkpt lat="42.7792438399" lon="-8.3873887919">
        <ele>230.37</ele>
        <time>2020-08-15T08:42:46Z</time>
      </trkpt>
      <trkpt lat="42.7792555746" lon="-8.3875565976">
        <ele>231.81</ele>
        <time>2020-08-15T08:42:52Z</time>
      </trkpt>
      <trkpt lat="42.7793148346" lon="-8.3878033608">
        <ele>233.26</ele>
        <time>2020-08-15T08:43:01Z</time>
      </trkpt>
      <trkpt lat="42.7794253081" lon="-8.3878334519">
        <ele>232.30</ele>
        <time>2020-08-15T08:43:05Z</time>
      </trkpt>
      <trkpt lat="42.7796609234" lon="-8.3878342900">
        <ele>228.45</ele>
        <time>2020-08-15T08:43:09Z</time>
      </trkpt>
      <trkpt lat="42.7799130511" lon="-8.3878521435">
        <ele>224.12</ele>
        <time>2020-08-15T08:43:14Z</time>
      </trkpt>
      <trkpt lat="42.7799855545" lon="-8.3880061191">
        <ele>222.20</ele>
        <time>2020-08-15T08:43:18Z</time>
      </trkpt>
      <trkpt lat="42.7799830399" lon="-8.3880710788">
        <ele>221.24</ele>
        <time>2020-08-15T08:43:19Z</time>
      </trkpt>
      <trkpt lat="42.7799722273" lon="-8.3881422412">
        <ele>220.76</ele>
        <time>2020-08-15T08:43:20Z</time>
      </trkpt>
      <trkpt lat="42.7799003944" lon="-8.3886205126">
        <ele>216.91</ele>
        <time>2020-08-15T08:43:25Z</time>
      </trkpt>
      <trkpt lat="42.7798322495" lon="-8.3891801722">
        <ele>212.11</ele>
        <time>2020-08-15T08:43:31Z</time>
      </trkpt>
      <trkpt lat="42.7797988057" lon="-8.3897415083">
        <ele>206.34</ele>
        <time>2020-08-15T08:43:36Z</time>
      </trkpt>
      <trkpt lat="42.7797242906" lon="-8.3903137408">
        <ele>200.09</ele>
        <time>2020-08-15T08:43:41Z</time>
      </trkpt>
      <trkpt lat="42.7797008213" lon="-8.3906674571">
        <ele>195.28</ele>
        <time>2020-08-15T08:43:45Z</time>
      </trkpt>
      <trkpt lat="42.7797001507" lon="-8.3907594904">
        <ele>194.32</ele>
        <time>2020-08-15T08:43:46Z</time>
      </trkpt>
      <trkpt lat="42.7797067724" lon="-8.3909396175">
        <ele>192.40</ele>
        <time>2020-08-15T08:43:48Z</time>
      </trkpt>
      <trkpt lat="42.7797025815" lon="-8.3910257835">
        <ele>191.44</ele>
        <time>2020-08-15T08:43:49Z</time>
      </trkpt>
      <trkpt lat="42.7796948701" lon="-8.3912983630">
        <ele>187.11</ele>
        <time>2020-08-15T08:43:53Z</time>
      </trkpt>
      <trkpt lat="42.7796929423" lon="-8.3913477324">
        <ele>186.15</ele>
        <time>2020-08-15T08:43:57Z</time>
      </trkpt>
      <trkpt lat="42.7796995640" lon="-8.3913913183">
        <ele>187.59</ele>
        <time>2020-08-15T08:44:07Z</time>
      </trkpt>
      <trkpt lat="42.7797331754" lon="-8.3914446272">
        <ele>187.11</ele>
        <time>2020-08-15T08:44:14Z</time>
      </trkpt>
      <trkpt lat="42.7797653619" lon="-8.3914960083">
        <ele>187.59</ele>
        <time>2020-08-15T08:44:25Z</time>
      </trkpt>
      <trkpt lat="42.7798275556" lon="-8.3916427754">
        <ele>185.67</ele>
        <time>2020-08-15T08:44:33Z</time>
      </trkpt>
      <trkpt lat="42.7798211854" lon="-8.3918519039">
        <ele>182.79</ele>
        <time>2020-08-15T08:44:40Z</time>
      </trkpt>
      <trkpt lat="42.7798902523" lon="-8.3920105733">
        <ele>178.46</ele>
        <time>2020-08-15T08:44:45Z</time>
      </trkpt>
      <trkpt lat="42.7800616622" lon="-8.3921067975">
        <ele>173.66</ele>
        <time>2020-08-15T08:44:51Z</time>
      </trkpt>
      <trkpt lat="42.7801808529" lon="-8.3919825777">
        <ele>170.77</ele>
        <time>2020-08-15T08:44:55Z</time>
      </trkpt>
      <trkpt lat="42.7803543583" lon="-8.3915791567">
        <ele>165.48</ele>
        <time>2020-08-15T08:45:00Z</time>
      </trkpt>
      <trkpt lat="42.7804966830" lon="-8.3913079184">
        <ele>161.64</ele>
        <time>2020-08-15T08:45:03Z</time>
      </trkpt>
      <trkpt lat="42.7805538476" lon="-8.3912282903">
        <ele>160.68</ele>
        <time>2020-08-15T08:45:04Z</time>
      </trkpt>
      <trkpt lat="42.7806157898" lon="-8.3911609836">
        <ele>159.72</ele>
        <time>2020-08-15T08:45:05Z</time>
      </trkpt>
      <trkpt lat="42.7807499841" lon="-8.3910544496">
        <ele>157.79</ele>
        <time>2020-08-15T08:45:07Z</time>
      </trkpt>
      <trkpt lat="42.7809350565" lon="-8.3909509331">
        <ele>155.87</ele>
        <time>2020-08-15T08:45:10Z</time>
      </trkpt>
      <trkpt lat="42.7809947357" lon="-8.3909432217">
        <ele>155.39</ele>
        <time>2020-08-15T08:45:11Z</time>
      </trkpt>
      <trkpt lat="42.7810480446" lon="-8.3909516037">
        <ele>154.91</ele>
        <time>2020-08-15T08:45:12Z</time>
      </trkpt>
      <trkpt lat="42.7810928039" lon="-8.3909784257">
        <ele>153.95</ele>
        <time>2020-08-15T08:45:13Z</time>
      </trkpt>
      <trkpt lat="42.7811321151" lon="-8.3910223469">
        <ele>153.47</ele>
        <time>2020-08-15T08:45:14Z</time>
      </trkpt>
      <trkpt lat="42.7811692469" lon="-8.3910834510">
        <ele>152.51</ele>
        <time>2020-08-15T08:45:15Z</time>
      </trkpt>
      <trkpt lat="42.7812078875" lon="-8.3911510929">
        <ele>152.03</ele>
        <time>2020-08-15T08:45:16Z</time>
      </trkpt>
      <trkpt lat="42.7814341150" lon="-8.3914793283">
        <ele>146.74</ele>
        <time>2020-08-15T08:45:22Z</time>
      </trkpt>
      <trkpt lat="42.7815524675" lon="-8.3916317951">
        <ele>144.34</ele>
        <time>2020-08-15T08:45:27Z</time>
      </trkpt>
      <trkpt lat="42.7815687284" lon="-8.3916754648">
        <ele>144.82</ele>
        <time>2020-08-15T08:45:33Z</time>
      </trkpt>
      <trkpt lat="42.7815654594" lon="-8.3916966710">
        <ele>144.82</ele>
        <time>2020-08-15T08:45:36Z</time>
      </trkpt>
      <trkpt lat="42.7815515455" lon="-8.3917176258">
        <ele>144.82</ele>
        <time>2020-08-15T08:45:37Z</time>
      </trkpt>
      <trkpt lat="42.7815283276" lon="-8.3917415142">
        <ele>144.82</ele>
        <time>2020-08-15T08:45:38Z</time>
      </trkpt>
      <trkpt lat="42.7813837398" lon="-8.3918944001">
        <ele>142.89</ele>
        <time>2020-08-15T08:45:43Z</time>
      </trkpt>
      <trkpt lat="42.7810821589" lon="-8.3922295924">
        <ele>137.13</ele>
        <time>2020-08-15T08:45:49Z</time>
      </trkpt>
      <trkpt lat="42.7810474578" lon="-8.3922939654">
        <ele>136.64</ele>
        <time>2020-08-15T08:45:50Z</time>
      </trkpt>
      <trkpt lat="42.7810284309" lon="-8.3923652954">
        <ele>135.68</ele>
        <time>2020-08-15T08:45:51Z</time>
      </trkpt>
      <trkpt lat="42.7810269222" lon="-8.3924470190">
        <ele>134.72</ele>
        <time>2020-08-15T08:45:52Z</time>
      </trkpt>
      <trkpt lat="42.7810397465" lon="-8.3926395513">
        <ele>133.28</ele>
        <time>2020-08-15T08:45:54Z</time>
      </trkpt>
      <trkpt lat="42.7810205519" lon="-8.3929801919">
        <ele>130.40</ele>
        <time>2020-08-15T08:45:58Z</time>
      </trkpt>
      <trkpt lat="42.7810159419" lon="-8.3932515141">
        <ele>126.55</ele>
        <time>2020-08-15T08:46:03Z</time>
      </trkpt>
      <trkpt lat="42.7810366452" lon="-8.3934654202">
        <ele>124.63</ele>
        <time>2020-08-15T08:46:07Z</time>
      </trkpt>
      <trkpt lat="42.7810250781" lon="-8.3935374208">
        <ele>124.15</ele>
        <time>2020-08-15T08:46:08Z</time>
      </trkpt>
      <trkpt lat="42.7810078952" lon="-8.3936010394">
        <ele>124.15</ele>
        <time>2020-08-15T08:46:09Z</time>
      </trkpt>
      <trkpt lat="42.7809593640" lon="-8.3937340602">
        <ele>123.19</ele>
        <time>2020-08-15T08:46:11Z</time>
      </trkpt>
      <trkpt lat="42.7809257526" lon="-8.3938018698">
        <ele>122.71</ele>
        <time>2020-08-15T08:46:12Z</time>
      </trkpt>
      <trkpt lat="42.7808881178" lon="-8.3938605431">
        <ele>122.22</ele>
        <time>2020-08-15T08:46:13Z</time>
      </trkpt>
      <trkpt lat="42.7808471303" lon="-8.3939139359">
        <ele>121.74</ele>
        <time>2020-08-15T08:46:14Z</time>
      </trkpt>
      <trkpt lat="42.7808027063" lon="-8.3939642273">
        <ele>121.74</ele>
        <time>2020-08-15T08:46:15Z</time>
      </trkpt>
      <trkpt lat="42.7807555161" lon="-8.3940173686">
        <ele>121.26</ele>
        <time>2020-08-15T08:46:16Z</time>
      </trkpt>
      <trkpt lat="42.7805827651" lon="-8.3942596056">
        <ele>119.34</ele>
        <time>2020-08-15T08:46:20Z</time>
      </trkpt>
      <trkpt lat="42.7805505786" lon="-8.3943349589">
        <ele>118.86</ele>
        <time>2020-08-15T08:46:21Z</time>
      </trkpt>
      <trkpt lat="42.7805276122" lon="-8.3944044448">
        <ele>117.90</ele>
        <time>2020-08-15T08:46:22Z</time>
      </trkpt>
      <trkpt lat="42.7805097587" lon="-8.3944768645">
        <ele>117.90</ele>
        <time>2020-08-15T08:46:23Z</time>
      </trkpt>
      <trkpt lat="42.7804981917" lon="-8.3945372142">
        <ele>117.42</ele>
        <time>2020-08-15T08:46:24Z</time>
      </trkpt>
      <trkpt lat="42.7804870438" lon="-8.3946031798">
        <ele>117.42</ele>
        <time>2020-08-15T08:46:25Z</time>
      </trkpt>
      <trkpt lat="42.7804613113" lon="-8.3947271481">
        <ele>116.46</ele>
        <time>2020-08-15T08:46:27Z</time>
      </trkpt>
      <trkpt lat="42.7804411948" lon="-8.3947807923">
        <ele>116.46</ele>
        <time>2020-08-15T08:46:28Z</time>
      </trkpt>
      <trkpt lat="42.7804123610" lon="-8.3948258031">
        <ele>115.98</ele>
        <time>2020-08-15T08:46:29Z</time>
      </trkpt>
      <trkpt lat="42.7803759836" lon="-8.3948623482">
        <ele>115.98</ele>
        <time>2020-08-15T08:46:30Z</time>
      </trkpt>
      <trkpt lat="42.7803417016" lon="-8.3948902600">
        <ele>115.50</ele>
        <time>2020-08-15T08:46:31Z</time>
      </trkpt>
      <trkpt lat="42.7801432181" lon="-8.3950870670">
        <ele>112.61</ele>
        <time>2020-08-15T08:46:37Z</time>
      </trkpt>
      <trkpt lat="42.7798946109" lon="-8.3952984586">
        <ele>109.73</ele>
        <time>2020-08-15T08:46:44Z</time>
      </trkpt>
      <trkpt lat="42.7798518632" lon="-8.3953222632">
        <ele>109.73</ele>
        <time>2020-08-15T08:46:45Z</time>
      </trkpt>
      <trkpt lat="42.7798075229" lon="-8.3953413740">
        <ele>109.25</ele>
        <time>2020-08-15T08:46:46Z</time>
      </trkpt>
      <trkpt lat="42.7797587402" lon="-8.3953557070">
        <ele>108.77</ele>
        <time>2020-08-15T08:46:47Z</time>
      </trkpt>
      <trkpt lat="42.7796961274" lon="-8.3953668550">
        <ele>108.29</ele>
        <time>2020-08-15T08:46:48Z</time>
      </trkpt>
      <trkpt lat="42.7796338499" lon="-8.3953740634">
        <ele>107.81</ele>
        <time>2020-08-15T08:46:49Z</time>
      </trkpt>
      <trkpt lat="42.7795719076" lon="-8.3953761589">
        <ele>106.84</ele>
        <time>2020-08-15T08:46:50Z</time>
      </trkpt>
      <trkpt lat="42.7795096301" lon="-8.3953681961">
        <ele>106.36</ele>
        <time>2020-08-15T08:46:51Z</time>
      </trkpt>
      <trkpt lat="42.7794533875" lon="-8.3953578863">
        <ele>105.88</ele>
        <time>2020-08-15T08:46:52Z</time>
      </trkpt>
      <trkpt lat="42.7794010006" lon="-8.3953547012">
        <ele>105.40</ele>
        <time>2020-08-15T08:46:53Z</time>
      </trkpt>
      <trkpt lat="42.7793507092" lon="-8.3953629155">
        <ele>104.44</ele>
        <time>2020-08-15T08:46:54Z</time>
      </trkpt>
      <trkpt lat="42.7793013398" lon="-8.3953833673">
        <ele>103.96</ele>
        <time>2020-08-15T08:46:55Z</time>
      </trkpt>
      <trkpt lat="42.7792657167" lon="-8.3954153024">
        <ele>103.48</ele>
        <time>2020-08-15T08:46:56Z</time>
      </trkpt>
      <trkpt lat="42.7792451810" lon="-8.3954688627">
        <ele>103.48</ele>
        <time>2020-08-15T08:46:57Z</time>
      </trkpt>
      <trkpt lat="42.7792440914" lon="-8.3955191541">
        <ele>103.48</ele>
        <time>2020-08-15T08:46:58Z</time>
      </trkpt>
      <trkpt lat="42.7792530600" lon="-8.3955748100">
        <ele>103.48</ele>
        <time>2020-08-15T08:46:59Z</time>
      </trkpt>
      <trkpt lat="42.7792640403" lon="-8.3956187312">
        <ele>103.48</ele>
        <time>2020-08-15T08:47:00Z</time>
      </trkpt>
      <trkpt lat="42.7792759426" lon="-8.3956562821">
        <ele>103.48</ele>
        <time>2020-08-15T08:47:01Z</time>
      </trkpt>
      <trkpt lat="42.7792888507" lon="-8.3956907317">
        <ele>103.48</ele>
        <time>2020-08-15T08:47:02Z</time>
      </trkpt>
      <trkpt lat="42.7793031838" lon="-8.3957236726">
        <ele>103.00</ele>
        <time>2020-08-15T08:47:03Z</time>
      </trkpt>
      <trkpt lat="42.7793790400" lon="-8.3960099146">
        <ele>101.08</ele>
        <time>2020-08-15T08:47:10Z</time>
      </trkpt>
      <trkpt lat="42.7794283256" lon="-8.3964200411">
        <ele>100.60</ele>
        <time>2020-08-15T08:47:17Z</time>
      </trkpt>
      <trkpt lat="42.7794239670" lon="-8.3968129009">
        <ele>101.08</ele>
        <time>2020-08-15T08:47:23Z</time>
      </trkpt>
      <trkpt lat="42.7794964705" lon="-8.3972360194">
        <ele>100.60</ele>
        <time>2020-08-15T08:47:30Z</time>
      </trkpt>
      <trkpt lat="42.7795829717" lon="-8.3975929208">
        <ele>98.67</ele>
        <time>2020-08-15T08:47:36Z</time>
      </trkpt>
      <trkpt lat="42.7796372864" lon="-8.3980143629">
        <ele>94.83</ele>
        <time>2020-08-15T08:47:42Z</time>
      </trkpt>
      <trkpt lat="42.7796685509" lon="-8.3981856890">
        <ele>92.42</ele>
        <time>2020-08-15T08:47:47Z</time>
      </trkpt>
      <trkpt lat="42.7796535473" lon="-8.3984329551">
        <ele>88.58</ele>
        <time>2020-08-15T08:47:52Z</time>
      </trkpt>
      <trkpt lat="42.7796592470" lon="-8.3984932210">
        <ele>87.62</ele>
        <time>2020-08-15T08:47:53Z</time>
      </trkpt>
      <trkpt lat="42.7796646953" lon="-8.3985518105">
        <ele>87.14</ele>
        <time>2020-08-15T08:47:54Z</time>
      </trkpt>
      <trkpt lat="42.7796662040" lon="-8.3986069635">
        <ele>86.18</ele>
        <time>2020-08-15T08:47:55Z</time>
      </trkpt>
      <trkpt lat="42.7796675451" lon="-8.3986576740">
        <ele>85.69</ele>
        <time>2020-08-15T08:47:56Z</time>
      </trkpt>
      <trkpt lat="42.7796672098" lon="-8.3987030201">
        <ele>85.21</ele>
        <time>2020-08-15T08:47:57Z</time>
      </trkpt>
      <trkpt lat="42.7796638571" lon="-8.3987536468">
        <ele>84.73</ele>
        <time>2020-08-15T08:47:58Z</time>
      </trkpt>
      <trkpt lat="42.7796176728" lon="-8.3990075346">
        <ele>80.89</ele>
        <time>2020-08-15T08:48:04Z</time>
      </trkpt>
      <trkpt lat="42.7794883400" lon="-8.3992662840">
        <ele>78.48</ele>
        <time>2020-08-15T08:48:10Z</time>
      </trkpt>
      <trkpt lat="42.7794517111" lon="-8.3993066847">
        <ele>78.48</ele>
        <time>2020-08-15T08:48:11Z</time>
      </trkpt>
      <trkpt lat="42.7794079576" lon="-8.3993485942">
        <ele>78.00</ele>
        <time>2020-08-15T08:48:12Z</time>
      </trkpt>
      <trkpt lat="42.7791485377" lon="-8.3996056672">
        <ele>76.56</ele>
        <time>2020-08-15T08:48:17Z</time>
      </trkpt>
      <trkpt lat="42.7787399199" lon="-8.4000029694">
        <ele>74.16</ele>
        <time>2020-08-15T08:48:23Z</time>
      </trkpt>
      <trkpt lat="42.7786106709" lon="-8.4001452941">
        <ele>73.20</ele>
        <time>2020-08-15T08:48:25Z</time>
      </trkpt>
      <trkpt lat="42.7783299610" lon="-8.4003151115">
        <ele>73.20</ele>
        <time>2020-08-15T08:48:30Z</time>
      </trkpt>
      <trkpt lat="42.7781202458" lon="-8.4003694262">
        <ele>72.24</ele>
        <time>2020-08-15T08:48:37Z</time>
      </trkpt>
      <trkpt lat="42.7779685333" lon="-8.4004040435">
        <ele>72.24</ele>
        <time>2020-08-15T08:48:45Z</time>
      </trkpt>
      <trkpt lat="42.7779566310" lon="-8.4004156105">
        <ele>72.24</ele>
        <time>2020-08-15T08:48:46Z</time>
      </trkpt>
      <trkpt lat="42.7779473271" lon="-8.4004286863">
        <ele>71.76</ele>
        <time>2020-08-15T08:48:47Z</time>
      </trkpt>
      <trkpt lat="42.7779417951" lon="-8.4004555084">
        <ele>71.76</ele>
        <time>2020-08-15T08:48:49Z</time>
      </trkpt>
      <trkpt lat="42.7779821958" lon="-8.4006560873">
        <ele>72.72</ele>
        <time>2020-08-15T08:48:57Z</time>
      </trkpt>
      <trkpt lat="42.7780617401" lon="-8.4009235539">
        <ele>72.24</ele>
        <time>2020-08-15T08:49:05Z</time>
      </trkpt>
      <trkpt lat="42.7781624068" lon="-8.4012322593">
        <ele>70.79</ele>
        <time>2020-08-15T08:49:15Z</time>
      </trkpt>
      <trkpt lat="42.7782960143" lon="-8.4016040806">
        <ele>70.31</ele>
        <time>2020-08-15T08:49:25Z</time>
      </trkpt>
      <trkpt lat="42.7783287037" lon="-8.4016820323">
        <ele>69.35</ele>
        <time>2020-08-15T08:49:31Z</time>
      </trkpt>
      <trkpt lat="42.7783316374" lon="-8.4016847145">
        <ele>69.35</ele>
        <time>2020-08-15T08:49:39Z</time>
      </trkpt>
      <trkpt lat="42.7783248480" lon="-8.4016949404">
        <ele>67.91</ele>
        <time>2020-08-15T08:50:03Z</time>
      </trkpt>
      <trkpt lat="42.7783274464" lon="-8.4016910009">
        <ele>66.95</ele>
        <time>2020-08-15T08:50:20Z</time>
      </trkpt>
      <trkpt lat="42.7783196513" lon="-8.4016803559">
        <ele>66.95</ele>
        <time>2020-08-15T08:50:37Z</time>
      </trkpt>
      <trkpt lat="42.7783097606" lon="-8.4016893245">
        <ele>67.91</ele>
        <time>2020-08-15T08:50:53Z</time>
      </trkpt>
      <trkpt lat="42.7783055697" lon="-8.4016949404">
        <ele>68.87</ele>
        <time>2020-08-15T08:51:05Z</time>
      </trkpt>
      <trkpt lat="42.7782981098" lon="-8.4016952757">
        <ele>69.35</ele>
        <time>2020-08-15T08:51:18Z</time>
      </trkpt>
      <trkpt lat="42.7783059888" lon="-8.4017025679">
        <ele>69.83</ele>
        <time>2020-08-15T08:51:31Z</time>
      </trkpt>
      <trkpt lat="42.7783147059" lon="-8.4016954433">
        <ele>68.87</ele>
        <time>2020-08-15T08:51:44Z</time>
      </trkpt>
      <trkpt lat="42.7783172205" lon="-8.4016920906">
        <ele>68.39</ele>
        <time>2020-08-15T08:51:51Z</time>
      </trkpt>
      <trkpt lat="42.7783208247" lon="-8.4016997181">
        <ele>68.39</ele>
        <time>2020-08-15T08:52:09Z</time>
      </trkpt>
      <trkpt lat="42.7783078328" lon="-8.4017003886">
        <ele>66.95</ele>
        <time>2020-08-15T08:52:26Z</time>
      </trkpt>
      <trkpt lat="42.7783074975" lon="-8.4016942699">
        <ele>67.91</ele>
        <time>2020-08-15T08:52:42Z</time>
      </trkpt>
      <trkpt lat="42.7782963496" lon="-8.4017000534">
        <ele>68.39</ele>
        <time>2020-08-15T08:52:58Z</time>
      </trkpt>
      <trkpt lat="42.7782919072" lon="-8.4017012268">
        <ele>68.87</ele>
        <time>2020-08-15T08:53:16Z</time>
      </trkpt>
      <trkpt lat="42.7782972716" lon="-8.4017095249">
        <ele>68.87</ele>
        <time>2020-08-15T08:53:32Z</time>
      </trkpt>
      <trkpt lat="42.7783075813" lon="-8.4017107822">
        <ele>68.87</ele>
        <time>2020-08-15T08:53:54Z</time>
      </trkpt>
      <trkpt lat="42.7783174720" lon="-8.4017003886">
        <ele>68.39</ele>
        <time>2020-08-15T08:54:15Z</time>
      </trkpt>
      <trkpt lat="42.7783222497" lon="-8.4016946889">
        <ele>68.39</ele>
        <time>2020-08-15T08:54:37Z</time>
      </trkpt>
      <trkpt lat="42.7783173881" lon="-8.4017006401">
        <ele>68.39</ele>
        <time>2020-08-15T08:54:57Z</time>
      </trkpt>
      <trkpt lat="42.7783146221" lon="-8.4017101955">
        <ele>68.39</ele>
        <time>2020-08-15T08:55:12Z</time>
      </trkpt>
      <trkpt lat="42.7783249319" lon="-8.4016931802">
        <ele>68.39</ele>
        <time>2020-08-15T08:55:31Z</time>
      </trkpt>
      <trkpt lat="42.7783157956" lon="-8.4017038252">
        <ele>68.39</ele>
        <time>2020-08-15T08:55:53Z</time>
      </trkpt>
      <trkpt lat="42.7783172205" lon="-8.4016928449">
        <ele>67.91</ele>
        <time>2020-08-15T08:56:11Z</time>
      </trkpt>
      <trkpt lat="42.7783167176" lon="-8.4016948566">
        <ele>66.95</ele>
        <time>2020-08-15T08:56:34Z</time>
      </trkpt>
      <trkpt lat="42.7783152089" lon="-8.4016942699">
        <ele>67.91</ele>
        <time>2020-08-15T08:56:56Z</time>
      </trkpt>
      <trkpt lat="42.7783359960" lon="-8.4017003048">
        <ele>65.99</ele>
        <time>2020-08-15T08:57:19Z</time>
      </trkpt>
      <trkpt lat="42.7783217467" lon="-8.4016978741">
        <ele>67.43</ele>
        <time>2020-08-15T08:57:44Z</time>
      </trkpt>
      <trkpt lat="42.7783181425" lon="-8.4016878996">
        <ele>68.39</ele>
        <time>2020-08-15T08:58:08Z</time>
      </trkpt>
      <trkpt lat="42.7783288714" lon="-8.4016921744">
        <ele>68.39</ele>
        <time>2020-08-15T08:58:31Z</time>
      </trkpt>
      <trkpt lat="42.7783375047" lon="-8.4016952757">
        <ele>69.83</ele>
        <time>2020-08-15T08:58:55Z</time>
      </trkpt>
      <trkpt lat="42.7783338167" lon="-8.4016915038">
        <ele>70.31</ele>
        <time>2020-08-15T08:59:20Z</time>
      </trkpt>
      <trkpt lat="42.7783328108" lon="-8.4016811941">
        <ele>68.87</ele>
        <time>2020-08-15T08:59:37Z</time>
      </trkpt>
      <trkpt lat="42.7783210762" lon="-8.4016939346">
        <ele>67.91</ele>
        <time>2020-08-15T08:59:59Z</time>
      </trkpt>
      <trkpt lat="42.7783170529" lon="-8.4016798530">
        <ele>65.03</ele>
        <time>2020-08-15T09:00:20Z</time>
      </trkpt>
      <trkpt lat="42.7783193998" lon="-8.4016744886">
        <ele>65.03</ele>
        <time>2020-08-15T09:00:40Z</time>
      </trkpt>
      <trkpt lat="42.7783131972" lon="-8.4016911685">
        <ele>67.91</ele>
        <time>2020-08-15T09:00:59Z</time>
      </trkpt>
      <trkpt lat="42.7783205733" lon="-8.4016775899">
        <ele>67.91</ele>
        <time>2020-08-15T09:01:21Z</time>
      </trkpt>
      <trkpt lat="42.7783117723" lon="-8.4016799368">
        <ele>69.35</ele>
        <time>2020-08-15T09:01:40Z</time>
      </trkpt>
      <trkpt lat="42.7783118561" lon="-8.4016881511">
        <ele>67.43</ele>
        <time>2020-08-15T09:02:05Z</time>
      </trkpt>
      <trkpt lat="42.7783175558" lon="-8.4016913362">
        <ele>66.95</ele>
        <time>2020-08-15T09:02:27Z</time>
      </trkpt>
      <trkpt lat="42.7783167176" lon="-8.4017052501">
        <ele>67.91</ele>
        <time>2020-08-15T09:02:44Z</time>
      </trkpt>
      <trkpt lat="42.7783054858" lon="-8.4017048310">
        <ele>67.91</ele>
        <time>2020-08-15T09:03:03Z</time>
      </trkpt>
      <trkpt lat="42.7783055697" lon="-8.4017111175">
        <ele>68.39</ele>
        <time>2020-08-15T09:03:21Z</time>
      </trkpt>
      <trkpt lat="42.7783115208" lon="-8.4017116204">
        <ele>70.31</ele>
        <time>2020-08-15T09:03:42Z</time>
      </trkpt>
      <trkpt lat="42.7783107664" lon="-8.4017075133">
        <ele>70.31</ele>
        <time>2020-08-15T09:04:00Z</time>
      </trkpt>
      <trkpt lat="42.7783104312" lon="-8.4017222654">
        <ele>71.27</ele>
        <time>2020-08-15T09:04:18Z</time>
      </trkpt>
      <trkpt lat="42.7783123590" lon="-8.4017065074">
        <ele>71.76</ele>
        <time>2020-08-15T09:04:45Z</time>
      </trkpt>
      <trkpt lat="42.7783052344" lon="-8.4017078485">
        <ele>71.76</ele>
        <time>2020-08-15T09:05:04Z</time>
      </trkpt>
      <trkpt lat="42.7783004567" lon="-8.4017106146">
        <ele>72.24</ele>
        <time>2020-08-15T09:05:28Z</time>
      </trkpt>
      <trkpt lat="42.7783109341" lon="-8.4017117880">
        <ele>72.24</ele>
        <time>2020-08-15T09:05:50Z</time>
      </trkpt>
      <trkpt lat="42.7783008758" lon="-8.4017081838">
        <ele>73.20</ele>
        <time>2020-08-15T09:06:14Z</time>
      </trkpt>
      <trkpt lat="42.7782975230" lon="-8.4017006401">
        <ele>71.76</ele>
        <time>2020-08-15T09:06:32Z</time>
      </trkpt>
      <trkpt lat="42.7783019654" lon="-8.4016797692">
        <ele>68.87</ele>
        <time>2020-08-15T09:06:41Z</time>
      </trkpt>
      <trkpt lat="42.7782934997" lon="-8.4016830381">
        <ele>67.43</ele>
        <time>2020-08-15T09:07:04Z</time>
      </trkpt>
      <trkpt lat="42.7782884706" lon="-8.4016998857">
        <ele>71.27</ele>
        <time>2020-08-15T09:07:23Z</time>
      </trkpt>
      <trkpt lat="42.7782998700" lon="-8.4017005563">
        <ele>70.31</ele>
        <time>2020-08-15T09:07:44Z</time>
      </trkpt>
      <trkpt lat="42.7782993671" lon="-8.4017251153">
        <ele>72.24</ele>
        <time>2020-08-15T09:07:58Z</time>
      </trkpt>
      <trkpt lat="42.7782850340" lon="-8.4017124586">
        <ele>71.27</ele>
        <time>2020-08-15T09:08:15Z</time>
      </trkpt>
      <trkpt lat="42.7782881353" lon="-8.4017403703">
        <ele>71.76</ele>
        <time>2020-08-15T09:08:30Z</time>
      </trkpt>
      <trkpt lat="42.7783043962" lon="-8.4017185774">
        <ele>71.27</ele>
        <time>2020-08-15T09:08:42Z</time>
      </trkpt>
      <trkpt lat="42.7783102635" lon="-8.4016910009">
        <ele>70.31</ele>
        <time>2020-08-15T09:09:03Z</time>
      </trkpt>
      <trkpt lat="42.7783228364" lon="-8.4016940184">
        <ele>69.35</ele>
        <time>2020-08-15T09:09:23Z</time>
      </trkpt>
      <trkpt lat="42.7783169691" lon="-8.4016981255">
        <ele>68.87</ele>
        <time>2020-08-15T09:09:38Z</time>
      </trkpt>
      <trkpt lat="42.7783053182" lon="-8.4017137997">
        <ele>69.83</ele>
        <time>2020-08-15T09:09:53Z</time>
      </trkpt>
      <trkpt lat="42.7783116885" lon="-8.4017114528">
        <ele>69.35</ele>
        <time>2020-08-15T09:10:08Z</time>
      </trkpt>
      <trkpt lat="42.7783205733" lon="-8.4017080162">
        <ele>69.35</ele>
        <time>2020-08-15T09:10:18Z</time>
      </trkpt>
      <trkpt lat="42.7783229202" lon="-8.4017373528">
        <ele>68.87</ele>
        <time>2020-08-15T09:10:22Z</time>
      </trkpt>
      <trkpt lat="42.7783222497" lon="-8.4017585590">
        <ele>68.87</ele>
        <time>2020-08-15T09:10:23Z</time>
      </trkpt>
      <trkpt lat="42.7783254348" lon="-8.4017834533">
        <ele>68.87</ele>
        <time>2020-08-15T09:10:24Z</time>
      </trkpt>
      <trkpt lat="42.7783815935" lon="-8.4019987006">
        <ele>68.87</ele>
        <time>2020-08-15T09:10:32Z</time>
      </trkpt>
      <trkpt lat="42.7784654964" lon="-8.4022215754">
        <ele>69.35</ele>
        <time>2020-08-15T09:10:40Z</time>
      </trkpt>
      <trkpt lat="42.7785349824" lon="-8.4025615454">
        <ele>71.27</ele>
        <time>2020-08-15T09:10:50Z</time>
      </trkpt>
      <trkpt lat="42.7785276063" lon="-8.4028345440">
        <ele>72.24</ele>
        <time>2020-08-15T09:10:58Z</time>
      </trkpt>
      <trkpt lat="42.7784983534" lon="-8.4031039383">
        <ele>73.20</ele>
        <time>2020-08-15T09:11:07Z</time>
      </trkpt>
      <trkpt lat="42.7784618083" lon="-8.4033627715">
        <ele>74.64</ele>
        <time>2020-08-15T09:11:16Z</time>
      </trkpt>
      <trkpt lat="42.7784207370" lon="-8.4035713132">
        <ele>75.60</ele>
        <time>2020-08-15T09:11:24Z</time>
      </trkpt>
      <trkpt lat="42.7783233393" lon="-8.4036905039">
        <ele>76.56</ele>
        <time>2020-08-15T09:11:32Z</time>
      </trkpt>
      <trkpt lat="42.7780749835" lon="-8.4037537035">
        <ele>76.56</ele>
        <time>2020-08-15T09:11:41Z</time>
      </trkpt>
      <trkpt lat="42.7778053377" lon="-8.4037790168">
        <ele>77.52</ele>
        <time>2020-08-15T09:11:51Z</time>
      </trkpt>
      <trkpt lat="42.7775698062" lon="-8.4038029891">
        <ele>78.00</ele>
        <time>2020-08-15T09:11:59Z</time>
      </trkpt>
      <trkpt lat="42.7773802076" lon="-8.4038178250">
        <ele>78.97</ele>
        <time>2020-08-15T09:12:07Z</time>
      </trkpt>
      <trkpt lat="42.7772279084" lon="-8.4037810285">
        <ele>80.89</ele>
        <time>2020-08-15T09:12:14Z</time>
      </trkpt>
      <trkpt lat="42.7770926245" lon="-8.4036928508">
        <ele>81.37</ele>
        <time>2020-08-15T09:12:21Z</time>
      </trkpt>
      <trkpt lat="42.7770597674" lon="-8.4036705550">
        <ele>81.85</ele>
        <time>2020-08-15T09:12:27Z</time>
      </trkpt>
      <trkpt lat="42.7770601027" lon="-8.4036674537">
        <ele>81.85</ele>
        <time>2020-08-15T09:12:35Z</time>
      </trkpt>
      <trkpt lat="42.7770461049" lon="-8.4036645200">
        <ele>80.89</ele>
        <time>2020-08-15T09:12:50Z</time>
      </trkpt>
      <trkpt lat="42.7770655509" lon="-8.4036749974">
        <ele>79.93</ele>
        <time>2020-08-15T09:13:05Z</time>
      </trkpt>
      <trkpt lat="42.7770692389" lon="-8.4036814515">
        <ele>80.41</ele>
        <time>2020-08-15T09:13:18Z</time>
      </trkpt>
      <trkpt lat="42.7770616952" lon="-8.4036641847">
        <ele>79.45</ele>
        <time>2020-08-15T09:13:31Z</time>
      </trkpt>
      <trkpt lat="42.7770706639" lon="-8.4036795236">
        <ele>78.00</ele>
        <time>2020-08-15T09:13:51Z</time>
      </trkpt>
      <trkpt lat="42.7770742681" lon="-8.4036700521">
        <ele>79.93</ele>
        <time>2020-08-15T09:14:07Z</time>
      </trkpt>
      <trkpt lat="42.7770544030" lon="-8.4036734048">
        <ele>83.29</ele>
        <time>2020-08-15T09:14:25Z</time>
      </trkpt>
      <trkpt lat="42.7770963963" lon="-8.4036789369">
        <ele>84.25</ele>
        <time>2020-08-15T09:14:43Z</time>
      </trkpt>
      <trkpt lat="42.7771246433" lon="-8.4036882408">
        <ele>84.25</ele>
        <time>2020-08-15T09:14:59Z</time>
      </trkpt>
      <trkpt lat="42.7770910319" lon="-8.4036858100">
        <ele>82.81</ele>
        <time>2020-08-15T09:15:22Z</time>
      </trkpt>
      <trkpt lat="42.7770946361" lon="-8.4036988020">
        <ele>83.29</ele>
        <time>2020-08-15T09:15:35Z</time>
      </trkpt>
      <trkpt lat="42.7771518845" lon="-8.4036779311">
        <ele>87.14</ele>
        <time>2020-08-15T09:16:01Z</time>
      </trkpt>
      <trkpt lat="42.7771229669" lon="-8.4036987182">
        <ele>86.18</ele>
        <time>2020-08-15T09:16:25Z</time>
      </trkpt>
      <trkpt lat="42.7771313488" lon="-8.4036873188">
        <ele>84.25</ele>
        <time>2020-08-15T09:16:48Z</time>
      </trkpt>
      <trkpt lat="42.7771725040" lon="-8.4036889113">
        <ele>84.73</ele>
        <time>2020-08-15T09:17:08Z</time>
      </trkpt>
      <trkpt lat="42.7771396469" lon="-8.4036654420">
        <ele>86.18</ele>
        <time>2020-08-15T09:17:29Z</time>
      </trkpt>
      <trkpt lat="42.7770773694" lon="-8.4036693815">
        <ele>83.29</ele>
        <time>2020-08-15T09:17:50Z</time>
      </trkpt>
      <trkpt lat="42.7770773694" lon="-8.4036860615">
        <ele>83.29</ele>
        <time>2020-08-15T09:18:11Z</time>
      </trkpt>
      <trkpt lat="42.7770956419" lon="-8.4037004784">
        <ele>83.77</ele>
        <time>2020-08-15T09:18:32Z</time>
      </trkpt>
      <trkpt lat="42.7770877630" lon="-8.4036934376">
        <ele>83.77</ele>
        <time>2020-08-15T09:18:42Z</time>
      </trkpt>
      <trkpt lat="42.7770859189" lon="-8.4036560543">
        <ele>82.33</ele>
        <time>2020-08-15T09:19:05Z</time>
      </trkpt>
      <trkpt lat="42.7771222964" lon="-8.4036511090">
        <ele>82.33</ele>
        <time>2020-08-15T09:19:18Z</time>
      </trkpt>
      <trkpt lat="42.7771275770" lon="-8.4036657773">
        <ele>83.29</ele>
        <time>2020-08-15T09:19:42Z</time>
      </trkpt>
      <trkpt lat="42.7771119867" lon="-8.4036490973">
        <ele>82.81</ele>
        <time>2020-08-15T09:19:57Z</time>
      </trkpt>
      <trkpt lat="42.7770997491" lon="-8.4036675375">
        <ele>82.81</ele>
        <time>2020-08-15T09:20:12Z</time>
      </trkpt>
      <trkpt lat="42.7771057840" lon="-8.4036648553">
        <ele>84.25</ele>
        <time>2020-08-15T09:20:31Z</time>
      </trkpt>
      <trkpt lat="42.7770887688" lon="-8.4036541265">
        <ele>83.77</ele>
        <time>2020-08-15T09:20:45Z</time>
      </trkpt>
      <trkpt lat="42.7771181054" lon="-8.4036424756">
        <ele>83.29</ele>
        <time>2020-08-15T09:21:03Z</time>
      </trkpt>
      <trkpt lat="42.7771214582" lon="-8.4036496840">
        <ele>84.73</ele>
        <time>2020-08-15T09:21:23Z</time>
      </trkpt>
      <trkpt lat="42.7771152556" lon="-8.4036548808">
        <ele>84.73</ele>
        <time>2020-08-15T09:21:38Z</time>
      </trkpt>
      <trkpt lat="42.7771331090" lon="-8.4036598261">
        <ele>86.18</ele>
        <time>2020-08-15T09:22:00Z</time>
      </trkpt>
      <trkpt lat="42.7771259844" lon="-8.4036693815">
        <ele>87.62</ele>
        <time>2020-08-15T09:22:13Z</time>
      </trkpt>
      <trkpt lat="42.7771088015" lon="-8.4036627598">
        <ele>87.62</ele>
        <time>2020-08-15T09:22:28Z</time>
      </trkpt>
      <trkpt lat="42.7771198656" lon="-8.4036727343">
        <ele>85.69</ele>
        <time>2020-08-15T09:22:41Z</time>
      </trkpt>
      <trkpt lat="42.7771124896" lon="-8.4036951978">
        <ele>88.58</ele>
        <time>2020-08-15T09:22:56Z</time>
      </trkpt>
      <trkpt lat="42.7771072090" lon="-8.4036822896">
        <ele>89.06</ele>
        <time>2020-08-15T09:23:11Z</time>
      </trkpt>
      <trkpt lat="42.7771134116" lon="-8.4036630951">
        <ele>89.06</ele>
        <time>2020-08-15T09:23:26Z</time>
      </trkpt>
      <trkpt lat="42.7770914510" lon="-8.4036543779">
        <ele>87.62</ele>
        <time>2020-08-15T09:23:43Z</time>
      </trkpt>
      <trkpt lat="42.7770707477" lon="-8.4036697168">
        <ele>85.69</ele>
        <time>2020-08-15T09:23:59Z</time>
      </trkpt>
      <trkpt lat="42.7770747710" lon="-8.4036635980">
        <ele>84.73</ele>
        <time>2020-08-15T09:24:12Z</time>
      </trkpt>
      <trkpt lat="42.7770796325" lon="-8.4036687110">
        <ele>85.69</ele>
        <time>2020-08-15T09:24:25Z</time>
      </trkpt>
      <trkpt lat="42.7770718373" lon="-8.4036799427">
        <ele>85.69</ele>
        <time>2020-08-15T09:24:37Z</time>
      </trkpt>
      <trkpt lat="42.7770833205" lon="-8.4036825411">
        <ele>86.18</ele>
        <time>2020-08-15T09:24:45Z</time>
      </trkpt>
      <trkpt lat="42.7771051135" lon="-8.4036216885">
        <ele>86.18</ele>
        <time>2020-08-15T09:24:54Z</time>
      </trkpt>
      <trkpt lat="42.7771354560" lon="-8.4035742469">
        <ele>85.21</ele>
        <time>2020-08-15T09:25:03Z</time>
      </trkpt>
      <trkpt lat="42.7771636192" lon="-8.4035672061">
        <ele>85.21</ele>
        <time>2020-08-15T09:25:06Z</time>
      </trkpt>
      <trkpt lat="42.7772905212" lon="-8.4035486821">
        <ele>83.77</ele>
        <time>2020-08-15T09:25:18Z</time>
      </trkpt>
      <trkpt lat="42.7772924490" lon="-8.4035454132">
        <ele>84.25</ele>
        <time>2020-08-15T09:25:26Z</time>
      </trkpt>
      <trkpt lat="42.7773056924" lon="-8.4035599977">
        <ele>81.85</ele>
        <time>2020-08-15T09:25:42Z</time>
      </trkpt>
      <trkpt lat="42.7773123980" lon="-8.4035416413">
        <ele>80.89</ele>
        <time>2020-08-15T09:26:00Z</time>
      </trkpt>
      <trkpt lat="42.7773106378" lon="-8.4035368636">
        <ele>78.00</ele>
        <time>2020-08-15T09:26:20Z</time>
      </trkpt>
      <trkpt lat="42.7773051057" lon="-8.4035303257">
        <ele>75.12</ele>
        <time>2020-08-15T09:26:39Z</time>
      </trkpt>
      <trkpt lat="42.7773059439" lon="-8.4035299905">
        <ele>73.68</ele>
        <time>2020-08-15T09:26:55Z</time>
      </trkpt>
      <trkpt lat="42.7773038484" lon="-8.4035526216">
        <ele>73.20</ele>
        <time>2020-08-15T09:27:18Z</time>
      </trkpt>
      <trkpt lat="42.7773042675" lon="-8.4035590757">
        <ele>73.68</ele>
        <time>2020-08-15T09:27:36Z</time>
      </trkpt>
      <trkpt lat="42.7772977296" lon="-8.4035510290">
        <ele>76.08</ele>
        <time>2020-08-15T09:28:04Z</time>
      </trkpt>
      <trkpt lat="42.7772808820" lon="-8.4035573155">
        <ele>74.64</ele>
        <time>2020-08-15T09:28:30Z</time>
      </trkpt>
      <trkpt lat="42.7772991545" lon="-8.4035540465">
        <ele>75.60</ele>
        <time>2020-08-15T09:28:59Z</time>
      </trkpt>
      <trkpt lat="42.7773077879" lon="-8.4035318345">
        <ele>75.12</ele>
        <time>2020-08-15T09:29:23Z</time>
      </trkpt>
      <trkpt lat="42.7772765234" lon="-8.4035651945">
        <ele>74.16</ele>
        <time>2020-08-15T09:29:53Z</time>
      </trkpt>
      <trkpt lat="42.7772743441" lon="-8.4035825450">
        <ele>72.24</ele>
        <time>2020-08-15T09:30:16Z</time>
      </trkpt>
      <trkpt lat="42.7772569936" lon="-8.4036105406">
        <ele>72.72</ele>
        <time>2020-08-15T09:30:42Z</time>
      </trkpt>
      <trkpt lat="42.7772555687" lon="-8.4035884123">
        <ele>70.79</ele>
        <time>2020-08-15T09:31:11Z</time>
      </trkpt>
      <trkpt lat="42.7772753499" lon="-8.4035690501">
        <ele>73.20</ele>
        <time>2020-08-15T09:31:34Z</time>
      </trkpt>
      <trkpt lat="42.7773124818" lon="-8.4035146516">
        <ele>71.27</ele>
        <time>2020-08-15T09:32:02Z</time>
      </trkpt>
      <trkpt lat="42.7772924490" lon="-8.4035197645">
        <ele>74.64</ele>
        <time>2020-08-15T09:32:29Z</time>
      </trkpt>
      <trkpt lat="42.7773067821" lon="-8.4035300743">
        <ele>72.72</ele>
        <time>2020-08-15T09:32:55Z</time>
      </trkpt>
      <trkpt lat="42.7772893477" lon="-8.4035607520">
        <ele>72.72</ele>
        <time>2020-08-15T09:33:23Z</time>
      </trkpt>
      <trkpt lat="42.7772532217" lon="-8.4035640210">
        <ele>72.24</ele>
        <time>2020-08-15T09:33:55Z</time>
      </trkpt>
      <trkpt lat="42.7772722486" lon="-8.4035575669">
        <ele>75.60</ele>
        <time>2020-08-15T09:34:28Z</time>
      </trkpt>
      <trkpt lat="42.7772486117" lon="-8.4035620932">
        <ele>74.64</ele>
        <time>2020-08-15T09:34:59Z</time>
      </trkpt>
      <trkpt lat="42.7772572450" lon="-8.4035703074">
        <ele>73.20</ele>
        <time>2020-08-15T09:35:22Z</time>
      </trkpt>
      <trkpt lat="42.7772668004" lon="-8.4035758395">
        <ele>74.16</ele>
        <time>2020-08-15T09:35:54Z</time>
      </trkpt>
      <trkpt lat="42.7772502042" lon="-8.4035895020">
        <ele>74.16</ele>
        <time>2020-08-15T09:36:23Z</time>
      </trkpt>
      <trkpt lat="42.7772631124" lon="-8.4035749175">
        <ele>72.72</ele>
        <time>2020-08-15T09:36:55Z</time>
      </trkpt>
      <trkpt lat="42.7772705723" lon="-8.4035571478">
        <ele>72.72</ele>
        <time>2020-08-15T09:37:20Z</time>
      </trkpt>
      <trkpt lat="42.7772828098" lon="-8.4035511967">
        <ele>75.12</ele>
        <time>2020-08-15T09:37:41Z</time>
      </trkpt>
      <trkpt lat="42.7772712428" lon="-8.4035525378">
        <ele>76.56</ele>
        <time>2020-08-15T09:38:05Z</time>
      </trkpt>
      <trkpt lat="42.7772659622" lon="-8.4035708103">
        <ele>78.00</ele>
        <time>2020-08-15T09:38:28Z</time>
      </trkpt>
      <trkpt lat="42.7772708237" lon="-8.4035630152">
        <ele>78.97</ele>
        <time>2020-08-15T09:38:48Z</time>
      </trkpt>
      <trkpt lat="42.7772718295" lon="-8.4035826288">
        <ele>80.41</ele>
        <time>2020-08-15T09:39:07Z</time>
      </trkpt>
      <trkpt lat="42.7772926167" lon="-8.4035807010">
        <ele>79.93</ele>
        <time>2020-08-15T09:39:31Z</time>
      </trkpt>
      <trkpt lat="42.7772828937" lon="-8.4035743307">
        <ele>78.48</ele>
        <time>2020-08-15T09:39:52Z</time>
      </trkpt>
      <trkpt lat="42.7772683091" lon="-8.4035623446">
        <ele>77.52</ele>
        <time>2020-08-15T09:40:06Z</time>
      </trkpt>
      <trkpt lat="42.7772475220" lon="-8.4035916813">
        <ele>74.64</ele>
        <time>2020-08-15T09:40:30Z</time>
      </trkpt>
      <trkpt lat="42.7772559877" lon="-8.4035904240">
        <ele>78.48</ele>
        <time>2020-08-15T09:40:52Z</time>
      </trkpt>
      <trkpt lat="42.7772497013" lon="-8.4035834670">
        <ele>78.00</ele>
        <time>2020-08-15T09:41:06Z</time>
      </trkpt>
      <trkpt lat="42.7772433311" lon="-8.4035722353">
        <ele>72.72</ele>
        <time>2020-08-15T09:41:29Z</time>
      </trkpt>
      <trkpt lat="42.7772305906" lon="-8.4035987221">
        <ele>73.68</ele>
        <time>2020-08-15T09:41:53Z</time>
      </trkpt>
      <trkpt lat="42.7772485279" lon="-8.4036028292">
        <ele>73.68</ele>
        <time>2020-08-15T09:42:15Z</time>
      </trkpt>
      <trkpt lat="42.7772554010" lon="-8.4035914298">
        <ele>77.04</ele>
        <time>2020-08-15T09:42:37Z</time>
      </trkpt>
      <trkpt lat="42.7772549819" lon="-8.4035837185">
        <ele>78.97</ele>
        <time>2020-08-15T09:42:56Z</time>
      </trkpt>
      <trkpt lat="42.7772528026" lon="-8.4035870712">
        <ele>76.56</ele>
        <time>2020-08-15T09:43:10Z</time>
      </trkpt>
      <trkpt lat="42.7772645373" lon="-8.4035925195">
        <ele>74.16</ele>
        <time>2020-08-15T09:43:30Z</time>
      </trkpt>
      <trkpt lat="42.7772543952" lon="-8.4035745822">
        <ele>76.08</ele>
        <time>2020-08-15T09:43:53Z</time>
      </trkpt>
      <trkpt lat="42.7772281598" lon="-8.4035798628">
        <ele>78.00</ele>
        <time>2020-08-15T09:44:12Z</time>
      </trkpt>
      <trkpt lat="42.7771945484" lon="-8.4035825450">
        <ele>80.89</ele>
        <time>2020-08-15T09:44:29Z</time>
      </trkpt>
      <trkpt lat="42.7772017568" lon="-8.4036071878">
        <ele>81.37</ele>
        <time>2020-08-15T09:44:46Z</time>
      </trkpt>
      <trkpt lat="42.7772217896" lon="-8.4036254603">
        <ele>75.12</ele>
        <time>2020-08-15T09:45:05Z</time>
      </trkpt>
      <trkpt lat="42.7772178501" lon="-8.4036331717">
        <ele>74.16</ele>
        <time>2020-08-15T09:45:27Z</time>
      </trkpt>
      <trkpt lat="42.7771932073" lon="-8.4036199283">
        <ele>75.60</ele>
        <time>2020-08-15T09:45:52Z</time>
      </trkpt>
      <trkpt lat="42.7771904413" lon="-8.4036034998">
        <ele>74.16</ele>
        <time>2020-08-15T09:46:10Z</time>
      </trkpt>
      <trkpt lat="42.7772253100" lon="-8.4035905078">
        <ele>71.76</ele>
        <time>2020-08-15T09:46:32Z</time>
      </trkpt>
      <trkpt lat="42.7772192750" lon="-8.4035900049">
        <ele>74.16</ele>
        <time>2020-08-15T09:46:46Z</time>
      </trkpt>
      <trkpt lat="42.7772161737" lon="-8.4036034998">
        <ele>72.24</ele>
        <time>2020-08-15T09:47:10Z</time>
      </trkpt>
      <trkpt lat="42.7772220410" lon="-8.4035841376">
        <ele>70.31</ele>
        <time>2020-08-15T09:47:34Z</time>
      </trkpt>
      <trkpt lat="42.7771884296" lon="-8.4035808686">
        <ele>71.76</ele>
        <time>2020-08-15T09:47:52Z</time>
      </trkpt>
      <trkpt lat="42.7772098035" lon="-8.4035802819">
        <ele>73.20</ele>
        <time>2020-08-15T09:48:08Z</time>
      </trkpt>
      <trkpt lat="42.7772263996" lon="-8.4035903402">
        <ele>76.08</ele>
        <time>2020-08-15T09:48:26Z</time>
      </trkpt>
      <trkpt lat="42.7772494499" lon="-8.4035964590">
        <ele>78.48</ele>
        <time>2020-08-15T09:48:40Z</time>
      </trkpt>
      <trkpt lat="42.7772458456" lon="-8.4036298189">
        <ele>78.48</ele>
        <time>2020-08-15T09:49:03Z</time>
      </trkpt>
      <trkpt lat="42.7772371285" lon="-8.4036310762">
        <ele>82.81</ele>
        <time>2020-08-15T09:49:21Z</time>
      </trkpt>
      <trkpt lat="42.7772295848" lon="-8.4036014043">
        <ele>80.89</ele>
        <time>2020-08-15T09:49:39Z</time>
      </trkpt>
      <trkpt lat="42.7772300038" lon="-8.4035806172">
        <ele>80.41</ele>
        <time>2020-08-15T09:49:55Z</time>
      </trkpt>
      <trkpt lat="42.7772281598" lon="-8.4035872389">
        <ele>79.93</ele>
        <time>2020-08-15T09:50:11Z</time>
      </trkpt>
      <trkpt lat="42.7772124019" lon="-8.4035950340">
        <ele>79.93</ele>
        <time>2020-08-15T09:50:32Z</time>
      </trkpt>
      <trkpt lat="42.7771994937" lon="-8.4035747498">
        <ele>78.97</ele>
        <time>2020-08-15T09:50:50Z</time>
      </trkpt>
      <trkpt lat="42.7772052772" lon="-8.4035742469">
        <ele>79.93</ele>
        <time>2020-08-15T09:51:07Z</time>
      </trkpt>
      <trkpt lat="42.7772466000" lon="-8.4036053438">
        <ele>78.97</ele>
        <time>2020-08-15T09:51:23Z</time>
      </trkpt>
      <trkpt lat="42.7772354521" lon="-8.4036160726">
        <ele>79.45</ele>
        <time>2020-08-15T09:51:33Z</time>
      </trkpt>
      <trkpt lat="42.7772442531" lon="-8.4036202636">
        <ele>77.52</ele>
        <time>2020-08-15T09:51:40Z</time>
      </trkpt>
      <trkpt lat="42.7772575803" lon="-8.4036319144">
        <ele>78.97</ele>
        <time>2020-08-15T09:51:42Z</time>
      </trkpt>
      <trkpt lat="42.7772222925" lon="-8.4037554637">
        <ele>81.85</ele>
        <time>2020-08-15T09:51:50Z</time>
      </trkpt>
      <trkpt lat="42.7772191912" lon="-8.4037840459">
        <ele>81.85</ele>
        <time>2020-08-15T09:51:52Z</time>
      </trkpt>
      <trkpt lat="42.7772118989" lon="-8.4038081020">
        <ele>81.85</ele>
        <time>2020-08-15T09:51:53Z</time>
      </trkpt>
      <trkpt lat="42.7771279123" lon="-8.4039869718">
        <ele>81.85</ele>
        <time>2020-08-15T09:51:59Z</time>
      </trkpt>
      <trkpt lat="42.7770181093" lon="-8.4041963518">
        <ele>82.81</ele>
        <time>2020-08-15T09:52:06Z</time>
      </trkpt>
      <trkpt lat="42.7768818196" lon="-8.4046176262">
        <ele>83.77</ele>
        <time>2020-08-15T09:52:18Z</time>
      </trkpt>
      <trkpt lat="42.7767845895" lon="-8.4049048740">
        <ele>84.73</ele>
        <time>2020-08-15T09:52:27Z</time>
      </trkpt>
      <trkpt lat="42.7766834199" lon="-8.4051453508">
        <ele>85.21</ele>
        <time>2020-08-15T09:52:35Z</time>
      </trkpt>
      <trkpt lat="42.7765745390" lon="-8.4054085426">
        <ele>85.69</ele>
        <time>2020-08-15T09:52:44Z</time>
      </trkpt>
      <trkpt lat="42.7764674183" lon="-8.4056470916">
        <ele>86.66</ele>
        <time>2020-08-15T09:52:53Z</time>
      </trkpt>
      <trkpt lat="42.7763537597" lon="-8.4059663583">
        <ele>89.06</ele>
        <time>2020-08-15T09:53:03Z</time>
      </trkpt>
      <trkpt lat="42.7762747183" lon="-8.4061954357">
        <ele>90.50</ele>
        <time>2020-08-15T09:53:12Z</time>
      </trkpt>
      <trkpt lat="42.7762016281" lon="-8.4064159635">
        <ele>91.46</ele>
        <time>2020-08-15T09:53:20Z</time>
      </trkpt>
      <trkpt lat="42.7761070803" lon="-8.4067641478">
        <ele>93.39</ele>
        <time>2020-08-15T09:53:31Z</time>
      </trkpt>
      <trkpt lat="42.7760253567" lon="-8.4070311114">
        <ele>94.35</ele>
        <time>2020-08-15T09:53:40Z</time>
      </trkpt>
      <trkpt lat="42.7759387717" lon="-8.4073217120">
        <ele>95.79</ele>
        <time>2020-08-15T09:53:50Z</time>
      </trkpt>
      <trkpt lat="42.7758532763" lon="-8.4075774439">
        <ele>97.23</ele>
        <time>2020-08-15T09:53:59Z</time>
      </trkpt>
      <trkpt lat="42.7757676132" lon="-8.4077920206">
        <ele>98.19</ele>
        <time>2020-08-15T09:54:07Z</time>
      </trkpt>
      <trkpt lat="42.7756534517" lon="-8.4080578107">
        <ele>99.63</ele>
        <time>2020-08-15T09:54:17Z</time>
      </trkpt>
      <trkpt lat="42.7755438164" lon="-8.4082891513">
        <ele>100.60</ele>
        <time>2020-08-15T09:54:26Z</time>
      </trkpt>
      <trkpt lat="42.7754555549" lon="-8.4084851202">
        <ele>101.56</ele>
        <time>2020-08-15T09:54:34Z</time>
      </trkpt>
      <trkpt lat="42.7753015794" lon="-8.4087649919">
        <ele>102.04</ele>
        <time>2020-08-15T09:54:43Z</time>
      </trkpt>
      <trkpt lat="42.7752176765" lon="-8.4090643935">
        <ele>102.04</ele>
        <time>2020-08-15T09:54:52Z</time>
      </trkpt>
      <trkpt lat="42.7752260584" lon="-8.4094068781">
        <ele>102.04</ele>
        <time>2020-08-15T09:55:02Z</time>
      </trkpt>
      <trkpt lat="42.7753132302" lon="-8.4094885178">
        <ele>101.56</ele>
        <time>2020-08-15T09:55:08Z</time>
      </trkpt>
      <trkpt lat="42.7754726540" lon="-8.4094228875">
        <ele>103.96</ele>
        <time>2020-08-15T09:55:17Z</time>
      </trkpt>
      <trkpt lat="42.7755606640" lon="-8.4093264956">
        <ele>104.92</ele>
        <time>2020-08-15T09:55:24Z</time>
      </trkpt>
      <trkpt lat="42.7757210936" lon="-8.4091513138">
        <ele>106.36</ele>
        <time>2020-08-15T09:55:35Z</time>
      </trkpt>
      <trkpt lat="42.7758640051" lon="-8.4090042952">
        <ele>107.81</ele>
        <time>2020-08-15T09:55:45Z</time>
      </trkpt>
      <trkpt lat="42.7759914938" lon="-8.4089009464">
        <ele>109.25</ele>
        <time>2020-08-15T09:55:53Z</time>
      </trkpt>
      <trkpt lat="42.7761488222" lon="-8.4088301193">
        <ele>109.25</ele>
        <time>2020-08-15T09:56:02Z</time>
      </trkpt>
      <trkpt lat="42.7763634827" lon="-8.4087535925">
        <ele>110.69</ele>
        <time>2020-08-15T09:56:13Z</time>
      </trkpt>
      <trkpt lat="42.7765295282" lon="-8.4087152034">
        <ele>110.69</ele>
        <time>2020-08-15T09:56:21Z</time>
      </trkpt>
      <trkpt lat="42.7766871080" lon="-8.4086432867">
        <ele>110.21</ele>
        <time>2020-08-15T09:56:29Z</time>
      </trkpt>
      <trkpt lat="42.7768466994" lon="-8.4085710347">
        <ele>110.21</ele>
        <time>2020-08-15T09:56:37Z</time>
      </trkpt>
      <trkpt lat="42.7769407444" lon="-8.4085220844">
        <ele>109.73</ele>
        <time>2020-08-15T09:56:44Z</time>
      </trkpt>
      <trkpt lat="42.7769490425" lon="-8.4085080866">
        <ele>109.73</ele>
        <time>2020-08-15T09:56:51Z</time>
      </trkpt>
      <trkpt lat="42.7770198695" lon="-8.4085108526">
        <ele>109.25</ele>
        <time>2020-08-15T09:57:02Z</time>
      </trkpt>
      <trkpt lat="42.7771020122" lon="-8.4086489026">
        <ele>108.77</ele>
        <time>2020-08-15T09:57:08Z</time>
      </trkpt>
      <trkpt lat="42.7771868370" lon="-8.4089963324">
        <ele>109.25</ele>
        <time>2020-08-15T09:57:20Z</time>
      </trkpt>
      <trkpt lat="42.7772850730" lon="-8.4092985000">
        <ele>109.73</ele>
        <time>2020-08-15T09:57:31Z</time>
      </trkpt>
      <trkpt lat="42.7774051856" lon="-8.4095825627">
        <ele>111.17</ele>
        <time>2020-08-15T09:57:42Z</time>
      </trkpt>
      <trkpt lat="42.7775549702" lon="-8.4098467603">
        <ele>112.61</ele>
        <time>2020-08-15T09:57:53Z</time>
      </trkpt>
      <trkpt lat="42.7776789386" lon="-8.4100277256">
        <ele>113.57</ele>
        <time>2020-08-15T09:58:02Z</time>
      </trkpt>
      <trkpt lat="42.7778076846" lon="-8.4102478344">
        <ele>114.53</ele>
        <time>2020-08-15T09:58:13Z</time>
      </trkpt>
      <trkpt lat="42.7779402025" lon="-8.4104664344">
        <ele>116.46</ele>
        <time>2020-08-15T09:58:24Z</time>
      </trkpt>
      <trkpt lat="42.7780906577" lon="-8.4107247647">
        <ele>117.42</ele>
        <time>2020-08-15T09:58:37Z</time>
      </trkpt>
      <trkpt lat="42.7781795058" lon="-8.4108939115">
        <ele>118.38</ele>
        <time>2020-08-15T09:58:45Z</time>
      </trkpt>
      <trkpt lat="42.7782807592" lon="-8.4111008607">
        <ele>119.34</ele>
        <time>2020-08-15T09:58:55Z</time>
      </trkpt>
      <trkpt lat="42.7783968486" lon="-8.4113910422">
        <ele>119.82</ele>
        <time>2020-08-15T09:59:08Z</time>
      </trkpt>
      <trkpt lat="42.7784762252" lon="-8.4116524737">
        <ele>121.74</ele>
        <time>2020-08-15T09:59:20Z</time>
      </trkpt>
      <trkpt lat="42.7785361558" lon="-8.4119122289">
        <ele>123.19</ele>
        <time>2020-08-15T09:59:31Z</time>
      </trkpt>
      <trkpt lat="42.7785766404" lon="-8.4121917654">
        <ele>124.15</ele>
        <time>2020-08-15T09:59:43Z</time>
      </trkpt>
      <trkpt lat="42.7786025405" lon="-8.4124099463">
        <ele>125.59</ele>
        <time>2020-08-15T09:59:52Z</time>
      </trkpt>
      <trkpt lat="42.7786161192" lon="-8.4126220923">
        <ele>126.55</ele>
        <time>2020-08-15T10:00:01Z</time>
      </trkpt>
      <trkpt lat="42.7786182147" lon="-8.4127981961">
        <ele>127.99</ele>
        <time>2020-08-15T10:00:10Z</time>
      </trkpt>
      <trkpt lat="42.7786140237" lon="-8.4127945080">
        <ele>128.47</ele>
        <time>2020-08-15T10:00:15Z</time>
      </trkpt>
      <trkpt lat="42.7786162868" lon="-8.4127688594">
        <ele>127.51</ele>
        <time>2020-08-15T10:00:34Z</time>
      </trkpt>
      <trkpt lat="42.7786244173" lon="-8.4127353318">
        <ele>128.95</ele>
        <time>2020-08-15T10:00:53Z</time>
      </trkpt>
      <trkpt lat="42.7786090784" lon="-8.4127485752">
        <ele>130.40</ele>
        <time>2020-08-15T10:01:08Z</time>
      </trkpt>
      <trkpt lat="42.7786198910" lon="-8.4127777442">
        <ele>131.36</ele>
        <time>2020-08-15T10:01:28Z</time>
      </trkpt>
      <trkpt lat="42.7786011156" lon="-8.4127822705">
        <ele>133.28</ele>
        <time>2020-08-15T10:01:43Z</time>
      </trkpt>
      <trkpt lat="42.7786044683" lon="-8.4127835277">
        <ele>131.36</ele>
        <time>2020-08-15T10:02:00Z</time>
      </trkpt>
      <trkpt lat="42.7785989363" lon="-8.4127622377">
        <ele>128.95</ele>
        <time>2020-08-15T10:02:15Z</time>
      </trkpt>
      <trkpt lat="42.7786134370" lon="-8.4127806779">
        <ele>129.43</ele>
        <time>2020-08-15T10:02:27Z</time>
      </trkpt>
      <trkpt lat="42.7786136884" lon="-8.4127966035">
        <ele>129.92</ele>
        <time>2020-08-15T10:02:41Z</time>
      </trkpt>
      <trkpt lat="42.7786051389" lon="-8.4128461406">
        <ele>129.43</ele>
        <time>2020-08-15T10:02:48Z</time>
      </trkpt>
      <trkpt lat="42.7785907220" lon="-8.4130166285">
        <ele>131.36</ele>
        <time>2020-08-15T10:02:55Z</time>
      </trkpt>
      <trkpt lat="42.7785701863" lon="-8.4131773934">
        <ele>131.84</ele>
        <time>2020-08-15T10:03:03Z</time>
      </trkpt>
      <trkpt lat="42.7785379998" lon="-8.4133950714">
        <ele>132.80</ele>
        <time>2020-08-15T10:03:12Z</time>
      </trkpt>
      <trkpt lat="42.7784925699" lon="-8.4135979973">
        <ele>133.28</ele>
        <time>2020-08-15T10:03:20Z</time>
      </trkpt>
      <trkpt lat="42.7784459665" lon="-8.4138186928">
        <ele>133.76</ele>
        <time>2020-08-15T10:03:29Z</time>
      </trkpt>
      <trkpt lat="42.7783727925" lon="-8.4140266478">
        <ele>134.24</ele>
        <time>2020-08-15T10:03:38Z</time>
      </trkpt>
      <trkpt lat="42.7783128619" lon="-8.4142013267">
        <ele>136.64</ele>
        <time>2020-08-15T10:03:45Z</time>
      </trkpt>
      <trkpt lat="42.7782319766" lon="-8.4144093655">
        <ele>137.61</ele>
        <time>2020-08-15T10:03:54Z</time>
      </trkpt>
      <trkpt lat="42.7781324834" lon="-8.4145985451">
        <ele>138.09</ele>
        <time>2020-08-15T10:04:03Z</time>
      </trkpt>
      <trkpt lat="42.7780629974" lon="-8.4147339966">
        <ele>139.05</ele>
        <time>2020-08-15T10:04:13Z</time>
      </trkpt>
      <trkpt lat="42.7780624107" lon="-8.4147379361">
        <ele>139.05</ele>
        <time>2020-08-15T10:04:25Z</time>
      </trkpt>
      <trkpt lat="42.7780654281" lon="-8.4147277102">
        <ele>139.05</ele>
        <time>2020-08-15T10:04:35Z</time>
      </trkpt>
      <trkpt lat="42.7780224290" lon="-8.4147994593">
        <ele>139.05</ele>
        <time>2020-08-15T10:04:41Z</time>
      </trkpt>
      <trkpt lat="42.7779314853" lon="-8.4149309713">
        <ele>140.01</ele>
        <time>2020-08-15T10:04:48Z</time>
      </trkpt>
      <trkpt lat="42.7777927648" lon="-8.4151235875">
        <ele>141.93</ele>
        <time>2020-08-15T10:04:58Z</time>
      </trkpt>
      <trkpt lat="42.7776320837" lon="-8.4153590351">
        <ele>143.85</ele>
        <time>2020-08-15T10:05:09Z</time>
      </trkpt>
      <trkpt lat="42.7774639428" lon="-8.4156052954">
        <ele>145.78</ele>
        <time>2020-08-15T10:05:21Z</time>
      </trkpt>
      <trkpt lat="42.7772988193" lon="-8.4158977401">
        <ele>147.22</ele>
        <time>2020-08-15T10:05:34Z</time>
      </trkpt>
      <trkpt lat="42.7772067860" lon="-8.4160632826">
        <ele>149.14</ele>
        <time>2020-08-15T10:05:42Z</time>
      </trkpt>
      <trkpt lat="42.7770916186" lon="-8.4163455013">
        <ele>150.10</ele>
        <time>2020-08-15T10:05:54Z</time>
      </trkpt>
      <trkpt lat="42.7769929636" lon="-8.4166257922">
        <ele>152.51</ele>
        <time>2020-08-15T10:06:05Z</time>
      </trkpt>
      <trkpt lat="42.7769145928" lon="-8.4168924205">
        <ele>153.95</ele>
        <time>2020-08-15T10:06:16Z</time>
      </trkpt>
      <trkpt lat="42.7768638823" lon="-8.4171081707">
        <ele>154.91</ele>
        <time>2020-08-15T10:06:25Z</time>
      </trkpt>
      <trkpt lat="42.7768261638" lon="-8.4173503239">
        <ele>155.87</ele>
        <time>2020-08-15T10:06:35Z</time>
      </trkpt>
      <trkpt lat="42.7767819073" lon="-8.4175872803">
        <ele>156.83</ele>
        <time>2020-08-15T10:06:44Z</time>
      </trkpt>
      <trkpt lat="42.7767041232" lon="-8.4179334529">
        <ele>158.27</ele>
        <time>2020-08-15T10:06:57Z</time>
      </trkpt>
      <trkpt lat="42.7766498923" lon="-8.4181886818">
        <ele>159.72</ele>
        <time>2020-08-15T10:07:07Z</time>
      </trkpt>
      <trkpt lat="42.7765966672" lon="-8.4184895083">
        <ele>161.16</ele>
        <time>2020-08-15T10:07:19Z</time>
      </trkpt>
      <trkpt lat="42.7765874472" lon="-8.4184967168">
        <ele>160.68</ele>
        <time>2020-08-15T10:07:24Z</time>
      </trkpt>
      <trkpt lat="42.7765949070" lon="-8.4184946213">
        <ele>159.72</ele>
        <time>2020-08-15T10:07:32Z</time>
      </trkpt>
      <trkpt lat="42.7766034566" lon="-8.4184960462">
        <ele>158.27</ele>
        <time>2020-08-15T10:07:50Z</time>
      </trkpt>
      <trkpt lat="42.7766072284" lon="-8.4185042605">
        <ele>157.79</ele>
        <time>2020-08-15T10:07:59Z</time>
      </trkpt>
      <trkpt lat="42.7766048815" lon="-8.4185138159">
        <ele>156.35</ele>
        <time>2020-08-15T10:08:23Z</time>
      </trkpt>
      <trkpt lat="42.7766037080" lon="-8.4184961300">
        <ele>157.31</ele>
        <time>2020-08-15T10:08:38Z</time>
      </trkpt>
      <trkpt lat="42.7765977569" lon="-8.4184767678">
        <ele>157.31</ele>
        <time>2020-08-15T10:08:55Z</time>
      </trkpt>
      <trkpt lat="42.7766027860" lon="-8.4184948727">
        <ele>156.83</ele>
        <time>2020-08-15T10:09:14Z</time>
      </trkpt>
      <trkpt lat="42.7766053844" lon="-8.4185097087">
        <ele>155.39</ele>
        <time>2020-08-15T10:09:34Z</time>
      </trkpt>
      <trkpt lat="42.7766046301" lon="-8.4184931964">
        <ele>154.43</ele>
        <time>2020-08-15T10:09:52Z</time>
      </trkpt>
      <trkpt lat="42.7765918057" lon="-8.4184974711">
        <ele>154.43</ele>
        <time>2020-08-15T10:10:11Z</time>
      </trkpt>
      <trkpt lat="42.7765962481" lon="-8.4184896760">
        <ele>155.87</ele>
        <time>2020-08-15T10:10:28Z</time>
      </trkpt>
      <trkpt lat="42.7766174544" lon="-8.4185074456">
        <ele>156.35</ele>
        <time>2020-08-15T10:10:42Z</time>
      </trkpt>
      <trkpt lat="42.7766217291" lon="-8.4185131453">
        <ele>156.35</ele>
        <time>2020-08-15T10:10:54Z</time>
      </trkpt>
      <trkpt lat="42.7766066417" lon="-8.4184915200">
        <ele>157.31</ele>
        <time>2020-08-15T10:11:07Z</time>
      </trkpt>
      <trkpt lat="42.7766129281" lon="-8.4184975550">
        <ele>156.83</ele>
        <time>2020-08-15T10:11:18Z</time>
      </trkpt>
      <trkpt lat="42.7766151913" lon="-8.4184885025">
        <ele>156.35</ele>
        <time>2020-08-15T10:11:29Z</time>
      </trkpt>
      <trkpt lat="42.7766229864" lon="-8.4184683859">
        <ele>156.35</ele>
        <time>2020-08-15T10:11:39Z</time>
      </trkpt>
      <trkpt lat="42.7766187955" lon="-8.4184724092">
        <ele>156.35</ele>
        <time>2020-08-15T10:11:50Z</time>
      </trkpt>
      <trkpt lat="42.7766130120" lon="-8.4184615128">
        <ele>156.83</ele>
        <time>2020-08-15T10:12:02Z</time>
      </trkpt>
      <trkpt lat="42.7766125090" lon="-8.4184659552">
        <ele>156.35</ele>
        <time>2020-08-15T10:12:18Z</time>
      </trkpt>
      <trkpt lat="42.7766096592" lon="-8.4184743371">
        <ele>158.27</ele>
        <time>2020-08-15T10:12:32Z</time>
      </trkpt>
      <trkpt lat="42.7766219806" lon="-8.4184651170">
        <ele>155.87</ele>
        <time>2020-08-15T10:12:46Z</time>
      </trkpt>
      <trkpt lat="42.7766280994" lon="-8.4184659552">
        <ele>154.91</ele>
        <time>2020-08-15T10:12:59Z</time>
      </trkpt>
      <trkpt lat="42.7766374033" lon="-8.4184693079">
        <ele>154.43</ele>
        <time>2020-08-15T10:13:10Z</time>
      </trkpt>
      <trkpt lat="42.7766369004" lon="-8.4184745885">
        <ele>154.91</ele>
        <time>2020-08-15T10:13:19Z</time>
      </trkpt>
      <trkpt lat="42.7766347211" lon="-8.4184672963">
        <ele>155.87</ele>
        <time>2020-08-15T10:13:29Z</time>
      </trkpt>
      <trkpt lat="42.7766262554" lon="-8.4184851497">
        <ele>155.39</ele>
        <time>2020-08-15T10:13:37Z</time>
      </trkpt>
      <trkpt lat="42.7765972540" lon="-8.4185363632">
        <ele>155.39</ele>
        <time>2020-08-15T10:13:42Z</time>
      </trkpt>
      <trkpt lat="42.7765703481" lon="-8.4186821245">
        <ele>156.35</ele>
        <time>2020-08-15T10:13:49Z</time>
      </trkpt>
      <trkpt lat="42.7765161172" lon="-8.4189250320">
        <ele>157.31</ele>
        <time>2020-08-15T10:13:59Z</time>
      </trkpt>
      <trkpt lat="42.7764684241" lon="-8.4191585518">
        <ele>158.75</ele>
        <time>2020-08-15T10:14:08Z</time>
      </trkpt>
      <trkpt lat="42.7764008660" lon="-8.4194393456">
        <ele>160.68</ele>
        <time>2020-08-15T10:14:19Z</time>
      </trkpt>
      <trkpt lat="42.7763503231" lon="-8.4196904674">
        <ele>162.60</ele>
        <time>2020-08-15T10:14:29Z</time>
      </trkpt>
      <trkpt lat="42.7762939129" lon="-8.4199441876">
        <ele>163.56</ele>
        <time>2020-08-15T10:14:39Z</time>
      </trkpt>
      <trkpt lat="42.7762312163" lon="-8.4202717524">
        <ele>165.00</ele>
        <time>2020-08-15T10:14:52Z</time>
      </trkpt>
      <trkpt lat="42.7761810925" lon="-8.4205177613">
        <ele>165.48</ele>
        <time>2020-08-15T10:15:02Z</time>
      </trkpt>
      <trkpt lat="42.7761276998" lon="-8.4207861498">
        <ele>166.45</ele>
        <time>2020-08-15T10:15:13Z</time>
      </trkpt>
      <trkpt lat="42.7760997880" lon="-8.4209382813">
        <ele>165.96</ele>
        <time>2020-08-15T10:15:20Z</time>
      </trkpt>
      <trkpt lat="42.7760238480" lon="-8.4212701209">
        <ele>166.93</ele>
        <time>2020-08-15T10:15:34Z</time>
      </trkpt>
      <trkpt lat="42.7759734727" lon="-8.4215198178">
        <ele>168.85</ele>
        <time>2020-08-15T10:15:44Z</time>
      </trkpt>
      <trkpt lat="42.7759251092" lon="-8.4217770584">
        <ele>170.77</ele>
        <time>2020-08-15T10:15:54Z</time>
      </trkpt>
      <trkpt lat="42.7758827806" lon="-8.4220132604">
        <ele>172.21</ele>
        <time>2020-08-15T10:16:04Z</time>
      </trkpt>
      <trkpt lat="42.7758350037" lon="-8.4223344550">
        <ele>174.62</ele>
        <time>2020-08-15T10:16:17Z</time>
      </trkpt>
      <trkpt lat="42.7757992968" lon="-8.4225879237">
        <ele>176.06</ele>
        <time>2020-08-15T10:16:27Z</time>
      </trkpt>
      <trkpt lat="42.7757860534" lon="-8.4228424821">
        <ele>177.50</ele>
        <time>2020-08-15T10:16:37Z</time>
      </trkpt>
      <trkpt lat="42.7757845446" lon="-8.4230519459">
        <ele>178.46</ele>
        <time>2020-08-15T10:16:46Z</time>
      </trkpt>
      <trkpt lat="42.7757861372" lon="-8.4233042412">
        <ele>179.90</ele>
        <time>2020-08-15T10:16:56Z</time>
      </trkpt>
      <trkpt lat="42.7758063376" lon="-8.4236378409">
        <ele>182.79</ele>
        <time>2020-08-15T10:17:09Z</time>
      </trkpt>
      <trkpt lat="42.7758421283" lon="-8.4238876216">
        <ele>184.23</ele>
        <time>2020-08-15T10:17:19Z</time>
      </trkpt>
      <trkpt lat="42.7758801822" lon="-8.4240860213">
        <ele>185.19</ele>
        <time>2020-08-15T10:17:27Z</time>
      </trkpt>
      <trkpt lat="42.7759587206" lon="-8.4243781306">
        <ele>186.15</ele>
        <time>2020-08-15T10:17:39Z</time>
      </trkpt>
      <trkpt lat="42.7760694455" lon="-8.4246357065">
        <ele>187.59</ele>
        <time>2020-08-15T10:17:51Z</time>
      </trkpt>
      <trkpt lat="42.7762425318" lon="-8.4246498719">
        <ele>187.59</ele>
        <time>2020-08-15T10:18:01Z</time>
      </trkpt>
      <trkpt lat="42.7762665879" lon="-8.4246327728">
        <ele>188.08</ele>
        <time>2020-08-15T10:18:07Z</time>
      </trkpt>
      <trkpt lat="42.7762656659" lon="-8.4246157575">
        <ele>186.63</ele>
        <time>2020-08-15T10:18:25Z</time>
      </trkpt>
      <trkpt lat="42.7762914822" lon="-8.4246457648">
        <ele>190.48</ele>
        <time>2020-08-15T10:18:53Z</time>
      </trkpt>
      <trkpt lat="42.7762901410" lon="-8.4246512130">
        <ele>190.00</ele>
        <time>2020-08-15T10:19:04Z</time>
      </trkpt>
      <trkpt lat="42.7762853634" lon="-8.4246692341">
        <ele>190.96</ele>
        <time>2020-08-15T10:19:22Z</time>
      </trkpt>
      <trkpt lat="42.7762888838" lon="-8.4246592596">
        <ele>190.00</ele>
        <time>2020-08-15T10:19:31Z</time>
      </trkpt>
      <trkpt lat="42.7762975171" lon="-8.4246677253">
        <ele>190.00</ele>
        <time>2020-08-15T10:19:39Z</time>
      </trkpt>
      <trkpt lat="42.7764080744" lon="-8.4246709943">
        <ele>190.48</ele>
        <time>2020-08-15T10:19:47Z</time>
      </trkpt>
      <trkpt lat="42.7764272690" lon="-8.4246684797">
        <ele>190.48</ele>
        <time>2020-08-15T10:19:48Z</time>
      </trkpt>
      <trkpt lat="42.7764454577" lon="-8.4246678930">
        <ele>190.96</ele>
        <time>2020-08-15T10:19:49Z</time>
      </trkpt>
      <trkpt lat="42.7766781393" lon="-8.4246517159">
        <ele>191.44</ele>
        <time>2020-08-15T10:20:00Z</time>
      </trkpt>
      <trkpt lat="42.7768444363" lon="-8.4246353712">
        <ele>191.92</ele>
        <time>2020-08-15T10:20:08Z</time>
      </trkpt>
      <trkpt lat="42.7770353761" lon="-8.4247081261">
        <ele>191.92</ele>
        <time>2020-08-15T10:20:16Z</time>
      </trkpt>
      <trkpt lat="42.7772467677" lon="-8.4249052685">
        <ele>191.44</ele>
        <time>2020-08-15T10:20:24Z</time>
      </trkpt>
      <trkpt lat="42.7774428204" lon="-8.4252538718">
        <ele>190.48</ele>
        <time>2020-08-15T10:20:34Z</time>
      </trkpt>
      <trkpt lat="42.7774832211" lon="-8.4255121183">
        <ele>190.96</ele>
        <time>2020-08-15T10:20:42Z</time>
      </trkpt>
      <trkpt lat="42.7774512861" lon="-8.4257789142">
        <ele>191.44</ele>
        <time>2020-08-15T10:20:50Z</time>
      </trkpt>
      <trkpt lat="42.7774452511" lon="-8.4260571934">
        <ele>192.88</ele>
        <time>2020-08-15T10:20:58Z</time>
      </trkpt>
      <trkpt lat="42.7774432395" lon="-8.4260746278">
        <ele>193.36</ele>
        <time>2020-08-15T10:20:59Z</time>
      </trkpt>
      <trkpt lat="42.7774304990" lon="-8.4260872845">
        <ele>193.36</ele>
        <time>2020-08-15T10:21:00Z</time>
      </trkpt>
      <trkpt lat="42.7774157468" lon="-8.4260817524">
        <ele>193.36</ele>
        <time>2020-08-15T10:21:01Z</time>
      </trkpt>
      <trkpt lat="42.7774097119" lon="-8.4260644857">
        <ele>193.36</ele>
        <time>2020-08-15T10:21:02Z</time>
      </trkpt>
      <trkpt lat="42.7774089575" lon="-8.4260235820">
        <ele>193.36</ele>
        <time>2020-08-15T10:21:03Z</time>
      </trkpt>
      <trkpt lat="42.7774151601" lon="-8.4259830974">
        <ele>192.88</ele>
        <time>2020-08-15T10:21:05Z</time>
      </trkpt>
      <trkpt lat="42.7774210274" lon="-8.4259134438">
        <ele>192.40</ele>
        <time>2020-08-15T10:21:06Z</time>
      </trkpt>
      <trkpt lat="42.7774444129" lon="-8.4255214222">
        <ele>190.48</ele>
        <time>2020-08-15T10:21:13Z</time>
      </trkpt>
      <trkpt lat="42.7775241248" lon="-8.4252975415">
        <ele>190.00</ele>
        <time>2020-08-15T10:21:18Z</time>
      </trkpt>
      <trkpt lat="42.7776814532" lon="-8.4252809454">
        <ele>189.52</ele>
        <time>2020-08-15T10:21:24Z</time>
      </trkpt>
      <trkpt lat="42.7778724767" lon="-8.4252164047">
        <ele>190.48</ele>
        <time>2020-08-15T10:21:32Z</time>
      </trkpt>
      <trkpt lat="42.7779954392" lon="-8.4250266384">
        <ele>192.40</ele>
        <time>2020-08-15T10:21:41Z</time>
      </trkpt>
      <trkpt lat="42.7779979538" lon="-8.4247880057">
        <ele>194.80</ele>
        <time>2020-08-15T10:21:51Z</time>
      </trkpt>
      <trkpt lat="42.7779728081" lon="-8.4245590959">
        <ele>197.21</ele>
        <time>2020-08-15T10:22:01Z</time>
      </trkpt>
      <trkpt lat="42.7779575530" lon="-8.4243829083">
        <ele>199.13</ele>
        <time>2020-08-15T10:22:11Z</time>
      </trkpt>
      <trkpt lat="42.7779453993" lon="-8.4242632985">
        <ele>200.57</ele>
        <time>2020-08-15T10:22:19Z</time>
      </trkpt>
      <trkpt lat="42.7779453155" lon="-8.4242507257">
        <ele>200.57</ele>
        <time>2020-08-15T10:22:20Z</time>
      </trkpt>
      <trkpt lat="42.7779441420" lon="-8.4242363926">
        <ele>201.05</ele>
        <time>2020-08-15T10:22:21Z</time>
      </trkpt>
      <trkpt lat="42.7779442258" lon="-8.4242208861">
        <ele>201.05</ele>
        <time>2020-08-15T10:22:22Z</time>
      </trkpt>
      <trkpt lat="42.7779468242" lon="-8.4242046252">
        <ele>201.05</ele>
        <time>2020-08-15T10:22:23Z</time>
      </trkpt>
      <trkpt lat="42.7779444773" lon="-8.4241877776">
        <ele>201.53</ele>
        <time>2020-08-15T10:22:24Z</time>
      </trkpt>
      <trkpt lat="42.7779404540" lon="-8.4241710976">
        <ele>201.53</ele>
        <time>2020-08-15T10:22:25Z</time>
      </trkpt>
      <trkpt lat="42.7779348381" lon="-8.4241554234">
        <ele>201.53</ele>
        <time>2020-08-15T10:22:26Z</time>
      </trkpt>
      <trkpt lat="42.7779304795" lon="-8.4241403360">
        <ele>202.01</ele>
        <time>2020-08-15T10:22:27Z</time>
      </trkpt>
      <trkpt lat="42.7779283002" lon="-8.4241223149">
        <ele>202.01</ele>
        <time>2020-08-15T10:22:28Z</time>
      </trkpt>
      <trkpt lat="42.7779283840" lon="-8.4241058864">
        <ele>202.01</ele>
        <time>2020-08-15T10:22:29Z</time>
      </trkpt>
      <trkpt lat="42.7779284678" lon="-8.4240869433">
        <ele>202.49</ele>
        <time>2020-08-15T10:22:30Z</time>
      </trkpt>
      <trkpt lat="42.7779277973" lon="-8.4240694251">
        <ele>202.49</ele>
        <time>2020-08-15T10:22:31Z</time>
      </trkpt>
      <trkpt lat="42.7779274620" lon="-8.4240491409">
        <ele>202.49</ele>
        <time>2020-08-15T10:22:32Z</time>
      </trkpt>
      <trkpt lat="42.7779261209" lon="-8.4240312036">
        <ele>202.98</ele>
        <time>2020-08-15T10:22:33Z</time>
      </trkpt>
      <trkpt lat="42.7779256180" lon="-8.4240136854">
        <ele>203.46</ele>
        <time>2020-08-15T10:22:34Z</time>
      </trkpt>
      <trkpt lat="42.7779249474" lon="-8.4239988495">
        <ele>203.46</ele>
        <time>2020-08-15T10:22:35Z</time>
      </trkpt>
      <trkpt lat="42.7779021487" lon="-8.4238386713">
        <ele>204.42</ele>
        <time>2020-08-15T10:22:44Z</time>
      </trkpt>
      <trkpt lat="42.7778896596" lon="-8.4236081690">
        <ele>205.86</ele>
        <time>2020-08-15T10:22:55Z</time>
      </trkpt>
      <trkpt lat="42.7778821997" lon="-8.4232935123">
        <ele>206.34</ele>
        <time>2020-08-15T10:23:08Z</time>
      </trkpt>
      <trkpt lat="42.7778849658" lon="-8.4230674524">
        <ele>207.30</ele>
        <time>2020-08-15T10:23:17Z</time>
      </trkpt>
      <trkpt lat="42.7779079322" lon="-8.4228181746">
        <ele>207.78</ele>
        <time>2020-08-15T10:23:27Z</time>
      </trkpt>
      <trkpt lat="42.7779043280" lon="-8.4227985609">
        <ele>208.26</ele>
        <time>2020-08-15T10:23:28Z</time>
      </trkpt>
      <trkpt lat="42.7779008076" lon="-8.4227865748">
        <ele>208.26</ele>
        <time>2020-08-15T10:23:34Z</time>
      </trkpt>
      <trkpt lat="42.7779076807" lon="-8.4227879997">
        <ele>208.74</ele>
        <time>2020-08-15T10:23:45Z</time>
      </trkpt>
      <trkpt lat="42.7779025678" lon="-8.4227983095">
        <ele>209.70</ele>
        <time>2020-08-15T10:24:09Z</time>
      </trkpt>
      <trkpt lat="42.7778971195" lon="-8.4227929451">
        <ele>208.26</ele>
        <time>2020-08-15T10:24:29Z</time>
      </trkpt>
      <trkpt lat="42.7779015619" lon="-8.4228040092">
        <ele>208.74</ele>
        <time>2020-08-15T10:24:48Z</time>
      </trkpt>
      <trkpt lat="42.7778929286" lon="-8.4227823839">
        <ele>209.70</ele>
        <time>2020-08-15T10:25:05Z</time>
      </trkpt>
      <trkpt lat="42.7778997179" lon="-8.4227766842">
        <ele>208.74</ele>
        <time>2020-08-15T10:25:27Z</time>
      </trkpt>
      <trkpt lat="42.7779038250" lon="-8.4227845632">
        <ele>207.78</ele>
        <time>2020-08-15T10:25:43Z</time>
      </trkpt>
      <trkpt lat="42.7779036574" lon="-8.4227747563">
        <ele>208.26</ele>
        <time>2020-08-15T10:26:00Z</time>
      </trkpt>
      <trkpt lat="42.7779072616" lon="-8.4227812104">
        <ele>208.26</ele>
        <time>2020-08-15T10:26:17Z</time>
      </trkpt>
      <trkpt lat="42.7779068425" lon="-8.4227865748">
        <ele>207.78</ele>
        <time>2020-08-15T10:26:35Z</time>
      </trkpt>
      <trkpt lat="42.7779122908" lon="-8.4227903467">
        <ele>207.30</ele>
        <time>2020-08-15T10:26:54Z</time>
      </trkpt>
      <trkpt lat="42.7779235225" lon="-8.4227806237">
        <ele>206.82</ele>
        <time>2020-08-15T10:27:11Z</time>
      </trkpt>
      <trkpt lat="42.7779259533" lon="-8.4227912687">
        <ele>209.22</ele>
        <time>2020-08-15T10:27:28Z</time>
      </trkpt>
      <trkpt lat="42.7779019810" lon="-8.4227890894">
        <ele>209.22</ele>
        <time>2020-08-15T10:27:45Z</time>
      </trkpt>
      <trkpt lat="42.7779052500" lon="-8.4227610100">
        <ele>210.19</ele>
        <time>2020-08-15T10:27:52Z</time>
      </trkpt>
      <trkpt lat="42.7779097762" lon="-8.4227494430">
        <ele>210.19</ele>
        <time>2020-08-15T10:27:53Z</time>
      </trkpt>
      <trkpt lat="42.7779163141" lon="-8.4227349423">
        <ele>210.19</ele>
        <time>2020-08-15T10:27:54Z</time>
      </trkpt>
      <trkpt lat="42.7779728081" lon="-8.4225367941">
        <ele>210.19</ele>
        <time>2020-08-15T10:28:03Z</time>
      </trkpt>
      <trkpt lat="42.7780152205" lon="-8.4223336168">
        <ele>212.11</ele>
        <time>2020-08-15T10:28:12Z</time>
      </trkpt>
      <trkpt lat="42.7780617401" lon="-8.4220896196">
        <ele>213.07</ele>
        <time>2020-08-15T10:28:22Z</time>
      </trkpt>
      <trkpt lat="42.7781396918" lon="-8.4218190517">
        <ele>213.55</ele>
        <time>2020-08-15T10:28:33Z</time>
      </trkpt>
      <trkpt lat="42.7782152127" lon="-8.4215789102">
        <ele>214.51</ele>
        <time>2020-08-15T10:28:44Z</time>
      </trkpt>
      <trkpt lat="42.7782593854" lon="-8.4214080870">
        <ele>215.95</ele>
        <time>2020-08-15T10:28:52Z</time>
      </trkpt>
      <trkpt lat="42.7783170529" lon="-8.4212380182">
        <ele>217.40</ele>
        <time>2020-08-15T10:29:01Z</time>
      </trkpt>
      <trkpt lat="42.7783537656" lon="-8.4210843779">
        <ele>218.84</ele>
        <time>2020-08-15T10:29:09Z</time>
      </trkpt>
      <trkpt lat="42.7784358244" lon="-8.4208935220">
        <ele>221.24</ele>
        <time>2020-08-15T10:29:20Z</time>
      </trkpt>
      <trkpt lat="42.7785297018" lon="-8.4207621776">
        <ele>222.68</ele>
        <time>2020-08-15T10:29:30Z</time>
      </trkpt>
      <trkpt lat="42.7786743734" lon="-8.4206408914">
        <ele>224.61</ele>
        <time>2020-08-15T10:29:41Z</time>
      </trkpt>
      <trkpt lat="42.7788259182" lon="-8.4205444157">
        <ele>226.53</ele>
        <time>2020-08-15T10:29:52Z</time>
      </trkpt>
      <trkpt lat="42.7789401636" lon="-8.4204854071">
        <ele>227.97</ele>
        <time>2020-08-15T10:30:00Z</time>
      </trkpt>
      <trkpt lat="42.7790261619" lon="-8.4204467665">
        <ele>229.89</ele>
        <time>2020-08-15T10:30:07Z</time>
      </trkpt>
      <trkpt lat="42.7790389024" lon="-8.4204432461">
        <ele>229.89</ele>
        <time>2020-08-15T10:30:08Z</time>
      </trkpt>
      <trkpt lat="42.7791446820" lon="-8.4203854110">
        <ele>231.81</ele>
        <time>2020-08-15T10:30:16Z</time>
      </trkpt>
      <trkpt lat="42.7792461030" lon="-8.4203207865">
        <ele>232.78</ele>
        <time>2020-08-15T10:30:23Z</time>
      </trkpt>
      <trkpt lat="42.7793618571" lon="-8.4202406555">
        <ele>235.66</ele>
        <time>2020-08-15T10:30:31Z</time>
      </trkpt>
      <trkpt lat="42.7795162518" lon="-8.4201689065">
        <ele>238.06</ele>
        <time>2020-08-15T10:30:41Z</time>
      </trkpt>
      <trkpt lat="42.7796501946" lon="-8.4201025218">
        <ele>238.06</ele>
        <time>2020-08-15T10:30:50Z</time>
      </trkpt>
      <trkpt lat="42.7797703911" lon="-8.4201057907">
        <ele>239.51</ele>
        <time>2020-08-15T10:30:58Z</time>
      </trkpt>
      <trkpt lat="42.7799036633" lon="-8.4201861732">
        <ele>239.99</ele>
        <time>2020-08-15T10:31:08Z</time>
      </trkpt>
      <trkpt lat="42.7800095268" lon="-8.4202710818">
        <ele>241.91</ele>
        <time>2020-08-15T10:31:17Z</time>
      </trkpt>
      <trkpt lat="42.7801026497" lon="-8.4203383047">
        <ele>244.31</ele>
        <time>2020-08-15T10:31:26Z</time>
      </trkpt>
      <trkpt lat="42.7801889833" lon="-8.4203919489">
        <ele>244.31</ele>
        <time>2020-08-15T10:31:35Z</time>
      </trkpt>
      <trkpt lat="42.7802808490" lon="-8.4204385523">
        <ele>246.23</ele>
        <time>2020-08-15T10:31:44Z</time>
      </trkpt>
      <trkpt lat="42.7803925797" lon="-8.4205174260">
        <ele>251.04</ele>
        <time>2020-08-15T10:31:56Z</time>
      </trkpt>
      <trkpt lat="42.7804883011" lon="-8.4205734171">
        <ele>253.93</ele>
        <time>2020-08-15T10:32:05Z</time>
      </trkpt>
      <trkpt lat="42.7805831004" lon="-8.4206281509">
        <ele>256.33</ele>
        <time>2020-08-15T10:32:14Z</time>
      </trkpt>
      <trkpt lat="42.7806930710" lon="-8.4207089525">
        <ele>256.33</ele>
        <time>2020-08-15T10:32:24Z</time>
      </trkpt>
      <trkpt lat="42.7807947434" lon="-8.4207836352">
        <ele>256.33</ele>
        <time>2020-08-15T10:32:33Z</time>
      </trkpt>
      <trkpt lat="42.7808724437" lon="-8.4208496008">
        <ele>257.29</ele>
        <time>2020-08-15T10:32:40Z</time>
      </trkpt>
      <trkpt lat="42.7808852680" lon="-8.4208559711">
        <ele>257.77</ele>
        <time>2020-08-15T10:32:41Z</time>
      </trkpt>
      <trkpt lat="42.7808972541" lon="-8.4208616707">
        <ele>258.25</ele>
        <time>2020-08-15T10:32:42Z</time>
      </trkpt>
      <trkpt lat="42.7809103299" lon="-8.4208684601">
        <ele>258.73</ele>
        <time>2020-08-15T10:32:43Z</time>
      </trkpt>
      <trkpt lat="42.7809223998" lon="-8.4208748303">
        <ele>258.73</ele>
        <time>2020-08-15T10:32:44Z</time>
      </trkpt>
      <trkpt lat="42.7809343860" lon="-8.4208831284">
        <ele>259.21</ele>
        <time>2020-08-15T10:32:45Z</time>
      </trkpt>
      <trkpt lat="42.7810620423" lon="-8.4209693782">
        <ele>260.17</ele>
        <time>2020-08-15T10:32:55Z</time>
      </trkpt>
      <trkpt lat="42.7812111564" lon="-8.4210652672">
        <ele>260.65</ele>
        <time>2020-08-15T10:33:05Z</time>
      </trkpt>
      <trkpt lat="42.7813568339" lon="-8.4211508464">
        <ele>259.69</ele>
        <time>2020-08-15T10:33:14Z</time>
      </trkpt>
      <trkpt lat="42.7815636992" lon="-8.4212830290">
        <ele>259.69</ele>
        <time>2020-08-15T10:33:27Z</time>
      </trkpt>
      <trkpt lat="42.7817290742" lon="-8.4214005433">
        <ele>260.17</ele>
        <time>2020-08-15T10:33:37Z</time>
      </trkpt>
      <trkpt lat="42.7819117159" lon="-8.4215095919">
        <ele>259.69</ele>
        <time>2020-08-15T10:33:44Z</time>
      </trkpt>
      <trkpt lat="42.7820928488" lon="-8.4216434509">
        <ele>260.65</ele>
        <time>2020-08-15T10:33:52Z</time>
      </trkpt>
      <trkpt lat="42.7822711319" lon="-8.4217645694">
        <ele>260.65</ele>
        <time>2020-08-15T10:34:00Z</time>
      </trkpt>
      <trkpt lat="42.7825168055" lon="-8.4219353087">
        <ele>260.17</ele>
        <time>2020-08-15T10:34:10Z</time>
      </trkpt>
      <trkpt lat="42.7827312145" lon="-8.4220768791">
        <ele>259.69</ele>
        <time>2020-08-15T10:34:19Z</time>
      </trkpt>
      <trkpt lat="42.7828810830" lon="-8.4221818205">
        <ele>259.21</ele>
        <time>2020-08-15T10:34:27Z</time>
      </trkpt>
      <trkpt lat="42.7831178717" lon="-8.4223514702">
        <ele>259.21</ele>
        <time>2020-08-15T10:34:37Z</time>
      </trkpt>
      <trkpt lat="42.7832849231" lon="-8.4224704932">
        <ele>260.17</ele>
        <time>2020-08-15T10:34:46Z</time>
      </trkpt>
      <trkpt lat="42.7834368870" lon="-8.4225906059">
        <ele>260.65</ele>
        <time>2020-08-15T10:34:55Z</time>
      </trkpt>
      <trkpt lat="42.7835648786" lon="-8.4227097128">
        <ele>262.58</ele>
        <time>2020-08-15T10:35:04Z</time>
      </trkpt>
      <trkpt lat="42.7836721670" lon="-8.4227970522">
        <ele>268.35</ele>
        <time>2020-08-15T10:35:13Z</time>
      </trkpt>
      <trkpt lat="42.7837610152" lon="-8.4228688013">
        <ele>273.15</ele>
        <time>2020-08-15T10:35:20Z</time>
      </trkpt>
      <trkpt lat="42.7838639449" lon="-8.4229550511">
        <ele>280.84</ele>
        <time>2020-08-15T10:35:28Z</time>
      </trkpt>
      <trkpt lat="42.7839648630" lon="-8.4230146464">
        <ele>287.09</ele>
        <time>2020-08-15T10:35:35Z</time>
      </trkpt>
      <trkpt lat="42.7840687148" lon="-8.4231028240">
        <ele>293.34</ele>
        <time>2020-08-15T10:35:42Z</time>
      </trkpt>
      <trkpt lat="42.7840849757" lon="-8.4231136367">
        <ele>294.30</ele>
        <time>2020-08-15T10:35:43Z</time>
      </trkpt>
      <trkpt lat="42.7842328325" lon="-8.4232490882">
        <ele>301.99</ele>
        <time>2020-08-15T10:35:53Z</time>
      </trkpt>
      <trkpt lat="42.7843122929" lon="-8.4232984576">
        <ele>304.88</ele>
        <time>2020-08-15T10:35:58Z</time>
      </trkpt>
      <trkpt lat="42.7844359260" lon="-8.4233822767">
        <ele>306.80</ele>
        <time>2020-08-15T10:36:08Z</time>
      </trkpt>
      <trkpt lat="42.7845347486" lon="-8.4234712087">
        <ele>305.36</ele>
        <time>2020-08-15T10:36:16Z</time>
      </trkpt>
      <trkpt lat="42.7846624050" lon="-8.4235876333">
        <ele>301.03</ele>
        <time>2020-08-15T10:36:26Z</time>
      </trkpt>
      <trkpt lat="42.7848169673" lon="-8.4236617293">
        <ele>293.34</ele>
        <time>2020-08-15T10:36:35Z</time>
      </trkpt>
      <trkpt lat="42.7849575318" lon="-8.4237536788">
        <ele>287.57</ele>
        <time>2020-08-15T10:36:45Z</time>
      </trkpt>
      <trkpt lat="42.7851016168" lon="-8.4238372464">
        <ele>282.77</ele>
        <time>2020-08-15T10:36:54Z</time>
      </trkpt>
      <trkpt lat="42.7852268424" lon="-8.4239422716">
        <ele>279.88</ele>
        <time>2020-08-15T10:37:03Z</time>
      </trkpt>
      <trkpt lat="42.7853686642" lon="-8.4240633063">
        <ele>278.44</ele>
        <time>2020-08-15T10:37:13Z</time>
      </trkpt>
      <trkpt lat="42.7854937222" lon="-8.4241614584">
        <ele>278.44</ele>
        <time>2020-08-15T10:37:22Z</time>
      </trkpt>
      <trkpt lat="42.7856272459" lon="-8.4242915455">
        <ele>278.44</ele>
        <time>2020-08-15T10:37:31Z</time>
      </trkpt>
      <trkpt lat="42.7857903577" lon="-8.4244427551">
        <ele>279.40</ele>
        <time>2020-08-15T10:37:41Z</time>
      </trkpt>
      <trkpt lat="42.7859401423" lon="-8.4245681483">
        <ele>280.36</ele>
        <time>2020-08-15T10:37:50Z</time>
      </trkpt>
      <trkpt lat="42.7860756777" lon="-8.4246843215">
        <ele>280.84</ele>
        <time>2020-08-15T10:37:58Z</time>
      </trkpt>
      <trkpt lat="42.7862356883" lon="-8.4248267300">
        <ele>282.28</ele>
        <time>2020-08-15T10:38:08Z</time>
      </trkpt>
      <trkpt lat="42.7863790188" lon="-8.4249585774">
        <ele>283.25</ele>
        <time>2020-08-15T10:38:17Z</time>
      </trkpt>
      <trkpt lat="42.7864808589" lon="-8.4250644408">
        <ele>288.05</ele>
        <time>2020-08-15T10:38:25Z</time>
      </trkpt>
      <trkpt lat="42.7866194118" lon="-8.4252051730">
        <ele>297.67</ele>
        <time>2020-08-15T10:38:35Z</time>
      </trkpt>
      <trkpt lat="42.7867297176" lon="-8.4253231902">
        <ele>301.51</ele>
        <time>2020-08-15T10:38:43Z</time>
      </trkpt>
      <trkpt lat="42.7868277021" lon="-8.4253974538">
        <ele>306.80</ele>
        <time>2020-08-15T10:38:51Z</time>
      </trkpt>
      <trkpt lat="42.7868458908" lon="-8.4254464880">
        <ele>309.68</ele>
        <time>2020-08-15T10:39:00Z</time>
      </trkpt>
      <trkpt lat="42.7868499979" lon="-8.4254764952">
        <ele>309.68</ele>
        <time>2020-08-15T10:39:17Z</time>
      </trkpt>
      <trkpt lat="42.7868524287" lon="-8.4255025629">
        <ele>309.68</ele>
        <time>2020-08-15T10:39:36Z</time>
      </trkpt>
      <trkpt lat="42.7868572902" lon="-8.4255128726">
        <ele>309.68</ele>
        <time>2020-08-15T10:39:56Z</time>
      </trkpt>
      <trkpt lat="42.7868748922" lon="-8.4255346656">
        <ele>309.68</ele>
        <time>2020-08-15T10:39:59Z</time>
      </trkpt>
      <trkpt lat="42.7868854534" lon="-8.4255504236">
        <ele>309.68</ele>
        <time>2020-08-15T10:40:00Z</time>
      </trkpt>
      <trkpt lat="42.7869038936" lon="-8.4255615715">
        <ele>309.20</ele>
        <time>2020-08-15T10:40:01Z</time>
      </trkpt>
      <trkpt lat="42.7869226690" lon="-8.4255749825">
        <ele>309.68</ele>
        <time>2020-08-15T10:40:02Z</time>
      </trkpt>
      <trkpt lat="42.7869407739" lon="-8.4255839512">
        <ele>309.68</ele>
        <time>2020-08-15T10:40:03Z</time>
      </trkpt>
      <trkpt lat="42.7869589627" lon="-8.4255947638">
        <ele>309.68</ele>
        <time>2020-08-15T10:40:04Z</time>
      </trkpt>
      <trkpt lat="42.7871338092" lon="-8.4257277846">
        <ele>313.05</ele>
        <time>2020-08-15T10:40:12Z</time>
      </trkpt>
      <trkpt lat="42.7872312907" lon="-8.4258586261">
        <ele>320.26</ele>
        <time>2020-08-15T10:40:20Z</time>
      </trkpt>
      <trkpt lat="42.7873434406" lon="-8.4260183852">
        <ele>331.31</ele>
        <time>2020-08-15T10:40:30Z</time>
      </trkpt>
      <trkpt lat="42.7874580212" lon="-8.4261757135">
        <ele>340.44</ele>
        <time>2020-08-15T10:40:39Z</time>
      </trkpt>
      <trkpt lat="42.7875546645" lon="-8.4262924735">
        <ele>346.69</ele>
        <time>2020-08-15T10:40:47Z</time>
      </trkpt>
      <trkpt lat="42.7876511402" lon="-8.4264124185">
        <ele>353.42</ele>
        <time>2020-08-15T10:40:55Z</time>
      </trkpt>
      <trkpt lat="42.7877689060" lon="-8.4265302680">
        <ele>361.11</ele>
        <time>2020-08-15T10:41:04Z</time>
      </trkpt>
      <trkpt lat="42.7879062854" lon="-8.4266471956">
        <ele>365.44</ele>
        <time>2020-08-15T10:41:13Z</time>
      </trkpt>
      <trkpt lat="42.7879973967" lon="-8.4267446771">
        <ele>362.07</ele>
        <time>2020-08-15T10:41:19Z</time>
      </trkpt>
      <trkpt lat="42.7881123126" lon="-8.4268152528">
        <ele>357.27</ele>
        <time>2020-08-15T10:41:26Z</time>
      </trkpt>
      <trkpt lat="42.7883007377" lon="-8.4268489480">
        <ele>342.85</ele>
        <time>2020-08-15T10:41:34Z</time>
      </trkpt>
      <trkpt lat="42.7883204352" lon="-8.4268606827">
        <ele>340.92</ele>
        <time>2020-08-15T10:41:35Z</time>
      </trkpt>
      <trkpt lat="42.7883604169" lon="-8.4268821403">
        <ele>338.04</ele>
        <time>2020-08-15T10:41:37Z</time>
      </trkpt>
      <trkpt lat="42.7884623408" lon="-8.4269683901">
        <ele>333.71</ele>
        <time>2020-08-15T10:41:43Z</time>
      </trkpt>
      <trkpt lat="42.7886567172" lon="-8.4270971362">
        <ele>328.91</ele>
        <time>2020-08-15T10:41:52Z</time>
      </trkpt>
      <trkpt lat="42.7887374349" lon="-8.4271826316">
        <ele>326.99</ele>
        <time>2020-08-15T10:41:56Z</time>
      </trkpt>
      <trkpt lat="42.7887597308" lon="-8.4272166621">
        <ele>325.54</ele>
        <time>2020-08-15T10:41:57Z</time>
      </trkpt>
      <trkpt lat="42.7887776680" lon="-8.4272501897">
        <ele>324.10</ele>
        <time>2020-08-15T10:41:58Z</time>
      </trkpt>
      <trkpt lat="42.7888884768" lon="-8.4275180753">
        <ele>318.81</ele>
        <time>2020-08-15T10:42:07Z</time>
      </trkpt>
      <trkpt lat="42.7889584657" lon="-8.4276637528">
        <ele>317.85</ele>
        <time>2020-08-15T10:42:14Z</time>
      </trkpt>
      <trkpt lat="42.7890734654" lon="-8.4278536029">
        <ele>321.22</ele>
        <time>2020-08-15T10:42:24Z</time>
      </trkpt>
      <trkpt lat="42.7891332284" lon="-8.4279634058">
        <ele>323.14</ele>
        <time>2020-08-15T10:42:30Z</time>
      </trkpt>
      <trkpt lat="42.7892498206" lon="-8.4280906431">
        <ele>326.02</ele>
        <time>2020-08-15T10:42:40Z</time>
      </trkpt>
      <trkpt lat="42.7893932350" lon="-8.4282037150">
        <ele>326.02</ele>
        <time>2020-08-15T10:42:47Z</time>
      </trkpt>
      <trkpt lat="42.7896657307" lon="-8.4283932298">
        <ele>318.33</ele>
        <time>2020-08-15T10:42:56Z</time>
      </trkpt>
      <trkpt lat="42.7898668125" lon="-8.4284198843">
        <ele>315.93</ele>
        <time>2020-08-15T10:43:03Z</time>
      </trkpt>
      <trkpt lat="42.7899880987" lon="-8.4284125920">
        <ele>313.53</ele>
        <time>2020-08-15T10:43:09Z</time>
      </trkpt>
      <trkpt lat="42.7901419904" lon="-8.4284621291">
        <ele>313.53</ele>
        <time>2020-08-15T10:43:17Z</time>
      </trkpt>
      <trkpt lat="42.7902484406" lon="-8.4285094868">
        <ele>314.97</ele>
        <time>2020-08-15T10:43:23Z</time>
      </trkpt>
      <trkpt lat="42.7903931960" lon="-8.4285652265">
        <ele>317.37</ele>
        <time>2020-08-15T10:43:30Z</time>
      </trkpt>
      <trkpt lat="42.7905043401" lon="-8.4286083095">
        <ele>320.26</ele>
        <time>2020-08-15T10:43:36Z</time>
      </trkpt>
      <trkpt lat="42.7906853892" lon="-8.4286749456">
        <ele>325.06</ele>
        <time>2020-08-15T10:43:45Z</time>
      </trkpt>
      <trkpt lat="42.7908216789" lon="-8.4287188668">
        <ele>326.50</ele>
        <time>2020-08-15T10:43:52Z</time>
      </trkpt>
      <trkpt lat="42.7909956034" lon="-8.4287440963">
        <ele>323.62</ele>
        <time>2020-08-15T10:44:00Z</time>
      </trkpt>
      <trkpt lat="42.7911623195" lon="-8.4287450183">
        <ele>317.85</ele>
        <time>2020-08-15T10:44:07Z</time>
      </trkpt>
      <trkpt lat="42.7913415246" lon="-8.4287957288">
        <ele>312.09</ele>
        <time>2020-08-15T10:44:15Z</time>
      </trkpt>
      <trkpt lat="42.7913753875" lon="-8.4288579226">
        <ele>310.16</ele>
        <time>2020-08-15T10:44:18Z</time>
      </trkpt>
      <trkpt lat="42.7913758066" lon="-8.4288847446">
        <ele>309.68</ele>
        <time>2020-08-15T10:44:19Z</time>
      </trkpt>
      <trkpt lat="42.7913710289" lon="-8.4289270733">
        <ele>308.72</ele>
        <time>2020-08-15T10:44:20Z</time>
      </trkpt>
      <trkpt lat="42.7913540974" lon="-8.4290259797">
        <ele>307.28</ele>
        <time>2020-08-15T10:44:22Z</time>
      </trkpt>
      <trkpt lat="42.7912674285" lon="-8.4294610843">
        <ele>299.59</ele>
        <time>2020-08-15T10:44:28Z</time>
      </trkpt>
      <trkpt lat="42.7911242656" lon="-8.4302488156">
        <ele>296.22</ele>
        <time>2020-08-15T10:44:39Z</time>
      </trkpt>
      <trkpt lat="42.7910603955" lon="-8.4306586906">
        <ele>294.30</ele>
        <time>2020-08-15T10:44:47Z</time>
      </trkpt>
      <trkpt lat="42.7909814380" lon="-8.4312554821">
        <ele>293.34</ele>
        <time>2020-08-15T10:44:59Z</time>
      </trkpt>
      <trkpt lat="42.7909491677" lon="-8.4315992240">
        <ele>292.86</ele>
        <time>2020-08-15T10:45:07Z</time>
      </trkpt>
      <trkpt lat="42.7909313980" lon="-8.4319640044">
        <ele>291.90</ele>
        <time>2020-08-15T10:45:16Z</time>
      </trkpt>
      <trkpt lat="42.7909205854" lon="-8.4322561976">
        <ele>289.97</ele>
        <time>2020-08-15T10:45:25Z</time>
      </trkpt>
      <trkpt lat="42.7909292188" lon="-8.4322795831">
        <ele>289.97</ele>
        <time>2020-08-15T10:45:31Z</time>
      </trkpt>
      <trkpt lat="42.7909311466" lon="-8.4322777390">
        <ele>290.94</ele>
        <time>2020-08-15T10:45:39Z</time>
      </trkpt>
      <trkpt lat="42.7909346670" lon="-8.4322730452">
        <ele>289.97</ele>
        <time>2020-08-15T10:45:58Z</time>
      </trkpt>
      <trkpt lat="42.7909415402" lon="-8.4322702792">
        <ele>288.53</ele>
        <time>2020-08-15T10:46:13Z</time>
      </trkpt>
      <trkpt lat="42.7909495868" lon="-8.4322800860">
        <ele>287.57</ele>
        <time>2020-08-15T10:46:27Z</time>
      </trkpt>
      <trkpt lat="42.7909490000" lon="-8.4322746377">
        <ele>287.57</ele>
        <time>2020-08-15T10:46:40Z</time>
      </trkpt>
      <trkpt lat="42.7909478266" lon="-8.4322835226">
        <ele>287.57</ele>
        <time>2020-08-15T10:46:54Z</time>
      </trkpt>
      <trkpt lat="42.7909532748" lon="-8.4322838578">
        <ele>286.13</ele>
        <time>2020-08-15T10:47:08Z</time>
      </trkpt>
      <trkpt lat="42.7909455635" lon="-8.4322862048">
        <ele>286.61</ele>
        <time>2020-08-15T10:47:21Z</time>
      </trkpt>
      <trkpt lat="42.7909428813" lon="-8.4322934970">
        <ele>287.09</ele>
        <time>2020-08-15T10:47:34Z</time>
      </trkpt>
      <trkpt lat="42.7909378521" lon="-8.4323010407">
        <ele>286.13</ele>
        <time>2020-08-15T10:47:49Z</time>
      </trkpt>
      <trkpt lat="42.7909319848" lon="-8.4323069919">
        <ele>286.61</ele>
        <time>2020-08-15T10:48:03Z</time>
      </trkpt>
      <trkpt lat="42.7909285482" lon="-8.4323100094">
        <ele>287.09</ele>
        <time>2020-08-15T10:48:16Z</time>
      </trkpt>
      <trkpt lat="42.7909281291" lon="-8.4323034715">
        <ele>288.05</ele>
        <time>2020-08-15T10:48:25Z</time>
      </trkpt>
      <trkpt lat="42.7909334097" lon="-8.4323225822">
        <ele>288.53</ele>
        <time>2020-08-15T10:48:37Z</time>
      </trkpt>
      <trkpt lat="42.7909611538" lon="-8.4324566089">
        <ele>289.49</ele>
        <time>2020-08-15T10:48:45Z</time>
      </trkpt>
      <trkpt lat="42.7909873892" lon="-8.4325254243">
        <ele>289.97</ele>
        <time>2020-08-15T10:48:50Z</time>
      </trkpt>
      <trkpt lat="42.7909894846" lon="-8.4325434454">
        <ele>289.97</ele>
        <time>2020-08-15T10:48:51Z</time>
      </trkpt>
      <trkpt lat="42.7909931727" lon="-8.4325626399">
        <ele>289.97</ele>
        <time>2020-08-15T10:48:52Z</time>
      </trkpt>
      <trkpt lat="42.7909956872" lon="-8.4325825889">
        <ele>289.97</ele>
        <time>2020-08-15T10:48:53Z</time>
      </trkpt>
      <trkpt lat="42.7910005488" lon="-8.4326074831">
        <ele>290.46</ele>
        <time>2020-08-15T10:48:54Z</time>
      </trkpt>
      <trkpt lat="42.7910052426" lon="-8.4326286055">
        <ele>290.46</ele>
        <time>2020-08-15T10:48:55Z</time>
      </trkpt>
      <trkpt lat="42.7910594735" lon="-8.4328175336">
        <ele>289.49</ele>
        <time>2020-08-15T10:49:02Z</time>
      </trkpt>
      <trkpt lat="42.7911872137" lon="-8.4332156740">
        <ele>289.01</ele>
        <time>2020-08-15T10:49:12Z</time>
      </trkpt>
      <trkpt lat="42.7912849467" lon="-8.4336174186">
        <ele>289.01</ele>
        <time>2020-08-15T10:49:22Z</time>
      </trkpt>
      <trkpt lat="42.7912941668" lon="-8.4338403773">
        <ele>289.97</ele>
        <time>2020-08-15T10:49:30Z</time>
      </trkpt>
      <trkpt lat="42.7913302090" lon="-8.4341345821">
        <ele>291.42</ele>
        <time>2020-08-15T10:49:39Z</time>
      </trkpt>
      <trkpt lat="42.7913483139" lon="-8.4343977738">
        <ele>292.38</ele>
        <time>2020-08-15T10:49:49Z</time>
      </trkpt>
      <trkpt lat="42.7913685981" lon="-8.4346999414">
        <ele>292.86</ele>
        <time>2020-08-15T10:49:59Z</time>
      </trkpt>
      <trkpt lat="42.7914291155" lon="-8.4350030310">
        <ele>293.82</ele>
        <time>2020-08-15T10:50:08Z</time>
      </trkpt>
      <trkpt lat="42.7914899681" lon="-8.4353531431">
        <ele>294.30</ele>
        <time>2020-08-15T10:50:18Z</time>
      </trkpt>
      <trkpt lat="42.7915343922" lon="-8.4356589150">
        <ele>295.74</ele>
        <time>2020-08-15T10:50:27Z</time>
      </trkpt>
      <trkpt lat="42.7916131821" lon="-8.4361106995">
        <ele>295.26</ele>
        <time>2020-08-15T10:50:39Z</time>
      </trkpt>
      <trkpt lat="42.7916844282" lon="-8.4364486579">
        <ele>294.78</ele>
        <time>2020-08-15T10:50:49Z</time>
      </trkpt>
      <trkpt lat="42.7917807363" lon="-8.4366996121">
        <ele>297.18</ele>
        <time>2020-08-15T10:50:59Z</time>
      </trkpt>
      <trkpt lat="42.7919177804" lon="-8.4369542543">
        <ele>299.59</ele>
        <time>2020-08-15T10:51:10Z</time>
      </trkpt>
      <trkpt lat="42.7920445986" lon="-8.4371809848">
        <ele>300.07</ele>
        <time>2020-08-15T10:51:20Z</time>
      </trkpt>
      <trkpt lat="42.7921797987" lon="-8.4373909514">
        <ele>300.07</ele>
        <time>2020-08-15T10:51:28Z</time>
      </trkpt>
      <trkpt lat="42.7923215367" lon="-8.4375748504">
        <ele>300.55</ele>
        <time>2020-08-15T10:51:36Z</time>
      </trkpt>
      <trkpt lat="42.7925725747" lon="-8.4377456736">
        <ele>301.99</ele>
        <time>2020-08-15T10:51:44Z</time>
      </trkpt>
      <trkpt lat="42.7927808650" lon="-8.4378833883">
        <ele>304.39</ele>
        <time>2020-08-15T10:51:52Z</time>
      </trkpt>
      <trkpt lat="42.7929487545" lon="-8.4379969630">
        <ele>306.80</ele>
        <time>2020-08-15T10:52:00Z</time>
      </trkpt>
      <trkpt lat="42.7931583859" lon="-8.4381012339">
        <ele>307.28</ele>
        <time>2020-08-15T10:52:08Z</time>
      </trkpt>
      <trkpt lat="42.7933375072" lon="-8.4381712228">
        <ele>305.84</ele>
        <time>2020-08-15T10:52:14Z</time>
      </trkpt>
      <trkpt lat="42.7935542632" lon="-8.4381801076">
        <ele>304.39</ele>
        <time>2020-08-15T10:52:23Z</time>
      </trkpt>
      <trkpt lat="42.7938078158" lon="-8.4381164890">
        <ele>302.95</ele>
        <time>2020-08-15T10:52:31Z</time>
      </trkpt>
      <trkpt lat="42.7940107416" lon="-8.4381089453">
        <ele>302.47</ele>
        <time>2020-08-15T10:52:39Z</time>
      </trkpt>
      <trkpt lat="42.7941733506" lon="-8.4382268786">
        <ele>301.51</ele>
        <time>2020-08-15T10:52:47Z</time>
      </trkpt>
      <trkpt lat="42.7942228876" lon="-8.4383069258">
        <ele>301.99</ele>
        <time>2020-08-15T10:52:50Z</time>
      </trkpt>
      <trkpt lat="42.7942328621" lon="-8.4383339155">
        <ele>301.99</ele>
        <time>2020-08-15T10:52:51Z</time>
      </trkpt>
      <trkpt lat="42.7942458540" lon="-8.4383600671">
        <ele>301.99</ele>
        <time>2020-08-15T10:52:52Z</time>
      </trkpt>
      <trkpt lat="42.7942609414" lon="-8.4383839555">
        <ele>302.47</ele>
        <time>2020-08-15T10:52:53Z</time>
      </trkpt>
      <trkpt lat="42.7942761127" lon="-8.4384038206">
        <ele>302.47</ele>
        <time>2020-08-15T10:52:54Z</time>
      </trkpt>
      <trkpt lat="42.7944007516" lon="-8.4385910723">
        <ele>302.95</ele>
        <time>2020-08-15T10:53:03Z</time>
      </trkpt>
      <trkpt lat="42.7944942936" lon="-8.4387313016">
        <ele>301.99</ele>
        <time>2020-08-15T10:53:11Z</time>
      </trkpt>
      <trkpt lat="42.7945797052" lon="-8.4389022086">
        <ele>301.51</ele>
        <time>2020-08-15T10:53:20Z</time>
      </trkpt>
      <trkpt lat="42.7946626861" lon="-8.4390709363">
        <ele>301.99</ele>
        <time>2020-08-15T10:53:28Z</time>
      </trkpt>
      <trkpt lat="42.7947864030" lon="-8.4391997661">
        <ele>302.47</ele>
        <time>2020-08-15T10:53:36Z</time>
      </trkpt>
      <trkpt lat="42.7949378639" lon="-8.4393287636">
        <ele>303.43</ele>
        <time>2020-08-15T10:53:45Z</time>
      </trkpt>
      <trkpt lat="42.7950663585" lon="-8.4394750278">
        <ele>304.39</ele>
        <time>2020-08-15T10:53:53Z</time>
      </trkpt>
      <trkpt lat="42.7951676119" lon="-8.4396413248">
        <ele>301.99</ele>
        <time>2020-08-15T10:54:01Z</time>
      </trkpt>
      <trkpt lat="42.7951809391" lon="-8.4396622796">
        <ele>301.99</ele>
        <time>2020-08-15T10:54:02Z</time>
      </trkpt>
      <trkpt lat="42.7952588908" lon="-8.4397603478">
        <ele>302.95</ele>
        <time>2020-08-15T10:54:08Z</time>
      </trkpt>
      <trkpt lat="42.7952725533" lon="-8.4397776984">
        <ele>303.43</ele>
        <time>2020-08-15T10:54:09Z</time>
      </trkpt>
      <trkpt lat="42.7952865511" lon="-8.4397971444">
        <ele>303.43</ele>
        <time>2020-08-15T10:54:10Z</time>
      </trkpt>
      <trkpt lat="42.7954303846" lon="-8.4398944583">
        <ele>305.84</ele>
        <time>2020-08-15T10:54:18Z</time>
      </trkpt>
      <trkpt lat="42.7957002819" lon="-8.4400164150">
        <ele>306.80</ele>
        <time>2020-08-15T10:54:28Z</time>
      </trkpt>
      <trkpt lat="42.7958895452" lon="-8.4400787763">
        <ele>306.32</ele>
        <time>2020-08-15T10:54:36Z</time>
      </trkpt>
      <trkpt lat="42.7960419282" lon="-8.4401523694">
        <ele>305.84</ele>
        <time>2020-08-15T10:54:44Z</time>
      </trkpt>
      <trkpt lat="42.7961871028" lon="-8.4402252082">
        <ele>305.84</ele>
        <time>2020-08-15T10:54:51Z</time>
      </trkpt>
      <trkpt lat="42.7962946426" lon="-8.4402763378">
        <ele>306.32</ele>
        <time>2020-08-15T10:54:56Z</time>
      </trkpt>
      <trkpt lat="42.7963160165" lon="-8.4402822051">
        <ele>306.32</ele>
        <time>2020-08-15T10:54:57Z</time>
      </trkpt>
      <trkpt lat="42.7964942157" lon="-8.4403537866">
        <ele>306.80</ele>
        <time>2020-08-15T10:55:05Z</time>
      </trkpt>
      <trkpt lat="42.7966681402" lon="-8.4404171538">
        <ele>306.32</ele>
        <time>2020-08-15T10:55:13Z</time>
      </trkpt>
      <trkpt lat="42.7968253847" lon="-8.4404812753">
        <ele>306.32</ele>
        <time>2020-08-15T10:55:21Z</time>
      </trkpt>
      <trkpt lat="42.7969507780" lon="-8.4405450616">
        <ele>305.36</ele>
        <time>2020-08-15T10:55:29Z</time>
      </trkpt>
      <trkpt lat="42.7970864810" lon="-8.4406634141">
        <ele>304.39</ele>
        <time>2020-08-15T10:55:38Z</time>
      </trkpt>
      <trkpt lat="42.7972156461" lon="-8.4408400208">
        <ele>303.43</ele>
        <time>2020-08-15T10:55:47Z</time>
      </trkpt>
      <trkpt lat="42.7973470744" lon="-8.4410429467">
        <ele>303.43</ele>
        <time>2020-08-15T10:55:57Z</time>
      </trkpt>
      <trkpt lat="42.7974978648" lon="-8.4412842616">
        <ele>303.43</ele>
        <time>2020-08-15T10:56:05Z</time>
      </trkpt>
      <trkpt lat="42.7976147924" lon="-8.4414600302">
        <ele>304.39</ele>
        <time>2020-08-15T10:56:12Z</time>
      </trkpt>
      <trkpt lat="42.7977375034" lon="-8.4416477848">
        <ele>305.84</ele>
        <time>2020-08-15T10:56:19Z</time>
      </trkpt>
      <trkpt lat="42.7978785709" lon="-8.4418753535">
        <ele>306.32</ele>
        <time>2020-08-15T10:56:27Z</time>
      </trkpt>
      <trkpt lat="42.7980104182" lon="-8.4420919418">
        <ele>305.84</ele>
        <time>2020-08-15T10:56:34Z</time>
      </trkpt>
      <trkpt lat="42.7981427684" lon="-8.4423791058">
        <ele>302.95</ele>
        <time>2020-08-15T10:56:41Z</time>
      </trkpt>
      <trkpt lat="42.7983262483" lon="-8.4427044913">
        <ele>300.07</ele>
        <time>2020-08-15T10:56:49Z</time>
      </trkpt>
      <trkpt lat="42.7984539885" lon="-8.4430221654">
        <ele>298.15</ele>
        <time>2020-08-15T10:56:56Z</time>
      </trkpt>
      <trkpt lat="42.7984675672" lon="-8.4432463814">
        <ele>296.70</ele>
        <time>2020-08-15T10:57:02Z</time>
      </trkpt>
      <trkpt lat="42.7984906174" lon="-8.4434818290">
        <ele>295.26</ele>
        <time>2020-08-15T10:57:09Z</time>
      </trkpt>
      <trkpt lat="42.7985276654" lon="-8.4437116608">
        <ele>296.70</ele>
        <time>2020-08-15T10:57:17Z</time>
      </trkpt>
      <trkpt lat="42.7985449322" lon="-8.4438311867">
        <ele>297.67</ele>
        <time>2020-08-15T10:57:22Z</time>
      </trkpt>
      <trkpt lat="42.7985509671" lon="-8.4438552428">
        <ele>297.67</ele>
        <time>2020-08-15T10:57:23Z</time>
      </trkpt>
      <trkpt lat="42.7985532302" lon="-8.4438786283">
        <ele>298.15</ele>
        <time>2020-08-15T10:57:24Z</time>
      </trkpt>
      <trkpt lat="42.7985557448" lon="-8.4439007565">
        <ele>298.63</ele>
        <time>2020-08-15T10:57:25Z</time>
      </trkpt>
      <trkpt lat="42.7985598519" lon="-8.4439202026">
        <ele>298.63</ele>
        <time>2020-08-15T10:57:26Z</time>
      </trkpt>
      <trkpt lat="42.7985659707" lon="-8.4439404029">
        <ele>298.63</ele>
        <time>2020-08-15T10:57:27Z</time>
      </trkpt>
      <trkpt lat="42.7986275777" lon="-8.4441653732">
        <ele>300.07</ele>
        <time>2020-08-15T10:57:36Z</time>
      </trkpt>
      <trkpt lat="42.7986641228" lon="-8.4443504456">
        <ele>300.07</ele>
        <time>2020-08-15T10:57:43Z</time>
      </trkpt>
      <trkpt lat="42.7986723371" lon="-8.4444591589">
        <ele>299.59</ele>
        <time>2020-08-15T10:57:49Z</time>
      </trkpt>
      <trkpt lat="42.7986886818" lon="-8.4444665350">
        <ele>298.63</ele>
        <time>2020-08-15T10:57:55Z</time>
      </trkpt>
      <trkpt lat="42.7986882627" lon="-8.4444728214">
        <ele>298.15</ele>
        <time>2020-08-15T10:58:10Z</time>
      </trkpt>
      <trkpt lat="42.7986922022" lon="-8.4444740787">
        <ele>298.15</ele>
        <time>2020-08-15T10:58:29Z</time>
      </trkpt>
      <trkpt lat="42.7987010870" lon="-8.4444801137">
        <ele>297.18</ele>
        <time>2020-08-15T10:58:46Z</time>
      </trkpt>
      <trkpt lat="42.7987018414" lon="-8.4444814548">
        <ele>296.22</ele>
        <time>2020-08-15T10:59:01Z</time>
      </trkpt>
      <trkpt lat="42.7986972313" lon="-8.4445087798">
        <ele>297.67</ele>
        <time>2020-08-15T10:59:25Z</time>
      </trkpt>
      <trkpt lat="42.7986898553" lon="-8.4445049241">
        <ele>298.63</ele>
        <time>2020-08-15T10:59:46Z</time>
      </trkpt>
      <trkpt lat="42.7986932918" lon="-8.4444823768">
        <ele>299.59</ele>
        <time>2020-08-15T11:00:04Z</time>
      </trkpt>
      <trkpt lat="42.7986871731" lon="-8.4444661997">
        <ele>296.70</ele>
        <time>2020-08-15T11:00:26Z</time>
      </trkpt>
      <trkpt lat="42.7986849938" lon="-8.4444638528">
        <ele>293.82</ele>
        <time>2020-08-15T11:00:51Z</time>
      </trkpt>
      <trkpt lat="42.7986859996" lon="-8.4444566444">
        <ele>294.78</ele>
        <time>2020-08-15T11:01:10Z</time>
      </trkpt>
      <trkpt lat="42.7986802161" lon="-8.4444867354">
        <ele>297.18</ele>
        <time>2020-08-15T11:01:37Z</time>
      </trkpt>
      <trkpt lat="42.7987085469" lon="-8.4444889985">
        <ele>295.74</ele>
        <time>2020-08-15T11:01:57Z</time>
      </trkpt>
      <trkpt lat="42.7987056132" lon="-8.4444791079">
        <ele>294.30</ele>
        <time>2020-08-15T11:02:19Z</time>
      </trkpt>
      <trkpt lat="42.7986932080" lon="-8.4444731567">
        <ele>293.82</ele>
        <time>2020-08-15T11:02:39Z</time>
      </trkpt>
      <trkpt lat="42.7986916155" lon="-8.4444529563">
        <ele>297.67</ele>
        <time>2020-08-15T11:03:04Z</time>
      </trkpt>
      <trkpt lat="42.7986865025" lon="-8.4444518667">
        <ele>298.15</ele>
        <time>2020-08-15T11:03:21Z</time>
      </trkpt>
      <trkpt lat="42.7986945491" lon="-8.4444713965">
        <ele>296.22</ele>
        <time>2020-08-15T11:03:39Z</time>
      </trkpt>
      <trkpt lat="42.7986981533" lon="-8.4444790240">
        <ele>296.22</ele>
        <time>2020-08-15T11:03:55Z</time>
      </trkpt>
      <trkpt lat="42.7986992430" lon="-8.4444975480">
        <ele>294.78</ele>
        <time>2020-08-15T11:04:11Z</time>
      </trkpt>
      <trkpt lat="42.7986818086" lon="-8.4444621764">
        <ele>296.22</ele>
        <time>2020-08-15T11:04:33Z</time>
      </trkpt>
      <trkpt lat="42.7986723371" lon="-8.4444514476">
        <ele>297.18</ele>
        <time>2020-08-15T11:04:51Z</time>
      </trkpt>
      <trkpt lat="42.7986702416" lon="-8.4444874898">
        <ele>297.67</ele>
        <time>2020-08-15T11:05:13Z</time>
      </trkpt>
      <trkpt lat="42.7986750193" lon="-8.4444796108">
        <ele>298.15</ele>
        <time>2020-08-15T11:05:27Z</time>
      </trkpt>
      <trkpt lat="42.7986534778" lon="-8.4444612544">
        <ele>301.03</ele>
        <time>2020-08-15T11:05:44Z</time>
      </trkpt>
      <trkpt lat="42.7986813057" lon="-8.4444747493">
        <ele>299.59</ele>
        <time>2020-08-15T11:06:07Z</time>
      </trkpt>
      <trkpt lat="42.7986862510" lon="-8.4445010684">
        <ele>296.22</ele>
        <time>2020-08-15T11:06:23Z</time>
      </trkpt>
      <trkpt lat="42.7986751869" lon="-8.4444983862">
        <ele>295.26</ele>
        <time>2020-08-15T11:06:39Z</time>
      </trkpt>
      <trkpt lat="42.7986846585" lon="-8.4444881603">
        <ele>295.74</ele>
        <time>2020-08-15T11:06:56Z</time>
      </trkpt>
      <trkpt lat="42.7986807190" lon="-8.4444906749">
        <ele>296.22</ele>
        <time>2020-08-15T11:07:19Z</time>
      </trkpt>
      <trkpt lat="42.7986884303" lon="-8.4444766771">
        <ele>298.63</ele>
        <time>2020-08-15T11:07:42Z</time>
      </trkpt>
      <trkpt lat="42.7986778691" lon="-8.4444927704">
        <ele>300.55</ele>
        <time>2020-08-15T11:08:01Z</time>
      </trkpt>
      <trkpt lat="42.7986713313" lon="-8.4444732405">
        <ele>300.07</ele>
        <time>2020-08-15T11:08:14Z</time>
      </trkpt>
      <trkpt lat="42.7986979019" lon="-8.4444787726">
        <ele>300.07</ele>
        <time>2020-08-15T11:08:30Z</time>
      </trkpt>
      <trkpt lat="42.7986978181" lon="-8.4444732405">
        <ele>299.59</ele>
        <time>2020-08-15T11:08:45Z</time>
      </trkpt>
      <trkpt lat="42.7987163421" lon="-8.4445420559">
        <ele>300.07</ele>
        <time>2020-08-15T11:08:50Z</time>
      </trkpt>
      <trkpt lat="42.7987191919" lon="-8.4445621725">
        <ele>299.59</ele>
        <time>2020-08-15T11:08:51Z</time>
      </trkpt>
      <trkpt lat="42.7987213712" lon="-8.4445816185">
        <ele>299.59</ele>
        <time>2020-08-15T11:08:52Z</time>
      </trkpt>
      <trkpt lat="42.7987220418" lon="-8.4446004778">
        <ele>299.59</ele>
        <time>2020-08-15T11:08:53Z</time>
      </trkpt>
      <trkpt lat="42.7987230476" lon="-8.4446184989">
        <ele>299.59</ele>
        <time>2020-08-15T11:08:54Z</time>
      </trkpt>
      <trkpt lat="42.7987346984" lon="-8.4447622485">
        <ele>300.07</ele>
        <time>2020-08-15T11:09:03Z</time>
      </trkpt>
      <trkpt lat="42.7987558208" lon="-8.4449222591">
        <ele>301.03</ele>
        <time>2020-08-15T11:09:14Z</time>
      </trkpt>
      <trkpt lat="42.7987720817" lon="-8.4450741392">
        <ele>302.95</ele>
        <time>2020-08-15T11:09:23Z</time>
      </trkpt>
      <trkpt lat="42.7987849899" lon="-8.4451846126">
        <ele>303.91</ele>
        <time>2020-08-15T11:09:32Z</time>
      </trkpt>
      <trkpt lat="42.7987921145" lon="-8.4451950900">
        <ele>304.39</ele>
        <time>2020-08-15T11:09:39Z</time>
      </trkpt>
      <trkpt lat="42.7988105547" lon="-8.4453593753">
        <ele>304.88</ele>
        <time>2020-08-15T11:09:47Z</time>
      </trkpt>
      <trkpt lat="42.7988073695" lon="-8.4455008619">
        <ele>303.91</ele>
        <time>2020-08-15T11:09:54Z</time>
      </trkpt>
      <trkpt lat="42.7988165058" lon="-8.4456707630">
        <ele>302.95</ele>
        <time>2020-08-15T11:10:03Z</time>
      </trkpt>
      <trkpt lat="42.7988287434" lon="-8.4458632953">
        <ele>302.95</ele>
        <time>2020-08-15T11:10:12Z</time>
      </trkpt>
      <trkpt lat="42.7988414839" lon="-8.4460291732">
        <ele>301.99</ele>
        <time>2020-08-15T11:10:21Z</time>
      </trkpt>
      <trkpt lat="42.7988463454" lon="-8.4462381341">
        <ele>302.95</ele>
        <time>2020-08-15T11:10:31Z</time>
      </trkpt>
      <trkpt lat="42.7988530509" lon="-8.4464025032">
        <ele>303.91</ele>
        <time>2020-08-15T11:10:39Z</time>
      </trkpt>
      <trkpt lat="42.7988642827" lon="-8.4466465004">
        <ele>305.84</ele>
        <time>2020-08-15T11:10:48Z</time>
      </trkpt>
      <trkpt lat="42.7988473512" lon="-8.4468026552">
        <ele>306.80</ele>
        <time>2020-08-15T11:10:55Z</time>
      </trkpt>
      <trkpt lat="42.7988261450" lon="-8.4469428007">
        <ele>307.76</ele>
        <time>2020-08-15T11:11:02Z</time>
      </trkpt>
      <trkpt lat="42.7987450920" lon="-8.4471443016">
        <ele>308.72</ele>
        <time>2020-08-15T11:11:11Z</time>
      </trkpt>
      <trkpt lat="42.7986626141" lon="-8.4473222494">
        <ele>309.68</ele>
        <time>2020-08-15T11:11:19Z</time>
      </trkpt>
      <trkpt lat="42.7985683177" lon="-8.4475257620">
        <ele>311.12</ele>
        <time>2020-08-15T11:11:28Z</time>
      </trkpt>
      <trkpt lat="42.7985184453" lon="-8.4477177076">
        <ele>312.09</ele>
        <time>2020-08-15T11:11:36Z</time>
      </trkpt>
      <trkpt lat="42.7985063754" lon="-8.4477441106">
        <ele>312.57</ele>
        <time>2020-08-15T11:11:38Z</time>
      </trkpt>
      <trkpt lat="42.7984959818" lon="-8.4477511514">
        <ele>312.57</ele>
        <time>2020-08-15T11:11:39Z</time>
      </trkpt>
      <trkpt lat="42.7984917071" lon="-8.4477504808">
        <ele>312.57</ele>
        <time>2020-08-15T11:11:45Z</time>
      </trkpt>
      <trkpt lat="42.7984919585" lon="-8.4477674961">
        <ele>313.05</ele>
        <time>2020-08-15T11:11:54Z</time>
      </trkpt>
      <trkpt lat="42.7985031065" lon="-8.4477758780">
        <ele>312.09</ele>
        <time>2020-08-15T11:12:05Z</time>
      </trkpt>
      <trkpt lat="42.7984890249" lon="-8.4478048794">
        <ele>311.12</ele>
        <time>2020-08-15T11:12:09Z</time>
      </trkpt>
      <trkpt lat="42.7984814811" lon="-8.4478192125">
        <ele>311.12</ele>
        <time>2020-08-15T11:12:10Z</time>
      </trkpt>
      <trkpt lat="42.7984717581" lon="-8.4478346352">
        <ele>311.12</ele>
        <time>2020-08-15T11:12:11Z</time>
      </trkpt>
      <trkpt lat="42.7983820718" lon="-8.4480137564">
        <ele>310.64</ele>
        <time>2020-08-15T11:12:18Z</time>
      </trkpt>
      <trkpt lat="42.7983751986" lon="-8.4481010120">
        <ele>313.53</ele>
        <time>2020-08-15T11:12:22Z</time>
      </trkpt>
      <trkpt lat="42.7983711753" lon="-8.4481238946">
        <ele>314.01</ele>
        <time>2020-08-15T11:12:23Z</time>
      </trkpt>
      <trkpt lat="42.7983683255" lon="-8.4481493756">
        <ele>314.49</ele>
        <time>2020-08-15T11:12:24Z</time>
      </trkpt>
      <trkpt lat="42.7983669005" lon="-8.4481723420">
        <ele>314.49</ele>
        <time>2020-08-15T11:12:25Z</time>
      </trkpt>
      <trkpt lat="42.7983661462" lon="-8.4481946379">
        <ele>314.49</ele>
        <time>2020-08-15T11:12:26Z</time>
      </trkpt>
      <trkpt lat="42.7983632125" lon="-8.4482423309">
        <ele>314.97</ele>
        <time>2020-08-15T11:12:28Z</time>
      </trkpt>
      <trkpt lat="42.7983464487" lon="-8.4484704025">
        <ele>314.97</ele>
        <time>2020-08-15T11:12:36Z</time>
      </trkpt>
      <trkpt lat="42.7983621228" lon="-8.4487085324">
        <ele>314.01</ele>
        <time>2020-08-15T11:12:43Z</time>
      </trkpt>
      <trkpt lat="42.7984028589" lon="-8.4489089437">
        <ele>314.49</ele>
        <time>2020-08-15T11:12:49Z</time>
      </trkpt>
      <trkpt lat="42.7984600235" lon="-8.4491664357">
        <ele>314.49</ele>
        <time>2020-08-15T11:12:56Z</time>
      </trkpt>
      <trkpt lat="42.7984964009" lon="-8.4494157974">
        <ele>316.41</ele>
        <time>2020-08-15T11:13:03Z</time>
      </trkpt>
      <trkpt lat="42.7985216305" lon="-8.4496466350">
        <ele>316.41</ele>
        <time>2020-08-15T11:13:11Z</time>
      </trkpt>
      <trkpt lat="42.7985870931" lon="-8.4498462081">
        <ele>317.37</ele>
        <time>2020-08-15T11:13:20Z</time>
      </trkpt>
      <trkpt lat="42.7986450121" lon="-8.4499963280">
        <ele>318.81</ele>
        <time>2020-08-15T11:13:28Z</time>
      </trkpt>
      <trkpt lat="42.7986925375" lon="-8.4501614515">
        <ele>320.26</ele>
        <time>2020-08-15T11:13:36Z</time>
      </trkpt>
      <trkpt lat="42.7987689804" lon="-8.4503842425">
        <ele>323.14</ele>
        <time>2020-08-15T11:13:45Z</time>
      </trkpt>
      <trkpt lat="42.7988300845" lon="-8.4505304229">
        <ele>325.06</ele>
        <time>2020-08-15T11:13:52Z</time>
      </trkpt>
      <trkpt lat="42.7989293262" lon="-8.4507742524">
        <ele>326.50</ele>
        <time>2020-08-15T11:14:02Z</time>
      </trkpt>
      <trkpt lat="42.7990163304" lon="-8.4509252943">
        <ele>327.47</ele>
        <time>2020-08-15T11:14:10Z</time>
      </trkpt>
      <trkpt lat="42.7990922704" lon="-8.4510357678">
        <ele>328.91</ele>
        <time>2020-08-15T11:14:17Z</time>
      </trkpt>
      <trkpt lat="42.7991654444" lon="-8.4511572216">
        <ele>330.83</ele>
        <time>2020-08-15T11:14:26Z</time>
      </trkpt>
      <trkpt lat="42.7991700545" lon="-8.4511698782">
        <ele>330.83</ele>
        <time>2020-08-15T11:14:27Z</time>
      </trkpt>
      <trkpt lat="42.7992382832" lon="-8.4512878954">
        <ele>330.35</ele>
        <time>2020-08-15T11:14:35Z</time>
      </trkpt>
      <trkpt lat="42.7993019018" lon="-8.4514617361">
        <ele>328.91</ele>
        <time>2020-08-15T11:14:43Z</time>
      </trkpt>
      <trkpt lat="42.7994156443" lon="-8.4516366664">
        <ele>330.35</ele>
        <time>2020-08-15T11:14:52Z</time>
      </trkpt>
      <trkpt lat="42.7995617408" lon="-8.4518114291">
        <ele>333.71</ele>
        <time>2020-08-15T11:15:02Z</time>
      </trkpt>
      <trkpt lat="42.7996842843" lon="-8.4519618843">
        <ele>333.71</ele>
        <time>2020-08-15T11:15:09Z</time>
      </trkpt>
      <trkpt lat="42.7998768166" lon="-8.4522172809">
        <ele>332.27</ele>
        <time>2020-08-15T11:15:19Z</time>
      </trkpt>
      <trkpt lat="42.8000668343" lon="-8.4524730965">
        <ele>331.31</ele>
        <time>2020-08-15T11:15:29Z</time>
      </trkpt>
      <trkpt lat="42.8002511524" lon="-8.4527041856">
        <ele>330.35</ele>
        <time>2020-08-15T11:15:39Z</time>
      </trkpt>
      <trkpt lat="42.8003718518" lon="-8.4528476000">
        <ele>327.95</ele>
        <time>2020-08-15T11:15:46Z</time>
      </trkpt>
      <trkpt lat="42.8004969098" lon="-8.4529900923">
        <ele>327.95</ele>
        <time>2020-08-15T11:15:53Z</time>
      </trkpt>
      <trkpt lat="42.8006756119" lon="-8.4532423876">
        <ele>327.95</ele>
        <time>2020-08-15T11:16:03Z</time>
      </trkpt>
      <trkpt lat="42.8008341137" lon="-8.4534791764">
        <ele>331.31</ele>
        <time>2020-08-15T11:16:13Z</time>
      </trkpt>
      <trkpt lat="42.8008543141" lon="-8.4535237681">
        <ele>330.83</ele>
        <time>2020-08-15T11:16:15Z</time>
      </trkpt>
      <trkpt lat="42.8008598462" lon="-8.4535406996">
        <ele>330.83</ele>
        <time>2020-08-15T11:16:16Z</time>
      </trkpt>
      <trkpt lat="42.8008708265" lon="-8.4535498358">
        <ele>330.83</ele>
        <time>2020-08-15T11:16:17Z</time>
      </trkpt>
      <trkpt lat="42.8008943796" lon="-8.4535643365">
        <ele>330.83</ele>
        <time>2020-08-15T11:16:23Z</time>
      </trkpt>
      <trkpt lat="42.8009007499" lon="-8.4535726346">
        <ele>330.35</ele>
        <time>2020-08-15T11:16:31Z</time>
      </trkpt>
      <trkpt lat="42.8009012528" lon="-8.4536049888">
        <ele>328.91</ele>
        <time>2020-08-15T11:16:59Z</time>
      </trkpt>
      <trkpt lat="42.8008945473" lon="-8.4536132030">
        <ele>326.50</ele>
        <time>2020-08-15T11:17:20Z</time>
      </trkpt>
      <trkpt lat="42.8009171784" lon="-8.4535831120">
        <ele>326.99</ele>
        <time>2020-08-15T11:17:50Z</time>
      </trkpt>
      <trkpt lat="42.8009165078" lon="-8.4535613190">
        <ele>327.95</ele>
        <time>2020-08-15T11:18:19Z</time>
      </trkpt>
      <trkpt lat="42.8009213693" lon="-8.4535875544">
        <ele>330.35</ele>
        <time>2020-08-15T11:18:41Z</time>
      </trkpt>
      <trkpt lat="42.8009234648" lon="-8.4535842855">
        <ele>328.43</ele>
        <time>2020-08-15T11:19:12Z</time>
      </trkpt>
      <trkpt lat="42.8009155858" lon="-8.4535754006">
        <ele>327.47</ele>
        <time>2020-08-15T11:19:27Z</time>
      </trkpt>
      <trkpt lat="42.8009026777" lon="-8.4535811841">
        <ele>329.39</ele>
        <time>2020-08-15T11:19:55Z</time>
      </trkpt>
      <trkpt lat="42.8009133227" lon="-8.4535645042">
        <ele>330.35</ele>
        <time>2020-08-15T11:20:18Z</time>
      </trkpt>
      <trkpt lat="42.8009229619" lon="-8.4535847884">
        <ele>330.35</ele>
        <time>2020-08-15T11:20:22Z</time>
      </trkpt>
      <trkpt lat="42.8009320982" lon="-8.4535982832">
        <ele>330.35</ele>
        <time>2020-08-15T11:20:23Z</time>
      </trkpt>
      <trkpt lat="42.8010553960" lon="-8.4537618142">
        <ele>329.39</ele>
        <time>2020-08-15T11:20:30Z</time>
      </trkpt>
      <trkpt lat="42.8012708947" lon="-8.4540032968">
        <ele>329.39</ele>
        <time>2020-08-15T11:20:40Z</time>
      </trkpt>
      <trkpt lat="42.8014589846" lon="-8.4542207234">
        <ele>328.91</ele>
        <time>2020-08-15T11:20:49Z</time>
      </trkpt>
      <trkpt lat="42.8015556280" lon="-8.4543560911">
        <ele>329.39</ele>
        <time>2020-08-15T11:20:56Z</time>
      </trkpt>
      <trkpt lat="42.8015961964" lon="-8.4546059556">
        <ele>328.91</ele>
        <time>2020-08-15T11:21:02Z</time>
      </trkpt>
      <trkpt lat="42.8016269580" lon="-8.4549700655">
        <ele>328.43</ele>
        <time>2020-08-15T11:21:09Z</time>
      </trkpt>
      <trkpt lat="42.8016452305" lon="-8.4555428848">
        <ele>327.47</ele>
        <time>2020-08-15T11:21:18Z</time>
      </trkpt>
      <trkpt lat="42.8016703762" lon="-8.4560848586">
        <ele>326.02</ele>
        <time>2020-08-15T11:21:26Z</time>
      </trkpt>
      <trkpt lat="42.8016971983" lon="-8.4569887631">
        <ele>320.26</ele>
        <time>2020-08-15T11:21:38Z</time>
      </trkpt>
      <trkpt lat="42.8017273732" lon="-8.4577141330">
        <ele>313.53</ele>
        <time>2020-08-15T11:21:48Z</time>
      </trkpt>
      <trkpt lat="42.8017333243" lon="-8.4577645920">
        <ele>313.05</ele>
        <time>2020-08-15T11:21:49Z</time>
      </trkpt>
      <trkpt lat="42.8017427120" lon="-8.4580126964">
        <ele>310.64</ele>
        <time>2020-08-15T11:21:55Z</time>
      </trkpt>
      <trkpt lat="42.8017507587" lon="-8.4581737965">
        <ele>309.20</ele>
        <time>2020-08-15T11:22:01Z</time>
      </trkpt>
      <trkpt lat="42.8017431311" lon="-8.4581726231">
        <ele>308.72</ele>
        <time>2020-08-15T11:22:17Z</time>
      </trkpt>
      <trkpt lat="42.8017487470" lon="-8.4581629839">
        <ele>309.68</ele>
        <time>2020-08-15T11:22:41Z</time>
      </trkpt>
      <trkpt lat="42.8017470706" lon="-8.4582092520">
        <ele>309.20</ele>
        <time>2020-08-15T11:23:01Z</time>
      </trkpt>
      <trkpt lat="42.8017315641" lon="-8.4584533330">
        <ele>307.28</ele>
        <time>2020-08-15T11:23:06Z</time>
      </trkpt>
      <trkpt lat="42.8016365133" lon="-8.4590883460">
        <ele>302.95</ele>
        <time>2020-08-15T11:23:14Z</time>
      </trkpt>
      <trkpt lat="42.8014850523" lon="-8.4600151330">
        <ele>298.15</ele>
        <time>2020-08-15T11:23:24Z</time>
      </trkpt>
      <trkpt lat="42.8013345134" lon="-8.4608447738">
        <ele>294.30</ele>
        <time>2020-08-15T11:23:34Z</time>
      </trkpt>
      <trkpt lat="42.8012958728" lon="-8.4609856736">
        <ele>293.34</ele>
        <time>2020-08-15T11:23:39Z</time>
      </trkpt>
      <trkpt lat="42.8012865689" lon="-8.4610000905">
        <ele>292.86</ele>
        <time>2020-08-15T11:23:45Z</time>
      </trkpt>
      <trkpt lat="42.8012853954" lon="-8.4610075504">
        <ele>294.30</ele>
        <time>2020-08-15T11:23:54Z</time>
      </trkpt>
      <trkpt lat="42.8012863174" lon="-8.4609821532">
        <ele>295.74</ele>
        <time>2020-08-15T11:24:16Z</time>
      </trkpt>
      <trkpt lat="42.8012908436" lon="-8.4609785490">
        <ele>295.74</ele>
        <time>2020-08-15T11:24:45Z</time>
      </trkpt>
      <trkpt lat="42.8012962919" lon="-8.4609930497">
        <ele>295.26</ele>
        <time>2020-08-15T11:25:17Z</time>
      </trkpt>
      <trkpt lat="42.8012959566" lon="-8.4609874338">
        <ele>293.34</ele>
        <time>2020-08-15T11:25:51Z</time>
      </trkpt>
      <trkpt lat="42.8012875747" lon="-8.4609948099">
        <ele>294.30</ele>
        <time>2020-08-15T11:26:25Z</time>
      </trkpt>
      <trkpt lat="42.8012806177" lon="-8.4610078018">
        <ele>293.82</ele>
        <time>2020-08-15T11:26:57Z</time>
      </trkpt>
      <trkpt lat="42.8012705594" lon="-8.4610011801">
        <ele>293.34</ele>
        <time>2020-08-15T11:27:25Z</time>
      </trkpt>
      <trkpt lat="42.8012836352" lon="-8.4610069636">
        <ele>294.30</ele>
        <time>2020-08-15T11:27:51Z</time>
      </trkpt>
      <trkpt lat="42.8013117146" lon="-8.4610113222">
        <ele>295.74</ele>
        <time>2020-08-15T11:28:21Z</time>
      </trkpt>
      <trkpt lat="42.8013087809" lon="-8.4610034432">
        <ele>293.82</ele>
        <time>2020-08-15T11:28:51Z</time>
      </trkpt>
      <trkpt lat="42.8012947831" lon="-8.4610094782">
        <ele>294.78</ele>
        <time>2020-08-15T11:29:19Z</time>
      </trkpt>
      <trkpt lat="42.8012884967" lon="-8.4610096458">
        <ele>296.22</ele>
        <time>2020-08-15T11:29:42Z</time>
      </trkpt>
      <trkpt lat="42.8012883291" lon="-8.4610151779">
        <ele>294.30</ele>
        <time>2020-08-15T11:30:11Z</time>
      </trkpt>
      <trkpt lat="42.8012780193" lon="-8.4610392340">
        <ele>290.94</ele>
        <time>2020-08-15T11:30:38Z</time>
      </trkpt>
      <trkpt lat="42.8012719005" lon="-8.4610173572">
        <ele>291.90</ele>
        <time>2020-08-15T11:31:01Z</time>
      </trkpt>
      <trkpt lat="42.8012662847" lon="-8.4610042814">
        <ele>293.82</ele>
        <time>2020-08-15T11:31:22Z</time>
      </trkpt>
      <trkpt lat="42.8012709785" lon="-8.4610005934">
        <ele>295.26</ele>
        <time>2020-08-15T11:31:47Z</time>
      </trkpt>
      <trkpt lat="42.8012784384" lon="-8.4609995876">
        <ele>294.30</ele>
        <time>2020-08-15T11:32:04Z</time>
      </trkpt>
      <trkpt lat="42.8012837190" lon="-8.4610043652">
        <ele>292.86</ele>
        <time>2020-08-15T11:32:34Z</time>
      </trkpt>
      <trkpt lat="42.8012858983" lon="-8.4610072151">
        <ele>293.34</ele>
        <time>2020-08-15T11:32:54Z</time>
      </trkpt>
      <trkpt lat="42.8012961242" lon="-8.4610279184">
        <ele>294.30</ele>
        <time>2020-08-15T11:33:04Z</time>
      </trkpt>
      <trkpt lat="42.8013071045" lon="-8.4610434249">
        <ele>294.30</ele>
        <time>2020-08-15T11:33:05Z</time>
      </trkpt>
      <trkpt lat="42.8013135586" lon="-8.4610602725">
        <ele>294.78</ele>
        <time>2020-08-15T11:33:06Z</time>
      </trkpt>
      <trkpt lat="42.8013158217" lon="-8.4610776231">
        <ele>294.78</ele>
        <time>2020-08-15T11:33:07Z</time>
      </trkpt>
      <trkpt lat="42.8013106249" lon="-8.4610970691">
        <ele>295.26</ele>
        <time>2020-08-15T11:33:14Z</time>
      </trkpt>
      <trkpt lat="42.8013006505" lon="-8.4611676447">
        <ele>294.78</ele>
        <time>2020-08-15T11:33:22Z</time>
      </trkpt>
      <trkpt lat="42.8012724034" lon="-8.4614020865">
        <ele>294.30</ele>
        <time>2020-08-15T11:33:29Z</time>
      </trkpt>
      <trkpt lat="42.8012169991" lon="-8.4618106205">
        <ele>293.34</ele>
        <time>2020-08-15T11:33:39Z</time>
      </trkpt>
      <trkpt lat="42.8012066055" lon="-8.4619749058">
        <ele>292.86</ele>
        <time>2020-08-15T11:33:45Z</time>
      </trkpt>
      <trkpt lat="42.8011719044" lon="-8.4621501714">
        <ele>292.38</ele>
        <time>2020-08-15T11:33:51Z</time>
      </trkpt>
      <trkpt lat="42.8011030890" lon="-8.4624542668">
        <ele>291.42</ele>
        <time>2020-08-15T11:33:58Z</time>
      </trkpt>
      <trkpt lat="42.8010017518" lon="-8.4627651516">
        <ele>290.46</ele>
        <time>2020-08-15T11:34:05Z</time>
      </trkpt>
      <trkpt lat="42.8008284140" lon="-8.4632733464">
        <ele>289.01</ele>
        <time>2020-08-15T11:34:14Z</time>
      </trkpt>
      <trkpt lat="42.8006501310" lon="-8.4637505282">
        <ele>288.53</ele>
        <time>2020-08-15T11:34:22Z</time>
      </trkpt>
      <trkpt lat="42.8005283419" lon="-8.4641183261">
        <ele>289.01</ele>
        <time>2020-08-15T11:34:30Z</time>
      </trkpt>
      <trkpt lat="42.8005466983" lon="-8.4642608184">
        <ele>288.53</ele>
        <time>2020-08-15T11:34:33Z</time>
      </trkpt>
      <trkpt lat="42.8005640488" lon="-8.4643080086">
        <ele>288.53</ele>
        <time>2020-08-15T11:34:34Z</time>
      </trkpt>
      <trkpt lat="42.8005976602" lon="-8.4643607307">
        <ele>288.05</ele>
        <time>2020-08-15T11:34:35Z</time>
      </trkpt>
      <trkpt lat="42.8006327804" lon="-8.4644006286">
        <ele>287.57</ele>
        <time>2020-08-15T11:34:36Z</time>
      </trkpt>
      <trkpt lat="42.8006545734" lon="-8.4644235112">
        <ele>287.09</ele>
        <time>2020-08-15T11:34:37Z</time>
      </trkpt>
      <trkpt lat="42.8010121454" lon="-8.4647625592">
        <ele>283.73</ele>
        <time>2020-08-15T11:34:47Z</time>
      </trkpt>
      <trkpt lat="42.8013576474" lon="-8.4650360607">
        <ele>279.88</ele>
        <time>2020-08-15T11:34:56Z</time>
      </trkpt>
      <trkpt lat="42.8017348330" lon="-8.4652347118">
        <ele>274.59</ele>
        <time>2020-08-15T11:35:04Z</time>
      </trkpt>
      <trkpt lat="42.8019541875" lon="-8.4653306846">
        <ele>271.71</ele>
        <time>2020-08-15T11:35:10Z</time>
      </trkpt>
      <trkpt lat="42.8022548463" lon="-8.4654679801">
        <ele>268.83</ele>
        <time>2020-08-15T11:35:18Z</time>
      </trkpt>
      <trkpt lat="42.8023696784" lon="-8.4655367956">
        <ele>268.83</ele>
        <time>2020-08-15T11:35:24Z</time>
      </trkpt>
      <trkpt lat="42.8024872765" lon="-8.4655921999">
        <ele>266.90</ele>
        <time>2020-08-15T11:35:29Z</time>
      </trkpt>
      <trkpt lat="42.8026398271" lon="-8.4656513762">
        <ele>265.94</ele>
        <time>2020-08-15T11:35:35Z</time>
      </trkpt>
      <trkpt lat="42.8026306909" lon="-8.4656479396">
        <ele>265.94</ele>
        <time>2020-08-15T11:35:51Z</time>
      </trkpt>
      <trkpt lat="42.8026733547" lon="-8.4656725824">
        <ele>265.94</ele>
        <time>2020-08-15T11:35:59Z</time>
      </trkpt>
      <trkpt lat="42.8028419986" lon="-8.4657724109">
        <ele>265.46</ele>
        <time>2020-08-15T11:36:08Z</time>
      </trkpt>
      <trkpt lat="42.8030415718" lon="-8.4659562260">
        <ele>263.54</ele>
        <time>2020-08-15T11:36:16Z</time>
      </trkpt>
      <trkpt lat="42.8031417355" lon="-8.4660615865">
        <ele>262.10</ele>
        <time>2020-08-15T11:36:19Z</time>
      </trkpt>
      <trkpt lat="42.8033616766" lon="-8.4662255365">
        <ele>260.17</ele>
        <time>2020-08-15T11:36:26Z</time>
      </trkpt>
      <trkpt lat="42.8036117926" lon="-8.4663225990">
        <ele>257.77</ele>
        <time>2020-08-15T11:36:33Z</time>
      </trkpt>
      <trkpt lat="42.8038949333" lon="-8.4663739800">
        <ele>255.37</ele>
        <time>2020-08-15T11:36:41Z</time>
      </trkpt>
      <trkpt lat="42.8040318936" lon="-8.4663740639">
        <ele>253.93</ele>
        <time>2020-08-15T11:36:48Z</time>
      </trkpt>
      <trkpt lat="42.8040484898" lon="-8.4663486667">
        <ele>253.44</ele>
        <time>2020-08-15T11:36:49Z</time>
      </trkpt>
      <trkpt lat="42.8040575422" lon="-8.4663297236">
        <ele>253.44</ele>
        <time>2020-08-15T11:36:50Z</time>
      </trkpt>
      <trkpt lat="42.8040685225" lon="-8.4662962798">
        <ele>253.44</ele>
        <time>2020-08-15T11:36:51Z</time>
      </trkpt>
      <trkpt lat="42.8040778264" lon="-8.4662615787">
        <ele>252.96</ele>
        <time>2020-08-15T11:36:52Z</time>
      </trkpt>
      <trkpt lat="42.8041958436" lon="-8.4659253806">
        <ele>249.60</ele>
        <time>2020-08-15T11:37:00Z</time>
      </trkpt>
      <trkpt lat="42.8042243421" lon="-8.4658923559">
        <ele>249.12</ele>
        <time>2020-08-15T11:37:01Z</time>
      </trkpt>
      <trkpt lat="42.8042615578" lon="-8.4658649471">
        <ele>248.64</ele>
        <time>2020-08-15T11:37:02Z</time>
      </trkpt>
      <trkpt lat="42.8043106757" lon="-8.4658413101">
        <ele>247.68</ele>
        <time>2020-08-15T11:37:03Z</time>
      </trkpt>
      <trkpt lat="42.8043632302" lon="-8.4658256359">
        <ele>247.20</ele>
        <time>2020-08-15T11:37:04Z</time>
      </trkpt>
      <trkpt lat="42.8044182993" lon="-8.4658159968">
        <ele>246.23</ele>
        <time>2020-08-15T11:37:05Z</time>
      </trkpt>
      <trkpt lat="42.8044812474" lon="-8.4658104647">
        <ele>245.75</ele>
        <time>2020-08-15T11:37:06Z</time>
      </trkpt>
      <trkpt lat="42.8049342055" lon="-8.4657900129">
        <ele>242.39</ele>
        <time>2020-08-15T11:37:12Z</time>
      </trkpt>
      <trkpt lat="42.8051387239" lon="-8.4657643642">
        <ele>241.43</ele>
        <time>2020-08-15T11:37:15Z</time>
      </trkpt>
      <trkpt lat="42.8051975649" lon="-8.4657431580">
        <ele>240.95</ele>
        <time>2020-08-15T11:37:16Z</time>
      </trkpt>
      <trkpt lat="42.8052477725" lon="-8.4657154139">
        <ele>240.95</ele>
        <time>2020-08-15T11:37:17Z</time>
      </trkpt>
      <trkpt lat="42.8052954655" lon="-8.4656808805">
        <ele>240.95</ele>
        <time>2020-08-15T11:37:18Z</time>
      </trkpt>
      <trkpt lat="42.8053397220" lon="-8.4656446707">
        <ele>240.95</ele>
        <time>2020-08-15T11:37:19Z</time>
      </trkpt>
      <trkpt lat="42.8054988105" lon="-8.4654762782">
        <ele>241.91</ele>
        <time>2020-08-15T11:37:25Z</time>
      </trkpt>
      <trkpt lat="42.8056902532" lon="-8.4652756993">
        <ele>241.91</ele>
        <time>2020-08-15T11:37:32Z</time>
      </trkpt>
      <trkpt lat="42.8059324063" lon="-8.4650564287">
        <ele>240.95</ele>
        <time>2020-08-15T11:37:38Z</time>
      </trkpt>
      <trkpt lat="42.8062150441" lon="-8.4647892974">
        <ele>238.54</ele>
        <time>2020-08-15T11:37:46Z</time>
      </trkpt>
      <trkpt lat="42.8062573727" lon="-8.4647634812">
        <ele>238.54</ele>
        <time>2020-08-15T11:37:47Z</time>
      </trkpt>
      <trkpt lat="42.8062996175" lon="-8.4647466335">
        <ele>238.06</ele>
        <time>2020-08-15T11:37:48Z</time>
      </trkpt>
      <trkpt lat="42.8063468914" lon="-8.4647348151">
        <ele>238.06</ele>
        <time>2020-08-15T11:37:49Z</time>
      </trkpt>
      <trkpt lat="42.8063964285" lon="-8.4647297021">
        <ele>238.06</ele>
        <time>2020-08-15T11:37:50Z</time>
      </trkpt>
      <trkpt lat="42.8064431995" lon="-8.4647288639">
        <ele>238.06</ele>
        <time>2020-08-15T11:37:51Z</time>
      </trkpt>
      <trkpt lat="42.8064908925" lon="-8.4647339769">
        <ele>237.58</ele>
        <time>2020-08-15T11:37:52Z</time>
      </trkpt>
      <trkpt lat="42.8065338079" lon="-8.4647429455">
        <ele>237.58</ele>
        <time>2020-08-15T11:37:53Z</time>
      </trkpt>
      <trkpt lat="42.8065785673" lon="-8.4647560213">
        <ele>237.58</ele>
        <time>2020-08-15T11:37:54Z</time>
      </trkpt>
      <trkpt lat="42.8069246560" lon="-8.4648837615">
        <ele>237.58</ele>
        <time>2020-08-15T11:38:03Z</time>
      </trkpt>
      <trkpt lat="42.8073994070" lon="-8.4650382400">
        <ele>238.06</ele>
        <time>2020-08-15T11:38:15Z</time>
      </trkpt>
      <trkpt lat="42.8076412249" lon="-8.4651284292">
        <ele>239.51</ele>
        <time>2020-08-15T11:38:22Z</time>
      </trkpt>
      <trkpt lat="42.8079340886" lon="-8.4652202111">
        <ele>239.02</ele>
        <time>2020-08-15T11:38:31Z</time>
      </trkpt>
      <trkpt lat="42.8082009684" lon="-8.4652719274">
        <ele>239.99</ele>
        <time>2020-08-15T11:38:40Z</time>
      </trkpt>
      <trkpt lat="42.8083520103" lon="-8.4652963188">
        <ele>240.47</ele>
        <time>2020-08-15T11:38:47Z</time>
      </trkpt>
      <trkpt lat="42.8085101768" lon="-8.4655139130">
        <ele>239.02</ele>
        <time>2020-08-15T11:38:55Z</time>
      </trkpt>
      <trkpt lat="42.8086570278" lon="-8.4656411503">
        <ele>239.51</ele>
        <time>2020-08-15T11:39:02Z</time>
      </trkpt>
      <trkpt lat="42.8088883683" lon="-8.4655480273">
        <ele>240.95</ele>
        <time>2020-08-15T11:39:11Z</time>
      </trkpt>
      <trkpt lat="42.8091636300" lon="-8.4654630348">
        <ele>242.39</ele>
        <time>2020-08-15T11:39:21Z</time>
      </trkpt>
      <trkpt lat="42.8094156738" lon="-8.4654066246">
        <ele>243.35</ele>
        <time>2020-08-15T11:39:31Z</time>
      </trkpt>
      <trkpt lat="42.8095829766" lon="-8.4653206263">
        <ele>245.75</ele>
        <time>2020-08-15T11:39:40Z</time>
      </trkpt>
      <trkpt lat="42.8097077832" lon="-8.4652026929">
        <ele>247.20</ele>
        <time>2020-08-15T11:39:49Z</time>
      </trkpt>
      <trkpt lat="42.8098250460" lon="-8.4651034512">
        <ele>249.12</ele>
        <time>2020-08-15T11:39:57Z</time>
      </trkpt>
      <trkpt lat="42.8099666163" lon="-8.4649357293">
        <ele>250.56</ele>
        <time>2020-08-15T11:40:08Z</time>
      </trkpt>
      <trkpt lat="42.8099879064" lon="-8.4649099968">
        <ele>251.04</ele>
        <time>2020-08-15T11:40:10Z</time>
      </trkpt>
      <trkpt lat="42.8099983837" lon="-8.4649008606">
        <ele>251.04</ele>
        <time>2020-08-15T11:40:11Z</time>
      </trkpt>
      <trkpt lat="42.8100106213" lon="-8.4648883715">
        <ele>251.04</ele>
        <time>2020-08-15T11:40:12Z</time>
      </trkpt>
      <trkpt lat="42.8100214340" lon="-8.4648779780">
        <ele>251.04</ele>
        <time>2020-08-15T11:40:13Z</time>
      </trkpt>
      <trkpt lat="42.8100325819" lon="-8.4648659918">
        <ele>251.52</ele>
        <time>2020-08-15T11:40:14Z</time>
      </trkpt>
      <trkpt lat="42.8100410476" lon="-8.4648529999">
        <ele>251.52</ele>
        <time>2020-08-15T11:40:15Z</time>
      </trkpt>
      <trkpt lat="42.8100482561" lon="-8.4648413491">
        <ele>252.00</ele>
        <time>2020-08-15T11:40:16Z</time>
      </trkpt>
      <trkpt lat="42.8101234417" lon="-8.4647657443">
        <ele>252.96</ele>
        <time>2020-08-15T11:40:23Z</time>
      </trkpt>
      <trkpt lat="42.8101289738" lon="-8.4647489805">
        <ele>252.96</ele>
        <time>2020-08-15T11:40:24Z</time>
      </trkpt>
      <trkpt lat="42.8101361822" lon="-8.4647343960">
        <ele>252.96</ele>
        <time>2020-08-15T11:40:25Z</time>
      </trkpt>
      <trkpt lat="42.8101447318" lon="-8.4647250082">
        <ele>252.96</ele>
        <time>2020-08-15T11:40:26Z</time>
      </trkpt>
      <trkpt lat="42.8101550415" lon="-8.4647148661">
        <ele>252.96</ele>
        <time>2020-08-15T11:40:27Z</time>
      </trkpt>
      <trkpt lat="42.8101918381" lon="-8.4646610543">
        <ele>253.93</ele>
        <time>2020-08-15T11:40:31Z</time>
      </trkpt>
      <trkpt lat="42.8102789260" lon="-8.4646057338">
        <ele>253.93</ele>
        <time>2020-08-15T11:40:38Z</time>
      </trkpt>
      <trkpt lat="42.8103059158" lon="-8.4646210726">
        <ele>253.93</ele>
        <time>2020-08-15T11:40:39Z</time>
      </trkpt>
      <trkpt lat="42.8103266191" lon="-8.4646389261">
        <ele>253.44</ele>
        <time>2020-08-15T11:40:40Z</time>
      </trkpt>
      <trkpt lat="42.8106142022" lon="-8.4649016149">
        <ele>248.16</ele>
        <time>2020-08-15T11:40:49Z</time>
      </trkpt>
      <trkpt lat="42.8109712712" lon="-8.4652399924">
        <ele>242.87</ele>
        <time>2020-08-15T11:40:58Z</time>
      </trkpt>
      <trkpt lat="42.8112783004" lon="-8.4655118175">
        <ele>238.54</ele>
        <time>2020-08-15T11:41:05Z</time>
      </trkpt>
      <trkpt lat="42.8113699146" lon="-8.4655953851">
        <ele>237.58</ele>
        <time>2020-08-15T11:41:07Z</time>
      </trkpt>
      <trkpt lat="42.8114114888" lon="-8.4656486940">
        <ele>237.10</ele>
        <time>2020-08-15T11:41:08Z</time>
      </trkpt>
      <trkpt lat="42.8114492912" lon="-8.4657104686">
        <ele>236.14</ele>
        <time>2020-08-15T11:41:09Z</time>
      </trkpt>
      <trkpt lat="42.8114808910" lon="-8.4657774400">
        <ele>235.66</ele>
        <time>2020-08-15T11:41:10Z</time>
      </trkpt>
      <trkpt lat="42.8115104791" lon="-8.4658488538">
        <ele>234.70</ele>
        <time>2020-08-15T11:41:11Z</time>
      </trkpt>
      <trkpt lat="42.8117890935" lon="-8.4666261915">
        <ele>232.78</ele>
        <time>2020-08-15T11:41:20Z</time>
      </trkpt>
      <trkpt lat="42.8119311668" lon="-8.4670362342">
        <ele>232.30</ele>
        <time>2020-08-15T11:41:27Z</time>
      </trkpt>
      <trkpt lat="42.8120099567" lon="-8.4672529902">
        <ele>233.26</ele>
        <time>2020-08-15T11:41:34Z</time>
      </trkpt>
      <trkpt lat="42.8121001460" lon="-8.4675157629">
        <ele>233.74</ele>
        <time>2020-08-15T11:41:41Z</time>
      </trkpt>
      <trkpt lat="42.8122526966" lon="-8.4679128975">
        <ele>233.26</ele>
        <time>2020-08-15T11:41:51Z</time>
      </trkpt>
      <trkpt lat="42.8124194127" lon="-8.4683574736">
        <ele>232.78</ele>
        <time>2020-08-15T11:42:02Z</time>
      </trkpt>
      <trkpt lat="42.8125665151" lon="-8.4687656723">
        <ele>233.74</ele>
        <time>2020-08-15T11:42:12Z</time>
      </trkpt>
      <trkpt lat="42.8126599733" lon="-8.4690171294">
        <ele>234.70</ele>
        <time>2020-08-15T11:42:20Z</time>
      </trkpt>
      <trkpt lat="42.8127959277" lon="-8.4693621285">
        <ele>236.14</ele>
        <time>2020-08-15T11:42:30Z</time>
      </trkpt>
      <trkpt lat="42.8129141964" lon="-8.4695596900">
        <ele>236.62</ele>
        <time>2020-08-15T11:42:38Z</time>
      </trkpt>
      <trkpt lat="42.8130504861" lon="-8.4697601851">
        <ele>237.58</ele>
        <time>2020-08-15T11:42:47Z</time>
      </trkpt>
      <trkpt lat="42.8131902963" lon="-8.4699314274">
        <ele>239.99</ele>
        <time>2020-08-15T11:42:56Z</time>
      </trkpt>
      <trkpt lat="42.8133173659" lon="-8.4700991493">
        <ele>240.95</ele>
        <time>2020-08-15T11:43:05Z</time>
      </trkpt>
      <trkpt lat="42.8134361375" lon="-8.4702311642">
        <ele>242.39</ele>
        <time>2020-08-15T11:43:12Z</time>
      </trkpt>
      <trkpt lat="42.8135718405" lon="-8.4703304898">
        <ele>245.75</ele>
        <time>2020-08-15T11:43:20Z</time>
      </trkpt>
      <trkpt lat="42.8136706632" lon="-8.4704302344">
        <ele>245.27</ele>
        <time>2020-08-15T11:43:29Z</time>
      </trkpt>
      <trkpt lat="42.8136844933" lon="-8.4704578109">
        <ele>245.27</ele>
        <time>2020-08-15T11:43:41Z</time>
      </trkpt>
      <trkpt lat="42.8138226271" lon="-8.4705746546">
        <ele>243.83</ele>
        <time>2020-08-15T11:43:46Z</time>
      </trkpt>
      <trkpt lat="42.8141623456" lon="-8.4708565380">
        <ele>241.91</ele>
        <time>2020-08-15T11:43:54Z</time>
      </trkpt>
      <trkpt lat="42.8146013897" lon="-8.4712285269">
        <ele>234.22</ele>
        <time>2020-08-15T11:44:03Z</time>
      </trkpt>
      <trkpt lat="42.8146976978" lon="-8.4712886252">
        <ele>232.78</ele>
        <time>2020-08-15T11:44:05Z</time>
      </trkpt>
      <trkpt lat="42.8147463966" lon="-8.4713074844">
        <ele>232.30</ele>
        <time>2020-08-15T11:44:06Z</time>
      </trkpt>
      <trkpt lat="42.8148017172" lon="-8.4713224042">
        <ele>231.33</ele>
        <time>2020-08-15T11:44:07Z</time>
      </trkpt>
      <trkpt lat="42.8148581274" lon="-8.4713300318">
        <ele>230.85</ele>
        <time>2020-08-15T11:44:08Z</time>
      </trkpt>
      <trkpt lat="42.8149203211" lon="-8.4713343903">
        <ele>229.89</ele>
        <time>2020-08-15T11:44:09Z</time>
      </trkpt>
      <trkpt lat="42.8150420263" lon="-8.4713451192">
        <ele>228.45</ele>
        <time>2020-08-15T11:44:11Z</time>
      </trkpt>
      <trkpt lat="42.8150984365" lon="-8.4713660739">
        <ele>227.49</ele>
        <time>2020-08-15T11:44:12Z</time>
      </trkpt>
      <trkpt lat="42.8151548468" lon="-8.4714023676">
        <ele>227.01</ele>
        <time>2020-08-15T11:44:13Z</time>
      </trkpt>
      <trkpt lat="42.8151988517" lon="-8.4714489710">
        <ele>226.53</ele>
        <time>2020-08-15T11:44:14Z</time>
      </trkpt>
      <trkpt lat="42.8152381629" lon="-8.4715076443">
        <ele>226.05</ele>
        <time>2020-08-15T11:44:15Z</time>
      </trkpt>
      <trkpt lat="42.8152725287" lon="-8.4715765435">
        <ele>225.57</ele>
        <time>2020-08-15T11:44:16Z</time>
      </trkpt>
      <trkpt lat="42.8153038770" lon="-8.4716447722">
        <ele>225.09</ele>
        <time>2020-08-15T11:44:17Z</time>
      </trkpt>
      <trkpt lat="42.8154909611" lon="-8.4722013306">
        <ele>222.20</ele>
        <time>2020-08-15T11:44:24Z</time>
      </trkpt>
      <trkpt lat="42.8155628778" lon="-8.4726874810">
        <ele>218.84</ele>
        <time>2020-08-15T11:44:30Z</time>
      </trkpt>
      <trkpt lat="42.8155698348" lon="-8.4727595653">
        <ele>218.36</ele>
        <time>2020-08-15T11:44:31Z</time>
      </trkpt>
      <trkpt lat="42.8155800607" lon="-8.4730793349">
        <ele>216.91</ele>
        <time>2020-08-15T11:44:37Z</time>
      </trkpt>
      <trkpt lat="42.8156173602" lon="-8.4733696841">
        <ele>214.99</ele>
        <time>2020-08-15T11:44:43Z</time>
      </trkpt>
      <trkpt lat="42.8157200385" lon="-8.4738726821">
        <ele>212.59</ele>
        <time>2020-08-15T11:44:51Z</time>
      </trkpt>
      <trkpt lat="42.8157930449" lon="-8.4741506260">
        <ele>212.11</ele>
        <time>2020-08-15T11:44:55Z</time>
      </trkpt>
      <trkpt lat="42.8158424143" lon="-8.4742585011">
        <ele>211.63</ele>
        <time>2020-08-15T11:44:57Z</time>
      </trkpt>
      <trkpt lat="42.8158698231" lon="-8.4743030928">
        <ele>211.63</ele>
        <time>2020-08-15T11:44:58Z</time>
      </trkpt>
      <trkpt lat="42.8158968966" lon="-8.4743397217">
        <ele>211.63</ele>
        <time>2020-08-15T11:44:59Z</time>
      </trkpt>
      <trkpt lat="42.8159229644" lon="-8.4743714891">
        <ele>211.15</ele>
        <time>2020-08-15T11:45:00Z</time>
      </trkpt>
      <trkpt lat="42.8159471881" lon="-8.4744014125">
        <ele>211.15</ele>
        <time>2020-08-15T11:45:01Z</time>
      </trkpt>
      <trkpt lat="42.8160302527" lon="-8.4745814558">
        <ele>210.67</ele>
        <time>2020-08-15T11:45:07Z</time>
      </trkpt>
      <trkpt lat="42.8161398042" lon="-8.4748415463">
        <ele>211.15</ele>
        <time>2020-08-15T11:45:14Z</time>
      </trkpt>
      <trkpt lat="42.8163484298" lon="-8.4750872198">
        <ele>213.55</ele>
        <time>2020-08-15T11:45:22Z</time>
      </trkpt>
      <trkpt lat="42.8164749965" lon="-8.4752805065">
        <ele>214.03</ele>
        <time>2020-08-15T11:45:29Z</time>
      </trkpt>
      <trkpt lat="42.8165651020" lon="-8.4754981007">
        <ele>213.07</ele>
        <time>2020-08-15T11:45:35Z</time>
      </trkpt>
      <trkpt lat="42.8166777547" lon="-8.4757380746">
        <ele>212.59</ele>
        <time>2020-08-15T11:45:41Z</time>
      </trkpt>
      <trkpt lat="42.8167997114" lon="-8.4760343749">
        <ele>209.70</ele>
        <time>2020-08-15T11:45:48Z</time>
      </trkpt>
      <trkpt lat="42.8169010486" lon="-8.4764030948">
        <ele>206.82</ele>
        <time>2020-08-15T11:45:56Z</time>
      </trkpt>
      <trkpt lat="42.8169850353" lon="-8.4766263887">
        <ele>205.86</ele>
        <time>2020-08-15T11:46:03Z</time>
      </trkpt>
      <trkpt lat="42.8170628194" lon="-8.4767552186">
        <ele>204.42</ele>
        <time>2020-08-15T11:46:11Z</time>
      </trkpt>
      <trkpt lat="42.8171219956" lon="-8.4768477548">
        <ele>203.94</ele>
        <time>2020-08-15T11:46:17Z</time>
      </trkpt>
      <trkpt lat="42.8171936609" lon="-8.4769464936">
        <ele>203.94</ele>
        <time>2020-08-15T11:46:24Z</time>
      </trkpt>
      <trkpt lat="42.8173232451" lon="-8.4770573862">
        <ele>203.46</ele>
        <time>2020-08-15T11:46:30Z</time>
      </trkpt>
      <trkpt lat="42.8176079784" lon="-8.4772394411">
        <ele>200.09</ele>
        <time>2020-08-15T11:46:38Z</time>
      </trkpt>
      <trkpt lat="42.8179392312" lon="-8.4774004575">
        <ele>193.36</ele>
        <time>2020-08-15T11:46:46Z</time>
      </trkpt>
      <trkpt lat="42.8181055281" lon="-8.4775740467">
        <ele>189.52</ele>
        <time>2020-08-15T11:46:52Z</time>
      </trkpt>
      <trkpt lat="42.8182764351" lon="-8.4777218197">
        <ele>189.04</ele>
        <time>2020-08-15T11:47:00Z</time>
      </trkpt>
      <trkpt lat="42.8184060194" lon="-8.4779141005">
        <ele>188.56</ele>
        <time>2020-08-15T11:47:09Z</time>
      </trkpt>
      <trkpt lat="42.8184651956" lon="-8.4781016875">
        <ele>190.00</ele>
        <time>2020-08-15T11:47:17Z</time>
      </trkpt>
      <trkpt lat="42.8185585700" lon="-8.4782581776">
        <ele>190.48</ele>
        <time>2020-08-15T11:47:25Z</time>
      </trkpt>
      <trkpt lat="42.8186890762" lon="-8.4783358779">
        <ele>193.36</ele>
        <time>2020-08-15T11:47:34Z</time>
      </trkpt>
      <trkpt lat="42.8188021481" lon="-8.4783466905">
        <ele>195.28</ele>
        <time>2020-08-15T11:47:42Z</time>
      </trkpt>
      <trkpt lat="42.8189417906" lon="-8.4783928748">
        <ele>197.21</ele>
        <time>2020-08-15T11:47:52Z</time>
      </trkpt>
      <trkpt lat="42.8190769907" lon="-8.4784301743">
        <ele>200.57</ele>
        <time>2020-08-15T11:48:02Z</time>
      </trkpt>
      <trkpt lat="42.8191580437" lon="-8.4784541465">
        <ele>201.53</ele>
        <time>2020-08-15T11:48:08Z</time>
      </trkpt>
      <trkpt lat="42.8192587104" lon="-8.4785069525">
        <ele>202.49</ele>
        <time>2020-08-15T11:48:15Z</time>
      </trkpt>
      <trkpt lat="42.8192882985" lon="-8.4785066172">
        <ele>201.05</ele>
        <time>2020-08-15T11:48:23Z</time>
      </trkpt>
      <trkpt lat="42.8192982730" lon="-8.4785059467">
        <ele>201.05</ele>
        <time>2020-08-15T11:48:38Z</time>
      </trkpt>
      <trkpt lat="42.8193024639" lon="-8.4784979839">
        <ele>200.57</ele>
        <time>2020-08-15T11:48:45Z</time>
      </trkpt>
      <trkpt lat="42.8193835169" lon="-8.4784524702">
        <ele>200.57</ele>
        <time>2020-08-15T11:48:52Z</time>
      </trkpt>
      <trkpt lat="42.8194830939" lon="-8.4784013405">
        <ele>200.57</ele>
        <time>2020-08-15T11:48:58Z</time>
      </trkpt>
      <trkpt lat="42.8196944017" lon="-8.4782477841">
        <ele>202.01</ele>
        <time>2020-08-15T11:49:10Z</time>
      </trkpt>
      <trkpt lat="42.8198213875" lon="-8.4782946389">
        <ele>202.49</ele>
        <time>2020-08-15T11:49:17Z</time>
      </trkpt>
      <trkpt lat="42.8198571783" lon="-8.4783169348">
        <ele>202.49</ele>
        <time>2020-08-15T11:49:19Z</time>
      </trkpt>
      <trkpt lat="42.8198716789" lon="-8.4783365484">
        <ele>202.49</ele>
        <time>2020-08-15T11:49:20Z</time>
      </trkpt>
      <trkpt lat="42.8200342879" lon="-8.4785980638">
        <ele>202.01</ele>
        <time>2020-08-15T11:49:31Z</time>
      </trkpt>
      <trkpt lat="42.8201884311" lon="-8.4788506944">
        <ele>202.49</ele>
        <time>2020-08-15T11:49:42Z</time>
      </trkpt>
      <trkpt lat="42.8202869184" lon="-8.4790299833">
        <ele>203.46</ele>
        <time>2020-08-15T11:49:51Z</time>
      </trkpt>
      <trkpt lat="42.8202486970" lon="-8.4791807737">
        <ele>204.42</ele>
        <time>2020-08-15T11:49:58Z</time>
      </trkpt>
      <trkpt lat="42.8201227169" lon="-8.4793981165">
        <ele>205.38</ele>
        <time>2020-08-15T11:50:08Z</time>
      </trkpt>
      <trkpt lat="42.8199993353" lon="-8.4796007909">
        <ele>205.86</ele>
        <time>2020-08-15T11:50:16Z</time>
      </trkpt>
      <trkpt lat="42.8198450245" lon="-8.4798874520">
        <ele>205.86</ele>
        <time>2020-08-15T11:50:26Z</time>
      </trkpt>
      <trkpt lat="42.8196568508" lon="-8.4802026115">
        <ele>205.38</ele>
        <time>2020-08-15T11:50:36Z</time>
      </trkpt>
      <trkpt lat="42.8194612172" lon="-8.4805332776">
        <ele>205.38</ele>
        <time>2020-08-15T11:50:46Z</time>
      </trkpt>
      <trkpt lat="42.8193896357" lon="-8.4806694835">
        <ele>204.42</ele>
        <time>2020-08-15T11:50:53Z</time>
      </trkpt>
      <trkpt lat="42.8193949163" lon="-8.4806947969">
        <ele>204.42</ele>
        <time>2020-08-15T11:50:54Z</time>
      </trkpt>
      <trkpt lat="42.8194061480" lon="-8.4807147458">
        <ele>204.42</ele>
        <time>2020-08-15T11:50:55Z</time>
      </trkpt>
      <trkpt lat="42.8194167931" lon="-8.4807284083">
        <ele>204.90</ele>
        <time>2020-08-15T11:50:56Z</time>
      </trkpt>
      <trkpt lat="42.8194312938" lon="-8.4807450883">
        <ele>205.38</ele>
        <time>2020-08-15T11:50:57Z</time>
      </trkpt>
      <trkpt lat="42.8195594531" lon="-8.4809164982">
        <ele>208.74</ele>
        <time>2020-08-15T11:51:07Z</time>
      </trkpt>
      <trkpt lat="42.8196730278" lon="-8.4810536262">
        <ele>211.15</ele>
        <time>2020-08-15T11:51:17Z</time>
      </trkpt>
      <trkpt lat="42.8197809868" lon="-8.4811755829">
        <ele>212.59</ele>
        <time>2020-08-15T11:51:26Z</time>
      </trkpt>
      <trkpt lat="42.8198543284" lon="-8.4812551271">
        <ele>213.55</ele>
        <time>2020-08-15T11:51:33Z</time>
      </trkpt>
      <trkpt lat="42.8199525643" lon="-8.4813612420">
        <ele>215.95</ele>
        <time>2020-08-15T11:51:42Z</time>
      </trkpt>
      <trkpt lat="42.8200287558" lon="-8.4814208373">
        <ele>216.91</ele>
        <time>2020-08-15T11:51:49Z</time>
      </trkpt>
      <trkpt lat="42.8200377245" lon="-8.4814308118">
        <ele>216.91</ele>
        <time>2020-08-15T11:51:50Z</time>
      </trkpt>
      <trkpt lat="42.8200441785" lon="-8.4814440552">
        <ele>216.91</ele>
        <time>2020-08-15T11:51:51Z</time>
      </trkpt>
      <trkpt lat="42.8200496268" lon="-8.4814554546">
        <ele>216.91</ele>
        <time>2020-08-15T11:51:52Z</time>
      </trkpt>
      <trkpt lat="42.8200589307" lon="-8.4814618248">
        <ele>217.40</ele>
        <time>2020-08-15T11:51:53Z</time>
      </trkpt>
      <trkpt lat="42.8200703301" lon="-8.4814658482">
        <ele>217.40</ele>
        <time>2020-08-15T11:51:54Z</time>
      </trkpt>
      <trkpt lat="42.8200822324" lon="-8.4814717993">
        <ele>217.40</ele>
        <time>2020-08-15T11:51:55Z</time>
      </trkpt>
      <trkpt lat="42.8200919554" lon="-8.4814842045">
        <ele>217.40</ele>
        <time>2020-08-15T11:51:56Z</time>
      </trkpt>
      <trkpt lat="42.8201030195" lon="-8.4814956039">
        <ele>217.40</ele>
        <time>2020-08-15T11:51:57Z</time>
      </trkpt>
      <trkpt lat="42.8201119043" lon="-8.4815099370">
        <ele>217.88</ele>
        <time>2020-08-15T11:51:58Z</time>
      </trkpt>
      <trkpt lat="42.8201217111" lon="-8.4815200791">
        <ele>217.88</ele>
        <time>2020-08-15T11:51:59Z</time>
      </trkpt>
      <trkpt lat="42.8201323561" lon="-8.4815286286">
        <ele>217.88</ele>
        <time>2020-08-15T11:52:00Z</time>
      </trkpt>
      <trkpt lat="42.8201404866" lon="-8.4815417044">
        <ele>218.36</ele>
        <time>2020-08-15T11:52:01Z</time>
      </trkpt>
      <trkpt lat="42.8201497067" lon="-8.4815542772">
        <ele>218.36</ele>
        <time>2020-08-15T11:52:02Z</time>
      </trkpt>
      <trkpt lat="42.8201608546" lon="-8.4815680236">
        <ele>218.36</ele>
        <time>2020-08-15T11:52:03Z</time>
      </trkpt>
      <trkpt lat="42.8201707453" lon="-8.4815807641">
        <ele>218.84</ele>
        <time>2020-08-15T11:52:04Z</time>
      </trkpt>
      <trkpt lat="42.8201823123" lon="-8.4815936722">
        <ele>218.84</ele>
        <time>2020-08-15T11:52:05Z</time>
      </trkpt>
      <trkpt lat="42.8202805482" lon="-8.4817210771">
        <ele>221.24</ele>
        <time>2020-08-15T11:52:15Z</time>
      </trkpt>
      <trkpt lat="42.8203634452" lon="-8.4818582889">
        <ele>221.72</ele>
        <time>2020-08-15T11:52:23Z</time>
      </trkpt>
      <trkpt lat="42.8204636090" lon="-8.4820412658">
        <ele>222.68</ele>
        <time>2020-08-15T11:52:33Z</time>
      </trkpt>
      <trkpt lat="42.8204634413" lon="-8.4821757954">
        <ele>223.16</ele>
        <time>2020-08-15T11:52:40Z</time>
      </trkpt>
      <trkpt lat="42.8203932010" lon="-8.4822874423">
        <ele>224.12</ele>
        <time>2020-08-15T11:52:49Z</time>
      </trkpt>
      <trkpt lat="42.8203247208" lon="-8.4824266657">
        <ele>224.61</ele>
        <time>2020-08-15T11:52:58Z</time>
      </trkpt>
      <trkpt lat="42.8203328513" lon="-8.4825396538">
        <ele>224.12</ele>
        <time>2020-08-15T11:53:04Z</time>
      </trkpt>
      <trkpt lat="42.8204413131" lon="-8.4827371314">
        <ele>224.61</ele>
        <time>2020-08-15T11:53:14Z</time>
      </trkpt>
      <trkpt lat="42.8205449972" lon="-8.4829278197">
        <ele>225.09</ele>
        <time>2020-08-15T11:53:23Z</time>
      </trkpt>
      <trkpt lat="42.8206853941" lon="-8.4831377026">
        <ele>226.05</ele>
        <time>2020-08-15T11:53:34Z</time>
      </trkpt>
      <trkpt lat="42.8208580613" lon="-8.4832246229">
        <ele>227.97</ele>
        <time>2020-08-15T11:53:44Z</time>
      </trkpt>
      <trkpt lat="42.8210453968" lon="-8.4834431391">
        <ele>228.45</ele>
        <time>2020-08-15T11:53:57Z</time>
      </trkpt>
      <trkpt lat="42.8211349994" lon="-8.4835421294">
        <ele>228.93</ele>
        <time>2020-08-15T11:54:05Z</time>
      </trkpt>
      <trkpt lat="42.8211453930" lon="-8.4835510142">
        <ele>230.37</ele>
        <time>2020-08-15T11:54:18Z</time>
      </trkpt>
      <trkpt lat="42.8212469816" lon="-8.4836843703">
        <ele>229.41</ele>
        <time>2020-08-15T11:54:25Z</time>
      </trkpt>
      <trkpt lat="42.8213948384" lon="-8.4838627372">
        <ele>229.89</ele>
        <time>2020-08-15T11:54:34Z</time>
      </trkpt>
      <trkpt lat="42.8215514962" lon="-8.4840415232">
        <ele>231.33</ele>
        <time>2020-08-15T11:54:43Z</time>
      </trkpt>
      <trkpt lat="42.8216730338" lon="-8.4841991030">
        <ele>230.85</ele>
        <time>2020-08-15T11:54:50Z</time>
      </trkpt>
      <trkpt lat="42.8219102416" lon="-8.4845334571">
        <ele>232.78</ele>
        <time>2020-08-15T11:55:01Z</time>
      </trkpt>
      <trkpt lat="42.8220775444" lon="-8.4847323596">
        <ele>233.74</ele>
        <time>2020-08-15T11:55:08Z</time>
      </trkpt>
      <trkpt lat="42.8223072086" lon="-8.4850027598">
        <ele>234.22</ele>
        <time>2020-08-15T11:55:17Z</time>
      </trkpt>
      <trkpt lat="42.8224908561" lon="-8.4852305800">
        <ele>232.78</ele>
        <time>2020-08-15T11:55:25Z</time>
      </trkpt>
      <trkpt lat="42.8226836398" lon="-8.4854923468">
        <ele>231.33</ele>
        <time>2020-08-15T11:55:34Z</time>
      </trkpt>
      <trkpt lat="42.8227666207" lon="-8.4858164750">
        <ele>228.45</ele>
        <time>2020-08-15T11:55:42Z</time>
      </trkpt>
      <trkpt lat="42.8228269704" lon="-8.4859215003">
        <ele>228.93</ele>
        <time>2020-08-15T11:55:45Z</time>
      </trkpt>
      <trkpt lat="42.8228631802" lon="-8.4859450534">
        <ele>228.93</ele>
        <time>2020-08-15T11:55:46Z</time>
      </trkpt>
      <trkpt lat="42.8229000606" lon="-8.4859518427">
        <ele>228.93</ele>
        <time>2020-08-15T11:55:47Z</time>
      </trkpt>
      <trkpt lat="42.8229186684" lon="-8.4859493282">
        <ele>228.93</ele>
        <time>2020-08-15T11:55:48Z</time>
      </trkpt>
      <trkpt lat="42.8229461610" lon="-8.4859395213">
        <ele>229.41</ele>
        <time>2020-08-15T11:55:49Z</time>
      </trkpt>
      <trkpt lat="42.8229705524" lon="-8.4859258588">
        <ele>229.41</ele>
        <time>2020-08-15T11:55:50Z</time>
      </trkpt>
      <trkpt lat="42.8229925968" lon="-8.4859093465">
        <ele>229.41</ele>
        <time>2020-08-15T11:55:51Z</time>
      </trkpt>
      <trkpt lat="42.8232128732" lon="-8.4857375175">
        <ele>228.45</ele>
        <time>2020-08-15T11:56:00Z</time>
      </trkpt>
      <trkpt lat="42.8234609775" lon="-8.4855818655">
        <ele>228.93</ele>
        <time>2020-08-15T11:56:08Z</time>
      </trkpt>
      <trkpt lat="42.8236890491" lon="-8.4855236951">
        <ele>229.41</ele>
        <time>2020-08-15T11:56:15Z</time>
      </trkpt>
      <trkpt lat="42.8239048831" lon="-8.4855210129">
        <ele>230.37</ele>
        <time>2020-08-15T11:56:23Z</time>
      </trkpt>
      <trkpt lat="42.8239810746" lon="-8.4856242780">
        <ele>231.81</ele>
        <time>2020-08-15T11:56:29Z</time>
      </trkpt>
      <trkpt lat="42.8241025284" lon="-8.4857741464">
        <ele>230.85</ele>
        <time>2020-08-15T11:56:36Z</time>
      </trkpt>
      <trkpt lat="42.8242626227" lon="-8.4858505893">
        <ele>230.37</ele>
        <time>2020-08-15T11:56:43Z</time>
      </trkpt>
      <trkpt lat="42.8244103119" lon="-8.4858956002">
        <ele>236.62</ele>
        <time>2020-08-15T11:56:49Z</time>
      </trkpt>
      <trkpt lat="42.8246533033" lon="-8.4859690256">
        <ele>242.39</ele>
        <time>2020-08-15T11:56:59Z</time>
      </trkpt>
      <trkpt lat="42.8248619288" lon="-8.4859558661">
        <ele>241.91</ele>
        <time>2020-08-15T11:57:06Z</time>
      </trkpt>
      <trkpt lat="42.8251251206" lon="-8.4858276229">
        <ele>238.54</ele>
        <time>2020-08-15T11:57:15Z</time>
      </trkpt>
      <trkpt lat="42.8253598977" lon="-8.4857219271">
        <ele>235.66</ele>
        <time>2020-08-15T11:57:24Z</time>
      </trkpt>
      <trkpt lat="42.8256422840" lon="-8.4856647626">
        <ele>232.78</ele>
        <time>2020-08-15T11:57:30Z</time>
      </trkpt>
      <trkpt lat="42.8261183761" lon="-8.4855422191">
        <ele>231.33</ele>
        <time>2020-08-15T11:57:39Z</time>
      </trkpt>
      <trkpt lat="42.8264188673" lon="-8.4854495991">
        <ele>230.85</ele>
        <time>2020-08-15T11:57:47Z</time>
      </trkpt>
      <trkpt lat="42.8266864177" lon="-8.4852975514">
        <ele>229.41</ele>
        <time>2020-08-15T11:57:55Z</time>
      </trkpt>
      <trkpt lat="42.8268491942" lon="-8.4852741659">
        <ele>228.93</ele>
        <time>2020-08-15T11:58:01Z</time>
      </trkpt>
      <trkpt lat="42.8268595878" lon="-8.4852884989">
        <ele>228.93</ele>
        <time>2020-08-15T11:58:02Z</time>
      </trkpt>
      <trkpt lat="42.8270042595" lon="-8.4855629224">
        <ele>228.93</ele>
        <time>2020-08-15T11:58:10Z</time>
      </trkpt>
      <trkpt lat="42.8271441534" lon="-8.4859356657">
        <ele>227.97</ele>
        <time>2020-08-15T11:58:20Z</time>
      </trkpt>
      <trkpt lat="42.8272796050" lon="-8.4862447064">
        <ele>227.01</ele>
        <time>2020-08-15T11:58:27Z</time>
      </trkpt>
      <trkpt lat="42.8273361828" lon="-8.4863416851">
        <ele>226.05</ele>
        <time>2020-08-15T11:58:29Z</time>
      </trkpt>
      <trkpt lat="42.8275166452" lon="-8.4867019393">
        <ele>224.12</ele>
        <time>2020-08-15T11:58:36Z</time>
      </trkpt>
      <trkpt lat="42.8276505042" lon="-8.4868428390">
        <ele>224.12</ele>
        <time>2020-08-15T11:58:42Z</time>
      </trkpt>
      <trkpt lat="42.8277086746" lon="-8.4868997522">
        <ele>225.09</ele>
        <time>2020-08-15T11:58:50Z</time>
      </trkpt>
      <trkpt lat="42.8277790826" lon="-8.4870686475">
        <ele>225.09</ele>
        <time>2020-08-15T11:58:58Z</time>
      </trkpt>
      <trkpt lat="42.8277779091" lon="-8.4871159215">
        <ele>224.61</ele>
        <time>2020-08-15T11:59:04Z</time>
      </trkpt>
      <trkpt lat="42.8277799208" lon="-8.4871134069">
        <ele>224.61</ele>
        <time>2020-08-15T11:59:12Z</time>
      </trkpt>
      <trkpt lat="42.8277798370" lon="-8.4871072043">
        <ele>224.61</ele>
        <time>2020-08-15T11:59:26Z</time>
      </trkpt>
      <trkpt lat="42.8277758136" lon="-8.4870898537">
        <ele>224.61</ele>
        <time>2020-08-15T11:59:43Z</time>
      </trkpt>
      <trkpt lat="42.8277735505" lon="-8.4870890994">
        <ele>224.61</ele>
        <time>2020-08-15T11:59:55Z</time>
      </trkpt>
      <trkpt lat="42.8277719580" lon="-8.4870973974">
        <ele>223.16</ele>
        <time>2020-08-15T12:00:11Z</time>
      </trkpt>
      <trkpt lat="42.8277754784" lon="-8.4871058632">
        <ele>222.68</ele>
        <time>2020-08-15T12:00:23Z</time>
      </trkpt>
      <trkpt lat="42.8277677670" lon="-8.4870943800">
        <ele>223.16</ele>
        <time>2020-08-15T12:00:37Z</time>
      </trkpt>
      <trkpt lat="42.8277686890" lon="-8.4871087968">
        <ele>222.68</ele>
        <time>2020-08-15T12:00:54Z</time>
      </trkpt>
      <trkpt lat="42.8277751431" lon="-8.4870933741">
        <ele>223.16</ele>
        <time>2020-08-15T12:01:07Z</time>
      </trkpt>
      <trkpt lat="42.8277779929" lon="-8.4870797116">
        <ele>223.64</ele>
        <time>2020-08-15T12:01:24Z</time>
      </trkpt>
      <trkpt lat="42.8277832735" lon="-8.4870788734">
        <ele>225.09</ele>
        <time>2020-08-15T12:01:39Z</time>
      </trkpt>
      <trkpt lat="42.8277847823" lon="-8.4870886803">
        <ele>225.09</ele>
        <time>2020-08-15T12:01:55Z</time>
      </trkpt>
      <trkpt lat="42.8277810942" lon="-8.4870786220">
        <ele>225.57</ele>
        <time>2020-08-15T12:02:09Z</time>
      </trkpt>
      <trkpt lat="42.8277810942" lon="-8.4870648757">
        <ele>226.05</ele>
        <time>2020-08-15T12:02:26Z</time>
      </trkpt>
      <trkpt lat="42.8277815133" lon="-8.4870657139">
        <ele>226.05</ele>
        <time>2020-08-15T12:02:45Z</time>
      </trkpt>
      <trkpt lat="42.8277824353" lon="-8.4870599303">
        <ele>226.53</ele>
        <time>2020-08-15T12:03:03Z</time>
      </trkpt>
      <trkpt lat="42.8277850337" lon="-8.4870616905">
        <ele>227.01</ele>
        <time>2020-08-15T12:03:24Z</time>
      </trkpt>
      <trkpt lat="42.8277774062" lon="-8.4870645404">
        <ele>227.49</ele>
        <time>2020-08-15T12:03:50Z</time>
      </trkpt>
      <trkpt lat="42.8277742211" lon="-8.4870874230">
        <ele>226.05</ele>
        <time>2020-08-15T12:04:07Z</time>
      </trkpt>
      <trkpt lat="42.8277654201" lon="-8.4870942961">
        <ele>224.61</ele>
        <time>2020-08-15T12:04:20Z</time>
      </trkpt>
      <trkpt lat="42.8277624864" lon="-8.4870974813">
        <ele>224.61</ele>
        <time>2020-08-15T12:04:34Z</time>
      </trkpt>
      <trkpt lat="42.8277630731" lon="-8.4870965593">
        <ele>224.61</ele>
        <time>2020-08-15T12:04:50Z</time>
      </trkpt>
      <trkpt lat="42.8277630731" lon="-8.4871114790">
        <ele>223.64</ele>
        <time>2020-08-15T12:05:04Z</time>
      </trkpt>
      <trkpt lat="42.8277631570" lon="-8.4871125687">
        <ele>223.16</ele>
        <time>2020-08-15T12:05:23Z</time>
      </trkpt>
      <trkpt lat="42.8277696110" lon="-8.4870885964">
        <ele>224.12</ele>
        <time>2020-08-15T12:05:45Z</time>
      </trkpt>
      <trkpt lat="42.8277675994" lon="-8.4870808013">
        <ele>225.09</ele>
        <time>2020-08-15T12:06:07Z</time>
      </trkpt>
      <trkpt lat="42.8277770709" lon="-8.4870934580">
        <ele>225.09</ele>
        <time>2020-08-15T12:06:24Z</time>
      </trkpt>
      <trkpt lat="42.8277871292" lon="-8.4870908596">
        <ele>225.57</ele>
        <time>2020-08-15T12:06:40Z</time>
      </trkpt>
      <trkpt lat="42.8277816810" lon="-8.4870879259">
        <ele>225.09</ele>
        <time>2020-08-15T12:06:57Z</time>
      </trkpt>
      <trkpt lat="42.8277745564" lon="-8.4870835673">
        <ele>225.09</ele>
        <time>2020-08-15T12:07:12Z</time>
      </trkpt>
      <trkpt lat="42.8277754784" lon="-8.4870823938">
        <ele>224.12</ele>
        <time>2020-08-15T12:07:28Z</time>
      </trkpt>
      <trkpt lat="42.8277799208" lon="-8.4870906081">
        <ele>224.12</ele>
        <time>2020-08-15T12:07:46Z</time>
      </trkpt>
      <trkpt lat="42.8277743887" lon="-8.4870922845">
        <ele>223.64</ele>
        <time>2020-08-15T12:08:01Z</time>
      </trkpt>
      <trkpt lat="42.8277711198" lon="-8.4870884288">
        <ele>224.61</ele>
        <time>2020-08-15T12:08:14Z</time>
      </trkpt>
      <trkpt lat="42.8277710360" lon="-8.4870895185">
        <ele>226.53</ele>
        <time>2020-08-15T12:08:39Z</time>
      </trkpt>
      <trkpt lat="42.8277639952" lon="-8.4870892670">
        <ele>225.57</ele>
        <time>2020-08-15T12:08:57Z</time>
      </trkpt>
      <trkpt lat="42.8277587984" lon="-8.4870893508">
        <ele>225.09</ele>
        <time>2020-08-15T12:09:20Z</time>
      </trkpt>
      <trkpt lat="42.8277677670" lon="-8.4870784543">
        <ele>225.57</ele>
        <time>2020-08-15T12:09:45Z</time>
      </trkpt>
      <trkpt lat="42.8277734667" lon="-8.4870716650">
        <ele>226.05</ele>
        <time>2020-08-15T12:10:03Z</time>
      </trkpt>
      <trkpt lat="42.8277812619" lon="-8.4870815556">
        <ele>226.05</ele>
        <time>2020-08-15T12:10:23Z</time>
      </trkpt>
      <trkpt lat="42.8277882189" lon="-8.4871003311">
        <ele>225.09</ele>
        <time>2020-08-15T12:10:41Z</time>
      </trkpt>
      <trkpt lat="42.8277845308" lon="-8.4871058632">
        <ele>223.64</ele>
        <time>2020-08-15T12:11:01Z</time>
      </trkpt>
      <trkpt lat="42.8277675156" lon="-8.4870901052">
        <ele>224.12</ele>
        <time>2020-08-15T12:11:23Z</time>
      </trkpt>
      <trkpt lat="42.8277636599" lon="-8.4870972298">
        <ele>224.12</ele>
        <time>2020-08-15T12:11:42Z</time>
      </trkpt>
      <trkpt lat="42.8277675994" lon="-8.4871011693">
        <ele>224.12</ele>
        <time>2020-08-15T12:12:01Z</time>
      </trkpt>
      <trkpt lat="42.8277691081" lon="-8.4871083777">
        <ele>225.09</ele>
        <time>2020-08-15T12:12:23Z</time>
      </trkpt>
      <trkpt lat="42.8277700301" lon="-8.4871072881">
        <ele>225.09</ele>
        <time>2020-08-15T12:12:42Z</time>
      </trkpt>
      <trkpt lat="42.8277652524" lon="-8.4870991576">
        <ele>225.09</ele>
        <time>2020-08-15T12:12:52Z</time>
      </trkpt>
      <trkpt lat="42.8277662583" lon="-8.4870903566">
        <ele>226.05</ele>
        <time>2020-08-15T12:13:10Z</time>
      </trkpt>
      <trkpt lat="42.8277705330" lon="-8.4870853275">
        <ele>227.01</ele>
        <time>2020-08-15T12:13:29Z</time>
      </trkpt>
      <trkpt lat="42.8277660068" lon="-8.4870984871">
        <ele>226.05</ele>
        <time>2020-08-15T12:13:49Z</time>
      </trkpt>
      <trkpt lat="42.8277652524" lon="-8.4871092997">
        <ele>225.57</ele>
        <time>2020-08-15T12:14:17Z</time>
      </trkpt>
      <trkpt lat="42.8277626541" lon="-8.4871072043">
        <ele>225.57</ele>
        <time>2020-08-15T12:14:53Z</time>
      </trkpt>
      <trkpt lat="42.8277555294" lon="-8.4871184360">
        <ele>224.12</ele>
        <time>2020-08-15T12:15:27Z</time>
      </trkpt>
      <trkpt lat="42.8277587146" lon="-8.4871284105">
        <ele>223.16</ele>
        <time>2020-08-15T12:15:53Z</time>
      </trkpt>
      <trkpt lat="42.8277607262" lon="-8.4871266503">
        <ele>223.64</ele>
        <time>2020-08-15T12:16:17Z</time>
      </trkpt>
      <trkpt lat="42.8277656715" lon="-8.4871064499">
        <ele>224.61</ele>
        <time>2020-08-15T12:16:44Z</time>
      </trkpt>
      <trkpt lat="42.8277667612" lon="-8.4871043544">
        <ele>225.57</ele>
        <time>2020-08-15T12:17:23Z</time>
      </trkpt>
      <trkpt lat="42.8277646657" lon="-8.4870994929">
        <ele>226.53</ele>
        <time>2020-08-15T12:17:43Z</time>
      </trkpt>
      <trkpt lat="42.8277646657" lon="-8.4870948829">
        <ele>227.01</ele>
        <time>2020-08-15T12:18:13Z</time>
      </trkpt>
      <trkpt lat="42.8277627379" lon="-8.4870999120">
        <ele>226.53</ele>
        <time>2020-08-15T12:18:33Z</time>
      </trkpt>
      <trkpt lat="42.8277685214" lon="-8.4871138260">
        <ele>227.01</ele>
        <time>2020-08-15T12:18:55Z</time>
      </trkpt>
      <trkpt lat="42.8277703654" lon="-8.4871108923">
        <ele>227.49</ele>
        <time>2020-08-15T12:19:23Z</time>
      </trkpt>
      <trkpt lat="42.8277741373" lon="-8.4871109761">
        <ele>227.01</ele>
        <time>2020-08-15T12:19:49Z</time>
      </trkpt>
      <trkpt lat="42.8277665935" lon="-8.4871185198">
        <ele>227.01</ele>
        <time>2020-08-15T12:20:12Z</time>
      </trkpt>
      <trkpt lat="42.8277690243" lon="-8.4871159215">
        <ele>227.01</ele>
        <time>2020-08-15T12:20:34Z</time>
      </trkpt>
      <trkpt lat="42.8277702816" lon="-8.4871098027">
        <ele>226.53</ele>
        <time>2020-08-15T12:20:57Z</time>
      </trkpt>
      <trkpt lat="42.8277676832" lon="-8.4871170949">
        <ele>226.05</ele>
        <time>2020-08-15T12:21:22Z</time>
      </trkpt>
      <trkpt lat="42.8277660906" lon="-8.4871237166">
        <ele>225.09</ele>
        <time>2020-08-15T12:21:45Z</time>
      </trkpt>
      <trkpt lat="42.8277740534" lon="-8.4871161729">
        <ele>224.12</ele>
        <time>2020-08-15T12:22:02Z</time>
      </trkpt>
      <trkpt lat="42.8277754784" lon="-8.4871137422">
        <ele>224.12</ele>
        <time>2020-08-15T12:22:23Z</time>
      </trkpt>
      <trkpt lat="42.8277804237" lon="-8.4871085454">
        <ele>224.61</ele>
        <time>2020-08-15T12:22:45Z</time>
      </trkpt>
      <trkpt lat="42.8277845308" lon="-8.4870976489">
        <ele>225.09</ele>
        <time>2020-08-15T12:23:02Z</time>
      </trkpt>
      <trkpt lat="42.8277784120" lon="-8.4871034324">
        <ele>224.61</ele>
        <time>2020-08-15T12:23:23Z</time>
      </trkpt>
      <trkpt lat="42.8277765680" lon="-8.4871005826">
        <ele>223.16</ele>
        <time>2020-08-15T12:23:40Z</time>
      </trkpt>
      <trkpt lat="42.8277734667" lon="-8.4871103056">
        <ele>223.16</ele>
        <time>2020-08-15T12:23:58Z</time>
      </trkpt>
      <trkpt lat="42.8277658392" lon="-8.4871127363">
        <ele>223.64</ele>
        <time>2020-08-15T12:24:19Z</time>
      </trkpt>
      <trkpt lat="42.8277750593" lon="-8.4871149994">
        <ele>224.61</ele>
        <time>2020-08-15T12:24:41Z</time>
      </trkpt>
      <trkpt lat="42.8277801722" lon="-8.4871038515">
        <ele>225.57</ele>
        <time>2020-08-15T12:25:05Z</time>
      </trkpt>
      <trkpt lat="42.8277908172" lon="-8.4870928712">
        <ele>226.05</ele>
        <time>2020-08-15T12:25:29Z</time>
      </trkpt>
      <trkpt lat="42.8277941700" lon="-8.4870931227">
        <ele>226.05</ele>
        <time>2020-08-15T12:25:44Z</time>
      </trkpt>
      <trkpt lat="42.8277957626" lon="-8.4870958887">
        <ele>226.05</ele>
        <time>2020-08-15T12:26:00Z</time>
      </trkpt>
      <trkpt lat="42.8277861234" lon="-8.4871087130">
        <ele>227.01</ele>
        <time>2020-08-15T12:26:21Z</time>
      </trkpt>
      <trkpt lat="42.8277872968" lon="-8.4871069528">
        <ele>227.01</ele>
        <time>2020-08-15T12:26:45Z</time>
      </trkpt>
      <trkpt lat="42.8277954273" lon="-8.4871025942">
        <ele>227.49</ele>
        <time>2020-08-15T12:27:08Z</time>
      </trkpt>
      <trkpt lat="42.8278111853" lon="-8.4870912787">
        <ele>227.97</ele>
        <time>2020-08-15T12:27:37Z</time>
      </trkpt>
      <trkpt lat="42.8278048988" lon="-8.4870927036">
        <ele>227.97</ele>
        <time>2020-08-15T12:28:05Z</time>
      </trkpt>
      <trkpt lat="42.8277977742" lon="-8.4870981518">
        <ele>227.49</ele>
        <time>2020-08-15T12:28:34Z</time>
      </trkpt>
      <trkpt lat="42.8277829383" lon="-8.4871032648">
        <ele>227.01</ele>
        <time>2020-08-15T12:28:56Z</time>
      </trkpt>
      <trkpt lat="42.8277804237" lon="-8.4871068690">
        <ele>226.53</ele>
        <time>2020-08-15T12:29:17Z</time>
      </trkpt>
      <trkpt lat="42.8277821839" lon="-8.4871058632">
        <ele>226.53</ele>
        <time>2020-08-15T12:29:42Z</time>
      </trkpt>
      <trkpt lat="42.8277827706" lon="-8.4871109761">
        <ele>226.53</ele>
        <time>2020-08-15T12:30:02Z</time>
      </trkpt>
      <trkpt lat="42.8277815972" lon="-8.4871178493">
        <ele>226.05</ele>
        <time>2020-08-15T12:30:19Z</time>
      </trkpt>
      <trkpt lat="42.8277691919" lon="-8.4871214535">
        <ele>225.57</ele>
        <time>2020-08-15T12:30:44Z</time>
      </trkpt>
      <trkpt lat="42.8277632408" lon="-8.4871243034">
        <ele>225.57</ele>
        <time>2020-08-15T12:31:05Z</time>
      </trkpt>
      <trkpt lat="42.8277687728" lon="-8.4871254768">
        <ele>225.09</ele>
        <time>2020-08-15T12:31:29Z</time>
      </trkpt>
      <trkpt lat="42.8277675156" lon="-8.4871185198">
        <ele>225.09</ele>
        <time>2020-08-15T12:31:44Z</time>
      </trkpt>
      <trkpt lat="42.8277598880" lon="-8.4871121496">
        <ele>225.57</ele>
        <time>2020-08-15T12:32:07Z</time>
      </trkpt>
      <trkpt lat="42.8277488239" lon="-8.4871140774">
        <ele>224.61</ele>
        <time>2020-08-15T12:32:26Z</time>
      </trkpt>
      <trkpt lat="42.8277504165" lon="-8.4871104732">
        <ele>224.61</ele>
        <time>2020-08-15T12:32:47Z</time>
      </trkpt>
      <trkpt lat="42.8277614806" lon="-8.4871206153">
        <ele>225.09</ele>
        <time>2020-08-15T12:33:11Z</time>
      </trkpt>
      <trkpt lat="42.8277585469" lon="-8.4871303383">
        <ele>224.12</ele>
        <time>2020-08-15T12:33:32Z</time>
      </trkpt>
      <trkpt lat="42.8277541045" lon="-8.4871247225">
        <ele>223.64</ele>
        <time>2020-08-15T12:33:59Z</time>
      </trkpt>
      <trkpt lat="42.8277530149" lon="-8.4871168435">
        <ele>224.61</ele>
        <time>2020-08-15T12:34:24Z</time>
      </trkpt>
      <trkpt lat="42.8277534340" lon="-8.4871263988">
        <ele>224.12</ele>
        <time>2020-08-15T12:34:45Z</time>
      </trkpt>
      <trkpt lat="42.8277643304" lon="-8.4871257283">
        <ele>224.12</ele>
        <time>2020-08-15T12:35:11Z</time>
      </trkpt>
      <trkpt lat="42.8277701978" lon="-8.4871232137">
        <ele>224.12</ele>
        <time>2020-08-15T12:35:33Z</time>
      </trkpt>
      <trkpt lat="42.8277701139" lon="-8.4871092159">
        <ele>224.61</ele>
        <time>2020-08-15T12:35:54Z</time>
      </trkpt>
      <trkpt lat="42.8277626541" lon="-8.4871212021">
        <ele>224.12</ele>
        <time>2020-08-15T12:36:11Z</time>
      </trkpt>
      <trkpt lat="42.8277567867" lon="-8.4871255606">
        <ele>224.61</ele>
        <time>2020-08-15T12:36:31Z</time>
      </trkpt>
      <trkpt lat="42.8277536854" lon="-8.4871284943">
        <ele>224.61</ele>
        <time>2020-08-15T12:36:49Z</time>
      </trkpt>
      <trkpt lat="42.8277645819" lon="-8.4871174302">
        <ele>225.09</ele>
        <time>2020-08-15T12:37:08Z</time>
      </trkpt>
      <trkpt lat="42.8277688567" lon="-8.4871124011">
        <ele>226.05</ele>
        <time>2020-08-15T12:37:26Z</time>
      </trkpt>
      <trkpt lat="42.8277642466" lon="-8.4871074557">
        <ele>225.57</ele>
        <time>2020-08-15T12:37:48Z</time>
      </trkpt>
      <trkpt lat="42.8277522605" lon="-8.4871150833">
        <ele>225.57</ele>
        <time>2020-08-15T12:38:08Z</time>
      </trkpt>
      <trkpt lat="42.8277495783" lon="-8.4871176817">
        <ele>224.61</ele>
        <time>2020-08-15T12:38:22Z</time>
      </trkpt>
      <trkpt lat="42.8277494106" lon="-8.4871172626">
        <ele>225.09</ele>
        <time>2020-08-15T12:38:43Z</time>
      </trkpt>
      <trkpt lat="42.8277582955" lon="-8.4871175140">
        <ele>224.12</ele>
        <time>2020-08-15T12:38:58Z</time>
      </trkpt>
      <trkpt lat="42.8277684376" lon="-8.4871318471">
        <ele>223.64</ele>
        <time>2020-08-15T12:39:20Z</time>
      </trkpt>
      <trkpt lat="42.8277698625" lon="-8.4871268179">
        <ele>223.64</ele>
        <time>2020-08-15T12:39:36Z</time>
      </trkpt>
      <trkpt lat="42.8277670126" lon="-8.4871328529">
        <ele>224.12</ele>
        <time>2020-08-15T12:39:52Z</time>
      </trkpt>
      <trkpt lat="42.8277659230" lon="-8.4871354513">
        <ele>224.12</ele>
        <time>2020-08-15T12:40:09Z</time>
      </trkpt>
      <trkpt lat="42.8277621511" lon="-8.4871319309">
        <ele>224.12</ele>
        <time>2020-08-15T12:40:17Z</time>
      </trkpt>
      <trkpt lat="42.8277561162" lon="-8.4871362895">
        <ele>223.64</ele>
        <time>2020-08-15T12:40:30Z</time>
      </trkpt>
      <trkpt lat="42.8277332336" lon="-8.4871533047">
        <ele>223.16</ele>
        <time>2020-08-15T12:40:39Z</time>
      </trkpt>
      <trkpt lat="42.8277235106" lon="-8.4871626087">
        <ele>222.68</ele>
        <time>2020-08-15T12:40:40Z</time>
      </trkpt>
      <trkpt lat="42.8277168050" lon="-8.4871745110">
        <ele>222.68</ele>
        <time>2020-08-15T12:40:41Z</time>
      </trkpt>
      <trkpt lat="42.8277069144" lon="-8.4871911909">
        <ele>222.68</ele>
        <time>2020-08-15T12:40:42Z</time>
      </trkpt>
      <trkpt lat="42.8276985325" lon="-8.4872035962">
        <ele>222.20</ele>
        <time>2020-08-15T12:40:43Z</time>
      </trkpt>
      <trkpt lat="42.8276624903" lon="-8.4872607607">
        <ele>222.20</ele>
        <time>2020-08-15T12:40:47Z</time>
      </trkpt>
      <trkpt lat="42.8276471514" lon="-8.4872851521">
        <ele>222.20</ele>
        <time>2020-08-15T12:40:48Z</time>
      </trkpt>
      <trkpt lat="42.8276334051" lon="-8.4873040952">
        <ele>221.72</ele>
        <time>2020-08-15T12:40:49Z</time>
      </trkpt>
      <trkpt lat="42.8276223410" lon="-8.4873298276">
        <ele>221.72</ele>
        <time>2020-08-15T12:40:50Z</time>
      </trkpt>
      <trkpt lat="42.8276104387" lon="-8.4873619303">
        <ele>221.72</ele>
        <time>2020-08-15T12:40:51Z</time>
      </trkpt>
      <trkpt lat="42.8275150526" lon="-8.4876322467">
        <ele>221.24</ele>
        <time>2020-08-15T12:40:59Z</time>
      </trkpt>
      <trkpt lat="42.8273847140" lon="-8.4880993702">
        <ele>220.28</ele>
        <time>2020-08-15T12:41:11Z</time>
      </trkpt>
      <trkpt lat="42.8273490071" lon="-8.4885127656">
        <ele>220.28</ele>
        <time>2020-08-15T12:41:20Z</time>
      </trkpt>
      <trkpt lat="42.8274142183" lon="-8.4887803998">
        <ele>219.32</ele>
        <time>2020-08-15T12:41:26Z</time>
      </trkpt>
      <trkpt lat="42.8275647573" lon="-8.4889355488">
        <ele>218.36</ele>
        <time>2020-08-15T12:41:31Z</time>
      </trkpt>
      <trkpt lat="42.8276068345" lon="-8.4889513068">
        <ele>218.36</ele>
        <time>2020-08-15T12:41:32Z</time>
      </trkpt>
      <trkpt lat="42.8280377481" lon="-8.4890857525">
        <ele>215.95</ele>
        <time>2020-08-15T12:41:42Z</time>
      </trkpt>
      <trkpt lat="42.8282242455" lon="-8.4891751036">
        <ele>214.99</ele>
        <time>2020-08-15T12:41:48Z</time>
      </trkpt>
      <trkpt lat="42.8284083121" lon="-8.4893003292">
        <ele>213.55</ele>
        <time>2020-08-15T12:41:54Z</time>
      </trkpt>
      <trkpt lat="42.8285255749" lon="-8.4893883392">
        <ele>212.59</ele>
        <time>2020-08-15T12:41:59Z</time>
      </trkpt>
      <trkpt lat="42.8285293467" lon="-8.4893753473">
        <ele>213.55</ele>
        <time>2020-08-15T12:42:07Z</time>
      </trkpt>
      <trkpt lat="42.8285638802" lon="-8.4894054383">
        <ele>214.03</ele>
        <time>2020-08-15T12:42:14Z</time>
      </trkpt>
      <trkpt lat="42.8287238907" lon="-8.4895628504">
        <ele>212.59</ele>
        <time>2020-08-15T12:42:20Z</time>
      </trkpt>
      <trkpt lat="42.8289213683" lon="-8.4897882398">
        <ele>210.67</ele>
        <time>2020-08-15T12:42:26Z</time>
      </trkpt>
      <trkpt lat="42.8289425746" lon="-8.4898190852">
        <ele>210.19</ele>
        <time>2020-08-15T12:42:28Z</time>
      </trkpt>
      <trkpt lat="42.8289398085" lon="-8.4898409620">
        <ele>210.19</ele>
        <time>2020-08-15T12:42:29Z</time>
      </trkpt>
      <trkpt lat="42.8289237153" lon="-8.4898590669">
        <ele>210.19</ele>
        <time>2020-08-15T12:42:30Z</time>
      </trkpt>
      <trkpt lat="42.8288927861" lon="-8.4898692928">
        <ele>210.19</ele>
        <time>2020-08-15T12:42:31Z</time>
      </trkpt>
      <trkpt lat="42.8288581688" lon="-8.4898583964">
        <ele>210.19</ele>
        <time>2020-08-15T12:42:32Z</time>
      </trkpt>
      <trkpt lat="42.8288343642" lon="-8.4898415487">
        <ele>210.19</ele>
        <time>2020-08-15T12:42:33Z</time>
      </trkpt>
      <trkpt lat="42.8287991602" lon="-8.4898087755">
        <ele>210.19</ele>
        <time>2020-08-15T12:42:34Z</time>
      </trkpt>
      <trkpt lat="42.8287856653" lon="-8.4897927660">
        <ele>210.67</ele>
        <time>2020-08-15T12:42:35Z</time>
      </trkpt>
      <trkpt lat="42.8287635371" lon="-8.4897672851">
        <ele>210.67</ele>
        <time>2020-08-15T12:42:36Z</time>
      </trkpt>
      <trkpt lat="42.8287393134" lon="-8.4897407144">
        <ele>210.67</ele>
        <time>2020-08-15T12:42:37Z</time>
      </trkpt>
      <trkpt lat="42.8287161794" lon="-8.4897138085">
        <ele>210.67</ele>
        <time>2020-08-15T12:42:38Z</time>
      </trkpt>
      <trkpt lat="42.8284612857" lon="-8.4894843120">
        <ele>212.59</ele>
        <time>2020-08-15T12:42:48Z</time>
      </trkpt>
      <trkpt lat="42.8282186296" lon="-8.4893332701">
        <ele>214.03</ele>
        <time>2020-08-15T12:42:57Z</time>
      </trkpt>
      <trkpt lat="42.8279329743" lon="-8.4892030992">
        <ele>215.95</ele>
        <time>2020-08-15T12:43:08Z</time>
      </trkpt>
      <trkpt lat="42.8277288750" lon="-8.4891346190">
        <ele>216.43</ele>
        <time>2020-08-15T12:43:16Z</time>
      </trkpt>
      <trkpt lat="42.8275723010" lon="-8.4890932124">
        <ele>217.40</ele>
        <time>2020-08-15T12:43:23Z</time>
      </trkpt>
      <trkpt lat="42.8275588062" lon="-8.4891072102">
        <ele>217.40</ele>
        <time>2020-08-15T12:43:24Z</time>
      </trkpt>
      <trkpt lat="42.8275538608" lon="-8.4891365469">
        <ele>217.40</ele>
        <time>2020-08-15T12:43:25Z</time>
      </trkpt>
      <trkpt lat="42.8275620751" lon="-8.4891690686">
        <ele>217.88</ele>
        <time>2020-08-15T12:43:26Z</time>
      </trkpt>
      <trkpt lat="42.8275719658" lon="-8.4891867545">
        <ele>217.88</ele>
        <time>2020-08-15T12:43:27Z</time>
      </trkpt>
      <trkpt lat="42.8275919985" lon="-8.4892113134">
        <ele>217.40</ele>
        <time>2020-08-15T12:43:28Z</time>
      </trkpt>
      <trkpt lat="42.8276168089" lon="-8.4892348666">
        <ele>217.40</ele>
        <time>2020-08-15T12:43:29Z</time>
      </trkpt>
      <trkpt lat="42.8278972674" lon="-8.4894775227">
        <ele>215.95</ele>
        <time>2020-08-15T12:43:37Z</time>
      </trkpt>
      <trkpt lat="42.8280210681" lon="-8.4895831347">
        <ele>214.99</ele>
        <time>2020-08-15T12:43:40Z</time>
      </trkpt>
      <trkpt lat="42.8280593734" lon="-8.4896268044">
        <ele>214.99</ele>
        <time>2020-08-15T12:43:41Z</time>
      </trkpt>
      <trkpt lat="42.8280974273" lon="-8.4896760900">
        <ele>214.51</ele>
        <time>2020-08-15T12:43:42Z</time>
      </trkpt>
      <trkpt lat="42.8281333856" lon="-8.4897288959">
        <ele>214.03</ele>
        <time>2020-08-15T12:43:43Z</time>
      </trkpt>
      <trkpt lat="42.8281649854" lon="-8.4897821210">
        <ele>214.03</ele>
        <time>2020-08-15T12:43:44Z</time>
      </trkpt>
      <trkpt lat="42.8281940706" lon="-8.4898412134">
        <ele>213.55</ele>
        <time>2020-08-15T12:43:45Z</time>
      </trkpt>
      <trkpt lat="42.8282193840" lon="-8.4899004735">
        <ele>213.07</ele>
        <time>2020-08-15T12:43:46Z</time>
      </trkpt>
      <trkpt lat="42.8283336293" lon="-8.4901818540">
        <ele>212.11</ele>
        <time>2020-08-15T12:43:50Z</time>
      </trkpt>
      <trkpt lat="42.8283696715" lon="-8.4902488254">
        <ele>212.11</ele>
        <time>2020-08-15T12:43:51Z</time>
      </trkpt>
      <trkpt lat="42.8286036942" lon="-8.4906290285">
        <ele>210.67</ele>
        <time>2020-08-15T12:43:57Z</time>
      </trkpt>
      <trkpt lat="42.8287527245" lon="-8.4909477085">
        <ele>208.26</ele>
        <time>2020-08-15T12:44:03Z</time>
      </trkpt>
      <trkpt lat="42.8288025130" lon="-8.4910595231">
        <ele>207.30</ele>
        <time>2020-08-15T12:44:06Z</time>
      </trkpt>
      <trkpt lat="42.8288305085" lon="-8.4910653904">
        <ele>207.30</ele>
        <time>2020-08-15T12:44:07Z</time>
      </trkpt>
      <trkpt lat="42.8288538940" lon="-8.4910497162">
        <ele>206.82</ele>
        <time>2020-08-15T12:44:08Z</time>
      </trkpt>
      <trkpt lat="42.8290724102" lon="-8.4908502270">
        <ele>202.49</ele>
        <time>2020-08-15T12:44:15Z</time>
      </trkpt>
      <trkpt lat="42.8292646911" lon="-8.4907397535">
        <ele>200.09</ele>
        <time>2020-08-15T12:44:20Z</time>
      </trkpt>
      <trkpt lat="42.8292946983" lon="-8.4907252528">
        <ele>200.57</ele>
        <time>2020-08-15T12:44:21Z</time>
      </trkpt>
      <trkpt lat="42.8293211851" lon="-8.4907133505">
        <ele>201.05</ele>
        <time>2020-08-15T12:44:22Z</time>
      </trkpt>
      <trkpt lat="42.8295479994" lon="-8.4906313755">
        <ele>204.42</ele>
        <time>2020-08-15T12:44:28Z</time>
      </trkpt>
      <trkpt lat="42.8297566250" lon="-8.4906452056">
        <ele>204.42</ele>
        <time>2020-08-15T12:44:34Z</time>
      </trkpt>
      <trkpt lat="42.8299794160" lon="-8.4907354787">
        <ele>203.94</ele>
        <time>2020-08-15T12:44:42Z</time>
      </trkpt>
      <trkpt lat="42.8302793205" lon="-8.4908509813">
        <ele>200.57</ele>
        <time>2020-08-15T12:44:51Z</time>
      </trkpt>
      <trkpt lat="42.8305936418" lon="-8.4908655658">
        <ele>194.32</ele>
        <time>2020-08-15T12:44:58Z</time>
      </trkpt>
      <trkpt lat="42.8308567498" lon="-8.4909156058">
        <ele>192.88</ele>
        <time>2020-08-15T12:45:05Z</time>
      </trkpt>
      <trkpt lat="42.8309828974" lon="-8.4911021031">
        <ele>194.80</ele>
        <time>2020-08-15T12:45:12Z</time>
      </trkpt>
      <trkpt lat="42.8310025111" lon="-8.4911787976">
        <ele>195.28</ele>
        <time>2020-08-15T12:45:15Z</time>
      </trkpt>
      <trkpt lat="42.8310191073" lon="-8.4912138339">
        <ele>195.77</ele>
        <time>2020-08-15T12:45:21Z</time>
      </trkpt>
      <trkpt lat="42.8310208675" lon="-8.4912097268">
        <ele>195.28</ele>
        <time>2020-08-15T12:45:37Z</time>
      </trkpt>
      <trkpt lat="42.8310175985" lon="-8.4912273288">
        <ele>195.28</ele>
        <time>2020-08-15T12:45:56Z</time>
      </trkpt>
      <trkpt lat="42.8310092166" lon="-8.4912347049">
        <ele>194.80</ele>
        <time>2020-08-15T12:46:12Z</time>
      </trkpt>
      <trkpt lat="42.8310047742" lon="-8.4912518039">
        <ele>194.80</ele>
        <time>2020-08-15T12:46:21Z</time>
      </trkpt>
      <trkpt lat="42.8310063668" lon="-8.4912681486">
        <ele>194.80</ele>
        <time>2020-08-15T12:46:22Z</time>
      </trkpt>
      <trkpt lat="42.8310464323" lon="-8.4914775286">
        <ele>196.25</ele>
        <time>2020-08-15T12:46:29Z</time>
      </trkpt>
      <trkpt lat="42.8311389685" lon="-8.4917130601">
        <ele>198.17</ele>
        <time>2020-08-15T12:46:37Z</time>
      </trkpt>
      <trkpt lat="42.8312673792" lon="-8.4918191750">
        <ele>200.09</ele>
        <time>2020-08-15T12:46:46Z</time>
      </trkpt>
      <trkpt lat="42.8313168325" lon="-8.4918414708">
        <ele>201.05</ele>
        <time>2020-08-15T12:46:51Z</time>
      </trkpt>
      <trkpt lat="42.8313304111" lon="-8.4918519482">
        <ele>201.05</ele>
        <time>2020-08-15T12:46:52Z</time>
      </trkpt>
      <trkpt lat="42.8313465882" lon="-8.4918661974">
        <ele>201.53</ele>
        <time>2020-08-15T12:46:53Z</time>
      </trkpt>
      <trkpt lat="42.8313661180" lon="-8.4918770101">
        <ele>202.01</ele>
        <time>2020-08-15T12:46:54Z</time>
      </trkpt>
      <trkpt lat="42.8313842230" lon="-8.4918863140">
        <ele>202.01</ele>
        <time>2020-08-15T12:46:55Z</time>
      </trkpt>
      <trkpt lat="42.8314014897" lon="-8.4918988030">
        <ele>202.01</ele>
        <time>2020-08-15T12:46:56Z</time>
      </trkpt>
      <trkpt lat="42.8314169124" lon="-8.4919133876">
        <ele>202.49</ele>
        <time>2020-08-15T12:46:57Z</time>
      </trkpt>
      <trkpt lat="42.8314311616" lon="-8.4919286426">
        <ele>202.49</ele>
        <time>2020-08-15T12:46:58Z</time>
      </trkpt>
      <trkpt lat="42.8314462490" lon="-8.4919433948">
        <ele>202.98</ele>
        <time>2020-08-15T12:46:59Z</time>
      </trkpt>
      <trkpt lat="42.8314608335" lon="-8.4919607453">
        <ele>203.46</ele>
        <time>2020-08-15T12:47:00Z</time>
      </trkpt>
      <trkpt lat="42.8314752504" lon="-8.4919748269">
        <ele>203.46</ele>
        <time>2020-08-15T12:47:01Z</time>
      </trkpt>
      <trkpt lat="42.8314889129" lon="-8.4919884056">
        <ele>203.94</ele>
        <time>2020-08-15T12:47:02Z</time>
      </trkpt>
      <trkpt lat="42.8315024916" lon="-8.4919994697">
        <ele>203.94</ele>
        <time>2020-08-15T12:47:03Z</time>
      </trkpt>
      <trkpt lat="42.8316260409" lon="-8.4921295568">
        <ele>204.90</ele>
        <time>2020-08-15T12:47:13Z</time>
      </trkpt>
      <trkpt lat="42.8317131288" lon="-8.4922594763">
        <ele>205.86</ele>
        <time>2020-08-15T12:47:22Z</time>
      </trkpt>
      <trkpt lat="42.8317889012" lon="-8.4923862945">
        <ele>207.30</ele>
        <time>2020-08-15T12:47:31Z</time>
      </trkpt>
      <trkpt lat="42.8318756539" lon="-8.4925753064">
        <ele>209.22</ele>
        <time>2020-08-15T12:47:41Z</time>
      </trkpt>
      <trkpt lat="42.8319374286" lon="-8.4928462934">
        <ele>208.74</ele>
        <time>2020-08-15T12:47:51Z</time>
      </trkpt>
      <trkpt lat="42.8319728840" lon="-8.4932135046">
        <ele>208.74</ele>
        <time>2020-08-15T12:48:01Z</time>
      </trkpt>
      <trkpt lat="42.8320062440" lon="-8.4936419874">
        <ele>209.70</ele>
        <time>2020-08-15T12:48:13Z</time>
      </trkpt>
      <trkpt lat="42.8320273664" lon="-8.4939617570">
        <ele>210.67</ele>
        <time>2020-08-15T12:48:22Z</time>
      </trkpt>
      <trkpt lat="42.8320595529" lon="-8.4942081012">
        <ele>210.67</ele>
        <time>2020-08-15T12:48:30Z</time>
      </trkpt>
      <trkpt lat="42.8320727125" lon="-8.4942226019">
        <ele>211.15</ele>
        <time>2020-08-15T12:48:31Z</time>
      </trkpt>
      <trkpt lat="42.8320837766" lon="-8.4942277987">
        <ele>211.15</ele>
        <time>2020-08-15T12:48:32Z</time>
      </trkpt>
      <trkpt lat="42.8320991993" lon="-8.4942309000">
        <ele>211.63</ele>
        <time>2020-08-15T12:48:33Z</time>
      </trkpt>
      <trkpt lat="42.8321144544" lon="-8.4942262899">
        <ele>212.11</ele>
        <time>2020-08-15T12:48:34Z</time>
      </trkpt>
      <trkpt lat="42.8321282845" lon="-8.4942184109">
        <ele>213.07</ele>
        <time>2020-08-15T12:48:35Z</time>
      </trkpt>
      <trkpt lat="42.8321739659" lon="-8.4941995516">
        <ele>214.51</ele>
        <time>2020-08-15T12:48:39Z</time>
      </trkpt>
      <trkpt lat="42.8322967608" lon="-8.4941102006">
        <ele>216.91</ele>
        <time>2020-08-15T12:48:48Z</time>
      </trkpt>
      <trkpt lat="42.8324496467" lon="-8.4940259624">
        <ele>218.36</ele>
        <time>2020-08-15T12:48:58Z</time>
      </trkpt>
      <trkpt lat="42.8325765487" lon="-8.4939797781">
        <ele>219.32</ele>
        <time>2020-08-15T12:49:06Z</time>
      </trkpt>
      <trkpt lat="42.8327752836" lon="-8.4939221945">
        <ele>220.28</ele>
        <time>2020-08-15T12:49:18Z</time>
      </trkpt>
      <trkpt lat="42.8329616971" lon="-8.4939202666">
        <ele>223.16</ele>
        <time>2020-08-15T12:49:30Z</time>
      </trkpt>
      <trkpt lat="42.8330949694" lon="-8.4938803688">
        <ele>226.53</ele>
        <time>2020-08-15T12:49:39Z</time>
      </trkpt>
      <trkpt lat="42.8332289960" lon="-8.4937890060">
        <ele>228.93</ele>
        <time>2020-08-15T12:49:49Z</time>
      </trkpt>
      <trkpt lat="42.8333689738" lon="-8.4937074501">
        <ele>231.33</ele>
        <time>2020-08-15T12:50:00Z</time>
      </trkpt>
      <trkpt lat="42.8334062733" lon="-8.4938576538">
        <ele>231.81</ele>
        <time>2020-08-15T12:50:07Z</time>
      </trkpt>
      <trkpt lat="42.8334377892" lon="-8.4941287246">
        <ele>230.37</ele>
        <time>2020-08-15T12:50:17Z</time>
      </trkpt>
      <trkpt lat="42.8334465902" lon="-8.4943450615">
        <ele>229.41</ele>
        <time>2020-08-15T12:50:24Z</time>
      </trkpt>
      <trkpt lat="42.8334785253" lon="-8.4944977798">
        <ele>228.45</ele>
        <time>2020-08-15T12:50:29Z</time>
      </trkpt>
      <trkpt lat="42.8335122205" lon="-8.4945321456">
        <ele>228.45</ele>
        <time>2020-08-15T12:50:31Z</time>
      </trkpt>
      <trkpt lat="42.8335281461" lon="-8.4945322294">
        <ele>228.45</ele>
        <time>2020-08-15T12:50:32Z</time>
      </trkpt>
      <trkpt lat="42.8335398808" lon="-8.4945308883">
        <ele>228.45</ele>
        <time>2020-08-15T12:50:33Z</time>
      </trkpt>
      <trkpt lat="42.8335532080" lon="-8.4945314750">
        <ele>228.93</ele>
        <time>2020-08-15T12:50:34Z</time>
      </trkpt>
      <trkpt lat="42.8335708100" lon="-8.4945326485">
        <ele>228.93</ele>
        <time>2020-08-15T12:50:35Z</time>
      </trkpt>
      <trkpt lat="42.8335870709" lon="-8.4945321456">
        <ele>228.93</ele>
        <time>2020-08-15T12:50:36Z</time>
      </trkpt>
      <trkpt lat="42.8336044215" lon="-8.4945295472">
        <ele>228.93</ele>
        <time>2020-08-15T12:50:37Z</time>
      </trkpt>
      <trkpt lat="42.8337723110" lon="-8.4945114423">
        <ele>230.85</ele>
        <time>2020-08-15T12:50:47Z</time>
      </trkpt>
      <trkpt lat="42.8339812718" lon="-8.4944578819">
        <ele>233.74</ele>
        <time>2020-08-15T12:50:59Z</time>
      </trkpt>
      <trkpt lat="42.8340711258" lon="-8.4944430459">
        <ele>234.22</ele>
        <time>2020-08-15T12:51:05Z</time>
      </trkpt>
      <trkpt lat="42.8340865485" lon="-8.4944457281">
        <ele>234.22</ele>
        <time>2020-08-15T12:51:06Z</time>
      </trkpt>
      <trkpt lat="42.8341840301" lon="-8.4945557825">
        <ele>234.70</ele>
        <time>2020-08-15T12:51:13Z</time>
      </trkpt>
      <trkpt lat="42.8343237564" lon="-8.4948487300">
        <ele>234.22</ele>
        <time>2020-08-15T12:51:23Z</time>
      </trkpt>
      <trkpt lat="42.8344471380" lon="-8.4951573517">
        <ele>232.78</ele>
        <time>2020-08-15T12:51:31Z</time>
      </trkpt>
      <trkpt lat="42.8346085735" lon="-8.4955942165">
        <ele>231.33</ele>
        <time>2020-08-15T12:51:38Z</time>
      </trkpt>
      <trkpt lat="42.8348398302" lon="-8.4961457457">
        <ele>227.01</ele>
        <time>2020-08-15T12:51:44Z</time>
      </trkpt>
      <trkpt lat="42.8352014255" lon="-8.4970519971">
        <ele>219.32</ele>
        <time>2020-08-15T12:51:53Z</time>
      </trkpt>
      <trkpt lat="42.8353937902" lon="-8.4975528158">
        <ele>217.88</ele>
        <time>2020-08-15T12:51:58Z</time>
      </trkpt>
      <trkpt lat="42.8354216181" lon="-8.4976396523">
        <ele>218.36</ele>
        <time>2020-08-15T12:51:59Z</time>
      </trkpt>
      <trkpt lat="42.8354316764" lon="-8.4977065399">
        <ele>218.84</ele>
        <time>2020-08-15T12:52:00Z</time>
      </trkpt>
      <trkpt lat="42.8354268149" lon="-8.4977699071">
        <ele>218.84</ele>
        <time>2020-08-15T12:52:01Z</time>
      </trkpt>
      <trkpt lat="42.8354115598" lon="-8.4978213720">
        <ele>219.32</ele>
        <time>2020-08-15T12:52:02Z</time>
      </trkpt>
      <trkpt lat="42.8353947122" lon="-8.4978497867">
        <ele>219.32</ele>
        <time>2020-08-15T12:52:03Z</time>
      </trkpt>
      <trkpt lat="42.8353727516" lon="-8.4978797939">
        <ele>219.32</ele>
        <time>2020-08-15T12:52:04Z</time>
      </trkpt>
      <trkpt lat="42.8353530541" lon="-8.4979044367">
        <ele>219.32</ele>
        <time>2020-08-15T12:52:05Z</time>
      </trkpt>
      <trkpt lat="42.8353381343" lon="-8.4979271516">
        <ele>219.80</ele>
        <time>2020-08-15T12:52:06Z</time>
      </trkpt>
      <trkpt lat="42.8351662215" lon="-8.4981220309">
        <ele>219.80</ele>
        <time>2020-08-15T12:52:14Z</time>
      </trkpt>
      <trkpt lat="42.8348549176" lon="-8.4984314069">
        <ele>219.80</ele>
        <time>2020-08-15T12:52:26Z</time>
      </trkpt>
      <trkpt lat="42.8346786462" lon="-8.4986686986">
        <ele>220.76</ele>
        <time>2020-08-15T12:52:35Z</time>
      </trkpt>
      <trkpt lat="42.8346063942" lon="-8.4988597222">
        <ele>222.20</ele>
        <time>2020-08-15T12:52:43Z</time>
      </trkpt>
      <trkpt lat="42.8345826734" lon="-8.4991136938">
        <ele>224.61</ele>
        <time>2020-08-15T12:52:53Z</time>
      </trkpt>
      <trkpt lat="42.8345804941" lon="-8.4992591199">
        <ele>226.53</ele>
        <time>2020-08-15T12:53:01Z</time>
      </trkpt>
      <trkpt lat="42.8345987666" lon="-8.4993871953">
        <ele>227.49</ele>
        <time>2020-08-15T12:53:09Z</time>
      </trkpt>
      <trkpt lat="42.8346239123" lon="-8.4995159414">
        <ele>229.41</ele>
        <time>2020-08-15T12:53:17Z</time>
      </trkpt>
      <trkpt lat="42.8346326295" lon="-8.4995788895">
        <ele>230.37</ele>
        <time>2020-08-15T12:53:21Z</time>
      </trkpt>
      <trkpt lat="42.8346366528" lon="-8.4995919652">
        <ele>230.37</ele>
        <time>2020-08-15T12:53:22Z</time>
      </trkpt>
      <trkpt lat="42.8346523270" lon="-8.4996999241">
        <ele>231.81</ele>
        <time>2020-08-15T12:53:29Z</time>
      </trkpt>
      <trkpt lat="42.8346611280" lon="-8.4998212941">
        <ele>233.74</ele>
        <time>2020-08-15T12:53:37Z</time>
      </trkpt>
      <trkpt lat="42.8346631397" lon="-8.4998703282">
        <ele>234.22</ele>
        <time>2020-08-15T12:53:40Z</time>
      </trkpt>
      <trkpt lat="42.8346659057" lon="-8.4998865053">
        <ele>234.70</ele>
        <time>2020-08-15T12:53:41Z</time>
      </trkpt>
      <trkpt lat="42.8346711863" lon="-8.4999032691">
        <ele>235.18</ele>
        <time>2020-08-15T12:53:42Z</time>
      </trkpt>
      <trkpt lat="42.8346918896" lon="-8.4999911953">
        <ele>237.58</ele>
        <time>2020-08-15T12:53:48Z</time>
      </trkpt>
      <trkpt lat="42.8347080667" lon="-8.5001365375">
        <ele>239.51</ele>
        <time>2020-08-15T12:53:56Z</time>
      </trkpt>
      <trkpt lat="42.8347550891" lon="-8.5003392957">
        <ele>241.43</ele>
        <time>2020-08-15T12:54:06Z</time>
      </trkpt>
      <trkpt lat="42.8347845934" lon="-8.5005029943">
        <ele>241.43</ele>
        <time>2020-08-15T12:54:14Z</time>
      </trkpt>
      <trkpt lat="42.8348154388" lon="-8.5006495100">
        <ele>241.43</ele>
        <time>2020-08-15T12:54:24Z</time>
      </trkpt>
      <trkpt lat="42.8348161094" lon="-8.5006591491">
        <ele>240.47</ele>
        <time>2020-08-15T12:54:30Z</time>
      </trkpt>
      <trkpt lat="42.8348097391" lon="-8.5006645136">
        <ele>239.99</ele>
        <time>2020-08-15T12:54:46Z</time>
      </trkpt>
      <trkpt lat="42.8348071408" lon="-8.5006526113">
        <ele>240.47</ele>
        <time>2020-08-15T12:55:10Z</time>
      </trkpt>
      <trkpt lat="42.8348169476" lon="-8.5006687045">
        <ele>240.47</ele>
        <time>2020-08-15T12:55:28Z</time>
      </trkpt>
      <trkpt lat="42.8348147683" lon="-8.5006889887">
        <ele>240.47</ele>
        <time>2020-08-15T12:55:30Z</time>
      </trkpt>
      <trkpt lat="42.8348161094" lon="-8.5007054172">
        <ele>240.47</ele>
        <time>2020-08-15T12:55:31Z</time>
      </trkpt>
      <trkpt lat="42.8348186240" lon="-8.5007266235">
        <ele>240.47</ele>
        <time>2020-08-15T12:55:32Z</time>
      </trkpt>
      <trkpt lat="42.8348225635" lon="-8.5007510148">
        <ele>240.47</ele>
        <time>2020-08-15T12:55:33Z</time>
      </trkpt>
      <trkpt lat="42.8348265868" lon="-8.5007824469">
        <ele>240.47</ele>
        <time>2020-08-15T12:55:34Z</time>
      </trkpt>
      <trkpt lat="42.8348757885" lon="-8.5010711197">
        <ele>238.54</ele>
        <time>2020-08-15T12:55:40Z</time>
      </trkpt>
      <trkpt lat="42.8349487111" lon="-8.5015307833">
        <ele>236.14</ele>
        <time>2020-08-15T12:55:46Z</time>
      </trkpt>
      <trkpt lat="42.8350924607" lon="-8.5024845600">
        <ele>232.30</ele>
        <time>2020-08-15T12:55:56Z</time>
      </trkpt>
      <trkpt lat="42.8352684807" lon="-8.5036638938">
        <ele>227.01</ele>
        <time>2020-08-15T12:56:08Z</time>
      </trkpt>
      <trkpt lat="42.8353765234" lon="-8.5043793730">
        <ele>221.72</ele>
        <time>2020-08-15T12:56:17Z</time>
      </trkpt>
      <trkpt lat="42.8354455903" lon="-8.5046950355">
        <ele>217.88</ele>
        <time>2020-08-15T12:56:23Z</time>
      </trkpt>
      <trkpt lat="42.8354837280" lon="-8.5047357716">
        <ele>217.40</ele>
        <time>2020-08-15T12:56:24Z</time>
      </trkpt>
      <trkpt lat="42.8355183452" lon="-8.5047433991">
        <ele>216.91</ele>
        <time>2020-08-15T12:56:25Z</time>
      </trkpt>
      <trkpt lat="42.8355430719" lon="-8.5047418904">
        <ele>216.43</ele>
        <time>2020-08-15T12:56:26Z</time>
      </trkpt>
      <trkpt lat="42.8357189242" lon="-8.5047367774">
        <ele>217.40</ele>
        <time>2020-08-15T12:56:33Z</time>
      </trkpt>
      <trkpt lat="42.8358743247" lon="-8.5047718976">
        <ele>218.36</ele>
        <time>2020-08-15T12:56:40Z</time>
      </trkpt>
      <trkpt lat="42.8361108620" lon="-8.5048552975">
        <ele>219.80</ele>
        <time>2020-08-15T12:56:49Z</time>
      </trkpt>
      <trkpt lat="42.8363359999" lon="-8.5049376916">
        <ele>220.76</ele>
        <time>2020-08-15T12:56:58Z</time>
      </trkpt>
      <trkpt lat="42.8364983574" lon="-8.5050544515">
        <ele>220.28</ele>
        <time>2020-08-15T12:57:05Z</time>
      </trkpt>
      <trkpt lat="42.8366475552" lon="-8.5052979458">
        <ele>218.84</ele>
        <time>2020-08-15T12:57:12Z</time>
      </trkpt>
      <trkpt lat="42.8369154409" lon="-8.5057140235">
        <ele>218.36</ele>
        <time>2020-08-15T12:57:21Z</time>
      </trkpt>
      <trkpt lat="42.8369732760" lon="-8.5058108345">
        <ele>218.36</ele>
        <time>2020-08-15T12:57:23Z</time>
      </trkpt>
      <trkpt lat="42.8372505493" lon="-8.5061521456">
        <ele>218.36</ele>
        <time>2020-08-15T12:57:32Z</time>
      </trkpt>
      <trkpt lat="42.8375259787" lon="-8.5064624436">
        <ele>218.84</ele>
        <time>2020-08-15T12:57:42Z</time>
      </trkpt>
      <trkpt lat="42.8378220275" lon="-8.5068211053">
        <ele>218.84</ele>
        <time>2020-08-15T12:57:52Z</time>
      </trkpt>
      <trkpt lat="42.8380003106" lon="-8.5070279706">
        <ele>217.88</ele>
        <time>2020-08-15T12:57:59Z</time>
      </trkpt>
      <trkpt lat="42.8380110394" lon="-8.5070672818">
        <ele>217.88</ele>
        <time>2020-08-15T12:58:00Z</time>
      </trkpt>
      <trkpt lat="42.8380111232" lon="-8.5071086045">
        <ele>217.88</ele>
        <time>2020-08-15T12:58:02Z</time>
      </trkpt>
      <trkpt lat="42.8379392065" lon="-8.5072465707">
        <ele>216.91</ele>
        <time>2020-08-15T12:58:05Z</time>
      </trkpt>
      <trkpt lat="42.8379199281" lon="-8.5072820261">
        <ele>216.91</ele>
        <time>2020-08-15T12:58:06Z</time>
      </trkpt>
      <trkpt lat="42.8378941119" lon="-8.5073282104">
        <ele>216.43</ele>
        <time>2020-08-15T12:58:07Z</time>
      </trkpt>
      <trkpt lat="42.8378641047" lon="-8.5073785018">
        <ele>216.43</ele>
        <time>2020-08-15T12:58:08Z</time>
      </trkpt>
      <trkpt lat="42.8376221191" lon="-8.5077412706">
        <ele>213.07</ele>
        <time>2020-08-15T12:58:16Z</time>
      </trkpt>
      <trkpt lat="42.8375680558" lon="-8.5079246666">
        <ele>212.11</ele>
        <time>2020-08-15T12:58:21Z</time>
      </trkpt>
      <trkpt lat="42.8375700675" lon="-8.5080047976">
        <ele>211.63</ele>
        <time>2020-08-15T12:58:24Z</time>
      </trkpt>
      <trkpt lat="42.8375837300" lon="-8.5080225673">
        <ele>212.11</ele>
        <time>2020-08-15T12:58:25Z</time>
      </trkpt>
      <trkpt lat="42.8375926986" lon="-8.5080275964">
        <ele>212.11</ele>
        <time>2020-08-15T12:58:26Z</time>
      </trkpt>
      <trkpt lat="42.8376108035" lon="-8.5080327094">
        <ele>212.11</ele>
        <time>2020-08-15T12:58:27Z</time>
      </trkpt>
      <trkpt lat="42.8376285732" lon="-8.5080351401">
        <ele>212.59</ele>
        <time>2020-08-15T12:58:28Z</time>
      </trkpt>
      <trkpt lat="42.8376469295" lon="-8.5080392472">
        <ele>212.59</ele>
        <time>2020-08-15T12:58:29Z</time>
      </trkpt>
      <trkpt lat="42.8376663756" lon="-8.5080424324">
        <ele>213.07</ele>
        <time>2020-08-15T12:58:30Z</time>
      </trkpt>
      <trkpt lat="42.8378614224" lon="-8.5080618784">
        <ele>215.47</ele>
        <time>2020-08-15T12:58:39Z</time>
      </trkpt>
      <trkpt lat="42.8381310683" lon="-8.5081232339">
        <ele>216.43</ele>
        <time>2020-08-15T12:58:49Z</time>
      </trkpt>
      <trkpt lat="42.8383752331" lon="-8.5081556719">
        <ele>217.88</ele>
        <time>2020-08-15T12:58:57Z</time>
      </trkpt>
      <trkpt lat="42.8387394268" lon="-8.5081883613">
        <ele>217.88</ele>
        <time>2020-08-15T12:59:08Z</time>
      </trkpt>
      <trkpt lat="42.8391154390" lon="-8.5082678217">
        <ele>217.40</ele>
        <time>2020-08-15T12:59:17Z</time>
      </trkpt>
      <trkpt lat="42.8395623621" lon="-8.5084281676">
        <ele>216.43</ele>
        <time>2020-08-15T12:59:27Z</time>
      </trkpt>
      <trkpt lat="42.8398615960" lon="-8.5085259844">
        <ele>215.47</ele>
        <time>2020-08-15T12:59:35Z</time>
      </trkpt>
      <trkpt lat="42.8402068466" lon="-8.5086475220">
        <ele>212.11</ele>
        <time>2020-08-15T12:59:43Z</time>
      </trkpt>
      <trkpt lat="42.8402410448" lon="-8.5086746793">
        <ele>212.11</ele>
        <time>2020-08-15T12:59:44Z</time>
      </trkpt>
      <trkpt lat="42.8402787633" lon="-8.5087194387">
        <ele>211.63</ele>
        <time>2020-08-15T12:59:45Z</time>
      </trkpt>
      <trkpt lat="42.8403050825" lon="-8.5087704007">
        <ele>211.15</ele>
        <time>2020-08-15T12:59:46Z</time>
      </trkpt>
      <trkpt lat="42.8403253667" lon="-8.5088278167">
        <ele>210.67</ele>
        <time>2020-08-15T12:59:47Z</time>
      </trkpt>
      <trkpt lat="42.8403455671" lon="-8.5089024156">
        <ele>209.70</ele>
        <time>2020-08-15T12:59:48Z</time>
      </trkpt>
      <trkpt lat="42.8404324036" lon="-8.5093793459">
        <ele>204.42</ele>
        <time>2020-08-15T12:59:56Z</time>
      </trkpt>
      <trkpt lat="42.8405184019" lon="-8.5098360758">
        <ele>199.13</ele>
        <time>2020-08-15T13:00:03Z</time>
      </trkpt>
      <trkpt lat="42.8406185657" lon="-8.5103694163">
        <ele>193.84</ele>
        <time>2020-08-15T13:00:11Z</time>
      </trkpt>
      <trkpt lat="42.8407188132" lon="-8.5106774513">
        <ele>190.00</ele>
        <time>2020-08-15T13:00:16Z</time>
      </trkpt>
      <trkpt lat="42.8407404386" lon="-8.5107292514">
        <ele>189.04</ele>
        <time>2020-08-15T13:00:17Z</time>
      </trkpt>
      <trkpt lat="42.8408789076" lon="-8.5110374540">
        <ele>183.75</ele>
        <time>2020-08-15T13:00:25Z</time>
      </trkpt>
      <trkpt lat="42.8409846872" lon="-8.5112822894">
        <ele>180.87</ele>
        <time>2020-08-15T13:00:29Z</time>
      </trkpt>
      <trkpt lat="42.8411870264" lon="-8.5117691942">
        <ele>176.06</ele>
        <time>2020-08-15T13:00:34Z</time>
      </trkpt>
      <trkpt lat="42.8414229769" lon="-8.5122792330">
        <ele>170.29</ele>
        <time>2020-08-15T13:00:40Z</time>
      </trkpt>
      <trkpt lat="42.8415901121" lon="-8.5126351286">
        <ele>166.45</ele>
        <time>2020-08-15T13:00:46Z</time>
      </trkpt>
      <trkpt lat="42.8416300099" lon="-8.5126730986">
        <ele>166.45</ele>
        <time>2020-08-15T13:00:47Z</time>
      </trkpt>
      <trkpt lat="42.8416903596" lon="-8.5126943886">
        <ele>165.96</ele>
        <time>2020-08-15T13:00:48Z</time>
      </trkpt>
      <trkpt lat="42.8417439200" lon="-8.5126855876">
        <ele>165.96</ele>
        <time>2020-08-15T13:00:49Z</time>
      </trkpt>
      <trkpt lat="42.8417803813" lon="-8.5126694944">
        <ele>165.96</ele>
        <time>2020-08-15T13:00:50Z</time>
      </trkpt>
      <trkpt lat="42.8418235481" lon="-8.5126440134">
        <ele>165.96</ele>
        <time>2020-08-15T13:00:51Z</time>
      </trkpt>
      <trkpt lat="42.8420768492" lon="-8.5125035327">
        <ele>166.93</ele>
        <time>2020-08-15T13:00:58Z</time>
      </trkpt>
      <trkpt lat="42.8423264623" lon="-8.5123807378">
        <ele>168.37</ele>
        <time>2020-08-15T13:01:07Z</time>
      </trkpt>
      <trkpt lat="42.8426638339" lon="-8.5122195538">
        <ele>168.85</ele>
        <time>2020-08-15T13:01:18Z</time>
      </trkpt>
      <trkpt lat="42.8427205794" lon="-8.5122462083">
        <ele>168.37</ele>
        <time>2020-08-15T13:01:20Z</time>
      </trkpt>
      <trkpt lat="42.8427422885" lon="-8.5122778919">
        <ele>167.89</ele>
        <time>2020-08-15T13:01:21Z</time>
      </trkpt>
      <trkpt lat="42.8427596390" lon="-8.5123115871">
        <ele>167.89</ele>
        <time>2020-08-15T13:01:22Z</time>
      </trkpt>
      <trkpt lat="42.8428976052" lon="-8.5126693267">
        <ele>165.96</ele>
        <time>2020-08-15T13:01:28Z</time>
      </trkpt>
      <trkpt lat="42.8430929035" lon="-8.5132028349">
        <ele>165.00</ele>
        <time>2020-08-15T13:01:35Z</time>
      </trkpt>
      <trkpt lat="42.8432380781" lon="-8.5136183258">
        <ele>165.00</ele>
        <time>2020-08-15T13:01:42Z</time>
      </trkpt>
      <trkpt lat="42.8434185404" lon="-8.5141178034">
        <ele>164.04</ele>
        <time>2020-08-15T13:01:52Z</time>
      </trkpt>
      <trkpt lat="42.8436130006" lon="-8.5146482103">
        <ele>163.08</ele>
        <time>2020-08-15T13:02:02Z</time>
      </trkpt>
      <trkpt lat="42.8437927086" lon="-8.5151689779">
        <ele>159.72</ele>
        <time>2020-08-15T13:02:11Z</time>
      </trkpt>
      <trkpt lat="42.8439144976" lon="-8.5155146476">
        <ele>156.83</ele>
        <time>2020-08-15T13:02:17Z</time>
      </trkpt>
      <trkpt lat="42.8440833092" lon="-8.5159821901">
        <ele>152.99</ele>
        <time>2020-08-15T13:02:22Z</time>
      </trkpt>
      <trkpt lat="42.8443863150" lon="-8.5168652236">
        <ele>146.74</ele>
        <time>2020-08-15T13:02:30Z</time>
      </trkpt>
      <trkpt lat="42.8445259575" lon="-8.5174242128">
        <ele>145.30</ele>
        <time>2020-08-15T13:02:36Z</time>
      </trkpt>
      <trkpt lat="42.8447184060" lon="-8.5182173923">
        <ele>142.89</ele>
        <time>2020-08-15T13:02:45Z</time>
      </trkpt>
      <trkpt lat="42.8447986208" lon="-8.5185021255">
        <ele>142.41</ele>
        <time>2020-08-15T13:02:50Z</time>
      </trkpt>
      <trkpt lat="42.8449457232" lon="-8.5189777147">
        <ele>139.05</ele>
        <time>2020-08-15T13:02:58Z</time>
      </trkpt>
      <trkpt lat="42.8451237548" lon="-8.5195257235">
        <ele>137.61</ele>
        <time>2020-08-15T13:03:05Z</time>
      </trkpt>
      <trkpt lat="42.8452117648" lon="-8.5197983868">
        <ele>136.16</ele>
        <time>2020-08-15T13:03:10Z</time>
      </trkpt>
      <trkpt lat="42.8452695161" lon="-8.5199441481">
        <ele>135.68</ele>
        <time>2020-08-15T13:03:16Z</time>
      </trkpt>
      <trkpt lat="42.8453049716" lon="-8.5200448148">
        <ele>134.72</ele>
        <time>2020-08-15T13:03:18Z</time>
      </trkpt>
      <trkpt lat="42.8453312069" lon="-8.5200902447">
        <ele>134.72</ele>
        <time>2020-08-15T13:03:19Z</time>
      </trkpt>
      <trkpt lat="42.8453685064" lon="-8.5201409552">
        <ele>134.24</ele>
        <time>2020-08-15T13:03:20Z</time>
      </trkpt>
      <trkpt lat="42.8456494678" lon="-8.5204406921">
        <ele>133.28</ele>
        <time>2020-08-15T13:03:27Z</time>
      </trkpt>
      <trkpt lat="42.8456833307" lon="-8.5204587970">
        <ele>133.28</ele>
        <time>2020-08-15T13:03:28Z</time>
      </trkpt>
      <trkpt lat="42.8457180317" lon="-8.5204759799">
        <ele>133.28</ele>
        <time>2020-08-15T13:03:29Z</time>
      </trkpt>
      <trkpt lat="42.8460071236" lon="-8.5206722002">
        <ele>132.80</ele>
        <time>2020-08-15T13:03:37Z</time>
      </trkpt>
      <trkpt lat="42.8462268133" lon="-8.5208575241">
        <ele>132.80</ele>
        <time>2020-08-15T13:03:44Z</time>
      </trkpt>
      <trkpt lat="42.8464599978" lon="-8.5211044550">
        <ele>133.28</ele>
        <time>2020-08-15T13:03:50Z</time>
      </trkpt>
      <trkpt lat="42.8466927633" lon="-8.5214238055">
        <ele>134.72</ele>
        <time>2020-08-15T13:03:57Z</time>
      </trkpt>
      <trkpt lat="42.8468122054" lon="-8.5216092132">
        <ele>135.68</ele>
        <time>2020-08-15T13:04:03Z</time>
      </trkpt>
      <trkpt lat="42.8469861299" lon="-8.5218983050">
        <ele>137.13</ele>
        <time>2020-08-15T13:04:12Z</time>
      </trkpt>
      <trkpt lat="42.8471237607" lon="-8.5220952798">
        <ele>138.09</ele>
        <time>2020-08-15T13:04:19Z</time>
      </trkpt>
      <trkpt lat="42.8471912351" lon="-8.5221965332">
        <ele>139.53</ele>
        <time>2020-08-15T13:04:25Z</time>
      </trkpt>
      <trkpt lat="42.8472882975" lon="-8.5222790111">
        <ele>143.37</ele>
        <time>2020-08-15T13:04:32Z</time>
      </trkpt>
      <trkpt lat="42.8474719450" lon="-8.5224339087">
        <ele>144.34</ele>
        <time>2020-08-15T13:04:43Z</time>
      </trkpt>
      <trkpt lat="42.8475592006" lon="-8.5224914085">
        <ele>144.82</ele>
        <time>2020-08-15T13:04:49Z</time>
      </trkpt>
      <trkpt lat="42.8477094043" lon="-8.5226225015">
        <ele>146.26</ele>
        <time>2020-08-15T13:04:59Z</time>
      </trkpt>
      <trkpt lat="42.8478310257" lon="-8.5227274429">
        <ele>149.14</ele>
        <time>2020-08-15T13:05:07Z</time>
      </trkpt>
      <trkpt lat="42.8479404096" lon="-8.5228179675">
        <ele>151.06</ele>
        <time>2020-08-15T13:05:15Z</time>
      </trkpt>
      <trkpt lat="42.8480789624" lon="-8.5229133535">
        <ele>152.03</ele>
        <time>2020-08-15T13:05:25Z</time>
      </trkpt>
      <trkpt lat="42.8482486960" lon="-8.5229487251">
        <ele>152.51</ele>
        <time>2020-08-15T13:05:34Z</time>
      </trkpt>
      <trkpt lat="42.8484099638" lon="-8.5229950771">
        <ele>154.91</ele>
        <time>2020-08-15T13:05:43Z</time>
      </trkpt>
      <trkpt lat="42.8485470079" lon="-8.5230260901">
        <ele>155.87</ele>
        <time>2020-08-15T13:05:51Z</time>
      </trkpt>
      <trkpt lat="42.8487081081" lon="-8.5230669938">
        <ele>156.35</ele>
        <time>2020-08-15T13:06:00Z</time>
      </trkpt>
      <trkpt lat="42.8488607425" lon="-8.5231209733">
        <ele>157.79</ele>
        <time>2020-08-15T13:06:09Z</time>
      </trkpt>
      <trkpt lat="42.8490049951" lon="-8.5231862683">
        <ele>161.64</ele>
        <time>2020-08-15T13:06:19Z</time>
      </trkpt>
      <trkpt lat="42.8491565399" lon="-8.5232467856">
        <ele>163.08</ele>
        <time>2020-08-15T13:06:28Z</time>
      </trkpt>
      <trkpt lat="42.8493159637" lon="-8.5233471170">
        <ele>163.08</ele>
        <time>2020-08-15T13:06:38Z</time>
      </trkpt>
      <trkpt lat="42.8494393453" lon="-8.5234193690">
        <ele>162.12</ele>
        <time>2020-08-15T13:06:45Z</time>
      </trkpt>
      <trkpt lat="42.8496020380" lon="-8.5235333629">
        <ele>163.56</ele>
        <time>2020-08-15T13:06:54Z</time>
      </trkpt>
      <trkpt lat="42.8497591149" lon="-8.5236377176">
        <ele>165.48</ele>
        <time>2020-08-15T13:07:03Z</time>
      </trkpt>
      <trkpt lat="42.8499437682" lon="-8.5237688944">
        <ele>165.96</ele>
        <time>2020-08-15T13:07:13Z</time>
      </trkpt>
      <trkpt lat="42.8500990011" lon="-8.5238838941">
        <ele>168.37</ele>
        <time>2020-08-15T13:07:22Z</time>
      </trkpt>
      <trkpt lat="42.8502336144" lon="-8.5240142327">
        <ele>168.85</ele>
        <time>2020-08-15T13:07:30Z</time>
      </trkpt>
      <trkpt lat="42.8503488656" lon="-8.5241330881">
        <ele>169.33</ele>
        <time>2020-08-15T13:07:38Z</time>
      </trkpt>
      <trkpt lat="42.8504004981" lon="-8.5241698846">
        <ele>169.81</ele>
        <time>2020-08-15T13:07:45Z</time>
      </trkpt>
      <trkpt lat="42.8504072875" lon="-8.5241788533">
        <ele>169.81</ele>
        <time>2020-08-15T13:07:46Z</time>
      </trkpt>
      <trkpt lat="42.8504156694" lon="-8.5241884086">
        <ele>169.81</ele>
        <time>2020-08-15T13:07:47Z</time>
      </trkpt>
      <trkpt lat="42.8504263982" lon="-8.5241945274">
        <ele>169.81</ele>
        <time>2020-08-15T13:07:48Z</time>
      </trkpt>
      <trkpt lat="42.8504383005" lon="-8.5242020711">
        <ele>169.81</ele>
        <time>2020-08-15T13:07:49Z</time>
      </trkpt>
      <trkpt lat="42.8504558187" lon="-8.5242061783">
        <ele>169.81</ele>
        <time>2020-08-15T13:07:50Z</time>
      </trkpt>
      <trkpt lat="42.8504779469" lon="-8.5242078546">
        <ele>170.29</ele>
        <time>2020-08-15T13:07:52Z</time>
      </trkpt>
      <trkpt lat="42.8506432381" lon="-8.5242604092">
        <ele>171.25</ele>
        <time>2020-08-15T13:08:00Z</time>
      </trkpt>
      <trkpt lat="42.8508633468" lon="-8.5243640933">
        <ele>170.29</ele>
        <time>2020-08-15T13:08:11Z</time>
      </trkpt>
      <trkpt lat="42.8510297276" lon="-8.5244396981">
        <ele>169.81</ele>
        <time>2020-08-15T13:08:19Z</time>
      </trkpt>
      <trkpt lat="42.8512512613" lon="-8.5245363414">
        <ele>171.73</ele>
        <time>2020-08-15T13:08:30Z</time>
      </trkpt>
      <trkpt lat="42.8514875472" lon="-8.5246417020">
        <ele>172.21</ele>
        <time>2020-08-15T13:08:41Z</time>
      </trkpt>
      <trkpt lat="42.8517053090" lon="-8.5247424524">
        <ele>171.73</ele>
        <time>2020-08-15T13:08:51Z</time>
      </trkpt>
      <trkpt lat="42.8519243281" lon="-8.5248280317">
        <ele>171.73</ele>
        <time>2020-08-15T13:09:01Z</time>
      </trkpt>
      <trkpt lat="42.8521372285" lon="-8.5248923209">
        <ele>172.69</ele>
        <time>2020-08-15T13:09:11Z</time>
      </trkpt>
      <trkpt lat="42.8522816487" lon="-8.5249120183">
        <ele>173.66</ele>
        <time>2020-08-15T13:09:18Z</time>
      </trkpt>
      <trkpt lat="42.8523937147" lon="-8.5249325540">
        <ele>175.10</ele>
        <time>2020-08-15T13:09:25Z</time>
      </trkpt>
      <trkpt lat="42.8525242209" lon="-8.5249675903">
        <ele>177.50</ele>
        <time>2020-08-15T13:09:34Z</time>
      </trkpt>
      <trkpt lat="42.8526812140" lon="-8.5249624774">
        <ele>180.38</ele>
        <time>2020-08-15T13:09:44Z</time>
      </trkpt>
      <trkpt lat="42.8527901787" lon="-8.5249883775">
        <ele>182.31</ele>
        <time>2020-08-15T13:09:51Z</time>
      </trkpt>
      <trkpt lat="42.8529586550" lon="-8.5249973461">
        <ele>185.67</ele>
        <time>2020-08-15T13:10:01Z</time>
      </trkpt>
      <trkpt lat="42.8530747443" lon="-8.5250152834">
        <ele>185.67</ele>
        <time>2020-08-15T13:10:10Z</time>
      </trkpt>
      <trkpt lat="42.8531694598" lon="-8.5250247549">
        <ele>186.15</ele>
        <time>2020-08-15T13:10:17Z</time>
      </trkpt>
      <trkpt lat="42.8532624990" lon="-8.5250136070">
        <ele>186.63</ele>
        <time>2020-08-15T13:10:25Z</time>
      </trkpt>
      <trkpt lat="42.8533545323" lon="-8.5250175465">
        <ele>187.11</ele>
        <time>2020-08-15T13:10:33Z</time>
      </trkpt>
      <trkpt lat="42.8533814382" lon="-8.5250245873">
        <ele>188.08</ele>
        <time>2020-08-15T13:10:36Z</time>
      </trkpt>
      <trkpt lat="42.8533940110" lon="-8.5250293650">
        <ele>188.08</ele>
        <time>2020-08-15T13:10:37Z</time>
      </trkpt>
      <trkpt lat="42.8534060810" lon="-8.5250330530">
        <ele>188.56</ele>
        <time>2020-08-15T13:10:38Z</time>
      </trkpt>
      <trkpt lat="42.8534178995" lon="-8.5250379983">
        <ele>189.04</ele>
        <time>2020-08-15T13:10:39Z</time>
      </trkpt>
      <trkpt lat="42.8535021376" lon="-8.5250703525">
        <ele>189.04</ele>
        <time>2020-08-15T13:10:47Z</time>
      </trkpt>
      <trkpt lat="42.8536113538" lon="-8.5251148604">
        <ele>188.08</ele>
        <time>2020-08-15T13:10:56Z</time>
      </trkpt>
      <trkpt lat="42.8536855336" lon="-8.5251468793">
        <ele>189.52</ele>
        <time>2020-08-15T13:11:03Z</time>
      </trkpt>
      <trkpt lat="42.8537584562" lon="-8.5251704324">
        <ele>190.96</ele>
        <time>2020-08-15T13:11:11Z</time>
      </trkpt>
      <trkpt lat="42.8538089152" lon="-8.5251659062">
        <ele>191.44</ele>
        <time>2020-08-15T13:11:23Z</time>
      </trkpt>
      <trkpt lat="42.8538012039" lon="-8.5251682531">
        <ele>195.28</ele>
        <time>2020-08-15T13:11:40Z</time>
      </trkpt>
      <trkpt lat="42.8538263496" lon="-8.5251839273">
        <ele>195.77</ele>
        <time>2020-08-15T13:11:49Z</time>
      </trkpt>
      <trkpt lat="42.8538785689" lon="-8.5251831729">
        <ele>196.73</ele>
        <time>2020-08-15T13:12:01Z</time>
      </trkpt>
      <trkpt lat="42.8539468814" lon="-8.5252372362">
        <ele>201.05</ele>
        <time>2020-08-15T13:12:10Z</time>
      </trkpt>
      <trkpt lat="42.8540439438" lon="-8.5252888687">
        <ele>200.57</ele>
        <time>2020-08-15T13:12:20Z</time>
      </trkpt>
      <trkpt lat="42.8541358095" lon="-8.5253323708">
        <ele>202.01</ele>
        <time>2020-08-15T13:12:32Z</time>
      </trkpt>
      <trkpt lat="42.8542044573" lon="-8.5253731906">
        <ele>204.42</ele>
        <time>2020-08-15T13:12:41Z</time>
      </trkpt>
      <trkpt lat="42.8543205466" lon="-8.5253968276">
        <ele>203.46</ele>
        <time>2020-08-15T13:12:51Z</time>
      </trkpt>
      <trkpt lat="42.8544296790" lon="-8.5254098196">
        <ele>202.49</ele>
        <time>2020-08-15T13:13:02Z</time>
      </trkpt>
      <trkpt lat="42.8545336984" lon="-8.5254581831">
        <ele>203.94</ele>
        <time>2020-08-15T13:13:11Z</time>
      </trkpt>
      <trkpt lat="42.8546333592" lon="-8.5254983325">
        <ele>202.98</ele>
        <time>2020-08-15T13:13:21Z</time>
      </trkpt>
      <trkpt lat="42.8547111433" lon="-8.5255219694">
        <ele>203.94</ele>
        <time>2020-08-15T13:13:30Z</time>
      </trkpt>
      <trkpt lat="42.8547849879" lon="-8.5255749431">
        <ele>205.86</ele>
        <time>2020-08-15T13:13:38Z</time>
      </trkpt>
      <trkpt lat="42.8548951261" lon="-8.5256074648">
        <ele>208.26</ele>
        <time>2020-08-15T13:13:47Z</time>
      </trkpt>
      <trkpt lat="42.8549722396" lon="-8.5256556608">
        <ele>212.59</ele>
        <time>2020-08-15T13:13:55Z</time>
      </trkpt>
      <trkpt lat="42.8550644405" lon="-8.5256963968">
        <ele>215.47</ele>
        <time>2020-08-15T13:14:04Z</time>
      </trkpt>
      <trkpt lat="42.8550968785" lon="-8.5257155914">
        <ele>215.47</ele>
        <time>2020-08-15T13:14:13Z</time>
      </trkpt>
      <trkpt lat="42.8551324178" lon="-8.5257389769">
        <ele>217.40</ele>
        <time>2020-08-15T13:14:21Z</time>
      </trkpt>
      <trkpt lat="42.8552516922" lon="-8.5257606022">
        <ele>221.72</ele>
        <time>2020-08-15T13:14:28Z</time>
      </trkpt>
      <trkpt lat="42.8553850483" lon="-8.5258042719">
        <ele>222.68</ele>
        <time>2020-08-15T13:14:35Z</time>
      </trkpt>
      <trkpt lat="42.8555201646" lon="-8.5258545633">
        <ele>223.16</ele>
        <time>2020-08-15T13:14:43Z</time>
      </trkpt>
      <trkpt lat="42.8556439653" lon="-8.5258909408">
        <ele>222.20</ele>
        <time>2020-08-15T13:14:50Z</time>
      </trkpt>
      <trkpt lat="42.8557873797" lon="-8.5259315092">
        <ele>223.64</ele>
        <time>2020-08-15T13:14:58Z</time>
      </trkpt>
      <trkpt lat="42.8558955062" lon="-8.5259614326">
        <ele>222.20</ele>
        <time>2020-08-15T13:15:04Z</time>
      </trkpt>
      <trkpt lat="42.8560587857" lon="-8.5260127299">
        <ele>220.28</ele>
        <time>2020-08-15T13:15:12Z</time>
      </trkpt>
      <trkpt lat="42.8562068939" lon="-8.5260709841">
        <ele>219.80</ele>
        <time>2020-08-15T13:15:19Z</time>
      </trkpt>
      <trkpt lat="42.8562583588" lon="-8.5260759294">
        <ele>218.84</ele>
        <time>2020-08-15T13:15:23Z</time>
      </trkpt>
      <trkpt lat="42.8562705964" lon="-8.5260823835">
        <ele>218.84</ele>
        <time>2020-08-15T13:15:24Z</time>
      </trkpt>
      <trkpt lat="42.8563814890" lon="-8.5261320882">
        <ele>216.91</ele>
        <time>2020-08-15T13:15:30Z</time>
      </trkpt>
      <trkpt lat="42.8565244004" lon="-8.5261591617">
        <ele>217.88</ele>
        <time>2020-08-15T13:15:37Z</time>
      </trkpt>
      <trkpt lat="42.8565624543" lon="-8.5261601675">
        <ele>218.84</ele>
        <time>2020-08-15T13:15:39Z</time>
      </trkpt>
      <trkpt lat="42.8566803038" lon="-8.5262010712">
        <ele>219.80</ele>
        <time>2020-08-15T13:15:45Z</time>
      </trkpt>
      <trkpt lat="42.8567651287" lon="-8.5262357723">
        <ele>218.84</ele>
        <time>2020-08-15T13:15:53Z</time>
      </trkpt>
      <trkpt lat="42.8568889294" lon="-8.5263010673">
        <ele>219.32</ele>
        <time>2020-08-15T13:16:04Z</time>
      </trkpt>
      <trkpt lat="42.8569864947" lon="-8.5263742413">
        <ele>220.28</ele>
        <time>2020-08-15T13:16:15Z</time>
      </trkpt>
      <trkpt lat="42.8570857365" lon="-8.5264561325">
        <ele>220.76</ele>
        <time>2020-08-15T13:16:26Z</time>
      </trkpt>
      <trkpt lat="42.8572069388" lon="-8.5265682824">
        <ele>220.76</ele>
        <time>2020-08-15T13:16:38Z</time>
      </trkpt>
      <trkpt lat="42.8573065158" lon="-8.5266579688">
        <ele>221.24</ele>
        <time>2020-08-15T13:16:48Z</time>
      </trkpt>
      <trkpt lat="42.8573279735" lon="-8.5266653448">
        <ele>221.24</ele>
        <time>2020-08-15T13:16:50Z</time>
      </trkpt>
      <trkpt lat="42.8573391214" lon="-8.5266778339">
        <ele>222.20</ele>
        <time>2020-08-15T13:16:51Z</time>
      </trkpt>
      <trkpt lat="42.8573510237" lon="-8.5266829468">
        <ele>222.20</ele>
        <time>2020-08-15T13:16:52Z</time>
      </trkpt>
      <trkpt lat="42.8573618364" lon="-8.5266923346">
        <ele>222.68</ele>
        <time>2020-08-15T13:16:53Z</time>
      </trkpt>
      <trkpt lat="42.8574240301" lon="-8.5267360043">
        <ele>224.61</ele>
        <time>2020-08-15T13:16:59Z</time>
      </trkpt>
      <trkpt lat="42.8574347589" lon="-8.5267466493">
        <ele>224.61</ele>
        <time>2020-08-15T13:17:00Z</time>
      </trkpt>
      <trkpt lat="42.8575567156" lon="-8.5268326476">
        <ele>225.09</ele>
        <time>2020-08-15T13:17:10Z</time>
      </trkpt>
      <trkpt lat="42.8576241899" lon="-8.5268620681">
        <ele>226.53</ele>
        <time>2020-08-15T13:17:15Z</time>
      </trkpt>
      <trkpt lat="42.8576336615" lon="-8.5268667620">
        <ele>226.53</ele>
        <time>2020-08-15T13:17:16Z</time>
      </trkpt>
      <trkpt lat="42.8576781694" lon="-8.5268816818">
        <ele>227.01</ele>
        <time>2020-08-15T13:17:20Z</time>
      </trkpt>
      <trkpt lat="42.8576904908" lon="-8.5268799216">
        <ele>227.01</ele>
        <time>2020-08-15T13:17:21Z</time>
      </trkpt>
      <trkpt lat="42.8577077575" lon="-8.5268727131">
        <ele>227.01</ele>
        <time>2020-08-15T13:17:22Z</time>
      </trkpt>
      <trkpt lat="42.8577462304" lon="-8.5268513393">
        <ele>225.57</ele>
        <time>2020-08-15T13:17:29Z</time>
      </trkpt>
      <trkpt lat="42.8577422909" lon="-8.5268272832">
        <ele>227.01</ele>
        <time>2020-08-15T13:17:46Z</time>
      </trkpt>
      <trkpt lat="42.8577433806" lon="-8.5268471483">
        <ele>226.05</ele>
        <time>2020-08-15T13:18:02Z</time>
      </trkpt>
      <trkpt lat="42.8577429615" lon="-8.5268409457">
        <ele>225.57</ele>
        <time>2020-08-15T13:18:16Z</time>
      </trkpt>
      <trkpt lat="42.8577449732" lon="-8.5268428735">
        <ele>224.12</ele>
        <time>2020-08-15T13:18:28Z</time>
      </trkpt>
      <trkpt lat="42.8577691130" lon="-8.5268423706">
        <ele>224.12</ele>
        <time>2020-08-15T13:18:41Z</time>
      </trkpt>
      <trkpt lat="42.8581031319" lon="-8.5269274469">
        <ele>226.53</ele>
        <time>2020-08-15T13:19:03Z</time>
      </trkpt>
      <trkpt lat="42.8581641521" lon="-8.5270017106">
        <ele>228.45</ele>
        <time>2020-08-15T13:19:09Z</time>
      </trkpt>
      <trkpt lat="42.8581960034" lon="-8.5270572826">
        <ele>228.45</ele>
        <time>2020-08-15T13:19:10Z</time>
      </trkpt>
      <trkpt lat="42.8582278546" lon="-8.5271175485">
        <ele>227.97</ele>
        <time>2020-08-15T13:19:12Z</time>
      </trkpt>
      <trkpt lat="42.8582387511" lon="-8.5271404311">
        <ele>228.45</ele>
        <time>2020-08-15T13:19:13Z</time>
      </trkpt>
      <trkpt lat="42.8582426906" lon="-8.5273304489">
        <ele>230.85</ele>
        <time>2020-08-15T13:19:21Z</time>
      </trkpt>
      <trkpt lat="42.8582527488" lon="-8.5273710173">
        <ele>230.85</ele>
        <time>2020-08-15T13:19:23Z</time>
      </trkpt>
      <trkpt lat="42.8582607955" lon="-8.5273928102">
        <ele>230.85</ele>
        <time>2020-08-15T13:19:24Z</time>
      </trkpt>
      <trkpt lat="42.8582682554" lon="-8.5274138488">
        <ele>231.33</ele>
        <time>2020-08-15T13:19:25Z</time>
      </trkpt>
      <trkpt lat="42.8582882881" lon="-8.5274440236">
        <ele>230.85</ele>
        <time>2020-08-15T13:19:27Z</time>
      </trkpt>
      <trkpt lat="42.8583170380" lon="-8.5274743661">
        <ele>231.33</ele>
        <time>2020-08-15T13:19:28Z</time>
      </trkpt>
      <trkpt lat="42.8583286051" lon="-8.5274867713">
        <ele>231.33</ele>
        <time>2020-08-15T13:19:29Z</time>
      </trkpt>
      <trkpt lat="42.8583543375" lon="-8.5275114980">
        <ele>231.33</ele>
        <time>2020-08-15T13:19:31Z</time>
      </trkpt>
      <trkpt lat="42.8583765496" lon="-8.5275353026">
        <ele>231.33</ele>
        <time>2020-08-15T13:19:32Z</time>
      </trkpt>
      <trkpt lat="42.8585239034" lon="-8.5276403278">
        <ele>233.26</ele>
        <time>2020-08-15T13:19:41Z</time>
      </trkpt>
      <trkpt lat="42.8586542420" lon="-8.5277158488">
        <ele>233.26</ele>
        <time>2020-08-15T13:19:47Z</time>
      </trkpt>
      <trkpt lat="42.8588611912" lon="-8.5278764460">
        <ele>232.78</ele>
        <time>2020-08-15T13:19:57Z</time>
      </trkpt>
      <trkpt lat="42.8590028454" lon="-8.5280035995">
        <ele>233.26</ele>
        <time>2020-08-15T13:20:05Z</time>
      </trkpt>
      <trkpt lat="42.8590669669" lon="-8.5280793719">
        <ele>233.26</ele>
        <time>2020-08-15T13:20:09Z</time>
      </trkpt>
      <trkpt lat="42.8590783663" lon="-8.5281082895">
        <ele>232.78</ele>
        <time>2020-08-15T13:20:10Z</time>
      </trkpt>
      <trkpt lat="42.8590912744" lon="-8.5281355307">
        <ele>232.78</ele>
        <time>2020-08-15T13:20:11Z</time>
      </trkpt>
      <trkpt lat="42.8591021709" lon="-8.5281596705">
        <ele>232.78</ele>
        <time>2020-08-15T13:20:12Z</time>
      </trkpt>
      <trkpt lat="42.8591093794" lon="-8.5281810444">
        <ele>232.78</ele>
        <time>2020-08-15T13:20:13Z</time>
      </trkpt>
      <trkpt lat="42.8591184318" lon="-8.5282036755">
        <ele>232.30</ele>
        <time>2020-08-15T13:20:14Z</time>
      </trkpt>
      <trkpt lat="42.8591256402" lon="-8.5284117144">
        <ele>232.78</ele>
        <time>2020-08-15T13:20:22Z</time>
      </trkpt>
      <trkpt lat="42.8590890113" lon="-8.5286132153">
        <ele>234.22</ele>
        <time>2020-08-15T13:20:30Z</time>
      </trkpt>
      <trkpt lat="42.8590535559" lon="-8.5287914146">
        <ele>235.66</ele>
        <time>2020-08-15T13:20:37Z</time>
      </trkpt>
      <trkpt lat="42.8590994049" lon="-8.5288660135">
        <ele>235.66</ele>
        <time>2020-08-15T13:20:42Z</time>
      </trkpt>
      <trkpt lat="42.8592629358" lon="-8.5289011337">
        <ele>235.18</ele>
        <time>2020-08-15T13:20:52Z</time>
      </trkpt>
      <trkpt lat="42.8593785223" lon="-8.5289001279">
        <ele>234.70</ele>
        <time>2020-08-15T13:21:02Z</time>
      </trkpt>
      <trkpt lat="42.8593739122" lon="-8.5289293807">
        <ele>233.74</ele>
        <time>2020-08-15T13:21:14Z</time>
      </trkpt>
      <trkpt lat="42.8594164923" lon="-8.5289453901">
        <ele>232.78</ele>
        <time>2020-08-15T13:21:21Z</time>
      </trkpt>
      <trkpt lat="42.8595989663" lon="-8.5289598070">
        <ele>232.30</ele>
        <time>2020-08-15T13:21:31Z</time>
      </trkpt>
      <trkpt lat="42.8596371878" lon="-8.5288751498">
        <ele>232.78</ele>
        <time>2020-08-15T13:21:38Z</time>
      </trkpt>
      <trkpt lat="42.8596580587" lon="-8.5287640058">
        <ele>232.30</ele>
        <time>2020-08-15T13:21:46Z</time>
      </trkpt>
      <trkpt lat="42.8596604895" lon="-8.5287443921">
        <ele>232.30</ele>
        <time>2020-08-15T13:21:47Z</time>
      </trkpt>
      <trkpt lat="42.8597232699" lon="-8.5286185797">
        <ele>230.85</ele>
        <time>2020-08-15T13:21:55Z</time>
      </trkpt>
      <trkpt lat="42.8598412033" lon="-8.5285592359">
        <ele>230.85</ele>
        <time>2020-08-15T13:22:02Z</time>
      </trkpt>
      <trkpt lat="42.8600214981" lon="-8.5285730660">
        <ele>232.30</ele>
        <time>2020-08-15T13:22:10Z</time>
      </trkpt>
      <trkpt lat="42.8601818439" lon="-8.5285759158">
        <ele>232.78</ele>
        <time>2020-08-15T13:22:16Z</time>
      </trkpt>
      <trkpt lat="42.8604948241" lon="-8.5285632592">
        <ele>233.26</ele>
        <time>2020-08-15T13:22:26Z</time>
      </trkpt>
      <trkpt lat="42.8607787192" lon="-8.5285766702">
        <ele>233.74</ele>
        <time>2020-08-15T13:22:36Z</time>
      </trkpt>
      <trkpt lat="42.8610420786" lon="-8.5285462439">
        <ele>234.22</ele>
        <time>2020-08-15T13:22:45Z</time>
      </trkpt>
      <trkpt lat="42.8613123111" lon="-8.5285158176">
        <ele>235.18</ele>
        <time>2020-08-15T13:22:54Z</time>
      </trkpt>
      <trkpt lat="42.8615062684" lon="-8.5284981318">
        <ele>235.66</ele>
        <time>2020-08-15T13:23:01Z</time>
      </trkpt>
      <trkpt lat="42.8617760818" lon="-8.5284803621">
        <ele>238.06</ele>
        <time>2020-08-15T13:23:11Z</time>
      </trkpt>
      <trkpt lat="42.8620490804" lon="-8.5284371115">
        <ele>239.51</ele>
        <time>2020-08-15T13:23:21Z</time>
      </trkpt>
      <trkpt lat="42.8623644076" lon="-8.5283707269">
        <ele>241.43</ele>
        <time>2020-08-15T13:23:33Z</time>
      </trkpt>
      <trkpt lat="42.8625195567" lon="-8.5283766780">
        <ele>242.39</ele>
        <time>2020-08-15T13:23:41Z</time>
      </trkpt>
      <trkpt lat="42.8627217282" lon="-8.5284060985">
        <ele>243.35</ele>
        <time>2020-08-15T13:23:50Z</time>
      </trkpt>
      <trkpt lat="42.8629298508" lon="-8.5284884926">
        <ele>243.83</ele>
        <time>2020-08-15T13:24:00Z</time>
      </trkpt>
      <trkpt lat="42.8631160129" lon="-8.5285630915">
        <ele>245.27</ele>
        <time>2020-08-15T13:24:09Z</time>
      </trkpt>
      <trkpt lat="42.8632448427" lon="-8.5286107007">
        <ele>246.23</ele>
        <time>2020-08-15T13:24:16Z</time>
      </trkpt>
      <trkpt lat="42.8634103015" lon="-8.5286463238">
        <ele>246.72</ele>
        <time>2020-08-15T13:24:25Z</time>
      </trkpt>
      <trkpt lat="42.8635372873" lon="-8.5286707152">
        <ele>247.20</ele>
        <time>2020-08-15T13:24:33Z</time>
      </trkpt>
      <trkpt lat="42.8635623492" lon="-8.5286746547">
        <ele>247.68</ele>
        <time>2020-08-15T13:24:34Z</time>
      </trkpt>
      <trkpt lat="42.8637166601" lon="-8.5287202522">
        <ele>248.16</ele>
        <time>2020-08-15T13:24:43Z</time>
      </trkpt>
      <trkpt lat="42.8638716415" lon="-8.5287422128">
        <ele>251.52</ele>
        <time>2020-08-15T13:24:53Z</time>
      </trkpt>
      <trkpt lat="42.8640141338" lon="-8.5287971981">
        <ele>253.93</ele>
        <time>2020-08-15T13:25:02Z</time>
      </trkpt>
      <trkpt lat="42.8641375154" lon="-8.5288495850">
        <ele>254.89</ele>
        <time>2020-08-15T13:25:10Z</time>
      </trkpt>
      <trkpt lat="42.8641712107" lon="-8.5288706236">
        <ele>255.85</ele>
        <time>2020-08-15T13:25:16Z</time>
      </trkpt>
      <trkpt lat="42.8641755693" lon="-8.5288615711">
        <ele>255.37</ele>
        <time>2020-08-15T13:25:31Z</time>
      </trkpt>
      <trkpt lat="42.8641764913" lon="-8.5288605653">
        <ele>255.85</ele>
        <time>2020-08-15T13:25:44Z</time>
      </trkpt>
      <trkpt lat="42.8641700372" lon="-8.5288631637">
        <ele>254.89</ele>
        <time>2020-08-15T13:25:59Z</time>
      </trkpt>
      <trkpt lat="42.8641711269" lon="-8.5288621578">
        <ele>255.85</ele>
        <time>2020-08-15T13:26:16Z</time>
      </trkpt>
      <trkpt lat="42.8642008826" lon="-8.5288593918">
        <ele>256.33</ele>
        <time>2020-08-15T13:26:21Z</time>
      </trkpt>
      <trkpt lat="42.8642200772" lon="-8.5288572963">
        <ele>255.85</ele>
        <time>2020-08-15T13:26:22Z</time>
      </trkpt>
      <trkpt lat="42.8642348293" lon="-8.5288543627">
        <ele>255.85</ele>
        <time>2020-08-15T13:26:23Z</time>
      </trkpt>
      <trkpt lat="42.8642603103" lon="-8.5288487468">
        <ele>255.85</ele>
        <time>2020-08-15T13:26:24Z</time>
      </trkpt>
      <trkpt lat="42.8642855398" lon="-8.5288459808">
        <ele>255.85</ele>
        <time>2020-08-15T13:26:25Z</time>
      </trkpt>
      <trkpt lat="42.8643109370" lon="-8.5288419574">
        <ele>255.85</ele>
        <time>2020-08-15T13:26:26Z</time>
      </trkpt>
      <trkpt lat="42.8645379189" lon="-8.5288725514">
        <ele>256.81</ele>
        <time>2020-08-15T13:26:36Z</time>
      </trkpt>
      <trkpt lat="42.8647865262" lon="-8.5289675184">
        <ele>256.81</ele>
        <time>2020-08-15T13:26:47Z</time>
      </trkpt>
      <trkpt lat="42.8649717662" lon="-8.5290302988">
        <ele>258.25</ele>
        <time>2020-08-15T13:26:56Z</time>
      </trkpt>
      <trkpt lat="42.8652175236" lon="-8.5291404370">
        <ele>260.65</ele>
        <time>2020-08-15T13:27:08Z</time>
      </trkpt>
      <trkpt lat="42.8654186893" lon="-8.5292449594">
        <ele>262.58</ele>
        <time>2020-08-15T13:27:19Z</time>
      </trkpt>
      <trkpt lat="42.8655649535" lon="-8.5293396749">
        <ele>262.58</ele>
        <time>2020-08-15T13:27:26Z</time>
      </trkpt>
      <trkpt lat="42.8657482658" lon="-8.5295172874">
        <ele>264.02</ele>
        <time>2020-08-15T13:27:36Z</time>
      </trkpt>
      <trkpt lat="42.8659062646" lon="-8.5296015255">
        <ele>264.02</ele>
        <time>2020-08-15T13:27:44Z</time>
      </trkpt>
      <trkpt lat="42.8661560453" lon="-8.5296360590">
        <ele>266.42</ele>
        <time>2020-08-15T13:27:54Z</time>
      </trkpt>
      <trkpt lat="42.8663852066" lon="-8.5297147650">
        <ele>265.46</ele>
        <time>2020-08-15T13:28:04Z</time>
      </trkpt>
      <trkpt lat="42.8665239271" lon="-8.5298182815">
        <ele>264.50</ele>
        <time>2020-08-15T13:28:10Z</time>
      </trkpt>
      <trkpt lat="42.8666404355" lon="-8.5300350375">
        <ele>263.54</ele>
        <time>2020-08-15T13:28:17Z</time>
      </trkpt>
      <trkpt lat="42.8668308724" lon="-8.5304190125">
        <ele>261.14</ele>
        <time>2020-08-15T13:28:24Z</time>
      </trkpt>
      <trkpt lat="42.8671346325" lon="-8.5310191568">
        <ele>257.29</ele>
        <time>2020-08-15T13:28:32Z</time>
      </trkpt>
      <trkpt lat="42.8674390633" lon="-8.5315819178">
        <ele>252.96</ele>
        <time>2020-08-15T13:28:39Z</time>
      </trkpt>
      <trkpt lat="42.8676083777" lon="-8.5317963269">
        <ele>251.04</ele>
        <time>2020-08-15T13:28:44Z</time>
      </trkpt>
      <trkpt lat="42.8677609283" lon="-8.5319788009">
        <ele>250.08</ele>
        <time>2020-08-15T13:28:52Z</time>
      </trkpt>
      <trkpt lat="42.8678697255" lon="-8.5321544018">
        <ele>248.64</ele>
        <time>2020-08-15T13:28:59Z</time>
      </trkpt>
      <trkpt lat="42.8678978048" lon="-8.5322354548">
        <ele>247.68</ele>
        <time>2020-08-15T13:29:03Z</time>
      </trkpt>
      <trkpt lat="42.8679964598" lon="-8.5322987381">
        <ele>248.64</ele>
        <time>2020-08-15T13:29:10Z</time>
      </trkpt>
      <trkpt lat="42.8680486791" lon="-8.5323108919">
        <ele>248.16</ele>
        <time>2020-08-15T13:29:14Z</time>
      </trkpt>
      <trkpt lat="42.8682058398" lon="-8.5324372910">
        <ele>246.23</ele>
        <time>2020-08-15T13:29:22Z</time>
      </trkpt>
      <trkpt lat="42.8684347495" lon="-8.5326266382">
        <ele>245.27</ele>
        <time>2020-08-15T13:29:31Z</time>
      </trkpt>
      <trkpt lat="42.8686758969" lon="-8.5328304861">
        <ele>242.87</ele>
        <time>2020-08-15T13:29:38Z</time>
      </trkpt>
      <trkpt lat="42.8687505797" lon="-8.5328791849">
        <ele>241.43</ele>
        <time>2020-08-15T13:29:43Z</time>
      </trkpt>
      <trkpt lat="42.8687613923" lon="-8.5329303145">
        <ele>239.99</ele>
        <time>2020-08-15T13:29:58Z</time>
      </trkpt>
      <trkpt lat="42.8688175511" lon="-8.5329551250">
        <ele>239.51</ele>
        <time>2020-08-15T13:30:04Z</time>
      </trkpt>
      <trkpt lat="42.8688092530" lon="-8.5329682846">
        <ele>239.51</ele>
        <time>2020-08-15T13:30:18Z</time>
      </trkpt>
      <trkpt lat="42.8688194789" lon="-8.5329500120">
        <ele>241.43</ele>
        <time>2020-08-15T13:30:37Z</time>
      </trkpt>
      <trkpt lat="42.8688247595" lon="-8.5329531133">
        <ele>240.47</ele>
        <time>2020-08-15T13:30:48Z</time>
      </trkpt>
      <trkpt lat="42.8688468039" lon="-8.5329743195">
        <ele>239.99</ele>
        <time>2020-08-15T13:30:55Z</time>
      </trkpt>
      <trkpt lat="42.8688587900" lon="-8.5329865571">
        <ele>239.99</ele>
        <time>2020-08-15T13:30:56Z</time>
      </trkpt>
      <trkpt lat="42.8690210637" lon="-8.5331050772">
        <ele>239.51</ele>
        <time>2020-08-15T13:31:02Z</time>
      </trkpt>
      <trkpt lat="42.8690678347" lon="-8.5331267864">
        <ele>239.02</ele>
        <time>2020-08-15T13:31:03Z</time>
      </trkpt>
      <trkpt lat="42.8691183776" lon="-8.5331395268">
        <ele>238.54</ele>
        <time>2020-08-15T13:31:04Z</time>
      </trkpt>
      <trkpt lat="42.8691778053" lon="-8.5331435502">
        <ele>238.54</ele>
        <time>2020-08-15T13:31:05Z</time>
      </trkpt>
      <trkpt lat="42.8692374844" lon="-8.5331412870">
        <ele>238.06</ele>
        <time>2020-08-15T13:31:06Z</time>
      </trkpt>
      <trkpt lat="42.8693001810" lon="-8.5331336595">
        <ele>237.58</ele>
        <time>2020-08-15T13:31:07Z</time>
      </trkpt>
      <trkpt lat="42.8693604469" lon="-8.5331228469">
        <ele>237.10</ele>
        <time>2020-08-15T13:31:08Z</time>
      </trkpt>
      <trkpt lat="42.8696052823" lon="-8.5330960248">
        <ele>235.18</ele>
        <time>2020-08-15T13:31:12Z</time>
      </trkpt>
      <trkpt lat="42.8696662188" lon="-8.5331064183">
        <ele>234.70</ele>
        <time>2020-08-15T13:31:13Z</time>
      </trkpt>
      <trkpt lat="42.8697215393" lon="-8.5331284627">
        <ele>234.22</ele>
        <time>2020-08-15T13:31:14Z</time>
      </trkpt>
      <trkpt lat="42.8697730880" lon="-8.5331645049">
        <ele>233.26</ele>
        <time>2020-08-15T13:31:15Z</time>
      </trkpt>
      <trkpt lat="42.8698163386" lon="-8.5332071688">
        <ele>232.78</ele>
        <time>2020-08-15T13:31:16Z</time>
      </trkpt>
      <trkpt lat="42.8698594216" lon="-8.5332550295">
        <ele>232.30</ele>
        <time>2020-08-15T13:31:17Z</time>
      </trkpt>
      <trkpt lat="42.8702138923" lon="-8.5336976778">
        <ele>227.49</ele>
        <time>2020-08-15T13:31:25Z</time>
      </trkpt>
      <trkpt lat="42.8706219234" lon="-8.5340969916">
        <ele>223.64</ele>
        <time>2020-08-15T13:31:33Z</time>
      </trkpt>
      <trkpt lat="42.8711709380" lon="-8.5346123111">
        <ele>220.28</ele>
        <time>2020-08-15T13:31:42Z</time>
      </trkpt>
      <trkpt lat="42.8715201281" lon="-8.5350052547">
        <ele>218.36</ele>
        <time>2020-08-15T13:31:50Z</time>
      </trkpt>
      <trkpt lat="42.8718994092" lon="-8.5354649182">
        <ele>216.91</ele>
        <time>2020-08-15T13:31:58Z</time>
      </trkpt>
      <trkpt lat="42.8722197656" lon="-8.5358357336">
        <ele>216.43</ele>
        <time>2020-08-15T13:32:06Z</time>
      </trkpt>
      <trkpt lat="42.8723649401" lon="-8.5359931458">
        <ele>217.40</ele>
        <time>2020-08-15T13:32:12Z</time>
      </trkpt>
      <trkpt lat="42.8724322468" lon="-8.5360425990">
        <ele>216.91</ele>
        <time>2020-08-15T13:32:14Z</time>
      </trkpt>
      <trkpt lat="42.8724724799" lon="-8.5360609554">
        <ele>216.91</ele>
        <time>2020-08-15T13:32:15Z</time>
      </trkpt>
      <trkpt lat="42.8725169878" lon="-8.5360757913">
        <ele>216.91</ele>
        <time>2020-08-15T13:32:16Z</time>
      </trkpt>
      <trkpt lat="42.8726889007" lon="-8.5361114144">
        <ele>216.43</ele>
        <time>2020-08-15T13:32:20Z</time>
      </trkpt>
      <trkpt lat="42.8728847858" lon="-8.5362199601">
        <ele>215.47</ele>
        <time>2020-08-15T13:32:25Z</time>
      </trkpt>
      <trkpt lat="42.8730947524" lon="-8.5364974011">
        <ele>215.47</ele>
        <time>2020-08-15T13:32:33Z</time>
      </trkpt>
      <trkpt lat="42.8732252587" lon="-8.5369311646">
        <ele>218.84</ele>
        <time>2020-08-15T13:32:44Z</time>
      </trkpt>
      <trkpt lat="42.8733572736" lon="-8.5373935942">
        <ele>221.24</ele>
        <time>2020-08-15T13:32:57Z</time>
      </trkpt>
      <trkpt lat="42.8734718543" lon="-8.5376682691">
        <ele>221.72</ele>
        <time>2020-08-15T13:33:06Z</time>
      </trkpt>
      <trkpt lat="42.8734783083" lon="-8.5376902297">
        <ele>222.20</ele>
        <time>2020-08-15T13:33:07Z</time>
      </trkpt>
      <trkpt lat="42.8734795656" lon="-8.5377078317">
        <ele>222.20</ele>
        <time>2020-08-15T13:33:08Z</time>
      </trkpt>
      <trkpt lat="42.8734795656" lon="-8.5377307143">
        <ele>222.68</ele>
        <time>2020-08-15T13:33:09Z</time>
      </trkpt>
      <trkpt lat="42.8734927252" lon="-8.5378192272">
        <ele>223.16</ele>
        <time>2020-08-15T13:33:14Z</time>
      </trkpt>
      <trkpt lat="42.8735654801" lon="-8.5379659943">
        <ele>222.68</ele>
        <time>2020-08-15T13:33:18Z</time>
      </trkpt>
      <trkpt lat="42.8735750355" lon="-8.5379841831">
        <ele>222.68</ele>
        <time>2020-08-15T13:33:19Z</time>
      </trkpt>
      <trkpt lat="42.8735900391" lon="-8.5380000249">
        <ele>222.20</ele>
        <time>2020-08-15T13:33:20Z</time>
      </trkpt>
      <trkpt lat="42.8736056294" lon="-8.5380138550">
        <ele>222.20</ele>
        <time>2020-08-15T13:33:21Z</time>
      </trkpt>
      <trkpt lat="42.8736216389" lon="-8.5380282719">
        <ele>221.72</ele>
        <time>2020-08-15T13:33:22Z</time>
      </trkpt>
      <trkpt lat="42.8736392409" lon="-8.5380403418">
        <ele>221.72</ele>
        <time>2020-08-15T13:33:23Z</time>
      </trkpt>
      <trkpt lat="42.8736558370" lon="-8.5380526632">
        <ele>221.72</ele>
        <time>2020-08-15T13:33:24Z</time>
      </trkpt>
      <trkpt lat="42.8736727685" lon="-8.5380657390">
        <ele>221.72</ele>
        <time>2020-08-15T13:33:25Z</time>
      </trkpt>
      <trkpt lat="42.8738268279" lon="-8.5381994303">
        <ele>224.12</ele>
        <time>2020-08-15T13:33:34Z</time>
      </trkpt>
      <trkpt lat="42.8739539813" lon="-8.5383252427">
        <ele>225.57</ele>
        <time>2020-08-15T13:33:42Z</time>
      </trkpt>
      <trkpt lat="42.8741007484" lon="-8.5384637117">
        <ele>227.49</ele>
        <time>2020-08-15T13:33:51Z</time>
      </trkpt>
      <trkpt lat="42.8742791153" lon="-8.5386047792">
        <ele>228.93</ele>
        <time>2020-08-15T13:34:01Z</time>
      </trkpt>
      <trkpt lat="42.8744771797" lon="-8.5387485288">
        <ele>229.89</ele>
        <time>2020-08-15T13:34:11Z</time>
      </trkpt>
      <trkpt lat="42.8747499269" lon="-8.5388854053">
        <ele>230.37</ele>
        <time>2020-08-15T13:34:21Z</time>
      </trkpt>
      <trkpt lat="42.8750209976" lon="-8.5390035063">
        <ele>230.37</ele>
        <time>2020-08-15T13:34:30Z</time>
      </trkpt>
      <trkpt lat="42.8752302099" lon="-8.5391050950">
        <ele>230.85</ele>
        <time>2020-08-15T13:34:38Z</time>
      </trkpt>
      <trkpt lat="42.8753759712" lon="-8.5393398721">
        <ele>231.33</ele>
        <time>2020-08-15T13:34:46Z</time>
      </trkpt>
      <trkpt lat="42.8755493928" lon="-8.5396600608">
        <ele>231.33</ele>
        <time>2020-08-15T13:34:56Z</time>
      </trkpt>
      <trkpt lat="42.8757002670" lon="-8.5399432015">
        <ele>231.33</ele>
        <time>2020-08-15T13:35:06Z</time>
      </trkpt>
      <trkpt lat="42.8758187033" lon="-8.5401809122">
        <ele>233.26</ele>
        <time>2020-08-15T13:35:16Z</time>
      </trkpt>
      <trkpt lat="42.8758451063" lon="-8.5403511487">
        <ele>234.22</ele>
        <time>2020-08-15T13:35:23Z</time>
      </trkpt>
      <trkpt lat="42.8759343736" lon="-8.5405016039">
        <ele>235.18</ele>
        <time>2020-08-15T13:35:30Z</time>
      </trkpt>
      <trkpt lat="42.8760653827" lon="-8.5406987462">
        <ele>238.06</ele>
        <time>2020-08-15T13:35:40Z</time>
      </trkpt>
      <trkpt lat="42.8761538956" lon="-8.5408340301">
        <ele>239.02</ele>
        <time>2020-08-15T13:35:47Z</time>
      </trkpt>
      <trkpt lat="42.8761999123" lon="-8.5409053601">
        <ele>240.47</ele>
        <time>2020-08-15T13:35:55Z</time>
      </trkpt>
      <trkpt lat="42.8762145806" lon="-8.5409440007">
        <ele>240.47</ele>
        <time>2020-08-15T13:36:01Z</time>
      </trkpt>
      <trkpt lat="42.8762750141" lon="-8.5410752613">
        <ele>241.43</ele>
        <time>2020-08-15T13:36:12Z</time>
      </trkpt>
      <trkpt lat="42.8763536364" lon="-8.5411837231">
        <ele>242.87</ele>
        <time>2020-08-15T13:36:25Z</time>
      </trkpt>
      <trkpt lat="42.8764249664" lon="-8.5412888322">
        <ele>244.79</ele>
        <time>2020-08-15T13:36:36Z</time>
      </trkpt>
      <trkpt lat="42.8764609247" lon="-8.5413282271">
        <ele>245.27</ele>
        <time>2020-08-15T13:36:41Z</time>
      </trkpt>
      <trkpt lat="42.8765096236" lon="-8.5414133035">
        <ele>245.75</ele>
        <time>2020-08-15T13:36:50Z</time>
      </trkpt>
      <trkpt lat="42.8765742481" lon="-8.5415235255">
        <ele>247.68</ele>
        <time>2020-08-15T13:37:01Z</time>
      </trkpt>
      <trkpt lat="42.8765936103" lon="-8.5416320711">
        <ele>248.64</ele>
        <time>2020-08-15T13:37:09Z</time>
      </trkpt>
      <trkpt lat="42.8766000643" lon="-8.5417111125">
        <ele>249.60</ele>
        <time>2020-08-15T13:37:18Z</time>
      </trkpt>
      <trkpt lat="42.8765921853" lon="-8.5417964403">
        <ele>249.60</ele>
        <time>2020-08-15T13:37:27Z</time>
      </trkpt>
      <trkpt lat="42.8765454981" lon="-8.5421026312">
        <ele>251.52</ele>
        <time>2020-08-15T13:37:37Z</time>
      </trkpt>
      <trkpt lat="42.8764307499" lon="-8.5424813256">
        <ele>254.41</ele>
        <time>2020-08-15T13:37:48Z</time>
      </trkpt>
      <trkpt lat="42.8762762714" lon="-8.5427599400">
        <ele>256.33</ele>
        <time>2020-08-15T13:37:58Z</time>
      </trkpt>
      <trkpt lat="42.8761331085" lon="-8.5429654643">
        <ele>260.17</ele>
        <time>2020-08-15T13:38:06Z</time>
      </trkpt>
      <trkpt lat="42.8760362137" lon="-8.5431650374">
        <ele>257.77</ele>
        <time>2020-08-15T13:38:14Z</time>
      </trkpt>
      <trkpt lat="42.8759502154" lon="-8.5433287360">
        <ele>255.85</ele>
        <time>2020-08-15T13:38:21Z</time>
      </trkpt>
      <trkpt lat="42.8759191185" lon="-8.5435055941">
        <ele>256.81</ele>
        <time>2020-08-15T13:38:30Z</time>
      </trkpt>
      <trkpt lat="42.8759093117" lon="-8.5435659438">
        <ele>256.81</ele>
        <time>2020-08-15T13:38:34Z</time>
      </trkpt>
      <trkpt lat="42.8758825734" lon="-8.5436555464">
        <ele>257.29</ele>
        <time>2020-08-15T13:38:40Z</time>
      </trkpt>
      <trkpt lat="42.8758553322" lon="-8.5437951889">
        <ele>262.10</ele>
        <time>2020-08-15T13:38:49Z</time>
      </trkpt>
      <trkpt lat="42.8758666478" lon="-8.5438303091">
        <ele>263.54</ele>
        <time>2020-08-15T13:38:51Z</time>
      </trkpt>
      <trkpt lat="42.8759727627" lon="-8.5438652616">
        <ele>266.42</ele>
        <time>2020-08-15T13:38:57Z</time>
      </trkpt>
      <trkpt lat="42.8760678135" lon="-8.5438977834">
        <ele>266.42</ele>
        <time>2020-08-15T13:39:01Z</time>
      </trkpt>
      <trkpt lat="42.8762781993" lon="-8.5439796746">
        <ele>266.90</ele>
        <time>2020-08-15T13:39:12Z</time>
      </trkpt>
      <trkpt lat="42.8763498645" lon="-8.5439884756">
        <ele>267.38</ele>
        <time>2020-08-15T13:39:16Z</time>
      </trkpt>
      <trkpt lat="42.8763965517" lon="-8.5440054908">
        <ele>267.38</ele>
        <time>2020-08-15T13:39:22Z</time>
      </trkpt>
      <trkpt lat="42.8764115553" lon="-8.5440215841">
        <ele>267.38</ele>
        <time>2020-08-15T13:39:26Z</time>
      </trkpt>
      <trkpt lat="42.8765195981" lon="-8.5440411977">
        <ele>267.38</ele>
        <time>2020-08-15T13:39:35Z</time>
      </trkpt>
      <trkpt lat="42.8766330052" lon="-8.5440772399">
        <ele>268.83</ele>
        <time>2020-08-15T13:39:44Z</time>
      </trkpt>
      <trkpt lat="42.8767355997" lon="-8.5441202391">
        <ele>269.31</ele>
        <time>2020-08-15T13:39:52Z</time>
      </trkpt>
      <trkpt lat="42.8768547066" lon="-8.5441704467">
        <ele>270.75</ele>
        <time>2020-08-15T13:40:02Z</time>
      </trkpt>
      <trkpt lat="42.8768894915" lon="-8.5441976879">
        <ele>270.75</ele>
        <time>2020-08-15T13:40:05Z</time>
      </trkpt>
      <trkpt lat="42.8769656830" lon="-8.5442281980">
        <ele>269.79</ele>
        <time>2020-08-15T13:40:11Z</time>
      </trkpt>
      <trkpt lat="42.8770558722" lon="-8.5442152061">
        <ele>271.71</ele>
        <time>2020-08-15T13:40:19Z</time>
      </trkpt>
      <trkpt lat="42.8771736380" lon="-8.5441907309">
        <ele>274.59</ele>
        <time>2020-08-15T13:40:28Z</time>
      </trkpt>
      <trkpt lat="42.8773250151" lon="-8.5441995319">
        <ele>275.07</ele>
        <time>2020-08-15T13:40:37Z</time>
      </trkpt>
      <trkpt lat="42.8774089180" lon="-8.5441737156">
        <ele>276.52</ele>
        <time>2020-08-15T13:40:42Z</time>
      </trkpt>
      <trkpt lat="42.8774633165" lon="-8.5442101769">
        <ele>277.96</ele>
        <time>2020-08-15T13:40:48Z</time>
      </trkpt>
      <trkpt lat="42.8775516618" lon="-8.5443131067">
        <ele>277.96</ele>
        <time>2020-08-15T13:40:57Z</time>
      </trkpt>
      <trkpt lat="42.8776336368" lon="-8.5442685988">
        <ele>277.00</ele>
        <time>2020-08-15T13:41:03Z</time>
      </trkpt>
      <trkpt lat="42.8777454514" lon="-8.5441573709">
        <ele>277.96</ele>
        <time>2020-08-15T13:41:13Z</time>
      </trkpt>
      <trkpt lat="42.8778560925" lon="-8.5440516751">
        <ele>278.92</ele>
        <time>2020-08-15T13:41:23Z</time>
      </trkpt>
      <trkpt lat="42.8779593576" lon="-8.5439774953">
        <ele>280.36</ele>
        <time>2020-08-15T13:41:31Z</time>
      </trkpt>
      <trkpt lat="42.8780733515" lon="-8.5439152177">
        <ele>282.28</ele>
        <time>2020-08-15T13:41:40Z</time>
      </trkpt>
      <trkpt lat="42.8781971522" lon="-8.5438172333">
        <ele>284.21</ele>
        <time>2020-08-15T13:41:50Z</time>
      </trkpt>
      <trkpt lat="42.8783070389" lon="-8.5437824484">
        <ele>279.40</ele>
        <time>2020-08-15T13:41:58Z</time>
      </trkpt>
      <trkpt lat="42.8783974797" lon="-8.5437504295">
        <ele>277.00</ele>
        <time>2020-08-15T13:42:06Z</time>
      </trkpt>
      <trkpt lat="42.8784149978" lon="-8.5437143873">
        <ele>275.07</ele>
        <time>2020-08-15T13:42:14Z</time>
      </trkpt>
      <trkpt lat="42.8785372898" lon="-8.5436715558">
        <ele>273.15</ele>
        <time>2020-08-15T13:42:25Z</time>
      </trkpt>
      <trkpt lat="42.8786522057" lon="-8.5436122119">
        <ele>270.75</ele>
        <time>2020-08-15T13:42:34Z</time>
      </trkpt>
      <trkpt lat="42.8787798621" lon="-8.5435548797">
        <ele>267.38</ele>
        <time>2020-08-15T13:42:44Z</time>
      </trkpt>
      <trkpt lat="42.8788960353" lon="-8.5435396247">
        <ele>266.42</ele>
        <time>2020-08-15T13:42:53Z</time>
      </trkpt>
      <trkpt lat="42.8789868113" lon="-8.5435324162">
        <ele>268.35</ele>
        <time>2020-08-15T13:42:59Z</time>
      </trkpt>
      <trkpt lat="42.8790010605" lon="-8.5435288958">
        <ele>268.83</ele>
        <time>2020-08-15T13:43:00Z</time>
      </trkpt>
      <trkpt lat="42.8790717199" lon="-8.5435098689">
        <ele>269.79</ele>
        <time>2020-08-15T13:43:05Z</time>
      </trkpt>
      <trkpt lat="42.8791951854" lon="-8.5434000660">
        <ele>269.79</ele>
        <time>2020-08-15T13:43:15Z</time>
      </trkpt>
      <trkpt lat="42.8792087641" lon="-8.5433981381">
        <ele>269.79</ele>
        <time>2020-08-15T13:43:16Z</time>
      </trkpt>
      <trkpt lat="42.8793029767" lon="-8.5433846433">
        <ele>268.83</ele>
        <time>2020-08-15T13:43:23Z</time>
      </trkpt>
      <trkpt lat="42.8794409428" lon="-8.5433672089">
        <ele>267.86</ele>
        <time>2020-08-15T13:43:33Z</time>
      </trkpt>
      <trkpt lat="42.8795347363" lon="-8.5433610901">
        <ele>267.38</ele>
        <time>2020-08-15T13:43:40Z</time>
      </trkpt>
      <trkpt lat="42.8796449583" lon="-8.5433230363">
        <ele>269.31</ele>
        <time>2020-08-15T13:43:49Z</time>
      </trkpt>
      <trkpt lat="42.8796693496" lon="-8.5433171690">
        <ele>269.31</ele>
        <time>2020-08-15T13:43:51Z</time>
      </trkpt>
      <trkpt lat="42.8797157854" lon="-8.5433705617">
        <ele>269.31</ele>
        <time>2020-08-15T13:43:57Z</time>
      </trkpt>
      <trkpt lat="42.8797105886" lon="-8.5434011556">
        <ele>269.31</ele>
        <time>2020-08-15T13:43:59Z</time>
      </trkpt>
      <trkpt lat="42.8797386680" lon="-8.5435567237">
        <ele>270.27</ele>
        <time>2020-08-15T13:44:09Z</time>
      </trkpt>
      <trkpt lat="42.8797561862" lon="-8.5436933488">
        <ele>272.67</ele>
        <time>2020-08-15T13:44:18Z</time>
      </trkpt>
      <trkpt lat="42.8797758836" lon="-8.5438746493">
        <ele>275.07</ele>
        <time>2020-08-15T13:44:28Z</time>
      </trkpt>
      <trkpt lat="42.8797968384" lon="-8.5440112744">
        <ele>276.52</ele>
        <time>2020-08-15T13:44:37Z</time>
      </trkpt>
      <trkpt lat="42.8798110876" lon="-8.5441122763">
        <ele>276.52</ele>
        <time>2020-08-15T13:44:45Z</time>
      </trkpt>
      <trkpt lat="42.8798330482" lon="-8.5441372544">
        <ele>276.52</ele>
        <time>2020-08-15T13:44:53Z</time>
      </trkpt>
      <trkpt lat="42.8798374068" lon="-8.5442077462">
        <ele>277.48</ele>
        <time>2020-08-15T13:45:02Z</time>
      </trkpt>
      <trkpt lat="42.8798425198" lon="-8.5442882963">
        <ele>276.52</ele>
        <time>2020-08-15T13:45:07Z</time>
      </trkpt>
      <trkpt lat="42.8798663244" lon="-8.5444182996">
        <ele>273.63</ele>
        <time>2020-08-15T13:45:16Z</time>
      </trkpt>
      <trkpt lat="42.8798691742" lon="-8.5446246620">
        <ele>266.90</ele>
        <time>2020-08-15T13:45:26Z</time>
      </trkpt>
      <trkpt lat="42.8798625525" lon="-8.5448154341">
        <ele>264.50</ele>
        <time>2020-08-15T13:45:36Z</time>
      </trkpt>
      <trkpt lat="42.8798561823" lon="-8.5450124927">
        <ele>262.58</ele>
        <time>2020-08-15T13:45:47Z</time>
      </trkpt>
      <trkpt lat="42.8798516560" lon="-8.5451679770">
        <ele>261.14</ele>
        <time>2020-08-15T13:45:59Z</time>
      </trkpt>
      <trkpt lat="42.8798549250" lon="-8.5451727547">
        <ele>261.14</ele>
        <time>2020-08-15T13:46:00Z</time>
      </trkpt>
      <trkpt lat="42.8799511492" lon="-8.5452097189">
        <ele>262.10</ele>
        <time>2020-08-15T13:46:09Z</time>
      </trkpt>
      <trkpt lat="42.8800652269" lon="-8.5453012493">
        <ele>263.06</ele>
        <time>2020-08-15T13:46:20Z</time>
      </trkpt>
      <trkpt lat="42.8800763749" lon="-8.5453304183">
        <ele>263.06</ele>
        <time>2020-08-15T13:46:22Z</time>
      </trkpt>
      <trkpt lat="42.8800735250" lon="-8.5454033408">
        <ele>263.54</ele>
        <time>2020-08-15T13:46:27Z</time>
      </trkpt>
      <trkpt lat="42.8801564220" lon="-8.5455808695">
        <ele>265.46</ele>
        <time>2020-08-15T13:46:39Z</time>
      </trkpt>
      <trkpt lat="42.8802367207" lon="-8.5456796922">
        <ele>265.94</ele>
        <time>2020-08-15T13:46:49Z</time>
      </trkpt>
      <trkpt lat="42.8802582622" lon="-8.5456852242">
        <ele>265.94</ele>
        <time>2020-08-15T13:46:55Z</time>
      </trkpt>
      <trkpt lat="42.8802675661" lon="-8.5456898343">
        <ele>265.94</ele>
        <time>2020-08-15T13:46:56Z</time>
      </trkpt>
      <trkpt lat="42.8802863415" lon="-8.5457320791">
        <ele>265.94</ele>
        <time>2020-08-15T13:47:04Z</time>
      </trkpt>
      <trkpt lat="42.8802781273" lon="-8.5457468312">
        <ele>264.50</ele>
        <time>2020-08-15T13:47:23Z</time>
      </trkpt>
      <trkpt lat="42.8802761994" lon="-8.5457571410">
        <ele>264.50</ele>
        <time>2020-08-15T13:47:39Z</time>
      </trkpt>
      <trkpt lat="42.8802749421" lon="-8.5457756650">
        <ele>264.02</ele>
        <time>2020-08-15T13:48:00Z</time>
      </trkpt>
      <trkpt lat="42.8802761156" lon="-8.5457736533">
        <ele>264.98</ele>
        <time>2020-08-15T13:48:16Z</time>
      </trkpt>
      <trkpt lat="42.8802824859" lon="-8.5457810294">
        <ele>265.46</ele>
        <time>2020-08-15T13:48:36Z</time>
      </trkpt>
      <trkpt lat="42.8802965675" lon="-8.5457706358">
        <ele>266.42</ele>
        <time>2020-08-15T13:48:55Z</time>
      </trkpt>
      <trkpt lat="42.8803068772" lon="-8.5458046664">
        <ele>264.98</ele>
        <time>2020-08-15T13:49:01Z</time>
      </trkpt>
      <trkpt lat="42.8802958969" lon="-8.5458785947">
        <ele>264.02</ele>
        <time>2020-08-15T13:49:11Z</time>
      </trkpt>
      <trkpt lat="42.8802599385" lon="-8.5458840430">
        <ele>264.50</ele>
        <time>2020-08-15T13:49:32Z</time>
      </trkpt>
      <trkpt lat="42.8802800551" lon="-8.5458653513">
        <ele>266.90</ele>
        <time>2020-08-15T13:49:54Z</time>
      </trkpt>
      <trkpt lat="42.8802911192" lon="-8.5458416305">
        <ele>265.46</ele>
        <time>2020-08-15T13:50:13Z</time>
      </trkpt>
      <trkpt lat="42.8802766185" lon="-8.5458640940">
        <ele>264.02</ele>
        <time>2020-08-15T13:50:37Z</time>
      </trkpt>
      <trkpt lat="42.8802798036" lon="-8.5458690394">
        <ele>263.06</ele>
        <time>2020-08-15T13:50:57Z</time>
      </trkpt>
      <trkpt lat="42.8802827373" lon="-8.5458355956">
        <ele>267.86</ele>
        <time>2020-08-15T13:51:19Z</time>
      </trkpt>
      <trkpt lat="42.8802684043" lon="-8.5458360985">
        <ele>265.94</ele>
        <time>2020-08-15T13:51:37Z</time>
      </trkpt>
      <trkpt lat="42.8802728467" lon="-8.5458511859">
        <ele>264.50</ele>
        <time>2020-08-15T13:51:53Z</time>
      </trkpt>
      <trkpt lat="42.8802736849" lon="-8.5458776727">
        <ele>263.54</ele>
        <time>2020-08-15T13:52:06Z</time>
      </trkpt>
      <trkpt lat="42.8802826535" lon="-8.5459004715">
        <ele>264.02</ele>
        <time>2020-08-15T13:52:21Z</time>
      </trkpt>
      <trkpt lat="42.8802989144" lon="-8.5459081829">
        <ele>263.06</ele>
        <time>2020-08-15T13:52:28Z</time>
      </trkpt>
      <trkpt lat="42.8802980762" lon="-8.5459592286">
        <ele>262.58</ele>
        <time>2020-08-15T13:52:32Z</time>
      </trkpt>
      <trkpt lat="42.8802693263" lon="-8.5460540280">
        <ele>262.58</ele>
        <time>2020-08-15T13:52:40Z</time>
      </trkpt>
      <trkpt lat="42.8802633751" lon="-8.5460481606">
        <ele>262.10</ele>
        <time>2020-08-15T13:52:48Z</time>
      </trkpt>
      <trkpt lat="42.8802724276" lon="-8.5459937621">
        <ele>264.50</ele>
        <time>2020-08-15T13:53:01Z</time>
      </trkpt>
      <trkpt lat="42.8802719247" lon="-8.5459697060">
        <ele>264.50</ele>
        <time>2020-08-15T13:53:16Z</time>
      </trkpt>
      <trkpt lat="42.8802711703" lon="-8.5459548701">
        <ele>264.02</ele>
        <time>2020-08-15T13:53:28Z</time>
      </trkpt>
      <trkpt lat="42.8802822344" lon="-8.5459549539">
        <ele>265.94</ele>
        <time>2020-08-15T13:53:39Z</time>
      </trkpt>
      <trkpt lat="42.8802786302" lon="-8.5459580552">
        <ele>267.38</ele>
        <time>2020-08-15T13:53:52Z</time>
      </trkpt>
      <trkpt lat="42.8802724276" lon="-8.5459887329">
        <ele>267.86</ele>
        <time>2020-08-15T13:54:04Z</time>
      </trkpt>
      <trkpt lat="42.8802690748" lon="-8.5459674429">
        <ele>268.83</ele>
        <time>2020-08-15T13:54:21Z</time>
      </trkpt>
      <trkpt lat="42.8802704997" lon="-8.5459276289">
        <ele>267.86</ele>
        <time>2020-08-15T13:54:36Z</time>
      </trkpt>
      <trkpt lat="42.8802741878" lon="-8.5459088534">
        <ele>270.27</ele>
        <time>2020-08-15T13:55:04Z</time>
      </trkpt>
      <trkpt lat="42.8802573401" lon="-8.5459288023">
        <ele>267.86</ele>
        <time>2020-08-15T13:55:28Z</time>
      </trkpt>
      <trkpt lat="42.8802528139" lon="-8.5459319036">
        <ele>268.35</ele>
        <time>2020-08-15T13:56:00Z</time>
      </trkpt>
      <trkpt lat="42.8802605253" lon="-8.5459510144">
        <ele>269.79</ele>
        <time>2020-08-15T13:56:26Z</time>
      </trkpt>
      <trkpt lat="42.8802534845" lon="-8.5459704604">
        <ele>270.27</ele>
        <time>2020-08-15T13:56:54Z</time>
      </trkpt>
      <trkpt lat="42.8802596033" lon="-8.5459204204">
        <ele>269.31</ele>
        <time>2020-08-15T13:57:21Z</time>
      </trkpt>
      <trkpt lat="42.8802750260" lon="-8.5459058359">
        <ele>269.79</ele>
        <time>2020-08-15T13:57:50Z</time>
      </trkpt>
      <trkpt lat="42.8802636266" lon="-8.5459127929">
        <ele>274.11</ele>
        <time>2020-08-15T13:58:18Z</time>
      </trkpt>
      <trkpt lat="42.8802648000" lon="-8.5459038243">
        <ele>276.04</ele>
        <time>2020-08-15T13:58:44Z</time>
      </trkpt>
      <trkpt lat="42.8802565858" lon="-8.5459126253">
        <ele>277.00</ele>
        <time>2020-08-15T13:59:09Z</time>
      </trkpt>
      <trkpt lat="42.8802543227" lon="-8.5458917543">
        <ele>279.40</ele>
        <time>2020-08-15T13:59:36Z</time>
      </trkpt>
      <trkpt lat="42.8802526463" lon="-8.5458805226">
        <ele>280.36</ele>
        <time>2020-08-15T14:00:03Z</time>
      </trkpt>
      <trkpt lat="42.8802550770" lon="-8.5459112842">
        <ele>281.32</ele>
        <time>2020-08-15T14:00:19Z</time>
      </trkpt>
      <trkpt lat="42.8802478686" lon="-8.5459168162">
        <ele>281.80</ele>
        <time>2020-08-15T14:00:44Z</time>
      </trkpt>
      <trkpt lat="42.8802469466" lon="-8.5459301434">
        <ele>277.96</ele>
        <time>2020-08-15T14:01:08Z</time>
      </trkpt>
      <trkpt lat="42.8802404087" lon="-8.5459106136">
        <ele>279.88</ele>
        <time>2020-08-15T14:01:34Z</time>
      </trkpt>
      <trkpt lat="42.8802451026" lon="-8.5459311493">
        <ele>280.84</ele>
        <time>2020-08-15T14:01:57Z</time>
      </trkpt>
      <trkpt lat="42.8802479524" lon="-8.5459110327">
        <ele>282.77</ele>
        <time>2020-08-15T14:02:16Z</time>
      </trkpt>
      <trkpt lat="42.8802513052" lon="-8.5458984599">
        <ele>283.73</ele>
        <time>2020-08-15T14:02:32Z</time>
      </trkpt>
      <trkpt lat="42.8802488744" lon="-8.5458756611">
        <ele>285.65</ele>
        <time>2020-08-15T14:02:48Z</time>
      </trkpt>
      <trkpt lat="42.8802504670" lon="-8.5458788462">
        <ele>288.05</ele>
        <time>2020-08-15T14:03:06Z</time>
      </trkpt>
      <trkpt lat="42.8802617826" lon="-8.5458603222">
        <ele>284.21</ele>
        <time>2020-08-15T14:03:32Z</time>
      </trkpt>
      <trkpt lat="42.8802611120" lon="-8.5458696261">
        <ele>283.25</ele>
        <time>2020-08-15T14:03:45Z</time>
      </trkpt>
      <trkpt lat="42.8802672308" lon="-8.5458599869">
        <ele>284.69</ele>
        <time>2020-08-15T14:04:14Z</time>
      </trkpt>
      <trkpt lat="42.8802601062" lon="-8.5458531138">
        <ele>284.21</ele>
        <time>2020-08-15T14:04:33Z</time>
      </trkpt>
      <trkpt lat="42.8802449349" lon="-8.5458309017">
        <ele>287.57</ele>
        <time>2020-08-15T14:04:55Z</time>
      </trkpt>
      <trkpt lat="42.8802372236" lon="-8.5457758326">
        <ele>292.86</ele>
        <time>2020-08-15T14:05:14Z</time>
      </trkpt>
      <trkpt lat="42.8802404925" lon="-8.5458054207">
        <ele>292.38</ele>
        <time>2020-08-15T14:05:30Z</time>
      </trkpt>
      <trkpt lat="42.8802529816" lon="-8.5457708873">
        <ele>295.74</ele>
        <time>2020-08-15T14:05:49Z</time>
      </trkpt>
      <trkpt lat="42.8802448511" lon="-8.5457450710">
        <ele>298.63</ele>
        <time>2020-08-15T14:06:06Z</time>
      </trkpt>
      <trkpt lat="42.8802518919" lon="-8.5457314923">
        <ele>300.07</ele>
        <time>2020-08-15T14:06:22Z</time>
      </trkpt>
      <trkpt lat="42.8802431747" lon="-8.5457482561">
        <ele>300.55</ele>
        <time>2020-08-15T14:06:39Z</time>
      </trkpt>
      <trkpt lat="42.8802321944" lon="-8.5457708035">
        <ele>301.03</ele>
        <time>2020-08-15T14:06:57Z</time>
      </trkpt>
      <trkpt lat="42.8802317753" lon="-8.5457853880">
        <ele>299.11</ele>
        <time>2020-08-15T14:07:14Z</time>
      </trkpt>
      <trkpt lat="42.8802238964" lon="-8.5457898304">
        <ele>294.78</ele>
        <time>2020-08-15T14:07:36Z</time>
      </trkpt>
      <trkpt lat="42.8802233096" lon="-8.5458126292">
        <ele>291.90</ele>
        <time>2020-08-15T14:07:54Z</time>
      </trkpt>
      <trkpt lat="42.8802138381" lon="-8.5457479209">
        <ele>294.78</ele>
        <time>2020-08-15T14:08:09Z</time>
      </trkpt>
    </trkseg>
  </trk>
</gpx>
